<?xml version="1.0" encoding="UTF-8"?>
<gpx version="1.1" creator="https://www.youtrack.es" xsi:schemaLocation="http://www.topografix.com/GPX/1/1 http://www.topografix.com/GPX/1/1/gpx.xsd http://www.garmin.com/xmlschemas/GpxExtensions/v3 http://www.garmin.com/xmlschemas/GpxExtensionsv3.xsd http://www.garmin.com/xmlschemas/TrackPointExtension/v1 http://www.garmin.com/xmlschemas/TrackPointExtensionv1.xsd" xmlns:gpxtpx="http://www.garmin.com/xmlschemas/TrackPointExtension/v1" xmlns:gpxx="http://www.garmin.com/xmlschemas/GpxExtensions/v3" xmlns:xsi="http://www.w3.org/2001/XMLSchema-instance">
  <metadata>
    <link href="https://www.youtrack.es">
      <text>YouTrack.es</text>
    </link>
    <time>2026-05-08T05:02:14Z</time>
  </metadata>
  <trk>
    <src>https://www.youtrack.es</src>
    <link href="https://www.youtrack.es/ruta/7700-mangualde-santiago-de-compostela--caminho-portugues-da-costa-">
      <text>YouTrack.es</text>
    </link>
    <trkseg>
      <trkpt lat="40.6039200" lon="-7.7571990">
        <ele>547.1</ele>
        <time>2019-06-10T04:57:01Z</time>
      </trkpt>
      <trkpt lat="40.6039360" lon="-7.7574580">
        <ele>547.1</ele>
        <time>2019-06-10T04:57:06Z</time>
      </trkpt>
      <trkpt lat="40.6039900" lon="-7.7577770">
        <ele>546.8</ele>
        <time>2019-06-10T04:57:11Z</time>
      </trkpt>
      <trkpt lat="40.6040030" lon="-7.7578630">
        <ele>546.5</ele>
        <time>2019-06-10T04:57:12Z</time>
      </trkpt>
      <trkpt lat="40.6040370" lon="-7.7584840">
        <ele>545.5</ele>
        <time>2019-06-10T04:57:19Z</time>
      </trkpt>
      <trkpt lat="40.6040590" lon="-7.7592620">
        <ele>545.0</ele>
        <time>2019-06-10T04:57:27Z</time>
      </trkpt>
      <trkpt lat="40.6040620" lon="-7.7599200">
        <ele>545.3</ele>
        <time>2019-06-10T04:57:34Z</time>
      </trkpt>
      <trkpt lat="40.6040740" lon="-7.7604370">
        <ele>544.8</ele>
        <time>2019-06-10T04:57:40Z</time>
      </trkpt>
      <trkpt lat="40.6040960" lon="-7.7605040">
        <ele>544.6</ele>
        <time>2019-06-10T04:57:41Z</time>
      </trkpt>
      <trkpt lat="40.6041070" lon="-7.7605730">
        <ele>544.3</ele>
        <time>2019-06-10T04:57:42Z</time>
      </trkpt>
      <trkpt lat="40.6041250" lon="-7.7606350">
        <ele>544.1</ele>
        <time>2019-06-10T04:57:43Z</time>
      </trkpt>
      <trkpt lat="40.6041430" lon="-7.7607060">
        <ele>543.9</ele>
        <time>2019-06-10T04:57:44Z</time>
      </trkpt>
      <trkpt lat="40.6041940" lon="-7.7607670">
        <ele>543.6</ele>
        <time>2019-06-10T04:57:46Z</time>
      </trkpt>
      <trkpt lat="40.6046540" lon="-7.7607850">
        <ele>543.5</ele>
        <time>2019-06-10T04:57:51Z</time>
      </trkpt>
      <trkpt lat="40.6047400" lon="-7.7607840">
        <ele>543.5</ele>
        <time>2019-06-10T04:57:52Z</time>
      </trkpt>
      <trkpt lat="40.6048150" lon="-7.7608360">
        <ele>543.4</ele>
        <time>2019-06-10T04:57:54Z</time>
      </trkpt>
      <trkpt lat="40.6049620" lon="-7.7608590">
        <ele>543.5</ele>
        <time>2019-06-10T04:57:57Z</time>
      </trkpt>
      <trkpt lat="40.6051360" lon="-7.7610440">
        <ele>543.3</ele>
        <time>2019-06-10T04:58:01Z</time>
      </trkpt>
      <trkpt lat="40.6052090" lon="-7.7612510">
        <ele>543.0</ele>
        <time>2019-06-10T04:58:04Z</time>
      </trkpt>
      <trkpt lat="40.6050670" lon="-7.7615730">
        <ele>542.8</ele>
        <time>2019-06-10T04:58:08Z</time>
      </trkpt>
      <trkpt lat="40.6049970" lon="-7.7617100">
        <ele>543.0</ele>
        <time>2019-06-10T04:58:10Z</time>
      </trkpt>
      <trkpt lat="40.6049770" lon="-7.7618180">
        <ele>542.9</ele>
        <time>2019-06-10T04:58:11Z</time>
      </trkpt>
      <trkpt lat="40.6049600" lon="-7.7619150">
        <ele>542.7</ele>
        <time>2019-06-10T04:58:12Z</time>
      </trkpt>
      <trkpt lat="40.6049490" lon="-7.7620030">
        <ele>542.6</ele>
        <time>2019-06-10T04:58:13Z</time>
      </trkpt>
      <trkpt lat="40.6049510" lon="-7.7620980">
        <ele>542.3</ele>
        <time>2019-06-10T04:58:14Z</time>
      </trkpt>
      <trkpt lat="40.6049560" lon="-7.7621840">
        <ele>542.0</ele>
        <time>2019-06-10T04:58:15Z</time>
      </trkpt>
      <trkpt lat="40.6049730" lon="-7.7622730">
        <ele>541.9</ele>
        <time>2019-06-10T04:58:16Z</time>
      </trkpt>
      <trkpt lat="40.6049850" lon="-7.7623660">
        <ele>541.9</ele>
        <time>2019-06-10T04:58:17Z</time>
      </trkpt>
      <trkpt lat="40.6050360" lon="-7.7630320">
        <ele>541.4</ele>
        <time>2019-06-10T04:58:24Z</time>
      </trkpt>
      <trkpt lat="40.6051490" lon="-7.7636180">
        <ele>542.8</ele>
        <time>2019-06-10T04:58:31Z</time>
      </trkpt>
      <trkpt lat="40.6052630" lon="-7.7641650">
        <ele>544.5</ele>
        <time>2019-06-10T04:58:38Z</time>
      </trkpt>
      <trkpt lat="40.6052860" lon="-7.7643040">
        <ele>544.9</ele>
        <time>2019-06-10T04:58:40Z</time>
      </trkpt>
      <trkpt lat="40.6052910" lon="-7.7643740">
        <ele>545.1</ele>
        <time>2019-06-10T04:58:41Z</time>
      </trkpt>
      <trkpt lat="40.6052820" lon="-7.7644500">
        <ele>545.3</ele>
        <time>2019-06-10T04:58:42Z</time>
      </trkpt>
      <trkpt lat="40.6052740" lon="-7.7645260">
        <ele>545.5</ele>
        <time>2019-06-10T04:58:43Z</time>
      </trkpt>
      <trkpt lat="40.6052730" lon="-7.7645910">
        <ele>545.8</ele>
        <time>2019-06-10T04:58:44Z</time>
      </trkpt>
      <trkpt lat="40.6052320" lon="-7.7647880">
        <ele>546.6</ele>
        <time>2019-06-10T04:58:47Z</time>
      </trkpt>
      <trkpt lat="40.6051800" lon="-7.7648980">
        <ele>548.0</ele>
        <time>2019-06-10T04:58:49Z</time>
      </trkpt>
      <trkpt lat="40.6051560" lon="-7.7649500">
        <ele>548.6</ele>
        <time>2019-06-10T04:58:50Z</time>
      </trkpt>
      <trkpt lat="40.6051320" lon="-7.7650040">
        <ele>549.2</ele>
        <time>2019-06-10T04:58:51Z</time>
      </trkpt>
      <trkpt lat="40.6051110" lon="-7.7650580">
        <ele>549.6</ele>
        <time>2019-06-10T04:58:52Z</time>
      </trkpt>
      <trkpt lat="40.6050810" lon="-7.7651170">
        <ele>550.2</ele>
        <time>2019-06-10T04:58:53Z</time>
      </trkpt>
      <trkpt lat="40.6050500" lon="-7.7651780">
        <ele>550.7</ele>
        <time>2019-06-10T04:58:54Z</time>
      </trkpt>
      <trkpt lat="40.6049340" lon="-7.7653900">
        <ele>552.1</ele>
        <time>2019-06-10T04:58:58Z</time>
      </trkpt>
      <trkpt lat="40.6048240" lon="-7.7655170">
        <ele>552.9</ele>
        <time>2019-06-10T04:59:01Z</time>
      </trkpt>
      <trkpt lat="40.6047600" lon="-7.7655810">
        <ele>553.3</ele>
        <time>2019-06-10T04:59:02Z</time>
      </trkpt>
      <trkpt lat="40.6047180" lon="-7.7655900">
        <ele>553.5</ele>
        <time>2019-06-10T04:59:03Z</time>
      </trkpt>
      <trkpt lat="40.6046690" lon="-7.7656190">
        <ele>553.7</ele>
        <time>2019-06-10T04:59:04Z</time>
      </trkpt>
      <trkpt lat="40.6046180" lon="-7.7656350">
        <ele>553.9</ele>
        <time>2019-06-10T04:59:05Z</time>
      </trkpt>
      <trkpt lat="40.6045650" lon="-7.7656440">
        <ele>554.1</ele>
        <time>2019-06-10T04:59:06Z</time>
      </trkpt>
      <trkpt lat="40.6044750" lon="-7.7656820">
        <ele>554.4</ele>
        <time>2019-06-10T04:59:08Z</time>
      </trkpt>
      <trkpt lat="40.6044360" lon="-7.7657140">
        <ele>554.8</ele>
        <time>2019-06-10T04:59:09Z</time>
      </trkpt>
      <trkpt lat="40.6043980" lon="-7.7657620">
        <ele>555.3</ele>
        <time>2019-06-10T04:59:10Z</time>
      </trkpt>
      <trkpt lat="40.6043770" lon="-7.7658120">
        <ele>555.7</ele>
        <time>2019-06-10T04:59:11Z</time>
      </trkpt>
      <trkpt lat="40.6043670" lon="-7.7658660">
        <ele>556.0</ele>
        <time>2019-06-10T04:59:12Z</time>
      </trkpt>
      <trkpt lat="40.6043560" lon="-7.7659250">
        <ele>556.2</ele>
        <time>2019-06-10T04:59:13Z</time>
      </trkpt>
      <trkpt lat="40.6043390" lon="-7.7659860">
        <ele>556.5</ele>
        <time>2019-06-10T04:59:14Z</time>
      </trkpt>
      <trkpt lat="40.6043400" lon="-7.7661140">
        <ele>556.9</ele>
        <time>2019-06-10T04:59:16Z</time>
      </trkpt>
      <trkpt lat="40.6043500" lon="-7.7661670">
        <ele>557.1</ele>
        <time>2019-06-10T04:59:17Z</time>
      </trkpt>
      <trkpt lat="40.6043530" lon="-7.7662220">
        <ele>557.3</ele>
        <time>2019-06-10T04:59:18Z</time>
      </trkpt>
      <trkpt lat="40.6043540" lon="-7.7662780">
        <ele>557.5</ele>
        <time>2019-06-10T04:59:19Z</time>
      </trkpt>
      <trkpt lat="40.6043480" lon="-7.7663390">
        <ele>557.7</ele>
        <time>2019-06-10T04:59:20Z</time>
      </trkpt>
      <trkpt lat="40.6043680" lon="-7.7665490">
        <ele>558.3</ele>
        <time>2019-06-10T04:59:24Z</time>
      </trkpt>
      <trkpt lat="40.6043710" lon="-7.7666110">
        <ele>558.5</ele>
        <time>2019-06-10T04:59:25Z</time>
      </trkpt>
      <trkpt lat="40.6043800" lon="-7.7666670">
        <ele>558.7</ele>
        <time>2019-06-10T04:59:26Z</time>
      </trkpt>
      <trkpt lat="40.6043920" lon="-7.7667160">
        <ele>558.9</ele>
        <time>2019-06-10T04:59:27Z</time>
      </trkpt>
      <trkpt lat="40.6043940" lon="-7.7667670">
        <ele>559.1</ele>
        <time>2019-06-10T04:59:28Z</time>
      </trkpt>
      <trkpt lat="40.6044130" lon="-7.7670160">
        <ele>559.7</ele>
        <time>2019-06-10T04:59:33Z</time>
      </trkpt>
      <trkpt lat="40.6044140" lon="-7.7670700">
        <ele>559.9</ele>
        <time>2019-06-10T04:59:34Z</time>
      </trkpt>
      <trkpt lat="40.6044130" lon="-7.7671250">
        <ele>560.0</ele>
        <time>2019-06-10T04:59:35Z</time>
      </trkpt>
      <trkpt lat="40.6044090" lon="-7.7671780">
        <ele>560.2</ele>
        <time>2019-06-10T04:59:36Z</time>
      </trkpt>
      <trkpt lat="40.6044020" lon="-7.7672270">
        <ele>560.4</ele>
        <time>2019-06-10T04:59:37Z</time>
      </trkpt>
      <trkpt lat="40.6043920" lon="-7.7674760">
        <ele>561.4</ele>
        <time>2019-06-10T04:59:42Z</time>
      </trkpt>
      <trkpt lat="40.6043970" lon="-7.7676480">
        <ele>561.7</ele>
        <time>2019-06-10T04:59:45Z</time>
      </trkpt>
      <trkpt lat="40.6044330" lon="-7.7678320">
        <ele>561.8</ele>
        <time>2019-06-10T04:59:48Z</time>
      </trkpt>
      <trkpt lat="40.6044480" lon="-7.7678850">
        <ele>561.8</ele>
        <time>2019-06-10T04:59:49Z</time>
      </trkpt>
      <trkpt lat="40.6044320" lon="-7.7680070">
        <ele>561.8</ele>
        <time>2019-06-10T04:59:51Z</time>
      </trkpt>
      <trkpt lat="40.6044340" lon="-7.7682520">
        <ele>561.8</ele>
        <time>2019-06-10T04:59:55Z</time>
      </trkpt>
      <trkpt lat="40.6044300" lon="-7.7686880">
        <ele>562.0</ele>
        <time>2019-06-10T05:00:03Z</time>
      </trkpt>
      <trkpt lat="40.6044510" lon="-7.7688580">
        <ele>561.9</ele>
        <time>2019-06-10T05:00:07Z</time>
      </trkpt>
      <trkpt lat="40.6044720" lon="-7.7688750">
        <ele>561.9</ele>
        <time>2019-06-10T05:00:08Z</time>
      </trkpt>
      <trkpt lat="40.6045280" lon="-7.7688790">
        <ele>561.9</ele>
        <time>2019-06-10T05:00:12Z</time>
      </trkpt>
      <trkpt lat="40.6045180" lon="-7.7688780">
        <ele>561.9</ele>
        <time>2019-06-10T05:00:14Z</time>
      </trkpt>
      <trkpt lat="40.6044780" lon="-7.7688670">
        <ele>561.9</ele>
        <time>2019-06-10T05:14:35Z</time>
      </trkpt>
      <trkpt lat="40.6044640" lon="-7.7688610">
        <ele>561.9</ele>
        <time>2019-06-10T05:14:36Z</time>
      </trkpt>
      <trkpt lat="40.6043850" lon="-7.7688030">
        <ele>561.9</ele>
        <time>2019-06-10T05:14:41Z</time>
      </trkpt>
      <trkpt lat="40.6043810" lon="-7.7687830">
        <ele>561.9</ele>
        <time>2019-06-10T05:14:42Z</time>
      </trkpt>
      <trkpt lat="40.6044110" lon="-7.7686730">
        <ele>561.8</ele>
        <time>2019-06-10T05:14:47Z</time>
      </trkpt>
      <trkpt lat="40.6044960" lon="-7.7686560">
        <ele>561.6</ele>
        <time>2019-06-10T05:14:50Z</time>
      </trkpt>
      <trkpt lat="40.6045310" lon="-7.7686540">
        <ele>561.4</ele>
        <time>2019-06-10T05:14:51Z</time>
      </trkpt>
      <trkpt lat="40.6046610" lon="-7.7686740">
        <ele>560.4</ele>
        <time>2019-06-10T05:14:54Z</time>
      </trkpt>
      <trkpt lat="40.6047090" lon="-7.7686910">
        <ele>560.0</ele>
        <time>2019-06-10T05:14:55Z</time>
      </trkpt>
      <trkpt lat="40.6047640" lon="-7.7687110">
        <ele>559.5</ele>
        <time>2019-06-10T05:14:56Z</time>
      </trkpt>
      <trkpt lat="40.6048110" lon="-7.7687370">
        <ele>559.0</ele>
        <time>2019-06-10T05:14:57Z</time>
      </trkpt>
      <trkpt lat="40.6048540" lon="-7.7687720">
        <ele>558.6</ele>
        <time>2019-06-10T05:14:58Z</time>
      </trkpt>
      <trkpt lat="40.6049000" lon="-7.7688130">
        <ele>558.1</ele>
        <time>2019-06-10T05:14:59Z</time>
      </trkpt>
      <trkpt lat="40.6049390" lon="-7.7688570">
        <ele>557.6</ele>
        <time>2019-06-10T05:15:00Z</time>
      </trkpt>
      <trkpt lat="40.6049740" lon="-7.7689030">
        <ele>557.2</ele>
        <time>2019-06-10T05:15:01Z</time>
      </trkpt>
      <trkpt lat="40.6050120" lon="-7.7689540">
        <ele>556.6</ele>
        <time>2019-06-10T05:15:02Z</time>
      </trkpt>
      <trkpt lat="40.6050540" lon="-7.7690050">
        <ele>556.1</ele>
        <time>2019-06-10T05:15:03Z</time>
      </trkpt>
      <trkpt lat="40.6050980" lon="-7.7690530">
        <ele>555.6</ele>
        <time>2019-06-10T05:15:04Z</time>
      </trkpt>
      <trkpt lat="40.6051430" lon="-7.7690970">
        <ele>555.2</ele>
        <time>2019-06-10T05:15:05Z</time>
      </trkpt>
      <trkpt lat="40.6051910" lon="-7.7691270">
        <ele>554.9</ele>
        <time>2019-06-10T05:15:06Z</time>
      </trkpt>
      <trkpt lat="40.6052330" lon="-7.7691490">
        <ele>554.6</ele>
        <time>2019-06-10T05:15:07Z</time>
      </trkpt>
      <trkpt lat="40.6052830" lon="-7.7691530">
        <ele>554.3</ele>
        <time>2019-06-10T05:15:08Z</time>
      </trkpt>
      <trkpt lat="40.6053340" lon="-7.7691320">
        <ele>553.9</ele>
        <time>2019-06-10T05:15:09Z</time>
      </trkpt>
      <trkpt lat="40.6053960" lon="-7.7690990">
        <ele>553.4</ele>
        <time>2019-06-10T05:15:10Z</time>
      </trkpt>
      <trkpt lat="40.6054540" lon="-7.7690510">
        <ele>553.0</ele>
        <time>2019-06-10T05:15:11Z</time>
      </trkpt>
      <trkpt lat="40.6055150" lon="-7.7689860">
        <ele>552.4</ele>
        <time>2019-06-10T05:15:12Z</time>
      </trkpt>
      <trkpt lat="40.6055690" lon="-7.7689170">
        <ele>551.9</ele>
        <time>2019-06-10T05:15:13Z</time>
      </trkpt>
      <trkpt lat="40.6056020" lon="-7.7688380">
        <ele>551.4</ele>
        <time>2019-06-10T05:15:14Z</time>
      </trkpt>
      <trkpt lat="40.6056270" lon="-7.7687570">
        <ele>551.0</ele>
        <time>2019-06-10T05:15:15Z</time>
      </trkpt>
      <trkpt lat="40.6056510" lon="-7.7686740">
        <ele>550.5</ele>
        <time>2019-06-10T05:15:16Z</time>
      </trkpt>
      <trkpt lat="40.6056800" lon="-7.7685920">
        <ele>550.1</ele>
        <time>2019-06-10T05:15:17Z</time>
      </trkpt>
      <trkpt lat="40.6057110" lon="-7.7685080">
        <ele>549.6</ele>
        <time>2019-06-10T05:15:18Z</time>
      </trkpt>
      <trkpt lat="40.6057430" lon="-7.7684220">
        <ele>549.2</ele>
        <time>2019-06-10T05:15:19Z</time>
      </trkpt>
      <trkpt lat="40.6057750" lon="-7.7683340">
        <ele>548.9</ele>
        <time>2019-06-10T05:15:20Z</time>
      </trkpt>
      <trkpt lat="40.6058070" lon="-7.7682470">
        <ele>548.3</ele>
        <time>2019-06-10T05:15:21Z</time>
      </trkpt>
      <trkpt lat="40.6058400" lon="-7.7681620">
        <ele>547.8</ele>
        <time>2019-06-10T05:15:22Z</time>
      </trkpt>
      <trkpt lat="40.6058760" lon="-7.7680740">
        <ele>547.3</ele>
        <time>2019-06-10T05:15:23Z</time>
      </trkpt>
      <trkpt lat="40.6059300" lon="-7.7680060">
        <ele>546.8</ele>
        <time>2019-06-10T05:15:24Z</time>
      </trkpt>
      <trkpt lat="40.6059880" lon="-7.7679450">
        <ele>546.3</ele>
        <time>2019-06-10T05:15:25Z</time>
      </trkpt>
      <trkpt lat="40.6060520" lon="-7.7678980">
        <ele>545.8</ele>
        <time>2019-06-10T05:15:26Z</time>
      </trkpt>
      <trkpt lat="40.6061180" lon="-7.7678550">
        <ele>545.3</ele>
        <time>2019-06-10T05:15:27Z</time>
      </trkpt>
      <trkpt lat="40.6061960" lon="-7.7678440">
        <ele>544.9</ele>
        <time>2019-06-10T05:15:28Z</time>
      </trkpt>
      <trkpt lat="40.6062770" lon="-7.7678400">
        <ele>544.6</ele>
        <time>2019-06-10T05:15:29Z</time>
      </trkpt>
      <trkpt lat="40.6063620" lon="-7.7678380">
        <ele>544.2</ele>
        <time>2019-06-10T05:15:30Z</time>
      </trkpt>
      <trkpt lat="40.6064460" lon="-7.7678340">
        <ele>543.3</ele>
        <time>2019-06-10T05:15:31Z</time>
      </trkpt>
      <trkpt lat="40.6065280" lon="-7.7678320">
        <ele>542.3</ele>
        <time>2019-06-10T05:15:32Z</time>
      </trkpt>
      <trkpt lat="40.6066080" lon="-7.7678310">
        <ele>541.4</ele>
        <time>2019-06-10T05:15:33Z</time>
      </trkpt>
      <trkpt lat="40.6066920" lon="-7.7678130">
        <ele>540.4</ele>
        <time>2019-06-10T05:15:34Z</time>
      </trkpt>
      <trkpt lat="40.6067790" lon="-7.7677820">
        <ele>539.3</ele>
        <time>2019-06-10T05:15:35Z</time>
      </trkpt>
      <trkpt lat="40.6068660" lon="-7.7677340">
        <ele>538.0</ele>
        <time>2019-06-10T05:15:36Z</time>
      </trkpt>
      <trkpt lat="40.6069550" lon="-7.7676750">
        <ele>536.6</ele>
        <time>2019-06-10T05:15:37Z</time>
      </trkpt>
      <trkpt lat="40.6070480" lon="-7.7676140">
        <ele>535.1</ele>
        <time>2019-06-10T05:15:38Z</time>
      </trkpt>
      <trkpt lat="40.6071400" lon="-7.7675500">
        <ele>533.6</ele>
        <time>2019-06-10T05:15:39Z</time>
      </trkpt>
      <trkpt lat="40.6072350" lon="-7.7674850">
        <ele>532.1</ele>
        <time>2019-06-10T05:15:40Z</time>
      </trkpt>
      <trkpt lat="40.6073400" lon="-7.7674160">
        <ele>530.5</ele>
        <time>2019-06-10T05:15:41Z</time>
      </trkpt>
      <trkpt lat="40.6074580" lon="-7.7673610">
        <ele>529.1</ele>
        <time>2019-06-10T05:15:42Z</time>
      </trkpt>
      <trkpt lat="40.6075750" lon="-7.7673080">
        <ele>527.7</ele>
        <time>2019-06-10T05:15:43Z</time>
      </trkpt>
      <trkpt lat="40.6077020" lon="-7.7672580">
        <ele>526.3</ele>
        <time>2019-06-10T05:15:44Z</time>
      </trkpt>
      <trkpt lat="40.6078260" lon="-7.7672140">
        <ele>525.0</ele>
        <time>2019-06-10T05:15:45Z</time>
      </trkpt>
      <trkpt lat="40.6079520" lon="-7.7671720">
        <ele>524.2</ele>
        <time>2019-06-10T05:15:46Z</time>
      </trkpt>
      <trkpt lat="40.6080560" lon="-7.7671160">
        <ele>523.6</ele>
        <time>2019-06-10T05:15:47Z</time>
      </trkpt>
      <trkpt lat="40.6081620" lon="-7.7670430">
        <ele>522.7</ele>
        <time>2019-06-10T05:15:48Z</time>
      </trkpt>
      <trkpt lat="40.6082560" lon="-7.7669680">
        <ele>522.3</ele>
        <time>2019-06-10T05:15:49Z</time>
      </trkpt>
      <trkpt lat="40.6083550" lon="-7.7669080">
        <ele>521.9</ele>
        <time>2019-06-10T05:15:50Z</time>
      </trkpt>
      <trkpt lat="40.6084500" lon="-7.7668710">
        <ele>521.6</ele>
        <time>2019-06-10T05:15:51Z</time>
      </trkpt>
      <trkpt lat="40.6085430" lon="-7.7668550">
        <ele>520.7</ele>
        <time>2019-06-10T05:15:52Z</time>
      </trkpt>
      <trkpt lat="40.6089110" lon="-7.7668410">
        <ele>517.1</ele>
        <time>2019-06-10T05:15:56Z</time>
      </trkpt>
      <trkpt lat="40.6089950" lon="-7.7668210">
        <ele>516.6</ele>
        <time>2019-06-10T05:15:57Z</time>
      </trkpt>
      <trkpt lat="40.6090810" lon="-7.7667880">
        <ele>516.4</ele>
        <time>2019-06-10T05:15:58Z</time>
      </trkpt>
      <trkpt lat="40.6091660" lon="-7.7667560">
        <ele>516.3</ele>
        <time>2019-06-10T05:15:59Z</time>
      </trkpt>
      <trkpt lat="40.6092480" lon="-7.7667280">
        <ele>516.3</ele>
        <time>2019-06-10T05:16:00Z</time>
      </trkpt>
      <trkpt lat="40.6095770" lon="-7.7666450">
        <ele>515.7</ele>
        <time>2019-06-10T05:16:05Z</time>
      </trkpt>
      <trkpt lat="40.6098580" lon="-7.7666240">
        <ele>514.8</ele>
        <time>2019-06-10T05:16:10Z</time>
      </trkpt>
      <trkpt lat="40.6099140" lon="-7.7666160">
        <ele>514.6</ele>
        <time>2019-06-10T05:16:11Z</time>
      </trkpt>
      <trkpt lat="40.6099710" lon="-7.7666100">
        <ele>514.4</ele>
        <time>2019-06-10T05:16:12Z</time>
      </trkpt>
      <trkpt lat="40.6100320" lon="-7.7666090">
        <ele>514.3</ele>
        <time>2019-06-10T05:16:13Z</time>
      </trkpt>
      <trkpt lat="40.6100920" lon="-7.7666100">
        <ele>514.1</ele>
        <time>2019-06-10T05:16:14Z</time>
      </trkpt>
      <trkpt lat="40.6103710" lon="-7.7665980">
        <ele>513.4</ele>
        <time>2019-06-10T05:16:18Z</time>
      </trkpt>
      <trkpt lat="40.6104350" lon="-7.7665990">
        <ele>513.2</ele>
        <time>2019-06-10T05:16:19Z</time>
      </trkpt>
      <trkpt lat="40.6104970" lon="-7.7665980">
        <ele>512.9</ele>
        <time>2019-06-10T05:16:20Z</time>
      </trkpt>
      <trkpt lat="40.6105540" lon="-7.7665790">
        <ele>512.6</ele>
        <time>2019-06-10T05:16:21Z</time>
      </trkpt>
      <trkpt lat="40.6106000" lon="-7.7665330">
        <ele>512.6</ele>
        <time>2019-06-10T05:16:22Z</time>
      </trkpt>
      <trkpt lat="40.6106320" lon="-7.7664630">
        <ele>512.5</ele>
        <time>2019-06-10T05:16:23Z</time>
      </trkpt>
      <trkpt lat="40.6106440" lon="-7.7662510">
        <ele>511.7</ele>
        <time>2019-06-10T05:16:26Z</time>
      </trkpt>
      <trkpt lat="40.6106380" lon="-7.7661120">
        <ele>511.4</ele>
        <time>2019-06-10T05:16:28Z</time>
      </trkpt>
      <trkpt lat="40.6106390" lon="-7.7658410">
        <ele>510.3</ele>
        <time>2019-06-10T05:16:32Z</time>
      </trkpt>
      <trkpt lat="40.6106470" lon="-7.7657840">
        <ele>510.0</ele>
        <time>2019-06-10T05:16:33Z</time>
      </trkpt>
      <trkpt lat="40.6106700" lon="-7.7657550">
        <ele>509.8</ele>
        <time>2019-06-10T05:16:34Z</time>
      </trkpt>
      <trkpt lat="40.6107000" lon="-7.7657230">
        <ele>509.7</ele>
        <time>2019-06-10T05:16:35Z</time>
      </trkpt>
      <trkpt lat="40.6107530" lon="-7.7657180">
        <ele>509.5</ele>
        <time>2019-06-10T05:16:36Z</time>
      </trkpt>
      <trkpt lat="40.6107930" lon="-7.7657210">
        <ele>509.3</ele>
        <time>2019-06-10T05:16:37Z</time>
      </trkpt>
      <trkpt lat="40.6108480" lon="-7.7657210">
        <ele>509.1</ele>
        <time>2019-06-10T05:16:38Z</time>
      </trkpt>
      <trkpt lat="40.6110190" lon="-7.7657170">
        <ele>508.5</ele>
        <time>2019-06-10T05:16:41Z</time>
      </trkpt>
      <trkpt lat="40.6111520" lon="-7.7657040">
        <ele>507.9</ele>
        <time>2019-06-10T05:16:43Z</time>
      </trkpt>
      <trkpt lat="40.6112170" lon="-7.7656860">
        <ele>507.7</ele>
        <time>2019-06-10T05:16:44Z</time>
      </trkpt>
      <trkpt lat="40.6112850" lon="-7.7656620">
        <ele>507.5</ele>
        <time>2019-06-10T05:16:45Z</time>
      </trkpt>
      <trkpt lat="40.6113440" lon="-7.7656380">
        <ele>507.3</ele>
        <time>2019-06-10T05:16:46Z</time>
      </trkpt>
      <trkpt lat="40.6114050" lon="-7.7656080">
        <ele>507.2</ele>
        <time>2019-06-10T05:16:47Z</time>
      </trkpt>
      <trkpt lat="40.6115100" lon="-7.7655580">
        <ele>507.1</ele>
        <time>2019-06-10T05:16:49Z</time>
      </trkpt>
      <trkpt lat="40.6115470" lon="-7.7655380">
        <ele>507.1</ele>
        <time>2019-06-10T05:16:50Z</time>
      </trkpt>
      <trkpt lat="40.6115940" lon="-7.7655180">
        <ele>507.2</ele>
        <time>2019-06-10T05:16:51Z</time>
      </trkpt>
      <trkpt lat="40.6116370" lon="-7.7655050">
        <ele>507.2</ele>
        <time>2019-06-10T05:16:52Z</time>
      </trkpt>
      <trkpt lat="40.6116780" lon="-7.7654960">
        <ele>507.2</ele>
        <time>2019-06-10T05:16:53Z</time>
      </trkpt>
      <trkpt lat="40.6118690" lon="-7.7654250">
        <ele>506.3</ele>
        <time>2019-06-10T05:16:57Z</time>
      </trkpt>
      <trkpt lat="40.6120860" lon="-7.7653110">
        <ele>505.4</ele>
        <time>2019-06-10T05:17:01Z</time>
      </trkpt>
      <trkpt lat="40.6121410" lon="-7.7652720">
        <ele>505.3</ele>
        <time>2019-06-10T05:17:02Z</time>
      </trkpt>
      <trkpt lat="40.6121950" lon="-7.7652280">
        <ele>505.4</ele>
        <time>2019-06-10T05:17:03Z</time>
      </trkpt>
      <trkpt lat="40.6122460" lon="-7.7651810">
        <ele>505.5</ele>
        <time>2019-06-10T05:17:04Z</time>
      </trkpt>
      <trkpt lat="40.6123010" lon="-7.7651330">
        <ele>505.6</ele>
        <time>2019-06-10T05:17:05Z</time>
      </trkpt>
      <trkpt lat="40.6126140" lon="-7.7649010">
        <ele>505.8</ele>
        <time>2019-06-10T05:17:10Z</time>
      </trkpt>
      <trkpt lat="40.6126660" lon="-7.7648470">
        <ele>505.8</ele>
        <time>2019-06-10T05:17:11Z</time>
      </trkpt>
      <trkpt lat="40.6127110" lon="-7.7647910">
        <ele>505.8</ele>
        <time>2019-06-10T05:17:12Z</time>
      </trkpt>
      <trkpt lat="40.6127650" lon="-7.7647240">
        <ele>505.8</ele>
        <time>2019-06-10T05:17:13Z</time>
      </trkpt>
      <trkpt lat="40.6128210" lon="-7.7646550">
        <ele>505.8</ele>
        <time>2019-06-10T05:17:14Z</time>
      </trkpt>
      <trkpt lat="40.6129670" lon="-7.7644360">
        <ele>505.2</ele>
        <time>2019-06-10T05:17:17Z</time>
      </trkpt>
      <trkpt lat="40.6130180" lon="-7.7643540">
        <ele>504.7</ele>
        <time>2019-06-10T05:17:18Z</time>
      </trkpt>
      <trkpt lat="40.6130680" lon="-7.7642690">
        <ele>504.1</ele>
        <time>2019-06-10T05:17:19Z</time>
      </trkpt>
      <trkpt lat="40.6131160" lon="-7.7641860">
        <ele>503.8</ele>
        <time>2019-06-10T05:17:20Z</time>
      </trkpt>
      <trkpt lat="40.6131630" lon="-7.7641010">
        <ele>503.1</ele>
        <time>2019-06-10T05:17:21Z</time>
      </trkpt>
      <trkpt lat="40.6133070" lon="-7.7638450">
        <ele>501.4</ele>
        <time>2019-06-10T05:17:24Z</time>
      </trkpt>
      <trkpt lat="40.6133520" lon="-7.7637610">
        <ele>500.7</ele>
        <time>2019-06-10T05:17:25Z</time>
      </trkpt>
      <trkpt lat="40.6134000" lon="-7.7636720">
        <ele>499.9</ele>
        <time>2019-06-10T05:17:26Z</time>
      </trkpt>
      <trkpt lat="40.6134480" lon="-7.7635830">
        <ele>499.3</ele>
        <time>2019-06-10T05:17:27Z</time>
      </trkpt>
      <trkpt lat="40.6135860" lon="-7.7633330">
        <ele>497.8</ele>
        <time>2019-06-10T05:17:30Z</time>
      </trkpt>
      <trkpt lat="40.6136290" lon="-7.7632520">
        <ele>497.3</ele>
        <time>2019-06-10T05:17:31Z</time>
      </trkpt>
      <trkpt lat="40.6136730" lon="-7.7631670">
        <ele>496.9</ele>
        <time>2019-06-10T05:17:32Z</time>
      </trkpt>
      <trkpt lat="40.6137180" lon="-7.7630840">
        <ele>496.3</ele>
        <time>2019-06-10T05:17:33Z</time>
      </trkpt>
      <trkpt lat="40.6137640" lon="-7.7630010">
        <ele>495.5</ele>
        <time>2019-06-10T05:17:34Z</time>
      </trkpt>
      <trkpt lat="40.6140390" lon="-7.7625540">
        <ele>492.7</ele>
        <time>2019-06-10T05:17:40Z</time>
      </trkpt>
      <trkpt lat="40.6141650" lon="-7.7623550">
        <ele>492.0</ele>
        <time>2019-06-10T05:17:43Z</time>
      </trkpt>
      <trkpt lat="40.6142520" lon="-7.7622770">
        <ele>491.5</ele>
        <time>2019-06-10T05:17:45Z</time>
      </trkpt>
      <trkpt lat="40.6143610" lon="-7.7623010">
        <ele>491.0</ele>
        <time>2019-06-10T05:17:47Z</time>
      </trkpt>
      <trkpt lat="40.6143960" lon="-7.7623750">
        <ele>490.7</ele>
        <time>2019-06-10T05:17:48Z</time>
      </trkpt>
      <trkpt lat="40.6144300" lon="-7.7624480">
        <ele>490.4</ele>
        <time>2019-06-10T05:17:49Z</time>
      </trkpt>
      <trkpt lat="40.6144510" lon="-7.7625330">
        <ele>490.0</ele>
        <time>2019-06-10T05:17:50Z</time>
      </trkpt>
      <trkpt lat="40.6144640" lon="-7.7626250">
        <ele>489.9</ele>
        <time>2019-06-10T05:17:51Z</time>
      </trkpt>
      <trkpt lat="40.6144680" lon="-7.7627260">
        <ele>489.8</ele>
        <time>2019-06-10T05:17:52Z</time>
      </trkpt>
      <trkpt lat="40.6144760" lon="-7.7628250">
        <ele>489.5</ele>
        <time>2019-06-10T05:17:53Z</time>
      </trkpt>
      <trkpt lat="40.6144820" lon="-7.7629260">
        <ele>489.4</ele>
        <time>2019-06-10T05:17:54Z</time>
      </trkpt>
      <trkpt lat="40.6144830" lon="-7.7630270">
        <ele>489.3</ele>
        <time>2019-06-10T05:17:55Z</time>
      </trkpt>
      <trkpt lat="40.6144830" lon="-7.7631220">
        <ele>489.2</ele>
        <time>2019-06-10T05:17:56Z</time>
      </trkpt>
      <trkpt lat="40.6144790" lon="-7.7637780">
        <ele>490.3</ele>
        <time>2019-06-10T05:18:03Z</time>
      </trkpt>
      <trkpt lat="40.6145100" lon="-7.7644250">
        <ele>490.2</ele>
        <time>2019-06-10T05:18:11Z</time>
      </trkpt>
      <trkpt lat="40.6145170" lon="-7.7645080">
        <ele>490.2</ele>
        <time>2019-06-10T05:18:12Z</time>
      </trkpt>
      <trkpt lat="40.6145170" lon="-7.7646930">
        <ele>490.0</ele>
        <time>2019-06-10T05:18:14Z</time>
      </trkpt>
      <trkpt lat="40.6145140" lon="-7.7647860">
        <ele>490.0</ele>
        <time>2019-06-10T05:18:15Z</time>
      </trkpt>
      <trkpt lat="40.6145150" lon="-7.7648750">
        <ele>489.9</ele>
        <time>2019-06-10T05:18:16Z</time>
      </trkpt>
      <trkpt lat="40.6145250" lon="-7.7649560">
        <ele>489.8</ele>
        <time>2019-06-10T05:18:17Z</time>
      </trkpt>
      <trkpt lat="40.6146470" lon="-7.7652320">
        <ele>488.7</ele>
        <time>2019-06-10T05:18:21Z</time>
      </trkpt>
      <trkpt lat="40.6148050" lon="-7.7653280">
        <ele>487.5</ele>
        <time>2019-06-10T05:18:24Z</time>
      </trkpt>
      <trkpt lat="40.6148530" lon="-7.7653510">
        <ele>487.4</ele>
        <time>2019-06-10T05:18:25Z</time>
      </trkpt>
      <trkpt lat="40.6148990" lon="-7.7653680">
        <ele>487.0</ele>
        <time>2019-06-10T05:18:26Z</time>
      </trkpt>
      <trkpt lat="40.6149450" lon="-7.7653820">
        <ele>486.9</ele>
        <time>2019-06-10T05:18:27Z</time>
      </trkpt>
      <trkpt lat="40.6149890" lon="-7.7653860">
        <ele>486.7</ele>
        <time>2019-06-10T05:18:28Z</time>
      </trkpt>
      <trkpt lat="40.6150770" lon="-7.7653380">
        <ele>486.3</ele>
        <time>2019-06-10T05:18:30Z</time>
      </trkpt>
      <trkpt lat="40.6151630" lon="-7.7652840">
        <ele>486.0</ele>
        <time>2019-06-10T05:18:32Z</time>
      </trkpt>
      <trkpt lat="40.6152100" lon="-7.7652600">
        <ele>486.0</ele>
        <time>2019-06-10T05:18:33Z</time>
      </trkpt>
      <trkpt lat="40.6152560" lon="-7.7652360">
        <ele>485.7</ele>
        <time>2019-06-10T05:18:34Z</time>
      </trkpt>
      <trkpt lat="40.6153020" lon="-7.7652070">
        <ele>485.6</ele>
        <time>2019-06-10T05:18:35Z</time>
      </trkpt>
      <trkpt lat="40.6153460" lon="-7.7651740">
        <ele>485.6</ele>
        <time>2019-06-10T05:18:36Z</time>
      </trkpt>
      <trkpt lat="40.6156500" lon="-7.7649170">
        <ele>484.8</ele>
        <time>2019-06-10T05:18:43Z</time>
      </trkpt>
      <trkpt lat="40.6159590" lon="-7.7646580">
        <ele>484.5</ele>
        <time>2019-06-10T05:18:50Z</time>
      </trkpt>
      <trkpt lat="40.6161670" lon="-7.7646250">
        <ele>484.6</ele>
        <time>2019-06-10T05:18:54Z</time>
      </trkpt>
      <trkpt lat="40.6165250" lon="-7.7645210">
        <ele>485.2</ele>
        <time>2019-06-10T05:19:02Z</time>
      </trkpt>
      <trkpt lat="40.6166600" lon="-7.7645090">
        <ele>485.8</ele>
        <time>2019-06-10T05:19:05Z</time>
      </trkpt>
      <trkpt lat="40.6167790" lon="-7.7645390">
        <ele>486.3</ele>
        <time>2019-06-10T05:19:08Z</time>
      </trkpt>
      <trkpt lat="40.6170190" lon="-7.7646150">
        <ele>487.5</ele>
        <time>2019-06-10T05:19:15Z</time>
      </trkpt>
      <trkpt lat="40.6170640" lon="-7.7646050">
        <ele>487.6</ele>
        <time>2019-06-10T05:19:16Z</time>
      </trkpt>
      <trkpt lat="40.6172810" lon="-7.7645600">
        <ele>488.6</ele>
        <time>2019-06-10T05:19:21Z</time>
      </trkpt>
      <trkpt lat="40.6175250" lon="-7.7645040">
        <ele>489.7</ele>
        <time>2019-06-10T05:19:27Z</time>
      </trkpt>
      <trkpt lat="40.6175630" lon="-7.7644980">
        <ele>489.9</ele>
        <time>2019-06-10T05:19:28Z</time>
      </trkpt>
      <trkpt lat="40.6176040" lon="-7.7644900">
        <ele>490.2</ele>
        <time>2019-06-10T05:19:29Z</time>
      </trkpt>
      <trkpt lat="40.6176450" lon="-7.7644810">
        <ele>490.4</ele>
        <time>2019-06-10T05:19:30Z</time>
      </trkpt>
      <trkpt lat="40.6176810" lon="-7.7644730">
        <ele>490.5</ele>
        <time>2019-06-10T05:19:31Z</time>
      </trkpt>
      <trkpt lat="40.6178470" lon="-7.7644440">
        <ele>491.5</ele>
        <time>2019-06-10T05:19:36Z</time>
      </trkpt>
      <trkpt lat="40.6178740" lon="-7.7644340">
        <ele>491.7</ele>
        <time>2019-06-10T05:19:37Z</time>
      </trkpt>
      <trkpt lat="40.6179020" lon="-7.7644270">
        <ele>491.9</ele>
        <time>2019-06-10T05:19:38Z</time>
      </trkpt>
      <trkpt lat="40.6179350" lon="-7.7644210">
        <ele>492.2</ele>
        <time>2019-06-10T05:19:39Z</time>
      </trkpt>
      <trkpt lat="40.6179640" lon="-7.7644170">
        <ele>492.4</ele>
        <time>2019-06-10T05:19:40Z</time>
      </trkpt>
      <trkpt lat="40.6180950" lon="-7.7643820">
        <ele>493.5</ele>
        <time>2019-06-10T05:19:45Z</time>
      </trkpt>
      <trkpt lat="40.6182460" lon="-7.7643800">
        <ele>494.6</ele>
        <time>2019-06-10T05:19:51Z</time>
      </trkpt>
      <trkpt lat="40.6182690" lon="-7.7643740">
        <ele>494.9</ele>
        <time>2019-06-10T05:19:52Z</time>
      </trkpt>
      <trkpt lat="40.6182950" lon="-7.7643680">
        <ele>495.2</ele>
        <time>2019-06-10T05:19:53Z</time>
      </trkpt>
      <trkpt lat="40.6183330" lon="-7.7643650">
        <ele>495.5</ele>
        <time>2019-06-10T05:19:54Z</time>
      </trkpt>
      <trkpt lat="40.6184930" lon="-7.7643480">
        <ele>496.9</ele>
        <time>2019-06-10T05:19:59Z</time>
      </trkpt>
      <trkpt lat="40.6185870" lon="-7.7643620">
        <ele>497.6</ele>
        <time>2019-06-10T05:20:02Z</time>
      </trkpt>
      <trkpt lat="40.6186170" lon="-7.7643720">
        <ele>497.8</ele>
        <time>2019-06-10T05:20:03Z</time>
      </trkpt>
      <trkpt lat="40.6186450" lon="-7.7643770">
        <ele>498.1</ele>
        <time>2019-06-10T05:20:04Z</time>
      </trkpt>
      <trkpt lat="40.6186740" lon="-7.7643810">
        <ele>498.1</ele>
        <time>2019-06-10T05:20:05Z</time>
      </trkpt>
      <trkpt lat="40.6187020" lon="-7.7643880">
        <ele>498.3</ele>
        <time>2019-06-10T05:20:06Z</time>
      </trkpt>
      <trkpt lat="40.6188460" lon="-7.7644800">
        <ele>499.3</ele>
        <time>2019-06-10T05:20:12Z</time>
      </trkpt>
      <trkpt lat="40.6188690" lon="-7.7644950">
        <ele>499.3</ele>
        <time>2019-06-10T05:20:13Z</time>
      </trkpt>
      <trkpt lat="40.6188940" lon="-7.7645090">
        <ele>499.6</ele>
        <time>2019-06-10T05:20:14Z</time>
      </trkpt>
      <trkpt lat="40.6189120" lon="-7.7645260">
        <ele>499.7</ele>
        <time>2019-06-10T05:20:15Z</time>
      </trkpt>
      <trkpt lat="40.6189290" lon="-7.7645390">
        <ele>499.7</ele>
        <time>2019-06-10T05:20:16Z</time>
      </trkpt>
      <trkpt lat="40.6189450" lon="-7.7645490">
        <ele>500.0</ele>
        <time>2019-06-10T05:20:17Z</time>
      </trkpt>
      <trkpt lat="40.6189890" lon="-7.7645910">
        <ele>500.1</ele>
        <time>2019-06-10T05:20:20Z</time>
      </trkpt>
      <trkpt lat="40.6190810" lon="-7.7646660">
        <ele>500.3</ele>
        <time>2019-06-10T05:20:26Z</time>
      </trkpt>
      <trkpt lat="40.6190960" lon="-7.7646780">
        <ele>500.3</ele>
        <time>2019-06-10T05:20:27Z</time>
      </trkpt>
      <trkpt lat="40.6191140" lon="-7.7646910">
        <ele>500.3</ele>
        <time>2019-06-10T05:20:28Z</time>
      </trkpt>
      <trkpt lat="40.6191350" lon="-7.7646970">
        <ele>500.3</ele>
        <time>2019-06-10T05:20:29Z</time>
      </trkpt>
      <trkpt lat="40.6191590" lon="-7.7646880">
        <ele>500.4</ele>
        <time>2019-06-10T05:20:30Z</time>
      </trkpt>
      <trkpt lat="40.6192540" lon="-7.7646650">
        <ele>500.3</ele>
        <time>2019-06-10T05:20:34Z</time>
      </trkpt>
      <trkpt lat="40.6194200" lon="-7.7646820">
        <ele>500.1</ele>
        <time>2019-06-10T05:20:40Z</time>
      </trkpt>
      <trkpt lat="40.6195440" lon="-7.7648990">
        <ele>499.7</ele>
        <time>2019-06-10T05:20:46Z</time>
      </trkpt>
      <trkpt lat="40.6196320" lon="-7.7652500">
        <ele>498.6</ele>
        <time>2019-06-10T05:20:52Z</time>
      </trkpt>
      <trkpt lat="40.6197380" lon="-7.7656470">
        <ele>497.4</ele>
        <time>2019-06-10T05:20:59Z</time>
      </trkpt>
      <trkpt lat="40.6197910" lon="-7.7656960">
        <ele>497.1</ele>
        <time>2019-06-10T05:21:02Z</time>
      </trkpt>
      <trkpt lat="40.6198120" lon="-7.7657040">
        <ele>497.0</ele>
        <time>2019-06-10T05:21:03Z</time>
      </trkpt>
      <trkpt lat="40.6198290" lon="-7.7657160">
        <ele>496.9</ele>
        <time>2019-06-10T05:21:04Z</time>
      </trkpt>
      <trkpt lat="40.6198440" lon="-7.7657300">
        <ele>496.9</ele>
        <time>2019-06-10T05:21:05Z</time>
      </trkpt>
      <trkpt lat="40.6198630" lon="-7.7657500">
        <ele>496.8</ele>
        <time>2019-06-10T05:21:06Z</time>
      </trkpt>
      <trkpt lat="40.6200000" lon="-7.7657340">
        <ele>496.9</ele>
        <time>2019-06-10T05:21:09Z</time>
      </trkpt>
      <trkpt lat="40.6201750" lon="-7.7655150">
        <ele>498.3</ele>
        <time>2019-06-10T05:21:13Z</time>
      </trkpt>
      <trkpt lat="40.6203600" lon="-7.7653790">
        <ele>500.2</ele>
        <time>2019-06-10T05:21:18Z</time>
      </trkpt>
      <trkpt lat="40.6203860" lon="-7.7653700">
        <ele>500.5</ele>
        <time>2019-06-10T05:21:19Z</time>
      </trkpt>
      <trkpt lat="40.6204160" lon="-7.7653770">
        <ele>500.8</ele>
        <time>2019-06-10T05:21:20Z</time>
      </trkpt>
      <trkpt lat="40.6204480" lon="-7.7653770">
        <ele>501.2</ele>
        <time>2019-06-10T05:21:21Z</time>
      </trkpt>
      <trkpt lat="40.6204780" lon="-7.7653800">
        <ele>501.5</ele>
        <time>2019-06-10T05:21:22Z</time>
      </trkpt>
      <trkpt lat="40.6205930" lon="-7.7654370">
        <ele>502.5</ele>
        <time>2019-06-10T05:21:26Z</time>
      </trkpt>
      <trkpt lat="40.6206460" lon="-7.7654730">
        <ele>503.3</ele>
        <time>2019-06-10T05:21:28Z</time>
      </trkpt>
      <trkpt lat="40.6206700" lon="-7.7654880">
        <ele>503.7</ele>
        <time>2019-06-10T05:21:29Z</time>
      </trkpt>
      <trkpt lat="40.6206940" lon="-7.7655040">
        <ele>503.7</ele>
        <time>2019-06-10T05:21:30Z</time>
      </trkpt>
      <trkpt lat="40.6207180" lon="-7.7655210">
        <ele>504.1</ele>
        <time>2019-06-10T05:21:31Z</time>
      </trkpt>
      <trkpt lat="40.6207420" lon="-7.7655380">
        <ele>504.5</ele>
        <time>2019-06-10T05:21:32Z</time>
      </trkpt>
      <trkpt lat="40.6207710" lon="-7.7655580">
        <ele>505.0</ele>
        <time>2019-06-10T05:21:33Z</time>
      </trkpt>
      <trkpt lat="40.6209720" lon="-7.7657020">
        <ele>507.1</ele>
        <time>2019-06-10T05:21:40Z</time>
      </trkpt>
      <trkpt lat="40.6211280" lon="-7.7658130">
        <ele>508.0</ele>
        <time>2019-06-10T05:21:46Z</time>
      </trkpt>
      <trkpt lat="40.6211570" lon="-7.7658230">
        <ele>508.1</ele>
        <time>2019-06-10T05:21:47Z</time>
      </trkpt>
      <trkpt lat="40.6212130" lon="-7.7658550">
        <ele>508.1</ele>
        <time>2019-06-10T05:21:49Z</time>
      </trkpt>
      <trkpt lat="40.6213630" lon="-7.7658930">
        <ele>507.9</ele>
        <time>2019-06-10T05:21:54Z</time>
      </trkpt>
      <trkpt lat="40.6213880" lon="-7.7658930">
        <ele>507.9</ele>
        <time>2019-06-10T05:21:55Z</time>
      </trkpt>
      <trkpt lat="40.6214110" lon="-7.7658960">
        <ele>507.9</ele>
        <time>2019-06-10T05:21:56Z</time>
      </trkpt>
      <trkpt lat="40.6214320" lon="-7.7659010">
        <ele>507.8</ele>
        <time>2019-06-10T05:21:57Z</time>
      </trkpt>
      <trkpt lat="40.6214900" lon="-7.7658960">
        <ele>507.5</ele>
        <time>2019-06-10T05:21:59Z</time>
      </trkpt>
      <trkpt lat="40.6215800" lon="-7.7658930">
        <ele>506.8</ele>
        <time>2019-06-10T05:22:02Z</time>
      </trkpt>
      <trkpt lat="40.6218400" lon="-7.7658960">
        <ele>504.4</ele>
        <time>2019-06-10T05:22:09Z</time>
      </trkpt>
      <trkpt lat="40.6220210" lon="-7.7658300">
        <ele>503.3</ele>
        <time>2019-06-10T05:22:14Z</time>
      </trkpt>
      <trkpt lat="40.6220580" lon="-7.7658140">
        <ele>503.1</ele>
        <time>2019-06-10T05:22:15Z</time>
      </trkpt>
      <trkpt lat="40.6220980" lon="-7.7658110">
        <ele>502.7</ele>
        <time>2019-06-10T05:22:16Z</time>
      </trkpt>
      <trkpt lat="40.6221470" lon="-7.7658120">
        <ele>502.3</ele>
        <time>2019-06-10T05:22:17Z</time>
      </trkpt>
      <trkpt lat="40.6222140" lon="-7.7658060">
        <ele>501.6</ele>
        <time>2019-06-10T05:22:18Z</time>
      </trkpt>
      <trkpt lat="40.6222780" lon="-7.7657980">
        <ele>501.1</ele>
        <time>2019-06-10T05:22:19Z</time>
      </trkpt>
      <trkpt lat="40.6223460" lon="-7.7657640">
        <ele>500.0</ele>
        <time>2019-06-10T05:22:20Z</time>
      </trkpt>
      <trkpt lat="40.6224000" lon="-7.7657150">
        <ele>499.9</ele>
        <time>2019-06-10T05:22:21Z</time>
      </trkpt>
      <trkpt lat="40.6224520" lon="-7.7656480">
        <ele>499.6</ele>
        <time>2019-06-10T05:22:22Z</time>
      </trkpt>
      <trkpt lat="40.6225040" lon="-7.7655700">
        <ele>499.3</ele>
        <time>2019-06-10T05:22:23Z</time>
      </trkpt>
      <trkpt lat="40.6226070" lon="-7.7654150">
        <ele>498.8</ele>
        <time>2019-06-10T05:22:25Z</time>
      </trkpt>
      <trkpt lat="40.6226750" lon="-7.7653640">
        <ele>498.5</ele>
        <time>2019-06-10T05:22:26Z</time>
      </trkpt>
      <trkpt lat="40.6227520" lon="-7.7653190">
        <ele>498.1</ele>
        <time>2019-06-10T05:22:27Z</time>
      </trkpt>
      <trkpt lat="40.6228220" lon="-7.7652720">
        <ele>497.8</ele>
        <time>2019-06-10T05:22:28Z</time>
      </trkpt>
      <trkpt lat="40.6228960" lon="-7.7652200">
        <ele>497.4</ele>
        <time>2019-06-10T05:22:29Z</time>
      </trkpt>
      <trkpt lat="40.6229670" lon="-7.7651720">
        <ele>497.1</ele>
        <time>2019-06-10T05:22:30Z</time>
      </trkpt>
      <trkpt lat="40.6230390" lon="-7.7651240">
        <ele>496.9</ele>
        <time>2019-06-10T05:22:31Z</time>
      </trkpt>
      <trkpt lat="40.6231150" lon="-7.7650790">
        <ele>496.8</ele>
        <time>2019-06-10T05:22:32Z</time>
      </trkpt>
      <trkpt lat="40.6231840" lon="-7.7650330">
        <ele>496.7</ele>
        <time>2019-06-10T05:22:33Z</time>
      </trkpt>
      <trkpt lat="40.6232490" lon="-7.7649920">
        <ele>496.7</ele>
        <time>2019-06-10T05:22:34Z</time>
      </trkpt>
      <trkpt lat="40.6234960" lon="-7.7648650">
        <ele>497.5</ele>
        <time>2019-06-10T05:22:38Z</time>
      </trkpt>
      <trkpt lat="40.6238630" lon="-7.7648400">
        <ele>498.1</ele>
        <time>2019-06-10T05:22:44Z</time>
      </trkpt>
      <trkpt lat="40.6241550" lon="-7.7649280">
        <ele>498.8</ele>
        <time>2019-06-10T05:22:49Z</time>
      </trkpt>
      <trkpt lat="40.6242610" lon="-7.7649790">
        <ele>499.0</ele>
        <time>2019-06-10T05:22:51Z</time>
      </trkpt>
      <trkpt lat="40.6245370" lon="-7.7651240">
        <ele>499.7</ele>
        <time>2019-06-10T05:22:57Z</time>
      </trkpt>
      <trkpt lat="40.6245800" lon="-7.7651480">
        <ele>499.8</ele>
        <time>2019-06-10T05:22:58Z</time>
      </trkpt>
      <trkpt lat="40.6246310" lon="-7.7651740">
        <ele>499.9</ele>
        <time>2019-06-10T05:22:59Z</time>
      </trkpt>
      <trkpt lat="40.6246780" lon="-7.7652010">
        <ele>500.0</ele>
        <time>2019-06-10T05:23:00Z</time>
      </trkpt>
      <trkpt lat="40.6247230" lon="-7.7652250">
        <ele>500.1</ele>
        <time>2019-06-10T05:23:01Z</time>
      </trkpt>
      <trkpt lat="40.6250440" lon="-7.7653900">
        <ele>500.9</ele>
        <time>2019-06-10T05:23:08Z</time>
      </trkpt>
      <trkpt lat="40.6250880" lon="-7.7654150">
        <ele>501.0</ele>
        <time>2019-06-10T05:23:09Z</time>
      </trkpt>
      <trkpt lat="40.6251340" lon="-7.7654420">
        <ele>501.2</ele>
        <time>2019-06-10T05:23:10Z</time>
      </trkpt>
      <trkpt lat="40.6251800" lon="-7.7654650">
        <ele>501.3</ele>
        <time>2019-06-10T05:23:11Z</time>
      </trkpt>
      <trkpt lat="40.6252310" lon="-7.7654840">
        <ele>501.5</ele>
        <time>2019-06-10T05:23:12Z</time>
      </trkpt>
      <trkpt lat="40.6254960" lon="-7.7656560">
        <ele>502.5</ele>
        <time>2019-06-10T05:23:18Z</time>
      </trkpt>
      <trkpt lat="40.6256510" lon="-7.7657960">
        <ele>503.4</ele>
        <time>2019-06-10T05:23:22Z</time>
      </trkpt>
      <trkpt lat="40.6256850" lon="-7.7658250">
        <ele>503.7</ele>
        <time>2019-06-10T05:23:23Z</time>
      </trkpt>
      <trkpt lat="40.6257160" lon="-7.7658560">
        <ele>503.9</ele>
        <time>2019-06-10T05:23:24Z</time>
      </trkpt>
      <trkpt lat="40.6257480" lon="-7.7658900">
        <ele>504.1</ele>
        <time>2019-06-10T05:23:25Z</time>
      </trkpt>
      <trkpt lat="40.6257780" lon="-7.7659220">
        <ele>504.3</ele>
        <time>2019-06-10T05:23:26Z</time>
      </trkpt>
      <trkpt lat="40.6258050" lon="-7.7659520">
        <ele>504.5</ele>
        <time>2019-06-10T05:23:27Z</time>
      </trkpt>
      <trkpt lat="40.6258330" lon="-7.7659820">
        <ele>504.7</ele>
        <time>2019-06-10T05:23:28Z</time>
      </trkpt>
      <trkpt lat="40.6258650" lon="-7.7660150">
        <ele>505.0</ele>
        <time>2019-06-10T05:23:29Z</time>
      </trkpt>
      <trkpt lat="40.6258950" lon="-7.7660480">
        <ele>505.2</ele>
        <time>2019-06-10T05:23:30Z</time>
      </trkpt>
      <trkpt lat="40.6259270" lon="-7.7660790">
        <ele>505.5</ele>
        <time>2019-06-10T05:23:31Z</time>
      </trkpt>
      <trkpt lat="40.6259610" lon="-7.7661120">
        <ele>505.7</ele>
        <time>2019-06-10T05:23:32Z</time>
      </trkpt>
      <trkpt lat="40.6260240" lon="-7.7661790">
        <ele>506.2</ele>
        <time>2019-06-10T05:23:34Z</time>
      </trkpt>
      <trkpt lat="40.6260540" lon="-7.7662100">
        <ele>506.5</ele>
        <time>2019-06-10T05:23:35Z</time>
      </trkpt>
      <trkpt lat="40.6260820" lon="-7.7662440">
        <ele>506.8</ele>
        <time>2019-06-10T05:23:36Z</time>
      </trkpt>
      <trkpt lat="40.6261080" lon="-7.7662740">
        <ele>507.0</ele>
        <time>2019-06-10T05:23:37Z</time>
      </trkpt>
      <trkpt lat="40.6261370" lon="-7.7663030">
        <ele>507.2</ele>
        <time>2019-06-10T05:23:38Z</time>
      </trkpt>
      <trkpt lat="40.6261680" lon="-7.7663290">
        <ele>507.5</ele>
        <time>2019-06-10T05:23:39Z</time>
      </trkpt>
      <trkpt lat="40.6262010" lon="-7.7663590">
        <ele>507.8</ele>
        <time>2019-06-10T05:23:40Z</time>
      </trkpt>
      <trkpt lat="40.6262330" lon="-7.7663850">
        <ele>508.1</ele>
        <time>2019-06-10T05:23:41Z</time>
      </trkpt>
      <trkpt lat="40.6262610" lon="-7.7664040">
        <ele>508.5</ele>
        <time>2019-06-10T05:23:42Z</time>
      </trkpt>
      <trkpt lat="40.6262930" lon="-7.7664130">
        <ele>508.7</ele>
        <time>2019-06-10T05:23:43Z</time>
      </trkpt>
      <trkpt lat="40.6263220" lon="-7.7664180">
        <ele>508.8</ele>
        <time>2019-06-10T05:23:44Z</time>
      </trkpt>
      <trkpt lat="40.6264770" lon="-7.7663750">
        <ele>509.7</ele>
        <time>2019-06-10T05:23:49Z</time>
      </trkpt>
      <trkpt lat="40.6267480" lon="-7.7663100">
        <ele>510.3</ele>
        <time>2019-06-10T05:23:55Z</time>
      </trkpt>
      <trkpt lat="40.6268850" lon="-7.7663340">
        <ele>510.7</ele>
        <time>2019-06-10T05:23:58Z</time>
      </trkpt>
      <trkpt lat="40.6270100" lon="-7.7663620">
        <ele>511.0</ele>
        <time>2019-06-10T05:24:01Z</time>
      </trkpt>
      <trkpt lat="40.6273660" lon="-7.7664610">
        <ele>512.0</ele>
        <time>2019-06-10T05:24:09Z</time>
      </trkpt>
      <trkpt lat="40.6275380" lon="-7.7665040">
        <ele>512.9</ele>
        <time>2019-06-10T05:24:13Z</time>
      </trkpt>
      <trkpt lat="40.6275810" lon="-7.7665120">
        <ele>513.0</ele>
        <time>2019-06-10T05:24:14Z</time>
      </trkpt>
      <trkpt lat="40.6276280" lon="-7.7665180">
        <ele>513.2</ele>
        <time>2019-06-10T05:24:15Z</time>
      </trkpt>
      <trkpt lat="40.6276680" lon="-7.7665260">
        <ele>513.4</ele>
        <time>2019-06-10T05:24:16Z</time>
      </trkpt>
      <trkpt lat="40.6277060" lon="-7.7665350">
        <ele>513.6</ele>
        <time>2019-06-10T05:24:17Z</time>
      </trkpt>
      <trkpt lat="40.6280330" lon="-7.7666940">
        <ele>515.2</ele>
        <time>2019-06-10T05:24:25Z</time>
      </trkpt>
      <trkpt lat="40.6281530" lon="-7.7668510">
        <ele>515.6</ele>
        <time>2019-06-10T05:24:29Z</time>
      </trkpt>
      <trkpt lat="40.6281720" lon="-7.7669020">
        <ele>515.4</ele>
        <time>2019-06-10T05:24:30Z</time>
      </trkpt>
      <trkpt lat="40.6281890" lon="-7.7669550">
        <ele>515.4</ele>
        <time>2019-06-10T05:24:31Z</time>
      </trkpt>
      <trkpt lat="40.6281980" lon="-7.7670090">
        <ele>515.4</ele>
        <time>2019-06-10T05:24:32Z</time>
      </trkpt>
      <trkpt lat="40.6282080" lon="-7.7670680">
        <ele>515.3</ele>
        <time>2019-06-10T05:24:33Z</time>
      </trkpt>
      <trkpt lat="40.6282150" lon="-7.7671250">
        <ele>515.1</ele>
        <time>2019-06-10T05:24:34Z</time>
      </trkpt>
      <trkpt lat="40.6282220" lon="-7.7671850">
        <ele>514.8</ele>
        <time>2019-06-10T05:24:35Z</time>
      </trkpt>
      <trkpt lat="40.6283210" lon="-7.7677380">
        <ele>513.5</ele>
        <time>2019-06-10T05:24:45Z</time>
      </trkpt>
      <trkpt lat="40.6284110" lon="-7.7680710">
        <ele>512.9</ele>
        <time>2019-06-10T05:24:51Z</time>
      </trkpt>
      <trkpt lat="40.6284630" lon="-7.7682350">
        <ele>512.8</ele>
        <time>2019-06-10T05:24:54Z</time>
      </trkpt>
      <trkpt lat="40.6285990" lon="-7.7687610">
        <ele>512.3</ele>
        <time>2019-06-10T05:25:03Z</time>
      </trkpt>
      <trkpt lat="40.6286240" lon="-7.7692150">
        <ele>511.6</ele>
        <time>2019-06-10T05:25:10Z</time>
      </trkpt>
      <trkpt lat="40.6286100" lon="-7.7694620">
        <ele>511.5</ele>
        <time>2019-06-10T05:25:14Z</time>
      </trkpt>
      <trkpt lat="40.6285650" lon="-7.7695620">
        <ele>511.1</ele>
        <time>2019-06-10T05:25:16Z</time>
      </trkpt>
      <trkpt lat="40.6284970" lon="-7.7696510">
        <ele>510.8</ele>
        <time>2019-06-10T05:25:18Z</time>
      </trkpt>
      <trkpt lat="40.6283720" lon="-7.7698330">
        <ele>510.5</ele>
        <time>2019-06-10T05:25:22Z</time>
      </trkpt>
      <trkpt lat="40.6283530" lon="-7.7698840">
        <ele>510.4</ele>
        <time>2019-06-10T05:25:23Z</time>
      </trkpt>
      <trkpt lat="40.6282960" lon="-7.7700440">
        <ele>510.3</ele>
        <time>2019-06-10T05:25:26Z</time>
      </trkpt>
      <trkpt lat="40.6282780" lon="-7.7701080">
        <ele>510.2</ele>
        <time>2019-06-10T05:25:27Z</time>
      </trkpt>
      <trkpt lat="40.6281790" lon="-7.7705130">
        <ele>509.9</ele>
        <time>2019-06-10T05:25:34Z</time>
      </trkpt>
      <trkpt lat="40.6281590" lon="-7.7706190">
        <ele>509.9</ele>
        <time>2019-06-10T05:25:36Z</time>
      </trkpt>
      <trkpt lat="40.6281480" lon="-7.7706710">
        <ele>509.8</ele>
        <time>2019-06-10T05:25:37Z</time>
      </trkpt>
      <trkpt lat="40.6281350" lon="-7.7707200">
        <ele>509.8</ele>
        <time>2019-06-10T05:25:38Z</time>
      </trkpt>
      <trkpt lat="40.6281220" lon="-7.7707750">
        <ele>509.8</ele>
        <time>2019-06-10T05:25:39Z</time>
      </trkpt>
      <trkpt lat="40.6281070" lon="-7.7708350">
        <ele>509.7</ele>
        <time>2019-06-10T05:25:40Z</time>
      </trkpt>
      <trkpt lat="40.6280530" lon="-7.7709640">
        <ele>509.6</ele>
        <time>2019-06-10T05:25:42Z</time>
      </trkpt>
      <trkpt lat="40.6278700" lon="-7.7712530">
        <ele>508.6</ele>
        <time>2019-06-10T05:25:46Z</time>
      </trkpt>
      <trkpt lat="40.6278210" lon="-7.7713250">
        <ele>508.3</ele>
        <time>2019-06-10T05:25:47Z</time>
      </trkpt>
      <trkpt lat="40.6277870" lon="-7.7713990">
        <ele>508.0</ele>
        <time>2019-06-10T05:25:48Z</time>
      </trkpt>
      <trkpt lat="40.6277660" lon="-7.7714830">
        <ele>507.8</ele>
        <time>2019-06-10T05:25:49Z</time>
      </trkpt>
      <trkpt lat="40.6277580" lon="-7.7715720">
        <ele>507.6</ele>
        <time>2019-06-10T05:25:50Z</time>
      </trkpt>
      <trkpt lat="40.6277760" lon="-7.7718500">
        <ele>506.9</ele>
        <time>2019-06-10T05:25:53Z</time>
      </trkpt>
      <trkpt lat="40.6277780" lon="-7.7719380">
        <ele>506.7</ele>
        <time>2019-06-10T05:25:54Z</time>
      </trkpt>
      <trkpt lat="40.6277520" lon="-7.7721040">
        <ele>506.4</ele>
        <time>2019-06-10T05:25:56Z</time>
      </trkpt>
      <trkpt lat="40.6277220" lon="-7.7721850">
        <ele>506.2</ele>
        <time>2019-06-10T05:25:57Z</time>
      </trkpt>
      <trkpt lat="40.6276890" lon="-7.7722610">
        <ele>506.0</ele>
        <time>2019-06-10T05:25:58Z</time>
      </trkpt>
      <trkpt lat="40.6276570" lon="-7.7723370">
        <ele>505.8</ele>
        <time>2019-06-10T05:25:59Z</time>
      </trkpt>
      <trkpt lat="40.6276270" lon="-7.7724160">
        <ele>505.6</ele>
        <time>2019-06-10T05:26:00Z</time>
      </trkpt>
      <trkpt lat="40.6276040" lon="-7.7725000">
        <ele>505.4</ele>
        <time>2019-06-10T05:26:01Z</time>
      </trkpt>
      <trkpt lat="40.6275240" lon="-7.7728260">
        <ele>504.7</ele>
        <time>2019-06-10T05:26:05Z</time>
      </trkpt>
      <trkpt lat="40.6274640" lon="-7.7730510">
        <ele>504.2</ele>
        <time>2019-06-10T05:26:08Z</time>
      </trkpt>
      <trkpt lat="40.6274420" lon="-7.7731280">
        <ele>504.0</ele>
        <time>2019-06-10T05:26:09Z</time>
      </trkpt>
      <trkpt lat="40.6274200" lon="-7.7732040">
        <ele>503.7</ele>
        <time>2019-06-10T05:26:10Z</time>
      </trkpt>
      <trkpt lat="40.6273990" lon="-7.7732860">
        <ele>503.4</ele>
        <time>2019-06-10T05:26:11Z</time>
      </trkpt>
      <trkpt lat="40.6273750" lon="-7.7733770">
        <ele>503.0</ele>
        <time>2019-06-10T05:26:12Z</time>
      </trkpt>
      <trkpt lat="40.6273530" lon="-7.7734740">
        <ele>502.6</ele>
        <time>2019-06-10T05:26:13Z</time>
      </trkpt>
      <trkpt lat="40.6273320" lon="-7.7735770">
        <ele>502.0</ele>
        <time>2019-06-10T05:26:14Z</time>
      </trkpt>
      <trkpt lat="40.6273160" lon="-7.7736820">
        <ele>501.5</ele>
        <time>2019-06-10T05:26:15Z</time>
      </trkpt>
      <trkpt lat="40.6273050" lon="-7.7737860">
        <ele>500.9</ele>
        <time>2019-06-10T05:26:16Z</time>
      </trkpt>
      <trkpt lat="40.6272970" lon="-7.7739000">
        <ele>500.3</ele>
        <time>2019-06-10T05:26:17Z</time>
      </trkpt>
      <trkpt lat="40.6272930" lon="-7.7740090">
        <ele>499.8</ele>
        <time>2019-06-10T05:26:18Z</time>
      </trkpt>
      <trkpt lat="40.6272860" lon="-7.7741200">
        <ele>499.3</ele>
        <time>2019-06-10T05:26:19Z</time>
      </trkpt>
      <trkpt lat="40.6272780" lon="-7.7742300">
        <ele>498.8</ele>
        <time>2019-06-10T05:26:20Z</time>
      </trkpt>
      <trkpt lat="40.6272670" lon="-7.7743290">
        <ele>498.4</ele>
        <time>2019-06-10T05:26:21Z</time>
      </trkpt>
      <trkpt lat="40.6272560" lon="-7.7744260">
        <ele>498.1</ele>
        <time>2019-06-10T05:26:22Z</time>
      </trkpt>
      <trkpt lat="40.6272490" lon="-7.7745110">
        <ele>497.8</ele>
        <time>2019-06-10T05:26:23Z</time>
      </trkpt>
      <trkpt lat="40.6272390" lon="-7.7745970">
        <ele>497.6</ele>
        <time>2019-06-10T05:26:24Z</time>
      </trkpt>
      <trkpt lat="40.6272310" lon="-7.7746730">
        <ele>497.5</ele>
        <time>2019-06-10T05:26:25Z</time>
      </trkpt>
      <trkpt lat="40.6272230" lon="-7.7747450">
        <ele>497.4</ele>
        <time>2019-06-10T05:26:26Z</time>
      </trkpt>
      <trkpt lat="40.6272110" lon="-7.7750200">
        <ele>497.5</ele>
        <time>2019-06-10T05:26:30Z</time>
      </trkpt>
      <trkpt lat="40.6271890" lon="-7.7752440">
        <ele>497.7</ele>
        <time>2019-06-10T05:26:34Z</time>
      </trkpt>
      <trkpt lat="40.6271720" lon="-7.7753340">
        <ele>497.7</ele>
        <time>2019-06-10T05:26:36Z</time>
      </trkpt>
      <trkpt lat="40.6271890" lon="-7.7756280">
        <ele>497.7</ele>
        <time>2019-06-10T05:26:43Z</time>
      </trkpt>
      <trkpt lat="40.6271930" lon="-7.7756600">
        <ele>497.7</ele>
        <time>2019-06-10T05:26:46Z</time>
      </trkpt>
      <trkpt lat="40.6271910" lon="-7.7756740">
        <ele>497.7</ele>
        <time>2019-06-10T05:28:58Z</time>
      </trkpt>
      <trkpt lat="40.6272240" lon="-7.7758490">
        <ele>497.6</ele>
        <time>2019-06-10T05:29:03Z</time>
      </trkpt>
      <trkpt lat="40.6272200" lon="-7.7759420">
        <ele>497.5</ele>
        <time>2019-06-10T05:29:05Z</time>
      </trkpt>
      <trkpt lat="40.6271890" lon="-7.7760410">
        <ele>497.4</ele>
        <time>2019-06-10T05:29:07Z</time>
      </trkpt>
      <trkpt lat="40.6271480" lon="-7.7761350">
        <ele>497.3</ele>
        <time>2019-06-10T05:29:09Z</time>
      </trkpt>
      <trkpt lat="40.6270620" lon="-7.7763550">
        <ele>496.9</ele>
        <time>2019-06-10T05:29:13Z</time>
      </trkpt>
      <trkpt lat="40.6270570" lon="-7.7764210">
        <ele>496.8</ele>
        <time>2019-06-10T05:29:14Z</time>
      </trkpt>
      <trkpt lat="40.6270670" lon="-7.7766480">
        <ele>496.1</ele>
        <time>2019-06-10T05:29:17Z</time>
      </trkpt>
      <trkpt lat="40.6270700" lon="-7.7767300">
        <ele>495.8</ele>
        <time>2019-06-10T05:29:18Z</time>
      </trkpt>
      <trkpt lat="40.6270730" lon="-7.7768200">
        <ele>495.4</ele>
        <time>2019-06-10T05:29:19Z</time>
      </trkpt>
      <trkpt lat="40.6270720" lon="-7.7769130">
        <ele>495.0</ele>
        <time>2019-06-10T05:29:20Z</time>
      </trkpt>
      <trkpt lat="40.6270660" lon="-7.7770080">
        <ele>494.5</ele>
        <time>2019-06-10T05:29:21Z</time>
      </trkpt>
      <trkpt lat="40.6270500" lon="-7.7772020">
        <ele>493.7</ele>
        <time>2019-06-10T05:29:23Z</time>
      </trkpt>
      <trkpt lat="40.6270450" lon="-7.7772960">
        <ele>493.4</ele>
        <time>2019-06-10T05:29:24Z</time>
      </trkpt>
      <trkpt lat="40.6270420" lon="-7.7773950">
        <ele>493.0</ele>
        <time>2019-06-10T05:29:25Z</time>
      </trkpt>
      <trkpt lat="40.6270390" lon="-7.7774900">
        <ele>492.6</ele>
        <time>2019-06-10T05:29:26Z</time>
      </trkpt>
      <trkpt lat="40.6270360" lon="-7.7775830">
        <ele>492.3</ele>
        <time>2019-06-10T05:29:27Z</time>
      </trkpt>
      <trkpt lat="40.6270030" lon="-7.7778400">
        <ele>491.7</ele>
        <time>2019-06-10T05:29:30Z</time>
      </trkpt>
      <trkpt lat="40.6269770" lon="-7.7779130">
        <ele>491.6</ele>
        <time>2019-06-10T05:29:31Z</time>
      </trkpt>
      <trkpt lat="40.6269020" lon="-7.7780560">
        <ele>491.4</ele>
        <time>2019-06-10T05:29:33Z</time>
      </trkpt>
      <trkpt lat="40.6268690" lon="-7.7781250">
        <ele>491.3</ele>
        <time>2019-06-10T05:29:34Z</time>
      </trkpt>
      <trkpt lat="40.6268430" lon="-7.7781930">
        <ele>491.3</ele>
        <time>2019-06-10T05:29:35Z</time>
      </trkpt>
      <trkpt lat="40.6268160" lon="-7.7782640">
        <ele>491.2</ele>
        <time>2019-06-10T05:29:36Z</time>
      </trkpt>
      <trkpt lat="40.6267900" lon="-7.7783380">
        <ele>491.1</ele>
        <time>2019-06-10T05:29:37Z</time>
      </trkpt>
      <trkpt lat="40.6267720" lon="-7.7784110">
        <ele>491.1</ele>
        <time>2019-06-10T05:29:38Z</time>
      </trkpt>
      <trkpt lat="40.6267680" lon="-7.7785730">
        <ele>490.8</ele>
        <time>2019-06-10T05:29:40Z</time>
      </trkpt>
      <trkpt lat="40.6267810" lon="-7.7787400">
        <ele>490.5</ele>
        <time>2019-06-10T05:29:42Z</time>
      </trkpt>
      <trkpt lat="40.6267920" lon="-7.7789130">
        <ele>490.1</ele>
        <time>2019-06-10T05:29:44Z</time>
      </trkpt>
      <trkpt lat="40.6267960" lon="-7.7790020">
        <ele>489.9</ele>
        <time>2019-06-10T05:29:45Z</time>
      </trkpt>
      <trkpt lat="40.6268010" lon="-7.7790960">
        <ele>489.7</ele>
        <time>2019-06-10T05:29:46Z</time>
      </trkpt>
      <trkpt lat="40.6268080" lon="-7.7791860">
        <ele>489.5</ele>
        <time>2019-06-10T05:29:47Z</time>
      </trkpt>
      <trkpt lat="40.6268110" lon="-7.7792790">
        <ele>489.3</ele>
        <time>2019-06-10T05:29:48Z</time>
      </trkpt>
      <trkpt lat="40.6268290" lon="-7.7795580">
        <ele>488.6</ele>
        <time>2019-06-10T05:29:51Z</time>
      </trkpt>
      <trkpt lat="40.6268370" lon="-7.7796520">
        <ele>488.3</ele>
        <time>2019-06-10T05:29:52Z</time>
      </trkpt>
      <trkpt lat="40.6268480" lon="-7.7797550">
        <ele>488.0</ele>
        <time>2019-06-10T05:29:53Z</time>
      </trkpt>
      <trkpt lat="40.6268580" lon="-7.7798560">
        <ele>487.6</ele>
        <time>2019-06-10T05:29:54Z</time>
      </trkpt>
      <trkpt lat="40.6268650" lon="-7.7799600">
        <ele>487.2</ele>
        <time>2019-06-10T05:29:55Z</time>
      </trkpt>
      <trkpt lat="40.6268670" lon="-7.7802830">
        <ele>485.9</ele>
        <time>2019-06-10T05:29:58Z</time>
      </trkpt>
      <trkpt lat="40.6268680" lon="-7.7803940">
        <ele>485.4</ele>
        <time>2019-06-10T05:29:59Z</time>
      </trkpt>
      <trkpt lat="40.6268700" lon="-7.7805080">
        <ele>484.9</ele>
        <time>2019-06-10T05:30:00Z</time>
      </trkpt>
      <trkpt lat="40.6268700" lon="-7.7806230">
        <ele>484.5</ele>
        <time>2019-06-10T05:30:01Z</time>
      </trkpt>
      <trkpt lat="40.6268670" lon="-7.7807340">
        <ele>484.0</ele>
        <time>2019-06-10T05:30:02Z</time>
      </trkpt>
      <trkpt lat="40.6268530" lon="-7.7808430">
        <ele>483.6</ele>
        <time>2019-06-10T05:30:03Z</time>
      </trkpt>
      <trkpt lat="40.6268290" lon="-7.7809480">
        <ele>483.5</ele>
        <time>2019-06-10T05:30:04Z</time>
      </trkpt>
      <trkpt lat="40.6267920" lon="-7.7810450">
        <ele>483.5</ele>
        <time>2019-06-10T05:30:05Z</time>
      </trkpt>
      <trkpt lat="40.6267410" lon="-7.7811280">
        <ele>483.4</ele>
        <time>2019-06-10T05:30:06Z</time>
      </trkpt>
      <trkpt lat="40.6266770" lon="-7.7812050">
        <ele>483.4</ele>
        <time>2019-06-10T05:30:07Z</time>
      </trkpt>
      <trkpt lat="40.6266100" lon="-7.7812720">
        <ele>483.4</ele>
        <time>2019-06-10T05:30:08Z</time>
      </trkpt>
      <trkpt lat="40.6265520" lon="-7.7813400">
        <ele>483.4</ele>
        <time>2019-06-10T05:30:09Z</time>
      </trkpt>
      <trkpt lat="40.6263690" lon="-7.7816490">
        <ele>483.2</ele>
        <time>2019-06-10T05:30:13Z</time>
      </trkpt>
      <trkpt lat="40.6263270" lon="-7.7817260">
        <ele>483.2</ele>
        <time>2019-06-10T05:30:14Z</time>
      </trkpt>
      <trkpt lat="40.6262870" lon="-7.7818000">
        <ele>483.2</ele>
        <time>2019-06-10T05:30:15Z</time>
      </trkpt>
      <trkpt lat="40.6262420" lon="-7.7818780">
        <ele>483.1</ele>
        <time>2019-06-10T05:30:16Z</time>
      </trkpt>
      <trkpt lat="40.6262010" lon="-7.7819550">
        <ele>483.0</ele>
        <time>2019-06-10T05:30:17Z</time>
      </trkpt>
      <trkpt lat="40.6261790" lon="-7.7820420">
        <ele>482.9</ele>
        <time>2019-06-10T05:30:18Z</time>
      </trkpt>
      <trkpt lat="40.6261590" lon="-7.7821290">
        <ele>482.8</ele>
        <time>2019-06-10T05:30:19Z</time>
      </trkpt>
      <trkpt lat="40.6261840" lon="-7.7824100">
        <ele>482.3</ele>
        <time>2019-06-10T05:30:22Z</time>
      </trkpt>
      <trkpt lat="40.6262030" lon="-7.7825030">
        <ele>482.1</ele>
        <time>2019-06-10T05:30:23Z</time>
      </trkpt>
      <trkpt lat="40.6262540" lon="-7.7826790">
        <ele>481.9</ele>
        <time>2019-06-10T05:30:25Z</time>
      </trkpt>
      <trkpt lat="40.6262770" lon="-7.7827720">
        <ele>481.7</ele>
        <time>2019-06-10T05:30:26Z</time>
      </trkpt>
      <trkpt lat="40.6262980" lon="-7.7828630">
        <ele>481.6</ele>
        <time>2019-06-10T05:30:27Z</time>
      </trkpt>
      <trkpt lat="40.6263210" lon="-7.7829590">
        <ele>481.4</ele>
        <time>2019-06-10T05:30:28Z</time>
      </trkpt>
      <trkpt lat="40.6263480" lon="-7.7830550">
        <ele>481.3</ele>
        <time>2019-06-10T05:30:29Z</time>
      </trkpt>
      <trkpt lat="40.6264930" lon="-7.7835990">
        <ele>480.1</ele>
        <time>2019-06-10T05:30:35Z</time>
      </trkpt>
      <trkpt lat="40.6265610" lon="-7.7838580">
        <ele>479.2</ele>
        <time>2019-06-10T05:30:38Z</time>
      </trkpt>
      <trkpt lat="40.6265850" lon="-7.7839510">
        <ele>478.8</ele>
        <time>2019-06-10T05:30:39Z</time>
      </trkpt>
      <trkpt lat="40.6266110" lon="-7.7840460">
        <ele>478.4</ele>
        <time>2019-06-10T05:30:40Z</time>
      </trkpt>
      <trkpt lat="40.6266410" lon="-7.7841440">
        <ele>478.0</ele>
        <time>2019-06-10T05:30:41Z</time>
      </trkpt>
      <trkpt lat="40.6266730" lon="-7.7842430">
        <ele>477.5</ele>
        <time>2019-06-10T05:30:42Z</time>
      </trkpt>
      <trkpt lat="40.6267030" lon="-7.7843340">
        <ele>477.1</ele>
        <time>2019-06-10T05:30:43Z</time>
      </trkpt>
      <trkpt lat="40.6267300" lon="-7.7844270">
        <ele>476.6</ele>
        <time>2019-06-10T05:30:44Z</time>
      </trkpt>
      <trkpt lat="40.6267620" lon="-7.7845280">
        <ele>476.1</ele>
        <time>2019-06-10T05:30:45Z</time>
      </trkpt>
      <trkpt lat="40.6267910" lon="-7.7846280">
        <ele>475.6</ele>
        <time>2019-06-10T05:30:46Z</time>
      </trkpt>
      <trkpt lat="40.6268570" lon="-7.7848420">
        <ele>474.7</ele>
        <time>2019-06-10T05:30:48Z</time>
      </trkpt>
      <trkpt lat="40.6268900" lon="-7.7849530">
        <ele>474.2</ele>
        <time>2019-06-10T05:30:49Z</time>
      </trkpt>
      <trkpt lat="40.6269210" lon="-7.7850670">
        <ele>473.7</ele>
        <time>2019-06-10T05:30:50Z</time>
      </trkpt>
      <trkpt lat="40.6269540" lon="-7.7851750">
        <ele>473.2</ele>
        <time>2019-06-10T05:30:51Z</time>
      </trkpt>
      <trkpt lat="40.6269870" lon="-7.7852880">
        <ele>472.8</ele>
        <time>2019-06-10T05:30:52Z</time>
      </trkpt>
      <trkpt lat="40.6270200" lon="-7.7853960">
        <ele>472.4</ele>
        <time>2019-06-10T05:30:53Z</time>
      </trkpt>
      <trkpt lat="40.6270550" lon="-7.7855110">
        <ele>471.9</ele>
        <time>2019-06-10T05:30:54Z</time>
      </trkpt>
      <trkpt lat="40.6270900" lon="-7.7856200">
        <ele>471.5</ele>
        <time>2019-06-10T05:30:55Z</time>
      </trkpt>
      <trkpt lat="40.6271260" lon="-7.7857280">
        <ele>471.1</ele>
        <time>2019-06-10T05:30:56Z</time>
      </trkpt>
      <trkpt lat="40.6271640" lon="-7.7858370">
        <ele>470.7</ele>
        <time>2019-06-10T05:30:57Z</time>
      </trkpt>
      <trkpt lat="40.6272700" lon="-7.7861590">
        <ele>469.4</ele>
        <time>2019-06-10T05:31:00Z</time>
      </trkpt>
      <trkpt lat="40.6273020" lon="-7.7862690">
        <ele>469.0</ele>
        <time>2019-06-10T05:31:01Z</time>
      </trkpt>
      <trkpt lat="40.6273340" lon="-7.7863790">
        <ele>468.6</ele>
        <time>2019-06-10T05:31:02Z</time>
      </trkpt>
      <trkpt lat="40.6273690" lon="-7.7864910">
        <ele>468.1</ele>
        <time>2019-06-10T05:31:03Z</time>
      </trkpt>
      <trkpt lat="40.6274040" lon="-7.7866000">
        <ele>467.6</ele>
        <time>2019-06-10T05:31:04Z</time>
      </trkpt>
      <trkpt lat="40.6274390" lon="-7.7867130">
        <ele>467.1</ele>
        <time>2019-06-10T05:31:05Z</time>
      </trkpt>
      <trkpt lat="40.6274730" lon="-7.7868280">
        <ele>466.6</ele>
        <time>2019-06-10T05:31:06Z</time>
      </trkpt>
      <trkpt lat="40.6275070" lon="-7.7869510">
        <ele>466.1</ele>
        <time>2019-06-10T05:31:07Z</time>
      </trkpt>
      <trkpt lat="40.6275410" lon="-7.7870760">
        <ele>465.6</ele>
        <time>2019-06-10T05:31:08Z</time>
      </trkpt>
      <trkpt lat="40.6275780" lon="-7.7872070">
        <ele>465.1</ele>
        <time>2019-06-10T05:31:09Z</time>
      </trkpt>
      <trkpt lat="40.6276180" lon="-7.7873340">
        <ele>464.6</ele>
        <time>2019-06-10T05:31:10Z</time>
      </trkpt>
      <trkpt lat="40.6276520" lon="-7.7874620">
        <ele>464.1</ele>
        <time>2019-06-10T05:31:11Z</time>
      </trkpt>
      <trkpt lat="40.6276890" lon="-7.7875910">
        <ele>463.4</ele>
        <time>2019-06-10T05:31:12Z</time>
      </trkpt>
      <trkpt lat="40.6277260" lon="-7.7877210">
        <ele>462.7</ele>
        <time>2019-06-10T05:31:13Z</time>
      </trkpt>
      <trkpt lat="40.6277670" lon="-7.7878550">
        <ele>462.0</ele>
        <time>2019-06-10T05:31:14Z</time>
      </trkpt>
      <trkpt lat="40.6278090" lon="-7.7879980">
        <ele>461.1</ele>
        <time>2019-06-10T05:31:15Z</time>
      </trkpt>
      <trkpt lat="40.6278550" lon="-7.7881350">
        <ele>460.1</ele>
        <time>2019-06-10T05:31:16Z</time>
      </trkpt>
      <trkpt lat="40.6278990" lon="-7.7882880">
        <ele>459.0</ele>
        <time>2019-06-10T05:31:17Z</time>
      </trkpt>
      <trkpt lat="40.6279450" lon="-7.7884330">
        <ele>458.1</ele>
        <time>2019-06-10T05:31:18Z</time>
      </trkpt>
      <trkpt lat="40.6279930" lon="-7.7885790">
        <ele>457.3</ele>
        <time>2019-06-10T05:31:19Z</time>
      </trkpt>
      <trkpt lat="40.6280360" lon="-7.7887240">
        <ele>456.7</ele>
        <time>2019-06-10T05:31:20Z</time>
      </trkpt>
      <trkpt lat="40.6280800" lon="-7.7888740">
        <ele>456.0</ele>
        <time>2019-06-10T05:31:21Z</time>
      </trkpt>
      <trkpt lat="40.6281200" lon="-7.7890130">
        <ele>455.5</ele>
        <time>2019-06-10T05:31:22Z</time>
      </trkpt>
      <trkpt lat="40.6281490" lon="-7.7891710">
        <ele>454.9</ele>
        <time>2019-06-10T05:31:23Z</time>
      </trkpt>
      <trkpt lat="40.6281740" lon="-7.7893370">
        <ele>454.1</ele>
        <time>2019-06-10T05:31:24Z</time>
      </trkpt>
      <trkpt lat="40.6281950" lon="-7.7895070">
        <ele>453.2</ele>
        <time>2019-06-10T05:31:25Z</time>
      </trkpt>
      <trkpt lat="40.6282200" lon="-7.7896790">
        <ele>452.0</ele>
        <time>2019-06-10T05:31:26Z</time>
      </trkpt>
      <trkpt lat="40.6282500" lon="-7.7898530">
        <ele>451.1</ele>
        <time>2019-06-10T05:31:27Z</time>
      </trkpt>
      <trkpt lat="40.6282740" lon="-7.7900330">
        <ele>449.9</ele>
        <time>2019-06-10T05:31:28Z</time>
      </trkpt>
      <trkpt lat="40.6282960" lon="-7.7902120">
        <ele>449.0</ele>
        <time>2019-06-10T05:31:29Z</time>
      </trkpt>
      <trkpt lat="40.6283180" lon="-7.7903940">
        <ele>448.2</ele>
        <time>2019-06-10T05:31:30Z</time>
      </trkpt>
      <trkpt lat="40.6283350" lon="-7.7905740">
        <ele>447.5</ele>
        <time>2019-06-10T05:31:31Z</time>
      </trkpt>
      <trkpt lat="40.6283450" lon="-7.7907600">
        <ele>446.7</ele>
        <time>2019-06-10T05:31:32Z</time>
      </trkpt>
      <trkpt lat="40.6283520" lon="-7.7909480">
        <ele>445.9</ele>
        <time>2019-06-10T05:31:33Z</time>
      </trkpt>
      <trkpt lat="40.6283630" lon="-7.7911290">
        <ele>445.0</ele>
        <time>2019-06-10T05:31:34Z</time>
      </trkpt>
      <trkpt lat="40.6283680" lon="-7.7913260">
        <ele>443.9</ele>
        <time>2019-06-10T05:31:35Z</time>
      </trkpt>
      <trkpt lat="40.6283680" lon="-7.7915120">
        <ele>443.0</ele>
        <time>2019-06-10T05:31:36Z</time>
      </trkpt>
      <trkpt lat="40.6283660" lon="-7.7917050">
        <ele>442.2</ele>
        <time>2019-06-10T05:31:37Z</time>
      </trkpt>
      <trkpt lat="40.6283570" lon="-7.7918890">
        <ele>441.3</ele>
        <time>2019-06-10T05:31:38Z</time>
      </trkpt>
      <trkpt lat="40.6283450" lon="-7.7920800">
        <ele>440.3</ele>
        <time>2019-06-10T05:31:39Z</time>
      </trkpt>
      <trkpt lat="40.6283260" lon="-7.7922660">
        <ele>439.4</ele>
        <time>2019-06-10T05:31:40Z</time>
      </trkpt>
      <trkpt lat="40.6283030" lon="-7.7924490">
        <ele>438.4</ele>
        <time>2019-06-10T05:31:41Z</time>
      </trkpt>
      <trkpt lat="40.6282780" lon="-7.7926390">
        <ele>437.5</ele>
        <time>2019-06-10T05:31:42Z</time>
      </trkpt>
      <trkpt lat="40.6282460" lon="-7.7928230">
        <ele>436.6</ele>
        <time>2019-06-10T05:31:43Z</time>
      </trkpt>
      <trkpt lat="40.6282060" lon="-7.7930070">
        <ele>435.7</ele>
        <time>2019-06-10T05:31:44Z</time>
      </trkpt>
      <trkpt lat="40.6281600" lon="-7.7931870">
        <ele>434.8</ele>
        <time>2019-06-10T05:31:45Z</time>
      </trkpt>
      <trkpt lat="40.6281140" lon="-7.7933630">
        <ele>434.1</ele>
        <time>2019-06-10T05:31:46Z</time>
      </trkpt>
      <trkpt lat="40.6280320" lon="-7.7937190">
        <ele>432.5</ele>
        <time>2019-06-10T05:31:48Z</time>
      </trkpt>
      <trkpt lat="40.6279870" lon="-7.7938970">
        <ele>431.6</ele>
        <time>2019-06-10T05:31:49Z</time>
      </trkpt>
      <trkpt lat="40.6279400" lon="-7.7940700">
        <ele>430.5</ele>
        <time>2019-06-10T05:31:50Z</time>
      </trkpt>
      <trkpt lat="40.6278960" lon="-7.7942580">
        <ele>429.2</ele>
        <time>2019-06-10T05:31:51Z</time>
      </trkpt>
      <trkpt lat="40.6278520" lon="-7.7944420">
        <ele>428.0</ele>
        <time>2019-06-10T05:31:52Z</time>
      </trkpt>
      <trkpt lat="40.6278070" lon="-7.7946360">
        <ele>426.8</ele>
        <time>2019-06-10T05:31:53Z</time>
      </trkpt>
      <trkpt lat="40.6277610" lon="-7.7948210">
        <ele>425.5</ele>
        <time>2019-06-10T05:31:54Z</time>
      </trkpt>
      <trkpt lat="40.6277110" lon="-7.7950000">
        <ele>424.7</ele>
        <time>2019-06-10T05:31:55Z</time>
      </trkpt>
      <trkpt lat="40.6276610" lon="-7.7951920">
        <ele>423.7</ele>
        <time>2019-06-10T05:31:56Z</time>
      </trkpt>
      <trkpt lat="40.6276150" lon="-7.7953740">
        <ele>422.9</ele>
        <time>2019-06-10T05:31:57Z</time>
      </trkpt>
      <trkpt lat="40.6275780" lon="-7.7955640">
        <ele>422.1</ele>
        <time>2019-06-10T05:31:58Z</time>
      </trkpt>
      <trkpt lat="40.6275360" lon="-7.7957560">
        <ele>421.3</ele>
        <time>2019-06-10T05:31:59Z</time>
      </trkpt>
      <trkpt lat="40.6275030" lon="-7.7959320">
        <ele>420.6</ele>
        <time>2019-06-10T05:32:00Z</time>
      </trkpt>
      <trkpt lat="40.6274690" lon="-7.7960970">
        <ele>420.0</ele>
        <time>2019-06-10T05:32:01Z</time>
      </trkpt>
      <trkpt lat="40.6274380" lon="-7.7962690">
        <ele>419.4</ele>
        <time>2019-06-10T05:32:02Z</time>
      </trkpt>
      <trkpt lat="40.6274050" lon="-7.7964440">
        <ele>418.7</ele>
        <time>2019-06-10T05:32:03Z</time>
      </trkpt>
      <trkpt lat="40.6273760" lon="-7.7966110">
        <ele>418.1</ele>
        <time>2019-06-10T05:32:04Z</time>
      </trkpt>
      <trkpt lat="40.6273560" lon="-7.7967880">
        <ele>417.4</ele>
        <time>2019-06-10T05:32:05Z</time>
      </trkpt>
      <trkpt lat="40.6273440" lon="-7.7969460">
        <ele>416.7</ele>
        <time>2019-06-10T05:32:06Z</time>
      </trkpt>
      <trkpt lat="40.6273380" lon="-7.7970850">
        <ele>415.8</ele>
        <time>2019-06-10T05:32:07Z</time>
      </trkpt>
      <trkpt lat="40.6273380" lon="-7.7972140">
        <ele>415.1</ele>
        <time>2019-06-10T05:32:08Z</time>
      </trkpt>
      <trkpt lat="40.6273450" lon="-7.7973350">
        <ele>414.3</ele>
        <time>2019-06-10T05:32:09Z</time>
      </trkpt>
      <trkpt lat="40.6273580" lon="-7.7974510">
        <ele>413.4</ele>
        <time>2019-06-10T05:32:10Z</time>
      </trkpt>
      <trkpt lat="40.6273730" lon="-7.7975620">
        <ele>412.4</ele>
        <time>2019-06-10T05:32:11Z</time>
      </trkpt>
      <trkpt lat="40.6273900" lon="-7.7976530">
        <ele>411.5</ele>
        <time>2019-06-10T05:32:12Z</time>
      </trkpt>
      <trkpt lat="40.6274010" lon="-7.7977430">
        <ele>410.5</ele>
        <time>2019-06-10T05:32:13Z</time>
      </trkpt>
      <trkpt lat="40.6274110" lon="-7.7978160">
        <ele>408.3</ele>
        <time>2019-06-10T05:32:14Z</time>
      </trkpt>
      <trkpt lat="40.6274300" lon="-7.7978920">
        <ele>407.9</ele>
        <time>2019-06-10T05:32:15Z</time>
      </trkpt>
      <trkpt lat="40.6274550" lon="-7.7979730">
        <ele>407.4</ele>
        <time>2019-06-10T05:32:16Z</time>
      </trkpt>
      <trkpt lat="40.6274740" lon="-7.7980610">
        <ele>407.0</ele>
        <time>2019-06-10T05:32:17Z</time>
      </trkpt>
      <trkpt lat="40.6274840" lon="-7.7981530">
        <ele>406.5</ele>
        <time>2019-06-10T05:32:18Z</time>
      </trkpt>
      <trkpt lat="40.6274870" lon="-7.7982360">
        <ele>406.1</ele>
        <time>2019-06-10T05:32:19Z</time>
      </trkpt>
      <trkpt lat="40.6274850" lon="-7.7983150">
        <ele>405.7</ele>
        <time>2019-06-10T05:32:20Z</time>
      </trkpt>
      <trkpt lat="40.6274680" lon="-7.7987030">
        <ele>404.4</ele>
        <time>2019-06-10T05:32:26Z</time>
      </trkpt>
      <trkpt lat="40.6274760" lon="-7.7987600">
        <ele>404.3</ele>
        <time>2019-06-10T05:32:27Z</time>
      </trkpt>
      <trkpt lat="40.6275120" lon="-7.7989460">
        <ele>403.6</ele>
        <time>2019-06-10T05:32:30Z</time>
      </trkpt>
      <trkpt lat="40.6276050" lon="-7.7993410">
        <ele>401.7</ele>
        <time>2019-06-10T05:32:35Z</time>
      </trkpt>
      <trkpt lat="40.6276270" lon="-7.7994290">
        <ele>401.3</ele>
        <time>2019-06-10T05:32:36Z</time>
      </trkpt>
      <trkpt lat="40.6276530" lon="-7.7995190">
        <ele>400.9</ele>
        <time>2019-06-10T05:32:37Z</time>
      </trkpt>
      <trkpt lat="40.6276850" lon="-7.7996130">
        <ele>400.6</ele>
        <time>2019-06-10T05:32:38Z</time>
      </trkpt>
      <trkpt lat="40.6277220" lon="-7.7997100">
        <ele>400.2</ele>
        <time>2019-06-10T05:32:39Z</time>
      </trkpt>
      <trkpt lat="40.6277610" lon="-7.7998020">
        <ele>400.0</ele>
        <time>2019-06-10T05:32:40Z</time>
      </trkpt>
      <trkpt lat="40.6278000" lon="-7.7998930">
        <ele>399.7</ele>
        <time>2019-06-10T05:32:41Z</time>
      </trkpt>
      <trkpt lat="40.6278400" lon="-7.7999840">
        <ele>399.6</ele>
        <time>2019-06-10T05:32:42Z</time>
      </trkpt>
      <trkpt lat="40.6278800" lon="-7.8000750">
        <ele>399.4</ele>
        <time>2019-06-10T05:32:43Z</time>
      </trkpt>
      <trkpt lat="40.6280100" lon="-7.8003340">
        <ele>398.8</ele>
        <time>2019-06-10T05:32:46Z</time>
      </trkpt>
      <trkpt lat="40.6280520" lon="-7.8004190">
        <ele>398.5</ele>
        <time>2019-06-10T05:32:47Z</time>
      </trkpt>
      <trkpt lat="40.6280910" lon="-7.8005030">
        <ele>398.1</ele>
        <time>2019-06-10T05:32:48Z</time>
      </trkpt>
      <trkpt lat="40.6281330" lon="-7.8005880">
        <ele>397.8</ele>
        <time>2019-06-10T05:32:49Z</time>
      </trkpt>
      <trkpt lat="40.6281780" lon="-7.8006680">
        <ele>397.4</ele>
        <time>2019-06-10T05:32:50Z</time>
      </trkpt>
      <trkpt lat="40.6283290" lon="-7.8008930">
        <ele>395.8</ele>
        <time>2019-06-10T05:32:53Z</time>
      </trkpt>
      <trkpt lat="40.6283820" lon="-7.8009660">
        <ele>395.0</ele>
        <time>2019-06-10T05:32:54Z</time>
      </trkpt>
      <trkpt lat="40.6284350" lon="-7.8010290">
        <ele>394.3</ele>
        <time>2019-06-10T05:32:55Z</time>
      </trkpt>
      <trkpt lat="40.6284840" lon="-7.8010830">
        <ele>393.6</ele>
        <time>2019-06-10T05:32:56Z</time>
      </trkpt>
      <trkpt lat="40.6285400" lon="-7.8011220">
        <ele>392.8</ele>
        <time>2019-06-10T05:32:57Z</time>
      </trkpt>
      <trkpt lat="40.6286020" lon="-7.8011410">
        <ele>392.1</ele>
        <time>2019-06-10T05:32:58Z</time>
      </trkpt>
      <trkpt lat="40.6286760" lon="-7.8011230">
        <ele>391.3</ele>
        <time>2019-06-10T05:32:59Z</time>
      </trkpt>
      <trkpt lat="40.6287460" lon="-7.8010940">
        <ele>390.5</ele>
        <time>2019-06-10T05:33:00Z</time>
      </trkpt>
      <trkpt lat="40.6288160" lon="-7.8010440">
        <ele>389.8</ele>
        <time>2019-06-10T05:33:01Z</time>
      </trkpt>
      <trkpt lat="40.6288720" lon="-7.8009770">
        <ele>389.6</ele>
        <time>2019-06-10T05:33:02Z</time>
      </trkpt>
      <trkpt lat="40.6289370" lon="-7.8009080">
        <ele>389.4</ele>
        <time>2019-06-10T05:33:03Z</time>
      </trkpt>
      <trkpt lat="40.6290050" lon="-7.8008480">
        <ele>389.3</ele>
        <time>2019-06-10T05:33:04Z</time>
      </trkpt>
      <trkpt lat="40.6290770" lon="-7.8008100">
        <ele>389.1</ele>
        <time>2019-06-10T05:33:05Z</time>
      </trkpt>
      <trkpt lat="40.6291570" lon="-7.8007850">
        <ele>389.0</ele>
        <time>2019-06-10T05:33:06Z</time>
      </trkpt>
      <trkpt lat="40.6294590" lon="-7.8007610">
        <ele>388.4</ele>
        <time>2019-06-10T05:33:10Z</time>
      </trkpt>
      <trkpt lat="40.6298490" lon="-7.8007600">
        <ele>388.1</ele>
        <time>2019-06-10T05:33:16Z</time>
      </trkpt>
      <trkpt lat="40.6302780" lon="-7.8007600">
        <ele>386.1</ele>
        <time>2019-06-10T05:33:23Z</time>
      </trkpt>
      <trkpt lat="40.6304240" lon="-7.8007660">
        <ele>385.1</ele>
        <time>2019-06-10T05:33:25Z</time>
      </trkpt>
      <trkpt lat="40.6304980" lon="-7.8007640">
        <ele>384.7</ele>
        <time>2019-06-10T05:33:26Z</time>
      </trkpt>
      <trkpt lat="40.6305820" lon="-7.8007600">
        <ele>384.2</ele>
        <time>2019-06-10T05:33:27Z</time>
      </trkpt>
      <trkpt lat="40.6306620" lon="-7.8007610">
        <ele>383.7</ele>
        <time>2019-06-10T05:33:28Z</time>
      </trkpt>
      <trkpt lat="40.6307470" lon="-7.8007650">
        <ele>383.1</ele>
        <time>2019-06-10T05:33:29Z</time>
      </trkpt>
      <trkpt lat="40.6308270" lon="-7.8007700">
        <ele>382.5</ele>
        <time>2019-06-10T05:33:30Z</time>
      </trkpt>
      <trkpt lat="40.6309110" lon="-7.8007730">
        <ele>381.9</ele>
        <time>2019-06-10T05:33:31Z</time>
      </trkpt>
      <trkpt lat="40.6309960" lon="-7.8007760">
        <ele>381.4</ele>
        <time>2019-06-10T05:33:32Z</time>
      </trkpt>
      <trkpt lat="40.6310870" lon="-7.8007760">
        <ele>380.9</ele>
        <time>2019-06-10T05:33:33Z</time>
      </trkpt>
      <trkpt lat="40.6311720" lon="-7.8007810">
        <ele>380.4</ele>
        <time>2019-06-10T05:33:34Z</time>
      </trkpt>
      <trkpt lat="40.6313530" lon="-7.8007910">
        <ele>379.2</ele>
        <time>2019-06-10T05:33:36Z</time>
      </trkpt>
      <trkpt lat="40.6314430" lon="-7.8008040">
        <ele>378.7</ele>
        <time>2019-06-10T05:33:37Z</time>
      </trkpt>
      <trkpt lat="40.6315290" lon="-7.8008360">
        <ele>378.3</ele>
        <time>2019-06-10T05:33:38Z</time>
      </trkpt>
      <trkpt lat="40.6316160" lon="-7.8008910">
        <ele>377.8</ele>
        <time>2019-06-10T05:33:39Z</time>
      </trkpt>
      <trkpt lat="40.6316980" lon="-7.8009720">
        <ele>377.4</ele>
        <time>2019-06-10T05:33:40Z</time>
      </trkpt>
      <trkpt lat="40.6317650" lon="-7.8010660">
        <ele>376.9</ele>
        <time>2019-06-10T05:33:41Z</time>
      </trkpt>
      <trkpt lat="40.6318230" lon="-7.8011780">
        <ele>376.4</ele>
        <time>2019-06-10T05:33:42Z</time>
      </trkpt>
      <trkpt lat="40.6318440" lon="-7.8013160">
        <ele>375.9</ele>
        <time>2019-06-10T05:33:43Z</time>
      </trkpt>
      <trkpt lat="40.6318540" lon="-7.8014550">
        <ele>375.3</ele>
        <time>2019-06-10T05:33:44Z</time>
      </trkpt>
      <trkpt lat="40.6318450" lon="-7.8015980">
        <ele>374.6</ele>
        <time>2019-06-10T05:33:45Z</time>
      </trkpt>
      <trkpt lat="40.6318240" lon="-7.8017320">
        <ele>374.0</ele>
        <time>2019-06-10T05:33:46Z</time>
      </trkpt>
      <trkpt lat="40.6318020" lon="-7.8018690">
        <ele>373.4</ele>
        <time>2019-06-10T05:33:47Z</time>
      </trkpt>
      <trkpt lat="40.6317900" lon="-7.8020040">
        <ele>372.8</ele>
        <time>2019-06-10T05:33:48Z</time>
      </trkpt>
      <trkpt lat="40.6318030" lon="-7.8021410">
        <ele>372.2</ele>
        <time>2019-06-10T05:33:49Z</time>
      </trkpt>
      <trkpt lat="40.6318380" lon="-7.8022790">
        <ele>371.6</ele>
        <time>2019-06-10T05:33:50Z</time>
      </trkpt>
      <trkpt lat="40.6319130" lon="-7.8023940">
        <ele>371.1</ele>
        <time>2019-06-10T05:33:51Z</time>
      </trkpt>
      <trkpt lat="40.6319830" lon="-7.8025040">
        <ele>370.6</ele>
        <time>2019-06-10T05:33:52Z</time>
      </trkpt>
      <trkpt lat="40.6320480" lon="-7.8026220">
        <ele>370.1</ele>
        <time>2019-06-10T05:33:53Z</time>
      </trkpt>
      <trkpt lat="40.6321060" lon="-7.8027450">
        <ele>369.6</ele>
        <time>2019-06-10T05:33:54Z</time>
      </trkpt>
      <trkpt lat="40.6321590" lon="-7.8028690">
        <ele>369.0</ele>
        <time>2019-06-10T05:33:55Z</time>
      </trkpt>
      <trkpt lat="40.6322070" lon="-7.8029960">
        <ele>368.4</ele>
        <time>2019-06-10T05:33:56Z</time>
      </trkpt>
      <trkpt lat="40.6322550" lon="-7.8031260">
        <ele>367.7</ele>
        <time>2019-06-10T05:33:57Z</time>
      </trkpt>
      <trkpt lat="40.6323060" lon="-7.8032560">
        <ele>367.0</ele>
        <time>2019-06-10T05:33:58Z</time>
      </trkpt>
      <trkpt lat="40.6323800" lon="-7.8033760">
        <ele>366.1</ele>
        <time>2019-06-10T05:33:59Z</time>
      </trkpt>
      <trkpt lat="40.6324350" lon="-7.8035010">
        <ele>365.3</ele>
        <time>2019-06-10T05:34:00Z</time>
      </trkpt>
      <trkpt lat="40.6324890" lon="-7.8036390">
        <ele>364.6</ele>
        <time>2019-06-10T05:34:01Z</time>
      </trkpt>
      <trkpt lat="40.6324530" lon="-7.8038020">
        <ele>363.9</ele>
        <time>2019-06-10T05:34:02Z</time>
      </trkpt>
      <trkpt lat="40.6324130" lon="-7.8039580">
        <ele>363.3</ele>
        <time>2019-06-10T05:34:03Z</time>
      </trkpt>
      <trkpt lat="40.6323870" lon="-7.8041060">
        <ele>362.7</ele>
        <time>2019-06-10T05:34:04Z</time>
      </trkpt>
      <trkpt lat="40.6323760" lon="-7.8042480">
        <ele>362.2</ele>
        <time>2019-06-10T05:34:05Z</time>
      </trkpt>
      <trkpt lat="40.6323790" lon="-7.8044020">
        <ele>361.6</ele>
        <time>2019-06-10T05:34:06Z</time>
      </trkpt>
      <trkpt lat="40.6324090" lon="-7.8045490">
        <ele>360.9</ele>
        <time>2019-06-10T05:34:07Z</time>
      </trkpt>
      <trkpt lat="40.6324370" lon="-7.8046880">
        <ele>360.2</ele>
        <time>2019-06-10T05:34:08Z</time>
      </trkpt>
      <trkpt lat="40.6324580" lon="-7.8048400">
        <ele>359.4</ele>
        <time>2019-06-10T05:34:09Z</time>
      </trkpt>
      <trkpt lat="40.6324510" lon="-7.8049880">
        <ele>358.7</ele>
        <time>2019-06-10T05:34:10Z</time>
      </trkpt>
      <trkpt lat="40.6324370" lon="-7.8051280">
        <ele>358.0</ele>
        <time>2019-06-10T05:34:11Z</time>
      </trkpt>
      <trkpt lat="40.6324210" lon="-7.8052720">
        <ele>357.4</ele>
        <time>2019-06-10T05:34:12Z</time>
      </trkpt>
      <trkpt lat="40.6324170" lon="-7.8054230">
        <ele>356.8</ele>
        <time>2019-06-10T05:34:13Z</time>
      </trkpt>
      <trkpt lat="40.6324470" lon="-7.8055580">
        <ele>356.2</ele>
        <time>2019-06-10T05:34:14Z</time>
      </trkpt>
      <trkpt lat="40.6325410" lon="-7.8056900">
        <ele>355.5</ele>
        <time>2019-06-10T05:34:15Z</time>
      </trkpt>
      <trkpt lat="40.6326160" lon="-7.8057940">
        <ele>355.0</ele>
        <time>2019-06-10T05:34:16Z</time>
      </trkpt>
      <trkpt lat="40.6327830" lon="-7.8057750">
        <ele>354.4</ele>
        <time>2019-06-10T05:34:17Z</time>
      </trkpt>
      <trkpt lat="40.6330000" lon="-7.8058030">
        <ele>353.7</ele>
        <time>2019-06-10T05:34:19Z</time>
      </trkpt>
      <trkpt lat="40.6331080" lon="-7.8058320">
        <ele>353.2</ele>
        <time>2019-06-10T05:34:20Z</time>
      </trkpt>
      <trkpt lat="40.6332070" lon="-7.8058950">
        <ele>352.8</ele>
        <time>2019-06-10T05:34:21Z</time>
      </trkpt>
      <trkpt lat="40.6333080" lon="-7.8059780">
        <ele>352.3</ele>
        <time>2019-06-10T05:34:22Z</time>
      </trkpt>
      <trkpt lat="40.6333660" lon="-7.8060900">
        <ele>351.9</ele>
        <time>2019-06-10T05:34:23Z</time>
      </trkpt>
      <trkpt lat="40.6334270" lon="-7.8061930">
        <ele>351.5</ele>
        <time>2019-06-10T05:34:24Z</time>
      </trkpt>
      <trkpt lat="40.6334360" lon="-7.8063440">
        <ele>351.0</ele>
        <time>2019-06-10T05:34:25Z</time>
      </trkpt>
      <trkpt lat="40.6334150" lon="-7.8064790">
        <ele>350.5</ele>
        <time>2019-06-10T05:34:26Z</time>
      </trkpt>
      <trkpt lat="40.6334010" lon="-7.8066220">
        <ele>350.0</ele>
        <time>2019-06-10T05:34:27Z</time>
      </trkpt>
      <trkpt lat="40.6333860" lon="-7.8067670">
        <ele>349.5</ele>
        <time>2019-06-10T05:34:28Z</time>
      </trkpt>
      <trkpt lat="40.6333730" lon="-7.8069140">
        <ele>349.0</ele>
        <time>2019-06-10T05:34:29Z</time>
      </trkpt>
      <trkpt lat="40.6333590" lon="-7.8070580">
        <ele>348.5</ele>
        <time>2019-06-10T05:34:30Z</time>
      </trkpt>
      <trkpt lat="40.6333460" lon="-7.8072010">
        <ele>348.1</ele>
        <time>2019-06-10T05:34:31Z</time>
      </trkpt>
      <trkpt lat="40.6333410" lon="-7.8073490">
        <ele>347.6</ele>
        <time>2019-06-10T05:34:32Z</time>
      </trkpt>
      <trkpt lat="40.6333520" lon="-7.8075070">
        <ele>347.1</ele>
        <time>2019-06-10T05:34:33Z</time>
      </trkpt>
      <trkpt lat="40.6333690" lon="-7.8076600">
        <ele>346.5</ele>
        <time>2019-06-10T05:34:34Z</time>
      </trkpt>
      <trkpt lat="40.6334010" lon="-7.8078070">
        <ele>346.0</ele>
        <time>2019-06-10T05:34:35Z</time>
      </trkpt>
      <trkpt lat="40.6334500" lon="-7.8079480">
        <ele>345.4</ele>
        <time>2019-06-10T05:34:36Z</time>
      </trkpt>
      <trkpt lat="40.6335250" lon="-7.8080670">
        <ele>344.8</ele>
        <time>2019-06-10T05:34:37Z</time>
      </trkpt>
      <trkpt lat="40.6336260" lon="-7.8081680">
        <ele>344.1</ele>
        <time>2019-06-10T05:34:38Z</time>
      </trkpt>
      <trkpt lat="40.6337160" lon="-7.8082890">
        <ele>343.5</ele>
        <time>2019-06-10T05:34:39Z</time>
      </trkpt>
      <trkpt lat="40.6337940" lon="-7.8084070">
        <ele>342.9</ele>
        <time>2019-06-10T05:34:40Z</time>
      </trkpt>
      <trkpt lat="40.6338660" lon="-7.8085360">
        <ele>342.3</ele>
        <time>2019-06-10T05:34:41Z</time>
      </trkpt>
      <trkpt lat="40.6339240" lon="-7.8086760">
        <ele>341.7</ele>
        <time>2019-06-10T05:34:42Z</time>
      </trkpt>
      <trkpt lat="40.6339630" lon="-7.8088260">
        <ele>341.1</ele>
        <time>2019-06-10T05:34:43Z</time>
      </trkpt>
      <trkpt lat="40.6339870" lon="-7.8089700">
        <ele>340.5</ele>
        <time>2019-06-10T05:34:44Z</time>
      </trkpt>
      <trkpt lat="40.6339950" lon="-7.8091320">
        <ele>339.9</ele>
        <time>2019-06-10T05:34:45Z</time>
      </trkpt>
      <trkpt lat="40.6339650" lon="-7.8092800">
        <ele>339.3</ele>
        <time>2019-06-10T05:34:46Z</time>
      </trkpt>
      <trkpt lat="40.6339360" lon="-7.8094270">
        <ele>338.8</ele>
        <time>2019-06-10T05:34:47Z</time>
      </trkpt>
      <trkpt lat="40.6339090" lon="-7.8095780">
        <ele>338.3</ele>
        <time>2019-06-10T05:34:48Z</time>
      </trkpt>
      <trkpt lat="40.6338710" lon="-7.8097210">
        <ele>337.7</ele>
        <time>2019-06-10T05:34:49Z</time>
      </trkpt>
      <trkpt lat="40.6338240" lon="-7.8098640">
        <ele>337.2</ele>
        <time>2019-06-10T05:34:50Z</time>
      </trkpt>
      <trkpt lat="40.6337710" lon="-7.8100010">
        <ele>336.6</ele>
        <time>2019-06-10T05:34:51Z</time>
      </trkpt>
      <trkpt lat="40.6337060" lon="-7.8101460">
        <ele>336.0</ele>
        <time>2019-06-10T05:34:52Z</time>
      </trkpt>
      <trkpt lat="40.6336550" lon="-7.8102760">
        <ele>335.4</ele>
        <time>2019-06-10T05:34:53Z</time>
      </trkpt>
      <trkpt lat="40.6336100" lon="-7.8104100">
        <ele>334.9</ele>
        <time>2019-06-10T05:34:54Z</time>
      </trkpt>
      <trkpt lat="40.6336030" lon="-7.8105580">
        <ele>334.4</ele>
        <time>2019-06-10T05:34:55Z</time>
      </trkpt>
      <trkpt lat="40.6336030" lon="-7.8106930">
        <ele>334.0</ele>
        <time>2019-06-10T05:34:56Z</time>
      </trkpt>
      <trkpt lat="40.6336120" lon="-7.8108390">
        <ele>333.5</ele>
        <time>2019-06-10T05:34:57Z</time>
      </trkpt>
      <trkpt lat="40.6336370" lon="-7.8109680">
        <ele>333.0</ele>
        <time>2019-06-10T05:34:58Z</time>
      </trkpt>
      <trkpt lat="40.6336750" lon="-7.8111040">
        <ele>332.5</ele>
        <time>2019-06-10T05:34:59Z</time>
      </trkpt>
      <trkpt lat="40.6337200" lon="-7.8112310">
        <ele>332.0</ele>
        <time>2019-06-10T05:35:00Z</time>
      </trkpt>
      <trkpt lat="40.6337900" lon="-7.8113370">
        <ele>331.5</ele>
        <time>2019-06-10T05:35:01Z</time>
      </trkpt>
      <trkpt lat="40.6338410" lon="-7.8114610">
        <ele>331.0</ele>
        <time>2019-06-10T05:35:02Z</time>
      </trkpt>
      <trkpt lat="40.6338920" lon="-7.8115950">
        <ele>330.5</ele>
        <time>2019-06-10T05:35:03Z</time>
      </trkpt>
      <trkpt lat="40.6339590" lon="-7.8117400">
        <ele>329.8</ele>
        <time>2019-06-10T05:35:04Z</time>
      </trkpt>
      <trkpt lat="40.6340120" lon="-7.8118820">
        <ele>329.2</ele>
        <time>2019-06-10T05:35:05Z</time>
      </trkpt>
      <trkpt lat="40.6340460" lon="-7.8120320">
        <ele>328.6</ele>
        <time>2019-06-10T05:35:06Z</time>
      </trkpt>
      <trkpt lat="40.6340620" lon="-7.8121860">
        <ele>328.0</ele>
        <time>2019-06-10T05:35:07Z</time>
      </trkpt>
      <trkpt lat="40.6340660" lon="-7.8123310">
        <ele>327.5</ele>
        <time>2019-06-10T05:35:08Z</time>
      </trkpt>
      <trkpt lat="40.6340590" lon="-7.8124780">
        <ele>327.0</ele>
        <time>2019-06-10T05:35:09Z</time>
      </trkpt>
      <trkpt lat="40.6340560" lon="-7.8126270">
        <ele>326.4</ele>
        <time>2019-06-10T05:35:10Z</time>
      </trkpt>
      <trkpt lat="40.6340690" lon="-7.8127760">
        <ele>325.9</ele>
        <time>2019-06-10T05:35:11Z</time>
      </trkpt>
      <trkpt lat="40.6341050" lon="-7.8129050">
        <ele>325.3</ele>
        <time>2019-06-10T05:35:12Z</time>
      </trkpt>
      <trkpt lat="40.6341480" lon="-7.8130470">
        <ele>324.7</ele>
        <time>2019-06-10T05:35:13Z</time>
      </trkpt>
      <trkpt lat="40.6341960" lon="-7.8131910">
        <ele>324.0</ele>
        <time>2019-06-10T05:35:14Z</time>
      </trkpt>
      <trkpt lat="40.6342180" lon="-7.8133510">
        <ele>323.3</ele>
        <time>2019-06-10T05:35:15Z</time>
      </trkpt>
      <trkpt lat="40.6342370" lon="-7.8134960">
        <ele>322.7</ele>
        <time>2019-06-10T05:35:16Z</time>
      </trkpt>
      <trkpt lat="40.6341780" lon="-7.8136510">
        <ele>321.9</ele>
        <time>2019-06-10T05:35:17Z</time>
      </trkpt>
      <trkpt lat="40.6341560" lon="-7.8138000">
        <ele>321.3</ele>
        <time>2019-06-10T05:35:18Z</time>
      </trkpt>
      <trkpt lat="40.6341530" lon="-7.8139400">
        <ele>320.8</ele>
        <time>2019-06-10T05:35:19Z</time>
      </trkpt>
      <trkpt lat="40.6341840" lon="-7.8141140">
        <ele>320.1</ele>
        <time>2019-06-10T05:35:20Z</time>
      </trkpt>
      <trkpt lat="40.6342150" lon="-7.8142670">
        <ele>319.4</ele>
        <time>2019-06-10T05:35:21Z</time>
      </trkpt>
      <trkpt lat="40.6342620" lon="-7.8144160">
        <ele>318.7</ele>
        <time>2019-06-10T05:35:22Z</time>
      </trkpt>
      <trkpt lat="40.6343470" lon="-7.8145350">
        <ele>317.9</ele>
        <time>2019-06-10T05:35:23Z</time>
      </trkpt>
      <trkpt lat="40.6343900" lon="-7.8146900">
        <ele>317.2</ele>
        <time>2019-06-10T05:35:24Z</time>
      </trkpt>
      <trkpt lat="40.6344370" lon="-7.8148320">
        <ele>316.6</ele>
        <time>2019-06-10T05:35:25Z</time>
      </trkpt>
      <trkpt lat="40.6344560" lon="-7.8149800">
        <ele>316.0</ele>
        <time>2019-06-10T05:35:26Z</time>
      </trkpt>
      <trkpt lat="40.6344770" lon="-7.8151330">
        <ele>315.4</ele>
        <time>2019-06-10T05:35:27Z</time>
      </trkpt>
      <trkpt lat="40.6344810" lon="-7.8152930">
        <ele>314.7</ele>
        <time>2019-06-10T05:35:28Z</time>
      </trkpt>
      <trkpt lat="40.6344830" lon="-7.8154550">
        <ele>313.9</ele>
        <time>2019-06-10T05:35:29Z</time>
      </trkpt>
      <trkpt lat="40.6344880" lon="-7.8156170">
        <ele>313.3</ele>
        <time>2019-06-10T05:35:30Z</time>
      </trkpt>
      <trkpt lat="40.6344990" lon="-7.8157660">
        <ele>312.7</ele>
        <time>2019-06-10T05:35:31Z</time>
      </trkpt>
      <trkpt lat="40.6345180" lon="-7.8159340">
        <ele>312.0</ele>
        <time>2019-06-10T05:35:32Z</time>
      </trkpt>
      <trkpt lat="40.6345280" lon="-7.8160990">
        <ele>311.3</ele>
        <time>2019-06-10T05:35:33Z</time>
      </trkpt>
      <trkpt lat="40.6345270" lon="-7.8162710">
        <ele>310.6</ele>
        <time>2019-06-10T05:35:34Z</time>
      </trkpt>
      <trkpt lat="40.6345280" lon="-7.8164230">
        <ele>309.9</ele>
        <time>2019-06-10T05:35:35Z</time>
      </trkpt>
      <trkpt lat="40.6345270" lon="-7.8165880">
        <ele>309.3</ele>
        <time>2019-06-10T05:35:36Z</time>
      </trkpt>
      <trkpt lat="40.6345210" lon="-7.8167520">
        <ele>308.6</ele>
        <time>2019-06-10T05:35:37Z</time>
      </trkpt>
      <trkpt lat="40.6345220" lon="-7.8169060">
        <ele>308.0</ele>
        <time>2019-06-10T05:35:38Z</time>
      </trkpt>
      <trkpt lat="40.6345160" lon="-7.8170730">
        <ele>307.3</ele>
        <time>2019-06-10T05:35:39Z</time>
      </trkpt>
      <trkpt lat="40.6345100" lon="-7.8172370">
        <ele>306.7</ele>
        <time>2019-06-10T05:35:40Z</time>
      </trkpt>
      <trkpt lat="40.6345020" lon="-7.8173980">
        <ele>306.0</ele>
        <time>2019-06-10T05:35:41Z</time>
      </trkpt>
      <trkpt lat="40.6344940" lon="-7.8175570">
        <ele>305.3</ele>
        <time>2019-06-10T05:35:42Z</time>
      </trkpt>
      <trkpt lat="40.6344730" lon="-7.8177160">
        <ele>304.7</ele>
        <time>2019-06-10T05:35:43Z</time>
      </trkpt>
      <trkpt lat="40.6344550" lon="-7.8178680">
        <ele>304.0</ele>
        <time>2019-06-10T05:35:44Z</time>
      </trkpt>
      <trkpt lat="40.6344380" lon="-7.8180240">
        <ele>303.5</ele>
        <time>2019-06-10T05:35:45Z</time>
      </trkpt>
      <trkpt lat="40.6344180" lon="-7.8181740">
        <ele>303.0</ele>
        <time>2019-06-10T05:35:46Z</time>
      </trkpt>
      <trkpt lat="40.6343830" lon="-7.8183260">
        <ele>302.5</ele>
        <time>2019-06-10T05:35:47Z</time>
      </trkpt>
      <trkpt lat="40.6343510" lon="-7.8184690">
        <ele>302.1</ele>
        <time>2019-06-10T05:35:48Z</time>
      </trkpt>
      <trkpt lat="40.6343220" lon="-7.8186120">
        <ele>301.7</ele>
        <time>2019-06-10T05:35:49Z</time>
      </trkpt>
      <trkpt lat="40.6342910" lon="-7.8187470">
        <ele>301.3</ele>
        <time>2019-06-10T05:35:50Z</time>
      </trkpt>
      <trkpt lat="40.6342580" lon="-7.8188950">
        <ele>300.9</ele>
        <time>2019-06-10T05:35:51Z</time>
      </trkpt>
      <trkpt lat="40.6342190" lon="-7.8190310">
        <ele>300.5</ele>
        <time>2019-06-10T05:35:52Z</time>
      </trkpt>
      <trkpt lat="40.6341820" lon="-7.8191760">
        <ele>300.0</ele>
        <time>2019-06-10T05:35:53Z</time>
      </trkpt>
      <trkpt lat="40.6341390" lon="-7.8193220">
        <ele>299.4</ele>
        <time>2019-06-10T05:35:54Z</time>
      </trkpt>
      <trkpt lat="40.6340980" lon="-7.8194660">
        <ele>298.8</ele>
        <time>2019-06-10T05:35:55Z</time>
      </trkpt>
      <trkpt lat="40.6340540" lon="-7.8196090">
        <ele>298.2</ele>
        <time>2019-06-10T05:35:56Z</time>
      </trkpt>
      <trkpt lat="40.6340120" lon="-7.8197460">
        <ele>297.7</ele>
        <time>2019-06-10T05:35:57Z</time>
      </trkpt>
      <trkpt lat="40.6339700" lon="-7.8198760">
        <ele>297.3</ele>
        <time>2019-06-10T05:35:58Z</time>
      </trkpt>
      <trkpt lat="40.6339360" lon="-7.8201390">
        <ele>296.7</ele>
        <time>2019-06-10T05:36:00Z</time>
      </trkpt>
      <trkpt lat="40.6339660" lon="-7.8202430">
        <ele>296.5</ele>
        <time>2019-06-10T05:36:01Z</time>
      </trkpt>
      <trkpt lat="40.6340000" lon="-7.8203530">
        <ele>296.2</ele>
        <time>2019-06-10T05:36:02Z</time>
      </trkpt>
      <trkpt lat="40.6340520" lon="-7.8204300">
        <ele>295.8</ele>
        <time>2019-06-10T05:36:03Z</time>
      </trkpt>
      <trkpt lat="40.6341800" lon="-7.8204330">
        <ele>295.0</ele>
        <time>2019-06-10T05:36:04Z</time>
      </trkpt>
      <trkpt lat="40.6342820" lon="-7.8204240">
        <ele>295.3</ele>
        <time>2019-06-10T05:36:05Z</time>
      </trkpt>
      <trkpt lat="40.6343720" lon="-7.8203920">
        <ele>295.9</ele>
        <time>2019-06-10T05:36:06Z</time>
      </trkpt>
      <trkpt lat="40.6344530" lon="-7.8203600">
        <ele>296.5</ele>
        <time>2019-06-10T05:36:07Z</time>
      </trkpt>
      <trkpt lat="40.6345340" lon="-7.8203350">
        <ele>297.0</ele>
        <time>2019-06-10T05:36:08Z</time>
      </trkpt>
      <trkpt lat="40.6346970" lon="-7.8202940">
        <ele>298.0</ele>
        <time>2019-06-10T05:36:10Z</time>
      </trkpt>
      <trkpt lat="40.6347770" lon="-7.8203000">
        <ele>297.7</ele>
        <time>2019-06-10T05:36:11Z</time>
      </trkpt>
      <trkpt lat="40.6349110" lon="-7.8203710">
        <ele>297.3</ele>
        <time>2019-06-10T05:36:13Z</time>
      </trkpt>
      <trkpt lat="40.6350370" lon="-7.8205810">
        <ele>297.0</ele>
        <time>2019-06-10T05:36:16Z</time>
      </trkpt>
      <trkpt lat="40.6350350" lon="-7.8208380">
        <ele>297.1</ele>
        <time>2019-06-10T05:36:19Z</time>
      </trkpt>
      <trkpt lat="40.6350320" lon="-7.8209230">
        <ele>297.1</ele>
        <time>2019-06-10T05:36:20Z</time>
      </trkpt>
      <trkpt lat="40.6350310" lon="-7.8210020">
        <ele>297.2</ele>
        <time>2019-06-10T05:36:21Z</time>
      </trkpt>
      <trkpt lat="40.6350270" lon="-7.8210860">
        <ele>297.3</ele>
        <time>2019-06-10T05:36:22Z</time>
      </trkpt>
      <trkpt lat="40.6350240" lon="-7.8211630">
        <ele>297.4</ele>
        <time>2019-06-10T05:36:23Z</time>
      </trkpt>
      <trkpt lat="40.6350270" lon="-7.8212460">
        <ele>297.7</ele>
        <time>2019-06-10T05:36:24Z</time>
      </trkpt>
      <trkpt lat="40.6350270" lon="-7.8213170">
        <ele>297.9</ele>
        <time>2019-06-10T05:36:25Z</time>
      </trkpt>
      <trkpt lat="40.6350230" lon="-7.8213870">
        <ele>298.1</ele>
        <time>2019-06-10T05:36:26Z</time>
      </trkpt>
      <trkpt lat="40.6350190" lon="-7.8214560">
        <ele>298.4</ele>
        <time>2019-06-10T05:36:27Z</time>
      </trkpt>
      <trkpt lat="40.6350150" lon="-7.8215220">
        <ele>298.7</ele>
        <time>2019-06-10T05:36:28Z</time>
      </trkpt>
      <trkpt lat="40.6350070" lon="-7.8215890">
        <ele>299.0</ele>
        <time>2019-06-10T05:36:29Z</time>
      </trkpt>
      <trkpt lat="40.6349990" lon="-7.8216520">
        <ele>299.3</ele>
        <time>2019-06-10T05:36:30Z</time>
      </trkpt>
      <trkpt lat="40.6349960" lon="-7.8217110">
        <ele>299.6</ele>
        <time>2019-06-10T05:36:31Z</time>
      </trkpt>
      <trkpt lat="40.6349940" lon="-7.8217770">
        <ele>299.9</ele>
        <time>2019-06-10T05:36:32Z</time>
      </trkpt>
      <trkpt lat="40.6349900" lon="-7.8218340">
        <ele>300.2</ele>
        <time>2019-06-10T05:36:33Z</time>
      </trkpt>
      <trkpt lat="40.6349850" lon="-7.8218920">
        <ele>300.5</ele>
        <time>2019-06-10T05:36:34Z</time>
      </trkpt>
      <trkpt lat="40.6349800" lon="-7.8219450">
        <ele>300.8</ele>
        <time>2019-06-10T05:36:35Z</time>
      </trkpt>
      <trkpt lat="40.6349490" lon="-7.8221040">
        <ele>301.4</ele>
        <time>2019-06-10T05:36:38Z</time>
      </trkpt>
      <trkpt lat="40.6349330" lon="-7.8221520">
        <ele>301.4</ele>
        <time>2019-06-10T05:36:39Z</time>
      </trkpt>
      <trkpt lat="40.6349200" lon="-7.8221960">
        <ele>301.4</ele>
        <time>2019-06-10T05:36:40Z</time>
      </trkpt>
      <trkpt lat="40.6349060" lon="-7.8222370">
        <ele>301.5</ele>
        <time>2019-06-10T05:36:41Z</time>
      </trkpt>
      <trkpt lat="40.6348900" lon="-7.8222770">
        <ele>301.5</ele>
        <time>2019-06-10T05:36:42Z</time>
      </trkpt>
      <trkpt lat="40.6347790" lon="-7.8225650">
        <ele>301.5</ele>
        <time>2019-06-10T05:36:49Z</time>
      </trkpt>
      <trkpt lat="40.6347600" lon="-7.8226050">
        <ele>301.5</ele>
        <time>2019-06-10T05:36:50Z</time>
      </trkpt>
      <trkpt lat="40.6346380" lon="-7.8228960">
        <ele>301.5</ele>
        <time>2019-06-10T05:36:58Z</time>
      </trkpt>
      <trkpt lat="40.6345250" lon="-7.8231910">
        <ele>301.2</ele>
        <time>2019-06-10T05:37:06Z</time>
      </trkpt>
      <trkpt lat="40.6343770" lon="-7.8235550">
        <ele>299.9</ele>
        <time>2019-06-10T05:37:13Z</time>
      </trkpt>
      <trkpt lat="40.6343570" lon="-7.8236270">
        <ele>299.6</ele>
        <time>2019-06-10T05:37:14Z</time>
      </trkpt>
      <trkpt lat="40.6343400" lon="-7.8237030">
        <ele>299.4</ele>
        <time>2019-06-10T05:37:15Z</time>
      </trkpt>
      <trkpt lat="40.6343300" lon="-7.8237830">
        <ele>299.2</ele>
        <time>2019-06-10T05:37:16Z</time>
      </trkpt>
      <trkpt lat="40.6343230" lon="-7.8238710">
        <ele>299.0</ele>
        <time>2019-06-10T05:37:17Z</time>
      </trkpt>
      <trkpt lat="40.6343270" lon="-7.8239590">
        <ele>298.7</ele>
        <time>2019-06-10T05:37:18Z</time>
      </trkpt>
      <trkpt lat="40.6343710" lon="-7.8241320">
        <ele>298.2</ele>
        <time>2019-06-10T05:37:20Z</time>
      </trkpt>
      <trkpt lat="40.6344080" lon="-7.8242130">
        <ele>297.9</ele>
        <time>2019-06-10T05:37:21Z</time>
      </trkpt>
      <trkpt lat="40.6344570" lon="-7.8242840">
        <ele>297.5</ele>
        <time>2019-06-10T05:37:22Z</time>
      </trkpt>
      <trkpt lat="40.6345190" lon="-7.8243400">
        <ele>297.1</ele>
        <time>2019-06-10T05:37:23Z</time>
      </trkpt>
      <trkpt lat="40.6345860" lon="-7.8243840">
        <ele>296.7</ele>
        <time>2019-06-10T05:37:24Z</time>
      </trkpt>
      <trkpt lat="40.6347240" lon="-7.8244530">
        <ele>295.9</ele>
        <time>2019-06-10T05:37:26Z</time>
      </trkpt>
      <trkpt lat="40.6347930" lon="-7.8244860">
        <ele>295.5</ele>
        <time>2019-06-10T05:37:27Z</time>
      </trkpt>
      <trkpt lat="40.6348610" lon="-7.8245190">
        <ele>295.1</ele>
        <time>2019-06-10T05:37:28Z</time>
      </trkpt>
      <trkpt lat="40.6349300" lon="-7.8245510">
        <ele>294.8</ele>
        <time>2019-06-10T05:37:29Z</time>
      </trkpt>
      <trkpt lat="40.6350010" lon="-7.8245850">
        <ele>294.3</ele>
        <time>2019-06-10T05:37:30Z</time>
      </trkpt>
      <trkpt lat="40.6350700" lon="-7.8246230">
        <ele>294.0</ele>
        <time>2019-06-10T05:37:31Z</time>
      </trkpt>
      <trkpt lat="40.6352080" lon="-7.8247200">
        <ele>293.2</ele>
        <time>2019-06-10T05:37:33Z</time>
      </trkpt>
      <trkpt lat="40.6352700" lon="-7.8247830">
        <ele>292.9</ele>
        <time>2019-06-10T05:37:34Z</time>
      </trkpt>
      <trkpt lat="40.6353240" lon="-7.8248580">
        <ele>292.5</ele>
        <time>2019-06-10T05:37:35Z</time>
      </trkpt>
      <trkpt lat="40.6353740" lon="-7.8249460">
        <ele>292.2</ele>
        <time>2019-06-10T05:37:36Z</time>
      </trkpt>
      <trkpt lat="40.6354170" lon="-7.8250400">
        <ele>291.8</ele>
        <time>2019-06-10T05:37:37Z</time>
      </trkpt>
      <trkpt lat="40.6354600" lon="-7.8251420">
        <ele>291.4</ele>
        <time>2019-06-10T05:37:38Z</time>
      </trkpt>
      <trkpt lat="40.6355030" lon="-7.8252400">
        <ele>291.0</ele>
        <time>2019-06-10T05:37:39Z</time>
      </trkpt>
      <trkpt lat="40.6355480" lon="-7.8253450">
        <ele>290.6</ele>
        <time>2019-06-10T05:37:40Z</time>
      </trkpt>
      <trkpt lat="40.6355940" lon="-7.8254480">
        <ele>290.2</ele>
        <time>2019-06-10T05:37:41Z</time>
      </trkpt>
      <trkpt lat="40.6356400" lon="-7.8255520">
        <ele>289.8</ele>
        <time>2019-06-10T05:37:42Z</time>
      </trkpt>
      <trkpt lat="40.6356860" lon="-7.8256540">
        <ele>289.4</ele>
        <time>2019-06-10T05:37:43Z</time>
      </trkpt>
      <trkpt lat="40.6357330" lon="-7.8257610">
        <ele>289.0</ele>
        <time>2019-06-10T05:37:44Z</time>
      </trkpt>
      <trkpt lat="40.6357780" lon="-7.8258660">
        <ele>288.7</ele>
        <time>2019-06-10T05:37:45Z</time>
      </trkpt>
      <trkpt lat="40.6358250" lon="-7.8259720">
        <ele>288.4</ele>
        <time>2019-06-10T05:37:46Z</time>
      </trkpt>
      <trkpt lat="40.6358700" lon="-7.8260740">
        <ele>288.1</ele>
        <time>2019-06-10T05:37:47Z</time>
      </trkpt>
      <trkpt lat="40.6359190" lon="-7.8261820">
        <ele>287.9</ele>
        <time>2019-06-10T05:37:48Z</time>
      </trkpt>
      <trkpt lat="40.6359680" lon="-7.8262840">
        <ele>287.7</ele>
        <time>2019-06-10T05:37:49Z</time>
      </trkpt>
      <trkpt lat="40.6360210" lon="-7.8263890">
        <ele>287.4</ele>
        <time>2019-06-10T05:37:50Z</time>
      </trkpt>
      <trkpt lat="40.6361170" lon="-7.8265990">
        <ele>286.7</ele>
        <time>2019-06-10T05:37:52Z</time>
      </trkpt>
      <trkpt lat="40.6361590" lon="-7.8267010">
        <ele>286.4</ele>
        <time>2019-06-10T05:37:53Z</time>
      </trkpt>
      <trkpt lat="40.6361990" lon="-7.8268020">
        <ele>286.2</ele>
        <time>2019-06-10T05:37:54Z</time>
      </trkpt>
      <trkpt lat="40.6362330" lon="-7.8269010">
        <ele>286.0</ele>
        <time>2019-06-10T05:37:55Z</time>
      </trkpt>
      <trkpt lat="40.6362560" lon="-7.8270010">
        <ele>285.9</ele>
        <time>2019-06-10T05:37:56Z</time>
      </trkpt>
      <trkpt lat="40.6362700" lon="-7.8270990">
        <ele>285.8</ele>
        <time>2019-06-10T05:37:57Z</time>
      </trkpt>
      <trkpt lat="40.6363160" lon="-7.8277050">
        <ele>285.5</ele>
        <time>2019-06-10T05:38:03Z</time>
      </trkpt>
      <trkpt lat="40.6362680" lon="-7.8281650">
        <ele>285.5</ele>
        <time>2019-06-10T05:38:08Z</time>
      </trkpt>
      <trkpt lat="40.6362430" lon="-7.8282560">
        <ele>285.5</ele>
        <time>2019-06-10T05:38:09Z</time>
      </trkpt>
      <trkpt lat="40.6361750" lon="-7.8284340">
        <ele>285.6</ele>
        <time>2019-06-10T05:38:11Z</time>
      </trkpt>
      <trkpt lat="40.6360940" lon="-7.8286010">
        <ele>285.7</ele>
        <time>2019-06-10T05:38:13Z</time>
      </trkpt>
      <trkpt lat="40.6359890" lon="-7.8288350">
        <ele>286.2</ele>
        <time>2019-06-10T05:38:16Z</time>
      </trkpt>
      <trkpt lat="40.6359140" lon="-7.8290460">
        <ele>286.9</ele>
        <time>2019-06-10T05:38:19Z</time>
      </trkpt>
      <trkpt lat="40.6357880" lon="-7.8293780">
        <ele>288.6</ele>
        <time>2019-06-10T05:38:25Z</time>
      </trkpt>
      <trkpt lat="40.6357760" lon="-7.8294330">
        <ele>288.8</ele>
        <time>2019-06-10T05:38:26Z</time>
      </trkpt>
      <trkpt lat="40.6357660" lon="-7.8294910">
        <ele>289.1</ele>
        <time>2019-06-10T05:38:27Z</time>
      </trkpt>
      <trkpt lat="40.6357570" lon="-7.8295450">
        <ele>289.5</ele>
        <time>2019-06-10T05:38:28Z</time>
      </trkpt>
      <trkpt lat="40.6357440" lon="-7.8296490">
        <ele>290.1</ele>
        <time>2019-06-10T05:38:30Z</time>
      </trkpt>
      <trkpt lat="40.6357410" lon="-7.8296990">
        <ele>290.4</ele>
        <time>2019-06-10T05:38:31Z</time>
      </trkpt>
      <trkpt lat="40.6357350" lon="-7.8297520">
        <ele>290.7</ele>
        <time>2019-06-10T05:38:32Z</time>
      </trkpt>
      <trkpt lat="40.6357070" lon="-7.8300010">
        <ele>292.1</ele>
        <time>2019-06-10T05:38:37Z</time>
      </trkpt>
      <trkpt lat="40.6357000" lon="-7.8300490">
        <ele>292.3</ele>
        <time>2019-06-10T05:38:38Z</time>
      </trkpt>
      <trkpt lat="40.6356930" lon="-7.8300990">
        <ele>292.5</ele>
        <time>2019-06-10T05:38:39Z</time>
      </trkpt>
      <trkpt lat="40.6356870" lon="-7.8301500">
        <ele>292.7</ele>
        <time>2019-06-10T05:38:40Z</time>
      </trkpt>
      <trkpt lat="40.6356800" lon="-7.8302000">
        <ele>292.9</ele>
        <time>2019-06-10T05:38:41Z</time>
      </trkpt>
      <trkpt lat="40.6356500" lon="-7.8304470">
        <ele>293.9</ele>
        <time>2019-06-10T05:38:46Z</time>
      </trkpt>
      <trkpt lat="40.6356420" lon="-7.8304960">
        <ele>294.1</ele>
        <time>2019-06-10T05:38:47Z</time>
      </trkpt>
      <trkpt lat="40.6356340" lon="-7.8305430">
        <ele>294.2</ele>
        <time>2019-06-10T05:38:48Z</time>
      </trkpt>
      <trkpt lat="40.6356280" lon="-7.8305900">
        <ele>294.4</ele>
        <time>2019-06-10T05:38:49Z</time>
      </trkpt>
      <trkpt lat="40.6356240" lon="-7.8306400">
        <ele>294.6</ele>
        <time>2019-06-10T05:38:50Z</time>
      </trkpt>
      <trkpt lat="40.6355940" lon="-7.8308610">
        <ele>295.5</ele>
        <time>2019-06-10T05:38:55Z</time>
      </trkpt>
      <trkpt lat="40.6355910" lon="-7.8309030">
        <ele>295.7</ele>
        <time>2019-06-10T05:38:56Z</time>
      </trkpt>
      <trkpt lat="40.6355890" lon="-7.8309470">
        <ele>295.8</ele>
        <time>2019-06-10T05:38:57Z</time>
      </trkpt>
      <trkpt lat="40.6355870" lon="-7.8309900">
        <ele>296.0</ele>
        <time>2019-06-10T05:38:58Z</time>
      </trkpt>
      <trkpt lat="40.6355850" lon="-7.8310340">
        <ele>296.2</ele>
        <time>2019-06-10T05:38:59Z</time>
      </trkpt>
      <trkpt lat="40.6355850" lon="-7.8312540">
        <ele>297.0</ele>
        <time>2019-06-10T05:39:05Z</time>
      </trkpt>
      <trkpt lat="40.6355930" lon="-7.8312920">
        <ele>297.1</ele>
        <time>2019-06-10T05:39:06Z</time>
      </trkpt>
      <trkpt lat="40.6356000" lon="-7.8313280">
        <ele>297.2</ele>
        <time>2019-06-10T05:39:07Z</time>
      </trkpt>
      <trkpt lat="40.6356070" lon="-7.8313610">
        <ele>297.4</ele>
        <time>2019-06-10T05:39:08Z</time>
      </trkpt>
      <trkpt lat="40.6356140" lon="-7.8313920">
        <ele>297.5</ele>
        <time>2019-06-10T05:39:09Z</time>
      </trkpt>
      <trkpt lat="40.6356250" lon="-7.8314290">
        <ele>297.6</ele>
        <time>2019-06-10T05:39:10Z</time>
      </trkpt>
      <trkpt lat="40.6356570" lon="-7.8314970">
        <ele>297.8</ele>
        <time>2019-06-10T05:39:12Z</time>
      </trkpt>
      <trkpt lat="40.6357520" lon="-7.8316360">
        <ele>298.5</ele>
        <time>2019-06-10T05:39:17Z</time>
      </trkpt>
      <trkpt lat="40.6357720" lon="-7.8316660">
        <ele>298.6</ele>
        <time>2019-06-10T05:39:18Z</time>
      </trkpt>
      <trkpt lat="40.6357940" lon="-7.8316950">
        <ele>298.8</ele>
        <time>2019-06-10T05:39:19Z</time>
      </trkpt>
      <trkpt lat="40.6358170" lon="-7.8317220">
        <ele>298.9</ele>
        <time>2019-06-10T05:39:20Z</time>
      </trkpt>
      <trkpt lat="40.6358400" lon="-7.8317490">
        <ele>299.1</ele>
        <time>2019-06-10T05:39:21Z</time>
      </trkpt>
      <trkpt lat="40.6360370" lon="-7.8319790">
        <ele>300.5</ele>
        <time>2019-06-10T05:39:29Z</time>
      </trkpt>
      <trkpt lat="40.6360620" lon="-7.8320050">
        <ele>300.6</ele>
        <time>2019-06-10T05:39:30Z</time>
      </trkpt>
      <trkpt lat="40.6360900" lon="-7.8320320">
        <ele>300.8</ele>
        <time>2019-06-10T05:39:31Z</time>
      </trkpt>
      <trkpt lat="40.6361220" lon="-7.8320590">
        <ele>301.0</ele>
        <time>2019-06-10T05:39:32Z</time>
      </trkpt>
      <trkpt lat="40.6361560" lon="-7.8320810">
        <ele>301.2</ele>
        <time>2019-06-10T05:39:33Z</time>
      </trkpt>
      <trkpt lat="40.6362530" lon="-7.8321110">
        <ele>301.7</ele>
        <time>2019-06-10T05:39:36Z</time>
      </trkpt>
      <trkpt lat="40.6364860" lon="-7.8321040">
        <ele>303.0</ele>
        <time>2019-06-10T05:39:43Z</time>
      </trkpt>
      <trkpt lat="40.6365180" lon="-7.8321010">
        <ele>303.2</ele>
        <time>2019-06-10T05:39:44Z</time>
      </trkpt>
      <trkpt lat="40.6365460" lon="-7.8320970">
        <ele>303.3</ele>
        <time>2019-06-10T05:39:45Z</time>
      </trkpt>
      <trkpt lat="40.6365770" lon="-7.8320910">
        <ele>303.5</ele>
        <time>2019-06-10T05:39:46Z</time>
      </trkpt>
      <trkpt lat="40.6366100" lon="-7.8320880">
        <ele>303.7</ele>
        <time>2019-06-10T05:39:47Z</time>
      </trkpt>
      <trkpt lat="40.6367590" lon="-7.8320760">
        <ele>304.7</ele>
        <time>2019-06-10T05:39:52Z</time>
      </trkpt>
      <trkpt lat="40.6367890" lon="-7.8320770">
        <ele>304.9</ele>
        <time>2019-06-10T05:39:53Z</time>
      </trkpt>
      <trkpt lat="40.6368180" lon="-7.8320760">
        <ele>305.1</ele>
        <time>2019-06-10T05:39:54Z</time>
      </trkpt>
      <trkpt lat="40.6368430" lon="-7.8320760">
        <ele>305.3</ele>
        <time>2019-06-10T05:39:55Z</time>
      </trkpt>
      <trkpt lat="40.6368700" lon="-7.8320790">
        <ele>305.5</ele>
        <time>2019-06-10T05:39:56Z</time>
      </trkpt>
      <trkpt lat="40.6370120" lon="-7.8321380">
        <ele>306.5</ele>
        <time>2019-06-10T05:40:01Z</time>
      </trkpt>
      <trkpt lat="40.6370420" lon="-7.8321550">
        <ele>306.7</ele>
        <time>2019-06-10T05:40:02Z</time>
      </trkpt>
      <trkpt lat="40.6370690" lon="-7.8321730">
        <ele>306.9</ele>
        <time>2019-06-10T05:40:03Z</time>
      </trkpt>
      <trkpt lat="40.6370940" lon="-7.8321940">
        <ele>307.1</ele>
        <time>2019-06-10T05:40:04Z</time>
      </trkpt>
      <trkpt lat="40.6371160" lon="-7.8322160">
        <ele>307.3</ele>
        <time>2019-06-10T05:40:05Z</time>
      </trkpt>
      <trkpt lat="40.6371380" lon="-7.8322360">
        <ele>307.4</ele>
        <time>2019-06-10T05:40:06Z</time>
      </trkpt>
      <trkpt lat="40.6372060" lon="-7.8323080">
        <ele>308.0</ele>
        <time>2019-06-10T05:40:09Z</time>
      </trkpt>
      <trkpt lat="40.6373470" lon="-7.8324630">
        <ele>309.1</ele>
        <time>2019-06-10T05:40:15Z</time>
      </trkpt>
      <trkpt lat="40.6373690" lon="-7.8324890">
        <ele>309.3</ele>
        <time>2019-06-10T05:40:16Z</time>
      </trkpt>
      <trkpt lat="40.6373920" lon="-7.8325150">
        <ele>309.5</ele>
        <time>2019-06-10T05:40:17Z</time>
      </trkpt>
      <trkpt lat="40.6374150" lon="-7.8325400">
        <ele>309.6</ele>
        <time>2019-06-10T05:40:18Z</time>
      </trkpt>
      <trkpt lat="40.6374380" lon="-7.8325680">
        <ele>309.8</ele>
        <time>2019-06-10T05:40:19Z</time>
      </trkpt>
      <trkpt lat="40.6376600" lon="-7.8328220">
        <ele>311.2</ele>
        <time>2019-06-10T05:40:29Z</time>
      </trkpt>
      <trkpt lat="40.6377010" lon="-7.8328690">
        <ele>311.5</ele>
        <time>2019-06-10T05:40:31Z</time>
      </trkpt>
      <trkpt lat="40.6377230" lon="-7.8328920">
        <ele>311.7</ele>
        <time>2019-06-10T05:40:32Z</time>
      </trkpt>
      <trkpt lat="40.6377460" lon="-7.8329190">
        <ele>311.8</ele>
        <time>2019-06-10T05:40:33Z</time>
      </trkpt>
      <trkpt lat="40.6377680" lon="-7.8329470">
        <ele>312.0</ele>
        <time>2019-06-10T05:40:34Z</time>
      </trkpt>
      <trkpt lat="40.6377920" lon="-7.8329710">
        <ele>312.1</ele>
        <time>2019-06-10T05:40:35Z</time>
      </trkpt>
      <trkpt lat="40.6378360" lon="-7.8330150">
        <ele>312.4</ele>
        <time>2019-06-10T05:40:37Z</time>
      </trkpt>
      <trkpt lat="40.6380210" lon="-7.8331630">
        <ele>313.5</ele>
        <time>2019-06-10T05:40:45Z</time>
      </trkpt>
      <trkpt lat="40.6380410" lon="-7.8331750">
        <ele>313.7</ele>
        <time>2019-06-10T05:40:46Z</time>
      </trkpt>
      <trkpt lat="40.6380640" lon="-7.8331850">
        <ele>313.8</ele>
        <time>2019-06-10T05:40:47Z</time>
      </trkpt>
      <trkpt lat="40.6380880" lon="-7.8331960">
        <ele>313.9</ele>
        <time>2019-06-10T05:40:48Z</time>
      </trkpt>
      <trkpt lat="40.6381130" lon="-7.8332050">
        <ele>314.0</ele>
        <time>2019-06-10T05:40:49Z</time>
      </trkpt>
      <trkpt lat="40.6382260" lon="-7.8332340">
        <ele>314.6</ele>
        <time>2019-06-10T05:40:53Z</time>
      </trkpt>
      <trkpt lat="40.6383060" lon="-7.8332550">
        <ele>314.9</ele>
        <time>2019-06-10T05:40:56Z</time>
      </trkpt>
      <trkpt lat="40.6383310" lon="-7.8332620">
        <ele>315.0</ele>
        <time>2019-06-10T05:40:57Z</time>
      </trkpt>
      <trkpt lat="40.6383580" lon="-7.8332670">
        <ele>315.2</ele>
        <time>2019-06-10T05:40:58Z</time>
      </trkpt>
      <trkpt lat="40.6383880" lon="-7.8332710">
        <ele>315.3</ele>
        <time>2019-06-10T05:40:59Z</time>
      </trkpt>
      <trkpt lat="40.6384140" lon="-7.8332750">
        <ele>315.4</ele>
        <time>2019-06-10T05:41:00Z</time>
      </trkpt>
      <trkpt lat="40.6384430" lon="-7.8332820">
        <ele>315.6</ele>
        <time>2019-06-10T05:41:01Z</time>
      </trkpt>
      <trkpt lat="40.6387150" lon="-7.8333530">
        <ele>316.8</ele>
        <time>2019-06-10T05:41:10Z</time>
      </trkpt>
      <trkpt lat="40.6387460" lon="-7.8333600">
        <ele>317.0</ele>
        <time>2019-06-10T05:41:11Z</time>
      </trkpt>
      <trkpt lat="40.6387760" lon="-7.8333680">
        <ele>317.1</ele>
        <time>2019-06-10T05:41:12Z</time>
      </trkpt>
      <trkpt lat="40.6388060" lon="-7.8333770">
        <ele>317.3</ele>
        <time>2019-06-10T05:41:13Z</time>
      </trkpt>
      <trkpt lat="40.6388380" lon="-7.8333830">
        <ele>317.4</ele>
        <time>2019-06-10T05:41:14Z</time>
      </trkpt>
      <trkpt lat="40.6390210" lon="-7.8334250">
        <ele>318.2</ele>
        <time>2019-06-10T05:41:20Z</time>
      </trkpt>
      <trkpt lat="40.6390490" lon="-7.8334300">
        <ele>318.4</ele>
        <time>2019-06-10T05:41:21Z</time>
      </trkpt>
      <trkpt lat="40.6390760" lon="-7.8334350">
        <ele>318.5</ele>
        <time>2019-06-10T05:41:22Z</time>
      </trkpt>
      <trkpt lat="40.6391040" lon="-7.8334400">
        <ele>318.6</ele>
        <time>2019-06-10T05:41:23Z</time>
      </trkpt>
      <trkpt lat="40.6391330" lon="-7.8334470">
        <ele>318.7</ele>
        <time>2019-06-10T05:41:24Z</time>
      </trkpt>
      <trkpt lat="40.6392370" lon="-7.8334700">
        <ele>319.1</ele>
        <time>2019-06-10T05:41:28Z</time>
      </trkpt>
      <trkpt lat="40.6394420" lon="-7.8335230">
        <ele>319.9</ele>
        <time>2019-06-10T05:41:35Z</time>
      </trkpt>
      <trkpt lat="40.6395990" lon="-7.8335500">
        <ele>320.5</ele>
        <time>2019-06-10T05:41:40Z</time>
      </trkpt>
      <trkpt lat="40.6396290" lon="-7.8335550">
        <ele>320.7</ele>
        <time>2019-06-10T05:41:41Z</time>
      </trkpt>
      <trkpt lat="40.6396600" lon="-7.8335620">
        <ele>320.8</ele>
        <time>2019-06-10T05:41:42Z</time>
      </trkpt>
      <trkpt lat="40.6396930" lon="-7.8335690">
        <ele>320.9</ele>
        <time>2019-06-10T05:41:43Z</time>
      </trkpt>
      <trkpt lat="40.6397290" lon="-7.8335750">
        <ele>321.0</ele>
        <time>2019-06-10T05:41:44Z</time>
      </trkpt>
      <trkpt lat="40.6399440" lon="-7.8336250">
        <ele>321.8</ele>
        <time>2019-06-10T05:41:51Z</time>
      </trkpt>
      <trkpt lat="40.6400060" lon="-7.8336470">
        <ele>322.1</ele>
        <time>2019-06-10T05:41:53Z</time>
      </trkpt>
      <trkpt lat="40.6400360" lon="-7.8336610">
        <ele>322.2</ele>
        <time>2019-06-10T05:41:54Z</time>
      </trkpt>
      <trkpt lat="40.6400670" lon="-7.8336770">
        <ele>322.4</ele>
        <time>2019-06-10T05:41:55Z</time>
      </trkpt>
      <trkpt lat="40.6400970" lon="-7.8336900">
        <ele>322.5</ele>
        <time>2019-06-10T05:41:56Z</time>
      </trkpt>
      <trkpt lat="40.6401270" lon="-7.8337070">
        <ele>322.7</ele>
        <time>2019-06-10T05:41:57Z</time>
      </trkpt>
      <trkpt lat="40.6402740" lon="-7.8338630">
        <ele>323.6</ele>
        <time>2019-06-10T05:42:03Z</time>
      </trkpt>
      <trkpt lat="40.6403130" lon="-7.8340640">
        <ele>324.5</ele>
        <time>2019-06-10T05:42:08Z</time>
      </trkpt>
      <trkpt lat="40.6403070" lon="-7.8341470">
        <ele>324.9</ele>
        <time>2019-06-10T05:42:10Z</time>
      </trkpt>
      <trkpt lat="40.6402960" lon="-7.8342310">
        <ele>325.3</ele>
        <time>2019-06-10T05:42:12Z</time>
      </trkpt>
      <trkpt lat="40.6402850" lon="-7.8342660">
        <ele>325.5</ele>
        <time>2019-06-10T05:42:13Z</time>
      </trkpt>
      <trkpt lat="40.6402740" lon="-7.8343020">
        <ele>325.6</ele>
        <time>2019-06-10T05:42:14Z</time>
      </trkpt>
      <trkpt lat="40.6402580" lon="-7.8343370">
        <ele>325.8</ele>
        <time>2019-06-10T05:42:15Z</time>
      </trkpt>
      <trkpt lat="40.6401120" lon="-7.8345280">
        <ele>327.5</ele>
        <time>2019-06-10T05:42:22Z</time>
      </trkpt>
      <trkpt lat="40.6400830" lon="-7.8345460">
        <ele>327.9</ele>
        <time>2019-06-10T05:42:23Z</time>
      </trkpt>
      <trkpt lat="40.6400520" lon="-7.8345620">
        <ele>328.2</ele>
        <time>2019-06-10T05:42:24Z</time>
      </trkpt>
      <trkpt lat="40.6400200" lon="-7.8345770">
        <ele>328.5</ele>
        <time>2019-06-10T05:42:25Z</time>
      </trkpt>
      <trkpt lat="40.6399870" lon="-7.8345920">
        <ele>328.7</ele>
        <time>2019-06-10T05:42:26Z</time>
      </trkpt>
      <trkpt lat="40.6399550" lon="-7.8346070">
        <ele>329.0</ele>
        <time>2019-06-10T05:42:27Z</time>
      </trkpt>
      <trkpt lat="40.6398630" lon="-7.8346390">
        <ele>329.8</ele>
        <time>2019-06-10T05:42:30Z</time>
      </trkpt>
      <trkpt lat="40.6396010" lon="-7.8347600">
        <ele>332.3</ele>
        <time>2019-06-10T05:42:39Z</time>
      </trkpt>
      <trkpt lat="40.6395700" lon="-7.8347650">
        <ele>332.6</ele>
        <time>2019-06-10T05:42:40Z</time>
      </trkpt>
      <trkpt lat="40.6395380" lon="-7.8347710">
        <ele>332.9</ele>
        <time>2019-06-10T05:42:41Z</time>
      </trkpt>
      <trkpt lat="40.6395060" lon="-7.8347770">
        <ele>333.4</ele>
        <time>2019-06-10T05:42:42Z</time>
      </trkpt>
      <trkpt lat="40.6394790" lon="-7.8347870">
        <ele>333.8</ele>
        <time>2019-06-10T05:42:43Z</time>
      </trkpt>
      <trkpt lat="40.6392690" lon="-7.8348670">
        <ele>336.8</ele>
        <time>2019-06-10T05:42:50Z</time>
      </trkpt>
      <trkpt lat="40.6391810" lon="-7.8349020">
        <ele>337.0</ele>
        <time>2019-06-10T05:42:53Z</time>
      </trkpt>
      <trkpt lat="40.6391530" lon="-7.8349150">
        <ele>337.1</ele>
        <time>2019-06-10T05:42:54Z</time>
      </trkpt>
      <trkpt lat="40.6391240" lon="-7.8349270">
        <ele>337.2</ele>
        <time>2019-06-10T05:42:55Z</time>
      </trkpt>
      <trkpt lat="40.6390930" lon="-7.8349410">
        <ele>337.3</ele>
        <time>2019-06-10T05:42:56Z</time>
      </trkpt>
      <trkpt lat="40.6390640" lon="-7.8349550">
        <ele>337.3</ele>
        <time>2019-06-10T05:42:57Z</time>
      </trkpt>
      <trkpt lat="40.6389760" lon="-7.8349880">
        <ele>337.6</ele>
        <time>2019-06-10T05:43:00Z</time>
      </trkpt>
      <trkpt lat="40.6387280" lon="-7.8351110">
        <ele>338.3</ele>
        <time>2019-06-10T05:43:09Z</time>
      </trkpt>
      <trkpt lat="40.6387010" lon="-7.8351220">
        <ele>338.4</ele>
        <time>2019-06-10T05:43:10Z</time>
      </trkpt>
      <trkpt lat="40.6386730" lon="-7.8351320">
        <ele>338.5</ele>
        <time>2019-06-10T05:43:11Z</time>
      </trkpt>
      <trkpt lat="40.6386440" lon="-7.8351460">
        <ele>338.5</ele>
        <time>2019-06-10T05:43:12Z</time>
      </trkpt>
      <trkpt lat="40.6386170" lon="-7.8351600">
        <ele>338.6</ele>
        <time>2019-06-10T05:43:13Z</time>
      </trkpt>
      <trkpt lat="40.6383810" lon="-7.8352660">
        <ele>339.5</ele>
        <time>2019-06-10T05:43:21Z</time>
      </trkpt>
      <trkpt lat="40.6382650" lon="-7.8353000">
        <ele>339.9</ele>
        <time>2019-06-10T05:43:25Z</time>
      </trkpt>
      <trkpt lat="40.6382330" lon="-7.8353120">
        <ele>340.0</ele>
        <time>2019-06-10T05:43:26Z</time>
      </trkpt>
      <trkpt lat="40.6382060" lon="-7.8353250">
        <ele>340.1</ele>
        <time>2019-06-10T05:43:27Z</time>
      </trkpt>
      <trkpt lat="40.6381780" lon="-7.8353410">
        <ele>340.2</ele>
        <time>2019-06-10T05:43:28Z</time>
      </trkpt>
      <trkpt lat="40.6381510" lon="-7.8353550">
        <ele>340.3</ele>
        <time>2019-06-10T05:43:29Z</time>
      </trkpt>
      <trkpt lat="40.6380700" lon="-7.8354040">
        <ele>340.6</ele>
        <time>2019-06-10T05:43:32Z</time>
      </trkpt>
      <trkpt lat="40.6378640" lon="-7.8356570">
        <ele>341.5</ele>
        <time>2019-06-10T05:43:41Z</time>
      </trkpt>
      <trkpt lat="40.6378430" lon="-7.8356840">
        <ele>341.6</ele>
        <time>2019-06-10T05:43:42Z</time>
      </trkpt>
      <trkpt lat="40.6378230" lon="-7.8357130">
        <ele>341.7</ele>
        <time>2019-06-10T05:43:43Z</time>
      </trkpt>
      <trkpt lat="40.6378020" lon="-7.8357400">
        <ele>341.8</ele>
        <time>2019-06-10T05:43:44Z</time>
      </trkpt>
      <trkpt lat="40.6377820" lon="-7.8357690">
        <ele>341.9</ele>
        <time>2019-06-10T05:43:45Z</time>
      </trkpt>
      <trkpt lat="40.6376500" lon="-7.8359370">
        <ele>342.5</ele>
        <time>2019-06-10T05:43:51Z</time>
      </trkpt>
      <trkpt lat="40.6376270" lon="-7.8359610">
        <ele>342.6</ele>
        <time>2019-06-10T05:43:52Z</time>
      </trkpt>
      <trkpt lat="40.6376020" lon="-7.8359830">
        <ele>342.7</ele>
        <time>2019-06-10T05:43:53Z</time>
      </trkpt>
      <trkpt lat="40.6375760" lon="-7.8360040">
        <ele>342.8</ele>
        <time>2019-06-10T05:43:54Z</time>
      </trkpt>
      <trkpt lat="40.6375540" lon="-7.8360280">
        <ele>342.9</ele>
        <time>2019-06-10T05:43:55Z</time>
      </trkpt>
      <trkpt lat="40.6375280" lon="-7.8360520">
        <ele>343.0</ele>
        <time>2019-06-10T05:43:56Z</time>
      </trkpt>
      <trkpt lat="40.6374760" lon="-7.8360930">
        <ele>343.1</ele>
        <time>2019-06-10T05:43:58Z</time>
      </trkpt>
      <trkpt lat="40.6372350" lon="-7.8362090">
        <ele>343.9</ele>
        <time>2019-06-10T05:44:07Z</time>
      </trkpt>
      <trkpt lat="40.6371220" lon="-7.8362340">
        <ele>344.3</ele>
        <time>2019-06-10T05:44:11Z</time>
      </trkpt>
      <trkpt lat="40.6370920" lon="-7.8362390">
        <ele>344.4</ele>
        <time>2019-06-10T05:44:12Z</time>
      </trkpt>
      <trkpt lat="40.6370660" lon="-7.8362500">
        <ele>344.5</ele>
        <time>2019-06-10T05:44:13Z</time>
      </trkpt>
      <trkpt lat="40.6370390" lon="-7.8362620">
        <ele>344.6</ele>
        <time>2019-06-10T05:44:14Z</time>
      </trkpt>
      <trkpt lat="40.6370120" lon="-7.8362720">
        <ele>344.7</ele>
        <time>2019-06-10T05:44:15Z</time>
      </trkpt>
      <trkpt lat="40.6369830" lon="-7.8362840">
        <ele>344.8</ele>
        <time>2019-06-10T05:44:16Z</time>
      </trkpt>
      <trkpt lat="40.6367430" lon="-7.8364030">
        <ele>345.6</ele>
        <time>2019-06-10T05:44:25Z</time>
      </trkpt>
      <trkpt lat="40.6366580" lon="-7.8365120">
        <ele>346.0</ele>
        <time>2019-06-10T05:44:29Z</time>
      </trkpt>
      <trkpt lat="40.6366400" lon="-7.8365430">
        <ele>346.2</ele>
        <time>2019-06-10T05:44:30Z</time>
      </trkpt>
      <trkpt lat="40.6366220" lon="-7.8365770">
        <ele>346.3</ele>
        <time>2019-06-10T05:44:31Z</time>
      </trkpt>
      <trkpt lat="40.6366110" lon="-7.8366120">
        <ele>346.4</ele>
        <time>2019-06-10T05:44:32Z</time>
      </trkpt>
      <trkpt lat="40.6366040" lon="-7.8366470">
        <ele>346.5</ele>
        <time>2019-06-10T05:44:33Z</time>
      </trkpt>
      <trkpt lat="40.6366090" lon="-7.8368140">
        <ele>347.0</ele>
        <time>2019-06-10T05:44:38Z</time>
      </trkpt>
      <trkpt lat="40.6366990" lon="-7.8369510">
        <ele>347.7</ele>
        <time>2019-06-10T05:44:43Z</time>
      </trkpt>
      <trkpt lat="40.6367270" lon="-7.8369690">
        <ele>347.8</ele>
        <time>2019-06-10T05:44:44Z</time>
      </trkpt>
      <trkpt lat="40.6367570" lon="-7.8369820">
        <ele>348.0</ele>
        <time>2019-06-10T05:44:45Z</time>
      </trkpt>
      <trkpt lat="40.6367880" lon="-7.8369920">
        <ele>348.2</ele>
        <time>2019-06-10T05:44:46Z</time>
      </trkpt>
      <trkpt lat="40.6368170" lon="-7.8369980">
        <ele>348.3</ele>
        <time>2019-06-10T05:44:47Z</time>
      </trkpt>
      <trkpt lat="40.6368490" lon="-7.8370040">
        <ele>348.5</ele>
        <time>2019-06-10T05:44:48Z</time>
      </trkpt>
      <trkpt lat="40.6370780" lon="-7.8370050">
        <ele>349.6</ele>
        <time>2019-06-10T05:44:56Z</time>
      </trkpt>
      <trkpt lat="40.6371070" lon="-7.8370060">
        <ele>349.7</ele>
        <time>2019-06-10T05:44:57Z</time>
      </trkpt>
      <trkpt lat="40.6371390" lon="-7.8370020">
        <ele>349.9</ele>
        <time>2019-06-10T05:44:58Z</time>
      </trkpt>
      <trkpt lat="40.6371680" lon="-7.8369990">
        <ele>350.0</ele>
        <time>2019-06-10T05:44:59Z</time>
      </trkpt>
      <trkpt lat="40.6371970" lon="-7.8369940">
        <ele>350.1</ele>
        <time>2019-06-10T05:45:00Z</time>
      </trkpt>
      <trkpt lat="40.6372280" lon="-7.8369880">
        <ele>350.3</ele>
        <time>2019-06-10T05:45:01Z</time>
      </trkpt>
      <trkpt lat="40.6373480" lon="-7.8369710">
        <ele>352.4</ele>
        <time>2019-06-10T05:45:05Z</time>
      </trkpt>
      <trkpt lat="40.6376180" lon="-7.8369290">
        <ele>354.9</ele>
        <time>2019-06-10T05:45:13Z</time>
      </trkpt>
      <trkpt lat="40.6376510" lon="-7.8369210">
        <ele>354.9</ele>
        <time>2019-06-10T05:45:14Z</time>
      </trkpt>
      <trkpt lat="40.6376820" lon="-7.8369150">
        <ele>354.9</ele>
        <time>2019-06-10T05:45:15Z</time>
      </trkpt>
      <trkpt lat="40.6377130" lon="-7.8369110">
        <ele>354.9</ele>
        <time>2019-06-10T05:45:16Z</time>
      </trkpt>
      <trkpt lat="40.6377440" lon="-7.8369040">
        <ele>354.9</ele>
        <time>2019-06-10T05:45:17Z</time>
      </trkpt>
      <trkpt lat="40.6377730" lon="-7.8368970">
        <ele>354.9</ele>
        <time>2019-06-10T05:45:18Z</time>
      </trkpt>
      <trkpt lat="40.6379180" lon="-7.8368730">
        <ele>354.9</ele>
        <time>2019-06-10T05:45:23Z</time>
      </trkpt>
      <trkpt lat="40.6380940" lon="-7.8368530">
        <ele>354.6</ele>
        <time>2019-06-10T05:45:29Z</time>
      </trkpt>
      <trkpt lat="40.6381250" lon="-7.8368490">
        <ele>354.6</ele>
        <time>2019-06-10T05:45:30Z</time>
      </trkpt>
      <trkpt lat="40.6381550" lon="-7.8368440">
        <ele>354.5</ele>
        <time>2019-06-10T05:45:31Z</time>
      </trkpt>
      <trkpt lat="40.6381840" lon="-7.8368400">
        <ele>354.5</ele>
        <time>2019-06-10T05:45:32Z</time>
      </trkpt>
      <trkpt lat="40.6382450" lon="-7.8368380">
        <ele>354.5</ele>
        <time>2019-06-10T05:45:34Z</time>
      </trkpt>
      <trkpt lat="40.6384780" lon="-7.8368180">
        <ele>354.6</ele>
        <time>2019-06-10T05:45:42Z</time>
      </trkpt>
      <trkpt lat="40.6385750" lon="-7.8368230">
        <ele>354.7</ele>
        <time>2019-06-10T05:45:46Z</time>
      </trkpt>
      <trkpt lat="40.6386020" lon="-7.8368300">
        <ele>354.7</ele>
        <time>2019-06-10T05:45:47Z</time>
      </trkpt>
      <trkpt lat="40.6386300" lon="-7.8368350">
        <ele>354.7</ele>
        <time>2019-06-10T05:45:48Z</time>
      </trkpt>
      <trkpt lat="40.6386600" lon="-7.8368420">
        <ele>354.7</ele>
        <time>2019-06-10T05:45:49Z</time>
      </trkpt>
      <trkpt lat="40.6386850" lon="-7.8368520">
        <ele>354.7</ele>
        <time>2019-06-10T05:45:50Z</time>
      </trkpt>
      <trkpt lat="40.6388360" lon="-7.8369150">
        <ele>354.5</ele>
        <time>2019-06-10T05:45:56Z</time>
      </trkpt>
      <trkpt lat="40.6389920" lon="-7.8369920">
        <ele>354.1</ele>
        <time>2019-06-10T05:46:02Z</time>
      </trkpt>
      <trkpt lat="40.6390180" lon="-7.8370090">
        <ele>354.0</ele>
        <time>2019-06-10T05:46:03Z</time>
      </trkpt>
      <trkpt lat="40.6390450" lon="-7.8370260">
        <ele>353.9</ele>
        <time>2019-06-10T05:46:04Z</time>
      </trkpt>
      <trkpt lat="40.6390710" lon="-7.8370440">
        <ele>354.1</ele>
        <time>2019-06-10T05:46:05Z</time>
      </trkpt>
      <trkpt lat="40.6391000" lon="-7.8370630">
        <ele>354.3</ele>
        <time>2019-06-10T05:46:06Z</time>
      </trkpt>
      <trkpt lat="40.6391920" lon="-7.8371660">
        <ele>355.3</ele>
        <time>2019-06-10T05:46:10Z</time>
      </trkpt>
      <trkpt lat="40.6392560" lon="-7.8373200">
        <ele>356.4</ele>
        <time>2019-06-10T05:46:15Z</time>
      </trkpt>
      <trkpt lat="40.6392590" lon="-7.8373590">
        <ele>356.6</ele>
        <time>2019-06-10T05:46:16Z</time>
      </trkpt>
      <trkpt lat="40.6392590" lon="-7.8373950">
        <ele>356.8</ele>
        <time>2019-06-10T05:46:17Z</time>
      </trkpt>
      <trkpt lat="40.6392610" lon="-7.8374340">
        <ele>357.1</ele>
        <time>2019-06-10T05:46:18Z</time>
      </trkpt>
      <trkpt lat="40.6392580" lon="-7.8374730">
        <ele>357.3</ele>
        <time>2019-06-10T05:46:19Z</time>
      </trkpt>
      <trkpt lat="40.6392560" lon="-7.8375130">
        <ele>357.5</ele>
        <time>2019-06-10T05:46:20Z</time>
      </trkpt>
      <trkpt lat="40.6392170" lon="-7.8376580">
        <ele>358.4</ele>
        <time>2019-06-10T05:46:24Z</time>
      </trkpt>
      <trkpt lat="40.6391570" lon="-7.8377840">
        <ele>359.2</ele>
        <time>2019-06-10T05:46:28Z</time>
      </trkpt>
      <trkpt lat="40.6391450" lon="-7.8378130">
        <ele>359.3</ele>
        <time>2019-06-10T05:46:29Z</time>
      </trkpt>
      <trkpt lat="40.6391320" lon="-7.8378440">
        <ele>359.5</ele>
        <time>2019-06-10T05:46:30Z</time>
      </trkpt>
      <trkpt lat="40.6391190" lon="-7.8378750">
        <ele>359.7</ele>
        <time>2019-06-10T05:46:31Z</time>
      </trkpt>
      <trkpt lat="40.6391050" lon="-7.8379060">
        <ele>359.9</ele>
        <time>2019-06-10T05:46:32Z</time>
      </trkpt>
      <trkpt lat="40.6390910" lon="-7.8379360">
        <ele>360.1</ele>
        <time>2019-06-10T05:46:33Z</time>
      </trkpt>
      <trkpt lat="40.6389390" lon="-7.8382280">
        <ele>361.9</ele>
        <time>2019-06-10T05:46:43Z</time>
      </trkpt>
      <trkpt lat="40.6389280" lon="-7.8382580">
        <ele>362.1</ele>
        <time>2019-06-10T05:46:44Z</time>
      </trkpt>
      <trkpt lat="40.6389050" lon="-7.8383180">
        <ele>362.5</ele>
        <time>2019-06-10T05:46:46Z</time>
      </trkpt>
      <trkpt lat="40.6388920" lon="-7.8383490">
        <ele>362.7</ele>
        <time>2019-06-10T05:46:47Z</time>
      </trkpt>
      <trkpt lat="40.6388090" lon="-7.8384960">
        <ele>363.7</ele>
        <time>2019-06-10T05:46:52Z</time>
      </trkpt>
      <trkpt lat="40.6387350" lon="-7.8386390">
        <ele>364.6</ele>
        <time>2019-06-10T05:46:57Z</time>
      </trkpt>
      <trkpt lat="40.6387130" lon="-7.8387040">
        <ele>365.0</ele>
        <time>2019-06-10T05:46:59Z</time>
      </trkpt>
      <trkpt lat="40.6386980" lon="-7.8387340">
        <ele>365.2</ele>
        <time>2019-06-10T05:47:00Z</time>
      </trkpt>
      <trkpt lat="40.6386800" lon="-7.8387650">
        <ele>365.5</ele>
        <time>2019-06-10T05:47:01Z</time>
      </trkpt>
      <trkpt lat="40.6386600" lon="-7.8387960">
        <ele>365.7</ele>
        <time>2019-06-10T05:47:02Z</time>
      </trkpt>
      <trkpt lat="40.6385510" lon="-7.8390050">
        <ele>367.1</ele>
        <time>2019-06-10T05:47:09Z</time>
      </trkpt>
      <trkpt lat="40.6385130" lon="-7.8390590">
        <ele>367.5</ele>
        <time>2019-06-10T05:47:11Z</time>
      </trkpt>
      <trkpt lat="40.6384970" lon="-7.8390900">
        <ele>367.7</ele>
        <time>2019-06-10T05:47:12Z</time>
      </trkpt>
      <trkpt lat="40.6384810" lon="-7.8391190">
        <ele>367.9</ele>
        <time>2019-06-10T05:47:13Z</time>
      </trkpt>
      <trkpt lat="40.6384480" lon="-7.8391870">
        <ele>368.4</ele>
        <time>2019-06-10T05:47:15Z</time>
      </trkpt>
      <trkpt lat="40.6384350" lon="-7.8392200">
        <ele>368.6</ele>
        <time>2019-06-10T05:47:16Z</time>
      </trkpt>
      <trkpt lat="40.6384040" lon="-7.8393260">
        <ele>369.4</ele>
        <time>2019-06-10T05:47:19Z</time>
      </trkpt>
      <trkpt lat="40.6384150" lon="-7.8395330">
        <ele>370.4</ele>
        <time>2019-06-10T05:47:24Z</time>
      </trkpt>
      <trkpt lat="40.6385070" lon="-7.8396950">
        <ele>371.3</ele>
        <time>2019-06-10T05:47:29Z</time>
      </trkpt>
      <trkpt lat="40.6385290" lon="-7.8397250">
        <ele>371.5</ele>
        <time>2019-06-10T05:47:30Z</time>
      </trkpt>
      <trkpt lat="40.6385520" lon="-7.8397520">
        <ele>371.7</ele>
        <time>2019-06-10T05:47:31Z</time>
      </trkpt>
      <trkpt lat="40.6385760" lon="-7.8397760">
        <ele>371.8</ele>
        <time>2019-06-10T05:47:32Z</time>
      </trkpt>
      <trkpt lat="40.6386010" lon="-7.8397960">
        <ele>372.0</ele>
        <time>2019-06-10T05:47:33Z</time>
      </trkpt>
      <trkpt lat="40.6387100" lon="-7.8398740">
        <ele>372.7</ele>
        <time>2019-06-10T05:47:37Z</time>
      </trkpt>
      <trkpt lat="40.6387910" lon="-7.8399310">
        <ele>373.2</ele>
        <time>2019-06-10T05:47:40Z</time>
      </trkpt>
      <trkpt lat="40.6388180" lon="-7.8399490">
        <ele>373.4</ele>
        <time>2019-06-10T05:47:41Z</time>
      </trkpt>
      <trkpt lat="40.6388440" lon="-7.8399700">
        <ele>373.5</ele>
        <time>2019-06-10T05:47:42Z</time>
      </trkpt>
      <trkpt lat="40.6388720" lon="-7.8399920">
        <ele>373.7</ele>
        <time>2019-06-10T05:47:43Z</time>
      </trkpt>
      <trkpt lat="40.6388980" lon="-7.8400110">
        <ele>373.9</ele>
        <time>2019-06-10T05:47:44Z</time>
      </trkpt>
      <trkpt lat="40.6389960" lon="-7.8400910">
        <ele>374.5</ele>
        <time>2019-06-10T05:47:48Z</time>
      </trkpt>
      <trkpt lat="40.6391020" lon="-7.8401580">
        <ele>375.1</ele>
        <time>2019-06-10T05:47:53Z</time>
      </trkpt>
      <trkpt lat="40.6391230" lon="-7.8401710">
        <ele>375.2</ele>
        <time>2019-06-10T05:47:54Z</time>
      </trkpt>
      <trkpt lat="40.6391460" lon="-7.8401880">
        <ele>375.3</ele>
        <time>2019-06-10T05:47:55Z</time>
      </trkpt>
      <trkpt lat="40.6391650" lon="-7.8402050">
        <ele>375.5</ele>
        <time>2019-06-10T05:47:56Z</time>
      </trkpt>
      <trkpt lat="40.6391850" lon="-7.8402220">
        <ele>375.6</ele>
        <time>2019-06-10T05:47:57Z</time>
      </trkpt>
      <trkpt lat="40.6392840" lon="-7.8402830">
        <ele>376.1</ele>
        <time>2019-06-10T05:48:01Z</time>
      </trkpt>
      <trkpt lat="40.6394770" lon="-7.8404060">
        <ele>377.0</ele>
        <time>2019-06-10T05:48:09Z</time>
      </trkpt>
      <trkpt lat="40.6395000" lon="-7.8404230">
        <ele>377.1</ele>
        <time>2019-06-10T05:48:10Z</time>
      </trkpt>
      <trkpt lat="40.6395220" lon="-7.8404410">
        <ele>377.3</ele>
        <time>2019-06-10T05:48:11Z</time>
      </trkpt>
      <trkpt lat="40.6395460" lon="-7.8404600">
        <ele>377.4</ele>
        <time>2019-06-10T05:48:12Z</time>
      </trkpt>
      <trkpt lat="40.6395700" lon="-7.8404770">
        <ele>377.5</ele>
        <time>2019-06-10T05:48:13Z</time>
      </trkpt>
      <trkpt lat="40.6397240" lon="-7.8406090">
        <ele>378.4</ele>
        <time>2019-06-10T05:48:19Z</time>
      </trkpt>
      <trkpt lat="40.6398300" lon="-7.8406810">
        <ele>378.9</ele>
        <time>2019-06-10T05:48:23Z</time>
      </trkpt>
      <trkpt lat="40.6398560" lon="-7.8407010">
        <ele>379.1</ele>
        <time>2019-06-10T05:48:24Z</time>
      </trkpt>
      <trkpt lat="40.6398780" lon="-7.8407180">
        <ele>379.2</ele>
        <time>2019-06-10T05:48:25Z</time>
      </trkpt>
      <trkpt lat="40.6399060" lon="-7.8407350">
        <ele>379.4</ele>
        <time>2019-06-10T05:48:26Z</time>
      </trkpt>
      <trkpt lat="40.6399320" lon="-7.8407530">
        <ele>379.6</ele>
        <time>2019-06-10T05:48:27Z</time>
      </trkpt>
      <trkpt lat="40.6401620" lon="-7.8409110">
        <ele>381.1</ele>
        <time>2019-06-10T05:48:36Z</time>
      </trkpt>
      <trkpt lat="40.6401860" lon="-7.8409320">
        <ele>381.2</ele>
        <time>2019-06-10T05:48:37Z</time>
      </trkpt>
      <trkpt lat="40.6402090" lon="-7.8409530">
        <ele>381.4</ele>
        <time>2019-06-10T05:48:38Z</time>
      </trkpt>
      <trkpt lat="40.6402320" lon="-7.8409730">
        <ele>381.6</ele>
        <time>2019-06-10T05:48:39Z</time>
      </trkpt>
      <trkpt lat="40.6402560" lon="-7.8409910">
        <ele>381.7</ele>
        <time>2019-06-10T05:48:40Z</time>
      </trkpt>
      <trkpt lat="40.6402800" lon="-7.8410070">
        <ele>381.9</ele>
        <time>2019-06-10T05:48:41Z</time>
      </trkpt>
      <trkpt lat="40.6404310" lon="-7.8411210">
        <ele>383.0</ele>
        <time>2019-06-10T05:48:47Z</time>
      </trkpt>
      <trkpt lat="40.6405530" lon="-7.8412170">
        <ele>383.8</ele>
        <time>2019-06-10T05:48:52Z</time>
      </trkpt>
      <trkpt lat="40.6405770" lon="-7.8412320">
        <ele>384.0</ele>
        <time>2019-06-10T05:48:53Z</time>
      </trkpt>
      <trkpt lat="40.6406040" lon="-7.8412470">
        <ele>384.1</ele>
        <time>2019-06-10T05:48:54Z</time>
      </trkpt>
      <trkpt lat="40.6406290" lon="-7.8412640">
        <ele>384.3</ele>
        <time>2019-06-10T05:48:55Z</time>
      </trkpt>
      <trkpt lat="40.6406530" lon="-7.8412820">
        <ele>384.4</ele>
        <time>2019-06-10T05:48:56Z</time>
      </trkpt>
      <trkpt lat="40.6408520" lon="-7.8414220">
        <ele>385.5</ele>
        <time>2019-06-10T05:49:04Z</time>
      </trkpt>
      <trkpt lat="40.6409010" lon="-7.8414640">
        <ele>385.7</ele>
        <time>2019-06-10T05:49:06Z</time>
      </trkpt>
      <trkpt lat="40.6409250" lon="-7.8414810">
        <ele>385.9</ele>
        <time>2019-06-10T05:49:07Z</time>
      </trkpt>
      <trkpt lat="40.6409510" lon="-7.8414980">
        <ele>386.0</ele>
        <time>2019-06-10T05:49:08Z</time>
      </trkpt>
      <trkpt lat="40.6409750" lon="-7.8415150">
        <ele>386.1</ele>
        <time>2019-06-10T05:49:09Z</time>
      </trkpt>
      <trkpt lat="40.6410000" lon="-7.8415320">
        <ele>386.2</ele>
        <time>2019-06-10T05:49:10Z</time>
      </trkpt>
      <trkpt lat="40.6410940" lon="-7.8416070">
        <ele>386.4</ele>
        <time>2019-06-10T05:49:14Z</time>
      </trkpt>
      <trkpt lat="40.6412270" lon="-7.8416860">
        <ele>386.7</ele>
        <time>2019-06-10T05:49:19Z</time>
      </trkpt>
      <trkpt lat="40.6412570" lon="-7.8417030">
        <ele>386.7</ele>
        <time>2019-06-10T05:49:20Z</time>
      </trkpt>
      <trkpt lat="40.6412840" lon="-7.8417240">
        <ele>386.8</ele>
        <time>2019-06-10T05:49:21Z</time>
      </trkpt>
      <trkpt lat="40.6413090" lon="-7.8417470">
        <ele>386.9</ele>
        <time>2019-06-10T05:49:22Z</time>
      </trkpt>
      <trkpt lat="40.6413310" lon="-7.8417670">
        <ele>387.0</ele>
        <time>2019-06-10T05:49:23Z</time>
      </trkpt>
      <trkpt lat="40.6414980" lon="-7.8419570">
        <ele>387.7</ele>
        <time>2019-06-10T05:49:31Z</time>
      </trkpt>
      <trkpt lat="40.6415300" lon="-7.8420230">
        <ele>388.0</ele>
        <time>2019-06-10T05:49:33Z</time>
      </trkpt>
      <trkpt lat="40.6415430" lon="-7.8420550">
        <ele>388.2</ele>
        <time>2019-06-10T05:49:34Z</time>
      </trkpt>
      <trkpt lat="40.6415580" lon="-7.8420890">
        <ele>388.4</ele>
        <time>2019-06-10T05:49:35Z</time>
      </trkpt>
      <trkpt lat="40.6415700" lon="-7.8421230">
        <ele>388.5</ele>
        <time>2019-06-10T05:49:36Z</time>
      </trkpt>
      <trkpt lat="40.6415820" lon="-7.8421590">
        <ele>388.7</ele>
        <time>2019-06-10T05:49:37Z</time>
      </trkpt>
      <trkpt lat="40.6415960" lon="-7.8421960">
        <ele>388.9</ele>
        <time>2019-06-10T05:49:38Z</time>
      </trkpt>
      <trkpt lat="40.6417150" lon="-7.8425630">
        <ele>390.2</ele>
        <time>2019-06-10T05:49:48Z</time>
      </trkpt>
      <trkpt lat="40.6417270" lon="-7.8429060">
        <ele>391.1</ele>
        <time>2019-06-10T05:49:56Z</time>
      </trkpt>
      <trkpt lat="40.6416890" lon="-7.8431950">
        <ele>391.6</ele>
        <time>2019-06-10T05:50:02Z</time>
      </trkpt>
      <trkpt lat="40.6416850" lon="-7.8432330">
        <ele>391.7</ele>
        <time>2019-06-10T05:50:03Z</time>
      </trkpt>
      <trkpt lat="40.6416790" lon="-7.8432670">
        <ele>391.7</ele>
        <time>2019-06-10T05:50:04Z</time>
      </trkpt>
      <trkpt lat="40.6416740" lon="-7.8433010">
        <ele>391.8</ele>
        <time>2019-06-10T05:50:05Z</time>
      </trkpt>
      <trkpt lat="40.6416690" lon="-7.8433340">
        <ele>391.8</ele>
        <time>2019-06-10T05:50:06Z</time>
      </trkpt>
      <trkpt lat="40.6416430" lon="-7.8434030">
        <ele>391.9</ele>
        <time>2019-06-10T05:50:08Z</time>
      </trkpt>
      <trkpt lat="40.6415170" lon="-7.8437380">
        <ele>392.2</ele>
        <time>2019-06-10T05:50:17Z</time>
      </trkpt>
      <trkpt lat="40.6413470" lon="-7.8441120">
        <ele>392.4</ele>
        <time>2019-06-10T05:50:26Z</time>
      </trkpt>
      <trkpt lat="40.6413140" lon="-7.8441910">
        <ele>392.5</ele>
        <time>2019-06-10T05:50:28Z</time>
      </trkpt>
      <trkpt lat="40.6412990" lon="-7.8442330">
        <ele>392.5</ele>
        <time>2019-06-10T05:50:29Z</time>
      </trkpt>
      <trkpt lat="40.6412810" lon="-7.8442750">
        <ele>392.5</ele>
        <time>2019-06-10T05:50:30Z</time>
      </trkpt>
      <trkpt lat="40.6412660" lon="-7.8443160">
        <ele>392.6</ele>
        <time>2019-06-10T05:50:31Z</time>
      </trkpt>
      <trkpt lat="40.6412510" lon="-7.8443590">
        <ele>392.7</ele>
        <time>2019-06-10T05:50:32Z</time>
      </trkpt>
      <trkpt lat="40.6411740" lon="-7.8445630">
        <ele>393.2</ele>
        <time>2019-06-10T05:50:37Z</time>
      </trkpt>
      <trkpt lat="40.6410540" lon="-7.8448160">
        <ele>394.1</ele>
        <time>2019-06-10T05:50:44Z</time>
      </trkpt>
      <trkpt lat="40.6410310" lon="-7.8448530">
        <ele>394.3</ele>
        <time>2019-06-10T05:50:45Z</time>
      </trkpt>
      <trkpt lat="40.6410090" lon="-7.8448900">
        <ele>394.4</ele>
        <time>2019-06-10T05:50:46Z</time>
      </trkpt>
      <trkpt lat="40.6409850" lon="-7.8449260">
        <ele>394.6</ele>
        <time>2019-06-10T05:50:47Z</time>
      </trkpt>
      <trkpt lat="40.6409610" lon="-7.8449590">
        <ele>394.8</ele>
        <time>2019-06-10T05:50:48Z</time>
      </trkpt>
      <trkpt lat="40.6409370" lon="-7.8449900">
        <ele>394.9</ele>
        <time>2019-06-10T05:50:49Z</time>
      </trkpt>
      <trkpt lat="40.6408860" lon="-7.8450510">
        <ele>395.3</ele>
        <time>2019-06-10T05:50:51Z</time>
      </trkpt>
      <trkpt lat="40.6406770" lon="-7.8452340">
        <ele>397.0</ele>
        <time>2019-06-10T05:50:59Z</time>
      </trkpt>
      <trkpt lat="40.6406450" lon="-7.8452480">
        <ele>397.3</ele>
        <time>2019-06-10T05:51:00Z</time>
      </trkpt>
      <trkpt lat="40.6406190" lon="-7.8452630">
        <ele>397.5</ele>
        <time>2019-06-10T05:51:01Z</time>
      </trkpt>
      <trkpt lat="40.6405900" lon="-7.8452800">
        <ele>397.6</ele>
        <time>2019-06-10T05:51:02Z</time>
      </trkpt>
      <trkpt lat="40.6405600" lon="-7.8452950">
        <ele>397.8</ele>
        <time>2019-06-10T05:51:03Z</time>
      </trkpt>
      <trkpt lat="40.6404710" lon="-7.8453540">
        <ele>398.4</ele>
        <time>2019-06-10T05:51:06Z</time>
      </trkpt>
      <trkpt lat="40.6403530" lon="-7.8454770">
        <ele>399.3</ele>
        <time>2019-06-10T05:51:11Z</time>
      </trkpt>
      <trkpt lat="40.6403350" lon="-7.8455050">
        <ele>399.4</ele>
        <time>2019-06-10T05:51:12Z</time>
      </trkpt>
      <trkpt lat="40.6403230" lon="-7.8455370">
        <ele>399.6</ele>
        <time>2019-06-10T05:51:13Z</time>
      </trkpt>
      <trkpt lat="40.6403110" lon="-7.8455680">
        <ele>399.7</ele>
        <time>2019-06-10T05:51:14Z</time>
      </trkpt>
      <trkpt lat="40.6403010" lon="-7.8456010">
        <ele>399.9</ele>
        <time>2019-06-10T05:51:15Z</time>
      </trkpt>
      <trkpt lat="40.6402820" lon="-7.8457010">
        <ele>400.5</ele>
        <time>2019-06-10T05:51:18Z</time>
      </trkpt>
      <trkpt lat="40.6402660" lon="-7.8458460">
        <ele>401.4</ele>
        <time>2019-06-10T05:51:22Z</time>
      </trkpt>
      <trkpt lat="40.6402650" lon="-7.8458850">
        <ele>401.6</ele>
        <time>2019-06-10T05:51:23Z</time>
      </trkpt>
      <trkpt lat="40.6402600" lon="-7.8459230">
        <ele>401.8</ele>
        <time>2019-06-10T05:51:24Z</time>
      </trkpt>
      <trkpt lat="40.6402550" lon="-7.8459630">
        <ele>402.1</ele>
        <time>2019-06-10T05:51:25Z</time>
      </trkpt>
      <trkpt lat="40.6402510" lon="-7.8460050">
        <ele>402.3</ele>
        <time>2019-06-10T05:51:26Z</time>
      </trkpt>
      <trkpt lat="40.6402480" lon="-7.8460470">
        <ele>402.5</ele>
        <time>2019-06-10T05:51:27Z</time>
      </trkpt>
      <trkpt lat="40.6402410" lon="-7.8462290">
        <ele>403.5</ele>
        <time>2019-06-10T05:51:32Z</time>
      </trkpt>
      <trkpt lat="40.6402380" lon="-7.8462680">
        <ele>403.6</ele>
        <time>2019-06-10T05:51:33Z</time>
      </trkpt>
      <trkpt lat="40.6402370" lon="-7.8463050">
        <ele>403.7</ele>
        <time>2019-06-10T05:51:34Z</time>
      </trkpt>
      <trkpt lat="40.6402360" lon="-7.8463410">
        <ele>403.8</ele>
        <time>2019-06-10T05:51:35Z</time>
      </trkpt>
      <trkpt lat="40.6402360" lon="-7.8463780">
        <ele>403.9</ele>
        <time>2019-06-10T05:51:36Z</time>
      </trkpt>
      <trkpt lat="40.6402390" lon="-7.8466630">
        <ele>404.9</ele>
        <time>2019-06-10T05:51:44Z</time>
      </trkpt>
      <trkpt lat="40.6402380" lon="-7.8467320">
        <ele>405.2</ele>
        <time>2019-06-10T05:51:46Z</time>
      </trkpt>
      <trkpt lat="40.6402390" lon="-7.8467660">
        <ele>405.3</ele>
        <time>2019-06-10T05:51:47Z</time>
      </trkpt>
      <trkpt lat="40.6402390" lon="-7.8468010">
        <ele>405.4</ele>
        <time>2019-06-10T05:51:48Z</time>
      </trkpt>
      <trkpt lat="40.6402410" lon="-7.8468700">
        <ele>405.6</ele>
        <time>2019-06-10T05:51:50Z</time>
      </trkpt>
      <trkpt lat="40.6402350" lon="-7.8470190">
        <ele>406.1</ele>
        <time>2019-06-10T05:51:54Z</time>
      </trkpt>
      <trkpt lat="40.6402240" lon="-7.8471300">
        <ele>406.5</ele>
        <time>2019-06-10T05:51:57Z</time>
      </trkpt>
      <trkpt lat="40.6402220" lon="-7.8472070">
        <ele>406.8</ele>
        <time>2019-06-10T05:51:59Z</time>
      </trkpt>
      <trkpt lat="40.6402200" lon="-7.8472430">
        <ele>407.0</ele>
        <time>2019-06-10T05:52:00Z</time>
      </trkpt>
      <trkpt lat="40.6402160" lon="-7.8472810">
        <ele>407.2</ele>
        <time>2019-06-10T05:52:01Z</time>
      </trkpt>
      <trkpt lat="40.6402140" lon="-7.8473160">
        <ele>407.3</ele>
        <time>2019-06-10T05:52:02Z</time>
      </trkpt>
      <trkpt lat="40.6402040" lon="-7.8475750">
        <ele>408.8</ele>
        <time>2019-06-10T05:52:09Z</time>
      </trkpt>
      <trkpt lat="40.6402010" lon="-7.8476140">
        <ele>409.0</ele>
        <time>2019-06-10T05:52:10Z</time>
      </trkpt>
      <trkpt lat="40.6402000" lon="-7.8476490">
        <ele>409.2</ele>
        <time>2019-06-10T05:52:11Z</time>
      </trkpt>
      <trkpt lat="40.6401970" lon="-7.8476840">
        <ele>409.4</ele>
        <time>2019-06-10T05:52:12Z</time>
      </trkpt>
      <trkpt lat="40.6401910" lon="-7.8477210">
        <ele>409.6</ele>
        <time>2019-06-10T05:52:13Z</time>
      </trkpt>
      <trkpt lat="40.6401850" lon="-7.8477580">
        <ele>409.7</ele>
        <time>2019-06-10T05:52:14Z</time>
      </trkpt>
      <trkpt lat="40.6401750" lon="-7.8478710">
        <ele>410.3</ele>
        <time>2019-06-10T05:52:17Z</time>
      </trkpt>
      <trkpt lat="40.6401390" lon="-7.8480930">
        <ele>411.4</ele>
        <time>2019-06-10T05:52:23Z</time>
      </trkpt>
      <trkpt lat="40.6401320" lon="-7.8481290">
        <ele>411.6</ele>
        <time>2019-06-10T05:52:24Z</time>
      </trkpt>
      <trkpt lat="40.6401260" lon="-7.8481640">
        <ele>411.8</ele>
        <time>2019-06-10T05:52:25Z</time>
      </trkpt>
      <trkpt lat="40.6401220" lon="-7.8482030">
        <ele>412.0</ele>
        <time>2019-06-10T05:52:26Z</time>
      </trkpt>
      <trkpt lat="40.6401160" lon="-7.8482400">
        <ele>412.2</ele>
        <time>2019-06-10T05:52:27Z</time>
      </trkpt>
      <trkpt lat="40.6401010" lon="-7.8483120">
        <ele>412.6</ele>
        <time>2019-06-10T05:52:29Z</time>
      </trkpt>
      <trkpt lat="40.6400750" lon="-7.8484600">
        <ele>413.4</ele>
        <time>2019-06-10T05:52:33Z</time>
      </trkpt>
      <trkpt lat="40.6400710" lon="-7.8484940">
        <ele>413.6</ele>
        <time>2019-06-10T05:52:34Z</time>
      </trkpt>
      <trkpt lat="40.6400670" lon="-7.8485270">
        <ele>413.8</ele>
        <time>2019-06-10T05:52:35Z</time>
      </trkpt>
      <trkpt lat="40.6400640" lon="-7.8485610">
        <ele>414.1</ele>
        <time>2019-06-10T05:52:36Z</time>
      </trkpt>
      <trkpt lat="40.6400580" lon="-7.8485990">
        <ele>414.3</ele>
        <time>2019-06-10T05:52:37Z</time>
      </trkpt>
      <trkpt lat="40.6400350" lon="-7.8487120">
        <ele>415.0</ele>
        <time>2019-06-10T05:52:40Z</time>
      </trkpt>
      <trkpt lat="40.6399860" lon="-7.8488840">
        <ele>414.8</ele>
        <time>2019-06-10T05:52:45Z</time>
      </trkpt>
      <trkpt lat="40.6399770" lon="-7.8489150">
        <ele>414.8</ele>
        <time>2019-06-10T05:52:46Z</time>
      </trkpt>
      <trkpt lat="40.6399700" lon="-7.8489500">
        <ele>414.8</ele>
        <time>2019-06-10T05:52:47Z</time>
      </trkpt>
      <trkpt lat="40.6399640" lon="-7.8489870">
        <ele>414.7</ele>
        <time>2019-06-10T05:52:48Z</time>
      </trkpt>
      <trkpt lat="40.6399610" lon="-7.8490250">
        <ele>414.6</ele>
        <time>2019-06-10T05:52:49Z</time>
      </trkpt>
      <trkpt lat="40.6399570" lon="-7.8490650">
        <ele>414.6</ele>
        <time>2019-06-10T05:52:50Z</time>
      </trkpt>
      <trkpt lat="40.6399250" lon="-7.8493340">
        <ele>414.9</ele>
        <time>2019-06-10T05:52:57Z</time>
      </trkpt>
      <trkpt lat="40.6399190" lon="-7.8494830">
        <ele>415.1</ele>
        <time>2019-06-10T05:53:01Z</time>
      </trkpt>
      <trkpt lat="40.6399200" lon="-7.8495160">
        <ele>415.1</ele>
        <time>2019-06-10T05:53:02Z</time>
      </trkpt>
      <trkpt lat="40.6399230" lon="-7.8495520">
        <ele>415.1</ele>
        <time>2019-06-10T05:53:03Z</time>
      </trkpt>
      <trkpt lat="40.6399250" lon="-7.8495860">
        <ele>415.1</ele>
        <time>2019-06-10T05:53:04Z</time>
      </trkpt>
      <trkpt lat="40.6399290" lon="-7.8496210">
        <ele>415.0</ele>
        <time>2019-06-10T05:53:05Z</time>
      </trkpt>
      <trkpt lat="40.6399540" lon="-7.8498400">
        <ele>415.4</ele>
        <time>2019-06-10T05:53:12Z</time>
      </trkpt>
      <trkpt lat="40.6399580" lon="-7.8498750">
        <ele>415.7</ele>
        <time>2019-06-10T05:53:13Z</time>
      </trkpt>
      <trkpt lat="40.6399560" lon="-7.8499120">
        <ele>416.0</ele>
        <time>2019-06-10T05:53:14Z</time>
      </trkpt>
      <trkpt lat="40.6399560" lon="-7.8499490">
        <ele>416.2</ele>
        <time>2019-06-10T05:53:15Z</time>
      </trkpt>
      <trkpt lat="40.6399570" lon="-7.8499850">
        <ele>416.5</ele>
        <time>2019-06-10T05:53:16Z</time>
      </trkpt>
      <trkpt lat="40.6399610" lon="-7.8502720">
        <ele>418.6</ele>
        <time>2019-06-10T05:53:24Z</time>
      </trkpt>
      <trkpt lat="40.6399660" lon="-7.8503770">
        <ele>419.3</ele>
        <time>2019-06-10T05:53:27Z</time>
      </trkpt>
      <trkpt lat="40.6399650" lon="-7.8504170">
        <ele>419.5</ele>
        <time>2019-06-10T05:53:28Z</time>
      </trkpt>
      <trkpt lat="40.6399650" lon="-7.8504520">
        <ele>419.8</ele>
        <time>2019-06-10T05:53:29Z</time>
      </trkpt>
      <trkpt lat="40.6399650" lon="-7.8504870">
        <ele>420.0</ele>
        <time>2019-06-10T05:53:30Z</time>
      </trkpt>
      <trkpt lat="40.6399690" lon="-7.8505220">
        <ele>420.2</ele>
        <time>2019-06-10T05:53:31Z</time>
      </trkpt>
      <trkpt lat="40.6399730" lon="-7.8506230">
        <ele>420.8</ele>
        <time>2019-06-10T05:53:34Z</time>
      </trkpt>
      <trkpt lat="40.6399890" lon="-7.8508300">
        <ele>421.9</ele>
        <time>2019-06-10T05:53:40Z</time>
      </trkpt>
      <trkpt lat="40.6399920" lon="-7.8508620">
        <ele>422.0</ele>
        <time>2019-06-10T05:53:41Z</time>
      </trkpt>
      <trkpt lat="40.6399920" lon="-7.8508940">
        <ele>422.1</ele>
        <time>2019-06-10T05:53:42Z</time>
      </trkpt>
      <trkpt lat="40.6399920" lon="-7.8509270">
        <ele>422.2</ele>
        <time>2019-06-10T05:53:43Z</time>
      </trkpt>
      <trkpt lat="40.6399950" lon="-7.8509600">
        <ele>422.4</ele>
        <time>2019-06-10T05:53:44Z</time>
      </trkpt>
      <trkpt lat="40.6399970" lon="-7.8509950">
        <ele>422.5</ele>
        <time>2019-06-10T05:53:45Z</time>
      </trkpt>
      <trkpt lat="40.6399980" lon="-7.8511420">
        <ele>423.1</ele>
        <time>2019-06-10T05:53:49Z</time>
      </trkpt>
      <trkpt lat="40.6399880" lon="-7.8512450">
        <ele>423.5</ele>
        <time>2019-06-10T05:53:52Z</time>
      </trkpt>
      <trkpt lat="40.6399800" lon="-7.8512790">
        <ele>423.7</ele>
        <time>2019-06-10T05:53:53Z</time>
      </trkpt>
      <trkpt lat="40.6399730" lon="-7.8513150">
        <ele>423.9</ele>
        <time>2019-06-10T05:53:54Z</time>
      </trkpt>
      <trkpt lat="40.6399620" lon="-7.8513500">
        <ele>424.1</ele>
        <time>2019-06-10T05:53:55Z</time>
      </trkpt>
      <trkpt lat="40.6399520" lon="-7.8513860">
        <ele>424.2</ele>
        <time>2019-06-10T05:53:56Z</time>
      </trkpt>
      <trkpt lat="40.6399410" lon="-7.8514190">
        <ele>424.4</ele>
        <time>2019-06-10T05:53:57Z</time>
      </trkpt>
      <trkpt lat="40.6397840" lon="-7.8516830">
        <ele>425.7</ele>
        <time>2019-06-10T05:54:06Z</time>
      </trkpt>
      <trkpt lat="40.6397660" lon="-7.8517100">
        <ele>425.8</ele>
        <time>2019-06-10T05:54:07Z</time>
      </trkpt>
      <trkpt lat="40.6397480" lon="-7.8517380">
        <ele>426.0</ele>
        <time>2019-06-10T05:54:08Z</time>
      </trkpt>
      <trkpt lat="40.6397310" lon="-7.8517640">
        <ele>426.1</ele>
        <time>2019-06-10T05:54:09Z</time>
      </trkpt>
      <trkpt lat="40.6397120" lon="-7.8517900">
        <ele>426.2</ele>
        <time>2019-06-10T05:54:10Z</time>
      </trkpt>
      <trkpt lat="40.6395710" lon="-7.8520220">
        <ele>427.1</ele>
        <time>2019-06-10T05:54:18Z</time>
      </trkpt>
      <trkpt lat="40.6395090" lon="-7.8521430">
        <ele>427.9</ele>
        <time>2019-06-10T05:54:22Z</time>
      </trkpt>
      <trkpt lat="40.6394950" lon="-7.8521740">
        <ele>428.3</ele>
        <time>2019-06-10T05:54:23Z</time>
      </trkpt>
      <trkpt lat="40.6394780" lon="-7.8522040">
        <ele>428.7</ele>
        <time>2019-06-10T05:54:24Z</time>
      </trkpt>
      <trkpt lat="40.6394650" lon="-7.8522330">
        <ele>429.1</ele>
        <time>2019-06-10T05:54:25Z</time>
      </trkpt>
      <trkpt lat="40.6394520" lon="-7.8522630">
        <ele>429.5</ele>
        <time>2019-06-10T05:54:26Z</time>
      </trkpt>
      <trkpt lat="40.6394400" lon="-7.8522940">
        <ele>429.9</ele>
        <time>2019-06-10T05:54:27Z</time>
      </trkpt>
      <trkpt lat="40.6393840" lon="-7.8525360">
        <ele>432.1</ele>
        <time>2019-06-10T05:54:34Z</time>
      </trkpt>
      <trkpt lat="40.6393820" lon="-7.8525710">
        <ele>432.3</ele>
        <time>2019-06-10T05:54:35Z</time>
      </trkpt>
      <trkpt lat="40.6393790" lon="-7.8526030">
        <ele>432.5</ele>
        <time>2019-06-10T05:54:36Z</time>
      </trkpt>
      <trkpt lat="40.6393770" lon="-7.8526350">
        <ele>432.7</ele>
        <time>2019-06-10T05:54:37Z</time>
      </trkpt>
      <trkpt lat="40.6393730" lon="-7.8526690">
        <ele>432.9</ele>
        <time>2019-06-10T05:54:38Z</time>
      </trkpt>
      <trkpt lat="40.6393730" lon="-7.8527040">
        <ele>433.1</ele>
        <time>2019-06-10T05:54:39Z</time>
      </trkpt>
      <trkpt lat="40.6393860" lon="-7.8528350">
        <ele>433.9</ele>
        <time>2019-06-10T05:54:43Z</time>
      </trkpt>
      <trkpt lat="40.6394490" lon="-7.8530360">
        <ele>434.9</ele>
        <time>2019-06-10T05:54:49Z</time>
      </trkpt>
      <trkpt lat="40.6394590" lon="-7.8530720">
        <ele>435.1</ele>
        <time>2019-06-10T05:54:50Z</time>
      </trkpt>
      <trkpt lat="40.6394710" lon="-7.8531050">
        <ele>435.2</ele>
        <time>2019-06-10T05:54:51Z</time>
      </trkpt>
      <trkpt lat="40.6394790" lon="-7.8531380">
        <ele>435.4</ele>
        <time>2019-06-10T05:54:52Z</time>
      </trkpt>
      <trkpt lat="40.6394880" lon="-7.8531750">
        <ele>435.6</ele>
        <time>2019-06-10T05:54:53Z</time>
      </trkpt>
      <trkpt lat="40.6395360" lon="-7.8534890">
        <ele>436.8</ele>
        <time>2019-06-10T05:55:02Z</time>
      </trkpt>
      <trkpt lat="40.6395320" lon="-7.8536270">
        <ele>437.4</ele>
        <time>2019-06-10T05:55:06Z</time>
      </trkpt>
      <trkpt lat="40.6395260" lon="-7.8536620">
        <ele>437.5</ele>
        <time>2019-06-10T05:55:07Z</time>
      </trkpt>
      <trkpt lat="40.6395200" lon="-7.8536980">
        <ele>437.7</ele>
        <time>2019-06-10T05:55:08Z</time>
      </trkpt>
      <trkpt lat="40.6395150" lon="-7.8537320">
        <ele>437.9</ele>
        <time>2019-06-10T05:55:09Z</time>
      </trkpt>
      <trkpt lat="40.6395100" lon="-7.8537690">
        <ele>438.1</ele>
        <time>2019-06-10T05:55:10Z</time>
      </trkpt>
      <trkpt lat="40.6394630" lon="-7.8540430">
        <ele>439.7</ele>
        <time>2019-06-10T05:55:18Z</time>
      </trkpt>
      <trkpt lat="40.6394570" lon="-7.8540770">
        <ele>440.0</ele>
        <time>2019-06-10T05:55:19Z</time>
      </trkpt>
      <trkpt lat="40.6394520" lon="-7.8541090">
        <ele>440.1</ele>
        <time>2019-06-10T05:55:20Z</time>
      </trkpt>
      <trkpt lat="40.6394480" lon="-7.8541370">
        <ele>440.3</ele>
        <time>2019-06-10T05:55:21Z</time>
      </trkpt>
      <trkpt lat="40.6394390" lon="-7.8541610">
        <ele>440.5</ele>
        <time>2019-06-10T05:55:22Z</time>
      </trkpt>
      <trkpt lat="40.6394020" lon="-7.8543030">
        <ele>441.3</ele>
        <time>2019-06-10T05:55:26Z</time>
      </trkpt>
      <trkpt lat="40.6393920" lon="-7.8543390">
        <ele>441.6</ele>
        <time>2019-06-10T05:55:27Z</time>
      </trkpt>
      <trkpt lat="40.6393850" lon="-7.8543750">
        <ele>441.8</ele>
        <time>2019-06-10T05:55:28Z</time>
      </trkpt>
      <trkpt lat="40.6393770" lon="-7.8544160">
        <ele>442.2</ele>
        <time>2019-06-10T05:55:29Z</time>
      </trkpt>
      <trkpt lat="40.6393680" lon="-7.8544510">
        <ele>442.3</ele>
        <time>2019-06-10T05:55:30Z</time>
      </trkpt>
      <trkpt lat="40.6393570" lon="-7.8544850">
        <ele>442.4</ele>
        <time>2019-06-10T05:55:31Z</time>
      </trkpt>
      <trkpt lat="40.6393280" lon="-7.8545850">
        <ele>442.6</ele>
        <time>2019-06-10T05:55:34Z</time>
      </trkpt>
      <trkpt lat="40.6393490" lon="-7.8547170">
        <ele>443.0</ele>
        <time>2019-06-10T05:55:39Z</time>
      </trkpt>
      <trkpt lat="40.6393540" lon="-7.8547470">
        <ele>443.1</ele>
        <time>2019-06-10T05:55:40Z</time>
      </trkpt>
      <trkpt lat="40.6393540" lon="-7.8547810">
        <ele>443.3</ele>
        <time>2019-06-10T05:55:41Z</time>
      </trkpt>
      <trkpt lat="40.6393570" lon="-7.8548160">
        <ele>443.5</ele>
        <time>2019-06-10T05:55:42Z</time>
      </trkpt>
      <trkpt lat="40.6393570" lon="-7.8548500">
        <ele>443.7</ele>
        <time>2019-06-10T05:55:43Z</time>
      </trkpt>
      <trkpt lat="40.6393180" lon="-7.8551510">
        <ele>446.0</ele>
        <time>2019-06-10T05:55:52Z</time>
      </trkpt>
      <trkpt lat="40.6393510" lon="-7.8552700">
        <ele>446.8</ele>
        <time>2019-06-10T05:55:56Z</time>
      </trkpt>
      <trkpt lat="40.6393660" lon="-7.8552960">
        <ele>447.0</ele>
        <time>2019-06-10T05:55:57Z</time>
      </trkpt>
      <trkpt lat="40.6393800" lon="-7.8553230">
        <ele>447.2</ele>
        <time>2019-06-10T05:55:58Z</time>
      </trkpt>
      <trkpt lat="40.6393940" lon="-7.8553520">
        <ele>447.6</ele>
        <time>2019-06-10T05:55:59Z</time>
      </trkpt>
      <trkpt lat="40.6394090" lon="-7.8553790">
        <ele>447.7</ele>
        <time>2019-06-10T05:56:00Z</time>
      </trkpt>
      <trkpt lat="40.6395080" lon="-7.8555540">
        <ele>448.7</ele>
        <time>2019-06-10T05:56:07Z</time>
      </trkpt>
      <trkpt lat="40.6395410" lon="-7.8556020">
        <ele>449.0</ele>
        <time>2019-06-10T05:56:09Z</time>
      </trkpt>
      <trkpt lat="40.6395590" lon="-7.8556280">
        <ele>449.2</ele>
        <time>2019-06-10T05:56:10Z</time>
      </trkpt>
      <trkpt lat="40.6395770" lon="-7.8556520">
        <ele>449.3</ele>
        <time>2019-06-10T05:56:11Z</time>
      </trkpt>
      <trkpt lat="40.6395940" lon="-7.8556780">
        <ele>449.5</ele>
        <time>2019-06-10T05:56:12Z</time>
      </trkpt>
      <trkpt lat="40.6396090" lon="-7.8557050">
        <ele>449.6</ele>
        <time>2019-06-10T05:56:13Z</time>
      </trkpt>
      <trkpt lat="40.6396500" lon="-7.8557870">
        <ele>450.1</ele>
        <time>2019-06-10T05:56:16Z</time>
      </trkpt>
      <trkpt lat="40.6397980" lon="-7.8560940">
        <ele>451.8</ele>
        <time>2019-06-10T05:56:27Z</time>
      </trkpt>
      <trkpt lat="40.6398100" lon="-7.8561250">
        <ele>452.0</ele>
        <time>2019-06-10T05:56:28Z</time>
      </trkpt>
      <trkpt lat="40.6398240" lon="-7.8561560">
        <ele>452.2</ele>
        <time>2019-06-10T05:56:29Z</time>
      </trkpt>
      <trkpt lat="40.6398370" lon="-7.8561860">
        <ele>452.3</ele>
        <time>2019-06-10T05:56:30Z</time>
      </trkpt>
      <trkpt lat="40.6398490" lon="-7.8562180">
        <ele>452.5</ele>
        <time>2019-06-10T05:56:31Z</time>
      </trkpt>
      <trkpt lat="40.6398880" lon="-7.8564230">
        <ele>453.5</ele>
        <time>2019-06-10T05:56:37Z</time>
      </trkpt>
      <trkpt lat="40.6398940" lon="-7.8564550">
        <ele>453.7</ele>
        <time>2019-06-10T05:56:38Z</time>
      </trkpt>
      <trkpt lat="40.6398990" lon="-7.8564830">
        <ele>453.8</ele>
        <time>2019-06-10T05:56:39Z</time>
      </trkpt>
      <trkpt lat="40.6399030" lon="-7.8565090">
        <ele>453.9</ele>
        <time>2019-06-10T05:56:40Z</time>
      </trkpt>
      <trkpt lat="40.6399110" lon="-7.8565450">
        <ele>454.0</ele>
        <time>2019-06-10T05:56:41Z</time>
      </trkpt>
      <trkpt lat="40.6399270" lon="-7.8566810">
        <ele>454.5</ele>
        <time>2019-06-10T05:56:45Z</time>
      </trkpt>
      <trkpt lat="40.6399550" lon="-7.8569100">
        <ele>455.4</ele>
        <time>2019-06-10T05:56:52Z</time>
      </trkpt>
      <trkpt lat="40.6399590" lon="-7.8569820">
        <ele>455.8</ele>
        <time>2019-06-10T05:56:54Z</time>
      </trkpt>
      <trkpt lat="40.6399640" lon="-7.8570130">
        <ele>456.0</ele>
        <time>2019-06-10T05:56:55Z</time>
      </trkpt>
      <trkpt lat="40.6399700" lon="-7.8570460">
        <ele>456.1</ele>
        <time>2019-06-10T05:56:56Z</time>
      </trkpt>
      <trkpt lat="40.6399730" lon="-7.8570800">
        <ele>456.2</ele>
        <time>2019-06-10T05:56:57Z</time>
      </trkpt>
      <trkpt lat="40.6399770" lon="-7.8571150">
        <ele>456.4</ele>
        <time>2019-06-10T05:56:58Z</time>
      </trkpt>
      <trkpt lat="40.6399850" lon="-7.8572150">
        <ele>456.8</ele>
        <time>2019-06-10T05:57:01Z</time>
      </trkpt>
      <trkpt lat="40.6400060" lon="-7.8575560">
        <ele>458.5</ele>
        <time>2019-06-10T05:57:11Z</time>
      </trkpt>
      <trkpt lat="40.6400030" lon="-7.8576250">
        <ele>458.8</ele>
        <time>2019-06-10T05:57:13Z</time>
      </trkpt>
      <trkpt lat="40.6400070" lon="-7.8576630">
        <ele>459.1</ele>
        <time>2019-06-10T05:57:14Z</time>
      </trkpt>
      <trkpt lat="40.6400110" lon="-7.8576980">
        <ele>459.2</ele>
        <time>2019-06-10T05:57:15Z</time>
      </trkpt>
      <trkpt lat="40.6400150" lon="-7.8577310">
        <ele>459.4</ele>
        <time>2019-06-10T05:57:16Z</time>
      </trkpt>
      <trkpt lat="40.6400160" lon="-7.8577650">
        <ele>459.6</ele>
        <time>2019-06-10T05:57:17Z</time>
      </trkpt>
      <trkpt lat="40.6400230" lon="-7.8578990">
        <ele>460.2</ele>
        <time>2019-06-10T05:57:21Z</time>
      </trkpt>
      <trkpt lat="40.6400260" lon="-7.8580030">
        <ele>460.7</ele>
        <time>2019-06-10T05:57:24Z</time>
      </trkpt>
      <trkpt lat="40.6400270" lon="-7.8580370">
        <ele>460.8</ele>
        <time>2019-06-10T05:57:25Z</time>
      </trkpt>
      <trkpt lat="40.6400310" lon="-7.8580720">
        <ele>461.0</ele>
        <time>2019-06-10T05:57:26Z</time>
      </trkpt>
      <trkpt lat="40.6400350" lon="-7.8581070">
        <ele>461.1</ele>
        <time>2019-06-10T05:57:27Z</time>
      </trkpt>
      <trkpt lat="40.6400380" lon="-7.8581420">
        <ele>461.3</ele>
        <time>2019-06-10T05:57:28Z</time>
      </trkpt>
      <trkpt lat="40.6400470" lon="-7.8582120">
        <ele>461.5</ele>
        <time>2019-06-10T05:57:30Z</time>
      </trkpt>
      <trkpt lat="40.6400730" lon="-7.8585530">
        <ele>462.9</ele>
        <time>2019-06-10T05:57:40Z</time>
      </trkpt>
      <trkpt lat="40.6400780" lon="-7.8585860">
        <ele>463.0</ele>
        <time>2019-06-10T05:57:41Z</time>
      </trkpt>
      <trkpt lat="40.6400810" lon="-7.8586210">
        <ele>463.2</ele>
        <time>2019-06-10T05:57:42Z</time>
      </trkpt>
      <trkpt lat="40.6400850" lon="-7.8586560">
        <ele>463.3</ele>
        <time>2019-06-10T05:57:43Z</time>
      </trkpt>
      <trkpt lat="40.6400890" lon="-7.8586910">
        <ele>463.4</ele>
        <time>2019-06-10T05:57:44Z</time>
      </trkpt>
      <trkpt lat="40.6400930" lon="-7.8587250">
        <ele>463.5</ele>
        <time>2019-06-10T05:57:45Z</time>
      </trkpt>
      <trkpt lat="40.6401690" lon="-7.8591010">
        <ele>465.0</ele>
        <time>2019-06-10T05:57:56Z</time>
      </trkpt>
      <trkpt lat="40.6401920" lon="-7.8591700">
        <ele>465.4</ele>
        <time>2019-06-10T05:57:58Z</time>
      </trkpt>
      <trkpt lat="40.6402020" lon="-7.8592030">
        <ele>465.5</ele>
        <time>2019-06-10T05:57:59Z</time>
      </trkpt>
      <trkpt lat="40.6402950" lon="-7.8594450">
        <ele>466.1</ele>
        <time>2019-06-10T05:58:06Z</time>
      </trkpt>
      <trkpt lat="40.6403930" lon="-7.8596120">
        <ele>466.1</ele>
        <time>2019-06-10T05:58:11Z</time>
      </trkpt>
      <trkpt lat="40.6404130" lon="-7.8596450">
        <ele>466.1</ele>
        <time>2019-06-10T05:58:12Z</time>
      </trkpt>
      <trkpt lat="40.6404310" lon="-7.8596800">
        <ele>466.1</ele>
        <time>2019-06-10T05:58:13Z</time>
      </trkpt>
      <trkpt lat="40.6404470" lon="-7.8597120">
        <ele>466.1</ele>
        <time>2019-06-10T05:58:14Z</time>
      </trkpt>
      <trkpt lat="40.6404810" lon="-7.8597810">
        <ele>466.1</ele>
        <time>2019-06-10T05:58:16Z</time>
      </trkpt>
      <trkpt lat="40.6406370" lon="-7.8600470">
        <ele>466.0</ele>
        <time>2019-06-10T05:58:24Z</time>
      </trkpt>
      <trkpt lat="40.6407560" lon="-7.8602730">
        <ele>466.0</ele>
        <time>2019-06-10T05:58:31Z</time>
      </trkpt>
      <trkpt lat="40.6409340" lon="-7.8605320">
        <ele>466.2</ele>
        <time>2019-06-10T05:58:40Z</time>
      </trkpt>
      <trkpt lat="40.6411190" lon="-7.8608480">
        <ele>466.3</ele>
        <time>2019-06-10T05:58:49Z</time>
      </trkpt>
      <trkpt lat="40.6413680" lon="-7.8612290">
        <ele>466.6</ele>
        <time>2019-06-10T05:59:00Z</time>
      </trkpt>
      <trkpt lat="40.6414870" lon="-7.8614060">
        <ele>466.7</ele>
        <time>2019-06-10T05:59:06Z</time>
      </trkpt>
      <trkpt lat="40.6415260" lon="-7.8614650">
        <ele>466.8</ele>
        <time>2019-06-10T05:59:08Z</time>
      </trkpt>
      <trkpt lat="40.6415440" lon="-7.8614950">
        <ele>466.9</ele>
        <time>2019-06-10T05:59:09Z</time>
      </trkpt>
      <trkpt lat="40.6415640" lon="-7.8615260">
        <ele>466.9</ele>
        <time>2019-06-10T05:59:10Z</time>
      </trkpt>
      <trkpt lat="40.6415850" lon="-7.8615560">
        <ele>466.9</ele>
        <time>2019-06-10T05:59:11Z</time>
      </trkpt>
      <trkpt lat="40.6417980" lon="-7.8618820">
        <ele>467.3</ele>
        <time>2019-06-10T05:59:20Z</time>
      </trkpt>
      <trkpt lat="40.6420630" lon="-7.8623440">
        <ele>467.7</ele>
        <time>2019-06-10T05:59:32Z</time>
      </trkpt>
      <trkpt lat="40.6423250" lon="-7.8627500">
        <ele>468.2</ele>
        <time>2019-06-10T05:59:43Z</time>
      </trkpt>
      <trkpt lat="40.6425660" lon="-7.8631290">
        <ele>468.6</ele>
        <time>2019-06-10T05:59:53Z</time>
      </trkpt>
      <trkpt lat="40.6427850" lon="-7.8634850">
        <ele>468.7</ele>
        <time>2019-06-10T06:00:02Z</time>
      </trkpt>
      <trkpt lat="40.6430490" lon="-7.8638780">
        <ele>469.2</ele>
        <time>2019-06-10T06:00:12Z</time>
      </trkpt>
      <trkpt lat="40.6433020" lon="-7.8642840">
        <ele>470.4</ele>
        <time>2019-06-10T06:00:22Z</time>
      </trkpt>
      <trkpt lat="40.6433260" lon="-7.8643250">
        <ele>470.6</ele>
        <time>2019-06-10T06:00:23Z</time>
      </trkpt>
      <trkpt lat="40.6433520" lon="-7.8643660">
        <ele>470.8</ele>
        <time>2019-06-10T06:00:24Z</time>
      </trkpt>
      <trkpt lat="40.6433760" lon="-7.8644060">
        <ele>470.9</ele>
        <time>2019-06-10T06:00:25Z</time>
      </trkpt>
      <trkpt lat="40.6433990" lon="-7.8644430">
        <ele>471.0</ele>
        <time>2019-06-10T06:00:26Z</time>
      </trkpt>
      <trkpt lat="40.6436310" lon="-7.8648440">
        <ele>472.0</ele>
        <time>2019-06-10T06:00:36Z</time>
      </trkpt>
      <trkpt lat="40.6437760" lon="-7.8650930">
        <ele>472.6</ele>
        <time>2019-06-10T06:00:42Z</time>
      </trkpt>
      <trkpt lat="40.6438000" lon="-7.8651340">
        <ele>472.6</ele>
        <time>2019-06-10T06:00:43Z</time>
      </trkpt>
      <trkpt lat="40.6438230" lon="-7.8651730">
        <ele>472.7</ele>
        <time>2019-06-10T06:00:44Z</time>
      </trkpt>
      <trkpt lat="40.6438440" lon="-7.8652120">
        <ele>472.8</ele>
        <time>2019-06-10T06:00:45Z</time>
      </trkpt>
      <trkpt lat="40.6438650" lon="-7.8652480">
        <ele>472.9</ele>
        <time>2019-06-10T06:00:46Z</time>
      </trkpt>
      <trkpt lat="40.6440240" lon="-7.8655050">
        <ele>473.6</ele>
        <time>2019-06-10T06:00:54Z</time>
      </trkpt>
      <trkpt lat="40.6440430" lon="-7.8655320">
        <ele>473.7</ele>
        <time>2019-06-10T06:00:55Z</time>
      </trkpt>
      <trkpt lat="40.6440640" lon="-7.8655650">
        <ele>473.8</ele>
        <time>2019-06-10T06:00:56Z</time>
      </trkpt>
      <trkpt lat="40.6440850" lon="-7.8655970">
        <ele>473.9</ele>
        <time>2019-06-10T06:00:57Z</time>
      </trkpt>
      <trkpt lat="40.6441080" lon="-7.8656300">
        <ele>473.9</ele>
        <time>2019-06-10T06:00:58Z</time>
      </trkpt>
      <trkpt lat="40.6442730" lon="-7.8658920">
        <ele>474.3</ele>
        <time>2019-06-10T06:01:05Z</time>
      </trkpt>
      <trkpt lat="40.6445340" lon="-7.8663290">
        <ele>473.5</ele>
        <time>2019-06-10T06:01:15Z</time>
      </trkpt>
      <trkpt lat="40.6447910" lon="-7.8667570">
        <ele>472.3</ele>
        <time>2019-06-10T06:01:23Z</time>
      </trkpt>
      <trkpt lat="40.6451020" lon="-7.8672730">
        <ele>471.3</ele>
        <time>2019-06-10T06:01:32Z</time>
      </trkpt>
      <trkpt lat="40.6451410" lon="-7.8673300">
        <ele>471.1</ele>
        <time>2019-06-10T06:01:33Z</time>
      </trkpt>
      <trkpt lat="40.6451780" lon="-7.8673870">
        <ele>470.9</ele>
        <time>2019-06-10T06:01:34Z</time>
      </trkpt>
      <trkpt lat="40.6452160" lon="-7.8674440">
        <ele>470.7</ele>
        <time>2019-06-10T06:01:35Z</time>
      </trkpt>
      <trkpt lat="40.6452510" lon="-7.8675040">
        <ele>470.5</ele>
        <time>2019-06-10T06:01:36Z</time>
      </trkpt>
      <trkpt lat="40.6454800" lon="-7.8678620">
        <ele>469.7</ele>
        <time>2019-06-10T06:01:42Z</time>
      </trkpt>
      <trkpt lat="40.6456970" lon="-7.8682310">
        <ele>469.1</ele>
        <time>2019-06-10T06:01:48Z</time>
      </trkpt>
      <trkpt lat="40.6457340" lon="-7.8682900">
        <ele>469.0</ele>
        <time>2019-06-10T06:01:49Z</time>
      </trkpt>
      <trkpt lat="40.6457740" lon="-7.8683510">
        <ele>468.8</ele>
        <time>2019-06-10T06:01:50Z</time>
      </trkpt>
      <trkpt lat="40.6458140" lon="-7.8684130">
        <ele>468.7</ele>
        <time>2019-06-10T06:01:51Z</time>
      </trkpt>
      <trkpt lat="40.6458530" lon="-7.8684760">
        <ele>468.6</ele>
        <time>2019-06-10T06:01:52Z</time>
      </trkpt>
      <trkpt lat="40.6460970" lon="-7.8688550">
        <ele>467.9</ele>
        <time>2019-06-10T06:01:58Z</time>
      </trkpt>
      <trkpt lat="40.6461550" lon="-7.8689000">
        <ele>467.5</ele>
        <time>2019-06-10T06:01:59Z</time>
      </trkpt>
      <trkpt lat="40.6462120" lon="-7.8689310">
        <ele>467.5</ele>
        <time>2019-06-10T06:02:00Z</time>
      </trkpt>
      <trkpt lat="40.6462680" lon="-7.8689670">
        <ele>467.2</ele>
        <time>2019-06-10T06:02:01Z</time>
      </trkpt>
      <trkpt lat="40.6463170" lon="-7.8690160">
        <ele>466.9</ele>
        <time>2019-06-10T06:02:02Z</time>
      </trkpt>
      <trkpt lat="40.6463480" lon="-7.8690830">
        <ele>466.7</ele>
        <time>2019-06-10T06:02:03Z</time>
      </trkpt>
      <trkpt lat="40.6463730" lon="-7.8691610">
        <ele>465.2</ele>
        <time>2019-06-10T06:02:04Z</time>
      </trkpt>
      <trkpt lat="40.6464780" lon="-7.8695100">
        <ele>462.1</ele>
        <time>2019-06-10T06:02:08Z</time>
      </trkpt>
      <trkpt lat="40.6465090" lon="-7.8695940">
        <ele>461.6</ele>
        <time>2019-06-10T06:02:09Z</time>
      </trkpt>
      <trkpt lat="40.6465420" lon="-7.8696790">
        <ele>461.0</ele>
        <time>2019-06-10T06:02:10Z</time>
      </trkpt>
      <trkpt lat="40.6465720" lon="-7.8697540">
        <ele>460.6</ele>
        <time>2019-06-10T06:02:11Z</time>
      </trkpt>
      <trkpt lat="40.6466060" lon="-7.8698370">
        <ele>460.2</ele>
        <time>2019-06-10T06:02:12Z</time>
      </trkpt>
      <trkpt lat="40.6467720" lon="-7.8702410">
        <ele>461.2</ele>
        <time>2019-06-10T06:02:17Z</time>
      </trkpt>
      <trkpt lat="40.6468110" lon="-7.8703240">
        <ele>461.6</ele>
        <time>2019-06-10T06:02:18Z</time>
      </trkpt>
      <trkpt lat="40.6468460" lon="-7.8704040">
        <ele>462.0</ele>
        <time>2019-06-10T06:02:19Z</time>
      </trkpt>
      <trkpt lat="40.6468840" lon="-7.8704840">
        <ele>462.5</ele>
        <time>2019-06-10T06:02:20Z</time>
      </trkpt>
      <trkpt lat="40.6469200" lon="-7.8705610">
        <ele>463.0</ele>
        <time>2019-06-10T06:02:21Z</time>
      </trkpt>
      <trkpt lat="40.6470560" lon="-7.8708370">
        <ele>465.0</ele>
        <time>2019-06-10T06:02:25Z</time>
      </trkpt>
      <trkpt lat="40.6471280" lon="-7.8709550">
        <ele>466.0</ele>
        <time>2019-06-10T06:02:27Z</time>
      </trkpt>
      <trkpt lat="40.6471620" lon="-7.8710130">
        <ele>466.6</ele>
        <time>2019-06-10T06:02:28Z</time>
      </trkpt>
      <trkpt lat="40.6471910" lon="-7.8710700">
        <ele>466.9</ele>
        <time>2019-06-10T06:02:29Z</time>
      </trkpt>
      <trkpt lat="40.6472150" lon="-7.8711300">
        <ele>467.2</ele>
        <time>2019-06-10T06:02:30Z</time>
      </trkpt>
      <trkpt lat="40.6472400" lon="-7.8711920">
        <ele>467.6</ele>
        <time>2019-06-10T06:02:31Z</time>
      </trkpt>
      <trkpt lat="40.6472600" lon="-7.8712560">
        <ele>467.9</ele>
        <time>2019-06-10T06:02:32Z</time>
      </trkpt>
      <trkpt lat="40.6472870" lon="-7.8713850">
        <ele>468.6</ele>
        <time>2019-06-10T06:02:34Z</time>
      </trkpt>
      <trkpt lat="40.6473020" lon="-7.8714520">
        <ele>468.9</ele>
        <time>2019-06-10T06:02:35Z</time>
      </trkpt>
      <trkpt lat="40.6473190" lon="-7.8715130">
        <ele>469.1</ele>
        <time>2019-06-10T06:02:36Z</time>
      </trkpt>
      <trkpt lat="40.6473360" lon="-7.8715770">
        <ele>469.4</ele>
        <time>2019-06-10T06:02:37Z</time>
      </trkpt>
      <trkpt lat="40.6473560" lon="-7.8716400">
        <ele>469.6</ele>
        <time>2019-06-10T06:02:38Z</time>
      </trkpt>
      <trkpt lat="40.6473780" lon="-7.8717010">
        <ele>469.9</ele>
        <time>2019-06-10T06:02:39Z</time>
      </trkpt>
      <trkpt lat="40.6475400" lon="-7.8721040">
        <ele>471.7</ele>
        <time>2019-06-10T06:02:46Z</time>
      </trkpt>
      <trkpt lat="40.6475480" lon="-7.8721710">
        <ele>471.9</ele>
        <time>2019-06-10T06:02:47Z</time>
      </trkpt>
      <trkpt lat="40.6475650" lon="-7.8722330">
        <ele>472.1</ele>
        <time>2019-06-10T06:02:48Z</time>
      </trkpt>
      <trkpt lat="40.6475860" lon="-7.8722900">
        <ele>472.3</ele>
        <time>2019-06-10T06:02:49Z</time>
      </trkpt>
      <trkpt lat="40.6476120" lon="-7.8723450">
        <ele>472.5</ele>
        <time>2019-06-10T06:02:50Z</time>
      </trkpt>
      <trkpt lat="40.6477500" lon="-7.8726690">
        <ele>473.5</ele>
        <time>2019-06-10T06:02:56Z</time>
      </trkpt>
      <trkpt lat="40.6478440" lon="-7.8728920">
        <ele>474.1</ele>
        <time>2019-06-10T06:03:00Z</time>
      </trkpt>
      <trkpt lat="40.6478660" lon="-7.8729410">
        <ele>474.2</ele>
        <time>2019-06-10T06:03:01Z</time>
      </trkpt>
      <trkpt lat="40.6478890" lon="-7.8729960">
        <ele>474.4</ele>
        <time>2019-06-10T06:03:02Z</time>
      </trkpt>
      <trkpt lat="40.6479090" lon="-7.8730490">
        <ele>474.6</ele>
        <time>2019-06-10T06:03:03Z</time>
      </trkpt>
      <trkpt lat="40.6479300" lon="-7.8731060">
        <ele>474.8</ele>
        <time>2019-06-10T06:03:04Z</time>
      </trkpt>
      <trkpt lat="40.6479530" lon="-7.8731650">
        <ele>474.8</ele>
        <time>2019-06-10T06:03:05Z</time>
      </trkpt>
      <trkpt lat="40.6481270" lon="-7.8736020">
        <ele>475.0</ele>
        <time>2019-06-10T06:03:13Z</time>
      </trkpt>
      <trkpt lat="40.6481510" lon="-7.8736580">
        <ele>475.0</ele>
        <time>2019-06-10T06:03:14Z</time>
      </trkpt>
      <trkpt lat="40.6481730" lon="-7.8737120">
        <ele>475.0</ele>
        <time>2019-06-10T06:03:15Z</time>
      </trkpt>
      <trkpt lat="40.6481920" lon="-7.8737650">
        <ele>475.0</ele>
        <time>2019-06-10T06:03:16Z</time>
      </trkpt>
      <trkpt lat="40.6482160" lon="-7.8738240">
        <ele>475.0</ele>
        <time>2019-06-10T06:03:17Z</time>
      </trkpt>
      <trkpt lat="40.6484550" lon="-7.8744210">
        <ele>475.3</ele>
        <time>2019-06-10T06:03:28Z</time>
      </trkpt>
      <trkpt lat="40.6486020" lon="-7.8747250">
        <ele>475.2</ele>
        <time>2019-06-10T06:03:34Z</time>
      </trkpt>
      <trkpt lat="40.6486800" lon="-7.8747840">
        <ele>475.2</ele>
        <time>2019-06-10T06:03:36Z</time>
      </trkpt>
      <trkpt lat="40.6487470" lon="-7.8748450">
        <ele>475.3</ele>
        <time>2019-06-10T06:03:38Z</time>
      </trkpt>
      <trkpt lat="40.6487960" lon="-7.8749290">
        <ele>475.5</ele>
        <time>2019-06-10T06:03:40Z</time>
      </trkpt>
      <trkpt lat="40.6488080" lon="-7.8749820">
        <ele>475.4</ele>
        <time>2019-06-10T06:03:41Z</time>
      </trkpt>
      <trkpt lat="40.6488010" lon="-7.8751710">
        <ele>475.0</ele>
        <time>2019-06-10T06:03:44Z</time>
      </trkpt>
      <trkpt lat="40.6487930" lon="-7.8752340">
        <ele>474.8</ele>
        <time>2019-06-10T06:03:45Z</time>
      </trkpt>
      <trkpt lat="40.6487930" lon="-7.8753020">
        <ele>474.7</ele>
        <time>2019-06-10T06:03:46Z</time>
      </trkpt>
      <trkpt lat="40.6488480" lon="-7.8754950">
        <ele>474.5</ele>
        <time>2019-06-10T06:03:49Z</time>
      </trkpt>
      <trkpt lat="40.6488750" lon="-7.8755600">
        <ele>474.5</ele>
        <time>2019-06-10T06:03:50Z</time>
      </trkpt>
      <trkpt lat="40.6490680" lon="-7.8760030">
        <ele>473.5</ele>
        <time>2019-06-10T06:03:57Z</time>
      </trkpt>
      <trkpt lat="40.6491170" lon="-7.8761230">
        <ele>473.3</ele>
        <time>2019-06-10T06:03:59Z</time>
      </trkpt>
      <trkpt lat="40.6491410" lon="-7.8761840">
        <ele>473.1</ele>
        <time>2019-06-10T06:04:00Z</time>
      </trkpt>
      <trkpt lat="40.6491780" lon="-7.8762470">
        <ele>473.0</ele>
        <time>2019-06-10T06:04:01Z</time>
      </trkpt>
      <trkpt lat="40.6492110" lon="-7.8763130">
        <ele>472.9</ele>
        <time>2019-06-10T06:04:02Z</time>
      </trkpt>
      <trkpt lat="40.6492410" lon="-7.8763820">
        <ele>472.7</ele>
        <time>2019-06-10T06:04:03Z</time>
      </trkpt>
      <trkpt lat="40.6493000" lon="-7.8765270">
        <ele>472.2</ele>
        <time>2019-06-10T06:04:05Z</time>
      </trkpt>
      <trkpt lat="40.6494330" lon="-7.8768230">
        <ele>471.2</ele>
        <time>2019-06-10T06:04:09Z</time>
      </trkpt>
      <trkpt lat="40.6494630" lon="-7.8769000">
        <ele>471.0</ele>
        <time>2019-06-10T06:04:10Z</time>
      </trkpt>
      <trkpt lat="40.6494920" lon="-7.8769790">
        <ele>470.7</ele>
        <time>2019-06-10T06:04:11Z</time>
      </trkpt>
      <trkpt lat="40.6495280" lon="-7.8770630">
        <ele>470.4</ele>
        <time>2019-06-10T06:04:12Z</time>
      </trkpt>
      <trkpt lat="40.6495640" lon="-7.8771460">
        <ele>470.1</ele>
        <time>2019-06-10T06:04:13Z</time>
      </trkpt>
      <trkpt lat="40.6496720" lon="-7.8774170">
        <ele>469.2</ele>
        <time>2019-06-10T06:04:16Z</time>
      </trkpt>
      <trkpt lat="40.6497090" lon="-7.8775100">
        <ele>468.9</ele>
        <time>2019-06-10T06:04:17Z</time>
      </trkpt>
      <trkpt lat="40.6497910" lon="-7.8777000">
        <ele>468.5</ele>
        <time>2019-06-10T06:04:19Z</time>
      </trkpt>
      <trkpt lat="40.6498310" lon="-7.8777960">
        <ele>468.4</ele>
        <time>2019-06-10T06:04:20Z</time>
      </trkpt>
      <trkpt lat="40.6499220" lon="-7.8779850">
        <ele>468.3</ele>
        <time>2019-06-10T06:04:22Z</time>
      </trkpt>
      <trkpt lat="40.6499650" lon="-7.8780900">
        <ele>468.3</ele>
        <time>2019-06-10T06:04:23Z</time>
      </trkpt>
      <trkpt lat="40.6500090" lon="-7.8781930">
        <ele>468.4</ele>
        <time>2019-06-10T06:04:24Z</time>
      </trkpt>
      <trkpt lat="40.6500500" lon="-7.8782850">
        <ele>468.5</ele>
        <time>2019-06-10T06:04:25Z</time>
      </trkpt>
      <trkpt lat="40.6500900" lon="-7.8783760">
        <ele>468.7</ele>
        <time>2019-06-10T06:04:26Z</time>
      </trkpt>
      <trkpt lat="40.6501280" lon="-7.8784650">
        <ele>468.9</ele>
        <time>2019-06-10T06:04:27Z</time>
      </trkpt>
      <trkpt lat="40.6502920" lon="-7.8789530">
        <ele>470.0</ele>
        <time>2019-06-10T06:04:33Z</time>
      </trkpt>
      <trkpt lat="40.6503230" lon="-7.8790940">
        <ele>470.4</ele>
        <time>2019-06-10T06:04:35Z</time>
      </trkpt>
      <trkpt lat="40.6503500" lon="-7.8793540">
        <ele>471.2</ele>
        <time>2019-06-10T06:04:39Z</time>
      </trkpt>
      <trkpt lat="40.6503590" lon="-7.8794690">
        <ele>471.6</ele>
        <time>2019-06-10T06:04:41Z</time>
      </trkpt>
      <trkpt lat="40.6503570" lon="-7.8795230">
        <ele>471.7</ele>
        <time>2019-06-10T06:04:42Z</time>
      </trkpt>
      <trkpt lat="40.6503530" lon="-7.8795800">
        <ele>471.9</ele>
        <time>2019-06-10T06:04:43Z</time>
      </trkpt>
      <trkpt lat="40.6503500" lon="-7.8796300">
        <ele>472.1</ele>
        <time>2019-06-10T06:04:44Z</time>
      </trkpt>
      <trkpt lat="40.6503360" lon="-7.8798510">
        <ele>472.8</ele>
        <time>2019-06-10T06:04:48Z</time>
      </trkpt>
      <trkpt lat="40.6503310" lon="-7.8799010">
        <ele>473.0</ele>
        <time>2019-06-10T06:04:49Z</time>
      </trkpt>
      <trkpt lat="40.6503240" lon="-7.8799560">
        <ele>473.3</ele>
        <time>2019-06-10T06:04:50Z</time>
      </trkpt>
      <trkpt lat="40.6503150" lon="-7.8800080">
        <ele>473.5</ele>
        <time>2019-06-10T06:04:51Z</time>
      </trkpt>
      <trkpt lat="40.6503020" lon="-7.8800590">
        <ele>473.8</ele>
        <time>2019-06-10T06:04:52Z</time>
      </trkpt>
      <trkpt lat="40.6502790" lon="-7.8802110">
        <ele>474.5</ele>
        <time>2019-06-10T06:04:55Z</time>
      </trkpt>
      <trkpt lat="40.6502400" lon="-7.8805080">
        <ele>475.7</ele>
        <time>2019-06-10T06:05:01Z</time>
      </trkpt>
      <trkpt lat="40.6502330" lon="-7.8805560">
        <ele>475.7</ele>
        <time>2019-06-10T06:05:02Z</time>
      </trkpt>
      <trkpt lat="40.6502260" lon="-7.8806010">
        <ele>476.0</ele>
        <time>2019-06-10T06:05:03Z</time>
      </trkpt>
      <trkpt lat="40.6502180" lon="-7.8806490">
        <ele>476.4</ele>
        <time>2019-06-10T06:05:04Z</time>
      </trkpt>
      <trkpt lat="40.6502120" lon="-7.8806940">
        <ele>476.8</ele>
        <time>2019-06-10T06:05:05Z</time>
      </trkpt>
      <trkpt lat="40.6501670" lon="-7.8809600">
        <ele>478.1</ele>
        <time>2019-06-10T06:05:11Z</time>
      </trkpt>
      <trkpt lat="40.6501600" lon="-7.8810070">
        <ele>478.3</ele>
        <time>2019-06-10T06:05:12Z</time>
      </trkpt>
      <trkpt lat="40.6501540" lon="-7.8810510">
        <ele>478.4</ele>
        <time>2019-06-10T06:05:13Z</time>
      </trkpt>
      <trkpt lat="40.6501470" lon="-7.8810970">
        <ele>478.5</ele>
        <time>2019-06-10T06:05:14Z</time>
      </trkpt>
      <trkpt lat="40.6501380" lon="-7.8811430">
        <ele>478.8</ele>
        <time>2019-06-10T06:05:15Z</time>
      </trkpt>
      <trkpt lat="40.6501300" lon="-7.8811880">
        <ele>479.1</ele>
        <time>2019-06-10T06:05:16Z</time>
      </trkpt>
      <trkpt lat="40.6500840" lon="-7.8814590">
        <ele>480.6</ele>
        <time>2019-06-10T06:05:22Z</time>
      </trkpt>
      <trkpt lat="40.6500850" lon="-7.8815060">
        <ele>480.8</ele>
        <time>2019-06-10T06:05:23Z</time>
      </trkpt>
      <trkpt lat="40.6500790" lon="-7.8815510">
        <ele>481.0</ele>
        <time>2019-06-10T06:05:24Z</time>
      </trkpt>
      <trkpt lat="40.6500690" lon="-7.8815890">
        <ele>481.2</ele>
        <time>2019-06-10T06:05:25Z</time>
      </trkpt>
      <trkpt lat="40.6500650" lon="-7.8816350">
        <ele>481.4</ele>
        <time>2019-06-10T06:05:26Z</time>
      </trkpt>
      <trkpt lat="40.6500160" lon="-7.8819500">
        <ele>482.2</ele>
        <time>2019-06-10T06:05:33Z</time>
      </trkpt>
      <trkpt lat="40.6500090" lon="-7.8819940">
        <ele>482.3</ele>
        <time>2019-06-10T06:05:34Z</time>
      </trkpt>
      <trkpt lat="40.6500030" lon="-7.8820400">
        <ele>482.4</ele>
        <time>2019-06-10T06:05:35Z</time>
      </trkpt>
      <trkpt lat="40.6500010" lon="-7.8820870">
        <ele>482.6</ele>
        <time>2019-06-10T06:05:36Z</time>
      </trkpt>
      <trkpt lat="40.6499990" lon="-7.8821330">
        <ele>482.7</ele>
        <time>2019-06-10T06:05:37Z</time>
      </trkpt>
      <trkpt lat="40.6499750" lon="-7.8824600">
        <ele>483.5</ele>
        <time>2019-06-10T06:05:44Z</time>
      </trkpt>
      <trkpt lat="40.6499720" lon="-7.8825050">
        <ele>483.7</ele>
        <time>2019-06-10T06:05:45Z</time>
      </trkpt>
      <trkpt lat="40.6499700" lon="-7.8825500">
        <ele>483.7</ele>
        <time>2019-06-10T06:05:46Z</time>
      </trkpt>
      <trkpt lat="40.6499700" lon="-7.8825960">
        <ele>483.8</ele>
        <time>2019-06-10T06:05:47Z</time>
      </trkpt>
      <trkpt lat="40.6499700" lon="-7.8826430">
        <ele>483.9</ele>
        <time>2019-06-10T06:05:48Z</time>
      </trkpt>
      <trkpt lat="40.6499770" lon="-7.8828710">
        <ele>484.2</ele>
        <time>2019-06-10T06:05:53Z</time>
      </trkpt>
      <trkpt lat="40.6499800" lon="-7.8829220">
        <ele>484.3</ele>
        <time>2019-06-10T06:05:54Z</time>
      </trkpt>
      <trkpt lat="40.6499840" lon="-7.8829710">
        <ele>484.4</ele>
        <time>2019-06-10T06:05:55Z</time>
      </trkpt>
      <trkpt lat="40.6499900" lon="-7.8830180">
        <ele>484.4</ele>
        <time>2019-06-10T06:05:56Z</time>
      </trkpt>
      <trkpt lat="40.6499970" lon="-7.8830630">
        <ele>484.5</ele>
        <time>2019-06-10T06:05:57Z</time>
      </trkpt>
      <trkpt lat="40.6501050" lon="-7.8834930">
        <ele>485.2</ele>
        <time>2019-06-10T06:06:06Z</time>
      </trkpt>
      <trkpt lat="40.6501780" lon="-7.8837360">
        <ele>485.6</ele>
        <time>2019-06-10T06:06:11Z</time>
      </trkpt>
      <trkpt lat="40.6501940" lon="-7.8837840">
        <ele>485.6</ele>
        <time>2019-06-10T06:06:12Z</time>
      </trkpt>
      <trkpt lat="40.6502100" lon="-7.8838270">
        <ele>485.7</ele>
        <time>2019-06-10T06:06:13Z</time>
      </trkpt>
      <trkpt lat="40.6502300" lon="-7.8838690">
        <ele>485.8</ele>
        <time>2019-06-10T06:06:14Z</time>
      </trkpt>
      <trkpt lat="40.6502520" lon="-7.8839150">
        <ele>485.9</ele>
        <time>2019-06-10T06:06:15Z</time>
      </trkpt>
      <trkpt lat="40.6502910" lon="-7.8840020">
        <ele>486.0</ele>
        <time>2019-06-10T06:06:17Z</time>
      </trkpt>
      <trkpt lat="40.6505320" lon="-7.8845780">
        <ele>487.1</ele>
        <time>2019-06-10T06:06:29Z</time>
      </trkpt>
      <trkpt lat="40.6506780" lon="-7.8849050">
        <ele>487.8</ele>
        <time>2019-06-10T06:06:36Z</time>
      </trkpt>
      <trkpt lat="40.6507000" lon="-7.8849520">
        <ele>488.0</ele>
        <time>2019-06-10T06:06:37Z</time>
      </trkpt>
      <trkpt lat="40.6507200" lon="-7.8849970">
        <ele>488.1</ele>
        <time>2019-06-10T06:06:38Z</time>
      </trkpt>
      <trkpt lat="40.6507440" lon="-7.8850440">
        <ele>488.2</ele>
        <time>2019-06-10T06:06:39Z</time>
      </trkpt>
      <trkpt lat="40.6507670" lon="-7.8850910">
        <ele>488.3</ele>
        <time>2019-06-10T06:06:40Z</time>
      </trkpt>
      <trkpt lat="40.6509850" lon="-7.8855980">
        <ele>489.4</ele>
        <time>2019-06-10T06:06:51Z</time>
      </trkpt>
      <trkpt lat="40.6511190" lon="-7.8859430">
        <ele>490.3</ele>
        <time>2019-06-10T06:06:58Z</time>
      </trkpt>
      <trkpt lat="40.6511540" lon="-7.8860370">
        <ele>490.5</ele>
        <time>2019-06-10T06:07:00Z</time>
      </trkpt>
      <trkpt lat="40.6511710" lon="-7.8860810">
        <ele>490.7</ele>
        <time>2019-06-10T06:07:01Z</time>
      </trkpt>
      <trkpt lat="40.6511840" lon="-7.8861190">
        <ele>490.8</ele>
        <time>2019-06-10T06:07:02Z</time>
      </trkpt>
      <trkpt lat="40.6511980" lon="-7.8861500">
        <ele>490.9</ele>
        <time>2019-06-10T06:07:03Z</time>
      </trkpt>
      <trkpt lat="40.6512120" lon="-7.8861710">
        <ele>491.1</ele>
        <time>2019-06-10T06:07:04Z</time>
      </trkpt>
      <trkpt lat="40.6512370" lon="-7.8862350">
        <ele>491.2</ele>
        <time>2019-06-10T06:07:10Z</time>
      </trkpt>
      <trkpt lat="40.6512360" lon="-7.8862350">
        <ele>491.2</ele>
        <time>2019-06-10T06:07:11Z</time>
      </trkpt>
      <trkpt lat="40.6512380" lon="-7.8862380">
        <ele>491.2</ele>
        <time>2019-06-10T06:07:22Z</time>
      </trkpt>
      <trkpt lat="40.6512700" lon="-7.8862910">
        <ele>491.4</ele>
        <time>2019-06-10T06:07:25Z</time>
      </trkpt>
      <trkpt lat="40.6513870" lon="-7.8865020">
        <ele>491.9</ele>
        <time>2019-06-10T06:07:32Z</time>
      </trkpt>
      <trkpt lat="40.6514000" lon="-7.8865450">
        <ele>492.0</ele>
        <time>2019-06-10T06:07:33Z</time>
      </trkpt>
      <trkpt lat="40.6514120" lon="-7.8865850">
        <ele>492.4</ele>
        <time>2019-06-10T06:07:34Z</time>
      </trkpt>
      <trkpt lat="40.6514240" lon="-7.8866260">
        <ele>492.6</ele>
        <time>2019-06-10T06:07:35Z</time>
      </trkpt>
      <trkpt lat="40.6514360" lon="-7.8866610">
        <ele>492.7</ele>
        <time>2019-06-10T06:07:36Z</time>
      </trkpt>
      <trkpt lat="40.6515170" lon="-7.8868640">
        <ele>493.4</ele>
        <time>2019-06-10T06:07:41Z</time>
      </trkpt>
      <trkpt lat="40.6515350" lon="-7.8869040">
        <ele>493.5</ele>
        <time>2019-06-10T06:07:42Z</time>
      </trkpt>
      <trkpt lat="40.6515530" lon="-7.8869460">
        <ele>493.6</ele>
        <time>2019-06-10T06:07:43Z</time>
      </trkpt>
      <trkpt lat="40.6515740" lon="-7.8869870">
        <ele>493.7</ele>
        <time>2019-06-10T06:07:44Z</time>
      </trkpt>
      <trkpt lat="40.6515940" lon="-7.8870320">
        <ele>493.8</ele>
        <time>2019-06-10T06:07:45Z</time>
      </trkpt>
      <trkpt lat="40.6516100" lon="-7.8870710">
        <ele>493.9</ele>
        <time>2019-06-10T06:07:46Z</time>
      </trkpt>
      <trkpt lat="40.6516890" lon="-7.8872430">
        <ele>495.3</ele>
        <time>2019-06-10T06:07:50Z</time>
      </trkpt>
      <trkpt lat="40.6518210" lon="-7.8874820">
        <ele>497.3</ele>
        <time>2019-06-10T06:07:56Z</time>
      </trkpt>
      <trkpt lat="40.6518450" lon="-7.8875200">
        <ele>497.6</ele>
        <time>2019-06-10T06:07:57Z</time>
      </trkpt>
      <trkpt lat="40.6518650" lon="-7.8875640">
        <ele>498.0</ele>
        <time>2019-06-10T06:07:58Z</time>
      </trkpt>
      <trkpt lat="40.6518900" lon="-7.8875970">
        <ele>498.3</ele>
        <time>2019-06-10T06:07:59Z</time>
      </trkpt>
      <trkpt lat="40.6519140" lon="-7.8876330">
        <ele>498.6</ele>
        <time>2019-06-10T06:08:00Z</time>
      </trkpt>
      <trkpt lat="40.6519390" lon="-7.8876670">
        <ele>498.9</ele>
        <time>2019-06-10T06:08:01Z</time>
      </trkpt>
      <trkpt lat="40.6520660" lon="-7.8878210">
        <ele>500.4</ele>
        <time>2019-06-10T06:08:06Z</time>
      </trkpt>
      <trkpt lat="40.6520920" lon="-7.8878520">
        <ele>500.7</ele>
        <time>2019-06-10T06:08:07Z</time>
      </trkpt>
      <trkpt lat="40.6521180" lon="-7.8878800">
        <ele>500.9</ele>
        <time>2019-06-10T06:08:08Z</time>
      </trkpt>
      <trkpt lat="40.6521460" lon="-7.8879140">
        <ele>501.2</ele>
        <time>2019-06-10T06:08:09Z</time>
      </trkpt>
      <trkpt lat="40.6521730" lon="-7.8879440">
        <ele>501.5</ele>
        <time>2019-06-10T06:08:10Z</time>
      </trkpt>
      <trkpt lat="40.6523380" lon="-7.8880880">
        <ele>502.8</ele>
        <time>2019-06-10T06:08:15Z</time>
      </trkpt>
      <trkpt lat="40.6523670" lon="-7.8881160">
        <ele>503.0</ele>
        <time>2019-06-10T06:08:16Z</time>
      </trkpt>
      <trkpt lat="40.6523980" lon="-7.8881450">
        <ele>503.2</ele>
        <time>2019-06-10T06:08:17Z</time>
      </trkpt>
      <trkpt lat="40.6524260" lon="-7.8881750">
        <ele>503.4</ele>
        <time>2019-06-10T06:08:18Z</time>
      </trkpt>
      <trkpt lat="40.6524550" lon="-7.8882040">
        <ele>503.6</ele>
        <time>2019-06-10T06:08:19Z</time>
      </trkpt>
      <trkpt lat="40.6526840" lon="-7.8883840">
        <ele>504.3</ele>
        <time>2019-06-10T06:08:26Z</time>
      </trkpt>
      <trkpt lat="40.6527170" lon="-7.8884040">
        <ele>504.3</ele>
        <time>2019-06-10T06:08:27Z</time>
      </trkpt>
      <trkpt lat="40.6527500" lon="-7.8884240">
        <ele>504.2</ele>
        <time>2019-06-10T06:08:28Z</time>
      </trkpt>
      <trkpt lat="40.6527890" lon="-7.8884440">
        <ele>504.2</ele>
        <time>2019-06-10T06:08:29Z</time>
      </trkpt>
      <trkpt lat="40.6528220" lon="-7.8884660">
        <ele>504.2</ele>
        <time>2019-06-10T06:08:30Z</time>
      </trkpt>
      <trkpt lat="40.6528920" lon="-7.8885070">
        <ele>504.1</ele>
        <time>2019-06-10T06:08:32Z</time>
      </trkpt>
      <trkpt lat="40.6530460" lon="-7.8885840">
        <ele>504.2</ele>
        <time>2019-06-10T06:08:36Z</time>
      </trkpt>
      <trkpt lat="40.6532440" lon="-7.8887090">
        <ele>504.6</ele>
        <time>2019-06-10T06:08:41Z</time>
      </trkpt>
      <trkpt lat="40.6533060" lon="-7.8888000">
        <ele>504.8</ele>
        <time>2019-06-10T06:08:43Z</time>
      </trkpt>
      <trkpt lat="40.6533650" lon="-7.8890500">
        <ele>505.0</ele>
        <time>2019-06-10T06:08:47Z</time>
      </trkpt>
      <trkpt lat="40.6533680" lon="-7.8891840">
        <ele>504.9</ele>
        <time>2019-06-10T06:08:49Z</time>
      </trkpt>
      <trkpt lat="40.6533740" lon="-7.8895980">
        <ele>503.9</ele>
        <time>2019-06-10T06:08:55Z</time>
      </trkpt>
      <trkpt lat="40.6534930" lon="-7.8902450">
        <ele>501.2</ele>
        <time>2019-06-10T06:09:04Z</time>
      </trkpt>
      <trkpt lat="40.6536200" lon="-7.8909360">
        <ele>498.5</ele>
        <time>2019-06-10T06:09:13Z</time>
      </trkpt>
      <trkpt lat="40.6536490" lon="-7.8910860">
        <ele>498.1</ele>
        <time>2019-06-10T06:09:15Z</time>
      </trkpt>
      <trkpt lat="40.6536640" lon="-7.8911670">
        <ele>497.9</ele>
        <time>2019-06-10T06:09:16Z</time>
      </trkpt>
      <trkpt lat="40.6536780" lon="-7.8912470">
        <ele>497.7</ele>
        <time>2019-06-10T06:09:17Z</time>
      </trkpt>
      <trkpt lat="40.6536900" lon="-7.8913230">
        <ele>497.5</ele>
        <time>2019-06-10T06:09:18Z</time>
      </trkpt>
      <trkpt lat="40.6537040" lon="-7.8914020">
        <ele>497.9</ele>
        <time>2019-06-10T06:09:19Z</time>
      </trkpt>
      <trkpt lat="40.6537510" lon="-7.8916470">
        <ele>498.8</ele>
        <time>2019-06-10T06:09:22Z</time>
      </trkpt>
      <trkpt lat="40.6539110" lon="-7.8923790">
        <ele>500.8</ele>
        <time>2019-06-10T06:09:31Z</time>
      </trkpt>
      <trkpt lat="40.6539240" lon="-7.8924660">
        <ele>501.1</ele>
        <time>2019-06-10T06:09:32Z</time>
      </trkpt>
      <trkpt lat="40.6539360" lon="-7.8925530">
        <ele>501.0</ele>
        <time>2019-06-10T06:09:33Z</time>
      </trkpt>
      <trkpt lat="40.6539530" lon="-7.8926420">
        <ele>500.8</ele>
        <time>2019-06-10T06:09:34Z</time>
      </trkpt>
      <trkpt lat="40.6539670" lon="-7.8927340">
        <ele>500.7</ele>
        <time>2019-06-10T06:09:35Z</time>
      </trkpt>
      <trkpt lat="40.6539800" lon="-7.8928200">
        <ele>500.6</ele>
        <time>2019-06-10T06:09:36Z</time>
      </trkpt>
      <trkpt lat="40.6540820" lon="-7.8933370">
        <ele>499.5</ele>
        <time>2019-06-10T06:09:42Z</time>
      </trkpt>
      <trkpt lat="40.6542160" lon="-7.8940350">
        <ele>498.3</ele>
        <time>2019-06-10T06:09:50Z</time>
      </trkpt>
      <trkpt lat="40.6543130" lon="-7.8945560">
        <ele>497.2</ele>
        <time>2019-06-10T06:09:56Z</time>
      </trkpt>
      <trkpt lat="40.6543300" lon="-7.8946450">
        <ele>497.0</ele>
        <time>2019-06-10T06:09:57Z</time>
      </trkpt>
      <trkpt lat="40.6543480" lon="-7.8947340">
        <ele>496.9</ele>
        <time>2019-06-10T06:09:58Z</time>
      </trkpt>
      <trkpt lat="40.6543650" lon="-7.8948230">
        <ele>496.7</ele>
        <time>2019-06-10T06:09:59Z</time>
      </trkpt>
      <trkpt lat="40.6543830" lon="-7.8949150">
        <ele>496.6</ele>
        <time>2019-06-10T06:10:00Z</time>
      </trkpt>
      <trkpt lat="40.6545260" lon="-7.8956300">
        <ele>496.4</ele>
        <time>2019-06-10T06:10:08Z</time>
      </trkpt>
      <trkpt lat="40.6546160" lon="-7.8960650">
        <ele>496.5</ele>
        <time>2019-06-10T06:10:13Z</time>
      </trkpt>
      <trkpt lat="40.6547710" lon="-7.8968270">
        <ele>497.3</ele>
        <time>2019-06-10T06:10:22Z</time>
      </trkpt>
      <trkpt lat="40.6548100" lon="-7.8970640">
        <ele>497.6</ele>
        <time>2019-06-10T06:10:25Z</time>
      </trkpt>
      <trkpt lat="40.6549510" lon="-7.8977950">
        <ele>497.2</ele>
        <time>2019-06-10T06:10:34Z</time>
      </trkpt>
      <trkpt lat="40.6549820" lon="-7.8979550">
        <ele>496.9</ele>
        <time>2019-06-10T06:10:36Z</time>
      </trkpt>
      <trkpt lat="40.6551250" lon="-7.8986600">
        <ele>496.0</ele>
        <time>2019-06-10T06:10:45Z</time>
      </trkpt>
      <trkpt lat="40.6551590" lon="-7.8988200">
        <ele>495.9</ele>
        <time>2019-06-10T06:10:47Z</time>
      </trkpt>
      <trkpt lat="40.6551910" lon="-7.8989810">
        <ele>495.9</ele>
        <time>2019-06-10T06:10:49Z</time>
      </trkpt>
      <trkpt lat="40.6552060" lon="-7.8990610">
        <ele>495.9</ele>
        <time>2019-06-10T06:10:50Z</time>
      </trkpt>
      <trkpt lat="40.6552210" lon="-7.8991470">
        <ele>495.9</ele>
        <time>2019-06-10T06:10:51Z</time>
      </trkpt>
      <trkpt lat="40.6552360" lon="-7.8992340">
        <ele>495.9</ele>
        <time>2019-06-10T06:10:52Z</time>
      </trkpt>
      <trkpt lat="40.6552510" lon="-7.8993200">
        <ele>495.7</ele>
        <time>2019-06-10T06:10:53Z</time>
      </trkpt>
      <trkpt lat="40.6552940" lon="-7.8995420">
        <ele>495.4</ele>
        <time>2019-06-10T06:10:56Z</time>
      </trkpt>
      <trkpt lat="40.6553400" lon="-7.8996910">
        <ele>495.2</ele>
        <time>2019-06-10T06:11:00Z</time>
      </trkpt>
      <trkpt lat="40.6553530" lon="-7.8997080">
        <ele>495.4</ele>
        <time>2019-06-10T06:11:02Z</time>
      </trkpt>
      <trkpt lat="40.6553620" lon="-7.8997280">
        <ele>495.4</ele>
        <time>2019-06-10T06:11:14Z</time>
      </trkpt>
      <trkpt lat="40.6553670" lon="-7.8997250">
        <ele>495.6</ele>
        <time>2019-06-10T06:11:15Z</time>
      </trkpt>
      <trkpt lat="40.6554490" lon="-7.8998590">
        <ele>495.3</ele>
        <time>2019-06-10T06:11:24Z</time>
      </trkpt>
      <trkpt lat="40.6555140" lon="-7.8999230">
        <ele>495.2</ele>
        <time>2019-06-10T06:11:26Z</time>
      </trkpt>
      <trkpt lat="40.6556220" lon="-7.9000210">
        <ele>494.9</ele>
        <time>2019-06-10T06:11:30Z</time>
      </trkpt>
      <trkpt lat="40.6556600" lon="-7.9000420">
        <ele>494.8</ele>
        <time>2019-06-10T06:11:32Z</time>
      </trkpt>
      <trkpt lat="40.6558160" lon="-7.9001440">
        <ele>494.0</ele>
        <time>2019-06-10T06:11:37Z</time>
      </trkpt>
      <trkpt lat="40.6558510" lon="-7.9001800">
        <ele>493.6</ele>
        <time>2019-06-10T06:11:38Z</time>
      </trkpt>
      <trkpt lat="40.6558810" lon="-7.9002220">
        <ele>493.1</ele>
        <time>2019-06-10T06:11:39Z</time>
      </trkpt>
      <trkpt lat="40.6559180" lon="-7.9002650">
        <ele>492.5</ele>
        <time>2019-06-10T06:11:40Z</time>
      </trkpt>
      <trkpt lat="40.6559720" lon="-7.9003080">
        <ele>491.6</ele>
        <time>2019-06-10T06:11:41Z</time>
      </trkpt>
      <trkpt lat="40.6560300" lon="-7.9003480">
        <ele>490.8</ele>
        <time>2019-06-10T06:11:42Z</time>
      </trkpt>
      <trkpt lat="40.6560980" lon="-7.9003860">
        <ele>489.8</ele>
        <time>2019-06-10T06:11:43Z</time>
      </trkpt>
      <trkpt lat="40.6561680" lon="-7.9004230">
        <ele>488.8</ele>
        <time>2019-06-10T06:11:44Z</time>
      </trkpt>
      <trkpt lat="40.6562380" lon="-7.9004660">
        <ele>488.1</ele>
        <time>2019-06-10T06:11:45Z</time>
      </trkpt>
      <trkpt lat="40.6563070" lon="-7.9005160">
        <ele>487.3</ele>
        <time>2019-06-10T06:11:46Z</time>
      </trkpt>
      <trkpt lat="40.6563850" lon="-7.9005720">
        <ele>486.6</ele>
        <time>2019-06-10T06:11:47Z</time>
      </trkpt>
      <trkpt lat="40.6564600" lon="-7.9006310">
        <ele>486.0</ele>
        <time>2019-06-10T06:11:48Z</time>
      </trkpt>
      <trkpt lat="40.6565280" lon="-7.9006870">
        <ele>485.4</ele>
        <time>2019-06-10T06:11:49Z</time>
      </trkpt>
      <trkpt lat="40.6566030" lon="-7.9007450">
        <ele>484.8</ele>
        <time>2019-06-10T06:11:50Z</time>
      </trkpt>
      <trkpt lat="40.6566770" lon="-7.9008010">
        <ele>484.3</ele>
        <time>2019-06-10T06:11:51Z</time>
      </trkpt>
      <trkpt lat="40.6567490" lon="-7.9008670">
        <ele>483.9</ele>
        <time>2019-06-10T06:11:52Z</time>
      </trkpt>
      <trkpt lat="40.6568250" lon="-7.9009290">
        <ele>483.6</ele>
        <time>2019-06-10T06:11:53Z</time>
      </trkpt>
      <trkpt lat="40.6568930" lon="-7.9009950">
        <ele>483.2</ele>
        <time>2019-06-10T06:11:54Z</time>
      </trkpt>
      <trkpt lat="40.6569480" lon="-7.9010570">
        <ele>482.9</ele>
        <time>2019-06-10T06:11:55Z</time>
      </trkpt>
      <trkpt lat="40.6569970" lon="-7.9011260">
        <ele>482.6</ele>
        <time>2019-06-10T06:11:56Z</time>
      </trkpt>
      <trkpt lat="40.6571200" lon="-7.9012460">
        <ele>482.1</ele>
        <time>2019-06-10T06:11:58Z</time>
      </trkpt>
      <trkpt lat="40.6571710" lon="-7.9013150">
        <ele>481.9</ele>
        <time>2019-06-10T06:11:59Z</time>
      </trkpt>
      <trkpt lat="40.6572210" lon="-7.9013780">
        <ele>481.8</ele>
        <time>2019-06-10T06:12:00Z</time>
      </trkpt>
      <trkpt lat="40.6572710" lon="-7.9014380">
        <ele>481.7</ele>
        <time>2019-06-10T06:12:01Z</time>
      </trkpt>
      <trkpt lat="40.6573220" lon="-7.9014800">
        <ele>481.6</ele>
        <time>2019-06-10T06:12:02Z</time>
      </trkpt>
      <trkpt lat="40.6574370" lon="-7.9015220">
        <ele>481.4</ele>
        <time>2019-06-10T06:12:04Z</time>
      </trkpt>
      <trkpt lat="40.6575630" lon="-7.9015590">
        <ele>481.0</ele>
        <time>2019-06-10T06:12:06Z</time>
      </trkpt>
      <trkpt lat="40.6576910" lon="-7.9016080">
        <ele>480.7</ele>
        <time>2019-06-10T06:12:09Z</time>
      </trkpt>
      <trkpt lat="40.6577930" lon="-7.9017180">
        <ele>480.2</ele>
        <time>2019-06-10T06:12:12Z</time>
      </trkpt>
      <trkpt lat="40.6578230" lon="-7.9017780">
        <ele>479.9</ele>
        <time>2019-06-10T06:12:13Z</time>
      </trkpt>
      <trkpt lat="40.6578520" lon="-7.9018310">
        <ele>479.5</ele>
        <time>2019-06-10T06:12:14Z</time>
      </trkpt>
      <trkpt lat="40.6578810" lon="-7.9018680">
        <ele>479.2</ele>
        <time>2019-06-10T06:12:15Z</time>
      </trkpt>
      <trkpt lat="40.6579250" lon="-7.9018880">
        <ele>478.8</ele>
        <time>2019-06-10T06:12:16Z</time>
      </trkpt>
      <trkpt lat="40.6579930" lon="-7.9018800">
        <ele>478.3</ele>
        <time>2019-06-10T06:12:17Z</time>
      </trkpt>
      <trkpt lat="40.6580610" lon="-7.9018550">
        <ele>477.8</ele>
        <time>2019-06-10T06:12:18Z</time>
      </trkpt>
      <trkpt lat="40.6581390" lon="-7.9018280">
        <ele>476.8</ele>
        <time>2019-06-10T06:12:19Z</time>
      </trkpt>
      <trkpt lat="40.6582170" lon="-7.9017910">
        <ele>475.9</ele>
        <time>2019-06-10T06:12:20Z</time>
      </trkpt>
      <trkpt lat="40.6583160" lon="-7.9017700">
        <ele>474.4</ele>
        <time>2019-06-10T06:12:21Z</time>
      </trkpt>
      <trkpt lat="40.6584020" lon="-7.9017490">
        <ele>473.1</ele>
        <time>2019-06-10T06:12:22Z</time>
      </trkpt>
      <trkpt lat="40.6584780" lon="-7.9017270">
        <ele>471.8</ele>
        <time>2019-06-10T06:12:23Z</time>
      </trkpt>
      <trkpt lat="40.6585600" lon="-7.9017070">
        <ele>470.6</ele>
        <time>2019-06-10T06:12:24Z</time>
      </trkpt>
      <trkpt lat="40.6586240" lon="-7.9016900">
        <ele>469.6</ele>
        <time>2019-06-10T06:12:25Z</time>
      </trkpt>
      <trkpt lat="40.6586730" lon="-7.9016730">
        <ele>468.7</ele>
        <time>2019-06-10T06:12:26Z</time>
      </trkpt>
      <trkpt lat="40.6587270" lon="-7.9016740">
        <ele>467.7</ele>
        <time>2019-06-10T06:12:27Z</time>
      </trkpt>
      <trkpt lat="40.6587670" lon="-7.9016840">
        <ele>467.1</ele>
        <time>2019-06-10T06:12:28Z</time>
      </trkpt>
      <trkpt lat="40.6587840" lon="-7.9017010">
        <ele>466.7</ele>
        <time>2019-06-10T06:12:29Z</time>
      </trkpt>
      <trkpt lat="40.6587940" lon="-7.9017230">
        <ele>466.5</ele>
        <time>2019-06-10T06:12:30Z</time>
      </trkpt>
      <trkpt lat="40.6588070" lon="-7.9017520">
        <ele>465.5</ele>
        <time>2019-06-10T06:12:31Z</time>
      </trkpt>
      <trkpt lat="40.6588180" lon="-7.9017820">
        <ele>465.3</ele>
        <time>2019-06-10T06:12:32Z</time>
      </trkpt>
      <trkpt lat="40.6588590" lon="-7.9018690">
        <ele>464.8</ele>
        <time>2019-06-10T06:12:34Z</time>
      </trkpt>
      <trkpt lat="40.6588960" lon="-7.9019880">
        <ele>464.6</ele>
        <time>2019-06-10T06:12:37Z</time>
      </trkpt>
      <trkpt lat="40.6588960" lon="-7.9020110">
        <ele>464.5</ele>
        <time>2019-06-10T06:12:38Z</time>
      </trkpt>
      <trkpt lat="40.6588580" lon="-7.9019890">
        <ele>464.4</ele>
        <time>2019-06-10T06:12:41Z</time>
      </trkpt>
      <trkpt lat="40.6589020" lon="-7.9018670">
        <ele>464.7</ele>
        <time>2019-06-10T06:12:45Z</time>
      </trkpt>
      <trkpt lat="40.6589640" lon="-7.9017960">
        <ele>464.9</ele>
        <time>2019-06-10T06:12:47Z</time>
      </trkpt>
      <trkpt lat="40.6591540" lon="-7.9016570">
        <ele>463.8</ele>
        <time>2019-06-10T06:12:52Z</time>
      </trkpt>
      <trkpt lat="40.6592010" lon="-7.9016390">
        <ele>463.5</ele>
        <time>2019-06-10T06:12:53Z</time>
      </trkpt>
      <trkpt lat="40.6593310" lon="-7.9015900">
        <ele>462.8</ele>
        <time>2019-06-10T06:12:56Z</time>
      </trkpt>
      <trkpt lat="40.6593770" lon="-7.9015750">
        <ele>462.5</ele>
        <time>2019-06-10T06:12:57Z</time>
      </trkpt>
      <trkpt lat="40.6594290" lon="-7.9015540">
        <ele>462.1</ele>
        <time>2019-06-10T06:12:58Z</time>
      </trkpt>
      <trkpt lat="40.6594820" lon="-7.9015360">
        <ele>461.6</ele>
        <time>2019-06-10T06:12:59Z</time>
      </trkpt>
      <trkpt lat="40.6595440" lon="-7.9015160">
        <ele>461.3</ele>
        <time>2019-06-10T06:13:00Z</time>
      </trkpt>
      <trkpt lat="40.6596070" lon="-7.9014940">
        <ele>460.9</ele>
        <time>2019-06-10T06:13:01Z</time>
      </trkpt>
      <trkpt lat="40.6596740" lon="-7.9014590">
        <ele>460.6</ele>
        <time>2019-06-10T06:13:02Z</time>
      </trkpt>
      <trkpt lat="40.6597400" lon="-7.9014310">
        <ele>460.2</ele>
        <time>2019-06-10T06:13:03Z</time>
      </trkpt>
      <trkpt lat="40.6598130" lon="-7.9014120">
        <ele>459.9</ele>
        <time>2019-06-10T06:13:04Z</time>
      </trkpt>
      <trkpt lat="40.6598890" lon="-7.9014150">
        <ele>459.6</ele>
        <time>2019-06-10T06:13:05Z</time>
      </trkpt>
      <trkpt lat="40.6599570" lon="-7.9014420">
        <ele>459.3</ele>
        <time>2019-06-10T06:13:06Z</time>
      </trkpt>
      <trkpt lat="40.6600230" lon="-7.9014830">
        <ele>458.9</ele>
        <time>2019-06-10T06:13:07Z</time>
      </trkpt>
      <trkpt lat="40.6600760" lon="-7.9015550">
        <ele>458.0</ele>
        <time>2019-06-10T06:13:08Z</time>
      </trkpt>
      <trkpt lat="40.6601260" lon="-7.9016210">
        <ele>457.2</ele>
        <time>2019-06-10T06:13:09Z</time>
      </trkpt>
      <trkpt lat="40.6601790" lon="-7.9016920">
        <ele>456.3</ele>
        <time>2019-06-10T06:13:10Z</time>
      </trkpt>
      <trkpt lat="40.6602350" lon="-7.9017680">
        <ele>455.7</ele>
        <time>2019-06-10T06:13:11Z</time>
      </trkpt>
      <trkpt lat="40.6602880" lon="-7.9018410">
        <ele>455.0</ele>
        <time>2019-06-10T06:13:12Z</time>
      </trkpt>
      <trkpt lat="40.6603400" lon="-7.9019200">
        <ele>454.3</ele>
        <time>2019-06-10T06:13:13Z</time>
      </trkpt>
      <trkpt lat="40.6603980" lon="-7.9019950">
        <ele>453.6</ele>
        <time>2019-06-10T06:13:14Z</time>
      </trkpt>
      <trkpt lat="40.6604600" lon="-7.9020740">
        <ele>452.9</ele>
        <time>2019-06-10T06:13:15Z</time>
      </trkpt>
      <trkpt lat="40.6605240" lon="-7.9021570">
        <ele>452.0</ele>
        <time>2019-06-10T06:13:16Z</time>
      </trkpt>
      <trkpt lat="40.6605980" lon="-7.9022490">
        <ele>451.4</ele>
        <time>2019-06-10T06:13:17Z</time>
      </trkpt>
      <trkpt lat="40.6606690" lon="-7.9023390">
        <ele>450.9</ele>
        <time>2019-06-10T06:13:18Z</time>
      </trkpt>
      <trkpt lat="40.6607370" lon="-7.9024300">
        <ele>450.3</ele>
        <time>2019-06-10T06:13:19Z</time>
      </trkpt>
      <trkpt lat="40.6608080" lon="-7.9025190">
        <ele>449.6</ele>
        <time>2019-06-10T06:13:20Z</time>
      </trkpt>
      <trkpt lat="40.6608720" lon="-7.9026070">
        <ele>449.1</ele>
        <time>2019-06-10T06:13:21Z</time>
      </trkpt>
      <trkpt lat="40.6609380" lon="-7.9026990">
        <ele>448.7</ele>
        <time>2019-06-10T06:13:22Z</time>
      </trkpt>
      <trkpt lat="40.6610020" lon="-7.9027840">
        <ele>448.3</ele>
        <time>2019-06-10T06:13:23Z</time>
      </trkpt>
      <trkpt lat="40.6611280" lon="-7.9029390">
        <ele>447.5</ele>
        <time>2019-06-10T06:13:25Z</time>
      </trkpt>
      <trkpt lat="40.6612460" lon="-7.9030820">
        <ele>446.7</ele>
        <time>2019-06-10T06:13:27Z</time>
      </trkpt>
      <trkpt lat="40.6612970" lon="-7.9031480">
        <ele>446.3</ele>
        <time>2019-06-10T06:13:28Z</time>
      </trkpt>
      <trkpt lat="40.6613490" lon="-7.9032240">
        <ele>445.9</ele>
        <time>2019-06-10T06:13:29Z</time>
      </trkpt>
      <trkpt lat="40.6615700" lon="-7.9035600">
        <ele>444.9</ele>
        <time>2019-06-10T06:13:34Z</time>
      </trkpt>
      <trkpt lat="40.6617950" lon="-7.9040860">
        <ele>443.9</ele>
        <time>2019-06-10T06:13:42Z</time>
      </trkpt>
      <trkpt lat="40.6619810" lon="-7.9046920">
        <ele>443.1</ele>
        <time>2019-06-10T06:13:51Z</time>
      </trkpt>
      <trkpt lat="40.6619990" lon="-7.9047660">
        <ele>442.9</ele>
        <time>2019-06-10T06:13:52Z</time>
      </trkpt>
      <trkpt lat="40.6620190" lon="-7.9048350">
        <ele>442.8</ele>
        <time>2019-06-10T06:13:53Z</time>
      </trkpt>
      <trkpt lat="40.6620430" lon="-7.9049000">
        <ele>442.6</ele>
        <time>2019-06-10T06:13:54Z</time>
      </trkpt>
      <trkpt lat="40.6620730" lon="-7.9049550">
        <ele>442.5</ele>
        <time>2019-06-10T06:13:55Z</time>
      </trkpt>
      <trkpt lat="40.6621180" lon="-7.9049990">
        <ele>442.3</ele>
        <time>2019-06-10T06:13:56Z</time>
      </trkpt>
      <trkpt lat="40.6622700" lon="-7.9050400">
        <ele>441.9</ele>
        <time>2019-06-10T06:13:59Z</time>
      </trkpt>
      <trkpt lat="40.6623230" lon="-7.9050420">
        <ele>441.9</ele>
        <time>2019-06-10T06:14:00Z</time>
      </trkpt>
      <trkpt lat="40.6623680" lon="-7.9050670">
        <ele>441.8</ele>
        <time>2019-06-10T06:14:01Z</time>
      </trkpt>
      <trkpt lat="40.6624330" lon="-7.9051620">
        <ele>441.6</ele>
        <time>2019-06-10T06:14:03Z</time>
      </trkpt>
      <trkpt lat="40.6624340" lon="-7.9053610">
        <ele>441.3</ele>
        <time>2019-06-10T06:14:06Z</time>
      </trkpt>
      <trkpt lat="40.6624050" lon="-7.9054310">
        <ele>441.2</ele>
        <time>2019-06-10T06:14:07Z</time>
      </trkpt>
      <trkpt lat="40.6623670" lon="-7.9054920">
        <ele>441.0</ele>
        <time>2019-06-10T06:14:08Z</time>
      </trkpt>
      <trkpt lat="40.6623220" lon="-7.9055520">
        <ele>441.1</ele>
        <time>2019-06-10T06:14:09Z</time>
      </trkpt>
      <trkpt lat="40.6622770" lon="-7.9056090">
        <ele>441.1</ele>
        <time>2019-06-10T06:14:10Z</time>
      </trkpt>
      <trkpt lat="40.6622280" lon="-7.9056720">
        <ele>441.2</ele>
        <time>2019-06-10T06:14:11Z</time>
      </trkpt>
      <trkpt lat="40.6621940" lon="-7.9057360">
        <ele>441.2</ele>
        <time>2019-06-10T06:14:12Z</time>
      </trkpt>
      <trkpt lat="40.6621360" lon="-7.9058910">
        <ele>441.4</ele>
        <time>2019-06-10T06:14:14Z</time>
      </trkpt>
      <trkpt lat="40.6620770" lon="-7.9061380">
        <ele>441.9</ele>
        <time>2019-06-10T06:14:17Z</time>
      </trkpt>
      <trkpt lat="40.6620570" lon="-7.9062240">
        <ele>442.1</ele>
        <time>2019-06-10T06:14:18Z</time>
      </trkpt>
      <trkpt lat="40.6620380" lon="-7.9063030">
        <ele>442.3</ele>
        <time>2019-06-10T06:14:19Z</time>
      </trkpt>
      <trkpt lat="40.6620170" lon="-7.9063880">
        <ele>442.5</ele>
        <time>2019-06-10T06:14:20Z</time>
      </trkpt>
      <trkpt lat="40.6619730" lon="-7.9065470">
        <ele>442.9</ele>
        <time>2019-06-10T06:14:22Z</time>
      </trkpt>
      <trkpt lat="40.6619530" lon="-7.9066170">
        <ele>443.1</ele>
        <time>2019-06-10T06:14:23Z</time>
      </trkpt>
      <trkpt lat="40.6619250" lon="-7.9067400">
        <ele>443.4</ele>
        <time>2019-06-10T06:14:25Z</time>
      </trkpt>
      <trkpt lat="40.6619520" lon="-7.9068320">
        <ele>443.7</ele>
        <time>2019-06-10T06:14:27Z</time>
      </trkpt>
      <trkpt lat="40.6620600" lon="-7.9068510">
        <ele>442.7</ele>
        <time>2019-06-10T06:14:30Z</time>
      </trkpt>
      <trkpt lat="40.6621110" lon="-7.9068430">
        <ele>442.3</ele>
        <time>2019-06-10T06:14:31Z</time>
      </trkpt>
      <trkpt lat="40.6622890" lon="-7.9068510">
        <ele>441.7</ele>
        <time>2019-06-10T06:14:34Z</time>
      </trkpt>
      <trkpt lat="40.6625910" lon="-7.9069810">
        <ele>441.3</ele>
        <time>2019-06-10T06:14:39Z</time>
      </trkpt>
      <trkpt lat="40.6626450" lon="-7.9070170">
        <ele>441.1</ele>
        <time>2019-06-10T06:14:40Z</time>
      </trkpt>
      <trkpt lat="40.6626970" lon="-7.9070620">
        <ele>440.9</ele>
        <time>2019-06-10T06:14:41Z</time>
      </trkpt>
      <trkpt lat="40.6627450" lon="-7.9071110">
        <ele>440.5</ele>
        <time>2019-06-10T06:14:42Z</time>
      </trkpt>
      <trkpt lat="40.6627870" lon="-7.9071690">
        <ele>440.4</ele>
        <time>2019-06-10T06:14:43Z</time>
      </trkpt>
      <trkpt lat="40.6628590" lon="-7.9073000">
        <ele>440.4</ele>
        <time>2019-06-10T06:14:45Z</time>
      </trkpt>
      <trkpt lat="40.6630370" lon="-7.9076900">
        <ele>440.3</ele>
        <time>2019-06-10T06:14:51Z</time>
      </trkpt>
      <trkpt lat="40.6631250" lon="-7.9081370">
        <ele>440.5</ele>
        <time>2019-06-10T06:14:57Z</time>
      </trkpt>
      <trkpt lat="40.6631270" lon="-7.9082140">
        <ele>440.6</ele>
        <time>2019-06-10T06:14:58Z</time>
      </trkpt>
      <trkpt lat="40.6631250" lon="-7.9084360">
        <ele>440.8</ele>
        <time>2019-06-10T06:15:01Z</time>
      </trkpt>
      <trkpt lat="40.6631130" lon="-7.9086490">
        <ele>440.8</ele>
        <time>2019-06-10T06:15:04Z</time>
      </trkpt>
      <trkpt lat="40.6631060" lon="-7.9087150">
        <ele>440.8</ele>
        <time>2019-06-10T06:15:05Z</time>
      </trkpt>
      <trkpt lat="40.6630820" lon="-7.9089660">
        <ele>440.9</ele>
        <time>2019-06-10T06:15:09Z</time>
      </trkpt>
      <trkpt lat="40.6630690" lon="-7.9090280">
        <ele>440.9</ele>
        <time>2019-06-10T06:15:10Z</time>
      </trkpt>
      <trkpt lat="40.6629420" lon="-7.9094690">
        <ele>441.0</ele>
        <time>2019-06-10T06:15:17Z</time>
      </trkpt>
      <trkpt lat="40.6628080" lon="-7.9097860">
        <ele>441.1</ele>
        <time>2019-06-10T06:15:22Z</time>
      </trkpt>
      <trkpt lat="40.6627290" lon="-7.9099920">
        <ele>441.6</ele>
        <time>2019-06-10T06:15:26Z</time>
      </trkpt>
      <trkpt lat="40.6627510" lon="-7.9100320">
        <ele>441.8</ele>
        <time>2019-06-10T06:15:27Z</time>
      </trkpt>
      <trkpt lat="40.6628160" lon="-7.9101060">
        <ele>440.9</ele>
        <time>2019-06-10T06:15:29Z</time>
      </trkpt>
      <trkpt lat="40.6628970" lon="-7.9101850">
        <ele>440.5</ele>
        <time>2019-06-10T06:15:31Z</time>
      </trkpt>
      <trkpt lat="40.6630950" lon="-7.9103680">
        <ele>439.8</ele>
        <time>2019-06-10T06:15:35Z</time>
      </trkpt>
      <trkpt lat="40.6634720" lon="-7.9107720">
        <ele>441.7</ele>
        <time>2019-06-10T06:15:44Z</time>
      </trkpt>
      <trkpt lat="40.6635070" lon="-7.9109430">
        <ele>441.8</ele>
        <time>2019-06-10T06:15:48Z</time>
      </trkpt>
      <trkpt lat="40.6635000" lon="-7.9110520">
        <ele>441.7</ele>
        <time>2019-06-10T06:15:50Z</time>
      </trkpt>
      <trkpt lat="40.6634970" lon="-7.9112900">
        <ele>441.8</ele>
        <time>2019-06-10T06:15:54Z</time>
      </trkpt>
      <trkpt lat="40.6635020" lon="-7.9115580">
        <ele>442.3</ele>
        <time>2019-06-10T06:15:58Z</time>
      </trkpt>
      <trkpt lat="40.6635120" lon="-7.9117510">
        <ele>442.5</ele>
        <time>2019-06-10T06:16:01Z</time>
      </trkpt>
      <trkpt lat="40.6635180" lon="-7.9122450">
        <ele>442.4</ele>
        <time>2019-06-10T06:16:09Z</time>
      </trkpt>
      <trkpt lat="40.6636450" lon="-7.9126160">
        <ele>442.6</ele>
        <time>2019-06-10T06:16:17Z</time>
      </trkpt>
      <trkpt lat="40.6637090" lon="-7.9127130">
        <ele>443.2</ele>
        <time>2019-06-10T06:16:22Z</time>
      </trkpt>
      <trkpt lat="40.6637580" lon="-7.9128650">
        <ele>443.9</ele>
        <time>2019-06-10T06:16:28Z</time>
      </trkpt>
      <trkpt lat="40.6639250" lon="-7.9129410">
        <ele>444.1</ele>
        <time>2019-06-10T06:16:33Z</time>
      </trkpt>
      <trkpt lat="40.6641310" lon="-7.9130540">
        <ele>444.7</ele>
        <time>2019-06-10T06:16:39Z</time>
      </trkpt>
      <trkpt lat="40.6643030" lon="-7.9131190">
        <ele>445.7</ele>
        <time>2019-06-10T06:16:44Z</time>
      </trkpt>
      <trkpt lat="40.6643340" lon="-7.9131330">
        <ele>445.8</ele>
        <time>2019-06-10T06:16:45Z</time>
      </trkpt>
      <trkpt lat="40.6643620" lon="-7.9131460">
        <ele>445.9</ele>
        <time>2019-06-10T06:16:46Z</time>
      </trkpt>
      <trkpt lat="40.6643960" lon="-7.9131590">
        <ele>446.0</ele>
        <time>2019-06-10T06:16:47Z</time>
      </trkpt>
      <trkpt lat="40.6644280" lon="-7.9131700">
        <ele>446.1</ele>
        <time>2019-06-10T06:16:48Z</time>
      </trkpt>
      <trkpt lat="40.6645620" lon="-7.9132130">
        <ele>446.6</ele>
        <time>2019-06-10T06:16:53Z</time>
      </trkpt>
      <trkpt lat="40.6647080" lon="-7.9132580">
        <ele>447.4</ele>
        <time>2019-06-10T06:16:58Z</time>
      </trkpt>
      <trkpt lat="40.6647330" lon="-7.9132690">
        <ele>447.6</ele>
        <time>2019-06-10T06:16:59Z</time>
      </trkpt>
      <trkpt lat="40.6647450" lon="-7.9132630">
        <ele>447.7</ele>
        <time>2019-06-10T06:17:00Z</time>
      </trkpt>
      <trkpt lat="40.6647630" lon="-7.9132920">
        <ele>447.8</ele>
        <time>2019-06-10T06:17:01Z</time>
      </trkpt>
      <trkpt lat="40.6647770" lon="-7.9133320">
        <ele>448.0</ele>
        <time>2019-06-10T06:17:02Z</time>
      </trkpt>
      <trkpt lat="40.6647850" lon="-7.9134300">
        <ele>448.6</ele>
        <time>2019-06-10T06:17:04Z</time>
      </trkpt>
      <trkpt lat="40.6647720" lon="-7.9136530">
        <ele>448.5</ele>
        <time>2019-06-10T06:17:08Z</time>
      </trkpt>
      <trkpt lat="40.6647730" lon="-7.9137840">
        <ele>448.5</ele>
        <time>2019-06-10T06:17:11Z</time>
      </trkpt>
      <trkpt lat="40.6647590" lon="-7.9140180">
        <ele>448.3</ele>
        <time>2019-06-10T06:17:17Z</time>
      </trkpt>
      <trkpt lat="40.6646950" lon="-7.9142950">
        <ele>447.3</ele>
        <time>2019-06-10T06:17:24Z</time>
      </trkpt>
      <trkpt lat="40.6646660" lon="-7.9145260">
        <ele>446.0</ele>
        <time>2019-06-10T06:17:30Z</time>
      </trkpt>
      <trkpt lat="40.6646230" lon="-7.9147410">
        <ele>445.4</ele>
        <time>2019-06-10T06:17:36Z</time>
      </trkpt>
      <trkpt lat="40.6645450" lon="-7.9150140">
        <ele>445.1</ele>
        <time>2019-06-10T06:17:43Z</time>
      </trkpt>
      <trkpt lat="40.6645020" lon="-7.9152790">
        <ele>444.8</ele>
        <time>2019-06-10T06:17:50Z</time>
      </trkpt>
      <trkpt lat="40.6644810" lon="-7.9155170">
        <ele>444.7</ele>
        <time>2019-06-10T06:17:58Z</time>
      </trkpt>
      <trkpt lat="40.6644760" lon="-7.9155840">
        <ele>444.7</ele>
        <time>2019-06-10T06:18:02Z</time>
      </trkpt>
      <trkpt lat="40.6644860" lon="-7.9155820">
        <ele>444.7</ele>
        <time>2019-06-10T06:25:08Z</time>
      </trkpt>
      <trkpt lat="40.6646180" lon="-7.9155440">
        <ele>444.7</ele>
        <time>2019-06-10T06:25:13Z</time>
      </trkpt>
      <trkpt lat="40.6648630" lon="-7.9155420">
        <ele>444.6</ele>
        <time>2019-06-10T06:25:20Z</time>
      </trkpt>
      <trkpt lat="40.6650430" lon="-7.9156300">
        <ele>444.6</ele>
        <time>2019-06-10T06:25:27Z</time>
      </trkpt>
      <trkpt lat="40.6652680" lon="-7.9158200">
        <ele>444.2</ele>
        <time>2019-06-10T06:25:37Z</time>
      </trkpt>
      <trkpt lat="40.6654480" lon="-7.9159680">
        <ele>443.9</ele>
        <time>2019-06-10T06:25:45Z</time>
      </trkpt>
      <trkpt lat="40.6656530" lon="-7.9161150">
        <ele>443.8</ele>
        <time>2019-06-10T06:25:53Z</time>
      </trkpt>
      <trkpt lat="40.6658940" lon="-7.9162830">
        <ele>443.8</ele>
        <time>2019-06-10T06:26:02Z</time>
      </trkpt>
      <trkpt lat="40.6661440" lon="-7.9164720">
        <ele>443.9</ele>
        <time>2019-06-10T06:26:11Z</time>
      </trkpt>
      <trkpt lat="40.6663030" lon="-7.9166300">
        <ele>444.1</ele>
        <time>2019-06-10T06:26:17Z</time>
      </trkpt>
      <trkpt lat="40.6664640" lon="-7.9167660">
        <ele>444.2</ele>
        <time>2019-06-10T06:26:23Z</time>
      </trkpt>
      <trkpt lat="40.6666130" lon="-7.9169040">
        <ele>444.3</ele>
        <time>2019-06-10T06:26:28Z</time>
      </trkpt>
      <trkpt lat="40.6666440" lon="-7.9169360">
        <ele>444.4</ele>
        <time>2019-06-10T06:26:29Z</time>
      </trkpt>
      <trkpt lat="40.6666750" lon="-7.9169640">
        <ele>444.4</ele>
        <time>2019-06-10T06:26:30Z</time>
      </trkpt>
      <trkpt lat="40.6667070" lon="-7.9169950">
        <ele>444.4</ele>
        <time>2019-06-10T06:26:31Z</time>
      </trkpt>
      <trkpt lat="40.6667390" lon="-7.9170250">
        <ele>444.3</ele>
        <time>2019-06-10T06:26:32Z</time>
      </trkpt>
      <trkpt lat="40.6667710" lon="-7.9170530">
        <ele>444.3</ele>
        <time>2019-06-10T06:26:33Z</time>
      </trkpt>
      <trkpt lat="40.6670710" lon="-7.9173240">
        <ele>444.2</ele>
        <time>2019-06-10T06:26:43Z</time>
      </trkpt>
      <trkpt lat="40.6674300" lon="-7.9175680">
        <ele>445.6</ele>
        <time>2019-06-10T06:26:53Z</time>
      </trkpt>
      <trkpt lat="40.6677370" lon="-7.9178220">
        <ele>446.3</ele>
        <time>2019-06-10T06:27:03Z</time>
      </trkpt>
      <trkpt lat="40.6677660" lon="-7.9178480">
        <ele>446.4</ele>
        <time>2019-06-10T06:27:04Z</time>
      </trkpt>
      <trkpt lat="40.6677930" lon="-7.9178740">
        <ele>446.4</ele>
        <time>2019-06-10T06:27:05Z</time>
      </trkpt>
      <trkpt lat="40.6678200" lon="-7.9179010">
        <ele>446.5</ele>
        <time>2019-06-10T06:27:06Z</time>
      </trkpt>
      <trkpt lat="40.6678490" lon="-7.9179240">
        <ele>446.6</ele>
        <time>2019-06-10T06:27:07Z</time>
      </trkpt>
      <trkpt lat="40.6678800" lon="-7.9179520">
        <ele>446.8</ele>
        <time>2019-06-10T06:27:08Z</time>
      </trkpt>
      <trkpt lat="40.6680370" lon="-7.9180500">
        <ele>447.6</ele>
        <time>2019-06-10T06:27:13Z</time>
      </trkpt>
      <trkpt lat="40.6682610" lon="-7.9181730">
        <ele>448.1</ele>
        <time>2019-06-10T06:27:20Z</time>
      </trkpt>
      <trkpt lat="40.6683960" lon="-7.9182700">
        <ele>448.7</ele>
        <time>2019-06-10T06:27:24Z</time>
      </trkpt>
      <trkpt lat="40.6684470" lon="-7.9183380">
        <ele>448.8</ele>
        <time>2019-06-10T06:27:26Z</time>
      </trkpt>
      <trkpt lat="40.6686370" lon="-7.9186230">
        <ele>448.9</ele>
        <time>2019-06-10T06:27:34Z</time>
      </trkpt>
      <trkpt lat="40.6686660" lon="-7.9186570">
        <ele>448.9</ele>
        <time>2019-06-10T06:27:35Z</time>
      </trkpt>
      <trkpt lat="40.6686950" lon="-7.9186860">
        <ele>449.0</ele>
        <time>2019-06-10T06:27:36Z</time>
      </trkpt>
      <trkpt lat="40.6687260" lon="-7.9187140">
        <ele>449.0</ele>
        <time>2019-06-10T06:27:37Z</time>
      </trkpt>
      <trkpt lat="40.6687560" lon="-7.9187400">
        <ele>449.0</ele>
        <time>2019-06-10T06:27:38Z</time>
      </trkpt>
      <trkpt lat="40.6689790" lon="-7.9189210">
        <ele>449.6</ele>
        <time>2019-06-10T06:27:45Z</time>
      </trkpt>
      <trkpt lat="40.6692640" lon="-7.9191640">
        <ele>450.6</ele>
        <time>2019-06-10T06:27:54Z</time>
      </trkpt>
      <trkpt lat="40.6693860" lon="-7.9192620">
        <ele>451.0</ele>
        <time>2019-06-10T06:27:58Z</time>
      </trkpt>
      <trkpt lat="40.6694170" lon="-7.9192880">
        <ele>451.2</ele>
        <time>2019-06-10T06:27:59Z</time>
      </trkpt>
      <trkpt lat="40.6694470" lon="-7.9193180">
        <ele>451.3</ele>
        <time>2019-06-10T06:28:00Z</time>
      </trkpt>
      <trkpt lat="40.6694800" lon="-7.9193470">
        <ele>451.4</ele>
        <time>2019-06-10T06:28:01Z</time>
      </trkpt>
      <trkpt lat="40.6695100" lon="-7.9193740">
        <ele>451.5</ele>
        <time>2019-06-10T06:28:02Z</time>
      </trkpt>
      <trkpt lat="40.6697940" lon="-7.9196250">
        <ele>452.5</ele>
        <time>2019-06-10T06:28:11Z</time>
      </trkpt>
      <trkpt lat="40.6700440" lon="-7.9198350">
        <ele>453.3</ele>
        <time>2019-06-10T06:28:19Z</time>
      </trkpt>
      <trkpt lat="40.6700770" lon="-7.9198600">
        <ele>453.5</ele>
        <time>2019-06-10T06:28:20Z</time>
      </trkpt>
      <trkpt lat="40.6701130" lon="-7.9198890">
        <ele>453.6</ele>
        <time>2019-06-10T06:28:21Z</time>
      </trkpt>
      <trkpt lat="40.6701420" lon="-7.9199140">
        <ele>453.7</ele>
        <time>2019-06-10T06:28:22Z</time>
      </trkpt>
      <trkpt lat="40.6701750" lon="-7.9199420">
        <ele>453.8</ele>
        <time>2019-06-10T06:28:23Z</time>
      </trkpt>
      <trkpt lat="40.6702380" lon="-7.9199930">
        <ele>454.0</ele>
        <time>2019-06-10T06:28:25Z</time>
      </trkpt>
      <trkpt lat="40.6705220" lon="-7.9202340">
        <ele>455.1</ele>
        <time>2019-06-10T06:28:34Z</time>
      </trkpt>
      <trkpt lat="40.6706760" lon="-7.9203630">
        <ele>455.8</ele>
        <time>2019-06-10T06:28:39Z</time>
      </trkpt>
      <trkpt lat="40.6707090" lon="-7.9203910">
        <ele>455.9</ele>
        <time>2019-06-10T06:28:40Z</time>
      </trkpt>
      <trkpt lat="40.6707410" lon="-7.9204160">
        <ele>456.0</ele>
        <time>2019-06-10T06:28:41Z</time>
      </trkpt>
      <trkpt lat="40.6707700" lon="-7.9204430">
        <ele>456.2</ele>
        <time>2019-06-10T06:28:42Z</time>
      </trkpt>
      <trkpt lat="40.6707990" lon="-7.9204720">
        <ele>456.3</ele>
        <time>2019-06-10T06:28:43Z</time>
      </trkpt>
      <trkpt lat="40.6709850" lon="-7.9206450">
        <ele>457.0</ele>
        <time>2019-06-10T06:28:49Z</time>
      </trkpt>
      <trkpt lat="40.6711780" lon="-7.9208070">
        <ele>457.7</ele>
        <time>2019-06-10T06:28:55Z</time>
      </trkpt>
      <trkpt lat="40.6712120" lon="-7.9208320">
        <ele>457.8</ele>
        <time>2019-06-10T06:28:56Z</time>
      </trkpt>
      <trkpt lat="40.6712450" lon="-7.9208540">
        <ele>457.9</ele>
        <time>2019-06-10T06:28:57Z</time>
      </trkpt>
      <trkpt lat="40.6712830" lon="-7.9208760">
        <ele>458.0</ele>
        <time>2019-06-10T06:28:58Z</time>
      </trkpt>
      <trkpt lat="40.6713200" lon="-7.9208960">
        <ele>458.1</ele>
        <time>2019-06-10T06:28:59Z</time>
      </trkpt>
      <trkpt lat="40.6713970" lon="-7.9209300">
        <ele>458.3</ele>
        <time>2019-06-10T06:29:01Z</time>
      </trkpt>
      <trkpt lat="40.6716390" lon="-7.9210020">
        <ele>458.8</ele>
        <time>2019-06-10T06:29:07Z</time>
      </trkpt>
      <trkpt lat="40.6716820" lon="-7.9210240">
        <ele>458.8</ele>
        <time>2019-06-10T06:29:08Z</time>
      </trkpt>
      <trkpt lat="40.6717920" lon="-7.9211200">
        <ele>459.0</ele>
        <time>2019-06-10T06:29:11Z</time>
      </trkpt>
      <trkpt lat="40.6718540" lon="-7.9212010">
        <ele>459.1</ele>
        <time>2019-06-10T06:29:13Z</time>
      </trkpt>
      <trkpt lat="40.6719900" lon="-7.9214090">
        <ele>459.9</ele>
        <time>2019-06-10T06:29:18Z</time>
      </trkpt>
      <trkpt lat="40.6721730" lon="-7.9216980">
        <ele>460.9</ele>
        <time>2019-06-10T06:29:25Z</time>
      </trkpt>
      <trkpt lat="40.6722020" lon="-7.9217400">
        <ele>461.0</ele>
        <time>2019-06-10T06:29:26Z</time>
      </trkpt>
      <trkpt lat="40.6722290" lon="-7.9217770">
        <ele>461.2</ele>
        <time>2019-06-10T06:29:27Z</time>
      </trkpt>
      <trkpt lat="40.6722580" lon="-7.9218170">
        <ele>461.3</ele>
        <time>2019-06-10T06:29:28Z</time>
      </trkpt>
      <trkpt lat="40.6722860" lon="-7.9218520">
        <ele>461.5</ele>
        <time>2019-06-10T06:29:29Z</time>
      </trkpt>
      <trkpt lat="40.6724760" lon="-7.9220300">
        <ele>462.4</ele>
        <time>2019-06-10T06:29:35Z</time>
      </trkpt>
      <trkpt lat="40.6725360" lon="-7.9220880">
        <ele>462.7</ele>
        <time>2019-06-10T06:29:37Z</time>
      </trkpt>
      <trkpt lat="40.6725660" lon="-7.9221170">
        <ele>462.8</ele>
        <time>2019-06-10T06:29:38Z</time>
      </trkpt>
      <trkpt lat="40.6725970" lon="-7.9221470">
        <ele>463.0</ele>
        <time>2019-06-10T06:29:39Z</time>
      </trkpt>
      <trkpt lat="40.6726280" lon="-7.9221800">
        <ele>463.3</ele>
        <time>2019-06-10T06:29:40Z</time>
      </trkpt>
      <trkpt lat="40.6726600" lon="-7.9222110">
        <ele>463.5</ele>
        <time>2019-06-10T06:29:41Z</time>
      </trkpt>
      <trkpt lat="40.6727810" lon="-7.9223340">
        <ele>464.3</ele>
        <time>2019-06-10T06:29:45Z</time>
      </trkpt>
      <trkpt lat="40.6728130" lon="-7.9223640">
        <ele>464.5</ele>
        <time>2019-06-10T06:29:46Z</time>
      </trkpt>
      <trkpt lat="40.6728420" lon="-7.9223950">
        <ele>464.7</ele>
        <time>2019-06-10T06:29:47Z</time>
      </trkpt>
      <trkpt lat="40.6728720" lon="-7.9224270">
        <ele>464.9</ele>
        <time>2019-06-10T06:29:48Z</time>
      </trkpt>
      <trkpt lat="40.6729030" lon="-7.9224570">
        <ele>465.1</ele>
        <time>2019-06-10T06:29:49Z</time>
      </trkpt>
      <trkpt lat="40.6729340" lon="-7.9224890">
        <ele>465.3</ele>
        <time>2019-06-10T06:29:50Z</time>
      </trkpt>
      <trkpt lat="40.6730240" lon="-7.9225790">
        <ele>465.9</ele>
        <time>2019-06-10T06:29:53Z</time>
      </trkpt>
      <trkpt lat="40.6731740" lon="-7.9227360">
        <ele>466.7</ele>
        <time>2019-06-10T06:29:58Z</time>
      </trkpt>
      <trkpt lat="40.6732030" lon="-7.9227680">
        <ele>466.9</ele>
        <time>2019-06-10T06:29:59Z</time>
      </trkpt>
      <trkpt lat="40.6732310" lon="-7.9227970">
        <ele>467.1</ele>
        <time>2019-06-10T06:30:00Z</time>
      </trkpt>
      <trkpt lat="40.6732590" lon="-7.9228260">
        <ele>467.2</ele>
        <time>2019-06-10T06:30:01Z</time>
      </trkpt>
      <trkpt lat="40.6732900" lon="-7.9228580">
        <ele>467.3</ele>
        <time>2019-06-10T06:30:02Z</time>
      </trkpt>
      <trkpt lat="40.6733210" lon="-7.9228890">
        <ele>467.5</ele>
        <time>2019-06-10T06:30:03Z</time>
      </trkpt>
      <trkpt lat="40.6734840" lon="-7.9230410">
        <ele>467.9</ele>
        <time>2019-06-10T06:30:08Z</time>
      </trkpt>
      <trkpt lat="40.6735130" lon="-7.9230750">
        <ele>468.0</ele>
        <time>2019-06-10T06:30:09Z</time>
      </trkpt>
      <trkpt lat="40.6735420" lon="-7.9231060">
        <ele>468.0</ele>
        <time>2019-06-10T06:30:10Z</time>
      </trkpt>
      <trkpt lat="40.6735730" lon="-7.9231380">
        <ele>468.1</ele>
        <time>2019-06-10T06:30:11Z</time>
      </trkpt>
      <trkpt lat="40.6736040" lon="-7.9231670">
        <ele>468.2</ele>
        <time>2019-06-10T06:30:12Z</time>
      </trkpt>
      <trkpt lat="40.6736930" lon="-7.9232530">
        <ele>468.9</ele>
        <time>2019-06-10T06:30:15Z</time>
      </trkpt>
      <trkpt lat="40.6738090" lon="-7.9233640">
        <ele>469.9</ele>
        <time>2019-06-10T06:30:19Z</time>
      </trkpt>
      <trkpt lat="40.6738370" lon="-7.9233930">
        <ele>470.2</ele>
        <time>2019-06-10T06:30:20Z</time>
      </trkpt>
      <trkpt lat="40.6738670" lon="-7.9234200">
        <ele>470.5</ele>
        <time>2019-06-10T06:30:21Z</time>
      </trkpt>
      <trkpt lat="40.6738980" lon="-7.9234420">
        <ele>470.8</ele>
        <time>2019-06-10T06:30:22Z</time>
      </trkpt>
      <trkpt lat="40.6739280" lon="-7.9234670">
        <ele>471.0</ele>
        <time>2019-06-10T06:30:23Z</time>
      </trkpt>
      <trkpt lat="40.6739780" lon="-7.9235230">
        <ele>471.6</ele>
        <time>2019-06-10T06:30:25Z</time>
      </trkpt>
      <trkpt lat="40.6740950" lon="-7.9236230">
        <ele>472.8</ele>
        <time>2019-06-10T06:30:29Z</time>
      </trkpt>
      <trkpt lat="40.6741250" lon="-7.9236460">
        <ele>473.2</ele>
        <time>2019-06-10T06:30:30Z</time>
      </trkpt>
      <trkpt lat="40.6741540" lon="-7.9236670">
        <ele>473.6</ele>
        <time>2019-06-10T06:30:31Z</time>
      </trkpt>
      <trkpt lat="40.6741860" lon="-7.9236880">
        <ele>473.8</ele>
        <time>2019-06-10T06:30:32Z</time>
      </trkpt>
      <trkpt lat="40.6742190" lon="-7.9237100">
        <ele>474.0</ele>
        <time>2019-06-10T06:30:33Z</time>
      </trkpt>
      <trkpt lat="40.6742520" lon="-7.9237320">
        <ele>474.3</ele>
        <time>2019-06-10T06:30:34Z</time>
      </trkpt>
      <trkpt lat="40.6745300" lon="-7.9239350">
        <ele>477.0</ele>
        <time>2019-06-10T06:30:43Z</time>
      </trkpt>
      <trkpt lat="40.6746790" lon="-7.9240480">
        <ele>478.8</ele>
        <time>2019-06-10T06:30:48Z</time>
      </trkpt>
      <trkpt lat="40.6746990" lon="-7.9240820">
        <ele>479.1</ele>
        <time>2019-06-10T06:30:49Z</time>
      </trkpt>
      <trkpt lat="40.6747430" lon="-7.9242660">
        <ele>480.4</ele>
        <time>2019-06-10T06:30:53Z</time>
      </trkpt>
      <trkpt lat="40.6746830" lon="-7.9245650">
        <ele>481.6</ele>
        <time>2019-06-10T06:30:59Z</time>
      </trkpt>
      <trkpt lat="40.6746360" lon="-7.9246570">
        <ele>481.1</ele>
        <time>2019-06-10T06:31:01Z</time>
      </trkpt>
      <trkpt lat="40.6744990" lon="-7.9249550">
        <ele>480.2</ele>
        <time>2019-06-10T06:31:07Z</time>
      </trkpt>
      <trkpt lat="40.6744800" lon="-7.9250090">
        <ele>480.2</ele>
        <time>2019-06-10T06:31:08Z</time>
      </trkpt>
      <trkpt lat="40.6744620" lon="-7.9250600">
        <ele>480.2</ele>
        <time>2019-06-10T06:31:09Z</time>
      </trkpt>
      <trkpt lat="40.6744450" lon="-7.9251120">
        <ele>480.3</ele>
        <time>2019-06-10T06:31:10Z</time>
      </trkpt>
      <trkpt lat="40.6744310" lon="-7.9251660">
        <ele>480.5</ele>
        <time>2019-06-10T06:31:11Z</time>
      </trkpt>
      <trkpt lat="40.6744200" lon="-7.9252200">
        <ele>480.7</ele>
        <time>2019-06-10T06:31:12Z</time>
      </trkpt>
      <trkpt lat="40.6743930" lon="-7.9253800">
        <ele>481.2</ele>
        <time>2019-06-10T06:31:15Z</time>
      </trkpt>
      <trkpt lat="40.6743870" lon="-7.9254310">
        <ele>481.4</ele>
        <time>2019-06-10T06:31:16Z</time>
      </trkpt>
      <trkpt lat="40.6743800" lon="-7.9254830">
        <ele>481.6</ele>
        <time>2019-06-10T06:31:17Z</time>
      </trkpt>
      <trkpt lat="40.6743580" lon="-7.9255750">
        <ele>482.2</ele>
        <time>2019-06-10T06:31:19Z</time>
      </trkpt>
      <trkpt lat="40.6743510" lon="-7.9256240">
        <ele>482.5</ele>
        <time>2019-06-10T06:31:20Z</time>
      </trkpt>
      <trkpt lat="40.6743420" lon="-7.9256690">
        <ele>482.7</ele>
        <time>2019-06-10T06:31:21Z</time>
      </trkpt>
      <trkpt lat="40.6743200" lon="-7.9258020">
        <ele>483.2</ele>
        <time>2019-06-10T06:31:24Z</time>
      </trkpt>
      <trkpt lat="40.6743200" lon="-7.9258860">
        <ele>483.6</ele>
        <time>2019-06-10T06:31:26Z</time>
      </trkpt>
      <trkpt lat="40.6743240" lon="-7.9259260">
        <ele>483.5</ele>
        <time>2019-06-10T06:31:27Z</time>
      </trkpt>
      <trkpt lat="40.6743300" lon="-7.9259660">
        <ele>483.4</ele>
        <time>2019-06-10T06:31:28Z</time>
      </trkpt>
      <trkpt lat="40.6743310" lon="-7.9260050">
        <ele>483.3</ele>
        <time>2019-06-10T06:31:29Z</time>
      </trkpt>
      <trkpt lat="40.6742860" lon="-7.9261710">
        <ele>482.4</ele>
        <time>2019-06-10T06:31:34Z</time>
      </trkpt>
      <trkpt lat="40.6741160" lon="-7.9263680">
        <ele>481.1</ele>
        <time>2019-06-10T06:31:41Z</time>
      </trkpt>
      <trkpt lat="40.6738550" lon="-7.9266330">
        <ele>480.6</ele>
        <time>2019-06-10T06:31:49Z</time>
      </trkpt>
      <trkpt lat="40.6737870" lon="-7.9267920">
        <ele>479.7</ele>
        <time>2019-06-10T06:31:54Z</time>
      </trkpt>
      <trkpt lat="40.6738660" lon="-7.9268050">
        <ele>479.6</ele>
        <time>2019-06-10T06:31:57Z</time>
      </trkpt>
      <trkpt lat="40.6739270" lon="-7.9267950">
        <ele>479.5</ele>
        <time>2019-06-10T06:31:59Z</time>
      </trkpt>
      <trkpt lat="40.6741350" lon="-7.9268090">
        <ele>479.1</ele>
        <time>2019-06-10T06:32:06Z</time>
      </trkpt>
      <trkpt lat="40.6743630" lon="-7.9268210">
        <ele>479.0</ele>
        <time>2019-06-10T06:32:14Z</time>
      </trkpt>
      <trkpt lat="40.6746040" lon="-7.9268350">
        <ele>478.5</ele>
        <time>2019-06-10T06:32:22Z</time>
      </trkpt>
      <trkpt lat="40.6748550" lon="-7.9268470">
        <ele>478.0</ele>
        <time>2019-06-10T06:32:29Z</time>
      </trkpt>
      <trkpt lat="40.6751520" lon="-7.9268370">
        <ele>478.1</ele>
        <time>2019-06-10T06:32:37Z</time>
      </trkpt>
      <trkpt lat="40.6753820" lon="-7.9268280">
        <ele>478.7</ele>
        <time>2019-06-10T06:32:44Z</time>
      </trkpt>
      <trkpt lat="40.6756270" lon="-7.9268250">
        <ele>479.8</ele>
        <time>2019-06-10T06:32:51Z</time>
      </trkpt>
      <trkpt lat="40.6758580" lon="-7.9268320">
        <ele>480.9</ele>
        <time>2019-06-10T06:32:57Z</time>
      </trkpt>
      <trkpt lat="40.6760520" lon="-7.9268430">
        <ele>481.9</ele>
        <time>2019-06-10T06:33:02Z</time>
      </trkpt>
      <trkpt lat="40.6762570" lon="-7.9268370">
        <ele>482.8</ele>
        <time>2019-06-10T06:33:08Z</time>
      </trkpt>
      <trkpt lat="40.6764430" lon="-7.9268100">
        <ele>483.4</ele>
        <time>2019-06-10T06:33:14Z</time>
      </trkpt>
      <trkpt lat="40.6766280" lon="-7.9268080">
        <ele>483.5</ele>
        <time>2019-06-10T06:33:19Z</time>
      </trkpt>
      <trkpt lat="40.6768360" lon="-7.9267300">
        <ele>483.4</ele>
        <time>2019-06-10T06:33:25Z</time>
      </trkpt>
      <trkpt lat="40.6769610" lon="-7.9266380">
        <ele>483.5</ele>
        <time>2019-06-10T06:33:28Z</time>
      </trkpt>
      <trkpt lat="40.6770020" lon="-7.9266060">
        <ele>483.6</ele>
        <time>2019-06-10T06:33:29Z</time>
      </trkpt>
      <trkpt lat="40.6770380" lon="-7.9265810">
        <ele>483.7</ele>
        <time>2019-06-10T06:33:30Z</time>
      </trkpt>
      <trkpt lat="40.6770780" lon="-7.9265560">
        <ele>483.7</ele>
        <time>2019-06-10T06:33:31Z</time>
      </trkpt>
      <trkpt lat="40.6771190" lon="-7.9265350">
        <ele>483.8</ele>
        <time>2019-06-10T06:33:32Z</time>
      </trkpt>
      <trkpt lat="40.6771840" lon="-7.9264800">
        <ele>483.8</ele>
        <time>2019-06-10T06:33:34Z</time>
      </trkpt>
      <trkpt lat="40.6773620" lon="-7.9263580">
        <ele>483.7</ele>
        <time>2019-06-10T06:33:40Z</time>
      </trkpt>
      <trkpt lat="40.6776650" lon="-7.9262490">
        <ele>483.2</ele>
        <time>2019-06-10T06:33:47Z</time>
      </trkpt>
      <trkpt lat="40.6778690" lon="-7.9260420">
        <ele>483.8</ele>
        <time>2019-06-10T06:33:54Z</time>
      </trkpt>
      <trkpt lat="40.6779170" lon="-7.9259910">
        <ele>484.1</ele>
        <time>2019-06-10T06:34:00Z</time>
      </trkpt>
      <trkpt lat="40.6779280" lon="-7.9260010">
        <ele>483.9</ele>
        <time>2019-06-10T06:34:01Z</time>
      </trkpt>
      <trkpt lat="40.6779550" lon="-7.9260290">
        <ele>483.8</ele>
        <time>2019-06-10T06:34:03Z</time>
      </trkpt>
      <trkpt lat="40.6780280" lon="-7.9260620">
        <ele>483.6</ele>
        <time>2019-06-10T06:34:07Z</time>
      </trkpt>
      <trkpt lat="40.6780480" lon="-7.9260610">
        <ele>483.6</ele>
        <time>2019-06-10T06:34:08Z</time>
      </trkpt>
      <trkpt lat="40.6781560" lon="-7.9259360">
        <ele>484.1</ele>
        <time>2019-06-10T06:34:14Z</time>
      </trkpt>
      <trkpt lat="40.6784120" lon="-7.9258590">
        <ele>482.7</ele>
        <time>2019-06-10T06:34:21Z</time>
      </trkpt>
      <trkpt lat="40.6785430" lon="-7.9258520">
        <ele>482.0</ele>
        <time>2019-06-10T06:34:25Z</time>
      </trkpt>
      <trkpt lat="40.6785700" lon="-7.9258570">
        <ele>481.9</ele>
        <time>2019-06-10T06:34:26Z</time>
      </trkpt>
      <trkpt lat="40.6787850" lon="-7.9259120">
        <ele>481.2</ele>
        <time>2019-06-10T06:34:32Z</time>
      </trkpt>
      <trkpt lat="40.6791050" lon="-7.9259660">
        <ele>481.0</ele>
        <time>2019-06-10T06:34:40Z</time>
      </trkpt>
      <trkpt lat="40.6794590" lon="-7.9260360">
        <ele>480.8</ele>
        <time>2019-06-10T06:34:51Z</time>
      </trkpt>
      <trkpt lat="40.6797800" lon="-7.9260700">
        <ele>480.6</ele>
        <time>2019-06-10T06:35:00Z</time>
      </trkpt>
      <trkpt lat="40.6800780" lon="-7.9260200">
        <ele>480.4</ele>
        <time>2019-06-10T06:35:08Z</time>
      </trkpt>
      <trkpt lat="40.6803030" lon="-7.9259100">
        <ele>480.2</ele>
        <time>2019-06-10T06:35:14Z</time>
      </trkpt>
      <trkpt lat="40.6805450" lon="-7.9257030">
        <ele>480.1</ele>
        <time>2019-06-10T06:35:21Z</time>
      </trkpt>
      <trkpt lat="40.6805750" lon="-7.9256660">
        <ele>480.0</ele>
        <time>2019-06-10T06:35:22Z</time>
      </trkpt>
      <trkpt lat="40.6806650" lon="-7.9255420">
        <ele>480.0</ele>
        <time>2019-06-10T06:35:25Z</time>
      </trkpt>
      <trkpt lat="40.6807430" lon="-7.9254410">
        <ele>479.9</ele>
        <time>2019-06-10T06:35:28Z</time>
      </trkpt>
      <trkpt lat="40.6809900" lon="-7.9251370">
        <ele>479.6</ele>
        <time>2019-06-10T06:35:38Z</time>
      </trkpt>
      <trkpt lat="40.6811680" lon="-7.9249150">
        <ele>479.1</ele>
        <time>2019-06-10T06:35:45Z</time>
      </trkpt>
      <trkpt lat="40.6814040" lon="-7.9246320">
        <ele>478.2</ele>
        <time>2019-06-10T06:35:53Z</time>
      </trkpt>
      <trkpt lat="40.6815770" lon="-7.9244230">
        <ele>477.6</ele>
        <time>2019-06-10T06:35:59Z</time>
      </trkpt>
      <trkpt lat="40.6817600" lon="-7.9242030">
        <ele>478.5</ele>
        <time>2019-06-10T06:36:05Z</time>
      </trkpt>
      <trkpt lat="40.6820350" lon="-7.9238710">
        <ele>479.3</ele>
        <time>2019-06-10T06:36:14Z</time>
      </trkpt>
      <trkpt lat="40.6823450" lon="-7.9234480">
        <ele>479.8</ele>
        <time>2019-06-10T06:36:24Z</time>
      </trkpt>
      <trkpt lat="40.6826440" lon="-7.9230840">
        <ele>479.8</ele>
        <time>2019-06-10T06:36:33Z</time>
      </trkpt>
      <trkpt lat="40.6828790" lon="-7.9228360">
        <ele>479.0</ele>
        <time>2019-06-10T06:36:39Z</time>
      </trkpt>
      <trkpt lat="40.6829630" lon="-7.9227790">
        <ele>478.9</ele>
        <time>2019-06-10T06:36:41Z</time>
      </trkpt>
      <trkpt lat="40.6830950" lon="-7.9227110">
        <ele>478.7</ele>
        <time>2019-06-10T06:36:44Z</time>
      </trkpt>
      <trkpt lat="40.6834770" lon="-7.9225700">
        <ele>478.4</ele>
        <time>2019-06-10T06:36:52Z</time>
      </trkpt>
      <trkpt lat="40.6837880" lon="-7.9224910">
        <ele>478.6</ele>
        <time>2019-06-10T06:36:59Z</time>
      </trkpt>
      <trkpt lat="40.6838730" lon="-7.9224880">
        <ele>478.6</ele>
        <time>2019-06-10T06:37:01Z</time>
      </trkpt>
      <trkpt lat="40.6839910" lon="-7.9225120">
        <ele>478.8</ele>
        <time>2019-06-10T06:37:04Z</time>
      </trkpt>
      <trkpt lat="40.6841860" lon="-7.9225690">
        <ele>479.2</ele>
        <time>2019-06-10T06:37:10Z</time>
      </trkpt>
      <trkpt lat="40.6843960" lon="-7.9226910">
        <ele>480.1</ele>
        <time>2019-06-10T06:37:16Z</time>
      </trkpt>
      <trkpt lat="40.6847120" lon="-7.9229600">
        <ele>481.5</ele>
        <time>2019-06-10T06:37:24Z</time>
      </trkpt>
      <trkpt lat="40.6849160" lon="-7.9232430">
        <ele>482.5</ele>
        <time>2019-06-10T06:37:31Z</time>
      </trkpt>
      <trkpt lat="40.6850460" lon="-7.9234530">
        <ele>483.2</ele>
        <time>2019-06-10T06:37:36Z</time>
      </trkpt>
      <trkpt lat="40.6850750" lon="-7.9234940">
        <ele>483.3</ele>
        <time>2019-06-10T06:37:37Z</time>
      </trkpt>
      <trkpt lat="40.6850990" lon="-7.9235330">
        <ele>483.4</ele>
        <time>2019-06-10T06:37:38Z</time>
      </trkpt>
      <trkpt lat="40.6851170" lon="-7.9235760">
        <ele>483.5</ele>
        <time>2019-06-10T06:37:39Z</time>
      </trkpt>
      <trkpt lat="40.6851380" lon="-7.9236150">
        <ele>483.6</ele>
        <time>2019-06-10T06:37:40Z</time>
      </trkpt>
      <trkpt lat="40.6852960" lon="-7.9238830">
        <ele>484.3</ele>
        <time>2019-06-10T06:37:47Z</time>
      </trkpt>
      <trkpt lat="40.6854460" lon="-7.9241390">
        <ele>484.9</ele>
        <time>2019-06-10T06:37:53Z</time>
      </trkpt>
      <trkpt lat="40.6854680" lon="-7.9241820">
        <ele>485.0</ele>
        <time>2019-06-10T06:37:54Z</time>
      </trkpt>
      <trkpt lat="40.6854910" lon="-7.9242230">
        <ele>485.1</ele>
        <time>2019-06-10T06:37:55Z</time>
      </trkpt>
      <trkpt lat="40.6855110" lon="-7.9242660">
        <ele>485.2</ele>
        <time>2019-06-10T06:37:56Z</time>
      </trkpt>
      <trkpt lat="40.6855330" lon="-7.9243080">
        <ele>485.3</ele>
        <time>2019-06-10T06:37:57Z</time>
      </trkpt>
      <trkpt lat="40.6855840" lon="-7.9243950">
        <ele>485.5</ele>
        <time>2019-06-10T06:37:59Z</time>
      </trkpt>
      <trkpt lat="40.6858490" lon="-7.9248310">
        <ele>486.5</ele>
        <time>2019-06-10T06:38:09Z</time>
      </trkpt>
      <trkpt lat="40.6859770" lon="-7.9250350">
        <ele>486.9</ele>
        <time>2019-06-10T06:38:14Z</time>
      </trkpt>
      <trkpt lat="40.6860510" lon="-7.9251540">
        <ele>487.2</ele>
        <time>2019-06-10T06:38:17Z</time>
      </trkpt>
      <trkpt lat="40.6861010" lon="-7.9252310">
        <ele>487.4</ele>
        <time>2019-06-10T06:38:19Z</time>
      </trkpt>
      <trkpt lat="40.6861250" lon="-7.9252690">
        <ele>487.5</ele>
        <time>2019-06-10T06:38:20Z</time>
      </trkpt>
      <trkpt lat="40.6861500" lon="-7.9253110">
        <ele>487.6</ele>
        <time>2019-06-10T06:38:21Z</time>
      </trkpt>
      <trkpt lat="40.6861780" lon="-7.9253490">
        <ele>487.9</ele>
        <time>2019-06-10T06:38:22Z</time>
      </trkpt>
      <trkpt lat="40.6862020" lon="-7.9253850">
        <ele>488.1</ele>
        <time>2019-06-10T06:38:23Z</time>
      </trkpt>
      <trkpt lat="40.6863120" lon="-7.9255280">
        <ele>488.7</ele>
        <time>2019-06-10T06:38:27Z</time>
      </trkpt>
      <trkpt lat="40.6864890" lon="-7.9257250">
        <ele>490.0</ele>
        <time>2019-06-10T06:38:33Z</time>
      </trkpt>
      <trkpt lat="40.6865210" lon="-7.9257530">
        <ele>490.2</ele>
        <time>2019-06-10T06:38:34Z</time>
      </trkpt>
      <trkpt lat="40.6865580" lon="-7.9257760">
        <ele>490.3</ele>
        <time>2019-06-10T06:38:35Z</time>
      </trkpt>
      <trkpt lat="40.6865940" lon="-7.9257980">
        <ele>490.4</ele>
        <time>2019-06-10T06:38:36Z</time>
      </trkpt>
      <trkpt lat="40.6866310" lon="-7.9258180">
        <ele>490.5</ele>
        <time>2019-06-10T06:38:37Z</time>
      </trkpt>
      <trkpt lat="40.6869690" lon="-7.9260380">
        <ele>491.6</ele>
        <time>2019-06-10T06:38:47Z</time>
      </trkpt>
      <trkpt lat="40.6872590" lon="-7.9261360">
        <ele>492.0</ele>
        <time>2019-06-10T06:38:54Z</time>
      </trkpt>
      <trkpt lat="40.6875190" lon="-7.9261600">
        <ele>492.6</ele>
        <time>2019-06-10T06:39:00Z</time>
      </trkpt>
      <trkpt lat="40.6875600" lon="-7.9261640">
        <ele>492.7</ele>
        <time>2019-06-10T06:39:01Z</time>
      </trkpt>
      <trkpt lat="40.6876030" lon="-7.9261690">
        <ele>492.8</ele>
        <time>2019-06-10T06:39:02Z</time>
      </trkpt>
      <trkpt lat="40.6876480" lon="-7.9261750">
        <ele>492.9</ele>
        <time>2019-06-10T06:39:03Z</time>
      </trkpt>
      <trkpt lat="40.6876900" lon="-7.9261760">
        <ele>493.0</ele>
        <time>2019-06-10T06:39:04Z</time>
      </trkpt>
      <trkpt lat="40.6879800" lon="-7.9261830">
        <ele>493.6</ele>
        <time>2019-06-10T06:39:11Z</time>
      </trkpt>
      <trkpt lat="40.6881630" lon="-7.9261860">
        <ele>493.9</ele>
        <time>2019-06-10T06:39:16Z</time>
      </trkpt>
      <trkpt lat="40.6883520" lon="-7.9261990">
        <ele>494.1</ele>
        <time>2019-06-10T06:39:21Z</time>
      </trkpt>
      <trkpt lat="40.6883910" lon="-7.9262000">
        <ele>494.2</ele>
        <time>2019-06-10T06:39:22Z</time>
      </trkpt>
      <trkpt lat="40.6884310" lon="-7.9262020">
        <ele>494.3</ele>
        <time>2019-06-10T06:39:23Z</time>
      </trkpt>
      <trkpt lat="40.6884690" lon="-7.9262070">
        <ele>494.4</ele>
        <time>2019-06-10T06:39:24Z</time>
      </trkpt>
      <trkpt lat="40.6885060" lon="-7.9262090">
        <ele>494.4</ele>
        <time>2019-06-10T06:39:25Z</time>
      </trkpt>
      <trkpt lat="40.6887350" lon="-7.9262420">
        <ele>495.1</ele>
        <time>2019-06-10T06:39:31Z</time>
      </trkpt>
      <trkpt lat="40.6889600" lon="-7.9262580">
        <ele>496.4</ele>
        <time>2019-06-10T06:39:37Z</time>
      </trkpt>
      <trkpt lat="40.6890340" lon="-7.9262640">
        <ele>496.9</ele>
        <time>2019-06-10T06:39:39Z</time>
      </trkpt>
      <trkpt lat="40.6890730" lon="-7.9262680">
        <ele>497.2</ele>
        <time>2019-06-10T06:39:40Z</time>
      </trkpt>
      <trkpt lat="40.6891110" lon="-7.9262690">
        <ele>497.3</ele>
        <time>2019-06-10T06:39:41Z</time>
      </trkpt>
      <trkpt lat="40.6891520" lon="-7.9262690">
        <ele>497.5</ele>
        <time>2019-06-10T06:39:42Z</time>
      </trkpt>
      <trkpt lat="40.6891910" lon="-7.9262670">
        <ele>497.6</ele>
        <time>2019-06-10T06:39:43Z</time>
      </trkpt>
      <trkpt lat="40.6892680" lon="-7.9262650">
        <ele>497.8</ele>
        <time>2019-06-10T06:39:45Z</time>
      </trkpt>
      <trkpt lat="40.6894790" lon="-7.9262690">
        <ele>498.3</ele>
        <time>2019-06-10T06:39:51Z</time>
      </trkpt>
      <trkpt lat="40.6895110" lon="-7.9262720">
        <ele>498.4</ele>
        <time>2019-06-10T06:39:52Z</time>
      </trkpt>
      <trkpt lat="40.6895420" lon="-7.9262690">
        <ele>498.5</ele>
        <time>2019-06-10T06:39:53Z</time>
      </trkpt>
      <trkpt lat="40.6895770" lon="-7.9262670">
        <ele>498.6</ele>
        <time>2019-06-10T06:39:54Z</time>
      </trkpt>
      <trkpt lat="40.6896130" lon="-7.9262630">
        <ele>498.6</ele>
        <time>2019-06-10T06:39:55Z</time>
      </trkpt>
      <trkpt lat="40.6898040" lon="-7.9262280">
        <ele>499.6</ele>
        <time>2019-06-10T06:40:00Z</time>
      </trkpt>
      <trkpt lat="40.6900900" lon="-7.9261540">
        <ele>502.1</ele>
        <time>2019-06-10T06:40:07Z</time>
      </trkpt>
      <trkpt lat="40.6903240" lon="-7.9260360">
        <ele>503.1</ele>
        <time>2019-06-10T06:40:14Z</time>
      </trkpt>
      <trkpt lat="40.6906840" lon="-7.9258480">
        <ele>503.9</ele>
        <time>2019-06-10T06:40:24Z</time>
      </trkpt>
      <trkpt lat="40.6907650" lon="-7.9258190">
        <ele>504.1</ele>
        <time>2019-06-10T06:40:26Z</time>
      </trkpt>
      <trkpt lat="40.6908050" lon="-7.9258040">
        <ele>504.3</ele>
        <time>2019-06-10T06:40:27Z</time>
      </trkpt>
      <trkpt lat="40.6908480" lon="-7.9257880">
        <ele>504.4</ele>
        <time>2019-06-10T06:40:28Z</time>
      </trkpt>
      <trkpt lat="40.6908860" lon="-7.9257700">
        <ele>504.5</ele>
        <time>2019-06-10T06:40:29Z</time>
      </trkpt>
      <trkpt lat="40.6909220" lon="-7.9257490">
        <ele>504.6</ele>
        <time>2019-06-10T06:40:30Z</time>
      </trkpt>
      <trkpt lat="40.6910010" lon="-7.9257070">
        <ele>504.9</ele>
        <time>2019-06-10T06:40:32Z</time>
      </trkpt>
      <trkpt lat="40.6913920" lon="-7.9255190">
        <ele>505.7</ele>
        <time>2019-06-10T06:40:42Z</time>
      </trkpt>
      <trkpt lat="40.6914280" lon="-7.9255050">
        <ele>505.7</ele>
        <time>2019-06-10T06:40:43Z</time>
      </trkpt>
      <trkpt lat="40.6914630" lon="-7.9254910">
        <ele>505.8</ele>
        <time>2019-06-10T06:40:44Z</time>
      </trkpt>
      <trkpt lat="40.6915060" lon="-7.9254730">
        <ele>505.8</ele>
        <time>2019-06-10T06:40:45Z</time>
      </trkpt>
      <trkpt lat="40.6915390" lon="-7.9254530">
        <ele>505.9</ele>
        <time>2019-06-10T06:40:46Z</time>
      </trkpt>
      <trkpt lat="40.6915750" lon="-7.9254340">
        <ele>505.9</ele>
        <time>2019-06-10T06:40:47Z</time>
      </trkpt>
      <trkpt lat="40.6916800" lon="-7.9253900">
        <ele>506.2</ele>
        <time>2019-06-10T06:40:50Z</time>
      </trkpt>
      <trkpt lat="40.6919480" lon="-7.9252860">
        <ele>507.0</ele>
        <time>2019-06-10T06:40:57Z</time>
      </trkpt>
      <trkpt lat="40.6920990" lon="-7.9252200">
        <ele>507.4</ele>
        <time>2019-06-10T06:41:01Z</time>
      </trkpt>
      <trkpt lat="40.6921360" lon="-7.9252050">
        <ele>507.5</ele>
        <time>2019-06-10T06:41:02Z</time>
      </trkpt>
      <trkpt lat="40.6921720" lon="-7.9251890">
        <ele>507.6</ele>
        <time>2019-06-10T06:41:03Z</time>
      </trkpt>
      <trkpt lat="40.6922010" lon="-7.9251690">
        <ele>507.7</ele>
        <time>2019-06-10T06:41:04Z</time>
      </trkpt>
      <trkpt lat="40.6922350" lon="-7.9251520">
        <ele>507.8</ele>
        <time>2019-06-10T06:41:05Z</time>
      </trkpt>
      <trkpt lat="40.6922640" lon="-7.9251330">
        <ele>507.8</ele>
        <time>2019-06-10T06:41:06Z</time>
      </trkpt>
      <trkpt lat="40.6924840" lon="-7.9250010">
        <ele>508.8</ele>
        <time>2019-06-10T06:41:13Z</time>
      </trkpt>
      <trkpt lat="40.6926470" lon="-7.9249690">
        <ele>509.3</ele>
        <time>2019-06-10T06:41:17Z</time>
      </trkpt>
      <trkpt lat="40.6926890" lon="-7.9249630">
        <ele>509.4</ele>
        <time>2019-06-10T06:41:18Z</time>
      </trkpt>
      <trkpt lat="40.6927280" lon="-7.9249530">
        <ele>509.4</ele>
        <time>2019-06-10T06:41:19Z</time>
      </trkpt>
      <trkpt lat="40.6927650" lon="-7.9249440">
        <ele>509.5</ele>
        <time>2019-06-10T06:41:20Z</time>
      </trkpt>
      <trkpt lat="40.6928000" lon="-7.9249330">
        <ele>509.6</ele>
        <time>2019-06-10T06:41:21Z</time>
      </trkpt>
      <trkpt lat="40.6929800" lon="-7.9249350">
        <ele>510.1</ele>
        <time>2019-06-10T06:41:26Z</time>
      </trkpt>
      <trkpt lat="40.6930180" lon="-7.9249460">
        <ele>510.3</ele>
        <time>2019-06-10T06:41:27Z</time>
      </trkpt>
      <trkpt lat="40.6930530" lon="-7.9249560">
        <ele>510.4</ele>
        <time>2019-06-10T06:41:28Z</time>
      </trkpt>
      <trkpt lat="40.6930860" lon="-7.9249640">
        <ele>510.5</ele>
        <time>2019-06-10T06:41:29Z</time>
      </trkpt>
      <trkpt lat="40.6931240" lon="-7.9249730">
        <ele>510.6</ele>
        <time>2019-06-10T06:41:30Z</time>
      </trkpt>
      <trkpt lat="40.6931650" lon="-7.9249850">
        <ele>510.7</ele>
        <time>2019-06-10T06:41:31Z</time>
      </trkpt>
      <trkpt lat="40.6932420" lon="-7.9250030">
        <ele>510.9</ele>
        <time>2019-06-10T06:41:33Z</time>
      </trkpt>
      <trkpt lat="40.6935230" lon="-7.9251260">
        <ele>511.8</ele>
        <time>2019-06-10T06:41:40Z</time>
      </trkpt>
      <trkpt lat="40.6938450" lon="-7.9253620">
        <ele>512.0</ele>
        <time>2019-06-10T06:41:48Z</time>
      </trkpt>
      <trkpt lat="40.6940010" lon="-7.9255210">
        <ele>512.4</ele>
        <time>2019-06-10T06:41:53Z</time>
      </trkpt>
      <trkpt lat="40.6940290" lon="-7.9255550">
        <ele>512.5</ele>
        <time>2019-06-10T06:41:54Z</time>
      </trkpt>
      <trkpt lat="40.6940500" lon="-7.9255970">
        <ele>512.5</ele>
        <time>2019-06-10T06:41:55Z</time>
      </trkpt>
      <trkpt lat="40.6940770" lon="-7.9256370">
        <ele>512.6</ele>
        <time>2019-06-10T06:41:56Z</time>
      </trkpt>
      <trkpt lat="40.6941020" lon="-7.9256790">
        <ele>512.7</ele>
        <time>2019-06-10T06:41:57Z</time>
      </trkpt>
      <trkpt lat="40.6942560" lon="-7.9259230">
        <ele>513.3</ele>
        <time>2019-06-10T06:42:03Z</time>
      </trkpt>
      <trkpt lat="40.6944550" lon="-7.9263180">
        <ele>514.3</ele>
        <time>2019-06-10T06:42:12Z</time>
      </trkpt>
      <trkpt lat="40.6945430" lon="-7.9264730">
        <ele>514.9</ele>
        <time>2019-06-10T06:42:16Z</time>
      </trkpt>
      <trkpt lat="40.6945640" lon="-7.9265160">
        <ele>515.1</ele>
        <time>2019-06-10T06:42:17Z</time>
      </trkpt>
      <trkpt lat="40.6945890" lon="-7.9265590">
        <ele>515.2</ele>
        <time>2019-06-10T06:42:18Z</time>
      </trkpt>
      <trkpt lat="40.6946030" lon="-7.9266050">
        <ele>515.4</ele>
        <time>2019-06-10T06:42:19Z</time>
      </trkpt>
      <trkpt lat="40.6946240" lon="-7.9266490">
        <ele>515.6</ele>
        <time>2019-06-10T06:42:20Z</time>
      </trkpt>
      <trkpt lat="40.6948170" lon="-7.9270210">
        <ele>515.8</ele>
        <time>2019-06-10T06:42:29Z</time>
      </trkpt>
      <trkpt lat="40.6949530" lon="-7.9272600">
        <ele>516.6</ele>
        <time>2019-06-10T06:42:35Z</time>
      </trkpt>
      <trkpt lat="40.6949690" lon="-7.9273000">
        <ele>516.8</ele>
        <time>2019-06-10T06:42:36Z</time>
      </trkpt>
      <trkpt lat="40.6949860" lon="-7.9273400">
        <ele>516.9</ele>
        <time>2019-06-10T06:42:37Z</time>
      </trkpt>
      <trkpt lat="40.6949980" lon="-7.9273780">
        <ele>517.0</ele>
        <time>2019-06-10T06:42:38Z</time>
      </trkpt>
      <trkpt lat="40.6950120" lon="-7.9274150">
        <ele>517.1</ele>
        <time>2019-06-10T06:42:39Z</time>
      </trkpt>
      <trkpt lat="40.6950960" lon="-7.9276340">
        <ele>517.7</ele>
        <time>2019-06-10T06:42:44Z</time>
      </trkpt>
      <trkpt lat="40.6952290" lon="-7.9280320">
        <ele>518.7</ele>
        <time>2019-06-10T06:42:52Z</time>
      </trkpt>
      <trkpt lat="40.6952440" lon="-7.9280820">
        <ele>518.8</ele>
        <time>2019-06-10T06:42:53Z</time>
      </trkpt>
      <trkpt lat="40.6952640" lon="-7.9281240">
        <ele>518.9</ele>
        <time>2019-06-10T06:42:54Z</time>
      </trkpt>
      <trkpt lat="40.6952830" lon="-7.9281660">
        <ele>518.9</ele>
        <time>2019-06-10T06:42:55Z</time>
      </trkpt>
      <trkpt lat="40.6953000" lon="-7.9282150">
        <ele>519.0</ele>
        <time>2019-06-10T06:42:56Z</time>
      </trkpt>
      <trkpt lat="40.6953170" lon="-7.9282600">
        <ele>519.0</ele>
        <time>2019-06-10T06:42:57Z</time>
      </trkpt>
      <trkpt lat="40.6953980" lon="-7.9284980">
        <ele>519.6</ele>
        <time>2019-06-10T06:43:02Z</time>
      </trkpt>
      <trkpt lat="40.6955330" lon="-7.9289800">
        <ele>520.4</ele>
        <time>2019-06-10T06:43:12Z</time>
      </trkpt>
      <trkpt lat="40.6955460" lon="-7.9290270">
        <ele>520.5</ele>
        <time>2019-06-10T06:43:13Z</time>
      </trkpt>
      <trkpt lat="40.6955580" lon="-7.9290760">
        <ele>520.6</ele>
        <time>2019-06-10T06:43:14Z</time>
      </trkpt>
      <trkpt lat="40.6955690" lon="-7.9291260">
        <ele>520.6</ele>
        <time>2019-06-10T06:43:15Z</time>
      </trkpt>
      <trkpt lat="40.6955820" lon="-7.9291760">
        <ele>520.7</ele>
        <time>2019-06-10T06:43:16Z</time>
      </trkpt>
      <trkpt lat="40.6956950" lon="-7.9295570">
        <ele>521.2</ele>
        <time>2019-06-10T06:43:24Z</time>
      </trkpt>
      <trkpt lat="40.6958290" lon="-7.9299720">
        <ele>521.6</ele>
        <time>2019-06-10T06:43:33Z</time>
      </trkpt>
      <trkpt lat="40.6958520" lon="-7.9300150">
        <ele>521.7</ele>
        <time>2019-06-10T06:43:34Z</time>
      </trkpt>
      <trkpt lat="40.6958710" lon="-7.9300550">
        <ele>521.8</ele>
        <time>2019-06-10T06:43:35Z</time>
      </trkpt>
      <trkpt lat="40.6958940" lon="-7.9300950">
        <ele>521.8</ele>
        <time>2019-06-10T06:43:36Z</time>
      </trkpt>
      <trkpt lat="40.6959180" lon="-7.9301340">
        <ele>521.9</ele>
        <time>2019-06-10T06:43:37Z</time>
      </trkpt>
      <trkpt lat="40.6959400" lon="-7.9301720">
        <ele>521.9</ele>
        <time>2019-06-10T06:43:38Z</time>
      </trkpt>
      <trkpt lat="40.6960010" lon="-7.9302930">
        <ele>522.1</ele>
        <time>2019-06-10T06:43:41Z</time>
      </trkpt>
      <trkpt lat="40.6961600" lon="-7.9304650">
        <ele>523.0</ele>
        <time>2019-06-10T06:43:47Z</time>
      </trkpt>
      <trkpt lat="40.6962910" lon="-7.9304850">
        <ele>525.2</ele>
        <time>2019-06-10T06:43:51Z</time>
      </trkpt>
      <trkpt lat="40.6963220" lon="-7.9304810">
        <ele>525.7</ele>
        <time>2019-06-10T06:43:52Z</time>
      </trkpt>
      <trkpt lat="40.6963540" lon="-7.9304730">
        <ele>526.1</ele>
        <time>2019-06-10T06:43:53Z</time>
      </trkpt>
      <trkpt lat="40.6963870" lon="-7.9304620">
        <ele>526.6</ele>
        <time>2019-06-10T06:43:54Z</time>
      </trkpt>
      <trkpt lat="40.6964180" lon="-7.9304420">
        <ele>527.0</ele>
        <time>2019-06-10T06:43:55Z</time>
      </trkpt>
      <trkpt lat="40.6965150" lon="-7.9304040">
        <ele>527.9</ele>
        <time>2019-06-10T06:43:58Z</time>
      </trkpt>
      <trkpt lat="40.6965980" lon="-7.9303900">
        <ele>528.4</ele>
        <time>2019-06-10T06:44:01Z</time>
      </trkpt>
      <trkpt lat="40.6966220" lon="-7.9303840">
        <ele>528.5</ele>
        <time>2019-06-10T06:44:02Z</time>
      </trkpt>
      <trkpt lat="40.6966440" lon="-7.9303800">
        <ele>528.6</ele>
        <time>2019-06-10T06:44:03Z</time>
      </trkpt>
      <trkpt lat="40.6966660" lon="-7.9303760">
        <ele>528.8</ele>
        <time>2019-06-10T06:44:04Z</time>
      </trkpt>
      <trkpt lat="40.6966920" lon="-7.9303730">
        <ele>528.9</ele>
        <time>2019-06-10T06:44:05Z</time>
      </trkpt>
      <trkpt lat="40.6967690" lon="-7.9303770">
        <ele>529.4</ele>
        <time>2019-06-10T06:44:08Z</time>
      </trkpt>
      <trkpt lat="40.6967940" lon="-7.9303790">
        <ele>529.5</ele>
        <time>2019-06-10T06:44:09Z</time>
      </trkpt>
      <trkpt lat="40.6968170" lon="-7.9303780">
        <ele>529.7</ele>
        <time>2019-06-10T06:44:10Z</time>
      </trkpt>
      <trkpt lat="40.6968420" lon="-7.9303710">
        <ele>529.8</ele>
        <time>2019-06-10T06:44:11Z</time>
      </trkpt>
      <trkpt lat="40.6968680" lon="-7.9303670">
        <ele>529.9</ele>
        <time>2019-06-10T06:44:12Z</time>
      </trkpt>
      <trkpt lat="40.6970720" lon="-7.9303960">
        <ele>530.8</ele>
        <time>2019-06-10T06:44:19Z</time>
      </trkpt>
      <trkpt lat="40.6973780" lon="-7.9304660">
        <ele>532.2</ele>
        <time>2019-06-10T06:44:28Z</time>
      </trkpt>
      <trkpt lat="40.6975450" lon="-7.9305120">
        <ele>533.3</ele>
        <time>2019-06-10T06:44:33Z</time>
      </trkpt>
      <trkpt lat="40.6975780" lon="-7.9305220">
        <ele>533.5</ele>
        <time>2019-06-10T06:44:34Z</time>
      </trkpt>
      <trkpt lat="40.6976090" lon="-7.9305360">
        <ele>533.8</ele>
        <time>2019-06-10T06:44:35Z</time>
      </trkpt>
      <trkpt lat="40.6976400" lon="-7.9305470">
        <ele>534.2</ele>
        <time>2019-06-10T06:44:36Z</time>
      </trkpt>
      <trkpt lat="40.6976690" lon="-7.9305600">
        <ele>534.5</ele>
        <time>2019-06-10T06:44:37Z</time>
      </trkpt>
      <trkpt lat="40.6976960" lon="-7.9305700">
        <ele>534.9</ele>
        <time>2019-06-10T06:44:38Z</time>
      </trkpt>
      <trkpt lat="40.6978220" lon="-7.9306000">
        <ele>535.8</ele>
        <time>2019-06-10T06:44:42Z</time>
      </trkpt>
      <trkpt lat="40.6978560" lon="-7.9306070">
        <ele>536.0</ele>
        <time>2019-06-10T06:44:43Z</time>
      </trkpt>
      <trkpt lat="40.6978850" lon="-7.9306120">
        <ele>536.2</ele>
        <time>2019-06-10T06:44:44Z</time>
      </trkpt>
      <trkpt lat="40.6979100" lon="-7.9306160">
        <ele>536.3</ele>
        <time>2019-06-10T06:44:45Z</time>
      </trkpt>
      <trkpt lat="40.6979360" lon="-7.9306190">
        <ele>536.5</ele>
        <time>2019-06-10T06:44:46Z</time>
      </trkpt>
      <trkpt lat="40.6982370" lon="-7.9306430">
        <ele>538.2</ele>
        <time>2019-06-10T06:44:56Z</time>
      </trkpt>
      <trkpt lat="40.6982640" lon="-7.9306500">
        <ele>538.4</ele>
        <time>2019-06-10T06:44:57Z</time>
      </trkpt>
      <trkpt lat="40.6982920" lon="-7.9306570">
        <ele>538.6</ele>
        <time>2019-06-10T06:44:58Z</time>
      </trkpt>
      <trkpt lat="40.6983190" lon="-7.9306620">
        <ele>538.8</ele>
        <time>2019-06-10T06:44:59Z</time>
      </trkpt>
      <trkpt lat="40.6983440" lon="-7.9306670">
        <ele>539.0</ele>
        <time>2019-06-10T06:45:00Z</time>
      </trkpt>
      <trkpt lat="40.6983680" lon="-7.9306730">
        <ele>539.2</ele>
        <time>2019-06-10T06:45:01Z</time>
      </trkpt>
      <trkpt lat="40.6984420" lon="-7.9307080">
        <ele>540.0</ele>
        <time>2019-06-10T06:45:04Z</time>
      </trkpt>
      <trkpt lat="40.6984880" lon="-7.9307190">
        <ele>540.5</ele>
        <time>2019-06-10T06:45:06Z</time>
      </trkpt>
      <trkpt lat="40.6985640" lon="-7.9307370">
        <ele>540.9</ele>
        <time>2019-06-10T06:45:09Z</time>
      </trkpt>
      <trkpt lat="40.6986520" lon="-7.9307420">
        <ele>541.2</ele>
        <time>2019-06-10T06:45:13Z</time>
      </trkpt>
      <trkpt lat="40.6986720" lon="-7.9307450">
        <ele>541.3</ele>
        <time>2019-06-10T06:45:14Z</time>
      </trkpt>
      <trkpt lat="40.6986930" lon="-7.9307510">
        <ele>541.3</ele>
        <time>2019-06-10T06:45:15Z</time>
      </trkpt>
      <trkpt lat="40.6987110" lon="-7.9307570">
        <ele>541.4</ele>
        <time>2019-06-10T06:45:16Z</time>
      </trkpt>
      <trkpt lat="40.6987310" lon="-7.9307620">
        <ele>541.5</ele>
        <time>2019-06-10T06:45:17Z</time>
      </trkpt>
      <trkpt lat="40.6989340" lon="-7.9307460">
        <ele>542.2</ele>
        <time>2019-06-10T06:45:26Z</time>
      </trkpt>
      <trkpt lat="40.6989790" lon="-7.9307470">
        <ele>542.3</ele>
        <time>2019-06-10T06:45:28Z</time>
      </trkpt>
      <trkpt lat="40.6990030" lon="-7.9307520">
        <ele>542.3</ele>
        <time>2019-06-10T06:45:29Z</time>
      </trkpt>
      <trkpt lat="40.6990260" lon="-7.9307660">
        <ele>542.2</ele>
        <time>2019-06-10T06:45:30Z</time>
      </trkpt>
      <trkpt lat="40.6990440" lon="-7.9307940">
        <ele>542.1</ele>
        <time>2019-06-10T06:45:31Z</time>
      </trkpt>
      <trkpt lat="40.6990560" lon="-7.9308340">
        <ele>542.1</ele>
        <time>2019-06-10T06:45:32Z</time>
      </trkpt>
      <trkpt lat="40.6990380" lon="-7.9309080">
        <ele>541.8</ele>
        <time>2019-06-10T06:45:33Z</time>
      </trkpt>
      <trkpt lat="40.6990190" lon="-7.9309340">
        <ele>541.7</ele>
        <time>2019-06-10T06:45:34Z</time>
      </trkpt>
      <trkpt lat="40.6989950" lon="-7.9309760">
        <ele>541.7</ele>
        <time>2019-06-10T06:45:35Z</time>
      </trkpt>
      <trkpt lat="40.6988930" lon="-7.9313590">
        <ele>540.3</ele>
        <time>2019-06-10T06:45:43Z</time>
      </trkpt>
      <trkpt lat="40.6989210" lon="-7.9314010">
        <ele>540.3</ele>
        <time>2019-06-10T06:45:44Z</time>
      </trkpt>
      <trkpt lat="40.6990680" lon="-7.9315290">
        <ele>540.1</ele>
        <time>2019-06-10T06:45:48Z</time>
      </trkpt>
      <trkpt lat="40.6992770" lon="-7.9316230">
        <ele>540.1</ele>
        <time>2019-06-10T06:45:53Z</time>
      </trkpt>
      <trkpt lat="40.6994930" lon="-7.9317260">
        <ele>540.1</ele>
        <time>2019-06-10T06:45:58Z</time>
      </trkpt>
      <trkpt lat="40.6995380" lon="-7.9317510">
        <ele>540.2</ele>
        <time>2019-06-10T06:45:59Z</time>
      </trkpt>
      <trkpt lat="40.6998330" lon="-7.9319050">
        <ele>540.6</ele>
        <time>2019-06-10T06:46:06Z</time>
      </trkpt>
      <trkpt lat="40.7002210" lon="-7.9321070">
        <ele>537.8</ele>
        <time>2019-06-10T06:46:15Z</time>
      </trkpt>
      <trkpt lat="40.7007350" lon="-7.9323690">
        <ele>535.2</ele>
        <time>2019-06-10T06:46:26Z</time>
      </trkpt>
      <trkpt lat="40.7010770" lon="-7.9326250">
        <ele>535.2</ele>
        <time>2019-06-10T06:46:34Z</time>
      </trkpt>
      <trkpt lat="40.7013350" lon="-7.9329210">
        <ele>534.1</ele>
        <time>2019-06-10T06:46:41Z</time>
      </trkpt>
      <trkpt lat="40.7015450" lon="-7.9332880">
        <ele>532.6</ele>
        <time>2019-06-10T06:46:48Z</time>
      </trkpt>
      <trkpt lat="40.7017220" lon="-7.9337770">
        <ele>533.0</ele>
        <time>2019-06-10T06:46:56Z</time>
      </trkpt>
      <trkpt lat="40.7018440" lon="-7.9344220">
        <ele>533.8</ele>
        <time>2019-06-10T06:47:06Z</time>
      </trkpt>
      <trkpt lat="40.7018550" lon="-7.9344860">
        <ele>533.9</ele>
        <time>2019-06-10T06:47:07Z</time>
      </trkpt>
      <trkpt lat="40.7018660" lon="-7.9345540">
        <ele>534.0</ele>
        <time>2019-06-10T06:47:08Z</time>
      </trkpt>
      <trkpt lat="40.7018750" lon="-7.9346200">
        <ele>534.1</ele>
        <time>2019-06-10T06:47:09Z</time>
      </trkpt>
      <trkpt lat="40.7018840" lon="-7.9346900">
        <ele>534.2</ele>
        <time>2019-06-10T06:47:10Z</time>
      </trkpt>
      <trkpt lat="40.7019740" lon="-7.9352310">
        <ele>535.7</ele>
        <time>2019-06-10T06:47:18Z</time>
      </trkpt>
      <trkpt lat="40.7020010" lon="-7.9352940">
        <ele>536.2</ele>
        <time>2019-06-10T06:47:19Z</time>
      </trkpt>
      <trkpt lat="40.7020850" lon="-7.9353810">
        <ele>536.8</ele>
        <time>2019-06-10T06:47:21Z</time>
      </trkpt>
      <trkpt lat="40.7022430" lon="-7.9353740">
        <ele>537.2</ele>
        <time>2019-06-10T06:47:24Z</time>
      </trkpt>
      <trkpt lat="40.7023390" lon="-7.9353170">
        <ele>537.4</ele>
        <time>2019-06-10T06:47:26Z</time>
      </trkpt>
      <trkpt lat="40.7024220" lon="-7.9353080">
        <ele>537.6</ele>
        <time>2019-06-10T06:47:28Z</time>
      </trkpt>
      <trkpt lat="40.7026010" lon="-7.9354710">
        <ele>538.3</ele>
        <time>2019-06-10T06:47:34Z</time>
      </trkpt>
      <trkpt lat="40.7027130" lon="-7.9356160">
        <ele>538.8</ele>
        <time>2019-06-10T06:47:38Z</time>
      </trkpt>
      <trkpt lat="40.7027620" lon="-7.9356960">
        <ele>539.1</ele>
        <time>2019-06-10T06:47:40Z</time>
      </trkpt>
      <trkpt lat="40.7027870" lon="-7.9357310">
        <ele>539.3</ele>
        <time>2019-06-10T06:47:41Z</time>
      </trkpt>
      <trkpt lat="40.7028130" lon="-7.9357660">
        <ele>539.5</ele>
        <time>2019-06-10T06:47:42Z</time>
      </trkpt>
      <trkpt lat="40.7028300" lon="-7.9358030">
        <ele>539.6</ele>
        <time>2019-06-10T06:47:43Z</time>
      </trkpt>
      <trkpt lat="40.7028460" lon="-7.9358390">
        <ele>539.8</ele>
        <time>2019-06-10T06:47:44Z</time>
      </trkpt>
      <trkpt lat="40.7028540" lon="-7.9358770">
        <ele>539.9</ele>
        <time>2019-06-10T06:47:45Z</time>
      </trkpt>
      <trkpt lat="40.7028500" lon="-7.9359740">
        <ele>539.8</ele>
        <time>2019-06-10T06:47:48Z</time>
      </trkpt>
      <trkpt lat="40.7028310" lon="-7.9360060">
        <ele>539.6</ele>
        <time>2019-06-10T06:47:49Z</time>
      </trkpt>
      <trkpt lat="40.7027100" lon="-7.9362280">
        <ele>538.9</ele>
        <time>2019-06-10T06:47:54Z</time>
      </trkpt>
      <trkpt lat="40.7025410" lon="-7.9365900">
        <ele>538.3</ele>
        <time>2019-06-10T06:48:02Z</time>
      </trkpt>
      <trkpt lat="40.7023760" lon="-7.9368840">
        <ele>538.0</ele>
        <time>2019-06-10T06:48:09Z</time>
      </trkpt>
      <trkpt lat="40.7022850" lon="-7.9371420">
        <ele>537.9</ele>
        <time>2019-06-10T06:48:14Z</time>
      </trkpt>
      <trkpt lat="40.7022800" lon="-7.9372030">
        <ele>537.9</ele>
        <time>2019-06-10T06:48:15Z</time>
      </trkpt>
      <trkpt lat="40.7022810" lon="-7.9372580">
        <ele>537.8</ele>
        <time>2019-06-10T06:48:16Z</time>
      </trkpt>
      <trkpt lat="40.7022870" lon="-7.9373190">
        <ele>537.8</ele>
        <time>2019-06-10T06:48:17Z</time>
      </trkpt>
      <trkpt lat="40.7023020" lon="-7.9373740">
        <ele>537.8</ele>
        <time>2019-06-10T06:48:18Z</time>
      </trkpt>
      <trkpt lat="40.7023310" lon="-7.9374770">
        <ele>537.8</ele>
        <time>2019-06-10T06:48:20Z</time>
      </trkpt>
      <trkpt lat="40.7023420" lon="-7.9375240">
        <ele>537.8</ele>
        <time>2019-06-10T06:48:21Z</time>
      </trkpt>
      <trkpt lat="40.7024460" lon="-7.9379260">
        <ele>537.8</ele>
        <time>2019-06-10T06:48:29Z</time>
      </trkpt>
      <trkpt lat="40.7025150" lon="-7.9382330">
        <ele>537.7</ele>
        <time>2019-06-10T06:48:35Z</time>
      </trkpt>
      <trkpt lat="40.7025240" lon="-7.9382850">
        <ele>537.7</ele>
        <time>2019-06-10T06:48:36Z</time>
      </trkpt>
      <trkpt lat="40.7025570" lon="-7.9386520">
        <ele>537.6</ele>
        <time>2019-06-10T06:48:43Z</time>
      </trkpt>
      <trkpt lat="40.7026040" lon="-7.9392690">
        <ele>536.9</ele>
        <time>2019-06-10T06:48:53Z</time>
      </trkpt>
      <trkpt lat="40.7026050" lon="-7.9394110">
        <ele>536.7</ele>
        <time>2019-06-10T06:48:55Z</time>
      </trkpt>
      <trkpt lat="40.7025680" lon="-7.9394870">
        <ele>536.0</ele>
        <time>2019-06-10T06:48:57Z</time>
      </trkpt>
      <trkpt lat="40.7025040" lon="-7.9394670">
        <ele>535.6</ele>
        <time>2019-06-10T06:48:59Z</time>
      </trkpt>
      <trkpt lat="40.7024670" lon="-7.9394540">
        <ele>535.5</ele>
        <time>2019-06-10T06:49:00Z</time>
      </trkpt>
      <trkpt lat="40.7024280" lon="-7.9394340">
        <ele>535.3</ele>
        <time>2019-06-10T06:49:01Z</time>
      </trkpt>
      <trkpt lat="40.7023300" lon="-7.9393830">
        <ele>534.7</ele>
        <time>2019-06-10T06:49:03Z</time>
      </trkpt>
      <trkpt lat="40.7022180" lon="-7.9392880">
        <ele>534.0</ele>
        <time>2019-06-10T06:49:05Z</time>
      </trkpt>
      <trkpt lat="40.7021670" lon="-7.9392300">
        <ele>533.8</ele>
        <time>2019-06-10T06:49:06Z</time>
      </trkpt>
      <trkpt lat="40.7021180" lon="-7.9391690">
        <ele>533.6</ele>
        <time>2019-06-10T06:49:07Z</time>
      </trkpt>
      <trkpt lat="40.7020730" lon="-7.9391100">
        <ele>533.4</ele>
        <time>2019-06-10T06:49:08Z</time>
      </trkpt>
      <trkpt lat="40.7020290" lon="-7.9390510">
        <ele>533.3</ele>
        <time>2019-06-10T06:49:09Z</time>
      </trkpt>
      <trkpt lat="40.7018470" lon="-7.9388560">
        <ele>532.7</ele>
        <time>2019-06-10T06:49:13Z</time>
      </trkpt>
      <trkpt lat="40.7017620" lon="-7.9387890">
        <ele>532.5</ele>
        <time>2019-06-10T06:49:15Z</time>
      </trkpt>
      <trkpt lat="40.7015720" lon="-7.9386980">
        <ele>532.0</ele>
        <time>2019-06-10T06:49:19Z</time>
      </trkpt>
      <trkpt lat="40.7013070" lon="-7.9385850">
        <ele>531.0</ele>
        <time>2019-06-10T06:49:24Z</time>
      </trkpt>
      <trkpt lat="40.7012490" lon="-7.9385640">
        <ele>530.8</ele>
        <time>2019-06-10T06:49:25Z</time>
      </trkpt>
      <trkpt lat="40.7011910" lon="-7.9385390">
        <ele>530.6</ele>
        <time>2019-06-10T06:49:26Z</time>
      </trkpt>
      <trkpt lat="40.7011420" lon="-7.9385250">
        <ele>530.0</ele>
        <time>2019-06-10T06:49:27Z</time>
      </trkpt>
      <trkpt lat="40.7010920" lon="-7.9385320">
        <ele>529.9</ele>
        <time>2019-06-10T06:49:28Z</time>
      </trkpt>
      <trkpt lat="40.7010190" lon="-7.9385940">
        <ele>529.6</ele>
        <time>2019-06-10T06:49:30Z</time>
      </trkpt>
      <trkpt lat="40.7010120" lon="-7.9387710">
        <ele>529.2</ele>
        <time>2019-06-10T06:49:33Z</time>
      </trkpt>
      <trkpt lat="40.7010120" lon="-7.9388370">
        <ele>529.0</ele>
        <time>2019-06-10T06:49:34Z</time>
      </trkpt>
      <trkpt lat="40.7010120" lon="-7.9389040">
        <ele>528.9</ele>
        <time>2019-06-10T06:49:35Z</time>
      </trkpt>
      <trkpt lat="40.7010090" lon="-7.9389720">
        <ele>528.7</ele>
        <time>2019-06-10T06:49:36Z</time>
      </trkpt>
      <trkpt lat="40.7010090" lon="-7.9390450">
        <ele>528.5</ele>
        <time>2019-06-10T06:49:37Z</time>
      </trkpt>
      <trkpt lat="40.7010060" lon="-7.9391200">
        <ele>528.4</ele>
        <time>2019-06-10T06:49:38Z</time>
      </trkpt>
      <trkpt lat="40.7010030" lon="-7.9391930">
        <ele>528.2</ele>
        <time>2019-06-10T06:49:39Z</time>
      </trkpt>
      <trkpt lat="40.7010000" lon="-7.9394990">
        <ele>527.7</ele>
        <time>2019-06-10T06:49:43Z</time>
      </trkpt>
      <trkpt lat="40.7009970" lon="-7.9395730">
        <ele>527.6</ele>
        <time>2019-06-10T06:49:44Z</time>
      </trkpt>
      <trkpt lat="40.7009900" lon="-7.9396510">
        <ele>527.5</ele>
        <time>2019-06-10T06:49:45Z</time>
      </trkpt>
      <trkpt lat="40.7009740" lon="-7.9398000">
        <ele>527.2</ele>
        <time>2019-06-10T06:49:47Z</time>
      </trkpt>
      <trkpt lat="40.7009630" lon="-7.9398730">
        <ele>527.0</ele>
        <time>2019-06-10T06:49:48Z</time>
      </trkpt>
      <trkpt lat="40.7009350" lon="-7.9401060">
        <ele>526.8</ele>
        <time>2019-06-10T06:49:51Z</time>
      </trkpt>
      <trkpt lat="40.7009080" lon="-7.9404660">
        <ele>526.7</ele>
        <time>2019-06-10T06:49:56Z</time>
      </trkpt>
      <trkpt lat="40.7009050" lon="-7.9405360">
        <ele>526.7</ele>
        <time>2019-06-10T06:49:57Z</time>
      </trkpt>
      <trkpt lat="40.7009010" lon="-7.9406060">
        <ele>526.7</ele>
        <time>2019-06-10T06:49:58Z</time>
      </trkpt>
      <trkpt lat="40.7008940" lon="-7.9406720">
        <ele>526.6</ele>
        <time>2019-06-10T06:49:59Z</time>
      </trkpt>
      <trkpt lat="40.7008850" lon="-7.9407380">
        <ele>526.6</ele>
        <time>2019-06-10T06:50:00Z</time>
      </trkpt>
      <trkpt lat="40.7008350" lon="-7.9412790">
        <ele>525.1</ele>
        <time>2019-06-10T06:50:08Z</time>
      </trkpt>
      <trkpt lat="40.7007550" lon="-7.9415830">
        <ele>524.1</ele>
        <time>2019-06-10T06:50:13Z</time>
      </trkpt>
      <trkpt lat="40.7007390" lon="-7.9416450">
        <ele>523.9</ele>
        <time>2019-06-10T06:50:14Z</time>
      </trkpt>
      <trkpt lat="40.7007130" lon="-7.9417070">
        <ele>523.8</ele>
        <time>2019-06-10T06:50:15Z</time>
      </trkpt>
      <trkpt lat="40.7006890" lon="-7.9417710">
        <ele>523.6</ele>
        <time>2019-06-10T06:50:16Z</time>
      </trkpt>
      <trkpt lat="40.7006620" lon="-7.9418330">
        <ele>523.4</ele>
        <time>2019-06-10T06:50:17Z</time>
      </trkpt>
      <trkpt lat="40.7004900" lon="-7.9421900">
        <ele>522.5</ele>
        <time>2019-06-10T06:50:23Z</time>
      </trkpt>
      <trkpt lat="40.7003720" lon="-7.9424280">
        <ele>522.0</ele>
        <time>2019-06-10T06:50:27Z</time>
      </trkpt>
      <trkpt lat="40.7003400" lon="-7.9424900">
        <ele>521.9</ele>
        <time>2019-06-10T06:50:28Z</time>
      </trkpt>
      <trkpt lat="40.7003070" lon="-7.9425490">
        <ele>521.7</ele>
        <time>2019-06-10T06:50:29Z</time>
      </trkpt>
      <trkpt lat="40.7002740" lon="-7.9426080">
        <ele>521.5</ele>
        <time>2019-06-10T06:50:30Z</time>
      </trkpt>
      <trkpt lat="40.7002440" lon="-7.9426700">
        <ele>521.3</ele>
        <time>2019-06-10T06:50:31Z</time>
      </trkpt>
      <trkpt lat="40.7002160" lon="-7.9427320">
        <ele>521.1</ele>
        <time>2019-06-10T06:50:32Z</time>
      </trkpt>
      <trkpt lat="40.7000280" lon="-7.9431340">
        <ele>520.2</ele>
        <time>2019-06-10T06:50:39Z</time>
      </trkpt>
      <trkpt lat="40.6999490" lon="-7.9435240">
        <ele>519.4</ele>
        <time>2019-06-10T06:50:45Z</time>
      </trkpt>
      <trkpt lat="40.6999450" lon="-7.9435940">
        <ele>519.2</ele>
        <time>2019-06-10T06:50:46Z</time>
      </trkpt>
      <trkpt lat="40.6999380" lon="-7.9437270">
        <ele>518.9</ele>
        <time>2019-06-10T06:50:48Z</time>
      </trkpt>
      <trkpt lat="40.6999340" lon="-7.9437950">
        <ele>518.7</ele>
        <time>2019-06-10T06:50:49Z</time>
      </trkpt>
      <trkpt lat="40.6999340" lon="-7.9438650">
        <ele>518.5</ele>
        <time>2019-06-10T06:50:50Z</time>
      </trkpt>
      <trkpt lat="40.6999340" lon="-7.9439370">
        <ele>518.4</ele>
        <time>2019-06-10T06:50:51Z</time>
      </trkpt>
      <trkpt lat="40.6999350" lon="-7.9440060">
        <ele>518.2</ele>
        <time>2019-06-10T06:50:52Z</time>
      </trkpt>
      <trkpt lat="40.6999500" lon="-7.9441400">
        <ele>518.0</ele>
        <time>2019-06-10T06:50:54Z</time>
      </trkpt>
      <trkpt lat="40.6999670" lon="-7.9442110">
        <ele>517.8</ele>
        <time>2019-06-10T06:50:55Z</time>
      </trkpt>
      <trkpt lat="40.7000590" lon="-7.9444770">
        <ele>517.4</ele>
        <time>2019-06-10T06:50:59Z</time>
      </trkpt>
      <trkpt lat="40.7001500" lon="-7.9447420">
        <ele>517.0</ele>
        <time>2019-06-10T06:51:03Z</time>
      </trkpt>
      <trkpt lat="40.7001720" lon="-7.9448060">
        <ele>516.8</ele>
        <time>2019-06-10T06:51:04Z</time>
      </trkpt>
      <trkpt lat="40.7001930" lon="-7.9448730">
        <ele>516.6</ele>
        <time>2019-06-10T06:51:05Z</time>
      </trkpt>
      <trkpt lat="40.7002170" lon="-7.9449420">
        <ele>516.4</ele>
        <time>2019-06-10T06:51:06Z</time>
      </trkpt>
      <trkpt lat="40.7002380" lon="-7.9450080">
        <ele>516.2</ele>
        <time>2019-06-10T06:51:07Z</time>
      </trkpt>
      <trkpt lat="40.7003030" lon="-7.9451970">
        <ele>515.6</ele>
        <time>2019-06-10T06:51:10Z</time>
      </trkpt>
      <trkpt lat="40.7005750" lon="-7.9457980">
        <ele>514.7</ele>
        <time>2019-06-10T06:51:20Z</time>
      </trkpt>
      <trkpt lat="40.7008080" lon="-7.9462180">
        <ele>513.3</ele>
        <time>2019-06-10T06:51:27Z</time>
      </trkpt>
      <trkpt lat="40.7010670" lon="-7.9465050">
        <ele>512.6</ele>
        <time>2019-06-10T06:51:33Z</time>
      </trkpt>
      <trkpt lat="40.7011250" lon="-7.9465260">
        <ele>512.5</ele>
        <time>2019-06-10T06:51:34Z</time>
      </trkpt>
      <trkpt lat="40.7011720" lon="-7.9465630">
        <ele>512.3</ele>
        <time>2019-06-10T06:51:35Z</time>
      </trkpt>
      <trkpt lat="40.7012210" lon="-7.9465980">
        <ele>512.2</ele>
        <time>2019-06-10T06:51:36Z</time>
      </trkpt>
      <trkpt lat="40.7012750" lon="-7.9466340">
        <ele>512.0</ele>
        <time>2019-06-10T06:51:37Z</time>
      </trkpt>
      <trkpt lat="40.7015320" lon="-7.9467750">
        <ele>511.3</ele>
        <time>2019-06-10T06:51:42Z</time>
      </trkpt>
      <trkpt lat="40.7017960" lon="-7.9469120">
        <ele>510.9</ele>
        <time>2019-06-10T06:51:47Z</time>
      </trkpt>
      <trkpt lat="40.7018520" lon="-7.9469410">
        <ele>510.7</ele>
        <time>2019-06-10T06:51:48Z</time>
      </trkpt>
      <trkpt lat="40.7019100" lon="-7.9469750">
        <ele>510.6</ele>
        <time>2019-06-10T06:51:49Z</time>
      </trkpt>
      <trkpt lat="40.7019620" lon="-7.9470070">
        <ele>510.5</ele>
        <time>2019-06-10T06:51:50Z</time>
      </trkpt>
      <trkpt lat="40.7020180" lon="-7.9470440">
        <ele>510.3</ele>
        <time>2019-06-10T06:51:51Z</time>
      </trkpt>
      <trkpt lat="40.7023890" lon="-7.9472800">
        <ele>510.1</ele>
        <time>2019-06-10T06:51:58Z</time>
      </trkpt>
      <trkpt lat="40.7024980" lon="-7.9473480">
        <ele>510.0</ele>
        <time>2019-06-10T06:52:00Z</time>
      </trkpt>
      <trkpt lat="40.7025530" lon="-7.9473810">
        <ele>510.0</ele>
        <time>2019-06-10T06:52:01Z</time>
      </trkpt>
      <trkpt lat="40.7026080" lon="-7.9474150">
        <ele>509.9</ele>
        <time>2019-06-10T06:52:02Z</time>
      </trkpt>
      <trkpt lat="40.7026610" lon="-7.9474410">
        <ele>509.7</ele>
        <time>2019-06-10T06:52:03Z</time>
      </trkpt>
      <trkpt lat="40.7027190" lon="-7.9474690">
        <ele>509.5</ele>
        <time>2019-06-10T06:52:04Z</time>
      </trkpt>
      <trkpt lat="40.7027700" lon="-7.9474950">
        <ele>509.3</ele>
        <time>2019-06-10T06:52:05Z</time>
      </trkpt>
      <trkpt lat="40.7028150" lon="-7.9475420">
        <ele>508.9</ele>
        <time>2019-06-10T06:52:06Z</time>
      </trkpt>
      <trkpt lat="40.7029580" lon="-7.9476740">
        <ele>507.9</ele>
        <time>2019-06-10T06:52:09Z</time>
      </trkpt>
      <trkpt lat="40.7032280" lon="-7.9478420">
        <ele>507.1</ele>
        <time>2019-06-10T06:52:14Z</time>
      </trkpt>
      <trkpt lat="40.7032850" lon="-7.9478760">
        <ele>507.0</ele>
        <time>2019-06-10T06:52:15Z</time>
      </trkpt>
      <trkpt lat="40.7033380" lon="-7.9479080">
        <ele>506.9</ele>
        <time>2019-06-10T06:52:16Z</time>
      </trkpt>
      <trkpt lat="40.7033890" lon="-7.9479440">
        <ele>506.8</ele>
        <time>2019-06-10T06:52:17Z</time>
      </trkpt>
      <trkpt lat="40.7034400" lon="-7.9479750">
        <ele>506.7</ele>
        <time>2019-06-10T06:52:18Z</time>
      </trkpt>
      <trkpt lat="40.7035970" lon="-7.9480700">
        <ele>506.6</ele>
        <time>2019-06-10T06:52:21Z</time>
      </trkpt>
      <trkpt lat="40.7037500" lon="-7.9481690">
        <ele>506.2</ele>
        <time>2019-06-10T06:52:24Z</time>
      </trkpt>
      <trkpt lat="40.7038630" lon="-7.9481920">
        <ele>506.2</ele>
        <time>2019-06-10T06:52:26Z</time>
      </trkpt>
      <trkpt lat="40.7041420" lon="-7.9481270">
        <ele>506.4</ele>
        <time>2019-06-10T06:52:31Z</time>
      </trkpt>
      <trkpt lat="40.7043110" lon="-7.9480910">
        <ele>507.2</ele>
        <time>2019-06-10T06:52:34Z</time>
      </trkpt>
      <trkpt lat="40.7044260" lon="-7.9481340">
        <ele>507.5</ele>
        <time>2019-06-10T06:52:36Z</time>
      </trkpt>
      <trkpt lat="40.7044670" lon="-7.9482040">
        <ele>507.4</ele>
        <time>2019-06-10T06:52:37Z</time>
      </trkpt>
      <trkpt lat="40.7044870" lon="-7.9482830">
        <ele>507.3</ele>
        <time>2019-06-10T06:52:38Z</time>
      </trkpt>
      <trkpt lat="40.7044950" lon="-7.9483660">
        <ele>507.3</ele>
        <time>2019-06-10T06:52:39Z</time>
      </trkpt>
      <trkpt lat="40.7045000" lon="-7.9484520">
        <ele>506.4</ele>
        <time>2019-06-10T06:52:40Z</time>
      </trkpt>
      <trkpt lat="40.7045050" lon="-7.9485370">
        <ele>506.1</ele>
        <time>2019-06-10T06:52:41Z</time>
      </trkpt>
      <trkpt lat="40.7045160" lon="-7.9486240">
        <ele>505.8</ele>
        <time>2019-06-10T06:52:42Z</time>
      </trkpt>
      <trkpt lat="40.7047140" lon="-7.9490860">
        <ele>505.6</ele>
        <time>2019-06-10T06:52:48Z</time>
      </trkpt>
      <trkpt lat="40.7047870" lon="-7.9490970">
        <ele>505.9</ele>
        <time>2019-06-10T06:52:49Z</time>
      </trkpt>
      <trkpt lat="40.7048570" lon="-7.9491090">
        <ele>506.1</ele>
        <time>2019-06-10T06:52:50Z</time>
      </trkpt>
      <trkpt lat="40.7051540" lon="-7.9492570">
        <ele>506.5</ele>
        <time>2019-06-10T06:52:55Z</time>
      </trkpt>
      <trkpt lat="40.7052060" lon="-7.9492950">
        <ele>506.6</ele>
        <time>2019-06-10T06:52:56Z</time>
      </trkpt>
      <trkpt lat="40.7052570" lon="-7.9493310">
        <ele>506.8</ele>
        <time>2019-06-10T06:52:57Z</time>
      </trkpt>
      <trkpt lat="40.7053080" lon="-7.9493640">
        <ele>507.0</ele>
        <time>2019-06-10T06:52:58Z</time>
      </trkpt>
      <trkpt lat="40.7053650" lon="-7.9494000">
        <ele>507.1</ele>
        <time>2019-06-10T06:52:59Z</time>
      </trkpt>
      <trkpt lat="40.7055750" lon="-7.9495200">
        <ele>506.7</ele>
        <time>2019-06-10T06:53:03Z</time>
      </trkpt>
      <trkpt lat="40.7060030" lon="-7.9498010">
        <ele>504.3</ele>
        <time>2019-06-10T06:53:11Z</time>
      </trkpt>
      <trkpt lat="40.7060740" lon="-7.9498550">
        <ele>503.7</ele>
        <time>2019-06-10T06:53:12Z</time>
      </trkpt>
      <trkpt lat="40.7061390" lon="-7.9498990">
        <ele>503.2</ele>
        <time>2019-06-10T06:53:13Z</time>
      </trkpt>
      <trkpt lat="40.7062100" lon="-7.9499400">
        <ele>502.6</ele>
        <time>2019-06-10T06:53:14Z</time>
      </trkpt>
      <trkpt lat="40.7062830" lon="-7.9499800">
        <ele>501.9</ele>
        <time>2019-06-10T06:53:15Z</time>
      </trkpt>
      <trkpt lat="40.7063570" lon="-7.9500140">
        <ele>501.3</ele>
        <time>2019-06-10T06:53:16Z</time>
      </trkpt>
      <trkpt lat="40.7064320" lon="-7.9500500">
        <ele>500.8</ele>
        <time>2019-06-10T06:53:17Z</time>
      </trkpt>
      <trkpt lat="40.7065070" lon="-7.9500870">
        <ele>500.1</ele>
        <time>2019-06-10T06:53:18Z</time>
      </trkpt>
      <trkpt lat="40.7065860" lon="-7.9501270">
        <ele>499.5</ele>
        <time>2019-06-10T06:53:19Z</time>
      </trkpt>
      <trkpt lat="40.7066670" lon="-7.9501630">
        <ele>498.9</ele>
        <time>2019-06-10T06:53:20Z</time>
      </trkpt>
      <trkpt lat="40.7067470" lon="-7.9502040">
        <ele>498.5</ele>
        <time>2019-06-10T06:53:21Z</time>
      </trkpt>
      <trkpt lat="40.7068270" lon="-7.9502380">
        <ele>498.0</ele>
        <time>2019-06-10T06:53:22Z</time>
      </trkpt>
      <trkpt lat="40.7069100" lon="-7.9502660">
        <ele>497.6</ele>
        <time>2019-06-10T06:53:23Z</time>
      </trkpt>
      <trkpt lat="40.7069990" lon="-7.9502950">
        <ele>497.2</ele>
        <time>2019-06-10T06:53:24Z</time>
      </trkpt>
      <trkpt lat="40.7070840" lon="-7.9503180">
        <ele>496.8</ele>
        <time>2019-06-10T06:53:25Z</time>
      </trkpt>
      <trkpt lat="40.7071690" lon="-7.9503410">
        <ele>496.4</ele>
        <time>2019-06-10T06:53:26Z</time>
      </trkpt>
      <trkpt lat="40.7072610" lon="-7.9503590">
        <ele>496.0</ele>
        <time>2019-06-10T06:53:27Z</time>
      </trkpt>
      <trkpt lat="40.7074360" lon="-7.9503830">
        <ele>495.2</ele>
        <time>2019-06-10T06:53:29Z</time>
      </trkpt>
      <trkpt lat="40.7075230" lon="-7.9503980">
        <ele>494.8</ele>
        <time>2019-06-10T06:53:30Z</time>
      </trkpt>
      <trkpt lat="40.7076050" lon="-7.9504120">
        <ele>494.5</ele>
        <time>2019-06-10T06:53:31Z</time>
      </trkpt>
      <trkpt lat="40.7076840" lon="-7.9504240">
        <ele>494.1</ele>
        <time>2019-06-10T06:53:32Z</time>
      </trkpt>
      <trkpt lat="40.7077650" lon="-7.9504350">
        <ele>493.7</ele>
        <time>2019-06-10T06:53:33Z</time>
      </trkpt>
      <trkpt lat="40.7078500" lon="-7.9504470">
        <ele>493.3</ele>
        <time>2019-06-10T06:53:34Z</time>
      </trkpt>
      <trkpt lat="40.7079270" lon="-7.9504600">
        <ele>492.9</ele>
        <time>2019-06-10T06:53:35Z</time>
      </trkpt>
      <trkpt lat="40.7080110" lon="-7.9504780">
        <ele>492.5</ele>
        <time>2019-06-10T06:53:36Z</time>
      </trkpt>
      <trkpt lat="40.7080890" lon="-7.9504990">
        <ele>492.2</ele>
        <time>2019-06-10T06:53:37Z</time>
      </trkpt>
      <trkpt lat="40.7081650" lon="-7.9505250">
        <ele>491.9</ele>
        <time>2019-06-10T06:53:38Z</time>
      </trkpt>
      <trkpt lat="40.7084720" lon="-7.9506920">
        <ele>490.8</ele>
        <time>2019-06-10T06:53:42Z</time>
      </trkpt>
      <trkpt lat="40.7085370" lon="-7.9507550">
        <ele>490.5</ele>
        <time>2019-06-10T06:53:43Z</time>
      </trkpt>
      <trkpt lat="40.7085990" lon="-7.9508270">
        <ele>490.3</ele>
        <time>2019-06-10T06:53:44Z</time>
      </trkpt>
      <trkpt lat="40.7086480" lon="-7.9509030">
        <ele>490.1</ele>
        <time>2019-06-10T06:53:45Z</time>
      </trkpt>
      <trkpt lat="40.7087060" lon="-7.9509780">
        <ele>489.8</ele>
        <time>2019-06-10T06:53:46Z</time>
      </trkpt>
      <trkpt lat="40.7087680" lon="-7.9510500">
        <ele>489.6</ele>
        <time>2019-06-10T06:53:47Z</time>
      </trkpt>
      <trkpt lat="40.7088260" lon="-7.9511170">
        <ele>489.5</ele>
        <time>2019-06-10T06:53:48Z</time>
      </trkpt>
      <trkpt lat="40.7092460" lon="-7.9516120">
        <ele>488.2</ele>
        <time>2019-06-10T06:53:56Z</time>
      </trkpt>
      <trkpt lat="40.7092990" lon="-7.9516740">
        <ele>488.0</ele>
        <time>2019-06-10T06:53:57Z</time>
      </trkpt>
      <trkpt lat="40.7093520" lon="-7.9517380">
        <ele>487.8</ele>
        <time>2019-06-10T06:53:58Z</time>
      </trkpt>
      <trkpt lat="40.7094050" lon="-7.9517960">
        <ele>487.6</ele>
        <time>2019-06-10T06:53:59Z</time>
      </trkpt>
      <trkpt lat="40.7094580" lon="-7.9518550">
        <ele>487.5</ele>
        <time>2019-06-10T06:54:00Z</time>
      </trkpt>
      <trkpt lat="40.7098230" lon="-7.9522840">
        <ele>486.5</ele>
        <time>2019-06-10T06:54:07Z</time>
      </trkpt>
      <trkpt lat="40.7098750" lon="-7.9523470">
        <ele>486.2</ele>
        <time>2019-06-10T06:54:08Z</time>
      </trkpt>
      <trkpt lat="40.7099270" lon="-7.9524090">
        <ele>486.0</ele>
        <time>2019-06-10T06:54:09Z</time>
      </trkpt>
      <trkpt lat="40.7099830" lon="-7.9524720">
        <ele>485.7</ele>
        <time>2019-06-10T06:54:10Z</time>
      </trkpt>
      <trkpt lat="40.7100370" lon="-7.9525330">
        <ele>485.5</ele>
        <time>2019-06-10T06:54:11Z</time>
      </trkpt>
      <trkpt lat="40.7103780" lon="-7.9529370">
        <ele>484.7</ele>
        <time>2019-06-10T06:54:18Z</time>
      </trkpt>
      <trkpt lat="40.7105600" lon="-7.9531560">
        <ele>484.5</ele>
        <time>2019-06-10T06:54:22Z</time>
      </trkpt>
      <trkpt lat="40.7106040" lon="-7.9532180">
        <ele>484.4</ele>
        <time>2019-06-10T06:54:23Z</time>
      </trkpt>
      <trkpt lat="40.7106500" lon="-7.9532750">
        <ele>484.3</ele>
        <time>2019-06-10T06:54:24Z</time>
      </trkpt>
      <trkpt lat="40.7106950" lon="-7.9533300">
        <ele>484.3</ele>
        <time>2019-06-10T06:54:25Z</time>
      </trkpt>
      <trkpt lat="40.7107410" lon="-7.9533820">
        <ele>484.2</ele>
        <time>2019-06-10T06:54:26Z</time>
      </trkpt>
      <trkpt lat="40.7107880" lon="-7.9534390">
        <ele>484.1</ele>
        <time>2019-06-10T06:54:27Z</time>
      </trkpt>
      <trkpt lat="40.7112210" lon="-7.9539270">
        <ele>482.9</ele>
        <time>2019-06-10T06:54:36Z</time>
      </trkpt>
      <trkpt lat="40.7112690" lon="-7.9539810">
        <ele>482.8</ele>
        <time>2019-06-10T06:54:37Z</time>
      </trkpt>
      <trkpt lat="40.7113600" lon="-7.9540870">
        <ele>482.6</ele>
        <time>2019-06-10T06:54:39Z</time>
      </trkpt>
      <trkpt lat="40.7114050" lon="-7.9541370">
        <ele>482.5</ele>
        <time>2019-06-10T06:54:40Z</time>
      </trkpt>
      <trkpt lat="40.7114550" lon="-7.9541930">
        <ele>482.3</ele>
        <time>2019-06-10T06:54:41Z</time>
      </trkpt>
      <trkpt lat="40.7115000" lon="-7.9542440">
        <ele>482.2</ele>
        <time>2019-06-10T06:54:42Z</time>
      </trkpt>
      <trkpt lat="40.7115420" lon="-7.9543000">
        <ele>482.1</ele>
        <time>2019-06-10T06:54:43Z</time>
      </trkpt>
      <trkpt lat="40.7115780" lon="-7.9543600">
        <ele>482.0</ele>
        <time>2019-06-10T06:54:44Z</time>
      </trkpt>
      <trkpt lat="40.7117590" lon="-7.9548060">
        <ele>481.5</ele>
        <time>2019-06-10T06:54:50Z</time>
      </trkpt>
      <trkpt lat="40.7117840" lon="-7.9548950">
        <ele>481.4</ele>
        <time>2019-06-10T06:54:51Z</time>
      </trkpt>
      <trkpt lat="40.7118080" lon="-7.9549870">
        <ele>481.2</ele>
        <time>2019-06-10T06:54:52Z</time>
      </trkpt>
      <trkpt lat="40.7118330" lon="-7.9550800">
        <ele>481.1</ele>
        <time>2019-06-10T06:54:53Z</time>
      </trkpt>
      <trkpt lat="40.7118560" lon="-7.9551740">
        <ele>480.9</ele>
        <time>2019-06-10T06:54:54Z</time>
      </trkpt>
      <trkpt lat="40.7119370" lon="-7.9554490">
        <ele>480.5</ele>
        <time>2019-06-10T06:54:57Z</time>
      </trkpt>
      <trkpt lat="40.7119620" lon="-7.9555370">
        <ele>480.2</ele>
        <time>2019-06-10T06:54:58Z</time>
      </trkpt>
      <trkpt lat="40.7119850" lon="-7.9556200">
        <ele>480.0</ele>
        <time>2019-06-10T06:54:59Z</time>
      </trkpt>
      <trkpt lat="40.7120100" lon="-7.9557020">
        <ele>479.8</ele>
        <time>2019-06-10T06:55:00Z</time>
      </trkpt>
      <trkpt lat="40.7120350" lon="-7.9557890">
        <ele>479.5</ele>
        <time>2019-06-10T06:55:01Z</time>
      </trkpt>
      <trkpt lat="40.7120770" lon="-7.9559540">
        <ele>479.0</ele>
        <time>2019-06-10T06:55:03Z</time>
      </trkpt>
      <trkpt lat="40.7121020" lon="-7.9560450">
        <ele>478.7</ele>
        <time>2019-06-10T06:55:04Z</time>
      </trkpt>
      <trkpt lat="40.7121290" lon="-7.9561360">
        <ele>478.4</ele>
        <time>2019-06-10T06:55:05Z</time>
      </trkpt>
      <trkpt lat="40.7121600" lon="-7.9562310">
        <ele>478.1</ele>
        <time>2019-06-10T06:55:06Z</time>
      </trkpt>
      <trkpt lat="40.7122190" lon="-7.9564220">
        <ele>477.4</ele>
        <time>2019-06-10T06:55:08Z</time>
      </trkpt>
      <trkpt lat="40.7122510" lon="-7.9565260">
        <ele>477.0</ele>
        <time>2019-06-10T06:55:09Z</time>
      </trkpt>
      <trkpt lat="40.7123320" lon="-7.9568460">
        <ele>475.9</ele>
        <time>2019-06-10T06:55:12Z</time>
      </trkpt>
      <trkpt lat="40.7123610" lon="-7.9569560">
        <ele>475.6</ele>
        <time>2019-06-10T06:55:13Z</time>
      </trkpt>
      <trkpt lat="40.7123900" lon="-7.9570600">
        <ele>475.3</ele>
        <time>2019-06-10T06:55:14Z</time>
      </trkpt>
      <trkpt lat="40.7124240" lon="-7.9571740">
        <ele>475.0</ele>
        <time>2019-06-10T06:55:15Z</time>
      </trkpt>
      <trkpt lat="40.7124520" lon="-7.9572750">
        <ele>474.8</ele>
        <time>2019-06-10T06:55:16Z</time>
      </trkpt>
      <trkpt lat="40.7126180" lon="-7.9578990">
        <ele>473.8</ele>
        <time>2019-06-10T06:55:22Z</time>
      </trkpt>
      <trkpt lat="40.7126410" lon="-7.9580000">
        <ele>473.6</ele>
        <time>2019-06-10T06:55:23Z</time>
      </trkpt>
      <trkpt lat="40.7126680" lon="-7.9581000">
        <ele>473.5</ele>
        <time>2019-06-10T06:55:24Z</time>
      </trkpt>
      <trkpt lat="40.7126950" lon="-7.9581880">
        <ele>473.3</ele>
        <time>2019-06-10T06:55:25Z</time>
      </trkpt>
      <trkpt lat="40.7127290" lon="-7.9582800">
        <ele>473.2</ele>
        <time>2019-06-10T06:55:26Z</time>
      </trkpt>
      <trkpt lat="40.7129540" lon="-7.9589600">
        <ele>472.3</ele>
        <time>2019-06-10T06:55:34Z</time>
      </trkpt>
      <trkpt lat="40.7132190" lon="-7.9594640">
        <ele>471.9</ele>
        <time>2019-06-10T06:55:41Z</time>
      </trkpt>
      <trkpt lat="40.7134890" lon="-7.9599200">
        <ele>471.4</ele>
        <time>2019-06-10T06:55:48Z</time>
      </trkpt>
      <trkpt lat="40.7137200" lon="-7.9603340">
        <ele>471.0</ele>
        <time>2019-06-10T06:55:54Z</time>
      </trkpt>
      <trkpt lat="40.7137460" lon="-7.9604050">
        <ele>470.8</ele>
        <time>2019-06-10T06:55:55Z</time>
      </trkpt>
      <trkpt lat="40.7137700" lon="-7.9604740">
        <ele>470.6</ele>
        <time>2019-06-10T06:55:56Z</time>
      </trkpt>
      <trkpt lat="40.7137980" lon="-7.9605430">
        <ele>470.3</ele>
        <time>2019-06-10T06:55:57Z</time>
      </trkpt>
      <trkpt lat="40.7138280" lon="-7.9606050">
        <ele>470.0</ele>
        <time>2019-06-10T06:55:58Z</time>
      </trkpt>
      <trkpt lat="40.7139070" lon="-7.9607770">
        <ele>469.4</ele>
        <time>2019-06-10T06:56:01Z</time>
      </trkpt>
      <trkpt lat="40.7139340" lon="-7.9608230">
        <ele>469.6</ele>
        <time>2019-06-10T06:56:02Z</time>
      </trkpt>
      <trkpt lat="40.7140240" lon="-7.9611090">
        <ele>470.6</ele>
        <time>2019-06-10T06:56:07Z</time>
      </trkpt>
      <trkpt lat="40.7142060" lon="-7.9613780">
        <ele>471.1</ele>
        <time>2019-06-10T06:56:13Z</time>
      </trkpt>
      <trkpt lat="40.7142530" lon="-7.9614080">
        <ele>471.0</ele>
        <time>2019-06-10T06:56:14Z</time>
      </trkpt>
      <trkpt lat="40.7143250" lon="-7.9615120">
        <ele>470.7</ele>
        <time>2019-06-10T06:56:16Z</time>
      </trkpt>
      <trkpt lat="40.7144300" lon="-7.9617660">
        <ele>470.0</ele>
        <time>2019-06-10T06:56:20Z</time>
      </trkpt>
      <trkpt lat="40.7144550" lon="-7.9618340">
        <ele>469.9</ele>
        <time>2019-06-10T06:56:21Z</time>
      </trkpt>
      <trkpt lat="40.7144750" lon="-7.9619010">
        <ele>469.7</ele>
        <time>2019-06-10T06:56:22Z</time>
      </trkpt>
      <trkpt lat="40.7144980" lon="-7.9619650">
        <ele>469.6</ele>
        <time>2019-06-10T06:56:23Z</time>
      </trkpt>
      <trkpt lat="40.7145160" lon="-7.9620320">
        <ele>469.4</ele>
        <time>2019-06-10T06:56:24Z</time>
      </trkpt>
      <trkpt lat="40.7145300" lon="-7.9621020">
        <ele>469.2</ele>
        <time>2019-06-10T06:56:25Z</time>
      </trkpt>
      <trkpt lat="40.7145630" lon="-7.9623280">
        <ele>468.7</ele>
        <time>2019-06-10T06:56:28Z</time>
      </trkpt>
      <trkpt lat="40.7146230" lon="-7.9627180">
        <ele>467.6</ele>
        <time>2019-06-10T06:56:33Z</time>
      </trkpt>
      <trkpt lat="40.7146350" lon="-7.9628000">
        <ele>467.3</ele>
        <time>2019-06-10T06:56:34Z</time>
      </trkpt>
      <trkpt lat="40.7146460" lon="-7.9628830">
        <ele>467.1</ele>
        <time>2019-06-10T06:56:35Z</time>
      </trkpt>
      <trkpt lat="40.7146550" lon="-7.9629610">
        <ele>466.8</ele>
        <time>2019-06-10T06:56:36Z</time>
      </trkpt>
      <trkpt lat="40.7146660" lon="-7.9630370">
        <ele>466.6</ele>
        <time>2019-06-10T06:56:37Z</time>
      </trkpt>
      <trkpt lat="40.7146770" lon="-7.9631170">
        <ele>466.4</ele>
        <time>2019-06-10T06:56:38Z</time>
      </trkpt>
      <trkpt lat="40.7146990" lon="-7.9633460">
        <ele>465.8</ele>
        <time>2019-06-10T06:56:41Z</time>
      </trkpt>
      <trkpt lat="40.7147090" lon="-7.9634220">
        <ele>465.5</ele>
        <time>2019-06-10T06:56:42Z</time>
      </trkpt>
      <trkpt lat="40.7147150" lon="-7.9634990">
        <ele>465.3</ele>
        <time>2019-06-10T06:56:43Z</time>
      </trkpt>
      <trkpt lat="40.7147210" lon="-7.9635770">
        <ele>465.1</ele>
        <time>2019-06-10T06:56:44Z</time>
      </trkpt>
      <trkpt lat="40.7147250" lon="-7.9636560">
        <ele>464.9</ele>
        <time>2019-06-10T06:56:45Z</time>
      </trkpt>
      <trkpt lat="40.7147310" lon="-7.9638090">
        <ele>464.7</ele>
        <time>2019-06-10T06:56:47Z</time>
      </trkpt>
      <trkpt lat="40.7147300" lon="-7.9643190">
        <ele>463.7</ele>
        <time>2019-06-10T06:56:54Z</time>
      </trkpt>
      <trkpt lat="40.7147210" lon="-7.9643920">
        <ele>463.5</ele>
        <time>2019-06-10T06:56:55Z</time>
      </trkpt>
      <trkpt lat="40.7147100" lon="-7.9644590">
        <ele>463.4</ele>
        <time>2019-06-10T06:56:56Z</time>
      </trkpt>
      <trkpt lat="40.7147010" lon="-7.9645280">
        <ele>463.2</ele>
        <time>2019-06-10T06:56:57Z</time>
      </trkpt>
      <trkpt lat="40.7147010" lon="-7.9645940">
        <ele>463.1</ele>
        <time>2019-06-10T06:56:58Z</time>
      </trkpt>
      <trkpt lat="40.7146830" lon="-7.9649600">
        <ele>462.1</ele>
        <time>2019-06-10T06:57:03Z</time>
      </trkpt>
      <trkpt lat="40.7146590" lon="-7.9652790">
        <ele>461.2</ele>
        <time>2019-06-10T06:57:07Z</time>
      </trkpt>
      <trkpt lat="40.7146580" lon="-7.9653580">
        <ele>461.0</ele>
        <time>2019-06-10T06:57:08Z</time>
      </trkpt>
      <trkpt lat="40.7146560" lon="-7.9654400">
        <ele>460.8</ele>
        <time>2019-06-10T06:57:09Z</time>
      </trkpt>
      <trkpt lat="40.7146550" lon="-7.9655190">
        <ele>460.6</ele>
        <time>2019-06-10T06:57:10Z</time>
      </trkpt>
      <trkpt lat="40.7146530" lon="-7.9655960">
        <ele>460.5</ele>
        <time>2019-06-10T06:57:11Z</time>
      </trkpt>
      <trkpt lat="40.7146390" lon="-7.9658160">
        <ele>460.1</ele>
        <time>2019-06-10T06:57:14Z</time>
      </trkpt>
      <trkpt lat="40.7145660" lon="-7.9663120">
        <ele>458.9</ele>
        <time>2019-06-10T06:57:21Z</time>
      </trkpt>
      <trkpt lat="40.7145460" lon="-7.9663770">
        <ele>458.7</ele>
        <time>2019-06-10T06:57:22Z</time>
      </trkpt>
      <trkpt lat="40.7145260" lon="-7.9664440">
        <ele>458.5</ele>
        <time>2019-06-10T06:57:23Z</time>
      </trkpt>
      <trkpt lat="40.7145050" lon="-7.9665130">
        <ele>458.3</ele>
        <time>2019-06-10T06:57:24Z</time>
      </trkpt>
      <trkpt lat="40.7144860" lon="-7.9665780">
        <ele>458.1</ele>
        <time>2019-06-10T06:57:25Z</time>
      </trkpt>
      <trkpt lat="40.7144610" lon="-7.9666410">
        <ele>457.9</ele>
        <time>2019-06-10T06:57:26Z</time>
      </trkpt>
      <trkpt lat="40.7144140" lon="-7.9667820">
        <ele>457.5</ele>
        <time>2019-06-10T06:57:28Z</time>
      </trkpt>
      <trkpt lat="40.7143560" lon="-7.9669090">
        <ele>457.0</ele>
        <time>2019-06-10T06:57:30Z</time>
      </trkpt>
      <trkpt lat="40.7142430" lon="-7.9671640">
        <ele>456.2</ele>
        <time>2019-06-10T06:57:34Z</time>
      </trkpt>
      <trkpt lat="40.7142140" lon="-7.9672250">
        <ele>456.1</ele>
        <time>2019-06-10T06:57:35Z</time>
      </trkpt>
      <trkpt lat="40.7141870" lon="-7.9672850">
        <ele>456.0</ele>
        <time>2019-06-10T06:57:36Z</time>
      </trkpt>
      <trkpt lat="40.7141630" lon="-7.9673450">
        <ele>455.9</ele>
        <time>2019-06-10T06:57:37Z</time>
      </trkpt>
      <trkpt lat="40.7141410" lon="-7.9674050">
        <ele>455.8</ele>
        <time>2019-06-10T06:57:38Z</time>
      </trkpt>
      <trkpt lat="40.7140520" lon="-7.9676630">
        <ele>455.4</ele>
        <time>2019-06-10T06:57:42Z</time>
      </trkpt>
      <trkpt lat="40.7138580" lon="-7.9681700">
        <ele>454.5</ele>
        <time>2019-06-10T06:57:50Z</time>
      </trkpt>
      <trkpt lat="40.7138420" lon="-7.9682440">
        <ele>454.4</ele>
        <time>2019-06-10T06:57:51Z</time>
      </trkpt>
      <trkpt lat="40.7138150" lon="-7.9683090">
        <ele>454.3</ele>
        <time>2019-06-10T06:57:52Z</time>
      </trkpt>
      <trkpt lat="40.7137860" lon="-7.9683720">
        <ele>454.2</ele>
        <time>2019-06-10T06:57:53Z</time>
      </trkpt>
      <trkpt lat="40.7137590" lon="-7.9684340">
        <ele>454.1</ele>
        <time>2019-06-10T06:57:54Z</time>
      </trkpt>
      <trkpt lat="40.7137270" lon="-7.9684960">
        <ele>454.0</ele>
        <time>2019-06-10T06:57:55Z</time>
      </trkpt>
      <trkpt lat="40.7136930" lon="-7.9685640">
        <ele>453.9</ele>
        <time>2019-06-10T06:57:56Z</time>
      </trkpt>
      <trkpt lat="40.7136210" lon="-7.9687670">
        <ele>453.6</ele>
        <time>2019-06-10T06:57:59Z</time>
      </trkpt>
      <trkpt lat="40.7135800" lon="-7.9688950">
        <ele>453.4</ele>
        <time>2019-06-10T06:58:01Z</time>
      </trkpt>
      <trkpt lat="40.7133600" lon="-7.9695060">
        <ele>452.5</ele>
        <time>2019-06-10T06:58:10Z</time>
      </trkpt>
      <trkpt lat="40.7132470" lon="-7.9697960">
        <ele>451.7</ele>
        <time>2019-06-10T06:58:14Z</time>
      </trkpt>
      <trkpt lat="40.7132150" lon="-7.9698760">
        <ele>451.4</ele>
        <time>2019-06-10T06:58:15Z</time>
      </trkpt>
      <trkpt lat="40.7131860" lon="-7.9699510">
        <ele>451.2</ele>
        <time>2019-06-10T06:58:16Z</time>
      </trkpt>
      <trkpt lat="40.7131550" lon="-7.9700260">
        <ele>451.1</ele>
        <time>2019-06-10T06:58:17Z</time>
      </trkpt>
      <trkpt lat="40.7131230" lon="-7.9701050">
        <ele>450.9</ele>
        <time>2019-06-10T06:58:18Z</time>
      </trkpt>
      <trkpt lat="40.7130630" lon="-7.9702590">
        <ele>450.7</ele>
        <time>2019-06-10T06:58:20Z</time>
      </trkpt>
      <trkpt lat="40.7128210" lon="-7.9709020">
        <ele>450.2</ele>
        <time>2019-06-10T06:58:28Z</time>
      </trkpt>
      <trkpt lat="40.7127940" lon="-7.9709790">
        <ele>450.2</ele>
        <time>2019-06-10T06:58:29Z</time>
      </trkpt>
      <trkpt lat="40.7127030" lon="-7.9715300">
        <ele>450.8</ele>
        <time>2019-06-10T06:58:36Z</time>
      </trkpt>
      <trkpt lat="40.7127070" lon="-7.9720460">
        <ele>452.1</ele>
        <time>2019-06-10T06:58:43Z</time>
      </trkpt>
      <trkpt lat="40.7127640" lon="-7.9724790">
        <ele>453.5</ele>
        <time>2019-06-10T06:58:50Z</time>
      </trkpt>
      <trkpt lat="40.7127720" lon="-7.9725360">
        <ele>453.6</ele>
        <time>2019-06-10T06:58:51Z</time>
      </trkpt>
      <trkpt lat="40.7127800" lon="-7.9725920">
        <ele>453.8</ele>
        <time>2019-06-10T06:58:52Z</time>
      </trkpt>
      <trkpt lat="40.7127860" lon="-7.9726470">
        <ele>453.9</ele>
        <time>2019-06-10T06:58:53Z</time>
      </trkpt>
      <trkpt lat="40.7127930" lon="-7.9727020">
        <ele>454.1</ele>
        <time>2019-06-10T06:58:54Z</time>
      </trkpt>
      <trkpt lat="40.7128310" lon="-7.9729600">
        <ele>454.6</ele>
        <time>2019-06-10T06:58:59Z</time>
      </trkpt>
      <trkpt lat="40.7128380" lon="-7.9730070">
        <ele>454.7</ele>
        <time>2019-06-10T06:59:00Z</time>
      </trkpt>
      <trkpt lat="40.7128460" lon="-7.9730520">
        <ele>454.8</ele>
        <time>2019-06-10T06:59:01Z</time>
      </trkpt>
      <trkpt lat="40.7128540" lon="-7.9730950">
        <ele>454.8</ele>
        <time>2019-06-10T06:59:02Z</time>
      </trkpt>
      <trkpt lat="40.7128600" lon="-7.9731450">
        <ele>454.9</ele>
        <time>2019-06-10T06:59:03Z</time>
      </trkpt>
      <trkpt lat="40.7128900" lon="-7.9733520">
        <ele>455.0</ele>
        <time>2019-06-10T06:59:07Z</time>
      </trkpt>
      <trkpt lat="40.7128940" lon="-7.9734590">
        <ele>455.1</ele>
        <time>2019-06-10T06:59:09Z</time>
      </trkpt>
      <trkpt lat="40.7128980" lon="-7.9735590">
        <ele>455.1</ele>
        <time>2019-06-10T06:59:11Z</time>
      </trkpt>
      <trkpt lat="40.7129010" lon="-7.9736130">
        <ele>455.1</ele>
        <time>2019-06-10T06:59:12Z</time>
      </trkpt>
      <trkpt lat="40.7129390" lon="-7.9740490">
        <ele>455.8</ele>
        <time>2019-06-10T06:59:19Z</time>
      </trkpt>
      <trkpt lat="40.7129670" lon="-7.9745160">
        <ele>456.0</ele>
        <time>2019-06-10T06:59:26Z</time>
      </trkpt>
      <trkpt lat="40.7130570" lon="-7.9751810">
        <ele>455.2</ele>
        <time>2019-06-10T06:59:36Z</time>
      </trkpt>
      <trkpt lat="40.7130740" lon="-7.9757490">
        <ele>454.3</ele>
        <time>2019-06-10T06:59:45Z</time>
      </trkpt>
      <trkpt lat="40.7130110" lon="-7.9762990">
        <ele>452.8</ele>
        <time>2019-06-10T06:59:54Z</time>
      </trkpt>
      <trkpt lat="40.7129580" lon="-7.9767000">
        <ele>452.1</ele>
        <time>2019-06-10T07:00:00Z</time>
      </trkpt>
      <trkpt lat="40.7129440" lon="-7.9767650">
        <ele>452.0</ele>
        <time>2019-06-10T07:00:01Z</time>
      </trkpt>
      <trkpt lat="40.7129300" lon="-7.9768270">
        <ele>451.9</ele>
        <time>2019-06-10T07:00:02Z</time>
      </trkpt>
      <trkpt lat="40.7129140" lon="-7.9768890">
        <ele>451.9</ele>
        <time>2019-06-10T07:00:03Z</time>
      </trkpt>
      <trkpt lat="40.7129000" lon="-7.9769500">
        <ele>451.9</ele>
        <time>2019-06-10T07:00:04Z</time>
      </trkpt>
      <trkpt lat="40.7128650" lon="-7.9770630">
        <ele>451.8</ele>
        <time>2019-06-10T07:00:06Z</time>
      </trkpt>
      <trkpt lat="40.7128060" lon="-7.9772250">
        <ele>451.6</ele>
        <time>2019-06-10T07:00:09Z</time>
      </trkpt>
      <trkpt lat="40.7127080" lon="-7.9777130">
        <ele>451.0</ele>
        <time>2019-06-10T07:00:17Z</time>
      </trkpt>
      <trkpt lat="40.7125770" lon="-7.9782360">
        <ele>450.1</ele>
        <time>2019-06-10T07:00:26Z</time>
      </trkpt>
      <trkpt lat="40.7125700" lon="-7.9783010">
        <ele>450.0</ele>
        <time>2019-06-10T07:00:27Z</time>
      </trkpt>
      <trkpt lat="40.7125220" lon="-7.9786290">
        <ele>450.2</ele>
        <time>2019-06-10T07:00:32Z</time>
      </trkpt>
      <trkpt lat="40.7125120" lon="-7.9786980">
        <ele>450.4</ele>
        <time>2019-06-10T07:00:33Z</time>
      </trkpt>
      <trkpt lat="40.7125020" lon="-7.9787600">
        <ele>450.5</ele>
        <time>2019-06-10T07:00:34Z</time>
      </trkpt>
      <trkpt lat="40.7124900" lon="-7.9788300">
        <ele>450.7</ele>
        <time>2019-06-10T07:00:35Z</time>
      </trkpt>
      <trkpt lat="40.7124750" lon="-7.9788970">
        <ele>451.0</ele>
        <time>2019-06-10T07:00:36Z</time>
      </trkpt>
      <trkpt lat="40.7124330" lon="-7.9790890">
        <ele>451.8</ele>
        <time>2019-06-10T07:00:39Z</time>
      </trkpt>
      <trkpt lat="40.7122850" lon="-7.9797070">
        <ele>454.7</ele>
        <time>2019-06-10T07:00:49Z</time>
      </trkpt>
      <trkpt lat="40.7122100" lon="-7.9800760">
        <ele>456.7</ele>
        <time>2019-06-10T07:00:55Z</time>
      </trkpt>
      <trkpt lat="40.7122020" lon="-7.9801380">
        <ele>457.0</ele>
        <time>2019-06-10T07:00:56Z</time>
      </trkpt>
      <trkpt lat="40.7121950" lon="-7.9801990">
        <ele>457.3</ele>
        <time>2019-06-10T07:00:57Z</time>
      </trkpt>
      <trkpt lat="40.7121900" lon="-7.9802600">
        <ele>457.6</ele>
        <time>2019-06-10T07:00:58Z</time>
      </trkpt>
      <trkpt lat="40.7121850" lon="-7.9803220">
        <ele>457.9</ele>
        <time>2019-06-10T07:00:59Z</time>
      </trkpt>
      <trkpt lat="40.7121980" lon="-7.9807420">
        <ele>459.4</ele>
        <time>2019-06-10T07:01:06Z</time>
      </trkpt>
      <trkpt lat="40.7122530" lon="-7.9809610">
        <ele>459.6</ele>
        <time>2019-06-10T07:01:10Z</time>
      </trkpt>
      <trkpt lat="40.7122910" lon="-7.9810720">
        <ele>459.6</ele>
        <time>2019-06-10T07:01:12Z</time>
      </trkpt>
      <trkpt lat="40.7124140" lon="-7.9813590">
        <ele>459.0</ele>
        <time>2019-06-10T07:01:17Z</time>
      </trkpt>
      <trkpt lat="40.7124420" lon="-7.9814120">
        <ele>458.9</ele>
        <time>2019-06-10T07:01:18Z</time>
      </trkpt>
      <trkpt lat="40.7124690" lon="-7.9814620">
        <ele>458.8</ele>
        <time>2019-06-10T07:01:19Z</time>
      </trkpt>
      <trkpt lat="40.7124960" lon="-7.9815140">
        <ele>458.7</ele>
        <time>2019-06-10T07:01:20Z</time>
      </trkpt>
      <trkpt lat="40.7125220" lon="-7.9815630">
        <ele>458.7</ele>
        <time>2019-06-10T07:01:21Z</time>
      </trkpt>
      <trkpt lat="40.7126210" lon="-7.9817370">
        <ele>458.5</ele>
        <time>2019-06-10T07:01:25Z</time>
      </trkpt>
      <trkpt lat="40.7127630" lon="-7.9820130">
        <ele>458.7</ele>
        <time>2019-06-10T07:01:31Z</time>
      </trkpt>
      <trkpt lat="40.7128390" lon="-7.9821240">
        <ele>458.9</ele>
        <time>2019-06-10T07:01:33Z</time>
      </trkpt>
      <trkpt lat="40.7129820" lon="-7.9823300">
        <ele>459.5</ele>
        <time>2019-06-10T07:01:37Z</time>
      </trkpt>
      <trkpt lat="40.7130880" lon="-7.9824380">
        <ele>460.0</ele>
        <time>2019-06-10T07:01:40Z</time>
      </trkpt>
      <trkpt lat="40.7131490" lon="-7.9824740">
        <ele>460.2</ele>
        <time>2019-06-10T07:01:42Z</time>
      </trkpt>
      <trkpt lat="40.7131800" lon="-7.9824920">
        <ele>460.2</ele>
        <time>2019-06-10T07:01:43Z</time>
      </trkpt>
      <trkpt lat="40.7132040" lon="-7.9825070">
        <ele>460.3</ele>
        <time>2019-06-10T07:01:44Z</time>
      </trkpt>
      <trkpt lat="40.7132440" lon="-7.9825300">
        <ele>460.4</ele>
        <time>2019-06-10T07:01:45Z</time>
      </trkpt>
      <trkpt lat="40.7133030" lon="-7.9825600">
        <ele>460.6</ele>
        <time>2019-06-10T07:01:46Z</time>
      </trkpt>
      <trkpt lat="40.7133600" lon="-7.9825890">
        <ele>460.8</ele>
        <time>2019-06-10T07:01:47Z</time>
      </trkpt>
      <trkpt lat="40.7136250" lon="-7.9827000">
        <ele>461.3</ele>
        <time>2019-06-10T07:01:53Z</time>
      </trkpt>
      <trkpt lat="40.7138840" lon="-7.9827810">
        <ele>461.3</ele>
        <time>2019-06-10T07:01:58Z</time>
      </trkpt>
      <trkpt lat="40.7141930" lon="-7.9828400">
        <ele>460.7</ele>
        <time>2019-06-10T07:02:04Z</time>
      </trkpt>
      <trkpt lat="40.7144460" lon="-7.9829600">
        <ele>459.8</ele>
        <time>2019-06-10T07:02:09Z</time>
      </trkpt>
      <trkpt lat="40.7146850" lon="-7.9831040">
        <ele>458.7</ele>
        <time>2019-06-10T07:02:14Z</time>
      </trkpt>
      <trkpt lat="40.7149390" lon="-7.9832900">
        <ele>457.9</ele>
        <time>2019-06-10T07:02:19Z</time>
      </trkpt>
      <trkpt lat="40.7152710" lon="-7.9835760">
        <ele>458.3</ele>
        <time>2019-06-10T07:02:26Z</time>
      </trkpt>
      <trkpt lat="40.7156480" lon="-7.9839140">
        <ele>459.8</ele>
        <time>2019-06-10T07:02:34Z</time>
      </trkpt>
      <trkpt lat="40.7160320" lon="-7.9842430">
        <ele>460.0</ele>
        <time>2019-06-10T07:02:42Z</time>
      </trkpt>
      <trkpt lat="40.7160770" lon="-7.9842770">
        <ele>460.0</ele>
        <time>2019-06-10T07:02:43Z</time>
      </trkpt>
      <trkpt lat="40.7161180" lon="-7.9843110">
        <ele>459.9</ele>
        <time>2019-06-10T07:02:44Z</time>
      </trkpt>
      <trkpt lat="40.7161600" lon="-7.9843440">
        <ele>459.9</ele>
        <time>2019-06-10T07:02:45Z</time>
      </trkpt>
      <trkpt lat="40.7162000" lon="-7.9843780">
        <ele>459.9</ele>
        <time>2019-06-10T07:02:46Z</time>
      </trkpt>
      <trkpt lat="40.7162310" lon="-7.9844070">
        <ele>459.9</ele>
        <time>2019-06-10T07:02:47Z</time>
      </trkpt>
      <trkpt lat="40.7163040" lon="-7.9844750">
        <ele>459.9</ele>
        <time>2019-06-10T07:02:49Z</time>
      </trkpt>
      <trkpt lat="40.7163780" lon="-7.9845450">
        <ele>459.9</ele>
        <time>2019-06-10T07:02:51Z</time>
      </trkpt>
      <trkpt lat="40.7165260" lon="-7.9846610">
        <ele>459.9</ele>
        <time>2019-06-10T07:02:54Z</time>
      </trkpt>
      <trkpt lat="40.7168140" lon="-7.9849840">
        <ele>459.9</ele>
        <time>2019-06-10T07:03:01Z</time>
      </trkpt>
      <trkpt lat="40.7168430" lon="-7.9850310">
        <ele>459.9</ele>
        <time>2019-06-10T07:03:02Z</time>
      </trkpt>
      <trkpt lat="40.7170300" lon="-7.9853730">
        <ele>459.9</ele>
        <time>2019-06-10T07:03:07Z</time>
      </trkpt>
      <trkpt lat="40.7170560" lon="-7.9854410">
        <ele>459.9</ele>
        <time>2019-06-10T07:03:08Z</time>
      </trkpt>
      <trkpt lat="40.7171460" lon="-7.9857840">
        <ele>459.9</ele>
        <time>2019-06-10T07:03:12Z</time>
      </trkpt>
      <trkpt lat="40.7171860" lon="-7.9861040">
        <ele>460.0</ele>
        <time>2019-06-10T07:03:16Z</time>
      </trkpt>
      <trkpt lat="40.7171810" lon="-7.9862630">
        <ele>460.0</ele>
        <time>2019-06-10T07:03:18Z</time>
      </trkpt>
      <trkpt lat="40.7171730" lon="-7.9865760">
        <ele>460.0</ele>
        <time>2019-06-10T07:03:22Z</time>
      </trkpt>
      <trkpt lat="40.7171600" lon="-7.9867330">
        <ele>460.0</ele>
        <time>2019-06-10T07:03:24Z</time>
      </trkpt>
      <trkpt lat="40.7171300" lon="-7.9874540">
        <ele>460.0</ele>
        <time>2019-06-10T07:03:33Z</time>
      </trkpt>
      <trkpt lat="40.7170970" lon="-7.9879380">
        <ele>459.9</ele>
        <time>2019-06-10T07:03:40Z</time>
      </trkpt>
      <trkpt lat="40.7171030" lon="-7.9880080">
        <ele>459.9</ele>
        <time>2019-06-10T07:03:44Z</time>
      </trkpt>
      <trkpt lat="40.7171010" lon="-7.9880140">
        <ele>459.9</ele>
        <time>2019-06-10T07:03:46Z</time>
      </trkpt>
      <trkpt lat="40.7170910" lon="-7.9880290">
        <ele>459.9</ele>
        <time>2019-06-10T07:08:44Z</time>
      </trkpt>
      <trkpt lat="40.7170930" lon="-7.9880430">
        <ele>459.8</ele>
        <time>2019-06-10T07:08:46Z</time>
      </trkpt>
      <trkpt lat="40.7170720" lon="-7.9881040">
        <ele>459.8</ele>
        <time>2019-06-10T07:08:53Z</time>
      </trkpt>
      <trkpt lat="40.7170240" lon="-7.9883780">
        <ele>459.8</ele>
        <time>2019-06-10T07:09:01Z</time>
      </trkpt>
      <trkpt lat="40.7170190" lon="-7.9887130">
        <ele>459.8</ele>
        <time>2019-06-10T07:09:09Z</time>
      </trkpt>
      <trkpt lat="40.7170200" lon="-7.9892460">
        <ele>459.7</ele>
        <time>2019-06-10T07:09:20Z</time>
      </trkpt>
      <trkpt lat="40.7170130" lon="-7.9895580">
        <ele>459.7</ele>
        <time>2019-06-10T07:09:27Z</time>
      </trkpt>
      <trkpt lat="40.7169840" lon="-7.9899820">
        <ele>459.7</ele>
        <time>2019-06-10T07:09:37Z</time>
      </trkpt>
      <trkpt lat="40.7169700" lon="-7.9903200">
        <ele>459.7</ele>
        <time>2019-06-10T07:09:45Z</time>
      </trkpt>
      <trkpt lat="40.7169210" lon="-7.9907400">
        <ele>459.7</ele>
        <time>2019-06-10T07:09:54Z</time>
      </trkpt>
      <trkpt lat="40.7169180" lon="-7.9909290">
        <ele>459.7</ele>
        <time>2019-06-10T07:09:59Z</time>
      </trkpt>
      <trkpt lat="40.7169430" lon="-7.9912030">
        <ele>459.7</ele>
        <time>2019-06-10T07:10:05Z</time>
      </trkpt>
      <trkpt lat="40.7170870" lon="-7.9916750">
        <ele>460.6</ele>
        <time>2019-06-10T07:10:13Z</time>
      </trkpt>
      <trkpt lat="40.7172630" lon="-7.9920170">
        <ele>461.9</ele>
        <time>2019-06-10T07:10:20Z</time>
      </trkpt>
      <trkpt lat="40.7175160" lon="-7.9923410">
        <ele>461.5</ele>
        <time>2019-06-10T07:10:28Z</time>
      </trkpt>
      <trkpt lat="40.7177850" lon="-7.9925900">
        <ele>460.1</ele>
        <time>2019-06-10T07:10:36Z</time>
      </trkpt>
      <trkpt lat="40.7179420" lon="-7.9928480">
        <ele>460.0</ele>
        <time>2019-06-10T07:10:43Z</time>
      </trkpt>
      <trkpt lat="40.7180250" lon="-7.9930270">
        <ele>459.9</ele>
        <time>2019-06-10T07:10:48Z</time>
      </trkpt>
      <trkpt lat="40.7181450" lon="-7.9933740">
        <ele>458.5</ele>
        <time>2019-06-10T07:10:56Z</time>
      </trkpt>
      <trkpt lat="40.7182110" lon="-7.9937210">
        <ele>457.4</ele>
        <time>2019-06-10T07:11:02Z</time>
      </trkpt>
      <trkpt lat="40.7182470" lon="-7.9941250">
        <ele>456.0</ele>
        <time>2019-06-10T07:11:08Z</time>
      </trkpt>
      <trkpt lat="40.7182570" lon="-7.9941920">
        <ele>455.7</ele>
        <time>2019-06-10T07:11:09Z</time>
      </trkpt>
      <trkpt lat="40.7182700" lon="-7.9942610">
        <ele>455.4</ele>
        <time>2019-06-10T07:11:10Z</time>
      </trkpt>
      <trkpt lat="40.7182840" lon="-7.9943290">
        <ele>455.2</ele>
        <time>2019-06-10T07:11:11Z</time>
      </trkpt>
      <trkpt lat="40.7183010" lon="-7.9943980">
        <ele>454.9</ele>
        <time>2019-06-10T07:11:12Z</time>
      </trkpt>
      <trkpt lat="40.7183710" lon="-7.9947400">
        <ele>453.7</ele>
        <time>2019-06-10T07:11:17Z</time>
      </trkpt>
      <trkpt lat="40.7184740" lon="-7.9952680">
        <ele>451.9</ele>
        <time>2019-06-10T07:11:24Z</time>
      </trkpt>
      <trkpt lat="40.7184900" lon="-7.9953430">
        <ele>451.6</ele>
        <time>2019-06-10T07:11:25Z</time>
      </trkpt>
      <trkpt lat="40.7185090" lon="-7.9954120">
        <ele>451.4</ele>
        <time>2019-06-10T07:11:26Z</time>
      </trkpt>
      <trkpt lat="40.7185330" lon="-7.9954810">
        <ele>451.1</ele>
        <time>2019-06-10T07:11:27Z</time>
      </trkpt>
      <trkpt lat="40.7185610" lon="-7.9955500">
        <ele>451.0</ele>
        <time>2019-06-10T07:11:28Z</time>
      </trkpt>
      <trkpt lat="40.7186010" lon="-7.9956060">
        <ele>450.9</ele>
        <time>2019-06-10T07:11:29Z</time>
      </trkpt>
      <trkpt lat="40.7186480" lon="-7.9956650">
        <ele>450.8</ele>
        <time>2019-06-10T07:11:30Z</time>
      </trkpt>
      <trkpt lat="40.7188070" lon="-7.9958520">
        <ele>450.7</ele>
        <time>2019-06-10T07:11:33Z</time>
      </trkpt>
      <trkpt lat="40.7189160" lon="-7.9959590">
        <ele>450.7</ele>
        <time>2019-06-10T07:11:35Z</time>
      </trkpt>
      <trkpt lat="40.7191720" lon="-7.9961740">
        <ele>450.7</ele>
        <time>2019-06-10T07:11:40Z</time>
      </trkpt>
      <trkpt lat="40.7192260" lon="-7.9962090">
        <ele>450.6</ele>
        <time>2019-06-10T07:11:41Z</time>
      </trkpt>
      <trkpt lat="40.7192820" lon="-7.9962430">
        <ele>450.5</ele>
        <time>2019-06-10T07:11:42Z</time>
      </trkpt>
      <trkpt lat="40.7193420" lon="-7.9962720">
        <ele>450.4</ele>
        <time>2019-06-10T07:11:43Z</time>
      </trkpt>
      <trkpt lat="40.7194000" lon="-7.9962970">
        <ele>450.2</ele>
        <time>2019-06-10T07:11:44Z</time>
      </trkpt>
      <trkpt lat="40.7195140" lon="-7.9963340">
        <ele>449.8</ele>
        <time>2019-06-10T07:11:46Z</time>
      </trkpt>
      <trkpt lat="40.7196350" lon="-7.9963560">
        <ele>449.1</ele>
        <time>2019-06-10T07:11:48Z</time>
      </trkpt>
      <trkpt lat="40.7199460" lon="-7.9963450">
        <ele>447.7</ele>
        <time>2019-06-10T07:11:53Z</time>
      </trkpt>
      <trkpt lat="40.7200100" lon="-7.9963360">
        <ele>447.4</ele>
        <time>2019-06-10T07:11:54Z</time>
      </trkpt>
      <trkpt lat="40.7200750" lon="-7.9963190">
        <ele>447.1</ele>
        <time>2019-06-10T07:11:55Z</time>
      </trkpt>
      <trkpt lat="40.7201410" lon="-7.9963020">
        <ele>446.8</ele>
        <time>2019-06-10T07:11:56Z</time>
      </trkpt>
      <trkpt lat="40.7202040" lon="-7.9962890">
        <ele>446.6</ele>
        <time>2019-06-10T07:11:57Z</time>
      </trkpt>
      <trkpt lat="40.7203660" lon="-7.9962450">
        <ele>446.1</ele>
        <time>2019-06-10T07:12:00Z</time>
      </trkpt>
      <trkpt lat="40.7207670" lon="-7.9961020">
        <ele>445.5</ele>
        <time>2019-06-10T07:12:07Z</time>
      </trkpt>
      <trkpt lat="40.7208780" lon="-7.9960610">
        <ele>445.2</ele>
        <time>2019-06-10T07:12:09Z</time>
      </trkpt>
      <trkpt lat="40.7209330" lon="-7.9960470">
        <ele>445.0</ele>
        <time>2019-06-10T07:12:10Z</time>
      </trkpt>
      <trkpt lat="40.7209870" lon="-7.9960370">
        <ele>445.0</ele>
        <time>2019-06-10T07:12:11Z</time>
      </trkpt>
      <trkpt lat="40.7210450" lon="-7.9960280">
        <ele>444.9</ele>
        <time>2019-06-10T07:12:12Z</time>
      </trkpt>
      <trkpt lat="40.7210990" lon="-7.9960210">
        <ele>444.9</ele>
        <time>2019-06-10T07:12:13Z</time>
      </trkpt>
      <trkpt lat="40.7212060" lon="-7.9960060">
        <ele>444.9</ele>
        <time>2019-06-10T07:12:15Z</time>
      </trkpt>
      <trkpt lat="40.7215490" lon="-7.9960210">
        <ele>444.9</ele>
        <time>2019-06-10T07:12:21Z</time>
      </trkpt>
      <trkpt lat="40.7219180" lon="-7.9961920">
        <ele>444.9</ele>
        <time>2019-06-10T07:12:28Z</time>
      </trkpt>
      <trkpt lat="40.7220720" lon="-7.9962970">
        <ele>445.0</ele>
        <time>2019-06-10T07:12:31Z</time>
      </trkpt>
      <trkpt lat="40.7221580" lon="-7.9963930">
        <ele>445.0</ele>
        <time>2019-06-10T07:12:33Z</time>
      </trkpt>
      <trkpt lat="40.7223830" lon="-7.9967780">
        <ele>444.0</ele>
        <time>2019-06-10T07:12:39Z</time>
      </trkpt>
      <trkpt lat="40.7226040" lon="-7.9973910">
        <ele>442.6</ele>
        <time>2019-06-10T07:12:47Z</time>
      </trkpt>
      <trkpt lat="40.7226230" lon="-7.9974750">
        <ele>442.5</ele>
        <time>2019-06-10T07:12:48Z</time>
      </trkpt>
      <trkpt lat="40.7226400" lon="-7.9975600">
        <ele>442.3</ele>
        <time>2019-06-10T07:12:49Z</time>
      </trkpt>
      <trkpt lat="40.7226580" lon="-7.9976450">
        <ele>442.2</ele>
        <time>2019-06-10T07:12:50Z</time>
      </trkpt>
      <trkpt lat="40.7226760" lon="-7.9977270">
        <ele>442.1</ele>
        <time>2019-06-10T07:12:51Z</time>
      </trkpt>
      <trkpt lat="40.7227690" lon="-7.9981370">
        <ele>441.4</ele>
        <time>2019-06-10T07:12:56Z</time>
      </trkpt>
      <trkpt lat="40.7228860" lon="-7.9986360">
        <ele>440.5</ele>
        <time>2019-06-10T07:13:02Z</time>
      </trkpt>
      <trkpt lat="40.7229050" lon="-7.9987220">
        <ele>440.4</ele>
        <time>2019-06-10T07:13:03Z</time>
      </trkpt>
      <trkpt lat="40.7229250" lon="-7.9988120">
        <ele>440.2</ele>
        <time>2019-06-10T07:13:04Z</time>
      </trkpt>
      <trkpt lat="40.7229450" lon="-7.9988930">
        <ele>440.1</ele>
        <time>2019-06-10T07:13:05Z</time>
      </trkpt>
      <trkpt lat="40.7229650" lon="-7.9989680">
        <ele>439.9</ele>
        <time>2019-06-10T07:13:06Z</time>
      </trkpt>
      <trkpt lat="40.7230730" lon="-7.9993980">
        <ele>438.7</ele>
        <time>2019-06-10T07:13:11Z</time>
      </trkpt>
      <trkpt lat="40.7231380" lon="-7.9996550">
        <ele>438.0</ele>
        <time>2019-06-10T07:13:14Z</time>
      </trkpt>
      <trkpt lat="40.7231620" lon="-7.9997410">
        <ele>437.8</ele>
        <time>2019-06-10T07:13:15Z</time>
      </trkpt>
      <trkpt lat="40.7231850" lon="-7.9998240">
        <ele>437.6</ele>
        <time>2019-06-10T07:13:16Z</time>
      </trkpt>
      <trkpt lat="40.7232050" lon="-7.9999120">
        <ele>437.3</ele>
        <time>2019-06-10T07:13:17Z</time>
      </trkpt>
      <trkpt lat="40.7232270" lon="-8.0000010">
        <ele>437.1</ele>
        <time>2019-06-10T07:13:18Z</time>
      </trkpt>
      <trkpt lat="40.7232670" lon="-8.0001750">
        <ele>436.8</ele>
        <time>2019-06-10T07:13:20Z</time>
      </trkpt>
      <trkpt lat="40.7233350" lon="-8.0006170">
        <ele>436.8</ele>
        <time>2019-06-10T07:13:25Z</time>
      </trkpt>
      <trkpt lat="40.7233370" lon="-8.0007060">
        <ele>436.7</ele>
        <time>2019-06-10T07:13:26Z</time>
      </trkpt>
      <trkpt lat="40.7233020" lon="-8.0012170">
        <ele>435.4</ele>
        <time>2019-06-10T07:13:31Z</time>
      </trkpt>
      <trkpt lat="40.7232950" lon="-8.0013210">
        <ele>435.3</ele>
        <time>2019-06-10T07:13:32Z</time>
      </trkpt>
      <trkpt lat="40.7232860" lon="-8.0014300">
        <ele>435.1</ele>
        <time>2019-06-10T07:13:33Z</time>
      </trkpt>
      <trkpt lat="40.7232770" lon="-8.0015240">
        <ele>435.0</ele>
        <time>2019-06-10T07:13:34Z</time>
      </trkpt>
      <trkpt lat="40.7232660" lon="-8.0016130">
        <ele>434.8</ele>
        <time>2019-06-10T07:13:35Z</time>
      </trkpt>
      <trkpt lat="40.7232480" lon="-8.0017870">
        <ele>434.4</ele>
        <time>2019-06-10T07:13:37Z</time>
      </trkpt>
      <trkpt lat="40.7232650" lon="-8.0019840">
        <ele>433.9</ele>
        <time>2019-06-10T07:13:39Z</time>
      </trkpt>
      <trkpt lat="40.7232720" lon="-8.0020850">
        <ele>433.6</ele>
        <time>2019-06-10T07:13:40Z</time>
      </trkpt>
      <trkpt lat="40.7232850" lon="-8.0021790">
        <ele>433.4</ele>
        <time>2019-06-10T07:13:41Z</time>
      </trkpt>
      <trkpt lat="40.7233040" lon="-8.0022760">
        <ele>433.2</ele>
        <time>2019-06-10T07:13:42Z</time>
      </trkpt>
      <trkpt lat="40.7233160" lon="-8.0023680">
        <ele>433.0</ele>
        <time>2019-06-10T07:13:43Z</time>
      </trkpt>
      <trkpt lat="40.7233410" lon="-8.0024670">
        <ele>432.7</ele>
        <time>2019-06-10T07:13:44Z</time>
      </trkpt>
      <trkpt lat="40.7233950" lon="-8.0026450">
        <ele>432.3</ele>
        <time>2019-06-10T07:13:46Z</time>
      </trkpt>
      <trkpt lat="40.7234290" lon="-8.0027430">
        <ele>432.1</ele>
        <time>2019-06-10T07:13:47Z</time>
      </trkpt>
      <trkpt lat="40.7236050" lon="-8.0030670">
        <ele>431.8</ele>
        <time>2019-06-10T07:13:51Z</time>
      </trkpt>
      <trkpt lat="40.7237130" lon="-8.0032100">
        <ele>432.2</ele>
        <time>2019-06-10T07:13:53Z</time>
      </trkpt>
      <trkpt lat="40.7237730" lon="-8.0032800">
        <ele>432.4</ele>
        <time>2019-06-10T07:13:54Z</time>
      </trkpt>
      <trkpt lat="40.7238320" lon="-8.0033420">
        <ele>432.6</ele>
        <time>2019-06-10T07:13:55Z</time>
      </trkpt>
      <trkpt lat="40.7238900" lon="-8.0033920">
        <ele>432.8</ele>
        <time>2019-06-10T07:13:56Z</time>
      </trkpt>
      <trkpt lat="40.7239490" lon="-8.0034320">
        <ele>433.0</ele>
        <time>2019-06-10T07:13:57Z</time>
      </trkpt>
      <trkpt lat="40.7241450" lon="-8.0035560">
        <ele>433.6</ele>
        <time>2019-06-10T07:14:00Z</time>
      </trkpt>
      <trkpt lat="40.7242040" lon="-8.0035900">
        <ele>433.8</ele>
        <time>2019-06-10T07:14:01Z</time>
      </trkpt>
      <trkpt lat="40.7242580" lon="-8.0036280">
        <ele>434.0</ele>
        <time>2019-06-10T07:14:02Z</time>
      </trkpt>
      <trkpt lat="40.7243110" lon="-8.0036480">
        <ele>434.2</ele>
        <time>2019-06-10T07:14:03Z</time>
      </trkpt>
      <trkpt lat="40.7243640" lon="-8.0036620">
        <ele>434.4</ele>
        <time>2019-06-10T07:14:04Z</time>
      </trkpt>
      <trkpt lat="40.7244230" lon="-8.0036850">
        <ele>434.5</ele>
        <time>2019-06-10T07:14:05Z</time>
      </trkpt>
      <trkpt lat="40.7247860" lon="-8.0037000">
        <ele>435.3</ele>
        <time>2019-06-10T07:14:11Z</time>
      </trkpt>
      <trkpt lat="40.7251110" lon="-8.0036750">
        <ele>436.0</ele>
        <time>2019-06-10T07:14:17Z</time>
      </trkpt>
      <trkpt lat="40.7251630" lon="-8.0036760">
        <ele>436.0</ele>
        <time>2019-06-10T07:14:18Z</time>
      </trkpt>
      <trkpt lat="40.7252090" lon="-8.0036750">
        <ele>436.0</ele>
        <time>2019-06-10T07:14:19Z</time>
      </trkpt>
      <trkpt lat="40.7252500" lon="-8.0036820">
        <ele>436.0</ele>
        <time>2019-06-10T07:14:20Z</time>
      </trkpt>
      <trkpt lat="40.7252970" lon="-8.0036880">
        <ele>436.0</ele>
        <time>2019-06-10T07:14:21Z</time>
      </trkpt>
      <trkpt lat="40.7254560" lon="-8.0037020">
        <ele>435.7</ele>
        <time>2019-06-10T07:14:24Z</time>
      </trkpt>
      <trkpt lat="40.7257810" lon="-8.0037440">
        <ele>435.5</ele>
        <time>2019-06-10T07:14:30Z</time>
      </trkpt>
      <trkpt lat="40.7260420" lon="-8.0038770">
        <ele>435.7</ele>
        <time>2019-06-10T07:14:35Z</time>
      </trkpt>
      <trkpt lat="40.7262640" lon="-8.0040600">
        <ele>435.9</ele>
        <time>2019-06-10T07:14:40Z</time>
      </trkpt>
      <trkpt lat="40.7263090" lon="-8.0041160">
        <ele>435.9</ele>
        <time>2019-06-10T07:14:41Z</time>
      </trkpt>
      <trkpt lat="40.7264420" lon="-8.0042770">
        <ele>436.3</ele>
        <time>2019-06-10T07:14:44Z</time>
      </trkpt>
      <trkpt lat="40.7265380" lon="-8.0044530">
        <ele>436.6</ele>
        <time>2019-06-10T07:14:47Z</time>
      </trkpt>
      <trkpt lat="40.7266930" lon="-8.0048620">
        <ele>437.0</ele>
        <time>2019-06-10T07:14:53Z</time>
      </trkpt>
      <trkpt lat="40.7267940" lon="-8.0054110">
        <ele>436.6</ele>
        <time>2019-06-10T07:15:00Z</time>
      </trkpt>
      <trkpt lat="40.7269480" lon="-8.0060720">
        <ele>436.2</ele>
        <time>2019-06-10T07:15:08Z</time>
      </trkpt>
      <trkpt lat="40.7270800" lon="-8.0068060">
        <ele>435.3</ele>
        <time>2019-06-10T07:15:17Z</time>
      </trkpt>
      <trkpt lat="40.7272150" lon="-8.0075880">
        <ele>434.7</ele>
        <time>2019-06-10T07:15:26Z</time>
      </trkpt>
      <trkpt lat="40.7272300" lon="-8.0076780">
        <ele>434.6</ele>
        <time>2019-06-10T07:15:27Z</time>
      </trkpt>
      <trkpt lat="40.7273050" lon="-8.0082770">
        <ele>434.7</ele>
        <time>2019-06-10T07:15:34Z</time>
      </trkpt>
      <trkpt lat="40.7272840" lon="-8.0085380">
        <ele>434.7</ele>
        <time>2019-06-10T07:15:37Z</time>
      </trkpt>
      <trkpt lat="40.7272530" lon="-8.0087020">
        <ele>434.5</ele>
        <time>2019-06-10T07:15:39Z</time>
      </trkpt>
      <trkpt lat="40.7272060" lon="-8.0088560">
        <ele>434.2</ele>
        <time>2019-06-10T07:15:41Z</time>
      </trkpt>
      <trkpt lat="40.7271320" lon="-8.0090050">
        <ele>433.9</ele>
        <time>2019-06-10T07:15:43Z</time>
      </trkpt>
      <trkpt lat="40.7269750" lon="-8.0093140">
        <ele>433.2</ele>
        <time>2019-06-10T07:15:47Z</time>
      </trkpt>
      <trkpt lat="40.7269160" lon="-8.0093710">
        <ele>432.9</ele>
        <time>2019-06-10T07:15:48Z</time>
      </trkpt>
      <trkpt lat="40.7268630" lon="-8.0094330">
        <ele>432.6</ele>
        <time>2019-06-10T07:15:49Z</time>
      </trkpt>
      <trkpt lat="40.7268100" lon="-8.0094900">
        <ele>432.4</ele>
        <time>2019-06-10T07:15:50Z</time>
      </trkpt>
      <trkpt lat="40.7267540" lon="-8.0095410">
        <ele>432.1</ele>
        <time>2019-06-10T07:15:51Z</time>
      </trkpt>
      <trkpt lat="40.7266930" lon="-8.0095780">
        <ele>431.7</ele>
        <time>2019-06-10T07:15:52Z</time>
      </trkpt>
      <trkpt lat="40.7265670" lon="-8.0096500">
        <ele>431.1</ele>
        <time>2019-06-10T07:15:54Z</time>
      </trkpt>
      <trkpt lat="40.7264010" lon="-8.0096700">
        <ele>430.3</ele>
        <time>2019-06-10T07:15:56Z</time>
      </trkpt>
      <trkpt lat="40.7263140" lon="-8.0096730">
        <ele>430.0</ele>
        <time>2019-06-10T07:15:57Z</time>
      </trkpt>
      <trkpt lat="40.7262260" lon="-8.0096730">
        <ele>429.7</ele>
        <time>2019-06-10T07:15:58Z</time>
      </trkpt>
      <trkpt lat="40.7261360" lon="-8.0096720">
        <ele>429.5</ele>
        <time>2019-06-10T07:15:59Z</time>
      </trkpt>
      <trkpt lat="40.7260550" lon="-8.0096720">
        <ele>429.3</ele>
        <time>2019-06-10T07:16:00Z</time>
      </trkpt>
      <trkpt lat="40.7257440" lon="-8.0097110">
        <ele>428.4</ele>
        <time>2019-06-10T07:16:04Z</time>
      </trkpt>
      <trkpt lat="40.7255260" lon="-8.0097750">
        <ele>427.9</ele>
        <time>2019-06-10T07:16:07Z</time>
      </trkpt>
      <trkpt lat="40.7253870" lon="-8.0098390">
        <ele>427.6</ele>
        <time>2019-06-10T07:16:09Z</time>
      </trkpt>
      <trkpt lat="40.7253240" lon="-8.0098690">
        <ele>427.5</ele>
        <time>2019-06-10T07:16:10Z</time>
      </trkpt>
      <trkpt lat="40.7252640" lon="-8.0099060">
        <ele>427.3</ele>
        <time>2019-06-10T07:16:11Z</time>
      </trkpt>
      <trkpt lat="40.7252010" lon="-8.0099400">
        <ele>427.0</ele>
        <time>2019-06-10T07:16:12Z</time>
      </trkpt>
      <trkpt lat="40.7251320" lon="-8.0099800">
        <ele>426.7</ele>
        <time>2019-06-10T07:16:13Z</time>
      </trkpt>
      <trkpt lat="40.7250090" lon="-8.0100760">
        <ele>426.0</ele>
        <time>2019-06-10T07:16:15Z</time>
      </trkpt>
      <trkpt lat="40.7248380" lon="-8.0102550">
        <ele>425.1</ele>
        <time>2019-06-10T07:16:18Z</time>
      </trkpt>
      <trkpt lat="40.7247820" lon="-8.0103180">
        <ele>424.8</ele>
        <time>2019-06-10T07:16:19Z</time>
      </trkpt>
      <trkpt lat="40.7247300" lon="-8.0103850">
        <ele>424.7</ele>
        <time>2019-06-10T07:16:20Z</time>
      </trkpt>
      <trkpt lat="40.7246760" lon="-8.0104570">
        <ele>424.5</ele>
        <time>2019-06-10T07:16:21Z</time>
      </trkpt>
      <trkpt lat="40.7246250" lon="-8.0105280">
        <ele>424.3</ele>
        <time>2019-06-10T07:16:22Z</time>
      </trkpt>
      <trkpt lat="40.7244130" lon="-8.0109200">
        <ele>423.7</ele>
        <time>2019-06-10T07:16:27Z</time>
      </trkpt>
      <trkpt lat="40.7243730" lon="-8.0110000">
        <ele>423.5</ele>
        <time>2019-06-10T07:16:28Z</time>
      </trkpt>
      <trkpt lat="40.7243280" lon="-8.0110760">
        <ele>423.2</ele>
        <time>2019-06-10T07:16:29Z</time>
      </trkpt>
      <trkpt lat="40.7242780" lon="-8.0111500">
        <ele>423.0</ele>
        <time>2019-06-10T07:16:30Z</time>
      </trkpt>
      <trkpt lat="40.7242310" lon="-8.0112290">
        <ele>422.7</ele>
        <time>2019-06-10T07:16:31Z</time>
      </trkpt>
      <trkpt lat="40.7240590" lon="-8.0115470">
        <ele>421.7</ele>
        <time>2019-06-10T07:16:35Z</time>
      </trkpt>
      <trkpt lat="40.7239630" lon="-8.0117030">
        <ele>421.1</ele>
        <time>2019-06-10T07:16:37Z</time>
      </trkpt>
      <trkpt lat="40.7239170" lon="-8.0117810">
        <ele>420.9</ele>
        <time>2019-06-10T07:16:38Z</time>
      </trkpt>
      <trkpt lat="40.7238640" lon="-8.0118600">
        <ele>420.6</ele>
        <time>2019-06-10T07:16:39Z</time>
      </trkpt>
      <trkpt lat="40.7238130" lon="-8.0119400">
        <ele>420.3</ele>
        <time>2019-06-10T07:16:40Z</time>
      </trkpt>
      <trkpt lat="40.7237700" lon="-8.0120330">
        <ele>420.1</ele>
        <time>2019-06-10T07:16:41Z</time>
      </trkpt>
      <trkpt lat="40.7236690" lon="-8.0121990">
        <ele>419.6</ele>
        <time>2019-06-10T07:16:43Z</time>
      </trkpt>
      <trkpt lat="40.7234200" lon="-8.0126080">
        <ele>418.7</ele>
        <time>2019-06-10T07:16:48Z</time>
      </trkpt>
      <trkpt lat="40.7233650" lon="-8.0126910">
        <ele>418.5</ele>
        <time>2019-06-10T07:16:49Z</time>
      </trkpt>
      <trkpt lat="40.7233120" lon="-8.0127710">
        <ele>418.3</ele>
        <time>2019-06-10T07:16:50Z</time>
      </trkpt>
      <trkpt lat="40.7232570" lon="-8.0128500">
        <ele>418.1</ele>
        <time>2019-06-10T07:16:51Z</time>
      </trkpt>
      <trkpt lat="40.7232050" lon="-8.0129330">
        <ele>417.8</ele>
        <time>2019-06-10T07:16:52Z</time>
      </trkpt>
      <trkpt lat="40.7230030" lon="-8.0133920">
        <ele>416.7</ele>
        <time>2019-06-10T07:16:57Z</time>
      </trkpt>
      <trkpt lat="40.7229730" lon="-8.0134930">
        <ele>416.6</ele>
        <time>2019-06-10T07:16:58Z</time>
      </trkpt>
      <trkpt lat="40.7229560" lon="-8.0135960">
        <ele>416.4</ele>
        <time>2019-06-10T07:16:59Z</time>
      </trkpt>
      <trkpt lat="40.7229390" lon="-8.0136990">
        <ele>416.3</ele>
        <time>2019-06-10T07:17:00Z</time>
      </trkpt>
      <trkpt lat="40.7229260" lon="-8.0138070">
        <ele>416.2</ele>
        <time>2019-06-10T07:17:01Z</time>
      </trkpt>
      <trkpt lat="40.7229140" lon="-8.0139110">
        <ele>416.0</ele>
        <time>2019-06-10T07:17:02Z</time>
      </trkpt>
      <trkpt lat="40.7229080" lon="-8.0140200">
        <ele>415.8</ele>
        <time>2019-06-10T07:17:03Z</time>
      </trkpt>
      <trkpt lat="40.7229140" lon="-8.0141320">
        <ele>415.6</ele>
        <time>2019-06-10T07:17:04Z</time>
      </trkpt>
      <trkpt lat="40.7229510" lon="-8.0143530">
        <ele>415.4</ele>
        <time>2019-06-10T07:17:06Z</time>
      </trkpt>
      <trkpt lat="40.7230240" lon="-8.0146590">
        <ele>415.6</ele>
        <time>2019-06-10T07:17:09Z</time>
      </trkpt>
      <trkpt lat="40.7230740" lon="-8.0148280">
        <ele>415.9</ele>
        <time>2019-06-10T07:17:11Z</time>
      </trkpt>
      <trkpt lat="40.7232500" lon="-8.0151910">
        <ele>417.2</ele>
        <time>2019-06-10T07:17:16Z</time>
      </trkpt>
      <trkpt lat="40.7234540" lon="-8.0154700">
        <ele>417.8</ele>
        <time>2019-06-10T07:17:21Z</time>
      </trkpt>
      <trkpt lat="40.7236150" lon="-8.0156040">
        <ele>418.2</ele>
        <time>2019-06-10T07:17:24Z</time>
      </trkpt>
      <trkpt lat="40.7236630" lon="-8.0156500">
        <ele>418.3</ele>
        <time>2019-06-10T07:17:25Z</time>
      </trkpt>
      <trkpt lat="40.7237090" lon="-8.0157060">
        <ele>418.4</ele>
        <time>2019-06-10T07:17:26Z</time>
      </trkpt>
      <trkpt lat="40.7237590" lon="-8.0157580">
        <ele>418.5</ele>
        <time>2019-06-10T07:17:27Z</time>
      </trkpt>
      <trkpt lat="40.7238090" lon="-8.0158110">
        <ele>418.6</ele>
        <time>2019-06-10T07:17:28Z</time>
      </trkpt>
      <trkpt lat="40.7240840" lon="-8.0161610">
        <ele>418.9</ele>
        <time>2019-06-10T07:17:34Z</time>
      </trkpt>
      <trkpt lat="40.7243100" lon="-8.0164240">
        <ele>420.7</ele>
        <time>2019-06-10T07:17:40Z</time>
      </trkpt>
      <trkpt lat="40.7245400" lon="-8.0167240">
        <ele>423.2</ele>
        <time>2019-06-10T07:17:48Z</time>
      </trkpt>
      <trkpt lat="40.7246190" lon="-8.0168230">
        <ele>423.7</ele>
        <time>2019-06-10T07:17:51Z</time>
      </trkpt>
      <trkpt lat="40.7246450" lon="-8.0168540">
        <ele>423.9</ele>
        <time>2019-06-10T07:17:52Z</time>
      </trkpt>
      <trkpt lat="40.7246770" lon="-8.0168960">
        <ele>424.2</ele>
        <time>2019-06-10T07:17:53Z</time>
      </trkpt>
      <trkpt lat="40.7247100" lon="-8.0169370">
        <ele>424.5</ele>
        <time>2019-06-10T07:17:54Z</time>
      </trkpt>
      <trkpt lat="40.7247340" lon="-8.0169690">
        <ele>424.8</ele>
        <time>2019-06-10T07:17:55Z</time>
      </trkpt>
      <trkpt lat="40.7247550" lon="-8.0170010">
        <ele>425.1</ele>
        <time>2019-06-10T07:17:56Z</time>
      </trkpt>
      <trkpt lat="40.7248520" lon="-8.0171860">
        <ele>426.4</ele>
        <time>2019-06-10T07:18:03Z</time>
      </trkpt>
      <trkpt lat="40.7249680" lon="-8.0174010">
        <ele>428.1</ele>
        <time>2019-06-10T07:18:11Z</time>
      </trkpt>
      <trkpt lat="40.7250340" lon="-8.0175790">
        <ele>429.1</ele>
        <time>2019-06-10T07:18:18Z</time>
      </trkpt>
      <trkpt lat="40.7250570" lon="-8.0177630">
        <ele>429.7</ele>
        <time>2019-06-10T07:18:24Z</time>
      </trkpt>
      <trkpt lat="40.7250530" lon="-8.0177900">
        <ele>429.8</ele>
        <time>2019-06-10T07:18:25Z</time>
      </trkpt>
      <trkpt lat="40.7250510" lon="-8.0178140">
        <ele>429.9</ele>
        <time>2019-06-10T07:18:26Z</time>
      </trkpt>
      <trkpt lat="40.7250490" lon="-8.0178360">
        <ele>430.0</ele>
        <time>2019-06-10T07:18:27Z</time>
      </trkpt>
      <trkpt lat="40.7250460" lon="-8.0178540">
        <ele>430.1</ele>
        <time>2019-06-10T07:18:28Z</time>
      </trkpt>
      <trkpt lat="40.7250420" lon="-8.0178760">
        <ele>430.2</ele>
        <time>2019-06-10T07:18:29Z</time>
      </trkpt>
      <trkpt lat="40.7250400" lon="-8.0179060">
        <ele>430.6</ele>
        <time>2019-06-10T07:18:30Z</time>
      </trkpt>
      <trkpt lat="40.7250100" lon="-8.0182120">
        <ele>429.2</ele>
        <time>2019-06-10T07:18:35Z</time>
      </trkpt>
      <trkpt lat="40.7249340" lon="-8.0185700">
        <ele>427.4</ele>
        <time>2019-06-10T07:18:40Z</time>
      </trkpt>
      <trkpt lat="40.7249680" lon="-8.0187850">
        <ele>425.4</ele>
        <time>2019-06-10T07:18:43Z</time>
      </trkpt>
      <trkpt lat="40.7250090" lon="-8.0190410">
        <ele>423.5</ele>
        <time>2019-06-10T07:18:46Z</time>
      </trkpt>
      <trkpt lat="40.7249230" lon="-8.0192660">
        <ele>421.8</ele>
        <time>2019-06-10T07:18:49Z</time>
      </trkpt>
      <trkpt lat="40.7248970" lon="-8.0193300">
        <ele>421.4</ele>
        <time>2019-06-10T07:18:50Z</time>
      </trkpt>
      <trkpt lat="40.7248710" lon="-8.0193800">
        <ele>421.1</ele>
        <time>2019-06-10T07:18:51Z</time>
      </trkpt>
      <trkpt lat="40.7248330" lon="-8.0194320">
        <ele>420.9</ele>
        <time>2019-06-10T07:18:52Z</time>
      </trkpt>
      <trkpt lat="40.7247920" lon="-8.0194780">
        <ele>420.7</ele>
        <time>2019-06-10T07:18:53Z</time>
      </trkpt>
      <trkpt lat="40.7245710" lon="-8.0196720">
        <ele>419.8</ele>
        <time>2019-06-10T07:18:58Z</time>
      </trkpt>
      <trkpt lat="40.7242640" lon="-8.0199490">
        <ele>420.4</ele>
        <time>2019-06-10T07:19:05Z</time>
      </trkpt>
      <trkpt lat="40.7241730" lon="-8.0200420">
        <ele>420.9</ele>
        <time>2019-06-10T07:19:07Z</time>
      </trkpt>
      <trkpt lat="40.7241320" lon="-8.0200930">
        <ele>421.1</ele>
        <time>2019-06-10T07:19:08Z</time>
      </trkpt>
      <trkpt lat="40.7240860" lon="-8.0201500">
        <ele>421.4</ele>
        <time>2019-06-10T07:19:09Z</time>
      </trkpt>
      <trkpt lat="40.7240370" lon="-8.0201990">
        <ele>421.6</ele>
        <time>2019-06-10T07:19:10Z</time>
      </trkpt>
      <trkpt lat="40.7239880" lon="-8.0202500">
        <ele>421.7</ele>
        <time>2019-06-10T07:19:11Z</time>
      </trkpt>
      <trkpt lat="40.7239440" lon="-8.0203030">
        <ele>421.8</ele>
        <time>2019-06-10T07:19:12Z</time>
      </trkpt>
      <trkpt lat="40.7234860" lon="-8.0207410">
        <ele>421.5</ele>
        <time>2019-06-10T07:19:21Z</time>
      </trkpt>
      <trkpt lat="40.7233310" lon="-8.0209130">
        <ele>421.1</ele>
        <time>2019-06-10T07:19:24Z</time>
      </trkpt>
      <trkpt lat="40.7232800" lon="-8.0209730">
        <ele>420.7</ele>
        <time>2019-06-10T07:19:25Z</time>
      </trkpt>
      <trkpt lat="40.7232350" lon="-8.0210410">
        <ele>420.4</ele>
        <time>2019-06-10T07:19:26Z</time>
      </trkpt>
      <trkpt lat="40.7231870" lon="-8.0211100">
        <ele>420.1</ele>
        <time>2019-06-10T07:19:27Z</time>
      </trkpt>
      <trkpt lat="40.7231390" lon="-8.0211760">
        <ele>419.8</ele>
        <time>2019-06-10T07:19:28Z</time>
      </trkpt>
      <trkpt lat="40.7230980" lon="-8.0212430">
        <ele>419.4</ele>
        <time>2019-06-10T07:19:29Z</time>
      </trkpt>
      <trkpt lat="40.7226940" lon="-8.0217830">
        <ele>415.2</ele>
        <time>2019-06-10T07:19:37Z</time>
      </trkpt>
      <trkpt lat="40.7225930" lon="-8.0219150">
        <ele>414.0</ele>
        <time>2019-06-10T07:19:39Z</time>
      </trkpt>
      <trkpt lat="40.7225400" lon="-8.0219830">
        <ele>413.4</ele>
        <time>2019-06-10T07:19:40Z</time>
      </trkpt>
      <trkpt lat="40.7224890" lon="-8.0220500">
        <ele>412.9</ele>
        <time>2019-06-10T07:19:41Z</time>
      </trkpt>
      <trkpt lat="40.7224440" lon="-8.0221170">
        <ele>412.4</ele>
        <time>2019-06-10T07:19:42Z</time>
      </trkpt>
      <trkpt lat="40.7223960" lon="-8.0221870">
        <ele>411.8</ele>
        <time>2019-06-10T07:19:43Z</time>
      </trkpt>
      <trkpt lat="40.7222960" lon="-8.0223240">
        <ele>410.7</ele>
        <time>2019-06-10T07:19:45Z</time>
      </trkpt>
      <trkpt lat="40.7218610" lon="-8.0228460">
        <ele>411.1</ele>
        <time>2019-06-10T07:19:53Z</time>
      </trkpt>
      <trkpt lat="40.7218070" lon="-8.0228990">
        <ele>411.3</ele>
        <time>2019-06-10T07:19:54Z</time>
      </trkpt>
      <trkpt lat="40.7214910" lon="-8.0232670">
        <ele>412.3</ele>
        <time>2019-06-10T07:20:00Z</time>
      </trkpt>
      <trkpt lat="40.7212200" lon="-8.0236020">
        <ele>412.0</ele>
        <time>2019-06-10T07:20:05Z</time>
      </trkpt>
      <trkpt lat="40.7211680" lon="-8.0236680">
        <ele>411.8</ele>
        <time>2019-06-10T07:20:06Z</time>
      </trkpt>
      <trkpt lat="40.7211090" lon="-8.0237350">
        <ele>411.7</ele>
        <time>2019-06-10T07:20:07Z</time>
      </trkpt>
      <trkpt lat="40.7210540" lon="-8.0238020">
        <ele>411.6</ele>
        <time>2019-06-10T07:20:08Z</time>
      </trkpt>
      <trkpt lat="40.7209960" lon="-8.0238690">
        <ele>411.6</ele>
        <time>2019-06-10T07:20:09Z</time>
      </trkpt>
      <trkpt lat="40.7206980" lon="-8.0242140">
        <ele>411.0</ele>
        <time>2019-06-10T07:20:14Z</time>
      </trkpt>
      <trkpt lat="40.7206570" lon="-8.0243020">
        <ele>410.8</ele>
        <time>2019-06-10T07:20:15Z</time>
      </trkpt>
      <trkpt lat="40.7206190" lon="-8.0243910">
        <ele>410.6</ele>
        <time>2019-06-10T07:20:16Z</time>
      </trkpt>
      <trkpt lat="40.7205910" lon="-8.0244850">
        <ele>410.4</ele>
        <time>2019-06-10T07:20:17Z</time>
      </trkpt>
      <trkpt lat="40.7205600" lon="-8.0245790">
        <ele>410.0</ele>
        <time>2019-06-10T07:20:18Z</time>
      </trkpt>
      <trkpt lat="40.7205360" lon="-8.0246720">
        <ele>409.6</ele>
        <time>2019-06-10T07:20:19Z</time>
      </trkpt>
      <trkpt lat="40.7204570" lon="-8.0249620">
        <ele>408.3</ele>
        <time>2019-06-10T07:20:22Z</time>
      </trkpt>
      <trkpt lat="40.7204270" lon="-8.0250560">
        <ele>407.9</ele>
        <time>2019-06-10T07:20:23Z</time>
      </trkpt>
      <trkpt lat="40.7204030" lon="-8.0251590">
        <ele>407.4</ele>
        <time>2019-06-10T07:20:24Z</time>
      </trkpt>
      <trkpt lat="40.7203790" lon="-8.0252630">
        <ele>406.9</ele>
        <time>2019-06-10T07:20:25Z</time>
      </trkpt>
      <trkpt lat="40.7203540" lon="-8.0253580">
        <ele>406.5</ele>
        <time>2019-06-10T07:20:26Z</time>
      </trkpt>
      <trkpt lat="40.7203070" lon="-8.0255550">
        <ele>405.7</ele>
        <time>2019-06-10T07:20:28Z</time>
      </trkpt>
      <trkpt lat="40.7201710" lon="-8.0260990">
        <ele>403.9</ele>
        <time>2019-06-10T07:20:34Z</time>
      </trkpt>
      <trkpt lat="40.7201530" lon="-8.0261660">
        <ele>403.7</ele>
        <time>2019-06-10T07:20:35Z</time>
      </trkpt>
      <trkpt lat="40.7201310" lon="-8.0262330">
        <ele>403.2</ele>
        <time>2019-06-10T07:20:36Z</time>
      </trkpt>
      <trkpt lat="40.7201130" lon="-8.0263120">
        <ele>402.9</ele>
        <time>2019-06-10T07:20:37Z</time>
      </trkpt>
      <trkpt lat="40.7200970" lon="-8.0263920">
        <ele>402.7</ele>
        <time>2019-06-10T07:20:38Z</time>
      </trkpt>
      <trkpt lat="40.7200660" lon="-8.0265620">
        <ele>402.3</ele>
        <time>2019-06-10T07:20:40Z</time>
      </trkpt>
      <trkpt lat="40.7200110" lon="-8.0268800">
        <ele>401.4</ele>
        <time>2019-06-10T07:20:45Z</time>
      </trkpt>
      <trkpt lat="40.7200100" lon="-8.0269160">
        <ele>401.3</ele>
        <time>2019-06-10T07:20:46Z</time>
      </trkpt>
      <trkpt lat="40.7200060" lon="-8.0269510">
        <ele>401.2</ele>
        <time>2019-06-10T07:20:47Z</time>
      </trkpt>
      <trkpt lat="40.7199940" lon="-8.0269860">
        <ele>401.1</ele>
        <time>2019-06-10T07:20:48Z</time>
      </trkpt>
      <trkpt lat="40.7199790" lon="-8.0270280">
        <ele>401.0</ele>
        <time>2019-06-10T07:20:49Z</time>
      </trkpt>
      <trkpt lat="40.7199630" lon="-8.0270710">
        <ele>400.9</ele>
        <time>2019-06-10T07:20:50Z</time>
      </trkpt>
      <trkpt lat="40.7199380" lon="-8.0271260">
        <ele>400.8</ele>
        <time>2019-06-10T07:20:51Z</time>
      </trkpt>
      <trkpt lat="40.7198330" lon="-8.0275790">
        <ele>399.9</ele>
        <time>2019-06-10T07:20:58Z</time>
      </trkpt>
      <trkpt lat="40.7198330" lon="-8.0276540">
        <ele>399.8</ele>
        <time>2019-06-10T07:20:59Z</time>
      </trkpt>
      <trkpt lat="40.7198220" lon="-8.0279870">
        <ele>399.1</ele>
        <time>2019-06-10T07:21:03Z</time>
      </trkpt>
      <trkpt lat="40.7198200" lon="-8.0280690">
        <ele>399.0</ele>
        <time>2019-06-10T07:21:04Z</time>
      </trkpt>
      <trkpt lat="40.7198160" lon="-8.0281530">
        <ele>398.9</ele>
        <time>2019-06-10T07:21:05Z</time>
      </trkpt>
      <trkpt lat="40.7198160" lon="-8.0282370">
        <ele>398.7</ele>
        <time>2019-06-10T07:21:06Z</time>
      </trkpt>
      <trkpt lat="40.7198150" lon="-8.0283240">
        <ele>398.6</ele>
        <time>2019-06-10T07:21:07Z</time>
      </trkpt>
      <trkpt lat="40.7198120" lon="-8.0284070">
        <ele>398.5</ele>
        <time>2019-06-10T07:21:08Z</time>
      </trkpt>
      <trkpt lat="40.7197890" lon="-8.0287690">
        <ele>398.1</ele>
        <time>2019-06-10T07:21:12Z</time>
      </trkpt>
      <trkpt lat="40.7197820" lon="-8.0290430">
        <ele>397.8</ele>
        <time>2019-06-10T07:21:15Z</time>
      </trkpt>
      <trkpt lat="40.7197820" lon="-8.0291270">
        <ele>397.6</ele>
        <time>2019-06-10T07:21:16Z</time>
      </trkpt>
      <trkpt lat="40.7197850" lon="-8.0292150">
        <ele>397.5</ele>
        <time>2019-06-10T07:21:17Z</time>
      </trkpt>
      <trkpt lat="40.7197890" lon="-8.0292960">
        <ele>397.4</ele>
        <time>2019-06-10T07:21:18Z</time>
      </trkpt>
      <trkpt lat="40.7198010" lon="-8.0293800">
        <ele>397.3</ele>
        <time>2019-06-10T07:21:19Z</time>
      </trkpt>
      <trkpt lat="40.7199040" lon="-8.0297880">
        <ele>396.9</ele>
        <time>2019-06-10T07:21:24Z</time>
      </trkpt>
      <trkpt lat="40.7200040" lon="-8.0300220">
        <ele>396.4</ele>
        <time>2019-06-10T07:21:27Z</time>
      </trkpt>
      <trkpt lat="40.7200490" lon="-8.0301060">
        <ele>396.4</ele>
        <time>2019-06-10T07:21:28Z</time>
      </trkpt>
      <trkpt lat="40.7200940" lon="-8.0301800">
        <ele>396.3</ele>
        <time>2019-06-10T07:21:29Z</time>
      </trkpt>
      <trkpt lat="40.7201350" lon="-8.0302590">
        <ele>396.3</ele>
        <time>2019-06-10T07:21:30Z</time>
      </trkpt>
      <trkpt lat="40.7201780" lon="-8.0303400">
        <ele>396.3</ele>
        <time>2019-06-10T07:21:31Z</time>
      </trkpt>
      <trkpt lat="40.7204020" lon="-8.0307220">
        <ele>395.5</ele>
        <time>2019-06-10T07:21:36Z</time>
      </trkpt>
      <trkpt lat="40.7207360" lon="-8.0313240">
        <ele>394.5</ele>
        <time>2019-06-10T07:21:44Z</time>
      </trkpt>
      <trkpt lat="40.7211090" lon="-8.0318140">
        <ele>393.2</ele>
        <time>2019-06-10T07:21:52Z</time>
      </trkpt>
      <trkpt lat="40.7211780" lon="-8.0318430">
        <ele>393.0</ele>
        <time>2019-06-10T07:21:53Z</time>
      </trkpt>
      <trkpt lat="40.7212360" lon="-8.0318920">
        <ele>392.8</ele>
        <time>2019-06-10T07:21:54Z</time>
      </trkpt>
      <trkpt lat="40.7212990" lon="-8.0319300">
        <ele>392.6</ele>
        <time>2019-06-10T07:21:55Z</time>
      </trkpt>
      <trkpt lat="40.7213590" lon="-8.0319660">
        <ele>392.5</ele>
        <time>2019-06-10T07:21:56Z</time>
      </trkpt>
      <trkpt lat="40.7215480" lon="-8.0320380">
        <ele>392.0</ele>
        <time>2019-06-10T07:21:59Z</time>
      </trkpt>
      <trkpt lat="40.7217450" lon="-8.0320830">
        <ele>391.8</ele>
        <time>2019-06-10T07:22:02Z</time>
      </trkpt>
      <trkpt lat="40.7218140" lon="-8.0320850">
        <ele>391.8</ele>
        <time>2019-06-10T07:22:03Z</time>
      </trkpt>
      <trkpt lat="40.7218750" lon="-8.0320820">
        <ele>391.7</ele>
        <time>2019-06-10T07:22:04Z</time>
      </trkpt>
      <trkpt lat="40.7219340" lon="-8.0320690">
        <ele>391.6</ele>
        <time>2019-06-10T07:22:05Z</time>
      </trkpt>
      <trkpt lat="40.7219960" lon="-8.0320570">
        <ele>391.5</ele>
        <time>2019-06-10T07:22:06Z</time>
      </trkpt>
      <trkpt lat="40.7222580" lon="-8.0319950">
        <ele>391.0</ele>
        <time>2019-06-10T07:22:10Z</time>
      </trkpt>
      <trkpt lat="40.7226570" lon="-8.0318620">
        <ele>391.0</ele>
        <time>2019-06-10T07:22:16Z</time>
      </trkpt>
      <trkpt lat="40.7229210" lon="-8.0317840">
        <ele>390.8</ele>
        <time>2019-06-10T07:22:20Z</time>
      </trkpt>
      <trkpt lat="40.7229920" lon="-8.0317670">
        <ele>390.7</ele>
        <time>2019-06-10T07:22:21Z</time>
      </trkpt>
      <trkpt lat="40.7230610" lon="-8.0317500">
        <ele>390.5</ele>
        <time>2019-06-10T07:22:22Z</time>
      </trkpt>
      <trkpt lat="40.7231240" lon="-8.0317320">
        <ele>390.4</ele>
        <time>2019-06-10T07:22:23Z</time>
      </trkpt>
      <trkpt lat="40.7231930" lon="-8.0317080">
        <ele>390.2</ele>
        <time>2019-06-10T07:22:24Z</time>
      </trkpt>
      <trkpt lat="40.7232580" lon="-8.0316810">
        <ele>390.2</ele>
        <time>2019-06-10T07:22:25Z</time>
      </trkpt>
      <trkpt lat="40.7236990" lon="-8.0314800">
        <ele>390.2</ele>
        <time>2019-06-10T07:22:32Z</time>
      </trkpt>
      <trkpt lat="40.7238140" lon="-8.0313950">
        <ele>390.1</ele>
        <time>2019-06-10T07:22:34Z</time>
      </trkpt>
      <trkpt lat="40.7239670" lon="-8.0312290">
        <ele>389.7</ele>
        <time>2019-06-10T07:22:37Z</time>
      </trkpt>
      <trkpt lat="40.7241170" lon="-8.0310290">
        <ele>389.3</ele>
        <time>2019-06-10T07:22:40Z</time>
      </trkpt>
      <trkpt lat="40.7241650" lon="-8.0309610">
        <ele>389.3</ele>
        <time>2019-06-10T07:22:41Z</time>
      </trkpt>
      <trkpt lat="40.7242100" lon="-8.0308930">
        <ele>389.3</ele>
        <time>2019-06-10T07:22:42Z</time>
      </trkpt>
      <trkpt lat="40.7242500" lon="-8.0308190">
        <ele>389.3</ele>
        <time>2019-06-10T07:22:43Z</time>
      </trkpt>
      <trkpt lat="40.7242890" lon="-8.0307460">
        <ele>389.4</ele>
        <time>2019-06-10T07:22:44Z</time>
      </trkpt>
      <trkpt lat="40.7246160" lon="-8.0301970">
        <ele>389.8</ele>
        <time>2019-06-10T07:22:52Z</time>
      </trkpt>
      <trkpt lat="40.7249670" lon="-8.0296100">
        <ele>389.6</ele>
        <time>2019-06-10T07:23:01Z</time>
      </trkpt>
      <trkpt lat="40.7250530" lon="-8.0294930">
        <ele>389.7</ele>
        <time>2019-06-10T07:23:03Z</time>
      </trkpt>
      <trkpt lat="40.7250830" lon="-8.0294310">
        <ele>389.9</ele>
        <time>2019-06-10T07:23:04Z</time>
      </trkpt>
      <trkpt lat="40.7252130" lon="-8.0291920">
        <ele>390.5</ele>
        <time>2019-06-10T07:23:08Z</time>
      </trkpt>
      <trkpt lat="40.7255020" lon="-8.0287200">
        <ele>390.8</ele>
        <time>2019-06-10T07:23:17Z</time>
      </trkpt>
      <trkpt lat="40.7258500" lon="-8.0281530">
        <ele>390.2</ele>
        <time>2019-06-10T07:23:28Z</time>
      </trkpt>
      <trkpt lat="40.7258790" lon="-8.0281060">
        <ele>390.1</ele>
        <time>2019-06-10T07:23:29Z</time>
      </trkpt>
      <trkpt lat="40.7260690" lon="-8.0278310">
        <ele>389.9</ele>
        <time>2019-06-10T07:23:36Z</time>
      </trkpt>
      <trkpt lat="40.7261340" lon="-8.0277670">
        <ele>390.0</ele>
        <time>2019-06-10T07:23:41Z</time>
      </trkpt>
      <trkpt lat="40.7261520" lon="-8.0277690">
        <ele>390.0</ele>
        <time>2019-06-10T07:24:12Z</time>
      </trkpt>
      <trkpt lat="40.7261550" lon="-8.0277720">
        <ele>390.0</ele>
        <time>2019-06-10T07:24:13Z</time>
      </trkpt>
      <trkpt lat="40.7261710" lon="-8.0277860">
        <ele>390.0</ele>
        <time>2019-06-10T07:25:34Z</time>
      </trkpt>
      <trkpt lat="40.7261690" lon="-8.0277570">
        <ele>390.0</ele>
        <time>2019-06-10T07:25:35Z</time>
      </trkpt>
      <trkpt lat="40.7262060" lon="-8.0276890">
        <ele>390.0</ele>
        <time>2019-06-10T07:25:38Z</time>
      </trkpt>
      <trkpt lat="40.7262720" lon="-8.0275980">
        <ele>389.7</ele>
        <time>2019-06-10T07:25:41Z</time>
      </trkpt>
      <trkpt lat="40.7263970" lon="-8.0273010">
        <ele>389.2</ele>
        <time>2019-06-10T07:25:47Z</time>
      </trkpt>
      <trkpt lat="40.7264240" lon="-8.0272490">
        <ele>389.2</ele>
        <time>2019-06-10T07:25:48Z</time>
      </trkpt>
      <trkpt lat="40.7264540" lon="-8.0271960">
        <ele>389.1</ele>
        <time>2019-06-10T07:25:49Z</time>
      </trkpt>
      <trkpt lat="40.7264760" lon="-8.0271460">
        <ele>389.1</ele>
        <time>2019-06-10T07:25:50Z</time>
      </trkpt>
      <trkpt lat="40.7265040" lon="-8.0270920">
        <ele>389.0</ele>
        <time>2019-06-10T07:25:51Z</time>
      </trkpt>
      <trkpt lat="40.7266130" lon="-8.0268470">
        <ele>388.7</ele>
        <time>2019-06-10T07:25:55Z</time>
      </trkpt>
      <trkpt lat="40.7268770" lon="-8.0262550">
        <ele>387.9</ele>
        <time>2019-06-10T07:26:04Z</time>
      </trkpt>
      <trkpt lat="40.7270660" lon="-8.0259600">
        <ele>387.8</ele>
        <time>2019-06-10T07:26:09Z</time>
      </trkpt>
      <trkpt lat="40.7271140" lon="-8.0259220">
        <ele>387.8</ele>
        <time>2019-06-10T07:26:10Z</time>
      </trkpt>
      <trkpt lat="40.7273390" lon="-8.0257740">
        <ele>387.8</ele>
        <time>2019-06-10T07:26:15Z</time>
      </trkpt>
      <trkpt lat="40.7273860" lon="-8.0257600">
        <ele>387.8</ele>
        <time>2019-06-10T07:26:16Z</time>
      </trkpt>
      <trkpt lat="40.7277010" lon="-8.0256420">
        <ele>387.8</ele>
        <time>2019-06-10T07:26:23Z</time>
      </trkpt>
      <trkpt lat="40.7277490" lon="-8.0256390">
        <ele>387.8</ele>
        <time>2019-06-10T07:26:24Z</time>
      </trkpt>
      <trkpt lat="40.7277960" lon="-8.0256430">
        <ele>387.8</ele>
        <time>2019-06-10T07:26:25Z</time>
      </trkpt>
      <trkpt lat="40.7279860" lon="-8.0257100">
        <ele>388.0</ele>
        <time>2019-06-10T07:26:29Z</time>
      </trkpt>
      <trkpt lat="40.7282290" lon="-8.0258460">
        <ele>388.2</ele>
        <time>2019-06-10T07:26:35Z</time>
      </trkpt>
      <trkpt lat="40.7284430" lon="-8.0260870">
        <ele>387.9</ele>
        <time>2019-06-10T07:26:41Z</time>
      </trkpt>
      <trkpt lat="40.7285390" lon="-8.0262320">
        <ele>387.7</ele>
        <time>2019-06-10T07:26:44Z</time>
      </trkpt>
      <trkpt lat="40.7285690" lon="-8.0262860">
        <ele>387.6</ele>
        <time>2019-06-10T07:26:45Z</time>
      </trkpt>
      <trkpt lat="40.7285990" lon="-8.0263440">
        <ele>387.5</ele>
        <time>2019-06-10T07:26:46Z</time>
      </trkpt>
      <trkpt lat="40.7286210" lon="-8.0263950">
        <ele>387.4</ele>
        <time>2019-06-10T07:26:47Z</time>
      </trkpt>
      <trkpt lat="40.7286400" lon="-8.0264490">
        <ele>387.3</ele>
        <time>2019-06-10T07:26:48Z</time>
      </trkpt>
      <trkpt lat="40.7287410" lon="-8.0268950">
        <ele>386.4</ele>
        <time>2019-06-10T07:26:55Z</time>
      </trkpt>
      <trkpt lat="40.7287450" lon="-8.0269650">
        <ele>386.1</ele>
        <time>2019-06-10T07:26:56Z</time>
      </trkpt>
      <trkpt lat="40.7287470" lon="-8.0271060">
        <ele>385.5</ele>
        <time>2019-06-10T07:26:58Z</time>
      </trkpt>
      <trkpt lat="40.7287450" lon="-8.0271670">
        <ele>385.2</ele>
        <time>2019-06-10T07:26:59Z</time>
      </trkpt>
      <trkpt lat="40.7287440" lon="-8.0272280">
        <ele>384.9</ele>
        <time>2019-06-10T07:27:00Z</time>
      </trkpt>
      <trkpt lat="40.7287470" lon="-8.0272890">
        <ele>384.6</ele>
        <time>2019-06-10T07:27:01Z</time>
      </trkpt>
      <trkpt lat="40.7287440" lon="-8.0273500">
        <ele>384.6</ele>
        <time>2019-06-10T07:27:02Z</time>
      </trkpt>
      <trkpt lat="40.7287380" lon="-8.0274060">
        <ele>384.5</ele>
        <time>2019-06-10T07:27:03Z</time>
      </trkpt>
      <trkpt lat="40.7286920" lon="-8.0276420">
        <ele>384.2</ele>
        <time>2019-06-10T07:27:07Z</time>
      </trkpt>
      <trkpt lat="40.7285420" lon="-8.0281190">
        <ele>383.6</ele>
        <time>2019-06-10T07:27:15Z</time>
      </trkpt>
      <trkpt lat="40.7285260" lon="-8.0281760">
        <ele>383.5</ele>
        <time>2019-06-10T07:27:16Z</time>
      </trkpt>
      <trkpt lat="40.7285090" lon="-8.0282320">
        <ele>383.3</ele>
        <time>2019-06-10T07:27:17Z</time>
      </trkpt>
      <trkpt lat="40.7284940" lon="-8.0282910">
        <ele>383.0</ele>
        <time>2019-06-10T07:27:18Z</time>
      </trkpt>
      <trkpt lat="40.7284780" lon="-8.0283530">
        <ele>382.7</ele>
        <time>2019-06-10T07:27:19Z</time>
      </trkpt>
      <trkpt lat="40.7284090" lon="-8.0287910">
        <ele>380.3</ele>
        <time>2019-06-10T07:27:26Z</time>
      </trkpt>
      <trkpt lat="40.7284070" lon="-8.0288570">
        <ele>379.9</ele>
        <time>2019-06-10T07:27:27Z</time>
      </trkpt>
      <trkpt lat="40.7284300" lon="-8.0293720">
        <ele>377.7</ele>
        <time>2019-06-10T07:27:35Z</time>
      </trkpt>
      <trkpt lat="40.7284290" lon="-8.0297300">
        <ele>377.0</ele>
        <time>2019-06-10T07:27:40Z</time>
      </trkpt>
      <trkpt lat="40.7284280" lon="-8.0298720">
        <ele>376.6</ele>
        <time>2019-06-10T07:27:42Z</time>
      </trkpt>
      <trkpt lat="40.7284170" lon="-8.0299400">
        <ele>376.4</ele>
        <time>2019-06-10T07:27:43Z</time>
      </trkpt>
      <trkpt lat="40.7284120" lon="-8.0300150">
        <ele>376.2</ele>
        <time>2019-06-10T07:27:44Z</time>
      </trkpt>
      <trkpt lat="40.7283930" lon="-8.0300860">
        <ele>376.0</ele>
        <time>2019-06-10T07:27:45Z</time>
      </trkpt>
      <trkpt lat="40.7283770" lon="-8.0301640">
        <ele>375.8</ele>
        <time>2019-06-10T07:27:46Z</time>
      </trkpt>
      <trkpt lat="40.7283570" lon="-8.0302430">
        <ele>375.6</ele>
        <time>2019-06-10T07:27:47Z</time>
      </trkpt>
      <trkpt lat="40.7283070" lon="-8.0303860">
        <ele>375.3</ele>
        <time>2019-06-10T07:27:49Z</time>
      </trkpt>
      <trkpt lat="40.7281780" lon="-8.0306720">
        <ele>374.5</ele>
        <time>2019-06-10T07:27:53Z</time>
      </trkpt>
      <trkpt lat="40.7280940" lon="-8.0307880">
        <ele>374.2</ele>
        <time>2019-06-10T07:27:55Z</time>
      </trkpt>
      <trkpt lat="40.7280540" lon="-8.0308540">
        <ele>374.1</ele>
        <time>2019-06-10T07:27:56Z</time>
      </trkpt>
      <trkpt lat="40.7280120" lon="-8.0309180">
        <ele>374.1</ele>
        <time>2019-06-10T07:27:57Z</time>
      </trkpt>
      <trkpt lat="40.7279700" lon="-8.0309830">
        <ele>374.0</ele>
        <time>2019-06-10T07:27:58Z</time>
      </trkpt>
      <trkpt lat="40.7279290" lon="-8.0310470">
        <ele>373.9</ele>
        <time>2019-06-10T07:27:59Z</time>
      </trkpt>
      <trkpt lat="40.7277310" lon="-8.0313910">
        <ele>373.4</ele>
        <time>2019-06-10T07:28:04Z</time>
      </trkpt>
      <trkpt lat="40.7277030" lon="-8.0314610">
        <ele>373.3</ele>
        <time>2019-06-10T07:28:05Z</time>
      </trkpt>
      <trkpt lat="40.7276770" lon="-8.0315270">
        <ele>373.3</ele>
        <time>2019-06-10T07:28:06Z</time>
      </trkpt>
      <trkpt lat="40.7276500" lon="-8.0315980">
        <ele>373.2</ele>
        <time>2019-06-10T07:28:07Z</time>
      </trkpt>
      <trkpt lat="40.7276250" lon="-8.0316710">
        <ele>373.1</ele>
        <time>2019-06-10T07:28:08Z</time>
      </trkpt>
      <trkpt lat="40.7275470" lon="-8.0319900">
        <ele>372.8</ele>
        <time>2019-06-10T07:28:12Z</time>
      </trkpt>
      <trkpt lat="40.7275350" lon="-8.0321660">
        <ele>372.6</ele>
        <time>2019-06-10T07:28:14Z</time>
      </trkpt>
      <trkpt lat="40.7275410" lon="-8.0324140">
        <ele>372.2</ele>
        <time>2019-06-10T07:28:17Z</time>
      </trkpt>
      <trkpt lat="40.7275490" lon="-8.0324950">
        <ele>372.1</ele>
        <time>2019-06-10T07:28:18Z</time>
      </trkpt>
      <trkpt lat="40.7275540" lon="-8.0325750">
        <ele>371.9</ele>
        <time>2019-06-10T07:28:19Z</time>
      </trkpt>
      <trkpt lat="40.7275630" lon="-8.0326510">
        <ele>371.8</ele>
        <time>2019-06-10T07:28:20Z</time>
      </trkpt>
      <trkpt lat="40.7275760" lon="-8.0327260">
        <ele>371.7</ele>
        <time>2019-06-10T07:28:21Z</time>
      </trkpt>
      <trkpt lat="40.7275900" lon="-8.0327870">
        <ele>371.6</ele>
        <time>2019-06-10T07:28:22Z</time>
      </trkpt>
      <trkpt lat="40.7275950" lon="-8.0328610">
        <ele>371.4</ele>
        <time>2019-06-10T07:28:23Z</time>
      </trkpt>
      <trkpt lat="40.7276210" lon="-8.0331290">
        <ele>371.1</ele>
        <time>2019-06-10T07:28:27Z</time>
      </trkpt>
      <trkpt lat="40.7276280" lon="-8.0333360">
        <ele>370.8</ele>
        <time>2019-06-10T07:28:30Z</time>
      </trkpt>
      <trkpt lat="40.7276140" lon="-8.0336120">
        <ele>370.7</ele>
        <time>2019-06-10T07:28:34Z</time>
      </trkpt>
      <trkpt lat="40.7276030" lon="-8.0336770">
        <ele>370.7</ele>
        <time>2019-06-10T07:28:35Z</time>
      </trkpt>
      <trkpt lat="40.7275910" lon="-8.0337400">
        <ele>370.7</ele>
        <time>2019-06-10T07:28:36Z</time>
      </trkpt>
      <trkpt lat="40.7275780" lon="-8.0338030">
        <ele>370.7</ele>
        <time>2019-06-10T07:28:37Z</time>
      </trkpt>
      <trkpt lat="40.7275660" lon="-8.0338630">
        <ele>370.7</ele>
        <time>2019-06-10T07:28:38Z</time>
      </trkpt>
      <trkpt lat="40.7274600" lon="-8.0341890">
        <ele>370.9</ele>
        <time>2019-06-10T07:28:43Z</time>
      </trkpt>
      <trkpt lat="40.7271590" lon="-8.0347070">
        <ele>370.8</ele>
        <time>2019-06-10T07:28:51Z</time>
      </trkpt>
      <trkpt lat="40.7267760" lon="-8.0352650">
        <ele>370.5</ele>
        <time>2019-06-10T07:29:00Z</time>
      </trkpt>
      <trkpt lat="40.7267410" lon="-8.0353260">
        <ele>370.4</ele>
        <time>2019-06-10T07:29:01Z</time>
      </trkpt>
      <trkpt lat="40.7267040" lon="-8.0353830">
        <ele>370.3</ele>
        <time>2019-06-10T07:29:02Z</time>
      </trkpt>
      <trkpt lat="40.7266640" lon="-8.0354480">
        <ele>370.2</ele>
        <time>2019-06-10T07:29:03Z</time>
      </trkpt>
      <trkpt lat="40.7266260" lon="-8.0355140">
        <ele>370.1</ele>
        <time>2019-06-10T07:29:04Z</time>
      </trkpt>
      <trkpt lat="40.7265130" lon="-8.0357090">
        <ele>369.8</ele>
        <time>2019-06-10T07:29:07Z</time>
      </trkpt>
      <trkpt lat="40.7262350" lon="-8.0359960">
        <ele>369.2</ele>
        <time>2019-06-10T07:29:13Z</time>
      </trkpt>
      <trkpt lat="40.7260850" lon="-8.0360640">
        <ele>368.9</ele>
        <time>2019-06-10T07:29:16Z</time>
      </trkpt>
      <trkpt lat="40.7260310" lon="-8.0360840">
        <ele>368.8</ele>
        <time>2019-06-10T07:29:17Z</time>
      </trkpt>
      <trkpt lat="40.7259850" lon="-8.0361050">
        <ele>368.7</ele>
        <time>2019-06-10T07:29:18Z</time>
      </trkpt>
      <trkpt lat="40.7259360" lon="-8.0361120">
        <ele>368.6</ele>
        <time>2019-06-10T07:29:19Z</time>
      </trkpt>
      <trkpt lat="40.7258820" lon="-8.0361220">
        <ele>368.5</ele>
        <time>2019-06-10T07:29:20Z</time>
      </trkpt>
      <trkpt lat="40.7257740" lon="-8.0361700">
        <ele>368.3</ele>
        <time>2019-06-10T07:29:23Z</time>
      </trkpt>
      <trkpt lat="40.7255820" lon="-8.0362750">
        <ele>367.7</ele>
        <time>2019-06-10T07:29:31Z</time>
      </trkpt>
      <trkpt lat="40.7254470" lon="-8.0363380">
        <ele>367.3</ele>
        <time>2019-06-10T07:29:38Z</time>
      </trkpt>
      <trkpt lat="40.7253570" lon="-8.0363670">
        <ele>367.1</ele>
        <time>2019-06-10T07:29:42Z</time>
      </trkpt>
      <trkpt lat="40.7253330" lon="-8.0363810">
        <ele>367.0</ele>
        <time>2019-06-10T07:29:43Z</time>
      </trkpt>
      <trkpt lat="40.7253160" lon="-8.0363940">
        <ele>367.0</ele>
        <time>2019-06-10T07:29:44Z</time>
      </trkpt>
      <trkpt lat="40.7252930" lon="-8.0364130">
        <ele>367.0</ele>
        <time>2019-06-10T07:29:45Z</time>
      </trkpt>
      <trkpt lat="40.7252720" lon="-8.0364340">
        <ele>367.0</ele>
        <time>2019-06-10T07:29:46Z</time>
      </trkpt>
      <trkpt lat="40.7252500" lon="-8.0364470">
        <ele>366.9</ele>
        <time>2019-06-10T07:29:47Z</time>
      </trkpt>
      <trkpt lat="40.7250450" lon="-8.0365980">
        <ele>366.4</ele>
        <time>2019-06-10T07:29:54Z</time>
      </trkpt>
      <trkpt lat="40.7248770" lon="-8.0368390">
        <ele>365.8</ele>
        <time>2019-06-10T07:30:00Z</time>
      </trkpt>
      <trkpt lat="40.7248190" lon="-8.0370170">
        <ele>365.5</ele>
        <time>2019-06-10T07:30:05Z</time>
      </trkpt>
      <trkpt lat="40.7248060" lon="-8.0370460">
        <ele>365.5</ele>
        <time>2019-06-10T07:30:06Z</time>
      </trkpt>
      <trkpt lat="40.7247950" lon="-8.0370740">
        <ele>365.5</ele>
        <time>2019-06-10T07:30:07Z</time>
      </trkpt>
      <trkpt lat="40.7247900" lon="-8.0371020">
        <ele>365.5</ele>
        <time>2019-06-10T07:30:08Z</time>
      </trkpt>
      <trkpt lat="40.7247870" lon="-8.0371310">
        <ele>365.5</ele>
        <time>2019-06-10T07:30:09Z</time>
      </trkpt>
      <trkpt lat="40.7247680" lon="-8.0371690">
        <ele>365.5</ele>
        <time>2019-06-10T07:30:10Z</time>
      </trkpt>
      <trkpt lat="40.7246890" lon="-8.0373760">
        <ele>363.7</ele>
        <time>2019-06-10T07:30:13Z</time>
      </trkpt>
      <trkpt lat="40.7246540" lon="-8.0377150">
        <ele>361.4</ele>
        <time>2019-06-10T07:30:17Z</time>
      </trkpt>
      <trkpt lat="40.7246360" lon="-8.0378770">
        <ele>360.3</ele>
        <time>2019-06-10T07:30:19Z</time>
      </trkpt>
      <trkpt lat="40.7246590" lon="-8.0381040">
        <ele>359.0</ele>
        <time>2019-06-10T07:30:22Z</time>
      </trkpt>
      <trkpt lat="40.7246810" lon="-8.0381860">
        <ele>358.6</ele>
        <time>2019-06-10T07:30:23Z</time>
      </trkpt>
      <trkpt lat="40.7247060" lon="-8.0382630">
        <ele>358.1</ele>
        <time>2019-06-10T07:30:24Z</time>
      </trkpt>
      <trkpt lat="40.7247320" lon="-8.0383410">
        <ele>357.8</ele>
        <time>2019-06-10T07:30:25Z</time>
      </trkpt>
      <trkpt lat="40.7247740" lon="-8.0384370">
        <ele>357.3</ele>
        <time>2019-06-10T07:30:26Z</time>
      </trkpt>
      <trkpt lat="40.7249390" lon="-8.0387760">
        <ele>355.9</ele>
        <time>2019-06-10T07:30:33Z</time>
      </trkpt>
      <trkpt lat="40.7251010" lon="-8.0388900">
        <ele>355.3</ele>
        <time>2019-06-10T07:30:37Z</time>
      </trkpt>
      <trkpt lat="40.7251470" lon="-8.0389110">
        <ele>355.0</ele>
        <time>2019-06-10T07:30:38Z</time>
      </trkpt>
      <trkpt lat="40.7252660" lon="-8.0389790">
        <ele>354.4</ele>
        <time>2019-06-10T07:30:41Z</time>
      </trkpt>
      <trkpt lat="40.7253650" lon="-8.0390030">
        <ele>354.1</ele>
        <time>2019-06-10T07:30:43Z</time>
      </trkpt>
      <trkpt lat="40.7256540" lon="-8.0390410">
        <ele>353.2</ele>
        <time>2019-06-10T07:30:50Z</time>
      </trkpt>
      <trkpt lat="40.7258260" lon="-8.0390160">
        <ele>352.5</ele>
        <time>2019-06-10T07:30:56Z</time>
      </trkpt>
      <trkpt lat="40.7259250" lon="-8.0390250">
        <ele>351.9</ele>
        <time>2019-06-10T07:31:02Z</time>
      </trkpt>
      <trkpt lat="40.7261940" lon="-8.0389810">
        <ele>351.5</ele>
        <time>2019-06-10T07:31:10Z</time>
      </trkpt>
      <trkpt lat="40.7262910" lon="-8.0390050">
        <ele>351.5</ele>
        <time>2019-06-10T07:31:12Z</time>
      </trkpt>
      <trkpt lat="40.7263410" lon="-8.0390060">
        <ele>351.5</ele>
        <time>2019-06-10T07:31:13Z</time>
      </trkpt>
      <trkpt lat="40.7263870" lon="-8.0390160">
        <ele>351.6</ele>
        <time>2019-06-10T07:31:14Z</time>
      </trkpt>
      <trkpt lat="40.7264310" lon="-8.0390290">
        <ele>351.6</ele>
        <time>2019-06-10T07:31:15Z</time>
      </trkpt>
      <trkpt lat="40.7264760" lon="-8.0390450">
        <ele>351.7</ele>
        <time>2019-06-10T07:31:16Z</time>
      </trkpt>
      <trkpt lat="40.7268040" lon="-8.0392030">
        <ele>352.5</ele>
        <time>2019-06-10T07:31:24Z</time>
      </trkpt>
      <trkpt lat="40.7270940" lon="-8.0394630">
        <ele>352.3</ele>
        <time>2019-06-10T07:31:32Z</time>
      </trkpt>
      <trkpt lat="40.7271330" lon="-8.0394870">
        <ele>352.3</ele>
        <time>2019-06-10T07:31:33Z</time>
      </trkpt>
      <trkpt lat="40.7271710" lon="-8.0395150">
        <ele>352.2</ele>
        <time>2019-06-10T07:31:34Z</time>
      </trkpt>
      <trkpt lat="40.7272080" lon="-8.0395460">
        <ele>352.1</ele>
        <time>2019-06-10T07:31:35Z</time>
      </trkpt>
      <trkpt lat="40.7272460" lon="-8.0395860">
        <ele>352.0</ele>
        <time>2019-06-10T07:31:36Z</time>
      </trkpt>
      <trkpt lat="40.7272770" lon="-8.0396310">
        <ele>351.8</ele>
        <time>2019-06-10T07:31:37Z</time>
      </trkpt>
      <trkpt lat="40.7272980" lon="-8.0396770">
        <ele>351.7</ele>
        <time>2019-06-10T07:31:38Z</time>
      </trkpt>
      <trkpt lat="40.7273700" lon="-8.0398700">
        <ele>351.2</ele>
        <time>2019-06-10T07:31:43Z</time>
      </trkpt>
      <trkpt lat="40.7275350" lon="-8.0399950">
        <ele>351.2</ele>
        <time>2019-06-10T07:31:48Z</time>
      </trkpt>
      <trkpt lat="40.7278230" lon="-8.0402110">
        <ele>351.3</ele>
        <time>2019-06-10T07:31:54Z</time>
      </trkpt>
      <trkpt lat="40.7279890" lon="-8.0403330">
        <ele>351.1</ele>
        <time>2019-06-10T07:31:57Z</time>
      </trkpt>
      <trkpt lat="40.7280450" lon="-8.0403720">
        <ele>351.0</ele>
        <time>2019-06-10T07:31:58Z</time>
      </trkpt>
      <trkpt lat="40.7280970" lon="-8.0404200">
        <ele>350.7</ele>
        <time>2019-06-10T07:31:59Z</time>
      </trkpt>
      <trkpt lat="40.7281530" lon="-8.0404610">
        <ele>350.5</ele>
        <time>2019-06-10T07:32:00Z</time>
      </trkpt>
      <trkpt lat="40.7282090" lon="-8.0405020">
        <ele>350.2</ele>
        <time>2019-06-10T07:32:01Z</time>
      </trkpt>
      <trkpt lat="40.7283220" lon="-8.0405820">
        <ele>350.0</ele>
        <time>2019-06-10T07:32:03Z</time>
      </trkpt>
      <trkpt lat="40.7286760" lon="-8.0408130">
        <ele>349.9</ele>
        <time>2019-06-10T07:32:09Z</time>
      </trkpt>
      <trkpt lat="40.7287340" lon="-8.0408530">
        <ele>349.9</ele>
        <time>2019-06-10T07:32:10Z</time>
      </trkpt>
      <trkpt lat="40.7287920" lon="-8.0408920">
        <ele>349.9</ele>
        <time>2019-06-10T07:32:11Z</time>
      </trkpt>
      <trkpt lat="40.7288520" lon="-8.0409320">
        <ele>349.9</ele>
        <time>2019-06-10T07:32:12Z</time>
      </trkpt>
      <trkpt lat="40.7289100" lon="-8.0409720">
        <ele>349.9</ele>
        <time>2019-06-10T07:32:13Z</time>
      </trkpt>
      <trkpt lat="40.7289700" lon="-8.0410120">
        <ele>349.8</ele>
        <time>2019-06-10T07:32:14Z</time>
      </trkpt>
      <trkpt lat="40.7294080" lon="-8.0412840">
        <ele>348.5</ele>
        <time>2019-06-10T07:32:21Z</time>
      </trkpt>
      <trkpt lat="40.7294710" lon="-8.0413300">
        <ele>348.4</ele>
        <time>2019-06-10T07:32:22Z</time>
      </trkpt>
      <trkpt lat="40.7295330" lon="-8.0413680">
        <ele>348.2</ele>
        <time>2019-06-10T07:32:23Z</time>
      </trkpt>
      <trkpt lat="40.7295940" lon="-8.0414130">
        <ele>348.0</ele>
        <time>2019-06-10T07:32:24Z</time>
      </trkpt>
      <trkpt lat="40.7296550" lon="-8.0414560">
        <ele>347.9</ele>
        <time>2019-06-10T07:32:25Z</time>
      </trkpt>
      <trkpt lat="40.7299870" lon="-8.0417040">
        <ele>346.7</ele>
        <time>2019-06-10T07:32:30Z</time>
      </trkpt>
      <trkpt lat="40.7300550" lon="-8.0417590">
        <ele>346.7</ele>
        <time>2019-06-10T07:32:31Z</time>
      </trkpt>
      <trkpt lat="40.7301190" lon="-8.0418170">
        <ele>346.6</ele>
        <time>2019-06-10T07:32:32Z</time>
      </trkpt>
      <trkpt lat="40.7301810" lon="-8.0418800">
        <ele>346.5</ele>
        <time>2019-06-10T07:32:33Z</time>
      </trkpt>
      <trkpt lat="40.7302370" lon="-8.0419400">
        <ele>346.2</ele>
        <time>2019-06-10T07:32:34Z</time>
      </trkpt>
      <trkpt lat="40.7303410" lon="-8.0420770">
        <ele>345.9</ele>
        <time>2019-06-10T07:32:36Z</time>
      </trkpt>
      <trkpt lat="40.7305340" lon="-8.0423740">
        <ele>345.4</ele>
        <time>2019-06-10T07:32:40Z</time>
      </trkpt>
      <trkpt lat="40.7305840" lon="-8.0424520">
        <ele>345.3</ele>
        <time>2019-06-10T07:32:41Z</time>
      </trkpt>
      <trkpt lat="40.7306350" lon="-8.0425250">
        <ele>345.1</ele>
        <time>2019-06-10T07:32:42Z</time>
      </trkpt>
      <trkpt lat="40.7306890" lon="-8.0425960">
        <ele>345.0</ele>
        <time>2019-06-10T07:32:43Z</time>
      </trkpt>
      <trkpt lat="40.7307470" lon="-8.0426630">
        <ele>344.8</ele>
        <time>2019-06-10T07:32:44Z</time>
      </trkpt>
      <trkpt lat="40.7308180" lon="-8.0427140">
        <ele>344.7</ele>
        <time>2019-06-10T07:32:45Z</time>
      </trkpt>
      <trkpt lat="40.7309650" lon="-8.0428010">
        <ele>344.3</ele>
        <time>2019-06-10T07:32:47Z</time>
      </trkpt>
      <trkpt lat="40.7311180" lon="-8.0428720">
        <ele>343.8</ele>
        <time>2019-06-10T07:32:49Z</time>
      </trkpt>
      <trkpt lat="40.7311950" lon="-8.0429060">
        <ele>343.6</ele>
        <time>2019-06-10T07:32:50Z</time>
      </trkpt>
      <trkpt lat="40.7312710" lon="-8.0429410">
        <ele>343.4</ele>
        <time>2019-06-10T07:32:51Z</time>
      </trkpt>
      <trkpt lat="40.7313470" lon="-8.0429720">
        <ele>343.2</ele>
        <time>2019-06-10T07:32:52Z</time>
      </trkpt>
      <trkpt lat="40.7314210" lon="-8.0430050">
        <ele>343.1</ele>
        <time>2019-06-10T07:32:53Z</time>
      </trkpt>
      <trkpt lat="40.7314950" lon="-8.0430400">
        <ele>343.0</ele>
        <time>2019-06-10T07:32:54Z</time>
      </trkpt>
      <trkpt lat="40.7316210" lon="-8.0431390">
        <ele>342.7</ele>
        <time>2019-06-10T07:32:56Z</time>
      </trkpt>
      <trkpt lat="40.7317420" lon="-8.0432560">
        <ele>342.5</ele>
        <time>2019-06-10T07:32:58Z</time>
      </trkpt>
      <trkpt lat="40.7318360" lon="-8.0434050">
        <ele>342.3</ele>
        <time>2019-06-10T07:33:00Z</time>
      </trkpt>
      <trkpt lat="40.7318670" lon="-8.0435060">
        <ele>342.2</ele>
        <time>2019-06-10T07:33:01Z</time>
      </trkpt>
      <trkpt lat="40.7318960" lon="-8.0435920">
        <ele>342.2</ele>
        <time>2019-06-10T07:33:02Z</time>
      </trkpt>
      <trkpt lat="40.7319290" lon="-8.0436750">
        <ele>342.1</ele>
        <time>2019-06-10T07:33:03Z</time>
      </trkpt>
      <trkpt lat="40.7319490" lon="-8.0437730">
        <ele>342.0</ele>
        <time>2019-06-10T07:33:04Z</time>
      </trkpt>
      <trkpt lat="40.7320110" lon="-8.0440330">
        <ele>341.8</ele>
        <time>2019-06-10T07:33:07Z</time>
      </trkpt>
      <trkpt lat="40.7321570" lon="-8.0447100">
        <ele>340.1</ele>
        <time>2019-06-10T07:33:15Z</time>
      </trkpt>
      <trkpt lat="40.7322960" lon="-8.0451110">
        <ele>337.9</ele>
        <time>2019-06-10T07:33:21Z</time>
      </trkpt>
      <trkpt lat="40.7323080" lon="-8.0452070">
        <ele>337.3</ele>
        <time>2019-06-10T07:33:25Z</time>
      </trkpt>
      <trkpt lat="40.7323100" lon="-8.0452080">
        <ele>337.3</ele>
        <time>2019-06-10T07:33:27Z</time>
      </trkpt>
      <trkpt lat="40.7323150" lon="-8.0452190">
        <ele>337.2</ele>
        <time>2019-06-10T07:36:20Z</time>
      </trkpt>
      <trkpt lat="40.7323540" lon="-8.0452240">
        <ele>337.1</ele>
        <time>2019-06-10T07:36:21Z</time>
      </trkpt>
      <trkpt lat="40.7324830" lon="-8.0453440">
        <ele>336.7</ele>
        <time>2019-06-10T07:36:26Z</time>
      </trkpt>
      <trkpt lat="40.7326850" lon="-8.0454990">
        <ele>336.2</ele>
        <time>2019-06-10T07:36:33Z</time>
      </trkpt>
      <trkpt lat="40.7327130" lon="-8.0455210">
        <ele>336.1</ele>
        <time>2019-06-10T07:36:34Z</time>
      </trkpt>
      <trkpt lat="40.7328980" lon="-8.0456330">
        <ele>335.7</ele>
        <time>2019-06-10T07:36:41Z</time>
      </trkpt>
      <trkpt lat="40.7330760" lon="-8.0457140">
        <ele>335.2</ele>
        <time>2019-06-10T07:36:48Z</time>
      </trkpt>
      <trkpt lat="40.7333570" lon="-8.0458040">
        <ele>334.3</ele>
        <time>2019-06-10T07:36:55Z</time>
      </trkpt>
      <trkpt lat="40.7337010" lon="-8.0459260">
        <ele>333.5</ele>
        <time>2019-06-10T07:37:02Z</time>
      </trkpt>
      <trkpt lat="40.7339330" lon="-8.0460220">
        <ele>332.3</ele>
        <time>2019-06-10T07:37:06Z</time>
      </trkpt>
      <trkpt lat="40.7339920" lon="-8.0460440">
        <ele>332.0</ele>
        <time>2019-06-10T07:37:07Z</time>
      </trkpt>
      <trkpt lat="40.7340540" lon="-8.0460630">
        <ele>331.7</ele>
        <time>2019-06-10T07:37:08Z</time>
      </trkpt>
      <trkpt lat="40.7341160" lon="-8.0460790">
        <ele>331.5</ele>
        <time>2019-06-10T07:37:09Z</time>
      </trkpt>
      <trkpt lat="40.7341790" lon="-8.0460920">
        <ele>331.3</ele>
        <time>2019-06-10T07:37:10Z</time>
      </trkpt>
      <trkpt lat="40.7344420" lon="-8.0461030">
        <ele>330.7</ele>
        <time>2019-06-10T07:37:14Z</time>
      </trkpt>
      <trkpt lat="40.7346300" lon="-8.0460900">
        <ele>330.4</ele>
        <time>2019-06-10T07:37:17Z</time>
      </trkpt>
      <trkpt lat="40.7346930" lon="-8.0460820">
        <ele>330.3</ele>
        <time>2019-06-10T07:37:18Z</time>
      </trkpt>
      <trkpt lat="40.7347550" lon="-8.0460710">
        <ele>330.2</ele>
        <time>2019-06-10T07:37:19Z</time>
      </trkpt>
      <trkpt lat="40.7348170" lon="-8.0460590">
        <ele>330.1</ele>
        <time>2019-06-10T07:37:20Z</time>
      </trkpt>
      <trkpt lat="40.7348760" lon="-8.0460510">
        <ele>330.0</ele>
        <time>2019-06-10T07:37:21Z</time>
      </trkpt>
      <trkpt lat="40.7349350" lon="-8.0460410">
        <ele>329.9</ele>
        <time>2019-06-10T07:37:22Z</time>
      </trkpt>
      <trkpt lat="40.7351660" lon="-8.0460370">
        <ele>329.4</ele>
        <time>2019-06-10T07:37:26Z</time>
      </trkpt>
      <trkpt lat="40.7353940" lon="-8.0460920">
        <ele>328.9</ele>
        <time>2019-06-10T07:37:30Z</time>
      </trkpt>
      <trkpt lat="40.7355080" lon="-8.0461440">
        <ele>328.7</ele>
        <time>2019-06-10T07:37:32Z</time>
      </trkpt>
      <trkpt lat="40.7358660" lon="-8.0463260">
        <ele>328.0</ele>
        <time>2019-06-10T07:37:38Z</time>
      </trkpt>
      <trkpt lat="40.7359280" lon="-8.0463540">
        <ele>327.9</ele>
        <time>2019-06-10T07:37:39Z</time>
      </trkpt>
      <trkpt lat="40.7359910" lon="-8.0463830">
        <ele>327.8</ele>
        <time>2019-06-10T07:37:40Z</time>
      </trkpt>
      <trkpt lat="40.7360560" lon="-8.0464120">
        <ele>327.6</ele>
        <time>2019-06-10T07:37:41Z</time>
      </trkpt>
      <trkpt lat="40.7361180" lon="-8.0464390">
        <ele>327.3</ele>
        <time>2019-06-10T07:37:42Z</time>
      </trkpt>
      <trkpt lat="40.7364720" lon="-8.0465530">
        <ele>325.3</ele>
        <time>2019-06-10T07:37:48Z</time>
      </trkpt>
      <trkpt lat="40.7367670" lon="-8.0466520">
        <ele>323.2</ele>
        <time>2019-06-10T07:37:53Z</time>
      </trkpt>
      <trkpt lat="40.7368270" lon="-8.0466870">
        <ele>322.7</ele>
        <time>2019-06-10T07:37:54Z</time>
      </trkpt>
      <trkpt lat="40.7368950" lon="-8.0467210">
        <ele>322.3</ele>
        <time>2019-06-10T07:37:55Z</time>
      </trkpt>
      <trkpt lat="40.7369690" lon="-8.0467480">
        <ele>321.8</ele>
        <time>2019-06-10T07:37:56Z</time>
      </trkpt>
      <trkpt lat="40.7370310" lon="-8.0468020">
        <ele>321.5</ele>
        <time>2019-06-10T07:37:57Z</time>
      </trkpt>
      <trkpt lat="40.7371010" lon="-8.0468610">
        <ele>321.3</ele>
        <time>2019-06-10T07:37:58Z</time>
      </trkpt>
      <trkpt lat="40.7371700" lon="-8.0469170">
        <ele>321.1</ele>
        <time>2019-06-10T07:37:59Z</time>
      </trkpt>
      <trkpt lat="40.7372440" lon="-8.0469530">
        <ele>320.9</ele>
        <time>2019-06-10T07:38:00Z</time>
      </trkpt>
      <trkpt lat="40.7373070" lon="-8.0469880">
        <ele>320.7</ele>
        <time>2019-06-10T07:38:01Z</time>
      </trkpt>
      <trkpt lat="40.7373760" lon="-8.0470110">
        <ele>320.5</ele>
        <time>2019-06-10T07:38:02Z</time>
      </trkpt>
      <trkpt lat="40.7374510" lon="-8.0470300">
        <ele>320.3</ele>
        <time>2019-06-10T07:38:03Z</time>
      </trkpt>
      <trkpt lat="40.7375210" lon="-8.0470430">
        <ele>320.2</ele>
        <time>2019-06-10T07:38:04Z</time>
      </trkpt>
      <trkpt lat="40.7375980" lon="-8.0470500">
        <ele>320.0</ele>
        <time>2019-06-10T07:38:05Z</time>
      </trkpt>
      <trkpt lat="40.7377420" lon="-8.0470730">
        <ele>319.8</ele>
        <time>2019-06-10T07:38:07Z</time>
      </trkpt>
      <trkpt lat="40.7380160" lon="-8.0471260">
        <ele>319.3</ele>
        <time>2019-06-10T07:38:11Z</time>
      </trkpt>
      <trkpt lat="40.7380880" lon="-8.0471390">
        <ele>319.2</ele>
        <time>2019-06-10T07:38:12Z</time>
      </trkpt>
      <trkpt lat="40.7381560" lon="-8.0471510">
        <ele>319.1</ele>
        <time>2019-06-10T07:38:13Z</time>
      </trkpt>
      <trkpt lat="40.7382220" lon="-8.0471620">
        <ele>319.0</ele>
        <time>2019-06-10T07:38:14Z</time>
      </trkpt>
      <trkpt lat="40.7382920" lon="-8.0471730">
        <ele>318.8</ele>
        <time>2019-06-10T07:38:15Z</time>
      </trkpt>
      <trkpt lat="40.7388360" lon="-8.0472300">
        <ele>318.0</ele>
        <time>2019-06-10T07:38:23Z</time>
      </trkpt>
      <trkpt lat="40.7389080" lon="-8.0472390">
        <ele>317.9</ele>
        <time>2019-06-10T07:38:24Z</time>
      </trkpt>
      <trkpt lat="40.7389780" lon="-8.0472490">
        <ele>317.8</ele>
        <time>2019-06-10T07:38:25Z</time>
      </trkpt>
      <trkpt lat="40.7390480" lon="-8.0472540">
        <ele>317.7</ele>
        <time>2019-06-10T07:38:26Z</time>
      </trkpt>
      <trkpt lat="40.7391190" lon="-8.0472630">
        <ele>317.6</ele>
        <time>2019-06-10T07:38:27Z</time>
      </trkpt>
      <trkpt lat="40.7391840" lon="-8.0472700">
        <ele>317.6</ele>
        <time>2019-06-10T07:38:28Z</time>
      </trkpt>
      <trkpt lat="40.7394500" lon="-8.0473240">
        <ele>317.2</ele>
        <time>2019-06-10T07:38:32Z</time>
      </trkpt>
      <trkpt lat="40.7397910" lon="-8.0475410">
        <ele>316.8</ele>
        <time>2019-06-10T07:38:38Z</time>
      </trkpt>
      <trkpt lat="40.7398960" lon="-8.0476510">
        <ele>316.6</ele>
        <time>2019-06-10T07:38:40Z</time>
      </trkpt>
      <trkpt lat="40.7399520" lon="-8.0477060">
        <ele>316.5</ele>
        <time>2019-06-10T07:38:41Z</time>
      </trkpt>
      <trkpt lat="40.7400110" lon="-8.0477560">
        <ele>316.4</ele>
        <time>2019-06-10T07:38:42Z</time>
      </trkpt>
      <trkpt lat="40.7400680" lon="-8.0478030">
        <ele>316.3</ele>
        <time>2019-06-10T07:38:43Z</time>
      </trkpt>
      <trkpt lat="40.7401250" lon="-8.0478550">
        <ele>316.2</ele>
        <time>2019-06-10T07:38:44Z</time>
      </trkpt>
      <trkpt lat="40.7402640" lon="-8.0480360">
        <ele>315.8</ele>
        <time>2019-06-10T07:38:47Z</time>
      </trkpt>
      <trkpt lat="40.7403440" lon="-8.0481750">
        <ele>315.6</ele>
        <time>2019-06-10T07:38:49Z</time>
      </trkpt>
      <trkpt lat="40.7404670" lon="-8.0483810">
        <ele>315.3</ele>
        <time>2019-06-10T07:38:52Z</time>
      </trkpt>
      <trkpt lat="40.7405100" lon="-8.0484430">
        <ele>315.2</ele>
        <time>2019-06-10T07:38:53Z</time>
      </trkpt>
      <trkpt lat="40.7405530" lon="-8.0485110">
        <ele>315.1</ele>
        <time>2019-06-10T07:38:54Z</time>
      </trkpt>
      <trkpt lat="40.7405920" lon="-8.0485770">
        <ele>315.0</ele>
        <time>2019-06-10T07:38:55Z</time>
      </trkpt>
      <trkpt lat="40.7406320" lon="-8.0486430">
        <ele>314.9</ele>
        <time>2019-06-10T07:38:56Z</time>
      </trkpt>
      <trkpt lat="40.7406720" lon="-8.0487090">
        <ele>314.8</ele>
        <time>2019-06-10T07:38:57Z</time>
      </trkpt>
      <trkpt lat="40.7408990" lon="-8.0489770">
        <ele>314.4</ele>
        <time>2019-06-10T07:39:02Z</time>
      </trkpt>
      <trkpt lat="40.7409510" lon="-8.0490140">
        <ele>314.4</ele>
        <time>2019-06-10T07:39:03Z</time>
      </trkpt>
      <trkpt lat="40.7411710" lon="-8.0491390">
        <ele>314.1</ele>
        <time>2019-06-10T07:39:07Z</time>
      </trkpt>
      <trkpt lat="40.7412270" lon="-8.0491610">
        <ele>314.0</ele>
        <time>2019-06-10T07:39:08Z</time>
      </trkpt>
      <trkpt lat="40.7412850" lon="-8.0491780">
        <ele>313.9</ele>
        <time>2019-06-10T07:39:09Z</time>
      </trkpt>
      <trkpt lat="40.7413410" lon="-8.0491880">
        <ele>313.8</ele>
        <time>2019-06-10T07:39:10Z</time>
      </trkpt>
      <trkpt lat="40.7413950" lon="-8.0491980">
        <ele>313.7</ele>
        <time>2019-06-10T07:39:11Z</time>
      </trkpt>
      <trkpt lat="40.7415120" lon="-8.0492040">
        <ele>313.5</ele>
        <time>2019-06-10T07:39:13Z</time>
      </trkpt>
      <trkpt lat="40.7415720" lon="-8.0491940">
        <ele>313.4</ele>
        <time>2019-06-10T07:39:14Z</time>
      </trkpt>
      <trkpt lat="40.7417590" lon="-8.0491280">
        <ele>313.1</ele>
        <time>2019-06-10T07:39:17Z</time>
      </trkpt>
      <trkpt lat="40.7418700" lon="-8.0490660">
        <ele>313.0</ele>
        <time>2019-06-10T07:39:19Z</time>
      </trkpt>
      <trkpt lat="40.7420670" lon="-8.0489070">
        <ele>312.6</ele>
        <time>2019-06-10T07:39:23Z</time>
      </trkpt>
      <trkpt lat="40.7421110" lon="-8.0488590">
        <ele>312.5</ele>
        <time>2019-06-10T07:39:24Z</time>
      </trkpt>
      <trkpt lat="40.7421570" lon="-8.0488080">
        <ele>312.4</ele>
        <time>2019-06-10T07:39:25Z</time>
      </trkpt>
      <trkpt lat="40.7422020" lon="-8.0487590">
        <ele>312.3</ele>
        <time>2019-06-10T07:39:26Z</time>
      </trkpt>
      <trkpt lat="40.7422410" lon="-8.0487240">
        <ele>312.2</ele>
        <time>2019-06-10T07:39:27Z</time>
      </trkpt>
      <trkpt lat="40.7423420" lon="-8.0486710">
        <ele>312.1</ele>
        <time>2019-06-10T07:39:30Z</time>
      </trkpt>
      <trkpt lat="40.7424810" lon="-8.0485740">
        <ele>311.9</ele>
        <time>2019-06-10T07:39:35Z</time>
      </trkpt>
      <trkpt lat="40.7425170" lon="-8.0485280">
        <ele>311.8</ele>
        <time>2019-06-10T07:39:36Z</time>
      </trkpt>
      <trkpt lat="40.7425940" lon="-8.0484110">
        <ele>311.6</ele>
        <time>2019-06-10T07:39:38Z</time>
      </trkpt>
      <trkpt lat="40.7427720" lon="-8.0482430">
        <ele>311.2</ele>
        <time>2019-06-10T07:39:41Z</time>
      </trkpt>
      <trkpt lat="40.7428300" lon="-8.0481890">
        <ele>311.0</ele>
        <time>2019-06-10T07:39:42Z</time>
      </trkpt>
      <trkpt lat="40.7428930" lon="-8.0481360">
        <ele>310.8</ele>
        <time>2019-06-10T07:39:43Z</time>
      </trkpt>
      <trkpt lat="40.7429540" lon="-8.0480850">
        <ele>310.6</ele>
        <time>2019-06-10T07:39:44Z</time>
      </trkpt>
      <trkpt lat="40.7430210" lon="-8.0480320">
        <ele>310.4</ele>
        <time>2019-06-10T07:39:45Z</time>
      </trkpt>
      <trkpt lat="40.7432890" lon="-8.0478720">
        <ele>309.9</ele>
        <time>2019-06-10T07:39:49Z</time>
      </trkpt>
      <trkpt lat="40.7433610" lon="-8.0478450">
        <ele>309.8</ele>
        <time>2019-06-10T07:39:50Z</time>
      </trkpt>
      <trkpt lat="40.7435760" lon="-8.0477790">
        <ele>309.4</ele>
        <time>2019-06-10T07:39:53Z</time>
      </trkpt>
      <trkpt lat="40.7436370" lon="-8.0477700">
        <ele>309.4</ele>
        <time>2019-06-10T07:39:54Z</time>
      </trkpt>
      <trkpt lat="40.7437060" lon="-8.0477590">
        <ele>309.3</ele>
        <time>2019-06-10T07:39:55Z</time>
      </trkpt>
      <trkpt lat="40.7437710" lon="-8.0477600">
        <ele>309.3</ele>
        <time>2019-06-10T07:39:56Z</time>
      </trkpt>
      <trkpt lat="40.7438340" lon="-8.0477590">
        <ele>309.2</ele>
        <time>2019-06-10T07:39:57Z</time>
      </trkpt>
      <trkpt lat="40.7440180" lon="-8.0477700">
        <ele>308.0</ele>
        <time>2019-06-10T07:40:00Z</time>
      </trkpt>
      <trkpt lat="40.7442710" lon="-8.0478320">
        <ele>307.2</ele>
        <time>2019-06-10T07:40:04Z</time>
      </trkpt>
      <trkpt lat="40.7443340" lon="-8.0478490">
        <ele>307.1</ele>
        <time>2019-06-10T07:40:05Z</time>
      </trkpt>
      <trkpt lat="40.7443950" lon="-8.0478850">
        <ele>306.9</ele>
        <time>2019-06-10T07:40:06Z</time>
      </trkpt>
      <trkpt lat="40.7444610" lon="-8.0479240">
        <ele>306.7</ele>
        <time>2019-06-10T07:40:07Z</time>
      </trkpt>
      <trkpt lat="40.7445270" lon="-8.0479580">
        <ele>306.5</ele>
        <time>2019-06-10T07:40:08Z</time>
      </trkpt>
      <trkpt lat="40.7445920" lon="-8.0480010">
        <ele>306.4</ele>
        <time>2019-06-10T07:40:09Z</time>
      </trkpt>
      <trkpt lat="40.7448390" lon="-8.0482080">
        <ele>305.3</ele>
        <time>2019-06-10T07:40:13Z</time>
      </trkpt>
      <trkpt lat="40.7448920" lon="-8.0482720">
        <ele>305.2</ele>
        <time>2019-06-10T07:40:14Z</time>
      </trkpt>
      <trkpt lat="40.7449490" lon="-8.0483420">
        <ele>305.0</ele>
        <time>2019-06-10T07:40:15Z</time>
      </trkpt>
      <trkpt lat="40.7449870" lon="-8.0484130">
        <ele>304.9</ele>
        <time>2019-06-10T07:40:16Z</time>
      </trkpt>
      <trkpt lat="40.7450350" lon="-8.0484720">
        <ele>304.8</ele>
        <time>2019-06-10T07:40:17Z</time>
      </trkpt>
      <trkpt lat="40.7451200" lon="-8.0486030">
        <ele>304.5</ele>
        <time>2019-06-10T07:40:19Z</time>
      </trkpt>
      <trkpt lat="40.7452820" lon="-8.0489520">
        <ele>303.3</ele>
        <time>2019-06-10T07:40:24Z</time>
      </trkpt>
      <trkpt lat="40.7453470" lon="-8.0490900">
        <ele>302.9</ele>
        <time>2019-06-10T07:40:26Z</time>
      </trkpt>
      <trkpt lat="40.7453700" lon="-8.0491660">
        <ele>302.7</ele>
        <time>2019-06-10T07:40:27Z</time>
      </trkpt>
      <trkpt lat="40.7453860" lon="-8.0492330">
        <ele>302.6</ele>
        <time>2019-06-10T07:40:28Z</time>
      </trkpt>
      <trkpt lat="40.7454100" lon="-8.0493120">
        <ele>302.4</ele>
        <time>2019-06-10T07:40:29Z</time>
      </trkpt>
      <trkpt lat="40.7454460" lon="-8.0493930">
        <ele>302.1</ele>
        <time>2019-06-10T07:40:30Z</time>
      </trkpt>
      <trkpt lat="40.7454720" lon="-8.0494640">
        <ele>301.9</ele>
        <time>2019-06-10T07:40:31Z</time>
      </trkpt>
      <trkpt lat="40.7457000" lon="-8.0500980">
        <ele>300.4</ele>
        <time>2019-06-10T07:40:39Z</time>
      </trkpt>
      <trkpt lat="40.7457350" lon="-8.0501780">
        <ele>300.3</ele>
        <time>2019-06-10T07:40:40Z</time>
      </trkpt>
      <trkpt lat="40.7457660" lon="-8.0502690">
        <ele>300.1</ele>
        <time>2019-06-10T07:40:41Z</time>
      </trkpt>
      <trkpt lat="40.7457990" lon="-8.0503590">
        <ele>299.9</ele>
        <time>2019-06-10T07:40:42Z</time>
      </trkpt>
      <trkpt lat="40.7458330" lon="-8.0504690">
        <ele>299.5</ele>
        <time>2019-06-10T07:40:43Z</time>
      </trkpt>
      <trkpt lat="40.7459180" lon="-8.0506330">
        <ele>299.0</ele>
        <time>2019-06-10T07:40:45Z</time>
      </trkpt>
      <trkpt lat="40.7459690" lon="-8.0507050">
        <ele>298.8</ele>
        <time>2019-06-10T07:40:46Z</time>
      </trkpt>
      <trkpt lat="40.7460750" lon="-8.0508510">
        <ele>298.5</ele>
        <time>2019-06-10T07:40:48Z</time>
      </trkpt>
      <trkpt lat="40.7461360" lon="-8.0509170">
        <ele>298.4</ele>
        <time>2019-06-10T07:40:49Z</time>
      </trkpt>
      <trkpt lat="40.7461900" lon="-8.0509840">
        <ele>298.2</ele>
        <time>2019-06-10T07:40:50Z</time>
      </trkpt>
      <trkpt lat="40.7462420" lon="-8.0510520">
        <ele>298.1</ele>
        <time>2019-06-10T07:40:51Z</time>
      </trkpt>
      <trkpt lat="40.7462970" lon="-8.0511180">
        <ele>297.8</ele>
        <time>2019-06-10T07:40:52Z</time>
      </trkpt>
      <trkpt lat="40.7466110" lon="-8.0515720">
        <ele>296.2</ele>
        <time>2019-06-10T07:40:58Z</time>
      </trkpt>
      <trkpt lat="40.7466470" lon="-8.0516640">
        <ele>295.9</ele>
        <time>2019-06-10T07:40:59Z</time>
      </trkpt>
      <trkpt lat="40.7466860" lon="-8.0517520">
        <ele>295.7</ele>
        <time>2019-06-10T07:41:00Z</time>
      </trkpt>
      <trkpt lat="40.7467280" lon="-8.0518480">
        <ele>295.4</ele>
        <time>2019-06-10T07:41:01Z</time>
      </trkpt>
      <trkpt lat="40.7467560" lon="-8.0519410">
        <ele>295.1</ele>
        <time>2019-06-10T07:41:02Z</time>
      </trkpt>
      <trkpt lat="40.7468650" lon="-8.0522840">
        <ele>294.5</ele>
        <time>2019-06-10T07:41:06Z</time>
      </trkpt>
      <trkpt lat="40.7469590" lon="-8.0524390">
        <ele>294.2</ele>
        <time>2019-06-10T07:41:08Z</time>
      </trkpt>
      <trkpt lat="40.7470130" lon="-8.0525110">
        <ele>294.1</ele>
        <time>2019-06-10T07:41:09Z</time>
      </trkpt>
      <trkpt lat="40.7470700" lon="-8.0525690">
        <ele>293.9</ele>
        <time>2019-06-10T07:41:10Z</time>
      </trkpt>
      <trkpt lat="40.7471250" lon="-8.0526190">
        <ele>293.7</ele>
        <time>2019-06-10T07:41:11Z</time>
      </trkpt>
      <trkpt lat="40.7471830" lon="-8.0526700">
        <ele>293.3</ele>
        <time>2019-06-10T07:41:12Z</time>
      </trkpt>
      <trkpt lat="40.7472460" lon="-8.0527090">
        <ele>293.0</ele>
        <time>2019-06-10T07:41:13Z</time>
      </trkpt>
      <trkpt lat="40.7474530" lon="-8.0528120">
        <ele>292.4</ele>
        <time>2019-06-10T07:41:16Z</time>
      </trkpt>
      <trkpt lat="40.7475260" lon="-8.0528390">
        <ele>292.3</ele>
        <time>2019-06-10T07:41:17Z</time>
      </trkpt>
      <trkpt lat="40.7476000" lon="-8.0528660">
        <ele>292.1</ele>
        <time>2019-06-10T07:41:18Z</time>
      </trkpt>
      <trkpt lat="40.7476750" lon="-8.0528910">
        <ele>292.0</ele>
        <time>2019-06-10T07:41:19Z</time>
      </trkpt>
      <trkpt lat="40.7477490" lon="-8.0529160">
        <ele>291.9</ele>
        <time>2019-06-10T07:41:20Z</time>
      </trkpt>
      <trkpt lat="40.7478940" lon="-8.0529870">
        <ele>291.3</ele>
        <time>2019-06-10T07:41:22Z</time>
      </trkpt>
      <trkpt lat="40.7480860" lon="-8.0531210">
        <ele>290.4</ele>
        <time>2019-06-10T07:41:25Z</time>
      </trkpt>
      <trkpt lat="40.7481830" lon="-8.0532410">
        <ele>290.2</ele>
        <time>2019-06-10T07:41:27Z</time>
      </trkpt>
      <trkpt lat="40.7482720" lon="-8.0533730">
        <ele>290.1</ele>
        <time>2019-06-10T07:41:29Z</time>
      </trkpt>
      <trkpt lat="40.7483150" lon="-8.0534350">
        <ele>290.0</ele>
        <time>2019-06-10T07:41:30Z</time>
      </trkpt>
      <trkpt lat="40.7483600" lon="-8.0535020">
        <ele>289.9</ele>
        <time>2019-06-10T07:41:31Z</time>
      </trkpt>
      <trkpt lat="40.7484020" lon="-8.0535710">
        <ele>289.8</ele>
        <time>2019-06-10T07:41:32Z</time>
      </trkpt>
      <trkpt lat="40.7484440" lon="-8.0536420">
        <ele>289.7</ele>
        <time>2019-06-10T07:41:33Z</time>
      </trkpt>
      <trkpt lat="40.7486190" lon="-8.0539570">
        <ele>288.7</ele>
        <time>2019-06-10T07:41:37Z</time>
      </trkpt>
      <trkpt lat="40.7486760" lon="-8.0540250">
        <ele>288.5</ele>
        <time>2019-06-10T07:41:38Z</time>
      </trkpt>
      <trkpt lat="40.7487360" lon="-8.0540880">
        <ele>288.4</ele>
        <time>2019-06-10T07:41:39Z</time>
      </trkpt>
      <trkpt lat="40.7487940" lon="-8.0541470">
        <ele>288.3</ele>
        <time>2019-06-10T07:41:40Z</time>
      </trkpt>
      <trkpt lat="40.7488540" lon="-8.0541980">
        <ele>288.1</ele>
        <time>2019-06-10T07:41:41Z</time>
      </trkpt>
      <trkpt lat="40.7490520" lon="-8.0543370">
        <ele>287.5</ele>
        <time>2019-06-10T07:41:44Z</time>
      </trkpt>
      <trkpt lat="40.7494270" lon="-8.0544820">
        <ele>285.8</ele>
        <time>2019-06-10T07:41:49Z</time>
      </trkpt>
      <trkpt lat="40.7495070" lon="-8.0545050">
        <ele>285.6</ele>
        <time>2019-06-10T07:41:50Z</time>
      </trkpt>
      <trkpt lat="40.7495880" lon="-8.0545320">
        <ele>285.4</ele>
        <time>2019-06-10T07:41:51Z</time>
      </trkpt>
      <trkpt lat="40.7496670" lon="-8.0545610">
        <ele>285.2</ele>
        <time>2019-06-10T07:41:52Z</time>
      </trkpt>
      <trkpt lat="40.7497550" lon="-8.0545920">
        <ele>284.9</ele>
        <time>2019-06-10T07:41:53Z</time>
      </trkpt>
      <trkpt lat="40.7499260" lon="-8.0546560">
        <ele>284.4</ele>
        <time>2019-06-10T07:41:55Z</time>
      </trkpt>
      <trkpt lat="40.7503240" lon="-8.0548360">
        <ele>283.7</ele>
        <time>2019-06-10T07:42:00Z</time>
      </trkpt>
      <trkpt lat="40.7503900" lon="-8.0548990">
        <ele>283.5</ele>
        <time>2019-06-10T07:42:01Z</time>
      </trkpt>
      <trkpt lat="40.7504560" lon="-8.0549810">
        <ele>283.1</ele>
        <time>2019-06-10T07:42:02Z</time>
      </trkpt>
      <trkpt lat="40.7505370" lon="-8.0550900">
        <ele>282.7</ele>
        <time>2019-06-10T07:42:03Z</time>
      </trkpt>
      <trkpt lat="40.7506040" lon="-8.0551810">
        <ele>282.5</ele>
        <time>2019-06-10T07:42:04Z</time>
      </trkpt>
      <trkpt lat="40.7507370" lon="-8.0555080">
        <ele>281.9</ele>
        <time>2019-06-10T07:42:07Z</time>
      </trkpt>
      <trkpt lat="40.7507640" lon="-8.0556230">
        <ele>281.7</ele>
        <time>2019-06-10T07:42:08Z</time>
      </trkpt>
      <trkpt lat="40.7507740" lon="-8.0557360">
        <ele>281.5</ele>
        <time>2019-06-10T07:42:09Z</time>
      </trkpt>
      <trkpt lat="40.7507740" lon="-8.0558590">
        <ele>281.3</ele>
        <time>2019-06-10T07:42:10Z</time>
      </trkpt>
      <trkpt lat="40.7507480" lon="-8.0559970">
        <ele>280.8</ele>
        <time>2019-06-10T07:42:11Z</time>
      </trkpt>
      <trkpt lat="40.7507200" lon="-8.0561140">
        <ele>280.3</ele>
        <time>2019-06-10T07:42:12Z</time>
      </trkpt>
      <trkpt lat="40.7505610" lon="-8.0564630">
        <ele>279.2</ele>
        <time>2019-06-10T07:42:15Z</time>
      </trkpt>
      <trkpt lat="40.7504960" lon="-8.0565640">
        <ele>278.7</ele>
        <time>2019-06-10T07:42:16Z</time>
      </trkpt>
      <trkpt lat="40.7504260" lon="-8.0566570">
        <ele>278.3</ele>
        <time>2019-06-10T07:42:17Z</time>
      </trkpt>
      <trkpt lat="40.7503560" lon="-8.0567410">
        <ele>278.1</ele>
        <time>2019-06-10T07:42:18Z</time>
      </trkpt>
      <trkpt lat="40.7502760" lon="-8.0568180">
        <ele>277.9</ele>
        <time>2019-06-10T07:42:19Z</time>
      </trkpt>
      <trkpt lat="40.7501930" lon="-8.0568870">
        <ele>277.8</ele>
        <time>2019-06-10T07:42:20Z</time>
      </trkpt>
      <trkpt lat="40.7500180" lon="-8.0570070">
        <ele>277.5</ele>
        <time>2019-06-10T07:42:22Z</time>
      </trkpt>
      <trkpt lat="40.7499260" lon="-8.0570680">
        <ele>277.3</ele>
        <time>2019-06-10T07:42:23Z</time>
      </trkpt>
      <trkpt lat="40.7498430" lon="-8.0571290">
        <ele>277.1</ele>
        <time>2019-06-10T07:42:24Z</time>
      </trkpt>
      <trkpt lat="40.7497480" lon="-8.0571950">
        <ele>276.9</ele>
        <time>2019-06-10T07:42:25Z</time>
      </trkpt>
      <trkpt lat="40.7496600" lon="-8.0572610">
        <ele>276.5</ele>
        <time>2019-06-10T07:42:26Z</time>
      </trkpt>
      <trkpt lat="40.7495750" lon="-8.0573220">
        <ele>276.2</ele>
        <time>2019-06-10T07:42:27Z</time>
      </trkpt>
      <trkpt lat="40.7494050" lon="-8.0574260">
        <ele>275.7</ele>
        <time>2019-06-10T07:42:29Z</time>
      </trkpt>
      <trkpt lat="40.7490320" lon="-8.0575080">
        <ele>274.7</ele>
        <time>2019-06-10T07:42:33Z</time>
      </trkpt>
      <trkpt lat="40.7489250" lon="-8.0574800">
        <ele>274.1</ele>
        <time>2019-06-10T07:42:34Z</time>
      </trkpt>
      <trkpt lat="40.7488280" lon="-8.0574440">
        <ele>273.7</ele>
        <time>2019-06-10T07:42:35Z</time>
      </trkpt>
      <trkpt lat="40.7487300" lon="-8.0574020">
        <ele>273.3</ele>
        <time>2019-06-10T07:42:36Z</time>
      </trkpt>
      <trkpt lat="40.7486380" lon="-8.0573640">
        <ele>273.0</ele>
        <time>2019-06-10T07:42:37Z</time>
      </trkpt>
      <trkpt lat="40.7485500" lon="-8.0573240">
        <ele>272.6</ele>
        <time>2019-06-10T07:42:38Z</time>
      </trkpt>
      <trkpt lat="40.7482900" lon="-8.0572180">
        <ele>271.7</ele>
        <time>2019-06-10T07:42:41Z</time>
      </trkpt>
      <trkpt lat="40.7482080" lon="-8.0571830">
        <ele>271.5</ele>
        <time>2019-06-10T07:42:42Z</time>
      </trkpt>
      <trkpt lat="40.7481190" lon="-8.0571670">
        <ele>271.3</ele>
        <time>2019-06-10T07:42:43Z</time>
      </trkpt>
      <trkpt lat="40.7480290" lon="-8.0571490">
        <ele>271.2</ele>
        <time>2019-06-10T07:42:44Z</time>
      </trkpt>
      <trkpt lat="40.7479360" lon="-8.0571330">
        <ele>270.8</ele>
        <time>2019-06-10T07:42:45Z</time>
      </trkpt>
      <trkpt lat="40.7478440" lon="-8.0571230">
        <ele>270.4</ele>
        <time>2019-06-10T07:42:46Z</time>
      </trkpt>
      <trkpt lat="40.7473170" lon="-8.0571070">
        <ele>269.4</ele>
        <time>2019-06-10T07:42:52Z</time>
      </trkpt>
      <trkpt lat="40.7472320" lon="-8.0571050">
        <ele>269.2</ele>
        <time>2019-06-10T07:42:53Z</time>
      </trkpt>
      <trkpt lat="40.7471590" lon="-8.0570980">
        <ele>269.0</ele>
        <time>2019-06-10T07:42:54Z</time>
      </trkpt>
      <trkpt lat="40.7470750" lon="-8.0571000">
        <ele>268.6</ele>
        <time>2019-06-10T07:42:55Z</time>
      </trkpt>
      <trkpt lat="40.7470000" lon="-8.0571000">
        <ele>268.3</ele>
        <time>2019-06-10T07:42:56Z</time>
      </trkpt>
      <trkpt lat="40.7469250" lon="-8.0571260">
        <ele>268.0</ele>
        <time>2019-06-10T07:42:57Z</time>
      </trkpt>
      <trkpt lat="40.7468550" lon="-8.0571510">
        <ele>267.8</ele>
        <time>2019-06-10T07:42:58Z</time>
      </trkpt>
      <trkpt lat="40.7467830" lon="-8.0571850">
        <ele>267.6</ele>
        <time>2019-06-10T07:42:59Z</time>
      </trkpt>
      <trkpt lat="40.7467040" lon="-8.0572230">
        <ele>267.3</ele>
        <time>2019-06-10T07:43:00Z</time>
      </trkpt>
      <trkpt lat="40.7466310" lon="-8.0572490">
        <ele>267.1</ele>
        <time>2019-06-10T07:43:01Z</time>
      </trkpt>
      <trkpt lat="40.7465550" lon="-8.0572770">
        <ele>266.9</ele>
        <time>2019-06-10T07:43:02Z</time>
      </trkpt>
      <trkpt lat="40.7464840" lon="-8.0573090">
        <ele>266.7</ele>
        <time>2019-06-10T07:43:03Z</time>
      </trkpt>
      <trkpt lat="40.7462100" lon="-8.0574350">
        <ele>265.7</ele>
        <time>2019-06-10T07:43:07Z</time>
      </trkpt>
      <trkpt lat="40.7460810" lon="-8.0575330">
        <ele>265.5</ele>
        <time>2019-06-10T07:43:09Z</time>
      </trkpt>
      <trkpt lat="40.7460180" lon="-8.0575770">
        <ele>265.4</ele>
        <time>2019-06-10T07:43:10Z</time>
      </trkpt>
      <trkpt lat="40.7459480" lon="-8.0576140">
        <ele>265.3</ele>
        <time>2019-06-10T07:43:11Z</time>
      </trkpt>
      <trkpt lat="40.7458850" lon="-8.0576700">
        <ele>265.2</ele>
        <time>2019-06-10T07:43:12Z</time>
      </trkpt>
      <trkpt lat="40.7458260" lon="-8.0577290">
        <ele>265.0</ele>
        <time>2019-06-10T07:43:13Z</time>
      </trkpt>
      <trkpt lat="40.7457760" lon="-8.0577860">
        <ele>264.9</ele>
        <time>2019-06-10T07:43:14Z</time>
      </trkpt>
      <trkpt lat="40.7457190" lon="-8.0578480">
        <ele>264.7</ele>
        <time>2019-06-10T07:43:15Z</time>
      </trkpt>
      <trkpt lat="40.7454100" lon="-8.0582040">
        <ele>263.2</ele>
        <time>2019-06-10T07:43:21Z</time>
      </trkpt>
      <trkpt lat="40.7452800" lon="-8.0583390">
        <ele>262.7</ele>
        <time>2019-06-10T07:43:23Z</time>
      </trkpt>
      <trkpt lat="40.7452160" lon="-8.0583910">
        <ele>262.4</ele>
        <time>2019-06-10T07:43:24Z</time>
      </trkpt>
      <trkpt lat="40.7451550" lon="-8.0584520">
        <ele>262.0</ele>
        <time>2019-06-10T07:43:25Z</time>
      </trkpt>
      <trkpt lat="40.7450910" lon="-8.0585210">
        <ele>261.8</ele>
        <time>2019-06-10T07:43:26Z</time>
      </trkpt>
      <trkpt lat="40.7450290" lon="-8.0585760">
        <ele>261.7</ele>
        <time>2019-06-10T07:43:27Z</time>
      </trkpt>
      <trkpt lat="40.7447550" lon="-8.0588540">
        <ele>261.2</ele>
        <time>2019-06-10T07:43:31Z</time>
      </trkpt>
      <trkpt lat="40.7446950" lon="-8.0589350">
        <ele>261.0</ele>
        <time>2019-06-10T07:43:32Z</time>
      </trkpt>
      <trkpt lat="40.7446390" lon="-8.0590180">
        <ele>260.7</ele>
        <time>2019-06-10T07:43:33Z</time>
      </trkpt>
      <trkpt lat="40.7445900" lon="-8.0590810">
        <ele>260.3</ele>
        <time>2019-06-10T07:43:34Z</time>
      </trkpt>
      <trkpt lat="40.7445450" lon="-8.0591430">
        <ele>260.0</ele>
        <time>2019-06-10T07:43:35Z</time>
      </trkpt>
      <trkpt lat="40.7444810" lon="-8.0591980">
        <ele>259.7</ele>
        <time>2019-06-10T07:43:36Z</time>
      </trkpt>
      <trkpt lat="40.7444110" lon="-8.0592510">
        <ele>259.4</ele>
        <time>2019-06-10T07:43:37Z</time>
      </trkpt>
      <trkpt lat="40.7443490" lon="-8.0593150">
        <ele>259.2</ele>
        <time>2019-06-10T07:43:38Z</time>
      </trkpt>
      <trkpt lat="40.7439870" lon="-8.0597240">
        <ele>257.8</ele>
        <time>2019-06-10T07:43:44Z</time>
      </trkpt>
      <trkpt lat="40.7439320" lon="-8.0597850">
        <ele>257.5</ele>
        <time>2019-06-10T07:43:45Z</time>
      </trkpt>
      <trkpt lat="40.7438730" lon="-8.0598400">
        <ele>257.2</ele>
        <time>2019-06-10T07:43:46Z</time>
      </trkpt>
      <trkpt lat="40.7438070" lon="-8.0598860">
        <ele>257.0</ele>
        <time>2019-06-10T07:43:47Z</time>
      </trkpt>
      <trkpt lat="40.7437360" lon="-8.0599340">
        <ele>256.7</ele>
        <time>2019-06-10T07:43:48Z</time>
      </trkpt>
      <trkpt lat="40.7436500" lon="-8.0599540">
        <ele>256.5</ele>
        <time>2019-06-10T07:43:49Z</time>
      </trkpt>
      <trkpt lat="40.7435580" lon="-8.0599730">
        <ele>256.2</ele>
        <time>2019-06-10T07:43:50Z</time>
      </trkpt>
      <trkpt lat="40.7433310" lon="-8.0600040">
        <ele>255.3</ele>
        <time>2019-06-10T07:43:53Z</time>
      </trkpt>
      <trkpt lat="40.7432550" lon="-8.0599980">
        <ele>255.1</ele>
        <time>2019-06-10T07:43:54Z</time>
      </trkpt>
      <trkpt lat="40.7431790" lon="-8.0599870">
        <ele>255.0</ele>
        <time>2019-06-10T07:43:55Z</time>
      </trkpt>
      <trkpt lat="40.7430980" lon="-8.0599720">
        <ele>254.9</ele>
        <time>2019-06-10T07:43:56Z</time>
      </trkpt>
      <trkpt lat="40.7430240" lon="-8.0599370">
        <ele>254.7</ele>
        <time>2019-06-10T07:43:57Z</time>
      </trkpt>
      <trkpt lat="40.7429500" lon="-8.0599110">
        <ele>254.6</ele>
        <time>2019-06-10T07:43:58Z</time>
      </trkpt>
      <trkpt lat="40.7426240" lon="-8.0598420">
        <ele>253.6</ele>
        <time>2019-06-10T07:44:02Z</time>
      </trkpt>
      <trkpt lat="40.7425430" lon="-8.0598390">
        <ele>253.3</ele>
        <time>2019-06-10T07:44:03Z</time>
      </trkpt>
      <trkpt lat="40.7424710" lon="-8.0598370">
        <ele>253.0</ele>
        <time>2019-06-10T07:44:04Z</time>
      </trkpt>
      <trkpt lat="40.7423990" lon="-8.0598470">
        <ele>252.8</ele>
        <time>2019-06-10T07:44:05Z</time>
      </trkpt>
      <trkpt lat="40.7423230" lon="-8.0598620">
        <ele>252.6</ele>
        <time>2019-06-10T07:44:06Z</time>
      </trkpt>
      <trkpt lat="40.7421860" lon="-8.0598910">
        <ele>252.3</ele>
        <time>2019-06-10T07:44:08Z</time>
      </trkpt>
      <trkpt lat="40.7418370" lon="-8.0600360">
        <ele>250.9</ele>
        <time>2019-06-10T07:44:13Z</time>
      </trkpt>
      <trkpt lat="40.7417680" lon="-8.0600670">
        <ele>250.8</ele>
        <time>2019-06-10T07:44:14Z</time>
      </trkpt>
      <trkpt lat="40.7416980" lon="-8.0600950">
        <ele>250.6</ele>
        <time>2019-06-10T07:44:15Z</time>
      </trkpt>
      <trkpt lat="40.7416210" lon="-8.0601170">
        <ele>250.5</ele>
        <time>2019-06-10T07:44:16Z</time>
      </trkpt>
      <trkpt lat="40.7415410" lon="-8.0601390">
        <ele>250.3</ele>
        <time>2019-06-10T07:44:17Z</time>
      </trkpt>
      <trkpt lat="40.7414690" lon="-8.0601590">
        <ele>250.1</ele>
        <time>2019-06-10T07:44:18Z</time>
      </trkpt>
      <trkpt lat="40.7412600" lon="-8.0602330">
        <ele>249.3</ele>
        <time>2019-06-10T07:44:21Z</time>
      </trkpt>
      <trkpt lat="40.7409950" lon="-8.0603350">
        <ele>248.6</ele>
        <time>2019-06-10T07:44:25Z</time>
      </trkpt>
      <trkpt lat="40.7409330" lon="-8.0603600">
        <ele>248.5</ele>
        <time>2019-06-10T07:44:26Z</time>
      </trkpt>
      <trkpt lat="40.7408680" lon="-8.0603820">
        <ele>248.4</ele>
        <time>2019-06-10T07:44:27Z</time>
      </trkpt>
      <trkpt lat="40.7407990" lon="-8.0604100">
        <ele>248.1</ele>
        <time>2019-06-10T07:44:28Z</time>
      </trkpt>
      <trkpt lat="40.7407370" lon="-8.0604420">
        <ele>248.0</ele>
        <time>2019-06-10T07:44:29Z</time>
      </trkpt>
      <trkpt lat="40.7404130" lon="-8.0606420">
        <ele>246.7</ele>
        <time>2019-06-10T07:44:34Z</time>
      </trkpt>
      <trkpt lat="40.7403590" lon="-8.0607020">
        <ele>246.5</ele>
        <time>2019-06-10T07:44:35Z</time>
      </trkpt>
      <trkpt lat="40.7403130" lon="-8.0607640">
        <ele>246.4</ele>
        <time>2019-06-10T07:44:36Z</time>
      </trkpt>
      <trkpt lat="40.7402700" lon="-8.0608290">
        <ele>246.3</ele>
        <time>2019-06-10T07:44:37Z</time>
      </trkpt>
      <trkpt lat="40.7402240" lon="-8.0609010">
        <ele>246.2</ele>
        <time>2019-06-10T07:44:38Z</time>
      </trkpt>
      <trkpt lat="40.7401870" lon="-8.0609750">
        <ele>246.1</ele>
        <time>2019-06-10T07:44:39Z</time>
      </trkpt>
      <trkpt lat="40.7398760" lon="-8.0615610">
        <ele>244.6</ele>
        <time>2019-06-10T07:44:47Z</time>
      </trkpt>
      <trkpt lat="40.7397180" lon="-8.0617870">
        <ele>244.2</ele>
        <time>2019-06-10T07:44:50Z</time>
      </trkpt>
      <trkpt lat="40.7396600" lon="-8.0618530">
        <ele>244.0</ele>
        <time>2019-06-10T07:44:51Z</time>
      </trkpt>
      <trkpt lat="40.7395980" lon="-8.0619210">
        <ele>243.8</ele>
        <time>2019-06-10T07:44:52Z</time>
      </trkpt>
      <trkpt lat="40.7395320" lon="-8.0619760">
        <ele>243.4</ele>
        <time>2019-06-10T07:44:53Z</time>
      </trkpt>
      <trkpt lat="40.7394560" lon="-8.0620040">
        <ele>243.1</ele>
        <time>2019-06-10T07:44:54Z</time>
      </trkpt>
      <trkpt lat="40.7390300" lon="-8.0620280">
        <ele>242.3</ele>
        <time>2019-06-10T07:44:58Z</time>
      </trkpt>
      <trkpt lat="40.7389350" lon="-8.0620420">
        <ele>242.1</ele>
        <time>2019-06-10T07:44:59Z</time>
      </trkpt>
      <trkpt lat="40.7388420" lon="-8.0620580">
        <ele>241.9</ele>
        <time>2019-06-10T07:45:00Z</time>
      </trkpt>
      <trkpt lat="40.7387490" lon="-8.0620660">
        <ele>241.5</ele>
        <time>2019-06-10T07:45:01Z</time>
      </trkpt>
      <trkpt lat="40.7386610" lon="-8.0620750">
        <ele>241.2</ele>
        <time>2019-06-10T07:45:02Z</time>
      </trkpt>
      <trkpt lat="40.7384790" lon="-8.0621020">
        <ele>240.7</ele>
        <time>2019-06-10T07:45:04Z</time>
      </trkpt>
      <trkpt lat="40.7384090" lon="-8.0621160">
        <ele>240.5</ele>
        <time>2019-06-10T07:45:05Z</time>
      </trkpt>
      <trkpt lat="40.7383260" lon="-8.0621240">
        <ele>240.4</ele>
        <time>2019-06-10T07:45:06Z</time>
      </trkpt>
      <trkpt lat="40.7382370" lon="-8.0621280">
        <ele>240.2</ele>
        <time>2019-06-10T07:45:07Z</time>
      </trkpt>
      <trkpt lat="40.7381390" lon="-8.0621240">
        <ele>240.1</ele>
        <time>2019-06-10T07:45:08Z</time>
      </trkpt>
      <trkpt lat="40.7378820" lon="-8.0621000">
        <ele>239.7</ele>
        <time>2019-06-10T07:45:11Z</time>
      </trkpt>
      <trkpt lat="40.7375920" lon="-8.0619810">
        <ele>238.4</ele>
        <time>2019-06-10T07:45:15Z</time>
      </trkpt>
      <trkpt lat="40.7375230" lon="-8.0619390">
        <ele>238.1</ele>
        <time>2019-06-10T07:45:16Z</time>
      </trkpt>
      <trkpt lat="40.7374570" lon="-8.0618920">
        <ele>237.9</ele>
        <time>2019-06-10T07:45:17Z</time>
      </trkpt>
      <trkpt lat="40.7373930" lon="-8.0618410">
        <ele>237.6</ele>
        <time>2019-06-10T07:45:18Z</time>
      </trkpt>
      <trkpt lat="40.7373310" lon="-8.0617830">
        <ele>237.1</ele>
        <time>2019-06-10T07:45:19Z</time>
      </trkpt>
      <trkpt lat="40.7372710" lon="-8.0617140">
        <ele>236.8</ele>
        <time>2019-06-10T07:45:20Z</time>
      </trkpt>
      <trkpt lat="40.7372080" lon="-8.0616480">
        <ele>236.5</ele>
        <time>2019-06-10T07:45:21Z</time>
      </trkpt>
      <trkpt lat="40.7368290" lon="-8.0612300">
        <ele>235.3</ele>
        <time>2019-06-10T07:45:27Z</time>
      </trkpt>
      <trkpt lat="40.7367650" lon="-8.0611570">
        <ele>235.0</ele>
        <time>2019-06-10T07:45:28Z</time>
      </trkpt>
      <trkpt lat="40.7366950" lon="-8.0610850">
        <ele>234.7</ele>
        <time>2019-06-10T07:45:29Z</time>
      </trkpt>
      <trkpt lat="40.7366280" lon="-8.0610190">
        <ele>234.5</ele>
        <time>2019-06-10T07:45:30Z</time>
      </trkpt>
      <trkpt lat="40.7365630" lon="-8.0609510">
        <ele>234.3</ele>
        <time>2019-06-10T07:45:31Z</time>
      </trkpt>
      <trkpt lat="40.7362980" lon="-8.0606750">
        <ele>233.8</ele>
        <time>2019-06-10T07:45:35Z</time>
      </trkpt>
      <trkpt lat="40.7361540" lon="-8.0605720">
        <ele>233.5</ele>
        <time>2019-06-10T07:45:37Z</time>
      </trkpt>
      <trkpt lat="40.7360890" lon="-8.0605250">
        <ele>233.1</ele>
        <time>2019-06-10T07:45:38Z</time>
      </trkpt>
      <trkpt lat="40.7360180" lon="-8.0605020">
        <ele>232.8</ele>
        <time>2019-06-10T07:45:39Z</time>
      </trkpt>
      <trkpt lat="40.7359500" lon="-8.0604810">
        <ele>232.5</ele>
        <time>2019-06-10T07:45:40Z</time>
      </trkpt>
      <trkpt lat="40.7358710" lon="-8.0604680">
        <ele>232.4</ele>
        <time>2019-06-10T07:45:41Z</time>
      </trkpt>
      <trkpt lat="40.7356500" lon="-8.0604620">
        <ele>232.1</ele>
        <time>2019-06-10T07:45:44Z</time>
      </trkpt>
      <trkpt lat="40.7355720" lon="-8.0604750">
        <ele>232.1</ele>
        <time>2019-06-10T07:45:45Z</time>
      </trkpt>
      <trkpt lat="40.7353780" lon="-8.0605520">
        <ele>232.0</ele>
        <time>2019-06-10T07:45:48Z</time>
      </trkpt>
      <trkpt lat="40.7353070" lon="-8.0605910">
        <ele>232.0</ele>
        <time>2019-06-10T07:45:49Z</time>
      </trkpt>
      <trkpt lat="40.7352360" lon="-8.0606330">
        <ele>232.0</ele>
        <time>2019-06-10T07:45:50Z</time>
      </trkpt>
      <trkpt lat="40.7351690" lon="-8.0606800">
        <ele>232.0</ele>
        <time>2019-06-10T07:45:51Z</time>
      </trkpt>
      <trkpt lat="40.7351150" lon="-8.0607420">
        <ele>232.0</ele>
        <time>2019-06-10T07:45:52Z</time>
      </trkpt>
      <trkpt lat="40.7350820" lon="-8.0608140">
        <ele>231.9</ele>
        <time>2019-06-10T07:45:53Z</time>
      </trkpt>
      <trkpt lat="40.7350490" lon="-8.0608790">
        <ele>231.9</ele>
        <time>2019-06-10T07:45:54Z</time>
      </trkpt>
      <trkpt lat="40.7348970" lon="-8.0612750">
        <ele>231.5</ele>
        <time>2019-06-10T07:45:59Z</time>
      </trkpt>
      <trkpt lat="40.7348460" lon="-8.0615140">
        <ele>230.7</ele>
        <time>2019-06-10T07:46:02Z</time>
      </trkpt>
      <trkpt lat="40.7348430" lon="-8.0616620">
        <ele>230.3</ele>
        <time>2019-06-10T07:46:04Z</time>
      </trkpt>
      <trkpt lat="40.7348210" lon="-8.0621120">
        <ele>229.8</ele>
        <time>2019-06-10T07:46:10Z</time>
      </trkpt>
      <trkpt lat="40.7348100" lon="-8.0621860">
        <ele>229.7</ele>
        <time>2019-06-10T07:46:11Z</time>
      </trkpt>
      <trkpt lat="40.7348050" lon="-8.0622570">
        <ele>229.6</ele>
        <time>2019-06-10T07:46:12Z</time>
      </trkpt>
      <trkpt lat="40.7348060" lon="-8.0623330">
        <ele>229.5</ele>
        <time>2019-06-10T07:46:13Z</time>
      </trkpt>
      <trkpt lat="40.7348010" lon="-8.0624030">
        <ele>229.4</ele>
        <time>2019-06-10T07:46:14Z</time>
      </trkpt>
      <trkpt lat="40.7347970" lon="-8.0624730">
        <ele>229.3</ele>
        <time>2019-06-10T07:46:15Z</time>
      </trkpt>
      <trkpt lat="40.7347980" lon="-8.0625470">
        <ele>229.0</ele>
        <time>2019-06-10T07:46:16Z</time>
      </trkpt>
      <trkpt lat="40.7348020" lon="-8.0626900">
        <ele>228.6</ele>
        <time>2019-06-10T07:46:18Z</time>
      </trkpt>
      <trkpt lat="40.7348110" lon="-8.0632540">
        <ele>227.5</ele>
        <time>2019-06-10T07:46:25Z</time>
      </trkpt>
      <trkpt lat="40.7348190" lon="-8.0633390">
        <ele>227.3</ele>
        <time>2019-06-10T07:46:26Z</time>
      </trkpt>
      <trkpt lat="40.7348270" lon="-8.0634260">
        <ele>227.0</ele>
        <time>2019-06-10T07:46:27Z</time>
      </trkpt>
      <trkpt lat="40.7348350" lon="-8.0635090">
        <ele>226.7</ele>
        <time>2019-06-10T07:46:28Z</time>
      </trkpt>
      <trkpt lat="40.7348450" lon="-8.0635870">
        <ele>226.4</ele>
        <time>2019-06-10T07:46:29Z</time>
      </trkpt>
      <trkpt lat="40.7348980" lon="-8.0637300">
        <ele>226.1</ele>
        <time>2019-06-10T07:46:31Z</time>
      </trkpt>
      <trkpt lat="40.7349240" lon="-8.0637930">
        <ele>225.9</ele>
        <time>2019-06-10T07:46:32Z</time>
      </trkpt>
      <trkpt lat="40.7349580" lon="-8.0638570">
        <ele>225.7</ele>
        <time>2019-06-10T07:46:33Z</time>
      </trkpt>
      <trkpt lat="40.7351350" lon="-8.0641080">
        <ele>224.6</ele>
        <time>2019-06-10T07:46:37Z</time>
      </trkpt>
      <trkpt lat="40.7351940" lon="-8.0641650">
        <ele>224.4</ele>
        <time>2019-06-10T07:46:38Z</time>
      </trkpt>
      <trkpt lat="40.7352560" lon="-8.0642180">
        <ele>224.3</ele>
        <time>2019-06-10T07:46:39Z</time>
      </trkpt>
      <trkpt lat="40.7353130" lon="-8.0642670">
        <ele>224.2</ele>
        <time>2019-06-10T07:46:40Z</time>
      </trkpt>
      <trkpt lat="40.7353720" lon="-8.0643200">
        <ele>224.1</ele>
        <time>2019-06-10T07:46:41Z</time>
      </trkpt>
      <trkpt lat="40.7355620" lon="-8.0644100">
        <ele>224.0</ele>
        <time>2019-06-10T07:46:44Z</time>
      </trkpt>
      <trkpt lat="40.7358970" lon="-8.0644810">
        <ele>223.7</ele>
        <time>2019-06-10T07:46:49Z</time>
      </trkpt>
      <trkpt lat="40.7362280" lon="-8.0644280">
        <ele>222.7</ele>
        <time>2019-06-10T07:46:54Z</time>
      </trkpt>
      <trkpt lat="40.7362590" lon="-8.0644000">
        <ele>222.5</ele>
        <time>2019-06-10T07:46:55Z</time>
      </trkpt>
      <trkpt lat="40.7362970" lon="-8.0643860">
        <ele>222.4</ele>
        <time>2019-06-10T07:46:56Z</time>
      </trkpt>
      <trkpt lat="40.7363600" lon="-8.0643830">
        <ele>222.2</ele>
        <time>2019-06-10T07:46:57Z</time>
      </trkpt>
      <trkpt lat="40.7363810" lon="-8.0643710">
        <ele>222.1</ele>
        <time>2019-06-10T07:46:58Z</time>
      </trkpt>
      <trkpt lat="40.7364110" lon="-8.0643700">
        <ele>222.0</ele>
        <time>2019-06-10T07:46:59Z</time>
      </trkpt>
      <trkpt lat="40.7364480" lon="-8.0643690">
        <ele>221.9</ele>
        <time>2019-06-10T07:47:00Z</time>
      </trkpt>
      <trkpt lat="40.7365430" lon="-8.0643330">
        <ele>221.8</ele>
        <time>2019-06-10T07:47:02Z</time>
      </trkpt>
      <trkpt lat="40.7365840" lon="-8.0642980">
        <ele>221.7</ele>
        <time>2019-06-10T07:47:03Z</time>
      </trkpt>
      <trkpt lat="40.7366170" lon="-8.0642590">
        <ele>221.7</ele>
        <time>2019-06-10T07:47:04Z</time>
      </trkpt>
      <trkpt lat="40.7366500" lon="-8.0642240">
        <ele>221.7</ele>
        <time>2019-06-10T07:47:05Z</time>
      </trkpt>
      <trkpt lat="40.7366810" lon="-8.0641940">
        <ele>221.7</ele>
        <time>2019-06-10T07:47:06Z</time>
      </trkpt>
      <trkpt lat="40.7367430" lon="-8.0641300">
        <ele>221.7</ele>
        <time>2019-06-10T07:47:09Z</time>
      </trkpt>
      <trkpt lat="40.7367250" lon="-8.0640150">
        <ele>221.7</ele>
        <time>2019-06-10T07:47:14Z</time>
      </trkpt>
      <trkpt lat="40.7368560" lon="-8.0638440">
        <ele>221.7</ele>
        <time>2019-06-10T07:47:21Z</time>
      </trkpt>
      <trkpt lat="40.7369470" lon="-8.0637800">
        <ele>221.7</ele>
        <time>2019-06-10T07:47:24Z</time>
      </trkpt>
      <trkpt lat="40.7370080" lon="-8.0637320">
        <ele>221.7</ele>
        <time>2019-06-10T07:47:26Z</time>
      </trkpt>
      <trkpt lat="40.7372410" lon="-8.0635680">
        <ele>221.7</ele>
        <time>2019-06-10T07:47:33Z</time>
      </trkpt>
      <trkpt lat="40.7375280" lon="-8.0634180">
        <ele>221.7</ele>
        <time>2019-06-10T07:47:40Z</time>
      </trkpt>
      <trkpt lat="40.7377700" lon="-8.0633590">
        <ele>221.7</ele>
        <time>2019-06-10T07:47:46Z</time>
      </trkpt>
      <trkpt lat="40.7378970" lon="-8.0633420">
        <ele>221.6</ele>
        <time>2019-06-10T07:47:49Z</time>
      </trkpt>
      <trkpt lat="40.7379870" lon="-8.0633280">
        <ele>221.6</ele>
        <time>2019-06-10T07:47:51Z</time>
      </trkpt>
      <trkpt lat="40.7382120" lon="-8.0632340">
        <ele>221.4</ele>
        <time>2019-06-10T07:47:57Z</time>
      </trkpt>
      <trkpt lat="40.7384140" lon="-8.0631500">
        <ele>220.7</ele>
        <time>2019-06-10T07:48:02Z</time>
      </trkpt>
      <trkpt lat="40.7386680" lon="-8.0631050">
        <ele>219.5</ele>
        <time>2019-06-10T07:48:08Z</time>
      </trkpt>
      <trkpt lat="40.7389450" lon="-8.0630080">
        <ele>218.0</ele>
        <time>2019-06-10T07:48:13Z</time>
      </trkpt>
      <trkpt lat="40.7389980" lon="-8.0630020">
        <ele>217.9</ele>
        <time>2019-06-10T07:48:14Z</time>
      </trkpt>
      <trkpt lat="40.7390460" lon="-8.0629840">
        <ele>217.8</ele>
        <time>2019-06-10T07:48:15Z</time>
      </trkpt>
      <trkpt lat="40.7391010" lon="-8.0629530">
        <ele>217.6</ele>
        <time>2019-06-10T07:48:16Z</time>
      </trkpt>
      <trkpt lat="40.7391530" lon="-8.0629300">
        <ele>217.5</ele>
        <time>2019-06-10T07:48:17Z</time>
      </trkpt>
      <trkpt lat="40.7393060" lon="-8.0628630">
        <ele>217.2</ele>
        <time>2019-06-10T07:48:20Z</time>
      </trkpt>
      <trkpt lat="40.7395990" lon="-8.0626760">
        <ele>216.3</ele>
        <time>2019-06-10T07:48:26Z</time>
      </trkpt>
      <trkpt lat="40.7397060" lon="-8.0625990">
        <ele>215.9</ele>
        <time>2019-06-10T07:48:28Z</time>
      </trkpt>
      <trkpt lat="40.7397600" lon="-8.0625700">
        <ele>215.8</ele>
        <time>2019-06-10T07:48:29Z</time>
      </trkpt>
      <trkpt lat="40.7398140" lon="-8.0625330">
        <ele>215.6</ele>
        <time>2019-06-10T07:48:30Z</time>
      </trkpt>
      <trkpt lat="40.7398660" lon="-8.0625020">
        <ele>215.5</ele>
        <time>2019-06-10T07:48:31Z</time>
      </trkpt>
      <trkpt lat="40.7399400" lon="-8.0624630">
        <ele>215.4</ele>
        <time>2019-06-10T07:48:32Z</time>
      </trkpt>
      <trkpt lat="40.7401880" lon="-8.0623340">
        <ele>214.3</ele>
        <time>2019-06-10T07:48:36Z</time>
      </trkpt>
      <trkpt lat="40.7403370" lon="-8.0622560">
        <ele>213.8</ele>
        <time>2019-06-10T07:48:38Z</time>
      </trkpt>
      <trkpt lat="40.7404100" lon="-8.0622170">
        <ele>213.6</ele>
        <time>2019-06-10T07:48:39Z</time>
      </trkpt>
      <trkpt lat="40.7404770" lon="-8.0621790">
        <ele>213.5</ele>
        <time>2019-06-10T07:48:40Z</time>
      </trkpt>
      <trkpt lat="40.7405640" lon="-8.0621280">
        <ele>213.2</ele>
        <time>2019-06-10T07:48:41Z</time>
      </trkpt>
      <trkpt lat="40.7406460" lon="-8.0620900">
        <ele>212.9</ele>
        <time>2019-06-10T07:48:42Z</time>
      </trkpt>
      <trkpt lat="40.7407310" lon="-8.0620510">
        <ele>212.7</ele>
        <time>2019-06-10T07:48:43Z</time>
      </trkpt>
      <trkpt lat="40.7411050" lon="-8.0618740">
        <ele>211.5</ele>
        <time>2019-06-10T07:48:48Z</time>
      </trkpt>
      <trkpt lat="40.7411700" lon="-8.0618380">
        <ele>211.3</ele>
        <time>2019-06-10T07:48:49Z</time>
      </trkpt>
      <trkpt lat="40.7412390" lon="-8.0618020">
        <ele>211.2</ele>
        <time>2019-06-10T07:48:50Z</time>
      </trkpt>
      <trkpt lat="40.7413110" lon="-8.0617810">
        <ele>211.1</ele>
        <time>2019-06-10T07:48:51Z</time>
      </trkpt>
      <trkpt lat="40.7413800" lon="-8.0617360">
        <ele>211.0</ele>
        <time>2019-06-10T07:48:52Z</time>
      </trkpt>
      <trkpt lat="40.7416960" lon="-8.0615570">
        <ele>210.0</ele>
        <time>2019-06-10T07:48:57Z</time>
      </trkpt>
      <trkpt lat="40.7417690" lon="-8.0615290">
        <ele>209.8</ele>
        <time>2019-06-10T07:48:58Z</time>
      </trkpt>
      <trkpt lat="40.7418410" lon="-8.0615050">
        <ele>209.6</ele>
        <time>2019-06-10T07:48:59Z</time>
      </trkpt>
      <trkpt lat="40.7419120" lon="-8.0614780">
        <ele>209.4</ele>
        <time>2019-06-10T07:49:00Z</time>
      </trkpt>
      <trkpt lat="40.7419820" lon="-8.0614510">
        <ele>209.3</ele>
        <time>2019-06-10T07:49:01Z</time>
      </trkpt>
      <trkpt lat="40.7423690" lon="-8.0613650">
        <ele>207.9</ele>
        <time>2019-06-10T07:49:07Z</time>
      </trkpt>
      <trkpt lat="40.7424450" lon="-8.0613720">
        <ele>207.7</ele>
        <time>2019-06-10T07:49:08Z</time>
      </trkpt>
      <trkpt lat="40.7425120" lon="-8.0613720">
        <ele>207.5</ele>
        <time>2019-06-10T07:49:09Z</time>
      </trkpt>
      <trkpt lat="40.7425870" lon="-8.0613640">
        <ele>207.4</ele>
        <time>2019-06-10T07:49:10Z</time>
      </trkpt>
      <trkpt lat="40.7426570" lon="-8.0613660">
        <ele>207.3</ele>
        <time>2019-06-10T07:49:11Z</time>
      </trkpt>
      <trkpt lat="40.7431390" lon="-8.0613440">
        <ele>206.6</ele>
        <time>2019-06-10T07:49:18Z</time>
      </trkpt>
      <trkpt lat="40.7434130" lon="-8.0613250">
        <ele>205.5</ele>
        <time>2019-06-10T07:49:22Z</time>
      </trkpt>
      <trkpt lat="40.7434760" lon="-8.0613200">
        <ele>205.3</ele>
        <time>2019-06-10T07:49:23Z</time>
      </trkpt>
      <trkpt lat="40.7435450" lon="-8.0613180">
        <ele>205.2</ele>
        <time>2019-06-10T07:49:24Z</time>
      </trkpt>
      <trkpt lat="40.7436150" lon="-8.0613140">
        <ele>205.1</ele>
        <time>2019-06-10T07:49:25Z</time>
      </trkpt>
      <trkpt lat="40.7436850" lon="-8.0613060">
        <ele>205.0</ele>
        <time>2019-06-10T07:49:26Z</time>
      </trkpt>
      <trkpt lat="40.7440470" lon="-8.0612200">
        <ele>204.1</ele>
        <time>2019-06-10T07:49:31Z</time>
      </trkpt>
      <trkpt lat="40.7442560" lon="-8.0611130">
        <ele>203.5</ele>
        <time>2019-06-10T07:49:34Z</time>
      </trkpt>
      <trkpt lat="40.7443270" lon="-8.0610660">
        <ele>203.3</ele>
        <time>2019-06-10T07:49:35Z</time>
      </trkpt>
      <trkpt lat="40.7443970" lon="-8.0610260">
        <ele>203.1</ele>
        <time>2019-06-10T07:49:36Z</time>
      </trkpt>
      <trkpt lat="40.7444660" lon="-8.0609820">
        <ele>202.9</ele>
        <time>2019-06-10T07:49:37Z</time>
      </trkpt>
      <trkpt lat="40.7445320" lon="-8.0609350">
        <ele>202.7</ele>
        <time>2019-06-10T07:49:38Z</time>
      </trkpt>
      <trkpt lat="40.7446010" lon="-8.0608970">
        <ele>202.6</ele>
        <time>2019-06-10T07:49:39Z</time>
      </trkpt>
      <trkpt lat="40.7448230" lon="-8.0607830">
        <ele>202.2</ele>
        <time>2019-06-10T07:49:42Z</time>
      </trkpt>
      <trkpt lat="40.7449760" lon="-8.0607230">
        <ele>201.9</ele>
        <time>2019-06-10T07:49:44Z</time>
      </trkpt>
      <trkpt lat="40.7450400" lon="-8.0606860">
        <ele>201.8</ele>
        <time>2019-06-10T07:49:45Z</time>
      </trkpt>
      <trkpt lat="40.7451080" lon="-8.0606430">
        <ele>201.7</ele>
        <time>2019-06-10T07:49:46Z</time>
      </trkpt>
      <trkpt lat="40.7451770" lon="-8.0605990">
        <ele>201.5</ele>
        <time>2019-06-10T07:49:47Z</time>
      </trkpt>
      <trkpt lat="40.7452530" lon="-8.0605590">
        <ele>201.4</ele>
        <time>2019-06-10T07:49:48Z</time>
      </trkpt>
      <trkpt lat="40.7453980" lon="-8.0604860">
        <ele>201.0</ele>
        <time>2019-06-10T07:49:50Z</time>
      </trkpt>
      <trkpt lat="40.7458730" lon="-8.0602300">
        <ele>199.7</ele>
        <time>2019-06-10T07:49:56Z</time>
      </trkpt>
      <trkpt lat="40.7459560" lon="-8.0601840">
        <ele>199.5</ele>
        <time>2019-06-10T07:49:57Z</time>
      </trkpt>
      <trkpt lat="40.7460350" lon="-8.0601410">
        <ele>199.3</ele>
        <time>2019-06-10T07:49:58Z</time>
      </trkpt>
      <trkpt lat="40.7461090" lon="-8.0601020">
        <ele>199.2</ele>
        <time>2019-06-10T07:49:59Z</time>
      </trkpt>
      <trkpt lat="40.7461830" lon="-8.0600660">
        <ele>199.0</ele>
        <time>2019-06-10T07:50:00Z</time>
      </trkpt>
      <trkpt lat="40.7462570" lon="-8.0600310">
        <ele>198.8</ele>
        <time>2019-06-10T07:50:01Z</time>
      </trkpt>
      <trkpt lat="40.7464130" lon="-8.0599660">
        <ele>198.4</ele>
        <time>2019-06-10T07:50:03Z</time>
      </trkpt>
      <trkpt lat="40.7465710" lon="-8.0599190">
        <ele>198.0</ele>
        <time>2019-06-10T07:50:05Z</time>
      </trkpt>
      <trkpt lat="40.7467150" lon="-8.0598600">
        <ele>197.7</ele>
        <time>2019-06-10T07:50:07Z</time>
      </trkpt>
      <trkpt lat="40.7467830" lon="-8.0598260">
        <ele>197.5</ele>
        <time>2019-06-10T07:50:08Z</time>
      </trkpt>
      <trkpt lat="40.7468550" lon="-8.0597890">
        <ele>197.3</ele>
        <time>2019-06-10T07:50:09Z</time>
      </trkpt>
      <trkpt lat="40.7473390" lon="-8.0596050">
        <ele>196.6</ele>
        <time>2019-06-10T07:50:16Z</time>
      </trkpt>
      <trkpt lat="40.7475290" lon="-8.0595710">
        <ele>196.3</ele>
        <time>2019-06-10T07:50:19Z</time>
      </trkpt>
      <trkpt lat="40.7476680" lon="-8.0595900">
        <ele>195.7</ele>
        <time>2019-06-10T07:50:21Z</time>
      </trkpt>
      <trkpt lat="40.7477380" lon="-8.0596060">
        <ele>195.5</ele>
        <time>2019-06-10T07:50:22Z</time>
      </trkpt>
      <trkpt lat="40.7478120" lon="-8.0596290">
        <ele>195.3</ele>
        <time>2019-06-10T07:50:23Z</time>
      </trkpt>
      <trkpt lat="40.7478890" lon="-8.0596480">
        <ele>195.0</ele>
        <time>2019-06-10T07:50:24Z</time>
      </trkpt>
      <trkpt lat="40.7479610" lon="-8.0596680">
        <ele>194.5</ele>
        <time>2019-06-10T07:50:25Z</time>
      </trkpt>
      <trkpt lat="40.7480300" lon="-8.0596970">
        <ele>194.0</ele>
        <time>2019-06-10T07:50:26Z</time>
      </trkpt>
      <trkpt lat="40.7481010" lon="-8.0597260">
        <ele>193.5</ele>
        <time>2019-06-10T07:50:27Z</time>
      </trkpt>
      <trkpt lat="40.7481730" lon="-8.0597600">
        <ele>193.0</ele>
        <time>2019-06-10T07:50:28Z</time>
      </trkpt>
      <trkpt lat="40.7483100" lon="-8.0598220">
        <ele>192.4</ele>
        <time>2019-06-10T07:50:30Z</time>
      </trkpt>
      <trkpt lat="40.7483800" lon="-8.0598550">
        <ele>192.1</ele>
        <time>2019-06-10T07:50:31Z</time>
      </trkpt>
      <trkpt lat="40.7485880" lon="-8.0599490">
        <ele>191.6</ele>
        <time>2019-06-10T07:50:34Z</time>
      </trkpt>
      <trkpt lat="40.7489200" lon="-8.0600890">
        <ele>190.3</ele>
        <time>2019-06-10T07:50:39Z</time>
      </trkpt>
      <trkpt lat="40.7489850" lon="-8.0601130">
        <ele>189.9</ele>
        <time>2019-06-10T07:50:40Z</time>
      </trkpt>
      <trkpt lat="40.7490510" lon="-8.0601380">
        <ele>189.5</ele>
        <time>2019-06-10T07:50:41Z</time>
      </trkpt>
      <trkpt lat="40.7491130" lon="-8.0601630">
        <ele>189.1</ele>
        <time>2019-06-10T07:50:42Z</time>
      </trkpt>
      <trkpt lat="40.7491750" lon="-8.0601830">
        <ele>188.8</ele>
        <time>2019-06-10T07:50:43Z</time>
      </trkpt>
      <trkpt lat="40.7496000" lon="-8.0603520">
        <ele>187.0</ele>
        <time>2019-06-10T07:50:50Z</time>
      </trkpt>
      <trkpt lat="40.7497360" lon="-8.0603920">
        <ele>186.6</ele>
        <time>2019-06-10T07:50:52Z</time>
      </trkpt>
      <trkpt lat="40.7498000" lon="-8.0604140">
        <ele>186.4</ele>
        <time>2019-06-10T07:50:53Z</time>
      </trkpt>
      <trkpt lat="40.7498630" lon="-8.0604430">
        <ele>186.2</ele>
        <time>2019-06-10T07:50:54Z</time>
      </trkpt>
      <trkpt lat="40.7499250" lon="-8.0604810">
        <ele>186.0</ele>
        <time>2019-06-10T07:50:55Z</time>
      </trkpt>
      <trkpt lat="40.7499900" lon="-8.0605220">
        <ele>185.4</ele>
        <time>2019-06-10T07:50:56Z</time>
      </trkpt>
      <trkpt lat="40.7501160" lon="-8.0606060">
        <ele>185.1</ele>
        <time>2019-06-10T07:50:58Z</time>
      </trkpt>
      <trkpt lat="40.7504160" lon="-8.0608070">
        <ele>181.0</ele>
        <time>2019-06-10T07:51:03Z</time>
      </trkpt>
      <trkpt lat="40.7504750" lon="-8.0608390">
        <ele>180.6</ele>
        <time>2019-06-10T07:51:04Z</time>
      </trkpt>
      <trkpt lat="40.7505380" lon="-8.0608720">
        <ele>180.2</ele>
        <time>2019-06-10T07:51:05Z</time>
      </trkpt>
      <trkpt lat="40.7505970" lon="-8.0608990">
        <ele>179.8</ele>
        <time>2019-06-10T07:51:06Z</time>
      </trkpt>
      <trkpt lat="40.7506600" lon="-8.0609250">
        <ele>179.4</ele>
        <time>2019-06-10T07:51:07Z</time>
      </trkpt>
      <trkpt lat="40.7511090" lon="-8.0609750">
        <ele>177.7</ele>
        <time>2019-06-10T07:51:14Z</time>
      </trkpt>
      <trkpt lat="40.7513050" lon="-8.0609570">
        <ele>177.2</ele>
        <time>2019-06-10T07:51:17Z</time>
      </trkpt>
      <trkpt lat="40.7513670" lon="-8.0609430">
        <ele>177.1</ele>
        <time>2019-06-10T07:51:18Z</time>
      </trkpt>
      <trkpt lat="40.7514310" lon="-8.0609320">
        <ele>176.9</ele>
        <time>2019-06-10T07:51:19Z</time>
      </trkpt>
      <trkpt lat="40.7514940" lon="-8.0609210">
        <ele>176.7</ele>
        <time>2019-06-10T07:51:20Z</time>
      </trkpt>
      <trkpt lat="40.7515570" lon="-8.0609160">
        <ele>176.5</ele>
        <time>2019-06-10T07:51:21Z</time>
      </trkpt>
      <trkpt lat="40.7516220" lon="-8.0609100">
        <ele>176.3</ele>
        <time>2019-06-10T07:51:22Z</time>
      </trkpt>
      <trkpt lat="40.7520080" lon="-8.0609610">
        <ele>175.2</ele>
        <time>2019-06-10T07:51:28Z</time>
      </trkpt>
      <trkpt lat="40.7520730" lon="-8.0609780">
        <ele>175.1</ele>
        <time>2019-06-10T07:51:29Z</time>
      </trkpt>
      <trkpt lat="40.7521320" lon="-8.0609980">
        <ele>175.0</ele>
        <time>2019-06-10T07:51:30Z</time>
      </trkpt>
      <trkpt lat="40.7521950" lon="-8.0610240">
        <ele>174.8</ele>
        <time>2019-06-10T07:51:31Z</time>
      </trkpt>
      <trkpt lat="40.7522550" lon="-8.0610440">
        <ele>174.6</ele>
        <time>2019-06-10T07:51:32Z</time>
      </trkpt>
      <trkpt lat="40.7525190" lon="-8.0611140">
        <ele>174.0</ele>
        <time>2019-06-10T07:51:36Z</time>
      </trkpt>
      <trkpt lat="40.7525880" lon="-8.0611260">
        <ele>173.9</ele>
        <time>2019-06-10T07:51:37Z</time>
      </trkpt>
      <trkpt lat="40.7526580" lon="-8.0611390">
        <ele>173.7</ele>
        <time>2019-06-10T07:51:38Z</time>
      </trkpt>
      <trkpt lat="40.7527320" lon="-8.0611470">
        <ele>173.5</ele>
        <time>2019-06-10T07:51:39Z</time>
      </trkpt>
      <trkpt lat="40.7528050" lon="-8.0611420">
        <ele>173.3</ele>
        <time>2019-06-10T07:51:40Z</time>
      </trkpt>
      <trkpt lat="40.7528780" lon="-8.0611300">
        <ele>173.1</ele>
        <time>2019-06-10T07:51:41Z</time>
      </trkpt>
      <trkpt lat="40.7529510" lon="-8.0611100">
        <ele>172.9</ele>
        <time>2019-06-10T07:51:42Z</time>
      </trkpt>
      <trkpt lat="40.7531730" lon="-8.0610350">
        <ele>171.9</ele>
        <time>2019-06-10T07:51:46Z</time>
      </trkpt>
      <trkpt lat="40.7532010" lon="-8.0610260">
        <ele>171.8</ele>
        <time>2019-06-10T07:51:47Z</time>
      </trkpt>
      <trkpt lat="40.7532310" lon="-8.0610140">
        <ele>171.7</ele>
        <time>2019-06-10T07:51:48Z</time>
      </trkpt>
      <trkpt lat="40.7532420" lon="-8.0610040">
        <ele>171.7</ele>
        <time>2019-06-10T07:51:49Z</time>
      </trkpt>
      <trkpt lat="40.7532580" lon="-8.0610020">
        <ele>171.7</ele>
        <time>2019-06-10T07:51:50Z</time>
      </trkpt>
      <trkpt lat="40.7532760" lon="-8.0610070">
        <ele>171.7</ele>
        <time>2019-06-10T07:51:51Z</time>
      </trkpt>
      <trkpt lat="40.7533140" lon="-8.0610450">
        <ele>171.6</ele>
        <time>2019-06-10T07:51:55Z</time>
      </trkpt>
      <trkpt lat="40.7533360" lon="-8.0610480">
        <ele>171.6</ele>
        <time>2019-06-10T07:52:01Z</time>
      </trkpt>
      <trkpt lat="40.7533510" lon="-8.0610460">
        <ele>171.6</ele>
        <time>2019-06-10T07:55:00Z</time>
      </trkpt>
      <trkpt lat="40.7533480" lon="-8.0610200">
        <ele>171.6</ele>
        <time>2019-06-10T07:55:02Z</time>
      </trkpt>
      <trkpt lat="40.7533580" lon="-8.0610020">
        <ele>171.6</ele>
        <time>2019-06-10T07:55:03Z</time>
      </trkpt>
      <trkpt lat="40.7533710" lon="-8.0609580">
        <ele>171.6</ele>
        <time>2019-06-10T07:55:05Z</time>
      </trkpt>
      <trkpt lat="40.7534270" lon="-8.0608160">
        <ele>172.6</ele>
        <time>2019-06-10T07:55:10Z</time>
      </trkpt>
      <trkpt lat="40.7534460" lon="-8.0607900">
        <ele>172.6</ele>
        <time>2019-06-10T07:55:11Z</time>
      </trkpt>
      <trkpt lat="40.7534640" lon="-8.0607640">
        <ele>172.7</ele>
        <time>2019-06-10T07:55:12Z</time>
      </trkpt>
      <trkpt lat="40.7534900" lon="-8.0607340">
        <ele>172.7</ele>
        <time>2019-06-10T07:55:13Z</time>
      </trkpt>
      <trkpt lat="40.7535210" lon="-8.0607090">
        <ele>172.8</ele>
        <time>2019-06-10T07:55:14Z</time>
      </trkpt>
      <trkpt lat="40.7536170" lon="-8.0606320">
        <ele>172.8</ele>
        <time>2019-06-10T07:55:17Z</time>
      </trkpt>
      <trkpt lat="40.7537300" lon="-8.0605630">
        <ele>172.9</ele>
        <time>2019-06-10T07:55:20Z</time>
      </trkpt>
      <trkpt lat="40.7537730" lon="-8.0605430">
        <ele>172.9</ele>
        <time>2019-06-10T07:55:21Z</time>
      </trkpt>
      <trkpt lat="40.7541560" lon="-8.0604120">
        <ele>169.9</ele>
        <time>2019-06-10T07:55:29Z</time>
      </trkpt>
      <trkpt lat="40.7542680" lon="-8.0604110">
        <ele>168.7</ele>
        <time>2019-06-10T07:55:33Z</time>
      </trkpt>
      <trkpt lat="40.7543260" lon="-8.0604630">
        <ele>167.9</ele>
        <time>2019-06-10T07:55:37Z</time>
      </trkpt>
      <trkpt lat="40.7543620" lon="-8.0604590">
        <ele>167.4</ele>
        <time>2019-06-10T07:55:38Z</time>
      </trkpt>
      <trkpt lat="40.7544030" lon="-8.0604710">
        <ele>166.8</ele>
        <time>2019-06-10T07:55:39Z</time>
      </trkpt>
      <trkpt lat="40.7544500" lon="-8.0604820">
        <ele>166.2</ele>
        <time>2019-06-10T07:55:40Z</time>
      </trkpt>
      <trkpt lat="40.7544980" lon="-8.0604950">
        <ele>165.6</ele>
        <time>2019-06-10T07:55:41Z</time>
      </trkpt>
      <trkpt lat="40.7548340" lon="-8.0607030">
        <ele>163.5</ele>
        <time>2019-06-10T07:55:48Z</time>
      </trkpt>
      <trkpt lat="40.7550510" lon="-8.0609420">
        <ele>165.4</ele>
        <time>2019-06-10T07:55:53Z</time>
      </trkpt>
      <trkpt lat="40.7550880" lon="-8.0610010">
        <ele>165.8</ele>
        <time>2019-06-10T07:55:54Z</time>
      </trkpt>
      <trkpt lat="40.7551100" lon="-8.0610780">
        <ele>166.2</ele>
        <time>2019-06-10T07:55:55Z</time>
      </trkpt>
      <trkpt lat="40.7551380" lon="-8.0611470">
        <ele>166.6</ele>
        <time>2019-06-10T07:55:56Z</time>
      </trkpt>
      <trkpt lat="40.7551610" lon="-8.0612180">
        <ele>167.0</ele>
        <time>2019-06-10T07:55:57Z</time>
      </trkpt>
      <trkpt lat="40.7552200" lon="-8.0614250">
        <ele>168.1</ele>
        <time>2019-06-10T07:56:00Z</time>
      </trkpt>
      <trkpt lat="40.7552470" lon="-8.0615710">
        <ele>168.8</ele>
        <time>2019-06-10T07:56:04Z</time>
      </trkpt>
      <trkpt lat="40.7552460" lon="-8.0615810">
        <ele>168.9</ele>
        <time>2019-06-10T07:56:05Z</time>
      </trkpt>
      <trkpt lat="40.7552480" lon="-8.0615970">
        <ele>169.0</ele>
        <time>2019-06-10T08:00:34Z</time>
      </trkpt>
      <trkpt lat="40.7552510" lon="-8.0616160">
        <ele>169.1</ele>
        <time>2019-06-10T08:00:35Z</time>
      </trkpt>
      <trkpt lat="40.7552530" lon="-8.0617120">
        <ele>169.7</ele>
        <time>2019-06-10T08:00:39Z</time>
      </trkpt>
      <trkpt lat="40.7552240" lon="-8.0620540">
        <ele>172.2</ele>
        <time>2019-06-10T08:00:46Z</time>
      </trkpt>
      <trkpt lat="40.7551350" lon="-8.0624060">
        <ele>173.1</ele>
        <time>2019-06-10T08:00:53Z</time>
      </trkpt>
      <trkpt lat="40.7550970" lon="-8.0625450">
        <ele>172.4</ele>
        <time>2019-06-10T08:00:58Z</time>
      </trkpt>
      <trkpt lat="40.7550060" lon="-8.0627470">
        <ele>171.5</ele>
        <time>2019-06-10T08:01:04Z</time>
      </trkpt>
      <trkpt lat="40.7547820" lon="-8.0630740">
        <ele>170.2</ele>
        <time>2019-06-10T08:01:12Z</time>
      </trkpt>
      <trkpt lat="40.7544730" lon="-8.0634640">
        <ele>168.6</ele>
        <time>2019-06-10T08:01:21Z</time>
      </trkpt>
      <trkpt lat="40.7542990" lon="-8.0636890">
        <ele>167.9</ele>
        <time>2019-06-10T08:01:28Z</time>
      </trkpt>
      <trkpt lat="40.7542760" lon="-8.0637420">
        <ele>167.7</ele>
        <time>2019-06-10T08:01:32Z</time>
      </trkpt>
      <trkpt lat="40.7543110" lon="-8.0637830">
        <ele>167.6</ele>
        <time>2019-06-10T08:06:11Z</time>
      </trkpt>
      <trkpt lat="40.7543170" lon="-8.0637790">
        <ele>167.6</ele>
        <time>2019-06-10T08:06:12Z</time>
      </trkpt>
      <trkpt lat="40.7543340" lon="-8.0637450">
        <ele>167.5</ele>
        <time>2019-06-10T08:06:15Z</time>
      </trkpt>
      <trkpt lat="40.7543190" lon="-8.0636980">
        <ele>167.4</ele>
        <time>2019-06-10T08:06:17Z</time>
      </trkpt>
      <trkpt lat="40.7542540" lon="-8.0637710">
        <ele>167.2</ele>
        <time>2019-06-10T08:06:21Z</time>
      </trkpt>
      <trkpt lat="40.7542210" lon="-8.0638410">
        <ele>167.1</ele>
        <time>2019-06-10T08:06:23Z</time>
      </trkpt>
      <trkpt lat="40.7541230" lon="-8.0639800">
        <ele>166.7</ele>
        <time>2019-06-10T08:06:27Z</time>
      </trkpt>
      <trkpt lat="40.7538790" lon="-8.0643080">
        <ele>166.6</ele>
        <time>2019-06-10T08:06:35Z</time>
      </trkpt>
      <trkpt lat="40.7536300" lon="-8.0646370">
        <ele>168.1</ele>
        <time>2019-06-10T08:06:44Z</time>
      </trkpt>
      <trkpt lat="40.7534420" lon="-8.0648990">
        <ele>168.0</ele>
        <time>2019-06-10T08:06:52Z</time>
      </trkpt>
      <trkpt lat="40.7533390" lon="-8.0650470">
        <ele>168.5</ele>
        <time>2019-06-10T08:06:59Z</time>
      </trkpt>
      <trkpt lat="40.7532960" lon="-8.0651200">
        <ele>168.9</ele>
        <time>2019-06-10T08:07:06Z</time>
      </trkpt>
      <trkpt lat="40.7532060" lon="-8.0651950">
        <ele>169.4</ele>
        <time>2019-06-10T08:07:12Z</time>
      </trkpt>
      <trkpt lat="40.7531750" lon="-8.0652560">
        <ele>169.6</ele>
        <time>2019-06-10T08:07:15Z</time>
      </trkpt>
      <trkpt lat="40.7531500" lon="-8.0653010">
        <ele>169.4</ele>
        <time>2019-06-10T08:07:18Z</time>
      </trkpt>
      <trkpt lat="40.7530640" lon="-8.0654480">
        <ele>169.0</ele>
        <time>2019-06-10T08:07:26Z</time>
      </trkpt>
      <trkpt lat="40.7529220" lon="-8.0656500">
        <ele>169.1</ele>
        <time>2019-06-10T08:07:33Z</time>
      </trkpt>
      <trkpt lat="40.7527150" lon="-8.0659480">
        <ele>169.4</ele>
        <time>2019-06-10T08:07:41Z</time>
      </trkpt>
      <trkpt lat="40.7526910" lon="-8.0659890">
        <ele>169.4</ele>
        <time>2019-06-10T08:07:42Z</time>
      </trkpt>
      <trkpt lat="40.7524740" lon="-8.0662920">
        <ele>169.4</ele>
        <time>2019-06-10T08:07:49Z</time>
      </trkpt>
      <trkpt lat="40.7522210" lon="-8.0666270">
        <ele>169.7</ele>
        <time>2019-06-10T08:07:57Z</time>
      </trkpt>
      <trkpt lat="40.7519680" lon="-8.0670160">
        <ele>169.6</ele>
        <time>2019-06-10T08:08:05Z</time>
      </trkpt>
      <trkpt lat="40.7519080" lon="-8.0671110">
        <ele>169.6</ele>
        <time>2019-06-10T08:08:07Z</time>
      </trkpt>
      <trkpt lat="40.7517380" lon="-8.0673460">
        <ele>169.9</ele>
        <time>2019-06-10T08:08:12Z</time>
      </trkpt>
      <trkpt lat="40.7514660" lon="-8.0677110">
        <ele>170.4</ele>
        <time>2019-06-10T08:08:20Z</time>
      </trkpt>
      <trkpt lat="40.7510990" lon="-8.0680380">
        <ele>171.3</ele>
        <time>2019-06-10T08:08:29Z</time>
      </trkpt>
      <trkpt lat="40.7509560" lon="-8.0681010">
        <ele>171.6</ele>
        <time>2019-06-10T08:08:32Z</time>
      </trkpt>
      <trkpt lat="40.7509070" lon="-8.0681150">
        <ele>171.7</ele>
        <time>2019-06-10T08:08:33Z</time>
      </trkpt>
      <trkpt lat="40.7508570" lon="-8.0681280">
        <ele>171.8</ele>
        <time>2019-06-10T08:08:34Z</time>
      </trkpt>
      <trkpt lat="40.7508090" lon="-8.0681370">
        <ele>171.9</ele>
        <time>2019-06-10T08:08:35Z</time>
      </trkpt>
      <trkpt lat="40.7507630" lon="-8.0681460">
        <ele>172.0</ele>
        <time>2019-06-10T08:08:36Z</time>
      </trkpt>
      <trkpt lat="40.7507130" lon="-8.0681520">
        <ele>172.0</ele>
        <time>2019-06-10T08:08:37Z</time>
      </trkpt>
      <trkpt lat="40.7504750" lon="-8.0681540">
        <ele>172.4</ele>
        <time>2019-06-10T08:08:42Z</time>
      </trkpt>
      <trkpt lat="40.7502250" lon="-8.0681190">
        <ele>172.7</ele>
        <time>2019-06-10T08:08:49Z</time>
      </trkpt>
      <trkpt lat="40.7501550" lon="-8.0680880">
        <ele>173.1</ele>
        <time>2019-06-10T08:08:52Z</time>
      </trkpt>
      <trkpt lat="40.7501130" lon="-8.0680950">
        <ele>173.6</ele>
        <time>2019-06-10T08:08:53Z</time>
      </trkpt>
      <trkpt lat="40.7500840" lon="-8.0681100">
        <ele>173.9</ele>
        <time>2019-06-10T08:08:54Z</time>
      </trkpt>
      <trkpt lat="40.7500590" lon="-8.0681070">
        <ele>174.2</ele>
        <time>2019-06-10T08:08:55Z</time>
      </trkpt>
      <trkpt lat="40.7500550" lon="-8.0680920">
        <ele>174.4</ele>
        <time>2019-06-10T08:08:56Z</time>
      </trkpt>
      <trkpt lat="40.7499810" lon="-8.0680820">
        <ele>175.2</ele>
        <time>2019-06-10T08:08:59Z</time>
      </trkpt>
      <trkpt lat="40.7497190" lon="-8.0680740">
        <ele>177.6</ele>
        <time>2019-06-10T08:09:07Z</time>
      </trkpt>
      <trkpt lat="40.7495530" lon="-8.0680540">
        <ele>178.0</ele>
        <time>2019-06-10T08:09:12Z</time>
      </trkpt>
      <trkpt lat="40.7495160" lon="-8.0680520">
        <ele>178.0</ele>
        <time>2019-06-10T08:09:13Z</time>
      </trkpt>
      <trkpt lat="40.7494780" lon="-8.0680520">
        <ele>178.0</ele>
        <time>2019-06-10T08:09:14Z</time>
      </trkpt>
      <trkpt lat="40.7494390" lon="-8.0680550">
        <ele>178.0</ele>
        <time>2019-06-10T08:09:15Z</time>
      </trkpt>
      <trkpt lat="40.7494060" lon="-8.0680540">
        <ele>178.0</ele>
        <time>2019-06-10T08:09:16Z</time>
      </trkpt>
      <trkpt lat="40.7493700" lon="-8.0680530">
        <ele>178.0</ele>
        <time>2019-06-10T08:09:17Z</time>
      </trkpt>
      <trkpt lat="40.7491020" lon="-8.0681400">
        <ele>178.3</ele>
        <time>2019-06-10T08:09:24Z</time>
      </trkpt>
      <trkpt lat="40.7487590" lon="-8.0682000">
        <ele>178.6</ele>
        <time>2019-06-10T08:09:32Z</time>
      </trkpt>
      <trkpt lat="40.7485920" lon="-8.0682500">
        <ele>178.7</ele>
        <time>2019-06-10T08:09:36Z</time>
      </trkpt>
      <trkpt lat="40.7485530" lon="-8.0682630">
        <ele>178.8</ele>
        <time>2019-06-10T08:09:37Z</time>
      </trkpt>
      <trkpt lat="40.7485120" lon="-8.0682810">
        <ele>178.9</ele>
        <time>2019-06-10T08:09:38Z</time>
      </trkpt>
      <trkpt lat="40.7484700" lon="-8.0683000">
        <ele>179.1</ele>
        <time>2019-06-10T08:09:39Z</time>
      </trkpt>
      <trkpt lat="40.7484330" lon="-8.0683190">
        <ele>179.2</ele>
        <time>2019-06-10T08:09:40Z</time>
      </trkpt>
      <trkpt lat="40.7483940" lon="-8.0683380">
        <ele>179.4</ele>
        <time>2019-06-10T08:09:41Z</time>
      </trkpt>
      <trkpt lat="40.7480640" lon="-8.0685450">
        <ele>180.8</ele>
        <time>2019-06-10T08:09:50Z</time>
      </trkpt>
      <trkpt lat="40.7479300" lon="-8.0686600">
        <ele>181.6</ele>
        <time>2019-06-10T08:09:54Z</time>
      </trkpt>
      <trkpt lat="40.7478740" lon="-8.0687460">
        <ele>181.7</ele>
        <time>2019-06-10T08:09:56Z</time>
      </trkpt>
      <trkpt lat="40.7478400" lon="-8.0687840">
        <ele>181.7</ele>
        <time>2019-06-10T08:09:57Z</time>
      </trkpt>
      <trkpt lat="40.7478090" lon="-8.0688240">
        <ele>181.7</ele>
        <time>2019-06-10T08:09:58Z</time>
      </trkpt>
      <trkpt lat="40.7477720" lon="-8.0688620">
        <ele>181.7</ele>
        <time>2019-06-10T08:09:59Z</time>
      </trkpt>
      <trkpt lat="40.7477380" lon="-8.0689070">
        <ele>181.8</ele>
        <time>2019-06-10T08:10:00Z</time>
      </trkpt>
      <trkpt lat="40.7477050" lon="-8.0689480">
        <ele>181.8</ele>
        <time>2019-06-10T08:10:01Z</time>
      </trkpt>
      <trkpt lat="40.7476410" lon="-8.0690310">
        <ele>181.8</ele>
        <time>2019-06-10T08:10:03Z</time>
      </trkpt>
      <trkpt lat="40.7475180" lon="-8.0692750">
        <ele>181.4</ele>
        <time>2019-06-10T08:10:09Z</time>
      </trkpt>
      <trkpt lat="40.7473330" lon="-8.0696080">
        <ele>179.8</ele>
        <time>2019-06-10T08:10:15Z</time>
      </trkpt>
      <trkpt lat="40.7470590" lon="-8.0701350">
        <ele>178.3</ele>
        <time>2019-06-10T08:10:24Z</time>
      </trkpt>
      <trkpt lat="40.7469300" lon="-8.0703820">
        <ele>177.9</ele>
        <time>2019-06-10T08:10:30Z</time>
      </trkpt>
      <trkpt lat="40.7468460" lon="-8.0705140">
        <ele>177.5</ele>
        <time>2019-06-10T08:10:36Z</time>
      </trkpt>
      <trkpt lat="40.7468440" lon="-8.0705260">
        <ele>177.4</ele>
        <time>2019-06-10T08:10:37Z</time>
      </trkpt>
      <trkpt lat="40.7468470" lon="-8.0705350">
        <ele>177.4</ele>
        <time>2019-06-10T08:10:38Z</time>
      </trkpt>
      <trkpt lat="40.7468460" lon="-8.0705520">
        <ele>177.3</ele>
        <time>2019-06-10T08:10:39Z</time>
      </trkpt>
      <trkpt lat="40.7468390" lon="-8.0705660">
        <ele>177.3</ele>
        <time>2019-06-10T08:10:40Z</time>
      </trkpt>
      <trkpt lat="40.7468100" lon="-8.0706130">
        <ele>177.0</ele>
        <time>2019-06-10T08:10:42Z</time>
      </trkpt>
      <trkpt lat="40.7467110" lon="-8.0708370">
        <ele>176.2</ele>
        <time>2019-06-10T08:10:47Z</time>
      </trkpt>
      <trkpt lat="40.7466120" lon="-8.0710460">
        <ele>176.0</ele>
        <time>2019-06-10T08:10:51Z</time>
      </trkpt>
      <trkpt lat="40.7465160" lon="-8.0712630">
        <ele>175.7</ele>
        <time>2019-06-10T08:10:55Z</time>
      </trkpt>
      <trkpt lat="40.7463450" lon="-8.0716120">
        <ele>174.0</ele>
        <time>2019-06-10T08:11:01Z</time>
      </trkpt>
      <trkpt lat="40.7463190" lon="-8.0716770">
        <ele>173.7</ele>
        <time>2019-06-10T08:11:02Z</time>
      </trkpt>
      <trkpt lat="40.7462870" lon="-8.0717440">
        <ele>173.6</ele>
        <time>2019-06-10T08:11:03Z</time>
      </trkpt>
      <trkpt lat="40.7462570" lon="-8.0718110">
        <ele>173.4</ele>
        <time>2019-06-10T08:11:04Z</time>
      </trkpt>
      <trkpt lat="40.7462270" lon="-8.0718780">
        <ele>173.2</ele>
        <time>2019-06-10T08:11:05Z</time>
      </trkpt>
      <trkpt lat="40.7459640" lon="-8.0724390">
        <ele>170.9</ele>
        <time>2019-06-10T08:11:13Z</time>
      </trkpt>
      <trkpt lat="40.7458920" lon="-8.0725870">
        <ele>171.5</ele>
        <time>2019-06-10T08:11:15Z</time>
      </trkpt>
      <trkpt lat="40.7458590" lon="-8.0726590">
        <ele>171.7</ele>
        <time>2019-06-10T08:11:16Z</time>
      </trkpt>
      <trkpt lat="40.7458220" lon="-8.0727340">
        <ele>171.6</ele>
        <time>2019-06-10T08:11:17Z</time>
      </trkpt>
      <trkpt lat="40.7457890" lon="-8.0728040">
        <ele>171.5</ele>
        <time>2019-06-10T08:11:18Z</time>
      </trkpt>
      <trkpt lat="40.7457560" lon="-8.0728770">
        <ele>171.2</ele>
        <time>2019-06-10T08:11:19Z</time>
      </trkpt>
      <trkpt lat="40.7456140" lon="-8.0731720">
        <ele>170.7</ele>
        <time>2019-06-10T08:11:23Z</time>
      </trkpt>
      <trkpt lat="40.7453090" lon="-8.0738030">
        <ele>170.3</ele>
        <time>2019-06-10T08:11:31Z</time>
      </trkpt>
      <trkpt lat="40.7452740" lon="-8.0738820">
        <ele>170.2</ele>
        <time>2019-06-10T08:11:32Z</time>
      </trkpt>
      <trkpt lat="40.7452350" lon="-8.0739680">
        <ele>170.1</ele>
        <time>2019-06-10T08:11:33Z</time>
      </trkpt>
      <trkpt lat="40.7451930" lon="-8.0740500">
        <ele>170.0</ele>
        <time>2019-06-10T08:11:34Z</time>
      </trkpt>
      <trkpt lat="40.7451510" lon="-8.0741300">
        <ele>169.8</ele>
        <time>2019-06-10T08:11:35Z</time>
      </trkpt>
      <trkpt lat="40.7451070" lon="-8.0742140">
        <ele>169.7</ele>
        <time>2019-06-10T08:11:36Z</time>
      </trkpt>
      <trkpt lat="40.7450650" lon="-8.0742940">
        <ele>169.5</ele>
        <time>2019-06-10T08:11:37Z</time>
      </trkpt>
      <trkpt lat="40.7449570" lon="-8.0745490">
        <ele>168.6</ele>
        <time>2019-06-10T08:11:40Z</time>
      </trkpt>
      <trkpt lat="40.7446350" lon="-8.0752080">
        <ele>167.2</ele>
        <time>2019-06-10T08:11:48Z</time>
      </trkpt>
      <trkpt lat="40.7446010" lon="-8.0752840">
        <ele>167.2</ele>
        <time>2019-06-10T08:11:49Z</time>
      </trkpt>
      <trkpt lat="40.7445660" lon="-8.0753580">
        <ele>167.1</ele>
        <time>2019-06-10T08:11:50Z</time>
      </trkpt>
      <trkpt lat="40.7445360" lon="-8.0754320">
        <ele>166.9</ele>
        <time>2019-06-10T08:11:51Z</time>
      </trkpt>
      <trkpt lat="40.7445140" lon="-8.0755150">
        <ele>166.6</ele>
        <time>2019-06-10T08:11:52Z</time>
      </trkpt>
      <trkpt lat="40.7444520" lon="-8.0757790">
        <ele>165.5</ele>
        <time>2019-06-10T08:11:55Z</time>
      </trkpt>
      <trkpt lat="40.7444360" lon="-8.0761670">
        <ele>163.2</ele>
        <time>2019-06-10T08:11:59Z</time>
      </trkpt>
      <trkpt lat="40.7444470" lon="-8.0762560">
        <ele>162.3</ele>
        <time>2019-06-10T08:12:00Z</time>
      </trkpt>
      <trkpt lat="40.7444950" lon="-8.0767940">
        <ele>161.3</ele>
        <time>2019-06-10T08:12:06Z</time>
      </trkpt>
      <trkpt lat="40.7445720" lon="-8.0775590">
        <ele>164.5</ele>
        <time>2019-06-10T08:12:15Z</time>
      </trkpt>
      <trkpt lat="40.7446340" lon="-8.0781600">
        <ele>167.7</ele>
        <time>2019-06-10T08:12:23Z</time>
      </trkpt>
      <trkpt lat="40.7446380" lon="-8.0782330">
        <ele>168.2</ele>
        <time>2019-06-10T08:12:24Z</time>
      </trkpt>
      <trkpt lat="40.7446420" lon="-8.0783070">
        <ele>168.7</ele>
        <time>2019-06-10T08:12:25Z</time>
      </trkpt>
      <trkpt lat="40.7446450" lon="-8.0783810">
        <ele>169.2</ele>
        <time>2019-06-10T08:12:26Z</time>
      </trkpt>
      <trkpt lat="40.7446490" lon="-8.0784540">
        <ele>169.5</ele>
        <time>2019-06-10T08:12:27Z</time>
      </trkpt>
      <trkpt lat="40.7446520" lon="-8.0785260">
        <ele>169.8</ele>
        <time>2019-06-10T08:12:28Z</time>
      </trkpt>
      <trkpt lat="40.7446690" lon="-8.0788890">
        <ele>170.4</ele>
        <time>2019-06-10T08:12:33Z</time>
      </trkpt>
      <trkpt lat="40.7446880" lon="-8.0793750">
        <ele>171.1</ele>
        <time>2019-06-10T08:12:40Z</time>
      </trkpt>
      <trkpt lat="40.7446880" lon="-8.0794380">
        <ele>171.3</ele>
        <time>2019-06-10T08:12:41Z</time>
      </trkpt>
      <trkpt lat="40.7446840" lon="-8.0795010">
        <ele>171.5</ele>
        <time>2019-06-10T08:12:42Z</time>
      </trkpt>
      <trkpt lat="40.7446810" lon="-8.0795620">
        <ele>171.7</ele>
        <time>2019-06-10T08:12:43Z</time>
      </trkpt>
      <trkpt lat="40.7446750" lon="-8.0796250">
        <ele>171.9</ele>
        <time>2019-06-10T08:12:44Z</time>
      </trkpt>
      <trkpt lat="40.7446530" lon="-8.0798100">
        <ele>172.3</ele>
        <time>2019-06-10T08:12:47Z</time>
      </trkpt>
      <trkpt lat="40.7446410" lon="-8.0798730">
        <ele>172.5</ele>
        <time>2019-06-10T08:12:48Z</time>
      </trkpt>
      <trkpt lat="40.7445260" lon="-8.0804020">
        <ele>174.0</ele>
        <time>2019-06-10T08:12:57Z</time>
      </trkpt>
      <trkpt lat="40.7445110" lon="-8.0804560">
        <ele>174.0</ele>
        <time>2019-06-10T08:12:58Z</time>
      </trkpt>
      <trkpt lat="40.7444940" lon="-8.0805050">
        <ele>174.1</ele>
        <time>2019-06-10T08:12:59Z</time>
      </trkpt>
      <trkpt lat="40.7444780" lon="-8.0805500">
        <ele>174.1</ele>
        <time>2019-06-10T08:13:00Z</time>
      </trkpt>
      <trkpt lat="40.7444620" lon="-8.0805950">
        <ele>174.2</ele>
        <time>2019-06-10T08:13:01Z</time>
      </trkpt>
      <trkpt lat="40.7444060" lon="-8.0807390">
        <ele>174.6</ele>
        <time>2019-06-10T08:13:04Z</time>
      </trkpt>
      <trkpt lat="40.7442400" lon="-8.0809990">
        <ele>176.0</ele>
        <time>2019-06-10T08:13:10Z</time>
      </trkpt>
      <trkpt lat="40.7442020" lon="-8.0810350">
        <ele>176.2</ele>
        <time>2019-06-10T08:13:11Z</time>
      </trkpt>
      <trkpt lat="40.7441230" lon="-8.0810990">
        <ele>176.4</ele>
        <time>2019-06-10T08:13:13Z</time>
      </trkpt>
      <trkpt lat="40.7440790" lon="-8.0811320">
        <ele>176.5</ele>
        <time>2019-06-10T08:13:14Z</time>
      </trkpt>
      <trkpt lat="40.7440320" lon="-8.0811660">
        <ele>176.6</ele>
        <time>2019-06-10T08:13:15Z</time>
      </trkpt>
      <trkpt lat="40.7439910" lon="-8.0811940">
        <ele>176.6</ele>
        <time>2019-06-10T08:13:16Z</time>
      </trkpt>
      <trkpt lat="40.7439470" lon="-8.0812210">
        <ele>176.7</ele>
        <time>2019-06-10T08:13:17Z</time>
      </trkpt>
      <trkpt lat="40.7439010" lon="-8.0812450">
        <ele>176.8</ele>
        <time>2019-06-10T08:13:18Z</time>
      </trkpt>
      <trkpt lat="40.7435200" lon="-8.0813460">
        <ele>178.1</ele>
        <time>2019-06-10T08:13:26Z</time>
      </trkpt>
      <trkpt lat="40.7432350" lon="-8.0813680">
        <ele>178.5</ele>
        <time>2019-06-10T08:13:32Z</time>
      </trkpt>
      <trkpt lat="40.7431830" lon="-8.0813750">
        <ele>178.7</ele>
        <time>2019-06-10T08:13:33Z</time>
      </trkpt>
      <trkpt lat="40.7431320" lon="-8.0813790">
        <ele>178.9</ele>
        <time>2019-06-10T08:13:34Z</time>
      </trkpt>
      <trkpt lat="40.7430840" lon="-8.0813810">
        <ele>179.1</ele>
        <time>2019-06-10T08:13:35Z</time>
      </trkpt>
      <trkpt lat="40.7430350" lon="-8.0813890">
        <ele>179.4</ele>
        <time>2019-06-10T08:13:36Z</time>
      </trkpt>
      <trkpt lat="40.7427700" lon="-8.0814200">
        <ele>180.4</ele>
        <time>2019-06-10T08:13:42Z</time>
      </trkpt>
      <trkpt lat="40.7425810" lon="-8.0814570">
        <ele>181.5</ele>
        <time>2019-06-10T08:13:48Z</time>
      </trkpt>
      <trkpt lat="40.7423980" lon="-8.0814810">
        <ele>182.8</ele>
        <time>2019-06-10T08:13:53Z</time>
      </trkpt>
      <trkpt lat="40.7422680" lon="-8.0815040">
        <ele>183.1</ele>
        <time>2019-06-10T08:13:56Z</time>
      </trkpt>
      <trkpt lat="40.7422250" lon="-8.0815100">
        <ele>183.3</ele>
        <time>2019-06-10T08:13:57Z</time>
      </trkpt>
      <trkpt lat="40.7421790" lon="-8.0815170">
        <ele>183.4</ele>
        <time>2019-06-10T08:13:58Z</time>
      </trkpt>
      <trkpt lat="40.7421360" lon="-8.0815210">
        <ele>183.5</ele>
        <time>2019-06-10T08:13:59Z</time>
      </trkpt>
      <trkpt lat="40.7420930" lon="-8.0815250">
        <ele>183.6</ele>
        <time>2019-06-10T08:14:00Z</time>
      </trkpt>
      <trkpt lat="40.7417410" lon="-8.0815790">
        <ele>184.8</ele>
        <time>2019-06-10T08:14:08Z</time>
      </trkpt>
      <trkpt lat="40.7417000" lon="-8.0815830">
        <ele>185.0</ele>
        <time>2019-06-10T08:14:09Z</time>
      </trkpt>
      <trkpt lat="40.7416570" lon="-8.0815880">
        <ele>185.1</ele>
        <time>2019-06-10T08:14:10Z</time>
      </trkpt>
      <trkpt lat="40.7416160" lon="-8.0815910">
        <ele>185.2</ele>
        <time>2019-06-10T08:14:11Z</time>
      </trkpt>
      <trkpt lat="40.7415730" lon="-8.0815950">
        <ele>185.3</ele>
        <time>2019-06-10T08:14:12Z</time>
      </trkpt>
      <trkpt lat="40.7413480" lon="-8.0816120">
        <ele>185.9</ele>
        <time>2019-06-10T08:14:17Z</time>
      </trkpt>
      <trkpt lat="40.7409560" lon="-8.0816870">
        <ele>187.1</ele>
        <time>2019-06-10T08:14:26Z</time>
      </trkpt>
      <trkpt lat="40.7408610" lon="-8.0817040">
        <ele>187.2</ele>
        <time>2019-06-10T08:14:28Z</time>
      </trkpt>
      <trkpt lat="40.7408160" lon="-8.0817140">
        <ele>187.2</ele>
        <time>2019-06-10T08:14:29Z</time>
      </trkpt>
      <trkpt lat="40.7407700" lon="-8.0817190">
        <ele>187.3</ele>
        <time>2019-06-10T08:14:30Z</time>
      </trkpt>
      <trkpt lat="40.7407190" lon="-8.0817350">
        <ele>187.3</ele>
        <time>2019-06-10T08:14:31Z</time>
      </trkpt>
      <trkpt lat="40.7406730" lon="-8.0817550">
        <ele>187.3</ele>
        <time>2019-06-10T08:14:32Z</time>
      </trkpt>
      <trkpt lat="40.7405750" lon="-8.0817870">
        <ele>187.4</ele>
        <time>2019-06-10T08:14:34Z</time>
      </trkpt>
      <trkpt lat="40.7405330" lon="-8.0818000">
        <ele>187.4</ele>
        <time>2019-06-10T08:14:35Z</time>
      </trkpt>
      <trkpt lat="40.7403410" lon="-8.0818980">
        <ele>187.6</ele>
        <time>2019-06-10T08:14:40Z</time>
      </trkpt>
      <trkpt lat="40.7403080" lon="-8.0819320">
        <ele>187.7</ele>
        <time>2019-06-10T08:14:41Z</time>
      </trkpt>
      <trkpt lat="40.7401450" lon="-8.0821040">
        <ele>188.2</ele>
        <time>2019-06-10T08:14:46Z</time>
      </trkpt>
      <trkpt lat="40.7399570" lon="-8.0823990">
        <ele>189.3</ele>
        <time>2019-06-10T08:14:53Z</time>
      </trkpt>
      <trkpt lat="40.7398250" lon="-8.0826090">
        <ele>189.7</ele>
        <time>2019-06-10T08:14:58Z</time>
      </trkpt>
      <trkpt lat="40.7398000" lon="-8.0826470">
        <ele>189.8</ele>
        <time>2019-06-10T08:14:59Z</time>
      </trkpt>
      <trkpt lat="40.7397750" lon="-8.0826850">
        <ele>189.9</ele>
        <time>2019-06-10T08:15:00Z</time>
      </trkpt>
      <trkpt lat="40.7397490" lon="-8.0827140">
        <ele>189.9</ele>
        <time>2019-06-10T08:15:01Z</time>
      </trkpt>
      <trkpt lat="40.7397220" lon="-8.0827510">
        <ele>190.0</ele>
        <time>2019-06-10T08:15:02Z</time>
      </trkpt>
      <trkpt lat="40.7396570" lon="-8.0828640">
        <ele>190.2</ele>
        <time>2019-06-10T08:15:04Z</time>
      </trkpt>
      <trkpt lat="40.7394830" lon="-8.0831890">
        <ele>191.2</ele>
        <time>2019-06-10T08:15:12Z</time>
      </trkpt>
      <trkpt lat="40.7393240" lon="-8.0834390">
        <ele>191.6</ele>
        <time>2019-06-10T08:15:19Z</time>
      </trkpt>
      <trkpt lat="40.7391040" lon="-8.0837090">
        <ele>191.8</ele>
        <time>2019-06-10T08:15:25Z</time>
      </trkpt>
      <trkpt lat="40.7390750" lon="-8.0837530">
        <ele>191.8</ele>
        <time>2019-06-10T08:15:26Z</time>
      </trkpt>
      <trkpt lat="40.7388250" lon="-8.0840150">
        <ele>191.8</ele>
        <time>2019-06-10T08:15:34Z</time>
      </trkpt>
      <trkpt lat="40.7386850" lon="-8.0841550">
        <ele>191.8</ele>
        <time>2019-06-10T08:15:39Z</time>
      </trkpt>
      <trkpt lat="40.7384550" lon="-8.0844160">
        <ele>191.9</ele>
        <time>2019-06-10T08:15:46Z</time>
      </trkpt>
      <trkpt lat="40.7384150" lon="-8.0844520">
        <ele>191.9</ele>
        <time>2019-06-10T08:15:47Z</time>
      </trkpt>
      <trkpt lat="40.7383800" lon="-8.0844830">
        <ele>191.9</ele>
        <time>2019-06-10T08:15:48Z</time>
      </trkpt>
      <trkpt lat="40.7383390" lon="-8.0845140">
        <ele>191.9</ele>
        <time>2019-06-10T08:15:49Z</time>
      </trkpt>
      <trkpt lat="40.7383050" lon="-8.0845410">
        <ele>191.9</ele>
        <time>2019-06-10T08:15:50Z</time>
      </trkpt>
      <trkpt lat="40.7382250" lon="-8.0845950">
        <ele>192.0</ele>
        <time>2019-06-10T08:15:52Z</time>
      </trkpt>
      <trkpt lat="40.7380370" lon="-8.0847080">
        <ele>192.4</ele>
        <time>2019-06-10T08:15:58Z</time>
      </trkpt>
      <trkpt lat="40.7377710" lon="-8.0847580">
        <ele>193.4</ele>
        <time>2019-06-10T08:16:04Z</time>
      </trkpt>
      <trkpt lat="40.7374370" lon="-8.0847960">
        <ele>193.9</ele>
        <time>2019-06-10T08:16:11Z</time>
      </trkpt>
      <trkpt lat="40.7373860" lon="-8.0847920">
        <ele>194.0</ele>
        <time>2019-06-10T08:16:12Z</time>
      </trkpt>
      <trkpt lat="40.7373450" lon="-8.0847960">
        <ele>194.1</ele>
        <time>2019-06-10T08:16:13Z</time>
      </trkpt>
      <trkpt lat="40.7373090" lon="-8.0848000">
        <ele>194.1</ele>
        <time>2019-06-10T08:16:14Z</time>
      </trkpt>
      <trkpt lat="40.7372770" lon="-8.0847950">
        <ele>194.2</ele>
        <time>2019-06-10T08:16:15Z</time>
      </trkpt>
      <trkpt lat="40.7371910" lon="-8.0847980">
        <ele>194.3</ele>
        <time>2019-06-10T08:16:18Z</time>
      </trkpt>
      <trkpt lat="40.7370010" lon="-8.0848340">
        <ele>194.7</ele>
        <time>2019-06-10T08:16:22Z</time>
      </trkpt>
      <trkpt lat="40.7368640" lon="-8.0848590">
        <ele>195.2</ele>
        <time>2019-06-10T08:16:28Z</time>
      </trkpt>
      <trkpt lat="40.7367980" lon="-8.0848800">
        <ele>195.5</ele>
        <time>2019-06-10T08:16:31Z</time>
      </trkpt>
      <trkpt lat="40.7367730" lon="-8.0848930">
        <ele>195.6</ele>
        <time>2019-06-10T08:16:32Z</time>
      </trkpt>
      <trkpt lat="40.7367130" lon="-8.0849250">
        <ele>195.7</ele>
        <time>2019-06-10T08:16:34Z</time>
      </trkpt>
      <trkpt lat="40.7366900" lon="-8.0849330">
        <ele>195.8</ele>
        <time>2019-06-10T08:16:35Z</time>
      </trkpt>
      <trkpt lat="40.7366650" lon="-8.0849500">
        <ele>195.8</ele>
        <time>2019-06-10T08:16:36Z</time>
      </trkpt>
      <trkpt lat="40.7364860" lon="-8.0851020">
        <ele>196.3</ele>
        <time>2019-06-10T08:16:42Z</time>
      </trkpt>
      <trkpt lat="40.7364580" lon="-8.0851480">
        <ele>196.4</ele>
        <time>2019-06-10T08:16:43Z</time>
      </trkpt>
      <trkpt lat="40.7364270" lon="-8.0851890">
        <ele>196.5</ele>
        <time>2019-06-10T08:16:44Z</time>
      </trkpt>
      <trkpt lat="40.7363990" lon="-8.0852470">
        <ele>196.6</ele>
        <time>2019-06-10T08:16:45Z</time>
      </trkpt>
      <trkpt lat="40.7363750" lon="-8.0853080">
        <ele>196.8</ele>
        <time>2019-06-10T08:16:46Z</time>
      </trkpt>
      <trkpt lat="40.7363360" lon="-8.0853700">
        <ele>197.1</ele>
        <time>2019-06-10T08:16:47Z</time>
      </trkpt>
      <trkpt lat="40.7361690" lon="-8.0856040">
        <ele>198.2</ele>
        <time>2019-06-10T08:16:51Z</time>
      </trkpt>
      <trkpt lat="40.7361180" lon="-8.0856810">
        <ele>198.5</ele>
        <time>2019-06-10T08:16:52Z</time>
      </trkpt>
      <trkpt lat="40.7360670" lon="-8.0858060">
        <ele>199.0</ele>
        <time>2019-06-10T08:16:54Z</time>
      </trkpt>
      <trkpt lat="40.7359700" lon="-8.0860150">
        <ele>200.0</ele>
        <time>2019-06-10T08:16:58Z</time>
      </trkpt>
      <trkpt lat="40.7359320" lon="-8.0861190">
        <ele>200.5</ele>
        <time>2019-06-10T08:17:00Z</time>
      </trkpt>
      <trkpt lat="40.7359170" lon="-8.0861680">
        <ele>200.7</ele>
        <time>2019-06-10T08:17:01Z</time>
      </trkpt>
      <trkpt lat="40.7359050" lon="-8.0862100">
        <ele>200.9</ele>
        <time>2019-06-10T08:17:02Z</time>
      </trkpt>
      <trkpt lat="40.7358940" lon="-8.0862510">
        <ele>201.3</ele>
        <time>2019-06-10T08:17:03Z</time>
      </trkpt>
      <trkpt lat="40.7358830" lon="-8.0862920">
        <ele>201.7</ele>
        <time>2019-06-10T08:17:04Z</time>
      </trkpt>
      <trkpt lat="40.7358700" lon="-8.0863350">
        <ele>202.1</ele>
        <time>2019-06-10T08:17:05Z</time>
      </trkpt>
      <trkpt lat="40.7358570" lon="-8.0863780">
        <ele>202.6</ele>
        <time>2019-06-10T08:17:06Z</time>
      </trkpt>
      <trkpt lat="40.7358430" lon="-8.0864210">
        <ele>203.2</ele>
        <time>2019-06-10T08:17:07Z</time>
      </trkpt>
      <trkpt lat="40.7358330" lon="-8.0864570">
        <ele>203.7</ele>
        <time>2019-06-10T08:17:08Z</time>
      </trkpt>
      <trkpt lat="40.7358220" lon="-8.0864930">
        <ele>204.3</ele>
        <time>2019-06-10T08:17:09Z</time>
      </trkpt>
      <trkpt lat="40.7358110" lon="-8.0865290">
        <ele>204.9</ele>
        <time>2019-06-10T08:17:10Z</time>
      </trkpt>
      <trkpt lat="40.7358000" lon="-8.0865640">
        <ele>205.5</ele>
        <time>2019-06-10T08:17:11Z</time>
      </trkpt>
      <trkpt lat="40.7357890" lon="-8.0865950">
        <ele>206.0</ele>
        <time>2019-06-10T08:17:12Z</time>
      </trkpt>
      <trkpt lat="40.7357790" lon="-8.0866290">
        <ele>206.6</ele>
        <time>2019-06-10T08:17:13Z</time>
      </trkpt>
      <trkpt lat="40.7357710" lon="-8.0866620">
        <ele>207.2</ele>
        <time>2019-06-10T08:17:14Z</time>
      </trkpt>
      <trkpt lat="40.7357620" lon="-8.0866910">
        <ele>207.7</ele>
        <time>2019-06-10T08:17:15Z</time>
      </trkpt>
      <trkpt lat="40.7357520" lon="-8.0867190">
        <ele>208.1</ele>
        <time>2019-06-10T08:17:16Z</time>
      </trkpt>
      <trkpt lat="40.7357430" lon="-8.0867440">
        <ele>208.6</ele>
        <time>2019-06-10T08:17:17Z</time>
      </trkpt>
      <trkpt lat="40.7357340" lon="-8.0867700">
        <ele>209.1</ele>
        <time>2019-06-10T08:17:18Z</time>
      </trkpt>
      <trkpt lat="40.7357270" lon="-8.0867940">
        <ele>209.5</ele>
        <time>2019-06-10T08:17:19Z</time>
      </trkpt>
      <trkpt lat="40.7357200" lon="-8.0868150">
        <ele>209.9</ele>
        <time>2019-06-10T08:17:20Z</time>
      </trkpt>
      <trkpt lat="40.7357180" lon="-8.0868420">
        <ele>210.4</ele>
        <time>2019-06-10T08:17:21Z</time>
      </trkpt>
      <trkpt lat="40.7357140" lon="-8.0868720">
        <ele>210.8</ele>
        <time>2019-06-10T08:17:22Z</time>
      </trkpt>
      <trkpt lat="40.7357130" lon="-8.0868910">
        <ele>211.1</ele>
        <time>2019-06-10T08:17:23Z</time>
      </trkpt>
      <trkpt lat="40.7357070" lon="-8.0869120">
        <ele>211.4</ele>
        <time>2019-06-10T08:17:24Z</time>
      </trkpt>
      <trkpt lat="40.7357030" lon="-8.0869330">
        <ele>211.6</ele>
        <time>2019-06-10T08:17:25Z</time>
      </trkpt>
      <trkpt lat="40.7356960" lon="-8.0869590">
        <ele>211.9</ele>
        <time>2019-06-10T08:17:26Z</time>
      </trkpt>
      <trkpt lat="40.7356580" lon="-8.0870930">
        <ele>213.2</ele>
        <time>2019-06-10T08:17:31Z</time>
      </trkpt>
      <trkpt lat="40.7356020" lon="-8.0873770">
        <ele>214.2</ele>
        <time>2019-06-10T08:17:39Z</time>
      </trkpt>
      <trkpt lat="40.7355760" lon="-8.0875450">
        <ele>214.3</ele>
        <time>2019-06-10T08:17:42Z</time>
      </trkpt>
      <trkpt lat="40.7355680" lon="-8.0876840">
        <ele>214.2</ele>
        <time>2019-06-10T08:17:44Z</time>
      </trkpt>
      <trkpt lat="40.7355670" lon="-8.0879070">
        <ele>213.4</ele>
        <time>2019-06-10T08:17:47Z</time>
      </trkpt>
      <trkpt lat="40.7355740" lon="-8.0879690">
        <ele>213.1</ele>
        <time>2019-06-10T08:17:48Z</time>
      </trkpt>
      <trkpt lat="40.7355830" lon="-8.0880280">
        <ele>212.8</ele>
        <time>2019-06-10T08:17:49Z</time>
      </trkpt>
      <trkpt lat="40.7355920" lon="-8.0880860">
        <ele>212.4</ele>
        <time>2019-06-10T08:17:50Z</time>
      </trkpt>
      <trkpt lat="40.7356030" lon="-8.0881400">
        <ele>211.9</ele>
        <time>2019-06-10T08:17:51Z</time>
      </trkpt>
      <trkpt lat="40.7356130" lon="-8.0881890">
        <ele>211.5</ele>
        <time>2019-06-10T08:17:52Z</time>
      </trkpt>
      <trkpt lat="40.7356150" lon="-8.0882400">
        <ele>210.7</ele>
        <time>2019-06-10T08:17:53Z</time>
      </trkpt>
      <trkpt lat="40.7355990" lon="-8.0883200">
        <ele>210.1</ele>
        <time>2019-06-10T08:17:55Z</time>
      </trkpt>
      <trkpt lat="40.7355650" lon="-8.0883510">
        <ele>209.9</ele>
        <time>2019-06-10T08:17:56Z</time>
      </trkpt>
      <trkpt lat="40.7354690" lon="-8.0884070">
        <ele>209.4</ele>
        <time>2019-06-10T08:17:59Z</time>
      </trkpt>
      <trkpt lat="40.7353910" lon="-8.0884900">
        <ele>209.2</ele>
        <time>2019-06-10T08:18:03Z</time>
      </trkpt>
      <trkpt lat="40.7353350" lon="-8.0886580">
        <ele>209.1</ele>
        <time>2019-06-10T08:18:08Z</time>
      </trkpt>
      <trkpt lat="40.7353340" lon="-8.0887010">
        <ele>209.1</ele>
        <time>2019-06-10T08:18:09Z</time>
      </trkpt>
      <trkpt lat="40.7353200" lon="-8.0888040">
        <ele>209.1</ele>
        <time>2019-06-10T08:18:12Z</time>
      </trkpt>
      <trkpt lat="40.7353080" lon="-8.0888740">
        <ele>209.1</ele>
        <time>2019-06-10T08:18:14Z</time>
      </trkpt>
      <trkpt lat="40.7353060" lon="-8.0889030">
        <ele>209.1</ele>
        <time>2019-06-10T08:18:15Z</time>
      </trkpt>
      <trkpt lat="40.7353060" lon="-8.0889370">
        <ele>209.2</ele>
        <time>2019-06-10T08:18:16Z</time>
      </trkpt>
      <trkpt lat="40.7353100" lon="-8.0889730">
        <ele>209.2</ele>
        <time>2019-06-10T08:18:17Z</time>
      </trkpt>
      <trkpt lat="40.7353150" lon="-8.0890040">
        <ele>209.3</ele>
        <time>2019-06-10T08:18:18Z</time>
      </trkpt>
      <trkpt lat="40.7353420" lon="-8.0890500">
        <ele>209.3</ele>
        <time>2019-06-10T08:18:20Z</time>
      </trkpt>
      <trkpt lat="40.7353810" lon="-8.0890930">
        <ele>209.5</ele>
        <time>2019-06-10T08:18:22Z</time>
      </trkpt>
      <trkpt lat="40.7354030" lon="-8.0891120">
        <ele>209.7</ele>
        <time>2019-06-10T08:18:23Z</time>
      </trkpt>
      <trkpt lat="40.7354250" lon="-8.0891310">
        <ele>209.8</ele>
        <time>2019-06-10T08:18:24Z</time>
      </trkpt>
      <trkpt lat="40.7354490" lon="-8.0891560">
        <ele>210.1</ele>
        <time>2019-06-10T08:18:25Z</time>
      </trkpt>
      <trkpt lat="40.7354840" lon="-8.0891600">
        <ele>210.3</ele>
        <time>2019-06-10T08:18:26Z</time>
      </trkpt>
      <trkpt lat="40.7355110" lon="-8.0891710">
        <ele>210.5</ele>
        <time>2019-06-10T08:18:27Z</time>
      </trkpt>
      <trkpt lat="40.7356360" lon="-8.0892070">
        <ele>211.3</ele>
        <time>2019-06-10T08:18:32Z</time>
      </trkpt>
      <trkpt lat="40.7356610" lon="-8.0892130">
        <ele>211.6</ele>
        <time>2019-06-10T08:18:33Z</time>
      </trkpt>
      <trkpt lat="40.7356850" lon="-8.0892190">
        <ele>211.8</ele>
        <time>2019-06-10T08:18:34Z</time>
      </trkpt>
      <trkpt lat="40.7357110" lon="-8.0892250">
        <ele>212.0</ele>
        <time>2019-06-10T08:18:35Z</time>
      </trkpt>
      <trkpt lat="40.7357330" lon="-8.0892300">
        <ele>212.2</ele>
        <time>2019-06-10T08:18:36Z</time>
      </trkpt>
      <trkpt lat="40.7358780" lon="-8.0892700">
        <ele>212.9</ele>
        <time>2019-06-10T08:18:43Z</time>
      </trkpt>
      <trkpt lat="40.7359720" lon="-8.0893030">
        <ele>213.5</ele>
        <time>2019-06-10T08:18:47Z</time>
      </trkpt>
      <trkpt lat="40.7359950" lon="-8.0893110">
        <ele>213.6</ele>
        <time>2019-06-10T08:18:48Z</time>
      </trkpt>
      <trkpt lat="40.7360230" lon="-8.0893200">
        <ele>213.8</ele>
        <time>2019-06-10T08:18:49Z</time>
      </trkpt>
      <trkpt lat="40.7360490" lon="-8.0893270">
        <ele>214.0</ele>
        <time>2019-06-10T08:18:50Z</time>
      </trkpt>
      <trkpt lat="40.7360760" lon="-8.0893330">
        <ele>214.1</ele>
        <time>2019-06-10T08:18:51Z</time>
      </trkpt>
      <trkpt lat="40.7362470" lon="-8.0893340">
        <ele>215.0</ele>
        <time>2019-06-10T08:18:57Z</time>
      </trkpt>
      <trkpt lat="40.7362750" lon="-8.0893360">
        <ele>215.1</ele>
        <time>2019-06-10T08:18:58Z</time>
      </trkpt>
      <trkpt lat="40.7363000" lon="-8.0893400">
        <ele>215.2</ele>
        <time>2019-06-10T08:18:59Z</time>
      </trkpt>
      <trkpt lat="40.7363180" lon="-8.0893460">
        <ele>215.3</ele>
        <time>2019-06-10T08:19:00Z</time>
      </trkpt>
      <trkpt lat="40.7363400" lon="-8.0893560">
        <ele>215.5</ele>
        <time>2019-06-10T08:19:01Z</time>
      </trkpt>
      <trkpt lat="40.7363580" lon="-8.0893720">
        <ele>215.7</ele>
        <time>2019-06-10T08:19:02Z</time>
      </trkpt>
      <trkpt lat="40.7363760" lon="-8.0893900">
        <ele>215.8</ele>
        <time>2019-06-10T08:19:03Z</time>
      </trkpt>
      <trkpt lat="40.7365320" lon="-8.0895680">
        <ele>214.9</ele>
        <time>2019-06-10T08:19:11Z</time>
      </trkpt>
      <trkpt lat="40.7366450" lon="-8.0897320">
        <ele>213.1</ele>
        <time>2019-06-10T08:19:15Z</time>
      </trkpt>
      <trkpt lat="40.7367100" lon="-8.0898380">
        <ele>211.5</ele>
        <time>2019-06-10T08:19:17Z</time>
      </trkpt>
      <trkpt lat="40.7367550" lon="-8.0898980">
        <ele>210.4</ele>
        <time>2019-06-10T08:19:18Z</time>
      </trkpt>
      <trkpt lat="40.7368050" lon="-8.0899700">
        <ele>209.2</ele>
        <time>2019-06-10T08:19:19Z</time>
      </trkpt>
      <trkpt lat="40.7368530" lon="-8.0900450">
        <ele>208.0</ele>
        <time>2019-06-10T08:19:20Z</time>
      </trkpt>
      <trkpt lat="40.7369060" lon="-8.0901230">
        <ele>206.8</ele>
        <time>2019-06-10T08:19:21Z</time>
      </trkpt>
      <trkpt lat="40.7369580" lon="-8.0902040">
        <ele>205.8</ele>
        <time>2019-06-10T08:19:22Z</time>
      </trkpt>
      <trkpt lat="40.7370120" lon="-8.0902840">
        <ele>205.2</ele>
        <time>2019-06-10T08:19:23Z</time>
      </trkpt>
      <trkpt lat="40.7370640" lon="-8.0903800">
        <ele>204.7</ele>
        <time>2019-06-10T08:19:24Z</time>
      </trkpt>
      <trkpt lat="40.7370910" lon="-8.0905050">
        <ele>204.7</ele>
        <time>2019-06-10T08:19:25Z</time>
      </trkpt>
      <trkpt lat="40.7371250" lon="-8.0906280">
        <ele>204.7</ele>
        <time>2019-06-10T08:19:26Z</time>
      </trkpt>
      <trkpt lat="40.7371540" lon="-8.0907420">
        <ele>204.7</ele>
        <time>2019-06-10T08:19:27Z</time>
      </trkpt>
      <trkpt lat="40.7371790" lon="-8.0908590">
        <ele>204.7</ele>
        <time>2019-06-10T08:19:28Z</time>
      </trkpt>
      <trkpt lat="40.7371970" lon="-8.0909650">
        <ele>204.8</ele>
        <time>2019-06-10T08:19:29Z</time>
      </trkpt>
      <trkpt lat="40.7372600" lon="-8.0914390">
        <ele>206.4</ele>
        <time>2019-06-10T08:19:34Z</time>
      </trkpt>
      <trkpt lat="40.7372560" lon="-8.0915890">
        <ele>207.1</ele>
        <time>2019-06-10T08:19:36Z</time>
      </trkpt>
      <trkpt lat="40.7372500" lon="-8.0917240">
        <ele>207.5</ele>
        <time>2019-06-10T08:19:38Z</time>
      </trkpt>
      <trkpt lat="40.7372220" lon="-8.0918000">
        <ele>207.6</ele>
        <time>2019-06-10T08:19:39Z</time>
      </trkpt>
      <trkpt lat="40.7371580" lon="-8.0919880">
        <ele>207.7</ele>
        <time>2019-06-10T08:19:42Z</time>
      </trkpt>
      <trkpt lat="40.7370710" lon="-8.0921360">
        <ele>207.9</ele>
        <time>2019-06-10T08:19:45Z</time>
      </trkpt>
      <trkpt lat="40.7369740" lon="-8.0922680">
        <ele>208.3</ele>
        <time>2019-06-10T08:19:48Z</time>
      </trkpt>
      <trkpt lat="40.7368200" lon="-8.0924440">
        <ele>208.8</ele>
        <time>2019-06-10T08:19:54Z</time>
      </trkpt>
      <trkpt lat="40.7365840" lon="-8.0925900">
        <ele>209.1</ele>
        <time>2019-06-10T08:20:01Z</time>
      </trkpt>
      <trkpt lat="40.7365640" lon="-8.0926010">
        <ele>209.1</ele>
        <time>2019-06-10T08:20:02Z</time>
      </trkpt>
      <trkpt lat="40.7365310" lon="-8.0926200">
        <ele>209.2</ele>
        <time>2019-06-10T08:20:03Z</time>
      </trkpt>
      <trkpt lat="40.7364950" lon="-8.0926490">
        <ele>209.3</ele>
        <time>2019-06-10T08:20:04Z</time>
      </trkpt>
      <trkpt lat="40.7364380" lon="-8.0926760">
        <ele>209.5</ele>
        <time>2019-06-10T08:20:05Z</time>
      </trkpt>
      <trkpt lat="40.7363670" lon="-8.0927070">
        <ele>209.8</ele>
        <time>2019-06-10T08:20:07Z</time>
      </trkpt>
      <trkpt lat="40.7361550" lon="-8.0928120">
        <ele>211.0</ele>
        <time>2019-06-10T08:20:13Z</time>
      </trkpt>
      <trkpt lat="40.7359750" lon="-8.0929810">
        <ele>211.5</ele>
        <time>2019-06-10T08:20:19Z</time>
      </trkpt>
      <trkpt lat="40.7359480" lon="-8.0930100">
        <ele>211.5</ele>
        <time>2019-06-10T08:20:20Z</time>
      </trkpt>
      <trkpt lat="40.7359290" lon="-8.0930330">
        <ele>211.6</ele>
        <time>2019-06-10T08:20:21Z</time>
      </trkpt>
      <trkpt lat="40.7359090" lon="-8.0930580">
        <ele>211.6</ele>
        <time>2019-06-10T08:20:22Z</time>
      </trkpt>
      <trkpt lat="40.7358850" lon="-8.0930850">
        <ele>211.7</ele>
        <time>2019-06-10T08:20:23Z</time>
      </trkpt>
      <trkpt lat="40.7357310" lon="-8.0932110">
        <ele>212.1</ele>
        <time>2019-06-10T08:20:27Z</time>
      </trkpt>
      <trkpt lat="40.7355680" lon="-8.0934140">
        <ele>212.8</ele>
        <time>2019-06-10T08:20:32Z</time>
      </trkpt>
      <trkpt lat="40.7352970" lon="-8.0936310">
        <ele>213.9</ele>
        <time>2019-06-10T08:20:39Z</time>
      </trkpt>
      <trkpt lat="40.7352570" lon="-8.0936600">
        <ele>213.9</ele>
        <time>2019-06-10T08:20:40Z</time>
      </trkpt>
      <trkpt lat="40.7352190" lon="-8.0936890">
        <ele>213.9</ele>
        <time>2019-06-10T08:20:41Z</time>
      </trkpt>
      <trkpt lat="40.7351820" lon="-8.0937120">
        <ele>213.9</ele>
        <time>2019-06-10T08:20:42Z</time>
      </trkpt>
      <trkpt lat="40.7351400" lon="-8.0937370">
        <ele>214.0</ele>
        <time>2019-06-10T08:20:43Z</time>
      </trkpt>
      <trkpt lat="40.7349600" lon="-8.0938450">
        <ele>214.4</ele>
        <time>2019-06-10T08:20:47Z</time>
      </trkpt>
      <trkpt lat="40.7346180" lon="-8.0939650">
        <ele>215.6</ele>
        <time>2019-06-10T08:20:55Z</time>
      </trkpt>
      <trkpt lat="40.7345000" lon="-8.0939800">
        <ele>215.9</ele>
        <time>2019-06-10T08:20:58Z</time>
      </trkpt>
      <trkpt lat="40.7344220" lon="-8.0939720">
        <ele>216.3</ele>
        <time>2019-06-10T08:21:00Z</time>
      </trkpt>
      <trkpt lat="40.7343860" lon="-8.0939680">
        <ele>216.5</ele>
        <time>2019-06-10T08:21:01Z</time>
      </trkpt>
      <trkpt lat="40.7343460" lon="-8.0939630">
        <ele>216.7</ele>
        <time>2019-06-10T08:21:02Z</time>
      </trkpt>
      <trkpt lat="40.7343120" lon="-8.0939600">
        <ele>216.8</ele>
        <time>2019-06-10T08:21:03Z</time>
      </trkpt>
      <trkpt lat="40.7340080" lon="-8.0939180">
        <ele>217.4</ele>
        <time>2019-06-10T08:21:11Z</time>
      </trkpt>
      <trkpt lat="40.7337360" lon="-8.0939630">
        <ele>218.0</ele>
        <time>2019-06-10T08:21:18Z</time>
      </trkpt>
      <trkpt lat="40.7337000" lon="-8.0939710">
        <ele>218.2</ele>
        <time>2019-06-10T08:21:19Z</time>
      </trkpt>
      <trkpt lat="40.7336290" lon="-8.0939900">
        <ele>218.5</ele>
        <time>2019-06-10T08:21:21Z</time>
      </trkpt>
      <trkpt lat="40.7335880" lon="-8.0939970">
        <ele>218.6</ele>
        <time>2019-06-10T08:21:22Z</time>
      </trkpt>
      <trkpt lat="40.7335550" lon="-8.0940060">
        <ele>218.7</ele>
        <time>2019-06-10T08:21:23Z</time>
      </trkpt>
      <trkpt lat="40.7333570" lon="-8.0941090">
        <ele>219.1</ele>
        <time>2019-06-10T08:21:29Z</time>
      </trkpt>
      <trkpt lat="40.7331210" lon="-8.0943110">
        <ele>220.7</ele>
        <time>2019-06-10T08:21:37Z</time>
      </trkpt>
      <trkpt lat="40.7330680" lon="-8.0943590">
        <ele>221.0</ele>
        <time>2019-06-10T08:21:39Z</time>
      </trkpt>
      <trkpt lat="40.7330470" lon="-8.0944030">
        <ele>221.2</ele>
        <time>2019-06-10T08:21:40Z</time>
      </trkpt>
      <trkpt lat="40.7330280" lon="-8.0944510">
        <ele>221.4</ele>
        <time>2019-06-10T08:21:41Z</time>
      </trkpt>
      <trkpt lat="40.7330130" lon="-8.0944960">
        <ele>221.5</ele>
        <time>2019-06-10T08:21:42Z</time>
      </trkpt>
      <trkpt lat="40.7329990" lon="-8.0945490">
        <ele>221.6</ele>
        <time>2019-06-10T08:21:43Z</time>
      </trkpt>
      <trkpt lat="40.7329900" lon="-8.0945980">
        <ele>221.7</ele>
        <time>2019-06-10T08:21:44Z</time>
      </trkpt>
      <trkpt lat="40.7329220" lon="-8.0949420">
        <ele>222.2</ele>
        <time>2019-06-10T08:21:51Z</time>
      </trkpt>
      <trkpt lat="40.7328940" lon="-8.0950710">
        <ele>222.3</ele>
        <time>2019-06-10T08:21:54Z</time>
      </trkpt>
      <trkpt lat="40.7328760" lon="-8.0951040">
        <ele>222.3</ele>
        <time>2019-06-10T08:21:55Z</time>
      </trkpt>
      <trkpt lat="40.7328470" lon="-8.0951470">
        <ele>222.4</ele>
        <time>2019-06-10T08:21:56Z</time>
      </trkpt>
      <trkpt lat="40.7328290" lon="-8.0951870">
        <ele>222.5</ele>
        <time>2019-06-10T08:21:57Z</time>
      </trkpt>
      <trkpt lat="40.7328120" lon="-8.0952220">
        <ele>222.6</ele>
        <time>2019-06-10T08:21:58Z</time>
      </trkpt>
      <trkpt lat="40.7326830" lon="-8.0954310">
        <ele>223.3</ele>
        <time>2019-06-10T08:22:04Z</time>
      </trkpt>
      <trkpt lat="40.7325350" lon="-8.0956030">
        <ele>223.9</ele>
        <time>2019-06-10T08:22:09Z</time>
      </trkpt>
      <trkpt lat="40.7323270" lon="-8.0957530">
        <ele>224.3</ele>
        <time>2019-06-10T08:22:16Z</time>
      </trkpt>
      <trkpt lat="40.7322430" lon="-8.0957870">
        <ele>224.5</ele>
        <time>2019-06-10T08:22:18Z</time>
      </trkpt>
      <trkpt lat="40.7322020" lon="-8.0958060">
        <ele>224.7</ele>
        <time>2019-06-10T08:22:19Z</time>
      </trkpt>
      <trkpt lat="40.7321660" lon="-8.0958170">
        <ele>224.9</ele>
        <time>2019-06-10T08:22:20Z</time>
      </trkpt>
      <trkpt lat="40.7321240" lon="-8.0958330">
        <ele>225.1</ele>
        <time>2019-06-10T08:22:21Z</time>
      </trkpt>
      <trkpt lat="40.7320790" lon="-8.0958480">
        <ele>225.3</ele>
        <time>2019-06-10T08:22:22Z</time>
      </trkpt>
      <trkpt lat="40.7320450" lon="-8.0958570">
        <ele>225.4</ele>
        <time>2019-06-10T08:22:23Z</time>
      </trkpt>
      <trkpt lat="40.7318430" lon="-8.0958450">
        <ele>226.0</ele>
        <time>2019-06-10T08:22:29Z</time>
      </trkpt>
      <trkpt lat="40.7316710" lon="-8.0958310">
        <ele>226.7</ele>
        <time>2019-06-10T08:22:34Z</time>
      </trkpt>
      <trkpt lat="40.7316040" lon="-8.0957990">
        <ele>227.0</ele>
        <time>2019-06-10T08:22:36Z</time>
      </trkpt>
      <trkpt lat="40.7315680" lon="-8.0957760">
        <ele>227.2</ele>
        <time>2019-06-10T08:22:37Z</time>
      </trkpt>
      <trkpt lat="40.7315350" lon="-8.0957490">
        <ele>227.4</ele>
        <time>2019-06-10T08:22:38Z</time>
      </trkpt>
      <trkpt lat="40.7315040" lon="-8.0957280">
        <ele>227.6</ele>
        <time>2019-06-10T08:22:39Z</time>
      </trkpt>
      <trkpt lat="40.7314710" lon="-8.0957000">
        <ele>227.8</ele>
        <time>2019-06-10T08:22:40Z</time>
      </trkpt>
      <trkpt lat="40.7312280" lon="-8.0953410">
        <ele>228.6</ele>
        <time>2019-06-10T08:22:49Z</time>
      </trkpt>
      <trkpt lat="40.7311630" lon="-8.0951000">
        <ele>229.3</ele>
        <time>2019-06-10T08:22:54Z</time>
      </trkpt>
      <trkpt lat="40.7311260" lon="-8.0948230">
        <ele>230.1</ele>
        <time>2019-06-10T08:23:00Z</time>
      </trkpt>
      <trkpt lat="40.7311260" lon="-8.0947780">
        <ele>230.2</ele>
        <time>2019-06-10T08:23:01Z</time>
      </trkpt>
      <trkpt lat="40.7311230" lon="-8.0947320">
        <ele>230.3</ele>
        <time>2019-06-10T08:23:02Z</time>
      </trkpt>
      <trkpt lat="40.7311270" lon="-8.0946830">
        <ele>230.5</ele>
        <time>2019-06-10T08:23:03Z</time>
      </trkpt>
      <trkpt lat="40.7311280" lon="-8.0946340">
        <ele>230.6</ele>
        <time>2019-06-10T08:23:04Z</time>
      </trkpt>
      <trkpt lat="40.7311460" lon="-8.0944850">
        <ele>231.0</ele>
        <time>2019-06-10T08:23:07Z</time>
      </trkpt>
      <trkpt lat="40.7312260" lon="-8.0942090">
        <ele>231.6</ele>
        <time>2019-06-10T08:23:13Z</time>
      </trkpt>
      <trkpt lat="40.7312370" lon="-8.0941700">
        <ele>231.6</ele>
        <time>2019-06-10T08:23:14Z</time>
      </trkpt>
      <trkpt lat="40.7312480" lon="-8.0941350">
        <ele>231.6</ele>
        <time>2019-06-10T08:23:15Z</time>
      </trkpt>
      <trkpt lat="40.7312660" lon="-8.0940910">
        <ele>231.7</ele>
        <time>2019-06-10T08:23:16Z</time>
      </trkpt>
      <trkpt lat="40.7312830" lon="-8.0940510">
        <ele>231.7</ele>
        <time>2019-06-10T08:23:17Z</time>
      </trkpt>
      <trkpt lat="40.7313250" lon="-8.0939780">
        <ele>231.8</ele>
        <time>2019-06-10T08:23:19Z</time>
      </trkpt>
      <trkpt lat="40.7314530" lon="-8.0936670">
        <ele>231.9</ele>
        <time>2019-06-10T08:23:27Z</time>
      </trkpt>
      <trkpt lat="40.7315050" lon="-8.0935190">
        <ele>232.0</ele>
        <time>2019-06-10T08:23:32Z</time>
      </trkpt>
      <trkpt lat="40.7315210" lon="-8.0934890">
        <ele>232.1</ele>
        <time>2019-06-10T08:23:33Z</time>
      </trkpt>
      <trkpt lat="40.7315460" lon="-8.0934450">
        <ele>232.2</ele>
        <time>2019-06-10T08:23:34Z</time>
      </trkpt>
      <trkpt lat="40.7315670" lon="-8.0934140">
        <ele>232.4</ele>
        <time>2019-06-10T08:23:35Z</time>
      </trkpt>
      <trkpt lat="40.7315850" lon="-8.0933830">
        <ele>232.5</ele>
        <time>2019-06-10T08:23:36Z</time>
      </trkpt>
      <trkpt lat="40.7316050" lon="-8.0933540">
        <ele>232.6</ele>
        <time>2019-06-10T08:23:37Z</time>
      </trkpt>
      <trkpt lat="40.7316540" lon="-8.0932870">
        <ele>232.8</ele>
        <time>2019-06-10T08:23:39Z</time>
      </trkpt>
      <trkpt lat="40.7318280" lon="-8.0929810">
        <ele>233.5</ele>
        <time>2019-06-10T08:23:48Z</time>
      </trkpt>
      <trkpt lat="40.7320480" lon="-8.0928360">
        <ele>234.7</ele>
        <time>2019-06-10T08:23:55Z</time>
      </trkpt>
      <trkpt lat="40.7322310" lon="-8.0927680">
        <ele>235.5</ele>
        <time>2019-06-10T08:24:00Z</time>
      </trkpt>
      <trkpt lat="40.7322700" lon="-8.0927550">
        <ele>235.6</ele>
        <time>2019-06-10T08:24:01Z</time>
      </trkpt>
      <trkpt lat="40.7323100" lon="-8.0927390">
        <ele>235.6</ele>
        <time>2019-06-10T08:24:02Z</time>
      </trkpt>
      <trkpt lat="40.7323560" lon="-8.0927240">
        <ele>235.7</ele>
        <time>2019-06-10T08:24:03Z</time>
      </trkpt>
      <trkpt lat="40.7323920" lon="-8.0927080">
        <ele>235.7</ele>
        <time>2019-06-10T08:24:04Z</time>
      </trkpt>
      <trkpt lat="40.7326130" lon="-8.0925570">
        <ele>235.7</ele>
        <time>2019-06-10T08:24:10Z</time>
      </trkpt>
      <trkpt lat="40.7328800" lon="-8.0922810">
        <ele>235.7</ele>
        <time>2019-06-10T08:24:17Z</time>
      </trkpt>
      <trkpt lat="40.7329070" lon="-8.0922320">
        <ele>235.7</ele>
        <time>2019-06-10T08:24:18Z</time>
      </trkpt>
      <trkpt lat="40.7330020" lon="-8.0920190">
        <ele>235.7</ele>
        <time>2019-06-10T08:24:22Z</time>
      </trkpt>
      <trkpt lat="40.7330670" lon="-8.0917060">
        <ele>236.0</ele>
        <time>2019-06-10T08:24:28Z</time>
      </trkpt>
      <trkpt lat="40.7330680" lon="-8.0916530">
        <ele>236.2</ele>
        <time>2019-06-10T08:24:29Z</time>
      </trkpt>
      <trkpt lat="40.7330470" lon="-8.0913960">
        <ele>237.3</ele>
        <time>2019-06-10T08:24:34Z</time>
      </trkpt>
      <trkpt lat="40.7330370" lon="-8.0913510">
        <ele>237.4</ele>
        <time>2019-06-10T08:24:35Z</time>
      </trkpt>
      <trkpt lat="40.7330280" lon="-8.0913040">
        <ele>237.5</ele>
        <time>2019-06-10T08:24:36Z</time>
      </trkpt>
      <trkpt lat="40.7330170" lon="-8.0912570">
        <ele>237.6</ele>
        <time>2019-06-10T08:24:37Z</time>
      </trkpt>
      <trkpt lat="40.7330030" lon="-8.0912120">
        <ele>237.7</ele>
        <time>2019-06-10T08:24:38Z</time>
      </trkpt>
      <trkpt lat="40.7329490" lon="-8.0910160">
        <ele>238.1</ele>
        <time>2019-06-10T08:24:43Z</time>
      </trkpt>
      <trkpt lat="40.7327970" lon="-8.0907910">
        <ele>239.3</ele>
        <time>2019-06-10T08:24:49Z</time>
      </trkpt>
      <trkpt lat="40.7327110" lon="-8.0907050">
        <ele>239.6</ele>
        <time>2019-06-10T08:24:52Z</time>
      </trkpt>
      <trkpt lat="40.7326770" lon="-8.0906770">
        <ele>239.7</ele>
        <time>2019-06-10T08:24:53Z</time>
      </trkpt>
      <trkpt lat="40.7326390" lon="-8.0906590">
        <ele>239.7</ele>
        <time>2019-06-10T08:24:54Z</time>
      </trkpt>
      <trkpt lat="40.7326010" lon="-8.0906330">
        <ele>239.8</ele>
        <time>2019-06-10T08:24:55Z</time>
      </trkpt>
      <trkpt lat="40.7325530" lon="-8.0905950">
        <ele>239.8</ele>
        <time>2019-06-10T08:24:56Z</time>
      </trkpt>
      <trkpt lat="40.7323120" lon="-8.0905230">
        <ele>240.0</ele>
        <time>2019-06-10T08:25:02Z</time>
      </trkpt>
      <trkpt lat="40.7319550" lon="-8.0905020">
        <ele>240.4</ele>
        <time>2019-06-10T08:25:11Z</time>
      </trkpt>
      <trkpt lat="40.7317670" lon="-8.0905910">
        <ele>241.1</ele>
        <time>2019-06-10T08:25:16Z</time>
      </trkpt>
      <trkpt lat="40.7315410" lon="-8.0907520">
        <ele>241.3</ele>
        <time>2019-06-10T08:25:23Z</time>
      </trkpt>
      <trkpt lat="40.7314290" lon="-8.0908810">
        <ele>241.4</ele>
        <time>2019-06-10T08:25:27Z</time>
      </trkpt>
      <trkpt lat="40.7314020" lon="-8.0909150">
        <ele>241.5</ele>
        <time>2019-06-10T08:25:28Z</time>
      </trkpt>
      <trkpt lat="40.7313820" lon="-8.0909570">
        <ele>241.5</ele>
        <time>2019-06-10T08:25:29Z</time>
      </trkpt>
      <trkpt lat="40.7313610" lon="-8.0909970">
        <ele>241.6</ele>
        <time>2019-06-10T08:25:30Z</time>
      </trkpt>
      <trkpt lat="40.7313380" lon="-8.0910330">
        <ele>241.7</ele>
        <time>2019-06-10T08:25:31Z</time>
      </trkpt>
      <trkpt lat="40.7312570" lon="-8.0912820">
        <ele>242.0</ele>
        <time>2019-06-10T08:25:36Z</time>
      </trkpt>
      <trkpt lat="40.7311880" lon="-8.0916360">
        <ele>243.2</ele>
        <time>2019-06-10T08:25:43Z</time>
      </trkpt>
      <trkpt lat="40.7311630" lon="-8.0917430">
        <ele>243.7</ele>
        <time>2019-06-10T08:25:45Z</time>
      </trkpt>
      <trkpt lat="40.7311370" lon="-8.0918930">
        <ele>244.2</ele>
        <time>2019-06-10T08:25:48Z</time>
      </trkpt>
      <trkpt lat="40.7311270" lon="-8.0919400">
        <ele>244.4</ele>
        <time>2019-06-10T08:25:49Z</time>
      </trkpt>
      <trkpt lat="40.7311180" lon="-8.0919860">
        <ele>244.5</ele>
        <time>2019-06-10T08:25:50Z</time>
      </trkpt>
      <trkpt lat="40.7311080" lon="-8.0920320">
        <ele>244.6</ele>
        <time>2019-06-10T08:25:51Z</time>
      </trkpt>
      <trkpt lat="40.7311000" lon="-8.0920780">
        <ele>244.7</ele>
        <time>2019-06-10T08:25:52Z</time>
      </trkpt>
      <trkpt lat="40.7310110" lon="-8.0923930">
        <ele>245.0</ele>
        <time>2019-06-10T08:25:59Z</time>
      </trkpt>
      <trkpt lat="40.7309600" lon="-8.0925590">
        <ele>245.2</ele>
        <time>2019-06-10T08:26:03Z</time>
      </trkpt>
      <trkpt lat="40.7309280" lon="-8.0925910">
        <ele>245.3</ele>
        <time>2019-06-10T08:26:04Z</time>
      </trkpt>
      <trkpt lat="40.7309030" lon="-8.0926220">
        <ele>245.4</ele>
        <time>2019-06-10T08:26:05Z</time>
      </trkpt>
      <trkpt lat="40.7308790" lon="-8.0926530">
        <ele>245.5</ele>
        <time>2019-06-10T08:26:06Z</time>
      </trkpt>
      <trkpt lat="40.7308560" lon="-8.0926840">
        <ele>245.5</ele>
        <time>2019-06-10T08:26:07Z</time>
      </trkpt>
      <trkpt lat="40.7307600" lon="-8.0928750">
        <ele>245.8</ele>
        <time>2019-06-10T08:26:12Z</time>
      </trkpt>
      <trkpt lat="40.7305910" lon="-8.0931370">
        <ele>246.1</ele>
        <time>2019-06-10T08:26:19Z</time>
      </trkpt>
      <trkpt lat="40.7303420" lon="-8.0934980">
        <ele>246.4</ele>
        <time>2019-06-10T08:26:28Z</time>
      </trkpt>
      <trkpt lat="40.7300580" lon="-8.0939110">
        <ele>246.6</ele>
        <time>2019-06-10T08:26:37Z</time>
      </trkpt>
      <trkpt lat="40.7300200" lon="-8.0939810">
        <ele>246.7</ele>
        <time>2019-06-10T08:26:39Z</time>
      </trkpt>
      <trkpt lat="40.7299940" lon="-8.0940180">
        <ele>246.7</ele>
        <time>2019-06-10T08:26:40Z</time>
      </trkpt>
      <trkpt lat="40.7299660" lon="-8.0940580">
        <ele>246.8</ele>
        <time>2019-06-10T08:26:41Z</time>
      </trkpt>
      <trkpt lat="40.7299350" lon="-8.0941020">
        <ele>246.8</ele>
        <time>2019-06-10T08:26:42Z</time>
      </trkpt>
      <trkpt lat="40.7299010" lon="-8.0941400">
        <ele>246.9</ele>
        <time>2019-06-10T08:26:43Z</time>
      </trkpt>
      <trkpt lat="40.7297060" lon="-8.0943620">
        <ele>247.3</ele>
        <time>2019-06-10T08:26:49Z</time>
      </trkpt>
      <trkpt lat="40.7294120" lon="-8.0945240">
        <ele>248.0</ele>
        <time>2019-06-10T08:26:56Z</time>
      </trkpt>
      <trkpt lat="40.7292720" lon="-8.0945420">
        <ele>248.2</ele>
        <time>2019-06-10T08:26:59Z</time>
      </trkpt>
      <trkpt lat="40.7292300" lon="-8.0945410">
        <ele>248.3</ele>
        <time>2019-06-10T08:27:00Z</time>
      </trkpt>
      <trkpt lat="40.7291930" lon="-8.0945480">
        <ele>248.4</ele>
        <time>2019-06-10T08:27:01Z</time>
      </trkpt>
      <trkpt lat="40.7291530" lon="-8.0945620">
        <ele>248.5</ele>
        <time>2019-06-10T08:27:02Z</time>
      </trkpt>
      <trkpt lat="40.7291080" lon="-8.0945590">
        <ele>248.6</ele>
        <time>2019-06-10T08:27:03Z</time>
      </trkpt>
      <trkpt lat="40.7290650" lon="-8.0945570">
        <ele>248.7</ele>
        <time>2019-06-10T08:27:04Z</time>
      </trkpt>
      <trkpt lat="40.7288370" lon="-8.0945420">
        <ele>249.5</ele>
        <time>2019-06-10T08:27:09Z</time>
      </trkpt>
      <trkpt lat="40.7287110" lon="-8.0945170">
        <ele>249.8</ele>
        <time>2019-06-10T08:27:12Z</time>
      </trkpt>
      <trkpt lat="40.7285830" lon="-8.0944790">
        <ele>250.2</ele>
        <time>2019-06-10T08:27:15Z</time>
      </trkpt>
      <trkpt lat="40.7284990" lon="-8.0944710">
        <ele>250.5</ele>
        <time>2019-06-10T08:27:17Z</time>
      </trkpt>
      <trkpt lat="40.7284210" lon="-8.0944840">
        <ele>250.7</ele>
        <time>2019-06-10T08:27:19Z</time>
      </trkpt>
      <trkpt lat="40.7283760" lon="-8.0944970">
        <ele>250.9</ele>
        <time>2019-06-10T08:27:20Z</time>
      </trkpt>
      <trkpt lat="40.7283320" lon="-8.0945070">
        <ele>251.0</ele>
        <time>2019-06-10T08:27:21Z</time>
      </trkpt>
      <trkpt lat="40.7282910" lon="-8.0945170">
        <ele>251.1</ele>
        <time>2019-06-10T08:27:22Z</time>
      </trkpt>
      <trkpt lat="40.7282550" lon="-8.0945280">
        <ele>251.2</ele>
        <time>2019-06-10T08:27:23Z</time>
      </trkpt>
      <trkpt lat="40.7280530" lon="-8.0946170">
        <ele>251.7</ele>
        <time>2019-06-10T08:27:28Z</time>
      </trkpt>
      <trkpt lat="40.7280160" lon="-8.0946390">
        <ele>251.7</ele>
        <time>2019-06-10T08:27:29Z</time>
      </trkpt>
      <trkpt lat="40.7277480" lon="-8.0948210">
        <ele>252.5</ele>
        <time>2019-06-10T08:27:36Z</time>
      </trkpt>
      <trkpt lat="40.7276570" lon="-8.0949610">
        <ele>252.9</ele>
        <time>2019-06-10T08:27:39Z</time>
      </trkpt>
      <trkpt lat="40.7276320" lon="-8.0950030">
        <ele>253.0</ele>
        <time>2019-06-10T08:27:40Z</time>
      </trkpt>
      <trkpt lat="40.7276100" lon="-8.0950600">
        <ele>253.2</ele>
        <time>2019-06-10T08:27:41Z</time>
      </trkpt>
      <trkpt lat="40.7275840" lon="-8.0951180">
        <ele>253.3</ele>
        <time>2019-06-10T08:27:42Z</time>
      </trkpt>
      <trkpt lat="40.7275640" lon="-8.0951730">
        <ele>253.4</ele>
        <time>2019-06-10T08:27:43Z</time>
      </trkpt>
      <trkpt lat="40.7274570" lon="-8.0954810">
        <ele>254.0</ele>
        <time>2019-06-10T08:27:49Z</time>
      </trkpt>
      <trkpt lat="40.7273440" lon="-8.0958110">
        <ele>254.5</ele>
        <time>2019-06-10T08:27:55Z</time>
      </trkpt>
      <trkpt lat="40.7273280" lon="-8.0958640">
        <ele>254.6</ele>
        <time>2019-06-10T08:27:56Z</time>
      </trkpt>
      <trkpt lat="40.7273130" lon="-8.0959200">
        <ele>254.7</ele>
        <time>2019-06-10T08:27:57Z</time>
      </trkpt>
      <trkpt lat="40.7272970" lon="-8.0959780">
        <ele>254.8</ele>
        <time>2019-06-10T08:27:58Z</time>
      </trkpt>
      <trkpt lat="40.7272800" lon="-8.0960340">
        <ele>254.9</ele>
        <time>2019-06-10T08:27:59Z</time>
      </trkpt>
      <trkpt lat="40.7270840" lon="-8.0965250">
        <ele>255.9</ele>
        <time>2019-06-10T08:28:09Z</time>
      </trkpt>
      <trkpt lat="40.7269410" lon="-8.0967500">
        <ele>256.4</ele>
        <time>2019-06-10T08:28:15Z</time>
      </trkpt>
      <trkpt lat="40.7269140" lon="-8.0967970">
        <ele>256.5</ele>
        <time>2019-06-10T08:28:16Z</time>
      </trkpt>
      <trkpt lat="40.7268890" lon="-8.0968380">
        <ele>256.6</ele>
        <time>2019-06-10T08:28:17Z</time>
      </trkpt>
      <trkpt lat="40.7268670" lon="-8.0968770">
        <ele>256.8</ele>
        <time>2019-06-10T08:28:18Z</time>
      </trkpt>
      <trkpt lat="40.7268460" lon="-8.0969130">
        <ele>256.9</ele>
        <time>2019-06-10T08:28:19Z</time>
      </trkpt>
      <trkpt lat="40.7268240" lon="-8.0969520">
        <ele>257.0</ele>
        <time>2019-06-10T08:28:20Z</time>
      </trkpt>
      <trkpt lat="40.7267850" lon="-8.0970270">
        <ele>257.1</ele>
        <time>2019-06-10T08:28:22Z</time>
      </trkpt>
      <trkpt lat="40.7266340" lon="-8.0973390">
        <ele>257.9</ele>
        <time>2019-06-10T08:28:30Z</time>
      </trkpt>
      <trkpt lat="40.7266080" lon="-8.0973780">
        <ele>258.0</ele>
        <time>2019-06-10T08:28:31Z</time>
      </trkpt>
      <trkpt lat="40.7265920" lon="-8.0974150">
        <ele>258.1</ele>
        <time>2019-06-10T08:28:32Z</time>
      </trkpt>
      <trkpt lat="40.7265720" lon="-8.0974600">
        <ele>258.2</ele>
        <time>2019-06-10T08:28:33Z</time>
      </trkpt>
      <trkpt lat="40.7265630" lon="-8.0975090">
        <ele>258.3</ele>
        <time>2019-06-10T08:28:34Z</time>
      </trkpt>
      <trkpt lat="40.7265430" lon="-8.0975630">
        <ele>258.4</ele>
        <time>2019-06-10T08:28:35Z</time>
      </trkpt>
      <trkpt lat="40.7265210" lon="-8.0976630">
        <ele>258.6</ele>
        <time>2019-06-10T08:28:37Z</time>
      </trkpt>
      <trkpt lat="40.7264890" lon="-8.0979180">
        <ele>259.1</ele>
        <time>2019-06-10T08:28:43Z</time>
      </trkpt>
      <trkpt lat="40.7265230" lon="-8.0982380">
        <ele>259.8</ele>
        <time>2019-06-10T08:28:51Z</time>
      </trkpt>
      <trkpt lat="40.7265520" lon="-8.0983830">
        <ele>260.2</ele>
        <time>2019-06-10T08:28:54Z</time>
      </trkpt>
      <trkpt lat="40.7265620" lon="-8.0984300">
        <ele>260.3</ele>
        <time>2019-06-10T08:28:55Z</time>
      </trkpt>
      <trkpt lat="40.7265820" lon="-8.0984800">
        <ele>260.5</ele>
        <time>2019-06-10T08:28:56Z</time>
      </trkpt>
      <trkpt lat="40.7266020" lon="-8.0985320">
        <ele>260.6</ele>
        <time>2019-06-10T08:28:57Z</time>
      </trkpt>
      <trkpt lat="40.7266190" lon="-8.0985820">
        <ele>260.8</ele>
        <time>2019-06-10T08:28:58Z</time>
      </trkpt>
      <trkpt lat="40.7266410" lon="-8.0986270">
        <ele>260.9</ele>
        <time>2019-06-10T08:28:59Z</time>
      </trkpt>
      <trkpt lat="40.7267990" lon="-8.0989820">
        <ele>261.6</ele>
        <time>2019-06-10T08:29:07Z</time>
      </trkpt>
      <trkpt lat="40.7269520" lon="-8.0993270">
        <ele>262.5</ele>
        <time>2019-06-10T08:29:14Z</time>
      </trkpt>
      <trkpt lat="40.7269630" lon="-8.0993780">
        <ele>262.6</ele>
        <time>2019-06-10T08:29:15Z</time>
      </trkpt>
      <trkpt lat="40.7269720" lon="-8.0994320">
        <ele>262.8</ele>
        <time>2019-06-10T08:29:16Z</time>
      </trkpt>
      <trkpt lat="40.7269860" lon="-8.0994770">
        <ele>262.9</ele>
        <time>2019-06-10T08:29:17Z</time>
      </trkpt>
      <trkpt lat="40.7269960" lon="-8.0995220">
        <ele>263.0</ele>
        <time>2019-06-10T08:29:18Z</time>
      </trkpt>
      <trkpt lat="40.7270090" lon="-8.0995720">
        <ele>263.2</ele>
        <time>2019-06-10T08:29:19Z</time>
      </trkpt>
      <trkpt lat="40.7270230" lon="-8.0997280">
        <ele>263.6</ele>
        <time>2019-06-10T08:29:22Z</time>
      </trkpt>
      <trkpt lat="40.7270160" lon="-8.1001430">
        <ele>264.8</ele>
        <time>2019-06-10T08:29:29Z</time>
      </trkpt>
      <trkpt lat="40.7269950" lon="-8.1004160">
        <ele>265.8</ele>
        <time>2019-06-10T08:29:34Z</time>
      </trkpt>
      <trkpt lat="40.7269710" lon="-8.1004650">
        <ele>266.0</ele>
        <time>2019-06-10T08:29:35Z</time>
      </trkpt>
      <trkpt lat="40.7269630" lon="-8.1005090">
        <ele>266.2</ele>
        <time>2019-06-10T08:29:36Z</time>
      </trkpt>
      <trkpt lat="40.7269600" lon="-8.1005420">
        <ele>266.3</ele>
        <time>2019-06-10T08:29:37Z</time>
      </trkpt>
      <trkpt lat="40.7269550" lon="-8.1005750">
        <ele>266.4</ele>
        <time>2019-06-10T08:29:38Z</time>
      </trkpt>
      <trkpt lat="40.7269350" lon="-8.1006860">
        <ele>266.7</ele>
        <time>2019-06-10T08:29:42Z</time>
      </trkpt>
      <trkpt lat="40.7268440" lon="-8.1008200">
        <ele>267.1</ele>
        <time>2019-06-10T08:29:47Z</time>
      </trkpt>
      <trkpt lat="40.7267520" lon="-8.1008950">
        <ele>267.3</ele>
        <time>2019-06-10T08:29:52Z</time>
      </trkpt>
      <trkpt lat="40.7267200" lon="-8.1009090">
        <ele>267.4</ele>
        <time>2019-06-10T08:29:53Z</time>
      </trkpt>
      <trkpt lat="40.7266610" lon="-8.1009370">
        <ele>267.4</ele>
        <time>2019-06-10T08:29:54Z</time>
      </trkpt>
      <trkpt lat="40.7266250" lon="-8.1009570">
        <ele>267.5</ele>
        <time>2019-06-10T08:29:55Z</time>
      </trkpt>
      <trkpt lat="40.7265890" lon="-8.1009710">
        <ele>267.5</ele>
        <time>2019-06-10T08:29:56Z</time>
      </trkpt>
      <trkpt lat="40.7265500" lon="-8.1009930">
        <ele>267.5</ele>
        <time>2019-06-10T08:29:57Z</time>
      </trkpt>
      <trkpt lat="40.7263410" lon="-8.1011690">
        <ele>268.0</ele>
        <time>2019-06-10T08:30:02Z</time>
      </trkpt>
      <trkpt lat="40.7262060" lon="-8.1013150">
        <ele>268.3</ele>
        <time>2019-06-10T08:30:05Z</time>
      </trkpt>
      <trkpt lat="40.7259780" lon="-8.1015340">
        <ele>269.0</ele>
        <time>2019-06-10T08:30:11Z</time>
      </trkpt>
      <trkpt lat="40.7258550" lon="-8.1016030">
        <ele>269.4</ele>
        <time>2019-06-10T08:30:14Z</time>
      </trkpt>
      <trkpt lat="40.7258210" lon="-8.1016260">
        <ele>269.6</ele>
        <time>2019-06-10T08:30:15Z</time>
      </trkpt>
      <trkpt lat="40.7257850" lon="-8.1016600">
        <ele>269.7</ele>
        <time>2019-06-10T08:30:16Z</time>
      </trkpt>
      <trkpt lat="40.7257530" lon="-8.1016850">
        <ele>269.9</ele>
        <time>2019-06-10T08:30:17Z</time>
      </trkpt>
      <trkpt lat="40.7257180" lon="-8.1017070">
        <ele>270.1</ele>
        <time>2019-06-10T08:30:18Z</time>
      </trkpt>
      <trkpt lat="40.7255790" lon="-8.1018510">
        <ele>270.8</ele>
        <time>2019-06-10T08:30:23Z</time>
      </trkpt>
      <trkpt lat="40.7254150" lon="-8.1021360">
        <ele>272.0</ele>
        <time>2019-06-10T08:30:30Z</time>
      </trkpt>
      <trkpt lat="40.7253990" lon="-8.1021670">
        <ele>272.2</ele>
        <time>2019-06-10T08:30:31Z</time>
      </trkpt>
      <trkpt lat="40.7253830" lon="-8.1022000">
        <ele>272.3</ele>
        <time>2019-06-10T08:30:32Z</time>
      </trkpt>
      <trkpt lat="40.7253570" lon="-8.1022800">
        <ele>272.6</ele>
        <time>2019-06-10T08:30:34Z</time>
      </trkpt>
      <trkpt lat="40.7253200" lon="-8.1024050">
        <ele>273.0</ele>
        <time>2019-06-10T08:30:37Z</time>
      </trkpt>
      <trkpt lat="40.7253070" lon="-8.1027170">
        <ele>273.9</ele>
        <time>2019-06-10T08:30:43Z</time>
      </trkpt>
      <trkpt lat="40.7252360" lon="-8.1032060">
        <ele>275.0</ele>
        <time>2019-06-10T08:30:50Z</time>
      </trkpt>
      <trkpt lat="40.7252180" lon="-8.1033160">
        <ele>275.3</ele>
        <time>2019-06-10T08:30:52Z</time>
      </trkpt>
      <trkpt lat="40.7252100" lon="-8.1033710">
        <ele>275.4</ele>
        <time>2019-06-10T08:30:53Z</time>
      </trkpt>
      <trkpt lat="40.7252030" lon="-8.1034240">
        <ele>275.5</ele>
        <time>2019-06-10T08:30:54Z</time>
      </trkpt>
      <trkpt lat="40.7251930" lon="-8.1034770">
        <ele>275.7</ele>
        <time>2019-06-10T08:30:55Z</time>
      </trkpt>
      <trkpt lat="40.7251820" lon="-8.1035280">
        <ele>275.8</ele>
        <time>2019-06-10T08:30:56Z</time>
      </trkpt>
      <trkpt lat="40.7251630" lon="-8.1036300">
        <ele>276.0</ele>
        <time>2019-06-10T08:30:58Z</time>
      </trkpt>
      <trkpt lat="40.7251240" lon="-8.1037800">
        <ele>276.2</ele>
        <time>2019-06-10T08:31:01Z</time>
      </trkpt>
      <trkpt lat="40.7250400" lon="-8.1039640">
        <ele>276.6</ele>
        <time>2019-06-10T08:31:05Z</time>
      </trkpt>
      <trkpt lat="40.7249100" lon="-8.1041640">
        <ele>277.1</ele>
        <time>2019-06-10T08:31:10Z</time>
      </trkpt>
      <trkpt lat="40.7248820" lon="-8.1041960">
        <ele>277.2</ele>
        <time>2019-06-10T08:31:11Z</time>
      </trkpt>
      <trkpt lat="40.7248480" lon="-8.1042250">
        <ele>277.4</ele>
        <time>2019-06-10T08:31:12Z</time>
      </trkpt>
      <trkpt lat="40.7248130" lon="-8.1042530">
        <ele>277.5</ele>
        <time>2019-06-10T08:31:13Z</time>
      </trkpt>
      <trkpt lat="40.7247760" lon="-8.1042810">
        <ele>277.5</ele>
        <time>2019-06-10T08:31:14Z</time>
      </trkpt>
      <trkpt lat="40.7245290" lon="-8.1044180">
        <ele>278.2</ele>
        <time>2019-06-10T08:31:21Z</time>
      </trkpt>
      <trkpt lat="40.7243170" lon="-8.1044690">
        <ele>278.8</ele>
        <time>2019-06-10T08:31:28Z</time>
      </trkpt>
      <trkpt lat="40.7242150" lon="-8.1045140">
        <ele>279.1</ele>
        <time>2019-06-10T08:31:31Z</time>
      </trkpt>
      <trkpt lat="40.7241840" lon="-8.1045280">
        <ele>279.2</ele>
        <time>2019-06-10T08:31:32Z</time>
      </trkpt>
      <trkpt lat="40.7241490" lon="-8.1045410">
        <ele>279.3</ele>
        <time>2019-06-10T08:31:33Z</time>
      </trkpt>
      <trkpt lat="40.7241140" lon="-8.1045560">
        <ele>279.5</ele>
        <time>2019-06-10T08:31:34Z</time>
      </trkpt>
      <trkpt lat="40.7240770" lon="-8.1045700">
        <ele>279.6</ele>
        <time>2019-06-10T08:31:35Z</time>
      </trkpt>
      <trkpt lat="40.7240160" lon="-8.1046060">
        <ele>279.8</ele>
        <time>2019-06-10T08:31:37Z</time>
      </trkpt>
      <trkpt lat="40.7238050" lon="-8.1047720">
        <ele>280.5</ele>
        <time>2019-06-10T08:31:44Z</time>
      </trkpt>
      <trkpt lat="40.7236260" lon="-8.1049620">
        <ele>281.1</ele>
        <time>2019-06-10T08:31:51Z</time>
      </trkpt>
      <trkpt lat="40.7236010" lon="-8.1049920">
        <ele>281.2</ele>
        <time>2019-06-10T08:31:52Z</time>
      </trkpt>
      <trkpt lat="40.7235780" lon="-8.1050310">
        <ele>281.3</ele>
        <time>2019-06-10T08:31:53Z</time>
      </trkpt>
      <trkpt lat="40.7235490" lon="-8.1050720">
        <ele>281.4</ele>
        <time>2019-06-10T08:31:54Z</time>
      </trkpt>
      <trkpt lat="40.7235270" lon="-8.1051090">
        <ele>281.5</ele>
        <time>2019-06-10T08:31:55Z</time>
      </trkpt>
      <trkpt lat="40.7234430" lon="-8.1052670">
        <ele>281.8</ele>
        <time>2019-06-10T08:32:00Z</time>
      </trkpt>
      <trkpt lat="40.7233890" lon="-8.1055050">
        <ele>282.0</ele>
        <time>2019-06-10T08:32:05Z</time>
      </trkpt>
      <trkpt lat="40.7233460" lon="-8.1058630">
        <ele>281.7</ele>
        <time>2019-06-10T08:32:11Z</time>
      </trkpt>
      <trkpt lat="40.7233240" lon="-8.1062300">
        <ele>281.4</ele>
        <time>2019-06-10T08:32:17Z</time>
      </trkpt>
      <trkpt lat="40.7233300" lon="-8.1063040">
        <ele>281.4</ele>
        <time>2019-06-10T08:32:18Z</time>
      </trkpt>
      <trkpt lat="40.7233790" lon="-8.1064650">
        <ele>281.7</ele>
        <time>2019-06-10T08:32:21Z</time>
      </trkpt>
      <trkpt lat="40.7234070" lon="-8.1065510">
        <ele>281.9</ele>
        <time>2019-06-10T08:32:23Z</time>
      </trkpt>
      <trkpt lat="40.7234820" lon="-8.1066480">
        <ele>282.0</ele>
        <time>2019-06-10T08:32:28Z</time>
      </trkpt>
      <trkpt lat="40.7234780" lon="-8.1066460">
        <ele>282.0</ele>
        <time>2019-06-10T08:32:29Z</time>
      </trkpt>
      <trkpt lat="40.7234870" lon="-8.1066590">
        <ele>282.1</ele>
        <time>2019-06-10T08:33:11Z</time>
      </trkpt>
      <trkpt lat="40.7234820" lon="-8.1066560">
        <ele>282.1</ele>
        <time>2019-06-10T08:33:12Z</time>
      </trkpt>
      <trkpt lat="40.7235050" lon="-8.1067370">
        <ele>282.1</ele>
        <time>2019-06-10T08:33:19Z</time>
      </trkpt>
      <trkpt lat="40.7235700" lon="-8.1068260">
        <ele>282.3</ele>
        <time>2019-06-10T08:33:22Z</time>
      </trkpt>
      <trkpt lat="40.7235950" lon="-8.1068490">
        <ele>282.3</ele>
        <time>2019-06-10T08:33:23Z</time>
      </trkpt>
      <trkpt lat="40.7236200" lon="-8.1068620">
        <ele>282.1</ele>
        <time>2019-06-10T08:33:24Z</time>
      </trkpt>
      <trkpt lat="40.7236360" lon="-8.1068730">
        <ele>282.1</ele>
        <time>2019-06-10T08:33:25Z</time>
      </trkpt>
      <trkpt lat="40.7236450" lon="-8.1068770">
        <ele>282.0</ele>
        <time>2019-06-10T08:33:26Z</time>
      </trkpt>
      <trkpt lat="40.7236480" lon="-8.1068760">
        <ele>282.0</ele>
        <time>2019-06-10T08:33:27Z</time>
      </trkpt>
      <trkpt lat="40.7236730" lon="-8.1068820">
        <ele>281.9</ele>
        <time>2019-06-10T08:33:30Z</time>
      </trkpt>
      <trkpt lat="40.7236720" lon="-8.1068890">
        <ele>281.9</ele>
        <time>2019-06-10T08:33:31Z</time>
      </trkpt>
      <trkpt lat="40.7236660" lon="-8.1069160">
        <ele>281.8</ele>
        <time>2019-06-10T08:33:34Z</time>
      </trkpt>
      <trkpt lat="40.7236500" lon="-8.1069310">
        <ele>281.8</ele>
        <time>2019-06-10T08:33:52Z</time>
      </trkpt>
      <trkpt lat="40.7236750" lon="-8.1069600">
        <ele>281.7</ele>
        <time>2019-06-10T08:33:54Z</time>
      </trkpt>
      <trkpt lat="40.7238000" lon="-8.1070800">
        <ele>281.1</ele>
        <time>2019-06-10T08:33:59Z</time>
      </trkpt>
      <trkpt lat="40.7238490" lon="-8.1071480">
        <ele>281.0</ele>
        <time>2019-06-10T08:34:01Z</time>
      </trkpt>
      <trkpt lat="40.7238670" lon="-8.1071910">
        <ele>281.0</ele>
        <time>2019-06-10T08:34:02Z</time>
      </trkpt>
      <trkpt lat="40.7238860" lon="-8.1072340">
        <ele>281.0</ele>
        <time>2019-06-10T08:34:03Z</time>
      </trkpt>
      <trkpt lat="40.7239060" lon="-8.1072740">
        <ele>281.0</ele>
        <time>2019-06-10T08:34:04Z</time>
      </trkpt>
      <trkpt lat="40.7239260" lon="-8.1073160">
        <ele>281.0</ele>
        <time>2019-06-10T08:34:05Z</time>
      </trkpt>
      <trkpt lat="40.7239650" lon="-8.1073980">
        <ele>281.0</ele>
        <time>2019-06-10T08:34:07Z</time>
      </trkpt>
      <trkpt lat="40.7240260" lon="-8.1076700">
        <ele>281.0</ele>
        <time>2019-06-10T08:34:13Z</time>
      </trkpt>
      <trkpt lat="40.7240090" lon="-8.1080570">
        <ele>281.0</ele>
        <time>2019-06-10T08:34:20Z</time>
      </trkpt>
      <trkpt lat="40.7239950" lon="-8.1081160">
        <ele>281.0</ele>
        <time>2019-06-10T08:34:21Z</time>
      </trkpt>
      <trkpt lat="40.7239020" lon="-8.1083840">
        <ele>281.2</ele>
        <time>2019-06-10T08:34:26Z</time>
      </trkpt>
      <trkpt lat="40.7238220" lon="-8.1086050">
        <ele>282.3</ele>
        <time>2019-06-10T08:34:32Z</time>
      </trkpt>
      <trkpt lat="40.7236840" lon="-8.1086920">
        <ele>283.0</ele>
        <time>2019-06-10T08:34:36Z</time>
      </trkpt>
      <trkpt lat="40.7234050" lon="-8.1088630">
        <ele>284.0</ele>
        <time>2019-06-10T08:34:44Z</time>
      </trkpt>
      <trkpt lat="40.7232830" lon="-8.1088880">
        <ele>284.4</ele>
        <time>2019-06-10T08:34:47Z</time>
      </trkpt>
      <trkpt lat="40.7232420" lon="-8.1089030">
        <ele>284.6</ele>
        <time>2019-06-10T08:34:48Z</time>
      </trkpt>
      <trkpt lat="40.7232050" lon="-8.1089150">
        <ele>284.7</ele>
        <time>2019-06-10T08:34:49Z</time>
      </trkpt>
      <trkpt lat="40.7231620" lon="-8.1089270">
        <ele>284.9</ele>
        <time>2019-06-10T08:34:50Z</time>
      </trkpt>
      <trkpt lat="40.7231210" lon="-8.1089370">
        <ele>285.1</ele>
        <time>2019-06-10T08:34:51Z</time>
      </trkpt>
      <trkpt lat="40.7230810" lon="-8.1089460">
        <ele>285.4</ele>
        <time>2019-06-10T08:34:52Z</time>
      </trkpt>
      <trkpt lat="40.7227900" lon="-8.1090000">
        <ele>287.8</ele>
        <time>2019-06-10T08:35:00Z</time>
      </trkpt>
      <trkpt lat="40.7226370" lon="-8.1090120">
        <ele>289.0</ele>
        <time>2019-06-10T08:35:05Z</time>
      </trkpt>
      <trkpt lat="40.7225250" lon="-8.1090930">
        <ele>288.8</ele>
        <time>2019-06-10T08:35:10Z</time>
      </trkpt>
      <trkpt lat="40.7225330" lon="-8.1092130">
        <ele>288.6</ele>
        <time>2019-06-10T08:35:17Z</time>
      </trkpt>
      <trkpt lat="40.7225540" lon="-8.1092860">
        <ele>288.5</ele>
        <time>2019-06-10T08:35:21Z</time>
      </trkpt>
      <trkpt lat="40.7225260" lon="-8.1093060">
        <ele>288.4</ele>
        <time>2019-06-10T08:35:22Z</time>
      </trkpt>
      <trkpt lat="40.7223900" lon="-8.1093270">
        <ele>288.1</ele>
        <time>2019-06-10T08:35:26Z</time>
      </trkpt>
      <trkpt lat="40.7223100" lon="-8.1093300">
        <ele>287.9</ele>
        <time>2019-06-10T08:35:31Z</time>
      </trkpt>
      <trkpt lat="40.7223060" lon="-8.1093250">
        <ele>287.9</ele>
        <time>2019-06-10T08:40:12Z</time>
      </trkpt>
      <trkpt lat="40.7224590" lon="-8.1093740">
        <ele>287.5</ele>
        <time>2019-06-10T08:40:20Z</time>
      </trkpt>
      <trkpt lat="40.7224800" lon="-8.1093820">
        <ele>287.4</ele>
        <time>2019-06-10T08:40:21Z</time>
      </trkpt>
      <trkpt lat="40.7225000" lon="-8.1093940">
        <ele>287.4</ele>
        <time>2019-06-10T08:40:22Z</time>
      </trkpt>
      <trkpt lat="40.7225160" lon="-8.1094020">
        <ele>287.3</ele>
        <time>2019-06-10T08:40:23Z</time>
      </trkpt>
      <trkpt lat="40.7225300" lon="-8.1094040">
        <ele>287.3</ele>
        <time>2019-06-10T08:40:24Z</time>
      </trkpt>
      <trkpt lat="40.7225550" lon="-8.1093960">
        <ele>287.2</ele>
        <time>2019-06-10T08:40:25Z</time>
      </trkpt>
      <trkpt lat="40.7226300" lon="-8.1094080">
        <ele>287.1</ele>
        <time>2019-06-10T08:40:28Z</time>
      </trkpt>
      <trkpt lat="40.7227910" lon="-8.1095010">
        <ele>286.4</ele>
        <time>2019-06-10T08:40:36Z</time>
      </trkpt>
      <trkpt lat="40.7227990" lon="-8.1095590">
        <ele>286.2</ele>
        <time>2019-06-10T08:40:38Z</time>
      </trkpt>
      <trkpt lat="40.7227800" lon="-8.1096040">
        <ele>285.9</ele>
        <time>2019-06-10T08:40:40Z</time>
      </trkpt>
      <trkpt lat="40.7227150" lon="-8.1097700">
        <ele>285.0</ele>
        <time>2019-06-10T08:40:44Z</time>
      </trkpt>
      <trkpt lat="40.7227040" lon="-8.1098300">
        <ele>284.6</ele>
        <time>2019-06-10T08:40:45Z</time>
      </trkpt>
      <trkpt lat="40.7226970" lon="-8.1098900">
        <ele>284.4</ele>
        <time>2019-06-10T08:40:46Z</time>
      </trkpt>
      <trkpt lat="40.7226780" lon="-8.1099440">
        <ele>284.2</ele>
        <time>2019-06-10T08:40:47Z</time>
      </trkpt>
      <trkpt lat="40.7226460" lon="-8.1100000">
        <ele>283.9</ele>
        <time>2019-06-10T08:40:48Z</time>
      </trkpt>
      <trkpt lat="40.7226190" lon="-8.1101320">
        <ele>283.4</ele>
        <time>2019-06-10T08:40:50Z</time>
      </trkpt>
      <trkpt lat="40.7225950" lon="-8.1101900">
        <ele>283.2</ele>
        <time>2019-06-10T08:40:51Z</time>
      </trkpt>
      <trkpt lat="40.7225700" lon="-8.1102250">
        <ele>282.9</ele>
        <time>2019-06-10T08:40:52Z</time>
      </trkpt>
      <trkpt lat="40.7225440" lon="-8.1102740">
        <ele>282.4</ele>
        <time>2019-06-10T08:40:53Z</time>
      </trkpt>
      <trkpt lat="40.7225290" lon="-8.1103080">
        <ele>282.1</ele>
        <time>2019-06-10T08:40:54Z</time>
      </trkpt>
      <trkpt lat="40.7225220" lon="-8.1103340">
        <ele>281.9</ele>
        <time>2019-06-10T08:40:55Z</time>
      </trkpt>
      <trkpt lat="40.7225230" lon="-8.1103410">
        <ele>281.8</ele>
        <time>2019-06-10T08:40:57Z</time>
      </trkpt>
      <trkpt lat="40.7225110" lon="-8.1104160">
        <ele>280.9</ele>
        <time>2019-06-10T08:41:02Z</time>
      </trkpt>
      <trkpt lat="40.7226390" lon="-8.1105360">
        <ele>280.5</ele>
        <time>2019-06-10T08:41:07Z</time>
      </trkpt>
      <trkpt lat="40.7228060" lon="-8.1107100">
        <ele>280.0</ele>
        <time>2019-06-10T08:41:13Z</time>
      </trkpt>
      <trkpt lat="40.7229130" lon="-8.1108500">
        <ele>279.8</ele>
        <time>2019-06-10T08:41:19Z</time>
      </trkpt>
      <trkpt lat="40.7230440" lon="-8.1109410">
        <ele>279.2</ele>
        <time>2019-06-10T08:41:26Z</time>
      </trkpt>
      <trkpt lat="40.7231370" lon="-8.1110420">
        <ele>278.6</ele>
        <time>2019-06-10T08:41:33Z</time>
      </trkpt>
      <trkpt lat="40.7232390" lon="-8.1111560">
        <ele>277.9</ele>
        <time>2019-06-10T08:41:42Z</time>
      </trkpt>
      <trkpt lat="40.7233710" lon="-8.1112610">
        <ele>277.0</ele>
        <time>2019-06-10T08:41:48Z</time>
      </trkpt>
      <trkpt lat="40.7233730" lon="-8.1112770">
        <ele>276.9</ele>
        <time>2019-06-10T08:41:49Z</time>
      </trkpt>
      <trkpt lat="40.7233670" lon="-8.1113010">
        <ele>276.8</ele>
        <time>2019-06-10T08:41:50Z</time>
      </trkpt>
      <trkpt lat="40.7233540" lon="-8.1113220">
        <ele>276.8</ele>
        <time>2019-06-10T08:41:51Z</time>
      </trkpt>
      <trkpt lat="40.7233450" lon="-8.1113580">
        <ele>276.8</ele>
        <time>2019-06-10T08:41:52Z</time>
      </trkpt>
      <trkpt lat="40.7233420" lon="-8.1113910">
        <ele>276.8</ele>
        <time>2019-06-10T08:41:53Z</time>
      </trkpt>
      <trkpt lat="40.7232690" lon="-8.1117440">
        <ele>276.9</ele>
        <time>2019-06-10T08:42:00Z</time>
      </trkpt>
      <trkpt lat="40.7232480" lon="-8.1117840">
        <ele>276.8</ele>
        <time>2019-06-10T08:42:01Z</time>
      </trkpt>
      <trkpt lat="40.7232260" lon="-8.1118350">
        <ele>276.7</ele>
        <time>2019-06-10T08:42:02Z</time>
      </trkpt>
      <trkpt lat="40.7232060" lon="-8.1118860">
        <ele>276.6</ele>
        <time>2019-06-10T08:42:03Z</time>
      </trkpt>
      <trkpt lat="40.7231840" lon="-8.1119330">
        <ele>276.4</ele>
        <time>2019-06-10T08:42:04Z</time>
      </trkpt>
      <trkpt lat="40.7231540" lon="-8.1119950">
        <ele>276.3</ele>
        <time>2019-06-10T08:42:05Z</time>
      </trkpt>
      <trkpt lat="40.7231180" lon="-8.1120520">
        <ele>276.2</ele>
        <time>2019-06-10T08:42:06Z</time>
      </trkpt>
      <trkpt lat="40.7230910" lon="-8.1120880">
        <ele>276.1</ele>
        <time>2019-06-10T08:42:07Z</time>
      </trkpt>
      <trkpt lat="40.7230700" lon="-8.1121150">
        <ele>276.0</ele>
        <time>2019-06-10T08:42:08Z</time>
      </trkpt>
      <trkpt lat="40.7230450" lon="-8.1121340">
        <ele>276.0</ele>
        <time>2019-06-10T08:42:09Z</time>
      </trkpt>
      <trkpt lat="40.7229550" lon="-8.1121920">
        <ele>276.1</ele>
        <time>2019-06-10T08:42:12Z</time>
      </trkpt>
      <trkpt lat="40.7229000" lon="-8.1122540">
        <ele>276.2</ele>
        <time>2019-06-10T08:42:15Z</time>
      </trkpt>
      <trkpt lat="40.7229380" lon="-8.1122980">
        <ele>276.2</ele>
        <time>2019-06-10T09:03:07Z</time>
      </trkpt>
      <trkpt lat="40.7229550" lon="-8.1122860">
        <ele>276.2</ele>
        <time>2019-06-10T09:03:08Z</time>
      </trkpt>
      <trkpt lat="40.7231160" lon="-8.1121420">
        <ele>276.4</ele>
        <time>2019-06-10T09:03:14Z</time>
      </trkpt>
      <trkpt lat="40.7232090" lon="-8.1119890">
        <ele>276.5</ele>
        <time>2019-06-10T09:03:20Z</time>
      </trkpt>
      <trkpt lat="40.7232240" lon="-8.1119660">
        <ele>276.6</ele>
        <time>2019-06-10T09:03:21Z</time>
      </trkpt>
      <trkpt lat="40.7232350" lon="-8.1119450">
        <ele>276.6</ele>
        <time>2019-06-10T09:03:22Z</time>
      </trkpt>
      <trkpt lat="40.7232490" lon="-8.1119260">
        <ele>276.6</ele>
        <time>2019-06-10T09:03:23Z</time>
      </trkpt>
      <trkpt lat="40.7232540" lon="-8.1119070">
        <ele>276.6</ele>
        <time>2019-06-10T09:03:24Z</time>
      </trkpt>
      <trkpt lat="40.7232630" lon="-8.1118890">
        <ele>276.6</ele>
        <time>2019-06-10T09:03:25Z</time>
      </trkpt>
      <trkpt lat="40.7233330" lon="-8.1116630">
        <ele>276.9</ele>
        <time>2019-06-10T09:03:34Z</time>
      </trkpt>
      <trkpt lat="40.7233380" lon="-8.1114800">
        <ele>276.8</ele>
        <time>2019-06-10T09:03:40Z</time>
      </trkpt>
      <trkpt lat="40.7233440" lon="-8.1114470">
        <ele>276.8</ele>
        <time>2019-06-10T09:03:41Z</time>
      </trkpt>
      <trkpt lat="40.7233500" lon="-8.1114180">
        <ele>276.8</ele>
        <time>2019-06-10T09:03:42Z</time>
      </trkpt>
      <trkpt lat="40.7233570" lon="-8.1113880">
        <ele>276.8</ele>
        <time>2019-06-10T09:03:43Z</time>
      </trkpt>
      <trkpt lat="40.7233650" lon="-8.1113600">
        <ele>276.8</ele>
        <time>2019-06-10T09:03:44Z</time>
      </trkpt>
      <trkpt lat="40.7233740" lon="-8.1112630">
        <ele>276.9</ele>
        <time>2019-06-10T09:03:48Z</time>
      </trkpt>
      <trkpt lat="40.7233590" lon="-8.1112450">
        <ele>277.0</ele>
        <time>2019-06-10T09:03:49Z</time>
      </trkpt>
      <trkpt lat="40.7233360" lon="-8.1112240">
        <ele>277.3</ele>
        <time>2019-06-10T09:03:50Z</time>
      </trkpt>
      <trkpt lat="40.7233110" lon="-8.1112040">
        <ele>277.5</ele>
        <time>2019-06-10T09:03:51Z</time>
      </trkpt>
      <trkpt lat="40.7232870" lon="-8.1111890">
        <ele>277.6</ele>
        <time>2019-06-10T09:03:52Z</time>
      </trkpt>
      <trkpt lat="40.7232610" lon="-8.1111810">
        <ele>277.7</ele>
        <time>2019-06-10T09:03:53Z</time>
      </trkpt>
      <trkpt lat="40.7231190" lon="-8.1110660">
        <ele>278.6</ele>
        <time>2019-06-10T09:03:58Z</time>
      </trkpt>
      <trkpt lat="40.7229700" lon="-8.1109280">
        <ele>279.5</ele>
        <time>2019-06-10T09:04:04Z</time>
      </trkpt>
      <trkpt lat="40.7229390" lon="-8.1108980">
        <ele>279.6</ele>
        <time>2019-06-10T09:04:05Z</time>
      </trkpt>
      <trkpt lat="40.7229130" lon="-8.1108680">
        <ele>279.7</ele>
        <time>2019-06-10T09:04:06Z</time>
      </trkpt>
      <trkpt lat="40.7228850" lon="-8.1108370">
        <ele>279.8</ele>
        <time>2019-06-10T09:04:07Z</time>
      </trkpt>
      <trkpt lat="40.7227410" lon="-8.1106660">
        <ele>280.2</ele>
        <time>2019-06-10T09:04:13Z</time>
      </trkpt>
      <trkpt lat="40.7226090" lon="-8.1105790">
        <ele>280.5</ele>
        <time>2019-06-10T09:04:20Z</time>
      </trkpt>
      <trkpt lat="40.7225020" lon="-8.1104060">
        <ele>281.1</ele>
        <time>2019-06-10T09:04:28Z</time>
      </trkpt>
      <trkpt lat="40.7225640" lon="-8.1102490">
        <ele>282.8</ele>
        <time>2019-06-10T09:04:32Z</time>
      </trkpt>
      <trkpt lat="40.7226950" lon="-8.1099610">
        <ele>284.2</ele>
        <time>2019-06-10T09:04:40Z</time>
      </trkpt>
      <trkpt lat="40.7227070" lon="-8.1099210">
        <ele>284.3</ele>
        <time>2019-06-10T09:04:41Z</time>
      </trkpt>
      <trkpt lat="40.7227220" lon="-8.1098830">
        <ele>284.5</ele>
        <time>2019-06-10T09:04:42Z</time>
      </trkpt>
      <trkpt lat="40.7227410" lon="-8.1098470">
        <ele>284.8</ele>
        <time>2019-06-10T09:04:43Z</time>
      </trkpt>
      <trkpt lat="40.7227560" lon="-8.1098110">
        <ele>285.0</ele>
        <time>2019-06-10T09:04:44Z</time>
      </trkpt>
      <trkpt lat="40.7228020" lon="-8.1096350">
        <ele>285.9</ele>
        <time>2019-06-10T09:04:50Z</time>
      </trkpt>
      <trkpt lat="40.7228150" lon="-8.1096150">
        <ele>286.1</ele>
        <time>2019-06-10T09:04:51Z</time>
      </trkpt>
      <trkpt lat="40.7228230" lon="-8.1095980">
        <ele>286.2</ele>
        <time>2019-06-10T09:04:52Z</time>
      </trkpt>
      <trkpt lat="40.7228220" lon="-8.1095760">
        <ele>286.9</ele>
        <time>2019-06-10T09:04:53Z</time>
      </trkpt>
      <trkpt lat="40.7228150" lon="-8.1095510">
        <ele>286.9</ele>
        <time>2019-06-10T09:04:54Z</time>
      </trkpt>
      <trkpt lat="40.7228340" lon="-8.1095150">
        <ele>287.0</ele>
        <time>2019-06-10T09:04:56Z</time>
      </trkpt>
      <trkpt lat="40.7227240" lon="-8.1094720">
        <ele>287.1</ele>
        <time>2019-06-10T09:05:03Z</time>
      </trkpt>
      <trkpt lat="40.7226830" lon="-8.1094640">
        <ele>287.1</ele>
        <time>2019-06-10T09:05:05Z</time>
      </trkpt>
      <trkpt lat="40.7226580" lon="-8.1094580">
        <ele>287.1</ele>
        <time>2019-06-10T09:05:07Z</time>
      </trkpt>
      <trkpt lat="40.7225890" lon="-8.1093740">
        <ele>288.5</ele>
        <time>2019-06-10T09:05:11Z</time>
      </trkpt>
      <trkpt lat="40.7225680" lon="-8.1093600">
        <ele>287.5</ele>
        <time>2019-06-10T09:05:12Z</time>
      </trkpt>
      <trkpt lat="40.7225460" lon="-8.1093480">
        <ele>287.4</ele>
        <time>2019-06-10T09:05:13Z</time>
      </trkpt>
      <trkpt lat="40.7225340" lon="-8.1093480">
        <ele>287.4</ele>
        <time>2019-06-10T09:05:14Z</time>
      </trkpt>
      <trkpt lat="40.7225050" lon="-8.1093370">
        <ele>287.2</ele>
        <time>2019-06-10T09:05:15Z</time>
      </trkpt>
      <trkpt lat="40.7224110" lon="-8.1093490">
        <ele>286.6</ele>
        <time>2019-06-10T09:05:17Z</time>
      </trkpt>
      <trkpt lat="40.7222210" lon="-8.1093870">
        <ele>285.3</ele>
        <time>2019-06-10T09:05:22Z</time>
      </trkpt>
      <trkpt lat="40.7220950" lon="-8.1095020">
        <ele>283.8</ele>
        <time>2019-06-10T09:05:28Z</time>
      </trkpt>
      <trkpt lat="40.7219290" lon="-8.1096310">
        <ele>282.2</ele>
        <time>2019-06-10T09:05:36Z</time>
      </trkpt>
      <trkpt lat="40.7215830" lon="-8.1098040">
        <ele>279.3</ele>
        <time>2019-06-10T09:05:48Z</time>
      </trkpt>
      <trkpt lat="40.7214690" lon="-8.1099210">
        <ele>277.8</ele>
        <time>2019-06-10T09:05:53Z</time>
      </trkpt>
      <trkpt lat="40.7214530" lon="-8.1099490">
        <ele>277.5</ele>
        <time>2019-06-10T09:05:54Z</time>
      </trkpt>
      <trkpt lat="40.7214350" lon="-8.1099770">
        <ele>277.3</ele>
        <time>2019-06-10T09:05:55Z</time>
      </trkpt>
      <trkpt lat="40.7214150" lon="-8.1100010">
        <ele>277.1</ele>
        <time>2019-06-10T09:05:56Z</time>
      </trkpt>
      <trkpt lat="40.7213960" lon="-8.1100270">
        <ele>276.9</ele>
        <time>2019-06-10T09:05:57Z</time>
      </trkpt>
      <trkpt lat="40.7211590" lon="-8.1102940">
        <ele>274.6</ele>
        <time>2019-06-10T09:06:08Z</time>
      </trkpt>
      <trkpt lat="40.7209650" lon="-8.1105490">
        <ele>274.7</ele>
        <time>2019-06-10T09:06:17Z</time>
      </trkpt>
      <trkpt lat="40.7208820" lon="-8.1106740">
        <ele>275.1</ele>
        <time>2019-06-10T09:06:21Z</time>
      </trkpt>
      <trkpt lat="40.7208650" lon="-8.1107090">
        <ele>275.2</ele>
        <time>2019-06-10T09:06:22Z</time>
      </trkpt>
      <trkpt lat="40.7208480" lon="-8.1107440">
        <ele>275.3</ele>
        <time>2019-06-10T09:06:23Z</time>
      </trkpt>
      <trkpt lat="40.7208330" lon="-8.1107800">
        <ele>275.5</ele>
        <time>2019-06-10T09:06:24Z</time>
      </trkpt>
      <trkpt lat="40.7208210" lon="-8.1108150">
        <ele>275.6</ele>
        <time>2019-06-10T09:06:25Z</time>
      </trkpt>
      <trkpt lat="40.7207830" lon="-8.1109260">
        <ele>276.1</ele>
        <time>2019-06-10T09:06:28Z</time>
      </trkpt>
      <trkpt lat="40.7206810" lon="-8.1111940">
        <ele>279.1</ele>
        <time>2019-06-10T09:06:35Z</time>
      </trkpt>
      <trkpt lat="40.7206150" lon="-8.1113960">
        <ele>281.1</ele>
        <time>2019-06-10T09:06:40Z</time>
      </trkpt>
      <trkpt lat="40.7205990" lon="-8.1114410">
        <ele>281.5</ele>
        <time>2019-06-10T09:06:41Z</time>
      </trkpt>
      <trkpt lat="40.7205820" lon="-8.1114860">
        <ele>281.9</ele>
        <time>2019-06-10T09:06:42Z</time>
      </trkpt>
      <trkpt lat="40.7205630" lon="-8.1115300">
        <ele>282.3</ele>
        <time>2019-06-10T09:06:43Z</time>
      </trkpt>
      <trkpt lat="40.7205470" lon="-8.1115740">
        <ele>282.7</ele>
        <time>2019-06-10T09:06:44Z</time>
      </trkpt>
      <trkpt lat="40.7204740" lon="-8.1118330">
        <ele>284.6</ele>
        <time>2019-06-10T09:06:50Z</time>
      </trkpt>
      <trkpt lat="40.7203910" lon="-8.1120910">
        <ele>286.2</ele>
        <time>2019-06-10T09:06:57Z</time>
      </trkpt>
      <trkpt lat="40.7202690" lon="-8.1123560">
        <ele>287.6</ele>
        <time>2019-06-10T09:07:04Z</time>
      </trkpt>
      <trkpt lat="40.7202430" lon="-8.1123970">
        <ele>287.9</ele>
        <time>2019-06-10T09:07:05Z</time>
      </trkpt>
      <trkpt lat="40.7202250" lon="-8.1124390">
        <ele>288.1</ele>
        <time>2019-06-10T09:07:06Z</time>
      </trkpt>
      <trkpt lat="40.7202040" lon="-8.1124790">
        <ele>288.3</ele>
        <time>2019-06-10T09:07:07Z</time>
      </trkpt>
      <trkpt lat="40.7201850" lon="-8.1125140">
        <ele>288.4</ele>
        <time>2019-06-10T09:07:08Z</time>
      </trkpt>
      <trkpt lat="40.7200570" lon="-8.1127260">
        <ele>289.7</ele>
        <time>2019-06-10T09:07:14Z</time>
      </trkpt>
      <trkpt lat="40.7198850" lon="-8.1129750">
        <ele>291.4</ele>
        <time>2019-06-10T09:07:21Z</time>
      </trkpt>
      <trkpt lat="40.7198570" lon="-8.1130140">
        <ele>291.6</ele>
        <time>2019-06-10T09:07:22Z</time>
      </trkpt>
      <trkpt lat="40.7197700" lon="-8.1131590">
        <ele>292.6</ele>
        <time>2019-06-10T09:07:26Z</time>
      </trkpt>
      <trkpt lat="40.7197520" lon="-8.1131960">
        <ele>292.8</ele>
        <time>2019-06-10T09:07:27Z</time>
      </trkpt>
      <trkpt lat="40.7197300" lon="-8.1132290">
        <ele>293.0</ele>
        <time>2019-06-10T09:07:28Z</time>
      </trkpt>
      <trkpt lat="40.7197040" lon="-8.1132670">
        <ele>293.3</ele>
        <time>2019-06-10T09:07:29Z</time>
      </trkpt>
      <trkpt lat="40.7196790" lon="-8.1133020">
        <ele>293.6</ele>
        <time>2019-06-10T09:07:30Z</time>
      </trkpt>
      <trkpt lat="40.7195580" lon="-8.1135080">
        <ele>295.1</ele>
        <time>2019-06-10T09:07:35Z</time>
      </trkpt>
      <trkpt lat="40.7193870" lon="-8.1137950">
        <ele>297.5</ele>
        <time>2019-06-10T09:07:44Z</time>
      </trkpt>
      <trkpt lat="40.7193650" lon="-8.1138350">
        <ele>297.8</ele>
        <time>2019-06-10T09:07:45Z</time>
      </trkpt>
      <trkpt lat="40.7193440" lon="-8.1138710">
        <ele>298.2</ele>
        <time>2019-06-10T09:07:46Z</time>
      </trkpt>
      <trkpt lat="40.7193260" lon="-8.1139080">
        <ele>298.2</ele>
        <time>2019-06-10T09:07:47Z</time>
      </trkpt>
      <trkpt lat="40.7193100" lon="-8.1139530">
        <ele>298.2</ele>
        <time>2019-06-10T09:07:48Z</time>
      </trkpt>
      <trkpt lat="40.7192340" lon="-8.1142070">
        <ele>298.4</ele>
        <time>2019-06-10T09:07:53Z</time>
      </trkpt>
      <trkpt lat="40.7191540" lon="-8.1144740">
        <ele>298.7</ele>
        <time>2019-06-10T09:07:59Z</time>
      </trkpt>
      <trkpt lat="40.7191020" lon="-8.1147400">
        <ele>299.1</ele>
        <time>2019-06-10T09:08:06Z</time>
      </trkpt>
      <trkpt lat="40.7190990" lon="-8.1147800">
        <ele>299.1</ele>
        <time>2019-06-10T09:08:07Z</time>
      </trkpt>
      <trkpt lat="40.7190950" lon="-8.1148150">
        <ele>299.3</ele>
        <time>2019-06-10T09:08:08Z</time>
      </trkpt>
      <trkpt lat="40.7190900" lon="-8.1148500">
        <ele>299.4</ele>
        <time>2019-06-10T09:08:09Z</time>
      </trkpt>
      <trkpt lat="40.7190890" lon="-8.1148860">
        <ele>299.5</ele>
        <time>2019-06-10T09:08:10Z</time>
      </trkpt>
      <trkpt lat="40.7190870" lon="-8.1149210">
        <ele>299.5</ele>
        <time>2019-06-10T09:08:11Z</time>
      </trkpt>
      <trkpt lat="40.7190810" lon="-8.1149910">
        <ele>299.7</ele>
        <time>2019-06-10T09:08:13Z</time>
      </trkpt>
      <trkpt lat="40.7190630" lon="-8.1152260">
        <ele>300.2</ele>
        <time>2019-06-10T09:08:19Z</time>
      </trkpt>
      <trkpt lat="40.7190780" lon="-8.1154670">
        <ele>300.7</ele>
        <time>2019-06-10T09:08:25Z</time>
      </trkpt>
      <trkpt lat="40.7190290" lon="-8.1157600">
        <ele>301.2</ele>
        <time>2019-06-10T09:08:32Z</time>
      </trkpt>
      <trkpt lat="40.7190130" lon="-8.1158010">
        <ele>301.2</ele>
        <time>2019-06-10T09:08:33Z</time>
      </trkpt>
      <trkpt lat="40.7189760" lon="-8.1158520">
        <ele>301.3</ele>
        <time>2019-06-10T09:08:34Z</time>
      </trkpt>
      <trkpt lat="40.7189590" lon="-8.1158900">
        <ele>301.4</ele>
        <time>2019-06-10T09:08:35Z</time>
      </trkpt>
      <trkpt lat="40.7189410" lon="-8.1159290">
        <ele>301.5</ele>
        <time>2019-06-10T09:08:36Z</time>
      </trkpt>
      <trkpt lat="40.7188900" lon="-8.1160360">
        <ele>301.6</ele>
        <time>2019-06-10T09:08:39Z</time>
      </trkpt>
      <trkpt lat="40.7187510" lon="-8.1162210">
        <ele>302.0</ele>
        <time>2019-06-10T09:08:45Z</time>
      </trkpt>
      <trkpt lat="40.7185880" lon="-8.1163940">
        <ele>302.4</ele>
        <time>2019-06-10T09:08:52Z</time>
      </trkpt>
      <trkpt lat="40.7183340" lon="-8.1165730">
        <ele>303.0</ele>
        <time>2019-06-10T09:09:00Z</time>
      </trkpt>
      <trkpt lat="40.7183060" lon="-8.1165970">
        <ele>303.1</ele>
        <time>2019-06-10T09:09:01Z</time>
      </trkpt>
      <trkpt lat="40.7182770" lon="-8.1166250">
        <ele>303.2</ele>
        <time>2019-06-10T09:09:02Z</time>
      </trkpt>
      <trkpt lat="40.7182530" lon="-8.1166510">
        <ele>303.3</ele>
        <time>2019-06-10T09:09:03Z</time>
      </trkpt>
      <trkpt lat="40.7182280" lon="-8.1166770">
        <ele>303.4</ele>
        <time>2019-06-10T09:09:04Z</time>
      </trkpt>
      <trkpt lat="40.7181580" lon="-8.1167510">
        <ele>303.6</ele>
        <time>2019-06-10T09:09:07Z</time>
      </trkpt>
      <trkpt lat="40.7180010" lon="-8.1170960">
        <ele>304.5</ele>
        <time>2019-06-10T09:09:15Z</time>
      </trkpt>
      <trkpt lat="40.7179110" lon="-8.1173930">
        <ele>305.3</ele>
        <time>2019-06-10T09:09:23Z</time>
      </trkpt>
      <trkpt lat="40.7179060" lon="-8.1174320">
        <ele>305.4</ele>
        <time>2019-06-10T09:09:24Z</time>
      </trkpt>
      <trkpt lat="40.7178970" lon="-8.1174700">
        <ele>305.5</ele>
        <time>2019-06-10T09:09:25Z</time>
      </trkpt>
      <trkpt lat="40.7178890" lon="-8.1175070">
        <ele>305.5</ele>
        <time>2019-06-10T09:09:26Z</time>
      </trkpt>
      <trkpt lat="40.7178790" lon="-8.1175430">
        <ele>305.6</ele>
        <time>2019-06-10T09:09:27Z</time>
      </trkpt>
      <trkpt lat="40.7178430" lon="-8.1176600">
        <ele>305.9</ele>
        <time>2019-06-10T09:09:30Z</time>
      </trkpt>
      <trkpt lat="40.7177540" lon="-8.1179580">
        <ele>306.5</ele>
        <time>2019-06-10T09:09:38Z</time>
      </trkpt>
      <trkpt lat="40.7176250" lon="-8.1181090">
        <ele>307.1</ele>
        <time>2019-06-10T09:09:44Z</time>
      </trkpt>
      <trkpt lat="40.7175550" lon="-8.1181710">
        <ele>307.3</ele>
        <time>2019-06-10T09:09:47Z</time>
      </trkpt>
      <trkpt lat="40.7175260" lon="-8.1181930">
        <ele>307.4</ele>
        <time>2019-06-10T09:09:48Z</time>
      </trkpt>
      <trkpt lat="40.7174940" lon="-8.1182220">
        <ele>307.5</ele>
        <time>2019-06-10T09:09:49Z</time>
      </trkpt>
      <trkpt lat="40.7174640" lon="-8.1182510">
        <ele>307.6</ele>
        <time>2019-06-10T09:09:50Z</time>
      </trkpt>
      <trkpt lat="40.7174320" lon="-8.1182760">
        <ele>307.6</ele>
        <time>2019-06-10T09:09:51Z</time>
      </trkpt>
      <trkpt lat="40.7172670" lon="-8.1183950">
        <ele>308.0</ele>
        <time>2019-06-10T09:09:56Z</time>
      </trkpt>
      <trkpt lat="40.7171120" lon="-8.1185030">
        <ele>308.5</ele>
        <time>2019-06-10T09:10:02Z</time>
      </trkpt>
      <trkpt lat="40.7170240" lon="-8.1185520">
        <ele>308.8</ele>
        <time>2019-06-10T09:10:06Z</time>
      </trkpt>
      <trkpt lat="40.7169920" lon="-8.1185800">
        <ele>308.9</ele>
        <time>2019-06-10T09:10:07Z</time>
      </trkpt>
      <trkpt lat="40.7169400" lon="-8.1186280">
        <ele>309.1</ele>
        <time>2019-06-10T09:10:09Z</time>
      </trkpt>
      <trkpt lat="40.7169070" lon="-8.1186690">
        <ele>309.3</ele>
        <time>2019-06-10T09:10:10Z</time>
      </trkpt>
      <trkpt lat="40.7168860" lon="-8.1186970">
        <ele>309.4</ele>
        <time>2019-06-10T09:10:11Z</time>
      </trkpt>
      <trkpt lat="40.7168650" lon="-8.1187230">
        <ele>309.5</ele>
        <time>2019-06-10T09:10:12Z</time>
      </trkpt>
      <trkpt lat="40.7168270" lon="-8.1187690">
        <ele>309.6</ele>
        <time>2019-06-10T09:10:13Z</time>
      </trkpt>
      <trkpt lat="40.7167910" lon="-8.1187900">
        <ele>309.7</ele>
        <time>2019-06-10T09:10:14Z</time>
      </trkpt>
      <trkpt lat="40.7166170" lon="-8.1190180">
        <ele>310.3</ele>
        <time>2019-06-10T09:10:21Z</time>
      </trkpt>
      <trkpt lat="40.7164790" lon="-8.1192700">
        <ele>310.7</ele>
        <time>2019-06-10T09:10:28Z</time>
      </trkpt>
      <trkpt lat="40.7164300" lon="-8.1194910">
        <ele>311.4</ele>
        <time>2019-06-10T09:10:33Z</time>
      </trkpt>
      <trkpt lat="40.7164580" lon="-8.1195600">
        <ele>311.6</ele>
        <time>2019-06-10T09:10:35Z</time>
      </trkpt>
      <trkpt lat="40.7164570" lon="-8.1195960">
        <ele>311.6</ele>
        <time>2019-06-10T09:10:36Z</time>
      </trkpt>
      <trkpt lat="40.7164590" lon="-8.1196300">
        <ele>311.7</ele>
        <time>2019-06-10T09:10:37Z</time>
      </trkpt>
      <trkpt lat="40.7164570" lon="-8.1196620">
        <ele>311.7</ele>
        <time>2019-06-10T09:10:38Z</time>
      </trkpt>
      <trkpt lat="40.7164590" lon="-8.1197020">
        <ele>311.8</ele>
        <time>2019-06-10T09:10:39Z</time>
      </trkpt>
      <trkpt lat="40.7164920" lon="-8.1199000">
        <ele>312.2</ele>
        <time>2019-06-10T09:10:44Z</time>
      </trkpt>
      <trkpt lat="40.7165800" lon="-8.1201820">
        <ele>312.7</ele>
        <time>2019-06-10T09:10:50Z</time>
      </trkpt>
      <trkpt lat="40.7166510" lon="-8.1202880">
        <ele>312.9</ele>
        <time>2019-06-10T09:10:53Z</time>
      </trkpt>
      <trkpt lat="40.7166750" lon="-8.1203240">
        <ele>313.0</ele>
        <time>2019-06-10T09:10:54Z</time>
      </trkpt>
      <trkpt lat="40.7167000" lon="-8.1203530">
        <ele>313.1</ele>
        <time>2019-06-10T09:10:55Z</time>
      </trkpt>
      <trkpt lat="40.7167250" lon="-8.1203850">
        <ele>313.2</ele>
        <time>2019-06-10T09:10:56Z</time>
      </trkpt>
      <trkpt lat="40.7167500" lon="-8.1204140">
        <ele>313.2</ele>
        <time>2019-06-10T09:10:57Z</time>
      </trkpt>
      <trkpt lat="40.7168280" lon="-8.1204900">
        <ele>313.5</ele>
        <time>2019-06-10T09:11:00Z</time>
      </trkpt>
      <trkpt lat="40.7168600" lon="-8.1205110">
        <ele>313.6</ele>
        <time>2019-06-10T09:11:01Z</time>
      </trkpt>
      <trkpt lat="40.7169590" lon="-8.1205960">
        <ele>313.9</ele>
        <time>2019-06-10T09:11:04Z</time>
      </trkpt>
      <trkpt lat="40.7171400" lon="-8.1207780">
        <ele>314.5</ele>
        <time>2019-06-10T09:11:11Z</time>
      </trkpt>
      <trkpt lat="40.7173520" lon="-8.1209180">
        <ele>315.0</ele>
        <time>2019-06-10T09:11:18Z</time>
      </trkpt>
      <trkpt lat="40.7174040" lon="-8.1209380">
        <ele>315.1</ele>
        <time>2019-06-10T09:11:20Z</time>
      </trkpt>
      <trkpt lat="40.7174990" lon="-8.1209670">
        <ele>315.4</ele>
        <time>2019-06-10T09:11:23Z</time>
      </trkpt>
      <trkpt lat="40.7175270" lon="-8.1209680">
        <ele>315.5</ele>
        <time>2019-06-10T09:11:24Z</time>
      </trkpt>
      <trkpt lat="40.7175490" lon="-8.1209690">
        <ele>315.5</ele>
        <time>2019-06-10T09:11:25Z</time>
      </trkpt>
      <trkpt lat="40.7175790" lon="-8.1209720">
        <ele>315.6</ele>
        <time>2019-06-10T09:11:26Z</time>
      </trkpt>
      <trkpt lat="40.7176110" lon="-8.1209750">
        <ele>315.7</ele>
        <time>2019-06-10T09:11:27Z</time>
      </trkpt>
      <trkpt lat="40.7176770" lon="-8.1209810">
        <ele>315.8</ele>
        <time>2019-06-10T09:11:29Z</time>
      </trkpt>
      <trkpt lat="40.7178720" lon="-8.1210070">
        <ele>316.3</ele>
        <time>2019-06-10T09:11:35Z</time>
      </trkpt>
      <trkpt lat="40.7180870" lon="-8.1210700">
        <ele>316.9</ele>
        <time>2019-06-10T09:11:40Z</time>
      </trkpt>
      <trkpt lat="40.7181720" lon="-8.1211160">
        <ele>317.1</ele>
        <time>2019-06-10T09:11:42Z</time>
      </trkpt>
      <trkpt lat="40.7182050" lon="-8.1211290">
        <ele>317.2</ele>
        <time>2019-06-10T09:11:43Z</time>
      </trkpt>
      <trkpt lat="40.7182260" lon="-8.1211180">
        <ele>317.3</ele>
        <time>2019-06-10T09:11:44Z</time>
      </trkpt>
      <trkpt lat="40.7182540" lon="-8.1211200">
        <ele>317.3</ele>
        <time>2019-06-10T09:11:45Z</time>
      </trkpt>
      <trkpt lat="40.7182780" lon="-8.1211220">
        <ele>317.4</ele>
        <time>2019-06-10T09:11:46Z</time>
      </trkpt>
      <trkpt lat="40.7183240" lon="-8.1211310">
        <ele>317.5</ele>
        <time>2019-06-10T09:11:48Z</time>
      </trkpt>
      <trkpt lat="40.7184920" lon="-8.1213170">
        <ele>317.9</ele>
        <time>2019-06-10T09:11:56Z</time>
      </trkpt>
      <trkpt lat="40.7185780" lon="-8.1214780">
        <ele>318.1</ele>
        <time>2019-06-10T09:12:01Z</time>
      </trkpt>
      <trkpt lat="40.7185900" lon="-8.1215790">
        <ele>318.3</ele>
        <time>2019-06-10T09:12:03Z</time>
      </trkpt>
      <trkpt lat="40.7186100" lon="-8.1217400">
        <ele>318.5</ele>
        <time>2019-06-10T09:12:07Z</time>
      </trkpt>
      <trkpt lat="40.7186090" lon="-8.1217750">
        <ele>318.5</ele>
        <time>2019-06-10T09:12:08Z</time>
      </trkpt>
      <trkpt lat="40.7186130" lon="-8.1218120">
        <ele>318.5</ele>
        <time>2019-06-10T09:12:09Z</time>
      </trkpt>
      <trkpt lat="40.7186170" lon="-8.1218520">
        <ele>318.6</ele>
        <time>2019-06-10T09:12:10Z</time>
      </trkpt>
      <trkpt lat="40.7186240" lon="-8.1218960">
        <ele>318.6</ele>
        <time>2019-06-10T09:12:11Z</time>
      </trkpt>
      <trkpt lat="40.7187100" lon="-8.1223030">
        <ele>319.1</ele>
        <time>2019-06-10T09:12:20Z</time>
      </trkpt>
      <trkpt lat="40.7188320" lon="-8.1225550">
        <ele>319.7</ele>
        <time>2019-06-10T09:12:27Z</time>
      </trkpt>
      <trkpt lat="40.7190190" lon="-8.1228060">
        <ele>320.5</ele>
        <time>2019-06-10T09:12:36Z</time>
      </trkpt>
      <trkpt lat="40.7190410" lon="-8.1228520">
        <ele>320.6</ele>
        <time>2019-06-10T09:12:37Z</time>
      </trkpt>
      <trkpt lat="40.7190690" lon="-8.1228790">
        <ele>320.7</ele>
        <time>2019-06-10T09:12:38Z</time>
      </trkpt>
      <trkpt lat="40.7191000" lon="-8.1229100">
        <ele>320.8</ele>
        <time>2019-06-10T09:12:39Z</time>
      </trkpt>
      <trkpt lat="40.7191270" lon="-8.1229300">
        <ele>320.9</ele>
        <time>2019-06-10T09:12:40Z</time>
      </trkpt>
      <trkpt lat="40.7191620" lon="-8.1229630">
        <ele>321.0</ele>
        <time>2019-06-10T09:12:41Z</time>
      </trkpt>
      <trkpt lat="40.7192070" lon="-8.1230110">
        <ele>321.2</ele>
        <time>2019-06-10T09:12:43Z</time>
      </trkpt>
      <trkpt lat="40.7193960" lon="-8.1231490">
        <ele>321.7</ele>
        <time>2019-06-10T09:12:51Z</time>
      </trkpt>
      <trkpt lat="40.7194510" lon="-8.1232410">
        <ele>322.0</ele>
        <time>2019-06-10T09:12:54Z</time>
      </trkpt>
      <trkpt lat="40.7194600" lon="-8.1232820">
        <ele>322.1</ele>
        <time>2019-06-10T09:12:55Z</time>
      </trkpt>
      <trkpt lat="40.7194730" lon="-8.1233050">
        <ele>322.1</ele>
        <time>2019-06-10T09:12:56Z</time>
      </trkpt>
      <trkpt lat="40.7195130" lon="-8.1233080">
        <ele>322.2</ele>
        <time>2019-06-10T09:12:57Z</time>
      </trkpt>
      <trkpt lat="40.7195460" lon="-8.1233220">
        <ele>322.3</ele>
        <time>2019-06-10T09:12:58Z</time>
      </trkpt>
      <trkpt lat="40.7198590" lon="-8.1235810">
        <ele>323.5</ele>
        <time>2019-06-10T09:13:08Z</time>
      </trkpt>
      <trkpt lat="40.7199710" lon="-8.1237880">
        <ele>324.1</ele>
        <time>2019-06-10T09:13:14Z</time>
      </trkpt>
      <trkpt lat="40.7201530" lon="-8.1239390">
        <ele>324.7</ele>
        <time>2019-06-10T09:13:19Z</time>
      </trkpt>
      <trkpt lat="40.7201660" lon="-8.1239430">
        <ele>324.8</ele>
        <time>2019-06-10T09:13:20Z</time>
      </trkpt>
      <trkpt lat="40.7202120" lon="-8.1239620">
        <ele>325.0</ele>
        <time>2019-06-10T09:13:21Z</time>
      </trkpt>
      <trkpt lat="40.7202450" lon="-8.1239800">
        <ele>325.1</ele>
        <time>2019-06-10T09:13:22Z</time>
      </trkpt>
      <trkpt lat="40.7202750" lon="-8.1239940">
        <ele>325.2</ele>
        <time>2019-06-10T09:13:23Z</time>
      </trkpt>
      <trkpt lat="40.7203290" lon="-8.1240220">
        <ele>325.4</ele>
        <time>2019-06-10T09:13:25Z</time>
      </trkpt>
      <trkpt lat="40.7205130" lon="-8.1241290">
        <ele>325.8</ele>
        <time>2019-06-10T09:13:33Z</time>
      </trkpt>
      <trkpt lat="40.7207350" lon="-8.1242370">
        <ele>326.3</ele>
        <time>2019-06-10T09:13:41Z</time>
      </trkpt>
      <trkpt lat="40.7209420" lon="-8.1243540">
        <ele>326.6</ele>
        <time>2019-06-10T09:13:48Z</time>
      </trkpt>
      <trkpt lat="40.7210870" lon="-8.1244350">
        <ele>326.8</ele>
        <time>2019-06-10T09:13:53Z</time>
      </trkpt>
      <trkpt lat="40.7211120" lon="-8.1244490">
        <ele>326.8</ele>
        <time>2019-06-10T09:13:54Z</time>
      </trkpt>
      <trkpt lat="40.7211360" lon="-8.1244640">
        <ele>326.9</ele>
        <time>2019-06-10T09:13:55Z</time>
      </trkpt>
      <trkpt lat="40.7211640" lon="-8.1244810">
        <ele>326.9</ele>
        <time>2019-06-10T09:13:56Z</time>
      </trkpt>
      <trkpt lat="40.7211920" lon="-8.1244990">
        <ele>327.0</ele>
        <time>2019-06-10T09:13:57Z</time>
      </trkpt>
      <trkpt lat="40.7214220" lon="-8.1247070">
        <ele>327.5</ele>
        <time>2019-06-10T09:14:06Z</time>
      </trkpt>
      <trkpt lat="40.7216260" lon="-8.1249390">
        <ele>328.1</ele>
        <time>2019-06-10T09:14:15Z</time>
      </trkpt>
      <trkpt lat="40.7216690" lon="-8.1249990">
        <ele>328.2</ele>
        <time>2019-06-10T09:14:17Z</time>
      </trkpt>
      <trkpt lat="40.7216890" lon="-8.1250290">
        <ele>328.3</ele>
        <time>2019-06-10T09:14:18Z</time>
      </trkpt>
      <trkpt lat="40.7217080" lon="-8.1250620">
        <ele>328.4</ele>
        <time>2019-06-10T09:14:19Z</time>
      </trkpt>
      <trkpt lat="40.7217310" lon="-8.1250960">
        <ele>328.4</ele>
        <time>2019-06-10T09:14:20Z</time>
      </trkpt>
      <trkpt lat="40.7217530" lon="-8.1251310">
        <ele>328.5</ele>
        <time>2019-06-10T09:14:21Z</time>
      </trkpt>
      <trkpt lat="40.7218060" lon="-8.1252340">
        <ele>328.7</ele>
        <time>2019-06-10T09:14:24Z</time>
      </trkpt>
      <trkpt lat="40.7219670" lon="-8.1255220">
        <ele>329.5</ele>
        <time>2019-06-10T09:14:33Z</time>
      </trkpt>
      <trkpt lat="40.7220740" lon="-8.1257500">
        <ele>330.0</ele>
        <time>2019-06-10T09:14:40Z</time>
      </trkpt>
      <trkpt lat="40.7220960" lon="-8.1257900">
        <ele>330.1</ele>
        <time>2019-06-10T09:14:41Z</time>
      </trkpt>
      <trkpt lat="40.7221160" lon="-8.1258240">
        <ele>330.1</ele>
        <time>2019-06-10T09:14:42Z</time>
      </trkpt>
      <trkpt lat="40.7221360" lon="-8.1258630">
        <ele>330.2</ele>
        <time>2019-06-10T09:14:43Z</time>
      </trkpt>
      <trkpt lat="40.7221550" lon="-8.1259000">
        <ele>330.3</ele>
        <time>2019-06-10T09:14:44Z</time>
      </trkpt>
      <trkpt lat="40.7222460" lon="-8.1260290">
        <ele>330.7</ele>
        <time>2019-06-10T09:14:48Z</time>
      </trkpt>
      <trkpt lat="40.7224780" lon="-8.1262210">
        <ele>331.5</ele>
        <time>2019-06-10T09:14:56Z</time>
      </trkpt>
      <trkpt lat="40.7227030" lon="-8.1263400">
        <ele>332.1</ele>
        <time>2019-06-10T09:15:03Z</time>
      </trkpt>
      <trkpt lat="40.7228420" lon="-8.1263780">
        <ele>332.4</ele>
        <time>2019-06-10T09:15:07Z</time>
      </trkpt>
      <trkpt lat="40.7228780" lon="-8.1263890">
        <ele>332.5</ele>
        <time>2019-06-10T09:15:08Z</time>
      </trkpt>
      <trkpt lat="40.7229130" lon="-8.1264010">
        <ele>332.6</ele>
        <time>2019-06-10T09:15:09Z</time>
      </trkpt>
      <trkpt lat="40.7229460" lon="-8.1264130">
        <ele>332.6</ele>
        <time>2019-06-10T09:15:10Z</time>
      </trkpt>
      <trkpt lat="40.7229790" lon="-8.1264260">
        <ele>332.7</ele>
        <time>2019-06-10T09:15:11Z</time>
      </trkpt>
      <trkpt lat="40.7231860" lon="-8.1265110">
        <ele>333.4</ele>
        <time>2019-06-10T09:15:18Z</time>
      </trkpt>
      <trkpt lat="40.7233640" lon="-8.1266000">
        <ele>334.3</ele>
        <time>2019-06-10T09:15:23Z</time>
      </trkpt>
      <trkpt lat="40.7233970" lon="-8.1266260">
        <ele>334.4</ele>
        <time>2019-06-10T09:15:24Z</time>
      </trkpt>
      <trkpt lat="40.7235170" lon="-8.1267480">
        <ele>334.9</ele>
        <time>2019-06-10T09:15:28Z</time>
      </trkpt>
      <trkpt lat="40.7237530" lon="-8.1270160">
        <ele>336.1</ele>
        <time>2019-06-10T09:15:37Z</time>
      </trkpt>
      <trkpt lat="40.7237730" lon="-8.1270410">
        <ele>336.2</ele>
        <time>2019-06-10T09:15:38Z</time>
      </trkpt>
      <trkpt lat="40.7237920" lon="-8.1270640">
        <ele>336.3</ele>
        <time>2019-06-10T09:15:39Z</time>
      </trkpt>
      <trkpt lat="40.7238120" lon="-8.1270910">
        <ele>336.4</ele>
        <time>2019-06-10T09:15:40Z</time>
      </trkpt>
      <trkpt lat="40.7238310" lon="-8.1271250">
        <ele>336.5</ele>
        <time>2019-06-10T09:15:41Z</time>
      </trkpt>
      <trkpt lat="40.7238700" lon="-8.1271840">
        <ele>336.8</ele>
        <time>2019-06-10T09:15:43Z</time>
      </trkpt>
      <trkpt lat="40.7240190" lon="-8.1274990">
        <ele>337.7</ele>
        <time>2019-06-10T09:15:52Z</time>
      </trkpt>
      <trkpt lat="40.7240730" lon="-8.1276840">
        <ele>338.1</ele>
        <time>2019-06-10T09:15:57Z</time>
      </trkpt>
      <trkpt lat="40.7240780" lon="-8.1277220">
        <ele>338.1</ele>
        <time>2019-06-10T09:15:58Z</time>
      </trkpt>
      <trkpt lat="40.7240810" lon="-8.1277590">
        <ele>338.2</ele>
        <time>2019-06-10T09:15:59Z</time>
      </trkpt>
      <trkpt lat="40.7240850" lon="-8.1277980">
        <ele>338.3</ele>
        <time>2019-06-10T09:16:00Z</time>
      </trkpt>
      <trkpt lat="40.7240890" lon="-8.1278370">
        <ele>338.4</ele>
        <time>2019-06-10T09:16:01Z</time>
      </trkpt>
      <trkpt lat="40.7241070" lon="-8.1281410">
        <ele>339.0</ele>
        <time>2019-06-10T09:16:08Z</time>
      </trkpt>
      <trkpt lat="40.7241310" lon="-8.1284330">
        <ele>339.8</ele>
        <time>2019-06-10T09:16:15Z</time>
      </trkpt>
      <trkpt lat="40.7241370" lon="-8.1284750">
        <ele>339.9</ele>
        <time>2019-06-10T09:16:16Z</time>
      </trkpt>
      <trkpt lat="40.7241410" lon="-8.1285120">
        <ele>340.0</ele>
        <time>2019-06-10T09:16:17Z</time>
      </trkpt>
      <trkpt lat="40.7241480" lon="-8.1285490">
        <ele>340.1</ele>
        <time>2019-06-10T09:16:18Z</time>
      </trkpt>
      <trkpt lat="40.7241550" lon="-8.1285830">
        <ele>340.2</ele>
        <time>2019-06-10T09:16:19Z</time>
      </trkpt>
      <trkpt lat="40.7241970" lon="-8.1288080">
        <ele>340.9</ele>
        <time>2019-06-10T09:16:25Z</time>
      </trkpt>
      <trkpt lat="40.7243450" lon="-8.1291280">
        <ele>341.9</ele>
        <time>2019-06-10T09:16:34Z</time>
      </trkpt>
      <trkpt lat="40.7244910" lon="-8.1294450">
        <ele>342.4</ele>
        <time>2019-06-10T09:16:42Z</time>
      </trkpt>
      <trkpt lat="40.7244990" lon="-8.1294960">
        <ele>342.4</ele>
        <time>2019-06-10T09:16:43Z</time>
      </trkpt>
      <trkpt lat="40.7245060" lon="-8.1295400">
        <ele>342.5</ele>
        <time>2019-06-10T09:16:44Z</time>
      </trkpt>
      <trkpt lat="40.7245070" lon="-8.1295670">
        <ele>342.5</ele>
        <time>2019-06-10T09:16:45Z</time>
      </trkpt>
      <trkpt lat="40.7245220" lon="-8.1295970">
        <ele>342.5</ele>
        <time>2019-06-10T09:16:46Z</time>
      </trkpt>
      <trkpt lat="40.7245730" lon="-8.1295880">
        <ele>342.5</ele>
        <time>2019-06-10T09:16:47Z</time>
      </trkpt>
      <trkpt lat="40.7246180" lon="-8.1295960">
        <ele>342.6</ele>
        <time>2019-06-10T09:16:48Z</time>
      </trkpt>
      <trkpt lat="40.7248600" lon="-8.1297040">
        <ele>342.7</ele>
        <time>2019-06-10T09:16:55Z</time>
      </trkpt>
      <trkpt lat="40.7250720" lon="-8.1299080">
        <ele>342.5</ele>
        <time>2019-06-10T09:17:02Z</time>
      </trkpt>
      <trkpt lat="40.7252190" lon="-8.1302720">
        <ele>342.2</ele>
        <time>2019-06-10T09:17:10Z</time>
      </trkpt>
      <trkpt lat="40.7252530" lon="-8.1303800">
        <ele>342.1</ele>
        <time>2019-06-10T09:17:12Z</time>
      </trkpt>
      <trkpt lat="40.7252860" lon="-8.1305320">
        <ele>342.0</ele>
        <time>2019-06-10T09:17:15Z</time>
      </trkpt>
      <trkpt lat="40.7252960" lon="-8.1305830">
        <ele>342.0</ele>
        <time>2019-06-10T09:17:16Z</time>
      </trkpt>
      <trkpt lat="40.7253110" lon="-8.1306840">
        <ele>342.0</ele>
        <time>2019-06-10T09:17:18Z</time>
      </trkpt>
      <trkpt lat="40.7253160" lon="-8.1308970">
        <ele>341.9</ele>
        <time>2019-06-10T09:17:22Z</time>
      </trkpt>
      <trkpt lat="40.7252870" lon="-8.1313010">
        <ele>341.8</ele>
        <time>2019-06-10T09:17:30Z</time>
      </trkpt>
      <trkpt lat="40.7252840" lon="-8.1317900">
        <ele>341.6</ele>
        <time>2019-06-10T09:17:39Z</time>
      </trkpt>
      <trkpt lat="40.7253520" lon="-8.1321410">
        <ele>341.3</ele>
        <time>2019-06-10T09:17:45Z</time>
      </trkpt>
      <trkpt lat="40.7253690" lon="-8.1321940">
        <ele>341.3</ele>
        <time>2019-06-10T09:17:46Z</time>
      </trkpt>
      <trkpt lat="40.7254360" lon="-8.1323460">
        <ele>341.2</ele>
        <time>2019-06-10T09:17:49Z</time>
      </trkpt>
      <trkpt lat="40.7255300" lon="-8.1324740">
        <ele>341.2</ele>
        <time>2019-06-10T09:17:52Z</time>
      </trkpt>
      <trkpt lat="40.7257870" lon="-8.1327400">
        <ele>341.6</ele>
        <time>2019-06-10T09:17:59Z</time>
      </trkpt>
      <trkpt lat="40.7258300" lon="-8.1327670">
        <ele>341.7</ele>
        <time>2019-06-10T09:18:00Z</time>
      </trkpt>
      <trkpt lat="40.7261510" lon="-8.1329840">
        <ele>342.3</ele>
        <time>2019-06-10T09:18:08Z</time>
      </trkpt>
      <trkpt lat="40.7263540" lon="-8.1331920">
        <ele>342.8</ele>
        <time>2019-06-10T09:18:14Z</time>
      </trkpt>
      <trkpt lat="40.7264110" lon="-8.1332850">
        <ele>342.9</ele>
        <time>2019-06-10T09:18:16Z</time>
      </trkpt>
      <trkpt lat="40.7265630" lon="-8.1336310">
        <ele>343.4</ele>
        <time>2019-06-10T09:18:23Z</time>
      </trkpt>
      <trkpt lat="40.7266510" lon="-8.1338300">
        <ele>343.7</ele>
        <time>2019-06-10T09:18:27Z</time>
      </trkpt>
      <trkpt lat="40.7266710" lon="-8.1338810">
        <ele>343.8</ele>
        <time>2019-06-10T09:18:28Z</time>
      </trkpt>
      <trkpt lat="40.7266910" lon="-8.1339310">
        <ele>343.9</ele>
        <time>2019-06-10T09:18:29Z</time>
      </trkpt>
      <trkpt lat="40.7267090" lon="-8.1339830">
        <ele>344.0</ele>
        <time>2019-06-10T09:18:30Z</time>
      </trkpt>
      <trkpt lat="40.7267300" lon="-8.1340310">
        <ele>344.2</ele>
        <time>2019-06-10T09:18:31Z</time>
      </trkpt>
      <trkpt lat="40.7267670" lon="-8.1341220">
        <ele>344.4</ele>
        <time>2019-06-10T09:18:33Z</time>
      </trkpt>
      <trkpt lat="40.7268890" lon="-8.1344570">
        <ele>345.1</ele>
        <time>2019-06-10T09:18:40Z</time>
      </trkpt>
      <trkpt lat="40.7269060" lon="-8.1345070">
        <ele>345.2</ele>
        <time>2019-06-10T09:18:41Z</time>
      </trkpt>
      <trkpt lat="40.7270310" lon="-8.1348130">
        <ele>345.8</ele>
        <time>2019-06-10T09:18:48Z</time>
      </trkpt>
      <trkpt lat="40.7270500" lon="-8.1348530">
        <ele>345.9</ele>
        <time>2019-06-10T09:18:49Z</time>
      </trkpt>
      <trkpt lat="40.7270680" lon="-8.1348940">
        <ele>346.1</ele>
        <time>2019-06-10T09:18:50Z</time>
      </trkpt>
      <trkpt lat="40.7270910" lon="-8.1349360">
        <ele>346.1</ele>
        <time>2019-06-10T09:18:51Z</time>
      </trkpt>
      <trkpt lat="40.7271140" lon="-8.1349760">
        <ele>346.2</ele>
        <time>2019-06-10T09:18:52Z</time>
      </trkpt>
      <trkpt lat="40.7272760" lon="-8.1352610">
        <ele>346.8</ele>
        <time>2019-06-10T09:18:59Z</time>
      </trkpt>
      <trkpt lat="40.7274900" lon="-8.1355250">
        <ele>347.7</ele>
        <time>2019-06-10T09:19:07Z</time>
      </trkpt>
      <trkpt lat="40.7275190" lon="-8.1355550">
        <ele>347.8</ele>
        <time>2019-06-10T09:19:08Z</time>
      </trkpt>
      <trkpt lat="40.7275710" lon="-8.1356150">
        <ele>347.9</ele>
        <time>2019-06-10T09:19:10Z</time>
      </trkpt>
      <trkpt lat="40.7277860" lon="-8.1358710">
        <ele>348.7</ele>
        <time>2019-06-10T09:19:18Z</time>
      </trkpt>
      <trkpt lat="40.7280060" lon="-8.1361550">
        <ele>349.5</ele>
        <time>2019-06-10T09:19:26Z</time>
      </trkpt>
      <trkpt lat="40.7280310" lon="-8.1361920">
        <ele>349.6</ele>
        <time>2019-06-10T09:19:27Z</time>
      </trkpt>
      <trkpt lat="40.7280600" lon="-8.1362260">
        <ele>349.8</ele>
        <time>2019-06-10T09:19:28Z</time>
      </trkpt>
      <trkpt lat="40.7280880" lon="-8.1362650">
        <ele>349.9</ele>
        <time>2019-06-10T09:19:29Z</time>
      </trkpt>
      <trkpt lat="40.7281090" lon="-8.1363050">
        <ele>350.1</ele>
        <time>2019-06-10T09:19:30Z</time>
      </trkpt>
      <trkpt lat="40.7282110" lon="-8.1365040">
        <ele>350.8</ele>
        <time>2019-06-10T09:19:35Z</time>
      </trkpt>
      <trkpt lat="40.7283260" lon="-8.1368620">
        <ele>351.5</ele>
        <time>2019-06-10T09:19:43Z</time>
      </trkpt>
      <trkpt lat="40.7283830" lon="-8.1371320">
        <ele>352.1</ele>
        <time>2019-06-10T09:19:49Z</time>
      </trkpt>
      <trkpt lat="40.7283910" lon="-8.1371760">
        <ele>352.2</ele>
        <time>2019-06-10T09:19:50Z</time>
      </trkpt>
      <trkpt lat="40.7284010" lon="-8.1372230">
        <ele>352.2</ele>
        <time>2019-06-10T09:19:51Z</time>
      </trkpt>
      <trkpt lat="40.7284100" lon="-8.1372660">
        <ele>352.3</ele>
        <time>2019-06-10T09:19:52Z</time>
      </trkpt>
      <trkpt lat="40.7284190" lon="-8.1373100">
        <ele>352.4</ele>
        <time>2019-06-10T09:19:53Z</time>
      </trkpt>
      <trkpt lat="40.7284290" lon="-8.1373550">
        <ele>352.5</ele>
        <time>2019-06-10T09:19:54Z</time>
      </trkpt>
      <trkpt lat="40.7285280" lon="-8.1378400">
        <ele>353.4</ele>
        <time>2019-06-10T09:20:04Z</time>
      </trkpt>
      <trkpt lat="40.7285780" lon="-8.1380670">
        <ele>353.9</ele>
        <time>2019-06-10T09:20:09Z</time>
      </trkpt>
      <trkpt lat="40.7285870" lon="-8.1381130">
        <ele>354.0</ele>
        <time>2019-06-10T09:20:10Z</time>
      </trkpt>
      <trkpt lat="40.7285990" lon="-8.1381610">
        <ele>354.2</ele>
        <time>2019-06-10T09:20:11Z</time>
      </trkpt>
      <trkpt lat="40.7286090" lon="-8.1382060">
        <ele>354.3</ele>
        <time>2019-06-10T09:20:12Z</time>
      </trkpt>
      <trkpt lat="40.7286160" lon="-8.1382510">
        <ele>354.4</ele>
        <time>2019-06-10T09:20:13Z</time>
      </trkpt>
      <trkpt lat="40.7286240" lon="-8.1382960">
        <ele>354.5</ele>
        <time>2019-06-10T09:20:14Z</time>
      </trkpt>
      <trkpt lat="40.7286510" lon="-8.1385580">
        <ele>355.1</ele>
        <time>2019-06-10T09:20:20Z</time>
      </trkpt>
      <trkpt lat="40.7286600" lon="-8.1390000">
        <ele>355.7</ele>
        <time>2019-06-10T09:20:29Z</time>
      </trkpt>
      <trkpt lat="40.7286620" lon="-8.1390520">
        <ele>355.8</ele>
        <time>2019-06-10T09:20:30Z</time>
      </trkpt>
      <trkpt lat="40.7286640" lon="-8.1391040">
        <ele>355.9</ele>
        <time>2019-06-10T09:20:31Z</time>
      </trkpt>
      <trkpt lat="40.7286680" lon="-8.1391560">
        <ele>355.9</ele>
        <time>2019-06-10T09:20:32Z</time>
      </trkpt>
      <trkpt lat="40.7286730" lon="-8.1392050">
        <ele>356.0</ele>
        <time>2019-06-10T09:20:33Z</time>
      </trkpt>
      <trkpt lat="40.7287820" lon="-8.1395820">
        <ele>356.3</ele>
        <time>2019-06-10T09:20:41Z</time>
      </trkpt>
      <trkpt lat="40.7289910" lon="-8.1399370">
        <ele>356.7</ele>
        <time>2019-06-10T09:20:49Z</time>
      </trkpt>
      <trkpt lat="40.7292370" lon="-8.1403110">
        <ele>357.0</ele>
        <time>2019-06-10T09:20:58Z</time>
      </trkpt>
      <trkpt lat="40.7294850" lon="-8.1407560">
        <ele>357.0</ele>
        <time>2019-06-10T09:21:08Z</time>
      </trkpt>
      <trkpt lat="40.7296110" lon="-8.1410320">
        <ele>356.9</ele>
        <time>2019-06-10T09:21:15Z</time>
      </trkpt>
      <trkpt lat="40.7297750" lon="-8.1414200">
        <ele>357.0</ele>
        <time>2019-06-10T09:21:24Z</time>
      </trkpt>
      <trkpt lat="40.7298580" lon="-8.1416800">
        <ele>357.1</ele>
        <time>2019-06-10T09:21:29Z</time>
      </trkpt>
      <trkpt lat="40.7298710" lon="-8.1417950">
        <ele>357.1</ele>
        <time>2019-06-10T09:21:31Z</time>
      </trkpt>
      <trkpt lat="40.7298770" lon="-8.1421830">
        <ele>357.1</ele>
        <time>2019-06-10T09:21:38Z</time>
      </trkpt>
      <trkpt lat="40.7298060" lon="-8.1425010">
        <ele>357.2</ele>
        <time>2019-06-10T09:21:44Z</time>
      </trkpt>
      <trkpt lat="40.7297120" lon="-8.1427170">
        <ele>357.1</ele>
        <time>2019-06-10T09:21:48Z</time>
      </trkpt>
      <trkpt lat="40.7296260" lon="-8.1428670">
        <ele>356.9</ele>
        <time>2019-06-10T09:21:51Z</time>
      </trkpt>
      <trkpt lat="40.7295920" lon="-8.1429100">
        <ele>356.8</ele>
        <time>2019-06-10T09:21:52Z</time>
      </trkpt>
      <trkpt lat="40.7294110" lon="-8.1431110">
        <ele>356.1</ele>
        <time>2019-06-10T09:21:57Z</time>
      </trkpt>
      <trkpt lat="40.7290620" lon="-8.1433420">
        <ele>354.9</ele>
        <time>2019-06-10T09:22:05Z</time>
      </trkpt>
      <trkpt lat="40.7290200" lon="-8.1433460">
        <ele>354.8</ele>
        <time>2019-06-10T09:22:06Z</time>
      </trkpt>
      <trkpt lat="40.7288290" lon="-8.1433380">
        <ele>354.2</ele>
        <time>2019-06-10T09:22:10Z</time>
      </trkpt>
      <trkpt lat="40.7284720" lon="-8.1433340">
        <ele>352.8</ele>
        <time>2019-06-10T09:22:16Z</time>
      </trkpt>
      <trkpt lat="40.7284110" lon="-8.1433420">
        <ele>352.6</ele>
        <time>2019-06-10T09:22:17Z</time>
      </trkpt>
      <trkpt lat="40.7283480" lon="-8.1433520">
        <ele>352.2</ele>
        <time>2019-06-10T09:22:18Z</time>
      </trkpt>
      <trkpt lat="40.7282870" lon="-8.1433630">
        <ele>351.8</ele>
        <time>2019-06-10T09:22:19Z</time>
      </trkpt>
      <trkpt lat="40.7282220" lon="-8.1433750">
        <ele>351.4</ele>
        <time>2019-06-10T09:22:20Z</time>
      </trkpt>
      <trkpt lat="40.7280890" lon="-8.1434000">
        <ele>350.8</ele>
        <time>2019-06-10T09:22:22Z</time>
      </trkpt>
      <trkpt lat="40.7280250" lon="-8.1434130">
        <ele>350.3</ele>
        <time>2019-06-10T09:22:23Z</time>
      </trkpt>
      <trkpt lat="40.7279630" lon="-8.1434260">
        <ele>350.1</ele>
        <time>2019-06-10T09:22:24Z</time>
      </trkpt>
      <trkpt lat="40.7279010" lon="-8.1434350">
        <ele>349.9</ele>
        <time>2019-06-10T09:22:25Z</time>
      </trkpt>
      <trkpt lat="40.7278380" lon="-8.1434410">
        <ele>349.7</ele>
        <time>2019-06-10T09:22:26Z</time>
      </trkpt>
      <trkpt lat="40.7276060" lon="-8.1434370">
        <ele>348.4</ele>
        <time>2019-06-10T09:22:30Z</time>
      </trkpt>
      <trkpt lat="40.7275520" lon="-8.1434300">
        <ele>348.3</ele>
        <time>2019-06-10T09:22:31Z</time>
      </trkpt>
      <trkpt lat="40.7275110" lon="-8.1434260">
        <ele>348.3</ele>
        <time>2019-06-10T09:22:32Z</time>
      </trkpt>
      <trkpt lat="40.7274810" lon="-8.1434320">
        <ele>348.3</ele>
        <time>2019-06-10T09:22:33Z</time>
      </trkpt>
      <trkpt lat="40.7274400" lon="-8.1434210">
        <ele>348.4</ele>
        <time>2019-06-10T09:22:34Z</time>
      </trkpt>
      <trkpt lat="40.7273970" lon="-8.1434090">
        <ele>348.5</ele>
        <time>2019-06-10T09:22:35Z</time>
      </trkpt>
      <trkpt lat="40.7271150" lon="-8.1432930">
        <ele>350.0</ele>
        <time>2019-06-10T09:22:42Z</time>
      </trkpt>
      <trkpt lat="40.7267870" lon="-8.1431080">
        <ele>351.8</ele>
        <time>2019-06-10T09:22:50Z</time>
      </trkpt>
      <trkpt lat="40.7263820" lon="-8.1428800">
        <ele>353.1</ele>
        <time>2019-06-10T09:22:59Z</time>
      </trkpt>
      <trkpt lat="40.7261380" lon="-8.1427630">
        <ele>353.1</ele>
        <time>2019-06-10T09:23:05Z</time>
      </trkpt>
      <trkpt lat="40.7258180" lon="-8.1426920">
        <ele>352.2</ele>
        <time>2019-06-10T09:23:12Z</time>
      </trkpt>
      <trkpt lat="40.7257190" lon="-8.1426910">
        <ele>351.6</ele>
        <time>2019-06-10T09:23:14Z</time>
      </trkpt>
      <trkpt lat="40.7255740" lon="-8.1427250">
        <ele>350.7</ele>
        <time>2019-06-10T09:23:17Z</time>
      </trkpt>
      <trkpt lat="40.7252690" lon="-8.1428600">
        <ele>349.6</ele>
        <time>2019-06-10T09:23:24Z</time>
      </trkpt>
      <trkpt lat="40.7249200" lon="-8.1430580">
        <ele>350.1</ele>
        <time>2019-06-10T09:23:32Z</time>
      </trkpt>
      <trkpt lat="40.7246640" lon="-8.1432010">
        <ele>352.1</ele>
        <time>2019-06-10T09:23:38Z</time>
      </trkpt>
      <trkpt lat="40.7244030" lon="-8.1432940">
        <ele>355.0</ele>
        <time>2019-06-10T09:23:44Z</time>
      </trkpt>
      <trkpt lat="40.7243570" lon="-8.1432990">
        <ele>355.4</ele>
        <time>2019-06-10T09:23:45Z</time>
      </trkpt>
      <trkpt lat="40.7240080" lon="-8.1433780">
        <ele>358.6</ele>
        <time>2019-06-10T09:23:53Z</time>
      </trkpt>
      <trkpt lat="40.7237240" lon="-8.1434570">
        <ele>360.7</ele>
        <time>2019-06-10T09:24:00Z</time>
      </trkpt>
      <trkpt lat="40.7235560" lon="-8.1434770">
        <ele>361.3</ele>
        <time>2019-06-10T09:24:04Z</time>
      </trkpt>
      <trkpt lat="40.7235120" lon="-8.1434840">
        <ele>361.4</ele>
        <time>2019-06-10T09:24:05Z</time>
      </trkpt>
      <trkpt lat="40.7234660" lon="-8.1434840">
        <ele>361.5</ele>
        <time>2019-06-10T09:24:06Z</time>
      </trkpt>
      <trkpt lat="40.7234210" lon="-8.1434880">
        <ele>361.5</ele>
        <time>2019-06-10T09:24:07Z</time>
      </trkpt>
      <trkpt lat="40.7233830" lon="-8.1434800">
        <ele>361.5</ele>
        <time>2019-06-10T09:24:08Z</time>
      </trkpt>
      <trkpt lat="40.7232130" lon="-8.1435050">
        <ele>361.0</ele>
        <time>2019-06-10T09:24:12Z</time>
      </trkpt>
      <trkpt lat="40.7229530" lon="-8.1435410">
        <ele>360.5</ele>
        <time>2019-06-10T09:24:18Z</time>
      </trkpt>
      <trkpt lat="40.7229060" lon="-8.1435390">
        <ele>360.5</ele>
        <time>2019-06-10T09:24:19Z</time>
      </trkpt>
      <trkpt lat="40.7225970" lon="-8.1435270">
        <ele>361.3</ele>
        <time>2019-06-10T09:24:26Z</time>
      </trkpt>
      <trkpt lat="40.7222290" lon="-8.1434680">
        <ele>362.3</ele>
        <time>2019-06-10T09:24:34Z</time>
      </trkpt>
      <trkpt lat="40.7221770" lon="-8.1434600">
        <ele>362.3</ele>
        <time>2019-06-10T09:24:35Z</time>
      </trkpt>
      <trkpt lat="40.7219140" lon="-8.1433870">
        <ele>362.5</ele>
        <time>2019-06-10T09:24:41Z</time>
      </trkpt>
      <trkpt lat="40.7217820" lon="-8.1434180">
        <ele>362.3</ele>
        <time>2019-06-10T09:24:44Z</time>
      </trkpt>
      <trkpt lat="40.7217390" lon="-8.1434380">
        <ele>362.1</ele>
        <time>2019-06-10T09:24:45Z</time>
      </trkpt>
      <trkpt lat="40.7216990" lon="-8.1434550">
        <ele>361.9</ele>
        <time>2019-06-10T09:24:46Z</time>
      </trkpt>
      <trkpt lat="40.7216590" lon="-8.1434710">
        <ele>361.7</ele>
        <time>2019-06-10T09:24:47Z</time>
      </trkpt>
      <trkpt lat="40.7216200" lon="-8.1434870">
        <ele>361.4</ele>
        <time>2019-06-10T09:24:48Z</time>
      </trkpt>
      <trkpt lat="40.7215830" lon="-8.1435030">
        <ele>361.2</ele>
        <time>2019-06-10T09:24:49Z</time>
      </trkpt>
      <trkpt lat="40.7214620" lon="-8.1435860">
        <ele>360.2</ele>
        <time>2019-06-10T09:24:52Z</time>
      </trkpt>
      <trkpt lat="40.7213530" lon="-8.1437030">
        <ele>359.2</ele>
        <time>2019-06-10T09:24:55Z</time>
      </trkpt>
      <trkpt lat="40.7212330" lon="-8.1438340">
        <ele>358.0</ele>
        <time>2019-06-10T09:24:58Z</time>
      </trkpt>
      <trkpt lat="40.7210960" lon="-8.1440610">
        <ele>356.6</ele>
        <time>2019-06-10T09:25:02Z</time>
      </trkpt>
      <trkpt lat="40.7208830" lon="-8.1445160">
        <ele>356.3</ele>
        <time>2019-06-10T09:25:10Z</time>
      </trkpt>
      <trkpt lat="40.7207840" lon="-8.1448650">
        <ele>357.5</ele>
        <time>2019-06-10T09:25:17Z</time>
      </trkpt>
      <trkpt lat="40.7207510" lon="-8.1451290">
        <ele>358.7</ele>
        <time>2019-06-10T09:25:22Z</time>
      </trkpt>
      <trkpt lat="40.7207670" lon="-8.1451770">
        <ele>359.0</ele>
        <time>2019-06-10T09:25:23Z</time>
      </trkpt>
      <trkpt lat="40.7207590" lon="-8.1452290">
        <ele>359.3</ele>
        <time>2019-06-10T09:25:24Z</time>
      </trkpt>
      <trkpt lat="40.7207500" lon="-8.1452830">
        <ele>359.7</ele>
        <time>2019-06-10T09:25:25Z</time>
      </trkpt>
      <trkpt lat="40.7207440" lon="-8.1453380">
        <ele>360.0</ele>
        <time>2019-06-10T09:25:26Z</time>
      </trkpt>
      <trkpt lat="40.7207310" lon="-8.1454020">
        <ele>360.3</ele>
        <time>2019-06-10T09:25:27Z</time>
      </trkpt>
      <trkpt lat="40.7207050" lon="-8.1455010">
        <ele>360.9</ele>
        <time>2019-06-10T09:25:28Z</time>
      </trkpt>
      <trkpt lat="40.7206960" lon="-8.1455710">
        <ele>361.2</ele>
        <time>2019-06-10T09:25:29Z</time>
      </trkpt>
      <trkpt lat="40.7206140" lon="-8.1460990">
        <ele>363.0</ele>
        <time>2019-06-10T09:25:38Z</time>
      </trkpt>
      <trkpt lat="40.7205930" lon="-8.1461700">
        <ele>363.4</ele>
        <time>2019-06-10T09:25:39Z</time>
      </trkpt>
      <trkpt lat="40.7205390" lon="-8.1465940">
        <ele>364.9</ele>
        <time>2019-06-10T09:25:47Z</time>
      </trkpt>
      <trkpt lat="40.7205280" lon="-8.1466450">
        <ele>365.0</ele>
        <time>2019-06-10T09:25:48Z</time>
      </trkpt>
      <trkpt lat="40.7205200" lon="-8.1466930">
        <ele>365.0</ele>
        <time>2019-06-10T09:25:49Z</time>
      </trkpt>
      <trkpt lat="40.7205080" lon="-8.1467410">
        <ele>365.0</ele>
        <time>2019-06-10T09:25:50Z</time>
      </trkpt>
      <trkpt lat="40.7204980" lon="-8.1467910">
        <ele>365.1</ele>
        <time>2019-06-10T09:25:51Z</time>
      </trkpt>
      <trkpt lat="40.7204570" lon="-8.1470430">
        <ele>365.1</ele>
        <time>2019-06-10T09:25:56Z</time>
      </trkpt>
      <trkpt lat="40.7204340" lon="-8.1473230">
        <ele>364.6</ele>
        <time>2019-06-10T09:26:02Z</time>
      </trkpt>
      <trkpt lat="40.7204320" lon="-8.1476590">
        <ele>363.9</ele>
        <time>2019-06-10T09:26:08Z</time>
      </trkpt>
      <trkpt lat="40.7204370" lon="-8.1477170">
        <ele>363.8</ele>
        <time>2019-06-10T09:26:09Z</time>
      </trkpt>
      <trkpt lat="40.7204390" lon="-8.1477840">
        <ele>363.7</ele>
        <time>2019-06-10T09:26:10Z</time>
      </trkpt>
      <trkpt lat="40.7204490" lon="-8.1478480">
        <ele>363.6</ele>
        <time>2019-06-10T09:26:11Z</time>
      </trkpt>
      <trkpt lat="40.7204570" lon="-8.1479100">
        <ele>363.5</ele>
        <time>2019-06-10T09:26:12Z</time>
      </trkpt>
      <trkpt lat="40.7204860" lon="-8.1480780">
        <ele>363.4</ele>
        <time>2019-06-10T09:26:15Z</time>
      </trkpt>
      <trkpt lat="40.7205160" lon="-8.1481940">
        <ele>363.4</ele>
        <time>2019-06-10T09:26:17Z</time>
      </trkpt>
      <trkpt lat="40.7206010" lon="-8.1484480">
        <ele>364.0</ele>
        <time>2019-06-10T09:26:22Z</time>
      </trkpt>
      <trkpt lat="40.7206630" lon="-8.1485840">
        <ele>364.6</ele>
        <time>2019-06-10T09:26:25Z</time>
      </trkpt>
      <trkpt lat="40.7207580" lon="-8.1487420">
        <ele>365.7</ele>
        <time>2019-06-10T09:26:29Z</time>
      </trkpt>
      <trkpt lat="40.7207830" lon="-8.1487810">
        <ele>366.0</ele>
        <time>2019-06-10T09:26:30Z</time>
      </trkpt>
      <trkpt lat="40.7208080" lon="-8.1488170">
        <ele>366.3</ele>
        <time>2019-06-10T09:26:31Z</time>
      </trkpt>
      <trkpt lat="40.7208400" lon="-8.1488560">
        <ele>366.7</ele>
        <time>2019-06-10T09:26:32Z</time>
      </trkpt>
      <trkpt lat="40.7208750" lon="-8.1488880">
        <ele>367.2</ele>
        <time>2019-06-10T09:26:33Z</time>
      </trkpt>
      <trkpt lat="40.7209100" lon="-8.1489230">
        <ele>367.6</ele>
        <time>2019-06-10T09:26:34Z</time>
      </trkpt>
      <trkpt lat="40.7212160" lon="-8.1491770">
        <ele>371.0</ele>
        <time>2019-06-10T09:26:42Z</time>
      </trkpt>
      <trkpt lat="40.7213400" lon="-8.1492460">
        <ele>371.9</ele>
        <time>2019-06-10T09:26:45Z</time>
      </trkpt>
      <trkpt lat="40.7213760" lon="-8.1492620">
        <ele>372.1</ele>
        <time>2019-06-10T09:26:46Z</time>
      </trkpt>
      <trkpt lat="40.7214190" lon="-8.1492820">
        <ele>372.4</ele>
        <time>2019-06-10T09:26:47Z</time>
      </trkpt>
      <trkpt lat="40.7214560" lon="-8.1492990">
        <ele>372.6</ele>
        <time>2019-06-10T09:26:48Z</time>
      </trkpt>
      <trkpt lat="40.7214940" lon="-8.1493160">
        <ele>372.8</ele>
        <time>2019-06-10T09:26:49Z</time>
      </trkpt>
      <trkpt lat="40.7215410" lon="-8.1493300">
        <ele>373.0</ele>
        <time>2019-06-10T09:26:50Z</time>
      </trkpt>
      <trkpt lat="40.7218020" lon="-8.1494100">
        <ele>373.5</ele>
        <time>2019-06-10T09:26:57Z</time>
      </trkpt>
      <trkpt lat="40.7219420" lon="-8.1494770">
        <ele>373.4</ele>
        <time>2019-06-10T09:27:01Z</time>
      </trkpt>
      <trkpt lat="40.7219670" lon="-8.1495000">
        <ele>373.3</ele>
        <time>2019-06-10T09:27:02Z</time>
      </trkpt>
      <trkpt lat="40.7219980" lon="-8.1495300">
        <ele>373.3</ele>
        <time>2019-06-10T09:27:03Z</time>
      </trkpt>
      <trkpt lat="40.7220280" lon="-8.1495610">
        <ele>373.3</ele>
        <time>2019-06-10T09:27:04Z</time>
      </trkpt>
      <trkpt lat="40.7220600" lon="-8.1495940">
        <ele>373.2</ele>
        <time>2019-06-10T09:27:05Z</time>
      </trkpt>
      <trkpt lat="40.7222520" lon="-8.1497930">
        <ele>372.9</ele>
        <time>2019-06-10T09:27:11Z</time>
      </trkpt>
      <trkpt lat="40.7223320" lon="-8.1498710">
        <ele>372.8</ele>
        <time>2019-06-10T09:27:13Z</time>
      </trkpt>
      <trkpt lat="40.7223600" lon="-8.1499060">
        <ele>372.7</ele>
        <time>2019-06-10T09:27:14Z</time>
      </trkpt>
      <trkpt lat="40.7223850" lon="-8.1499440">
        <ele>372.7</ele>
        <time>2019-06-10T09:27:15Z</time>
      </trkpt>
      <trkpt lat="40.7224070" lon="-8.1499740">
        <ele>372.7</ele>
        <time>2019-06-10T09:27:16Z</time>
      </trkpt>
      <trkpt lat="40.7224230" lon="-8.1500030">
        <ele>372.7</ele>
        <time>2019-06-10T09:27:17Z</time>
      </trkpt>
      <trkpt lat="40.7224380" lon="-8.1500320">
        <ele>372.7</ele>
        <time>2019-06-10T09:27:18Z</time>
      </trkpt>
      <trkpt lat="40.7225430" lon="-8.1502650">
        <ele>373.0</ele>
        <time>2019-06-10T09:27:25Z</time>
      </trkpt>
      <trkpt lat="40.7226640" lon="-8.1506340">
        <ele>373.1</ele>
        <time>2019-06-10T09:27:34Z</time>
      </trkpt>
      <trkpt lat="40.7227260" lon="-8.1510680">
        <ele>373.1</ele>
        <time>2019-06-10T09:27:43Z</time>
      </trkpt>
      <trkpt lat="40.7226870" lon="-8.1514560">
        <ele>373.1</ele>
        <time>2019-06-10T09:27:51Z</time>
      </trkpt>
      <trkpt lat="40.7226140" lon="-8.1517800">
        <ele>373.1</ele>
        <time>2019-06-10T09:27:58Z</time>
      </trkpt>
      <trkpt lat="40.7224560" lon="-8.1521080">
        <ele>373.1</ele>
        <time>2019-06-10T09:28:05Z</time>
      </trkpt>
      <trkpt lat="40.7223950" lon="-8.1522000">
        <ele>373.1</ele>
        <time>2019-06-10T09:28:07Z</time>
      </trkpt>
      <trkpt lat="40.7222650" lon="-8.1523650">
        <ele>373.1</ele>
        <time>2019-06-10T09:28:11Z</time>
      </trkpt>
      <trkpt lat="40.7219370" lon="-8.1526370">
        <ele>373.1</ele>
        <time>2019-06-10T09:28:19Z</time>
      </trkpt>
      <trkpt lat="40.7216020" lon="-8.1528780">
        <ele>373.1</ele>
        <time>2019-06-10T09:28:28Z</time>
      </trkpt>
      <trkpt lat="40.7213610" lon="-8.1530600">
        <ele>373.1</ele>
        <time>2019-06-10T09:28:35Z</time>
      </trkpt>
      <trkpt lat="40.7212320" lon="-8.1531940">
        <ele>373.1</ele>
        <time>2019-06-10T09:28:39Z</time>
      </trkpt>
      <trkpt lat="40.7211720" lon="-8.1532410">
        <ele>373.1</ele>
        <time>2019-06-10T09:28:41Z</time>
      </trkpt>
      <trkpt lat="40.7209460" lon="-8.1533990">
        <ele>373.1</ele>
        <time>2019-06-10T09:28:48Z</time>
      </trkpt>
      <trkpt lat="40.7207840" lon="-8.1535560">
        <ele>373.1</ele>
        <time>2019-06-10T09:28:53Z</time>
      </trkpt>
      <trkpt lat="40.7206180" lon="-8.1538690">
        <ele>373.2</ele>
        <time>2019-06-10T09:29:00Z</time>
      </trkpt>
      <trkpt lat="40.7205960" lon="-8.1539190">
        <ele>373.2</ele>
        <time>2019-06-10T09:29:01Z</time>
      </trkpt>
      <trkpt lat="40.7204010" lon="-8.1543570">
        <ele>373.2</ele>
        <time>2019-06-10T09:29:10Z</time>
      </trkpt>
      <trkpt lat="40.7203320" lon="-8.1545040">
        <ele>373.2</ele>
        <time>2019-06-10T09:29:13Z</time>
      </trkpt>
      <trkpt lat="40.7202880" lon="-8.1546570">
        <ele>373.2</ele>
        <time>2019-06-10T09:29:16Z</time>
      </trkpt>
      <trkpt lat="40.7200740" lon="-8.1550760">
        <ele>372.9</ele>
        <time>2019-06-10T09:29:25Z</time>
      </trkpt>
      <trkpt lat="40.7199200" lon="-8.1554070">
        <ele>373.0</ele>
        <time>2019-06-10T09:29:32Z</time>
      </trkpt>
      <trkpt lat="40.7198180" lon="-8.1557480">
        <ele>373.6</ele>
        <time>2019-06-10T09:29:39Z</time>
      </trkpt>
      <trkpt lat="40.7198100" lon="-8.1560810">
        <ele>373.5</ele>
        <time>2019-06-10T09:29:46Z</time>
      </trkpt>
      <trkpt lat="40.7198810" lon="-8.1564260">
        <ele>373.2</ele>
        <time>2019-06-10T09:29:53Z</time>
      </trkpt>
      <trkpt lat="40.7198740" lon="-8.1567740">
        <ele>372.0</ele>
        <time>2019-06-10T09:30:00Z</time>
      </trkpt>
      <trkpt lat="40.7198270" lon="-8.1570840">
        <ele>370.8</ele>
        <time>2019-06-10T09:30:07Z</time>
      </trkpt>
      <trkpt lat="40.7197930" lon="-8.1571140">
        <ele>370.6</ele>
        <time>2019-06-10T09:30:11Z</time>
      </trkpt>
      <trkpt lat="40.7197930" lon="-8.1571140">
        <ele>370.6</ele>
        <time>2019-06-10T09:32:04Z</time>
      </trkpt>
      <trkpt lat="40.7198120" lon="-8.1571400">
        <ele>370.5</ele>
        <time>2019-06-10T09:32:05Z</time>
      </trkpt>
      <trkpt lat="40.7198380" lon="-8.1571620">
        <ele>370.4</ele>
        <time>2019-06-10T09:32:06Z</time>
      </trkpt>
      <trkpt lat="40.7198940" lon="-8.1573630">
        <ele>370.0</ele>
        <time>2019-06-10T09:32:13Z</time>
      </trkpt>
      <trkpt lat="40.7199030" lon="-8.1573990">
        <ele>369.9</ele>
        <time>2019-06-10T09:32:14Z</time>
      </trkpt>
      <trkpt lat="40.7199130" lon="-8.1574360">
        <ele>369.9</ele>
        <time>2019-06-10T09:32:15Z</time>
      </trkpt>
      <trkpt lat="40.7199250" lon="-8.1574760">
        <ele>369.8</ele>
        <time>2019-06-10T09:32:16Z</time>
      </trkpt>
      <trkpt lat="40.7199380" lon="-8.1575160">
        <ele>369.7</ele>
        <time>2019-06-10T09:32:17Z</time>
      </trkpt>
      <trkpt lat="40.7200760" lon="-8.1578370">
        <ele>369.5</ele>
        <time>2019-06-10T09:32:25Z</time>
      </trkpt>
      <trkpt lat="40.7203200" lon="-8.1582530">
        <ele>370.5</ele>
        <time>2019-06-10T09:32:35Z</time>
      </trkpt>
      <trkpt lat="40.7205960" lon="-8.1587410">
        <ele>374.0</ele>
        <time>2019-06-10T09:32:47Z</time>
      </trkpt>
      <trkpt lat="40.7206220" lon="-8.1587770">
        <ele>374.4</ele>
        <time>2019-06-10T09:32:48Z</time>
      </trkpt>
      <trkpt lat="40.7206470" lon="-8.1588130">
        <ele>374.8</ele>
        <time>2019-06-10T09:32:49Z</time>
      </trkpt>
      <trkpt lat="40.7206970" lon="-8.1588860">
        <ele>375.6</ele>
        <time>2019-06-10T09:32:51Z</time>
      </trkpt>
      <trkpt lat="40.7207240" lon="-8.1589200">
        <ele>376.0</ele>
        <time>2019-06-10T09:32:52Z</time>
      </trkpt>
      <trkpt lat="40.7209050" lon="-8.1591010">
        <ele>377.7</ele>
        <time>2019-06-10T09:32:58Z</time>
      </trkpt>
      <trkpt lat="40.7211850" lon="-8.1592770">
        <ele>379.6</ele>
        <time>2019-06-10T09:33:06Z</time>
      </trkpt>
      <trkpt lat="40.7214880" lon="-8.1593660">
        <ele>380.7</ele>
        <time>2019-06-10T09:33:14Z</time>
      </trkpt>
      <trkpt lat="40.7215670" lon="-8.1593680">
        <ele>381.2</ele>
        <time>2019-06-10T09:33:16Z</time>
      </trkpt>
      <trkpt lat="40.7216060" lon="-8.1593680">
        <ele>381.5</ele>
        <time>2019-06-10T09:33:17Z</time>
      </trkpt>
      <trkpt lat="40.7216450" lon="-8.1593710">
        <ele>381.6</ele>
        <time>2019-06-10T09:33:18Z</time>
      </trkpt>
      <trkpt lat="40.7216820" lon="-8.1593720">
        <ele>381.9</ele>
        <time>2019-06-10T09:33:19Z</time>
      </trkpt>
      <trkpt lat="40.7217190" lon="-8.1593710">
        <ele>382.2</ele>
        <time>2019-06-10T09:33:20Z</time>
      </trkpt>
      <trkpt lat="40.7217990" lon="-8.1593600">
        <ele>382.8</ele>
        <time>2019-06-10T09:33:22Z</time>
      </trkpt>
      <trkpt lat="40.7221500" lon="-8.1592240">
        <ele>384.9</ele>
        <time>2019-06-10T09:33:31Z</time>
      </trkpt>
      <trkpt lat="40.7223050" lon="-8.1591280">
        <ele>385.8</ele>
        <time>2019-06-10T09:33:35Z</time>
      </trkpt>
      <trkpt lat="40.7223440" lon="-8.1591030">
        <ele>386.0</ele>
        <time>2019-06-10T09:33:36Z</time>
      </trkpt>
      <trkpt lat="40.7223820" lon="-8.1590770">
        <ele>386.1</ele>
        <time>2019-06-10T09:33:37Z</time>
      </trkpt>
      <trkpt lat="40.7224200" lon="-8.1590490">
        <ele>386.3</ele>
        <time>2019-06-10T09:33:38Z</time>
      </trkpt>
      <trkpt lat="40.7224640" lon="-8.1590170">
        <ele>386.5</ele>
        <time>2019-06-10T09:33:39Z</time>
      </trkpt>
      <trkpt lat="40.7225040" lon="-8.1589890">
        <ele>386.6</ele>
        <time>2019-06-10T09:33:40Z</time>
      </trkpt>
      <trkpt lat="40.7228320" lon="-8.1588410">
        <ele>387.9</ele>
        <time>2019-06-10T09:33:48Z</time>
      </trkpt>
      <trkpt lat="40.7229170" lon="-8.1588190">
        <ele>388.3</ele>
        <time>2019-06-10T09:33:50Z</time>
      </trkpt>
      <trkpt lat="40.7229980" lon="-8.1588050">
        <ele>388.7</ele>
        <time>2019-06-10T09:33:52Z</time>
      </trkpt>
      <trkpt lat="40.7230380" lon="-8.1587980">
        <ele>388.9</ele>
        <time>2019-06-10T09:33:53Z</time>
      </trkpt>
      <trkpt lat="40.7230780" lon="-8.1587900">
        <ele>389.0</ele>
        <time>2019-06-10T09:33:54Z</time>
      </trkpt>
      <trkpt lat="40.7231210" lon="-8.1587820">
        <ele>389.1</ele>
        <time>2019-06-10T09:33:55Z</time>
      </trkpt>
      <trkpt lat="40.7231580" lon="-8.1587760">
        <ele>389.2</ele>
        <time>2019-06-10T09:33:56Z</time>
      </trkpt>
      <trkpt lat="40.7233120" lon="-8.1587750">
        <ele>389.7</ele>
        <time>2019-06-10T09:34:00Z</time>
      </trkpt>
      <trkpt lat="40.7235140" lon="-8.1588100">
        <ele>390.0</ele>
        <time>2019-06-10T09:34:05Z</time>
      </trkpt>
      <trkpt lat="40.7235560" lon="-8.1588310">
        <ele>390.2</ele>
        <time>2019-06-10T09:34:06Z</time>
      </trkpt>
      <trkpt lat="40.7236000" lon="-8.1588500">
        <ele>390.5</ele>
        <time>2019-06-10T09:34:07Z</time>
      </trkpt>
      <trkpt lat="40.7236410" lon="-8.1588640">
        <ele>390.7</ele>
        <time>2019-06-10T09:34:08Z</time>
      </trkpt>
      <trkpt lat="40.7236770" lon="-8.1588750">
        <ele>390.8</ele>
        <time>2019-06-10T09:34:09Z</time>
      </trkpt>
      <trkpt lat="40.7237150" lon="-8.1588910">
        <ele>391.0</ele>
        <time>2019-06-10T09:34:10Z</time>
      </trkpt>
      <trkpt lat="40.7237910" lon="-8.1589200">
        <ele>391.4</ele>
        <time>2019-06-10T09:34:12Z</time>
      </trkpt>
      <trkpt lat="40.7240260" lon="-8.1590020">
        <ele>392.9</ele>
        <time>2019-06-10T09:34:18Z</time>
      </trkpt>
      <trkpt lat="40.7240590" lon="-8.1590190">
        <ele>393.0</ele>
        <time>2019-06-10T09:34:19Z</time>
      </trkpt>
      <trkpt lat="40.7240890" lon="-8.1590390">
        <ele>393.2</ele>
        <time>2019-06-10T09:34:20Z</time>
      </trkpt>
      <trkpt lat="40.7241220" lon="-8.1590610">
        <ele>393.5</ele>
        <time>2019-06-10T09:34:21Z</time>
      </trkpt>
      <trkpt lat="40.7241560" lon="-8.1590830">
        <ele>393.8</ele>
        <time>2019-06-10T09:34:22Z</time>
      </trkpt>
      <trkpt lat="40.7243480" lon="-8.1592580">
        <ele>395.1</ele>
        <time>2019-06-10T09:34:29Z</time>
      </trkpt>
      <trkpt lat="40.7243720" lon="-8.1592890">
        <ele>395.3</ele>
        <time>2019-06-10T09:34:30Z</time>
      </trkpt>
      <trkpt lat="40.7243970" lon="-8.1593190">
        <ele>395.6</ele>
        <time>2019-06-10T09:34:31Z</time>
      </trkpt>
      <trkpt lat="40.7244180" lon="-8.1593510">
        <ele>395.9</ele>
        <time>2019-06-10T09:34:32Z</time>
      </trkpt>
      <trkpt lat="40.7244370" lon="-8.1593820">
        <ele>396.3</ele>
        <time>2019-06-10T09:34:33Z</time>
      </trkpt>
      <trkpt lat="40.7244560" lon="-8.1594160">
        <ele>396.6</ele>
        <time>2019-06-10T09:34:34Z</time>
      </trkpt>
      <trkpt lat="40.7244750" lon="-8.1594490">
        <ele>397.0</ele>
        <time>2019-06-10T09:34:35Z</time>
      </trkpt>
      <trkpt lat="40.7246330" lon="-8.1596980">
        <ele>399.6</ele>
        <time>2019-06-10T09:34:42Z</time>
      </trkpt>
      <trkpt lat="40.7246580" lon="-8.1597310">
        <ele>400.0</ele>
        <time>2019-06-10T09:34:43Z</time>
      </trkpt>
      <trkpt lat="40.7246830" lon="-8.1597660">
        <ele>400.2</ele>
        <time>2019-06-10T09:34:44Z</time>
      </trkpt>
      <trkpt lat="40.7247040" lon="-8.1598030">
        <ele>400.4</ele>
        <time>2019-06-10T09:34:45Z</time>
      </trkpt>
      <trkpt lat="40.7247260" lon="-8.1598420">
        <ele>400.7</ele>
        <time>2019-06-10T09:34:46Z</time>
      </trkpt>
      <trkpt lat="40.7247480" lon="-8.1598770">
        <ele>401.1</ele>
        <time>2019-06-10T09:34:47Z</time>
      </trkpt>
      <trkpt lat="40.7248310" lon="-8.1600160">
        <ele>402.3</ele>
        <time>2019-06-10T09:34:51Z</time>
      </trkpt>
      <trkpt lat="40.7249140" lon="-8.1601320">
        <ele>403.4</ele>
        <time>2019-06-10T09:34:55Z</time>
      </trkpt>
      <trkpt lat="40.7249390" lon="-8.1601580">
        <ele>403.9</ele>
        <time>2019-06-10T09:34:56Z</time>
      </trkpt>
      <trkpt lat="40.7249630" lon="-8.1601850">
        <ele>404.2</ele>
        <time>2019-06-10T09:34:57Z</time>
      </trkpt>
      <trkpt lat="40.7249850" lon="-8.1602120">
        <ele>404.4</ele>
        <time>2019-06-10T09:34:58Z</time>
      </trkpt>
      <trkpt lat="40.7250080" lon="-8.1602340">
        <ele>404.7</ele>
        <time>2019-06-10T09:34:59Z</time>
      </trkpt>
      <trkpt lat="40.7251360" lon="-8.1603660">
        <ele>405.5</ele>
        <time>2019-06-10T09:35:05Z</time>
      </trkpt>
      <trkpt lat="40.7251580" lon="-8.1603900">
        <ele>405.6</ele>
        <time>2019-06-10T09:35:06Z</time>
      </trkpt>
      <trkpt lat="40.7251800" lon="-8.1604100">
        <ele>405.6</ele>
        <time>2019-06-10T09:35:07Z</time>
      </trkpt>
      <trkpt lat="40.7252030" lon="-8.1604310">
        <ele>405.6</ele>
        <time>2019-06-10T09:35:08Z</time>
      </trkpt>
      <trkpt lat="40.7252240" lon="-8.1604550">
        <ele>405.6</ele>
        <time>2019-06-10T09:35:09Z</time>
      </trkpt>
      <trkpt lat="40.7252470" lon="-8.1604790">
        <ele>405.6</ele>
        <time>2019-06-10T09:35:10Z</time>
      </trkpt>
      <trkpt lat="40.7254360" lon="-8.1606260">
        <ele>405.6</ele>
        <time>2019-06-10T09:35:18Z</time>
      </trkpt>
      <trkpt lat="40.7255860" lon="-8.1606850">
        <ele>404.8</ele>
        <time>2019-06-10T09:35:23Z</time>
      </trkpt>
      <trkpt lat="40.7257830" lon="-8.1607820">
        <ele>403.7</ele>
        <time>2019-06-10T09:35:30Z</time>
      </trkpt>
      <trkpt lat="40.7259580" lon="-8.1608950">
        <ele>403.0</ele>
        <time>2019-06-10T09:35:37Z</time>
      </trkpt>
      <trkpt lat="40.7261960" lon="-8.1610500">
        <ele>402.4</ele>
        <time>2019-06-10T09:35:44Z</time>
      </trkpt>
      <trkpt lat="40.7264250" lon="-8.1611570">
        <ele>402.1</ele>
        <time>2019-06-10T09:35:49Z</time>
      </trkpt>
      <trkpt lat="40.7264740" lon="-8.1611890">
        <ele>402.0</ele>
        <time>2019-06-10T09:35:50Z</time>
      </trkpt>
      <trkpt lat="40.7265250" lon="-8.1612310">
        <ele>402.0</ele>
        <time>2019-06-10T09:35:51Z</time>
      </trkpt>
      <trkpt lat="40.7265770" lon="-8.1612830">
        <ele>402.0</ele>
        <time>2019-06-10T09:35:52Z</time>
      </trkpt>
      <trkpt lat="40.7266230" lon="-8.1613410">
        <ele>401.5</ele>
        <time>2019-06-10T09:35:53Z</time>
      </trkpt>
      <trkpt lat="40.7267040" lon="-8.1614830">
        <ele>400.4</ele>
        <time>2019-06-10T09:35:55Z</time>
      </trkpt>
      <trkpt lat="40.7267430" lon="-8.1615620">
        <ele>399.7</ele>
        <time>2019-06-10T09:35:56Z</time>
      </trkpt>
      <trkpt lat="40.7267850" lon="-8.1616430">
        <ele>399.0</ele>
        <time>2019-06-10T09:35:57Z</time>
      </trkpt>
      <trkpt lat="40.7268290" lon="-8.1617250">
        <ele>398.4</ele>
        <time>2019-06-10T09:35:58Z</time>
      </trkpt>
      <trkpt lat="40.7268750" lon="-8.1618050">
        <ele>397.8</ele>
        <time>2019-06-10T09:35:59Z</time>
      </trkpt>
      <trkpt lat="40.7269990" lon="-8.1620610">
        <ele>396.1</ele>
        <time>2019-06-10T09:36:02Z</time>
      </trkpt>
      <trkpt lat="40.7270250" lon="-8.1621540">
        <ele>395.6</ele>
        <time>2019-06-10T09:36:03Z</time>
      </trkpt>
      <trkpt lat="40.7270490" lon="-8.1622520">
        <ele>395.1</ele>
        <time>2019-06-10T09:36:04Z</time>
      </trkpt>
      <trkpt lat="40.7270670" lon="-8.1623470">
        <ele>394.7</ele>
        <time>2019-06-10T09:36:05Z</time>
      </trkpt>
      <trkpt lat="40.7270830" lon="-8.1624420">
        <ele>394.4</ele>
        <time>2019-06-10T09:36:06Z</time>
      </trkpt>
      <trkpt lat="40.7270960" lon="-8.1625380">
        <ele>394.1</ele>
        <time>2019-06-10T09:36:07Z</time>
      </trkpt>
      <trkpt lat="40.7271110" lon="-8.1628420">
        <ele>393.7</ele>
        <time>2019-06-10T09:36:10Z</time>
      </trkpt>
      <trkpt lat="40.7270940" lon="-8.1630460">
        <ele>393.5</ele>
        <time>2019-06-10T09:36:12Z</time>
      </trkpt>
      <trkpt lat="40.7270410" lon="-8.1633530">
        <ele>393.0</ele>
        <time>2019-06-10T09:36:15Z</time>
      </trkpt>
      <trkpt lat="40.7269910" lon="-8.1635690">
        <ele>392.1</ele>
        <time>2019-06-10T09:36:17Z</time>
      </trkpt>
      <trkpt lat="40.7269660" lon="-8.1636780">
        <ele>391.5</ele>
        <time>2019-06-10T09:36:18Z</time>
      </trkpt>
      <trkpt lat="40.7269360" lon="-8.1637810">
        <ele>390.9</ele>
        <time>2019-06-10T09:36:19Z</time>
      </trkpt>
      <trkpt lat="40.7269070" lon="-8.1638890">
        <ele>390.4</ele>
        <time>2019-06-10T09:36:20Z</time>
      </trkpt>
      <trkpt lat="40.7268770" lon="-8.1639980">
        <ele>390.1</ele>
        <time>2019-06-10T09:36:21Z</time>
      </trkpt>
      <trkpt lat="40.7268460" lon="-8.1641130">
        <ele>389.9</ele>
        <time>2019-06-10T09:36:22Z</time>
      </trkpt>
      <trkpt lat="40.7267130" lon="-8.1645510">
        <ele>388.5</ele>
        <time>2019-06-10T09:36:26Z</time>
      </trkpt>
      <trkpt lat="40.7266910" lon="-8.1646640">
        <ele>388.0</ele>
        <time>2019-06-10T09:36:27Z</time>
      </trkpt>
      <trkpt lat="40.7266720" lon="-8.1647760">
        <ele>387.5</ele>
        <time>2019-06-10T09:36:28Z</time>
      </trkpt>
      <trkpt lat="40.7266570" lon="-8.1648910">
        <ele>387.2</ele>
        <time>2019-06-10T09:36:29Z</time>
      </trkpt>
      <trkpt lat="40.7266460" lon="-8.1650030">
        <ele>387.0</ele>
        <time>2019-06-10T09:36:30Z</time>
      </trkpt>
      <trkpt lat="40.7266370" lon="-8.1656710">
        <ele>385.7</ele>
        <time>2019-06-10T09:36:36Z</time>
      </trkpt>
      <trkpt lat="40.7266350" lon="-8.1657890">
        <ele>385.1</ele>
        <time>2019-06-10T09:36:37Z</time>
      </trkpt>
      <trkpt lat="40.7266340" lon="-8.1659000">
        <ele>384.5</ele>
        <time>2019-06-10T09:36:38Z</time>
      </trkpt>
      <trkpt lat="40.7266340" lon="-8.1660120">
        <ele>383.9</ele>
        <time>2019-06-10T09:36:39Z</time>
      </trkpt>
      <trkpt lat="40.7266360" lon="-8.1661220">
        <ele>383.4</ele>
        <time>2019-06-10T09:36:40Z</time>
      </trkpt>
      <trkpt lat="40.7266610" lon="-8.1668820">
        <ele>380.0</ele>
        <time>2019-06-10T09:36:47Z</time>
      </trkpt>
      <trkpt lat="40.7266670" lon="-8.1669880">
        <ele>379.7</ele>
        <time>2019-06-10T09:36:48Z</time>
      </trkpt>
      <trkpt lat="40.7266750" lon="-8.1670830">
        <ele>379.6</ele>
        <time>2019-06-10T09:36:49Z</time>
      </trkpt>
      <trkpt lat="40.7266840" lon="-8.1671860">
        <ele>379.4</ele>
        <time>2019-06-10T09:36:50Z</time>
      </trkpt>
      <trkpt lat="40.7266940" lon="-8.1672700">
        <ele>379.3</ele>
        <time>2019-06-10T09:36:51Z</time>
      </trkpt>
      <trkpt lat="40.7267300" lon="-8.1675400">
        <ele>378.9</ele>
        <time>2019-06-10T09:36:54Z</time>
      </trkpt>
      <trkpt lat="40.7267760" lon="-8.1678270">
        <ele>377.6</ele>
        <time>2019-06-10T09:36:57Z</time>
      </trkpt>
      <trkpt lat="40.7268430" lon="-8.1680090">
        <ele>376.4</ele>
        <time>2019-06-10T09:36:59Z</time>
      </trkpt>
      <trkpt lat="40.7268770" lon="-8.1680990">
        <ele>375.7</ele>
        <time>2019-06-10T09:37:00Z</time>
      </trkpt>
      <trkpt lat="40.7269100" lon="-8.1681900">
        <ele>375.1</ele>
        <time>2019-06-10T09:37:01Z</time>
      </trkpt>
      <trkpt lat="40.7269410" lon="-8.1682820">
        <ele>374.5</ele>
        <time>2019-06-10T09:37:02Z</time>
      </trkpt>
      <trkpt lat="40.7269770" lon="-8.1683790">
        <ele>373.9</ele>
        <time>2019-06-10T09:37:03Z</time>
      </trkpt>
      <trkpt lat="40.7270130" lon="-8.1684760">
        <ele>373.3</ele>
        <time>2019-06-10T09:37:04Z</time>
      </trkpt>
      <trkpt lat="40.7270460" lon="-8.1685720">
        <ele>372.8</ele>
        <time>2019-06-10T09:37:05Z</time>
      </trkpt>
      <trkpt lat="40.7270800" lon="-8.1686690">
        <ele>372.2</ele>
        <time>2019-06-10T09:37:06Z</time>
      </trkpt>
      <trkpt lat="40.7271120" lon="-8.1687620">
        <ele>371.7</ele>
        <time>2019-06-10T09:37:07Z</time>
      </trkpt>
      <trkpt lat="40.7271430" lon="-8.1688590">
        <ele>371.1</ele>
        <time>2019-06-10T09:37:08Z</time>
      </trkpt>
      <trkpt lat="40.7271780" lon="-8.1689540">
        <ele>370.6</ele>
        <time>2019-06-10T09:37:09Z</time>
      </trkpt>
      <trkpt lat="40.7272120" lon="-8.1690450">
        <ele>370.1</ele>
        <time>2019-06-10T09:37:10Z</time>
      </trkpt>
      <trkpt lat="40.7272500" lon="-8.1691380">
        <ele>370.4</ele>
        <time>2019-06-10T09:37:11Z</time>
      </trkpt>
      <trkpt lat="40.7272890" lon="-8.1692330">
        <ele>370.8</ele>
        <time>2019-06-10T09:37:12Z</time>
      </trkpt>
      <trkpt lat="40.7273250" lon="-8.1693250">
        <ele>371.2</ele>
        <time>2019-06-10T09:37:13Z</time>
      </trkpt>
      <trkpt lat="40.7274130" lon="-8.1695050">
        <ele>372.0</ele>
        <time>2019-06-10T09:37:15Z</time>
      </trkpt>
      <trkpt lat="40.7274780" lon="-8.1695830">
        <ele>372.4</ele>
        <time>2019-06-10T09:37:16Z</time>
      </trkpt>
      <trkpt lat="40.7277000" lon="-8.1696900">
        <ele>373.7</ele>
        <time>2019-06-10T09:37:19Z</time>
      </trkpt>
      <trkpt lat="40.7278450" lon="-8.1696980">
        <ele>374.9</ele>
        <time>2019-06-10T09:37:21Z</time>
      </trkpt>
      <trkpt lat="40.7279600" lon="-8.1696840">
        <ele>375.7</ele>
        <time>2019-06-10T09:37:23Z</time>
      </trkpt>
      <trkpt lat="40.7281470" lon="-8.1696100">
        <ele>376.4</ele>
        <time>2019-06-10T09:37:26Z</time>
      </trkpt>
      <trkpt lat="40.7282610" lon="-8.1695470">
        <ele>376.6</ele>
        <time>2019-06-10T09:37:28Z</time>
      </trkpt>
      <trkpt lat="40.7283310" lon="-8.1695490">
        <ele>377.7</ele>
        <time>2019-06-10T09:37:29Z</time>
      </trkpt>
      <trkpt lat="40.7283940" lon="-8.1695710">
        <ele>378.2</ele>
        <time>2019-06-10T09:37:30Z</time>
      </trkpt>
      <trkpt lat="40.7284580" lon="-8.1696060">
        <ele>378.7</ele>
        <time>2019-06-10T09:37:31Z</time>
      </trkpt>
      <trkpt lat="40.7285140" lon="-8.1696460">
        <ele>380.2</ele>
        <time>2019-06-10T09:37:32Z</time>
      </trkpt>
      <trkpt lat="40.7285680" lon="-8.1696940">
        <ele>380.6</ele>
        <time>2019-06-10T09:37:33Z</time>
      </trkpt>
      <trkpt lat="40.7286200" lon="-8.1697420">
        <ele>381.0</ele>
        <time>2019-06-10T09:37:34Z</time>
      </trkpt>
      <trkpt lat="40.7286660" lon="-8.1697890">
        <ele>381.5</ele>
        <time>2019-06-10T09:37:35Z</time>
      </trkpt>
      <trkpt lat="40.7287120" lon="-8.1698430">
        <ele>381.9</ele>
        <time>2019-06-10T09:37:36Z</time>
      </trkpt>
      <trkpt lat="40.7287540" lon="-8.1699000">
        <ele>382.3</ele>
        <time>2019-06-10T09:37:37Z</time>
      </trkpt>
      <trkpt lat="40.7287970" lon="-8.1699650">
        <ele>382.8</ele>
        <time>2019-06-10T09:37:38Z</time>
      </trkpt>
      <trkpt lat="40.7288360" lon="-8.1700260">
        <ele>383.6</ele>
        <time>2019-06-10T09:37:39Z</time>
      </trkpt>
      <trkpt lat="40.7288750" lon="-8.1700820">
        <ele>383.9</ele>
        <time>2019-06-10T09:37:40Z</time>
      </trkpt>
      <trkpt lat="40.7289110" lon="-8.1701360">
        <ele>384.1</ele>
        <time>2019-06-10T09:37:41Z</time>
      </trkpt>
      <trkpt lat="40.7289440" lon="-8.1701880">
        <ele>384.4</ele>
        <time>2019-06-10T09:37:42Z</time>
      </trkpt>
      <trkpt lat="40.7289770" lon="-8.1702390">
        <ele>384.8</ele>
        <time>2019-06-10T09:37:43Z</time>
      </trkpt>
      <trkpt lat="40.7290080" lon="-8.1702870">
        <ele>385.1</ele>
        <time>2019-06-10T09:37:44Z</time>
      </trkpt>
      <trkpt lat="40.7290340" lon="-8.1703350">
        <ele>385.3</ele>
        <time>2019-06-10T09:37:45Z</time>
      </trkpt>
      <trkpt lat="40.7290530" lon="-8.1703810">
        <ele>385.7</ele>
        <time>2019-06-10T09:37:46Z</time>
      </trkpt>
      <trkpt lat="40.7290640" lon="-8.1704270">
        <ele>385.9</ele>
        <time>2019-06-10T09:37:47Z</time>
      </trkpt>
      <trkpt lat="40.7290720" lon="-8.1704740">
        <ele>386.1</ele>
        <time>2019-06-10T09:37:48Z</time>
      </trkpt>
      <trkpt lat="40.7290820" lon="-8.1705190">
        <ele>386.3</ele>
        <time>2019-06-10T09:37:49Z</time>
      </trkpt>
      <trkpt lat="40.7291570" lon="-8.1707620">
        <ele>387.4</ele>
        <time>2019-06-10T09:37:55Z</time>
      </trkpt>
      <trkpt lat="40.7291790" lon="-8.1708290">
        <ele>387.6</ele>
        <time>2019-06-10T09:37:57Z</time>
      </trkpt>
      <trkpt lat="40.7291940" lon="-8.1708570">
        <ele>387.7</ele>
        <time>2019-06-10T09:37:58Z</time>
      </trkpt>
      <trkpt lat="40.7292130" lon="-8.1708810">
        <ele>387.9</ele>
        <time>2019-06-10T09:37:59Z</time>
      </trkpt>
      <trkpt lat="40.7292280" lon="-8.1709120">
        <ele>388.0</ele>
        <time>2019-06-10T09:38:00Z</time>
      </trkpt>
      <trkpt lat="40.7292440" lon="-8.1709420">
        <ele>388.1</ele>
        <time>2019-06-10T09:38:01Z</time>
      </trkpt>
      <trkpt lat="40.7292670" lon="-8.1709710">
        <ele>388.3</ele>
        <time>2019-06-10T09:38:02Z</time>
      </trkpt>
      <trkpt lat="40.7293340" lon="-8.1710840">
        <ele>388.9</ele>
        <time>2019-06-10T09:38:06Z</time>
      </trkpt>
      <trkpt lat="40.7293400" lon="-8.1711270">
        <ele>389.1</ele>
        <time>2019-06-10T09:38:07Z</time>
      </trkpt>
      <trkpt lat="40.7293480" lon="-8.1711590">
        <ele>389.2</ele>
        <time>2019-06-10T09:38:08Z</time>
      </trkpt>
      <trkpt lat="40.7293620" lon="-8.1711840">
        <ele>389.0</ele>
        <time>2019-06-10T09:38:09Z</time>
      </trkpt>
      <trkpt lat="40.7293750" lon="-8.1712050">
        <ele>388.9</ele>
        <time>2019-06-10T09:38:10Z</time>
      </trkpt>
      <trkpt lat="40.7294160" lon="-8.1712360">
        <ele>388.6</ele>
        <time>2019-06-10T09:38:13Z</time>
      </trkpt>
      <trkpt lat="40.7294950" lon="-8.1714360">
        <ele>387.3</ele>
        <time>2019-06-10T09:38:20Z</time>
      </trkpt>
      <trkpt lat="40.7295890" lon="-8.1715860">
        <ele>386.2</ele>
        <time>2019-06-10T09:38:26Z</time>
      </trkpt>
      <trkpt lat="40.7296110" lon="-8.1716330">
        <ele>385.8</ele>
        <time>2019-06-10T09:38:28Z</time>
      </trkpt>
      <trkpt lat="40.7296210" lon="-8.1716550">
        <ele>385.6</ele>
        <time>2019-06-10T09:38:29Z</time>
      </trkpt>
      <trkpt lat="40.7296300" lon="-8.1716730">
        <ele>385.5</ele>
        <time>2019-06-10T09:38:30Z</time>
      </trkpt>
      <trkpt lat="40.7296370" lon="-8.1716870">
        <ele>385.4</ele>
        <time>2019-06-10T09:38:31Z</time>
      </trkpt>
      <trkpt lat="40.7296440" lon="-8.1717000">
        <ele>385.2</ele>
        <time>2019-06-10T09:38:32Z</time>
      </trkpt>
      <trkpt lat="40.7296610" lon="-8.1717210">
        <ele>385.0</ele>
        <time>2019-06-10T09:38:35Z</time>
      </trkpt>
      <trkpt lat="40.7297280" lon="-8.1717460">
        <ele>384.8</ele>
        <time>2019-06-10T09:38:46Z</time>
      </trkpt>
      <trkpt lat="40.7297500" lon="-8.1717600">
        <ele>384.8</ele>
        <time>2019-06-10T09:38:47Z</time>
      </trkpt>
      <trkpt lat="40.7298980" lon="-8.1718390">
        <ele>384.5</ele>
        <time>2019-06-10T09:38:52Z</time>
      </trkpt>
      <trkpt lat="40.7301100" lon="-8.1719310">
        <ele>383.9</ele>
        <time>2019-06-10T09:38:57Z</time>
      </trkpt>
      <trkpt lat="40.7301370" lon="-8.1719420">
        <ele>383.8</ele>
        <time>2019-06-10T09:38:58Z</time>
      </trkpt>
      <trkpt lat="40.7301550" lon="-8.1719480">
        <ele>383.8</ele>
        <time>2019-06-10T09:38:59Z</time>
      </trkpt>
      <trkpt lat="40.7301760" lon="-8.1719530">
        <ele>383.7</ele>
        <time>2019-06-10T09:39:00Z</time>
      </trkpt>
      <trkpt lat="40.7301990" lon="-8.1719510">
        <ele>383.6</ele>
        <time>2019-06-10T09:39:01Z</time>
      </trkpt>
      <trkpt lat="40.7302670" lon="-8.1719580">
        <ele>383.4</ele>
        <time>2019-06-10T09:39:03Z</time>
      </trkpt>
      <trkpt lat="40.7303730" lon="-8.1719820">
        <ele>383.1</ele>
        <time>2019-06-10T09:39:06Z</time>
      </trkpt>
      <trkpt lat="40.7304090" lon="-8.1719950">
        <ele>383.0</ele>
        <time>2019-06-10T09:39:07Z</time>
      </trkpt>
      <trkpt lat="40.7304500" lon="-8.1720150">
        <ele>382.8</ele>
        <time>2019-06-10T09:39:08Z</time>
      </trkpt>
      <trkpt lat="40.7304870" lon="-8.1720410">
        <ele>382.7</ele>
        <time>2019-06-10T09:39:09Z</time>
      </trkpt>
      <trkpt lat="40.7305230" lon="-8.1720760">
        <ele>382.6</ele>
        <time>2019-06-10T09:39:10Z</time>
      </trkpt>
      <trkpt lat="40.7306040" lon="-8.1721990">
        <ele>382.2</ele>
        <time>2019-06-10T09:39:13Z</time>
      </trkpt>
      <trkpt lat="40.7306480" lon="-8.1723030">
        <ele>381.9</ele>
        <time>2019-06-10T09:39:15Z</time>
      </trkpt>
      <trkpt lat="40.7306840" lon="-8.1724130">
        <ele>381.7</ele>
        <time>2019-06-10T09:39:17Z</time>
      </trkpt>
      <trkpt lat="40.7307010" lon="-8.1724720">
        <ele>381.6</ele>
        <time>2019-06-10T09:39:18Z</time>
      </trkpt>
      <trkpt lat="40.7307220" lon="-8.1725340">
        <ele>381.4</ele>
        <time>2019-06-10T09:39:19Z</time>
      </trkpt>
      <trkpt lat="40.7307450" lon="-8.1725990">
        <ele>381.3</ele>
        <time>2019-06-10T09:39:20Z</time>
      </trkpt>
      <trkpt lat="40.7307670" lon="-8.1726640">
        <ele>381.2</ele>
        <time>2019-06-10T09:39:21Z</time>
      </trkpt>
      <trkpt lat="40.7308310" lon="-8.1728670">
        <ele>380.8</ele>
        <time>2019-06-10T09:39:24Z</time>
      </trkpt>
      <trkpt lat="40.7308500" lon="-8.1729430">
        <ele>380.6</ele>
        <time>2019-06-10T09:39:25Z</time>
      </trkpt>
      <trkpt lat="40.7308710" lon="-8.1730290">
        <ele>380.4</ele>
        <time>2019-06-10T09:39:26Z</time>
      </trkpt>
      <trkpt lat="40.7308980" lon="-8.1731120">
        <ele>380.2</ele>
        <time>2019-06-10T09:39:27Z</time>
      </trkpt>
      <trkpt lat="40.7309280" lon="-8.1731970">
        <ele>380.0</ele>
        <time>2019-06-10T09:39:28Z</time>
      </trkpt>
      <trkpt lat="40.7309580" lon="-8.1732790">
        <ele>379.7</ele>
        <time>2019-06-10T09:39:29Z</time>
      </trkpt>
      <trkpt lat="40.7309870" lon="-8.1733570">
        <ele>379.4</ele>
        <time>2019-06-10T09:39:30Z</time>
      </trkpt>
      <trkpt lat="40.7310150" lon="-8.1734380">
        <ele>379.1</ele>
        <time>2019-06-10T09:39:31Z</time>
      </trkpt>
      <trkpt lat="40.7310380" lon="-8.1735140">
        <ele>378.9</ele>
        <time>2019-06-10T09:39:32Z</time>
      </trkpt>
      <trkpt lat="40.7310610" lon="-8.1735940">
        <ele>378.6</ele>
        <time>2019-06-10T09:39:33Z</time>
      </trkpt>
      <trkpt lat="40.7311080" lon="-8.1737320">
        <ele>378.2</ele>
        <time>2019-06-10T09:39:35Z</time>
      </trkpt>
      <trkpt lat="40.7311310" lon="-8.1737860">
        <ele>378.0</ele>
        <time>2019-06-10T09:39:36Z</time>
      </trkpt>
      <trkpt lat="40.7311590" lon="-8.1738330">
        <ele>377.9</ele>
        <time>2019-06-10T09:39:37Z</time>
      </trkpt>
      <trkpt lat="40.7311910" lon="-8.1738800">
        <ele>377.7</ele>
        <time>2019-06-10T09:39:38Z</time>
      </trkpt>
      <trkpt lat="40.7312260" lon="-8.1739320">
        <ele>377.4</ele>
        <time>2019-06-10T09:39:39Z</time>
      </trkpt>
      <trkpt lat="40.7312590" lon="-8.1739890">
        <ele>377.0</ele>
        <time>2019-06-10T09:39:40Z</time>
      </trkpt>
      <trkpt lat="40.7313110" lon="-8.1741950">
        <ele>376.3</ele>
        <time>2019-06-10T09:39:43Z</time>
      </trkpt>
      <trkpt lat="40.7313260" lon="-8.1742550">
        <ele>376.2</ele>
        <time>2019-06-10T09:39:44Z</time>
      </trkpt>
      <trkpt lat="40.7313480" lon="-8.1743140">
        <ele>376.0</ele>
        <time>2019-06-10T09:39:45Z</time>
      </trkpt>
      <trkpt lat="40.7313770" lon="-8.1743660">
        <ele>375.7</ele>
        <time>2019-06-10T09:39:46Z</time>
      </trkpt>
      <trkpt lat="40.7314120" lon="-8.1744100">
        <ele>375.5</ele>
        <time>2019-06-10T09:39:47Z</time>
      </trkpt>
      <trkpt lat="40.7314850" lon="-8.1744930">
        <ele>375.2</ele>
        <time>2019-06-10T09:39:49Z</time>
      </trkpt>
      <trkpt lat="40.7315160" lon="-8.1745350">
        <ele>375.0</ele>
        <time>2019-06-10T09:39:50Z</time>
      </trkpt>
      <trkpt lat="40.7315420" lon="-8.1745800">
        <ele>374.7</ele>
        <time>2019-06-10T09:39:51Z</time>
      </trkpt>
      <trkpt lat="40.7315590" lon="-8.1746320">
        <ele>374.6</ele>
        <time>2019-06-10T09:39:52Z</time>
      </trkpt>
      <trkpt lat="40.7315670" lon="-8.1746870">
        <ele>374.6</ele>
        <time>2019-06-10T09:39:53Z</time>
      </trkpt>
      <trkpt lat="40.7315600" lon="-8.1748000">
        <ele>374.3</ele>
        <time>2019-06-10T09:39:55Z</time>
      </trkpt>
      <trkpt lat="40.7316780" lon="-8.1752160">
        <ele>374.4</ele>
        <time>2019-06-10T09:40:03Z</time>
      </trkpt>
      <trkpt lat="40.7318660" lon="-8.1756590">
        <ele>374.8</ele>
        <time>2019-06-10T09:40:12Z</time>
      </trkpt>
      <trkpt lat="40.7318870" lon="-8.1757070">
        <ele>374.8</ele>
        <time>2019-06-10T09:40:13Z</time>
      </trkpt>
      <trkpt lat="40.7319070" lon="-8.1757550">
        <ele>374.8</ele>
        <time>2019-06-10T09:40:14Z</time>
      </trkpt>
      <trkpt lat="40.7319280" lon="-8.1758020">
        <ele>374.8</ele>
        <time>2019-06-10T09:40:15Z</time>
      </trkpt>
      <trkpt lat="40.7319470" lon="-8.1758520">
        <ele>374.9</ele>
        <time>2019-06-10T09:40:16Z</time>
      </trkpt>
      <trkpt lat="40.7320510" lon="-8.1761390">
        <ele>375.0</ele>
        <time>2019-06-10T09:40:22Z</time>
      </trkpt>
      <trkpt lat="40.7320820" lon="-8.1762420">
        <ele>375.1</ele>
        <time>2019-06-10T09:40:24Z</time>
      </trkpt>
      <trkpt lat="40.7320910" lon="-8.1764880">
        <ele>375.6</ele>
        <time>2019-06-10T09:40:28Z</time>
      </trkpt>
      <trkpt lat="40.7320720" lon="-8.1765460">
        <ele>375.9</ele>
        <time>2019-06-10T09:40:29Z</time>
      </trkpt>
      <trkpt lat="40.7320550" lon="-8.1766060">
        <ele>376.2</ele>
        <time>2019-06-10T09:40:30Z</time>
      </trkpt>
      <trkpt lat="40.7320400" lon="-8.1766640">
        <ele>376.5</ele>
        <time>2019-06-10T09:40:31Z</time>
      </trkpt>
      <trkpt lat="40.7320360" lon="-8.1767270">
        <ele>376.8</ele>
        <time>2019-06-10T09:40:32Z</time>
      </trkpt>
      <trkpt lat="40.7320370" lon="-8.1767790">
        <ele>377.0</ele>
        <time>2019-06-10T09:40:33Z</time>
      </trkpt>
      <trkpt lat="40.7320380" lon="-8.1768140">
        <ele>377.1</ele>
        <time>2019-06-10T09:40:34Z</time>
      </trkpt>
      <trkpt lat="40.7320340" lon="-8.1768500">
        <ele>377.3</ele>
        <time>2019-06-10T09:40:35Z</time>
      </trkpt>
      <trkpt lat="40.7320190" lon="-8.1768860">
        <ele>377.5</ele>
        <time>2019-06-10T09:40:36Z</time>
      </trkpt>
      <trkpt lat="40.7319960" lon="-8.1769190">
        <ele>377.8</ele>
        <time>2019-06-10T09:40:37Z</time>
      </trkpt>
      <trkpt lat="40.7319620" lon="-8.1769420">
        <ele>378.1</ele>
        <time>2019-06-10T09:40:38Z</time>
      </trkpt>
      <trkpt lat="40.7319340" lon="-8.1769600">
        <ele>378.4</ele>
        <time>2019-06-10T09:40:39Z</time>
      </trkpt>
      <trkpt lat="40.7319060" lon="-8.1769720">
        <ele>378.6</ele>
        <time>2019-06-10T09:40:40Z</time>
      </trkpt>
      <trkpt lat="40.7318760" lon="-8.1769840">
        <ele>378.9</ele>
        <time>2019-06-10T09:40:41Z</time>
      </trkpt>
      <trkpt lat="40.7318430" lon="-8.1769920">
        <ele>379.1</ele>
        <time>2019-06-10T09:40:42Z</time>
      </trkpt>
      <trkpt lat="40.7316340" lon="-8.1770220">
        <ele>380.2</ele>
        <time>2019-06-10T09:40:48Z</time>
      </trkpt>
      <trkpt lat="40.7316030" lon="-8.1770280">
        <ele>380.3</ele>
        <time>2019-06-10T09:40:49Z</time>
      </trkpt>
      <trkpt lat="40.7315750" lon="-8.1770290">
        <ele>380.5</ele>
        <time>2019-06-10T09:40:50Z</time>
      </trkpt>
      <trkpt lat="40.7315490" lon="-8.1770330">
        <ele>380.6</ele>
        <time>2019-06-10T09:40:51Z</time>
      </trkpt>
      <trkpt lat="40.7315210" lon="-8.1770380">
        <ele>380.7</ele>
        <time>2019-06-10T09:40:52Z</time>
      </trkpt>
      <trkpt lat="40.7314930" lon="-8.1770430">
        <ele>380.8</ele>
        <time>2019-06-10T09:40:53Z</time>
      </trkpt>
      <trkpt lat="40.7314390" lon="-8.1770700">
        <ele>381.1</ele>
        <time>2019-06-10T09:40:55Z</time>
      </trkpt>
      <trkpt lat="40.7314200" lon="-8.1770990">
        <ele>381.3</ele>
        <time>2019-06-10T09:40:56Z</time>
      </trkpt>
      <trkpt lat="40.7314060" lon="-8.1771240">
        <ele>382.9</ele>
        <time>2019-06-10T09:40:57Z</time>
      </trkpt>
      <trkpt lat="40.7313990" lon="-8.1771570">
        <ele>383.2</ele>
        <time>2019-06-10T09:40:58Z</time>
      </trkpt>
      <trkpt lat="40.7313950" lon="-8.1771920">
        <ele>383.5</ele>
        <time>2019-06-10T09:40:59Z</time>
      </trkpt>
      <trkpt lat="40.7313900" lon="-8.1772220">
        <ele>383.6</ele>
        <time>2019-06-10T09:41:00Z</time>
      </trkpt>
      <trkpt lat="40.7313940" lon="-8.1772570">
        <ele>383.8</ele>
        <time>2019-06-10T09:41:01Z</time>
      </trkpt>
      <trkpt lat="40.7313960" lon="-8.1772910">
        <ele>384.0</ele>
        <time>2019-06-10T09:41:02Z</time>
      </trkpt>
      <trkpt lat="40.7313930" lon="-8.1773210">
        <ele>384.2</ele>
        <time>2019-06-10T09:41:03Z</time>
      </trkpt>
      <trkpt lat="40.7313910" lon="-8.1773520">
        <ele>384.4</ele>
        <time>2019-06-10T09:41:04Z</time>
      </trkpt>
      <trkpt lat="40.7313940" lon="-8.1773810">
        <ele>384.5</ele>
        <time>2019-06-10T09:41:05Z</time>
      </trkpt>
      <trkpt lat="40.7314090" lon="-8.1774120">
        <ele>384.8</ele>
        <time>2019-06-10T09:41:06Z</time>
      </trkpt>
      <trkpt lat="40.7314790" lon="-8.1775210">
        <ele>385.7</ele>
        <time>2019-06-10T09:41:10Z</time>
      </trkpt>
      <trkpt lat="40.7314960" lon="-8.1775700">
        <ele>386.0</ele>
        <time>2019-06-10T09:41:12Z</time>
      </trkpt>
      <trkpt lat="40.7315000" lon="-8.1776100">
        <ele>386.2</ele>
        <time>2019-06-10T09:41:14Z</time>
      </trkpt>
      <trkpt lat="40.7315180" lon="-8.1776640">
        <ele>386.4</ele>
        <time>2019-06-10T09:41:18Z</time>
      </trkpt>
      <trkpt lat="40.7315170" lon="-8.1776740">
        <ele>386.4</ele>
        <time>2019-06-10T09:41:30Z</time>
      </trkpt>
      <trkpt lat="40.7315550" lon="-8.1777460">
        <ele>386.8</ele>
        <time>2019-06-10T09:41:33Z</time>
      </trkpt>
      <trkpt lat="40.7316760" lon="-8.1779370">
        <ele>384.1</ele>
        <time>2019-06-10T09:41:38Z</time>
      </trkpt>
      <trkpt lat="40.7317090" lon="-8.1780300">
        <ele>383.6</ele>
        <time>2019-06-10T09:41:40Z</time>
      </trkpt>
      <trkpt lat="40.7317250" lon="-8.1780730">
        <ele>383.3</ele>
        <time>2019-06-10T09:41:41Z</time>
      </trkpt>
      <trkpt lat="40.7317380" lon="-8.1781180">
        <ele>383.2</ele>
        <time>2019-06-10T09:41:42Z</time>
      </trkpt>
      <trkpt lat="40.7317490" lon="-8.1781670">
        <ele>383.1</ele>
        <time>2019-06-10T09:41:43Z</time>
      </trkpt>
      <trkpt lat="40.7317590" lon="-8.1782220">
        <ele>383.0</ele>
        <time>2019-06-10T09:41:44Z</time>
      </trkpt>
      <trkpt lat="40.7317680" lon="-8.1782780">
        <ele>383.0</ele>
        <time>2019-06-10T09:41:45Z</time>
      </trkpt>
      <trkpt lat="40.7317770" lon="-8.1783310">
        <ele>382.9</ele>
        <time>2019-06-10T09:41:46Z</time>
      </trkpt>
      <trkpt lat="40.7317880" lon="-8.1783750">
        <ele>382.9</ele>
        <time>2019-06-10T09:41:47Z</time>
      </trkpt>
      <trkpt lat="40.7317980" lon="-8.1784120">
        <ele>382.9</ele>
        <time>2019-06-10T09:41:48Z</time>
      </trkpt>
      <trkpt lat="40.7318090" lon="-8.1784520">
        <ele>382.9</ele>
        <time>2019-06-10T09:41:49Z</time>
      </trkpt>
      <trkpt lat="40.7318230" lon="-8.1784920">
        <ele>383.2</ele>
        <time>2019-06-10T09:41:50Z</time>
      </trkpt>
      <trkpt lat="40.7318370" lon="-8.1785280">
        <ele>383.5</ele>
        <time>2019-06-10T09:41:51Z</time>
      </trkpt>
      <trkpt lat="40.7318490" lon="-8.1785600">
        <ele>383.7</ele>
        <time>2019-06-10T09:41:52Z</time>
      </trkpt>
      <trkpt lat="40.7318600" lon="-8.1785920">
        <ele>383.9</ele>
        <time>2019-06-10T09:41:53Z</time>
      </trkpt>
      <trkpt lat="40.7318700" lon="-8.1786210">
        <ele>384.1</ele>
        <time>2019-06-10T09:41:54Z</time>
      </trkpt>
      <trkpt lat="40.7318840" lon="-8.1786850">
        <ele>384.4</ele>
        <time>2019-06-10T09:41:56Z</time>
      </trkpt>
      <trkpt lat="40.7318910" lon="-8.1787530">
        <ele>384.7</ele>
        <time>2019-06-10T09:41:58Z</time>
      </trkpt>
      <trkpt lat="40.7318910" lon="-8.1787870">
        <ele>384.8</ele>
        <time>2019-06-10T09:41:59Z</time>
      </trkpt>
      <trkpt lat="40.7318950" lon="-8.1788240">
        <ele>384.9</ele>
        <time>2019-06-10T09:42:00Z</time>
      </trkpt>
      <trkpt lat="40.7319030" lon="-8.1788590">
        <ele>385.0</ele>
        <time>2019-06-10T09:42:01Z</time>
      </trkpt>
      <trkpt lat="40.7319090" lon="-8.1788960">
        <ele>385.1</ele>
        <time>2019-06-10T09:42:02Z</time>
      </trkpt>
      <trkpt lat="40.7319150" lon="-8.1789350">
        <ele>385.3</ele>
        <time>2019-06-10T09:42:03Z</time>
      </trkpt>
      <trkpt lat="40.7319280" lon="-8.1793180">
        <ele>386.4</ele>
        <time>2019-06-10T09:42:12Z</time>
      </trkpt>
      <trkpt lat="40.7319190" lon="-8.1793590">
        <ele>386.5</ele>
        <time>2019-06-10T09:42:13Z</time>
      </trkpt>
      <trkpt lat="40.7319080" lon="-8.1793970">
        <ele>386.6</ele>
        <time>2019-06-10T09:42:14Z</time>
      </trkpt>
      <trkpt lat="40.7318970" lon="-8.1794380">
        <ele>386.6</ele>
        <time>2019-06-10T09:42:15Z</time>
      </trkpt>
      <trkpt lat="40.7318880" lon="-8.1794790">
        <ele>386.7</ele>
        <time>2019-06-10T09:42:16Z</time>
      </trkpt>
      <trkpt lat="40.7318790" lon="-8.1795210">
        <ele>386.8</ele>
        <time>2019-06-10T09:42:17Z</time>
      </trkpt>
      <trkpt lat="40.7318460" lon="-8.1796320">
        <ele>387.0</ele>
        <time>2019-06-10T09:42:20Z</time>
      </trkpt>
      <trkpt lat="40.7317260" lon="-8.1799980">
        <ele>387.7</ele>
        <time>2019-06-10T09:42:30Z</time>
      </trkpt>
      <trkpt lat="40.7317050" lon="-8.1802290">
        <ele>388.3</ele>
        <time>2019-06-10T09:42:36Z</time>
      </trkpt>
      <trkpt lat="40.7316840" lon="-8.1805860">
        <ele>389.0</ele>
        <time>2019-06-10T09:42:45Z</time>
      </trkpt>
      <trkpt lat="40.7316840" lon="-8.1806250">
        <ele>389.1</ele>
        <time>2019-06-10T09:42:46Z</time>
      </trkpt>
      <trkpt lat="40.7316820" lon="-8.1806640">
        <ele>389.1</ele>
        <time>2019-06-10T09:42:47Z</time>
      </trkpt>
      <trkpt lat="40.7316770" lon="-8.1807030">
        <ele>389.2</ele>
        <time>2019-06-10T09:42:48Z</time>
      </trkpt>
      <trkpt lat="40.7316740" lon="-8.1807440">
        <ele>389.2</ele>
        <time>2019-06-10T09:42:49Z</time>
      </trkpt>
      <trkpt lat="40.7316400" lon="-8.1810320">
        <ele>389.5</ele>
        <time>2019-06-10T09:42:56Z</time>
      </trkpt>
      <trkpt lat="40.7315870" lon="-8.1814460">
        <ele>389.8</ele>
        <time>2019-06-10T09:43:06Z</time>
      </trkpt>
      <trkpt lat="40.7315930" lon="-8.1814940">
        <ele>389.9</ele>
        <time>2019-06-10T09:43:07Z</time>
      </trkpt>
      <trkpt lat="40.7315990" lon="-8.1815430">
        <ele>390.0</ele>
        <time>2019-06-10T09:43:08Z</time>
      </trkpt>
      <trkpt lat="40.7316030" lon="-8.1815900">
        <ele>390.0</ele>
        <time>2019-06-10T09:43:09Z</time>
      </trkpt>
      <trkpt lat="40.7316060" lon="-8.1816330">
        <ele>390.1</ele>
        <time>2019-06-10T09:43:10Z</time>
      </trkpt>
      <trkpt lat="40.7316350" lon="-8.1817600">
        <ele>390.3</ele>
        <time>2019-06-10T09:43:13Z</time>
      </trkpt>
      <trkpt lat="40.7317490" lon="-8.1820170">
        <ele>390.8</ele>
        <time>2019-06-10T09:43:20Z</time>
      </trkpt>
      <trkpt lat="40.7318840" lon="-8.1822500">
        <ele>391.6</ele>
        <time>2019-06-10T09:43:27Z</time>
      </trkpt>
      <trkpt lat="40.7319340" lon="-8.1823030">
        <ele>391.9</ele>
        <time>2019-06-10T09:43:29Z</time>
      </trkpt>
      <trkpt lat="40.7319600" lon="-8.1823310">
        <ele>392.0</ele>
        <time>2019-06-10T09:43:30Z</time>
      </trkpt>
      <trkpt lat="40.7319860" lon="-8.1823570">
        <ele>392.2</ele>
        <time>2019-06-10T09:43:31Z</time>
      </trkpt>
      <trkpt lat="40.7320150" lon="-8.1823830">
        <ele>392.3</ele>
        <time>2019-06-10T09:43:32Z</time>
      </trkpt>
      <trkpt lat="40.7320400" lon="-8.1824100">
        <ele>392.5</ele>
        <time>2019-06-10T09:43:33Z</time>
      </trkpt>
      <trkpt lat="40.7322180" lon="-8.1826360">
        <ele>393.3</ele>
        <time>2019-06-10T09:43:40Z</time>
      </trkpt>
      <trkpt lat="40.7323340" lon="-8.1828950">
        <ele>394.0</ele>
        <time>2019-06-10T09:43:47Z</time>
      </trkpt>
      <trkpt lat="40.7323460" lon="-8.1829380">
        <ele>394.1</ele>
        <time>2019-06-10T09:43:48Z</time>
      </trkpt>
      <trkpt lat="40.7323560" lon="-8.1829820">
        <ele>394.2</ele>
        <time>2019-06-10T09:43:49Z</time>
      </trkpt>
      <trkpt lat="40.7323610" lon="-8.1830270">
        <ele>394.2</ele>
        <time>2019-06-10T09:43:50Z</time>
      </trkpt>
      <trkpt lat="40.7323650" lon="-8.1830720">
        <ele>394.3</ele>
        <time>2019-06-10T09:43:51Z</time>
      </trkpt>
      <trkpt lat="40.7323700" lon="-8.1831180">
        <ele>394.4</ele>
        <time>2019-06-10T09:43:52Z</time>
      </trkpt>
      <trkpt lat="40.7323760" lon="-8.1831640">
        <ele>394.4</ele>
        <time>2019-06-10T09:43:53Z</time>
      </trkpt>
      <trkpt lat="40.7324360" lon="-8.1835950">
        <ele>395.1</ele>
        <time>2019-06-10T09:44:02Z</time>
      </trkpt>
      <trkpt lat="40.7325530" lon="-8.1838510">
        <ele>395.5</ele>
        <time>2019-06-10T09:44:08Z</time>
      </trkpt>
      <trkpt lat="40.7326550" lon="-8.1840220">
        <ele>395.9</ele>
        <time>2019-06-10T09:44:13Z</time>
      </trkpt>
      <trkpt lat="40.7326840" lon="-8.1840530">
        <ele>396.0</ele>
        <time>2019-06-10T09:44:14Z</time>
      </trkpt>
      <trkpt lat="40.7327170" lon="-8.1840840">
        <ele>396.1</ele>
        <time>2019-06-10T09:44:15Z</time>
      </trkpt>
      <trkpt lat="40.7327480" lon="-8.1841140">
        <ele>396.2</ele>
        <time>2019-06-10T09:44:16Z</time>
      </trkpt>
      <trkpt lat="40.7327830" lon="-8.1841480">
        <ele>396.4</ele>
        <time>2019-06-10T09:44:17Z</time>
      </trkpt>
      <trkpt lat="40.7329430" lon="-8.1842950">
        <ele>396.9</ele>
        <time>2019-06-10T09:44:22Z</time>
      </trkpt>
      <trkpt lat="40.7331600" lon="-8.1846250">
        <ele>397.8</ele>
        <time>2019-06-10T09:44:31Z</time>
      </trkpt>
      <trkpt lat="40.7331940" lon="-8.1847250">
        <ele>398.0</ele>
        <time>2019-06-10T09:44:33Z</time>
      </trkpt>
      <trkpt lat="40.7332140" lon="-8.1847800">
        <ele>398.1</ele>
        <time>2019-06-10T09:44:34Z</time>
      </trkpt>
      <trkpt lat="40.7332320" lon="-8.1848330">
        <ele>398.2</ele>
        <time>2019-06-10T09:44:35Z</time>
      </trkpt>
      <trkpt lat="40.7332460" lon="-8.1848830">
        <ele>398.3</ele>
        <time>2019-06-10T09:44:36Z</time>
      </trkpt>
      <trkpt lat="40.7332570" lon="-8.1849270">
        <ele>398.4</ele>
        <time>2019-06-10T09:44:37Z</time>
      </trkpt>
      <trkpt lat="40.7333060" lon="-8.1852180">
        <ele>398.9</ele>
        <time>2019-06-10T09:44:43Z</time>
      </trkpt>
      <trkpt lat="40.7333490" lon="-8.1856280">
        <ele>399.6</ele>
        <time>2019-06-10T09:44:51Z</time>
      </trkpt>
      <trkpt lat="40.7333420" lon="-8.1857820">
        <ele>399.8</ele>
        <time>2019-06-10T09:44:54Z</time>
      </trkpt>
      <trkpt lat="40.7333220" lon="-8.1860010">
        <ele>400.1</ele>
        <time>2019-06-10T09:44:58Z</time>
      </trkpt>
      <trkpt lat="40.7332860" lon="-8.1861520">
        <ele>400.4</ele>
        <time>2019-06-10T09:45:01Z</time>
      </trkpt>
      <trkpt lat="40.7332750" lon="-8.1862020">
        <ele>400.4</ele>
        <time>2019-06-10T09:45:02Z</time>
      </trkpt>
      <trkpt lat="40.7332620" lon="-8.1862540">
        <ele>400.5</ele>
        <time>2019-06-10T09:45:03Z</time>
      </trkpt>
      <trkpt lat="40.7332500" lon="-8.1863040">
        <ele>400.6</ele>
        <time>2019-06-10T09:45:04Z</time>
      </trkpt>
      <trkpt lat="40.7332370" lon="-8.1863500">
        <ele>400.6</ele>
        <time>2019-06-10T09:45:05Z</time>
      </trkpt>
      <trkpt lat="40.7332190" lon="-8.1863920">
        <ele>400.7</ele>
        <time>2019-06-10T09:45:06Z</time>
      </trkpt>
      <trkpt lat="40.7329860" lon="-8.1867290">
        <ele>401.1</ele>
        <time>2019-06-10T09:45:15Z</time>
      </trkpt>
      <trkpt lat="40.7327520" lon="-8.1869340">
        <ele>401.8</ele>
        <time>2019-06-10T09:45:22Z</time>
      </trkpt>
      <trkpt lat="40.7324440" lon="-8.1871570">
        <ele>402.5</ele>
        <time>2019-06-10T09:45:30Z</time>
      </trkpt>
      <trkpt lat="40.7324090" lon="-8.1871880">
        <ele>402.6</ele>
        <time>2019-06-10T09:45:31Z</time>
      </trkpt>
      <trkpt lat="40.7323700" lon="-8.1872170">
        <ele>402.7</ele>
        <time>2019-06-10T09:45:32Z</time>
      </trkpt>
      <trkpt lat="40.7323330" lon="-8.1872430">
        <ele>402.8</ele>
        <time>2019-06-10T09:45:33Z</time>
      </trkpt>
      <trkpt lat="40.7322980" lon="-8.1872700">
        <ele>402.9</ele>
        <time>2019-06-10T09:45:34Z</time>
      </trkpt>
      <trkpt lat="40.7320520" lon="-8.1874500">
        <ele>403.8</ele>
        <time>2019-06-10T09:45:41Z</time>
      </trkpt>
      <trkpt lat="40.7318020" lon="-8.1876580">
        <ele>404.4</ele>
        <time>2019-06-10T09:45:48Z</time>
      </trkpt>
      <trkpt lat="40.7317750" lon="-8.1876930">
        <ele>404.5</ele>
        <time>2019-06-10T09:45:49Z</time>
      </trkpt>
      <trkpt lat="40.7317490" lon="-8.1877310">
        <ele>404.6</ele>
        <time>2019-06-10T09:45:50Z</time>
      </trkpt>
      <trkpt lat="40.7317230" lon="-8.1877710">
        <ele>404.7</ele>
        <time>2019-06-10T09:45:51Z</time>
      </trkpt>
      <trkpt lat="40.7316910" lon="-8.1878060">
        <ele>404.8</ele>
        <time>2019-06-10T09:45:52Z</time>
      </trkpt>
      <trkpt lat="40.7316620" lon="-8.1878450">
        <ele>404.9</ele>
        <time>2019-06-10T09:45:53Z</time>
      </trkpt>
      <trkpt lat="40.7316360" lon="-8.1878900">
        <ele>405.0</ele>
        <time>2019-06-10T09:45:54Z</time>
      </trkpt>
      <trkpt lat="40.7315120" lon="-8.1881240">
        <ele>405.4</ele>
        <time>2019-06-10T09:45:59Z</time>
      </trkpt>
      <trkpt lat="40.7313380" lon="-8.1886040">
        <ele>406.4</ele>
        <time>2019-06-10T09:46:09Z</time>
      </trkpt>
      <trkpt lat="40.7312020" lon="-8.1888820">
        <ele>406.7</ele>
        <time>2019-06-10T09:46:16Z</time>
      </trkpt>
      <trkpt lat="40.7311840" lon="-8.1889260">
        <ele>406.7</ele>
        <time>2019-06-10T09:46:17Z</time>
      </trkpt>
      <trkpt lat="40.7311640" lon="-8.1889670">
        <ele>406.7</ele>
        <time>2019-06-10T09:46:18Z</time>
      </trkpt>
      <trkpt lat="40.7311420" lon="-8.1890100">
        <ele>406.7</ele>
        <time>2019-06-10T09:46:19Z</time>
      </trkpt>
      <trkpt lat="40.7311000" lon="-8.1890450">
        <ele>406.7</ele>
        <time>2019-06-10T09:46:20Z</time>
      </trkpt>
      <trkpt lat="40.7309750" lon="-8.1891600">
        <ele>406.7</ele>
        <time>2019-06-10T09:46:23Z</time>
      </trkpt>
      <trkpt lat="40.7307230" lon="-8.1893940">
        <ele>407.1</ele>
        <time>2019-06-10T09:46:30Z</time>
      </trkpt>
      <trkpt lat="40.7303920" lon="-8.1897090">
        <ele>408.5</ele>
        <time>2019-06-10T09:46:39Z</time>
      </trkpt>
      <trkpt lat="40.7303540" lon="-8.1897430">
        <ele>408.8</ele>
        <time>2019-06-10T09:46:40Z</time>
      </trkpt>
      <trkpt lat="40.7303190" lon="-8.1897730">
        <ele>409.1</ele>
        <time>2019-06-10T09:46:41Z</time>
      </trkpt>
      <trkpt lat="40.7302840" lon="-8.1898080">
        <ele>409.3</ele>
        <time>2019-06-10T09:46:42Z</time>
      </trkpt>
      <trkpt lat="40.7302520" lon="-8.1898420">
        <ele>409.5</ele>
        <time>2019-06-10T09:46:43Z</time>
      </trkpt>
      <trkpt lat="40.7300550" lon="-8.1900810">
        <ele>410.9</ele>
        <time>2019-06-10T09:46:50Z</time>
      </trkpt>
      <trkpt lat="40.7299180" lon="-8.1903350">
        <ele>411.2</ele>
        <time>2019-06-10T09:46:56Z</time>
      </trkpt>
      <trkpt lat="40.7299000" lon="-8.1903770">
        <ele>411.2</ele>
        <time>2019-06-10T09:46:57Z</time>
      </trkpt>
      <trkpt lat="40.7298800" lon="-8.1904160">
        <ele>411.2</ele>
        <time>2019-06-10T09:46:58Z</time>
      </trkpt>
      <trkpt lat="40.7298630" lon="-8.1904560">
        <ele>411.1</ele>
        <time>2019-06-10T09:46:59Z</time>
      </trkpt>
      <trkpt lat="40.7298450" lon="-8.1904960">
        <ele>411.1</ele>
        <time>2019-06-10T09:47:00Z</time>
      </trkpt>
      <trkpt lat="40.7297710" lon="-8.1907170">
        <ele>410.8</ele>
        <time>2019-06-10T09:47:05Z</time>
      </trkpt>
      <trkpt lat="40.7297120" lon="-8.1910910">
        <ele>409.9</ele>
        <time>2019-06-10T09:47:12Z</time>
      </trkpt>
      <trkpt lat="40.7296610" lon="-8.1916200">
        <ele>409.2</ele>
        <time>2019-06-10T09:47:21Z</time>
      </trkpt>
      <trkpt lat="40.7296340" lon="-8.1917890">
        <ele>408.9</ele>
        <time>2019-06-10T09:47:24Z</time>
      </trkpt>
      <trkpt lat="40.7296150" lon="-8.1919510">
        <ele>408.7</ele>
        <time>2019-06-10T09:47:27Z</time>
      </trkpt>
      <trkpt lat="40.7295680" lon="-8.1923310">
        <ele>407.9</ele>
        <time>2019-06-10T09:47:33Z</time>
      </trkpt>
      <trkpt lat="40.7295380" lon="-8.1924580">
        <ele>407.5</ele>
        <time>2019-06-10T09:47:35Z</time>
      </trkpt>
      <trkpt lat="40.7295160" lon="-8.1925170">
        <ele>407.4</ele>
        <time>2019-06-10T09:47:36Z</time>
      </trkpt>
      <trkpt lat="40.7294950" lon="-8.1925770">
        <ele>407.2</ele>
        <time>2019-06-10T09:47:37Z</time>
      </trkpt>
      <trkpt lat="40.7294680" lon="-8.1926380">
        <ele>407.1</ele>
        <time>2019-06-10T09:47:38Z</time>
      </trkpt>
      <trkpt lat="40.7294390" lon="-8.1926970">
        <ele>407.0</ele>
        <time>2019-06-10T09:47:39Z</time>
      </trkpt>
      <trkpt lat="40.7292620" lon="-8.1929480">
        <ele>406.4</ele>
        <time>2019-06-10T09:47:44Z</time>
      </trkpt>
      <trkpt lat="40.7292220" lon="-8.1929920">
        <ele>406.2</ele>
        <time>2019-06-10T09:47:45Z</time>
      </trkpt>
      <trkpt lat="40.7291820" lon="-8.1930360">
        <ele>406.2</ele>
        <time>2019-06-10T09:47:46Z</time>
      </trkpt>
      <trkpt lat="40.7291430" lon="-8.1930830">
        <ele>406.2</ele>
        <time>2019-06-10T09:47:47Z</time>
      </trkpt>
      <trkpt lat="40.7291060" lon="-8.1931280">
        <ele>406.2</ele>
        <time>2019-06-10T09:47:48Z</time>
      </trkpt>
      <trkpt lat="40.7288790" lon="-8.1933440">
        <ele>406.1</ele>
        <time>2019-06-10T09:47:53Z</time>
      </trkpt>
      <trkpt lat="40.7288380" lon="-8.1933940">
        <ele>406.1</ele>
        <time>2019-06-10T09:47:54Z</time>
      </trkpt>
      <trkpt lat="40.7287950" lon="-8.1934460">
        <ele>406.1</ele>
        <time>2019-06-10T09:47:55Z</time>
      </trkpt>
      <trkpt lat="40.7287520" lon="-8.1934960">
        <ele>406.1</ele>
        <time>2019-06-10T09:47:56Z</time>
      </trkpt>
      <trkpt lat="40.7287100" lon="-8.1935480">
        <ele>406.1</ele>
        <time>2019-06-10T09:47:57Z</time>
      </trkpt>
      <trkpt lat="40.7286740" lon="-8.1936050">
        <ele>406.1</ele>
        <time>2019-06-10T09:47:58Z</time>
      </trkpt>
      <trkpt lat="40.7286120" lon="-8.1937230">
        <ele>406.1</ele>
        <time>2019-06-10T09:48:00Z</time>
      </trkpt>
      <trkpt lat="40.7284240" lon="-8.1941670">
        <ele>406.0</ele>
        <time>2019-06-10T09:48:07Z</time>
      </trkpt>
      <trkpt lat="40.7282380" lon="-8.1946100">
        <ele>405.9</ele>
        <time>2019-06-10T09:48:15Z</time>
      </trkpt>
      <trkpt lat="40.7279170" lon="-8.1950530">
        <ele>405.9</ele>
        <time>2019-06-10T09:48:24Z</time>
      </trkpt>
      <trkpt lat="40.7275390" lon="-8.1953720">
        <ele>405.8</ele>
        <time>2019-06-10T09:48:32Z</time>
      </trkpt>
      <trkpt lat="40.7271800" lon="-8.1954750">
        <ele>405.7</ele>
        <time>2019-06-10T09:48:38Z</time>
      </trkpt>
      <trkpt lat="40.7271200" lon="-8.1954770">
        <ele>405.7</ele>
        <time>2019-06-10T09:48:39Z</time>
      </trkpt>
      <trkpt lat="40.7270560" lon="-8.1954760">
        <ele>405.7</ele>
        <time>2019-06-10T09:48:40Z</time>
      </trkpt>
      <trkpt lat="40.7269960" lon="-8.1954700">
        <ele>405.7</ele>
        <time>2019-06-10T09:48:41Z</time>
      </trkpt>
      <trkpt lat="40.7269390" lon="-8.1954620">
        <ele>405.6</ele>
        <time>2019-06-10T09:48:42Z</time>
      </trkpt>
      <trkpt lat="40.7268750" lon="-8.1954470">
        <ele>405.6</ele>
        <time>2019-06-10T09:48:43Z</time>
      </trkpt>
      <trkpt lat="40.7264230" lon="-8.1953330">
        <ele>405.3</ele>
        <time>2019-06-10T09:48:50Z</time>
      </trkpt>
      <trkpt lat="40.7261690" lon="-8.1952670">
        <ele>405.1</ele>
        <time>2019-06-10T09:48:54Z</time>
      </trkpt>
      <trkpt lat="40.7261060" lon="-8.1952560">
        <ele>405.1</ele>
        <time>2019-06-10T09:48:55Z</time>
      </trkpt>
      <trkpt lat="40.7260500" lon="-8.1952460">
        <ele>405.0</ele>
        <time>2019-06-10T09:48:56Z</time>
      </trkpt>
      <trkpt lat="40.7259860" lon="-8.1952340">
        <ele>405.0</ele>
        <time>2019-06-10T09:48:57Z</time>
      </trkpt>
      <trkpt lat="40.7259230" lon="-8.1952290">
        <ele>404.9</ele>
        <time>2019-06-10T09:48:58Z</time>
      </trkpt>
      <trkpt lat="40.7257380" lon="-8.1952340">
        <ele>404.7</ele>
        <time>2019-06-10T09:49:01Z</time>
      </trkpt>
      <trkpt lat="40.7256230" lon="-8.1952650">
        <ele>404.6</ele>
        <time>2019-06-10T09:49:03Z</time>
      </trkpt>
      <trkpt lat="40.7252310" lon="-8.1954680">
        <ele>404.3</ele>
        <time>2019-06-10T09:49:10Z</time>
      </trkpt>
      <trkpt lat="40.7249830" lon="-8.1956830">
        <ele>404.0</ele>
        <time>2019-06-10T09:49:15Z</time>
      </trkpt>
      <trkpt lat="40.7249370" lon="-8.1957350">
        <ele>404.0</ele>
        <time>2019-06-10T09:49:16Z</time>
      </trkpt>
      <trkpt lat="40.7248940" lon="-8.1957890">
        <ele>403.9</ele>
        <time>2019-06-10T09:49:17Z</time>
      </trkpt>
      <trkpt lat="40.7248560" lon="-8.1958390">
        <ele>403.9</ele>
        <time>2019-06-10T09:49:18Z</time>
      </trkpt>
      <trkpt lat="40.7248190" lon="-8.1958970">
        <ele>403.8</ele>
        <time>2019-06-10T09:49:19Z</time>
      </trkpt>
      <trkpt lat="40.7247530" lon="-8.1960130">
        <ele>403.7</ele>
        <time>2019-06-10T09:49:21Z</time>
      </trkpt>
      <trkpt lat="40.7247250" lon="-8.1960730">
        <ele>403.7</ele>
        <time>2019-06-10T09:49:22Z</time>
      </trkpt>
      <trkpt lat="40.7245350" lon="-8.1966500">
        <ele>403.4</ele>
        <time>2019-06-10T09:49:31Z</time>
      </trkpt>
      <trkpt lat="40.7245270" lon="-8.1967140">
        <ele>403.3</ele>
        <time>2019-06-10T09:49:32Z</time>
      </trkpt>
      <trkpt lat="40.7245180" lon="-8.1967810">
        <ele>403.3</ele>
        <time>2019-06-10T09:49:33Z</time>
      </trkpt>
      <trkpt lat="40.7245090" lon="-8.1968420">
        <ele>403.3</ele>
        <time>2019-06-10T09:49:34Z</time>
      </trkpt>
      <trkpt lat="40.7245030" lon="-8.1969040">
        <ele>403.3</ele>
        <time>2019-06-10T09:49:35Z</time>
      </trkpt>
      <trkpt lat="40.7245000" lon="-8.1969690">
        <ele>403.2</ele>
        <time>2019-06-10T09:49:36Z</time>
      </trkpt>
      <trkpt lat="40.7245030" lon="-8.1971680">
        <ele>403.2</ele>
        <time>2019-06-10T09:49:39Z</time>
      </trkpt>
      <trkpt lat="40.7244970" lon="-8.1974780">
        <ele>403.2</ele>
        <time>2019-06-10T09:49:44Z</time>
      </trkpt>
      <trkpt lat="40.7244970" lon="-8.1975370">
        <ele>403.2</ele>
        <time>2019-06-10T09:49:45Z</time>
      </trkpt>
      <trkpt lat="40.7244970" lon="-8.1975960">
        <ele>403.2</ele>
        <time>2019-06-10T09:49:46Z</time>
      </trkpt>
      <trkpt lat="40.7244940" lon="-8.1976530">
        <ele>403.2</ele>
        <time>2019-06-10T09:49:47Z</time>
      </trkpt>
      <trkpt lat="40.7244960" lon="-8.1977130">
        <ele>403.1</ele>
        <time>2019-06-10T09:49:48Z</time>
      </trkpt>
      <trkpt lat="40.7245400" lon="-8.1981330">
        <ele>403.1</ele>
        <time>2019-06-10T09:49:55Z</time>
      </trkpt>
      <trkpt lat="40.7247200" lon="-8.1985570">
        <ele>403.0</ele>
        <time>2019-06-10T09:50:03Z</time>
      </trkpt>
      <trkpt lat="40.7250270" lon="-8.1990010">
        <ele>403.0</ele>
        <time>2019-06-10T09:50:12Z</time>
      </trkpt>
      <trkpt lat="40.7253820" lon="-8.1992950">
        <ele>402.9</ele>
        <time>2019-06-10T09:50:20Z</time>
      </trkpt>
      <trkpt lat="40.7255660" lon="-8.1993690">
        <ele>402.9</ele>
        <time>2019-06-10T09:50:24Z</time>
      </trkpt>
      <trkpt lat="40.7256680" lon="-8.1993920">
        <ele>402.9</ele>
        <time>2019-06-10T09:50:26Z</time>
      </trkpt>
      <trkpt lat="40.7258700" lon="-8.1994570">
        <ele>402.9</ele>
        <time>2019-06-10T09:50:30Z</time>
      </trkpt>
      <trkpt lat="40.7259220" lon="-8.1994830">
        <ele>402.9</ele>
        <time>2019-06-10T09:50:31Z</time>
      </trkpt>
      <trkpt lat="40.7259800" lon="-8.1995140">
        <ele>402.9</ele>
        <time>2019-06-10T09:50:32Z</time>
      </trkpt>
      <trkpt lat="40.7260390" lon="-8.1995490">
        <ele>402.8</ele>
        <time>2019-06-10T09:50:33Z</time>
      </trkpt>
      <trkpt lat="40.7260940" lon="-8.1995890">
        <ele>402.7</ele>
        <time>2019-06-10T09:50:34Z</time>
      </trkpt>
      <trkpt lat="40.7263740" lon="-8.1998770">
        <ele>401.3</ele>
        <time>2019-06-10T09:50:40Z</time>
      </trkpt>
      <trkpt lat="40.7265550" lon="-8.2002960">
        <ele>400.9</ele>
        <time>2019-06-10T09:50:47Z</time>
      </trkpt>
      <trkpt lat="40.7265950" lon="-8.2005010">
        <ele>400.7</ele>
        <time>2019-06-10T09:50:50Z</time>
      </trkpt>
      <trkpt lat="40.7266070" lon="-8.2005690">
        <ele>400.6</ele>
        <time>2019-06-10T09:50:51Z</time>
      </trkpt>
      <trkpt lat="40.7266160" lon="-8.2006370">
        <ele>400.4</ele>
        <time>2019-06-10T09:50:52Z</time>
      </trkpt>
      <trkpt lat="40.7266280" lon="-8.2007040">
        <ele>400.3</ele>
        <time>2019-06-10T09:50:53Z</time>
      </trkpt>
      <trkpt lat="40.7266390" lon="-8.2007650">
        <ele>400.1</ele>
        <time>2019-06-10T09:50:54Z</time>
      </trkpt>
      <trkpt lat="40.7266670" lon="-8.2008970">
        <ele>399.6</ele>
        <time>2019-06-10T09:50:56Z</time>
      </trkpt>
      <trkpt lat="40.7267290" lon="-8.2010720">
        <ele>399.0</ele>
        <time>2019-06-10T09:50:59Z</time>
      </trkpt>
      <trkpt lat="40.7267390" lon="-8.2010910">
        <ele>399.0</ele>
        <time>2019-06-10T09:51:00Z</time>
      </trkpt>
      <trkpt lat="40.7267420" lon="-8.2010940">
        <ele>398.9</ele>
        <time>2019-06-10T09:51:01Z</time>
      </trkpt>
      <trkpt lat="40.7267100" lon="-8.2010320">
        <ele>398.8</ele>
        <time>2019-06-10T09:51:11Z</time>
      </trkpt>
      <trkpt lat="40.7267010" lon="-8.2010180">
        <ele>398.8</ele>
        <time>2019-06-10T09:51:12Z</time>
      </trkpt>
      <trkpt lat="40.7266790" lon="-8.2009420">
        <ele>398.7</ele>
        <time>2019-06-10T09:51:19Z</time>
      </trkpt>
      <trkpt lat="40.7266770" lon="-8.2009230">
        <ele>398.7</ele>
        <time>2019-06-10T09:53:15Z</time>
      </trkpt>
      <trkpt lat="40.7267050" lon="-8.2009840">
        <ele>398.7</ele>
        <time>2019-06-10T09:53:19Z</time>
      </trkpt>
      <trkpt lat="40.7267570" lon="-8.2010910">
        <ele>398.6</ele>
        <time>2019-06-10T09:53:28Z</time>
      </trkpt>
      <trkpt lat="40.7267210" lon="-8.2011250">
        <ele>398.5</ele>
        <time>2019-06-10T10:09:25Z</time>
      </trkpt>
      <trkpt lat="40.7268100" lon="-8.2012900">
        <ele>398.0</ele>
        <time>2019-06-10T10:09:31Z</time>
      </trkpt>
      <trkpt lat="40.7269730" lon="-8.2015480">
        <ele>397.0</ele>
        <time>2019-06-10T10:09:38Z</time>
      </trkpt>
      <trkpt lat="40.7271800" lon="-8.2019530">
        <ele>396.6</ele>
        <time>2019-06-10T10:09:46Z</time>
      </trkpt>
      <trkpt lat="40.7273380" lon="-8.2024130">
        <ele>395.2</ele>
        <time>2019-06-10T10:09:53Z</time>
      </trkpt>
      <trkpt lat="40.7273540" lon="-8.2024780">
        <ele>395.0</ele>
        <time>2019-06-10T10:09:54Z</time>
      </trkpt>
      <trkpt lat="40.7273730" lon="-8.2025450">
        <ele>394.9</ele>
        <time>2019-06-10T10:09:55Z</time>
      </trkpt>
      <trkpt lat="40.7273960" lon="-8.2026070">
        <ele>394.7</ele>
        <time>2019-06-10T10:09:56Z</time>
      </trkpt>
      <trkpt lat="40.7274190" lon="-8.2026700">
        <ele>394.6</ele>
        <time>2019-06-10T10:09:57Z</time>
      </trkpt>
      <trkpt lat="40.7275860" lon="-8.2029610">
        <ele>393.6</ele>
        <time>2019-06-10T10:10:02Z</time>
      </trkpt>
      <trkpt lat="40.7277220" lon="-8.2031960">
        <ele>392.9</ele>
        <time>2019-06-10T10:10:06Z</time>
      </trkpt>
      <trkpt lat="40.7277540" lon="-8.2032550">
        <ele>392.8</ele>
        <time>2019-06-10T10:10:07Z</time>
      </trkpt>
      <trkpt lat="40.7277890" lon="-8.2033090">
        <ele>392.8</ele>
        <time>2019-06-10T10:10:08Z</time>
      </trkpt>
      <trkpt lat="40.7278250" lon="-8.2033650">
        <ele>392.8</ele>
        <time>2019-06-10T10:10:09Z</time>
      </trkpt>
      <trkpt lat="40.7278620" lon="-8.2034180">
        <ele>392.7</ele>
        <time>2019-06-10T10:10:10Z</time>
      </trkpt>
      <trkpt lat="40.7281590" lon="-8.2037410">
        <ele>391.8</ele>
        <time>2019-06-10T10:10:17Z</time>
      </trkpt>
      <trkpt lat="40.7282100" lon="-8.2037700">
        <ele>391.5</ele>
        <time>2019-06-10T10:10:18Z</time>
      </trkpt>
      <trkpt lat="40.7282550" lon="-8.2038010">
        <ele>391.3</ele>
        <time>2019-06-10T10:10:19Z</time>
      </trkpt>
      <trkpt lat="40.7283030" lon="-8.2038360">
        <ele>391.0</ele>
        <time>2019-06-10T10:10:20Z</time>
      </trkpt>
      <trkpt lat="40.7283540" lon="-8.2038770">
        <ele>390.7</ele>
        <time>2019-06-10T10:10:21Z</time>
      </trkpt>
      <trkpt lat="40.7284070" lon="-8.2039170">
        <ele>390.6</ele>
        <time>2019-06-10T10:10:22Z</time>
      </trkpt>
      <trkpt lat="40.7284630" lon="-8.2039630">
        <ele>390.5</ele>
        <time>2019-06-10T10:10:23Z</time>
      </trkpt>
      <trkpt lat="40.7286620" lon="-8.2041630">
        <ele>390.3</ele>
        <time>2019-06-10T10:10:27Z</time>
      </trkpt>
      <trkpt lat="40.7287400" lon="-8.2042810">
        <ele>390.2</ele>
        <time>2019-06-10T10:10:29Z</time>
      </trkpt>
      <trkpt lat="40.7288360" lon="-8.2044800">
        <ele>389.8</ele>
        <time>2019-06-10T10:10:32Z</time>
      </trkpt>
      <trkpt lat="40.7288610" lon="-8.2045550">
        <ele>389.5</ele>
        <time>2019-06-10T10:10:33Z</time>
      </trkpt>
      <trkpt lat="40.7288880" lon="-8.2046340">
        <ele>389.2</ele>
        <time>2019-06-10T10:10:34Z</time>
      </trkpt>
      <trkpt lat="40.7289140" lon="-8.2047100">
        <ele>388.9</ele>
        <time>2019-06-10T10:10:35Z</time>
      </trkpt>
      <trkpt lat="40.7289400" lon="-8.2047930">
        <ele>388.7</ele>
        <time>2019-06-10T10:10:36Z</time>
      </trkpt>
      <trkpt lat="40.7289580" lon="-8.2048840">
        <ele>388.5</ele>
        <time>2019-06-10T10:10:37Z</time>
      </trkpt>
      <trkpt lat="40.7289880" lon="-8.2053200">
        <ele>388.3</ele>
        <time>2019-06-10T10:10:42Z</time>
      </trkpt>
      <trkpt lat="40.7289790" lon="-8.2054080">
        <ele>388.1</ele>
        <time>2019-06-10T10:10:43Z</time>
      </trkpt>
      <trkpt lat="40.7289660" lon="-8.2054880">
        <ele>387.9</ele>
        <time>2019-06-10T10:10:44Z</time>
      </trkpt>
      <trkpt lat="40.7289470" lon="-8.2055680">
        <ele>387.7</ele>
        <time>2019-06-10T10:10:45Z</time>
      </trkpt>
      <trkpt lat="40.7289280" lon="-8.2056410">
        <ele>387.4</ele>
        <time>2019-06-10T10:10:46Z</time>
      </trkpt>
      <trkpt lat="40.7289130" lon="-8.2057190">
        <ele>387.0</ele>
        <time>2019-06-10T10:10:47Z</time>
      </trkpt>
      <trkpt lat="40.7288970" lon="-8.2057960">
        <ele>386.7</ele>
        <time>2019-06-10T10:10:48Z</time>
      </trkpt>
      <trkpt lat="40.7288700" lon="-8.2058690">
        <ele>386.2</ele>
        <time>2019-06-10T10:10:49Z</time>
      </trkpt>
      <trkpt lat="40.7288070" lon="-8.2060030">
        <ele>385.6</ele>
        <time>2019-06-10T10:10:51Z</time>
      </trkpt>
      <trkpt lat="40.7287300" lon="-8.2061280">
        <ele>385.2</ele>
        <time>2019-06-10T10:10:53Z</time>
      </trkpt>
      <trkpt lat="40.7286940" lon="-8.2061930">
        <ele>385.0</ele>
        <time>2019-06-10T10:10:54Z</time>
      </trkpt>
      <trkpt lat="40.7286560" lon="-8.2062620">
        <ele>384.9</ele>
        <time>2019-06-10T10:10:55Z</time>
      </trkpt>
      <trkpt lat="40.7286140" lon="-8.2063290">
        <ele>384.8</ele>
        <time>2019-06-10T10:10:56Z</time>
      </trkpt>
      <trkpt lat="40.7285700" lon="-8.2063890">
        <ele>384.6</ele>
        <time>2019-06-10T10:10:57Z</time>
      </trkpt>
      <trkpt lat="40.7285250" lon="-8.2064490">
        <ele>384.5</ele>
        <time>2019-06-10T10:10:58Z</time>
      </trkpt>
      <trkpt lat="40.7283980" lon="-8.2066250">
        <ele>384.1</ele>
        <time>2019-06-10T10:11:01Z</time>
      </trkpt>
      <trkpt lat="40.7282380" lon="-8.2068780">
        <ele>383.5</ele>
        <time>2019-06-10T10:11:05Z</time>
      </trkpt>
      <trkpt lat="40.7281970" lon="-8.2069390">
        <ele>383.4</ele>
        <time>2019-06-10T10:11:06Z</time>
      </trkpt>
      <trkpt lat="40.7281550" lon="-8.2070070">
        <ele>383.3</ele>
        <time>2019-06-10T10:11:07Z</time>
      </trkpt>
      <trkpt lat="40.7281100" lon="-8.2070700">
        <ele>383.1</ele>
        <time>2019-06-10T10:11:08Z</time>
      </trkpt>
      <trkpt lat="40.7280700" lon="-8.2071300">
        <ele>383.0</ele>
        <time>2019-06-10T10:11:09Z</time>
      </trkpt>
      <trkpt lat="40.7277650" lon="-8.2076690">
        <ele>382.4</ele>
        <time>2019-06-10T10:11:18Z</time>
      </trkpt>
      <trkpt lat="40.7274620" lon="-8.2082880">
        <ele>382.4</ele>
        <time>2019-06-10T10:11:28Z</time>
      </trkpt>
      <trkpt lat="40.7274360" lon="-8.2083530">
        <ele>382.4</ele>
        <time>2019-06-10T10:11:29Z</time>
      </trkpt>
      <trkpt lat="40.7272400" lon="-8.2087280">
        <ele>382.7</ele>
        <time>2019-06-10T10:11:36Z</time>
      </trkpt>
      <trkpt lat="40.7270740" lon="-8.2092200">
        <ele>383.3</ele>
        <time>2019-06-10T10:11:44Z</time>
      </trkpt>
      <trkpt lat="40.7270620" lon="-8.2093570">
        <ele>383.5</ele>
        <time>2019-06-10T10:11:46Z</time>
      </trkpt>
      <trkpt lat="40.7270600" lon="-8.2094860">
        <ele>383.7</ele>
        <time>2019-06-10T10:11:48Z</time>
      </trkpt>
      <trkpt lat="40.7270400" lon="-8.2097850">
        <ele>384.2</ele>
        <time>2019-06-10T10:11:53Z</time>
      </trkpt>
      <trkpt lat="40.7270390" lon="-8.2098400">
        <ele>384.3</ele>
        <time>2019-06-10T10:11:54Z</time>
      </trkpt>
      <trkpt lat="40.7269790" lon="-8.2099810">
        <ele>384.6</ele>
        <time>2019-06-10T10:11:57Z</time>
      </trkpt>
      <trkpt lat="40.7269540" lon="-8.2100220">
        <ele>384.7</ele>
        <time>2019-06-10T10:11:58Z</time>
      </trkpt>
      <trkpt lat="40.7269260" lon="-8.2100590">
        <ele>384.8</ele>
        <time>2019-06-10T10:11:59Z</time>
      </trkpt>
      <trkpt lat="40.7269090" lon="-8.2101060">
        <ele>384.8</ele>
        <time>2019-06-10T10:12:00Z</time>
      </trkpt>
      <trkpt lat="40.7268940" lon="-8.2101580">
        <ele>384.8</ele>
        <time>2019-06-10T10:12:01Z</time>
      </trkpt>
      <trkpt lat="40.7267630" lon="-8.2105360">
        <ele>385.1</ele>
        <time>2019-06-10T10:12:08Z</time>
      </trkpt>
      <trkpt lat="40.7266890" lon="-8.2106750">
        <ele>385.2</ele>
        <time>2019-06-10T10:12:11Z</time>
      </trkpt>
      <trkpt lat="40.7265940" lon="-8.2108070">
        <ele>385.3</ele>
        <time>2019-06-10T10:12:14Z</time>
      </trkpt>
      <trkpt lat="40.7265580" lon="-8.2108440">
        <ele>385.3</ele>
        <time>2019-06-10T10:12:15Z</time>
      </trkpt>
      <trkpt lat="40.7265210" lon="-8.2108790">
        <ele>385.3</ele>
        <time>2019-06-10T10:12:16Z</time>
      </trkpt>
      <trkpt lat="40.7264870" lon="-8.2109150">
        <ele>385.4</ele>
        <time>2019-06-10T10:12:17Z</time>
      </trkpt>
      <trkpt lat="40.7264590" lon="-8.2109530">
        <ele>385.4</ele>
        <time>2019-06-10T10:12:18Z</time>
      </trkpt>
      <trkpt lat="40.7264280" lon="-8.2109890">
        <ele>385.4</ele>
        <time>2019-06-10T10:12:19Z</time>
      </trkpt>
      <trkpt lat="40.7264010" lon="-8.2110280">
        <ele>385.4</ele>
        <time>2019-06-10T10:12:20Z</time>
      </trkpt>
      <trkpt lat="40.7263710" lon="-8.2110650">
        <ele>385.5</ele>
        <time>2019-06-10T10:12:21Z</time>
      </trkpt>
      <trkpt lat="40.7261290" lon="-8.2114310">
        <ele>385.7</ele>
        <time>2019-06-10T10:12:29Z</time>
      </trkpt>
      <trkpt lat="40.7260350" lon="-8.2115700">
        <ele>385.8</ele>
        <time>2019-06-10T10:12:32Z</time>
      </trkpt>
      <trkpt lat="40.7260050" lon="-8.2116090">
        <ele>385.8</ele>
        <time>2019-06-10T10:12:33Z</time>
      </trkpt>
      <trkpt lat="40.7259840" lon="-8.2116470">
        <ele>385.8</ele>
        <time>2019-06-10T10:12:34Z</time>
      </trkpt>
      <trkpt lat="40.7259670" lon="-8.2116930">
        <ele>385.9</ele>
        <time>2019-06-10T10:12:35Z</time>
      </trkpt>
      <trkpt lat="40.7259540" lon="-8.2117450">
        <ele>385.9</ele>
        <time>2019-06-10T10:12:36Z</time>
      </trkpt>
      <trkpt lat="40.7259380" lon="-8.2117980">
        <ele>385.9</ele>
        <time>2019-06-10T10:12:37Z</time>
      </trkpt>
      <trkpt lat="40.7257610" lon="-8.2122980">
        <ele>386.6</ele>
        <time>2019-06-10T10:12:46Z</time>
      </trkpt>
      <trkpt lat="40.7255730" lon="-8.2128300">
        <ele>387.2</ele>
        <time>2019-06-10T10:12:55Z</time>
      </trkpt>
      <trkpt lat="40.7254980" lon="-8.2131290">
        <ele>387.5</ele>
        <time>2019-06-10T10:13:00Z</time>
      </trkpt>
      <trkpt lat="40.7254820" lon="-8.2133200">
        <ele>387.6</ele>
        <time>2019-06-10T10:13:03Z</time>
      </trkpt>
      <trkpt lat="40.7254800" lon="-8.2138830">
        <ele>387.5</ele>
        <time>2019-06-10T10:13:12Z</time>
      </trkpt>
      <trkpt lat="40.7256600" lon="-8.2144650">
        <ele>388.1</ele>
        <time>2019-06-10T10:13:22Z</time>
      </trkpt>
      <trkpt lat="40.7257740" lon="-8.2146690">
        <ele>388.6</ele>
        <time>2019-06-10T10:13:26Z</time>
      </trkpt>
      <trkpt lat="40.7258070" lon="-8.2147200">
        <ele>388.7</ele>
        <time>2019-06-10T10:13:27Z</time>
      </trkpt>
      <trkpt lat="40.7258420" lon="-8.2147660">
        <ele>388.9</ele>
        <time>2019-06-10T10:13:28Z</time>
      </trkpt>
      <trkpt lat="40.7258780" lon="-8.2148120">
        <ele>389.0</ele>
        <time>2019-06-10T10:13:29Z</time>
      </trkpt>
      <trkpt lat="40.7259270" lon="-8.2148460">
        <ele>389.1</ele>
        <time>2019-06-10T10:13:30Z</time>
      </trkpt>
      <trkpt lat="40.7260550" lon="-8.2149430">
        <ele>389.5</ele>
        <time>2019-06-10T10:13:33Z</time>
      </trkpt>
      <trkpt lat="40.7261910" lon="-8.2150220">
        <ele>389.8</ele>
        <time>2019-06-10T10:13:36Z</time>
      </trkpt>
      <trkpt lat="40.7264810" lon="-8.2151720">
        <ele>390.6</ele>
        <time>2019-06-10T10:13:43Z</time>
      </trkpt>
      <trkpt lat="40.7265260" lon="-8.2151950">
        <ele>390.8</ele>
        <time>2019-06-10T10:13:44Z</time>
      </trkpt>
      <trkpt lat="40.7265740" lon="-8.2152120">
        <ele>391.0</ele>
        <time>2019-06-10T10:13:45Z</time>
      </trkpt>
      <trkpt lat="40.7266160" lon="-8.2152450">
        <ele>391.1</ele>
        <time>2019-06-10T10:13:46Z</time>
      </trkpt>
      <trkpt lat="40.7266540" lon="-8.2152710">
        <ele>391.3</ele>
        <time>2019-06-10T10:13:47Z</time>
      </trkpt>
      <trkpt lat="40.7266890" lon="-8.2152970">
        <ele>391.5</ele>
        <time>2019-06-10T10:13:48Z</time>
      </trkpt>
      <trkpt lat="40.7267630" lon="-8.2153530">
        <ele>391.8</ele>
        <time>2019-06-10T10:13:50Z</time>
      </trkpt>
      <trkpt lat="40.7269360" lon="-8.2155350">
        <ele>392.7</ele>
        <time>2019-06-10T10:13:55Z</time>
      </trkpt>
      <trkpt lat="40.7269670" lon="-8.2155800">
        <ele>392.8</ele>
        <time>2019-06-10T10:13:56Z</time>
      </trkpt>
      <trkpt lat="40.7270010" lon="-8.2156230">
        <ele>392.9</ele>
        <time>2019-06-10T10:13:57Z</time>
      </trkpt>
      <trkpt lat="40.7270320" lon="-8.2156670">
        <ele>393.0</ele>
        <time>2019-06-10T10:13:58Z</time>
      </trkpt>
      <trkpt lat="40.7270600" lon="-8.2157100">
        <ele>393.1</ele>
        <time>2019-06-10T10:13:59Z</time>
      </trkpt>
      <trkpt lat="40.7270890" lon="-8.2157560">
        <ele>393.2</ele>
        <time>2019-06-10T10:14:00Z</time>
      </trkpt>
      <trkpt lat="40.7272520" lon="-8.2160680">
        <ele>393.5</ele>
        <time>2019-06-10T10:14:06Z</time>
      </trkpt>
      <trkpt lat="40.7274100" lon="-8.2165000">
        <ele>393.6</ele>
        <time>2019-06-10T10:14:14Z</time>
      </trkpt>
      <trkpt lat="40.7274230" lon="-8.2165570">
        <ele>393.6</ele>
        <time>2019-06-10T10:14:15Z</time>
      </trkpt>
      <trkpt lat="40.7274860" lon="-8.2168880">
        <ele>393.4</ele>
        <time>2019-06-10T10:14:21Z</time>
      </trkpt>
      <trkpt lat="40.7274590" lon="-8.2173030">
        <ele>392.9</ele>
        <time>2019-06-10T10:14:28Z</time>
      </trkpt>
      <trkpt lat="40.7274310" lon="-8.2174270">
        <ele>392.8</ele>
        <time>2019-06-10T10:14:30Z</time>
      </trkpt>
      <trkpt lat="40.7274170" lon="-8.2174900">
        <ele>392.7</ele>
        <time>2019-06-10T10:14:31Z</time>
      </trkpt>
      <trkpt lat="40.7274000" lon="-8.2175520">
        <ele>392.5</ele>
        <time>2019-06-10T10:14:32Z</time>
      </trkpt>
      <trkpt lat="40.7273810" lon="-8.2176160">
        <ele>392.4</ele>
        <time>2019-06-10T10:14:33Z</time>
      </trkpt>
      <trkpt lat="40.7273580" lon="-8.2176750">
        <ele>392.3</ele>
        <time>2019-06-10T10:14:34Z</time>
      </trkpt>
      <trkpt lat="40.7272750" lon="-8.2178420">
        <ele>391.9</ele>
        <time>2019-06-10T10:14:37Z</time>
      </trkpt>
      <trkpt lat="40.7270440" lon="-8.2183240">
        <ele>390.8</ele>
        <time>2019-06-10T10:14:45Z</time>
      </trkpt>
      <trkpt lat="40.7270300" lon="-8.2184010">
        <ele>390.7</ele>
        <time>2019-06-10T10:14:46Z</time>
      </trkpt>
      <trkpt lat="40.7270190" lon="-8.2184760">
        <ele>390.6</ele>
        <time>2019-06-10T10:14:47Z</time>
      </trkpt>
      <trkpt lat="40.7270090" lon="-8.2185490">
        <ele>390.5</ele>
        <time>2019-06-10T10:14:48Z</time>
      </trkpt>
      <trkpt lat="40.7270020" lon="-8.2186280">
        <ele>390.5</ele>
        <time>2019-06-10T10:14:49Z</time>
      </trkpt>
      <trkpt lat="40.7269970" lon="-8.2187890">
        <ele>390.4</ele>
        <time>2019-06-10T10:14:51Z</time>
      </trkpt>
      <trkpt lat="40.7270270" lon="-8.2192700">
        <ele>390.0</ele>
        <time>2019-06-10T10:14:57Z</time>
      </trkpt>
      <trkpt lat="40.7269930" lon="-8.2195040">
        <ele>389.8</ele>
        <time>2019-06-10T10:15:00Z</time>
      </trkpt>
      <trkpt lat="40.7269640" lon="-8.2196610">
        <ele>389.6</ele>
        <time>2019-06-10T10:15:02Z</time>
      </trkpt>
      <trkpt lat="40.7268080" lon="-8.2201160">
        <ele>389.3</ele>
        <time>2019-06-10T10:15:08Z</time>
      </trkpt>
      <trkpt lat="40.7267720" lon="-8.2202810">
        <ele>389.2</ele>
        <time>2019-06-10T10:15:10Z</time>
      </trkpt>
      <trkpt lat="40.7267420" lon="-8.2205210">
        <ele>389.2</ele>
        <time>2019-06-10T10:15:13Z</time>
      </trkpt>
      <trkpt lat="40.7268160" lon="-8.2212460">
        <ele>389.0</ele>
        <time>2019-06-10T10:15:22Z</time>
      </trkpt>
      <trkpt lat="40.7270190" lon="-8.2217260">
        <ele>389.2</ele>
        <time>2019-06-10T10:15:29Z</time>
      </trkpt>
      <trkpt lat="40.7270740" lon="-8.2217660">
        <ele>389.2</ele>
        <time>2019-06-10T10:15:30Z</time>
      </trkpt>
      <trkpt lat="40.7271360" lon="-8.2218670">
        <ele>389.4</ele>
        <time>2019-06-10T10:15:32Z</time>
      </trkpt>
      <trkpt lat="40.7273240" lon="-8.2221560">
        <ele>389.9</ele>
        <time>2019-06-10T10:15:38Z</time>
      </trkpt>
      <trkpt lat="40.7276120" lon="-8.2226190">
        <ele>391.1</ele>
        <time>2019-06-10T10:15:48Z</time>
      </trkpt>
      <trkpt lat="40.7276740" lon="-8.2227220">
        <ele>391.3</ele>
        <time>2019-06-10T10:15:50Z</time>
      </trkpt>
      <trkpt lat="40.7277070" lon="-8.2227670">
        <ele>391.5</ele>
        <time>2019-06-10T10:15:51Z</time>
      </trkpt>
      <trkpt lat="40.7277390" lon="-8.2228120">
        <ele>391.6</ele>
        <time>2019-06-10T10:15:52Z</time>
      </trkpt>
      <trkpt lat="40.7277690" lon="-8.2228580">
        <ele>391.7</ele>
        <time>2019-06-10T10:15:53Z</time>
      </trkpt>
      <trkpt lat="40.7277950" lon="-8.2229100">
        <ele>391.8</ele>
        <time>2019-06-10T10:15:54Z</time>
      </trkpt>
      <trkpt lat="40.7280970" lon="-8.2233510">
        <ele>393.1</ele>
        <time>2019-06-10T10:16:04Z</time>
      </trkpt>
      <trkpt lat="40.7281270" lon="-8.2233890">
        <ele>393.2</ele>
        <time>2019-06-10T10:16:05Z</time>
      </trkpt>
      <trkpt lat="40.7281610" lon="-8.2234280">
        <ele>393.4</ele>
        <time>2019-06-10T10:16:06Z</time>
      </trkpt>
      <trkpt lat="40.7281930" lon="-8.2234630">
        <ele>393.5</ele>
        <time>2019-06-10T10:16:07Z</time>
      </trkpt>
      <trkpt lat="40.7282260" lon="-8.2234970">
        <ele>393.6</ele>
        <time>2019-06-10T10:16:08Z</time>
      </trkpt>
      <trkpt lat="40.7282570" lon="-8.2235280">
        <ele>393.6</ele>
        <time>2019-06-10T10:16:09Z</time>
      </trkpt>
      <trkpt lat="40.7283650" lon="-8.2236240">
        <ele>394.0</ele>
        <time>2019-06-10T10:16:12Z</time>
      </trkpt>
      <trkpt lat="40.7286230" lon="-8.2238110">
        <ele>394.9</ele>
        <time>2019-06-10T10:16:19Z</time>
      </trkpt>
      <trkpt lat="40.7288380" lon="-8.2240580">
        <ele>395.8</ele>
        <time>2019-06-10T10:16:26Z</time>
      </trkpt>
      <trkpt lat="40.7288650" lon="-8.2240990">
        <ele>395.9</ele>
        <time>2019-06-10T10:16:27Z</time>
      </trkpt>
      <trkpt lat="40.7288880" lon="-8.2241430">
        <ele>396.1</ele>
        <time>2019-06-10T10:16:28Z</time>
      </trkpt>
      <trkpt lat="40.7289110" lon="-8.2241880">
        <ele>396.2</ele>
        <time>2019-06-10T10:16:29Z</time>
      </trkpt>
      <trkpt lat="40.7289340" lon="-8.2242330">
        <ele>396.4</ele>
        <time>2019-06-10T10:16:30Z</time>
      </trkpt>
      <trkpt lat="40.7289660" lon="-8.2243340">
        <ele>396.7</ele>
        <time>2019-06-10T10:16:32Z</time>
      </trkpt>
      <trkpt lat="40.7289990" lon="-8.2244370">
        <ele>397.0</ele>
        <time>2019-06-10T10:16:34Z</time>
      </trkpt>
      <trkpt lat="40.7290870" lon="-8.2247370">
        <ele>397.4</ele>
        <time>2019-06-10T10:16:40Z</time>
      </trkpt>
      <trkpt lat="40.7291030" lon="-8.2247850">
        <ele>397.4</ele>
        <time>2019-06-10T10:16:41Z</time>
      </trkpt>
      <trkpt lat="40.7291670" lon="-8.2249740">
        <ele>397.7</ele>
        <time>2019-06-10T10:16:45Z</time>
      </trkpt>
      <trkpt lat="40.7291830" lon="-8.2250180">
        <ele>397.8</ele>
        <time>2019-06-10T10:16:46Z</time>
      </trkpt>
      <trkpt lat="40.7292030" lon="-8.2250620">
        <ele>397.9</ele>
        <time>2019-06-10T10:16:47Z</time>
      </trkpt>
      <trkpt lat="40.7292240" lon="-8.2251010">
        <ele>398.0</ele>
        <time>2019-06-10T10:16:48Z</time>
      </trkpt>
      <trkpt lat="40.7292430" lon="-8.2251410">
        <ele>398.1</ele>
        <time>2019-06-10T10:16:49Z</time>
      </trkpt>
      <trkpt lat="40.7292870" lon="-8.2252130">
        <ele>398.3</ele>
        <time>2019-06-10T10:16:51Z</time>
      </trkpt>
      <trkpt lat="40.7295040" lon="-8.2254880">
        <ele>399.2</ele>
        <time>2019-06-10T10:16:59Z</time>
      </trkpt>
      <trkpt lat="40.7295340" lon="-8.2255160">
        <ele>399.3</ele>
        <time>2019-06-10T10:17:00Z</time>
      </trkpt>
      <trkpt lat="40.7295640" lon="-8.2255470">
        <ele>399.4</ele>
        <time>2019-06-10T10:17:01Z</time>
      </trkpt>
      <trkpt lat="40.7295930" lon="-8.2255730">
        <ele>399.5</ele>
        <time>2019-06-10T10:17:02Z</time>
      </trkpt>
      <trkpt lat="40.7296240" lon="-8.2255990">
        <ele>399.6</ele>
        <time>2019-06-10T10:17:03Z</time>
      </trkpt>
      <trkpt lat="40.7297790" lon="-8.2257200">
        <ele>399.9</ele>
        <time>2019-06-10T10:17:08Z</time>
      </trkpt>
      <trkpt lat="40.7299880" lon="-8.2257980">
        <ele>400.4</ele>
        <time>2019-06-10T10:17:14Z</time>
      </trkpt>
      <trkpt lat="40.7302590" lon="-8.2258760">
        <ele>401.3</ele>
        <time>2019-06-10T10:17:21Z</time>
      </trkpt>
      <trkpt lat="40.7303350" lon="-8.2258880">
        <ele>401.5</ele>
        <time>2019-06-10T10:17:23Z</time>
      </trkpt>
      <trkpt lat="40.7303720" lon="-8.2258920">
        <ele>401.6</ele>
        <time>2019-06-10T10:17:24Z</time>
      </trkpt>
      <trkpt lat="40.7304090" lon="-8.2258950">
        <ele>401.7</ele>
        <time>2019-06-10T10:17:25Z</time>
      </trkpt>
      <trkpt lat="40.7304410" lon="-8.2258990">
        <ele>401.8</ele>
        <time>2019-06-10T10:17:26Z</time>
      </trkpt>
      <trkpt lat="40.7304800" lon="-8.2259160">
        <ele>401.9</ele>
        <time>2019-06-10T10:17:27Z</time>
      </trkpt>
      <trkpt lat="40.7305210" lon="-8.2259280">
        <ele>402.1</ele>
        <time>2019-06-10T10:17:28Z</time>
      </trkpt>
      <trkpt lat="40.7307770" lon="-8.2260030">
        <ele>402.9</ele>
        <time>2019-06-10T10:17:35Z</time>
      </trkpt>
      <trkpt lat="40.7309520" lon="-8.2261070">
        <ele>403.6</ele>
        <time>2019-06-10T10:17:40Z</time>
      </trkpt>
      <trkpt lat="40.7309860" lon="-8.2261330">
        <ele>403.8</ele>
        <time>2019-06-10T10:17:41Z</time>
      </trkpt>
      <trkpt lat="40.7310150" lon="-8.2261560">
        <ele>403.9</ele>
        <time>2019-06-10T10:17:42Z</time>
      </trkpt>
      <trkpt lat="40.7310490" lon="-8.2261780">
        <ele>404.1</ele>
        <time>2019-06-10T10:17:43Z</time>
      </trkpt>
      <trkpt lat="40.7310760" lon="-8.2262010">
        <ele>404.2</ele>
        <time>2019-06-10T10:17:44Z</time>
      </trkpt>
      <trkpt lat="40.7311930" lon="-8.2263230">
        <ele>404.7</ele>
        <time>2019-06-10T10:17:50Z</time>
      </trkpt>
      <trkpt lat="40.7312630" lon="-8.2264940">
        <ele>405.1</ele>
        <time>2019-06-10T10:17:55Z</time>
      </trkpt>
      <trkpt lat="40.7313970" lon="-8.2267970">
        <ele>405.8</ele>
        <time>2019-06-10T10:18:03Z</time>
      </trkpt>
      <trkpt lat="40.7314520" lon="-8.2271140">
        <ele>406.4</ele>
        <time>2019-06-10T10:18:10Z</time>
      </trkpt>
      <trkpt lat="40.7314530" lon="-8.2271630">
        <ele>406.5</ele>
        <time>2019-06-10T10:18:11Z</time>
      </trkpt>
      <trkpt lat="40.7314530" lon="-8.2272130">
        <ele>406.6</ele>
        <time>2019-06-10T10:18:12Z</time>
      </trkpt>
      <trkpt lat="40.7314500" lon="-8.2272570">
        <ele>406.7</ele>
        <time>2019-06-10T10:18:13Z</time>
      </trkpt>
      <trkpt lat="40.7314460" lon="-8.2273090">
        <ele>406.8</ele>
        <time>2019-06-10T10:18:14Z</time>
      </trkpt>
      <trkpt lat="40.7314490" lon="-8.2274860">
        <ele>407.1</ele>
        <time>2019-06-10T10:18:18Z</time>
      </trkpt>
      <trkpt lat="40.7314400" lon="-8.2279700">
        <ele>408.3</ele>
        <time>2019-06-10T10:18:29Z</time>
      </trkpt>
      <trkpt lat="40.7314340" lon="-8.2280130">
        <ele>408.4</ele>
        <time>2019-06-10T10:18:30Z</time>
      </trkpt>
      <trkpt lat="40.7314260" lon="-8.2280560">
        <ele>408.5</ele>
        <time>2019-06-10T10:18:31Z</time>
      </trkpt>
      <trkpt lat="40.7314200" lon="-8.2280970">
        <ele>408.7</ele>
        <time>2019-06-10T10:18:32Z</time>
      </trkpt>
      <trkpt lat="40.7314150" lon="-8.2281390">
        <ele>408.8</ele>
        <time>2019-06-10T10:18:33Z</time>
      </trkpt>
      <trkpt lat="40.7313790" lon="-8.2282790">
        <ele>409.4</ele>
        <time>2019-06-10T10:18:37Z</time>
      </trkpt>
      <trkpt lat="40.7313660" lon="-8.2283100">
        <ele>409.5</ele>
        <time>2019-06-10T10:18:38Z</time>
      </trkpt>
      <trkpt lat="40.7313460" lon="-8.2283430">
        <ele>409.7</ele>
        <time>2019-06-10T10:18:39Z</time>
      </trkpt>
      <trkpt lat="40.7313340" lon="-8.2283680">
        <ele>409.8</ele>
        <time>2019-06-10T10:18:40Z</time>
      </trkpt>
      <trkpt lat="40.7313260" lon="-8.2284040">
        <ele>409.9</ele>
        <time>2019-06-10T10:18:41Z</time>
      </trkpt>
      <trkpt lat="40.7313190" lon="-8.2284330">
        <ele>410.0</ele>
        <time>2019-06-10T10:18:42Z</time>
      </trkpt>
      <trkpt lat="40.7313060" lon="-8.2284670">
        <ele>410.2</ele>
        <time>2019-06-10T10:18:43Z</time>
      </trkpt>
      <trkpt lat="40.7311950" lon="-8.2286310">
        <ele>411.1</ele>
        <time>2019-06-10T10:18:49Z</time>
      </trkpt>
      <trkpt lat="40.7310550" lon="-8.2287820">
        <ele>411.9</ele>
        <time>2019-06-10T10:18:55Z</time>
      </trkpt>
      <trkpt lat="40.7309870" lon="-8.2288640">
        <ele>412.2</ele>
        <time>2019-06-10T10:18:58Z</time>
      </trkpt>
      <trkpt lat="40.7309660" lon="-8.2288960">
        <ele>412.3</ele>
        <time>2019-06-10T10:18:59Z</time>
      </trkpt>
      <trkpt lat="40.7309530" lon="-8.2289340">
        <ele>412.4</ele>
        <time>2019-06-10T10:19:00Z</time>
      </trkpt>
      <trkpt lat="40.7309390" lon="-8.2289730">
        <ele>412.5</ele>
        <time>2019-06-10T10:19:01Z</time>
      </trkpt>
      <trkpt lat="40.7309280" lon="-8.2290130">
        <ele>412.6</ele>
        <time>2019-06-10T10:19:02Z</time>
      </trkpt>
      <trkpt lat="40.7309100" lon="-8.2290530">
        <ele>412.8</ele>
        <time>2019-06-10T10:19:03Z</time>
      </trkpt>
      <trkpt lat="40.7307700" lon="-8.2294180">
        <ele>414.0</ele>
        <time>2019-06-10T10:19:12Z</time>
      </trkpt>
      <trkpt lat="40.7307580" lon="-8.2294610">
        <ele>414.1</ele>
        <time>2019-06-10T10:19:13Z</time>
      </trkpt>
      <trkpt lat="40.7307460" lon="-8.2295060">
        <ele>414.3</ele>
        <time>2019-06-10T10:19:14Z</time>
      </trkpt>
      <trkpt lat="40.7307340" lon="-8.2295530">
        <ele>414.5</ele>
        <time>2019-06-10T10:19:15Z</time>
      </trkpt>
      <trkpt lat="40.7307140" lon="-8.2296050">
        <ele>414.7</ele>
        <time>2019-06-10T10:19:16Z</time>
      </trkpt>
      <trkpt lat="40.7306460" lon="-8.2296670">
        <ele>415.1</ele>
        <time>2019-06-10T10:19:18Z</time>
      </trkpt>
      <trkpt lat="40.7305730" lon="-8.2298360">
        <ele>416.1</ele>
        <time>2019-06-10T10:19:22Z</time>
      </trkpt>
      <trkpt lat="40.7305610" lon="-8.2298760">
        <ele>416.2</ele>
        <time>2019-06-10T10:19:23Z</time>
      </trkpt>
      <trkpt lat="40.7305510" lon="-8.2299190">
        <ele>416.4</ele>
        <time>2019-06-10T10:19:24Z</time>
      </trkpt>
      <trkpt lat="40.7305360" lon="-8.2299640">
        <ele>416.6</ele>
        <time>2019-06-10T10:19:25Z</time>
      </trkpt>
      <trkpt lat="40.7305250" lon="-8.2300120">
        <ele>416.9</ele>
        <time>2019-06-10T10:19:26Z</time>
      </trkpt>
      <trkpt lat="40.7304950" lon="-8.2301960">
        <ele>417.7</ele>
        <time>2019-06-10T10:19:30Z</time>
      </trkpt>
      <trkpt lat="40.7304440" lon="-8.2303700">
        <ele>418.3</ele>
        <time>2019-06-10T10:19:36Z</time>
      </trkpt>
      <trkpt lat="40.7304050" lon="-8.2304920">
        <ele>418.6</ele>
        <time>2019-06-10T10:19:43Z</time>
      </trkpt>
      <trkpt lat="40.7303430" lon="-8.2307470">
        <ele>418.3</ele>
        <time>2019-06-10T10:19:51Z</time>
      </trkpt>
      <trkpt lat="40.7302730" lon="-8.2310590">
        <ele>416.8</ele>
        <time>2019-06-10T10:19:57Z</time>
      </trkpt>
      <trkpt lat="40.7302060" lon="-8.2312490">
        <ele>415.7</ele>
        <time>2019-06-10T10:20:00Z</time>
      </trkpt>
      <trkpt lat="40.7301810" lon="-8.2313140">
        <ele>415.2</ele>
        <time>2019-06-10T10:20:01Z</time>
      </trkpt>
      <trkpt lat="40.7301560" lon="-8.2313760">
        <ele>414.8</ele>
        <time>2019-06-10T10:20:02Z</time>
      </trkpt>
      <trkpt lat="40.7301340" lon="-8.2314370">
        <ele>414.3</ele>
        <time>2019-06-10T10:20:03Z</time>
      </trkpt>
      <trkpt lat="40.7301110" lon="-8.2314990">
        <ele>413.9</ele>
        <time>2019-06-10T10:20:04Z</time>
      </trkpt>
      <trkpt lat="40.7300170" lon="-8.2317110">
        <ele>412.8</ele>
        <time>2019-06-10T10:20:08Z</time>
      </trkpt>
      <trkpt lat="40.7299650" lon="-8.2318010">
        <ele>412.5</ele>
        <time>2019-06-10T10:20:10Z</time>
      </trkpt>
      <trkpt lat="40.7298050" lon="-8.2320800">
        <ele>412.7</ele>
        <time>2019-06-10T10:20:17Z</time>
      </trkpt>
      <trkpt lat="40.7296130" lon="-8.2323840">
        <ele>412.9</ele>
        <time>2019-06-10T10:20:25Z</time>
      </trkpt>
      <trkpt lat="40.7295830" lon="-8.2324700">
        <ele>412.9</ele>
        <time>2019-06-10T10:20:30Z</time>
      </trkpt>
      <trkpt lat="40.7295810" lon="-8.2324940">
        <ele>412.9</ele>
        <time>2019-06-10T10:24:22Z</time>
      </trkpt>
      <trkpt lat="40.7295450" lon="-8.2325620">
        <ele>412.9</ele>
        <time>2019-06-10T10:24:25Z</time>
      </trkpt>
      <trkpt lat="40.7294360" lon="-8.2327370">
        <ele>412.9</ele>
        <time>2019-06-10T10:24:31Z</time>
      </trkpt>
      <trkpt lat="40.7292870" lon="-8.2329980">
        <ele>413.0</ele>
        <time>2019-06-10T10:24:37Z</time>
      </trkpt>
      <trkpt lat="40.7290930" lon="-8.2333530">
        <ele>413.2</ele>
        <time>2019-06-10T10:24:44Z</time>
      </trkpt>
      <trkpt lat="40.7288430" lon="-8.2338090">
        <ele>413.1</ele>
        <time>2019-06-10T10:24:53Z</time>
      </trkpt>
      <trkpt lat="40.7287840" lon="-8.2339270">
        <ele>413.0</ele>
        <time>2019-06-10T10:24:55Z</time>
      </trkpt>
      <trkpt lat="40.7286890" lon="-8.2341800">
        <ele>412.8</ele>
        <time>2019-06-10T10:24:59Z</time>
      </trkpt>
      <trkpt lat="40.7286620" lon="-8.2343350">
        <ele>412.6</ele>
        <time>2019-06-10T10:25:01Z</time>
      </trkpt>
      <trkpt lat="40.7286390" lon="-8.2344880">
        <ele>412.5</ele>
        <time>2019-06-10T10:25:03Z</time>
      </trkpt>
      <trkpt lat="40.7286200" lon="-8.2348990">
        <ele>412.5</ele>
        <time>2019-06-10T10:25:09Z</time>
      </trkpt>
      <trkpt lat="40.7286420" lon="-8.2351830">
        <ele>412.6</ele>
        <time>2019-06-10T10:25:13Z</time>
      </trkpt>
      <trkpt lat="40.7286840" lon="-8.2353370">
        <ele>412.7</ele>
        <time>2019-06-10T10:25:15Z</time>
      </trkpt>
      <trkpt lat="40.7287320" lon="-8.2354850">
        <ele>412.9</ele>
        <time>2019-06-10T10:25:17Z</time>
      </trkpt>
      <trkpt lat="40.7288710" lon="-8.2358450">
        <ele>413.2</ele>
        <time>2019-06-10T10:25:22Z</time>
      </trkpt>
      <trkpt lat="40.7290880" lon="-8.2363400">
        <ele>413.8</ele>
        <time>2019-06-10T10:25:30Z</time>
      </trkpt>
      <trkpt lat="40.7292110" lon="-8.2365330">
        <ele>414.0</ele>
        <time>2019-06-10T10:25:34Z</time>
      </trkpt>
      <trkpt lat="40.7292830" lon="-8.2366040">
        <ele>414.1</ele>
        <time>2019-06-10T10:25:36Z</time>
      </trkpt>
      <trkpt lat="40.7293230" lon="-8.2366450">
        <ele>414.2</ele>
        <time>2019-06-10T10:25:37Z</time>
      </trkpt>
      <trkpt lat="40.7293610" lon="-8.2366780">
        <ele>414.2</ele>
        <time>2019-06-10T10:25:38Z</time>
      </trkpt>
      <trkpt lat="40.7294070" lon="-8.2367190">
        <ele>414.2</ele>
        <time>2019-06-10T10:25:39Z</time>
      </trkpt>
      <trkpt lat="40.7294500" lon="-8.2367570">
        <ele>414.2</ele>
        <time>2019-06-10T10:25:40Z</time>
      </trkpt>
      <trkpt lat="40.7294940" lon="-8.2367920">
        <ele>414.3</ele>
        <time>2019-06-10T10:25:41Z</time>
      </trkpt>
      <trkpt lat="40.7295840" lon="-8.2368580">
        <ele>414.3</ele>
        <time>2019-06-10T10:25:43Z</time>
      </trkpt>
      <trkpt lat="40.7297670" lon="-8.2369720">
        <ele>414.3</ele>
        <time>2019-06-10T10:25:48Z</time>
      </trkpt>
      <trkpt lat="40.7300740" lon="-8.2370950">
        <ele>414.2</ele>
        <time>2019-06-10T10:25:56Z</time>
      </trkpt>
      <trkpt lat="40.7304240" lon="-8.2371790">
        <ele>414.6</ele>
        <time>2019-06-10T10:26:04Z</time>
      </trkpt>
      <trkpt lat="40.7305570" lon="-8.2371770">
        <ele>414.8</ele>
        <time>2019-06-10T10:26:07Z</time>
      </trkpt>
      <trkpt lat="40.7306390" lon="-8.2371750">
        <ele>414.9</ele>
        <time>2019-06-10T10:26:09Z</time>
      </trkpt>
      <trkpt lat="40.7308790" lon="-8.2371630">
        <ele>415.1</ele>
        <time>2019-06-10T10:26:15Z</time>
      </trkpt>
      <trkpt lat="40.7310580" lon="-8.2371670">
        <ele>415.2</ele>
        <time>2019-06-10T10:26:20Z</time>
      </trkpt>
      <trkpt lat="40.7313390" lon="-8.2371250">
        <ele>415.3</ele>
        <time>2019-06-10T10:26:25Z</time>
      </trkpt>
      <trkpt lat="40.7316700" lon="-8.2370100">
        <ele>415.4</ele>
        <time>2019-06-10T10:26:30Z</time>
      </trkpt>
      <trkpt lat="40.7317350" lon="-8.2369780">
        <ele>415.4</ele>
        <time>2019-06-10T10:26:31Z</time>
      </trkpt>
      <trkpt lat="40.7318760" lon="-8.2368660">
        <ele>415.5</ele>
        <time>2019-06-10T10:26:34Z</time>
      </trkpt>
      <trkpt lat="40.7320000" lon="-8.2367230">
        <ele>415.6</ele>
        <time>2019-06-10T10:26:37Z</time>
      </trkpt>
      <trkpt lat="40.7322490" lon="-8.2363950">
        <ele>415.7</ele>
        <time>2019-06-10T10:26:43Z</time>
      </trkpt>
      <trkpt lat="40.7322780" lon="-8.2363390">
        <ele>415.7</ele>
        <time>2019-06-10T10:26:44Z</time>
      </trkpt>
      <trkpt lat="40.7324120" lon="-8.2361330">
        <ele>415.7</ele>
        <time>2019-06-10T10:26:48Z</time>
      </trkpt>
      <trkpt lat="40.7327030" lon="-8.2358550">
        <ele>415.9</ele>
        <time>2019-06-10T10:26:55Z</time>
      </trkpt>
      <trkpt lat="40.7328480" lon="-8.2357810">
        <ele>415.9</ele>
        <time>2019-06-10T10:26:58Z</time>
      </trkpt>
      <trkpt lat="40.7329370" lon="-8.2357510">
        <ele>415.9</ele>
        <time>2019-06-10T10:27:00Z</time>
      </trkpt>
      <trkpt lat="40.7330480" lon="-8.2357160">
        <ele>416.0</ele>
        <time>2019-06-10T10:27:02Z</time>
      </trkpt>
      <trkpt lat="40.7332070" lon="-8.2357040">
        <ele>416.0</ele>
        <time>2019-06-10T10:27:05Z</time>
      </trkpt>
      <trkpt lat="40.7333920" lon="-8.2357200">
        <ele>415.9</ele>
        <time>2019-06-10T10:27:09Z</time>
      </trkpt>
      <trkpt lat="40.7335040" lon="-8.2357620">
        <ele>415.9</ele>
        <time>2019-06-10T10:27:11Z</time>
      </trkpt>
      <trkpt lat="40.7337450" lon="-8.2358720">
        <ele>415.7</ele>
        <time>2019-06-10T10:27:15Z</time>
      </trkpt>
      <trkpt lat="40.7338210" lon="-8.2359500">
        <ele>415.6</ele>
        <time>2019-06-10T10:27:17Z</time>
      </trkpt>
      <trkpt lat="40.7339940" lon="-8.2361480">
        <ele>415.4</ele>
        <time>2019-06-10T10:27:21Z</time>
      </trkpt>
      <trkpt lat="40.7340450" lon="-8.2362130">
        <ele>415.3</ele>
        <time>2019-06-10T10:27:22Z</time>
      </trkpt>
      <trkpt lat="40.7340790" lon="-8.2362870">
        <ele>415.2</ele>
        <time>2019-06-10T10:27:23Z</time>
      </trkpt>
      <trkpt lat="40.7342200" lon="-8.2365860">
        <ele>414.6</ele>
        <time>2019-06-10T10:27:27Z</time>
      </trkpt>
      <trkpt lat="40.7342620" lon="-8.2366590">
        <ele>414.5</ele>
        <time>2019-06-10T10:27:28Z</time>
      </trkpt>
      <trkpt lat="40.7342980" lon="-8.2367240">
        <ele>414.3</ele>
        <time>2019-06-10T10:27:29Z</time>
      </trkpt>
      <trkpt lat="40.7343390" lon="-8.2367980">
        <ele>414.2</ele>
        <time>2019-06-10T10:27:30Z</time>
      </trkpt>
      <trkpt lat="40.7343710" lon="-8.2368680">
        <ele>414.0</ele>
        <time>2019-06-10T10:27:31Z</time>
      </trkpt>
      <trkpt lat="40.7343980" lon="-8.2369480">
        <ele>413.8</ele>
        <time>2019-06-10T10:27:32Z</time>
      </trkpt>
      <trkpt lat="40.7344170" lon="-8.2370350">
        <ele>413.6</ele>
        <time>2019-06-10T10:27:33Z</time>
      </trkpt>
      <trkpt lat="40.7344810" lon="-8.2375570">
        <ele>412.5</ele>
        <time>2019-06-10T10:27:39Z</time>
      </trkpt>
      <trkpt lat="40.7344740" lon="-8.2376640">
        <ele>412.4</ele>
        <time>2019-06-10T10:27:40Z</time>
      </trkpt>
      <trkpt lat="40.7344770" lon="-8.2377650">
        <ele>412.2</ele>
        <time>2019-06-10T10:27:41Z</time>
      </trkpt>
      <trkpt lat="40.7344820" lon="-8.2378520">
        <ele>412.1</ele>
        <time>2019-06-10T10:27:42Z</time>
      </trkpt>
      <trkpt lat="40.7344710" lon="-8.2379640">
        <ele>411.9</ele>
        <time>2019-06-10T10:27:43Z</time>
      </trkpt>
      <trkpt lat="40.7344530" lon="-8.2380570">
        <ele>411.8</ele>
        <time>2019-06-10T10:27:44Z</time>
      </trkpt>
      <trkpt lat="40.7344350" lon="-8.2381330">
        <ele>411.7</ele>
        <time>2019-06-10T10:27:45Z</time>
      </trkpt>
      <trkpt lat="40.7343370" lon="-8.2384630">
        <ele>411.3</ele>
        <time>2019-06-10T10:27:48Z</time>
      </trkpt>
      <trkpt lat="40.7343010" lon="-8.2385520">
        <ele>411.1</ele>
        <time>2019-06-10T10:27:49Z</time>
      </trkpt>
      <trkpt lat="40.7342520" lon="-8.2386350">
        <ele>411.0</ele>
        <time>2019-06-10T10:27:50Z</time>
      </trkpt>
      <trkpt lat="40.7341840" lon="-8.2388180">
        <ele>410.7</ele>
        <time>2019-06-10T10:27:52Z</time>
      </trkpt>
      <trkpt lat="40.7341530" lon="-8.2388860">
        <ele>410.6</ele>
        <time>2019-06-10T10:27:53Z</time>
      </trkpt>
      <trkpt lat="40.7341170" lon="-8.2389590">
        <ele>410.5</ele>
        <time>2019-06-10T10:27:54Z</time>
      </trkpt>
      <trkpt lat="40.7340670" lon="-8.2390310">
        <ele>410.3</ele>
        <time>2019-06-10T10:27:55Z</time>
      </trkpt>
      <trkpt lat="40.7340200" lon="-8.2391000">
        <ele>410.1</ele>
        <time>2019-06-10T10:27:56Z</time>
      </trkpt>
      <trkpt lat="40.7339210" lon="-8.2392410">
        <ele>409.7</ele>
        <time>2019-06-10T10:27:58Z</time>
      </trkpt>
      <trkpt lat="40.7335410" lon="-8.2396770">
        <ele>408.2</ele>
        <time>2019-06-10T10:28:04Z</time>
      </trkpt>
      <trkpt lat="40.7334900" lon="-8.2397490">
        <ele>407.9</ele>
        <time>2019-06-10T10:28:05Z</time>
      </trkpt>
      <trkpt lat="40.7334550" lon="-8.2398250">
        <ele>407.7</ele>
        <time>2019-06-10T10:28:06Z</time>
      </trkpt>
      <trkpt lat="40.7334210" lon="-8.2399100">
        <ele>407.5</ele>
        <time>2019-06-10T10:28:07Z</time>
      </trkpt>
      <trkpt lat="40.7333910" lon="-8.2399970">
        <ele>407.3</ele>
        <time>2019-06-10T10:28:08Z</time>
      </trkpt>
      <trkpt lat="40.7333620" lon="-8.2400900">
        <ele>407.1</ele>
        <time>2019-06-10T10:28:09Z</time>
      </trkpt>
      <trkpt lat="40.7333270" lon="-8.2402630">
        <ele>406.7</ele>
        <time>2019-06-10T10:28:11Z</time>
      </trkpt>
      <trkpt lat="40.7333130" lon="-8.2403520">
        <ele>406.5</ele>
        <time>2019-06-10T10:28:12Z</time>
      </trkpt>
      <trkpt lat="40.7332980" lon="-8.2404510">
        <ele>406.3</ele>
        <time>2019-06-10T10:28:13Z</time>
      </trkpt>
      <trkpt lat="40.7332850" lon="-8.2405490">
        <ele>406.1</ele>
        <time>2019-06-10T10:28:14Z</time>
      </trkpt>
      <trkpt lat="40.7332710" lon="-8.2406550">
        <ele>405.9</ele>
        <time>2019-06-10T10:28:15Z</time>
      </trkpt>
      <trkpt lat="40.7331120" lon="-8.2412480">
        <ele>404.8</ele>
        <time>2019-06-10T10:28:21Z</time>
      </trkpt>
      <trkpt lat="40.7330330" lon="-8.2414220">
        <ele>404.5</ele>
        <time>2019-06-10T10:28:23Z</time>
      </trkpt>
      <trkpt lat="40.7329350" lon="-8.2415800">
        <ele>404.2</ele>
        <time>2019-06-10T10:28:25Z</time>
      </trkpt>
      <trkpt lat="40.7328870" lon="-8.2416600">
        <ele>404.0</ele>
        <time>2019-06-10T10:28:26Z</time>
      </trkpt>
      <trkpt lat="40.7328360" lon="-8.2417310">
        <ele>403.8</ele>
        <time>2019-06-10T10:28:27Z</time>
      </trkpt>
      <trkpt lat="40.7327870" lon="-8.2418040">
        <ele>403.7</ele>
        <time>2019-06-10T10:28:28Z</time>
      </trkpt>
      <trkpt lat="40.7327280" lon="-8.2418650">
        <ele>403.5</ele>
        <time>2019-06-10T10:28:29Z</time>
      </trkpt>
      <trkpt lat="40.7326710" lon="-8.2419290">
        <ele>403.3</ele>
        <time>2019-06-10T10:28:30Z</time>
      </trkpt>
      <trkpt lat="40.7326080" lon="-8.2419830">
        <ele>403.1</ele>
        <time>2019-06-10T10:28:31Z</time>
      </trkpt>
      <trkpt lat="40.7322610" lon="-8.2424110">
        <ele>402.0</ele>
        <time>2019-06-10T10:28:38Z</time>
      </trkpt>
      <trkpt lat="40.7321600" lon="-8.2426000">
        <ele>401.7</ele>
        <time>2019-06-10T10:28:41Z</time>
      </trkpt>
      <trkpt lat="40.7321210" lon="-8.2426770">
        <ele>401.6</ele>
        <time>2019-06-10T10:28:42Z</time>
      </trkpt>
      <trkpt lat="40.7320770" lon="-8.2427610">
        <ele>401.6</ele>
        <time>2019-06-10T10:28:43Z</time>
      </trkpt>
      <trkpt lat="40.7320460" lon="-8.2428520">
        <ele>401.5</ele>
        <time>2019-06-10T10:28:44Z</time>
      </trkpt>
      <trkpt lat="40.7320150" lon="-8.2429400">
        <ele>401.4</ele>
        <time>2019-06-10T10:28:45Z</time>
      </trkpt>
      <trkpt lat="40.7319830" lon="-8.2430310">
        <ele>401.3</ele>
        <time>2019-06-10T10:28:46Z</time>
      </trkpt>
      <trkpt lat="40.7319500" lon="-8.2431220">
        <ele>401.2</ele>
        <time>2019-06-10T10:28:47Z</time>
      </trkpt>
      <trkpt lat="40.7319200" lon="-8.2432150">
        <ele>401.2</ele>
        <time>2019-06-10T10:28:48Z</time>
      </trkpt>
      <trkpt lat="40.7318900" lon="-8.2433040">
        <ele>401.1</ele>
        <time>2019-06-10T10:28:49Z</time>
      </trkpt>
      <trkpt lat="40.7318620" lon="-8.2433980">
        <ele>401.0</ele>
        <time>2019-06-10T10:28:50Z</time>
      </trkpt>
      <trkpt lat="40.7316950" lon="-8.2438360">
        <ele>400.6</ele>
        <time>2019-06-10T10:28:55Z</time>
      </trkpt>
      <trkpt lat="40.7316790" lon="-8.2439170">
        <ele>400.5</ele>
        <time>2019-06-10T10:28:56Z</time>
      </trkpt>
      <trkpt lat="40.7316290" lon="-8.2441380">
        <ele>400.3</ele>
        <time>2019-06-10T10:28:59Z</time>
      </trkpt>
      <trkpt lat="40.7314810" lon="-8.2444510">
        <ele>400.0</ele>
        <time>2019-06-10T10:29:04Z</time>
      </trkpt>
      <trkpt lat="40.7314470" lon="-8.2445050">
        <ele>399.9</ele>
        <time>2019-06-10T10:29:05Z</time>
      </trkpt>
      <trkpt lat="40.7314070" lon="-8.2445520">
        <ele>399.9</ele>
        <time>2019-06-10T10:29:06Z</time>
      </trkpt>
      <trkpt lat="40.7313720" lon="-8.2446100">
        <ele>399.9</ele>
        <time>2019-06-10T10:29:07Z</time>
      </trkpt>
      <trkpt lat="40.7313380" lon="-8.2446670">
        <ele>399.8</ele>
        <time>2019-06-10T10:29:08Z</time>
      </trkpt>
      <trkpt lat="40.7312760" lon="-8.2447900">
        <ele>399.7</ele>
        <time>2019-06-10T10:29:10Z</time>
      </trkpt>
      <trkpt lat="40.7310140" lon="-8.2452960">
        <ele>399.3</ele>
        <time>2019-06-10T10:29:18Z</time>
      </trkpt>
      <trkpt lat="40.7309850" lon="-8.2453570">
        <ele>399.3</ele>
        <time>2019-06-10T10:29:19Z</time>
      </trkpt>
      <trkpt lat="40.7309530" lon="-8.2454210">
        <ele>399.3</ele>
        <time>2019-06-10T10:29:20Z</time>
      </trkpt>
      <trkpt lat="40.7309200" lon="-8.2454870">
        <ele>399.2</ele>
        <time>2019-06-10T10:29:21Z</time>
      </trkpt>
      <trkpt lat="40.7308860" lon="-8.2455510">
        <ele>399.2</ele>
        <time>2019-06-10T10:29:22Z</time>
      </trkpt>
      <trkpt lat="40.7306560" lon="-8.2459410">
        <ele>398.9</ele>
        <time>2019-06-10T10:29:28Z</time>
      </trkpt>
      <trkpt lat="40.7305610" lon="-8.2461380">
        <ele>398.8</ele>
        <time>2019-06-10T10:29:31Z</time>
      </trkpt>
      <trkpt lat="40.7305230" lon="-8.2462020">
        <ele>398.7</ele>
        <time>2019-06-10T10:29:32Z</time>
      </trkpt>
      <trkpt lat="40.7304800" lon="-8.2462730">
        <ele>398.7</ele>
        <time>2019-06-10T10:29:33Z</time>
      </trkpt>
      <trkpt lat="40.7304320" lon="-8.2463400">
        <ele>398.6</ele>
        <time>2019-06-10T10:29:34Z</time>
      </trkpt>
      <trkpt lat="40.7303800" lon="-8.2464020">
        <ele>398.6</ele>
        <time>2019-06-10T10:29:35Z</time>
      </trkpt>
      <trkpt lat="40.7303140" lon="-8.2464440">
        <ele>398.5</ele>
        <time>2019-06-10T10:29:36Z</time>
      </trkpt>
      <trkpt lat="40.7302030" lon="-8.2465450">
        <ele>398.5</ele>
        <time>2019-06-10T10:29:38Z</time>
      </trkpt>
      <trkpt lat="40.7301420" lon="-8.2465790">
        <ele>398.5</ele>
        <time>2019-06-10T10:29:39Z</time>
      </trkpt>
      <trkpt lat="40.7300100" lon="-8.2466410">
        <ele>398.4</ele>
        <time>2019-06-10T10:29:41Z</time>
      </trkpt>
      <trkpt lat="40.7299470" lon="-8.2466810">
        <ele>398.4</ele>
        <time>2019-06-10T10:29:42Z</time>
      </trkpt>
      <trkpt lat="40.7298810" lon="-8.2467230">
        <ele>398.4</ele>
        <time>2019-06-10T10:29:43Z</time>
      </trkpt>
      <trkpt lat="40.7298150" lon="-8.2467650">
        <ele>398.4</ele>
        <time>2019-06-10T10:29:44Z</time>
      </trkpt>
      <trkpt lat="40.7297540" lon="-8.2468070">
        <ele>398.4</ele>
        <time>2019-06-10T10:29:45Z</time>
      </trkpt>
      <trkpt lat="40.7295160" lon="-8.2470280">
        <ele>398.4</ele>
        <time>2019-06-10T10:29:49Z</time>
      </trkpt>
      <trkpt lat="40.7294590" lon="-8.2470940">
        <ele>398.5</ele>
        <time>2019-06-10T10:29:50Z</time>
      </trkpt>
      <trkpt lat="40.7293610" lon="-8.2472390">
        <ele>398.5</ele>
        <time>2019-06-10T10:29:52Z</time>
      </trkpt>
      <trkpt lat="40.7292570" lon="-8.2473840">
        <ele>398.5</ele>
        <time>2019-06-10T10:29:54Z</time>
      </trkpt>
      <trkpt lat="40.7292200" lon="-8.2474680">
        <ele>398.5</ele>
        <time>2019-06-10T10:29:55Z</time>
      </trkpt>
      <trkpt lat="40.7291890" lon="-8.2475540">
        <ele>398.5</ele>
        <time>2019-06-10T10:29:56Z</time>
      </trkpt>
      <trkpt lat="40.7291630" lon="-8.2476410">
        <ele>398.6</ele>
        <time>2019-06-10T10:29:57Z</time>
      </trkpt>
      <trkpt lat="40.7291420" lon="-8.2477370">
        <ele>398.6</ele>
        <time>2019-06-10T10:29:58Z</time>
      </trkpt>
      <trkpt lat="40.7291190" lon="-8.2479270">
        <ele>398.7</ele>
        <time>2019-06-10T10:30:00Z</time>
      </trkpt>
      <trkpt lat="40.7291010" lon="-8.2481030">
        <ele>398.7</ele>
        <time>2019-06-10T10:30:02Z</time>
      </trkpt>
      <trkpt lat="40.7291060" lon="-8.2482780">
        <ele>398.8</ele>
        <time>2019-06-10T10:30:04Z</time>
      </trkpt>
      <trkpt lat="40.7291040" lon="-8.2483700">
        <ele>398.8</ele>
        <time>2019-06-10T10:30:05Z</time>
      </trkpt>
      <trkpt lat="40.7291890" lon="-8.2486820">
        <ele>399.0</ele>
        <time>2019-06-10T10:30:09Z</time>
      </trkpt>
      <trkpt lat="40.7292380" lon="-8.2488120">
        <ele>399.0</ele>
        <time>2019-06-10T10:30:11Z</time>
      </trkpt>
      <trkpt lat="40.7293470" lon="-8.2489710">
        <ele>399.1</ele>
        <time>2019-06-10T10:30:14Z</time>
      </trkpt>
      <trkpt lat="40.7294140" lon="-8.2490650">
        <ele>399.2</ele>
        <time>2019-06-10T10:30:16Z</time>
      </trkpt>
      <trkpt lat="40.7295640" lon="-8.2492230">
        <ele>399.3</ele>
        <time>2019-06-10T10:30:20Z</time>
      </trkpt>
      <trkpt lat="40.7298950" lon="-8.2494430">
        <ele>399.4</ele>
        <time>2019-06-10T10:30:27Z</time>
      </trkpt>
      <trkpt lat="40.7299840" lon="-8.2494920">
        <ele>399.4</ele>
        <time>2019-06-10T10:30:29Z</time>
      </trkpt>
      <trkpt lat="40.7300240" lon="-8.2495240">
        <ele>399.4</ele>
        <time>2019-06-10T10:30:30Z</time>
      </trkpt>
      <trkpt lat="40.7300720" lon="-8.2495520">
        <ele>399.4</ele>
        <time>2019-06-10T10:30:31Z</time>
      </trkpt>
      <trkpt lat="40.7301090" lon="-8.2495790">
        <ele>399.4</ele>
        <time>2019-06-10T10:30:32Z</time>
      </trkpt>
      <trkpt lat="40.7301610" lon="-8.2496000">
        <ele>399.4</ele>
        <time>2019-06-10T10:30:33Z</time>
      </trkpt>
      <trkpt lat="40.7302100" lon="-8.2496300">
        <ele>399.4</ele>
        <time>2019-06-10T10:30:34Z</time>
      </trkpt>
      <trkpt lat="40.7304830" lon="-8.2499030">
        <ele>399.3</ele>
        <time>2019-06-10T10:30:41Z</time>
      </trkpt>
      <trkpt lat="40.7306240" lon="-8.2500590">
        <ele>399.3</ele>
        <time>2019-06-10T10:30:47Z</time>
      </trkpt>
      <trkpt lat="40.7307100" lon="-8.2502330">
        <ele>399.2</ele>
        <time>2019-06-10T10:30:51Z</time>
      </trkpt>
      <trkpt lat="40.7307360" lon="-8.2502810">
        <ele>399.2</ele>
        <time>2019-06-10T10:30:52Z</time>
      </trkpt>
      <trkpt lat="40.7309800" lon="-8.2506820">
        <ele>398.6</ele>
        <time>2019-06-10T10:30:59Z</time>
      </trkpt>
      <trkpt lat="40.7311270" lon="-8.2512130">
        <ele>398.8</ele>
        <time>2019-06-10T10:31:07Z</time>
      </trkpt>
      <trkpt lat="40.7311440" lon="-8.2516480">
        <ele>398.6</ele>
        <time>2019-06-10T10:31:13Z</time>
      </trkpt>
      <trkpt lat="40.7311100" lon="-8.2520890">
        <ele>397.9</ele>
        <time>2019-06-10T10:31:19Z</time>
      </trkpt>
      <trkpt lat="40.7310860" lon="-8.2521660">
        <ele>397.7</ele>
        <time>2019-06-10T10:31:20Z</time>
      </trkpt>
      <trkpt lat="40.7309310" lon="-8.2525170">
        <ele>396.7</ele>
        <time>2019-06-10T10:31:25Z</time>
      </trkpt>
      <trkpt lat="40.7307400" lon="-8.2529280">
        <ele>396.0</ele>
        <time>2019-06-10T10:31:31Z</time>
      </trkpt>
      <trkpt lat="40.7304190" lon="-8.2534950">
        <ele>395.3</ele>
        <time>2019-06-10T10:31:39Z</time>
      </trkpt>
      <trkpt lat="40.7302560" lon="-8.2536250">
        <ele>395.0</ele>
        <time>2019-06-10T10:31:42Z</time>
      </trkpt>
      <trkpt lat="40.7302070" lon="-8.2536760">
        <ele>394.9</ele>
        <time>2019-06-10T10:31:43Z</time>
      </trkpt>
      <trkpt lat="40.7301380" lon="-8.2537090">
        <ele>394.9</ele>
        <time>2019-06-10T10:31:44Z</time>
      </trkpt>
      <trkpt lat="40.7300730" lon="-8.2537520">
        <ele>394.7</ele>
        <time>2019-06-10T10:31:45Z</time>
      </trkpt>
      <trkpt lat="40.7300240" lon="-8.2538000">
        <ele>394.5</ele>
        <time>2019-06-10T10:31:46Z</time>
      </trkpt>
      <trkpt lat="40.7299710" lon="-8.2538490">
        <ele>394.3</ele>
        <time>2019-06-10T10:31:47Z</time>
      </trkpt>
      <trkpt lat="40.7297860" lon="-8.2540590">
        <ele>393.5</ele>
        <time>2019-06-10T10:31:51Z</time>
      </trkpt>
      <trkpt lat="40.7295460" lon="-8.2543630">
        <ele>393.0</ele>
        <time>2019-06-10T10:31:57Z</time>
      </trkpt>
      <trkpt lat="40.7295060" lon="-8.2544240">
        <ele>393.0</ele>
        <time>2019-06-10T10:31:58Z</time>
      </trkpt>
      <trkpt lat="40.7292830" lon="-8.2547650">
        <ele>392.9</ele>
        <time>2019-06-10T10:32:04Z</time>
      </trkpt>
      <trkpt lat="40.7290850" lon="-8.2550940">
        <ele>392.6</ele>
        <time>2019-06-10T10:32:10Z</time>
      </trkpt>
      <trkpt lat="40.7290210" lon="-8.2552180">
        <ele>392.5</ele>
        <time>2019-06-10T10:32:12Z</time>
      </trkpt>
      <trkpt lat="40.7289790" lon="-8.2552720">
        <ele>392.4</ele>
        <time>2019-06-10T10:32:13Z</time>
      </trkpt>
      <trkpt lat="40.7289400" lon="-8.2553360">
        <ele>392.4</ele>
        <time>2019-06-10T10:32:14Z</time>
      </trkpt>
      <trkpt lat="40.7289080" lon="-8.2554040">
        <ele>392.3</ele>
        <time>2019-06-10T10:32:15Z</time>
      </trkpt>
      <trkpt lat="40.7288940" lon="-8.2554860">
        <ele>392.3</ele>
        <time>2019-06-10T10:32:16Z</time>
      </trkpt>
      <trkpt lat="40.7287690" lon="-8.2559580">
        <ele>392.0</ele>
        <time>2019-06-10T10:32:22Z</time>
      </trkpt>
      <trkpt lat="40.7287030" lon="-8.2561690">
        <ele>391.9</ele>
        <time>2019-06-10T10:32:25Z</time>
      </trkpt>
      <trkpt lat="40.7286420" lon="-8.2563060">
        <ele>391.8</ele>
        <time>2019-06-10T10:32:27Z</time>
      </trkpt>
      <trkpt lat="40.7284430" lon="-8.2566540">
        <ele>391.5</ele>
        <time>2019-06-10T10:32:33Z</time>
      </trkpt>
      <trkpt lat="40.7283960" lon="-8.2566950">
        <ele>391.5</ele>
        <time>2019-06-10T10:32:34Z</time>
      </trkpt>
      <trkpt lat="40.7282110" lon="-8.2568540">
        <ele>391.3</ele>
        <time>2019-06-10T10:32:38Z</time>
      </trkpt>
      <trkpt lat="40.7280430" lon="-8.2569260">
        <ele>391.2</ele>
        <time>2019-06-10T10:32:41Z</time>
      </trkpt>
      <trkpt lat="40.7279330" lon="-8.2569800">
        <ele>391.1</ele>
        <time>2019-06-10T10:32:43Z</time>
      </trkpt>
      <trkpt lat="40.7278170" lon="-8.2569920">
        <ele>391.0</ele>
        <time>2019-06-10T10:32:45Z</time>
      </trkpt>
      <trkpt lat="40.7276970" lon="-8.2569880">
        <ele>390.8</ele>
        <time>2019-06-10T10:32:47Z</time>
      </trkpt>
      <trkpt lat="40.7273660" lon="-8.2569560">
        <ele>390.1</ele>
        <time>2019-06-10T10:32:53Z</time>
      </trkpt>
      <trkpt lat="40.7272880" lon="-8.2569430">
        <ele>389.9</ele>
        <time>2019-06-10T10:32:57Z</time>
      </trkpt>
      <trkpt lat="40.7272140" lon="-8.2569900">
        <ele>389.7</ele>
        <time>2019-06-10T10:33:02Z</time>
      </trkpt>
      <trkpt lat="40.7270890" lon="-8.2571240">
        <ele>389.3</ele>
        <time>2019-06-10T10:33:07Z</time>
      </trkpt>
      <trkpt lat="40.7268690" lon="-8.2573450">
        <ele>388.9</ele>
        <time>2019-06-10T10:33:13Z</time>
      </trkpt>
      <trkpt lat="40.7267930" lon="-8.2574350">
        <ele>388.8</ele>
        <time>2019-06-10T10:33:15Z</time>
      </trkpt>
      <trkpt lat="40.7267540" lon="-8.2574770">
        <ele>388.8</ele>
        <time>2019-06-10T10:33:16Z</time>
      </trkpt>
      <trkpt lat="40.7267190" lon="-8.2575130">
        <ele>388.7</ele>
        <time>2019-06-10T10:33:17Z</time>
      </trkpt>
      <trkpt lat="40.7266760" lon="-8.2575470">
        <ele>388.7</ele>
        <time>2019-06-10T10:33:18Z</time>
      </trkpt>
      <trkpt lat="40.7266400" lon="-8.2575770">
        <ele>388.6</ele>
        <time>2019-06-10T10:33:19Z</time>
      </trkpt>
      <trkpt lat="40.7265930" lon="-8.2576100">
        <ele>388.6</ele>
        <time>2019-06-10T10:33:20Z</time>
      </trkpt>
      <trkpt lat="40.7265250" lon="-8.2576940">
        <ele>388.5</ele>
        <time>2019-06-10T10:33:22Z</time>
      </trkpt>
      <trkpt lat="40.7264900" lon="-8.2577250">
        <ele>388.4</ele>
        <time>2019-06-10T10:33:23Z</time>
      </trkpt>
      <trkpt lat="40.7264050" lon="-8.2579700">
        <ele>388.2</ele>
        <time>2019-06-10T10:33:28Z</time>
      </trkpt>
      <trkpt lat="40.7264030" lon="-8.2580420">
        <ele>388.1</ele>
        <time>2019-06-10T10:33:29Z</time>
      </trkpt>
      <trkpt lat="40.7263830" lon="-8.2581120">
        <ele>388.1</ele>
        <time>2019-06-10T10:33:30Z</time>
      </trkpt>
      <trkpt lat="40.7263560" lon="-8.2581730">
        <ele>388.0</ele>
        <time>2019-06-10T10:33:31Z</time>
      </trkpt>
      <trkpt lat="40.7263490" lon="-8.2582430">
        <ele>388.0</ele>
        <time>2019-06-10T10:33:32Z</time>
      </trkpt>
      <trkpt lat="40.7263240" lon="-8.2582950">
        <ele>387.9</ele>
        <time>2019-06-10T10:33:33Z</time>
      </trkpt>
      <trkpt lat="40.7263150" lon="-8.2583660">
        <ele>387.9</ele>
        <time>2019-06-10T10:33:34Z</time>
      </trkpt>
      <trkpt lat="40.7263140" lon="-8.2585860">
        <ele>387.8</ele>
        <time>2019-06-10T10:33:37Z</time>
      </trkpt>
      <trkpt lat="40.7263360" lon="-8.2586660">
        <ele>387.7</ele>
        <time>2019-06-10T10:33:38Z</time>
      </trkpt>
      <trkpt lat="40.7263840" lon="-8.2588730">
        <ele>387.5</ele>
        <time>2019-06-10T10:33:41Z</time>
      </trkpt>
      <trkpt lat="40.7265980" lon="-8.2592310">
        <ele>386.7</ele>
        <time>2019-06-10T10:33:47Z</time>
      </trkpt>
      <trkpt lat="40.7266570" lon="-8.2592940">
        <ele>386.3</ele>
        <time>2019-06-10T10:33:48Z</time>
      </trkpt>
      <trkpt lat="40.7268150" lon="-8.2595150">
        <ele>385.5</ele>
        <time>2019-06-10T10:33:52Z</time>
      </trkpt>
      <trkpt lat="40.7269010" lon="-8.2595790">
        <ele>385.4</ele>
        <time>2019-06-10T10:33:54Z</time>
      </trkpt>
      <trkpt lat="40.7270310" lon="-8.2596310">
        <ele>385.3</ele>
        <time>2019-06-10T10:33:57Z</time>
      </trkpt>
      <trkpt lat="40.7271390" lon="-8.2596530">
        <ele>385.2</ele>
        <time>2019-06-10T10:33:59Z</time>
      </trkpt>
      <trkpt lat="40.7272190" lon="-8.2596530">
        <ele>385.1</ele>
        <time>2019-06-10T10:34:01Z</time>
      </trkpt>
      <trkpt lat="40.7275790" lon="-8.2596540">
        <ele>384.6</ele>
        <time>2019-06-10T10:34:08Z</time>
      </trkpt>
      <trkpt lat="40.7277180" lon="-8.2596260">
        <ele>384.4</ele>
        <time>2019-06-10T10:34:11Z</time>
      </trkpt>
      <trkpt lat="40.7278650" lon="-8.2596160">
        <ele>384.2</ele>
        <time>2019-06-10T10:34:14Z</time>
      </trkpt>
      <trkpt lat="40.7280150" lon="-8.2596050">
        <ele>383.9</ele>
        <time>2019-06-10T10:34:17Z</time>
      </trkpt>
      <trkpt lat="40.7282000" lon="-8.2595750">
        <ele>383.6</ele>
        <time>2019-06-10T10:34:20Z</time>
      </trkpt>
      <trkpt lat="40.7286580" lon="-8.2595250">
        <ele>382.7</ele>
        <time>2019-06-10T10:34:27Z</time>
      </trkpt>
      <trkpt lat="40.7291460" lon="-8.2594600">
        <ele>381.4</ele>
        <time>2019-06-10T10:34:34Z</time>
      </trkpt>
      <trkpt lat="40.7292080" lon="-8.2594700">
        <ele>381.1</ele>
        <time>2019-06-10T10:34:35Z</time>
      </trkpt>
      <trkpt lat="40.7293500" lon="-8.2595010">
        <ele>380.7</ele>
        <time>2019-06-10T10:34:37Z</time>
      </trkpt>
      <trkpt lat="40.7294140" lon="-8.2595140">
        <ele>380.5</ele>
        <time>2019-06-10T10:34:38Z</time>
      </trkpt>
      <trkpt lat="40.7298130" lon="-8.2596510">
        <ele>379.3</ele>
        <time>2019-06-10T10:34:44Z</time>
      </trkpt>
      <trkpt lat="40.7299880" lon="-8.2597820">
        <ele>378.6</ele>
        <time>2019-06-10T10:34:47Z</time>
      </trkpt>
      <trkpt lat="40.7300090" lon="-8.2598610">
        <ele>378.4</ele>
        <time>2019-06-10T10:34:48Z</time>
      </trkpt>
      <trkpt lat="40.7300540" lon="-8.2599250">
        <ele>378.2</ele>
        <time>2019-06-10T10:34:49Z</time>
      </trkpt>
      <trkpt lat="40.7301020" lon="-8.2599870">
        <ele>378.0</ele>
        <time>2019-06-10T10:34:50Z</time>
      </trkpt>
      <trkpt lat="40.7301570" lon="-8.2600570">
        <ele>377.8</ele>
        <time>2019-06-10T10:34:51Z</time>
      </trkpt>
      <trkpt lat="40.7303350" lon="-8.2603170">
        <ele>377.0</ele>
        <time>2019-06-10T10:34:55Z</time>
      </trkpt>
      <trkpt lat="40.7303940" lon="-8.2604660">
        <ele>376.7</ele>
        <time>2019-06-10T10:34:57Z</time>
      </trkpt>
      <trkpt lat="40.7304220" lon="-8.2605460">
        <ele>376.5</ele>
        <time>2019-06-10T10:34:58Z</time>
      </trkpt>
      <trkpt lat="40.7304380" lon="-8.2606290">
        <ele>376.3</ele>
        <time>2019-06-10T10:34:59Z</time>
      </trkpt>
      <trkpt lat="40.7304550" lon="-8.2607100">
        <ele>376.1</ele>
        <time>2019-06-10T10:35:00Z</time>
      </trkpt>
      <trkpt lat="40.7304690" lon="-8.2607970">
        <ele>375.9</ele>
        <time>2019-06-10T10:35:01Z</time>
      </trkpt>
      <trkpt lat="40.7305130" lon="-8.2611490">
        <ele>375.2</ele>
        <time>2019-06-10T10:35:05Z</time>
      </trkpt>
      <trkpt lat="40.7305120" lon="-8.2612410">
        <ele>375.0</ele>
        <time>2019-06-10T10:35:06Z</time>
      </trkpt>
      <trkpt lat="40.7305060" lon="-8.2613360">
        <ele>374.8</ele>
        <time>2019-06-10T10:35:07Z</time>
      </trkpt>
      <trkpt lat="40.7304970" lon="-8.2614270">
        <ele>374.6</ele>
        <time>2019-06-10T10:35:08Z</time>
      </trkpt>
      <trkpt lat="40.7304830" lon="-8.2615150">
        <ele>374.5</ele>
        <time>2019-06-10T10:35:09Z</time>
      </trkpt>
      <trkpt lat="40.7304200" lon="-8.2617800">
        <ele>374.0</ele>
        <time>2019-06-10T10:35:12Z</time>
      </trkpt>
      <trkpt lat="40.7302310" lon="-8.2622640">
        <ele>373.0</ele>
        <time>2019-06-10T10:35:18Z</time>
      </trkpt>
      <trkpt lat="40.7301890" lon="-8.2623340">
        <ele>372.8</ele>
        <time>2019-06-10T10:35:19Z</time>
      </trkpt>
      <trkpt lat="40.7301490" lon="-8.2624040">
        <ele>372.7</ele>
        <time>2019-06-10T10:35:20Z</time>
      </trkpt>
      <trkpt lat="40.7301090" lon="-8.2624710">
        <ele>372.5</ele>
        <time>2019-06-10T10:35:21Z</time>
      </trkpt>
      <trkpt lat="40.7300700" lon="-8.2625440">
        <ele>372.4</ele>
        <time>2019-06-10T10:35:22Z</time>
      </trkpt>
      <trkpt lat="40.7300280" lon="-8.2626160">
        <ele>372.2</ele>
        <time>2019-06-10T10:35:23Z</time>
      </trkpt>
      <trkpt lat="40.7299860" lon="-8.2626800">
        <ele>372.0</ele>
        <time>2019-06-10T10:35:24Z</time>
      </trkpt>
      <trkpt lat="40.7299540" lon="-8.2627460">
        <ele>371.8</ele>
        <time>2019-06-10T10:35:25Z</time>
      </trkpt>
      <trkpt lat="40.7297240" lon="-8.2632240">
        <ele>370.5</ele>
        <time>2019-06-10T10:35:32Z</time>
      </trkpt>
      <trkpt lat="40.7296760" lon="-8.2633660">
        <ele>370.1</ele>
        <time>2019-06-10T10:35:34Z</time>
      </trkpt>
      <trkpt lat="40.7296510" lon="-8.2634320">
        <ele>369.9</ele>
        <time>2019-06-10T10:35:35Z</time>
      </trkpt>
      <trkpt lat="40.7296220" lon="-8.2634980">
        <ele>369.7</ele>
        <time>2019-06-10T10:35:36Z</time>
      </trkpt>
      <trkpt lat="40.7295800" lon="-8.2635410">
        <ele>369.4</ele>
        <time>2019-06-10T10:35:37Z</time>
      </trkpt>
      <trkpt lat="40.7295390" lon="-8.2635790">
        <ele>369.1</ele>
        <time>2019-06-10T10:35:38Z</time>
      </trkpt>
      <trkpt lat="40.7292920" lon="-8.2639930">
        <ele>367.5</ele>
        <time>2019-06-10T10:35:45Z</time>
      </trkpt>
      <trkpt lat="40.7291570" lon="-8.2641880">
        <ele>367.2</ele>
        <time>2019-06-10T10:35:48Z</time>
      </trkpt>
      <trkpt lat="40.7291100" lon="-8.2642500">
        <ele>367.1</ele>
        <time>2019-06-10T10:35:49Z</time>
      </trkpt>
      <trkpt lat="40.7290620" lon="-8.2643080">
        <ele>367.0</ele>
        <time>2019-06-10T10:35:50Z</time>
      </trkpt>
      <trkpt lat="40.7290160" lon="-8.2643670">
        <ele>366.9</ele>
        <time>2019-06-10T10:35:51Z</time>
      </trkpt>
      <trkpt lat="40.7289710" lon="-8.2644230">
        <ele>366.8</ele>
        <time>2019-06-10T10:35:52Z</time>
      </trkpt>
      <trkpt lat="40.7288820" lon="-8.2645570">
        <ele>366.6</ele>
        <time>2019-06-10T10:35:54Z</time>
      </trkpt>
      <trkpt lat="40.7286370" lon="-8.2648790">
        <ele>366.0</ele>
        <time>2019-06-10T10:35:59Z</time>
      </trkpt>
      <trkpt lat="40.7285910" lon="-8.2649450">
        <ele>365.9</ele>
        <time>2019-06-10T10:36:00Z</time>
      </trkpt>
      <trkpt lat="40.7285420" lon="-8.2650100">
        <ele>365.8</ele>
        <time>2019-06-10T10:36:01Z</time>
      </trkpt>
      <trkpt lat="40.7284960" lon="-8.2650720">
        <ele>365.7</ele>
        <time>2019-06-10T10:36:02Z</time>
      </trkpt>
      <trkpt lat="40.7284510" lon="-8.2651340">
        <ele>365.6</ele>
        <time>2019-06-10T10:36:03Z</time>
      </trkpt>
      <trkpt lat="40.7283640" lon="-8.2652630">
        <ele>365.3</ele>
        <time>2019-06-10T10:36:05Z</time>
      </trkpt>
      <trkpt lat="40.7282910" lon="-8.2654110">
        <ele>364.9</ele>
        <time>2019-06-10T10:36:07Z</time>
      </trkpt>
      <trkpt lat="40.7282550" lon="-8.2654920">
        <ele>364.6</ele>
        <time>2019-06-10T10:36:08Z</time>
      </trkpt>
      <trkpt lat="40.7281940" lon="-8.2656630">
        <ele>364.2</ele>
        <time>2019-06-10T10:36:10Z</time>
      </trkpt>
      <trkpt lat="40.7281660" lon="-8.2657420">
        <ele>364.0</ele>
        <time>2019-06-10T10:36:11Z</time>
      </trkpt>
      <trkpt lat="40.7281370" lon="-8.2658200">
        <ele>363.8</ele>
        <time>2019-06-10T10:36:12Z</time>
      </trkpt>
      <trkpt lat="40.7281080" lon="-8.2658920">
        <ele>363.5</ele>
        <time>2019-06-10T10:36:13Z</time>
      </trkpt>
      <trkpt lat="40.7280730" lon="-8.2659720">
        <ele>363.4</ele>
        <time>2019-06-10T10:36:14Z</time>
      </trkpt>
      <trkpt lat="40.7278560" lon="-8.2663680">
        <ele>362.7</ele>
        <time>2019-06-10T10:36:20Z</time>
      </trkpt>
      <trkpt lat="40.7277320" lon="-8.2665700">
        <ele>362.2</ele>
        <time>2019-06-10T10:36:23Z</time>
      </trkpt>
      <trkpt lat="40.7276870" lon="-8.2666400">
        <ele>362.0</ele>
        <time>2019-06-10T10:36:24Z</time>
      </trkpt>
      <trkpt lat="40.7276430" lon="-8.2667120">
        <ele>361.7</ele>
        <time>2019-06-10T10:36:25Z</time>
      </trkpt>
      <trkpt lat="40.7275900" lon="-8.2667700">
        <ele>361.4</ele>
        <time>2019-06-10T10:36:26Z</time>
      </trkpt>
      <trkpt lat="40.7275370" lon="-8.2668370">
        <ele>361.1</ele>
        <time>2019-06-10T10:36:27Z</time>
      </trkpt>
      <trkpt lat="40.7272970" lon="-8.2670420">
        <ele>360.4</ele>
        <time>2019-06-10T10:36:31Z</time>
      </trkpt>
      <trkpt lat="40.7272400" lon="-8.2670920">
        <ele>360.3</ele>
        <time>2019-06-10T10:36:32Z</time>
      </trkpt>
      <trkpt lat="40.7271860" lon="-8.2671390">
        <ele>360.2</ele>
        <time>2019-06-10T10:36:33Z</time>
      </trkpt>
      <trkpt lat="40.7271330" lon="-8.2672020">
        <ele>360.0</ele>
        <time>2019-06-10T10:36:34Z</time>
      </trkpt>
      <trkpt lat="40.7270740" lon="-8.2672590">
        <ele>359.8</ele>
        <time>2019-06-10T10:36:35Z</time>
      </trkpt>
      <trkpt lat="40.7268190" lon="-8.2674640">
        <ele>359.0</ele>
        <time>2019-06-10T10:36:39Z</time>
      </trkpt>
      <trkpt lat="40.7265160" lon="-8.2677090">
        <ele>357.8</ele>
        <time>2019-06-10T10:36:44Z</time>
      </trkpt>
      <trkpt lat="40.7264550" lon="-8.2677660">
        <ele>357.7</ele>
        <time>2019-06-10T10:36:45Z</time>
      </trkpt>
      <trkpt lat="40.7263850" lon="-8.2678330">
        <ele>357.5</ele>
        <time>2019-06-10T10:36:46Z</time>
      </trkpt>
      <trkpt lat="40.7263140" lon="-8.2678870">
        <ele>357.3</ele>
        <time>2019-06-10T10:36:47Z</time>
      </trkpt>
      <trkpt lat="40.7262300" lon="-8.2679380">
        <ele>357.1</ele>
        <time>2019-06-10T10:36:48Z</time>
      </trkpt>
      <trkpt lat="40.7259050" lon="-8.2682410">
        <ele>355.9</ele>
        <time>2019-06-10T10:36:53Z</time>
      </trkpt>
      <trkpt lat="40.7258400" lon="-8.2683080">
        <ele>355.6</ele>
        <time>2019-06-10T10:36:54Z</time>
      </trkpt>
      <trkpt lat="40.7257660" lon="-8.2683700">
        <ele>355.4</ele>
        <time>2019-06-10T10:36:55Z</time>
      </trkpt>
      <trkpt lat="40.7256960" lon="-8.2684380">
        <ele>355.1</ele>
        <time>2019-06-10T10:36:56Z</time>
      </trkpt>
      <trkpt lat="40.7256350" lon="-8.2684950">
        <ele>354.9</ele>
        <time>2019-06-10T10:36:57Z</time>
      </trkpt>
      <trkpt lat="40.7253030" lon="-8.2687750">
        <ele>354.1</ele>
        <time>2019-06-10T10:37:02Z</time>
      </trkpt>
      <trkpt lat="40.7252360" lon="-8.2688300">
        <ele>354.2</ele>
        <time>2019-06-10T10:37:03Z</time>
      </trkpt>
      <trkpt lat="40.7251620" lon="-8.2688830">
        <ele>354.3</ele>
        <time>2019-06-10T10:37:04Z</time>
      </trkpt>
      <trkpt lat="40.7250940" lon="-8.2689260">
        <ele>354.4</ele>
        <time>2019-06-10T10:37:05Z</time>
      </trkpt>
      <trkpt lat="40.7250260" lon="-8.2689720">
        <ele>354.2</ele>
        <time>2019-06-10T10:37:06Z</time>
      </trkpt>
      <trkpt lat="40.7249580" lon="-8.2690110">
        <ele>354.0</ele>
        <time>2019-06-10T10:37:07Z</time>
      </trkpt>
      <trkpt lat="40.7248270" lon="-8.2690610">
        <ele>353.7</ele>
        <time>2019-06-10T10:37:09Z</time>
      </trkpt>
      <trkpt lat="40.7244940" lon="-8.2691200">
        <ele>353.0</ele>
        <time>2019-06-10T10:37:14Z</time>
      </trkpt>
      <trkpt lat="40.7244270" lon="-8.2691160">
        <ele>352.8</ele>
        <time>2019-06-10T10:37:15Z</time>
      </trkpt>
      <trkpt lat="40.7241560" lon="-8.2691090">
        <ele>352.3</ele>
        <time>2019-06-10T10:37:19Z</time>
      </trkpt>
      <trkpt lat="40.7240850" lon="-8.2691230">
        <ele>352.2</ele>
        <time>2019-06-10T10:37:20Z</time>
      </trkpt>
      <trkpt lat="40.7240090" lon="-8.2691380">
        <ele>352.0</ele>
        <time>2019-06-10T10:37:21Z</time>
      </trkpt>
      <trkpt lat="40.7239330" lon="-8.2691420">
        <ele>351.9</ele>
        <time>2019-06-10T10:37:22Z</time>
      </trkpt>
      <trkpt lat="40.7238550" lon="-8.2691380">
        <ele>351.8</ele>
        <time>2019-06-10T10:37:23Z</time>
      </trkpt>
      <trkpt lat="40.7237810" lon="-8.2691350">
        <ele>351.7</ele>
        <time>2019-06-10T10:37:24Z</time>
      </trkpt>
      <trkpt lat="40.7236290" lon="-8.2691600">
        <ele>351.5</ele>
        <time>2019-06-10T10:37:26Z</time>
      </trkpt>
      <trkpt lat="40.7234870" lon="-8.2691970">
        <ele>351.3</ele>
        <time>2019-06-10T10:37:28Z</time>
      </trkpt>
      <trkpt lat="40.7234110" lon="-8.2692120">
        <ele>351.2</ele>
        <time>2019-06-10T10:37:29Z</time>
      </trkpt>
      <trkpt lat="40.7233370" lon="-8.2692180">
        <ele>351.1</ele>
        <time>2019-06-10T10:37:30Z</time>
      </trkpt>
      <trkpt lat="40.7232700" lon="-8.2692310">
        <ele>351.1</ele>
        <time>2019-06-10T10:37:31Z</time>
      </trkpt>
      <trkpt lat="40.7232040" lon="-8.2692610">
        <ele>351.0</ele>
        <time>2019-06-10T10:37:32Z</time>
      </trkpt>
      <trkpt lat="40.7230020" lon="-8.2693680">
        <ele>350.8</ele>
        <time>2019-06-10T10:37:35Z</time>
      </trkpt>
      <trkpt lat="40.7229390" lon="-8.2694090">
        <ele>350.8</ele>
        <time>2019-06-10T10:37:36Z</time>
      </trkpt>
      <trkpt lat="40.7228810" lon="-8.2694610">
        <ele>350.7</ele>
        <time>2019-06-10T10:37:37Z</time>
      </trkpt>
      <trkpt lat="40.7228240" lon="-8.2695120">
        <ele>350.7</ele>
        <time>2019-06-10T10:37:38Z</time>
      </trkpt>
      <trkpt lat="40.7227630" lon="-8.2695680">
        <ele>350.6</ele>
        <time>2019-06-10T10:37:39Z</time>
      </trkpt>
      <trkpt lat="40.7226590" lon="-8.2696920">
        <ele>350.5</ele>
        <time>2019-06-10T10:37:41Z</time>
      </trkpt>
      <trkpt lat="40.7225670" lon="-8.2698270">
        <ele>350.4</ele>
        <time>2019-06-10T10:37:43Z</time>
      </trkpt>
      <trkpt lat="40.7225350" lon="-8.2699090">
        <ele>350.3</ele>
        <time>2019-06-10T10:37:44Z</time>
      </trkpt>
      <trkpt lat="40.7224350" lon="-8.2701280">
        <ele>350.2</ele>
        <time>2019-06-10T10:37:47Z</time>
      </trkpt>
      <trkpt lat="40.7223780" lon="-8.2702940">
        <ele>350.1</ele>
        <time>2019-06-10T10:37:49Z</time>
      </trkpt>
      <trkpt lat="40.7223650" lon="-8.2703820">
        <ele>350.1</ele>
        <time>2019-06-10T10:37:50Z</time>
      </trkpt>
      <trkpt lat="40.7223450" lon="-8.2704810">
        <ele>350.0</ele>
        <time>2019-06-10T10:37:51Z</time>
      </trkpt>
      <trkpt lat="40.7223330" lon="-8.2705780">
        <ele>350.0</ele>
        <time>2019-06-10T10:37:52Z</time>
      </trkpt>
      <trkpt lat="40.7223390" lon="-8.2706900">
        <ele>349.9</ele>
        <time>2019-06-10T10:37:53Z</time>
      </trkpt>
      <trkpt lat="40.7223470" lon="-8.2710920">
        <ele>349.8</ele>
        <time>2019-06-10T10:37:57Z</time>
      </trkpt>
      <trkpt lat="40.7223680" lon="-8.2711930">
        <ele>349.7</ele>
        <time>2019-06-10T10:37:58Z</time>
      </trkpt>
      <trkpt lat="40.7224290" lon="-8.2715460">
        <ele>349.6</ele>
        <time>2019-06-10T10:38:02Z</time>
      </trkpt>
      <trkpt lat="40.7225060" lon="-8.2721750">
        <ele>349.3</ele>
        <time>2019-06-10T10:38:09Z</time>
      </trkpt>
      <trkpt lat="40.7224770" lon="-8.2725760">
        <ele>349.3</ele>
        <time>2019-06-10T10:38:14Z</time>
      </trkpt>
      <trkpt lat="40.7223640" lon="-8.2731480">
        <ele>348.6</ele>
        <time>2019-06-10T10:38:20Z</time>
      </trkpt>
      <trkpt lat="40.7223480" lon="-8.2736060">
        <ele>348.0</ele>
        <time>2019-06-10T10:38:26Z</time>
      </trkpt>
      <trkpt lat="40.7223990" lon="-8.2739010">
        <ele>347.1</ele>
        <time>2019-06-10T10:38:31Z</time>
      </trkpt>
      <trkpt lat="40.7224080" lon="-8.2739670">
        <ele>346.8</ele>
        <time>2019-06-10T10:38:32Z</time>
      </trkpt>
      <trkpt lat="40.7224180" lon="-8.2740410">
        <ele>346.6</ele>
        <time>2019-06-10T10:38:33Z</time>
      </trkpt>
      <trkpt lat="40.7224340" lon="-8.2741240">
        <ele>346.3</ele>
        <time>2019-06-10T10:38:34Z</time>
      </trkpt>
      <trkpt lat="40.7224530" lon="-8.2742010">
        <ele>346.0</ele>
        <time>2019-06-10T10:38:35Z</time>
      </trkpt>
      <trkpt lat="40.7224980" lon="-8.2743650">
        <ele>345.2</ele>
        <time>2019-06-10T10:38:37Z</time>
      </trkpt>
      <trkpt lat="40.7225240" lon="-8.2744470">
        <ele>344.9</ele>
        <time>2019-06-10T10:38:38Z</time>
      </trkpt>
      <trkpt lat="40.7225510" lon="-8.2745310">
        <ele>344.6</ele>
        <time>2019-06-10T10:38:39Z</time>
      </trkpt>
      <trkpt lat="40.7225780" lon="-8.2746170">
        <ele>344.4</ele>
        <time>2019-06-10T10:38:40Z</time>
      </trkpt>
      <trkpt lat="40.7226000" lon="-8.2746990">
        <ele>344.1</ele>
        <time>2019-06-10T10:38:41Z</time>
      </trkpt>
      <trkpt lat="40.7227340" lon="-8.2750430">
        <ele>343.5</ele>
        <time>2019-06-10T10:38:45Z</time>
      </trkpt>
      <trkpt lat="40.7230380" lon="-8.2755030">
        <ele>343.9</ele>
        <time>2019-06-10T10:38:51Z</time>
      </trkpt>
      <trkpt lat="40.7231220" lon="-8.2755350">
        <ele>344.1</ele>
        <time>2019-06-10T10:38:52Z</time>
      </trkpt>
      <trkpt lat="40.7231760" lon="-8.2755820">
        <ele>344.2</ele>
        <time>2019-06-10T10:38:53Z</time>
      </trkpt>
      <trkpt lat="40.7235170" lon="-8.2757440">
        <ele>345.2</ele>
        <time>2019-06-10T10:38:58Z</time>
      </trkpt>
      <trkpt lat="40.7238850" lon="-8.2758920">
        <ele>346.1</ele>
        <time>2019-06-10T10:39:04Z</time>
      </trkpt>
      <trkpt lat="40.7242900" lon="-8.2760400">
        <ele>347.0</ele>
        <time>2019-06-10T10:39:12Z</time>
      </trkpt>
      <trkpt lat="40.7243300" lon="-8.2760530">
        <ele>347.0</ele>
        <time>2019-06-10T10:39:13Z</time>
      </trkpt>
      <trkpt lat="40.7243670" lon="-8.2760660">
        <ele>347.1</ele>
        <time>2019-06-10T10:39:14Z</time>
      </trkpt>
      <trkpt lat="40.7244010" lon="-8.2760830">
        <ele>347.2</ele>
        <time>2019-06-10T10:39:15Z</time>
      </trkpt>
      <trkpt lat="40.7244450" lon="-8.2761050">
        <ele>347.3</ele>
        <time>2019-06-10T10:39:16Z</time>
      </trkpt>
      <trkpt lat="40.7244840" lon="-8.2761260">
        <ele>347.4</ele>
        <time>2019-06-10T10:39:17Z</time>
      </trkpt>
      <trkpt lat="40.7245210" lon="-8.2761440">
        <ele>347.5</ele>
        <time>2019-06-10T10:39:18Z</time>
      </trkpt>
      <trkpt lat="40.7247520" lon="-8.2762490">
        <ele>348.1</ele>
        <time>2019-06-10T10:39:23Z</time>
      </trkpt>
      <trkpt lat="40.7247980" lon="-8.2762790">
        <ele>348.3</ele>
        <time>2019-06-10T10:39:24Z</time>
      </trkpt>
      <trkpt lat="40.7249590" lon="-8.2763690">
        <ele>348.9</ele>
        <time>2019-06-10T10:39:29Z</time>
      </trkpt>
      <trkpt lat="40.7250070" lon="-8.2763860">
        <ele>349.1</ele>
        <time>2019-06-10T10:39:30Z</time>
      </trkpt>
      <trkpt lat="40.7250490" lon="-8.2763900">
        <ele>349.3</ele>
        <time>2019-06-10T10:39:31Z</time>
      </trkpt>
      <trkpt lat="40.7250930" lon="-8.2763920">
        <ele>349.4</ele>
        <time>2019-06-10T10:39:32Z</time>
      </trkpt>
      <trkpt lat="40.7251880" lon="-8.2763830">
        <ele>349.8</ele>
        <time>2019-06-10T10:39:33Z</time>
      </trkpt>
      <trkpt lat="40.7252450" lon="-8.2763830">
        <ele>350.0</ele>
        <time>2019-06-10T10:39:34Z</time>
      </trkpt>
      <trkpt lat="40.7256630" lon="-8.2763750">
        <ele>350.9</ele>
        <time>2019-06-10T10:39:41Z</time>
      </trkpt>
      <trkpt lat="40.7258590" lon="-8.2763120">
        <ele>351.6</ele>
        <time>2019-06-10T10:39:45Z</time>
      </trkpt>
      <trkpt lat="40.7259030" lon="-8.2762990">
        <ele>351.7</ele>
        <time>2019-06-10T10:39:46Z</time>
      </trkpt>
      <trkpt lat="40.7259490" lon="-8.2763010">
        <ele>351.9</ele>
        <time>2019-06-10T10:39:47Z</time>
      </trkpt>
      <trkpt lat="40.7259920" lon="-8.2762950">
        <ele>352.1</ele>
        <time>2019-06-10T10:39:48Z</time>
      </trkpt>
      <trkpt lat="40.7260360" lon="-8.2762880">
        <ele>352.3</ele>
        <time>2019-06-10T10:39:49Z</time>
      </trkpt>
      <trkpt lat="40.7263560" lon="-8.2762280">
        <ele>353.5</ele>
        <time>2019-06-10T10:39:56Z</time>
      </trkpt>
      <trkpt lat="40.7265560" lon="-8.2762050">
        <ele>354.2</ele>
        <time>2019-06-10T10:40:01Z</time>
      </trkpt>
      <trkpt lat="40.7265940" lon="-8.2761980">
        <ele>354.3</ele>
        <time>2019-06-10T10:40:02Z</time>
      </trkpt>
      <trkpt lat="40.7266340" lon="-8.2761900">
        <ele>354.4</ele>
        <time>2019-06-10T10:40:03Z</time>
      </trkpt>
      <trkpt lat="40.7266670" lon="-8.2761830">
        <ele>354.4</ele>
        <time>2019-06-10T10:40:04Z</time>
      </trkpt>
      <trkpt lat="40.7267000" lon="-8.2761680">
        <ele>354.5</ele>
        <time>2019-06-10T10:40:05Z</time>
      </trkpt>
      <trkpt lat="40.7268650" lon="-8.2761130">
        <ele>354.7</ele>
        <time>2019-06-10T10:40:10Z</time>
      </trkpt>
      <trkpt lat="40.7271180" lon="-8.2760570">
        <ele>354.8</ele>
        <time>2019-06-10T10:40:17Z</time>
      </trkpt>
      <trkpt lat="40.7273330" lon="-8.2760000">
        <ele>354.8</ele>
        <time>2019-06-10T10:40:23Z</time>
      </trkpt>
      <trkpt lat="40.7273750" lon="-8.2759880">
        <ele>354.8</ele>
        <time>2019-06-10T10:40:24Z</time>
      </trkpt>
      <trkpt lat="40.7274540" lon="-8.2759670">
        <ele>354.7</ele>
        <time>2019-06-10T10:40:25Z</time>
      </trkpt>
      <trkpt lat="40.7275000" lon="-8.2759630">
        <ele>354.7</ele>
        <time>2019-06-10T10:40:26Z</time>
      </trkpt>
      <trkpt lat="40.7275460" lon="-8.2759530">
        <ele>354.7</ele>
        <time>2019-06-10T10:40:27Z</time>
      </trkpt>
      <trkpt lat="40.7276320" lon="-8.2759400">
        <ele>354.6</ele>
        <time>2019-06-10T10:40:29Z</time>
      </trkpt>
      <trkpt lat="40.7279030" lon="-8.2758640">
        <ele>354.4</ele>
        <time>2019-06-10T10:40:35Z</time>
      </trkpt>
      <trkpt lat="40.7283330" lon="-8.2757980">
        <ele>353.7</ele>
        <time>2019-06-10T10:40:43Z</time>
      </trkpt>
      <trkpt lat="40.7287840" lon="-8.2756840">
        <ele>354.0</ele>
        <time>2019-06-10T10:40:52Z</time>
      </trkpt>
      <trkpt lat="40.7289670" lon="-8.2756020">
        <ele>354.2</ele>
        <time>2019-06-10T10:40:56Z</time>
      </trkpt>
      <trkpt lat="40.7290490" lon="-8.2755340">
        <ele>354.2</ele>
        <time>2019-06-10T10:40:58Z</time>
      </trkpt>
      <trkpt lat="40.7291280" lon="-8.2754540">
        <ele>354.2</ele>
        <time>2019-06-10T10:41:00Z</time>
      </trkpt>
      <trkpt lat="40.7292120" lon="-8.2753750">
        <ele>353.9</ele>
        <time>2019-06-10T10:41:02Z</time>
      </trkpt>
      <trkpt lat="40.7292910" lon="-8.2753040">
        <ele>353.7</ele>
        <time>2019-06-10T10:41:04Z</time>
      </trkpt>
      <trkpt lat="40.7294890" lon="-8.2749720">
        <ele>352.9</ele>
        <time>2019-06-10T10:41:10Z</time>
      </trkpt>
      <trkpt lat="40.7297690" lon="-8.2744950">
        <ele>352.9</ele>
        <time>2019-06-10T10:41:19Z</time>
      </trkpt>
      <trkpt lat="40.7298280" lon="-8.2744020">
        <ele>352.8</ele>
        <time>2019-06-10T10:41:21Z</time>
      </trkpt>
      <trkpt lat="40.7299580" lon="-8.2742150">
        <ele>352.4</ele>
        <time>2019-06-10T10:41:25Z</time>
      </trkpt>
      <trkpt lat="40.7300010" lon="-8.2741090">
        <ele>352.3</ele>
        <time>2019-06-10T10:41:27Z</time>
      </trkpt>
      <trkpt lat="40.7301080" lon="-8.2738900">
        <ele>352.3</ele>
        <time>2019-06-10T10:41:31Z</time>
      </trkpt>
      <trkpt lat="40.7303450" lon="-8.2735090">
        <ele>352.1</ele>
        <time>2019-06-10T10:41:38Z</time>
      </trkpt>
      <trkpt lat="40.7304410" lon="-8.2733350">
        <ele>352.0</ele>
        <time>2019-06-10T10:41:41Z</time>
      </trkpt>
      <trkpt lat="40.7304660" lon="-8.2732780">
        <ele>352.0</ele>
        <time>2019-06-10T10:41:42Z</time>
      </trkpt>
      <trkpt lat="40.7304910" lon="-8.2732180">
        <ele>352.0</ele>
        <time>2019-06-10T10:41:43Z</time>
      </trkpt>
      <trkpt lat="40.7305270" lon="-8.2731590">
        <ele>352.0</ele>
        <time>2019-06-10T10:41:44Z</time>
      </trkpt>
      <trkpt lat="40.7305590" lon="-8.2731010">
        <ele>351.9</ele>
        <time>2019-06-10T10:41:45Z</time>
      </trkpt>
      <trkpt lat="40.7306850" lon="-8.2729210">
        <ele>351.9</ele>
        <time>2019-06-10T10:41:48Z</time>
      </trkpt>
      <trkpt lat="40.7307980" lon="-8.2727400">
        <ele>351.8</ele>
        <time>2019-06-10T10:41:51Z</time>
      </trkpt>
      <trkpt lat="40.7309380" lon="-8.2725070">
        <ele>351.6</ele>
        <time>2019-06-10T10:41:55Z</time>
      </trkpt>
      <trkpt lat="40.7310280" lon="-8.2723360">
        <ele>351.5</ele>
        <time>2019-06-10T10:41:58Z</time>
      </trkpt>
      <trkpt lat="40.7311020" lon="-8.2722210">
        <ele>351.5</ele>
        <time>2019-06-10T10:42:00Z</time>
      </trkpt>
      <trkpt lat="40.7311250" lon="-8.2721600">
        <ele>351.5</ele>
        <time>2019-06-10T10:42:01Z</time>
      </trkpt>
      <trkpt lat="40.7311550" lon="-8.2720980">
        <ele>351.5</ele>
        <time>2019-06-10T10:42:02Z</time>
      </trkpt>
      <trkpt lat="40.7311910" lon="-8.2720380">
        <ele>351.4</ele>
        <time>2019-06-10T10:42:03Z</time>
      </trkpt>
      <trkpt lat="40.7312280" lon="-8.2719780">
        <ele>351.3</ele>
        <time>2019-06-10T10:42:04Z</time>
      </trkpt>
      <trkpt lat="40.7313680" lon="-8.2718670">
        <ele>351.0</ele>
        <time>2019-06-10T10:42:06Z</time>
      </trkpt>
      <trkpt lat="40.7315080" lon="-8.2717350">
        <ele>350.4</ele>
        <time>2019-06-10T10:42:09Z</time>
      </trkpt>
      <trkpt lat="40.7318240" lon="-8.2715630">
        <ele>349.9</ele>
        <time>2019-06-10T10:42:15Z</time>
      </trkpt>
      <trkpt lat="40.7321470" lon="-8.2715010">
        <ele>349.5</ele>
        <time>2019-06-10T10:42:21Z</time>
      </trkpt>
      <trkpt lat="40.7322000" lon="-8.2715160">
        <ele>349.4</ele>
        <time>2019-06-10T10:42:22Z</time>
      </trkpt>
      <trkpt lat="40.7323750" lon="-8.2715830">
        <ele>348.9</ele>
        <time>2019-06-10T10:42:25Z</time>
      </trkpt>
      <trkpt lat="40.7324330" lon="-8.2716110">
        <ele>348.7</ele>
        <time>2019-06-10T10:42:26Z</time>
      </trkpt>
      <trkpt lat="40.7326070" lon="-8.2717390">
        <ele>348.3</ele>
        <time>2019-06-10T10:42:29Z</time>
      </trkpt>
      <trkpt lat="40.7326650" lon="-8.2717910">
        <ele>348.2</ele>
        <time>2019-06-10T10:42:30Z</time>
      </trkpt>
      <trkpt lat="40.7327200" lon="-8.2718370">
        <ele>348.1</ele>
        <time>2019-06-10T10:42:31Z</time>
      </trkpt>
      <trkpt lat="40.7327810" lon="-8.2718990">
        <ele>347.9</ele>
        <time>2019-06-10T10:42:32Z</time>
      </trkpt>
      <trkpt lat="40.7328310" lon="-8.2719530">
        <ele>347.8</ele>
        <time>2019-06-10T10:42:33Z</time>
      </trkpt>
      <trkpt lat="40.7330940" lon="-8.2722570">
        <ele>346.8</ele>
        <time>2019-06-10T10:42:38Z</time>
      </trkpt>
      <trkpt lat="40.7331900" lon="-8.2723710">
        <ele>346.5</ele>
        <time>2019-06-10T10:42:40Z</time>
      </trkpt>
      <trkpt lat="40.7332380" lon="-8.2724220">
        <ele>346.3</ele>
        <time>2019-06-10T10:42:41Z</time>
      </trkpt>
      <trkpt lat="40.7332710" lon="-8.2724770">
        <ele>346.1</ele>
        <time>2019-06-10T10:42:42Z</time>
      </trkpt>
      <trkpt lat="40.7332970" lon="-8.2725470">
        <ele>345.9</ele>
        <time>2019-06-10T10:42:43Z</time>
      </trkpt>
      <trkpt lat="40.7333300" lon="-8.2726060">
        <ele>345.7</ele>
        <time>2019-06-10T10:42:44Z</time>
      </trkpt>
      <trkpt lat="40.7334600" lon="-8.2727590">
        <ele>345.2</ele>
        <time>2019-06-10T10:42:47Z</time>
      </trkpt>
      <trkpt lat="40.7335510" lon="-8.2728520">
        <ele>345.0</ele>
        <time>2019-06-10T10:42:49Z</time>
      </trkpt>
      <trkpt lat="40.7335940" lon="-8.2728900">
        <ele>345.0</ele>
        <time>2019-06-10T10:42:50Z</time>
      </trkpt>
      <trkpt lat="40.7336360" lon="-8.2729110">
        <ele>345.0</ele>
        <time>2019-06-10T10:42:51Z</time>
      </trkpt>
      <trkpt lat="40.7336770" lon="-8.2729260">
        <ele>345.0</ele>
        <time>2019-06-10T10:42:52Z</time>
      </trkpt>
      <trkpt lat="40.7337260" lon="-8.2729470">
        <ele>345.0</ele>
        <time>2019-06-10T10:42:53Z</time>
      </trkpt>
      <trkpt lat="40.7337660" lon="-8.2729620">
        <ele>345.0</ele>
        <time>2019-06-10T10:42:54Z</time>
      </trkpt>
      <trkpt lat="40.7338210" lon="-8.2729700">
        <ele>344.9</ele>
        <time>2019-06-10T10:42:55Z</time>
      </trkpt>
      <trkpt lat="40.7339820" lon="-8.2729720">
        <ele>344.3</ele>
        <time>2019-06-10T10:42:58Z</time>
      </trkpt>
      <trkpt lat="40.7341740" lon="-8.2729300">
        <ele>344.0</ele>
        <time>2019-06-10T10:43:01Z</time>
      </trkpt>
      <trkpt lat="40.7342930" lon="-8.2728540">
        <ele>344.2</ele>
        <time>2019-06-10T10:43:03Z</time>
      </trkpt>
      <trkpt lat="40.7347070" lon="-8.2725630">
        <ele>345.8</ele>
        <time>2019-06-10T10:43:11Z</time>
      </trkpt>
      <trkpt lat="40.7350410" lon="-8.2724220">
        <ele>346.2</ele>
        <time>2019-06-10T10:43:18Z</time>
      </trkpt>
      <trkpt lat="40.7353190" lon="-8.2723510">
        <ele>346.4</ele>
        <time>2019-06-10T10:43:26Z</time>
      </trkpt>
      <trkpt lat="40.7353390" lon="-8.2723420">
        <ele>346.4</ele>
        <time>2019-06-10T10:43:29Z</time>
      </trkpt>
      <trkpt lat="40.7353480" lon="-8.2723370">
        <ele>346.4</ele>
        <time>2019-06-10T10:47:26Z</time>
      </trkpt>
      <trkpt lat="40.7354400" lon="-8.2723610">
        <ele>346.5</ele>
        <time>2019-06-10T10:47:31Z</time>
      </trkpt>
      <trkpt lat="40.7356780" lon="-8.2723870">
        <ele>346.8</ele>
        <time>2019-06-10T10:47:38Z</time>
      </trkpt>
      <trkpt lat="40.7357890" lon="-8.2723500">
        <ele>346.9</ele>
        <time>2019-06-10T10:47:41Z</time>
      </trkpt>
      <trkpt lat="40.7358350" lon="-8.2723140">
        <ele>346.9</ele>
        <time>2019-06-10T10:47:42Z</time>
      </trkpt>
      <trkpt lat="40.7359610" lon="-8.2723100">
        <ele>347.0</ele>
        <time>2019-06-10T10:47:45Z</time>
      </trkpt>
      <trkpt lat="40.7360030" lon="-8.2723310">
        <ele>347.0</ele>
        <time>2019-06-10T10:47:46Z</time>
      </trkpt>
      <trkpt lat="40.7362080" lon="-8.2726020">
        <ele>346.2</ele>
        <time>2019-06-10T10:47:51Z</time>
      </trkpt>
      <trkpt lat="40.7364650" lon="-8.2729650">
        <ele>345.3</ele>
        <time>2019-06-10T10:47:57Z</time>
      </trkpt>
      <trkpt lat="40.7365880" lon="-8.2729730">
        <ele>345.0</ele>
        <time>2019-06-10T10:47:59Z</time>
      </trkpt>
      <trkpt lat="40.7366370" lon="-8.2729770">
        <ele>344.9</ele>
        <time>2019-06-10T10:48:00Z</time>
      </trkpt>
      <trkpt lat="40.7366730" lon="-8.2729930">
        <ele>344.9</ele>
        <time>2019-06-10T10:48:01Z</time>
      </trkpt>
      <trkpt lat="40.7367090" lon="-8.2730060">
        <ele>344.8</ele>
        <time>2019-06-10T10:48:02Z</time>
      </trkpt>
      <trkpt lat="40.7367390" lon="-8.2730120">
        <ele>344.8</ele>
        <time>2019-06-10T10:48:03Z</time>
      </trkpt>
      <trkpt lat="40.7367660" lon="-8.2730080">
        <ele>344.7</ele>
        <time>2019-06-10T10:48:04Z</time>
      </trkpt>
      <trkpt lat="40.7369000" lon="-8.2730150">
        <ele>344.5</ele>
        <time>2019-06-10T10:48:09Z</time>
      </trkpt>
      <trkpt lat="40.7370650" lon="-8.2729930">
        <ele>344.3</ele>
        <time>2019-06-10T10:48:13Z</time>
      </trkpt>
      <trkpt lat="40.7371470" lon="-8.2729550">
        <ele>344.3</ele>
        <time>2019-06-10T10:48:15Z</time>
      </trkpt>
      <trkpt lat="40.7373800" lon="-8.2727990">
        <ele>344.1</ele>
        <time>2019-06-10T10:48:20Z</time>
      </trkpt>
      <trkpt lat="40.7374280" lon="-8.2727650">
        <ele>344.0</ele>
        <time>2019-06-10T10:48:21Z</time>
      </trkpt>
      <trkpt lat="40.7374770" lon="-8.2727280">
        <ele>344.0</ele>
        <time>2019-06-10T10:48:22Z</time>
      </trkpt>
      <trkpt lat="40.7375200" lon="-8.2726880">
        <ele>343.9</ele>
        <time>2019-06-10T10:48:23Z</time>
      </trkpt>
      <trkpt lat="40.7375720" lon="-8.2726620">
        <ele>343.9</ele>
        <time>2019-06-10T10:48:24Z</time>
      </trkpt>
      <trkpt lat="40.7377590" lon="-8.2725400">
        <ele>343.8</ele>
        <time>2019-06-10T10:48:28Z</time>
      </trkpt>
      <trkpt lat="40.7378100" lon="-8.2725200">
        <ele>343.8</ele>
        <time>2019-06-10T10:48:29Z</time>
      </trkpt>
      <trkpt lat="40.7379770" lon="-8.2724520">
        <ele>343.7</ele>
        <time>2019-06-10T10:48:33Z</time>
      </trkpt>
      <trkpt lat="40.7380680" lon="-8.2724380">
        <ele>343.5</ele>
        <time>2019-06-10T10:48:35Z</time>
      </trkpt>
      <trkpt lat="40.7381150" lon="-8.2724320">
        <ele>343.4</ele>
        <time>2019-06-10T10:48:36Z</time>
      </trkpt>
      <trkpt lat="40.7381650" lon="-8.2724270">
        <ele>343.2</ele>
        <time>2019-06-10T10:48:37Z</time>
      </trkpt>
      <trkpt lat="40.7382170" lon="-8.2724280">
        <ele>342.9</ele>
        <time>2019-06-10T10:48:38Z</time>
      </trkpt>
      <trkpt lat="40.7382650" lon="-8.2724380">
        <ele>342.6</ele>
        <time>2019-06-10T10:48:39Z</time>
      </trkpt>
      <trkpt lat="40.7383130" lon="-8.2724530">
        <ele>342.2</ele>
        <time>2019-06-10T10:48:40Z</time>
      </trkpt>
      <trkpt lat="40.7383760" lon="-8.2724870">
        <ele>341.9</ele>
        <time>2019-06-10T10:48:41Z</time>
      </trkpt>
      <trkpt lat="40.7384170" lon="-8.2725220">
        <ele>341.6</ele>
        <time>2019-06-10T10:48:42Z</time>
      </trkpt>
      <trkpt lat="40.7384700" lon="-8.2725600">
        <ele>341.4</ele>
        <time>2019-06-10T10:48:43Z</time>
      </trkpt>
      <trkpt lat="40.7385240" lon="-8.2725990">
        <ele>341.2</ele>
        <time>2019-06-10T10:48:44Z</time>
      </trkpt>
      <trkpt lat="40.7385810" lon="-8.2726380">
        <ele>341.0</ele>
        <time>2019-06-10T10:48:45Z</time>
      </trkpt>
      <trkpt lat="40.7388690" lon="-8.2728520">
        <ele>339.9</ele>
        <time>2019-06-10T10:48:50Z</time>
      </trkpt>
      <trkpt lat="40.7391270" lon="-8.2730950">
        <ele>339.1</ele>
        <time>2019-06-10T10:48:55Z</time>
      </trkpt>
      <trkpt lat="40.7391790" lon="-8.2731430">
        <ele>338.9</ele>
        <time>2019-06-10T10:48:56Z</time>
      </trkpt>
      <trkpt lat="40.7392340" lon="-8.2731920">
        <ele>338.8</ele>
        <time>2019-06-10T10:48:57Z</time>
      </trkpt>
      <trkpt lat="40.7392870" lon="-8.2732400">
        <ele>338.6</ele>
        <time>2019-06-10T10:48:58Z</time>
      </trkpt>
      <trkpt lat="40.7393410" lon="-8.2732900">
        <ele>338.5</ele>
        <time>2019-06-10T10:48:59Z</time>
      </trkpt>
      <trkpt lat="40.7396040" lon="-8.2735200">
        <ele>337.9</ele>
        <time>2019-06-10T10:49:04Z</time>
      </trkpt>
      <trkpt lat="40.7396450" lon="-8.2735730">
        <ele>337.8</ele>
        <time>2019-06-10T10:49:05Z</time>
      </trkpt>
      <trkpt lat="40.7396850" lon="-8.2736270">
        <ele>337.7</ele>
        <time>2019-06-10T10:49:06Z</time>
      </trkpt>
      <trkpt lat="40.7397240" lon="-8.2736830">
        <ele>337.7</ele>
        <time>2019-06-10T10:49:07Z</time>
      </trkpt>
      <trkpt lat="40.7397580" lon="-8.2737290">
        <ele>337.6</ele>
        <time>2019-06-10T10:49:08Z</time>
      </trkpt>
      <trkpt lat="40.7398710" lon="-8.2738950">
        <ele>337.3</ele>
        <time>2019-06-10T10:49:12Z</time>
      </trkpt>
      <trkpt lat="40.7399880" lon="-8.2741910">
        <ele>336.7</ele>
        <time>2019-06-10T10:49:18Z</time>
      </trkpt>
      <trkpt lat="40.7400350" lon="-8.2747020">
        <ele>335.4</ele>
        <time>2019-06-10T10:49:25Z</time>
      </trkpt>
      <trkpt lat="40.7399900" lon="-8.2749450">
        <ele>334.8</ele>
        <time>2019-06-10T10:49:28Z</time>
      </trkpt>
      <trkpt lat="40.7399710" lon="-8.2750280">
        <ele>334.5</ele>
        <time>2019-06-10T10:49:29Z</time>
      </trkpt>
      <trkpt lat="40.7399470" lon="-8.2751070">
        <ele>334.3</ele>
        <time>2019-06-10T10:49:30Z</time>
      </trkpt>
      <trkpt lat="40.7399160" lon="-8.2751810">
        <ele>334.1</ele>
        <time>2019-06-10T10:49:31Z</time>
      </trkpt>
      <trkpt lat="40.7398890" lon="-8.2752520">
        <ele>333.9</ele>
        <time>2019-06-10T10:49:32Z</time>
      </trkpt>
      <trkpt lat="40.7397910" lon="-8.2754540">
        <ele>333.3</ele>
        <time>2019-06-10T10:49:35Z</time>
      </trkpt>
      <trkpt lat="40.7396190" lon="-8.2758260">
        <ele>332.3</ele>
        <time>2019-06-10T10:49:42Z</time>
      </trkpt>
      <trkpt lat="40.7395880" lon="-8.2758810">
        <ele>332.1</ele>
        <time>2019-06-10T10:49:43Z</time>
      </trkpt>
      <trkpt lat="40.7395590" lon="-8.2759390">
        <ele>332.0</ele>
        <time>2019-06-10T10:49:44Z</time>
      </trkpt>
      <trkpt lat="40.7395220" lon="-8.2760080">
        <ele>331.8</ele>
        <time>2019-06-10T10:49:45Z</time>
      </trkpt>
      <trkpt lat="40.7394930" lon="-8.2760700">
        <ele>331.6</ele>
        <time>2019-06-10T10:49:46Z</time>
      </trkpt>
      <trkpt lat="40.7394680" lon="-8.2761390">
        <ele>331.4</ele>
        <time>2019-06-10T10:49:47Z</time>
      </trkpt>
      <trkpt lat="40.7394270" lon="-8.2762800">
        <ele>330.9</ele>
        <time>2019-06-10T10:49:49Z</time>
      </trkpt>
      <trkpt lat="40.7393560" lon="-8.2766370">
        <ele>330.4</ele>
        <time>2019-06-10T10:49:54Z</time>
      </trkpt>
      <trkpt lat="40.7393380" lon="-8.2767150">
        <ele>330.4</ele>
        <time>2019-06-10T10:49:55Z</time>
      </trkpt>
      <trkpt lat="40.7393400" lon="-8.2767850">
        <ele>330.3</ele>
        <time>2019-06-10T10:49:56Z</time>
      </trkpt>
      <trkpt lat="40.7393360" lon="-8.2768560">
        <ele>330.2</ele>
        <time>2019-06-10T10:49:57Z</time>
      </trkpt>
      <trkpt lat="40.7393680" lon="-8.2769270">
        <ele>330.0</ele>
        <time>2019-06-10T10:49:58Z</time>
      </trkpt>
      <trkpt lat="40.7393900" lon="-8.2770680">
        <ele>329.6</ele>
        <time>2019-06-10T10:50:00Z</time>
      </trkpt>
      <trkpt lat="40.7394550" lon="-8.2773720">
        <ele>328.6</ele>
        <time>2019-06-10T10:50:04Z</time>
      </trkpt>
      <trkpt lat="40.7394990" lon="-8.2775360">
        <ele>328.1</ele>
        <time>2019-06-10T10:50:06Z</time>
      </trkpt>
      <trkpt lat="40.7395620" lon="-8.2777580">
        <ele>327.7</ele>
        <time>2019-06-10T10:50:09Z</time>
      </trkpt>
      <trkpt lat="40.7395790" lon="-8.2778270">
        <ele>327.6</ele>
        <time>2019-06-10T10:50:10Z</time>
      </trkpt>
      <trkpt lat="40.7396100" lon="-8.2778890">
        <ele>327.5</ele>
        <time>2019-06-10T10:50:11Z</time>
      </trkpt>
      <trkpt lat="40.7396500" lon="-8.2779670">
        <ele>327.4</ele>
        <time>2019-06-10T10:50:12Z</time>
      </trkpt>
      <trkpt lat="40.7396790" lon="-8.2780400">
        <ele>327.4</ele>
        <time>2019-06-10T10:50:13Z</time>
      </trkpt>
      <trkpt lat="40.7397430" lon="-8.2781790">
        <ele>327.1</ele>
        <time>2019-06-10T10:50:15Z</time>
      </trkpt>
      <trkpt lat="40.7398970" lon="-8.2783470">
        <ele>326.5</ele>
        <time>2019-06-10T10:50:18Z</time>
      </trkpt>
      <trkpt lat="40.7400020" lon="-8.2784430">
        <ele>326.1</ele>
        <time>2019-06-10T10:50:20Z</time>
      </trkpt>
      <trkpt lat="40.7400600" lon="-8.2784760">
        <ele>325.9</ele>
        <time>2019-06-10T10:50:21Z</time>
      </trkpt>
      <trkpt lat="40.7401150" lon="-8.2785070">
        <ele>325.8</ele>
        <time>2019-06-10T10:50:22Z</time>
      </trkpt>
      <trkpt lat="40.7401850" lon="-8.2785350">
        <ele>325.7</ele>
        <time>2019-06-10T10:50:23Z</time>
      </trkpt>
      <trkpt lat="40.7402430" lon="-8.2785640">
        <ele>325.6</ele>
        <time>2019-06-10T10:50:24Z</time>
      </trkpt>
      <trkpt lat="40.7404220" lon="-8.2786650">
        <ele>325.4</ele>
        <time>2019-06-10T10:50:27Z</time>
      </trkpt>
      <trkpt lat="40.7407400" lon="-8.2788880">
        <ele>324.4</ele>
        <time>2019-06-10T10:50:33Z</time>
      </trkpt>
      <trkpt lat="40.7407850" lon="-8.2789400">
        <ele>324.1</ele>
        <time>2019-06-10T10:50:34Z</time>
      </trkpt>
      <trkpt lat="40.7408590" lon="-8.2790420">
        <ele>323.7</ele>
        <time>2019-06-10T10:50:36Z</time>
      </trkpt>
      <trkpt lat="40.7409040" lon="-8.2791050">
        <ele>323.4</ele>
        <time>2019-06-10T10:50:37Z</time>
      </trkpt>
      <trkpt lat="40.7409320" lon="-8.2791710">
        <ele>323.1</ele>
        <time>2019-06-10T10:50:38Z</time>
      </trkpt>
      <trkpt lat="40.7409710" lon="-8.2792360">
        <ele>322.9</ele>
        <time>2019-06-10T10:50:39Z</time>
      </trkpt>
      <trkpt lat="40.7409940" lon="-8.2792950">
        <ele>322.8</ele>
        <time>2019-06-10T10:50:40Z</time>
      </trkpt>
      <trkpt lat="40.7410680" lon="-8.2795860">
        <ele>322.2</ele>
        <time>2019-06-10T10:50:44Z</time>
      </trkpt>
      <trkpt lat="40.7410930" lon="-8.2796680">
        <ele>321.9</ele>
        <time>2019-06-10T10:50:45Z</time>
      </trkpt>
      <trkpt lat="40.7411060" lon="-8.2797470">
        <ele>321.6</ele>
        <time>2019-06-10T10:50:46Z</time>
      </trkpt>
      <trkpt lat="40.7410940" lon="-8.2798340">
        <ele>321.4</ele>
        <time>2019-06-10T10:50:47Z</time>
      </trkpt>
      <trkpt lat="40.7410970" lon="-8.2799150">
        <ele>321.2</ele>
        <time>2019-06-10T10:50:48Z</time>
      </trkpt>
      <trkpt lat="40.7410880" lon="-8.2800130">
        <ele>321.1</ele>
        <time>2019-06-10T10:50:49Z</time>
      </trkpt>
      <trkpt lat="40.7410740" lon="-8.2801200">
        <ele>321.0</ele>
        <time>2019-06-10T10:50:50Z</time>
      </trkpt>
      <trkpt lat="40.7410820" lon="-8.2805730">
        <ele>320.2</ele>
        <time>2019-06-10T10:50:55Z</time>
      </trkpt>
      <trkpt lat="40.7410820" lon="-8.2807310">
        <ele>319.8</ele>
        <time>2019-06-10T10:50:57Z</time>
      </trkpt>
      <trkpt lat="40.7410690" lon="-8.2808790">
        <ele>319.6</ele>
        <time>2019-06-10T10:50:59Z</time>
      </trkpt>
      <trkpt lat="40.7410640" lon="-8.2809580">
        <ele>319.6</ele>
        <time>2019-06-10T10:51:00Z</time>
      </trkpt>
      <trkpt lat="40.7410600" lon="-8.2810230">
        <ele>319.5</ele>
        <time>2019-06-10T10:51:01Z</time>
      </trkpt>
      <trkpt lat="40.7410630" lon="-8.2810710">
        <ele>319.5</ele>
        <time>2019-06-10T10:51:02Z</time>
      </trkpt>
      <trkpt lat="40.7410700" lon="-8.2811030">
        <ele>319.5</ele>
        <time>2019-06-10T10:51:03Z</time>
      </trkpt>
      <trkpt lat="40.7410690" lon="-8.2812240">
        <ele>319.3</ele>
        <time>2019-06-10T10:51:06Z</time>
      </trkpt>
      <trkpt lat="40.7410750" lon="-8.2815930">
        <ele>318.3</ele>
        <time>2019-06-10T10:51:12Z</time>
      </trkpt>
      <trkpt lat="40.7410810" lon="-8.2817460">
        <ele>317.9</ele>
        <time>2019-06-10T10:51:14Z</time>
      </trkpt>
      <trkpt lat="40.7410830" lon="-8.2818170">
        <ele>317.7</ele>
        <time>2019-06-10T10:51:15Z</time>
      </trkpt>
      <trkpt lat="40.7410890" lon="-8.2818850">
        <ele>317.5</ele>
        <time>2019-06-10T10:51:16Z</time>
      </trkpt>
      <trkpt lat="40.7410960" lon="-8.2819610">
        <ele>317.3</ele>
        <time>2019-06-10T10:51:17Z</time>
      </trkpt>
      <trkpt lat="40.7411070" lon="-8.2820360">
        <ele>317.1</ele>
        <time>2019-06-10T10:51:18Z</time>
      </trkpt>
      <trkpt lat="40.7411120" lon="-8.2822530">
        <ele>316.6</ele>
        <time>2019-06-10T10:51:21Z</time>
      </trkpt>
      <trkpt lat="40.7411050" lon="-8.2823950">
        <ele>316.4</ele>
        <time>2019-06-10T10:51:23Z</time>
      </trkpt>
      <trkpt lat="40.7410000" lon="-8.2826900">
        <ele>315.8</ele>
        <time>2019-06-10T10:51:27Z</time>
      </trkpt>
      <trkpt lat="40.7409540" lon="-8.2827600">
        <ele>315.6</ele>
        <time>2019-06-10T10:51:28Z</time>
      </trkpt>
      <trkpt lat="40.7409140" lon="-8.2828280">
        <ele>315.4</ele>
        <time>2019-06-10T10:51:29Z</time>
      </trkpt>
      <trkpt lat="40.7408660" lon="-8.2828920">
        <ele>315.1</ele>
        <time>2019-06-10T10:51:30Z</time>
      </trkpt>
      <trkpt lat="40.7408230" lon="-8.2829670">
        <ele>314.9</ele>
        <time>2019-06-10T10:51:31Z</time>
      </trkpt>
      <trkpt lat="40.7407790" lon="-8.2830370">
        <ele>314.6</ele>
        <time>2019-06-10T10:51:32Z</time>
      </trkpt>
      <trkpt lat="40.7406750" lon="-8.2831720">
        <ele>314.1</ele>
        <time>2019-06-10T10:51:34Z</time>
      </trkpt>
      <trkpt lat="40.7403640" lon="-8.2834860">
        <ele>312.7</ele>
        <time>2019-06-10T10:51:39Z</time>
      </trkpt>
      <trkpt lat="40.7403110" lon="-8.2835450">
        <ele>312.5</ele>
        <time>2019-06-10T10:51:40Z</time>
      </trkpt>
      <trkpt lat="40.7402400" lon="-8.2836140">
        <ele>312.3</ele>
        <time>2019-06-10T10:51:41Z</time>
      </trkpt>
      <trkpt lat="40.7401940" lon="-8.2836650">
        <ele>312.1</ele>
        <time>2019-06-10T10:51:42Z</time>
      </trkpt>
      <trkpt lat="40.7401370" lon="-8.2837380">
        <ele>311.9</ele>
        <time>2019-06-10T10:51:43Z</time>
      </trkpt>
      <trkpt lat="40.7400850" lon="-8.2838150">
        <ele>311.7</ele>
        <time>2019-06-10T10:51:44Z</time>
      </trkpt>
      <trkpt lat="40.7400350" lon="-8.2838960">
        <ele>311.4</ele>
        <time>2019-06-10T10:51:45Z</time>
      </trkpt>
      <trkpt lat="40.7398580" lon="-8.2841940">
        <ele>310.4</ele>
        <time>2019-06-10T10:51:49Z</time>
      </trkpt>
      <trkpt lat="40.7397230" lon="-8.2844080">
        <ele>309.7</ele>
        <time>2019-06-10T10:51:52Z</time>
      </trkpt>
      <trkpt lat="40.7396740" lon="-8.2844770">
        <ele>309.5</ele>
        <time>2019-06-10T10:51:53Z</time>
      </trkpt>
      <trkpt lat="40.7396260" lon="-8.2845520">
        <ele>309.4</ele>
        <time>2019-06-10T10:51:54Z</time>
      </trkpt>
      <trkpt lat="40.7395840" lon="-8.2846230">
        <ele>309.2</ele>
        <time>2019-06-10T10:51:55Z</time>
      </trkpt>
      <trkpt lat="40.7395410" lon="-8.2846960">
        <ele>309.0</ele>
        <time>2019-06-10T10:51:56Z</time>
      </trkpt>
      <trkpt lat="40.7394780" lon="-8.2848530">
        <ele>308.7</ele>
        <time>2019-06-10T10:51:58Z</time>
      </trkpt>
      <trkpt lat="40.7394540" lon="-8.2849350">
        <ele>308.6</ele>
        <time>2019-06-10T10:51:59Z</time>
      </trkpt>
      <trkpt lat="40.7394240" lon="-8.2853070">
        <ele>307.6</ele>
        <time>2019-06-10T10:52:03Z</time>
      </trkpt>
      <trkpt lat="40.7394340" lon="-8.2853960">
        <ele>307.4</ele>
        <time>2019-06-10T10:52:04Z</time>
      </trkpt>
      <trkpt lat="40.7394620" lon="-8.2854700">
        <ele>307.2</ele>
        <time>2019-06-10T10:52:05Z</time>
      </trkpt>
      <trkpt lat="40.7394720" lon="-8.2855510">
        <ele>307.1</ele>
        <time>2019-06-10T10:52:06Z</time>
      </trkpt>
      <trkpt lat="40.7394880" lon="-8.2856320">
        <ele>307.0</ele>
        <time>2019-06-10T10:52:07Z</time>
      </trkpt>
      <trkpt lat="40.7395010" lon="-8.2857180">
        <ele>306.9</ele>
        <time>2019-06-10T10:52:08Z</time>
      </trkpt>
      <trkpt lat="40.7395850" lon="-8.2859610">
        <ele>306.2</ele>
        <time>2019-06-10T10:52:11Z</time>
      </trkpt>
      <trkpt lat="40.7396640" lon="-8.2860940">
        <ele>305.6</ele>
        <time>2019-06-10T10:52:13Z</time>
      </trkpt>
      <trkpt lat="40.7397680" lon="-8.2862480">
        <ele>304.9</ele>
        <time>2019-06-10T10:52:15Z</time>
      </trkpt>
      <trkpt lat="40.7398100" lon="-8.2863170">
        <ele>304.8</ele>
        <time>2019-06-10T10:52:16Z</time>
      </trkpt>
      <trkpt lat="40.7398530" lon="-8.2863950">
        <ele>304.7</ele>
        <time>2019-06-10T10:52:17Z</time>
      </trkpt>
      <trkpt lat="40.7398980" lon="-8.2864800">
        <ele>304.5</ele>
        <time>2019-06-10T10:52:18Z</time>
      </trkpt>
      <trkpt lat="40.7399440" lon="-8.2865490">
        <ele>304.4</ele>
        <time>2019-06-10T10:52:19Z</time>
      </trkpt>
      <trkpt lat="40.7400060" lon="-8.2866890">
        <ele>304.2</ele>
        <time>2019-06-10T10:52:21Z</time>
      </trkpt>
      <trkpt lat="40.7400620" lon="-8.2868460">
        <ele>304.0</ele>
        <time>2019-06-10T10:52:23Z</time>
      </trkpt>
      <trkpt lat="40.7401610" lon="-8.2873370">
        <ele>303.2</ele>
        <time>2019-06-10T10:52:29Z</time>
      </trkpt>
      <trkpt lat="40.7401490" lon="-8.2874430">
        <ele>302.9</ele>
        <time>2019-06-10T10:52:30Z</time>
      </trkpt>
      <trkpt lat="40.7401300" lon="-8.2875500">
        <ele>302.5</ele>
        <time>2019-06-10T10:52:31Z</time>
      </trkpt>
      <trkpt lat="40.7400840" lon="-8.2876740">
        <ele>301.9</ele>
        <time>2019-06-10T10:52:32Z</time>
      </trkpt>
      <trkpt lat="40.7400740" lon="-8.2877460">
        <ele>301.7</ele>
        <time>2019-06-10T10:52:33Z</time>
      </trkpt>
      <trkpt lat="40.7400510" lon="-8.2878370">
        <ele>301.3</ele>
        <time>2019-06-10T10:52:34Z</time>
      </trkpt>
      <trkpt lat="40.7399590" lon="-8.2881010">
        <ele>300.4</ele>
        <time>2019-06-10T10:52:37Z</time>
      </trkpt>
      <trkpt lat="40.7398760" lon="-8.2882720">
        <ele>300.1</ele>
        <time>2019-06-10T10:52:39Z</time>
      </trkpt>
      <trkpt lat="40.7398330" lon="-8.2883620">
        <ele>300.0</ele>
        <time>2019-06-10T10:52:40Z</time>
      </trkpt>
      <trkpt lat="40.7397910" lon="-8.2884580">
        <ele>299.9</ele>
        <time>2019-06-10T10:52:41Z</time>
      </trkpt>
      <trkpt lat="40.7397530" lon="-8.2885420">
        <ele>299.8</ele>
        <time>2019-06-10T10:52:42Z</time>
      </trkpt>
      <trkpt lat="40.7397320" lon="-8.2886150">
        <ele>299.7</ele>
        <time>2019-06-10T10:52:43Z</time>
      </trkpt>
      <trkpt lat="40.7396050" lon="-8.2889260">
        <ele>299.4</ele>
        <time>2019-06-10T10:52:47Z</time>
      </trkpt>
      <trkpt lat="40.7394830" lon="-8.2891510">
        <ele>298.9</ele>
        <time>2019-06-10T10:52:50Z</time>
      </trkpt>
      <trkpt lat="40.7394440" lon="-8.2892150">
        <ele>298.8</ele>
        <time>2019-06-10T10:52:51Z</time>
      </trkpt>
      <trkpt lat="40.7393950" lon="-8.2892900">
        <ele>298.6</ele>
        <time>2019-06-10T10:52:52Z</time>
      </trkpt>
      <trkpt lat="40.7393400" lon="-8.2893650">
        <ele>298.4</ele>
        <time>2019-06-10T10:52:53Z</time>
      </trkpt>
      <trkpt lat="40.7393020" lon="-8.2894570">
        <ele>298.2</ele>
        <time>2019-06-10T10:52:54Z</time>
      </trkpt>
      <trkpt lat="40.7390990" lon="-8.2897870">
        <ele>297.2</ele>
        <time>2019-06-10T10:52:58Z</time>
      </trkpt>
      <trkpt lat="40.7389100" lon="-8.2901200">
        <ele>296.3</ele>
        <time>2019-06-10T10:53:02Z</time>
      </trkpt>
      <trkpt lat="40.7388690" lon="-8.2902020">
        <ele>296.1</ele>
        <time>2019-06-10T10:53:03Z</time>
      </trkpt>
      <trkpt lat="40.7388240" lon="-8.2902820">
        <ele>295.9</ele>
        <time>2019-06-10T10:53:04Z</time>
      </trkpt>
      <trkpt lat="40.7387790" lon="-8.2903620">
        <ele>295.5</ele>
        <time>2019-06-10T10:53:05Z</time>
      </trkpt>
      <trkpt lat="40.7387340" lon="-8.2904450">
        <ele>295.2</ele>
        <time>2019-06-10T10:53:06Z</time>
      </trkpt>
      <trkpt lat="40.7386500" lon="-8.2905860">
        <ele>294.7</ele>
        <time>2019-06-10T10:53:08Z</time>
      </trkpt>
      <trkpt lat="40.7384950" lon="-8.2910060">
        <ele>293.7</ele>
        <time>2019-06-10T10:53:13Z</time>
      </trkpt>
      <trkpt lat="40.7384830" lon="-8.2911090">
        <ele>293.5</ele>
        <time>2019-06-10T10:53:14Z</time>
      </trkpt>
      <trkpt lat="40.7384690" lon="-8.2911990">
        <ele>293.4</ele>
        <time>2019-06-10T10:53:15Z</time>
      </trkpt>
      <trkpt lat="40.7384620" lon="-8.2913030">
        <ele>293.3</ele>
        <time>2019-06-10T10:53:16Z</time>
      </trkpt>
      <trkpt lat="40.7384520" lon="-8.2914090">
        <ele>293.2</ele>
        <time>2019-06-10T10:53:17Z</time>
      </trkpt>
      <trkpt lat="40.7384380" lon="-8.2917320">
        <ele>292.4</ele>
        <time>2019-06-10T10:53:20Z</time>
      </trkpt>
      <trkpt lat="40.7384310" lon="-8.2919460">
        <ele>292.1</ele>
        <time>2019-06-10T10:53:22Z</time>
      </trkpt>
      <trkpt lat="40.7384280" lon="-8.2920650">
        <ele>291.9</ele>
        <time>2019-06-10T10:53:23Z</time>
      </trkpt>
      <trkpt lat="40.7384270" lon="-8.2921540">
        <ele>291.8</ele>
        <time>2019-06-10T10:53:24Z</time>
      </trkpt>
      <trkpt lat="40.7384180" lon="-8.2922600">
        <ele>291.6</ele>
        <time>2019-06-10T10:53:25Z</time>
      </trkpt>
      <trkpt lat="40.7384100" lon="-8.2923620">
        <ele>291.5</ele>
        <time>2019-06-10T10:53:26Z</time>
      </trkpt>
      <trkpt lat="40.7383980" lon="-8.2925690">
        <ele>291.2</ele>
        <time>2019-06-10T10:53:28Z</time>
      </trkpt>
      <trkpt lat="40.7382720" lon="-8.2932680">
        <ele>289.7</ele>
        <time>2019-06-10T10:53:35Z</time>
      </trkpt>
      <trkpt lat="40.7382440" lon="-8.2933620">
        <ele>289.3</ele>
        <time>2019-06-10T10:53:36Z</time>
      </trkpt>
      <trkpt lat="40.7382150" lon="-8.2934490">
        <ele>289.0</ele>
        <time>2019-06-10T10:53:37Z</time>
      </trkpt>
      <trkpt lat="40.7381850" lon="-8.2935380">
        <ele>288.7</ele>
        <time>2019-06-10T10:53:38Z</time>
      </trkpt>
      <trkpt lat="40.7381550" lon="-8.2936220">
        <ele>288.5</ele>
        <time>2019-06-10T10:53:39Z</time>
      </trkpt>
      <trkpt lat="40.7381260" lon="-8.2937090">
        <ele>288.4</ele>
        <time>2019-06-10T10:53:40Z</time>
      </trkpt>
      <trkpt lat="40.7380560" lon="-8.2939920">
        <ele>288.0</ele>
        <time>2019-06-10T10:53:43Z</time>
      </trkpt>
      <trkpt lat="40.7380080" lon="-8.2940830">
        <ele>287.9</ele>
        <time>2019-06-10T10:53:44Z</time>
      </trkpt>
      <trkpt lat="40.7378820" lon="-8.2943400">
        <ele>287.3</ele>
        <time>2019-06-10T10:53:47Z</time>
      </trkpt>
      <trkpt lat="40.7377580" lon="-8.2945570">
        <ele>286.7</ele>
        <time>2019-06-10T10:53:50Z</time>
      </trkpt>
      <trkpt lat="40.7377010" lon="-8.2946170">
        <ele>286.5</ele>
        <time>2019-06-10T10:53:51Z</time>
      </trkpt>
      <trkpt lat="40.7376460" lon="-8.2946760">
        <ele>286.3</ele>
        <time>2019-06-10T10:53:52Z</time>
      </trkpt>
      <trkpt lat="40.7375860" lon="-8.2947280">
        <ele>286.1</ele>
        <time>2019-06-10T10:53:53Z</time>
      </trkpt>
      <trkpt lat="40.7375260" lon="-8.2947830">
        <ele>285.8</ele>
        <time>2019-06-10T10:53:54Z</time>
      </trkpt>
      <trkpt lat="40.7373150" lon="-8.2949140">
        <ele>285.4</ele>
        <time>2019-06-10T10:53:57Z</time>
      </trkpt>
      <trkpt lat="40.7371710" lon="-8.2949760">
        <ele>285.2</ele>
        <time>2019-06-10T10:53:59Z</time>
      </trkpt>
      <trkpt lat="40.7370980" lon="-8.2950040">
        <ele>284.9</ele>
        <time>2019-06-10T10:54:00Z</time>
      </trkpt>
      <trkpt lat="40.7370180" lon="-8.2950240">
        <ele>284.1</ele>
        <time>2019-06-10T10:54:01Z</time>
      </trkpt>
      <trkpt lat="40.7369470" lon="-8.2950540">
        <ele>283.6</ele>
        <time>2019-06-10T10:54:02Z</time>
      </trkpt>
      <trkpt lat="40.7368680" lon="-8.2950780">
        <ele>283.1</ele>
        <time>2019-06-10T10:54:03Z</time>
      </trkpt>
      <trkpt lat="40.7365730" lon="-8.2951700">
        <ele>281.6</ele>
        <time>2019-06-10T10:54:07Z</time>
      </trkpt>
      <trkpt lat="40.7364980" lon="-8.2951950">
        <ele>281.2</ele>
        <time>2019-06-10T10:54:08Z</time>
      </trkpt>
      <trkpt lat="40.7364220" lon="-8.2952230">
        <ele>280.8</ele>
        <time>2019-06-10T10:54:09Z</time>
      </trkpt>
      <trkpt lat="40.7363460" lon="-8.2952500">
        <ele>280.4</ele>
        <time>2019-06-10T10:54:10Z</time>
      </trkpt>
      <trkpt lat="40.7362670" lon="-8.2952760">
        <ele>279.9</ele>
        <time>2019-06-10T10:54:11Z</time>
      </trkpt>
      <trkpt lat="40.7357960" lon="-8.2954460">
        <ele>277.4</ele>
        <time>2019-06-10T10:54:17Z</time>
      </trkpt>
      <trkpt lat="40.7353390" lon="-8.2955850">
        <ele>274.9</ele>
        <time>2019-06-10T10:54:23Z</time>
      </trkpt>
      <trkpt lat="40.7352680" lon="-8.2956200">
        <ele>274.5</ele>
        <time>2019-06-10T10:54:24Z</time>
      </trkpt>
      <trkpt lat="40.7351890" lon="-8.2956570">
        <ele>274.1</ele>
        <time>2019-06-10T10:54:25Z</time>
      </trkpt>
      <trkpt lat="40.7351120" lon="-8.2956920">
        <ele>273.7</ele>
        <time>2019-06-10T10:54:26Z</time>
      </trkpt>
      <trkpt lat="40.7350370" lon="-8.2957310">
        <ele>273.3</ele>
        <time>2019-06-10T10:54:27Z</time>
      </trkpt>
      <trkpt lat="40.7345990" lon="-8.2960340">
        <ele>270.6</ele>
        <time>2019-06-10T10:54:33Z</time>
      </trkpt>
      <trkpt lat="40.7345300" lon="-8.2960970">
        <ele>270.2</ele>
        <time>2019-06-10T10:54:34Z</time>
      </trkpt>
      <trkpt lat="40.7344630" lon="-8.2961690">
        <ele>269.7</ele>
        <time>2019-06-10T10:54:35Z</time>
      </trkpt>
      <trkpt lat="40.7343960" lon="-8.2962460">
        <ele>269.2</ele>
        <time>2019-06-10T10:54:36Z</time>
      </trkpt>
      <trkpt lat="40.7343310" lon="-8.2963200">
        <ele>268.8</ele>
        <time>2019-06-10T10:54:37Z</time>
      </trkpt>
      <trkpt lat="40.7341580" lon="-8.2965980">
        <ele>267.4</ele>
        <time>2019-06-10T10:54:40Z</time>
      </trkpt>
      <trkpt lat="40.7339360" lon="-8.2970860">
        <ele>265.3</ele>
        <time>2019-06-10T10:54:45Z</time>
      </trkpt>
      <trkpt lat="40.7338960" lon="-8.2971810">
        <ele>264.8</ele>
        <time>2019-06-10T10:54:46Z</time>
      </trkpt>
      <trkpt lat="40.7338600" lon="-8.2972700">
        <ele>264.4</ele>
        <time>2019-06-10T10:54:47Z</time>
      </trkpt>
      <trkpt lat="40.7338270" lon="-8.2973560">
        <ele>263.9</ele>
        <time>2019-06-10T10:54:48Z</time>
      </trkpt>
      <trkpt lat="40.7338070" lon="-8.2974350">
        <ele>263.8</ele>
        <time>2019-06-10T10:54:49Z</time>
      </trkpt>
      <trkpt lat="40.7338230" lon="-8.2974780">
        <ele>263.8</ele>
        <time>2019-06-10T10:54:50Z</time>
      </trkpt>
      <trkpt lat="40.7337450" lon="-8.2976500">
        <ele>263.7</ele>
        <time>2019-06-10T10:54:55Z</time>
      </trkpt>
      <trkpt lat="40.7336680" lon="-8.2978310">
        <ele>263.5</ele>
        <time>2019-06-10T10:54:59Z</time>
      </trkpt>
      <trkpt lat="40.7336510" lon="-8.2978780">
        <ele>263.5</ele>
        <time>2019-06-10T10:55:00Z</time>
      </trkpt>
      <trkpt lat="40.7336340" lon="-8.2979270">
        <ele>263.4</ele>
        <time>2019-06-10T10:55:01Z</time>
      </trkpt>
      <trkpt lat="40.7336160" lon="-8.2979730">
        <ele>263.3</ele>
        <time>2019-06-10T10:55:02Z</time>
      </trkpt>
      <trkpt lat="40.7335880" lon="-8.2980150">
        <ele>263.2</ele>
        <time>2019-06-10T10:55:03Z</time>
      </trkpt>
      <trkpt lat="40.7334190" lon="-8.2983270">
        <ele>263.2</ele>
        <time>2019-06-10T10:55:11Z</time>
      </trkpt>
      <trkpt lat="40.7333920" lon="-8.2983560">
        <ele>263.2</ele>
        <time>2019-06-10T10:55:12Z</time>
      </trkpt>
      <trkpt lat="40.7333660" lon="-8.2983810">
        <ele>263.2</ele>
        <time>2019-06-10T10:55:13Z</time>
      </trkpt>
      <trkpt lat="40.7333380" lon="-8.2984070">
        <ele>263.2</ele>
        <time>2019-06-10T10:55:14Z</time>
      </trkpt>
      <trkpt lat="40.7333070" lon="-8.2984260">
        <ele>263.3</ele>
        <time>2019-06-10T10:55:15Z</time>
      </trkpt>
      <trkpt lat="40.7332300" lon="-8.2984820">
        <ele>263.3</ele>
        <time>2019-06-10T10:55:18Z</time>
      </trkpt>
      <trkpt lat="40.7330660" lon="-8.2985880">
        <ele>263.3</ele>
        <time>2019-06-10T10:55:24Z</time>
      </trkpt>
      <trkpt lat="40.7328400" lon="-8.2987760">
        <ele>263.2</ele>
        <time>2019-06-10T10:55:31Z</time>
      </trkpt>
      <trkpt lat="40.7326160" lon="-8.2989850">
        <ele>262.9</ele>
        <time>2019-06-10T10:55:38Z</time>
      </trkpt>
      <trkpt lat="40.7325850" lon="-8.2990290">
        <ele>262.9</ele>
        <time>2019-06-10T10:55:39Z</time>
      </trkpt>
      <trkpt lat="40.7324630" lon="-8.2992160">
        <ele>262.8</ele>
        <time>2019-06-10T10:55:43Z</time>
      </trkpt>
      <trkpt lat="40.7322700" lon="-8.2995300">
        <ele>262.6</ele>
        <time>2019-06-10T10:55:50Z</time>
      </trkpt>
      <trkpt lat="40.7321780" lon="-8.2996950">
        <ele>262.4</ele>
        <time>2019-06-10T10:55:56Z</time>
      </trkpt>
      <trkpt lat="40.7321250" lon="-8.2997370">
        <ele>262.3</ele>
        <time>2019-06-10T10:56:01Z</time>
      </trkpt>
      <trkpt lat="40.7320110" lon="-8.2997630">
        <ele>262.3</ele>
        <time>2019-06-10T10:56:09Z</time>
      </trkpt>
      <trkpt lat="40.7319620" lon="-8.2996720">
        <ele>262.2</ele>
        <time>2019-06-10T10:56:16Z</time>
      </trkpt>
      <trkpt lat="40.7319600" lon="-8.2996830">
        <ele>262.3</ele>
        <time>2019-06-10T10:56:25Z</time>
      </trkpt>
      <trkpt lat="40.7320190" lon="-8.2997300">
        <ele>262.3</ele>
        <time>2019-06-10T10:56:30Z</time>
      </trkpt>
      <trkpt lat="40.7320370" lon="-8.2997380">
        <ele>262.3</ele>
        <time>2019-06-10T10:56:31Z</time>
      </trkpt>
      <trkpt lat="40.7321240" lon="-8.2996770">
        <ele>262.5</ele>
        <time>2019-06-10T10:56:37Z</time>
      </trkpt>
      <trkpt lat="40.7321410" lon="-8.2996300">
        <ele>262.5</ele>
        <time>2019-06-10T10:56:44Z</time>
      </trkpt>
      <trkpt lat="40.7321340" lon="-8.2996290">
        <ele>262.6</ele>
        <time>2019-06-10T10:56:45Z</time>
      </trkpt>
      <trkpt lat="40.7322480" lon="-8.2995530">
        <ele>262.7</ele>
        <time>2019-06-10T10:58:04Z</time>
      </trkpt>
      <trkpt lat="40.7322480" lon="-8.2995760">
        <ele>262.7</ele>
        <time>2019-06-10T10:58:07Z</time>
      </trkpt>
      <trkpt lat="40.7322120" lon="-8.2996050">
        <ele>262.7</ele>
        <time>2019-06-10T10:58:11Z</time>
      </trkpt>
      <trkpt lat="40.7322170" lon="-8.2996150">
        <ele>262.7</ele>
        <time>2019-06-10T10:58:12Z</time>
      </trkpt>
      <trkpt lat="40.7322190" lon="-8.2996310">
        <ele>262.7</ele>
        <time>2019-06-10T10:58:14Z</time>
      </trkpt>
      <trkpt lat="40.7321950" lon="-8.2996270">
        <ele>262.7</ele>
        <time>2019-06-10T10:58:16Z</time>
      </trkpt>
      <trkpt lat="40.7321760" lon="-8.2996450">
        <ele>262.7</ele>
        <time>2019-06-10T10:58:21Z</time>
      </trkpt>
      <trkpt lat="40.7321910" lon="-8.2996550">
        <ele>262.7</ele>
        <time>2019-06-10T10:58:24Z</time>
      </trkpt>
      <trkpt lat="40.7322040" lon="-8.2996490">
        <ele>262.7</ele>
        <time>2019-06-10T10:58:25Z</time>
      </trkpt>
      <trkpt lat="40.7322470" lon="-8.2996300">
        <ele>262.7</ele>
        <time>2019-06-10T10:58:28Z</time>
      </trkpt>
      <trkpt lat="40.7322620" lon="-8.2996180">
        <ele>262.7</ele>
        <time>2019-06-10T10:58:29Z</time>
      </trkpt>
      <trkpt lat="40.7322820" lon="-8.2996340">
        <ele>262.7</ele>
        <time>2019-06-10T10:58:30Z</time>
      </trkpt>
      <trkpt lat="40.7323230" lon="-8.2996970">
        <ele>262.7</ele>
        <time>2019-06-10T10:58:32Z</time>
      </trkpt>
      <trkpt lat="40.7322350" lon="-8.2998430">
        <ele>262.5</ele>
        <time>2019-06-10T10:58:35Z</time>
      </trkpt>
      <trkpt lat="40.7320120" lon="-8.2998520">
        <ele>262.3</ele>
        <time>2019-06-10T10:58:41Z</time>
      </trkpt>
      <trkpt lat="40.7317010" lon="-8.2999230">
        <ele>261.7</ele>
        <time>2019-06-10T10:58:49Z</time>
      </trkpt>
      <trkpt lat="40.7314080" lon="-8.3000690">
        <ele>261.0</ele>
        <time>2019-06-10T10:58:56Z</time>
      </trkpt>
      <trkpt lat="40.7311640" lon="-8.3002910">
        <ele>260.4</ele>
        <time>2019-06-10T10:59:02Z</time>
      </trkpt>
      <trkpt lat="40.7311290" lon="-8.3003410">
        <ele>260.3</ele>
        <time>2019-06-10T10:59:03Z</time>
      </trkpt>
      <trkpt lat="40.7310090" lon="-8.3005450">
        <ele>259.9</ele>
        <time>2019-06-10T10:59:07Z</time>
      </trkpt>
      <trkpt lat="40.7309910" lon="-8.3006060">
        <ele>259.8</ele>
        <time>2019-06-10T10:59:08Z</time>
      </trkpt>
      <trkpt lat="40.7308910" lon="-8.3008850">
        <ele>259.4</ele>
        <time>2019-06-10T10:59:12Z</time>
      </trkpt>
      <trkpt lat="40.7308360" lon="-8.3010180">
        <ele>259.2</ele>
        <time>2019-06-10T10:59:14Z</time>
      </trkpt>
      <trkpt lat="40.7308000" lon="-8.3010900">
        <ele>259.1</ele>
        <time>2019-06-10T10:59:15Z</time>
      </trkpt>
      <trkpt lat="40.7307650" lon="-8.3011610">
        <ele>259.1</ele>
        <time>2019-06-10T10:59:16Z</time>
      </trkpt>
      <trkpt lat="40.7307370" lon="-8.3012340">
        <ele>259.1</ele>
        <time>2019-06-10T10:59:17Z</time>
      </trkpt>
      <trkpt lat="40.7307100" lon="-8.3013130">
        <ele>259.0</ele>
        <time>2019-06-10T10:59:18Z</time>
      </trkpt>
      <trkpt lat="40.7307020" lon="-8.3014010">
        <ele>259.0</ele>
        <time>2019-06-10T10:59:19Z</time>
      </trkpt>
      <trkpt lat="40.7307330" lon="-8.3017670">
        <ele>259.2</ele>
        <time>2019-06-10T10:59:23Z</time>
      </trkpt>
      <trkpt lat="40.7307390" lon="-8.3018640">
        <ele>259.3</ele>
        <time>2019-06-10T10:59:24Z</time>
      </trkpt>
      <trkpt lat="40.7307410" lon="-8.3020550">
        <ele>259.5</ele>
        <time>2019-06-10T10:59:26Z</time>
      </trkpt>
      <trkpt lat="40.7307470" lon="-8.3021510">
        <ele>259.6</ele>
        <time>2019-06-10T10:59:27Z</time>
      </trkpt>
      <trkpt lat="40.7307600" lon="-8.3022410">
        <ele>259.8</ele>
        <time>2019-06-10T10:59:28Z</time>
      </trkpt>
      <trkpt lat="40.7307730" lon="-8.3023350">
        <ele>259.9</ele>
        <time>2019-06-10T10:59:29Z</time>
      </trkpt>
      <trkpt lat="40.7307840" lon="-8.3024280">
        <ele>260.0</ele>
        <time>2019-06-10T10:59:30Z</time>
      </trkpt>
      <trkpt lat="40.7308650" lon="-8.3031460">
        <ele>259.7</ele>
        <time>2019-06-10T10:59:38Z</time>
      </trkpt>
      <trkpt lat="40.7309020" lon="-8.3033910">
        <ele>258.9</ele>
        <time>2019-06-10T10:59:41Z</time>
      </trkpt>
      <trkpt lat="40.7309880" lon="-8.3038990">
        <ele>256.0</ele>
        <time>2019-06-10T10:59:48Z</time>
      </trkpt>
      <trkpt lat="40.7310280" lon="-8.3041980">
        <ele>255.1</ele>
        <time>2019-06-10T10:59:51Z</time>
      </trkpt>
      <trkpt lat="40.7310440" lon="-8.3043090">
        <ele>254.8</ele>
        <time>2019-06-10T10:59:52Z</time>
      </trkpt>
      <trkpt lat="40.7310570" lon="-8.3044240">
        <ele>254.7</ele>
        <time>2019-06-10T10:59:53Z</time>
      </trkpt>
      <trkpt lat="40.7310540" lon="-8.3045480">
        <ele>254.5</ele>
        <time>2019-06-10T10:59:54Z</time>
      </trkpt>
      <trkpt lat="40.7310660" lon="-8.3046500">
        <ele>254.4</ele>
        <time>2019-06-10T10:59:55Z</time>
      </trkpt>
      <trkpt lat="40.7310300" lon="-8.3047750">
        <ele>254.2</ele>
        <time>2019-06-10T10:59:56Z</time>
      </trkpt>
      <trkpt lat="40.7310130" lon="-8.3048790">
        <ele>253.9</ele>
        <time>2019-06-10T10:59:57Z</time>
      </trkpt>
      <trkpt lat="40.7309770" lon="-8.3049860">
        <ele>253.7</ele>
        <time>2019-06-10T10:59:58Z</time>
      </trkpt>
      <trkpt lat="40.7309340" lon="-8.3050940">
        <ele>253.3</ele>
        <time>2019-06-10T10:59:59Z</time>
      </trkpt>
      <trkpt lat="40.7308980" lon="-8.3051890">
        <ele>253.0</ele>
        <time>2019-06-10T11:00:00Z</time>
      </trkpt>
      <trkpt lat="40.7308680" lon="-8.3052770">
        <ele>252.7</ele>
        <time>2019-06-10T11:00:01Z</time>
      </trkpt>
      <trkpt lat="40.7307390" lon="-8.3055610">
        <ele>251.4</ele>
        <time>2019-06-10T11:00:04Z</time>
      </trkpt>
      <trkpt lat="40.7307080" lon="-8.3056440">
        <ele>251.1</ele>
        <time>2019-06-10T11:00:05Z</time>
      </trkpt>
      <trkpt lat="40.7306780" lon="-8.3057480">
        <ele>250.8</ele>
        <time>2019-06-10T11:00:06Z</time>
      </trkpt>
      <trkpt lat="40.7306520" lon="-8.3058480">
        <ele>250.7</ele>
        <time>2019-06-10T11:00:07Z</time>
      </trkpt>
      <trkpt lat="40.7306300" lon="-8.3059490">
        <ele>250.7</ele>
        <time>2019-06-10T11:00:08Z</time>
      </trkpt>
      <trkpt lat="40.7305880" lon="-8.3062500">
        <ele>250.7</ele>
        <time>2019-06-10T11:00:11Z</time>
      </trkpt>
      <trkpt lat="40.7305940" lon="-8.3063620">
        <ele>250.6</ele>
        <time>2019-06-10T11:00:12Z</time>
      </trkpt>
      <trkpt lat="40.7306050" lon="-8.3064680">
        <ele>250.4</ele>
        <time>2019-06-10T11:00:13Z</time>
      </trkpt>
      <trkpt lat="40.7306190" lon="-8.3065670">
        <ele>250.3</ele>
        <time>2019-06-10T11:00:14Z</time>
      </trkpt>
      <trkpt lat="40.7306330" lon="-8.3066680">
        <ele>250.1</ele>
        <time>2019-06-10T11:00:15Z</time>
      </trkpt>
      <trkpt lat="40.7306880" lon="-8.3069480">
        <ele>249.7</ele>
        <time>2019-06-10T11:00:18Z</time>
      </trkpt>
      <trkpt lat="40.7307490" lon="-8.3076300">
        <ele>248.6</ele>
        <time>2019-06-10T11:00:26Z</time>
      </trkpt>
      <trkpt lat="40.7307310" lon="-8.3077100">
        <ele>248.6</ele>
        <time>2019-06-10T11:00:27Z</time>
      </trkpt>
      <trkpt lat="40.7307020" lon="-8.3077800">
        <ele>248.7</ele>
        <time>2019-06-10T11:00:28Z</time>
      </trkpt>
      <trkpt lat="40.7306760" lon="-8.3078540">
        <ele>248.8</ele>
        <time>2019-06-10T11:00:29Z</time>
      </trkpt>
      <trkpt lat="40.7306450" lon="-8.3079250">
        <ele>249.1</ele>
        <time>2019-06-10T11:00:30Z</time>
      </trkpt>
      <trkpt lat="40.7306270" lon="-8.3080030">
        <ele>249.5</ele>
        <time>2019-06-10T11:00:31Z</time>
      </trkpt>
      <trkpt lat="40.7306080" lon="-8.3081440">
        <ele>249.1</ele>
        <time>2019-06-10T11:00:34Z</time>
      </trkpt>
      <trkpt lat="40.7305350" lon="-8.3083700">
        <ele>248.8</ele>
        <time>2019-06-10T11:00:39Z</time>
      </trkpt>
      <trkpt lat="40.7304620" lon="-8.3085330">
        <ele>248.6</ele>
        <time>2019-06-10T11:00:42Z</time>
      </trkpt>
      <trkpt lat="40.7304320" lon="-8.3086090">
        <ele>248.5</ele>
        <time>2019-06-10T11:00:43Z</time>
      </trkpt>
      <trkpt lat="40.7304080" lon="-8.3086720">
        <ele>248.4</ele>
        <time>2019-06-10T11:00:44Z</time>
      </trkpt>
      <trkpt lat="40.7303880" lon="-8.3087440">
        <ele>248.3</ele>
        <time>2019-06-10T11:00:45Z</time>
      </trkpt>
      <trkpt lat="40.7303650" lon="-8.3088180">
        <ele>248.2</ele>
        <time>2019-06-10T11:00:46Z</time>
      </trkpt>
      <trkpt lat="40.7303410" lon="-8.3088950">
        <ele>248.1</ele>
        <time>2019-06-10T11:00:47Z</time>
      </trkpt>
      <trkpt lat="40.7302920" lon="-8.3092180">
        <ele>247.7</ele>
        <time>2019-06-10T11:00:51Z</time>
      </trkpt>
      <trkpt lat="40.7302890" lon="-8.3093030">
        <ele>247.6</ele>
        <time>2019-06-10T11:00:52Z</time>
      </trkpt>
      <trkpt lat="40.7302960" lon="-8.3093820">
        <ele>247.5</ele>
        <time>2019-06-10T11:00:53Z</time>
      </trkpt>
      <trkpt lat="40.7303020" lon="-8.3094680">
        <ele>247.3</ele>
        <time>2019-06-10T11:00:54Z</time>
      </trkpt>
      <trkpt lat="40.7303170" lon="-8.3095520">
        <ele>247.2</ele>
        <time>2019-06-10T11:00:55Z</time>
      </trkpt>
      <trkpt lat="40.7303470" lon="-8.3096400">
        <ele>247.1</ele>
        <time>2019-06-10T11:00:56Z</time>
      </trkpt>
      <trkpt lat="40.7303690" lon="-8.3097160">
        <ele>247.0</ele>
        <time>2019-06-10T11:00:57Z</time>
      </trkpt>
      <trkpt lat="40.7305140" lon="-8.3101090">
        <ele>246.3</ele>
        <time>2019-06-10T11:01:02Z</time>
      </trkpt>
      <trkpt lat="40.7305480" lon="-8.3101860">
        <ele>246.2</ele>
        <time>2019-06-10T11:01:03Z</time>
      </trkpt>
      <trkpt lat="40.7305880" lon="-8.3102530">
        <ele>246.1</ele>
        <time>2019-06-10T11:01:04Z</time>
      </trkpt>
      <trkpt lat="40.7306300" lon="-8.3103190">
        <ele>246.0</ele>
        <time>2019-06-10T11:01:05Z</time>
      </trkpt>
      <trkpt lat="40.7306720" lon="-8.3103900">
        <ele>245.8</ele>
        <time>2019-06-10T11:01:06Z</time>
      </trkpt>
      <trkpt lat="40.7308410" lon="-8.3106750">
        <ele>245.2</ele>
        <time>2019-06-10T11:01:10Z</time>
      </trkpt>
      <trkpt lat="40.7308910" lon="-8.3107360">
        <ele>245.1</ele>
        <time>2019-06-10T11:01:11Z</time>
      </trkpt>
      <trkpt lat="40.7310510" lon="-8.3108840">
        <ele>244.7</ele>
        <time>2019-06-10T11:01:14Z</time>
      </trkpt>
      <trkpt lat="40.7312060" lon="-8.3109850">
        <ele>244.3</ele>
        <time>2019-06-10T11:01:17Z</time>
      </trkpt>
      <trkpt lat="40.7312570" lon="-8.3110110">
        <ele>244.2</ele>
        <time>2019-06-10T11:01:18Z</time>
      </trkpt>
      <trkpt lat="40.7313370" lon="-8.3110170">
        <ele>244.0</ele>
        <time>2019-06-10T11:01:19Z</time>
      </trkpt>
      <trkpt lat="40.7313880" lon="-8.3110220">
        <ele>243.9</ele>
        <time>2019-06-10T11:01:20Z</time>
      </trkpt>
      <trkpt lat="40.7314560" lon="-8.3110330">
        <ele>243.8</ele>
        <time>2019-06-10T11:01:21Z</time>
      </trkpt>
      <trkpt lat="40.7315250" lon="-8.3110570">
        <ele>243.6</ele>
        <time>2019-06-10T11:01:22Z</time>
      </trkpt>
      <trkpt lat="40.7316710" lon="-8.3111240">
        <ele>243.3</ele>
        <time>2019-06-10T11:01:24Z</time>
      </trkpt>
      <trkpt lat="40.7319300" lon="-8.3112760">
        <ele>242.7</ele>
        <time>2019-06-10T11:01:28Z</time>
      </trkpt>
      <trkpt lat="40.7320390" lon="-8.3113770">
        <ele>242.4</ele>
        <time>2019-06-10T11:01:30Z</time>
      </trkpt>
      <trkpt lat="40.7320800" lon="-8.3114340">
        <ele>242.2</ele>
        <time>2019-06-10T11:01:31Z</time>
      </trkpt>
      <trkpt lat="40.7321230" lon="-8.3114840">
        <ele>242.1</ele>
        <time>2019-06-10T11:01:32Z</time>
      </trkpt>
      <trkpt lat="40.7321550" lon="-8.3115590">
        <ele>242.0</ele>
        <time>2019-06-10T11:01:33Z</time>
      </trkpt>
      <trkpt lat="40.7321850" lon="-8.3116200">
        <ele>241.9</ele>
        <time>2019-06-10T11:01:34Z</time>
      </trkpt>
      <trkpt lat="40.7322110" lon="-8.3117140">
        <ele>241.8</ele>
        <time>2019-06-10T11:01:35Z</time>
      </trkpt>
      <trkpt lat="40.7323550" lon="-8.3120470">
        <ele>241.1</ele>
        <time>2019-06-10T11:01:39Z</time>
      </trkpt>
      <trkpt lat="40.7325290" lon="-8.3126760">
        <ele>240.1</ele>
        <time>2019-06-10T11:01:46Z</time>
      </trkpt>
      <trkpt lat="40.7325390" lon="-8.3127690">
        <ele>239.9</ele>
        <time>2019-06-10T11:01:47Z</time>
      </trkpt>
      <trkpt lat="40.7325510" lon="-8.3130850">
        <ele>239.4</ele>
        <time>2019-06-10T11:01:51Z</time>
      </trkpt>
      <trkpt lat="40.7325460" lon="-8.3131700">
        <ele>239.3</ele>
        <time>2019-06-10T11:01:52Z</time>
      </trkpt>
      <trkpt lat="40.7325440" lon="-8.3132370">
        <ele>239.2</ele>
        <time>2019-06-10T11:01:53Z</time>
      </trkpt>
      <trkpt lat="40.7325460" lon="-8.3133030">
        <ele>239.1</ele>
        <time>2019-06-10T11:01:54Z</time>
      </trkpt>
      <trkpt lat="40.7325480" lon="-8.3133600">
        <ele>239.1</ele>
        <time>2019-06-10T11:01:55Z</time>
      </trkpt>
      <trkpt lat="40.7325510" lon="-8.3134520">
        <ele>239.2</ele>
        <time>2019-06-10T11:01:57Z</time>
      </trkpt>
      <trkpt lat="40.7325410" lon="-8.3134940">
        <ele>239.3</ele>
        <time>2019-06-10T11:02:00Z</time>
      </trkpt>
      <trkpt lat="40.7325360" lon="-8.3134840">
        <ele>239.3</ele>
        <time>2019-06-10T11:04:26Z</time>
      </trkpt>
      <trkpt lat="40.7325360" lon="-8.3134900">
        <ele>239.3</ele>
        <time>2019-06-10T11:04:27Z</time>
      </trkpt>
      <trkpt lat="40.7325510" lon="-8.3135620">
        <ele>239.4</ele>
        <time>2019-06-10T11:04:35Z</time>
      </trkpt>
      <trkpt lat="40.7325590" lon="-8.3136040">
        <ele>239.4</ele>
        <time>2019-06-10T11:04:36Z</time>
      </trkpt>
      <trkpt lat="40.7325880" lon="-8.3138300">
        <ele>239.5</ele>
        <time>2019-06-10T11:04:41Z</time>
      </trkpt>
      <trkpt lat="40.7325890" lon="-8.3138840">
        <ele>239.5</ele>
        <time>2019-06-10T11:04:42Z</time>
      </trkpt>
      <trkpt lat="40.7325940" lon="-8.3139300">
        <ele>239.6</ele>
        <time>2019-06-10T11:04:43Z</time>
      </trkpt>
      <trkpt lat="40.7325940" lon="-8.3139810">
        <ele>239.6</ele>
        <time>2019-06-10T11:04:44Z</time>
      </trkpt>
      <trkpt lat="40.7325840" lon="-8.3140370">
        <ele>239.6</ele>
        <time>2019-06-10T11:04:45Z</time>
      </trkpt>
      <trkpt lat="40.7325530" lon="-8.3143720">
        <ele>239.6</ele>
        <time>2019-06-10T11:04:52Z</time>
      </trkpt>
      <trkpt lat="40.7324800" lon="-8.3146670">
        <ele>239.7</ele>
        <time>2019-06-10T11:04:57Z</time>
      </trkpt>
      <trkpt lat="40.7324330" lon="-8.3147840">
        <ele>239.7</ele>
        <time>2019-06-10T11:04:59Z</time>
      </trkpt>
      <trkpt lat="40.7324160" lon="-8.3149980">
        <ele>239.8</ele>
        <time>2019-06-10T11:05:02Z</time>
      </trkpt>
      <trkpt lat="40.7324190" lon="-8.3150750">
        <ele>239.9</ele>
        <time>2019-06-10T11:05:03Z</time>
      </trkpt>
      <trkpt lat="40.7324340" lon="-8.3154030">
        <ele>240.1</ele>
        <time>2019-06-10T11:05:07Z</time>
      </trkpt>
      <trkpt lat="40.7324120" lon="-8.3156440">
        <ele>240.4</ele>
        <time>2019-06-10T11:05:09Z</time>
      </trkpt>
      <trkpt lat="40.7324800" lon="-8.3159320">
        <ele>240.9</ele>
        <time>2019-06-10T11:05:13Z</time>
      </trkpt>
      <trkpt lat="40.7326160" lon="-8.3162050">
        <ele>241.5</ele>
        <time>2019-06-10T11:05:18Z</time>
      </trkpt>
      <trkpt lat="40.7328190" lon="-8.3165890">
        <ele>242.4</ele>
        <time>2019-06-10T11:05:26Z</time>
      </trkpt>
      <trkpt lat="40.7329070" lon="-8.3169120">
        <ele>242.8</ele>
        <time>2019-06-10T11:05:33Z</time>
      </trkpt>
      <trkpt lat="40.7330610" lon="-8.3171750">
        <ele>242.6</ele>
        <time>2019-06-10T11:05:40Z</time>
      </trkpt>
      <trkpt lat="40.7332220" lon="-8.3173630">
        <ele>242.6</ele>
        <time>2019-06-10T11:05:46Z</time>
      </trkpt>
      <trkpt lat="40.7334570" lon="-8.3176080">
        <ele>242.7</ele>
        <time>2019-06-10T11:05:52Z</time>
      </trkpt>
      <trkpt lat="40.7334920" lon="-8.3176570">
        <ele>242.7</ele>
        <time>2019-06-10T11:05:53Z</time>
      </trkpt>
      <trkpt lat="40.7336720" lon="-8.3178970">
        <ele>242.6</ele>
        <time>2019-06-10T11:05:58Z</time>
      </trkpt>
      <trkpt lat="40.7337100" lon="-8.3179460">
        <ele>242.5</ele>
        <time>2019-06-10T11:05:59Z</time>
      </trkpt>
      <trkpt lat="40.7339460" lon="-8.3183350">
        <ele>242.1</ele>
        <time>2019-06-10T11:06:06Z</time>
      </trkpt>
      <trkpt lat="40.7340570" lon="-8.3185130">
        <ele>242.1</ele>
        <time>2019-06-10T11:06:10Z</time>
      </trkpt>
      <trkpt lat="40.7341950" lon="-8.3188460">
        <ele>242.1</ele>
        <time>2019-06-10T11:06:17Z</time>
      </trkpt>
      <trkpt lat="40.7343130" lon="-8.3189660">
        <ele>242.2</ele>
        <time>2019-06-10T11:06:19Z</time>
      </trkpt>
      <trkpt lat="40.7344210" lon="-8.3190560">
        <ele>242.2</ele>
        <time>2019-06-10T11:06:21Z</time>
      </trkpt>
      <trkpt lat="40.7346480" lon="-8.3192450">
        <ele>241.8</ele>
        <time>2019-06-10T11:06:25Z</time>
      </trkpt>
      <trkpt lat="40.7347770" lon="-8.3192890">
        <ele>241.6</ele>
        <time>2019-06-10T11:06:27Z</time>
      </trkpt>
      <trkpt lat="40.7349010" lon="-8.3193030">
        <ele>241.5</ele>
        <time>2019-06-10T11:06:29Z</time>
      </trkpt>
      <trkpt lat="40.7350780" lon="-8.3193030">
        <ele>241.5</ele>
        <time>2019-06-10T11:06:32Z</time>
      </trkpt>
      <trkpt lat="40.7351370" lon="-8.3192970">
        <ele>241.5</ele>
        <time>2019-06-10T11:06:33Z</time>
      </trkpt>
      <trkpt lat="40.7353010" lon="-8.3192380">
        <ele>241.6</ele>
        <time>2019-06-10T11:06:36Z</time>
      </trkpt>
      <trkpt lat="40.7353510" lon="-8.3192070">
        <ele>241.6</ele>
        <time>2019-06-10T11:06:37Z</time>
      </trkpt>
      <trkpt lat="40.7355820" lon="-8.3190310">
        <ele>241.6</ele>
        <time>2019-06-10T11:06:42Z</time>
      </trkpt>
      <trkpt lat="40.7360780" lon="-8.3187630">
        <ele>241.3</ele>
        <time>2019-06-10T11:06:52Z</time>
      </trkpt>
      <trkpt lat="40.7363470" lon="-8.3187920">
        <ele>241.2</ele>
        <time>2019-06-10T11:06:57Z</time>
      </trkpt>
      <trkpt lat="40.7364610" lon="-8.3188230">
        <ele>241.2</ele>
        <time>2019-06-10T11:06:59Z</time>
      </trkpt>
      <trkpt lat="40.7366210" lon="-8.3189390">
        <ele>241.2</ele>
        <time>2019-06-10T11:07:02Z</time>
      </trkpt>
      <trkpt lat="40.7367600" lon="-8.3190680">
        <ele>241.1</ele>
        <time>2019-06-10T11:07:05Z</time>
      </trkpt>
      <trkpt lat="40.7368830" lon="-8.3192320">
        <ele>241.0</ele>
        <time>2019-06-10T11:07:08Z</time>
      </trkpt>
      <trkpt lat="40.7370260" lon="-8.3194370">
        <ele>240.8</ele>
        <time>2019-06-10T11:07:12Z</time>
      </trkpt>
      <trkpt lat="40.7370520" lon="-8.3195000">
        <ele>240.7</ele>
        <time>2019-06-10T11:07:13Z</time>
      </trkpt>
      <trkpt lat="40.7370930" lon="-8.3196210">
        <ele>240.6</ele>
        <time>2019-06-10T11:07:15Z</time>
      </trkpt>
      <trkpt lat="40.7371430" lon="-8.3198910">
        <ele>240.2</ele>
        <time>2019-06-10T11:07:19Z</time>
      </trkpt>
      <trkpt lat="40.7371540" lon="-8.3201260">
        <ele>239.8</ele>
        <time>2019-06-10T11:07:22Z</time>
      </trkpt>
      <trkpt lat="40.7371110" lon="-8.3206000">
        <ele>238.7</ele>
        <time>2019-06-10T11:07:29Z</time>
      </trkpt>
      <trkpt lat="40.7371020" lon="-8.3207200">
        <ele>238.4</ele>
        <time>2019-06-10T11:07:31Z</time>
      </trkpt>
      <trkpt lat="40.7370980" lon="-8.3207870">
        <ele>238.2</ele>
        <time>2019-06-10T11:07:32Z</time>
      </trkpt>
      <trkpt lat="40.7370970" lon="-8.3208500">
        <ele>238.0</ele>
        <time>2019-06-10T11:07:33Z</time>
      </trkpt>
      <trkpt lat="40.7370960" lon="-8.3209160">
        <ele>237.8</ele>
        <time>2019-06-10T11:07:34Z</time>
      </trkpt>
      <trkpt lat="40.7370870" lon="-8.3209800">
        <ele>237.6</ele>
        <time>2019-06-10T11:07:35Z</time>
      </trkpt>
      <trkpt lat="40.7370790" lon="-8.3210440">
        <ele>237.5</ele>
        <time>2019-06-10T11:07:36Z</time>
      </trkpt>
      <trkpt lat="40.7370560" lon="-8.3211710">
        <ele>237.3</ele>
        <time>2019-06-10T11:07:38Z</time>
      </trkpt>
      <trkpt lat="40.7369930" lon="-8.3213060">
        <ele>237.0</ele>
        <time>2019-06-10T11:07:40Z</time>
      </trkpt>
      <trkpt lat="40.7369490" lon="-8.3213840">
        <ele>236.9</ele>
        <time>2019-06-10T11:07:41Z</time>
      </trkpt>
      <trkpt lat="40.7368990" lon="-8.3214740">
        <ele>236.6</ele>
        <time>2019-06-10T11:07:42Z</time>
      </trkpt>
      <trkpt lat="40.7368600" lon="-8.3215420">
        <ele>236.4</ele>
        <time>2019-06-10T11:07:43Z</time>
      </trkpt>
      <trkpt lat="40.7368240" lon="-8.3216030">
        <ele>236.3</ele>
        <time>2019-06-10T11:07:44Z</time>
      </trkpt>
      <trkpt lat="40.7367790" lon="-8.3216640">
        <ele>236.0</ele>
        <time>2019-06-10T11:07:45Z</time>
      </trkpt>
      <trkpt lat="40.7364990" lon="-8.3219140">
        <ele>234.8</ele>
        <time>2019-06-10T11:07:50Z</time>
      </trkpt>
      <trkpt lat="40.7363950" lon="-8.3220250">
        <ele>234.4</ele>
        <time>2019-06-10T11:07:52Z</time>
      </trkpt>
      <trkpt lat="40.7363460" lon="-8.3220940">
        <ele>234.1</ele>
        <time>2019-06-10T11:07:53Z</time>
      </trkpt>
      <trkpt lat="40.7363120" lon="-8.3221680">
        <ele>233.9</ele>
        <time>2019-06-10T11:07:54Z</time>
      </trkpt>
      <trkpt lat="40.7362810" lon="-8.3222580">
        <ele>233.5</ele>
        <time>2019-06-10T11:07:55Z</time>
      </trkpt>
      <trkpt lat="40.7362520" lon="-8.3223470">
        <ele>233.2</ele>
        <time>2019-06-10T11:07:56Z</time>
      </trkpt>
      <trkpt lat="40.7361710" lon="-8.3225750">
        <ele>232.6</ele>
        <time>2019-06-10T11:07:59Z</time>
      </trkpt>
      <trkpt lat="40.7359820" lon="-8.3228590">
        <ele>231.8</ele>
        <time>2019-06-10T11:08:03Z</time>
      </trkpt>
      <trkpt lat="40.7359450" lon="-8.3229330">
        <ele>231.7</ele>
        <time>2019-06-10T11:08:04Z</time>
      </trkpt>
      <trkpt lat="40.7358950" lon="-8.3230010">
        <ele>231.5</ele>
        <time>2019-06-10T11:08:05Z</time>
      </trkpt>
      <trkpt lat="40.7358420" lon="-8.3230580">
        <ele>231.3</ele>
        <time>2019-06-10T11:08:06Z</time>
      </trkpt>
      <trkpt lat="40.7357950" lon="-8.3231320">
        <ele>231.1</ele>
        <time>2019-06-10T11:08:07Z</time>
      </trkpt>
      <trkpt lat="40.7357140" lon="-8.3232940">
        <ele>230.7</ele>
        <time>2019-06-10T11:08:09Z</time>
      </trkpt>
      <trkpt lat="40.7354850" lon="-8.3238430">
        <ele>229.6</ele>
        <time>2019-06-10T11:08:15Z</time>
      </trkpt>
      <trkpt lat="40.7354540" lon="-8.3239230">
        <ele>229.2</ele>
        <time>2019-06-10T11:08:16Z</time>
      </trkpt>
      <trkpt lat="40.7354240" lon="-8.3240000">
        <ele>229.0</ele>
        <time>2019-06-10T11:08:17Z</time>
      </trkpt>
      <trkpt lat="40.7353860" lon="-8.3240800">
        <ele>228.8</ele>
        <time>2019-06-10T11:08:18Z</time>
      </trkpt>
      <trkpt lat="40.7353420" lon="-8.3241660">
        <ele>228.6</ele>
        <time>2019-06-10T11:08:19Z</time>
      </trkpt>
      <trkpt lat="40.7353050" lon="-8.3242200">
        <ele>228.3</ele>
        <time>2019-06-10T11:08:20Z</time>
      </trkpt>
      <trkpt lat="40.7352690" lon="-8.3242720">
        <ele>228.0</ele>
        <time>2019-06-10T11:08:21Z</time>
      </trkpt>
      <trkpt lat="40.7349900" lon="-8.3246320">
        <ele>226.3</ele>
        <time>2019-06-10T11:08:26Z</time>
      </trkpt>
      <trkpt lat="40.7349350" lon="-8.3247070">
        <ele>226.0</ele>
        <time>2019-06-10T11:08:27Z</time>
      </trkpt>
      <trkpt lat="40.7348820" lon="-8.3247760">
        <ele>225.8</ele>
        <time>2019-06-10T11:08:28Z</time>
      </trkpt>
      <trkpt lat="40.7348310" lon="-8.3248510">
        <ele>225.6</ele>
        <time>2019-06-10T11:08:29Z</time>
      </trkpt>
      <trkpt lat="40.7347860" lon="-8.3249280">
        <ele>225.4</ele>
        <time>2019-06-10T11:08:30Z</time>
      </trkpt>
      <trkpt lat="40.7347420" lon="-8.3250100">
        <ele>225.2</ele>
        <time>2019-06-10T11:08:31Z</time>
      </trkpt>
      <trkpt lat="40.7346060" lon="-8.3252270">
        <ele>224.8</ele>
        <time>2019-06-10T11:08:34Z</time>
      </trkpt>
      <trkpt lat="40.7345590" lon="-8.3253110">
        <ele>224.6</ele>
        <time>2019-06-10T11:08:35Z</time>
      </trkpt>
      <trkpt lat="40.7345150" lon="-8.3254160">
        <ele>224.4</ele>
        <time>2019-06-10T11:08:36Z</time>
      </trkpt>
      <trkpt lat="40.7344780" lon="-8.3255080">
        <ele>224.2</ele>
        <time>2019-06-10T11:08:37Z</time>
      </trkpt>
      <trkpt lat="40.7344500" lon="-8.3256090">
        <ele>223.9</ele>
        <time>2019-06-10T11:08:38Z</time>
      </trkpt>
      <trkpt lat="40.7342950" lon="-8.3261620">
        <ele>222.8</ele>
        <time>2019-06-10T11:08:44Z</time>
      </trkpt>
      <trkpt lat="40.7342220" lon="-8.3263220">
        <ele>222.3</ele>
        <time>2019-06-10T11:08:46Z</time>
      </trkpt>
      <trkpt lat="40.7341850" lon="-8.3264050">
        <ele>222.0</ele>
        <time>2019-06-10T11:08:47Z</time>
      </trkpt>
      <trkpt lat="40.7341290" lon="-8.3264860">
        <ele>221.6</ele>
        <time>2019-06-10T11:08:48Z</time>
      </trkpt>
      <trkpt lat="40.7340800" lon="-8.3265790">
        <ele>221.3</ele>
        <time>2019-06-10T11:08:49Z</time>
      </trkpt>
      <trkpt lat="40.7340330" lon="-8.3266580">
        <ele>221.1</ele>
        <time>2019-06-10T11:08:50Z</time>
      </trkpt>
      <trkpt lat="40.7339360" lon="-8.3269150">
        <ele>220.4</ele>
        <time>2019-06-10T11:08:53Z</time>
      </trkpt>
      <trkpt lat="40.7339150" lon="-8.3270130">
        <ele>220.2</ele>
        <time>2019-06-10T11:08:54Z</time>
      </trkpt>
      <trkpt lat="40.7338980" lon="-8.3271090">
        <ele>220.0</ele>
        <time>2019-06-10T11:08:55Z</time>
      </trkpt>
      <trkpt lat="40.7338860" lon="-8.3271990">
        <ele>219.8</ele>
        <time>2019-06-10T11:08:56Z</time>
      </trkpt>
      <trkpt lat="40.7338750" lon="-8.3272950">
        <ele>219.6</ele>
        <time>2019-06-10T11:08:57Z</time>
      </trkpt>
      <trkpt lat="40.7338700" lon="-8.3273900">
        <ele>219.4</ele>
        <time>2019-06-10T11:08:58Z</time>
      </trkpt>
      <trkpt lat="40.7338610" lon="-8.3275640">
        <ele>219.2</ele>
        <time>2019-06-10T11:09:00Z</time>
      </trkpt>
      <trkpt lat="40.7338630" lon="-8.3277690">
        <ele>218.9</ele>
        <time>2019-06-10T11:09:02Z</time>
      </trkpt>
      <trkpt lat="40.7338590" lon="-8.3280290">
        <ele>217.5</ele>
        <time>2019-06-10T11:09:05Z</time>
      </trkpt>
      <trkpt lat="40.7338580" lon="-8.3281370">
        <ele>217.1</ele>
        <time>2019-06-10T11:09:06Z</time>
      </trkpt>
      <trkpt lat="40.7338530" lon="-8.3282310">
        <ele>216.7</ele>
        <time>2019-06-10T11:09:07Z</time>
      </trkpt>
      <trkpt lat="40.7338410" lon="-8.3283180">
        <ele>216.4</ele>
        <time>2019-06-10T11:09:08Z</time>
      </trkpt>
      <trkpt lat="40.7338230" lon="-8.3284070">
        <ele>216.2</ele>
        <time>2019-06-10T11:09:09Z</time>
      </trkpt>
      <trkpt lat="40.7338170" lon="-8.3284770">
        <ele>216.1</ele>
        <time>2019-06-10T11:09:10Z</time>
      </trkpt>
      <trkpt lat="40.7337970" lon="-8.3285560">
        <ele>216.0</ele>
        <time>2019-06-10T11:09:11Z</time>
      </trkpt>
      <trkpt lat="40.7336780" lon="-8.3288810">
        <ele>215.2</ele>
        <time>2019-06-10T11:09:15Z</time>
      </trkpt>
      <trkpt lat="40.7335420" lon="-8.3291720">
        <ele>214.1</ele>
        <time>2019-06-10T11:09:18Z</time>
      </trkpt>
      <trkpt lat="40.7334990" lon="-8.3292400">
        <ele>213.9</ele>
        <time>2019-06-10T11:09:19Z</time>
      </trkpt>
      <trkpt lat="40.7334530" lon="-8.3293060">
        <ele>213.7</ele>
        <time>2019-06-10T11:09:20Z</time>
      </trkpt>
      <trkpt lat="40.7333980" lon="-8.3293660">
        <ele>213.5</ele>
        <time>2019-06-10T11:09:21Z</time>
      </trkpt>
      <trkpt lat="40.7333430" lon="-8.3294290">
        <ele>213.3</ele>
        <time>2019-06-10T11:09:22Z</time>
      </trkpt>
      <trkpt lat="40.7331140" lon="-8.3296680">
        <ele>212.6</ele>
        <time>2019-06-10T11:09:26Z</time>
      </trkpt>
      <trkpt lat="40.7329930" lon="-8.3297950">
        <ele>212.0</ele>
        <time>2019-06-10T11:09:28Z</time>
      </trkpt>
      <trkpt lat="40.7329290" lon="-8.3298610">
        <ele>211.6</ele>
        <time>2019-06-10T11:09:29Z</time>
      </trkpt>
      <trkpt lat="40.7328600" lon="-8.3299240">
        <ele>211.2</ele>
        <time>2019-06-10T11:09:30Z</time>
      </trkpt>
      <trkpt lat="40.7327950" lon="-8.3299920">
        <ele>210.7</ele>
        <time>2019-06-10T11:09:31Z</time>
      </trkpt>
      <trkpt lat="40.7327350" lon="-8.3300620">
        <ele>210.4</ele>
        <time>2019-06-10T11:09:32Z</time>
      </trkpt>
      <trkpt lat="40.7326720" lon="-8.3301430">
        <ele>210.1</ele>
        <time>2019-06-10T11:09:33Z</time>
      </trkpt>
      <trkpt lat="40.7326090" lon="-8.3302230">
        <ele>209.8</ele>
        <time>2019-06-10T11:09:34Z</time>
      </trkpt>
      <trkpt lat="40.7325560" lon="-8.3302920">
        <ele>209.6</ele>
        <time>2019-06-10T11:09:35Z</time>
      </trkpt>
      <trkpt lat="40.7325020" lon="-8.3303540">
        <ele>209.4</ele>
        <time>2019-06-10T11:09:36Z</time>
      </trkpt>
      <trkpt lat="40.7324460" lon="-8.3304170">
        <ele>209.2</ele>
        <time>2019-06-10T11:09:37Z</time>
      </trkpt>
      <trkpt lat="40.7323890" lon="-8.3304730">
        <ele>209.0</ele>
        <time>2019-06-10T11:09:38Z</time>
      </trkpt>
      <trkpt lat="40.7323310" lon="-8.3305330">
        <ele>208.8</ele>
        <time>2019-06-10T11:09:39Z</time>
      </trkpt>
      <trkpt lat="40.7319510" lon="-8.3309120">
        <ele>207.3</ele>
        <time>2019-06-10T11:09:46Z</time>
      </trkpt>
      <trkpt lat="40.7318930" lon="-8.3309470">
        <ele>207.2</ele>
        <time>2019-06-10T11:09:47Z</time>
      </trkpt>
      <trkpt lat="40.7318360" lon="-8.3309810">
        <ele>207.1</ele>
        <time>2019-06-10T11:09:48Z</time>
      </trkpt>
      <trkpt lat="40.7317740" lon="-8.3310150">
        <ele>206.9</ele>
        <time>2019-06-10T11:09:49Z</time>
      </trkpt>
      <trkpt lat="40.7317150" lon="-8.3310470">
        <ele>206.7</ele>
        <time>2019-06-10T11:09:50Z</time>
      </trkpt>
      <trkpt lat="40.7316550" lon="-8.3310770">
        <ele>206.5</ele>
        <time>2019-06-10T11:09:51Z</time>
      </trkpt>
      <trkpt lat="40.7312810" lon="-8.3312570">
        <ele>204.7</ele>
        <time>2019-06-10T11:09:57Z</time>
      </trkpt>
      <trkpt lat="40.7310920" lon="-8.3313770">
        <ele>204.1</ele>
        <time>2019-06-10T11:10:00Z</time>
      </trkpt>
      <trkpt lat="40.7310330" lon="-8.3314240">
        <ele>204.0</ele>
        <time>2019-06-10T11:10:01Z</time>
      </trkpt>
      <trkpt lat="40.7309740" lon="-8.3314950">
        <ele>203.9</ele>
        <time>2019-06-10T11:10:02Z</time>
      </trkpt>
      <trkpt lat="40.7309150" lon="-8.3315750">
        <ele>203.6</ele>
        <time>2019-06-10T11:10:03Z</time>
      </trkpt>
      <trkpt lat="40.7308680" lon="-8.3316590">
        <ele>203.3</ele>
        <time>2019-06-10T11:10:04Z</time>
      </trkpt>
      <trkpt lat="40.7308200" lon="-8.3317540">
        <ele>203.0</ele>
        <time>2019-06-10T11:10:05Z</time>
      </trkpt>
      <trkpt lat="40.7307750" lon="-8.3318430">
        <ele>202.7</ele>
        <time>2019-06-10T11:10:06Z</time>
      </trkpt>
      <trkpt lat="40.7305050" lon="-8.3322940">
        <ele>201.8</ele>
        <time>2019-06-10T11:10:11Z</time>
      </trkpt>
      <trkpt lat="40.7304480" lon="-8.3323750">
        <ele>201.5</ele>
        <time>2019-06-10T11:10:12Z</time>
      </trkpt>
      <trkpt lat="40.7303930" lon="-8.3324620">
        <ele>201.2</ele>
        <time>2019-06-10T11:10:13Z</time>
      </trkpt>
      <trkpt lat="40.7303300" lon="-8.3325440">
        <ele>201.0</ele>
        <time>2019-06-10T11:10:14Z</time>
      </trkpt>
      <trkpt lat="40.7302590" lon="-8.3325970">
        <ele>200.8</ele>
        <time>2019-06-10T11:10:15Z</time>
      </trkpt>
      <trkpt lat="40.7301000" lon="-8.3326840">
        <ele>200.3</ele>
        <time>2019-06-10T11:10:17Z</time>
      </trkpt>
      <trkpt lat="40.7297470" lon="-8.3327420">
        <ele>197.4</ele>
        <time>2019-06-10T11:10:21Z</time>
      </trkpt>
      <trkpt lat="40.7296480" lon="-8.3327280">
        <ele>195.9</ele>
        <time>2019-06-10T11:10:22Z</time>
      </trkpt>
      <trkpt lat="40.7295330" lon="-8.3327020">
        <ele>194.6</ele>
        <time>2019-06-10T11:10:23Z</time>
      </trkpt>
      <trkpt lat="40.7294380" lon="-8.3326660">
        <ele>194.1</ele>
        <time>2019-06-10T11:10:24Z</time>
      </trkpt>
      <trkpt lat="40.7293530" lon="-8.3326400">
        <ele>193.6</ele>
        <time>2019-06-10T11:10:25Z</time>
      </trkpt>
      <trkpt lat="40.7292780" lon="-8.3326190">
        <ele>193.2</ele>
        <time>2019-06-10T11:10:26Z</time>
      </trkpt>
      <trkpt lat="40.7292020" lon="-8.3325950">
        <ele>192.8</ele>
        <time>2019-06-10T11:10:27Z</time>
      </trkpt>
      <trkpt lat="40.7286270" lon="-8.3324540">
        <ele>189.5</ele>
        <time>2019-06-10T11:10:35Z</time>
      </trkpt>
      <trkpt lat="40.7285520" lon="-8.3324700">
        <ele>189.2</ele>
        <time>2019-06-10T11:10:36Z</time>
      </trkpt>
      <trkpt lat="40.7284810" lon="-8.3324830">
        <ele>188.9</ele>
        <time>2019-06-10T11:10:37Z</time>
      </trkpt>
      <trkpt lat="40.7284090" lon="-8.3325060">
        <ele>188.7</ele>
        <time>2019-06-10T11:10:38Z</time>
      </trkpt>
      <trkpt lat="40.7283350" lon="-8.3325380">
        <ele>188.4</ele>
        <time>2019-06-10T11:10:39Z</time>
      </trkpt>
      <trkpt lat="40.7282650" lon="-8.3325690">
        <ele>188.2</ele>
        <time>2019-06-10T11:10:40Z</time>
      </trkpt>
      <trkpt lat="40.7282020" lon="-8.3326160">
        <ele>188.0</ele>
        <time>2019-06-10T11:10:41Z</time>
      </trkpt>
      <trkpt lat="40.7280850" lon="-8.3327210">
        <ele>187.6</ele>
        <time>2019-06-10T11:10:43Z</time>
      </trkpt>
      <trkpt lat="40.7276630" lon="-8.3331480">
        <ele>186.4</ele>
        <time>2019-06-10T11:10:50Z</time>
      </trkpt>
      <trkpt lat="40.7275240" lon="-8.3332600">
        <ele>186.0</ele>
        <time>2019-06-10T11:10:52Z</time>
      </trkpt>
      <trkpt lat="40.7273750" lon="-8.3333500">
        <ele>185.6</ele>
        <time>2019-06-10T11:10:54Z</time>
      </trkpt>
      <trkpt lat="40.7273010" lon="-8.3333850">
        <ele>185.5</ele>
        <time>2019-06-10T11:10:55Z</time>
      </trkpt>
      <trkpt lat="40.7272290" lon="-8.3334160">
        <ele>185.3</ele>
        <time>2019-06-10T11:10:56Z</time>
      </trkpt>
      <trkpt lat="40.7271550" lon="-8.3334520">
        <ele>185.1</ele>
        <time>2019-06-10T11:10:57Z</time>
      </trkpt>
      <trkpt lat="40.7270810" lon="-8.3334900">
        <ele>185.0</ele>
        <time>2019-06-10T11:10:58Z</time>
      </trkpt>
      <trkpt lat="40.7270060" lon="-8.3335250">
        <ele>184.8</ele>
        <time>2019-06-10T11:10:59Z</time>
      </trkpt>
      <trkpt lat="40.7269260" lon="-8.3335560">
        <ele>184.6</ele>
        <time>2019-06-10T11:11:00Z</time>
      </trkpt>
      <trkpt lat="40.7268490" lon="-8.3335880">
        <ele>184.4</ele>
        <time>2019-06-10T11:11:01Z</time>
      </trkpt>
      <trkpt lat="40.7263020" lon="-8.3337980">
        <ele>183.1</ele>
        <time>2019-06-10T11:11:08Z</time>
      </trkpt>
      <trkpt lat="40.7262190" lon="-8.3338300">
        <ele>182.9</ele>
        <time>2019-06-10T11:11:09Z</time>
      </trkpt>
      <trkpt lat="40.7261280" lon="-8.3338560">
        <ele>182.6</ele>
        <time>2019-06-10T11:11:10Z</time>
      </trkpt>
      <trkpt lat="40.7260280" lon="-8.3338730">
        <ele>182.4</ele>
        <time>2019-06-10T11:11:11Z</time>
      </trkpt>
      <trkpt lat="40.7259210" lon="-8.3338830">
        <ele>182.1</ele>
        <time>2019-06-10T11:11:12Z</time>
      </trkpt>
      <trkpt lat="40.7257060" lon="-8.3338800">
        <ele>181.6</ele>
        <time>2019-06-10T11:11:14Z</time>
      </trkpt>
      <trkpt lat="40.7253920" lon="-8.3338820">
        <ele>180.8</ele>
        <time>2019-06-10T11:11:17Z</time>
      </trkpt>
      <trkpt lat="40.7252940" lon="-8.3338940">
        <ele>180.6</ele>
        <time>2019-06-10T11:11:18Z</time>
      </trkpt>
      <trkpt lat="40.7251940" lon="-8.3339140">
        <ele>180.3</ele>
        <time>2019-06-10T11:11:19Z</time>
      </trkpt>
      <trkpt lat="40.7250940" lon="-8.3339600">
        <ele>180.1</ele>
        <time>2019-06-10T11:11:20Z</time>
      </trkpt>
      <trkpt lat="40.7249950" lon="-8.3340080">
        <ele>179.8</ele>
        <time>2019-06-10T11:11:21Z</time>
      </trkpt>
      <trkpt lat="40.7247410" lon="-8.3342140">
        <ele>179.1</ele>
        <time>2019-06-10T11:11:24Z</time>
      </trkpt>
      <trkpt lat="40.7246730" lon="-8.3342940">
        <ele>178.8</ele>
        <time>2019-06-10T11:11:25Z</time>
      </trkpt>
      <trkpt lat="40.7246100" lon="-8.3343880">
        <ele>178.6</ele>
        <time>2019-06-10T11:11:26Z</time>
      </trkpt>
      <trkpt lat="40.7245500" lon="-8.3344980">
        <ele>178.3</ele>
        <time>2019-06-10T11:11:27Z</time>
      </trkpt>
      <trkpt lat="40.7244880" lon="-8.3346060">
        <ele>178.0</ele>
        <time>2019-06-10T11:11:28Z</time>
      </trkpt>
      <trkpt lat="40.7244230" lon="-8.3347100">
        <ele>177.7</ele>
        <time>2019-06-10T11:11:29Z</time>
      </trkpt>
      <trkpt lat="40.7241490" lon="-8.3350880">
        <ele>176.7</ele>
        <time>2019-06-10T11:11:33Z</time>
      </trkpt>
      <trkpt lat="40.7238540" lon="-8.3353210">
        <ele>175.7</ele>
        <time>2019-06-10T11:11:37Z</time>
      </trkpt>
      <trkpt lat="40.7237810" lon="-8.3353520">
        <ele>175.5</ele>
        <time>2019-06-10T11:11:38Z</time>
      </trkpt>
      <trkpt lat="40.7235600" lon="-8.3354100">
        <ele>174.7</ele>
        <time>2019-06-10T11:11:41Z</time>
      </trkpt>
      <trkpt lat="40.7235100" lon="-8.3354270">
        <ele>174.6</ele>
        <time>2019-06-10T11:11:42Z</time>
      </trkpt>
      <trkpt lat="40.7233460" lon="-8.3354050">
        <ele>174.5</ele>
        <time>2019-06-10T11:11:45Z</time>
      </trkpt>
      <trkpt lat="40.7231730" lon="-8.3353660">
        <ele>173.7</ele>
        <time>2019-06-10T11:11:47Z</time>
      </trkpt>
      <trkpt lat="40.7230760" lon="-8.3353550">
        <ele>173.1</ele>
        <time>2019-06-10T11:11:48Z</time>
      </trkpt>
      <trkpt lat="40.7229710" lon="-8.3353410">
        <ele>172.4</ele>
        <time>2019-06-10T11:11:49Z</time>
      </trkpt>
      <trkpt lat="40.7228730" lon="-8.3353300">
        <ele>171.8</ele>
        <time>2019-06-10T11:11:50Z</time>
      </trkpt>
      <trkpt lat="40.7227740" lon="-8.3353320">
        <ele>171.2</ele>
        <time>2019-06-10T11:11:51Z</time>
      </trkpt>
      <trkpt lat="40.7226760" lon="-8.3353410">
        <ele>170.8</ele>
        <time>2019-06-10T11:11:52Z</time>
      </trkpt>
      <trkpt lat="40.7225860" lon="-8.3353580">
        <ele>170.5</ele>
        <time>2019-06-10T11:11:53Z</time>
      </trkpt>
      <trkpt lat="40.7223350" lon="-8.3354990">
        <ele>170.2</ele>
        <time>2019-06-10T11:11:56Z</time>
      </trkpt>
      <trkpt lat="40.7222590" lon="-8.3355590">
        <ele>170.2</ele>
        <time>2019-06-10T11:11:57Z</time>
      </trkpt>
      <trkpt lat="40.7221850" lon="-8.3356230">
        <ele>170.2</ele>
        <time>2019-06-10T11:11:58Z</time>
      </trkpt>
      <trkpt lat="40.7221200" lon="-8.3356860">
        <ele>170.3</ele>
        <time>2019-06-10T11:11:59Z</time>
      </trkpt>
      <trkpt lat="40.7220570" lon="-8.3357550">
        <ele>170.4</ele>
        <time>2019-06-10T11:12:00Z</time>
      </trkpt>
      <trkpt lat="40.7219970" lon="-8.3358290">
        <ele>170.4</ele>
        <time>2019-06-10T11:12:01Z</time>
      </trkpt>
      <trkpt lat="40.7219390" lon="-8.3359090">
        <ele>170.4</ele>
        <time>2019-06-10T11:12:02Z</time>
      </trkpt>
      <trkpt lat="40.7216770" lon="-8.3362480">
        <ele>170.4</ele>
        <time>2019-06-10T11:12:07Z</time>
      </trkpt>
      <trkpt lat="40.7215720" lon="-8.3363430">
        <ele>170.4</ele>
        <time>2019-06-10T11:12:10Z</time>
      </trkpt>
      <trkpt lat="40.7215280" lon="-8.3363720">
        <ele>170.4</ele>
        <time>2019-06-10T11:12:14Z</time>
      </trkpt>
      <trkpt lat="40.7215300" lon="-8.3363670">
        <ele>170.4</ele>
        <time>2019-06-10T11:12:15Z</time>
      </trkpt>
      <trkpt lat="40.7215260" lon="-8.3363590">
        <ele>170.4</ele>
        <time>2019-06-10T11:13:34Z</time>
      </trkpt>
      <trkpt lat="40.7215450" lon="-8.3363370">
        <ele>170.4</ele>
        <time>2019-06-10T11:13:36Z</time>
      </trkpt>
      <trkpt lat="40.7215670" lon="-8.3363160">
        <ele>170.5</ele>
        <time>2019-06-10T11:13:37Z</time>
      </trkpt>
      <trkpt lat="40.7216950" lon="-8.3360680">
        <ele>170.7</ele>
        <time>2019-06-10T11:13:46Z</time>
      </trkpt>
      <trkpt lat="40.7217190" lon="-8.3360580">
        <ele>170.7</ele>
        <time>2019-06-10T11:13:49Z</time>
      </trkpt>
      <trkpt lat="40.7217190" lon="-8.3360310">
        <ele>170.7</ele>
        <time>2019-06-10T11:13:52Z</time>
      </trkpt>
      <trkpt lat="40.7217190" lon="-8.3360220">
        <ele>170.7</ele>
        <time>2019-06-10T11:13:53Z</time>
      </trkpt>
      <trkpt lat="40.7217210" lon="-8.3360210">
        <ele>170.7</ele>
        <time>2019-06-10T11:13:54Z</time>
      </trkpt>
      <trkpt lat="40.7217280" lon="-8.3360250">
        <ele>170.7</ele>
        <time>2019-06-10T11:15:03Z</time>
      </trkpt>
      <trkpt lat="40.7216990" lon="-8.3360720">
        <ele>170.8</ele>
        <time>2019-06-10T11:15:06Z</time>
      </trkpt>
      <trkpt lat="40.7215920" lon="-8.3362290">
        <ele>170.9</ele>
        <time>2019-06-10T11:15:11Z</time>
      </trkpt>
      <trkpt lat="40.7214250" lon="-8.3364390">
        <ele>171.2</ele>
        <time>2019-06-10T11:15:18Z</time>
      </trkpt>
      <trkpt lat="40.7212430" lon="-8.3366460">
        <ele>171.5</ele>
        <time>2019-06-10T11:15:26Z</time>
      </trkpt>
      <trkpt lat="40.7210450" lon="-8.3367640">
        <ele>171.6</ele>
        <time>2019-06-10T11:15:33Z</time>
      </trkpt>
      <trkpt lat="40.7208460" lon="-8.3368290">
        <ele>171.3</ele>
        <time>2019-06-10T11:15:39Z</time>
      </trkpt>
      <trkpt lat="40.7205660" lon="-8.3368340">
        <ele>170.6</ele>
        <time>2019-06-10T11:15:46Z</time>
      </trkpt>
      <trkpt lat="40.7202670" lon="-8.3368270">
        <ele>169.9</ele>
        <time>2019-06-10T11:15:52Z</time>
      </trkpt>
      <trkpt lat="40.7202160" lon="-8.3368350">
        <ele>169.8</ele>
        <time>2019-06-10T11:15:53Z</time>
      </trkpt>
      <trkpt lat="40.7201590" lon="-8.3368450">
        <ele>169.8</ele>
        <time>2019-06-10T11:15:54Z</time>
      </trkpt>
      <trkpt lat="40.7201040" lon="-8.3368570">
        <ele>169.7</ele>
        <time>2019-06-10T11:15:55Z</time>
      </trkpt>
      <trkpt lat="40.7200630" lon="-8.3368970">
        <ele>169.7</ele>
        <time>2019-06-10T11:15:56Z</time>
      </trkpt>
      <trkpt lat="40.7200230" lon="-8.3369140">
        <ele>169.6</ele>
        <time>2019-06-10T11:15:57Z</time>
      </trkpt>
      <trkpt lat="40.7199720" lon="-8.3369320">
        <ele>169.6</ele>
        <time>2019-06-10T11:15:58Z</time>
      </trkpt>
      <trkpt lat="40.7199350" lon="-8.3369620">
        <ele>169.5</ele>
        <time>2019-06-10T11:15:59Z</time>
      </trkpt>
      <trkpt lat="40.7197950" lon="-8.3370820">
        <ele>169.3</ele>
        <time>2019-06-10T11:16:02Z</time>
      </trkpt>
      <trkpt lat="40.7197470" lon="-8.3371380">
        <ele>169.2</ele>
        <time>2019-06-10T11:16:03Z</time>
      </trkpt>
      <trkpt lat="40.7196200" lon="-8.3373290">
        <ele>168.7</ele>
        <time>2019-06-10T11:16:06Z</time>
      </trkpt>
      <trkpt lat="40.7195840" lon="-8.3374080">
        <ele>168.5</ele>
        <time>2019-06-10T11:16:07Z</time>
      </trkpt>
      <trkpt lat="40.7195560" lon="-8.3374860">
        <ele>168.4</ele>
        <time>2019-06-10T11:16:08Z</time>
      </trkpt>
      <trkpt lat="40.7195270" lon="-8.3375730">
        <ele>168.2</ele>
        <time>2019-06-10T11:16:09Z</time>
      </trkpt>
      <trkpt lat="40.7194840" lon="-8.3376620">
        <ele>168.0</ele>
        <time>2019-06-10T11:16:10Z</time>
      </trkpt>
      <trkpt lat="40.7194440" lon="-8.3377500">
        <ele>167.8</ele>
        <time>2019-06-10T11:16:11Z</time>
      </trkpt>
      <trkpt lat="40.7193620" lon="-8.3379100">
        <ele>167.5</ele>
        <time>2019-06-10T11:16:13Z</time>
      </trkpt>
      <trkpt lat="40.7191770" lon="-8.3381800">
        <ele>166.9</ele>
        <time>2019-06-10T11:16:16Z</time>
      </trkpt>
      <trkpt lat="40.7191150" lon="-8.3382800">
        <ele>166.7</ele>
        <time>2019-06-10T11:16:17Z</time>
      </trkpt>
      <trkpt lat="40.7190400" lon="-8.3383750">
        <ele>166.6</ele>
        <time>2019-06-10T11:16:18Z</time>
      </trkpt>
      <trkpt lat="40.7189610" lon="-8.3384620">
        <ele>166.6</ele>
        <time>2019-06-10T11:16:19Z</time>
      </trkpt>
      <trkpt lat="40.7188760" lon="-8.3385480">
        <ele>166.5</ele>
        <time>2019-06-10T11:16:20Z</time>
      </trkpt>
      <trkpt lat="40.7187800" lon="-8.3386060">
        <ele>166.5</ele>
        <time>2019-06-10T11:16:21Z</time>
      </trkpt>
      <trkpt lat="40.7186720" lon="-8.3386510">
        <ele>166.4</ele>
        <time>2019-06-10T11:16:22Z</time>
      </trkpt>
      <trkpt lat="40.7184630" lon="-8.3387130">
        <ele>166.3</ele>
        <time>2019-06-10T11:16:24Z</time>
      </trkpt>
      <trkpt lat="40.7183650" lon="-8.3387370">
        <ele>166.2</ele>
        <time>2019-06-10T11:16:25Z</time>
      </trkpt>
      <trkpt lat="40.7182550" lon="-8.3387350">
        <ele>166.1</ele>
        <time>2019-06-10T11:16:26Z</time>
      </trkpt>
      <trkpt lat="40.7181490" lon="-8.3387400">
        <ele>166.0</ele>
        <time>2019-06-10T11:16:27Z</time>
      </trkpt>
      <trkpt lat="40.7180450" lon="-8.3387450">
        <ele>165.8</ele>
        <time>2019-06-10T11:16:28Z</time>
      </trkpt>
      <trkpt lat="40.7178450" lon="-8.3387580">
        <ele>165.4</ele>
        <time>2019-06-10T11:16:30Z</time>
      </trkpt>
      <trkpt lat="40.7177480" lon="-8.3387980">
        <ele>165.2</ele>
        <time>2019-06-10T11:16:31Z</time>
      </trkpt>
      <trkpt lat="40.7176560" lon="-8.3388350">
        <ele>165.0</ele>
        <time>2019-06-10T11:16:32Z</time>
      </trkpt>
      <trkpt lat="40.7175710" lon="-8.3388800">
        <ele>164.7</ele>
        <time>2019-06-10T11:16:33Z</time>
      </trkpt>
      <trkpt lat="40.7174940" lon="-8.3389440">
        <ele>164.5</ele>
        <time>2019-06-10T11:16:34Z</time>
      </trkpt>
      <trkpt lat="40.7174280" lon="-8.3390130">
        <ele>164.3</ele>
        <time>2019-06-10T11:16:35Z</time>
      </trkpt>
      <trkpt lat="40.7173480" lon="-8.3390740">
        <ele>164.1</ele>
        <time>2019-06-10T11:16:36Z</time>
      </trkpt>
      <trkpt lat="40.7170820" lon="-8.3393210">
        <ele>163.5</ele>
        <time>2019-06-10T11:16:39Z</time>
      </trkpt>
      <trkpt lat="40.7169940" lon="-8.3393790">
        <ele>163.3</ele>
        <time>2019-06-10T11:16:40Z</time>
      </trkpt>
      <trkpt lat="40.7169100" lon="-8.3394050">
        <ele>163.1</ele>
        <time>2019-06-10T11:16:41Z</time>
      </trkpt>
      <trkpt lat="40.7168340" lon="-8.3394230">
        <ele>163.0</ele>
        <time>2019-06-10T11:16:42Z</time>
      </trkpt>
      <trkpt lat="40.7167490" lon="-8.3394230">
        <ele>162.8</ele>
        <time>2019-06-10T11:16:43Z</time>
      </trkpt>
      <trkpt lat="40.7164640" lon="-8.3395030">
        <ele>162.2</ele>
        <time>2019-06-10T11:16:46Z</time>
      </trkpt>
      <trkpt lat="40.7163890" lon="-8.3395140">
        <ele>162.0</ele>
        <time>2019-06-10T11:16:47Z</time>
      </trkpt>
      <trkpt lat="40.7163030" lon="-8.3395080">
        <ele>161.8</ele>
        <time>2019-06-10T11:16:48Z</time>
      </trkpt>
      <trkpt lat="40.7162330" lon="-8.3394650">
        <ele>161.7</ele>
        <time>2019-06-10T11:16:49Z</time>
      </trkpt>
      <trkpt lat="40.7161520" lon="-8.3394310">
        <ele>161.4</ele>
        <time>2019-06-10T11:16:50Z</time>
      </trkpt>
      <trkpt lat="40.7160720" lon="-8.3393940">
        <ele>161.2</ele>
        <time>2019-06-10T11:16:51Z</time>
      </trkpt>
      <trkpt lat="40.7158050" lon="-8.3393370">
        <ele>160.2</ele>
        <time>2019-06-10T11:16:54Z</time>
      </trkpt>
      <trkpt lat="40.7157140" lon="-8.3393410">
        <ele>159.9</ele>
        <time>2019-06-10T11:16:55Z</time>
      </trkpt>
      <trkpt lat="40.7156260" lon="-8.3393510">
        <ele>159.6</ele>
        <time>2019-06-10T11:16:56Z</time>
      </trkpt>
      <trkpt lat="40.7155350" lon="-8.3393790">
        <ele>159.2</ele>
        <time>2019-06-10T11:16:57Z</time>
      </trkpt>
      <trkpt lat="40.7154440" lon="-8.3394110">
        <ele>158.9</ele>
        <time>2019-06-10T11:16:58Z</time>
      </trkpt>
      <trkpt lat="40.7153640" lon="-8.3394300">
        <ele>158.7</ele>
        <time>2019-06-10T11:16:59Z</time>
      </trkpt>
      <trkpt lat="40.7152760" lon="-8.3394460">
        <ele>158.4</ele>
        <time>2019-06-10T11:17:00Z</time>
      </trkpt>
      <trkpt lat="40.7150920" lon="-8.3394750">
        <ele>157.8</ele>
        <time>2019-06-10T11:17:02Z</time>
      </trkpt>
      <trkpt lat="40.7150010" lon="-8.3394850">
        <ele>157.5</ele>
        <time>2019-06-10T11:17:03Z</time>
      </trkpt>
      <trkpt lat="40.7149070" lon="-8.3394980">
        <ele>157.2</ele>
        <time>2019-06-10T11:17:04Z</time>
      </trkpt>
      <trkpt lat="40.7148150" lon="-8.3395210">
        <ele>156.8</ele>
        <time>2019-06-10T11:17:05Z</time>
      </trkpt>
      <trkpt lat="40.7147250" lon="-8.3395480">
        <ele>156.4</ele>
        <time>2019-06-10T11:17:06Z</time>
      </trkpt>
      <trkpt lat="40.7143600" lon="-8.3397280">
        <ele>155.1</ele>
        <time>2019-06-10T11:17:10Z</time>
      </trkpt>
      <trkpt lat="40.7142780" lon="-8.3397910">
        <ele>154.8</ele>
        <time>2019-06-10T11:17:11Z</time>
      </trkpt>
      <trkpt lat="40.7141280" lon="-8.3399320">
        <ele>154.1</ele>
        <time>2019-06-10T11:17:13Z</time>
      </trkpt>
      <trkpt lat="40.7140660" lon="-8.3400160">
        <ele>153.8</ele>
        <time>2019-06-10T11:17:14Z</time>
      </trkpt>
      <trkpt lat="40.7140120" lon="-8.3401120">
        <ele>153.5</ele>
        <time>2019-06-10T11:17:15Z</time>
      </trkpt>
      <trkpt lat="40.7139640" lon="-8.3402270">
        <ele>153.1</ele>
        <time>2019-06-10T11:17:16Z</time>
      </trkpt>
      <trkpt lat="40.7139180" lon="-8.3403350">
        <ele>152.8</ele>
        <time>2019-06-10T11:17:17Z</time>
      </trkpt>
      <trkpt lat="40.7138560" lon="-8.3405690">
        <ele>152.1</ele>
        <time>2019-06-10T11:17:19Z</time>
      </trkpt>
      <trkpt lat="40.7138280" lon="-8.3406970">
        <ele>151.7</ele>
        <time>2019-06-10T11:17:20Z</time>
      </trkpt>
      <trkpt lat="40.7138170" lon="-8.3408240">
        <ele>151.4</ele>
        <time>2019-06-10T11:17:21Z</time>
      </trkpt>
      <trkpt lat="40.7138110" lon="-8.3409610">
        <ele>151.0</ele>
        <time>2019-06-10T11:17:22Z</time>
      </trkpt>
      <trkpt lat="40.7138090" lon="-8.3411150">
        <ele>150.5</ele>
        <time>2019-06-10T11:17:23Z</time>
      </trkpt>
      <trkpt lat="40.7138190" lon="-8.3412620">
        <ele>150.1</ele>
        <time>2019-06-10T11:17:24Z</time>
      </trkpt>
      <trkpt lat="40.7138580" lon="-8.3415180">
        <ele>149.4</ele>
        <time>2019-06-10T11:17:26Z</time>
      </trkpt>
      <trkpt lat="40.7140080" lon="-8.3419680">
        <ele>148.2</ele>
        <time>2019-06-10T11:17:30Z</time>
      </trkpt>
      <trkpt lat="40.7141090" lon="-8.3421420">
        <ele>147.8</ele>
        <time>2019-06-10T11:17:32Z</time>
      </trkpt>
      <trkpt lat="40.7142220" lon="-8.3422780">
        <ele>147.6</ele>
        <time>2019-06-10T11:17:34Z</time>
      </trkpt>
      <trkpt lat="40.7145330" lon="-8.3426300">
        <ele>147.1</ele>
        <time>2019-06-10T11:17:40Z</time>
      </trkpt>
      <trkpt lat="40.7147030" lon="-8.3428360">
        <ele>146.5</ele>
        <time>2019-06-10T11:17:43Z</time>
      </trkpt>
      <trkpt lat="40.7147570" lon="-8.3429080">
        <ele>146.3</ele>
        <time>2019-06-10T11:17:44Z</time>
      </trkpt>
      <trkpt lat="40.7148040" lon="-8.3429800">
        <ele>146.1</ele>
        <time>2019-06-10T11:17:45Z</time>
      </trkpt>
      <trkpt lat="40.7148490" lon="-8.3430520">
        <ele>145.9</ele>
        <time>2019-06-10T11:17:46Z</time>
      </trkpt>
      <trkpt lat="40.7148860" lon="-8.3431180">
        <ele>145.6</ele>
        <time>2019-06-10T11:17:47Z</time>
      </trkpt>
      <trkpt lat="40.7149200" lon="-8.3431850">
        <ele>145.3</ele>
        <time>2019-06-10T11:17:48Z</time>
      </trkpt>
      <trkpt lat="40.7149410" lon="-8.3432520">
        <ele>145.0</ele>
        <time>2019-06-10T11:17:49Z</time>
      </trkpt>
      <trkpt lat="40.7149960" lon="-8.3434480">
        <ele>144.0</ele>
        <time>2019-06-10T11:17:52Z</time>
      </trkpt>
      <trkpt lat="40.7150330" lon="-8.3436530">
        <ele>142.6</ele>
        <time>2019-06-10T11:17:55Z</time>
      </trkpt>
      <trkpt lat="40.7150480" lon="-8.3437270">
        <ele>142.1</ele>
        <time>2019-06-10T11:17:56Z</time>
      </trkpt>
      <trkpt lat="40.7150670" lon="-8.3438200">
        <ele>141.6</ele>
        <time>2019-06-10T11:17:57Z</time>
      </trkpt>
      <trkpt lat="40.7150910" lon="-8.3439240">
        <ele>141.0</ele>
        <time>2019-06-10T11:17:58Z</time>
      </trkpt>
      <trkpt lat="40.7151210" lon="-8.3440290">
        <ele>140.4</ele>
        <time>2019-06-10T11:17:59Z</time>
      </trkpt>
      <trkpt lat="40.7151540" lon="-8.3441300">
        <ele>139.9</ele>
        <time>2019-06-10T11:18:00Z</time>
      </trkpt>
      <trkpt lat="40.7151900" lon="-8.3442350">
        <ele>139.4</ele>
        <time>2019-06-10T11:18:01Z</time>
      </trkpt>
      <trkpt lat="40.7152750" lon="-8.3444190">
        <ele>138.6</ele>
        <time>2019-06-10T11:18:03Z</time>
      </trkpt>
      <trkpt lat="40.7153370" lon="-8.3444960">
        <ele>138.2</ele>
        <time>2019-06-10T11:18:04Z</time>
      </trkpt>
      <trkpt lat="40.7155690" lon="-8.3447340">
        <ele>137.4</ele>
        <time>2019-06-10T11:18:08Z</time>
      </trkpt>
      <trkpt lat="40.7156950" lon="-8.3448150">
        <ele>137.4</ele>
        <time>2019-06-10T11:18:10Z</time>
      </trkpt>
      <trkpt lat="40.7158600" lon="-8.3449110">
        <ele>137.8</ele>
        <time>2019-06-10T11:18:13Z</time>
      </trkpt>
      <trkpt lat="40.7159150" lon="-8.3449400">
        <ele>137.9</ele>
        <time>2019-06-10T11:18:14Z</time>
      </trkpt>
      <trkpt lat="40.7159670" lon="-8.3449670">
        <ele>138.2</ele>
        <time>2019-06-10T11:18:15Z</time>
      </trkpt>
      <trkpt lat="40.7160060" lon="-8.3449880">
        <ele>138.4</ele>
        <time>2019-06-10T11:18:16Z</time>
      </trkpt>
      <trkpt lat="40.7160430" lon="-8.3450100">
        <ele>138.6</ele>
        <time>2019-06-10T11:18:17Z</time>
      </trkpt>
      <trkpt lat="40.7160800" lon="-8.3450370">
        <ele>138.7</ele>
        <time>2019-06-10T11:18:18Z</time>
      </trkpt>
      <trkpt lat="40.7161150" lon="-8.3450750">
        <ele>139.0</ele>
        <time>2019-06-10T11:18:19Z</time>
      </trkpt>
      <trkpt lat="40.7162280" lon="-8.3452170">
        <ele>137.2</ele>
        <time>2019-06-10T11:18:22Z</time>
      </trkpt>
      <trkpt lat="40.7163050" lon="-8.3453720">
        <ele>135.7</ele>
        <time>2019-06-10T11:18:24Z</time>
      </trkpt>
      <trkpt lat="40.7163470" lon="-8.3454630">
        <ele>134.8</ele>
        <time>2019-06-10T11:18:25Z</time>
      </trkpt>
      <trkpt lat="40.7163880" lon="-8.3455600">
        <ele>134.1</ele>
        <time>2019-06-10T11:18:26Z</time>
      </trkpt>
      <trkpt lat="40.7164320" lon="-8.3456660">
        <ele>133.4</ele>
        <time>2019-06-10T11:18:27Z</time>
      </trkpt>
      <trkpt lat="40.7164660" lon="-8.3457770">
        <ele>132.9</ele>
        <time>2019-06-10T11:18:28Z</time>
      </trkpt>
      <trkpt lat="40.7164980" lon="-8.3458960">
        <ele>132.5</ele>
        <time>2019-06-10T11:18:29Z</time>
      </trkpt>
      <trkpt lat="40.7165210" lon="-8.3460220">
        <ele>132.2</ele>
        <time>2019-06-10T11:18:30Z</time>
      </trkpt>
      <trkpt lat="40.7165250" lon="-8.3461560">
        <ele>132.0</ele>
        <time>2019-06-10T11:18:31Z</time>
      </trkpt>
      <trkpt lat="40.7165260" lon="-8.3462810">
        <ele>131.7</ele>
        <time>2019-06-10T11:18:32Z</time>
      </trkpt>
      <trkpt lat="40.7165080" lon="-8.3464150">
        <ele>131.3</ele>
        <time>2019-06-10T11:18:33Z</time>
      </trkpt>
      <trkpt lat="40.7164950" lon="-8.3465440">
        <ele>131.1</ele>
        <time>2019-06-10T11:18:34Z</time>
      </trkpt>
      <trkpt lat="40.7164770" lon="-8.3466660">
        <ele>130.9</ele>
        <time>2019-06-10T11:18:35Z</time>
      </trkpt>
      <trkpt lat="40.7164490" lon="-8.3467850">
        <ele>130.7</ele>
        <time>2019-06-10T11:18:36Z</time>
      </trkpt>
      <trkpt lat="40.7164070" lon="-8.3469000">
        <ele>130.5</ele>
        <time>2019-06-10T11:18:37Z</time>
      </trkpt>
      <trkpt lat="40.7163570" lon="-8.3470110">
        <ele>130.4</ele>
        <time>2019-06-10T11:18:38Z</time>
      </trkpt>
      <trkpt lat="40.7161820" lon="-8.3473130">
        <ele>130.1</ele>
        <time>2019-06-10T11:18:41Z</time>
      </trkpt>
      <trkpt lat="40.7161210" lon="-8.3473920">
        <ele>129.9</ele>
        <time>2019-06-10T11:18:42Z</time>
      </trkpt>
      <trkpt lat="40.7160570" lon="-8.3474650">
        <ele>129.7</ele>
        <time>2019-06-10T11:18:43Z</time>
      </trkpt>
      <trkpt lat="40.7159930" lon="-8.3475250">
        <ele>129.6</ele>
        <time>2019-06-10T11:18:44Z</time>
      </trkpt>
      <trkpt lat="40.7159280" lon="-8.3475780">
        <ele>129.5</ele>
        <time>2019-06-10T11:18:45Z</time>
      </trkpt>
      <trkpt lat="40.7157100" lon="-8.3476840">
        <ele>129.2</ele>
        <time>2019-06-10T11:18:48Z</time>
      </trkpt>
      <trkpt lat="40.7156390" lon="-8.3477070">
        <ele>129.1</ele>
        <time>2019-06-10T11:18:49Z</time>
      </trkpt>
      <trkpt lat="40.7155660" lon="-8.3477230">
        <ele>129.0</ele>
        <time>2019-06-10T11:18:50Z</time>
      </trkpt>
      <trkpt lat="40.7153550" lon="-8.3477540">
        <ele>128.5</ele>
        <time>2019-06-10T11:18:53Z</time>
      </trkpt>
      <trkpt lat="40.7152830" lon="-8.3477430">
        <ele>128.3</ele>
        <time>2019-06-10T11:18:54Z</time>
      </trkpt>
      <trkpt lat="40.7152080" lon="-8.3477280">
        <ele>128.1</ele>
        <time>2019-06-10T11:18:55Z</time>
      </trkpt>
      <trkpt lat="40.7151360" lon="-8.3477010">
        <ele>127.9</ele>
        <time>2019-06-10T11:18:56Z</time>
      </trkpt>
      <trkpt lat="40.7150650" lon="-8.3476660">
        <ele>127.8</ele>
        <time>2019-06-10T11:18:57Z</time>
      </trkpt>
      <trkpt lat="40.7149900" lon="-8.3476300">
        <ele>127.7</ele>
        <time>2019-06-10T11:18:58Z</time>
      </trkpt>
      <trkpt lat="40.7149110" lon="-8.3475870">
        <ele>127.6</ele>
        <time>2019-06-10T11:18:59Z</time>
      </trkpt>
      <trkpt lat="40.7146120" lon="-8.3474360">
        <ele>127.0</ele>
        <time>2019-06-10T11:19:03Z</time>
      </trkpt>
      <trkpt lat="40.7145290" lon="-8.3474140">
        <ele>126.9</ele>
        <time>2019-06-10T11:19:04Z</time>
      </trkpt>
      <trkpt lat="40.7144410" lon="-8.3474080">
        <ele>126.6</ele>
        <time>2019-06-10T11:19:05Z</time>
      </trkpt>
      <trkpt lat="40.7143630" lon="-8.3474120">
        <ele>126.4</ele>
        <time>2019-06-10T11:19:06Z</time>
      </trkpt>
      <trkpt lat="40.7142780" lon="-8.3474250">
        <ele>126.2</ele>
        <time>2019-06-10T11:19:07Z</time>
      </trkpt>
      <trkpt lat="40.7141110" lon="-8.3474860">
        <ele>125.7</ele>
        <time>2019-06-10T11:19:09Z</time>
      </trkpt>
      <trkpt lat="40.7140320" lon="-8.3475330">
        <ele>125.5</ele>
        <time>2019-06-10T11:19:10Z</time>
      </trkpt>
      <trkpt lat="40.7139590" lon="-8.3475830">
        <ele>125.3</ele>
        <time>2019-06-10T11:19:11Z</time>
      </trkpt>
      <trkpt lat="40.7138980" lon="-8.3476430">
        <ele>125.1</ele>
        <time>2019-06-10T11:19:12Z</time>
      </trkpt>
      <trkpt lat="40.7138310" lon="-8.3477230">
        <ele>125.0</ele>
        <time>2019-06-10T11:19:13Z</time>
      </trkpt>
      <trkpt lat="40.7136280" lon="-8.3481050">
        <ele>124.5</ele>
        <time>2019-06-10T11:19:17Z</time>
      </trkpt>
      <trkpt lat="40.7135490" lon="-8.3483330">
        <ele>124.2</ele>
        <time>2019-06-10T11:19:19Z</time>
      </trkpt>
      <trkpt lat="40.7134070" lon="-8.3487290">
        <ele>123.6</ele>
        <time>2019-06-10T11:19:23Z</time>
      </trkpt>
      <trkpt lat="40.7133690" lon="-8.3488010">
        <ele>123.4</ele>
        <time>2019-06-10T11:19:24Z</time>
      </trkpt>
      <trkpt lat="40.7132980" lon="-8.3488690">
        <ele>123.1</ele>
        <time>2019-06-10T11:19:25Z</time>
      </trkpt>
      <trkpt lat="40.7132240" lon="-8.3489330">
        <ele>122.9</ele>
        <time>2019-06-10T11:19:26Z</time>
      </trkpt>
      <trkpt lat="40.7131560" lon="-8.3489920">
        <ele>122.7</ele>
        <time>2019-06-10T11:19:27Z</time>
      </trkpt>
      <trkpt lat="40.7130860" lon="-8.3490510">
        <ele>122.5</ele>
        <time>2019-06-10T11:19:28Z</time>
      </trkpt>
      <trkpt lat="40.7128720" lon="-8.3492020">
        <ele>122.0</ele>
        <time>2019-06-10T11:19:31Z</time>
      </trkpt>
      <trkpt lat="40.7127180" lon="-8.3492630">
        <ele>121.7</ele>
        <time>2019-06-10T11:19:33Z</time>
      </trkpt>
      <trkpt lat="40.7125570" lon="-8.3493210">
        <ele>121.4</ele>
        <time>2019-06-10T11:19:35Z</time>
      </trkpt>
      <trkpt lat="40.7124050" lon="-8.3493840">
        <ele>121.1</ele>
        <time>2019-06-10T11:19:37Z</time>
      </trkpt>
      <trkpt lat="40.7123290" lon="-8.3494180">
        <ele>121.0</ele>
        <time>2019-06-10T11:19:38Z</time>
      </trkpt>
      <trkpt lat="40.7120150" lon="-8.3495370">
        <ele>120.6</ele>
        <time>2019-06-10T11:19:42Z</time>
      </trkpt>
      <trkpt lat="40.7119400" lon="-8.3495700">
        <ele>120.4</ele>
        <time>2019-06-10T11:19:43Z</time>
      </trkpt>
      <trkpt lat="40.7118640" lon="-8.3496010">
        <ele>120.3</ele>
        <time>2019-06-10T11:19:44Z</time>
      </trkpt>
      <trkpt lat="40.7117860" lon="-8.3496340">
        <ele>120.0</ele>
        <time>2019-06-10T11:19:45Z</time>
      </trkpt>
      <trkpt lat="40.7117090" lon="-8.3496650">
        <ele>119.8</ele>
        <time>2019-06-10T11:19:46Z</time>
      </trkpt>
      <trkpt lat="40.7113380" lon="-8.3498010">
        <ele>118.8</ele>
        <time>2019-06-10T11:19:51Z</time>
      </trkpt>
      <trkpt lat="40.7111800" lon="-8.3498090">
        <ele>118.5</ele>
        <time>2019-06-10T11:19:53Z</time>
      </trkpt>
      <trkpt lat="40.7110990" lon="-8.3498010">
        <ele>118.4</ele>
        <time>2019-06-10T11:19:54Z</time>
      </trkpt>
      <trkpt lat="40.7108650" lon="-8.3497360">
        <ele>118.1</ele>
        <time>2019-06-10T11:19:57Z</time>
      </trkpt>
      <trkpt lat="40.7107140" lon="-8.3496920">
        <ele>117.8</ele>
        <time>2019-06-10T11:19:59Z</time>
      </trkpt>
      <trkpt lat="40.7105400" lon="-8.3496290">
        <ele>117.4</ele>
        <time>2019-06-10T11:20:01Z</time>
      </trkpt>
      <trkpt lat="40.7104600" lon="-8.3496090">
        <ele>117.2</ele>
        <time>2019-06-10T11:20:02Z</time>
      </trkpt>
      <trkpt lat="40.7103830" lon="-8.3495990">
        <ele>117.0</ele>
        <time>2019-06-10T11:20:03Z</time>
      </trkpt>
      <trkpt lat="40.7103050" lon="-8.3495950">
        <ele>116.7</ele>
        <time>2019-06-10T11:20:04Z</time>
      </trkpt>
      <trkpt lat="40.7100080" lon="-8.3496800">
        <ele>115.9</ele>
        <time>2019-06-10T11:20:08Z</time>
      </trkpt>
      <trkpt lat="40.7098720" lon="-8.3497440">
        <ele>115.6</ele>
        <time>2019-06-10T11:20:10Z</time>
      </trkpt>
      <trkpt lat="40.7098070" lon="-8.3497840">
        <ele>115.4</ele>
        <time>2019-06-10T11:20:11Z</time>
      </trkpt>
      <trkpt lat="40.7097420" lon="-8.3498380">
        <ele>115.2</ele>
        <time>2019-06-10T11:20:12Z</time>
      </trkpt>
      <trkpt lat="40.7096720" lon="-8.3499110">
        <ele>115.0</ele>
        <time>2019-06-10T11:20:13Z</time>
      </trkpt>
      <trkpt lat="40.7096130" lon="-8.3499960">
        <ele>114.7</ele>
        <time>2019-06-10T11:20:14Z</time>
      </trkpt>
      <trkpt lat="40.7094530" lon="-8.3502730">
        <ele>114.3</ele>
        <time>2019-06-10T11:20:17Z</time>
      </trkpt>
      <trkpt lat="40.7092750" lon="-8.3506650">
        <ele>113.8</ele>
        <time>2019-06-10T11:20:21Z</time>
      </trkpt>
      <trkpt lat="40.7092300" lon="-8.3507630">
        <ele>113.7</ele>
        <time>2019-06-10T11:20:22Z</time>
      </trkpt>
      <trkpt lat="40.7091830" lon="-8.3508580">
        <ele>113.5</ele>
        <time>2019-06-10T11:20:23Z</time>
      </trkpt>
      <trkpt lat="40.7091280" lon="-8.3509520">
        <ele>113.3</ele>
        <time>2019-06-10T11:20:24Z</time>
      </trkpt>
      <trkpt lat="40.7090790" lon="-8.3510370">
        <ele>113.1</ele>
        <time>2019-06-10T11:20:25Z</time>
      </trkpt>
      <trkpt lat="40.7090280" lon="-8.3511320">
        <ele>112.8</ele>
        <time>2019-06-10T11:20:26Z</time>
      </trkpt>
      <trkpt lat="40.7089160" lon="-8.3513000">
        <ele>112.4</ele>
        <time>2019-06-10T11:20:28Z</time>
      </trkpt>
      <trkpt lat="40.7087700" lon="-8.3514200">
        <ele>112.2</ele>
        <time>2019-06-10T11:20:30Z</time>
      </trkpt>
      <trkpt lat="40.7086790" lon="-8.3514690">
        <ele>112.1</ele>
        <time>2019-06-10T11:20:31Z</time>
      </trkpt>
      <trkpt lat="40.7085890" lon="-8.3515050">
        <ele>111.8</ele>
        <time>2019-06-10T11:20:32Z</time>
      </trkpt>
      <trkpt lat="40.7085040" lon="-8.3515270">
        <ele>111.6</ele>
        <time>2019-06-10T11:20:33Z</time>
      </trkpt>
      <trkpt lat="40.7084260" lon="-8.3515480">
        <ele>111.4</ele>
        <time>2019-06-10T11:20:34Z</time>
      </trkpt>
      <trkpt lat="40.7082360" lon="-8.3515620">
        <ele>110.9</ele>
        <time>2019-06-10T11:20:36Z</time>
      </trkpt>
      <trkpt lat="40.7078820" lon="-8.3516010">
        <ele>110.0</ele>
        <time>2019-06-10T11:20:40Z</time>
      </trkpt>
      <trkpt lat="40.7077860" lon="-8.3516140">
        <ele>109.8</ele>
        <time>2019-06-10T11:20:41Z</time>
      </trkpt>
      <trkpt lat="40.7076940" lon="-8.3516340">
        <ele>109.6</ele>
        <time>2019-06-10T11:20:42Z</time>
      </trkpt>
      <trkpt lat="40.7076060" lon="-8.3516590">
        <ele>109.5</ele>
        <time>2019-06-10T11:20:43Z</time>
      </trkpt>
      <trkpt lat="40.7075280" lon="-8.3517070">
        <ele>109.3</ele>
        <time>2019-06-10T11:20:44Z</time>
      </trkpt>
      <trkpt lat="40.7073720" lon="-8.3518570">
        <ele>108.9</ele>
        <time>2019-06-10T11:20:46Z</time>
      </trkpt>
      <trkpt lat="40.7072230" lon="-8.3520290">
        <ele>108.6</ele>
        <time>2019-06-10T11:20:48Z</time>
      </trkpt>
      <trkpt lat="40.7071540" lon="-8.3521200">
        <ele>108.4</ele>
        <time>2019-06-10T11:20:49Z</time>
      </trkpt>
      <trkpt lat="40.7070930" lon="-8.3522050">
        <ele>108.1</ele>
        <time>2019-06-10T11:20:50Z</time>
      </trkpt>
      <trkpt lat="40.7070360" lon="-8.3522890">
        <ele>107.9</ele>
        <time>2019-06-10T11:20:51Z</time>
      </trkpt>
      <trkpt lat="40.7069790" lon="-8.3523800">
        <ele>107.6</ele>
        <time>2019-06-10T11:20:52Z</time>
      </trkpt>
      <trkpt lat="40.7067780" lon="-8.3526430">
        <ele>107.1</ele>
        <time>2019-06-10T11:20:55Z</time>
      </trkpt>
      <trkpt lat="40.7067000" lon="-8.3527100">
        <ele>106.9</ele>
        <time>2019-06-10T11:20:56Z</time>
      </trkpt>
      <trkpt lat="40.7066220" lon="-8.3527480">
        <ele>106.8</ele>
        <time>2019-06-10T11:20:57Z</time>
      </trkpt>
      <trkpt lat="40.7065410" lon="-8.3527970">
        <ele>106.6</ele>
        <time>2019-06-10T11:20:58Z</time>
      </trkpt>
      <trkpt lat="40.7064550" lon="-8.3528380">
        <ele>106.5</ele>
        <time>2019-06-10T11:20:59Z</time>
      </trkpt>
      <trkpt lat="40.7063770" lon="-8.3528780">
        <ele>106.3</ele>
        <time>2019-06-10T11:21:00Z</time>
      </trkpt>
      <trkpt lat="40.7063010" lon="-8.3529190">
        <ele>106.1</ele>
        <time>2019-06-10T11:21:01Z</time>
      </trkpt>
      <trkpt lat="40.7062320" lon="-8.3529800">
        <ele>105.9</ele>
        <time>2019-06-10T11:21:02Z</time>
      </trkpt>
      <trkpt lat="40.7060920" lon="-8.3531370">
        <ele>105.5</ele>
        <time>2019-06-10T11:21:04Z</time>
      </trkpt>
      <trkpt lat="40.7060360" lon="-8.3532150">
        <ele>105.3</ele>
        <time>2019-06-10T11:21:05Z</time>
      </trkpt>
      <trkpt lat="40.7059820" lon="-8.3533030">
        <ele>105.2</ele>
        <time>2019-06-10T11:21:06Z</time>
      </trkpt>
      <trkpt lat="40.7059350" lon="-8.3534090">
        <ele>105.0</ele>
        <time>2019-06-10T11:21:07Z</time>
      </trkpt>
      <trkpt lat="40.7059090" lon="-8.3535160">
        <ele>104.9</ele>
        <time>2019-06-10T11:21:08Z</time>
      </trkpt>
      <trkpt lat="40.7058500" lon="-8.3539190">
        <ele>104.3</ele>
        <time>2019-06-10T11:21:11Z</time>
      </trkpt>
      <trkpt lat="40.7058540" lon="-8.3540510">
        <ele>104.2</ele>
        <time>2019-06-10T11:21:12Z</time>
      </trkpt>
      <trkpt lat="40.7058590" lon="-8.3541810">
        <ele>104.1</ele>
        <time>2019-06-10T11:21:13Z</time>
      </trkpt>
      <trkpt lat="40.7058850" lon="-8.3543060">
        <ele>103.9</ele>
        <time>2019-06-10T11:21:14Z</time>
      </trkpt>
      <trkpt lat="40.7059140" lon="-8.3544300">
        <ele>103.7</ele>
        <time>2019-06-10T11:21:15Z</time>
      </trkpt>
      <trkpt lat="40.7059470" lon="-8.3545530">
        <ele>103.5</ele>
        <time>2019-06-10T11:21:16Z</time>
      </trkpt>
      <trkpt lat="40.7059910" lon="-8.3546700">
        <ele>103.2</ele>
        <time>2019-06-10T11:21:17Z</time>
      </trkpt>
      <trkpt lat="40.7061430" lon="-8.3549950">
        <ele>102.7</ele>
        <time>2019-06-10T11:21:20Z</time>
      </trkpt>
      <trkpt lat="40.7063730" lon="-8.3555600">
        <ele>102.2</ele>
        <time>2019-06-10T11:21:25Z</time>
      </trkpt>
      <trkpt lat="40.7064190" lon="-8.3556800">
        <ele>102.0</ele>
        <time>2019-06-10T11:21:26Z</time>
      </trkpt>
      <trkpt lat="40.7064040" lon="-8.3558270">
        <ele>101.9</ele>
        <time>2019-06-10T11:21:27Z</time>
      </trkpt>
      <trkpt lat="40.7063620" lon="-8.3559420">
        <ele>101.7</ele>
        <time>2019-06-10T11:21:28Z</time>
      </trkpt>
      <trkpt lat="40.7062680" lon="-8.3560870">
        <ele>101.4</ele>
        <time>2019-06-10T11:21:29Z</time>
      </trkpt>
      <trkpt lat="40.7062320" lon="-8.3561980">
        <ele>101.3</ele>
        <time>2019-06-10T11:21:30Z</time>
      </trkpt>
      <trkpt lat="40.7061850" lon="-8.3563840">
        <ele>101.1</ele>
        <time>2019-06-10T11:21:32Z</time>
      </trkpt>
      <trkpt lat="40.7061620" lon="-8.3564920">
        <ele>100.9</ele>
        <time>2019-06-10T11:21:33Z</time>
      </trkpt>
      <trkpt lat="40.7061270" lon="-8.3565890">
        <ele>99.7</ele>
        <time>2019-06-10T11:21:34Z</time>
      </trkpt>
      <trkpt lat="40.7060990" lon="-8.3567100">
        <ele>98.4</ele>
        <time>2019-06-10T11:21:35Z</time>
      </trkpt>
      <trkpt lat="40.7060710" lon="-8.3568180">
        <ele>97.3</ele>
        <time>2019-06-10T11:21:36Z</time>
      </trkpt>
      <trkpt lat="40.7060400" lon="-8.3570640">
        <ele>95.5</ele>
        <time>2019-06-10T11:21:38Z</time>
      </trkpt>
      <trkpt lat="40.7060420" lon="-8.3573080">
        <ele>94.2</ele>
        <time>2019-06-10T11:21:40Z</time>
      </trkpt>
      <trkpt lat="40.7060540" lon="-8.3574330">
        <ele>93.8</ele>
        <time>2019-06-10T11:21:41Z</time>
      </trkpt>
      <trkpt lat="40.7060620" lon="-8.3575450">
        <ele>93.5</ele>
        <time>2019-06-10T11:21:42Z</time>
      </trkpt>
      <trkpt lat="40.7060830" lon="-8.3576640">
        <ele>92.8</ele>
        <time>2019-06-10T11:21:43Z</time>
      </trkpt>
      <trkpt lat="40.7060930" lon="-8.3577910">
        <ele>92.0</ele>
        <time>2019-06-10T11:21:44Z</time>
      </trkpt>
      <trkpt lat="40.7061020" lon="-8.3581450">
        <ele>90.7</ele>
        <time>2019-06-10T11:21:47Z</time>
      </trkpt>
      <trkpt lat="40.7060940" lon="-8.3582640">
        <ele>90.4</ele>
        <time>2019-06-10T11:21:48Z</time>
      </trkpt>
      <trkpt lat="40.7060360" lon="-8.3586120">
        <ele>89.2</ele>
        <time>2019-06-10T11:21:51Z</time>
      </trkpt>
      <trkpt lat="40.7060020" lon="-8.3587130">
        <ele>88.6</ele>
        <time>2019-06-10T11:21:52Z</time>
      </trkpt>
      <trkpt lat="40.7059730" lon="-8.3587970">
        <ele>88.1</ele>
        <time>2019-06-10T11:21:53Z</time>
      </trkpt>
      <trkpt lat="40.7058790" lon="-8.3589500">
        <ele>87.2</ele>
        <time>2019-06-10T11:21:55Z</time>
      </trkpt>
      <trkpt lat="40.7057180" lon="-8.3590970">
        <ele>86.6</ele>
        <time>2019-06-10T11:21:58Z</time>
      </trkpt>
      <trkpt lat="40.7056590" lon="-8.3591560">
        <ele>86.3</ele>
        <time>2019-06-10T11:21:59Z</time>
      </trkpt>
      <trkpt lat="40.7055270" lon="-8.3592260">
        <ele>86.0</ele>
        <time>2019-06-10T11:22:01Z</time>
      </trkpt>
      <trkpt lat="40.7054660" lon="-8.3592750">
        <ele>86.0</ele>
        <time>2019-06-10T11:22:02Z</time>
      </trkpt>
      <trkpt lat="40.7054070" lon="-8.3593190">
        <ele>85.9</ele>
        <time>2019-06-10T11:22:03Z</time>
      </trkpt>
      <trkpt lat="40.7053370" lon="-8.3593620">
        <ele>85.9</ele>
        <time>2019-06-10T11:22:04Z</time>
      </trkpt>
      <trkpt lat="40.7052700" lon="-8.3594070">
        <ele>86.2</ele>
        <time>2019-06-10T11:22:05Z</time>
      </trkpt>
      <trkpt lat="40.7052070" lon="-8.3594490">
        <ele>86.6</ele>
        <time>2019-06-10T11:22:06Z</time>
      </trkpt>
      <trkpt lat="40.7051590" lon="-8.3594890">
        <ele>87.0</ele>
        <time>2019-06-10T11:22:07Z</time>
      </trkpt>
      <trkpt lat="40.7051060" lon="-8.3595320">
        <ele>87.6</ele>
        <time>2019-06-10T11:22:08Z</time>
      </trkpt>
      <trkpt lat="40.7050510" lon="-8.3595800">
        <ele>88.1</ele>
        <time>2019-06-10T11:22:09Z</time>
      </trkpt>
      <trkpt lat="40.7048190" lon="-8.3597480">
        <ele>87.2</ele>
        <time>2019-06-10T11:22:13Z</time>
      </trkpt>
      <trkpt lat="40.7044360" lon="-8.3600250">
        <ele>86.7</ele>
        <time>2019-06-10T11:22:21Z</time>
      </trkpt>
      <trkpt lat="40.7041110" lon="-8.3602130">
        <ele>86.4</ele>
        <time>2019-06-10T11:22:29Z</time>
      </trkpt>
      <trkpt lat="40.7039570" lon="-8.3602970">
        <ele>86.3</ele>
        <time>2019-06-10T11:22:34Z</time>
      </trkpt>
      <trkpt lat="40.7039400" lon="-8.3602670">
        <ele>86.3</ele>
        <time>2019-06-10T11:22:35Z</time>
      </trkpt>
      <trkpt lat="40.7039350" lon="-8.3602340">
        <ele>86.3</ele>
        <time>2019-06-10T11:22:36Z</time>
      </trkpt>
      <trkpt lat="40.7039350" lon="-8.3602080">
        <ele>86.3</ele>
        <time>2019-06-10T11:22:37Z</time>
      </trkpt>
      <trkpt lat="40.7039340" lon="-8.3601910">
        <ele>86.3</ele>
        <time>2019-06-10T11:22:38Z</time>
      </trkpt>
      <trkpt lat="40.7039330" lon="-8.3601780">
        <ele>86.3</ele>
        <time>2019-06-10T11:22:40Z</time>
      </trkpt>
      <trkpt lat="40.7039310" lon="-8.3601780">
        <ele>86.3</ele>
        <time>2019-06-10T11:24:05Z</time>
      </trkpt>
      <trkpt lat="40.7039360" lon="-8.3601900">
        <ele>86.3</ele>
        <time>2019-06-10T11:24:06Z</time>
      </trkpt>
      <trkpt lat="40.7039460" lon="-8.3602400">
        <ele>86.2</ele>
        <time>2019-06-10T11:24:09Z</time>
      </trkpt>
      <trkpt lat="40.7039870" lon="-8.3603280">
        <ele>86.2</ele>
        <time>2019-06-10T11:24:11Z</time>
      </trkpt>
      <trkpt lat="40.7038990" lon="-8.3604730">
        <ele>85.9</ele>
        <time>2019-06-10T11:24:15Z</time>
      </trkpt>
      <trkpt lat="40.7038370" lon="-8.3605120">
        <ele>85.7</ele>
        <time>2019-06-10T11:24:16Z</time>
      </trkpt>
      <trkpt lat="40.7035770" lon="-8.3607200">
        <ele>83.8</ele>
        <time>2019-06-10T11:24:20Z</time>
      </trkpt>
      <trkpt lat="40.7033260" lon="-8.3609050">
        <ele>82.8</ele>
        <time>2019-06-10T11:24:24Z</time>
      </trkpt>
      <trkpt lat="40.7032690" lon="-8.3609500">
        <ele>82.7</ele>
        <time>2019-06-10T11:24:25Z</time>
      </trkpt>
      <trkpt lat="40.7031560" lon="-8.3610310">
        <ele>82.6</ele>
        <time>2019-06-10T11:24:28Z</time>
      </trkpt>
      <trkpt lat="40.7031300" lon="-8.3610380">
        <ele>82.6</ele>
        <time>2019-06-10T11:24:29Z</time>
      </trkpt>
      <trkpt lat="40.7030540" lon="-8.3610810">
        <ele>82.5</ele>
        <time>2019-06-10T11:24:32Z</time>
      </trkpt>
      <trkpt lat="40.7028480" lon="-8.3612100">
        <ele>82.3</ele>
        <time>2019-06-10T11:24:38Z</time>
      </trkpt>
      <trkpt lat="40.7027400" lon="-8.3613290">
        <ele>82.2</ele>
        <time>2019-06-10T11:24:41Z</time>
      </trkpt>
      <trkpt lat="40.7026690" lon="-8.3615040">
        <ele>81.6</ele>
        <time>2019-06-10T11:24:44Z</time>
      </trkpt>
      <trkpt lat="40.7026210" lon="-8.3616880">
        <ele>80.0</ele>
        <time>2019-06-10T11:24:47Z</time>
      </trkpt>
      <trkpt lat="40.7025770" lon="-8.3618700">
        <ele>77.6</ele>
        <time>2019-06-10T11:24:50Z</time>
      </trkpt>
      <trkpt lat="40.7025470" lon="-8.3620590">
        <ele>76.1</ele>
        <time>2019-06-10T11:24:53Z</time>
      </trkpt>
      <trkpt lat="40.7025370" lon="-8.3621230">
        <ele>75.9</ele>
        <time>2019-06-10T11:24:54Z</time>
      </trkpt>
      <trkpt lat="40.7025260" lon="-8.3621850">
        <ele>75.8</ele>
        <time>2019-06-10T11:24:55Z</time>
      </trkpt>
      <trkpt lat="40.7025120" lon="-8.3622500">
        <ele>75.7</ele>
        <time>2019-06-10T11:24:56Z</time>
      </trkpt>
      <trkpt lat="40.7024950" lon="-8.3623130">
        <ele>75.6</ele>
        <time>2019-06-10T11:24:57Z</time>
      </trkpt>
      <trkpt lat="40.7024240" lon="-8.3625320">
        <ele>74.7</ele>
        <time>2019-06-10T11:25:01Z</time>
      </trkpt>
      <trkpt lat="40.7023640" lon="-8.3626610">
        <ele>74.0</ele>
        <time>2019-06-10T11:25:03Z</time>
      </trkpt>
      <trkpt lat="40.7021220" lon="-8.3629400">
        <ele>73.4</ele>
        <time>2019-06-10T11:25:08Z</time>
      </trkpt>
      <trkpt lat="40.7019350" lon="-8.3630620">
        <ele>73.2</ele>
        <time>2019-06-10T11:25:11Z</time>
      </trkpt>
      <trkpt lat="40.7018720" lon="-8.3630950">
        <ele>73.1</ele>
        <time>2019-06-10T11:25:12Z</time>
      </trkpt>
      <trkpt lat="40.7018180" lon="-8.3631300">
        <ele>72.9</ele>
        <time>2019-06-10T11:25:13Z</time>
      </trkpt>
      <trkpt lat="40.7017580" lon="-8.3631620">
        <ele>72.6</ele>
        <time>2019-06-10T11:25:14Z</time>
      </trkpt>
      <trkpt lat="40.7016780" lon="-8.3631770">
        <ele>72.3</ele>
        <time>2019-06-10T11:25:15Z</time>
      </trkpt>
      <trkpt lat="40.7015290" lon="-8.3631870">
        <ele>71.7</ele>
        <time>2019-06-10T11:25:17Z</time>
      </trkpt>
      <trkpt lat="40.7012910" lon="-8.3631380">
        <ele>70.9</ele>
        <time>2019-06-10T11:25:20Z</time>
      </trkpt>
      <trkpt lat="40.7011260" lon="-8.3631050">
        <ele>70.7</ele>
        <time>2019-06-10T11:25:22Z</time>
      </trkpt>
      <trkpt lat="40.7010430" lon="-8.3630920">
        <ele>70.5</ele>
        <time>2019-06-10T11:25:23Z</time>
      </trkpt>
      <trkpt lat="40.7009610" lon="-8.3630820">
        <ele>70.2</ele>
        <time>2019-06-10T11:25:24Z</time>
      </trkpt>
      <trkpt lat="40.7008780" lon="-8.3630640">
        <ele>69.9</ele>
        <time>2019-06-10T11:25:25Z</time>
      </trkpt>
      <trkpt lat="40.7008000" lon="-8.3630470">
        <ele>69.6</ele>
        <time>2019-06-10T11:25:26Z</time>
      </trkpt>
      <trkpt lat="40.7007240" lon="-8.3630240">
        <ele>69.3</ele>
        <time>2019-06-10T11:25:27Z</time>
      </trkpt>
      <trkpt lat="40.7005820" lon="-8.3629650">
        <ele>68.7</ele>
        <time>2019-06-10T11:25:29Z</time>
      </trkpt>
      <trkpt lat="40.7003010" lon="-8.3628030">
        <ele>67.3</ele>
        <time>2019-06-10T11:25:33Z</time>
      </trkpt>
      <trkpt lat="40.7002320" lon="-8.3627700">
        <ele>67.0</ele>
        <time>2019-06-10T11:25:34Z</time>
      </trkpt>
      <trkpt lat="40.7001610" lon="-8.3627400">
        <ele>66.7</ele>
        <time>2019-06-10T11:25:35Z</time>
      </trkpt>
      <trkpt lat="40.7000880" lon="-8.3627220">
        <ele>66.5</ele>
        <time>2019-06-10T11:25:36Z</time>
      </trkpt>
      <trkpt lat="40.7000070" lon="-8.3627080">
        <ele>66.2</ele>
        <time>2019-06-10T11:25:37Z</time>
      </trkpt>
      <trkpt lat="40.6998430" lon="-8.3627060">
        <ele>65.9</ele>
        <time>2019-06-10T11:25:39Z</time>
      </trkpt>
      <trkpt lat="40.6997660" lon="-8.3627120">
        <ele>65.8</ele>
        <time>2019-06-10T11:25:40Z</time>
      </trkpt>
      <trkpt lat="40.6995390" lon="-8.3627670">
        <ele>65.4</ele>
        <time>2019-06-10T11:25:43Z</time>
      </trkpt>
      <trkpt lat="40.6994750" lon="-8.3628040">
        <ele>65.1</ele>
        <time>2019-06-10T11:25:44Z</time>
      </trkpt>
      <trkpt lat="40.6994000" lon="-8.3628380">
        <ele>64.8</ele>
        <time>2019-06-10T11:25:45Z</time>
      </trkpt>
      <trkpt lat="40.6993310" lon="-8.3628900">
        <ele>64.4</ele>
        <time>2019-06-10T11:25:46Z</time>
      </trkpt>
      <trkpt lat="40.6992600" lon="-8.3629520">
        <ele>64.0</ele>
        <time>2019-06-10T11:25:47Z</time>
      </trkpt>
      <trkpt lat="40.6991900" lon="-8.3630190">
        <ele>63.6</ele>
        <time>2019-06-10T11:25:48Z</time>
      </trkpt>
      <trkpt lat="40.6990770" lon="-8.3631690">
        <ele>62.8</ele>
        <time>2019-06-10T11:25:50Z</time>
      </trkpt>
      <trkpt lat="40.6989750" lon="-8.3633490">
        <ele>62.3</ele>
        <time>2019-06-10T11:25:52Z</time>
      </trkpt>
      <trkpt lat="40.6989330" lon="-8.3634420">
        <ele>62.2</ele>
        <time>2019-06-10T11:25:53Z</time>
      </trkpt>
      <trkpt lat="40.6988930" lon="-8.3635290">
        <ele>62.2</ele>
        <time>2019-06-10T11:25:54Z</time>
      </trkpt>
      <trkpt lat="40.6988550" lon="-8.3636170">
        <ele>62.1</ele>
        <time>2019-06-10T11:25:55Z</time>
      </trkpt>
      <trkpt lat="40.6988220" lon="-8.3636990">
        <ele>62.0</ele>
        <time>2019-06-10T11:25:56Z</time>
      </trkpt>
      <trkpt lat="40.6987690" lon="-8.3638960">
        <ele>61.8</ele>
        <time>2019-06-10T11:25:58Z</time>
      </trkpt>
      <trkpt lat="40.6987990" lon="-8.3641710">
        <ele>61.1</ele>
        <time>2019-06-10T11:26:01Z</time>
      </trkpt>
      <trkpt lat="40.6988130" lon="-8.3642600">
        <ele>60.8</ele>
        <time>2019-06-10T11:26:02Z</time>
      </trkpt>
      <trkpt lat="40.6988320" lon="-8.3643380">
        <ele>60.5</ele>
        <time>2019-06-10T11:26:03Z</time>
      </trkpt>
      <trkpt lat="40.6988490" lon="-8.3644230">
        <ele>60.3</ele>
        <time>2019-06-10T11:26:04Z</time>
      </trkpt>
      <trkpt lat="40.6988740" lon="-8.3645000">
        <ele>60.0</ele>
        <time>2019-06-10T11:26:05Z</time>
      </trkpt>
      <trkpt lat="40.6989060" lon="-8.3645830">
        <ele>59.8</ele>
        <time>2019-06-10T11:26:06Z</time>
      </trkpt>
      <trkpt lat="40.6990180" lon="-8.3650270">
        <ele>58.8</ele>
        <time>2019-06-10T11:26:11Z</time>
      </trkpt>
      <trkpt lat="40.6990250" lon="-8.3651500">
        <ele>58.4</ele>
        <time>2019-06-10T11:26:12Z</time>
      </trkpt>
      <trkpt lat="40.6990370" lon="-8.3654280">
        <ele>57.6</ele>
        <time>2019-06-10T11:26:14Z</time>
      </trkpt>
      <trkpt lat="40.6990570" lon="-8.3655480">
        <ele>57.3</ele>
        <time>2019-06-10T11:26:15Z</time>
      </trkpt>
      <trkpt lat="40.6990560" lon="-8.3656440">
        <ele>57.1</ele>
        <time>2019-06-10T11:26:16Z</time>
      </trkpt>
      <trkpt lat="40.6990370" lon="-8.3657340">
        <ele>57.0</ele>
        <time>2019-06-10T11:26:17Z</time>
      </trkpt>
      <trkpt lat="40.6990110" lon="-8.3658350">
        <ele>56.9</ele>
        <time>2019-06-10T11:26:18Z</time>
      </trkpt>
      <trkpt lat="40.6988730" lon="-8.3662990">
        <ele>55.8</ele>
        <time>2019-06-10T11:26:23Z</time>
      </trkpt>
      <trkpt lat="40.6988120" lon="-8.3664560">
        <ele>55.0</ele>
        <time>2019-06-10T11:26:25Z</time>
      </trkpt>
      <trkpt lat="40.6987860" lon="-8.3665330">
        <ele>54.7</ele>
        <time>2019-06-10T11:26:26Z</time>
      </trkpt>
      <trkpt lat="40.6987650" lon="-8.3666120">
        <ele>54.4</ele>
        <time>2019-06-10T11:26:27Z</time>
      </trkpt>
      <trkpt lat="40.6987230" lon="-8.3668670">
        <ele>53.6</ele>
        <time>2019-06-10T11:26:30Z</time>
      </trkpt>
      <trkpt lat="40.6986370" lon="-8.3670390">
        <ele>53.1</ele>
        <time>2019-06-10T11:26:31Z</time>
      </trkpt>
      <trkpt lat="40.6986390" lon="-8.3671270">
        <ele>52.9</ele>
        <time>2019-06-10T11:26:32Z</time>
      </trkpt>
      <trkpt lat="40.6986250" lon="-8.3672470">
        <ele>52.5</ele>
        <time>2019-06-10T11:26:33Z</time>
      </trkpt>
      <trkpt lat="40.6986400" lon="-8.3673620">
        <ele>52.1</ele>
        <time>2019-06-10T11:26:34Z</time>
      </trkpt>
      <trkpt lat="40.6986660" lon="-8.3674710">
        <ele>51.7</ele>
        <time>2019-06-10T11:26:35Z</time>
      </trkpt>
      <trkpt lat="40.6987440" lon="-8.3677970">
        <ele>51.0</ele>
        <time>2019-06-10T11:26:38Z</time>
      </trkpt>
      <trkpt lat="40.6988150" lon="-8.3680020">
        <ele>50.7</ele>
        <time>2019-06-10T11:26:40Z</time>
      </trkpt>
      <trkpt lat="40.6988580" lon="-8.3680940">
        <ele>50.4</ele>
        <time>2019-06-10T11:26:41Z</time>
      </trkpt>
      <trkpt lat="40.6989120" lon="-8.3681690">
        <ele>50.2</ele>
        <time>2019-06-10T11:26:42Z</time>
      </trkpt>
      <trkpt lat="40.6989610" lon="-8.3682460">
        <ele>49.9</ele>
        <time>2019-06-10T11:26:43Z</time>
      </trkpt>
      <trkpt lat="40.6990130" lon="-8.3683200">
        <ele>49.8</ele>
        <time>2019-06-10T11:26:44Z</time>
      </trkpt>
      <trkpt lat="40.6992540" lon="-8.3686850">
        <ele>48.9</ele>
        <time>2019-06-10T11:26:48Z</time>
      </trkpt>
      <trkpt lat="40.6993890" lon="-8.3689980">
        <ele>47.4</ele>
        <time>2019-06-10T11:26:51Z</time>
      </trkpt>
      <trkpt lat="40.6994300" lon="-8.3690970">
        <ele>46.8</ele>
        <time>2019-06-10T11:26:52Z</time>
      </trkpt>
      <trkpt lat="40.6994730" lon="-8.3692020">
        <ele>46.4</ele>
        <time>2019-06-10T11:26:53Z</time>
      </trkpt>
      <trkpt lat="40.6995180" lon="-8.3692990">
        <ele>46.2</ele>
        <time>2019-06-10T11:26:54Z</time>
      </trkpt>
      <trkpt lat="40.6995660" lon="-8.3693970">
        <ele>46.1</ele>
        <time>2019-06-10T11:26:55Z</time>
      </trkpt>
      <trkpt lat="40.6998910" lon="-8.3700650">
        <ele>44.2</ele>
        <time>2019-06-10T11:27:02Z</time>
      </trkpt>
      <trkpt lat="40.6999310" lon="-8.3702830">
        <ele>43.6</ele>
        <time>2019-06-10T11:27:04Z</time>
      </trkpt>
      <trkpt lat="40.6999370" lon="-8.3703960">
        <ele>43.5</ele>
        <time>2019-06-10T11:27:05Z</time>
      </trkpt>
      <trkpt lat="40.6999450" lon="-8.3705040">
        <ele>43.5</ele>
        <time>2019-06-10T11:27:06Z</time>
      </trkpt>
      <trkpt lat="40.6999420" lon="-8.3706130">
        <ele>43.4</ele>
        <time>2019-06-10T11:27:07Z</time>
      </trkpt>
      <trkpt lat="40.6999390" lon="-8.3707170">
        <ele>43.3</ele>
        <time>2019-06-10T11:27:08Z</time>
      </trkpt>
      <trkpt lat="40.6998890" lon="-8.3710400">
        <ele>42.3</ele>
        <time>2019-06-10T11:27:11Z</time>
      </trkpt>
      <trkpt lat="40.6998780" lon="-8.3711510">
        <ele>41.7</ele>
        <time>2019-06-10T11:27:12Z</time>
      </trkpt>
      <trkpt lat="40.6998680" lon="-8.3712640">
        <ele>41.3</ele>
        <time>2019-06-10T11:27:13Z</time>
      </trkpt>
      <trkpt lat="40.6998560" lon="-8.3713790">
        <ele>41.1</ele>
        <time>2019-06-10T11:27:14Z</time>
      </trkpt>
      <trkpt lat="40.6998490" lon="-8.3714980">
        <ele>41.0</ele>
        <time>2019-06-10T11:27:15Z</time>
      </trkpt>
      <trkpt lat="40.6998460" lon="-8.3717470">
        <ele>40.5</ele>
        <time>2019-06-10T11:27:17Z</time>
      </trkpt>
      <trkpt lat="40.6998500" lon="-8.3718700">
        <ele>40.2</ele>
        <time>2019-06-10T11:27:18Z</time>
      </trkpt>
      <trkpt lat="40.6998560" lon="-8.3719950">
        <ele>39.9</ele>
        <time>2019-06-10T11:27:19Z</time>
      </trkpt>
      <trkpt lat="40.6998540" lon="-8.3721230">
        <ele>39.7</ele>
        <time>2019-06-10T11:27:20Z</time>
      </trkpt>
      <trkpt lat="40.6998490" lon="-8.3722570">
        <ele>39.6</ele>
        <time>2019-06-10T11:27:21Z</time>
      </trkpt>
      <trkpt lat="40.6998110" lon="-8.3727410">
        <ele>38.1</ele>
        <time>2019-06-10T11:27:25Z</time>
      </trkpt>
      <trkpt lat="40.6997770" lon="-8.3729670">
        <ele>37.4</ele>
        <time>2019-06-10T11:27:27Z</time>
      </trkpt>
      <trkpt lat="40.6997480" lon="-8.3730790">
        <ele>37.2</ele>
        <time>2019-06-10T11:27:28Z</time>
      </trkpt>
      <trkpt lat="40.6997230" lon="-8.3731840">
        <ele>37.1</ele>
        <time>2019-06-10T11:27:29Z</time>
      </trkpt>
      <trkpt lat="40.6996950" lon="-8.3732970">
        <ele>36.9</ele>
        <time>2019-06-10T11:27:30Z</time>
      </trkpt>
      <trkpt lat="40.6996660" lon="-8.3734020">
        <ele>36.6</ele>
        <time>2019-06-10T11:27:31Z</time>
      </trkpt>
      <trkpt lat="40.6995830" lon="-8.3737450">
        <ele>35.5</ele>
        <time>2019-06-10T11:27:34Z</time>
      </trkpt>
      <trkpt lat="40.6995590" lon="-8.3738610">
        <ele>35.1</ele>
        <time>2019-06-10T11:27:35Z</time>
      </trkpt>
      <trkpt lat="40.6995350" lon="-8.3739960">
        <ele>34.6</ele>
        <time>2019-06-10T11:27:36Z</time>
      </trkpt>
      <trkpt lat="40.6995130" lon="-8.3741300">
        <ele>34.1</ele>
        <time>2019-06-10T11:27:37Z</time>
      </trkpt>
      <trkpt lat="40.6995010" lon="-8.3742570">
        <ele>33.6</ele>
        <time>2019-06-10T11:27:38Z</time>
      </trkpt>
      <trkpt lat="40.6993960" lon="-8.3748140">
        <ele>32.6</ele>
        <time>2019-06-10T11:27:42Z</time>
      </trkpt>
      <trkpt lat="40.6993550" lon="-8.3751780">
        <ele>32.8</ele>
        <time>2019-06-10T11:27:45Z</time>
      </trkpt>
      <trkpt lat="40.6993410" lon="-8.3753120">
        <ele>32.9</ele>
        <time>2019-06-10T11:27:46Z</time>
      </trkpt>
      <trkpt lat="40.6993310" lon="-8.3754180">
        <ele>32.9</ele>
        <time>2019-06-10T11:27:47Z</time>
      </trkpt>
      <trkpt lat="40.6993230" lon="-8.3755040">
        <ele>33.0</ele>
        <time>2019-06-10T11:27:48Z</time>
      </trkpt>
      <trkpt lat="40.6993150" lon="-8.3755700">
        <ele>33.1</ele>
        <time>2019-06-10T11:27:49Z</time>
      </trkpt>
      <trkpt lat="40.6993000" lon="-8.3756430">
        <ele>33.2</ele>
        <time>2019-06-10T11:27:51Z</time>
      </trkpt>
      <trkpt lat="40.6992910" lon="-8.3756540">
        <ele>33.2</ele>
        <time>2019-06-10T11:27:52Z</time>
      </trkpt>
      <trkpt lat="40.6992960" lon="-8.3756680">
        <ele>33.2</ele>
        <time>2019-06-10T11:29:53Z</time>
      </trkpt>
      <trkpt lat="40.6992970" lon="-8.3756790">
        <ele>33.3</ele>
        <time>2019-06-10T11:29:54Z</time>
      </trkpt>
      <trkpt lat="40.6992730" lon="-8.3758650">
        <ele>33.7</ele>
        <time>2019-06-10T11:29:58Z</time>
      </trkpt>
      <trkpt lat="40.6992060" lon="-8.3762300">
        <ele>34.3</ele>
        <time>2019-06-10T11:30:05Z</time>
      </trkpt>
      <trkpt lat="40.6991300" lon="-8.3766350">
        <ele>34.9</ele>
        <time>2019-06-10T11:30:12Z</time>
      </trkpt>
      <trkpt lat="40.6991140" lon="-8.3766880">
        <ele>35.4</ele>
        <time>2019-06-10T11:30:13Z</time>
      </trkpt>
      <trkpt lat="40.6989750" lon="-8.3770840">
        <ele>38.8</ele>
        <time>2019-06-10T11:30:20Z</time>
      </trkpt>
      <trkpt lat="40.6988630" lon="-8.3773450">
        <ele>41.0</ele>
        <time>2019-06-10T11:30:25Z</time>
      </trkpt>
      <trkpt lat="40.6987420" lon="-8.3776480">
        <ele>43.2</ele>
        <time>2019-06-10T11:30:30Z</time>
      </trkpt>
      <trkpt lat="40.6986020" lon="-8.3779730">
        <ele>46.6</ele>
        <time>2019-06-10T11:30:36Z</time>
      </trkpt>
      <trkpt lat="40.6985340" lon="-8.3780670">
        <ele>47.4</ele>
        <time>2019-06-10T11:30:38Z</time>
      </trkpt>
      <trkpt lat="40.6984510" lon="-8.3782300">
        <ele>49.2</ele>
        <time>2019-06-10T11:30:41Z</time>
      </trkpt>
      <trkpt lat="40.6984170" lon="-8.3783050">
        <ele>50.0</ele>
        <time>2019-06-10T11:30:42Z</time>
      </trkpt>
      <trkpt lat="40.6982520" lon="-8.3786130">
        <ele>52.8</ele>
        <time>2019-06-10T11:30:47Z</time>
      </trkpt>
      <trkpt lat="40.6982090" lon="-8.3786730">
        <ele>53.2</ele>
        <time>2019-06-10T11:30:48Z</time>
      </trkpt>
      <trkpt lat="40.6979400" lon="-8.3789210">
        <ele>54.1</ele>
        <time>2019-06-10T11:30:53Z</time>
      </trkpt>
      <trkpt lat="40.6976380" lon="-8.3791170">
        <ele>57.7</ele>
        <time>2019-06-10T11:30:58Z</time>
      </trkpt>
      <trkpt lat="40.6973480" lon="-8.3792940">
        <ele>60.9</ele>
        <time>2019-06-10T11:31:03Z</time>
      </trkpt>
      <trkpt lat="40.6970440" lon="-8.3794960">
        <ele>69.9</ele>
        <time>2019-06-10T11:31:08Z</time>
      </trkpt>
      <trkpt lat="40.6967290" lon="-8.3796770">
        <ele>75.2</ele>
        <time>2019-06-10T11:31:13Z</time>
      </trkpt>
      <trkpt lat="40.6966670" lon="-8.3796960">
        <ele>75.7</ele>
        <time>2019-06-10T11:31:14Z</time>
      </trkpt>
      <trkpt lat="40.6964070" lon="-8.3797610">
        <ele>77.3</ele>
        <time>2019-06-10T11:31:18Z</time>
      </trkpt>
      <trkpt lat="40.6962620" lon="-8.3797640">
        <ele>76.9</ele>
        <time>2019-06-10T11:31:20Z</time>
      </trkpt>
      <trkpt lat="40.6958680" lon="-8.3797310">
        <ele>72.2</ele>
        <time>2019-06-10T11:31:25Z</time>
      </trkpt>
      <trkpt lat="40.6957860" lon="-8.3797130">
        <ele>69.9</ele>
        <time>2019-06-10T11:31:26Z</time>
      </trkpt>
      <trkpt lat="40.6956210" lon="-8.3796450">
        <ele>65.1</ele>
        <time>2019-06-10T11:31:28Z</time>
      </trkpt>
      <trkpt lat="40.6955300" lon="-8.3795900">
        <ele>60.8</ele>
        <time>2019-06-10T11:31:29Z</time>
      </trkpt>
      <trkpt lat="40.6954400" lon="-8.3795430">
        <ele>54.2</ele>
        <time>2019-06-10T11:31:30Z</time>
      </trkpt>
      <trkpt lat="40.6953460" lon="-8.3794950">
        <ele>45.4</ele>
        <time>2019-06-10T11:31:31Z</time>
      </trkpt>
      <trkpt lat="40.6952510" lon="-8.3794470">
        <ele>36.9</ele>
        <time>2019-06-10T11:31:32Z</time>
      </trkpt>
      <trkpt lat="40.6948580" lon="-8.3792870">
        <ele>35.3</ele>
        <time>2019-06-10T11:31:36Z</time>
      </trkpt>
      <trkpt lat="40.6943690" lon="-8.3791930">
        <ele>27.3</ele>
        <time>2019-06-10T11:31:41Z</time>
      </trkpt>
      <trkpt lat="40.6942690" lon="-8.3792090">
        <ele>28.0</ele>
        <time>2019-06-10T11:31:42Z</time>
      </trkpt>
      <trkpt lat="40.6941650" lon="-8.3792320">
        <ele>28.8</ele>
        <time>2019-06-10T11:31:43Z</time>
      </trkpt>
      <trkpt lat="40.6940690" lon="-8.3792680">
        <ele>29.6</ele>
        <time>2019-06-10T11:31:44Z</time>
      </trkpt>
      <trkpt lat="40.6939780" lon="-8.3793190">
        <ele>31.1</ele>
        <time>2019-06-10T11:31:45Z</time>
      </trkpt>
      <trkpt lat="40.6938930" lon="-8.3793820">
        <ele>32.7</ele>
        <time>2019-06-10T11:31:46Z</time>
      </trkpt>
      <trkpt lat="40.6936600" lon="-8.3796100">
        <ele>37.6</ele>
        <time>2019-06-10T11:31:49Z</time>
      </trkpt>
      <trkpt lat="40.6935670" lon="-8.3798080">
        <ele>39.6</ele>
        <time>2019-06-10T11:31:51Z</time>
      </trkpt>
      <trkpt lat="40.6935320" lon="-8.3799180">
        <ele>40.5</ele>
        <time>2019-06-10T11:31:52Z</time>
      </trkpt>
      <trkpt lat="40.6935010" lon="-8.3800280">
        <ele>41.4</ele>
        <time>2019-06-10T11:31:53Z</time>
      </trkpt>
      <trkpt lat="40.6934730" lon="-8.3801400">
        <ele>42.3</ele>
        <time>2019-06-10T11:31:54Z</time>
      </trkpt>
      <trkpt lat="40.6934550" lon="-8.3802610">
        <ele>42.6</ele>
        <time>2019-06-10T11:31:55Z</time>
      </trkpt>
      <trkpt lat="40.6934500" lon="-8.3803740">
        <ele>42.8</ele>
        <time>2019-06-10T11:31:56Z</time>
      </trkpt>
      <trkpt lat="40.6934570" lon="-8.3806250">
        <ele>43.0</ele>
        <time>2019-06-10T11:31:58Z</time>
      </trkpt>
      <trkpt lat="40.6934420" lon="-8.3810020">
        <ele>42.9</ele>
        <time>2019-06-10T11:32:01Z</time>
      </trkpt>
      <trkpt lat="40.6934460" lon="-8.3811270">
        <ele>43.1</ele>
        <time>2019-06-10T11:32:02Z</time>
      </trkpt>
      <trkpt lat="40.6934500" lon="-8.3812480">
        <ele>43.3</ele>
        <time>2019-06-10T11:32:03Z</time>
      </trkpt>
      <trkpt lat="40.6934510" lon="-8.3813700">
        <ele>42.7</ele>
        <time>2019-06-10T11:32:04Z</time>
      </trkpt>
      <trkpt lat="40.6934500" lon="-8.3814810">
        <ele>42.8</ele>
        <time>2019-06-10T11:32:05Z</time>
      </trkpt>
      <trkpt lat="40.6934450" lon="-8.3815780">
        <ele>43.1</ele>
        <time>2019-06-10T11:32:06Z</time>
      </trkpt>
      <trkpt lat="40.6934380" lon="-8.3816810">
        <ele>42.9</ele>
        <time>2019-06-10T11:32:07Z</time>
      </trkpt>
      <trkpt lat="40.6934740" lon="-8.3823540">
        <ele>44.0</ele>
        <time>2019-06-10T11:32:13Z</time>
      </trkpt>
      <trkpt lat="40.6934700" lon="-8.3824860">
        <ele>42.7</ele>
        <time>2019-06-10T11:32:14Z</time>
      </trkpt>
      <trkpt lat="40.6934700" lon="-8.3826040">
        <ele>42.4</ele>
        <time>2019-06-10T11:32:15Z</time>
      </trkpt>
      <trkpt lat="40.6934510" lon="-8.3827320">
        <ele>42.0</ele>
        <time>2019-06-10T11:32:16Z</time>
      </trkpt>
      <trkpt lat="40.6934360" lon="-8.3828480">
        <ele>41.6</ele>
        <time>2019-06-10T11:32:17Z</time>
      </trkpt>
      <trkpt lat="40.6933950" lon="-8.3830870">
        <ele>41.5</ele>
        <time>2019-06-10T11:32:19Z</time>
      </trkpt>
      <trkpt lat="40.6933190" lon="-8.3833110">
        <ele>41.5</ele>
        <time>2019-06-10T11:32:21Z</time>
      </trkpt>
      <trkpt lat="40.6932300" lon="-8.3835230">
        <ele>41.0</ele>
        <time>2019-06-10T11:32:23Z</time>
      </trkpt>
      <trkpt lat="40.6930000" lon="-8.3842470">
        <ele>35.5</ele>
        <time>2019-06-10T11:32:30Z</time>
      </trkpt>
      <trkpt lat="40.6928520" lon="-8.3848340">
        <ele>32.6</ele>
        <time>2019-06-10T11:32:36Z</time>
      </trkpt>
      <trkpt lat="40.6927350" lon="-8.3853170">
        <ele>32.4</ele>
        <time>2019-06-10T11:32:41Z</time>
      </trkpt>
      <trkpt lat="40.6926940" lon="-8.3854070">
        <ele>33.1</ele>
        <time>2019-06-10T11:32:42Z</time>
      </trkpt>
      <trkpt lat="40.6924260" lon="-8.3858630">
        <ele>36.3</ele>
        <time>2019-06-10T11:32:47Z</time>
      </trkpt>
      <trkpt lat="40.6920700" lon="-8.3864640">
        <ele>43.2</ele>
        <time>2019-06-10T11:32:54Z</time>
      </trkpt>
      <trkpt lat="40.6920250" lon="-8.3865400">
        <ele>44.4</ele>
        <time>2019-06-10T11:32:55Z</time>
      </trkpt>
      <trkpt lat="40.6916510" lon="-8.3869070">
        <ele>51.0</ele>
        <time>2019-06-10T11:33:01Z</time>
      </trkpt>
      <trkpt lat="40.6912090" lon="-8.3872860">
        <ele>58.8</ele>
        <time>2019-06-10T11:33:09Z</time>
      </trkpt>
      <trkpt lat="40.6908560" lon="-8.3875960">
        <ele>59.2</ele>
        <time>2019-06-10T11:33:15Z</time>
      </trkpt>
      <trkpt lat="40.6908120" lon="-8.3876710">
        <ele>57.6</ele>
        <time>2019-06-10T11:33:16Z</time>
      </trkpt>
      <trkpt lat="40.6907320" lon="-8.3878220">
        <ele>53.5</ele>
        <time>2019-06-10T11:33:18Z</time>
      </trkpt>
      <trkpt lat="40.6906990" lon="-8.3879020">
        <ele>50.4</ele>
        <time>2019-06-10T11:33:19Z</time>
      </trkpt>
      <trkpt lat="40.6906660" lon="-8.3879950">
        <ele>47.7</ele>
        <time>2019-06-10T11:33:20Z</time>
      </trkpt>
      <trkpt lat="40.6906380" lon="-8.3880850">
        <ele>45.4</ele>
        <time>2019-06-10T11:33:21Z</time>
      </trkpt>
      <trkpt lat="40.6906200" lon="-8.3881750">
        <ele>43.3</ele>
        <time>2019-06-10T11:33:22Z</time>
      </trkpt>
      <trkpt lat="40.6906050" lon="-8.3883820">
        <ele>38.9</ele>
        <time>2019-06-10T11:33:24Z</time>
      </trkpt>
      <trkpt lat="40.6906070" lon="-8.3884910">
        <ele>37.2</ele>
        <time>2019-06-10T11:33:25Z</time>
      </trkpt>
      <trkpt lat="40.6906110" lon="-8.3886010">
        <ele>36.0</ele>
        <time>2019-06-10T11:33:26Z</time>
      </trkpt>
      <trkpt lat="40.6906370" lon="-8.3887160">
        <ele>35.1</ele>
        <time>2019-06-10T11:33:27Z</time>
      </trkpt>
      <trkpt lat="40.6906620" lon="-8.3888220">
        <ele>34.5</ele>
        <time>2019-06-10T11:33:28Z</time>
      </trkpt>
      <trkpt lat="40.6906850" lon="-8.3889280">
        <ele>34.2</ele>
        <time>2019-06-10T11:33:29Z</time>
      </trkpt>
      <trkpt lat="40.6907850" lon="-8.3893690">
        <ele>32.1</ele>
        <time>2019-06-10T11:33:33Z</time>
      </trkpt>
      <trkpt lat="40.6908180" lon="-8.3894870">
        <ele>31.7</ele>
        <time>2019-06-10T11:33:34Z</time>
      </trkpt>
      <trkpt lat="40.6908480" lon="-8.3895990">
        <ele>30.7</ele>
        <time>2019-06-10T11:33:35Z</time>
      </trkpt>
      <trkpt lat="40.6908570" lon="-8.3897180">
        <ele>30.3</ele>
        <time>2019-06-10T11:33:36Z</time>
      </trkpt>
      <trkpt lat="40.6908730" lon="-8.3898200">
        <ele>30.7</ele>
        <time>2019-06-10T11:33:37Z</time>
      </trkpt>
      <trkpt lat="40.6908940" lon="-8.3900460">
        <ele>32.2</ele>
        <time>2019-06-10T11:33:39Z</time>
      </trkpt>
      <trkpt lat="40.6909130" lon="-8.3908090">
        <ele>35.3</ele>
        <time>2019-06-10T11:33:46Z</time>
      </trkpt>
      <trkpt lat="40.6909660" lon="-8.3912330">
        <ele>37.0</ele>
        <time>2019-06-10T11:33:50Z</time>
      </trkpt>
      <trkpt lat="40.6909740" lon="-8.3913460">
        <ele>38.6</ele>
        <time>2019-06-10T11:33:51Z</time>
      </trkpt>
      <trkpt lat="40.6909780" lon="-8.3914490">
        <ele>39.3</ele>
        <time>2019-06-10T11:33:52Z</time>
      </trkpt>
      <trkpt lat="40.6909820" lon="-8.3915560">
        <ele>39.8</ele>
        <time>2019-06-10T11:33:53Z</time>
      </trkpt>
      <trkpt lat="40.6909910" lon="-8.3916610">
        <ele>40.3</ele>
        <time>2019-06-10T11:33:54Z</time>
      </trkpt>
      <trkpt lat="40.6911000" lon="-8.3923100">
        <ele>42.5</ele>
        <time>2019-06-10T11:34:00Z</time>
      </trkpt>
      <trkpt lat="40.6912750" lon="-8.3930550">
        <ele>44.6</ele>
        <time>2019-06-10T11:34:07Z</time>
      </trkpt>
      <trkpt lat="40.6912940" lon="-8.3931610">
        <ele>45.1</ele>
        <time>2019-06-10T11:34:08Z</time>
      </trkpt>
      <trkpt lat="40.6913640" lon="-8.3938240">
        <ele>49.1</ele>
        <time>2019-06-10T11:34:14Z</time>
      </trkpt>
      <trkpt lat="40.6913950" lon="-8.3946130">
        <ele>51.7</ele>
        <time>2019-06-10T11:34:21Z</time>
      </trkpt>
      <trkpt lat="40.6912950" lon="-8.3952570">
        <ele>53.5</ele>
        <time>2019-06-10T11:34:27Z</time>
      </trkpt>
      <trkpt lat="40.6911570" lon="-8.3958890">
        <ele>50.4</ele>
        <time>2019-06-10T11:34:33Z</time>
      </trkpt>
      <trkpt lat="40.6911270" lon="-8.3959760">
        <ele>50.3</ele>
        <time>2019-06-10T11:34:34Z</time>
      </trkpt>
      <trkpt lat="40.6910120" lon="-8.3962390">
        <ele>48.9</ele>
        <time>2019-06-10T11:34:37Z</time>
      </trkpt>
      <trkpt lat="40.6908960" lon="-8.3965830">
        <ele>42.3</ele>
        <time>2019-06-10T11:34:41Z</time>
      </trkpt>
      <trkpt lat="40.6908640" lon="-8.3967580">
        <ele>46.6</ele>
        <time>2019-06-10T11:34:43Z</time>
      </trkpt>
      <trkpt lat="40.6908050" lon="-8.3971730">
        <ele>46.5</ele>
        <time>2019-06-10T11:34:47Z</time>
      </trkpt>
      <trkpt lat="40.6906620" lon="-8.3978260">
        <ele>49.8</ele>
        <time>2019-06-10T11:34:54Z</time>
      </trkpt>
      <trkpt lat="40.6906150" lon="-8.3983800">
        <ele>51.1</ele>
        <time>2019-06-10T11:35:00Z</time>
      </trkpt>
      <trkpt lat="40.6906160" lon="-8.3984720">
        <ele>51.2</ele>
        <time>2019-06-10T11:35:01Z</time>
      </trkpt>
      <trkpt lat="40.6906390" lon="-8.3991200">
        <ele>53.8</ele>
        <time>2019-06-10T11:35:08Z</time>
      </trkpt>
      <trkpt lat="40.6906450" lon="-8.3998700">
        <ele>54.1</ele>
        <time>2019-06-10T11:35:16Z</time>
      </trkpt>
      <trkpt lat="40.6905890" lon="-8.4004670">
        <ele>48.3</ele>
        <time>2019-06-10T11:35:22Z</time>
      </trkpt>
      <trkpt lat="40.6905740" lon="-8.4005670">
        <ele>47.6</ele>
        <time>2019-06-10T11:35:23Z</time>
      </trkpt>
      <trkpt lat="40.6905600" lon="-8.4006610">
        <ele>46.8</ele>
        <time>2019-06-10T11:35:24Z</time>
      </trkpt>
      <trkpt lat="40.6905470" lon="-8.4007600">
        <ele>44.9</ele>
        <time>2019-06-10T11:35:25Z</time>
      </trkpt>
      <trkpt lat="40.6905350" lon="-8.4008580">
        <ele>44.2</ele>
        <time>2019-06-10T11:35:26Z</time>
      </trkpt>
      <trkpt lat="40.6904600" lon="-8.4014470">
        <ele>38.1</ele>
        <time>2019-06-10T11:35:31Z</time>
      </trkpt>
      <trkpt lat="40.6903140" lon="-8.4020400">
        <ele>37.2</ele>
        <time>2019-06-10T11:35:36Z</time>
      </trkpt>
      <trkpt lat="40.6902780" lon="-8.4021380">
        <ele>37.1</ele>
        <time>2019-06-10T11:35:37Z</time>
      </trkpt>
      <trkpt lat="40.6901550" lon="-8.4024240">
        <ele>36.8</ele>
        <time>2019-06-10T11:35:40Z</time>
      </trkpt>
      <trkpt lat="40.6900360" lon="-8.4025930">
        <ele>36.6</ele>
        <time>2019-06-10T11:35:42Z</time>
      </trkpt>
      <trkpt lat="40.6899000" lon="-8.4027490">
        <ele>36.4</ele>
        <time>2019-06-10T11:35:44Z</time>
      </trkpt>
      <trkpt lat="40.6897050" lon="-8.4029690">
        <ele>36.1</ele>
        <time>2019-06-10T11:35:47Z</time>
      </trkpt>
      <trkpt lat="40.6896480" lon="-8.4030420">
        <ele>36.0</ele>
        <time>2019-06-10T11:35:48Z</time>
      </trkpt>
      <trkpt lat="40.6896010" lon="-8.4031230">
        <ele>35.9</ele>
        <time>2019-06-10T11:35:49Z</time>
      </trkpt>
      <trkpt lat="40.6895550" lon="-8.4032160">
        <ele>35.8</ele>
        <time>2019-06-10T11:35:50Z</time>
      </trkpt>
      <trkpt lat="40.6895170" lon="-8.4033090">
        <ele>35.7</ele>
        <time>2019-06-10T11:35:51Z</time>
      </trkpt>
      <trkpt lat="40.6894590" lon="-8.4035170">
        <ele>35.5</ele>
        <time>2019-06-10T11:35:53Z</time>
      </trkpt>
      <trkpt lat="40.6894350" lon="-8.4037220">
        <ele>35.3</ele>
        <time>2019-06-10T11:35:55Z</time>
      </trkpt>
      <trkpt lat="40.6893840" lon="-8.4040360">
        <ele>35.2</ele>
        <time>2019-06-10T11:35:58Z</time>
      </trkpt>
      <trkpt lat="40.6892550" lon="-8.4048170">
        <ele>35.8</ele>
        <time>2019-06-10T11:36:05Z</time>
      </trkpt>
      <trkpt lat="40.6892140" lon="-8.4050470">
        <ele>35.9</ele>
        <time>2019-06-10T11:36:07Z</time>
      </trkpt>
      <trkpt lat="40.6892000" lon="-8.4051580">
        <ele>35.8</ele>
        <time>2019-06-10T11:36:08Z</time>
      </trkpt>
      <trkpt lat="40.6891840" lon="-8.4052780">
        <ele>35.7</ele>
        <time>2019-06-10T11:36:09Z</time>
      </trkpt>
      <trkpt lat="40.6891640" lon="-8.4053970">
        <ele>35.6</ele>
        <time>2019-06-10T11:36:10Z</time>
      </trkpt>
      <trkpt lat="40.6891460" lon="-8.4055200">
        <ele>35.5</ele>
        <time>2019-06-10T11:36:11Z</time>
      </trkpt>
      <trkpt lat="40.6891300" lon="-8.4056460">
        <ele>35.4</ele>
        <time>2019-06-10T11:36:12Z</time>
      </trkpt>
      <trkpt lat="40.6889880" lon="-8.4062830">
        <ele>35.3</ele>
        <time>2019-06-10T11:36:17Z</time>
      </trkpt>
      <trkpt lat="40.6889360" lon="-8.4064020">
        <ele>35.4</ele>
        <time>2019-06-10T11:36:18Z</time>
      </trkpt>
      <trkpt lat="40.6886360" lon="-8.4069530">
        <ele>36.1</ele>
        <time>2019-06-10T11:36:23Z</time>
      </trkpt>
      <trkpt lat="40.6883040" lon="-8.4076190">
        <ele>35.3</ele>
        <time>2019-06-10T11:36:29Z</time>
      </trkpt>
      <trkpt lat="40.6882620" lon="-8.4077370">
        <ele>35.1</ele>
        <time>2019-06-10T11:36:30Z</time>
      </trkpt>
      <trkpt lat="40.6882270" lon="-8.4078430">
        <ele>34.9</ele>
        <time>2019-06-10T11:36:31Z</time>
      </trkpt>
      <trkpt lat="40.6881800" lon="-8.4079690">
        <ele>34.5</ele>
        <time>2019-06-10T11:36:32Z</time>
      </trkpt>
      <trkpt lat="40.6881280" lon="-8.4080830">
        <ele>34.1</ele>
        <time>2019-06-10T11:36:33Z</time>
      </trkpt>
      <trkpt lat="40.6880730" lon="-8.4082020">
        <ele>33.6</ele>
        <time>2019-06-10T11:36:34Z</time>
      </trkpt>
      <trkpt lat="40.6880190" lon="-8.4083110">
        <ele>33.1</ele>
        <time>2019-06-10T11:36:35Z</time>
      </trkpt>
      <trkpt lat="40.6877600" lon="-8.4088640">
        <ele>31.5</ele>
        <time>2019-06-10T11:36:40Z</time>
      </trkpt>
      <trkpt lat="40.6877290" lon="-8.4089870">
        <ele>31.0</ele>
        <time>2019-06-10T11:36:41Z</time>
      </trkpt>
      <trkpt lat="40.6876780" lon="-8.4094690">
        <ele>29.3</ele>
        <time>2019-06-10T11:36:45Z</time>
      </trkpt>
      <trkpt lat="40.6877400" lon="-8.4098950">
        <ele>28.6</ele>
        <time>2019-06-10T11:36:49Z</time>
      </trkpt>
      <trkpt lat="40.6878130" lon="-8.4100750">
        <ele>28.4</ele>
        <time>2019-06-10T11:36:52Z</time>
      </trkpt>
      <trkpt lat="40.6878470" lon="-8.4101300">
        <ele>28.3</ele>
        <time>2019-06-10T11:36:53Z</time>
      </trkpt>
      <trkpt lat="40.6878760" lon="-8.4101820">
        <ele>28.3</ele>
        <time>2019-06-10T11:36:54Z</time>
      </trkpt>
      <trkpt lat="40.6879060" lon="-8.4102320">
        <ele>28.2</ele>
        <time>2019-06-10T11:36:55Z</time>
      </trkpt>
      <trkpt lat="40.6879320" lon="-8.4102870">
        <ele>28.2</ele>
        <time>2019-06-10T11:36:56Z</time>
      </trkpt>
      <trkpt lat="40.6879560" lon="-8.4103500">
        <ele>28.5</ele>
        <time>2019-06-10T11:36:57Z</time>
      </trkpt>
      <trkpt lat="40.6879870" lon="-8.4104040">
        <ele>28.7</ele>
        <time>2019-06-10T11:36:58Z</time>
      </trkpt>
      <trkpt lat="40.6881470" lon="-8.4105930">
        <ele>29.8</ele>
        <time>2019-06-10T11:37:02Z</time>
      </trkpt>
      <trkpt lat="40.6881910" lon="-8.4106320">
        <ele>30.0</ele>
        <time>2019-06-10T11:37:03Z</time>
      </trkpt>
      <trkpt lat="40.6884170" lon="-8.4108220">
        <ele>30.0</ele>
        <time>2019-06-10T11:37:08Z</time>
      </trkpt>
      <trkpt lat="40.6884630" lon="-8.4108540">
        <ele>30.0</ele>
        <time>2019-06-10T11:37:09Z</time>
      </trkpt>
      <trkpt lat="40.6888270" lon="-8.4111300">
        <ele>30.2</ele>
        <time>2019-06-10T11:37:17Z</time>
      </trkpt>
      <trkpt lat="40.6890380" lon="-8.4113180">
        <ele>30.4</ele>
        <time>2019-06-10T11:37:22Z</time>
      </trkpt>
      <trkpt lat="40.6890720" lon="-8.4113750">
        <ele>30.5</ele>
        <time>2019-06-10T11:37:23Z</time>
      </trkpt>
      <trkpt lat="40.6891090" lon="-8.4114230">
        <ele>30.5</ele>
        <time>2019-06-10T11:37:24Z</time>
      </trkpt>
      <trkpt lat="40.6891480" lon="-8.4114580">
        <ele>30.6</ele>
        <time>2019-06-10T11:37:25Z</time>
      </trkpt>
      <trkpt lat="40.6891830" lon="-8.4114930">
        <ele>30.6</ele>
        <time>2019-06-10T11:37:26Z</time>
      </trkpt>
      <trkpt lat="40.6893000" lon="-8.4115520">
        <ele>30.7</ele>
        <time>2019-06-10T11:37:30Z</time>
      </trkpt>
      <trkpt lat="40.6893360" lon="-8.4115930">
        <ele>30.8</ele>
        <time>2019-06-10T11:37:32Z</time>
      </trkpt>
      <trkpt lat="40.6894030" lon="-8.4116330">
        <ele>30.9</ele>
        <time>2019-06-10T11:37:34Z</time>
      </trkpt>
      <trkpt lat="40.6896400" lon="-8.4118840">
        <ele>31.1</ele>
        <time>2019-06-10T11:37:42Z</time>
      </trkpt>
      <trkpt lat="40.6899250" lon="-8.4121440">
        <ele>31.4</ele>
        <time>2019-06-10T11:37:50Z</time>
      </trkpt>
      <trkpt lat="40.6900500" lon="-8.4123310">
        <ele>31.5</ele>
        <time>2019-06-10T11:37:54Z</time>
      </trkpt>
      <trkpt lat="40.6901160" lon="-8.4124100">
        <ele>31.5</ele>
        <time>2019-06-10T11:37:56Z</time>
      </trkpt>
      <trkpt lat="40.6903620" lon="-8.4127790">
        <ele>31.3</ele>
        <time>2019-06-10T11:38:03Z</time>
      </trkpt>
      <trkpt lat="40.6904440" lon="-8.4128780">
        <ele>31.2</ele>
        <time>2019-06-10T11:38:05Z</time>
      </trkpt>
      <trkpt lat="40.6905370" lon="-8.4130650">
        <ele>30.9</ele>
        <time>2019-06-10T11:38:08Z</time>
      </trkpt>
      <trkpt lat="40.6907470" lon="-8.4134690">
        <ele>30.4</ele>
        <time>2019-06-10T11:38:15Z</time>
      </trkpt>
      <trkpt lat="40.6908550" lon="-8.4137630">
        <ele>30.0</ele>
        <time>2019-06-10T11:38:19Z</time>
      </trkpt>
      <trkpt lat="40.6908860" lon="-8.4138340">
        <ele>29.9</ele>
        <time>2019-06-10T11:38:20Z</time>
      </trkpt>
      <trkpt lat="40.6909200" lon="-8.4139010">
        <ele>29.8</ele>
        <time>2019-06-10T11:38:21Z</time>
      </trkpt>
      <trkpt lat="40.6909550" lon="-8.4139760">
        <ele>29.7</ele>
        <time>2019-06-10T11:38:22Z</time>
      </trkpt>
      <trkpt lat="40.6909900" lon="-8.4140510">
        <ele>29.6</ele>
        <time>2019-06-10T11:38:23Z</time>
      </trkpt>
      <trkpt lat="40.6910210" lon="-8.4141240">
        <ele>29.4</ele>
        <time>2019-06-10T11:38:24Z</time>
      </trkpt>
      <trkpt lat="40.6911120" lon="-8.4144650">
        <ele>29.0</ele>
        <time>2019-06-10T11:38:28Z</time>
      </trkpt>
      <trkpt lat="40.6911390" lon="-8.4146500">
        <ele>28.7</ele>
        <time>2019-06-10T11:38:30Z</time>
      </trkpt>
      <trkpt lat="40.6911890" lon="-8.4149240">
        <ele>28.5</ele>
        <time>2019-06-10T11:38:33Z</time>
      </trkpt>
      <trkpt lat="40.6912310" lon="-8.4151060">
        <ele>28.3</ele>
        <time>2019-06-10T11:38:35Z</time>
      </trkpt>
      <trkpt lat="40.6912890" lon="-8.4157040">
        <ele>28.1</ele>
        <time>2019-06-10T11:38:41Z</time>
      </trkpt>
      <trkpt lat="40.6912880" lon="-8.4158010">
        <ele>28.1</ele>
        <time>2019-06-10T11:38:42Z</time>
      </trkpt>
      <trkpt lat="40.6912800" lon="-8.4159150">
        <ele>28.2</ele>
        <time>2019-06-10T11:38:43Z</time>
      </trkpt>
      <trkpt lat="40.6912700" lon="-8.4160150">
        <ele>28.2</ele>
        <time>2019-06-10T11:38:44Z</time>
      </trkpt>
      <trkpt lat="40.6912590" lon="-8.4161130">
        <ele>28.2</ele>
        <time>2019-06-10T11:38:45Z</time>
      </trkpt>
      <trkpt lat="40.6912370" lon="-8.4163300">
        <ele>28.4</ele>
        <time>2019-06-10T11:38:47Z</time>
      </trkpt>
      <trkpt lat="40.6911550" lon="-8.4167460">
        <ele>28.7</ele>
        <time>2019-06-10T11:38:51Z</time>
      </trkpt>
      <trkpt lat="40.6911110" lon="-8.4168420">
        <ele>28.8</ele>
        <time>2019-06-10T11:38:52Z</time>
      </trkpt>
      <trkpt lat="40.6909370" lon="-8.4173170">
        <ele>29.1</ele>
        <time>2019-06-10T11:38:57Z</time>
      </trkpt>
      <trkpt lat="40.6909050" lon="-8.4173940">
        <ele>29.2</ele>
        <time>2019-06-10T11:38:58Z</time>
      </trkpt>
      <trkpt lat="40.6908690" lon="-8.4174740">
        <ele>29.3</ele>
        <time>2019-06-10T11:38:59Z</time>
      </trkpt>
      <trkpt lat="40.6908450" lon="-8.4175480">
        <ele>29.3</ele>
        <time>2019-06-10T11:39:00Z</time>
      </trkpt>
      <trkpt lat="40.6907990" lon="-8.4176270">
        <ele>29.4</ele>
        <time>2019-06-10T11:39:01Z</time>
      </trkpt>
      <trkpt lat="40.6906160" lon="-8.4179560">
        <ele>29.5</ele>
        <time>2019-06-10T11:39:05Z</time>
      </trkpt>
      <trkpt lat="40.6902410" lon="-8.4186040">
        <ele>29.5</ele>
        <time>2019-06-10T11:39:13Z</time>
      </trkpt>
      <trkpt lat="40.6901920" lon="-8.4186850">
        <ele>29.5</ele>
        <time>2019-06-10T11:39:14Z</time>
      </trkpt>
      <trkpt lat="40.6901470" lon="-8.4187670">
        <ele>29.5</ele>
        <time>2019-06-10T11:39:15Z</time>
      </trkpt>
      <trkpt lat="40.6901060" lon="-8.4188430">
        <ele>29.5</ele>
        <time>2019-06-10T11:39:16Z</time>
      </trkpt>
      <trkpt lat="40.6900530" lon="-8.4189150">
        <ele>29.4</ele>
        <time>2019-06-10T11:39:17Z</time>
      </trkpt>
      <trkpt lat="40.6899450" lon="-8.4190580">
        <ele>29.4</ele>
        <time>2019-06-10T11:39:19Z</time>
      </trkpt>
      <trkpt lat="40.6896030" lon="-8.4194570">
        <ele>29.3</ele>
        <time>2019-06-10T11:39:25Z</time>
      </trkpt>
      <trkpt lat="40.6892390" lon="-8.4198010">
        <ele>29.3</ele>
        <time>2019-06-10T11:39:31Z</time>
      </trkpt>
      <trkpt lat="40.6891690" lon="-8.4198440">
        <ele>29.3</ele>
        <time>2019-06-10T11:39:32Z</time>
      </trkpt>
      <trkpt lat="40.6887630" lon="-8.4201060">
        <ele>29.5</ele>
        <time>2019-06-10T11:39:38Z</time>
      </trkpt>
      <trkpt lat="40.6882730" lon="-8.4204210">
        <ele>29.7</ele>
        <time>2019-06-10T11:39:46Z</time>
      </trkpt>
      <trkpt lat="40.6882100" lon="-8.4204490">
        <ele>29.7</ele>
        <time>2019-06-10T11:39:47Z</time>
      </trkpt>
      <trkpt lat="40.6880740" lon="-8.4204860">
        <ele>29.8</ele>
        <time>2019-06-10T11:39:49Z</time>
      </trkpt>
      <trkpt lat="40.6878720" lon="-8.4205010">
        <ele>29.9</ele>
        <time>2019-06-10T11:39:52Z</time>
      </trkpt>
      <trkpt lat="40.6873920" lon="-8.4204820">
        <ele>30.1</ele>
        <time>2019-06-10T11:39:59Z</time>
      </trkpt>
      <trkpt lat="40.6873210" lon="-8.4204820">
        <ele>30.1</ele>
        <time>2019-06-10T11:40:00Z</time>
      </trkpt>
      <trkpt lat="40.6872510" lon="-8.4204830">
        <ele>30.1</ele>
        <time>2019-06-10T11:40:01Z</time>
      </trkpt>
      <trkpt lat="40.6871810" lon="-8.4204820">
        <ele>30.2</ele>
        <time>2019-06-10T11:40:02Z</time>
      </trkpt>
      <trkpt lat="40.6871100" lon="-8.4204860">
        <ele>30.2</ele>
        <time>2019-06-10T11:40:03Z</time>
      </trkpt>
      <trkpt lat="40.6870440" lon="-8.4205140">
        <ele>30.3</ele>
        <time>2019-06-10T11:40:04Z</time>
      </trkpt>
      <trkpt lat="40.6869130" lon="-8.4205710">
        <ele>30.4</ele>
        <time>2019-06-10T11:40:06Z</time>
      </trkpt>
      <trkpt lat="40.6868040" lon="-8.4206480">
        <ele>30.5</ele>
        <time>2019-06-10T11:40:08Z</time>
      </trkpt>
      <trkpt lat="40.6867000" lon="-8.4207370">
        <ele>30.6</ele>
        <time>2019-06-10T11:40:10Z</time>
      </trkpt>
      <trkpt lat="40.6864830" lon="-8.4209940">
        <ele>30.7</ele>
        <time>2019-06-10T11:40:15Z</time>
      </trkpt>
      <trkpt lat="40.6863760" lon="-8.4211740">
        <ele>30.8</ele>
        <time>2019-06-10T11:40:18Z</time>
      </trkpt>
      <trkpt lat="40.6863210" lon="-8.4213180">
        <ele>30.9</ele>
        <time>2019-06-10T11:40:20Z</time>
      </trkpt>
      <trkpt lat="40.6862410" lon="-8.4216350">
        <ele>31.0</ele>
        <time>2019-06-10T11:40:24Z</time>
      </trkpt>
      <trkpt lat="40.6862330" lon="-8.4217200">
        <ele>31.0</ele>
        <time>2019-06-10T11:40:25Z</time>
      </trkpt>
      <trkpt lat="40.6862190" lon="-8.4222570">
        <ele>31.2</ele>
        <time>2019-06-10T11:40:31Z</time>
      </trkpt>
      <trkpt lat="40.6862020" lon="-8.4229450">
        <ele>31.6</ele>
        <time>2019-06-10T11:40:39Z</time>
      </trkpt>
      <trkpt lat="40.6862150" lon="-8.4233420">
        <ele>31.9</ele>
        <time>2019-06-10T11:40:45Z</time>
      </trkpt>
      <trkpt lat="40.6862280" lon="-8.4234160">
        <ele>32.0</ele>
        <time>2019-06-10T11:40:49Z</time>
      </trkpt>
      <trkpt lat="40.6862360" lon="-8.4234000">
        <ele>32.0</ele>
        <time>2019-06-10T11:40:50Z</time>
      </trkpt>
      <trkpt lat="40.6862460" lon="-8.4234040">
        <ele>32.0</ele>
        <time>2019-06-10T11:41:49Z</time>
      </trkpt>
      <trkpt lat="40.6862370" lon="-8.4234170">
        <ele>32.0</ele>
        <time>2019-06-10T11:41:51Z</time>
      </trkpt>
      <trkpt lat="40.6862490" lon="-8.4235960">
        <ele>32.2</ele>
        <time>2019-06-10T11:41:55Z</time>
      </trkpt>
      <trkpt lat="40.6862260" lon="-8.4240560">
        <ele>32.9</ele>
        <time>2019-06-10T11:42:01Z</time>
      </trkpt>
      <trkpt lat="40.6862250" lon="-8.4245320">
        <ele>33.8</ele>
        <time>2019-06-10T11:42:08Z</time>
      </trkpt>
      <trkpt lat="40.6862330" lon="-8.4246280">
        <ele>34.0</ele>
        <time>2019-06-10T11:42:12Z</time>
      </trkpt>
      <trkpt lat="40.6862140" lon="-8.4246960">
        <ele>34.1</ele>
        <time>2019-06-10T11:42:31Z</time>
      </trkpt>
      <trkpt lat="40.6862170" lon="-8.4247480">
        <ele>34.2</ele>
        <time>2019-06-10T11:42:32Z</time>
      </trkpt>
      <trkpt lat="40.6862210" lon="-8.4248010">
        <ele>34.3</ele>
        <time>2019-06-10T11:42:37Z</time>
      </trkpt>
      <trkpt lat="40.6862240" lon="-8.4248530">
        <ele>34.5</ele>
        <time>2019-06-10T11:42:38Z</time>
      </trkpt>
      <trkpt lat="40.6862690" lon="-8.4251970">
        <ele>35.2</ele>
        <time>2019-06-10T11:42:43Z</time>
      </trkpt>
      <trkpt lat="40.6862840" lon="-8.4254820">
        <ele>35.7</ele>
        <time>2019-06-10T11:42:47Z</time>
      </trkpt>
      <trkpt lat="40.6862840" lon="-8.4256070">
        <ele>35.9</ele>
        <time>2019-06-10T11:42:49Z</time>
      </trkpt>
      <trkpt lat="40.6862980" lon="-8.4257190">
        <ele>36.1</ele>
        <time>2019-06-10T11:42:51Z</time>
      </trkpt>
      <trkpt lat="40.6863350" lon="-8.4259240">
        <ele>36.5</ele>
        <time>2019-06-10T11:42:54Z</time>
      </trkpt>
      <trkpt lat="40.6863930" lon="-8.4264660">
        <ele>37.3</ele>
        <time>2019-06-10T11:43:01Z</time>
      </trkpt>
      <trkpt lat="40.6864170" lon="-8.4268560">
        <ele>37.9</ele>
        <time>2019-06-10T11:43:06Z</time>
      </trkpt>
      <trkpt lat="40.6864260" lon="-8.4270480">
        <ele>37.9</ele>
        <time>2019-06-10T11:43:08Z</time>
      </trkpt>
      <trkpt lat="40.6863900" lon="-8.4277410">
        <ele>36.2</ele>
        <time>2019-06-10T11:43:16Z</time>
      </trkpt>
      <trkpt lat="40.6862890" lon="-8.4282230">
        <ele>36.0</ele>
        <time>2019-06-10T11:43:22Z</time>
      </trkpt>
      <trkpt lat="40.6862620" lon="-8.4283060">
        <ele>36.0</ele>
        <time>2019-06-10T11:43:23Z</time>
      </trkpt>
      <trkpt lat="40.6861050" lon="-8.4287210">
        <ele>36.2</ele>
        <time>2019-06-10T11:43:28Z</time>
      </trkpt>
      <trkpt lat="40.6858590" lon="-8.4291970">
        <ele>36.3</ele>
        <time>2019-06-10T11:43:34Z</time>
      </trkpt>
      <trkpt lat="40.6854940" lon="-8.4297690">
        <ele>34.8</ele>
        <time>2019-06-10T11:43:41Z</time>
      </trkpt>
      <trkpt lat="40.6852960" lon="-8.4300710">
        <ele>34.3</ele>
        <time>2019-06-10T11:43:45Z</time>
      </trkpt>
      <trkpt lat="40.6852420" lon="-8.4301470">
        <ele>34.1</ele>
        <time>2019-06-10T11:43:46Z</time>
      </trkpt>
      <trkpt lat="40.6851880" lon="-8.4302190">
        <ele>34.1</ele>
        <time>2019-06-10T11:43:47Z</time>
      </trkpt>
      <trkpt lat="40.6851370" lon="-8.4302850">
        <ele>34.0</ele>
        <time>2019-06-10T11:43:48Z</time>
      </trkpt>
      <trkpt lat="40.6850840" lon="-8.4303480">
        <ele>34.0</ele>
        <time>2019-06-10T11:43:49Z</time>
      </trkpt>
      <trkpt lat="40.6847210" lon="-8.4307930">
        <ele>34.7</ele>
        <time>2019-06-10T11:43:56Z</time>
      </trkpt>
      <trkpt lat="40.6844440" lon="-8.4311120">
        <ele>34.4</ele>
        <time>2019-06-10T11:44:01Z</time>
      </trkpt>
      <trkpt lat="40.6840770" lon="-8.4315190">
        <ele>33.7</ele>
        <time>2019-06-10T11:44:07Z</time>
      </trkpt>
      <trkpt lat="40.6837390" lon="-8.4319000">
        <ele>33.4</ele>
        <time>2019-06-10T11:44:13Z</time>
      </trkpt>
      <trkpt lat="40.6836860" lon="-8.4319560">
        <ele>33.3</ele>
        <time>2019-06-10T11:44:14Z</time>
      </trkpt>
      <trkpt lat="40.6833390" lon="-8.4323590">
        <ele>31.9</ele>
        <time>2019-06-10T11:44:21Z</time>
      </trkpt>
      <trkpt lat="40.6832500" lon="-8.4324910">
        <ele>31.4</ele>
        <time>2019-06-10T11:44:23Z</time>
      </trkpt>
      <trkpt lat="40.6831410" lon="-8.4327190">
        <ele>30.4</ele>
        <time>2019-06-10T11:44:26Z</time>
      </trkpt>
      <trkpt lat="40.6830910" lon="-8.4327840">
        <ele>30.0</ele>
        <time>2019-06-10T11:44:27Z</time>
      </trkpt>
      <trkpt lat="40.6829540" lon="-8.4329930">
        <ele>28.5</ele>
        <time>2019-06-10T11:44:30Z</time>
      </trkpt>
      <trkpt lat="40.6828680" lon="-8.4333360">
        <ele>26.3</ele>
        <time>2019-06-10T11:44:34Z</time>
      </trkpt>
      <trkpt lat="40.6827410" lon="-8.4340770">
        <ele>22.8</ele>
        <time>2019-06-10T11:44:42Z</time>
      </trkpt>
      <trkpt lat="40.6826100" lon="-8.4347700">
        <ele>22.7</ele>
        <time>2019-06-10T11:44:50Z</time>
      </trkpt>
      <trkpt lat="40.6825490" lon="-8.4354250">
        <ele>23.2</ele>
        <time>2019-06-10T11:44:57Z</time>
      </trkpt>
      <trkpt lat="40.6825260" lon="-8.4357230">
        <ele>23.3</ele>
        <time>2019-06-10T11:45:01Z</time>
      </trkpt>
      <trkpt lat="40.6825310" lon="-8.4358330">
        <ele>23.1</ele>
        <time>2019-06-10T11:45:03Z</time>
      </trkpt>
      <trkpt lat="40.6825040" lon="-8.4360140">
        <ele>22.8</ele>
        <time>2019-06-10T11:45:06Z</time>
      </trkpt>
      <trkpt lat="40.6824300" lon="-8.4362780">
        <ele>22.7</ele>
        <time>2019-06-10T11:45:10Z</time>
      </trkpt>
      <trkpt lat="40.6824140" lon="-8.4363560">
        <ele>22.7</ele>
        <time>2019-06-10T11:45:11Z</time>
      </trkpt>
      <trkpt lat="40.6823900" lon="-8.4364360">
        <ele>22.7</ele>
        <time>2019-06-10T11:45:12Z</time>
      </trkpt>
      <trkpt lat="40.6823620" lon="-8.4365120">
        <ele>22.7</ele>
        <time>2019-06-10T11:45:13Z</time>
      </trkpt>
      <trkpt lat="40.6823340" lon="-8.4365960">
        <ele>22.7</ele>
        <time>2019-06-10T11:45:14Z</time>
      </trkpt>
      <trkpt lat="40.6822380" lon="-8.4369290">
        <ele>22.8</ele>
        <time>2019-06-10T11:45:18Z</time>
      </trkpt>
      <trkpt lat="40.6821110" lon="-8.4372870">
        <ele>24.0</ele>
        <time>2019-06-10T11:45:22Z</time>
      </trkpt>
      <trkpt lat="40.6820600" lon="-8.4373650">
        <ele>24.7</ele>
        <time>2019-06-10T11:45:23Z</time>
      </trkpt>
      <trkpt lat="40.6818150" lon="-8.4376060">
        <ele>26.8</ele>
        <time>2019-06-10T11:45:27Z</time>
      </trkpt>
      <trkpt lat="40.6814060" lon="-8.4379140">
        <ele>29.1</ele>
        <time>2019-06-10T11:45:34Z</time>
      </trkpt>
      <trkpt lat="40.6811630" lon="-8.4380140">
        <ele>29.9</ele>
        <time>2019-06-10T11:45:38Z</time>
      </trkpt>
      <trkpt lat="40.6811040" lon="-8.4380340">
        <ele>30.0</ele>
        <time>2019-06-10T11:45:39Z</time>
      </trkpt>
      <trkpt lat="40.6810440" lon="-8.4380560">
        <ele>30.1</ele>
        <time>2019-06-10T11:45:40Z</time>
      </trkpt>
      <trkpt lat="40.6809850" lon="-8.4380780">
        <ele>30.3</ele>
        <time>2019-06-10T11:45:41Z</time>
      </trkpt>
      <trkpt lat="40.6809270" lon="-8.4380920">
        <ele>29.9</ele>
        <time>2019-06-10T11:45:42Z</time>
      </trkpt>
      <trkpt lat="40.6805040" lon="-8.4382640">
        <ele>27.4</ele>
        <time>2019-06-10T11:45:49Z</time>
      </trkpt>
      <trkpt lat="40.6800670" lon="-8.4384650">
        <ele>24.9</ele>
        <time>2019-06-10T11:45:56Z</time>
      </trkpt>
      <trkpt lat="40.6800090" lon="-8.4385020">
        <ele>24.6</ele>
        <time>2019-06-10T11:45:57Z</time>
      </trkpt>
      <trkpt lat="40.6799640" lon="-8.4385430">
        <ele>24.3</ele>
        <time>2019-06-10T11:45:58Z</time>
      </trkpt>
      <trkpt lat="40.6799180" lon="-8.4385900">
        <ele>24.1</ele>
        <time>2019-06-10T11:45:59Z</time>
      </trkpt>
      <trkpt lat="40.6798730" lon="-8.4386350">
        <ele>24.4</ele>
        <time>2019-06-10T11:46:00Z</time>
      </trkpt>
      <trkpt lat="40.6798410" lon="-8.4386900">
        <ele>24.8</ele>
        <time>2019-06-10T11:46:01Z</time>
      </trkpt>
      <trkpt lat="40.6798270" lon="-8.4387580">
        <ele>25.1</ele>
        <time>2019-06-10T11:46:02Z</time>
      </trkpt>
      <trkpt lat="40.6798240" lon="-8.4388360">
        <ele>25.7</ele>
        <time>2019-06-10T11:46:03Z</time>
      </trkpt>
      <trkpt lat="40.6798240" lon="-8.4389120">
        <ele>26.1</ele>
        <time>2019-06-10T11:46:04Z</time>
      </trkpt>
      <trkpt lat="40.6798220" lon="-8.4389840">
        <ele>26.5</ele>
        <time>2019-06-10T11:46:05Z</time>
      </trkpt>
      <trkpt lat="40.6798060" lon="-8.4390550">
        <ele>26.8</ele>
        <time>2019-06-10T11:46:06Z</time>
      </trkpt>
      <trkpt lat="40.6797410" lon="-8.4391690">
        <ele>27.2</ele>
        <time>2019-06-10T11:46:08Z</time>
      </trkpt>
      <trkpt lat="40.6795600" lon="-8.4391830">
        <ele>26.4</ele>
        <time>2019-06-10T11:46:11Z</time>
      </trkpt>
      <trkpt lat="40.6793660" lon="-8.4390330">
        <ele>26.7</ele>
        <time>2019-06-10T11:46:14Z</time>
      </trkpt>
      <trkpt lat="40.6790800" lon="-8.4389430">
        <ele>27.1</ele>
        <time>2019-06-10T11:46:18Z</time>
      </trkpt>
      <trkpt lat="40.6789950" lon="-8.4389410">
        <ele>27.0</ele>
        <time>2019-06-10T11:46:19Z</time>
      </trkpt>
      <trkpt lat="40.6789120" lon="-8.4389490">
        <ele>27.0</ele>
        <time>2019-06-10T11:46:20Z</time>
      </trkpt>
      <trkpt lat="40.6788220" lon="-8.4389640">
        <ele>26.9</ele>
        <time>2019-06-10T11:46:21Z</time>
      </trkpt>
      <trkpt lat="40.6787320" lon="-8.4389870">
        <ele>26.8</ele>
        <time>2019-06-10T11:46:22Z</time>
      </trkpt>
      <trkpt lat="40.6786460" lon="-8.4390400">
        <ele>26.8</ele>
        <time>2019-06-10T11:46:23Z</time>
      </trkpt>
      <trkpt lat="40.6785590" lon="-8.4390860">
        <ele>26.8</ele>
        <time>2019-06-10T11:46:24Z</time>
      </trkpt>
      <trkpt lat="40.6784680" lon="-8.4391320">
        <ele>26.8</ele>
        <time>2019-06-10T11:46:25Z</time>
      </trkpt>
      <trkpt lat="40.6783810" lon="-8.4391850">
        <ele>26.8</ele>
        <time>2019-06-10T11:46:26Z</time>
      </trkpt>
      <trkpt lat="40.6782780" lon="-8.4392690">
        <ele>26.8</ele>
        <time>2019-06-10T11:46:27Z</time>
      </trkpt>
      <trkpt lat="40.6782580" lon="-8.4393820">
        <ele>26.7</ele>
        <time>2019-06-10T11:46:28Z</time>
      </trkpt>
      <trkpt lat="40.6782120" lon="-8.4394740">
        <ele>26.6</ele>
        <time>2019-06-10T11:46:29Z</time>
      </trkpt>
      <trkpt lat="40.6781120" lon="-8.4397200">
        <ele>26.5</ele>
        <time>2019-06-10T11:46:32Z</time>
      </trkpt>
      <trkpt lat="40.6779270" lon="-8.4401530">
        <ele>26.2</ele>
        <time>2019-06-10T11:46:37Z</time>
      </trkpt>
      <trkpt lat="40.6778180" lon="-8.4407500">
        <ele>25.8</ele>
        <time>2019-06-10T11:46:43Z</time>
      </trkpt>
      <trkpt lat="40.6776770" lon="-8.4415270">
        <ele>25.7</ele>
        <time>2019-06-10T11:46:51Z</time>
      </trkpt>
      <trkpt lat="40.6776600" lon="-8.4416250">
        <ele>25.7</ele>
        <time>2019-06-10T11:46:52Z</time>
      </trkpt>
      <trkpt lat="40.6775430" lon="-8.4422610">
        <ele>25.3</ele>
        <time>2019-06-10T11:46:59Z</time>
      </trkpt>
      <trkpt lat="40.6773870" lon="-8.4427070">
        <ele>25.4</ele>
        <time>2019-06-10T11:47:05Z</time>
      </trkpt>
      <trkpt lat="40.6772030" lon="-8.4430400">
        <ele>25.2</ele>
        <time>2019-06-10T11:47:11Z</time>
      </trkpt>
      <trkpt lat="40.6771640" lon="-8.4430880">
        <ele>25.2</ele>
        <time>2019-06-10T11:47:12Z</time>
      </trkpt>
      <trkpt lat="40.6769430" lon="-8.4433140">
        <ele>25.2</ele>
        <time>2019-06-10T11:47:18Z</time>
      </trkpt>
      <trkpt lat="40.6766450" lon="-8.4436120">
        <ele>25.4</ele>
        <time>2019-06-10T11:47:26Z</time>
      </trkpt>
      <trkpt lat="40.6763680" lon="-8.4439020">
        <ele>25.4</ele>
        <time>2019-06-10T11:47:33Z</time>
      </trkpt>
      <trkpt lat="40.6761290" lon="-8.4441430">
        <ele>25.0</ele>
        <time>2019-06-10T11:47:39Z</time>
      </trkpt>
      <trkpt lat="40.6758750" lon="-8.4443930">
        <ele>24.6</ele>
        <time>2019-06-10T11:47:46Z</time>
      </trkpt>
      <trkpt lat="40.6756410" lon="-8.4446800">
        <ele>23.7</ele>
        <time>2019-06-10T11:47:53Z</time>
      </trkpt>
      <trkpt lat="40.6753920" lon="-8.4450990">
        <ele>24.3</ele>
        <time>2019-06-10T11:48:02Z</time>
      </trkpt>
      <trkpt lat="40.6751550" lon="-8.4454750">
        <ele>24.8</ele>
        <time>2019-06-10T11:48:08Z</time>
      </trkpt>
      <trkpt lat="40.6748070" lon="-8.4460480">
        <ele>25.7</ele>
        <time>2019-06-10T11:48:16Z</time>
      </trkpt>
      <trkpt lat="40.6747230" lon="-8.4461810">
        <ele>25.9</ele>
        <time>2019-06-10T11:48:18Z</time>
      </trkpt>
      <trkpt lat="40.6744290" lon="-8.4466380">
        <ele>26.6</ele>
        <time>2019-06-10T11:48:25Z</time>
      </trkpt>
      <trkpt lat="40.6740670" lon="-8.4470350">
        <ele>27.9</ele>
        <time>2019-06-10T11:48:32Z</time>
      </trkpt>
      <trkpt lat="40.6736780" lon="-8.4474140">
        <ele>28.7</ele>
        <time>2019-06-10T11:48:40Z</time>
      </trkpt>
      <trkpt lat="40.6734060" lon="-8.4477390">
        <ele>28.8</ele>
        <time>2019-06-10T11:48:47Z</time>
      </trkpt>
      <trkpt lat="40.6731270" lon="-8.4480680">
        <ele>28.8</ele>
        <time>2019-06-10T11:48:54Z</time>
      </trkpt>
      <trkpt lat="40.6727990" lon="-8.4485240">
        <ele>29.3</ele>
        <time>2019-06-10T11:49:02Z</time>
      </trkpt>
      <trkpt lat="40.6724330" lon="-8.4488810">
        <ele>31.0</ele>
        <time>2019-06-10T11:49:09Z</time>
      </trkpt>
      <trkpt lat="40.6722840" lon="-8.4490670">
        <ele>31.1</ele>
        <time>2019-06-10T11:49:12Z</time>
      </trkpt>
      <trkpt lat="40.6722470" lon="-8.4491350">
        <ele>30.8</ele>
        <time>2019-06-10T11:49:13Z</time>
      </trkpt>
      <trkpt lat="40.6722150" lon="-8.4492070">
        <ele>30.3</ele>
        <time>2019-06-10T11:49:14Z</time>
      </trkpt>
      <trkpt lat="40.6721840" lon="-8.4492790">
        <ele>29.9</ele>
        <time>2019-06-10T11:49:15Z</time>
      </trkpt>
      <trkpt lat="40.6721530" lon="-8.4493480">
        <ele>29.5</ele>
        <time>2019-06-10T11:49:16Z</time>
      </trkpt>
      <trkpt lat="40.6719910" lon="-8.4497950">
        <ele>26.6</ele>
        <time>2019-06-10T11:49:22Z</time>
      </trkpt>
      <trkpt lat="40.6719380" lon="-8.4499870">
        <ele>25.8</ele>
        <time>2019-06-10T11:49:25Z</time>
      </trkpt>
      <trkpt lat="40.6718930" lon="-8.4501680">
        <ele>25.7</ele>
        <time>2019-06-10T11:49:28Z</time>
      </trkpt>
      <trkpt lat="40.6719110" lon="-8.4503690">
        <ele>25.6</ele>
        <time>2019-06-10T11:49:31Z</time>
      </trkpt>
      <trkpt lat="40.6719220" lon="-8.4504340">
        <ele>25.6</ele>
        <time>2019-06-10T11:49:32Z</time>
      </trkpt>
      <trkpt lat="40.6719420" lon="-8.4505460">
        <ele>25.5</ele>
        <time>2019-06-10T11:49:34Z</time>
      </trkpt>
      <trkpt lat="40.6719250" lon="-8.4507230">
        <ele>25.3</ele>
        <time>2019-06-10T11:49:37Z</time>
      </trkpt>
      <trkpt lat="40.6719180" lon="-8.4507810">
        <ele>25.2</ele>
        <time>2019-06-10T11:49:38Z</time>
      </trkpt>
      <trkpt lat="40.6719050" lon="-8.4511360">
        <ele>26.0</ele>
        <time>2019-06-10T11:49:44Z</time>
      </trkpt>
      <trkpt lat="40.6719090" lon="-8.4511910">
        <ele>26.2</ele>
        <time>2019-06-10T11:49:45Z</time>
      </trkpt>
      <trkpt lat="40.6719380" lon="-8.4516210">
        <ele>26.8</ele>
        <time>2019-06-10T11:49:53Z</time>
      </trkpt>
      <trkpt lat="40.6719590" lon="-8.4520100">
        <ele>27.6</ele>
        <time>2019-06-10T11:50:01Z</time>
      </trkpt>
      <trkpt lat="40.6719620" lon="-8.4522370">
        <ele>27.8</ele>
        <time>2019-06-10T11:50:07Z</time>
      </trkpt>
      <trkpt lat="40.6719740" lon="-8.4524020">
        <ele>27.9</ele>
        <time>2019-06-10T11:50:13Z</time>
      </trkpt>
      <trkpt lat="40.6719720" lon="-8.4524160">
        <ele>27.9</ele>
        <time>2019-06-10T11:50:15Z</time>
      </trkpt>
      <trkpt lat="40.6719700" lon="-8.4524160">
        <ele>27.9</ele>
        <time>2019-06-10T11:50:27Z</time>
      </trkpt>
      <trkpt lat="40.6719810" lon="-8.4524310">
        <ele>28.3</ele>
        <time>2019-06-10T11:50:28Z</time>
      </trkpt>
      <trkpt lat="40.6720320" lon="-8.4526610">
        <ele>28.4</ele>
        <time>2019-06-10T11:50:33Z</time>
      </trkpt>
      <trkpt lat="40.6721070" lon="-8.4530430">
        <ele>28.6</ele>
        <time>2019-06-10T11:50:40Z</time>
      </trkpt>
      <trkpt lat="40.6721730" lon="-8.4530890">
        <ele>29.4</ele>
        <time>2019-06-10T11:50:43Z</time>
      </trkpt>
      <trkpt lat="40.6722020" lon="-8.4530750">
        <ele>30.0</ele>
        <time>2019-06-10T11:50:44Z</time>
      </trkpt>
      <trkpt lat="40.6722520" lon="-8.4528790">
        <ele>31.2</ele>
        <time>2019-06-10T11:50:50Z</time>
      </trkpt>
      <trkpt lat="40.6722300" lon="-8.4527210">
        <ele>30.9</ele>
        <time>2019-06-10T11:50:56Z</time>
      </trkpt>
      <trkpt lat="40.6722280" lon="-8.4527160">
        <ele>30.9</ele>
        <time>2019-06-10T11:50:57Z</time>
      </trkpt>
      <trkpt lat="40.6722220" lon="-8.4526920">
        <ele>30.9</ele>
        <time>2019-06-10T11:55:25Z</time>
      </trkpt>
      <trkpt lat="40.6722280" lon="-8.4526890">
        <ele>30.9</ele>
        <time>2019-06-10T11:55:27Z</time>
      </trkpt>
      <trkpt lat="40.6722380" lon="-8.4526870">
        <ele>31.0</ele>
        <time>2019-06-10T11:55:30Z</time>
      </trkpt>
      <trkpt lat="40.6721300" lon="-8.4526780">
        <ele>29.6</ele>
        <time>2019-06-10T11:56:33Z</time>
      </trkpt>
      <trkpt lat="40.6721150" lon="-8.4526800">
        <ele>29.6</ele>
        <time>2019-06-10T11:56:36Z</time>
      </trkpt>
      <trkpt lat="40.6721260" lon="-8.4526650">
        <ele>29.7</ele>
        <time>2019-06-10T11:56:50Z</time>
      </trkpt>
      <trkpt lat="40.6721320" lon="-8.4526590">
        <ele>29.7</ele>
        <time>2019-06-10T11:56:53Z</time>
      </trkpt>
      <trkpt lat="40.6721330" lon="-8.4526570">
        <ele>29.7</ele>
        <time>2019-06-10T11:56:56Z</time>
      </trkpt>
      <trkpt lat="40.6721380" lon="-8.4526560">
        <ele>29.7</ele>
        <time>2019-06-10T11:57:00Z</time>
      </trkpt>
      <trkpt lat="40.6721440" lon="-8.4526600">
        <ele>30.1</ele>
        <time>2019-06-10T11:57:03Z</time>
      </trkpt>
      <trkpt lat="40.6721280" lon="-8.4526580">
        <ele>29.7</ele>
        <time>2019-06-10T11:57:08Z</time>
      </trkpt>
      <trkpt lat="40.6721220" lon="-8.4526590">
        <ele>29.7</ele>
        <time>2019-06-10T11:57:12Z</time>
      </trkpt>
      <trkpt lat="40.6721100" lon="-8.4526640">
        <ele>29.4</ele>
        <time>2019-06-10T11:57:33Z</time>
      </trkpt>
      <trkpt lat="40.6721140" lon="-8.4526630">
        <ele>29.8</ele>
        <time>2019-06-10T11:57:50Z</time>
      </trkpt>
      <trkpt lat="40.6720980" lon="-8.4526640">
        <ele>29.4</ele>
        <time>2019-06-10T11:57:54Z</time>
      </trkpt>
      <trkpt lat="40.6720660" lon="-8.4526610">
        <ele>29.1</ele>
        <time>2019-06-10T11:58:06Z</time>
      </trkpt>
      <trkpt lat="40.6720240" lon="-8.4527140">
        <ele>28.7</ele>
        <time>2019-06-10T11:58:25Z</time>
      </trkpt>
      <trkpt lat="40.6720630" lon="-8.4527530">
        <ele>28.9</ele>
        <time>2019-06-10T11:58:45Z</time>
      </trkpt>
      <trkpt lat="40.6720310" lon="-8.4526920">
        <ele>28.7</ele>
        <time>2019-06-10T11:59:04Z</time>
      </trkpt>
      <trkpt lat="40.6719450" lon="-8.4526910">
        <ele>27.6</ele>
        <time>2019-06-10T11:59:20Z</time>
      </trkpt>
      <trkpt lat="40.6719400" lon="-8.4526920">
        <ele>27.6</ele>
        <time>2019-06-10T11:59:21Z</time>
      </trkpt>
      <trkpt lat="40.6719330" lon="-8.4526910">
        <ele>27.7</ele>
        <time>2019-06-10T11:59:22Z</time>
      </trkpt>
      <trkpt lat="40.6719270" lon="-8.4526920">
        <ele>27.7</ele>
        <time>2019-06-10T11:59:23Z</time>
      </trkpt>
      <trkpt lat="40.6719200" lon="-8.4526950">
        <ele>27.6</ele>
        <time>2019-06-10T11:59:24Z</time>
      </trkpt>
      <trkpt lat="40.6719160" lon="-8.4526900">
        <ele>27.7</ele>
        <time>2019-06-10T11:59:42Z</time>
      </trkpt>
      <trkpt lat="40.6719710" lon="-8.4526780">
        <ele>28.1</ele>
        <time>2019-06-10T11:59:56Z</time>
      </trkpt>
      <trkpt lat="40.6719580" lon="-8.4526830">
        <ele>28.1</ele>
        <time>2019-06-10T12:00:13Z</time>
      </trkpt>
      <trkpt lat="40.6719690" lon="-8.4526860">
        <ele>28.1</ele>
        <time>2019-06-10T12:00:16Z</time>
      </trkpt>
      <trkpt lat="40.6720990" lon="-8.4526810">
        <ele>29.6</ele>
        <time>2019-06-10T12:00:24Z</time>
      </trkpt>
      <trkpt lat="40.6721200" lon="-8.4526870">
        <ele>30.0</ele>
        <time>2019-06-10T12:00:27Z</time>
      </trkpt>
      <trkpt lat="40.6721270" lon="-8.4526770">
        <ele>30.0</ele>
        <time>2019-06-10T12:00:40Z</time>
      </trkpt>
      <trkpt lat="40.6721020" lon="-8.4526600">
        <ele>29.6</ele>
        <time>2019-06-10T12:00:47Z</time>
      </trkpt>
      <trkpt lat="40.6720710" lon="-8.4526520">
        <ele>29.3</ele>
        <time>2019-06-10T12:01:02Z</time>
      </trkpt>
      <trkpt lat="40.6721090" lon="-8.4526960">
        <ele>29.6</ele>
        <time>2019-06-10T12:01:14Z</time>
      </trkpt>
      <trkpt lat="40.6721070" lon="-8.4526880">
        <ele>29.7</ele>
        <time>2019-06-10T12:01:17Z</time>
      </trkpt>
      <trkpt lat="40.6721560" lon="-8.4527100">
        <ele>30.5</ele>
        <time>2019-06-10T12:01:22Z</time>
      </trkpt>
      <trkpt lat="40.6721680" lon="-8.4527390">
        <ele>30.4</ele>
        <time>2019-06-10T12:01:24Z</time>
      </trkpt>
      <trkpt lat="40.6721720" lon="-8.4527590">
        <ele>30.4</ele>
        <time>2019-06-10T12:01:25Z</time>
      </trkpt>
      <trkpt lat="40.6721810" lon="-8.4527770">
        <ele>30.9</ele>
        <time>2019-06-10T12:01:26Z</time>
      </trkpt>
      <trkpt lat="40.6721890" lon="-8.4528090">
        <ele>30.9</ele>
        <time>2019-06-10T12:01:27Z</time>
      </trkpt>
      <trkpt lat="40.6721930" lon="-8.4528350">
        <ele>30.8</ele>
        <time>2019-06-10T12:01:28Z</time>
      </trkpt>
      <trkpt lat="40.6721990" lon="-8.4528600">
        <ele>30.8</ele>
        <time>2019-06-10T12:01:29Z</time>
      </trkpt>
      <trkpt lat="40.6722290" lon="-8.4530490">
        <ele>31.1</ele>
        <time>2019-06-10T12:01:37Z</time>
      </trkpt>
      <trkpt lat="40.6722360" lon="-8.4530570">
        <ele>31.2</ele>
        <time>2019-06-10T12:01:40Z</time>
      </trkpt>
      <trkpt lat="40.6722580" lon="-8.4530410">
        <ele>31.7</ele>
        <time>2019-06-10T12:01:49Z</time>
      </trkpt>
      <trkpt lat="40.6722700" lon="-8.4530390">
        <ele>31.7</ele>
        <time>2019-06-10T12:01:50Z</time>
      </trkpt>
      <trkpt lat="40.6722930" lon="-8.4530800">
        <ele>32.2</ele>
        <time>2019-06-10T12:01:57Z</time>
      </trkpt>
      <trkpt lat="40.6722970" lon="-8.4531070">
        <ele>32.2</ele>
        <time>2019-06-10T12:01:58Z</time>
      </trkpt>
      <trkpt lat="40.6723060" lon="-8.4532020">
        <ele>32.3</ele>
        <time>2019-06-10T12:02:01Z</time>
      </trkpt>
      <trkpt lat="40.6723110" lon="-8.4532430">
        <ele>32.3</ele>
        <time>2019-06-10T12:02:02Z</time>
      </trkpt>
      <trkpt lat="40.6723190" lon="-8.4533350">
        <ele>32.4</ele>
        <time>2019-06-10T12:02:04Z</time>
      </trkpt>
      <trkpt lat="40.6723180" lon="-8.4533870">
        <ele>32.4</ele>
        <time>2019-06-10T12:02:05Z</time>
      </trkpt>
      <trkpt lat="40.6723100" lon="-8.4534350">
        <ele>32.4</ele>
        <time>2019-06-10T12:02:06Z</time>
      </trkpt>
      <trkpt lat="40.6723010" lon="-8.4534840">
        <ele>32.5</ele>
        <time>2019-06-10T12:02:07Z</time>
      </trkpt>
      <trkpt lat="40.6722920" lon="-8.4535340">
        <ele>32.5</ele>
        <time>2019-06-10T12:02:08Z</time>
      </trkpt>
      <trkpt lat="40.6722800" lon="-8.4536430">
        <ele>32.6</ele>
        <time>2019-06-10T12:02:12Z</time>
      </trkpt>
      <trkpt lat="40.6722800" lon="-8.4536440">
        <ele>32.6</ele>
        <time>2019-06-10T12:02:13Z</time>
      </trkpt>
      <trkpt lat="40.6722800" lon="-8.4535370">
        <ele>32.7</ele>
        <time>2019-06-10T12:02:20Z</time>
      </trkpt>
      <trkpt lat="40.6722880" lon="-8.4535010">
        <ele>32.7</ele>
        <time>2019-06-10T12:02:21Z</time>
      </trkpt>
      <trkpt lat="40.6723040" lon="-8.4533760">
        <ele>32.8</ele>
        <time>2019-06-10T12:02:24Z</time>
      </trkpt>
      <trkpt lat="40.6723050" lon="-8.4533350">
        <ele>32.9</ele>
        <time>2019-06-10T12:02:25Z</time>
      </trkpt>
      <trkpt lat="40.6723040" lon="-8.4533000">
        <ele>32.9</ele>
        <time>2019-06-10T12:02:26Z</time>
      </trkpt>
      <trkpt lat="40.6723050" lon="-8.4532630">
        <ele>32.9</ele>
        <time>2019-06-10T12:02:27Z</time>
      </trkpt>
      <trkpt lat="40.6723030" lon="-8.4532270">
        <ele>33.0</ele>
        <time>2019-06-10T12:02:28Z</time>
      </trkpt>
      <trkpt lat="40.6723270" lon="-8.4529760">
        <ele>33.1</ele>
        <time>2019-06-10T12:02:36Z</time>
      </trkpt>
      <trkpt lat="40.6724250" lon="-8.4528900">
        <ele>34.1</ele>
        <time>2019-06-10T12:02:44Z</time>
      </trkpt>
      <trkpt lat="40.6724830" lon="-8.4529290">
        <ele>34.1</ele>
        <time>2019-06-10T12:02:49Z</time>
      </trkpt>
      <trkpt lat="40.6725120" lon="-8.4529620">
        <ele>34.2</ele>
        <time>2019-06-10T12:02:51Z</time>
      </trkpt>
      <trkpt lat="40.6725760" lon="-8.4530790">
        <ele>34.2</ele>
        <time>2019-06-10T12:02:58Z</time>
      </trkpt>
      <trkpt lat="40.6725700" lon="-8.4531290">
        <ele>34.3</ele>
        <time>2019-06-10T12:03:03Z</time>
      </trkpt>
      <trkpt lat="40.6725820" lon="-8.4532360">
        <ele>34.4</ele>
        <time>2019-06-10T12:03:05Z</time>
      </trkpt>
      <trkpt lat="40.6726060" lon="-8.4536260">
        <ele>35.7</ele>
        <time>2019-06-10T12:03:13Z</time>
      </trkpt>
      <trkpt lat="40.6725900" lon="-8.4537490">
        <ele>36.2</ele>
        <time>2019-06-10T12:03:16Z</time>
      </trkpt>
      <trkpt lat="40.6725760" lon="-8.4537830">
        <ele>36.1</ele>
        <time>2019-06-10T12:03:17Z</time>
      </trkpt>
      <trkpt lat="40.6725680" lon="-8.4538180">
        <ele>35.9</ele>
        <time>2019-06-10T12:03:18Z</time>
      </trkpt>
      <trkpt lat="40.6725600" lon="-8.4538630">
        <ele>35.8</ele>
        <time>2019-06-10T12:03:19Z</time>
      </trkpt>
      <trkpt lat="40.6725510" lon="-8.4539150">
        <ele>35.6</ele>
        <time>2019-06-10T12:03:20Z</time>
      </trkpt>
      <trkpt lat="40.6725090" lon="-8.4541360">
        <ele>30.9</ele>
        <time>2019-06-10T12:03:23Z</time>
      </trkpt>
      <trkpt lat="40.6724840" lon="-8.4542080">
        <ele>29.8</ele>
        <time>2019-06-10T12:03:24Z</time>
      </trkpt>
      <trkpt lat="40.6724370" lon="-8.4542910">
        <ele>28.7</ele>
        <time>2019-06-10T12:03:25Z</time>
      </trkpt>
      <trkpt lat="40.6723950" lon="-8.4543680">
        <ele>27.6</ele>
        <time>2019-06-10T12:03:26Z</time>
      </trkpt>
      <trkpt lat="40.6723590" lon="-8.4544480">
        <ele>26.6</ele>
        <time>2019-06-10T12:03:27Z</time>
      </trkpt>
      <trkpt lat="40.6723350" lon="-8.4545450">
        <ele>25.5</ele>
        <time>2019-06-10T12:03:28Z</time>
      </trkpt>
      <trkpt lat="40.6723200" lon="-8.4546460">
        <ele>24.7</ele>
        <time>2019-06-10T12:03:29Z</time>
      </trkpt>
      <trkpt lat="40.6723000" lon="-8.4547480">
        <ele>23.8</ele>
        <time>2019-06-10T12:03:30Z</time>
      </trkpt>
      <trkpt lat="40.6722450" lon="-8.4548310">
        <ele>23.0</ele>
        <time>2019-06-10T12:03:31Z</time>
      </trkpt>
      <trkpt lat="40.6721830" lon="-8.4548900">
        <ele>22.4</ele>
        <time>2019-06-10T12:03:32Z</time>
      </trkpt>
      <trkpt lat="40.6721110" lon="-8.4549420">
        <ele>21.7</ele>
        <time>2019-06-10T12:03:33Z</time>
      </trkpt>
      <trkpt lat="40.6720490" lon="-8.4549680">
        <ele>21.2</ele>
        <time>2019-06-10T12:03:34Z</time>
      </trkpt>
      <trkpt lat="40.6719880" lon="-8.4549750">
        <ele>20.4</ele>
        <time>2019-06-10T12:03:35Z</time>
      </trkpt>
      <trkpt lat="40.6719350" lon="-8.4549610">
        <ele>20.0</ele>
        <time>2019-06-10T12:03:36Z</time>
      </trkpt>
      <trkpt lat="40.6718950" lon="-8.4549700">
        <ele>19.7</ele>
        <time>2019-06-10T12:03:37Z</time>
      </trkpt>
      <trkpt lat="40.6718510" lon="-8.4549810">
        <ele>19.4</ele>
        <time>2019-06-10T12:03:38Z</time>
      </trkpt>
      <trkpt lat="40.6716790" lon="-8.4550540">
        <ele>18.2</ele>
        <time>2019-06-10T12:03:42Z</time>
      </trkpt>
      <trkpt lat="40.6716360" lon="-8.4550900">
        <ele>17.8</ele>
        <time>2019-06-10T12:03:43Z</time>
      </trkpt>
      <trkpt lat="40.6715900" lon="-8.4551080">
        <ele>17.5</ele>
        <time>2019-06-10T12:03:44Z</time>
      </trkpt>
      <trkpt lat="40.6715470" lon="-8.4551220">
        <ele>17.2</ele>
        <time>2019-06-10T12:03:45Z</time>
      </trkpt>
      <trkpt lat="40.6715140" lon="-8.4551270">
        <ele>16.9</ele>
        <time>2019-06-10T12:03:46Z</time>
      </trkpt>
      <trkpt lat="40.6714880" lon="-8.4551150">
        <ele>16.7</ele>
        <time>2019-06-10T12:03:47Z</time>
      </trkpt>
      <trkpt lat="40.6714690" lon="-8.4551070">
        <ele>16.6</ele>
        <time>2019-06-10T12:03:48Z</time>
      </trkpt>
      <trkpt lat="40.6714260" lon="-8.4550730">
        <ele>16.3</ele>
        <time>2019-06-10T12:03:51Z</time>
      </trkpt>
      <trkpt lat="40.6714250" lon="-8.4550670">
        <ele>16.2</ele>
        <time>2019-06-10T12:03:52Z</time>
      </trkpt>
      <trkpt lat="40.6779970" lon="-8.4713200">
        <ele>130.7</ele>
        <time>2019-08-15T06:36:46Z</time>
      </trkpt>
      <trkpt lat="40.6779980" lon="-8.4713190">
        <ele>130.7</ele>
        <time>2019-08-15T06:36:47Z</time>
      </trkpt>
      <trkpt lat="40.6780080" lon="-8.4713330">
        <ele>130.7</ele>
        <time>2019-08-15T06:37:02Z</time>
      </trkpt>
      <trkpt lat="40.6780510" lon="-8.4714130">
        <ele>130.9</ele>
        <time>2019-08-15T06:37:06Z</time>
      </trkpt>
      <trkpt lat="40.6781350" lon="-8.4714800">
        <ele>131.5</ele>
        <time>2019-08-15T06:37:11Z</time>
      </trkpt>
      <trkpt lat="40.6782920" lon="-8.4714330">
        <ele>132.1</ele>
        <time>2019-08-15T06:37:18Z</time>
      </trkpt>
      <trkpt lat="40.6785910" lon="-8.4713440">
        <ele>132.8</ele>
        <time>2019-08-15T06:37:29Z</time>
      </trkpt>
      <trkpt lat="40.6788770" lon="-8.4712430">
        <ele>133.2</ele>
        <time>2019-08-15T06:37:39Z</time>
      </trkpt>
      <trkpt lat="40.6792230" lon="-8.4711290">
        <ele>132.6</ele>
        <time>2019-08-15T06:37:50Z</time>
      </trkpt>
      <trkpt lat="40.6796260" lon="-8.4710080">
        <ele>131.4</ele>
        <time>2019-08-15T06:38:02Z</time>
      </trkpt>
      <trkpt lat="40.6799760" lon="-8.4708480">
        <ele>129.8</ele>
        <time>2019-08-15T06:38:12Z</time>
      </trkpt>
      <trkpt lat="40.6802980" lon="-8.4706510">
        <ele>127.6</ele>
        <time>2019-08-15T06:38:21Z</time>
      </trkpt>
      <trkpt lat="40.6805400" lon="-8.4703990">
        <ele>126.0</ele>
        <time>2019-08-15T06:38:27Z</time>
      </trkpt>
      <trkpt lat="40.6805940" lon="-8.4703760">
        <ele>126.0</ele>
        <time>2019-08-15T06:38:28Z</time>
      </trkpt>
      <trkpt lat="40.6807580" lon="-8.4703800">
        <ele>126.1</ele>
        <time>2019-08-15T06:38:31Z</time>
      </trkpt>
      <trkpt lat="40.6809230" lon="-8.4705070">
        <ele>127.0</ele>
        <time>2019-08-15T06:38:35Z</time>
      </trkpt>
      <trkpt lat="40.6809960" lon="-8.4707020">
        <ele>127.6</ele>
        <time>2019-08-15T06:38:39Z</time>
      </trkpt>
      <trkpt lat="40.6810020" lon="-8.4707530">
        <ele>127.7</ele>
        <time>2019-08-15T06:38:40Z</time>
      </trkpt>
      <trkpt lat="40.6809990" lon="-8.4708020">
        <ele>128.0</ele>
        <time>2019-08-15T06:38:41Z</time>
      </trkpt>
      <trkpt lat="40.6809940" lon="-8.4708520">
        <ele>128.0</ele>
        <time>2019-08-15T06:38:42Z</time>
      </trkpt>
      <trkpt lat="40.6809860" lon="-8.4708970">
        <ele>128.1</ele>
        <time>2019-08-15T06:38:43Z</time>
      </trkpt>
      <trkpt lat="40.6809730" lon="-8.4709440">
        <ele>128.1</ele>
        <time>2019-08-15T06:38:44Z</time>
      </trkpt>
      <trkpt lat="40.6808610" lon="-8.4712210">
        <ele>130.5</ele>
        <time>2019-08-15T06:38:50Z</time>
      </trkpt>
      <trkpt lat="40.6808580" lon="-8.4713850">
        <ele>132.8</ele>
        <time>2019-08-15T06:38:53Z</time>
      </trkpt>
      <trkpt lat="40.6808890" lon="-8.4714980">
        <ele>134.7</ele>
        <time>2019-08-15T06:38:55Z</time>
      </trkpt>
      <trkpt lat="40.6810180" lon="-8.4716430">
        <ele>137.3</ele>
        <time>2019-08-15T06:38:59Z</time>
      </trkpt>
      <trkpt lat="40.6812200" lon="-8.4716520">
        <ele>137.0</ele>
        <time>2019-08-15T06:39:04Z</time>
      </trkpt>
      <trkpt lat="40.6813110" lon="-8.4716060">
        <ele>136.7</ele>
        <time>2019-08-15T06:39:06Z</time>
      </trkpt>
      <trkpt lat="40.6814450" lon="-8.4715330">
        <ele>136.3</ele>
        <time>2019-08-15T06:39:09Z</time>
      </trkpt>
      <trkpt lat="40.6816830" lon="-8.4714310">
        <ele>135.7</ele>
        <time>2019-08-15T06:39:15Z</time>
      </trkpt>
      <trkpt lat="40.6818740" lon="-8.4714100">
        <ele>135.2</ele>
        <time>2019-08-15T06:39:21Z</time>
      </trkpt>
      <trkpt lat="40.6820830" lon="-8.4714620">
        <ele>134.5</ele>
        <time>2019-08-15T06:39:28Z</time>
      </trkpt>
      <trkpt lat="40.6823870" lon="-8.4715020">
        <ele>134.6</ele>
        <time>2019-08-15T06:39:37Z</time>
      </trkpt>
      <trkpt lat="40.6827180" lon="-8.4715320">
        <ele>135.0</ele>
        <time>2019-08-15T06:39:46Z</time>
      </trkpt>
      <trkpt lat="40.6831340" lon="-8.4715930">
        <ele>135.4</ele>
        <time>2019-08-15T06:39:56Z</time>
      </trkpt>
      <trkpt lat="40.6835470" lon="-8.4716800">
        <ele>135.6</ele>
        <time>2019-08-15T06:40:06Z</time>
      </trkpt>
      <trkpt lat="40.6838680" lon="-8.4717350">
        <ele>135.6</ele>
        <time>2019-08-15T06:40:13Z</time>
      </trkpt>
      <trkpt lat="40.6842510" lon="-8.4717850">
        <ele>135.1</ele>
        <time>2019-08-15T06:40:22Z</time>
      </trkpt>
      <trkpt lat="40.6846210" lon="-8.4718450">
        <ele>134.9</ele>
        <time>2019-08-15T06:40:31Z</time>
      </trkpt>
      <trkpt lat="40.6851750" lon="-8.4719200">
        <ele>134.5</ele>
        <time>2019-08-15T06:40:44Z</time>
      </trkpt>
      <trkpt lat="40.6855390" lon="-8.4719940">
        <ele>134.4</ele>
        <time>2019-08-15T06:40:52Z</time>
      </trkpt>
      <trkpt lat="40.6858080" lon="-8.4720320">
        <ele>134.7</ele>
        <time>2019-08-15T06:40:58Z</time>
      </trkpt>
      <trkpt lat="40.6862390" lon="-8.4720920">
        <ele>135.7</ele>
        <time>2019-08-15T06:41:07Z</time>
      </trkpt>
      <trkpt lat="40.6866820" lon="-8.4721500">
        <ele>134.8</ele>
        <time>2019-08-15T06:41:16Z</time>
      </trkpt>
      <trkpt lat="40.6867820" lon="-8.4721700">
        <ele>134.7</ele>
        <time>2019-08-15T06:41:18Z</time>
      </trkpt>
      <trkpt lat="40.6869730" lon="-8.4721920">
        <ele>134.4</ele>
        <time>2019-08-15T06:41:23Z</time>
      </trkpt>
      <trkpt lat="40.6869960" lon="-8.4722540">
        <ele>134.3</ele>
        <time>2019-08-15T06:41:27Z</time>
      </trkpt>
      <trkpt lat="40.6868340" lon="-8.4722260">
        <ele>134.7</ele>
        <time>2019-08-15T06:41:32Z</time>
      </trkpt>
      <trkpt lat="40.6865090" lon="-8.4722150">
        <ele>135.0</ele>
        <time>2019-08-15T06:41:40Z</time>
      </trkpt>
      <trkpt lat="40.6864250" lon="-8.4722310">
        <ele>135.0</ele>
        <time>2019-08-15T06:41:42Z</time>
      </trkpt>
      <trkpt lat="40.6863670" lon="-8.4723070">
        <ele>135.1</ele>
        <time>2019-08-15T06:41:44Z</time>
      </trkpt>
      <trkpt lat="40.6863260" lon="-8.4723870">
        <ele>135.0</ele>
        <time>2019-08-15T06:41:46Z</time>
      </trkpt>
      <trkpt lat="40.6862960" lon="-8.4725170">
        <ele>134.8</ele>
        <time>2019-08-15T06:41:49Z</time>
      </trkpt>
      <trkpt lat="40.6861670" lon="-8.4729440">
        <ele>134.1</ele>
        <time>2019-08-15T06:41:57Z</time>
      </trkpt>
      <trkpt lat="40.6859990" lon="-8.4735110">
        <ele>132.7</ele>
        <time>2019-08-15T06:42:06Z</time>
      </trkpt>
      <trkpt lat="40.6859560" lon="-8.4737960">
        <ele>132.1</ele>
        <time>2019-08-15T06:42:10Z</time>
      </trkpt>
      <trkpt lat="40.6859740" lon="-8.4739470">
        <ele>131.8</ele>
        <time>2019-08-15T06:42:12Z</time>
      </trkpt>
      <trkpt lat="40.6860440" lon="-8.4743990">
        <ele>131.0</ele>
        <time>2019-08-15T06:42:18Z</time>
      </trkpt>
      <trkpt lat="40.6860610" lon="-8.4745580">
        <ele>130.5</ele>
        <time>2019-08-15T06:42:20Z</time>
      </trkpt>
      <trkpt lat="40.6860710" lon="-8.4746340">
        <ele>130.3</ele>
        <time>2019-08-15T06:42:21Z</time>
      </trkpt>
      <trkpt lat="40.6860800" lon="-8.4747140">
        <ele>130.0</ele>
        <time>2019-08-15T06:42:22Z</time>
      </trkpt>
      <trkpt lat="40.6860890" lon="-8.4747900">
        <ele>129.7</ele>
        <time>2019-08-15T06:42:23Z</time>
      </trkpt>
      <trkpt lat="40.6861010" lon="-8.4748680">
        <ele>129.4</ele>
        <time>2019-08-15T06:42:24Z</time>
      </trkpt>
      <trkpt lat="40.6861240" lon="-8.4750230">
        <ele>128.8</ele>
        <time>2019-08-15T06:42:26Z</time>
      </trkpt>
      <trkpt lat="40.6861580" lon="-8.4752790">
        <ele>127.7</ele>
        <time>2019-08-15T06:42:29Z</time>
      </trkpt>
      <trkpt lat="40.6861700" lon="-8.4753730">
        <ele>127.3</ele>
        <time>2019-08-15T06:42:30Z</time>
      </trkpt>
      <trkpt lat="40.6861860" lon="-8.4754610">
        <ele>126.9</ele>
        <time>2019-08-15T06:42:31Z</time>
      </trkpt>
      <trkpt lat="40.6862050" lon="-8.4755500">
        <ele>126.4</ele>
        <time>2019-08-15T06:42:32Z</time>
      </trkpt>
      <trkpt lat="40.6862250" lon="-8.4756210">
        <ele>126.1</ele>
        <time>2019-08-15T06:42:33Z</time>
      </trkpt>
      <trkpt lat="40.6862430" lon="-8.4756720">
        <ele>125.8</ele>
        <time>2019-08-15T06:42:34Z</time>
      </trkpt>
      <trkpt lat="40.6862580" lon="-8.4756970">
        <ele>125.6</ele>
        <time>2019-08-15T06:42:35Z</time>
      </trkpt>
      <trkpt lat="40.6862720" lon="-8.4757320">
        <ele>125.4</ele>
        <time>2019-08-15T06:42:36Z</time>
      </trkpt>
      <trkpt lat="40.6862880" lon="-8.4757800">
        <ele>125.1</ele>
        <time>2019-08-15T06:42:37Z</time>
      </trkpt>
      <trkpt lat="40.6863110" lon="-8.4758410">
        <ele>124.8</ele>
        <time>2019-08-15T06:42:38Z</time>
      </trkpt>
      <trkpt lat="40.6863410" lon="-8.4759080">
        <ele>124.4</ele>
        <time>2019-08-15T06:42:39Z</time>
      </trkpt>
      <trkpt lat="40.6864170" lon="-8.4760500">
        <ele>123.7</ele>
        <time>2019-08-15T06:42:41Z</time>
      </trkpt>
      <trkpt lat="40.6864620" lon="-8.4761240">
        <ele>123.4</ele>
        <time>2019-08-15T06:42:42Z</time>
      </trkpt>
      <trkpt lat="40.6865090" lon="-8.4761950">
        <ele>123.1</ele>
        <time>2019-08-15T06:42:43Z</time>
      </trkpt>
      <trkpt lat="40.6865620" lon="-8.4762720">
        <ele>122.9</ele>
        <time>2019-08-15T06:42:44Z</time>
      </trkpt>
      <trkpt lat="40.6866160" lon="-8.4763470">
        <ele>122.6</ele>
        <time>2019-08-15T06:42:45Z</time>
      </trkpt>
      <trkpt lat="40.6866720" lon="-8.4764250">
        <ele>122.4</ele>
        <time>2019-08-15T06:42:46Z</time>
      </trkpt>
      <trkpt lat="40.6867240" lon="-8.4765040">
        <ele>122.2</ele>
        <time>2019-08-15T06:42:47Z</time>
      </trkpt>
      <trkpt lat="40.6867710" lon="-8.4765860">
        <ele>121.9</ele>
        <time>2019-08-15T06:42:48Z</time>
      </trkpt>
      <trkpt lat="40.6868240" lon="-8.4766560">
        <ele>121.5</ele>
        <time>2019-08-15T06:42:49Z</time>
      </trkpt>
      <trkpt lat="40.6868790" lon="-8.4767320">
        <ele>121.0</ele>
        <time>2019-08-15T06:42:50Z</time>
      </trkpt>
      <trkpt lat="40.6869360" lon="-8.4768150">
        <ele>120.4</ele>
        <time>2019-08-15T06:42:51Z</time>
      </trkpt>
      <trkpt lat="40.6869930" lon="-8.4769000">
        <ele>119.8</ele>
        <time>2019-08-15T06:42:52Z</time>
      </trkpt>
      <trkpt lat="40.6870480" lon="-8.4769930">
        <ele>119.0</ele>
        <time>2019-08-15T06:42:53Z</time>
      </trkpt>
      <trkpt lat="40.6870970" lon="-8.4770760">
        <ele>118.6</ele>
        <time>2019-08-15T06:42:54Z</time>
      </trkpt>
      <trkpt lat="40.6871470" lon="-8.4771610">
        <ele>118.1</ele>
        <time>2019-08-15T06:42:55Z</time>
      </trkpt>
      <trkpt lat="40.6871820" lon="-8.4772580">
        <ele>117.6</ele>
        <time>2019-08-15T06:42:56Z</time>
      </trkpt>
      <trkpt lat="40.6872630" lon="-8.4774190">
        <ele>117.2</ele>
        <time>2019-08-15T06:42:58Z</time>
      </trkpt>
      <trkpt lat="40.6873040" lon="-8.4774930">
        <ele>117.1</ele>
        <time>2019-08-15T06:42:59Z</time>
      </trkpt>
      <trkpt lat="40.6873430" lon="-8.4775740">
        <ele>116.9</ele>
        <time>2019-08-15T06:43:00Z</time>
      </trkpt>
      <trkpt lat="40.6873750" lon="-8.4776570">
        <ele>116.8</ele>
        <time>2019-08-15T06:43:01Z</time>
      </trkpt>
      <trkpt lat="40.6874000" lon="-8.4777440">
        <ele>116.6</ele>
        <time>2019-08-15T06:43:02Z</time>
      </trkpt>
      <trkpt lat="40.6875310" lon="-8.4782550">
        <ele>115.5</ele>
        <time>2019-08-15T06:43:08Z</time>
      </trkpt>
      <trkpt lat="40.6877360" lon="-8.4789920">
        <ele>113.9</ele>
        <time>2019-08-15T06:43:17Z</time>
      </trkpt>
      <trkpt lat="40.6877630" lon="-8.4790670">
        <ele>113.9</ele>
        <time>2019-08-15T06:43:18Z</time>
      </trkpt>
      <trkpt lat="40.6878670" lon="-8.4791330">
        <ele>113.9</ele>
        <time>2019-08-15T06:43:20Z</time>
      </trkpt>
      <trkpt lat="40.6880410" lon="-8.4790540">
        <ele>114.1</ele>
        <time>2019-08-15T06:43:23Z</time>
      </trkpt>
      <trkpt lat="40.6880900" lon="-8.4790250">
        <ele>114.1</ele>
        <time>2019-08-15T06:43:24Z</time>
      </trkpt>
      <trkpt lat="40.6882390" lon="-8.4789590">
        <ele>114.6</ele>
        <time>2019-08-15T06:43:27Z</time>
      </trkpt>
      <trkpt lat="40.6882850" lon="-8.4789380">
        <ele>114.8</ele>
        <time>2019-08-15T06:43:28Z</time>
      </trkpt>
      <trkpt lat="40.6885450" lon="-8.4787980">
        <ele>115.9</ele>
        <time>2019-08-15T06:43:34Z</time>
      </trkpt>
      <trkpt lat="40.6885830" lon="-8.4787720">
        <ele>116.2</ele>
        <time>2019-08-15T06:43:35Z</time>
      </trkpt>
      <trkpt lat="40.6886210" lon="-8.4787420">
        <ele>116.5</ele>
        <time>2019-08-15T06:43:36Z</time>
      </trkpt>
      <trkpt lat="40.6886580" lon="-8.4787060">
        <ele>116.7</ele>
        <time>2019-08-15T06:43:37Z</time>
      </trkpt>
      <trkpt lat="40.6886930" lon="-8.4786730">
        <ele>116.9</ele>
        <time>2019-08-15T06:43:38Z</time>
      </trkpt>
      <trkpt lat="40.6887540" lon="-8.4785960">
        <ele>117.2</ele>
        <time>2019-08-15T06:43:40Z</time>
      </trkpt>
      <trkpt lat="40.6888110" lon="-8.4785150">
        <ele>117.7</ele>
        <time>2019-08-15T06:43:42Z</time>
      </trkpt>
      <trkpt lat="40.6888350" lon="-8.4784680">
        <ele>117.8</ele>
        <time>2019-08-15T06:43:43Z</time>
      </trkpt>
      <trkpt lat="40.6889330" lon="-8.4782780">
        <ele>118.3</ele>
        <time>2019-08-15T06:43:47Z</time>
      </trkpt>
      <trkpt lat="40.6889570" lon="-8.4782300">
        <ele>118.4</ele>
        <time>2019-08-15T06:43:48Z</time>
      </trkpt>
      <trkpt lat="40.6889850" lon="-8.4781820">
        <ele>118.4</ele>
        <time>2019-08-15T06:43:49Z</time>
      </trkpt>
      <trkpt lat="40.6890190" lon="-8.4781300">
        <ele>118.5</ele>
        <time>2019-08-15T06:43:50Z</time>
      </trkpt>
      <trkpt lat="40.6890470" lon="-8.4780800">
        <ele>118.6</ele>
        <time>2019-08-15T06:43:51Z</time>
      </trkpt>
      <trkpt lat="40.6891830" lon="-8.4778220">
        <ele>119.1</ele>
        <time>2019-08-15T06:43:57Z</time>
      </trkpt>
      <trkpt lat="40.6892250" lon="-8.4778300">
        <ele>119.2</ele>
        <time>2019-08-15T06:43:58Z</time>
      </trkpt>
      <trkpt lat="40.6893070" lon="-8.4778720">
        <ele>118.9</ele>
        <time>2019-08-15T06:44:00Z</time>
      </trkpt>
      <trkpt lat="40.6893860" lon="-8.4779400">
        <ele>118.8</ele>
        <time>2019-08-15T06:44:02Z</time>
      </trkpt>
      <trkpt lat="40.6895020" lon="-8.4780270">
        <ele>118.7</ele>
        <time>2019-08-15T06:44:05Z</time>
      </trkpt>
      <trkpt lat="40.6895400" lon="-8.4780620">
        <ele>118.6</ele>
        <time>2019-08-15T06:44:06Z</time>
      </trkpt>
      <trkpt lat="40.6895790" lon="-8.4781010">
        <ele>118.6</ele>
        <time>2019-08-15T06:44:07Z</time>
      </trkpt>
      <trkpt lat="40.6896110" lon="-8.4781370">
        <ele>118.5</ele>
        <time>2019-08-15T06:44:08Z</time>
      </trkpt>
      <trkpt lat="40.6896490" lon="-8.4781720">
        <ele>118.5</ele>
        <time>2019-08-15T06:44:09Z</time>
      </trkpt>
      <trkpt lat="40.6898300" lon="-8.4783190">
        <ele>119.0</ele>
        <time>2019-08-15T06:44:14Z</time>
      </trkpt>
      <trkpt lat="40.6899300" lon="-8.4784250">
        <ele>119.2</ele>
        <time>2019-08-15T06:44:17Z</time>
      </trkpt>
      <trkpt lat="40.6900280" lon="-8.4785370">
        <ele>119.3</ele>
        <time>2019-08-15T06:44:20Z</time>
      </trkpt>
      <trkpt lat="40.6901200" lon="-8.4786970">
        <ele>119.4</ele>
        <time>2019-08-15T06:44:23Z</time>
      </trkpt>
      <trkpt lat="40.6901280" lon="-8.4788030">
        <ele>119.4</ele>
        <time>2019-08-15T06:44:25Z</time>
      </trkpt>
      <trkpt lat="40.6900710" lon="-8.4790470">
        <ele>119.5</ele>
        <time>2019-08-15T06:44:29Z</time>
      </trkpt>
      <trkpt lat="40.6900620" lon="-8.4791040">
        <ele>119.5</ele>
        <time>2019-08-15T06:44:30Z</time>
      </trkpt>
      <trkpt lat="40.6900090" lon="-8.4794730">
        <ele>119.7</ele>
        <time>2019-08-15T06:44:37Z</time>
      </trkpt>
      <trkpt lat="40.6899500" lon="-8.4798150">
        <ele>120.0</ele>
        <time>2019-08-15T06:44:45Z</time>
      </trkpt>
      <trkpt lat="40.6899220" lon="-8.4800190">
        <ele>120.3</ele>
        <time>2019-08-15T06:44:49Z</time>
      </trkpt>
      <trkpt lat="40.6899180" lon="-8.4800700">
        <ele>120.3</ele>
        <time>2019-08-15T06:44:50Z</time>
      </trkpt>
      <trkpt lat="40.6899120" lon="-8.4801220">
        <ele>120.3</ele>
        <time>2019-08-15T06:44:51Z</time>
      </trkpt>
      <trkpt lat="40.6899060" lon="-8.4801720">
        <ele>120.3</ele>
        <time>2019-08-15T06:44:52Z</time>
      </trkpt>
      <trkpt lat="40.6899010" lon="-8.4802300">
        <ele>120.2</ele>
        <time>2019-08-15T06:44:53Z</time>
      </trkpt>
      <trkpt lat="40.6898550" lon="-8.4807930">
        <ele>120.2</ele>
        <time>2019-08-15T06:45:04Z</time>
      </trkpt>
      <trkpt lat="40.6898230" lon="-8.4809770">
        <ele>120.5</ele>
        <time>2019-08-15T06:45:09Z</time>
      </trkpt>
      <trkpt lat="40.6897920" lon="-8.4809510">
        <ele>120.5</ele>
        <time>2019-08-15T06:45:11Z</time>
      </trkpt>
      <trkpt lat="40.6897890" lon="-8.4809270">
        <ele>120.5</ele>
        <time>2019-08-15T06:45:12Z</time>
      </trkpt>
      <trkpt lat="40.6899000" lon="-8.4808010">
        <ele>120.3</ele>
        <time>2019-08-15T06:45:16Z</time>
      </trkpt>
      <trkpt lat="40.6900930" lon="-8.4806140">
        <ele>120.3</ele>
        <time>2019-08-15T06:45:21Z</time>
      </trkpt>
      <trkpt lat="40.6901800" lon="-8.4805220">
        <ele>120.5</ele>
        <time>2019-08-15T06:45:23Z</time>
      </trkpt>
      <trkpt lat="40.6903850" lon="-8.4803110">
        <ele>120.7</ele>
        <time>2019-08-15T06:45:28Z</time>
      </trkpt>
      <trkpt lat="40.6904780" lon="-8.4802390">
        <ele>120.8</ele>
        <time>2019-08-15T06:45:30Z</time>
      </trkpt>
      <trkpt lat="40.6905950" lon="-8.4801130">
        <ele>120.8</ele>
        <time>2019-08-15T06:45:33Z</time>
      </trkpt>
      <trkpt lat="40.6908410" lon="-8.4798490">
        <ele>120.6</ele>
        <time>2019-08-15T06:45:40Z</time>
      </trkpt>
      <trkpt lat="40.6909260" lon="-8.4798090">
        <ele>120.5</ele>
        <time>2019-08-15T06:45:43Z</time>
      </trkpt>
      <trkpt lat="40.6909490" lon="-8.4798220">
        <ele>120.5</ele>
        <time>2019-08-15T06:45:44Z</time>
      </trkpt>
      <trkpt lat="40.6909690" lon="-8.4798580">
        <ele>120.6</ele>
        <time>2019-08-15T06:45:45Z</time>
      </trkpt>
      <trkpt lat="40.6910040" lon="-8.4799310">
        <ele>120.7</ele>
        <time>2019-08-15T06:45:47Z</time>
      </trkpt>
      <trkpt lat="40.6911720" lon="-8.4802790">
        <ele>121.1</ele>
        <time>2019-08-15T06:45:55Z</time>
      </trkpt>
      <trkpt lat="40.6912900" lon="-8.4805110">
        <ele>121.5</ele>
        <time>2019-08-15T06:46:01Z</time>
      </trkpt>
      <trkpt lat="40.6914840" lon="-8.4807150">
        <ele>122.7</ele>
        <time>2019-08-15T06:46:08Z</time>
      </trkpt>
      <trkpt lat="40.6915190" lon="-8.4807410">
        <ele>122.9</ele>
        <time>2019-08-15T06:46:09Z</time>
      </trkpt>
      <trkpt lat="40.6915510" lon="-8.4807680">
        <ele>123.1</ele>
        <time>2019-08-15T06:46:10Z</time>
      </trkpt>
      <trkpt lat="40.6915850" lon="-8.4807950">
        <ele>123.3</ele>
        <time>2019-08-15T06:46:11Z</time>
      </trkpt>
      <trkpt lat="40.6916180" lon="-8.4808190">
        <ele>123.5</ele>
        <time>2019-08-15T06:46:12Z</time>
      </trkpt>
      <trkpt lat="40.6917170" lon="-8.4809080">
        <ele>124.0</ele>
        <time>2019-08-15T06:46:15Z</time>
      </trkpt>
      <trkpt lat="40.6917490" lon="-8.4809330">
        <ele>124.2</ele>
        <time>2019-08-15T06:46:16Z</time>
      </trkpt>
      <trkpt lat="40.6917830" lon="-8.4809640">
        <ele>124.3</ele>
        <time>2019-08-15T06:46:17Z</time>
      </trkpt>
      <trkpt lat="40.6918140" lon="-8.4809920">
        <ele>124.5</ele>
        <time>2019-08-15T06:46:18Z</time>
      </trkpt>
      <trkpt lat="40.6918420" lon="-8.4810180">
        <ele>124.6</ele>
        <time>2019-08-15T06:46:19Z</time>
      </trkpt>
      <trkpt lat="40.6920430" lon="-8.4811990">
        <ele>125.5</ele>
        <time>2019-08-15T06:46:26Z</time>
      </trkpt>
      <trkpt lat="40.6920700" lon="-8.4812190">
        <ele>125.7</ele>
        <time>2019-08-15T06:46:27Z</time>
      </trkpt>
      <trkpt lat="40.6921020" lon="-8.4812320">
        <ele>125.8</ele>
        <time>2019-08-15T06:46:28Z</time>
      </trkpt>
      <trkpt lat="40.6921340" lon="-8.4812260">
        <ele>125.9</ele>
        <time>2019-08-15T06:46:29Z</time>
      </trkpt>
      <trkpt lat="40.6921680" lon="-8.4812170">
        <ele>126.0</ele>
        <time>2019-08-15T06:46:30Z</time>
      </trkpt>
      <trkpt lat="40.6922010" lon="-8.4812080">
        <ele>126.1</ele>
        <time>2019-08-15T06:46:31Z</time>
      </trkpt>
      <trkpt lat="40.6924330" lon="-8.4810910">
        <ele>126.8</ele>
        <time>2019-08-15T06:46:38Z</time>
      </trkpt>
      <trkpt lat="40.6926330" lon="-8.4809870">
        <ele>127.3</ele>
        <time>2019-08-15T06:46:44Z</time>
      </trkpt>
      <trkpt lat="40.6927580" lon="-8.4809150">
        <ele>127.5</ele>
        <time>2019-08-15T06:46:48Z</time>
      </trkpt>
      <trkpt lat="40.6927870" lon="-8.4809000">
        <ele>127.6</ele>
        <time>2019-08-15T06:46:49Z</time>
      </trkpt>
      <trkpt lat="40.6928180" lon="-8.4808850">
        <ele>127.6</ele>
        <time>2019-08-15T06:46:50Z</time>
      </trkpt>
      <trkpt lat="40.6928500" lon="-8.4808690">
        <ele>127.6</ele>
        <time>2019-08-15T06:46:51Z</time>
      </trkpt>
      <trkpt lat="40.6928810" lon="-8.4808520">
        <ele>127.7</ele>
        <time>2019-08-15T06:46:52Z</time>
      </trkpt>
      <trkpt lat="40.6931160" lon="-8.4807560">
        <ele>127.7</ele>
        <time>2019-08-15T06:47:00Z</time>
      </trkpt>
      <trkpt lat="40.6932100" lon="-8.4805230">
        <ele>127.4</ele>
        <time>2019-08-15T06:47:06Z</time>
      </trkpt>
      <trkpt lat="40.6932440" lon="-8.4801620">
        <ele>126.9</ele>
        <time>2019-08-15T06:47:12Z</time>
      </trkpt>
      <trkpt lat="40.6932840" lon="-8.4799990">
        <ele>126.3</ele>
        <time>2019-08-15T06:47:15Z</time>
      </trkpt>
      <trkpt lat="40.6933020" lon="-8.4799540">
        <ele>126.1</ele>
        <time>2019-08-15T06:47:16Z</time>
      </trkpt>
      <trkpt lat="40.6933200" lon="-8.4799330">
        <ele>125.7</ele>
        <time>2019-08-15T06:47:17Z</time>
      </trkpt>
      <trkpt lat="40.6933420" lon="-8.4799210">
        <ele>125.8</ele>
        <time>2019-08-15T06:47:18Z</time>
      </trkpt>
      <trkpt lat="40.6933680" lon="-8.4799200">
        <ele>125.9</ele>
        <time>2019-08-15T06:47:19Z</time>
      </trkpt>
      <trkpt lat="40.6934490" lon="-8.4799650">
        <ele>126.3</ele>
        <time>2019-08-15T06:47:22Z</time>
      </trkpt>
      <trkpt lat="40.6935090" lon="-8.4800090">
        <ele>126.6</ele>
        <time>2019-08-15T06:47:24Z</time>
      </trkpt>
      <trkpt lat="40.6936520" lon="-8.4800930">
        <ele>127.2</ele>
        <time>2019-08-15T06:47:29Z</time>
      </trkpt>
      <trkpt lat="40.6937070" lon="-8.4801300">
        <ele>127.4</ele>
        <time>2019-08-15T06:47:31Z</time>
      </trkpt>
      <trkpt lat="40.6937420" lon="-8.4801280">
        <ele>127.6</ele>
        <time>2019-08-15T06:47:32Z</time>
      </trkpt>
      <trkpt lat="40.6937710" lon="-8.4801300">
        <ele>127.7</ele>
        <time>2019-08-15T06:47:33Z</time>
      </trkpt>
      <trkpt lat="40.6938010" lon="-8.4801430">
        <ele>127.8</ele>
        <time>2019-08-15T06:47:34Z</time>
      </trkpt>
      <trkpt lat="40.6938350" lon="-8.4801500">
        <ele>127.9</ele>
        <time>2019-08-15T06:47:35Z</time>
      </trkpt>
      <trkpt lat="40.6941140" lon="-8.4801400">
        <ele>128.7</ele>
        <time>2019-08-15T06:47:43Z</time>
      </trkpt>
      <trkpt lat="40.6944740" lon="-8.4801170">
        <ele>129.8</ele>
        <time>2019-08-15T06:47:53Z</time>
      </trkpt>
      <trkpt lat="40.6945810" lon="-8.4801160">
        <ele>130.0</ele>
        <time>2019-08-15T06:47:56Z</time>
      </trkpt>
      <trkpt lat="40.6946210" lon="-8.4801220">
        <ele>130.1</ele>
        <time>2019-08-15T06:47:57Z</time>
      </trkpt>
      <trkpt lat="40.6946540" lon="-8.4801290">
        <ele>130.2</ele>
        <time>2019-08-15T06:47:58Z</time>
      </trkpt>
      <trkpt lat="40.6947020" lon="-8.4801420">
        <ele>130.3</ele>
        <time>2019-08-15T06:47:59Z</time>
      </trkpt>
      <trkpt lat="40.6947460" lon="-8.4801450">
        <ele>130.4</ele>
        <time>2019-08-15T06:48:00Z</time>
      </trkpt>
      <trkpt lat="40.6948530" lon="-8.4801450">
        <ele>130.6</ele>
        <time>2019-08-15T06:48:03Z</time>
      </trkpt>
      <trkpt lat="40.6951470" lon="-8.4801770">
        <ele>131.1</ele>
        <time>2019-08-15T06:48:11Z</time>
      </trkpt>
      <trkpt lat="40.6955700" lon="-8.4802690">
        <ele>131.9</ele>
        <time>2019-08-15T06:48:21Z</time>
      </trkpt>
      <trkpt lat="40.6956550" lon="-8.4802710">
        <ele>132.1</ele>
        <time>2019-08-15T06:48:23Z</time>
      </trkpt>
      <trkpt lat="40.6956970" lon="-8.4802750">
        <ele>132.4</ele>
        <time>2019-08-15T06:48:24Z</time>
      </trkpt>
      <trkpt lat="40.6957390" lon="-8.4802830">
        <ele>132.6</ele>
        <time>2019-08-15T06:48:25Z</time>
      </trkpt>
      <trkpt lat="40.6957830" lon="-8.4802890">
        <ele>132.7</ele>
        <time>2019-08-15T06:48:26Z</time>
      </trkpt>
      <trkpt lat="40.6958250" lon="-8.4802940">
        <ele>132.8</ele>
        <time>2019-08-15T06:48:27Z</time>
      </trkpt>
      <trkpt lat="40.6959370" lon="-8.4803190">
        <ele>133.1</ele>
        <time>2019-08-15T06:48:30Z</time>
      </trkpt>
      <trkpt lat="40.6962360" lon="-8.4803960">
        <ele>134.3</ele>
        <time>2019-08-15T06:48:38Z</time>
      </trkpt>
      <trkpt lat="40.6965370" lon="-8.4804660">
        <ele>135.3</ele>
        <time>2019-08-15T06:48:46Z</time>
      </trkpt>
      <trkpt lat="40.6965740" lon="-8.4804760">
        <ele>135.4</ele>
        <time>2019-08-15T06:48:47Z</time>
      </trkpt>
      <trkpt lat="40.6966130" lon="-8.4804880">
        <ele>135.4</ele>
        <time>2019-08-15T06:48:48Z</time>
      </trkpt>
      <trkpt lat="40.6966500" lon="-8.4804970">
        <ele>135.5</ele>
        <time>2019-08-15T06:48:49Z</time>
      </trkpt>
      <trkpt lat="40.6966870" lon="-8.4805000">
        <ele>135.5</ele>
        <time>2019-08-15T06:48:50Z</time>
      </trkpt>
      <trkpt lat="40.6967240" lon="-8.4805020">
        <ele>135.6</ele>
        <time>2019-08-15T06:48:51Z</time>
      </trkpt>
      <trkpt lat="40.6968820" lon="-8.4805100">
        <ele>135.8</ele>
        <time>2019-08-15T06:48:55Z</time>
      </trkpt>
      <trkpt lat="40.6973020" lon="-8.4805530">
        <ele>136.4</ele>
        <time>2019-08-15T06:49:05Z</time>
      </trkpt>
      <trkpt lat="40.6974180" lon="-8.4805470">
        <ele>136.5</ele>
        <time>2019-08-15T06:49:08Z</time>
      </trkpt>
      <trkpt lat="40.6974640" lon="-8.4805390">
        <ele>136.6</ele>
        <time>2019-08-15T06:49:09Z</time>
      </trkpt>
      <trkpt lat="40.6975050" lon="-8.4805350">
        <ele>136.6</ele>
        <time>2019-08-15T06:49:10Z</time>
      </trkpt>
      <trkpt lat="40.6975450" lon="-8.4805300">
        <ele>136.7</ele>
        <time>2019-08-15T06:49:11Z</time>
      </trkpt>
      <trkpt lat="40.6975870" lon="-8.4805260">
        <ele>136.7</ele>
        <time>2019-08-15T06:49:12Z</time>
      </trkpt>
      <trkpt lat="40.6976210" lon="-8.4805300">
        <ele>136.8</ele>
        <time>2019-08-15T06:49:13Z</time>
      </trkpt>
      <trkpt lat="40.6980320" lon="-8.4805040">
        <ele>137.7</ele>
        <time>2019-08-15T06:49:23Z</time>
      </trkpt>
      <trkpt lat="40.6980720" lon="-8.4805020">
        <ele>137.8</ele>
        <time>2019-08-15T06:49:24Z</time>
      </trkpt>
      <trkpt lat="40.6981120" lon="-8.4805000">
        <ele>138.0</ele>
        <time>2019-08-15T06:49:25Z</time>
      </trkpt>
      <trkpt lat="40.6981500" lon="-8.4805010">
        <ele>138.2</ele>
        <time>2019-08-15T06:49:26Z</time>
      </trkpt>
      <trkpt lat="40.6981890" lon="-8.4804950">
        <ele>138.3</ele>
        <time>2019-08-15T06:49:27Z</time>
      </trkpt>
      <trkpt lat="40.6982270" lon="-8.4804910">
        <ele>138.5</ele>
        <time>2019-08-15T06:49:28Z</time>
      </trkpt>
      <trkpt lat="40.6983460" lon="-8.4804780">
        <ele>139.3</ele>
        <time>2019-08-15T06:49:31Z</time>
      </trkpt>
      <trkpt lat="40.6986270" lon="-8.4804760">
        <ele>140.2</ele>
        <time>2019-08-15T06:49:38Z</time>
      </trkpt>
      <trkpt lat="40.6989610" lon="-8.4804540">
        <ele>140.1</ele>
        <time>2019-08-15T06:49:46Z</time>
      </trkpt>
      <trkpt lat="40.6993550" lon="-8.4804390">
        <ele>139.0</ele>
        <time>2019-08-15T06:49:56Z</time>
      </trkpt>
      <trkpt lat="40.6996920" lon="-8.4804350">
        <ele>137.8</ele>
        <time>2019-08-15T06:50:04Z</time>
      </trkpt>
      <trkpt lat="40.6997360" lon="-8.4804630">
        <ele>137.6</ele>
        <time>2019-08-15T06:50:05Z</time>
      </trkpt>
      <trkpt lat="40.6997930" lon="-8.4805620">
        <ele>137.2</ele>
        <time>2019-08-15T06:50:07Z</time>
      </trkpt>
      <trkpt lat="40.6998010" lon="-8.4806230">
        <ele>137.0</ele>
        <time>2019-08-15T06:50:08Z</time>
      </trkpt>
      <trkpt lat="40.6998020" lon="-8.4806800">
        <ele>136.8</ele>
        <time>2019-08-15T06:50:09Z</time>
      </trkpt>
      <trkpt lat="40.6998000" lon="-8.4807380">
        <ele>136.6</ele>
        <time>2019-08-15T06:50:10Z</time>
      </trkpt>
      <trkpt lat="40.6997910" lon="-8.4807950">
        <ele>136.4</ele>
        <time>2019-08-15T06:50:11Z</time>
      </trkpt>
      <trkpt lat="40.6997800" lon="-8.4808490">
        <ele>136.2</ele>
        <time>2019-08-15T06:50:12Z</time>
      </trkpt>
      <trkpt lat="40.6997710" lon="-8.4809020">
        <ele>136.1</ele>
        <time>2019-08-15T06:50:13Z</time>
      </trkpt>
      <trkpt lat="40.6998240" lon="-8.4811220">
        <ele>135.6</ele>
        <time>2019-08-15T06:50:18Z</time>
      </trkpt>
      <trkpt lat="40.6999720" lon="-8.4811300">
        <ele>135.6</ele>
        <time>2019-08-15T06:50:22Z</time>
      </trkpt>
      <trkpt lat="40.7000100" lon="-8.4811230">
        <ele>135.6</ele>
        <time>2019-08-15T06:50:23Z</time>
      </trkpt>
      <trkpt lat="40.7001330" lon="-8.4811300">
        <ele>135.7</ele>
        <time>2019-08-15T06:50:26Z</time>
      </trkpt>
      <trkpt lat="40.7002090" lon="-8.4811820">
        <ele>135.7</ele>
        <time>2019-08-15T06:50:28Z</time>
      </trkpt>
      <trkpt lat="40.7003180" lon="-8.4813500">
        <ele>135.5</ele>
        <time>2019-08-15T06:50:32Z</time>
      </trkpt>
      <trkpt lat="40.7003690" lon="-8.4814240">
        <ele>135.4</ele>
        <time>2019-08-15T06:50:34Z</time>
      </trkpt>
      <trkpt lat="40.7004870" lon="-8.4815320">
        <ele>135.3</ele>
        <time>2019-08-15T06:50:39Z</time>
      </trkpt>
      <trkpt lat="40.7004410" lon="-8.4815390">
        <ele>135.3</ele>
        <time>2019-08-15T06:50:40Z</time>
      </trkpt>
      <trkpt lat="40.7004120" lon="-8.4815350">
        <ele>135.2</ele>
        <time>2019-08-15T06:50:41Z</time>
      </trkpt>
      <trkpt lat="40.7002420" lon="-8.4815190">
        <ele>135.0</ele>
        <time>2019-08-15T06:50:46Z</time>
      </trkpt>
      <trkpt lat="40.7002100" lon="-8.4815280">
        <ele>135.0</ele>
        <time>2019-08-15T06:50:47Z</time>
      </trkpt>
      <trkpt lat="40.7001720" lon="-8.4815380">
        <ele>134.9</ele>
        <time>2019-08-15T06:50:48Z</time>
      </trkpt>
      <trkpt lat="40.7001330" lon="-8.4815470">
        <ele>134.9</ele>
        <time>2019-08-15T06:50:49Z</time>
      </trkpt>
      <trkpt lat="40.7000940" lon="-8.4815470">
        <ele>134.9</ele>
        <time>2019-08-15T06:50:50Z</time>
      </trkpt>
      <trkpt lat="40.6999980" lon="-8.4814940">
        <ele>134.8</ele>
        <time>2019-08-15T06:50:53Z</time>
      </trkpt>
      <trkpt lat="40.6999600" lon="-8.4814090">
        <ele>135.0</ele>
        <time>2019-08-15T06:50:57Z</time>
      </trkpt>
      <trkpt lat="40.6999620" lon="-8.4814060">
        <ele>135.0</ele>
        <time>2019-08-15T06:50:58Z</time>
      </trkpt>
      <trkpt lat="40.6999690" lon="-8.4813970">
        <ele>135.0</ele>
        <time>2019-08-15T06:51:45Z</time>
      </trkpt>
      <trkpt lat="40.6999680" lon="-8.4813840">
        <ele>135.1</ele>
        <time>2019-08-15T06:51:46Z</time>
      </trkpt>
      <trkpt lat="40.6999730" lon="-8.4813550">
        <ele>135.1</ele>
        <time>2019-08-15T06:51:47Z</time>
      </trkpt>
      <trkpt lat="40.6999860" lon="-8.4811950">
        <ele>135.5</ele>
        <time>2019-08-15T06:51:51Z</time>
      </trkpt>
      <trkpt lat="40.7001140" lon="-8.4811020">
        <ele>135.8</ele>
        <time>2019-08-15T06:51:55Z</time>
      </trkpt>
      <trkpt lat="40.7001650" lon="-8.4811460">
        <ele>135.7</ele>
        <time>2019-08-15T06:51:56Z</time>
      </trkpt>
      <trkpt lat="40.7002020" lon="-8.4811570">
        <ele>135.7</ele>
        <time>2019-08-15T06:51:57Z</time>
      </trkpt>
      <trkpt lat="40.7002310" lon="-8.4811760">
        <ele>135.7</ele>
        <time>2019-08-15T06:51:58Z</time>
      </trkpt>
      <trkpt lat="40.7002590" lon="-8.4812050">
        <ele>135.7</ele>
        <time>2019-08-15T06:51:59Z</time>
      </trkpt>
      <trkpt lat="40.7003690" lon="-8.4813990">
        <ele>135.4</ele>
        <time>2019-08-15T06:52:04Z</time>
      </trkpt>
      <trkpt lat="40.7005430" lon="-8.4814930">
        <ele>135.5</ele>
        <time>2019-08-15T06:52:09Z</time>
      </trkpt>
      <trkpt lat="40.7006470" lon="-8.4815090">
        <ele>135.7</ele>
        <time>2019-08-15T06:52:11Z</time>
      </trkpt>
      <trkpt lat="40.7007670" lon="-8.4814800">
        <ele>136.1</ele>
        <time>2019-08-15T06:52:13Z</time>
      </trkpt>
      <trkpt lat="40.7008910" lon="-8.4814010">
        <ele>136.8</ele>
        <time>2019-08-15T06:52:15Z</time>
      </trkpt>
      <trkpt lat="40.7009460" lon="-8.4813320">
        <ele>137.2</ele>
        <time>2019-08-15T06:52:16Z</time>
      </trkpt>
      <trkpt lat="40.7009910" lon="-8.4812550">
        <ele>137.7</ele>
        <time>2019-08-15T06:52:17Z</time>
      </trkpt>
      <trkpt lat="40.7010280" lon="-8.4811670">
        <ele>138.5</ele>
        <time>2019-08-15T06:52:18Z</time>
      </trkpt>
      <trkpt lat="40.7010530" lon="-8.4810740">
        <ele>138.7</ele>
        <time>2019-08-15T06:52:19Z</time>
      </trkpt>
      <trkpt lat="40.7010840" lon="-8.4809860">
        <ele>138.9</ele>
        <time>2019-08-15T06:52:20Z</time>
      </trkpt>
      <trkpt lat="40.7012100" lon="-8.4806870">
        <ele>139.9</ele>
        <time>2019-08-15T06:52:24Z</time>
      </trkpt>
      <trkpt lat="40.7012490" lon="-8.4806290">
        <ele>139.9</ele>
        <time>2019-08-15T06:52:25Z</time>
      </trkpt>
      <trkpt lat="40.7013570" lon="-8.4804830">
        <ele>140.7</ele>
        <time>2019-08-15T06:52:28Z</time>
      </trkpt>
      <trkpt lat="40.7014020" lon="-8.4804440">
        <ele>140.9</ele>
        <time>2019-08-15T06:52:29Z</time>
      </trkpt>
      <trkpt lat="40.7016600" lon="-8.4802450">
        <ele>142.1</ele>
        <time>2019-08-15T06:52:35Z</time>
      </trkpt>
      <trkpt lat="40.7018560" lon="-8.4800780">
        <ele>143.1</ele>
        <time>2019-08-15T06:52:40Z</time>
      </trkpt>
      <trkpt lat="40.7019050" lon="-8.4799830">
        <ele>143.5</ele>
        <time>2019-08-15T06:52:42Z</time>
      </trkpt>
      <trkpt lat="40.7019570" lon="-8.4798290">
        <ele>144.0</ele>
        <time>2019-08-15T06:52:45Z</time>
      </trkpt>
      <trkpt lat="40.7019660" lon="-8.4797740">
        <ele>144.1</ele>
        <time>2019-08-15T06:52:46Z</time>
      </trkpt>
      <trkpt lat="40.7019730" lon="-8.4797200">
        <ele>144.2</ele>
        <time>2019-08-15T06:52:47Z</time>
      </trkpt>
      <trkpt lat="40.7019790" lon="-8.4796680">
        <ele>144.2</ele>
        <time>2019-08-15T06:52:48Z</time>
      </trkpt>
      <trkpt lat="40.7019750" lon="-8.4796200">
        <ele>144.2</ele>
        <time>2019-08-15T06:52:49Z</time>
      </trkpt>
      <trkpt lat="40.7019680" lon="-8.4795720">
        <ele>144.2</ele>
        <time>2019-08-15T06:52:50Z</time>
      </trkpt>
      <trkpt lat="40.7019610" lon="-8.4795230">
        <ele>144.2</ele>
        <time>2019-08-15T06:52:51Z</time>
      </trkpt>
      <trkpt lat="40.7019520" lon="-8.4794770">
        <ele>144.2</ele>
        <time>2019-08-15T06:52:52Z</time>
      </trkpt>
      <trkpt lat="40.7019390" lon="-8.4794350">
        <ele>144.2</ele>
        <time>2019-08-15T06:52:53Z</time>
      </trkpt>
      <trkpt lat="40.7019250" lon="-8.4793970">
        <ele>144.1</ele>
        <time>2019-08-15T06:52:54Z</time>
      </trkpt>
      <trkpt lat="40.7018730" lon="-8.4792140">
        <ele>143.8</ele>
        <time>2019-08-15T06:52:59Z</time>
      </trkpt>
      <trkpt lat="40.7019150" lon="-8.4790560">
        <ele>144.3</ele>
        <time>2019-08-15T06:53:03Z</time>
      </trkpt>
      <trkpt lat="40.7019820" lon="-8.4789070">
        <ele>144.9</ele>
        <time>2019-08-15T06:53:07Z</time>
      </trkpt>
      <trkpt lat="40.7019950" lon="-8.4788730">
        <ele>145.0</ele>
        <time>2019-08-15T06:53:08Z</time>
      </trkpt>
      <trkpt lat="40.7020080" lon="-8.4788370">
        <ele>145.2</ele>
        <time>2019-08-15T06:53:09Z</time>
      </trkpt>
      <trkpt lat="40.7020220" lon="-8.4788010">
        <ele>145.3</ele>
        <time>2019-08-15T06:53:10Z</time>
      </trkpt>
      <trkpt lat="40.7020400" lon="-8.4787650">
        <ele>145.5</ele>
        <time>2019-08-15T06:53:11Z</time>
      </trkpt>
      <trkpt lat="40.7021840" lon="-8.4785080">
        <ele>147.0</ele>
        <time>2019-08-15T06:53:18Z</time>
      </trkpt>
      <trkpt lat="40.7023500" lon="-8.4783530">
        <ele>148.5</ele>
        <time>2019-08-15T06:53:24Z</time>
      </trkpt>
      <trkpt lat="40.7024350" lon="-8.4782940">
        <ele>149.1</ele>
        <time>2019-08-15T06:53:27Z</time>
      </trkpt>
      <trkpt lat="40.7024540" lon="-8.4782530">
        <ele>149.3</ele>
        <time>2019-08-15T06:53:28Z</time>
      </trkpt>
      <trkpt lat="40.7024710" lon="-8.4782100">
        <ele>149.6</ele>
        <time>2019-08-15T06:53:29Z</time>
      </trkpt>
      <trkpt lat="40.7024860" lon="-8.4781760">
        <ele>149.8</ele>
        <time>2019-08-15T06:53:30Z</time>
      </trkpt>
      <trkpt lat="40.7025080" lon="-8.4781460">
        <ele>150.0</ele>
        <time>2019-08-15T06:53:31Z</time>
      </trkpt>
      <trkpt lat="40.7025330" lon="-8.4781180">
        <ele>150.2</ele>
        <time>2019-08-15T06:53:32Z</time>
      </trkpt>
      <trkpt lat="40.7027280" lon="-8.4779430">
        <ele>151.6</ele>
        <time>2019-08-15T06:53:40Z</time>
      </trkpt>
      <trkpt lat="40.7027550" lon="-8.4779240">
        <ele>151.7</ele>
        <time>2019-08-15T06:53:41Z</time>
      </trkpt>
      <trkpt lat="40.7027810" lon="-8.4779100">
        <ele>151.9</ele>
        <time>2019-08-15T06:53:42Z</time>
      </trkpt>
      <trkpt lat="40.7028090" lon="-8.4778930">
        <ele>152.0</ele>
        <time>2019-08-15T06:53:43Z</time>
      </trkpt>
      <trkpt lat="40.7028350" lon="-8.4778780">
        <ele>152.1</ele>
        <time>2019-08-15T06:53:44Z</time>
      </trkpt>
      <trkpt lat="40.7030340" lon="-8.4777520">
        <ele>152.8</ele>
        <time>2019-08-15T06:53:51Z</time>
      </trkpt>
      <trkpt lat="40.7031250" lon="-8.4776650">
        <ele>153.1</ele>
        <time>2019-08-15T06:53:54Z</time>
      </trkpt>
      <trkpt lat="40.7031520" lon="-8.4776450">
        <ele>153.1</ele>
        <time>2019-08-15T06:53:55Z</time>
      </trkpt>
      <trkpt lat="40.7031790" lon="-8.4776290">
        <ele>153.2</ele>
        <time>2019-08-15T06:53:56Z</time>
      </trkpt>
      <trkpt lat="40.7032060" lon="-8.4776130">
        <ele>153.3</ele>
        <time>2019-08-15T06:53:57Z</time>
      </trkpt>
      <trkpt lat="40.7032320" lon="-8.4775930">
        <ele>153.3</ele>
        <time>2019-08-15T06:53:58Z</time>
      </trkpt>
      <trkpt lat="40.7033540" lon="-8.4775350">
        <ele>153.5</ele>
        <time>2019-08-15T06:54:02Z</time>
      </trkpt>
      <trkpt lat="40.7036820" lon="-8.4773420">
        <ele>154.4</ele>
        <time>2019-08-15T06:54:12Z</time>
      </trkpt>
      <trkpt lat="40.7037160" lon="-8.4773160">
        <ele>154.5</ele>
        <time>2019-08-15T06:54:13Z</time>
      </trkpt>
      <trkpt lat="40.7037520" lon="-8.4772970">
        <ele>154.5</ele>
        <time>2019-08-15T06:54:14Z</time>
      </trkpt>
      <trkpt lat="40.7037840" lon="-8.4772770">
        <ele>154.6</ele>
        <time>2019-08-15T06:54:15Z</time>
      </trkpt>
      <trkpt lat="40.7038210" lon="-8.4772550">
        <ele>154.7</ele>
        <time>2019-08-15T06:54:16Z</time>
      </trkpt>
      <trkpt lat="40.7038490" lon="-8.4772330">
        <ele>154.7</ele>
        <time>2019-08-15T06:54:17Z</time>
      </trkpt>
      <trkpt lat="40.7039230" lon="-8.4771900">
        <ele>154.9</ele>
        <time>2019-08-15T06:54:19Z</time>
      </trkpt>
      <trkpt lat="40.7042080" lon="-8.4770370">
        <ele>155.1</ele>
        <time>2019-08-15T06:54:26Z</time>
      </trkpt>
      <trkpt lat="40.7042980" lon="-8.4770040">
        <ele>155.1</ele>
        <time>2019-08-15T06:54:28Z</time>
      </trkpt>
      <trkpt lat="40.7044650" lon="-8.4769500">
        <ele>155.4</ele>
        <time>2019-08-15T06:54:32Z</time>
      </trkpt>
      <trkpt lat="40.7049090" lon="-8.4768450">
        <ele>156.8</ele>
        <time>2019-08-15T06:54:42Z</time>
      </trkpt>
      <trkpt lat="40.7053780" lon="-8.4767850">
        <ele>158.0</ele>
        <time>2019-08-15T06:54:52Z</time>
      </trkpt>
      <trkpt lat="40.7057140" lon="-8.4766770">
        <ele>159.1</ele>
        <time>2019-08-15T06:55:00Z</time>
      </trkpt>
      <trkpt lat="40.7060740" lon="-8.4764940">
        <ele>160.3</ele>
        <time>2019-08-15T06:55:09Z</time>
      </trkpt>
      <trkpt lat="40.7062280" lon="-8.4763950">
        <ele>160.7</ele>
        <time>2019-08-15T06:55:13Z</time>
      </trkpt>
      <trkpt lat="40.7063020" lon="-8.4763640">
        <ele>160.8</ele>
        <time>2019-08-15T06:55:15Z</time>
      </trkpt>
      <trkpt lat="40.7066710" lon="-8.4761900">
        <ele>161.4</ele>
        <time>2019-08-15T06:55:24Z</time>
      </trkpt>
      <trkpt lat="40.7070170" lon="-8.4760740">
        <ele>161.7</ele>
        <time>2019-08-15T06:55:32Z</time>
      </trkpt>
      <trkpt lat="40.7071390" lon="-8.4760580">
        <ele>161.8</ele>
        <time>2019-08-15T06:55:35Z</time>
      </trkpt>
      <trkpt lat="40.7071780" lon="-8.4760540">
        <ele>161.8</ele>
        <time>2019-08-15T06:55:36Z</time>
      </trkpt>
      <trkpt lat="40.7072130" lon="-8.4760510">
        <ele>161.8</ele>
        <time>2019-08-15T06:55:37Z</time>
      </trkpt>
      <trkpt lat="40.7072450" lon="-8.4760620">
        <ele>161.8</ele>
        <time>2019-08-15T06:55:38Z</time>
      </trkpt>
      <trkpt lat="40.7073200" lon="-8.4760810">
        <ele>161.9</ele>
        <time>2019-08-15T06:55:40Z</time>
      </trkpt>
      <trkpt lat="40.7076820" lon="-8.4761400">
        <ele>162.1</ele>
        <time>2019-08-15T06:55:49Z</time>
      </trkpt>
      <trkpt lat="40.7080800" lon="-8.4762040">
        <ele>162.6</ele>
        <time>2019-08-15T06:55:58Z</time>
      </trkpt>
      <trkpt lat="40.7083080" lon="-8.4762160">
        <ele>163.0</ele>
        <time>2019-08-15T06:56:03Z</time>
      </trkpt>
      <trkpt lat="40.7084830" lon="-8.4761770">
        <ele>163.4</ele>
        <time>2019-08-15T06:56:07Z</time>
      </trkpt>
      <trkpt lat="40.7086050" lon="-8.4761020">
        <ele>163.6</ele>
        <time>2019-08-15T06:56:10Z</time>
      </trkpt>
      <trkpt lat="40.7086810" lon="-8.4760240">
        <ele>163.7</ele>
        <time>2019-08-15T06:56:12Z</time>
      </trkpt>
      <trkpt lat="40.7087510" lon="-8.4759460">
        <ele>163.7</ele>
        <time>2019-08-15T06:56:14Z</time>
      </trkpt>
      <trkpt lat="40.7089300" lon="-8.4757900">
        <ele>163.7</ele>
        <time>2019-08-15T06:56:19Z</time>
      </trkpt>
      <trkpt lat="40.7089640" lon="-8.4757640">
        <ele>163.6</ele>
        <time>2019-08-15T06:56:20Z</time>
      </trkpt>
      <trkpt lat="40.7090050" lon="-8.4757510">
        <ele>163.6</ele>
        <time>2019-08-15T06:56:21Z</time>
      </trkpt>
      <trkpt lat="40.7090420" lon="-8.4757380">
        <ele>163.6</ele>
        <time>2019-08-15T06:56:22Z</time>
      </trkpt>
      <trkpt lat="40.7090810" lon="-8.4757290">
        <ele>163.5</ele>
        <time>2019-08-15T06:56:23Z</time>
      </trkpt>
      <trkpt lat="40.7091210" lon="-8.4757140">
        <ele>163.4</ele>
        <time>2019-08-15T06:56:24Z</time>
      </trkpt>
      <trkpt lat="40.7094590" lon="-8.4755890">
        <ele>163.0</ele>
        <time>2019-08-15T06:56:32Z</time>
      </trkpt>
      <trkpt lat="40.7097910" lon="-8.4754860">
        <ele>163.2</ele>
        <time>2019-08-15T06:56:40Z</time>
      </trkpt>
      <trkpt lat="40.7100450" lon="-8.4753510">
        <ele>163.7</ele>
        <time>2019-08-15T06:56:47Z</time>
      </trkpt>
      <trkpt lat="40.7103210" lon="-8.4752680">
        <ele>164.2</ele>
        <time>2019-08-15T06:56:54Z</time>
      </trkpt>
      <trkpt lat="40.7106280" lon="-8.4751660">
        <ele>164.9</ele>
        <time>2019-08-15T06:57:02Z</time>
      </trkpt>
      <trkpt lat="40.7106610" lon="-8.4751530">
        <ele>165.0</ele>
        <time>2019-08-15T06:57:03Z</time>
      </trkpt>
      <trkpt lat="40.7106970" lon="-8.4751400">
        <ele>165.1</ele>
        <time>2019-08-15T06:57:04Z</time>
      </trkpt>
      <trkpt lat="40.7107360" lon="-8.4751220">
        <ele>165.2</ele>
        <time>2019-08-15T06:57:05Z</time>
      </trkpt>
      <trkpt lat="40.7107700" lon="-8.4751050">
        <ele>165.3</ele>
        <time>2019-08-15T06:57:06Z</time>
      </trkpt>
      <trkpt lat="40.7108040" lon="-8.4750900">
        <ele>165.5</ele>
        <time>2019-08-15T06:57:07Z</time>
      </trkpt>
      <trkpt lat="40.7108370" lon="-8.4750710">
        <ele>165.6</ele>
        <time>2019-08-15T06:57:08Z</time>
      </trkpt>
      <trkpt lat="40.7109510" lon="-8.4750200">
        <ele>165.9</ele>
        <time>2019-08-15T06:57:11Z</time>
      </trkpt>
      <trkpt lat="40.7110940" lon="-8.4749390">
        <ele>166.4</ele>
        <time>2019-08-15T06:57:14Z</time>
      </trkpt>
      <trkpt lat="40.7111340" lon="-8.4749050">
        <ele>166.5</ele>
        <time>2019-08-15T06:57:15Z</time>
      </trkpt>
      <trkpt lat="40.7112050" lon="-8.4748340">
        <ele>166.8</ele>
        <time>2019-08-15T06:57:17Z</time>
      </trkpt>
      <trkpt lat="40.7113060" lon="-8.4747090">
        <ele>167.1</ele>
        <time>2019-08-15T06:57:20Z</time>
      </trkpt>
      <trkpt lat="40.7113470" lon="-8.4746800">
        <ele>167.3</ele>
        <time>2019-08-15T06:57:21Z</time>
      </trkpt>
      <trkpt lat="40.7114740" lon="-8.4745910">
        <ele>167.5</ele>
        <time>2019-08-15T06:57:24Z</time>
      </trkpt>
      <trkpt lat="40.7117340" lon="-8.4744240">
        <ele>167.8</ele>
        <time>2019-08-15T06:57:30Z</time>
      </trkpt>
      <trkpt lat="40.7117630" lon="-8.4743810">
        <ele>167.8</ele>
        <time>2019-08-15T06:57:31Z</time>
      </trkpt>
      <trkpt lat="40.7118190" lon="-8.4742190">
        <ele>167.8</ele>
        <time>2019-08-15T06:57:34Z</time>
      </trkpt>
      <trkpt lat="40.7118330" lon="-8.4741280">
        <ele>167.7</ele>
        <time>2019-08-15T06:57:36Z</time>
      </trkpt>
      <trkpt lat="40.7118270" lon="-8.4738620">
        <ele>167.2</ele>
        <time>2019-08-15T06:57:42Z</time>
      </trkpt>
      <trkpt lat="40.7118340" lon="-8.4735760">
        <ele>166.6</ele>
        <time>2019-08-15T06:57:49Z</time>
      </trkpt>
      <trkpt lat="40.7117900" lon="-8.4733840">
        <ele>166.1</ele>
        <time>2019-08-15T06:57:54Z</time>
      </trkpt>
      <trkpt lat="40.7117490" lon="-8.4732770">
        <ele>165.9</ele>
        <time>2019-08-15T06:57:57Z</time>
      </trkpt>
      <trkpt lat="40.7117450" lon="-8.4732390">
        <ele>165.9</ele>
        <time>2019-08-15T06:57:58Z</time>
      </trkpt>
      <trkpt lat="40.7117660" lon="-8.4731610">
        <ele>165.8</ele>
        <time>2019-08-15T06:58:00Z</time>
      </trkpt>
      <trkpt lat="40.7117870" lon="-8.4731660">
        <ele>165.8</ele>
        <time>2019-08-15T06:58:01Z</time>
      </trkpt>
      <trkpt lat="40.7118880" lon="-8.4732070">
        <ele>166.0</ele>
        <time>2019-08-15T06:58:06Z</time>
      </trkpt>
      <trkpt lat="40.7120410" lon="-8.4733150">
        <ele>166.5</ele>
        <time>2019-08-15T06:58:12Z</time>
      </trkpt>
      <trkpt lat="40.7122710" lon="-8.4734410">
        <ele>167.4</ele>
        <time>2019-08-15T06:58:19Z</time>
      </trkpt>
      <trkpt lat="40.7124640" lon="-8.4734670">
        <ele>168.4</ele>
        <time>2019-08-15T06:58:24Z</time>
      </trkpt>
      <trkpt lat="40.7125000" lon="-8.4734650">
        <ele>168.6</ele>
        <time>2019-08-15T06:58:25Z</time>
      </trkpt>
      <trkpt lat="40.7125300" lon="-8.4734710">
        <ele>168.7</ele>
        <time>2019-08-15T06:58:26Z</time>
      </trkpt>
      <trkpt lat="40.7125670" lon="-8.4734750">
        <ele>169.0</ele>
        <time>2019-08-15T06:58:27Z</time>
      </trkpt>
      <trkpt lat="40.7125980" lon="-8.4734780">
        <ele>169.2</ele>
        <time>2019-08-15T06:58:28Z</time>
      </trkpt>
      <trkpt lat="40.7127250" lon="-8.4734920">
        <ele>170.1</ele>
        <time>2019-08-15T06:58:32Z</time>
      </trkpt>
      <trkpt lat="40.7129060" lon="-8.4734330">
        <ele>171.4</ele>
        <time>2019-08-15T06:58:38Z</time>
      </trkpt>
      <trkpt lat="40.7129740" lon="-8.4732800">
        <ele>171.1</ele>
        <time>2019-08-15T06:58:42Z</time>
      </trkpt>
      <trkpt lat="40.7131100" lon="-8.4729830">
        <ele>170.5</ele>
        <time>2019-08-15T06:58:49Z</time>
      </trkpt>
      <trkpt lat="40.7131220" lon="-8.4729420">
        <ele>170.4</ele>
        <time>2019-08-15T06:58:50Z</time>
      </trkpt>
      <trkpt lat="40.7131350" lon="-8.4729040">
        <ele>170.4</ele>
        <time>2019-08-15T06:58:51Z</time>
      </trkpt>
      <trkpt lat="40.7131560" lon="-8.4728590">
        <ele>170.3</ele>
        <time>2019-08-15T06:58:52Z</time>
      </trkpt>
      <trkpt lat="40.7131730" lon="-8.4728190">
        <ele>170.2</ele>
        <time>2019-08-15T06:58:53Z</time>
      </trkpt>
      <trkpt lat="40.7131880" lon="-8.4727740">
        <ele>170.2</ele>
        <time>2019-08-15T06:58:54Z</time>
      </trkpt>
      <trkpt lat="40.7133200" lon="-8.4724910">
        <ele>169.6</ele>
        <time>2019-08-15T06:59:01Z</time>
      </trkpt>
      <trkpt lat="40.7134740" lon="-8.4721740">
        <ele>169.0</ele>
        <time>2019-08-15T06:59:07Z</time>
      </trkpt>
      <trkpt lat="40.7135350" lon="-8.4721990">
        <ele>168.9</ele>
        <time>2019-08-15T06:59:09Z</time>
      </trkpt>
      <trkpt lat="40.7135550" lon="-8.4722140">
        <ele>168.8</ele>
        <time>2019-08-15T06:59:10Z</time>
      </trkpt>
      <trkpt lat="40.7137700" lon="-8.4724110">
        <ele>170.0</ele>
        <time>2019-08-15T06:59:19Z</time>
      </trkpt>
      <trkpt lat="40.7137920" lon="-8.4724270">
        <ele>170.2</ele>
        <time>2019-08-15T06:59:20Z</time>
      </trkpt>
      <trkpt lat="40.7138170" lon="-8.4724460">
        <ele>170.4</ele>
        <time>2019-08-15T06:59:21Z</time>
      </trkpt>
      <trkpt lat="40.7138440" lon="-8.4724690">
        <ele>170.7</ele>
        <time>2019-08-15T06:59:22Z</time>
      </trkpt>
      <trkpt lat="40.7138710" lon="-8.4724810">
        <ele>170.9</ele>
        <time>2019-08-15T06:59:23Z</time>
      </trkpt>
      <trkpt lat="40.7139350" lon="-8.4725150">
        <ele>171.4</ele>
        <time>2019-08-15T06:59:25Z</time>
      </trkpt>
      <trkpt lat="40.7140660" lon="-8.4726380">
        <ele>172.4</ele>
        <time>2019-08-15T06:59:29Z</time>
      </trkpt>
      <trkpt lat="40.7140970" lon="-8.4726710">
        <ele>172.6</ele>
        <time>2019-08-15T06:59:30Z</time>
      </trkpt>
      <trkpt lat="40.7141300" lon="-8.4726990">
        <ele>172.7</ele>
        <time>2019-08-15T06:59:31Z</time>
      </trkpt>
      <trkpt lat="40.7141570" lon="-8.4727280">
        <ele>172.8</ele>
        <time>2019-08-15T06:59:32Z</time>
      </trkpt>
      <trkpt lat="40.7141960" lon="-8.4727760">
        <ele>172.9</ele>
        <time>2019-08-15T06:59:33Z</time>
      </trkpt>
      <trkpt lat="40.7144330" lon="-8.4729840">
        <ele>173.8</ele>
        <time>2019-08-15T06:59:40Z</time>
      </trkpt>
      <trkpt lat="40.7147010" lon="-8.4732160">
        <ele>174.8</ele>
        <time>2019-08-15T06:59:48Z</time>
      </trkpt>
      <trkpt lat="40.7149010" lon="-8.4733860">
        <ele>175.3</ele>
        <time>2019-08-15T06:59:54Z</time>
      </trkpt>
      <trkpt lat="40.7149360" lon="-8.4734100">
        <ele>175.4</ele>
        <time>2019-08-15T06:59:55Z</time>
      </trkpt>
      <trkpt lat="40.7149730" lon="-8.4734290">
        <ele>175.4</ele>
        <time>2019-08-15T06:59:56Z</time>
      </trkpt>
      <trkpt lat="40.7150110" lon="-8.4734450">
        <ele>175.5</ele>
        <time>2019-08-15T06:59:57Z</time>
      </trkpt>
      <trkpt lat="40.7150510" lon="-8.4734580">
        <ele>175.6</ele>
        <time>2019-08-15T06:59:58Z</time>
      </trkpt>
      <trkpt lat="40.7151960" lon="-8.4735150">
        <ele>175.9</ele>
        <time>2019-08-15T07:00:02Z</time>
      </trkpt>
      <trkpt lat="40.7154680" lon="-8.4735850">
        <ele>176.8</ele>
        <time>2019-08-15T07:00:09Z</time>
      </trkpt>
      <trkpt lat="40.7156820" lon="-8.4736570">
        <ele>177.9</ele>
        <time>2019-08-15T07:00:15Z</time>
      </trkpt>
      <trkpt lat="40.7157010" lon="-8.4736350">
        <ele>178.0</ele>
        <time>2019-08-15T07:00:16Z</time>
      </trkpt>
      <trkpt lat="40.7157200" lon="-8.4736220">
        <ele>178.2</ele>
        <time>2019-08-15T07:00:17Z</time>
      </trkpt>
      <trkpt lat="40.7157210" lon="-8.4736240">
        <ele>178.2</ele>
        <time>2019-08-15T07:00:18Z</time>
      </trkpt>
      <trkpt lat="40.7157800" lon="-8.4736790">
        <ele>178.5</ele>
        <time>2019-08-15T07:00:21Z</time>
      </trkpt>
      <trkpt lat="40.7158310" lon="-8.4737480">
        <ele>178.5</ele>
        <time>2019-08-15T07:00:23Z</time>
      </trkpt>
      <trkpt lat="40.7160720" lon="-8.4738610">
        <ele>178.6</ele>
        <time>2019-08-15T07:00:31Z</time>
      </trkpt>
      <trkpt lat="40.7163040" lon="-8.4739460">
        <ele>178.9</ele>
        <time>2019-08-15T07:00:38Z</time>
      </trkpt>
      <trkpt lat="40.7165550" lon="-8.4740290">
        <ele>179.7</ele>
        <time>2019-08-15T07:00:44Z</time>
      </trkpt>
      <trkpt lat="40.7169720" lon="-8.4741460">
        <ele>181.2</ele>
        <time>2019-08-15T07:00:53Z</time>
      </trkpt>
      <trkpt lat="40.7173360" lon="-8.4742480">
        <ele>182.9</ele>
        <time>2019-08-15T07:01:01Z</time>
      </trkpt>
      <trkpt lat="40.7176860" lon="-8.4743740">
        <ele>184.7</ele>
        <time>2019-08-15T07:01:09Z</time>
      </trkpt>
      <trkpt lat="40.7180690" lon="-8.4744830">
        <ele>184.9</ele>
        <time>2019-08-15T07:01:18Z</time>
      </trkpt>
      <trkpt lat="40.7183360" lon="-8.4745570">
        <ele>185.1</ele>
        <time>2019-08-15T07:01:25Z</time>
      </trkpt>
      <trkpt lat="40.7185510" lon="-8.4745920">
        <ele>185.3</ele>
        <time>2019-08-15T07:01:30Z</time>
      </trkpt>
      <trkpt lat="40.7187310" lon="-8.4746430">
        <ele>185.5</ele>
        <time>2019-08-15T07:01:34Z</time>
      </trkpt>
      <trkpt lat="40.7188650" lon="-8.4746840">
        <ele>185.7</ele>
        <time>2019-08-15T07:01:37Z</time>
      </trkpt>
      <trkpt lat="40.7191230" lon="-8.4747600">
        <ele>186.3</ele>
        <time>2019-08-15T07:01:43Z</time>
      </trkpt>
      <trkpt lat="40.7192790" lon="-8.4747990">
        <ele>186.6</ele>
        <time>2019-08-15T07:01:47Z</time>
      </trkpt>
      <trkpt lat="40.7193190" lon="-8.4748070">
        <ele>186.7</ele>
        <time>2019-08-15T07:01:48Z</time>
      </trkpt>
      <trkpt lat="40.7193580" lon="-8.4748180">
        <ele>186.8</ele>
        <time>2019-08-15T07:01:49Z</time>
      </trkpt>
      <trkpt lat="40.7194020" lon="-8.4748200">
        <ele>186.9</ele>
        <time>2019-08-15T07:01:50Z</time>
      </trkpt>
      <trkpt lat="40.7194440" lon="-8.4748280">
        <ele>187.0</ele>
        <time>2019-08-15T07:01:51Z</time>
      </trkpt>
      <trkpt lat="40.7194860" lon="-8.4748370">
        <ele>187.2</ele>
        <time>2019-08-15T07:01:52Z</time>
      </trkpt>
      <trkpt lat="40.7198610" lon="-8.4749400">
        <ele>188.4</ele>
        <time>2019-08-15T07:02:00Z</time>
      </trkpt>
      <trkpt lat="40.7200880" lon="-8.4749920">
        <ele>188.7</ele>
        <time>2019-08-15T07:02:05Z</time>
      </trkpt>
      <trkpt lat="40.7202390" lon="-8.4750260">
        <ele>188.6</ele>
        <time>2019-08-15T07:02:08Z</time>
      </trkpt>
      <trkpt lat="40.7205480" lon="-8.4750270">
        <ele>188.4</ele>
        <time>2019-08-15T07:02:15Z</time>
      </trkpt>
      <trkpt lat="40.7208170" lon="-8.4750130">
        <ele>188.7</ele>
        <time>2019-08-15T07:02:21Z</time>
      </trkpt>
      <trkpt lat="40.7211560" lon="-8.4750320">
        <ele>188.8</ele>
        <time>2019-08-15T07:02:28Z</time>
      </trkpt>
      <trkpt lat="40.7215820" lon="-8.4750340">
        <ele>189.0</ele>
        <time>2019-08-15T07:02:36Z</time>
      </trkpt>
      <trkpt lat="40.7221000" lon="-8.4750500">
        <ele>187.8</ele>
        <time>2019-08-15T07:02:45Z</time>
      </trkpt>
      <trkpt lat="40.7224900" lon="-8.4750410">
        <ele>186.8</ele>
        <time>2019-08-15T07:02:52Z</time>
      </trkpt>
      <trkpt lat="40.7228970" lon="-8.4750070">
        <ele>185.9</ele>
        <time>2019-08-15T07:02:59Z</time>
      </trkpt>
      <trkpt lat="40.7229440" lon="-8.4750100">
        <ele>185.8</ele>
        <time>2019-08-15T07:03:00Z</time>
      </trkpt>
      <trkpt lat="40.7230840" lon="-8.4751050">
        <ele>185.5</ele>
        <time>2019-08-15T07:03:03Z</time>
      </trkpt>
      <trkpt lat="40.7234700" lon="-8.4753750">
        <ele>184.2</ele>
        <time>2019-08-15T07:03:10Z</time>
      </trkpt>
      <trkpt lat="40.7236810" lon="-8.4755190">
        <ele>183.7</ele>
        <time>2019-08-15T07:03:17Z</time>
      </trkpt>
      <trkpt lat="40.7237760" lon="-8.4755500">
        <ele>183.6</ele>
        <time>2019-08-15T07:03:19Z</time>
      </trkpt>
      <trkpt lat="40.7241770" lon="-8.4755980">
        <ele>182.8</ele>
        <time>2019-08-15T07:03:27Z</time>
      </trkpt>
      <trkpt lat="40.7242270" lon="-8.4756020">
        <ele>182.7</ele>
        <time>2019-08-15T07:03:28Z</time>
      </trkpt>
      <trkpt lat="40.7242840" lon="-8.4756050">
        <ele>182.6</ele>
        <time>2019-08-15T07:03:29Z</time>
      </trkpt>
      <trkpt lat="40.7243410" lon="-8.4756120">
        <ele>182.5</ele>
        <time>2019-08-15T07:03:30Z</time>
      </trkpt>
      <trkpt lat="40.7243960" lon="-8.4756190">
        <ele>182.5</ele>
        <time>2019-08-15T07:03:31Z</time>
      </trkpt>
      <trkpt lat="40.7246040" lon="-8.4756340">
        <ele>182.5</ele>
        <time>2019-08-15T07:03:35Z</time>
      </trkpt>
      <trkpt lat="40.7249930" lon="-8.4756610">
        <ele>181.9</ele>
        <time>2019-08-15T07:03:42Z</time>
      </trkpt>
      <trkpt lat="40.7250540" lon="-8.4756710">
        <ele>181.9</ele>
        <time>2019-08-15T07:03:43Z</time>
      </trkpt>
      <trkpt lat="40.7254030" lon="-8.4757470">
        <ele>181.8</ele>
        <time>2019-08-15T07:03:50Z</time>
      </trkpt>
      <trkpt lat="40.7256340" lon="-8.4758130">
        <ele>181.8</ele>
        <time>2019-08-15T07:03:55Z</time>
      </trkpt>
      <trkpt lat="40.7257310" lon="-8.4758850">
        <ele>182.5</ele>
        <time>2019-08-15T07:03:57Z</time>
      </trkpt>
      <trkpt lat="40.7260650" lon="-8.4761150">
        <ele>185.3</ele>
        <time>2019-08-15T07:04:04Z</time>
      </trkpt>
      <trkpt lat="40.7264140" lon="-8.4763470">
        <ele>186.1</ele>
        <time>2019-08-15T07:04:11Z</time>
      </trkpt>
      <trkpt lat="40.7266480" lon="-8.4765670">
        <ele>185.8</ele>
        <time>2019-08-15T07:04:16Z</time>
      </trkpt>
      <trkpt lat="40.7266930" lon="-8.4766170">
        <ele>185.7</ele>
        <time>2019-08-15T07:04:17Z</time>
      </trkpt>
      <trkpt lat="40.7267370" lon="-8.4766540">
        <ele>185.5</ele>
        <time>2019-08-15T07:04:18Z</time>
      </trkpt>
      <trkpt lat="40.7267780" lon="-8.4766880">
        <ele>185.3</ele>
        <time>2019-08-15T07:04:19Z</time>
      </trkpt>
      <trkpt lat="40.7268210" lon="-8.4767270">
        <ele>185.2</ele>
        <time>2019-08-15T07:04:20Z</time>
      </trkpt>
      <trkpt lat="40.7269930" lon="-8.4768860">
        <ele>184.4</ele>
        <time>2019-08-15T07:04:24Z</time>
      </trkpt>
      <trkpt lat="40.7273000" lon="-8.4772330">
        <ele>183.0</ele>
        <time>2019-08-15T07:04:31Z</time>
      </trkpt>
      <trkpt lat="40.7275610" lon="-8.4776170">
        <ele>181.9</ele>
        <time>2019-08-15T07:04:38Z</time>
      </trkpt>
      <trkpt lat="40.7275970" lon="-8.4776750">
        <ele>181.7</ele>
        <time>2019-08-15T07:04:39Z</time>
      </trkpt>
      <trkpt lat="40.7276380" lon="-8.4777410">
        <ele>181.6</ele>
        <time>2019-08-15T07:04:40Z</time>
      </trkpt>
      <trkpt lat="40.7276620" lon="-8.4778110">
        <ele>181.4</ele>
        <time>2019-08-15T07:04:41Z</time>
      </trkpt>
      <trkpt lat="40.7276990" lon="-8.4778700">
        <ele>181.2</ele>
        <time>2019-08-15T07:04:42Z</time>
      </trkpt>
      <trkpt lat="40.7277350" lon="-8.4779270">
        <ele>181.0</ele>
        <time>2019-08-15T07:04:43Z</time>
      </trkpt>
      <trkpt lat="40.7277590" lon="-8.4779810">
        <ele>180.8</ele>
        <time>2019-08-15T07:04:44Z</time>
      </trkpt>
      <trkpt lat="40.7277610" lon="-8.4780510">
        <ele>180.6</ele>
        <time>2019-08-15T07:04:45Z</time>
      </trkpt>
      <trkpt lat="40.7277650" lon="-8.4781170">
        <ele>180.4</ele>
        <time>2019-08-15T07:04:46Z</time>
      </trkpt>
      <trkpt lat="40.7277740" lon="-8.4781900">
        <ele>180.2</ele>
        <time>2019-08-15T07:04:47Z</time>
      </trkpt>
      <trkpt lat="40.7277870" lon="-8.4782900">
        <ele>179.8</ele>
        <time>2019-08-15T07:04:48Z</time>
      </trkpt>
      <trkpt lat="40.7278740" lon="-8.4785600">
        <ele>178.8</ele>
        <time>2019-08-15T07:04:52Z</time>
      </trkpt>
      <trkpt lat="40.7279180" lon="-8.4786690">
        <ele>178.3</ele>
        <time>2019-08-15T07:04:55Z</time>
      </trkpt>
      <trkpt lat="40.7280280" lon="-8.4788080">
        <ele>177.9</ele>
        <time>2019-08-15T07:04:59Z</time>
      </trkpt>
      <trkpt lat="40.7281500" lon="-8.4790400">
        <ele>177.1</ele>
        <time>2019-08-15T07:05:04Z</time>
      </trkpt>
      <trkpt lat="40.7281630" lon="-8.4790960">
        <ele>177.0</ele>
        <time>2019-08-15T07:05:05Z</time>
      </trkpt>
      <trkpt lat="40.7281820" lon="-8.4791410">
        <ele>176.8</ele>
        <time>2019-08-15T07:05:06Z</time>
      </trkpt>
      <trkpt lat="40.7282010" lon="-8.4791910">
        <ele>176.7</ele>
        <time>2019-08-15T07:05:07Z</time>
      </trkpt>
      <trkpt lat="40.7282220" lon="-8.4792570">
        <ele>176.6</ele>
        <time>2019-08-15T07:05:08Z</time>
      </trkpt>
      <trkpt lat="40.7282790" lon="-8.4793710">
        <ele>176.5</ele>
        <time>2019-08-15T07:05:10Z</time>
      </trkpt>
      <trkpt lat="40.7283070" lon="-8.4794280">
        <ele>176.5</ele>
        <time>2019-08-15T07:05:11Z</time>
      </trkpt>
      <trkpt lat="40.7283640" lon="-8.4795410">
        <ele>176.5</ele>
        <time>2019-08-15T07:05:13Z</time>
      </trkpt>
      <trkpt lat="40.7285090" lon="-8.4798970">
        <ele>175.6</ele>
        <time>2019-08-15T07:05:18Z</time>
      </trkpt>
      <trkpt lat="40.7287270" lon="-8.4802900">
        <ele>175.0</ele>
        <time>2019-08-15T07:05:25Z</time>
      </trkpt>
      <trkpt lat="40.7287670" lon="-8.4803380">
        <ele>175.0</ele>
        <time>2019-08-15T07:05:26Z</time>
      </trkpt>
      <trkpt lat="40.7288780" lon="-8.4805070">
        <ele>174.6</ele>
        <time>2019-08-15T07:05:29Z</time>
      </trkpt>
      <trkpt lat="40.7289160" lon="-8.4805580">
        <ele>174.4</ele>
        <time>2019-08-15T07:05:30Z</time>
      </trkpt>
      <trkpt lat="40.7289550" lon="-8.4806180">
        <ele>174.1</ele>
        <time>2019-08-15T07:05:31Z</time>
      </trkpt>
      <trkpt lat="40.7289950" lon="-8.4806760">
        <ele>173.9</ele>
        <time>2019-08-15T07:05:32Z</time>
      </trkpt>
      <trkpt lat="40.7290330" lon="-8.4807390">
        <ele>173.8</ele>
        <time>2019-08-15T07:05:33Z</time>
      </trkpt>
      <trkpt lat="40.7291450" lon="-8.4809270">
        <ele>173.5</ele>
        <time>2019-08-15T07:05:36Z</time>
      </trkpt>
      <trkpt lat="40.7292690" lon="-8.4811430">
        <ele>172.8</ele>
        <time>2019-08-15T07:05:39Z</time>
      </trkpt>
      <trkpt lat="40.7293060" lon="-8.4812210">
        <ele>172.5</ele>
        <time>2019-08-15T07:05:40Z</time>
      </trkpt>
      <trkpt lat="40.7293380" lon="-8.4813030">
        <ele>172.2</ele>
        <time>2019-08-15T07:05:41Z</time>
      </trkpt>
      <trkpt lat="40.7293710" lon="-8.4813780">
        <ele>172.0</ele>
        <time>2019-08-15T07:05:42Z</time>
      </trkpt>
      <trkpt lat="40.7294000" lon="-8.4814480">
        <ele>171.9</ele>
        <time>2019-08-15T07:05:43Z</time>
      </trkpt>
      <trkpt lat="40.7295720" lon="-8.4817750">
        <ele>170.8</ele>
        <time>2019-08-15T07:05:48Z</time>
      </trkpt>
      <trkpt lat="40.7296140" lon="-8.4818250">
        <ele>170.7</ele>
        <time>2019-08-15T07:05:49Z</time>
      </trkpt>
      <trkpt lat="40.7298630" lon="-8.4821080">
        <ele>170.3</ele>
        <time>2019-08-15T07:05:55Z</time>
      </trkpt>
      <trkpt lat="40.7298900" lon="-8.4821610">
        <ele>170.1</ele>
        <time>2019-08-15T07:05:56Z</time>
      </trkpt>
      <trkpt lat="40.7299920" lon="-8.4823600">
        <ele>169.5</ele>
        <time>2019-08-15T07:06:00Z</time>
      </trkpt>
      <trkpt lat="40.7300320" lon="-8.4824030">
        <ele>169.3</ele>
        <time>2019-08-15T07:06:01Z</time>
      </trkpt>
      <trkpt lat="40.7300710" lon="-8.4824520">
        <ele>169.2</ele>
        <time>2019-08-15T07:06:02Z</time>
      </trkpt>
      <trkpt lat="40.7301120" lon="-8.4825120">
        <ele>168.9</ele>
        <time>2019-08-15T07:06:03Z</time>
      </trkpt>
      <trkpt lat="40.7301500" lon="-8.4825750">
        <ele>168.7</ele>
        <time>2019-08-15T07:06:04Z</time>
      </trkpt>
      <trkpt lat="40.7301870" lon="-8.4826360">
        <ele>168.5</ele>
        <time>2019-08-15T07:06:05Z</time>
      </trkpt>
      <trkpt lat="40.7302160" lon="-8.4826960">
        <ele>168.3</ele>
        <time>2019-08-15T07:06:06Z</time>
      </trkpt>
      <trkpt lat="40.7304350" lon="-8.4830640">
        <ele>166.8</ele>
        <time>2019-08-15T07:06:13Z</time>
      </trkpt>
      <trkpt lat="40.7304680" lon="-8.4831160">
        <ele>166.6</ele>
        <time>2019-08-15T07:06:14Z</time>
      </trkpt>
      <trkpt lat="40.7305040" lon="-8.4831610">
        <ele>166.4</ele>
        <time>2019-08-15T07:06:15Z</time>
      </trkpt>
      <trkpt lat="40.7305390" lon="-8.4832120">
        <ele>166.1</ele>
        <time>2019-08-15T07:06:16Z</time>
      </trkpt>
      <trkpt lat="40.7305750" lon="-8.4832630">
        <ele>165.9</ele>
        <time>2019-08-15T07:06:17Z</time>
      </trkpt>
      <trkpt lat="40.7306030" lon="-8.4833080">
        <ele>165.7</ele>
        <time>2019-08-15T07:06:18Z</time>
      </trkpt>
      <trkpt lat="40.7307490" lon="-8.4835080">
        <ele>164.8</ele>
        <time>2019-08-15T07:06:22Z</time>
      </trkpt>
      <trkpt lat="40.7309570" lon="-8.4838130">
        <ele>163.6</ele>
        <time>2019-08-15T07:06:28Z</time>
      </trkpt>
      <trkpt lat="40.7310040" lon="-8.4838460">
        <ele>163.5</ele>
        <time>2019-08-15T07:06:29Z</time>
      </trkpt>
      <trkpt lat="40.7312460" lon="-8.4840950">
        <ele>162.7</ele>
        <time>2019-08-15T07:06:35Z</time>
      </trkpt>
      <trkpt lat="40.7312850" lon="-8.4841420">
        <ele>162.6</ele>
        <time>2019-08-15T07:06:36Z</time>
      </trkpt>
      <trkpt lat="40.7315360" lon="-8.4844020">
        <ele>162.4</ele>
        <time>2019-08-15T07:06:42Z</time>
      </trkpt>
      <trkpt lat="40.7318450" lon="-8.4846290">
        <ele>162.5</ele>
        <time>2019-08-15T07:06:49Z</time>
      </trkpt>
      <trkpt lat="40.7320930" lon="-8.4847270">
        <ele>161.0</ele>
        <time>2019-08-15T07:06:54Z</time>
      </trkpt>
      <trkpt lat="40.7321560" lon="-8.4847550">
        <ele>160.6</ele>
        <time>2019-08-15T07:06:55Z</time>
      </trkpt>
      <trkpt lat="40.7322150" lon="-8.4847890">
        <ele>160.1</ele>
        <time>2019-08-15T07:06:56Z</time>
      </trkpt>
      <trkpt lat="40.7322780" lon="-8.4848190">
        <ele>159.7</ele>
        <time>2019-08-15T07:06:57Z</time>
      </trkpt>
      <trkpt lat="40.7323420" lon="-8.4848710">
        <ele>159.2</ele>
        <time>2019-08-15T07:06:58Z</time>
      </trkpt>
      <trkpt lat="40.7324790" lon="-8.4849600">
        <ele>158.2</ele>
        <time>2019-08-15T07:07:00Z</time>
      </trkpt>
      <trkpt lat="40.7325340" lon="-8.4849970">
        <ele>157.9</ele>
        <time>2019-08-15T07:07:01Z</time>
      </trkpt>
      <trkpt lat="40.7325940" lon="-8.4850230">
        <ele>157.6</ele>
        <time>2019-08-15T07:07:02Z</time>
      </trkpt>
      <trkpt lat="40.7326560" lon="-8.4850290">
        <ele>157.4</ele>
        <time>2019-08-15T07:07:03Z</time>
      </trkpt>
      <trkpt lat="40.7327230" lon="-8.4850260">
        <ele>157.1</ele>
        <time>2019-08-15T07:07:04Z</time>
      </trkpt>
      <trkpt lat="40.7331140" lon="-8.4849600">
        <ele>156.0</ele>
        <time>2019-08-15T07:07:10Z</time>
      </trkpt>
      <trkpt lat="40.7331720" lon="-8.4849420">
        <ele>156.0</ele>
        <time>2019-08-15T07:07:11Z</time>
      </trkpt>
      <trkpt lat="40.7332240" lon="-8.4849240">
        <ele>155.9</ele>
        <time>2019-08-15T07:07:12Z</time>
      </trkpt>
      <trkpt lat="40.7332790" lon="-8.4849080">
        <ele>156.0</ele>
        <time>2019-08-15T07:07:13Z</time>
      </trkpt>
      <trkpt lat="40.7333370" lon="-8.4848970">
        <ele>156.1</ele>
        <time>2019-08-15T07:07:14Z</time>
      </trkpt>
      <trkpt lat="40.7333900" lon="-8.4848860">
        <ele>156.2</ele>
        <time>2019-08-15T07:07:15Z</time>
      </trkpt>
      <trkpt lat="40.7334960" lon="-8.4848610">
        <ele>156.5</ele>
        <time>2019-08-15T07:07:17Z</time>
      </trkpt>
      <trkpt lat="40.7336220" lon="-8.4848180">
        <ele>157.2</ele>
        <time>2019-08-15T07:07:20Z</time>
      </trkpt>
      <trkpt lat="40.7336520" lon="-8.4848140">
        <ele>157.4</ele>
        <time>2019-08-15T07:07:21Z</time>
      </trkpt>
      <trkpt lat="40.7336840" lon="-8.4848110">
        <ele>157.6</ele>
        <time>2019-08-15T07:07:22Z</time>
      </trkpt>
      <trkpt lat="40.7337130" lon="-8.4848090">
        <ele>157.9</ele>
        <time>2019-08-15T07:07:23Z</time>
      </trkpt>
      <trkpt lat="40.7337420" lon="-8.4848020">
        <ele>158.1</ele>
        <time>2019-08-15T07:07:24Z</time>
      </trkpt>
      <trkpt lat="40.7338530" lon="-8.4848290">
        <ele>159.0</ele>
        <time>2019-08-15T07:07:28Z</time>
      </trkpt>
      <trkpt lat="40.7338740" lon="-8.4848440">
        <ele>159.2</ele>
        <time>2019-08-15T07:07:29Z</time>
      </trkpt>
      <trkpt lat="40.7338950" lon="-8.4848740">
        <ele>159.5</ele>
        <time>2019-08-15T07:07:30Z</time>
      </trkpt>
      <trkpt lat="40.7339120" lon="-8.4849010">
        <ele>159.7</ele>
        <time>2019-08-15T07:07:31Z</time>
      </trkpt>
      <trkpt lat="40.7339870" lon="-8.4849810">
        <ele>160.1</ele>
        <time>2019-08-15T07:07:34Z</time>
      </trkpt>
      <trkpt lat="40.7341510" lon="-8.4850800">
        <ele>160.7</ele>
        <time>2019-08-15T07:07:39Z</time>
      </trkpt>
      <trkpt lat="40.7342650" lon="-8.4852130">
        <ele>159.1</ele>
        <time>2019-08-15T07:07:44Z</time>
      </trkpt>
      <trkpt lat="40.7344190" lon="-8.4855430">
        <ele>155.8</ele>
        <time>2019-08-15T07:07:52Z</time>
      </trkpt>
      <trkpt lat="40.7344710" lon="-8.4856310">
        <ele>154.8</ele>
        <time>2019-08-15T07:07:54Z</time>
      </trkpt>
      <trkpt lat="40.7345920" lon="-8.4858200">
        <ele>153.0</ele>
        <time>2019-08-15T07:07:58Z</time>
      </trkpt>
      <trkpt lat="40.7347500" lon="-8.4861810">
        <ele>151.6</ele>
        <time>2019-08-15T07:08:04Z</time>
      </trkpt>
      <trkpt lat="40.7348790" lon="-8.4864190">
        <ele>150.9</ele>
        <time>2019-08-15T07:08:08Z</time>
      </trkpt>
      <trkpt lat="40.7349140" lon="-8.4864750">
        <ele>150.8</ele>
        <time>2019-08-15T07:08:09Z</time>
      </trkpt>
      <trkpt lat="40.7349480" lon="-8.4865360">
        <ele>150.7</ele>
        <time>2019-08-15T07:08:10Z</time>
      </trkpt>
      <trkpt lat="40.7349820" lon="-8.4866000">
        <ele>150.6</ele>
        <time>2019-08-15T07:08:11Z</time>
      </trkpt>
      <trkpt lat="40.7350150" lon="-8.4866640">
        <ele>150.6</ele>
        <time>2019-08-15T07:08:12Z</time>
      </trkpt>
      <trkpt lat="40.7351390" lon="-8.4870370">
        <ele>150.3</ele>
        <time>2019-08-15T07:08:17Z</time>
      </trkpt>
      <trkpt lat="40.7351600" lon="-8.4871190">
        <ele>150.2</ele>
        <time>2019-08-15T07:08:18Z</time>
      </trkpt>
      <trkpt lat="40.7351770" lon="-8.4872040">
        <ele>150.1</ele>
        <time>2019-08-15T07:08:19Z</time>
      </trkpt>
      <trkpt lat="40.7351900" lon="-8.4872930">
        <ele>150.0</ele>
        <time>2019-08-15T07:08:20Z</time>
      </trkpt>
      <trkpt lat="40.7351840" lon="-8.4873790">
        <ele>149.9</ele>
        <time>2019-08-15T07:08:21Z</time>
      </trkpt>
      <trkpt lat="40.7351160" lon="-8.4876510">
        <ele>149.7</ele>
        <time>2019-08-15T07:08:25Z</time>
      </trkpt>
      <trkpt lat="40.7349590" lon="-8.4877510">
        <ele>149.3</ele>
        <time>2019-08-15T07:08:28Z</time>
      </trkpt>
      <trkpt lat="40.7349000" lon="-8.4877660">
        <ele>149.2</ele>
        <time>2019-08-15T07:08:29Z</time>
      </trkpt>
      <trkpt lat="40.7348470" lon="-8.4877760">
        <ele>149.0</ele>
        <time>2019-08-15T07:08:30Z</time>
      </trkpt>
      <trkpt lat="40.7347930" lon="-8.4877830">
        <ele>148.9</ele>
        <time>2019-08-15T07:08:31Z</time>
      </trkpt>
      <trkpt lat="40.7347480" lon="-8.4877950">
        <ele>148.7</ele>
        <time>2019-08-15T07:08:32Z</time>
      </trkpt>
      <trkpt lat="40.7347180" lon="-8.4878190">
        <ele>148.6</ele>
        <time>2019-08-15T07:08:33Z</time>
      </trkpt>
      <trkpt lat="40.7346970" lon="-8.4878830">
        <ele>148.1</ele>
        <time>2019-08-15T07:08:35Z</time>
      </trkpt>
      <trkpt lat="40.7347010" lon="-8.4879190">
        <ele>148.0</ele>
        <time>2019-08-15T07:08:36Z</time>
      </trkpt>
      <trkpt lat="40.7347350" lon="-8.4881300">
        <ele>147.4</ele>
        <time>2019-08-15T07:08:40Z</time>
      </trkpt>
      <trkpt lat="40.7347440" lon="-8.4881960">
        <ele>147.2</ele>
        <time>2019-08-15T07:08:41Z</time>
      </trkpt>
      <trkpt lat="40.7347570" lon="-8.4882590">
        <ele>147.0</ele>
        <time>2019-08-15T07:08:42Z</time>
      </trkpt>
      <trkpt lat="40.7347750" lon="-8.4883050">
        <ele>146.8</ele>
        <time>2019-08-15T07:08:43Z</time>
      </trkpt>
      <trkpt lat="40.7348000" lon="-8.4883340">
        <ele>146.7</ele>
        <time>2019-08-15T07:08:44Z</time>
      </trkpt>
      <trkpt lat="40.7349110" lon="-8.4883610">
        <ele>146.8</ele>
        <time>2019-08-15T07:08:47Z</time>
      </trkpt>
      <trkpt lat="40.7350000" lon="-8.4883460">
        <ele>147.0</ele>
        <time>2019-08-15T07:08:49Z</time>
      </trkpt>
      <trkpt lat="40.7352060" lon="-8.4883290">
        <ele>147.4</ele>
        <time>2019-08-15T07:08:54Z</time>
      </trkpt>
      <trkpt lat="40.7355760" lon="-8.4883070">
        <ele>147.6</ele>
        <time>2019-08-15T07:09:02Z</time>
      </trkpt>
      <trkpt lat="40.7358220" lon="-8.4883080">
        <ele>146.4</ele>
        <time>2019-08-15T07:09:07Z</time>
      </trkpt>
      <trkpt lat="40.7358720" lon="-8.4883120">
        <ele>146.2</ele>
        <time>2019-08-15T07:09:08Z</time>
      </trkpt>
      <trkpt lat="40.7359190" lon="-8.4883170">
        <ele>146.0</ele>
        <time>2019-08-15T07:09:09Z</time>
      </trkpt>
      <trkpt lat="40.7359690" lon="-8.4883290">
        <ele>145.7</ele>
        <time>2019-08-15T07:09:10Z</time>
      </trkpt>
      <trkpt lat="40.7360220" lon="-8.4883440">
        <ele>145.5</ele>
        <time>2019-08-15T07:09:11Z</time>
      </trkpt>
      <trkpt lat="40.7363930" lon="-8.4884740">
        <ele>144.3</ele>
        <time>2019-08-15T07:09:18Z</time>
      </trkpt>
      <trkpt lat="40.7365560" lon="-8.4885740">
        <ele>143.7</ele>
        <time>2019-08-15T07:09:21Z</time>
      </trkpt>
      <trkpt lat="40.7366100" lon="-8.4886130">
        <ele>143.6</ele>
        <time>2019-08-15T07:09:22Z</time>
      </trkpt>
      <trkpt lat="40.7366650" lon="-8.4886610">
        <ele>143.3</ele>
        <time>2019-08-15T07:09:23Z</time>
      </trkpt>
      <trkpt lat="40.7367240" lon="-8.4887030">
        <ele>143.1</ele>
        <time>2019-08-15T07:09:24Z</time>
      </trkpt>
      <trkpt lat="40.7367840" lon="-8.4887420">
        <ele>142.8</ele>
        <time>2019-08-15T07:09:25Z</time>
      </trkpt>
      <trkpt lat="40.7369650" lon="-8.4888760">
        <ele>141.9</ele>
        <time>2019-08-15T07:09:28Z</time>
      </trkpt>
      <trkpt lat="40.7370270" lon="-8.4889200">
        <ele>141.5</ele>
        <time>2019-08-15T07:09:29Z</time>
      </trkpt>
      <trkpt lat="40.7370870" lon="-8.4889630">
        <ele>141.2</ele>
        <time>2019-08-15T07:09:30Z</time>
      </trkpt>
      <trkpt lat="40.7371480" lon="-8.4890020">
        <ele>140.9</ele>
        <time>2019-08-15T07:09:31Z</time>
      </trkpt>
      <trkpt lat="40.7372050" lon="-8.4890440">
        <ele>140.6</ele>
        <time>2019-08-15T07:09:32Z</time>
      </trkpt>
      <trkpt lat="40.7373200" lon="-8.4891270">
        <ele>140.0</ele>
        <time>2019-08-15T07:09:34Z</time>
      </trkpt>
      <trkpt lat="40.7378470" lon="-8.4894770">
        <ele>139.6</ele>
        <time>2019-08-15T07:09:43Z</time>
      </trkpt>
      <trkpt lat="40.7382190" lon="-8.4896890">
        <ele>140.4</ele>
        <time>2019-08-15T07:09:50Z</time>
      </trkpt>
      <trkpt lat="40.7382740" lon="-8.4896810">
        <ele>140.6</ele>
        <time>2019-08-15T07:09:51Z</time>
      </trkpt>
      <trkpt lat="40.7384370" lon="-8.4895700">
        <ele>142.0</ele>
        <time>2019-08-15T07:09:54Z</time>
      </trkpt>
      <trkpt lat="40.7387550" lon="-8.4893710">
        <ele>143.6</ele>
        <time>2019-08-15T07:10:01Z</time>
      </trkpt>
      <trkpt lat="40.7390590" lon="-8.4893230">
        <ele>145.2</ele>
        <time>2019-08-15T07:10:08Z</time>
      </trkpt>
      <trkpt lat="40.7391770" lon="-8.4892980">
        <ele>145.8</ele>
        <time>2019-08-15T07:10:11Z</time>
      </trkpt>
      <trkpt lat="40.7392170" lon="-8.4892940">
        <ele>146.0</ele>
        <time>2019-08-15T07:10:12Z</time>
      </trkpt>
      <trkpt lat="40.7392580" lon="-8.4892920">
        <ele>146.1</ele>
        <time>2019-08-15T07:10:13Z</time>
      </trkpt>
      <trkpt lat="40.7393010" lon="-8.4892980">
        <ele>146.3</ele>
        <time>2019-08-15T07:10:14Z</time>
      </trkpt>
      <trkpt lat="40.7393390" lon="-8.4892990">
        <ele>146.4</ele>
        <time>2019-08-15T07:10:15Z</time>
      </trkpt>
      <trkpt lat="40.7396020" lon="-8.4893070">
        <ele>147.1</ele>
        <time>2019-08-15T07:10:21Z</time>
      </trkpt>
      <trkpt lat="40.7396480" lon="-8.4893060">
        <ele>147.2</ele>
        <time>2019-08-15T07:10:22Z</time>
      </trkpt>
      <trkpt lat="40.7396940" lon="-8.4893100">
        <ele>147.3</ele>
        <time>2019-08-15T07:10:23Z</time>
      </trkpt>
      <trkpt lat="40.7397370" lon="-8.4893200">
        <ele>147.4</ele>
        <time>2019-08-15T07:10:24Z</time>
      </trkpt>
      <trkpt lat="40.7397830" lon="-8.4893270">
        <ele>147.5</ele>
        <time>2019-08-15T07:10:25Z</time>
      </trkpt>
      <trkpt lat="40.7398250" lon="-8.4893410">
        <ele>147.5</ele>
        <time>2019-08-15T07:10:26Z</time>
      </trkpt>
      <trkpt lat="40.7399080" lon="-8.4893520">
        <ele>147.7</ele>
        <time>2019-08-15T07:10:28Z</time>
      </trkpt>
      <trkpt lat="40.7401410" lon="-8.4894330">
        <ele>148.3</ele>
        <time>2019-08-15T07:10:34Z</time>
      </trkpt>
      <trkpt lat="40.7401760" lon="-8.4894500">
        <ele>148.4</ele>
        <time>2019-08-15T07:10:35Z</time>
      </trkpt>
      <trkpt lat="40.7402130" lon="-8.4894640">
        <ele>148.5</ele>
        <time>2019-08-15T07:10:36Z</time>
      </trkpt>
      <trkpt lat="40.7402450" lon="-8.4894820">
        <ele>148.6</ele>
        <time>2019-08-15T07:10:37Z</time>
      </trkpt>
      <trkpt lat="40.7402810" lon="-8.4895000">
        <ele>148.8</ele>
        <time>2019-08-15T07:10:38Z</time>
      </trkpt>
      <trkpt lat="40.7405570" lon="-8.4896460">
        <ele>149.6</ele>
        <time>2019-08-15T07:10:46Z</time>
      </trkpt>
      <trkpt lat="40.7406820" lon="-8.4896760">
        <ele>149.8</ele>
        <time>2019-08-15T07:10:49Z</time>
      </trkpt>
      <trkpt lat="40.7407230" lon="-8.4896830">
        <ele>149.9</ele>
        <time>2019-08-15T07:10:50Z</time>
      </trkpt>
      <trkpt lat="40.7407630" lon="-8.4896910">
        <ele>149.9</ele>
        <time>2019-08-15T07:10:51Z</time>
      </trkpt>
      <trkpt lat="40.7408030" lon="-8.4897020">
        <ele>150.0</ele>
        <time>2019-08-15T07:10:52Z</time>
      </trkpt>
      <trkpt lat="40.7408460" lon="-8.4897120">
        <ele>150.1</ele>
        <time>2019-08-15T07:10:53Z</time>
      </trkpt>
      <trkpt lat="40.7409350" lon="-8.4897380">
        <ele>150.3</ele>
        <time>2019-08-15T07:10:55Z</time>
      </trkpt>
      <trkpt lat="40.7412560" lon="-8.4898440">
        <ele>151.1</ele>
        <time>2019-08-15T07:11:03Z</time>
      </trkpt>
      <trkpt lat="40.7415030" lon="-8.4899480">
        <ele>151.6</ele>
        <time>2019-08-15T07:11:10Z</time>
      </trkpt>
      <trkpt lat="40.7417840" lon="-8.4900910">
        <ele>152.1</ele>
        <time>2019-08-15T07:11:18Z</time>
      </trkpt>
      <trkpt lat="40.7418200" lon="-8.4901070">
        <ele>152.1</ele>
        <time>2019-08-15T07:11:19Z</time>
      </trkpt>
      <trkpt lat="40.7418540" lon="-8.4901200">
        <ele>152.2</ele>
        <time>2019-08-15T07:11:20Z</time>
      </trkpt>
      <trkpt lat="40.7418880" lon="-8.4901370">
        <ele>152.3</ele>
        <time>2019-08-15T07:11:21Z</time>
      </trkpt>
      <trkpt lat="40.7419230" lon="-8.4901530">
        <ele>152.3</ele>
        <time>2019-08-15T07:11:22Z</time>
      </trkpt>
      <trkpt lat="40.7420400" lon="-8.4903550">
        <ele>152.8</ele>
        <time>2019-08-15T07:11:27Z</time>
      </trkpt>
      <trkpt lat="40.7420460" lon="-8.4906260">
        <ele>153.2</ele>
        <time>2019-08-15T07:11:32Z</time>
      </trkpt>
      <trkpt lat="40.7421250" lon="-8.4906640">
        <ele>153.4</ele>
        <time>2019-08-15T07:11:36Z</time>
      </trkpt>
      <trkpt lat="40.7422590" lon="-8.4906120">
        <ele>153.7</ele>
        <time>2019-08-15T07:11:40Z</time>
      </trkpt>
      <trkpt lat="40.7423330" lon="-8.4906010">
        <ele>153.8</ele>
        <time>2019-08-15T07:11:42Z</time>
      </trkpt>
      <trkpt lat="40.7423680" lon="-8.4905940">
        <ele>153.9</ele>
        <time>2019-08-15T07:11:43Z</time>
      </trkpt>
      <trkpt lat="40.7424100" lon="-8.4905870">
        <ele>153.9</ele>
        <time>2019-08-15T07:11:44Z</time>
      </trkpt>
      <trkpt lat="40.7424440" lon="-8.4905860">
        <ele>154.0</ele>
        <time>2019-08-15T07:11:45Z</time>
      </trkpt>
      <trkpt lat="40.7424810" lon="-8.4905850">
        <ele>154.0</ele>
        <time>2019-08-15T07:11:46Z</time>
      </trkpt>
      <trkpt lat="40.7425180" lon="-8.4905820">
        <ele>154.1</ele>
        <time>2019-08-15T07:11:47Z</time>
      </trkpt>
      <trkpt lat="40.7428900" lon="-8.4905610">
        <ele>154.4</ele>
        <time>2019-08-15T07:11:57Z</time>
      </trkpt>
      <trkpt lat="40.7431010" lon="-8.4905580">
        <ele>155.2</ele>
        <time>2019-08-15T07:12:03Z</time>
      </trkpt>
      <trkpt lat="40.7432690" lon="-8.4905610">
        <ele>155.7</ele>
        <time>2019-08-15T07:12:08Z</time>
      </trkpt>
      <trkpt lat="40.7434410" lon="-8.4905530">
        <ele>155.3</ele>
        <time>2019-08-15T07:12:14Z</time>
      </trkpt>
      <trkpt lat="40.7437320" lon="-8.4905490">
        <ele>154.3</ele>
        <time>2019-08-15T07:12:22Z</time>
      </trkpt>
      <trkpt lat="40.7441520" lon="-8.4905100">
        <ele>153.1</ele>
        <time>2019-08-15T07:12:30Z</time>
      </trkpt>
      <trkpt lat="40.7444780" lon="-8.4904860">
        <ele>152.5</ele>
        <time>2019-08-15T07:12:35Z</time>
      </trkpt>
      <trkpt lat="40.7445470" lon="-8.4904830">
        <ele>152.4</ele>
        <time>2019-08-15T07:12:36Z</time>
      </trkpt>
      <trkpt lat="40.7446160" lon="-8.4904800">
        <ele>152.4</ele>
        <time>2019-08-15T07:12:37Z</time>
      </trkpt>
      <trkpt lat="40.7446910" lon="-8.4904730">
        <ele>152.4</ele>
        <time>2019-08-15T07:12:38Z</time>
      </trkpt>
      <trkpt lat="40.7447620" lon="-8.4904670">
        <ele>152.4</ele>
        <time>2019-08-15T07:12:39Z</time>
      </trkpt>
      <trkpt lat="40.7451270" lon="-8.4904440">
        <ele>152.6</ele>
        <time>2019-08-15T07:12:45Z</time>
      </trkpt>
      <trkpt lat="40.7455020" lon="-8.4904230">
        <ele>154.0</ele>
        <time>2019-08-15T07:12:52Z</time>
      </trkpt>
      <trkpt lat="40.7459710" lon="-8.4904580">
        <ele>154.9</ele>
        <time>2019-08-15T07:13:00Z</time>
      </trkpt>
      <trkpt lat="40.7461780" lon="-8.4904820">
        <ele>155.3</ele>
        <time>2019-08-15T07:13:04Z</time>
      </trkpt>
      <trkpt lat="40.7462460" lon="-8.4905430">
        <ele>155.5</ele>
        <time>2019-08-15T07:13:06Z</time>
      </trkpt>
      <trkpt lat="40.7463020" lon="-8.4906110">
        <ele>155.8</ele>
        <time>2019-08-15T07:13:08Z</time>
      </trkpt>
      <trkpt lat="40.7464630" lon="-8.4906520">
        <ele>156.2</ele>
        <time>2019-08-15T07:13:12Z</time>
      </trkpt>
      <trkpt lat="40.7468170" lon="-8.4907060">
        <ele>156.9</ele>
        <time>2019-08-15T07:13:19Z</time>
      </trkpt>
      <trkpt lat="40.7472300" lon="-8.4907860">
        <ele>157.3</ele>
        <time>2019-08-15T07:13:26Z</time>
      </trkpt>
      <trkpt lat="40.7476510" lon="-8.4908420">
        <ele>157.4</ele>
        <time>2019-08-15T07:13:33Z</time>
      </trkpt>
      <trkpt lat="40.7477070" lon="-8.4908350">
        <ele>157.5</ele>
        <time>2019-08-15T07:13:34Z</time>
      </trkpt>
      <trkpt lat="40.7480860" lon="-8.4907420">
        <ele>157.9</ele>
        <time>2019-08-15T07:13:41Z</time>
      </trkpt>
      <trkpt lat="40.7483610" lon="-8.4905670">
        <ele>158.5</ele>
        <time>2019-08-15T07:13:47Z</time>
      </trkpt>
      <trkpt lat="40.7485740" lon="-8.4903630">
        <ele>159.2</ele>
        <time>2019-08-15T07:13:53Z</time>
      </trkpt>
      <trkpt lat="40.7486100" lon="-8.4903320">
        <ele>159.4</ele>
        <time>2019-08-15T07:13:54Z</time>
      </trkpt>
      <trkpt lat="40.7486460" lon="-8.4903040">
        <ele>159.5</ele>
        <time>2019-08-15T07:13:55Z</time>
      </trkpt>
      <trkpt lat="40.7486850" lon="-8.4902850">
        <ele>159.5</ele>
        <time>2019-08-15T07:13:56Z</time>
      </trkpt>
      <trkpt lat="40.7487310" lon="-8.4902700">
        <ele>159.5</ele>
        <time>2019-08-15T07:13:57Z</time>
      </trkpt>
      <trkpt lat="40.7488180" lon="-8.4902530">
        <ele>159.5</ele>
        <time>2019-08-15T07:13:59Z</time>
      </trkpt>
      <trkpt lat="40.7488640" lon="-8.4902490">
        <ele>159.6</ele>
        <time>2019-08-15T07:14:00Z</time>
      </trkpt>
      <trkpt lat="40.7492060" lon="-8.4902290">
        <ele>159.1</ele>
        <time>2019-08-15T07:14:07Z</time>
      </trkpt>
      <trkpt lat="40.7494810" lon="-8.4902230">
        <ele>158.4</ele>
        <time>2019-08-15T07:14:12Z</time>
      </trkpt>
      <trkpt lat="40.7495430" lon="-8.4902300">
        <ele>158.3</ele>
        <time>2019-08-15T07:14:13Z</time>
      </trkpt>
      <trkpt lat="40.7496040" lon="-8.4902390">
        <ele>158.2</ele>
        <time>2019-08-15T07:14:14Z</time>
      </trkpt>
      <trkpt lat="40.7496600" lon="-8.4902440">
        <ele>158.1</ele>
        <time>2019-08-15T07:14:15Z</time>
      </trkpt>
      <trkpt lat="40.7497180" lon="-8.4902500">
        <ele>158.0</ele>
        <time>2019-08-15T07:14:16Z</time>
      </trkpt>
      <trkpt lat="40.7501780" lon="-8.4903240">
        <ele>157.8</ele>
        <time>2019-08-15T07:14:24Z</time>
      </trkpt>
      <trkpt lat="40.7502930" lon="-8.4903560">
        <ele>157.8</ele>
        <time>2019-08-15T07:14:26Z</time>
      </trkpt>
      <trkpt lat="40.7505140" lon="-8.4904280">
        <ele>158.0</ele>
        <time>2019-08-15T07:14:30Z</time>
      </trkpt>
      <trkpt lat="40.7508700" lon="-8.4905200">
        <ele>158.3</ele>
        <time>2019-08-15T07:14:37Z</time>
      </trkpt>
      <trkpt lat="40.7512930" lon="-8.4906590">
        <ele>159.1</ele>
        <time>2019-08-15T07:14:46Z</time>
      </trkpt>
      <trkpt lat="40.7515230" lon="-8.4907450">
        <ele>159.3</ele>
        <time>2019-08-15T07:14:51Z</time>
      </trkpt>
      <trkpt lat="40.7515660" lon="-8.4907610">
        <ele>159.3</ele>
        <time>2019-08-15T07:14:52Z</time>
      </trkpt>
      <trkpt lat="40.7516090" lon="-8.4907750">
        <ele>159.3</ele>
        <time>2019-08-15T07:14:53Z</time>
      </trkpt>
      <trkpt lat="40.7516530" lon="-8.4907920">
        <ele>159.2</ele>
        <time>2019-08-15T07:14:54Z</time>
      </trkpt>
      <trkpt lat="40.7516980" lon="-8.4908090">
        <ele>159.2</ele>
        <time>2019-08-15T07:14:55Z</time>
      </trkpt>
      <trkpt lat="40.7518400" lon="-8.4908540">
        <ele>159.0</ele>
        <time>2019-08-15T07:14:58Z</time>
      </trkpt>
      <trkpt lat="40.7522520" lon="-8.4909130">
        <ele>158.5</ele>
        <time>2019-08-15T07:15:06Z</time>
      </trkpt>
      <trkpt lat="40.7523040" lon="-8.4909060">
        <ele>158.5</ele>
        <time>2019-08-15T07:15:07Z</time>
      </trkpt>
      <trkpt lat="40.7525110" lon="-8.4908680">
        <ele>158.7</ele>
        <time>2019-08-15T07:15:11Z</time>
      </trkpt>
      <trkpt lat="40.7529430" lon="-8.4905990">
        <ele>159.2</ele>
        <time>2019-08-15T07:15:20Z</time>
      </trkpt>
      <trkpt lat="40.7531650" lon="-8.4903860">
        <ele>158.5</ele>
        <time>2019-08-15T07:15:25Z</time>
      </trkpt>
      <trkpt lat="40.7532020" lon="-8.4903280">
        <ele>158.1</ele>
        <time>2019-08-15T07:15:26Z</time>
      </trkpt>
      <trkpt lat="40.7533820" lon="-8.4899730">
        <ele>155.4</ele>
        <time>2019-08-15T07:15:31Z</time>
      </trkpt>
      <trkpt lat="40.7534230" lon="-8.4899050">
        <ele>154.9</ele>
        <time>2019-08-15T07:15:32Z</time>
      </trkpt>
      <trkpt lat="40.7535390" lon="-8.4897850">
        <ele>154.0</ele>
        <time>2019-08-15T07:15:34Z</time>
      </trkpt>
      <trkpt lat="40.7536070" lon="-8.4897480">
        <ele>153.6</ele>
        <time>2019-08-15T07:15:35Z</time>
      </trkpt>
      <trkpt lat="40.7536730" lon="-8.4897160">
        <ele>153.4</ele>
        <time>2019-08-15T07:15:36Z</time>
      </trkpt>
      <trkpt lat="40.7537430" lon="-8.4896900">
        <ele>153.2</ele>
        <time>2019-08-15T07:15:37Z</time>
      </trkpt>
      <trkpt lat="40.7538080" lon="-8.4896660">
        <ele>153.0</ele>
        <time>2019-08-15T07:15:38Z</time>
      </trkpt>
      <trkpt lat="40.7540080" lon="-8.4895940">
        <ele>152.4</ele>
        <time>2019-08-15T07:15:41Z</time>
      </trkpt>
      <trkpt lat="40.7544540" lon="-8.4895050">
        <ele>151.9</ele>
        <time>2019-08-15T07:15:48Z</time>
      </trkpt>
      <trkpt lat="40.7549450" lon="-8.4894070">
        <ele>151.4</ele>
        <time>2019-08-15T07:15:57Z</time>
      </trkpt>
      <trkpt lat="40.7550940" lon="-8.4893730">
        <ele>151.4</ele>
        <time>2019-08-15T07:16:00Z</time>
      </trkpt>
      <trkpt lat="40.7552470" lon="-8.4892890">
        <ele>151.3</ele>
        <time>2019-08-15T07:16:03Z</time>
      </trkpt>
      <trkpt lat="40.7556160" lon="-8.4891770">
        <ele>149.7</ele>
        <time>2019-08-15T07:16:10Z</time>
      </trkpt>
      <trkpt lat="40.7558790" lon="-8.4891210">
        <ele>147.2</ele>
        <time>2019-08-15T07:16:14Z</time>
      </trkpt>
      <trkpt lat="40.7559600" lon="-8.4891030">
        <ele>146.2</ele>
        <time>2019-08-15T07:16:15Z</time>
      </trkpt>
      <trkpt lat="40.7560460" lon="-8.4890840">
        <ele>145.4</ele>
        <time>2019-08-15T07:16:16Z</time>
      </trkpt>
      <trkpt lat="40.7561390" lon="-8.4890700">
        <ele>144.8</ele>
        <time>2019-08-15T07:16:17Z</time>
      </trkpt>
      <trkpt lat="40.7562360" lon="-8.4890570">
        <ele>144.6</ele>
        <time>2019-08-15T07:16:18Z</time>
      </trkpt>
      <trkpt lat="40.7563370" lon="-8.4890460">
        <ele>144.3</ele>
        <time>2019-08-15T07:16:19Z</time>
      </trkpt>
      <trkpt lat="40.7564350" lon="-8.4890390">
        <ele>144.1</ele>
        <time>2019-08-15T07:16:20Z</time>
      </trkpt>
      <trkpt lat="40.7565450" lon="-8.4890280">
        <ele>143.9</ele>
        <time>2019-08-15T07:16:21Z</time>
      </trkpt>
      <trkpt lat="40.7566460" lon="-8.4890200">
        <ele>143.9</ele>
        <time>2019-08-15T07:16:22Z</time>
      </trkpt>
      <trkpt lat="40.7567510" lon="-8.4890170">
        <ele>143.9</ele>
        <time>2019-08-15T07:16:23Z</time>
      </trkpt>
      <trkpt lat="40.7568470" lon="-8.4890200">
        <ele>143.9</ele>
        <time>2019-08-15T07:16:24Z</time>
      </trkpt>
      <trkpt lat="40.7569360" lon="-8.4890430">
        <ele>143.8</ele>
        <time>2019-08-15T07:16:25Z</time>
      </trkpt>
      <trkpt lat="40.7570190" lon="-8.4890820">
        <ele>143.8</ele>
        <time>2019-08-15T07:16:26Z</time>
      </trkpt>
      <trkpt lat="40.7571650" lon="-8.4891690">
        <ele>143.7</ele>
        <time>2019-08-15T07:16:28Z</time>
      </trkpt>
      <trkpt lat="40.7574730" lon="-8.4894390">
        <ele>143.7</ele>
        <time>2019-08-15T07:16:33Z</time>
      </trkpt>
      <trkpt lat="40.7577710" lon="-8.4896720">
        <ele>143.0</ele>
        <time>2019-08-15T07:16:38Z</time>
      </trkpt>
      <trkpt lat="40.7578310" lon="-8.4897180">
        <ele>142.8</ele>
        <time>2019-08-15T07:16:39Z</time>
      </trkpt>
      <trkpt lat="40.7578870" lon="-8.4897650">
        <ele>142.6</ele>
        <time>2019-08-15T07:16:40Z</time>
      </trkpt>
      <trkpt lat="40.7579430" lon="-8.4898160">
        <ele>142.3</ele>
        <time>2019-08-15T07:16:41Z</time>
      </trkpt>
      <trkpt lat="40.7579930" lon="-8.4898670">
        <ele>142.0</ele>
        <time>2019-08-15T07:16:42Z</time>
      </trkpt>
      <trkpt lat="40.7581840" lon="-8.4900020">
        <ele>141.4</ele>
        <time>2019-08-15T07:16:45Z</time>
      </trkpt>
      <trkpt lat="40.7582650" lon="-8.4900140">
        <ele>141.2</ele>
        <time>2019-08-15T07:16:46Z</time>
      </trkpt>
      <trkpt lat="40.7583530" lon="-8.4900110">
        <ele>141.1</ele>
        <time>2019-08-15T07:16:47Z</time>
      </trkpt>
      <trkpt lat="40.7584510" lon="-8.4899680">
        <ele>141.0</ele>
        <time>2019-08-15T07:16:48Z</time>
      </trkpt>
      <trkpt lat="40.7585380" lon="-8.4899290">
        <ele>141.0</ele>
        <time>2019-08-15T07:16:49Z</time>
      </trkpt>
      <trkpt lat="40.7586260" lon="-8.4898850">
        <ele>141.0</ele>
        <time>2019-08-15T07:16:50Z</time>
      </trkpt>
      <trkpt lat="40.7587050" lon="-8.4898440">
        <ele>141.0</ele>
        <time>2019-08-15T07:16:51Z</time>
      </trkpt>
      <trkpt lat="40.7589220" lon="-8.4897320">
        <ele>141.6</ele>
        <time>2019-08-15T07:16:54Z</time>
      </trkpt>
      <trkpt lat="40.7593680" lon="-8.4895000">
        <ele>143.8</ele>
        <time>2019-08-15T07:17:01Z</time>
      </trkpt>
      <trkpt lat="40.7595440" lon="-8.4893870">
        <ele>145.1</ele>
        <time>2019-08-15T07:17:05Z</time>
      </trkpt>
      <trkpt lat="40.7595800" lon="-8.4893620">
        <ele>145.3</ele>
        <time>2019-08-15T07:17:06Z</time>
      </trkpt>
      <trkpt lat="40.7596120" lon="-8.4893380">
        <ele>145.6</ele>
        <time>2019-08-15T07:17:07Z</time>
      </trkpt>
      <trkpt lat="40.7596420" lon="-8.4893170">
        <ele>145.8</ele>
        <time>2019-08-15T07:17:08Z</time>
      </trkpt>
      <trkpt lat="40.7596720" lon="-8.4892920">
        <ele>146.1</ele>
        <time>2019-08-15T07:17:09Z</time>
      </trkpt>
      <trkpt lat="40.7597080" lon="-8.4892680">
        <ele>146.3</ele>
        <time>2019-08-15T07:17:10Z</time>
      </trkpt>
      <trkpt lat="40.7597390" lon="-8.4892440">
        <ele>146.6</ele>
        <time>2019-08-15T07:17:11Z</time>
      </trkpt>
      <trkpt lat="40.7597760" lon="-8.4892220">
        <ele>146.8</ele>
        <time>2019-08-15T07:17:12Z</time>
      </trkpt>
      <trkpt lat="40.7598070" lon="-8.4891980">
        <ele>147.1</ele>
        <time>2019-08-15T07:17:13Z</time>
      </trkpt>
      <trkpt lat="40.7598380" lon="-8.4891750">
        <ele>147.3</ele>
        <time>2019-08-15T07:17:14Z</time>
      </trkpt>
      <trkpt lat="40.7598680" lon="-8.4891520">
        <ele>147.6</ele>
        <time>2019-08-15T07:17:15Z</time>
      </trkpt>
      <trkpt lat="40.7598980" lon="-8.4891280">
        <ele>147.9</ele>
        <time>2019-08-15T07:17:16Z</time>
      </trkpt>
      <trkpt lat="40.7599320" lon="-8.4891080">
        <ele>148.2</ele>
        <time>2019-08-15T07:17:17Z</time>
      </trkpt>
      <trkpt lat="40.7599630" lon="-8.4890900">
        <ele>148.5</ele>
        <time>2019-08-15T07:17:18Z</time>
      </trkpt>
      <trkpt lat="40.7599940" lon="-8.4890710">
        <ele>148.7</ele>
        <time>2019-08-15T07:17:19Z</time>
      </trkpt>
      <trkpt lat="40.7601300" lon="-8.4889930">
        <ele>149.7</ele>
        <time>2019-08-15T07:17:23Z</time>
      </trkpt>
      <trkpt lat="40.7601650" lon="-8.4889690">
        <ele>149.9</ele>
        <time>2019-08-15T07:17:24Z</time>
      </trkpt>
      <trkpt lat="40.7602000" lon="-8.4889440">
        <ele>150.2</ele>
        <time>2019-08-15T07:17:25Z</time>
      </trkpt>
      <trkpt lat="40.7602320" lon="-8.4889240">
        <ele>150.4</ele>
        <time>2019-08-15T07:17:26Z</time>
      </trkpt>
      <trkpt lat="40.7602700" lon="-8.4889030">
        <ele>150.7</ele>
        <time>2019-08-15T07:17:27Z</time>
      </trkpt>
      <trkpt lat="40.7604480" lon="-8.4888070">
        <ele>151.9</ele>
        <time>2019-08-15T07:17:32Z</time>
      </trkpt>
      <trkpt lat="40.7606220" lon="-8.4887590">
        <ele>152.9</ele>
        <time>2019-08-15T07:17:37Z</time>
      </trkpt>
      <trkpt lat="40.7606610" lon="-8.4887420">
        <ele>153.1</ele>
        <time>2019-08-15T07:17:38Z</time>
      </trkpt>
      <trkpt lat="40.7606940" lon="-8.4887230">
        <ele>153.3</ele>
        <time>2019-08-15T07:17:39Z</time>
      </trkpt>
      <trkpt lat="40.7607280" lon="-8.4887050">
        <ele>153.4</ele>
        <time>2019-08-15T07:17:40Z</time>
      </trkpt>
      <trkpt lat="40.7607600" lon="-8.4886870">
        <ele>153.6</ele>
        <time>2019-08-15T07:17:41Z</time>
      </trkpt>
      <trkpt lat="40.7608860" lon="-8.4885750">
        <ele>154.4</ele>
        <time>2019-08-15T07:17:45Z</time>
      </trkpt>
      <trkpt lat="40.7610700" lon="-8.4884230">
        <ele>155.4</ele>
        <time>2019-08-15T07:17:51Z</time>
      </trkpt>
      <trkpt lat="40.7611020" lon="-8.4883970">
        <ele>155.6</ele>
        <time>2019-08-15T07:17:52Z</time>
      </trkpt>
      <trkpt lat="40.7611270" lon="-8.4883620">
        <ele>155.8</ele>
        <time>2019-08-15T07:17:53Z</time>
      </trkpt>
      <trkpt lat="40.7611410" lon="-8.4883260">
        <ele>155.9</ele>
        <time>2019-08-15T07:17:54Z</time>
      </trkpt>
      <trkpt lat="40.7611440" lon="-8.4882870">
        <ele>155.9</ele>
        <time>2019-08-15T07:17:55Z</time>
      </trkpt>
      <trkpt lat="40.7611390" lon="-8.4881710">
        <ele>156.1</ele>
        <time>2019-08-15T07:17:58Z</time>
      </trkpt>
      <trkpt lat="40.7611750" lon="-8.4879140">
        <ele>156.4</ele>
        <time>2019-08-15T07:18:05Z</time>
      </trkpt>
      <trkpt lat="40.7613310" lon="-8.4878140">
        <ele>155.8</ele>
        <time>2019-08-15T07:18:10Z</time>
      </trkpt>
      <trkpt lat="40.7614160" lon="-8.4877660">
        <ele>155.3</ele>
        <time>2019-08-15T07:18:12Z</time>
      </trkpt>
      <trkpt lat="40.7614860" lon="-8.4876730">
        <ele>154.7</ele>
        <time>2019-08-15T07:18:14Z</time>
      </trkpt>
      <trkpt lat="40.7615940" lon="-8.4874850">
        <ele>153.9</ele>
        <time>2019-08-15T07:18:17Z</time>
      </trkpt>
      <trkpt lat="40.7616580" lon="-8.4873380">
        <ele>153.4</ele>
        <time>2019-08-15T07:18:19Z</time>
      </trkpt>
      <trkpt lat="40.7617300" lon="-8.4872040">
        <ele>153.0</ele>
        <time>2019-08-15T07:18:21Z</time>
      </trkpt>
      <trkpt lat="40.7617640" lon="-8.4871460">
        <ele>152.7</ele>
        <time>2019-08-15T07:18:22Z</time>
      </trkpt>
      <trkpt lat="40.7618090" lon="-8.4870920">
        <ele>152.5</ele>
        <time>2019-08-15T07:18:23Z</time>
      </trkpt>
      <trkpt lat="40.7618550" lon="-8.4870440">
        <ele>152.2</ele>
        <time>2019-08-15T07:18:24Z</time>
      </trkpt>
      <trkpt lat="40.7619020" lon="-8.4869980">
        <ele>152.0</ele>
        <time>2019-08-15T07:18:25Z</time>
      </trkpt>
      <trkpt lat="40.7621100" lon="-8.4867980">
        <ele>150.5</ele>
        <time>2019-08-15T07:18:29Z</time>
      </trkpt>
      <trkpt lat="40.7621680" lon="-8.4867500">
        <ele>150.0</ele>
        <time>2019-08-15T07:18:30Z</time>
      </trkpt>
      <trkpt lat="40.7622350" lon="-8.4867010">
        <ele>149.6</ele>
        <time>2019-08-15T07:18:31Z</time>
      </trkpt>
      <trkpt lat="40.7623020" lon="-8.4866540">
        <ele>149.2</ele>
        <time>2019-08-15T07:18:32Z</time>
      </trkpt>
      <trkpt lat="40.7623700" lon="-8.4866140">
        <ele>149.0</ele>
        <time>2019-08-15T07:18:33Z</time>
      </trkpt>
      <trkpt lat="40.7625140" lon="-8.4865300">
        <ele>148.5</ele>
        <time>2019-08-15T07:18:35Z</time>
      </trkpt>
      <trkpt lat="40.7625860" lon="-8.4864900">
        <ele>148.3</ele>
        <time>2019-08-15T07:18:36Z</time>
      </trkpt>
      <trkpt lat="40.7626590" lon="-8.4864520">
        <ele>148.1</ele>
        <time>2019-08-15T07:18:37Z</time>
      </trkpt>
      <trkpt lat="40.7627310" lon="-8.4864170">
        <ele>147.9</ele>
        <time>2019-08-15T07:18:38Z</time>
      </trkpt>
      <trkpt lat="40.7628010" lon="-8.4863860">
        <ele>147.8</ele>
        <time>2019-08-15T07:18:39Z</time>
      </trkpt>
      <trkpt lat="40.7630600" lon="-8.4862870">
        <ele>147.7</ele>
        <time>2019-08-15T07:18:43Z</time>
      </trkpt>
      <trkpt lat="40.7633610" lon="-8.4861430">
        <ele>149.0</ele>
        <time>2019-08-15T07:18:49Z</time>
      </trkpt>
      <trkpt lat="40.7634060" lon="-8.4861210">
        <ele>149.3</ele>
        <time>2019-08-15T07:18:50Z</time>
      </trkpt>
      <trkpt lat="40.7634520" lon="-8.4860950">
        <ele>149.7</ele>
        <time>2019-08-15T07:18:51Z</time>
      </trkpt>
      <trkpt lat="40.7634980" lon="-8.4860720">
        <ele>150.1</ele>
        <time>2019-08-15T07:18:52Z</time>
      </trkpt>
      <trkpt lat="40.7635420" lon="-8.4860500">
        <ele>150.5</ele>
        <time>2019-08-15T07:18:53Z</time>
      </trkpt>
      <trkpt lat="40.7637590" lon="-8.4859470">
        <ele>151.4</ele>
        <time>2019-08-15T07:18:58Z</time>
      </trkpt>
      <trkpt lat="40.7638020" lon="-8.4859310">
        <ele>151.5</ele>
        <time>2019-08-15T07:18:59Z</time>
      </trkpt>
      <trkpt lat="40.7638470" lon="-8.4859140">
        <ele>151.6</ele>
        <time>2019-08-15T07:19:00Z</time>
      </trkpt>
      <trkpt lat="40.7638910" lon="-8.4858950">
        <ele>151.7</ele>
        <time>2019-08-15T07:19:01Z</time>
      </trkpt>
      <trkpt lat="40.7639310" lon="-8.4858760">
        <ele>151.8</ele>
        <time>2019-08-15T07:19:02Z</time>
      </trkpt>
      <trkpt lat="40.7641160" lon="-8.4857920">
        <ele>152.1</ele>
        <time>2019-08-15T07:19:06Z</time>
      </trkpt>
      <trkpt lat="40.7645560" lon="-8.4855900">
        <ele>153.5</ele>
        <time>2019-08-15T07:19:16Z</time>
      </trkpt>
      <trkpt lat="40.7645920" lon="-8.4855750">
        <ele>153.6</ele>
        <time>2019-08-15T07:19:17Z</time>
      </trkpt>
      <trkpt lat="40.7646260" lon="-8.4855620">
        <ele>153.7</ele>
        <time>2019-08-15T07:19:18Z</time>
      </trkpt>
      <trkpt lat="40.7646550" lon="-8.4855470">
        <ele>153.9</ele>
        <time>2019-08-15T07:19:19Z</time>
      </trkpt>
      <trkpt lat="40.7646850" lon="-8.4855290">
        <ele>154.0</ele>
        <time>2019-08-15T07:19:20Z</time>
      </trkpt>
      <trkpt lat="40.7647160" lon="-8.4855140">
        <ele>154.2</ele>
        <time>2019-08-15T07:19:21Z</time>
      </trkpt>
      <trkpt lat="40.7647770" lon="-8.4854840">
        <ele>154.1</ele>
        <time>2019-08-15T07:19:23Z</time>
      </trkpt>
      <trkpt lat="40.7648060" lon="-8.4854650">
        <ele>154.0</ele>
        <time>2019-08-15T07:19:24Z</time>
      </trkpt>
      <trkpt lat="40.7648390" lon="-8.4854470">
        <ele>154.0</ele>
        <time>2019-08-15T07:19:25Z</time>
      </trkpt>
      <trkpt lat="40.7648730" lon="-8.4854320">
        <ele>153.9</ele>
        <time>2019-08-15T07:19:26Z</time>
      </trkpt>
      <trkpt lat="40.7649050" lon="-8.4854170">
        <ele>153.9</ele>
        <time>2019-08-15T07:19:27Z</time>
      </trkpt>
      <trkpt lat="40.7649380" lon="-8.4853990">
        <ele>153.8</ele>
        <time>2019-08-15T07:19:28Z</time>
      </trkpt>
      <trkpt lat="40.7652410" lon="-8.4852340">
        <ele>153.4</ele>
        <time>2019-08-15T07:19:36Z</time>
      </trkpt>
      <trkpt lat="40.7655110" lon="-8.4850890">
        <ele>153.2</ele>
        <time>2019-08-15T07:19:42Z</time>
      </trkpt>
      <trkpt lat="40.7655590" lon="-8.4850630">
        <ele>153.2</ele>
        <time>2019-08-15T07:19:43Z</time>
      </trkpt>
      <trkpt lat="40.7656120" lon="-8.4850390">
        <ele>153.2</ele>
        <time>2019-08-15T07:19:44Z</time>
      </trkpt>
      <trkpt lat="40.7656640" lon="-8.4850160">
        <ele>153.2</ele>
        <time>2019-08-15T07:19:45Z</time>
      </trkpt>
      <trkpt lat="40.7657210" lon="-8.4850030">
        <ele>153.2</ele>
        <time>2019-08-15T07:19:46Z</time>
      </trkpt>
      <trkpt lat="40.7661600" lon="-8.4849060">
        <ele>153.1</ele>
        <time>2019-08-15T07:19:54Z</time>
      </trkpt>
      <trkpt lat="40.7663440" lon="-8.4849190">
        <ele>153.4</ele>
        <time>2019-08-15T07:19:58Z</time>
      </trkpt>
      <trkpt lat="40.7664170" lon="-8.4849160">
        <ele>153.6</ele>
        <time>2019-08-15T07:20:00Z</time>
      </trkpt>
      <trkpt lat="40.7665560" lon="-8.4849900">
        <ele>153.7</ele>
        <time>2019-08-15T07:20:04Z</time>
      </trkpt>
      <trkpt lat="40.7668120" lon="-8.4851800">
        <ele>153.5</ele>
        <time>2019-08-15T07:20:12Z</time>
      </trkpt>
      <trkpt lat="40.7668640" lon="-8.4852340">
        <ele>153.4</ele>
        <time>2019-08-15T07:20:14Z</time>
      </trkpt>
      <trkpt lat="40.7668980" lon="-8.4852510">
        <ele>153.3</ele>
        <time>2019-08-15T07:20:15Z</time>
      </trkpt>
      <trkpt lat="40.7669330" lon="-8.4852820">
        <ele>153.2</ele>
        <time>2019-08-15T07:20:16Z</time>
      </trkpt>
      <trkpt lat="40.7669690" lon="-8.4853040">
        <ele>153.1</ele>
        <time>2019-08-15T07:20:17Z</time>
      </trkpt>
      <trkpt lat="40.7670100" lon="-8.4853230">
        <ele>153.0</ele>
        <time>2019-08-15T07:20:18Z</time>
      </trkpt>
      <trkpt lat="40.7671550" lon="-8.4853940">
        <ele>151.7</ele>
        <time>2019-08-15T07:20:21Z</time>
      </trkpt>
      <trkpt lat="40.7672120" lon="-8.4854200">
        <ele>150.9</ele>
        <time>2019-08-15T07:20:22Z</time>
      </trkpt>
      <trkpt lat="40.7672760" lon="-8.4854520">
        <ele>150.1</ele>
        <time>2019-08-15T07:20:23Z</time>
      </trkpt>
      <trkpt lat="40.7673420" lon="-8.4854850">
        <ele>149.4</ele>
        <time>2019-08-15T07:20:24Z</time>
      </trkpt>
      <trkpt lat="40.7674210" lon="-8.4855220">
        <ele>148.1</ele>
        <time>2019-08-15T07:20:25Z</time>
      </trkpt>
      <trkpt lat="40.7675050" lon="-8.4855610">
        <ele>146.9</ele>
        <time>2019-08-15T07:20:26Z</time>
      </trkpt>
      <trkpt lat="40.7675930" lon="-8.4856030">
        <ele>145.8</ele>
        <time>2019-08-15T07:20:27Z</time>
      </trkpt>
      <trkpt lat="40.7676900" lon="-8.4856470">
        <ele>144.7</ele>
        <time>2019-08-15T07:20:28Z</time>
      </trkpt>
      <trkpt lat="40.7677920" lon="-8.4856980">
        <ele>143.6</ele>
        <time>2019-08-15T07:20:29Z</time>
      </trkpt>
      <trkpt lat="40.7679020" lon="-8.4857460">
        <ele>142.9</ele>
        <time>2019-08-15T07:20:30Z</time>
      </trkpt>
      <trkpt lat="40.7680280" lon="-8.4857900">
        <ele>142.5</ele>
        <time>2019-08-15T07:20:31Z</time>
      </trkpt>
      <trkpt lat="40.7681470" lon="-8.4858390">
        <ele>142.3</ele>
        <time>2019-08-15T07:20:32Z</time>
      </trkpt>
      <trkpt lat="40.7682670" lon="-8.4858830">
        <ele>142.9</ele>
        <time>2019-08-15T07:20:33Z</time>
      </trkpt>
      <trkpt lat="40.7683860" lon="-8.4859140">
        <ele>143.9</ele>
        <time>2019-08-15T07:20:34Z</time>
      </trkpt>
      <trkpt lat="40.7685000" lon="-8.4859470">
        <ele>144.9</ele>
        <time>2019-08-15T07:20:35Z</time>
      </trkpt>
      <trkpt lat="40.7686020" lon="-8.4859770">
        <ele>146.0</ele>
        <time>2019-08-15T07:20:36Z</time>
      </trkpt>
      <trkpt lat="40.7686990" lon="-8.4860000">
        <ele>147.2</ele>
        <time>2019-08-15T07:20:37Z</time>
      </trkpt>
      <trkpt lat="40.7687880" lon="-8.4860170">
        <ele>148.3</ele>
        <time>2019-08-15T07:20:38Z</time>
      </trkpt>
      <trkpt lat="40.7688710" lon="-8.4860300">
        <ele>149.2</ele>
        <time>2019-08-15T07:20:39Z</time>
      </trkpt>
      <trkpt lat="40.7690100" lon="-8.4860380">
        <ele>150.3</ele>
        <time>2019-08-15T07:20:41Z</time>
      </trkpt>
      <trkpt lat="40.7690700" lon="-8.4860400">
        <ele>150.6</ele>
        <time>2019-08-15T07:20:42Z</time>
      </trkpt>
      <trkpt lat="40.7691290" lon="-8.4860420">
        <ele>151.0</ele>
        <time>2019-08-15T07:20:43Z</time>
      </trkpt>
      <trkpt lat="40.7691820" lon="-8.4860390">
        <ele>151.2</ele>
        <time>2019-08-15T07:20:44Z</time>
      </trkpt>
      <trkpt lat="40.7692290" lon="-8.4860330">
        <ele>151.5</ele>
        <time>2019-08-15T07:20:45Z</time>
      </trkpt>
      <trkpt lat="40.7692720" lon="-8.4860290">
        <ele>151.7</ele>
        <time>2019-08-15T07:20:46Z</time>
      </trkpt>
      <trkpt lat="40.7693080" lon="-8.4860230">
        <ele>152.0</ele>
        <time>2019-08-15T07:20:47Z</time>
      </trkpt>
      <trkpt lat="40.7693490" lon="-8.4860110">
        <ele>152.2</ele>
        <time>2019-08-15T07:20:48Z</time>
      </trkpt>
      <trkpt lat="40.7693860" lon="-8.4860000">
        <ele>152.4</ele>
        <time>2019-08-15T07:20:49Z</time>
      </trkpt>
      <trkpt lat="40.7694240" lon="-8.4859770">
        <ele>152.7</ele>
        <time>2019-08-15T07:20:50Z</time>
      </trkpt>
      <trkpt lat="40.7694700" lon="-8.4859600">
        <ele>152.9</ele>
        <time>2019-08-15T07:20:51Z</time>
      </trkpt>
      <trkpt lat="40.7695100" lon="-8.4859440">
        <ele>153.2</ele>
        <time>2019-08-15T07:20:52Z</time>
      </trkpt>
      <trkpt lat="40.7695420" lon="-8.4859270">
        <ele>153.4</ele>
        <time>2019-08-15T07:20:53Z</time>
      </trkpt>
      <trkpt lat="40.7697820" lon="-8.4858190">
        <ele>154.0</ele>
        <time>2019-08-15T07:21:00Z</time>
      </trkpt>
      <trkpt lat="40.7701110" lon="-8.4856420">
        <ele>153.7</ele>
        <time>2019-08-15T07:21:08Z</time>
      </trkpt>
      <trkpt lat="40.7701880" lon="-8.4855930">
        <ele>153.8</ele>
        <time>2019-08-15T07:21:10Z</time>
      </trkpt>
      <trkpt lat="40.7702240" lon="-8.4855700">
        <ele>154.0</ele>
        <time>2019-08-15T07:21:11Z</time>
      </trkpt>
      <trkpt lat="40.7702590" lon="-8.4855490">
        <ele>154.2</ele>
        <time>2019-08-15T07:21:12Z</time>
      </trkpt>
      <trkpt lat="40.7702910" lon="-8.4855320">
        <ele>154.3</ele>
        <time>2019-08-15T07:21:13Z</time>
      </trkpt>
      <trkpt lat="40.7703200" lon="-8.4855120">
        <ele>154.5</ele>
        <time>2019-08-15T07:21:14Z</time>
      </trkpt>
      <trkpt lat="40.7703500" lon="-8.4855020">
        <ele>154.7</ele>
        <time>2019-08-15T07:21:15Z</time>
      </trkpt>
      <trkpt lat="40.7704390" lon="-8.4854400">
        <ele>155.4</ele>
        <time>2019-08-15T07:21:18Z</time>
      </trkpt>
      <trkpt lat="40.7704730" lon="-8.4854250">
        <ele>155.6</ele>
        <time>2019-08-15T07:21:19Z</time>
      </trkpt>
      <trkpt lat="40.7705060" lon="-8.4853990">
        <ele>155.7</ele>
        <time>2019-08-15T07:21:20Z</time>
      </trkpt>
      <trkpt lat="40.7705330" lon="-8.4853700">
        <ele>155.9</ele>
        <time>2019-08-15T07:21:21Z</time>
      </trkpt>
      <trkpt lat="40.7705590" lon="-8.4853420">
        <ele>156.1</ele>
        <time>2019-08-15T07:21:22Z</time>
      </trkpt>
      <trkpt lat="40.7705800" lon="-8.4853150">
        <ele>156.3</ele>
        <time>2019-08-15T07:21:23Z</time>
      </trkpt>
      <trkpt lat="40.7706310" lon="-8.4852530">
        <ele>156.7</ele>
        <time>2019-08-15T07:21:25Z</time>
      </trkpt>
      <trkpt lat="40.7706620" lon="-8.4852320">
        <ele>156.9</ele>
        <time>2019-08-15T07:21:26Z</time>
      </trkpt>
      <trkpt lat="40.7706920" lon="-8.4852060">
        <ele>157.1</ele>
        <time>2019-08-15T07:21:27Z</time>
      </trkpt>
      <trkpt lat="40.7707120" lon="-8.4851740">
        <ele>157.3</ele>
        <time>2019-08-15T07:21:28Z</time>
      </trkpt>
      <trkpt lat="40.7707370" lon="-8.4851390">
        <ele>157.5</ele>
        <time>2019-08-15T07:21:29Z</time>
      </trkpt>
      <trkpt lat="40.7708140" lon="-8.4850440">
        <ele>157.8</ele>
        <time>2019-08-15T07:21:32Z</time>
      </trkpt>
      <trkpt lat="40.7709010" lon="-8.4849080">
        <ele>158.2</ele>
        <time>2019-08-15T07:21:36Z</time>
      </trkpt>
      <trkpt lat="40.7709200" lon="-8.4848710">
        <ele>158.3</ele>
        <time>2019-08-15T07:21:37Z</time>
      </trkpt>
      <trkpt lat="40.7709470" lon="-8.4848390">
        <ele>158.3</ele>
        <time>2019-08-15T07:21:38Z</time>
      </trkpt>
      <trkpt lat="40.7709690" lon="-8.4848050">
        <ele>158.3</ele>
        <time>2019-08-15T07:21:39Z</time>
      </trkpt>
      <trkpt lat="40.7709870" lon="-8.4847660">
        <ele>158.4</ele>
        <time>2019-08-15T07:21:40Z</time>
      </trkpt>
      <trkpt lat="40.7711330" lon="-8.4844430">
        <ele>158.5</ele>
        <time>2019-08-15T07:21:48Z</time>
      </trkpt>
      <trkpt lat="40.7711510" lon="-8.4844080">
        <ele>158.4</ele>
        <time>2019-08-15T07:21:49Z</time>
      </trkpt>
      <trkpt lat="40.7711700" lon="-8.4843760">
        <ele>158.4</ele>
        <time>2019-08-15T07:21:50Z</time>
      </trkpt>
      <trkpt lat="40.7711880" lon="-8.4843460">
        <ele>158.4</ele>
        <time>2019-08-15T07:21:51Z</time>
      </trkpt>
      <trkpt lat="40.7712100" lon="-8.4843200">
        <ele>158.4</ele>
        <time>2019-08-15T07:21:52Z</time>
      </trkpt>
      <trkpt lat="40.7712270" lon="-8.4842980">
        <ele>158.4</ele>
        <time>2019-08-15T07:21:53Z</time>
      </trkpt>
      <trkpt lat="40.7712420" lon="-8.4842770">
        <ele>158.3</ele>
        <time>2019-08-15T07:21:54Z</time>
      </trkpt>
      <trkpt lat="40.7713080" lon="-8.4841200">
        <ele>157.9</ele>
        <time>2019-08-15T07:22:01Z</time>
      </trkpt>
      <trkpt lat="40.7713880" lon="-8.4840110">
        <ele>157.2</ele>
        <time>2019-08-15T07:22:08Z</time>
      </trkpt>
      <trkpt lat="40.7714500" lon="-8.4839510">
        <ele>156.7</ele>
        <time>2019-08-15T07:22:13Z</time>
      </trkpt>
      <trkpt lat="40.7714640" lon="-8.4839570">
        <ele>156.7</ele>
        <time>2019-08-15T07:22:14Z</time>
      </trkpt>
      <trkpt lat="40.7716120" lon="-8.4840370">
        <ele>156.4</ele>
        <time>2019-08-15T07:22:22Z</time>
      </trkpt>
      <trkpt lat="40.7716380" lon="-8.4840630">
        <ele>156.4</ele>
        <time>2019-08-15T07:22:23Z</time>
      </trkpt>
      <trkpt lat="40.7716670" lon="-8.4840920">
        <ele>156.3</ele>
        <time>2019-08-15T07:22:24Z</time>
      </trkpt>
      <trkpt lat="40.7716930" lon="-8.4841180">
        <ele>156.2</ele>
        <time>2019-08-15T07:22:25Z</time>
      </trkpt>
      <trkpt lat="40.7717210" lon="-8.4841410">
        <ele>156.2</ele>
        <time>2019-08-15T07:22:26Z</time>
      </trkpt>
      <trkpt lat="40.7718490" lon="-8.4842530">
        <ele>156.0</ele>
        <time>2019-08-15T07:22:31Z</time>
      </trkpt>
      <trkpt lat="40.7721290" lon="-8.4844990">
        <ele>155.7</ele>
        <time>2019-08-15T07:22:40Z</time>
      </trkpt>
      <trkpt lat="40.7724530" lon="-8.4847960">
        <ele>155.9</ele>
        <time>2019-08-15T07:22:49Z</time>
      </trkpt>
      <trkpt lat="40.7726110" lon="-8.4849210">
        <ele>156.3</ele>
        <time>2019-08-15T07:22:53Z</time>
      </trkpt>
      <trkpt lat="40.7727550" lon="-8.4850480">
        <ele>156.5</ele>
        <time>2019-08-15T07:22:57Z</time>
      </trkpt>
      <trkpt lat="40.7731200" lon="-8.4853500">
        <ele>156.2</ele>
        <time>2019-08-15T07:23:07Z</time>
      </trkpt>
      <trkpt lat="40.7733070" lon="-8.4855250">
        <ele>156.0</ele>
        <time>2019-08-15T07:23:13Z</time>
      </trkpt>
      <trkpt lat="40.7736070" lon="-8.4857950">
        <ele>156.0</ele>
        <time>2019-08-15T07:23:21Z</time>
      </trkpt>
      <trkpt lat="40.7737340" lon="-8.4859310">
        <ele>156.0</ele>
        <time>2019-08-15T07:23:26Z</time>
      </trkpt>
      <trkpt lat="40.7739620" lon="-8.4860970">
        <ele>155.7</ele>
        <time>2019-08-15T07:23:33Z</time>
      </trkpt>
      <trkpt lat="40.7740740" lon="-8.4861610">
        <ele>155.6</ele>
        <time>2019-08-15T07:23:36Z</time>
      </trkpt>
      <trkpt lat="40.7741150" lon="-8.4861910">
        <ele>155.6</ele>
        <time>2019-08-15T07:23:37Z</time>
      </trkpt>
      <trkpt lat="40.7741560" lon="-8.4862200">
        <ele>155.6</ele>
        <time>2019-08-15T07:23:38Z</time>
      </trkpt>
      <trkpt lat="40.7741960" lon="-8.4862470">
        <ele>155.6</ele>
        <time>2019-08-15T07:23:39Z</time>
      </trkpt>
      <trkpt lat="40.7742380" lon="-8.4862730">
        <ele>155.7</ele>
        <time>2019-08-15T07:23:40Z</time>
      </trkpt>
      <trkpt lat="40.7742820" lon="-8.4863030">
        <ele>155.7</ele>
        <time>2019-08-15T07:23:41Z</time>
      </trkpt>
      <trkpt lat="40.7745580" lon="-8.4865410">
        <ele>155.9</ele>
        <time>2019-08-15T07:23:47Z</time>
      </trkpt>
      <trkpt lat="40.7746770" lon="-8.4866140">
        <ele>156.0</ele>
        <time>2019-08-15T07:23:49Z</time>
      </trkpt>
      <trkpt lat="40.7748520" lon="-8.4867180">
        <ele>156.2</ele>
        <time>2019-08-15T07:23:52Z</time>
      </trkpt>
      <trkpt lat="40.7750940" lon="-8.4868680">
        <ele>156.5</ele>
        <time>2019-08-15T07:23:57Z</time>
      </trkpt>
      <trkpt lat="40.7753250" lon="-8.4869820">
        <ele>156.5</ele>
        <time>2019-08-15T07:24:02Z</time>
      </trkpt>
      <trkpt lat="40.7754110" lon="-8.4870250">
        <ele>156.4</ele>
        <time>2019-08-15T07:24:04Z</time>
      </trkpt>
      <trkpt lat="40.7755550" lon="-8.4870180">
        <ele>156.2</ele>
        <time>2019-08-15T07:24:07Z</time>
      </trkpt>
      <trkpt lat="40.7756570" lon="-8.4870180">
        <ele>155.9</ele>
        <time>2019-08-15T07:24:09Z</time>
      </trkpt>
      <trkpt lat="40.7760710" lon="-8.4870950">
        <ele>154.5</ele>
        <time>2019-08-15T07:24:17Z</time>
      </trkpt>
      <trkpt lat="40.7761260" lon="-8.4871130">
        <ele>154.4</ele>
        <time>2019-08-15T07:24:18Z</time>
      </trkpt>
      <trkpt lat="40.7761780" lon="-8.4871330">
        <ele>154.2</ele>
        <time>2019-08-15T07:24:19Z</time>
      </trkpt>
      <trkpt lat="40.7762290" lon="-8.4871520">
        <ele>154.0</ele>
        <time>2019-08-15T07:24:20Z</time>
      </trkpt>
      <trkpt lat="40.7762790" lon="-8.4871710">
        <ele>153.8</ele>
        <time>2019-08-15T07:24:21Z</time>
      </trkpt>
      <trkpt lat="40.7763340" lon="-8.4871930">
        <ele>153.6</ele>
        <time>2019-08-15T07:24:22Z</time>
      </trkpt>
      <trkpt lat="40.7763790" lon="-8.4872210">
        <ele>153.4</ele>
        <time>2019-08-15T07:24:23Z</time>
      </trkpt>
      <trkpt lat="40.7764820" lon="-8.4872800">
        <ele>153.0</ele>
        <time>2019-08-15T07:24:25Z</time>
      </trkpt>
      <trkpt lat="40.7768460" lon="-8.4874860">
        <ele>152.1</ele>
        <time>2019-08-15T07:24:32Z</time>
      </trkpt>
      <trkpt lat="40.7768950" lon="-8.4875370">
        <ele>152.0</ele>
        <time>2019-08-15T07:24:33Z</time>
      </trkpt>
      <trkpt lat="40.7771180" lon="-8.4878020">
        <ele>151.6</ele>
        <time>2019-08-15T07:24:38Z</time>
      </trkpt>
      <trkpt lat="40.7772620" lon="-8.4880250">
        <ele>151.3</ele>
        <time>2019-08-15T07:24:42Z</time>
      </trkpt>
      <trkpt lat="40.7772940" lon="-8.4880850">
        <ele>151.2</ele>
        <time>2019-08-15T07:24:43Z</time>
      </trkpt>
      <trkpt lat="40.7773240" lon="-8.4881460">
        <ele>151.1</ele>
        <time>2019-08-15T07:24:44Z</time>
      </trkpt>
      <trkpt lat="40.7773570" lon="-8.4882040">
        <ele>151.0</ele>
        <time>2019-08-15T07:24:45Z</time>
      </trkpt>
      <trkpt lat="40.7773950" lon="-8.4882630">
        <ele>151.0</ele>
        <time>2019-08-15T07:24:46Z</time>
      </trkpt>
      <trkpt lat="40.7775530" lon="-8.4885220">
        <ele>150.4</ele>
        <time>2019-08-15T07:24:50Z</time>
      </trkpt>
      <trkpt lat="40.7775980" lon="-8.4885920">
        <ele>150.2</ele>
        <time>2019-08-15T07:24:51Z</time>
      </trkpt>
      <trkpt lat="40.7776430" lon="-8.4886650">
        <ele>150.0</ele>
        <time>2019-08-15T07:24:52Z</time>
      </trkpt>
      <trkpt lat="40.7776820" lon="-8.4887340">
        <ele>149.8</ele>
        <time>2019-08-15T07:24:53Z</time>
      </trkpt>
      <trkpt lat="40.7777240" lon="-8.4888020">
        <ele>149.6</ele>
        <time>2019-08-15T07:24:54Z</time>
      </trkpt>
      <trkpt lat="40.7778440" lon="-8.4889800">
        <ele>148.9</ele>
        <time>2019-08-15T07:24:57Z</time>
      </trkpt>
      <trkpt lat="40.7778910" lon="-8.4889860">
        <ele>148.8</ele>
        <time>2019-08-15T07:24:58Z</time>
      </trkpt>
      <trkpt lat="40.7780210" lon="-8.4889010">
        <ele>148.4</ele>
        <time>2019-08-15T07:25:01Z</time>
      </trkpt>
      <trkpt lat="40.7780460" lon="-8.4888750">
        <ele>148.3</ele>
        <time>2019-08-15T07:25:02Z</time>
      </trkpt>
      <trkpt lat="40.7780640" lon="-8.4888500">
        <ele>148.2</ele>
        <time>2019-08-15T07:25:04Z</time>
      </trkpt>
      <trkpt lat="40.7780640" lon="-8.4888520">
        <ele>148.2</ele>
        <time>2019-08-15T07:25:05Z</time>
      </trkpt>
      <trkpt lat="40.7781010" lon="-8.4888270">
        <ele>148.1</ele>
        <time>2019-08-15T07:25:12Z</time>
      </trkpt>
      <trkpt lat="40.7781270" lon="-8.4888100">
        <ele>148.0</ele>
        <time>2019-08-15T07:25:13Z</time>
      </trkpt>
      <trkpt lat="40.7783790" lon="-8.4886380">
        <ele>147.2</ele>
        <time>2019-08-15T07:25:22Z</time>
      </trkpt>
      <trkpt lat="40.7785660" lon="-8.4886160">
        <ele>146.6</ele>
        <time>2019-08-15T07:25:28Z</time>
      </trkpt>
      <trkpt lat="40.7789240" lon="-8.4886420">
        <ele>146.3</ele>
        <time>2019-08-15T07:25:36Z</time>
      </trkpt>
      <trkpt lat="40.7789890" lon="-8.4886470">
        <ele>146.3</ele>
        <time>2019-08-15T07:25:37Z</time>
      </trkpt>
      <trkpt lat="40.7790520" lon="-8.4886530">
        <ele>146.2</ele>
        <time>2019-08-15T07:25:38Z</time>
      </trkpt>
      <trkpt lat="40.7791220" lon="-8.4886580">
        <ele>146.0</ele>
        <time>2019-08-15T07:25:39Z</time>
      </trkpt>
      <trkpt lat="40.7791880" lon="-8.4886650">
        <ele>145.7</ele>
        <time>2019-08-15T07:25:40Z</time>
      </trkpt>
      <trkpt lat="40.7792530" lon="-8.4886780">
        <ele>145.3</ele>
        <time>2019-08-15T07:25:41Z</time>
      </trkpt>
      <trkpt lat="40.7793650" lon="-8.4887090">
        <ele>144.5</ele>
        <time>2019-08-15T07:25:43Z</time>
      </trkpt>
      <trkpt lat="40.7794170" lon="-8.4887220">
        <ele>144.0</ele>
        <time>2019-08-15T07:25:44Z</time>
      </trkpt>
      <trkpt lat="40.7794700" lon="-8.4887370">
        <ele>143.5</ele>
        <time>2019-08-15T07:25:45Z</time>
      </trkpt>
      <trkpt lat="40.7796430" lon="-8.4888110">
        <ele>141.8</ele>
        <time>2019-08-15T07:25:48Z</time>
      </trkpt>
      <trkpt lat="40.7796910" lon="-8.4888390">
        <ele>141.5</ele>
        <time>2019-08-15T07:25:49Z</time>
      </trkpt>
      <trkpt lat="40.7797470" lon="-8.4888700">
        <ele>141.1</ele>
        <time>2019-08-15T07:25:50Z</time>
      </trkpt>
      <trkpt lat="40.7798040" lon="-8.4889050">
        <ele>140.7</ele>
        <time>2019-08-15T07:25:51Z</time>
      </trkpt>
      <trkpt lat="40.7798630" lon="-8.4889410">
        <ele>140.4</ele>
        <time>2019-08-15T07:25:52Z</time>
      </trkpt>
      <trkpt lat="40.7799160" lon="-8.4889770">
        <ele>140.2</ele>
        <time>2019-08-15T07:25:53Z</time>
      </trkpt>
      <trkpt lat="40.7799640" lon="-8.4890130">
        <ele>139.9</ele>
        <time>2019-08-15T07:25:54Z</time>
      </trkpt>
      <trkpt lat="40.7800080" lon="-8.4890220">
        <ele>139.7</ele>
        <time>2019-08-15T07:25:55Z</time>
      </trkpt>
      <trkpt lat="40.7800560" lon="-8.4890080">
        <ele>139.5</ele>
        <time>2019-08-15T07:25:56Z</time>
      </trkpt>
      <trkpt lat="40.7800980" lon="-8.4889670">
        <ele>139.3</ele>
        <time>2019-08-15T07:25:57Z</time>
      </trkpt>
      <trkpt lat="40.7801420" lon="-8.4889040">
        <ele>139.1</ele>
        <time>2019-08-15T07:25:58Z</time>
      </trkpt>
      <trkpt lat="40.7801850" lon="-8.4888390">
        <ele>138.9</ele>
        <time>2019-08-15T07:25:59Z</time>
      </trkpt>
      <trkpt lat="40.7802280" lon="-8.4887760">
        <ele>138.8</ele>
        <time>2019-08-15T07:26:00Z</time>
      </trkpt>
      <trkpt lat="40.7802680" lon="-8.4887110">
        <ele>138.6</ele>
        <time>2019-08-15T07:26:01Z</time>
      </trkpt>
      <trkpt lat="40.7803060" lon="-8.4886550">
        <ele>138.4</ele>
        <time>2019-08-15T07:26:02Z</time>
      </trkpt>
      <trkpt lat="40.7803400" lon="-8.4885970">
        <ele>138.2</ele>
        <time>2019-08-15T07:26:03Z</time>
      </trkpt>
      <trkpt lat="40.7804570" lon="-8.4884400">
        <ele>137.7</ele>
        <time>2019-08-15T07:26:06Z</time>
      </trkpt>
      <trkpt lat="40.7805530" lon="-8.4884120">
        <ele>137.4</ele>
        <time>2019-08-15T07:26:08Z</time>
      </trkpt>
      <trkpt lat="40.7805940" lon="-8.4884080">
        <ele>137.3</ele>
        <time>2019-08-15T07:26:09Z</time>
      </trkpt>
      <trkpt lat="40.7806330" lon="-8.4884060">
        <ele>137.2</ele>
        <time>2019-08-15T07:26:10Z</time>
      </trkpt>
      <trkpt lat="40.7806710" lon="-8.4884010">
        <ele>137.2</ele>
        <time>2019-08-15T07:26:11Z</time>
      </trkpt>
      <trkpt lat="40.7807130" lon="-8.4883930">
        <ele>137.1</ele>
        <time>2019-08-15T07:26:12Z</time>
      </trkpt>
      <trkpt lat="40.7807470" lon="-8.4883860">
        <ele>137.1</ele>
        <time>2019-08-15T07:26:13Z</time>
      </trkpt>
      <trkpt lat="40.7808190" lon="-8.4883750">
        <ele>137.2</ele>
        <time>2019-08-15T07:26:15Z</time>
      </trkpt>
      <trkpt lat="40.7808460" lon="-8.4883580">
        <ele>137.2</ele>
        <time>2019-08-15T07:26:16Z</time>
      </trkpt>
      <trkpt lat="40.7809270" lon="-8.4883310">
        <ele>137.8</ele>
        <time>2019-08-15T07:26:18Z</time>
      </trkpt>
      <trkpt lat="40.7809610" lon="-8.4883190">
        <ele>138.1</ele>
        <time>2019-08-15T07:26:19Z</time>
      </trkpt>
      <trkpt lat="40.7812640" lon="-8.4881680">
        <ele>140.0</ele>
        <time>2019-08-15T07:26:26Z</time>
      </trkpt>
      <trkpt lat="40.7813110" lon="-8.4881650">
        <ele>140.2</ele>
        <time>2019-08-15T07:26:27Z</time>
      </trkpt>
      <trkpt lat="40.7814600" lon="-8.4881700">
        <ele>140.5</ele>
        <time>2019-08-15T07:26:30Z</time>
      </trkpt>
      <trkpt lat="40.7817960" lon="-8.4882040">
        <ele>141.1</ele>
        <time>2019-08-15T07:26:37Z</time>
      </trkpt>
      <trkpt lat="40.7818410" lon="-8.4882040">
        <ele>141.2</ele>
        <time>2019-08-15T07:26:38Z</time>
      </trkpt>
      <trkpt lat="40.7818870" lon="-8.4882040">
        <ele>141.3</ele>
        <time>2019-08-15T07:26:39Z</time>
      </trkpt>
      <trkpt lat="40.7819720" lon="-8.4881990">
        <ele>141.6</ele>
        <time>2019-08-15T07:26:41Z</time>
      </trkpt>
      <trkpt lat="40.7821250" lon="-8.4881860">
        <ele>142.2</ele>
        <time>2019-08-15T07:26:45Z</time>
      </trkpt>
      <trkpt lat="40.7821650" lon="-8.4881810">
        <ele>142.4</ele>
        <time>2019-08-15T07:26:46Z</time>
      </trkpt>
      <trkpt lat="40.7822030" lon="-8.4881780">
        <ele>142.6</ele>
        <time>2019-08-15T07:26:47Z</time>
      </trkpt>
      <trkpt lat="40.7822440" lon="-8.4881810">
        <ele>142.8</ele>
        <time>2019-08-15T07:26:48Z</time>
      </trkpt>
      <trkpt lat="40.7822850" lon="-8.4881850">
        <ele>143.0</ele>
        <time>2019-08-15T07:26:49Z</time>
      </trkpt>
      <trkpt lat="40.7824460" lon="-8.4882170">
        <ele>143.8</ele>
        <time>2019-08-15T07:26:53Z</time>
      </trkpt>
      <trkpt lat="40.7828410" lon="-8.4883300">
        <ele>144.9</ele>
        <time>2019-08-15T07:27:03Z</time>
      </trkpt>
      <trkpt lat="40.7831590" lon="-8.4884540">
        <ele>145.2</ele>
        <time>2019-08-15T07:27:11Z</time>
      </trkpt>
      <trkpt lat="40.7832070" lon="-8.4884280">
        <ele>145.2</ele>
        <time>2019-08-15T07:27:12Z</time>
      </trkpt>
      <trkpt lat="40.7832890" lon="-8.4882960">
        <ele>146.6</ele>
        <time>2019-08-15T07:27:15Z</time>
      </trkpt>
      <trkpt lat="40.7833190" lon="-8.4882310">
        <ele>146.8</ele>
        <time>2019-08-15T07:27:17Z</time>
      </trkpt>
      <trkpt lat="40.7833310" lon="-8.4882100">
        <ele>146.9</ele>
        <time>2019-08-15T07:27:18Z</time>
      </trkpt>
      <trkpt lat="40.7833420" lon="-8.4881930">
        <ele>147.0</ele>
        <time>2019-08-15T07:27:19Z</time>
      </trkpt>
      <trkpt lat="40.7833530" lon="-8.4881750">
        <ele>147.1</ele>
        <time>2019-08-15T07:27:20Z</time>
      </trkpt>
      <trkpt lat="40.7833740" lon="-8.4881450">
        <ele>147.2</ele>
        <time>2019-08-15T07:27:22Z</time>
      </trkpt>
      <trkpt lat="40.7833990" lon="-8.4881130">
        <ele>147.4</ele>
        <time>2019-08-15T07:27:25Z</time>
      </trkpt>
      <trkpt lat="40.7835140" lon="-8.4880150">
        <ele>148.3</ele>
        <time>2019-08-15T07:27:33Z</time>
      </trkpt>
      <trkpt lat="40.7835140" lon="-8.4880040">
        <ele>148.3</ele>
        <time>2019-08-15T07:27:34Z</time>
      </trkpt>
      <trkpt lat="40.7835200" lon="-8.4879940">
        <ele>148.3</ele>
        <time>2019-08-15T07:27:35Z</time>
      </trkpt>
      <trkpt lat="40.7835330" lon="-8.4879880">
        <ele>148.4</ele>
        <time>2019-08-15T07:27:36Z</time>
      </trkpt>
      <trkpt lat="40.7835400" lon="-8.4879810">
        <ele>148.4</ele>
        <time>2019-08-15T07:27:37Z</time>
      </trkpt>
      <trkpt lat="40.7835510" lon="-8.4879710">
        <ele>148.5</ele>
        <time>2019-08-15T07:27:39Z</time>
      </trkpt>
      <trkpt lat="40.7835710" lon="-8.4879560">
        <ele>148.6</ele>
        <time>2019-08-15T07:27:40Z</time>
      </trkpt>
      <trkpt lat="40.7836670" lon="-8.4878550">
        <ele>149.2</ele>
        <time>2019-08-15T07:27:48Z</time>
      </trkpt>
      <trkpt lat="40.7837970" lon="-8.4876930">
        <ele>150.0</ele>
        <time>2019-08-15T07:27:58Z</time>
      </trkpt>
      <trkpt lat="40.7838100" lon="-8.4876730">
        <ele>150.1</ele>
        <time>2019-08-15T07:27:59Z</time>
      </trkpt>
      <trkpt lat="40.7838450" lon="-8.4876310">
        <ele>150.2</ele>
        <time>2019-08-15T07:28:01Z</time>
      </trkpt>
      <trkpt lat="40.7838670" lon="-8.4876120">
        <ele>150.4</ele>
        <time>2019-08-15T07:28:02Z</time>
      </trkpt>
      <trkpt lat="40.7838860" lon="-8.4875850">
        <ele>150.5</ele>
        <time>2019-08-15T07:28:03Z</time>
      </trkpt>
      <trkpt lat="40.7838940" lon="-8.4875590">
        <ele>150.9</ele>
        <time>2019-08-15T07:28:04Z</time>
      </trkpt>
      <trkpt lat="40.7839130" lon="-8.4874870">
        <ele>151.2</ele>
        <time>2019-08-15T07:28:07Z</time>
      </trkpt>
      <trkpt lat="40.7839420" lon="-8.4872900">
        <ele>152.0</ele>
        <time>2019-08-15T07:28:14Z</time>
      </trkpt>
      <trkpt lat="40.7839540" lon="-8.4872170">
        <ele>152.3</ele>
        <time>2019-08-15T07:28:16Z</time>
      </trkpt>
      <trkpt lat="40.7839690" lon="-8.4871460">
        <ele>152.6</ele>
        <time>2019-08-15T07:28:18Z</time>
      </trkpt>
      <trkpt lat="40.7839760" lon="-8.4871110">
        <ele>152.7</ele>
        <time>2019-08-15T07:28:19Z</time>
      </trkpt>
      <trkpt lat="40.7839820" lon="-8.4870800">
        <ele>152.8</ele>
        <time>2019-08-15T07:28:20Z</time>
      </trkpt>
      <trkpt lat="40.7839880" lon="-8.4870450">
        <ele>153.0</ele>
        <time>2019-08-15T07:28:21Z</time>
      </trkpt>
      <trkpt lat="40.7840010" lon="-8.4869270">
        <ele>153.6</ele>
        <time>2019-08-15T07:28:24Z</time>
      </trkpt>
      <trkpt lat="40.7840410" lon="-8.4867380">
        <ele>154.4</ele>
        <time>2019-08-15T07:28:30Z</time>
      </trkpt>
      <trkpt lat="40.7840450" lon="-8.4867020">
        <ele>154.6</ele>
        <time>2019-08-15T07:28:31Z</time>
      </trkpt>
      <trkpt lat="40.7840390" lon="-8.4866670">
        <ele>154.8</ele>
        <time>2019-08-15T07:28:32Z</time>
      </trkpt>
      <trkpt lat="40.7840410" lon="-8.4866300">
        <ele>154.9</ele>
        <time>2019-08-15T07:28:33Z</time>
      </trkpt>
      <trkpt lat="40.7840420" lon="-8.4865920">
        <ele>155.1</ele>
        <time>2019-08-15T07:28:34Z</time>
      </trkpt>
      <trkpt lat="40.7840850" lon="-8.4863760">
        <ele>156.6</ele>
        <time>2019-08-15T07:28:40Z</time>
      </trkpt>
      <trkpt lat="40.7841050" lon="-8.4863060">
        <ele>157.0</ele>
        <time>2019-08-15T07:28:42Z</time>
      </trkpt>
      <trkpt lat="40.7841160" lon="-8.4862700">
        <ele>157.2</ele>
        <time>2019-08-15T07:28:43Z</time>
      </trkpt>
      <trkpt lat="40.7841390" lon="-8.4862040">
        <ele>157.6</ele>
        <time>2019-08-15T07:28:45Z</time>
      </trkpt>
      <trkpt lat="40.7841540" lon="-8.4861680">
        <ele>157.8</ele>
        <time>2019-08-15T07:28:46Z</time>
      </trkpt>
      <trkpt lat="40.7842390" lon="-8.4859960">
        <ele>159.0</ele>
        <time>2019-08-15T07:28:51Z</time>
      </trkpt>
      <trkpt lat="40.7842580" lon="-8.4859260">
        <ele>159.4</ele>
        <time>2019-08-15T07:28:53Z</time>
      </trkpt>
      <trkpt lat="40.7842990" lon="-8.4858640">
        <ele>159.9</ele>
        <time>2019-08-15T07:28:55Z</time>
      </trkpt>
      <trkpt lat="40.7843080" lon="-8.4858290">
        <ele>160.2</ele>
        <time>2019-08-15T07:28:56Z</time>
      </trkpt>
      <trkpt lat="40.7843150" lon="-8.4857970">
        <ele>160.4</ele>
        <time>2019-08-15T07:28:57Z</time>
      </trkpt>
      <trkpt lat="40.7843700" lon="-8.4856250">
        <ele>161.3</ele>
        <time>2019-08-15T07:29:02Z</time>
      </trkpt>
      <trkpt lat="40.7844230" lon="-8.4854950">
        <ele>161.7</ele>
        <time>2019-08-15T07:29:07Z</time>
      </trkpt>
      <trkpt lat="40.7844310" lon="-8.4854650">
        <ele>161.8</ele>
        <time>2019-08-15T07:29:08Z</time>
      </trkpt>
      <trkpt lat="40.7844450" lon="-8.4854350">
        <ele>161.8</ele>
        <time>2019-08-15T07:29:09Z</time>
      </trkpt>
      <trkpt lat="40.7844570" lon="-8.4854060">
        <ele>161.9</ele>
        <time>2019-08-15T07:29:10Z</time>
      </trkpt>
      <trkpt lat="40.7844700" lon="-8.4853780">
        <ele>162.0</ele>
        <time>2019-08-15T07:29:11Z</time>
      </trkpt>
      <trkpt lat="40.7845790" lon="-8.4851830">
        <ele>162.7</ele>
        <time>2019-08-15T07:29:19Z</time>
      </trkpt>
      <trkpt lat="40.7846230" lon="-8.4851140">
        <ele>162.9</ele>
        <time>2019-08-15T07:29:22Z</time>
      </trkpt>
      <trkpt lat="40.7846320" lon="-8.4850900">
        <ele>163.0</ele>
        <time>2019-08-15T07:29:23Z</time>
      </trkpt>
      <trkpt lat="40.7846550" lon="-8.4850560">
        <ele>163.1</ele>
        <time>2019-08-15T07:29:25Z</time>
      </trkpt>
      <trkpt lat="40.7846750" lon="-8.4850420">
        <ele>163.2</ele>
        <time>2019-08-15T07:29:26Z</time>
      </trkpt>
      <trkpt lat="40.7846960" lon="-8.4850280">
        <ele>163.3</ele>
        <time>2019-08-15T07:29:27Z</time>
      </trkpt>
      <trkpt lat="40.7848140" lon="-8.4850370">
        <ele>163.7</ele>
        <time>2019-08-15T07:29:33Z</time>
      </trkpt>
      <trkpt lat="40.7848150" lon="-8.4850900">
        <ele>163.9</ele>
        <time>2019-08-15T07:29:35Z</time>
      </trkpt>
      <trkpt lat="40.7848100" lon="-8.4851320">
        <ele>164.0</ele>
        <time>2019-08-15T07:29:37Z</time>
      </trkpt>
      <trkpt lat="40.7847250" lon="-8.4852000">
        <ele>164.4</ele>
        <time>2019-08-15T07:29:42Z</time>
      </trkpt>
      <trkpt lat="40.7847060" lon="-8.4851920">
        <ele>164.4</ele>
        <time>2019-08-15T07:29:44Z</time>
      </trkpt>
      <trkpt lat="40.7847030" lon="-8.4851860">
        <ele>164.5</ele>
        <time>2019-08-15T07:34:34Z</time>
      </trkpt>
      <trkpt lat="40.7847190" lon="-8.4851690">
        <ele>164.5</ele>
        <time>2019-08-15T07:34:35Z</time>
      </trkpt>
      <trkpt lat="40.7847220" lon="-8.4850740">
        <ele>164.8</ele>
        <time>2019-08-15T07:34:40Z</time>
      </trkpt>
      <trkpt lat="40.7847170" lon="-8.4850060">
        <ele>165.0</ele>
        <time>2019-08-15T07:34:42Z</time>
      </trkpt>
      <trkpt lat="40.7847650" lon="-8.4848320">
        <ele>165.9</ele>
        <time>2019-08-15T07:34:48Z</time>
      </trkpt>
      <trkpt lat="40.7849210" lon="-8.4846880">
        <ele>167.3</ele>
        <time>2019-08-15T07:34:54Z</time>
      </trkpt>
      <trkpt lat="40.7849870" lon="-8.4846570">
        <ele>167.7</ele>
        <time>2019-08-15T07:34:56Z</time>
      </trkpt>
      <trkpt lat="40.7850440" lon="-8.4846180">
        <ele>168.1</ele>
        <time>2019-08-15T07:34:58Z</time>
      </trkpt>
      <trkpt lat="40.7851850" lon="-8.4845270">
        <ele>169.1</ele>
        <time>2019-08-15T07:35:03Z</time>
      </trkpt>
      <trkpt lat="40.7852100" lon="-8.4845120">
        <ele>169.2</ele>
        <time>2019-08-15T07:35:04Z</time>
      </trkpt>
      <trkpt lat="40.7852290" lon="-8.4844970">
        <ele>169.4</ele>
        <time>2019-08-15T07:35:05Z</time>
      </trkpt>
      <trkpt lat="40.7852460" lon="-8.4844810">
        <ele>169.5</ele>
        <time>2019-08-15T07:35:06Z</time>
      </trkpt>
      <trkpt lat="40.7852620" lon="-8.4844660">
        <ele>169.6</ele>
        <time>2019-08-15T07:35:07Z</time>
      </trkpt>
      <trkpt lat="40.7854130" lon="-8.4843750">
        <ele>171.1</ele>
        <time>2019-08-15T07:35:14Z</time>
      </trkpt>
      <trkpt lat="40.7854300" lon="-8.4843650">
        <ele>171.3</ele>
        <time>2019-08-15T07:35:15Z</time>
      </trkpt>
      <trkpt lat="40.7854420" lon="-8.4843630">
        <ele>171.4</ele>
        <time>2019-08-15T07:35:16Z</time>
      </trkpt>
      <trkpt lat="40.7854610" lon="-8.4843580">
        <ele>171.5</ele>
        <time>2019-08-15T07:35:17Z</time>
      </trkpt>
      <trkpt lat="40.7854870" lon="-8.4843460">
        <ele>171.8</ele>
        <time>2019-08-15T07:35:18Z</time>
      </trkpt>
      <trkpt lat="40.7855770" lon="-8.4843000">
        <ele>172.6</ele>
        <time>2019-08-15T07:35:22Z</time>
      </trkpt>
      <trkpt lat="40.7856560" lon="-8.4842580">
        <ele>173.2</ele>
        <time>2019-08-15T07:35:26Z</time>
      </trkpt>
      <trkpt lat="40.7856740" lon="-8.4842560">
        <ele>173.3</ele>
        <time>2019-08-15T07:35:27Z</time>
      </trkpt>
      <trkpt lat="40.7856880" lon="-8.4842540">
        <ele>173.4</ele>
        <time>2019-08-15T07:35:28Z</time>
      </trkpt>
      <trkpt lat="40.7857060" lon="-8.4842480">
        <ele>173.5</ele>
        <time>2019-08-15T07:35:29Z</time>
      </trkpt>
      <trkpt lat="40.7857200" lon="-8.4842430">
        <ele>173.6</ele>
        <time>2019-08-15T07:35:30Z</time>
      </trkpt>
      <trkpt lat="40.7858830" lon="-8.4841580">
        <ele>174.7</ele>
        <time>2019-08-15T07:35:38Z</time>
      </trkpt>
      <trkpt lat="40.7859060" lon="-8.4841430">
        <ele>174.9</ele>
        <time>2019-08-15T07:35:39Z</time>
      </trkpt>
      <trkpt lat="40.7859370" lon="-8.4841440">
        <ele>175.1</ele>
        <time>2019-08-15T07:35:40Z</time>
      </trkpt>
      <trkpt lat="40.7859770" lon="-8.4841210">
        <ele>175.4</ele>
        <time>2019-08-15T07:35:41Z</time>
      </trkpt>
      <trkpt lat="40.7860010" lon="-8.4841040">
        <ele>175.6</ele>
        <time>2019-08-15T07:35:42Z</time>
      </trkpt>
      <trkpt lat="40.7860170" lon="-8.4840940">
        <ele>175.7</ele>
        <time>2019-08-15T07:35:43Z</time>
      </trkpt>
      <trkpt lat="40.7860540" lon="-8.4840990">
        <ele>175.9</ele>
        <time>2019-08-15T07:35:45Z</time>
      </trkpt>
      <trkpt lat="40.7861280" lon="-8.4840920">
        <ele>176.4</ele>
        <time>2019-08-15T07:35:48Z</time>
      </trkpt>
      <trkpt lat="40.7861540" lon="-8.4840790">
        <ele>176.7</ele>
        <time>2019-08-15T07:35:49Z</time>
      </trkpt>
      <trkpt lat="40.7861780" lon="-8.4840650">
        <ele>176.9</ele>
        <time>2019-08-15T07:35:50Z</time>
      </trkpt>
      <trkpt lat="40.7861980" lon="-8.4840530">
        <ele>177.1</ele>
        <time>2019-08-15T07:35:51Z</time>
      </trkpt>
      <trkpt lat="40.7862210" lon="-8.4840440">
        <ele>177.3</ele>
        <time>2019-08-15T07:35:52Z</time>
      </trkpt>
      <trkpt lat="40.7863290" lon="-8.4839710">
        <ele>178.2</ele>
        <time>2019-08-15T07:35:57Z</time>
      </trkpt>
      <trkpt lat="40.7863490" lon="-8.4839600">
        <ele>178.3</ele>
        <time>2019-08-15T07:35:58Z</time>
      </trkpt>
      <trkpt lat="40.7863680" lon="-8.4839490">
        <ele>178.5</ele>
        <time>2019-08-15T07:35:59Z</time>
      </trkpt>
      <trkpt lat="40.7863900" lon="-8.4839380">
        <ele>178.6</ele>
        <time>2019-08-15T07:36:00Z</time>
      </trkpt>
      <trkpt lat="40.7864060" lon="-8.4839350">
        <ele>178.8</ele>
        <time>2019-08-15T07:36:01Z</time>
      </trkpt>
      <trkpt lat="40.7864870" lon="-8.4838830">
        <ele>179.4</ele>
        <time>2019-08-15T07:36:05Z</time>
      </trkpt>
      <trkpt lat="40.7865710" lon="-8.4837590">
        <ele>180.1</ele>
        <time>2019-08-15T07:36:10Z</time>
      </trkpt>
      <trkpt lat="40.7865810" lon="-8.4837350">
        <ele>180.3</ele>
        <time>2019-08-15T07:36:11Z</time>
      </trkpt>
      <trkpt lat="40.7865990" lon="-8.4837140">
        <ele>180.5</ele>
        <time>2019-08-15T07:36:12Z</time>
      </trkpt>
      <trkpt lat="40.7866110" lon="-8.4836820">
        <ele>180.7</ele>
        <time>2019-08-15T07:36:13Z</time>
      </trkpt>
      <trkpt lat="40.7866190" lon="-8.4836430">
        <ele>180.9</ele>
        <time>2019-08-15T07:36:14Z</time>
      </trkpt>
      <trkpt lat="40.7866240" lon="-8.4835400">
        <ele>181.4</ele>
        <time>2019-08-15T07:36:17Z</time>
      </trkpt>
      <trkpt lat="40.7866470" lon="-8.4834320">
        <ele>182.0</ele>
        <time>2019-08-15T07:36:21Z</time>
      </trkpt>
      <trkpt lat="40.7866520" lon="-8.4834040">
        <ele>182.2</ele>
        <time>2019-08-15T07:36:22Z</time>
      </trkpt>
      <trkpt lat="40.7866540" lon="-8.4833760">
        <ele>182.3</ele>
        <time>2019-08-15T07:36:23Z</time>
      </trkpt>
      <trkpt lat="40.7866550" lon="-8.4833460">
        <ele>182.4</ele>
        <time>2019-08-15T07:36:24Z</time>
      </trkpt>
      <trkpt lat="40.7866540" lon="-8.4833160">
        <ele>182.5</ele>
        <time>2019-08-15T07:36:25Z</time>
      </trkpt>
      <trkpt lat="40.7866450" lon="-8.4830840">
        <ele>183.4</ele>
        <time>2019-08-15T07:36:33Z</time>
      </trkpt>
      <trkpt lat="40.7866410" lon="-8.4829340">
        <ele>184.0</ele>
        <time>2019-08-15T07:36:38Z</time>
      </trkpt>
      <trkpt lat="40.7866410" lon="-8.4829010">
        <ele>184.2</ele>
        <time>2019-08-15T07:36:39Z</time>
      </trkpt>
      <trkpt lat="40.7866450" lon="-8.4828690">
        <ele>184.3</ele>
        <time>2019-08-15T07:36:40Z</time>
      </trkpt>
      <trkpt lat="40.7866490" lon="-8.4828370">
        <ele>184.4</ele>
        <time>2019-08-15T07:36:41Z</time>
      </trkpt>
      <trkpt lat="40.7866550" lon="-8.4828050">
        <ele>184.6</ele>
        <time>2019-08-15T07:36:42Z</time>
      </trkpt>
      <trkpt lat="40.7867360" lon="-8.4826060">
        <ele>185.6</ele>
        <time>2019-08-15T07:36:49Z</time>
      </trkpt>
      <trkpt lat="40.7867880" lon="-8.4824920">
        <ele>186.2</ele>
        <time>2019-08-15T07:36:53Z</time>
      </trkpt>
      <trkpt lat="40.7867990" lon="-8.4824660">
        <ele>186.4</ele>
        <time>2019-08-15T07:36:54Z</time>
      </trkpt>
      <trkpt lat="40.7868110" lon="-8.4824400">
        <ele>186.4</ele>
        <time>2019-08-15T07:36:55Z</time>
      </trkpt>
      <trkpt lat="40.7868320" lon="-8.4824190">
        <ele>186.5</ele>
        <time>2019-08-15T07:36:56Z</time>
      </trkpt>
      <trkpt lat="40.7868520" lon="-8.4823950">
        <ele>186.6</ele>
        <time>2019-08-15T07:36:57Z</time>
      </trkpt>
      <trkpt lat="40.7869640" lon="-8.4822140">
        <ele>187.3</ele>
        <time>2019-08-15T07:37:04Z</time>
      </trkpt>
      <trkpt lat="40.7870440" lon="-8.4821380">
        <ele>187.2</ele>
        <time>2019-08-15T07:37:09Z</time>
      </trkpt>
      <trkpt lat="40.7871460" lon="-8.4820010">
        <ele>187.0</ele>
        <time>2019-08-15T07:37:14Z</time>
      </trkpt>
      <trkpt lat="40.7871670" lon="-8.4819740">
        <ele>187.0</ele>
        <time>2019-08-15T07:37:15Z</time>
      </trkpt>
      <trkpt lat="40.7871870" lon="-8.4819460">
        <ele>187.0</ele>
        <time>2019-08-15T07:37:16Z</time>
      </trkpt>
      <trkpt lat="40.7872070" lon="-8.4819180">
        <ele>186.9</ele>
        <time>2019-08-15T07:37:17Z</time>
      </trkpt>
      <trkpt lat="40.7872380" lon="-8.4818940">
        <ele>186.9</ele>
        <time>2019-08-15T07:37:18Z</time>
      </trkpt>
      <trkpt lat="40.7872790" lon="-8.4818760">
        <ele>186.9</ele>
        <time>2019-08-15T07:37:19Z</time>
      </trkpt>
      <trkpt lat="40.7873660" lon="-8.4818100">
        <ele>187.2</ele>
        <time>2019-08-15T07:37:21Z</time>
      </trkpt>
      <trkpt lat="40.7874100" lon="-8.4817810">
        <ele>187.4</ele>
        <time>2019-08-15T07:37:22Z</time>
      </trkpt>
      <trkpt lat="40.7874980" lon="-8.4817150">
        <ele>188.0</ele>
        <time>2019-08-15T07:37:25Z</time>
      </trkpt>
      <trkpt lat="40.7875710" lon="-8.4817190">
        <ele>187.9</ele>
        <time>2019-08-15T07:37:28Z</time>
      </trkpt>
      <trkpt lat="40.7875810" lon="-8.4817230">
        <ele>187.9</ele>
        <time>2019-08-15T07:37:29Z</time>
      </trkpt>
      <trkpt lat="40.7875610" lon="-8.4817410">
        <ele>187.9</ele>
        <time>2019-08-15T07:37:34Z</time>
      </trkpt>
      <trkpt lat="40.7874960" lon="-8.4817820">
        <ele>187.8</ele>
        <time>2019-08-15T07:37:44Z</time>
      </trkpt>
      <trkpt lat="40.7873630" lon="-8.4817380">
        <ele>187.3</ele>
        <time>2019-08-15T07:37:51Z</time>
      </trkpt>
      <trkpt lat="40.7873640" lon="-8.4816420">
        <ele>187.7</ele>
        <time>2019-08-15T07:37:53Z</time>
      </trkpt>
      <trkpt lat="40.7873740" lon="-8.4816020">
        <ele>187.8</ele>
        <time>2019-08-15T07:37:54Z</time>
      </trkpt>
      <trkpt lat="40.7873900" lon="-8.4815690">
        <ele>188.0</ele>
        <time>2019-08-15T07:37:55Z</time>
      </trkpt>
      <trkpt lat="40.7874110" lon="-8.4815440">
        <ele>188.1</ele>
        <time>2019-08-15T07:37:56Z</time>
      </trkpt>
      <trkpt lat="40.7874380" lon="-8.4815290">
        <ele>188.2</ele>
        <time>2019-08-15T07:37:57Z</time>
      </trkpt>
      <trkpt lat="40.7874990" lon="-8.4815430">
        <ele>188.5</ele>
        <time>2019-08-15T07:37:59Z</time>
      </trkpt>
      <trkpt lat="40.7876750" lon="-8.4815380">
        <ele>189.4</ele>
        <time>2019-08-15T07:38:06Z</time>
      </trkpt>
      <trkpt lat="40.7878960" lon="-8.4814860">
        <ele>191.2</ele>
        <time>2019-08-15T07:38:13Z</time>
      </trkpt>
      <trkpt lat="40.7880450" lon="-8.4812960">
        <ele>193.3</ele>
        <time>2019-08-15T07:38:19Z</time>
      </trkpt>
      <trkpt lat="40.7880640" lon="-8.4812690">
        <ele>193.6</ele>
        <time>2019-08-15T07:38:20Z</time>
      </trkpt>
      <trkpt lat="40.7880870" lon="-8.4812420">
        <ele>193.9</ele>
        <time>2019-08-15T07:38:21Z</time>
      </trkpt>
      <trkpt lat="40.7881010" lon="-8.4812140">
        <ele>194.1</ele>
        <time>2019-08-15T07:38:22Z</time>
      </trkpt>
      <trkpt lat="40.7881190" lon="-8.4811850">
        <ele>194.3</ele>
        <time>2019-08-15T07:38:23Z</time>
      </trkpt>
      <trkpt lat="40.7881880" lon="-8.4811040">
        <ele>194.5</ele>
        <time>2019-08-15T07:38:26Z</time>
      </trkpt>
      <trkpt lat="40.7882100" lon="-8.4810820">
        <ele>194.5</ele>
        <time>2019-08-15T07:38:27Z</time>
      </trkpt>
      <trkpt lat="40.7882400" lon="-8.4810690">
        <ele>194.5</ele>
        <time>2019-08-15T07:38:28Z</time>
      </trkpt>
      <trkpt lat="40.7882670" lon="-8.4810520">
        <ele>194.5</ele>
        <time>2019-08-15T07:38:29Z</time>
      </trkpt>
      <trkpt lat="40.7882930" lon="-8.4810340">
        <ele>194.6</ele>
        <time>2019-08-15T07:38:30Z</time>
      </trkpt>
      <trkpt lat="40.7883450" lon="-8.4810000">
        <ele>194.6</ele>
        <time>2019-08-15T07:38:32Z</time>
      </trkpt>
      <trkpt lat="40.7885420" lon="-8.4808440">
        <ele>195.0</ele>
        <time>2019-08-15T07:38:40Z</time>
      </trkpt>
      <trkpt lat="40.7885690" lon="-8.4808260">
        <ele>195.1</ele>
        <time>2019-08-15T07:38:41Z</time>
      </trkpt>
      <trkpt lat="40.7885960" lon="-8.4808080">
        <ele>195.1</ele>
        <time>2019-08-15T07:38:42Z</time>
      </trkpt>
      <trkpt lat="40.7886240" lon="-8.4807900">
        <ele>195.2</ele>
        <time>2019-08-15T07:38:43Z</time>
      </trkpt>
      <trkpt lat="40.7886530" lon="-8.4807670">
        <ele>195.3</ele>
        <time>2019-08-15T07:38:44Z</time>
      </trkpt>
      <trkpt lat="40.7886820" lon="-8.4807430">
        <ele>195.4</ele>
        <time>2019-08-15T07:38:45Z</time>
      </trkpt>
      <trkpt lat="40.7888230" lon="-8.4806390">
        <ele>195.7</ele>
        <time>2019-08-15T07:38:50Z</time>
      </trkpt>
      <trkpt lat="40.7891140" lon="-8.4804290">
        <ele>196.8</ele>
        <time>2019-08-15T07:39:00Z</time>
      </trkpt>
      <trkpt lat="40.7892320" lon="-8.4803210">
        <ele>197.5</ele>
        <time>2019-08-15T07:39:05Z</time>
      </trkpt>
      <trkpt lat="40.7892590" lon="-8.4803010">
        <ele>197.6</ele>
        <time>2019-08-15T07:39:06Z</time>
      </trkpt>
      <trkpt lat="40.7892840" lon="-8.4802800">
        <ele>197.8</ele>
        <time>2019-08-15T07:39:07Z</time>
      </trkpt>
      <trkpt lat="40.7893080" lon="-8.4802570">
        <ele>197.9</ele>
        <time>2019-08-15T07:39:08Z</time>
      </trkpt>
      <trkpt lat="40.7893340" lon="-8.4802350">
        <ele>198.0</ele>
        <time>2019-08-15T07:39:09Z</time>
      </trkpt>
      <trkpt lat="40.7895200" lon="-8.4801270">
        <ele>198.9</ele>
        <time>2019-08-15T07:39:15Z</time>
      </trkpt>
      <trkpt lat="40.7896360" lon="-8.4800440">
        <ele>199.3</ele>
        <time>2019-08-15T07:39:19Z</time>
      </trkpt>
      <trkpt lat="40.7896630" lon="-8.4800260">
        <ele>199.5</ele>
        <time>2019-08-15T07:39:20Z</time>
      </trkpt>
      <trkpt lat="40.7896900" lon="-8.4800060">
        <ele>199.6</ele>
        <time>2019-08-15T07:39:21Z</time>
      </trkpt>
      <trkpt lat="40.7897190" lon="-8.4799820">
        <ele>199.7</ele>
        <time>2019-08-15T07:39:22Z</time>
      </trkpt>
      <trkpt lat="40.7897500" lon="-8.4799620">
        <ele>199.8</ele>
        <time>2019-08-15T07:39:23Z</time>
      </trkpt>
      <trkpt lat="40.7899250" lon="-8.4798150">
        <ele>200.7</ele>
        <time>2019-08-15T07:39:30Z</time>
      </trkpt>
      <trkpt lat="40.7899660" lon="-8.4798050">
        <ele>200.9</ele>
        <time>2019-08-15T07:39:31Z</time>
      </trkpt>
      <trkpt lat="40.7899930" lon="-8.4797910">
        <ele>201.0</ele>
        <time>2019-08-15T07:39:32Z</time>
      </trkpt>
      <trkpt lat="40.7900220" lon="-8.4797750">
        <ele>201.1</ele>
        <time>2019-08-15T07:39:33Z</time>
      </trkpt>
      <trkpt lat="40.7900570" lon="-8.4797600">
        <ele>201.2</ele>
        <time>2019-08-15T07:39:34Z</time>
      </trkpt>
      <trkpt lat="40.7901410" lon="-8.4797300">
        <ele>201.5</ele>
        <time>2019-08-15T07:39:37Z</time>
      </trkpt>
      <trkpt lat="40.7903730" lon="-8.4796780">
        <ele>201.9</ele>
        <time>2019-08-15T07:39:45Z</time>
      </trkpt>
      <trkpt lat="40.7906290" lon="-8.4796590">
        <ele>202.0</ele>
        <time>2019-08-15T07:39:53Z</time>
      </trkpt>
      <trkpt lat="40.7907110" lon="-8.4796660">
        <ele>202.0</ele>
        <time>2019-08-15T07:39:58Z</time>
      </trkpt>
      <trkpt lat="40.7906780" lon="-8.4796870">
        <ele>201.9</ele>
        <time>2019-08-15T07:39:59Z</time>
      </trkpt>
      <trkpt lat="40.7906500" lon="-8.4796990">
        <ele>201.9</ele>
        <time>2019-08-15T07:40:00Z</time>
      </trkpt>
      <trkpt lat="40.7904570" lon="-8.4797130">
        <ele>201.9</ele>
        <time>2019-08-15T07:40:05Z</time>
      </trkpt>
      <trkpt lat="40.7903920" lon="-8.4797050">
        <ele>201.9</ele>
        <time>2019-08-15T07:40:07Z</time>
      </trkpt>
      <trkpt lat="40.7903860" lon="-8.4796160">
        <ele>202.1</ele>
        <time>2019-08-15T07:40:09Z</time>
      </trkpt>
      <trkpt lat="40.7904760" lon="-8.4795180">
        <ele>202.4</ele>
        <time>2019-08-15T07:40:12Z</time>
      </trkpt>
      <trkpt lat="40.7906050" lon="-8.4794490">
        <ele>202.9</ele>
        <time>2019-08-15T07:40:15Z</time>
      </trkpt>
      <trkpt lat="40.7907100" lon="-8.4793440">
        <ele>203.5</ele>
        <time>2019-08-15T07:40:18Z</time>
      </trkpt>
      <trkpt lat="40.7907430" lon="-8.4793140">
        <ele>203.7</ele>
        <time>2019-08-15T07:40:19Z</time>
      </trkpt>
      <trkpt lat="40.7907780" lon="-8.4792790">
        <ele>203.8</ele>
        <time>2019-08-15T07:40:20Z</time>
      </trkpt>
      <trkpt lat="40.7908170" lon="-8.4792480">
        <ele>204.0</ele>
        <time>2019-08-15T07:40:21Z</time>
      </trkpt>
      <trkpt lat="40.7908540" lon="-8.4792170">
        <ele>204.2</ele>
        <time>2019-08-15T07:40:22Z</time>
      </trkpt>
      <trkpt lat="40.7910030" lon="-8.4790850">
        <ele>205.3</ele>
        <time>2019-08-15T07:40:27Z</time>
      </trkpt>
      <trkpt lat="40.7910550" lon="-8.4790370">
        <ele>205.6</ele>
        <time>2019-08-15T07:40:29Z</time>
      </trkpt>
      <trkpt lat="40.7910840" lon="-8.4790130">
        <ele>205.9</ele>
        <time>2019-08-15T07:40:30Z</time>
      </trkpt>
      <trkpt lat="40.7911140" lon="-8.4789890">
        <ele>206.1</ele>
        <time>2019-08-15T07:40:31Z</time>
      </trkpt>
      <trkpt lat="40.7911450" lon="-8.4789640">
        <ele>206.4</ele>
        <time>2019-08-15T07:40:32Z</time>
      </trkpt>
      <trkpt lat="40.7911780" lon="-8.4789400">
        <ele>206.7</ele>
        <time>2019-08-15T07:40:33Z</time>
      </trkpt>
      <trkpt lat="40.7912620" lon="-8.4788740">
        <ele>207.4</ele>
        <time>2019-08-15T07:40:36Z</time>
      </trkpt>
      <trkpt lat="40.7913080" lon="-8.4788520">
        <ele>207.9</ele>
        <time>2019-08-15T07:40:38Z</time>
      </trkpt>
      <trkpt lat="40.7913340" lon="-8.4788370">
        <ele>208.1</ele>
        <time>2019-08-15T07:40:39Z</time>
      </trkpt>
      <trkpt lat="40.7913610" lon="-8.4788140">
        <ele>208.4</ele>
        <time>2019-08-15T07:40:40Z</time>
      </trkpt>
      <trkpt lat="40.7913860" lon="-8.4787930">
        <ele>208.7</ele>
        <time>2019-08-15T07:40:41Z</time>
      </trkpt>
      <trkpt lat="40.7914130" lon="-8.4787740">
        <ele>209.0</ele>
        <time>2019-08-15T07:40:42Z</time>
      </trkpt>
      <trkpt lat="40.7914760" lon="-8.4787320">
        <ele>209.7</ele>
        <time>2019-08-15T07:40:45Z</time>
      </trkpt>
      <trkpt lat="40.7914950" lon="-8.4787180">
        <ele>209.9</ele>
        <time>2019-08-15T07:40:46Z</time>
      </trkpt>
      <trkpt lat="40.7915160" lon="-8.4787040">
        <ele>210.2</ele>
        <time>2019-08-15T07:40:47Z</time>
      </trkpt>
      <trkpt lat="40.7915370" lon="-8.4786860">
        <ele>210.4</ele>
        <time>2019-08-15T07:40:48Z</time>
      </trkpt>
      <trkpt lat="40.7915590" lon="-8.4786670">
        <ele>210.7</ele>
        <time>2019-08-15T07:40:49Z</time>
      </trkpt>
      <trkpt lat="40.7915800" lon="-8.4786460">
        <ele>211.0</ele>
        <time>2019-08-15T07:40:50Z</time>
      </trkpt>
      <trkpt lat="40.7917030" lon="-8.4785820">
        <ele>212.4</ele>
        <time>2019-08-15T07:40:54Z</time>
      </trkpt>
      <trkpt lat="40.7917290" lon="-8.4785650">
        <ele>212.6</ele>
        <time>2019-08-15T07:40:55Z</time>
      </trkpt>
      <trkpt lat="40.7917470" lon="-8.4785460">
        <ele>212.8</ele>
        <time>2019-08-15T07:40:56Z</time>
      </trkpt>
      <trkpt lat="40.7917630" lon="-8.4785290">
        <ele>213.0</ele>
        <time>2019-08-15T07:40:57Z</time>
      </trkpt>
      <trkpt lat="40.7917790" lon="-8.4785140">
        <ele>213.1</ele>
        <time>2019-08-15T07:40:58Z</time>
      </trkpt>
      <trkpt lat="40.7918820" lon="-8.4784190">
        <ele>214.1</ele>
        <time>2019-08-15T07:41:03Z</time>
      </trkpt>
      <trkpt lat="40.7919050" lon="-8.4784050">
        <ele>214.2</ele>
        <time>2019-08-15T07:41:04Z</time>
      </trkpt>
      <trkpt lat="40.7919250" lon="-8.4783880">
        <ele>214.4</ele>
        <time>2019-08-15T07:41:05Z</time>
      </trkpt>
      <trkpt lat="40.7919480" lon="-8.4783640">
        <ele>214.6</ele>
        <time>2019-08-15T07:41:06Z</time>
      </trkpt>
      <trkpt lat="40.7919660" lon="-8.4783460">
        <ele>214.7</ele>
        <time>2019-08-15T07:41:07Z</time>
      </trkpt>
      <trkpt lat="40.7920600" lon="-8.4782830">
        <ele>215.3</ele>
        <time>2019-08-15T07:41:11Z</time>
      </trkpt>
      <trkpt lat="40.7922130" lon="-8.4780910">
        <ele>216.3</ele>
        <time>2019-08-15T07:41:19Z</time>
      </trkpt>
      <trkpt lat="40.7923500" lon="-8.4778750">
        <ele>217.8</ele>
        <time>2019-08-15T07:41:26Z</time>
      </trkpt>
      <trkpt lat="40.7924140" lon="-8.4777760">
        <ele>218.5</ele>
        <time>2019-08-15T07:41:29Z</time>
      </trkpt>
      <trkpt lat="40.7924400" lon="-8.4777440">
        <ele>218.7</ele>
        <time>2019-08-15T07:41:30Z</time>
      </trkpt>
      <trkpt lat="40.7924620" lon="-8.4777110">
        <ele>219.0</ele>
        <time>2019-08-15T07:41:31Z</time>
      </trkpt>
      <trkpt lat="40.7924880" lon="-8.4776790">
        <ele>219.2</ele>
        <time>2019-08-15T07:41:32Z</time>
      </trkpt>
      <trkpt lat="40.7925120" lon="-8.4776510">
        <ele>219.4</ele>
        <time>2019-08-15T07:41:33Z</time>
      </trkpt>
      <trkpt lat="40.7925350" lon="-8.4776220">
        <ele>219.6</ele>
        <time>2019-08-15T07:41:34Z</time>
      </trkpt>
      <trkpt lat="40.7926100" lon="-8.4775590">
        <ele>220.2</ele>
        <time>2019-08-15T07:41:37Z</time>
      </trkpt>
      <trkpt lat="40.7926350" lon="-8.4775400">
        <ele>220.4</ele>
        <time>2019-08-15T07:41:38Z</time>
      </trkpt>
      <trkpt lat="40.7926500" lon="-8.4775160">
        <ele>220.6</ele>
        <time>2019-08-15T07:41:39Z</time>
      </trkpt>
      <trkpt lat="40.7926680" lon="-8.4774970">
        <ele>220.7</ele>
        <time>2019-08-15T07:41:40Z</time>
      </trkpt>
      <trkpt lat="40.7926880" lon="-8.4774760">
        <ele>220.9</ele>
        <time>2019-08-15T07:41:41Z</time>
      </trkpt>
      <trkpt lat="40.7928190" lon="-8.4773860">
        <ele>221.9</ele>
        <time>2019-08-15T07:41:47Z</time>
      </trkpt>
      <trkpt lat="40.7928610" lon="-8.4773530">
        <ele>222.3</ele>
        <time>2019-08-15T07:41:49Z</time>
      </trkpt>
      <trkpt lat="40.7928800" lon="-8.4773390">
        <ele>222.5</ele>
        <time>2019-08-15T07:41:50Z</time>
      </trkpt>
      <trkpt lat="40.7928940" lon="-8.4773290">
        <ele>222.6</ele>
        <time>2019-08-15T07:41:51Z</time>
      </trkpt>
      <trkpt lat="40.7929090" lon="-8.4773170">
        <ele>222.8</ele>
        <time>2019-08-15T07:41:52Z</time>
      </trkpt>
      <trkpt lat="40.7929290" lon="-8.4772880">
        <ele>223.0</ele>
        <time>2019-08-15T07:41:53Z</time>
      </trkpt>
      <trkpt lat="40.7929820" lon="-8.4772530">
        <ele>223.5</ele>
        <time>2019-08-15T07:41:55Z</time>
      </trkpt>
      <trkpt lat="40.7931930" lon="-8.4772560">
        <ele>223.9</ele>
        <time>2019-08-15T07:42:01Z</time>
      </trkpt>
      <trkpt lat="40.7934770" lon="-8.4773120">
        <ele>222.3</ele>
        <time>2019-08-15T07:42:08Z</time>
      </trkpt>
      <trkpt lat="40.7936610" lon="-8.4773870">
        <ele>221.5</ele>
        <time>2019-08-15T07:42:14Z</time>
      </trkpt>
      <trkpt lat="40.7938410" lon="-8.4774840">
        <ele>220.4</ele>
        <time>2019-08-15T07:42:21Z</time>
      </trkpt>
      <trkpt lat="40.7940880" lon="-8.4776690">
        <ele>218.2</ele>
        <time>2019-08-15T07:42:28Z</time>
      </trkpt>
      <trkpt lat="40.7943820" lon="-8.4779220">
        <ele>217.9</ele>
        <time>2019-08-15T07:42:36Z</time>
      </trkpt>
      <trkpt lat="40.7945610" lon="-8.4780050">
        <ele>218.2</ele>
        <time>2019-08-15T07:42:41Z</time>
      </trkpt>
      <trkpt lat="40.7948210" lon="-8.4780440">
        <ele>219.0</ele>
        <time>2019-08-15T07:42:48Z</time>
      </trkpt>
      <trkpt lat="40.7949710" lon="-8.4780490">
        <ele>219.6</ele>
        <time>2019-08-15T07:42:52Z</time>
      </trkpt>
      <trkpt lat="40.7950910" lon="-8.4780480">
        <ele>220.3</ele>
        <time>2019-08-15T07:42:55Z</time>
      </trkpt>
      <trkpt lat="40.7953990" lon="-8.4780500">
        <ele>222.6</ele>
        <time>2019-08-15T07:43:03Z</time>
      </trkpt>
      <trkpt lat="40.7954750" lon="-8.4780580">
        <ele>223.2</ele>
        <time>2019-08-15T07:43:05Z</time>
      </trkpt>
      <trkpt lat="40.7955080" lon="-8.4780640">
        <ele>223.5</ele>
        <time>2019-08-15T07:43:06Z</time>
      </trkpt>
      <trkpt lat="40.7955340" lon="-8.4780780">
        <ele>223.7</ele>
        <time>2019-08-15T07:43:07Z</time>
      </trkpt>
      <trkpt lat="40.7955610" lon="-8.4780880">
        <ele>223.9</ele>
        <time>2019-08-15T07:43:08Z</time>
      </trkpt>
      <trkpt lat="40.7955930" lon="-8.4780950">
        <ele>224.1</ele>
        <time>2019-08-15T07:43:09Z</time>
      </trkpt>
      <trkpt lat="40.7956240" lon="-8.4781030">
        <ele>224.3</ele>
        <time>2019-08-15T07:43:10Z</time>
      </trkpt>
      <trkpt lat="40.7957290" lon="-8.4781280">
        <ele>225.0</ele>
        <time>2019-08-15T07:43:13Z</time>
      </trkpt>
      <trkpt lat="40.7957940" lon="-8.4781510">
        <ele>225.7</ele>
        <time>2019-08-15T07:43:15Z</time>
      </trkpt>
      <trkpt lat="40.7959200" lon="-8.4781700">
        <ele>226.6</ele>
        <time>2019-08-15T07:43:19Z</time>
      </trkpt>
      <trkpt lat="40.7959480" lon="-8.4781670">
        <ele>226.8</ele>
        <time>2019-08-15T07:43:20Z</time>
      </trkpt>
      <trkpt lat="40.7959770" lon="-8.4781610">
        <ele>227.0</ele>
        <time>2019-08-15T07:43:21Z</time>
      </trkpt>
      <trkpt lat="40.7960080" lon="-8.4781620">
        <ele>227.2</ele>
        <time>2019-08-15T07:43:22Z</time>
      </trkpt>
      <trkpt lat="40.7960370" lon="-8.4781600">
        <ele>227.4</ele>
        <time>2019-08-15T07:43:23Z</time>
      </trkpt>
      <trkpt lat="40.7962790" lon="-8.4781730">
        <ele>228.3</ele>
        <time>2019-08-15T07:43:31Z</time>
      </trkpt>
      <trkpt lat="40.7965010" lon="-8.4782450">
        <ele>229.1</ele>
        <time>2019-08-15T07:43:39Z</time>
      </trkpt>
      <trkpt lat="40.7967450" lon="-8.4782700">
        <ele>228.8</ele>
        <time>2019-08-15T07:43:48Z</time>
      </trkpt>
      <trkpt lat="40.7969000" lon="-8.4782900">
        <ele>227.8</ele>
        <time>2019-08-15T07:43:54Z</time>
      </trkpt>
      <trkpt lat="40.7971790" lon="-8.4784000">
        <ele>225.4</ele>
        <time>2019-08-15T07:44:02Z</time>
      </trkpt>
      <trkpt lat="40.7973730" lon="-8.4785600">
        <ele>223.3</ele>
        <time>2019-08-15T07:44:08Z</time>
      </trkpt>
      <trkpt lat="40.7974020" lon="-8.4785890">
        <ele>222.9</ele>
        <time>2019-08-15T07:44:09Z</time>
      </trkpt>
      <trkpt lat="40.7974330" lon="-8.4786130">
        <ele>222.5</ele>
        <time>2019-08-15T07:44:10Z</time>
      </trkpt>
      <trkpt lat="40.7974620" lon="-8.4786510">
        <ele>222.1</ele>
        <time>2019-08-15T07:44:11Z</time>
      </trkpt>
      <trkpt lat="40.7974880" lon="-8.4786960">
        <ele>221.6</ele>
        <time>2019-08-15T07:44:12Z</time>
      </trkpt>
      <trkpt lat="40.7975480" lon="-8.4788030">
        <ele>220.7</ele>
        <time>2019-08-15T07:44:14Z</time>
      </trkpt>
      <trkpt lat="40.7975790" lon="-8.4788660">
        <ele>220.2</ele>
        <time>2019-08-15T07:44:15Z</time>
      </trkpt>
      <trkpt lat="40.7976080" lon="-8.4789310">
        <ele>219.7</ele>
        <time>2019-08-15T07:44:16Z</time>
      </trkpt>
      <trkpt lat="40.7976360" lon="-8.4789940">
        <ele>219.3</ele>
        <time>2019-08-15T07:44:17Z</time>
      </trkpt>
      <trkpt lat="40.7976590" lon="-8.4790580">
        <ele>219.0</ele>
        <time>2019-08-15T07:44:18Z</time>
      </trkpt>
      <trkpt lat="40.7977190" lon="-8.4791720">
        <ele>218.7</ele>
        <time>2019-08-15T07:44:20Z</time>
      </trkpt>
      <trkpt lat="40.7977510" lon="-8.4792060">
        <ele>218.7</ele>
        <time>2019-08-15T07:44:21Z</time>
      </trkpt>
      <trkpt lat="40.7979030" lon="-8.4794010">
        <ele>219.9</ele>
        <time>2019-08-15T07:44:27Z</time>
      </trkpt>
      <trkpt lat="40.7979220" lon="-8.4794280">
        <ele>220.1</ele>
        <time>2019-08-15T07:44:28Z</time>
      </trkpt>
      <trkpt lat="40.7979380" lon="-8.4794580">
        <ele>220.3</ele>
        <time>2019-08-15T07:44:29Z</time>
      </trkpt>
      <trkpt lat="40.7979570" lon="-8.4794880">
        <ele>220.5</ele>
        <time>2019-08-15T07:44:30Z</time>
      </trkpt>
      <trkpt lat="40.7979770" lon="-8.4795130">
        <ele>220.7</ele>
        <time>2019-08-15T07:44:31Z</time>
      </trkpt>
      <trkpt lat="40.7979970" lon="-8.4795380">
        <ele>220.9</ele>
        <time>2019-08-15T07:44:32Z</time>
      </trkpt>
      <trkpt lat="40.7980420" lon="-8.4795790">
        <ele>221.4</ele>
        <time>2019-08-15T07:44:34Z</time>
      </trkpt>
      <trkpt lat="40.7982050" lon="-8.4797060">
        <ele>221.4</ele>
        <time>2019-08-15T07:44:40Z</time>
      </trkpt>
      <trkpt lat="40.7982980" lon="-8.4797610">
        <ele>221.4</ele>
        <time>2019-08-15T07:44:43Z</time>
      </trkpt>
      <trkpt lat="40.7983200" lon="-8.4797800">
        <ele>221.4</ele>
        <time>2019-08-15T07:44:44Z</time>
      </trkpt>
      <trkpt lat="40.7983490" lon="-8.4797980">
        <ele>221.3</ele>
        <time>2019-08-15T07:44:45Z</time>
      </trkpt>
      <trkpt lat="40.7983720" lon="-8.4798090">
        <ele>221.3</ele>
        <time>2019-08-15T07:44:46Z</time>
      </trkpt>
      <trkpt lat="40.7984000" lon="-8.4798170">
        <ele>221.3</ele>
        <time>2019-08-15T07:44:47Z</time>
      </trkpt>
      <trkpt lat="40.7985030" lon="-8.4798330">
        <ele>221.3</ele>
        <time>2019-08-15T07:44:52Z</time>
      </trkpt>
      <trkpt lat="40.7986610" lon="-8.4798970">
        <ele>221.3</ele>
        <time>2019-08-15T07:44:57Z</time>
      </trkpt>
      <trkpt lat="40.7986970" lon="-8.4799310">
        <ele>221.5</ele>
        <time>2019-08-15T07:44:58Z</time>
      </trkpt>
      <trkpt lat="40.7988000" lon="-8.4800160">
        <ele>221.8</ele>
        <time>2019-08-15T07:45:01Z</time>
      </trkpt>
      <trkpt lat="40.7990350" lon="-8.4802460">
        <ele>222.6</ele>
        <time>2019-08-15T07:45:07Z</time>
      </trkpt>
      <trkpt lat="40.7990800" lon="-8.4802900">
        <ele>222.7</ele>
        <time>2019-08-15T07:45:08Z</time>
      </trkpt>
      <trkpt lat="40.7991230" lon="-8.4803280">
        <ele>222.8</ele>
        <time>2019-08-15T07:45:09Z</time>
      </trkpt>
      <trkpt lat="40.7991630" lon="-8.4803620">
        <ele>222.9</ele>
        <time>2019-08-15T07:45:10Z</time>
      </trkpt>
      <trkpt lat="40.7991980" lon="-8.4803980">
        <ele>223.0</ele>
        <time>2019-08-15T07:45:11Z</time>
      </trkpt>
      <trkpt lat="40.7992280" lon="-8.4804370">
        <ele>223.1</ele>
        <time>2019-08-15T07:45:12Z</time>
      </trkpt>
      <trkpt lat="40.7992560" lon="-8.4804720">
        <ele>223.2</ele>
        <time>2019-08-15T07:45:13Z</time>
      </trkpt>
      <trkpt lat="40.7992770" lon="-8.4805020">
        <ele>223.2</ele>
        <time>2019-08-15T07:45:14Z</time>
      </trkpt>
      <trkpt lat="40.7992930" lon="-8.4805230">
        <ele>223.3</ele>
        <time>2019-08-15T07:45:15Z</time>
      </trkpt>
      <trkpt lat="40.7993020" lon="-8.4805390">
        <ele>223.3</ele>
        <time>2019-08-15T07:45:16Z</time>
      </trkpt>
      <trkpt lat="40.7992970" lon="-8.4805870">
        <ele>223.4</ele>
        <time>2019-08-15T07:45:17Z</time>
      </trkpt>
      <trkpt lat="40.7992300" lon="-8.4807230">
        <ele>222.7</ele>
        <time>2019-08-15T07:45:21Z</time>
      </trkpt>
      <trkpt lat="40.7992150" lon="-8.4807570">
        <ele>222.5</ele>
        <time>2019-08-15T07:45:22Z</time>
      </trkpt>
      <trkpt lat="40.7991950" lon="-8.4807860">
        <ele>222.3</ele>
        <time>2019-08-15T07:45:23Z</time>
      </trkpt>
      <trkpt lat="40.7991660" lon="-8.4808210">
        <ele>222.1</ele>
        <time>2019-08-15T07:45:24Z</time>
      </trkpt>
      <trkpt lat="40.7991340" lon="-8.4808520">
        <ele>221.8</ele>
        <time>2019-08-15T07:45:25Z</time>
      </trkpt>
      <trkpt lat="40.7990980" lon="-8.4808850">
        <ele>221.4</ele>
        <time>2019-08-15T07:45:26Z</time>
      </trkpt>
      <trkpt lat="40.7990130" lon="-8.4809500">
        <ele>220.8</ele>
        <time>2019-08-15T07:45:28Z</time>
      </trkpt>
      <trkpt lat="40.7989090" lon="-8.4810250">
        <ele>220.1</ele>
        <time>2019-08-15T07:45:30Z</time>
      </trkpt>
      <trkpt lat="40.7988610" lon="-8.4810570">
        <ele>219.7</ele>
        <time>2019-08-15T07:45:31Z</time>
      </trkpt>
      <trkpt lat="40.7987980" lon="-8.4810710">
        <ele>219.2</ele>
        <time>2019-08-15T07:45:32Z</time>
      </trkpt>
      <trkpt lat="40.7987440" lon="-8.4810820">
        <ele>218.9</ele>
        <time>2019-08-15T07:45:33Z</time>
      </trkpt>
      <trkpt lat="40.7986850" lon="-8.4810870">
        <ele>218.5</ele>
        <time>2019-08-15T07:45:34Z</time>
      </trkpt>
      <trkpt lat="40.7985610" lon="-8.4810620">
        <ele>217.7</ele>
        <time>2019-08-15T07:45:36Z</time>
      </trkpt>
      <trkpt lat="40.7985060" lon="-8.4810410">
        <ele>217.5</ele>
        <time>2019-08-15T07:45:37Z</time>
      </trkpt>
      <trkpt lat="40.7984530" lon="-8.4810080">
        <ele>217.1</ele>
        <time>2019-08-15T07:45:38Z</time>
      </trkpt>
      <trkpt lat="40.7984060" lon="-8.4809730">
        <ele>216.7</ele>
        <time>2019-08-15T07:45:39Z</time>
      </trkpt>
      <trkpt lat="40.7983580" lon="-8.4809430">
        <ele>216.5</ele>
        <time>2019-08-15T07:45:40Z</time>
      </trkpt>
      <trkpt lat="40.7983090" lon="-8.4809020">
        <ele>216.2</ele>
        <time>2019-08-15T07:45:41Z</time>
      </trkpt>
      <trkpt lat="40.7982260" lon="-8.4808250">
        <ele>215.7</ele>
        <time>2019-08-15T07:45:43Z</time>
      </trkpt>
      <trkpt lat="40.7981910" lon="-8.4807900">
        <ele>215.5</ele>
        <time>2019-08-15T07:45:44Z</time>
      </trkpt>
      <trkpt lat="40.7981540" lon="-8.4807590">
        <ele>215.4</ele>
        <time>2019-08-15T07:45:45Z</time>
      </trkpt>
      <trkpt lat="40.7981110" lon="-8.4807360">
        <ele>215.2</ele>
        <time>2019-08-15T07:45:46Z</time>
      </trkpt>
      <trkpt lat="40.7980700" lon="-8.4807220">
        <ele>215.0</ele>
        <time>2019-08-15T07:45:47Z</time>
      </trkpt>
      <trkpt lat="40.7980290" lon="-8.4807120">
        <ele>214.8</ele>
        <time>2019-08-15T07:45:48Z</time>
      </trkpt>
      <trkpt lat="40.7979960" lon="-8.4807100">
        <ele>214.6</ele>
        <time>2019-08-15T07:45:49Z</time>
      </trkpt>
      <trkpt lat="40.7979620" lon="-8.4807240">
        <ele>213.5</ele>
        <time>2019-08-15T07:45:50Z</time>
      </trkpt>
      <trkpt lat="40.7979290" lon="-8.4807570">
        <ele>213.2</ele>
        <time>2019-08-15T07:45:51Z</time>
      </trkpt>
      <trkpt lat="40.7979000" lon="-8.4808040">
        <ele>212.8</ele>
        <time>2019-08-15T07:45:52Z</time>
      </trkpt>
      <trkpt lat="40.7978530" lon="-8.4809510">
        <ele>212.0</ele>
        <time>2019-08-15T07:45:55Z</time>
      </trkpt>
      <trkpt lat="40.7978470" lon="-8.4810000">
        <ele>211.9</ele>
        <time>2019-08-15T07:45:56Z</time>
      </trkpt>
      <trkpt lat="40.7978440" lon="-8.4810470">
        <ele>211.7</ele>
        <time>2019-08-15T07:45:57Z</time>
      </trkpt>
      <trkpt lat="40.7978430" lon="-8.4810870">
        <ele>211.6</ele>
        <time>2019-08-15T07:45:58Z</time>
      </trkpt>
      <trkpt lat="40.7978390" lon="-8.4811130">
        <ele>211.5</ele>
        <time>2019-08-15T07:45:59Z</time>
      </trkpt>
      <trkpt lat="40.7978400" lon="-8.4811260">
        <ele>211.5</ele>
        <time>2019-08-15T07:46:00Z</time>
      </trkpt>
      <trkpt lat="40.7978440" lon="-8.4811230">
        <ele>211.4</ele>
        <time>2019-08-15T07:46:01Z</time>
      </trkpt>
      <trkpt lat="40.7978500" lon="-8.4811260">
        <ele>211.4</ele>
        <time>2019-08-15T07:46:45Z</time>
      </trkpt>
      <trkpt lat="40.7978300" lon="-8.4811730">
        <ele>211.2</ele>
        <time>2019-08-15T07:46:47Z</time>
      </trkpt>
      <trkpt lat="40.7977550" lon="-8.4814240">
        <ele>209.2</ele>
        <time>2019-08-15T07:46:52Z</time>
      </trkpt>
      <trkpt lat="40.7977360" lon="-8.4814830">
        <ele>208.6</ele>
        <time>2019-08-15T07:46:53Z</time>
      </trkpt>
      <trkpt lat="40.7977320" lon="-8.4815450">
        <ele>208.1</ele>
        <time>2019-08-15T07:46:54Z</time>
      </trkpt>
      <trkpt lat="40.7977320" lon="-8.4816120">
        <ele>207.5</ele>
        <time>2019-08-15T07:46:55Z</time>
      </trkpt>
      <trkpt lat="40.7977420" lon="-8.4816770">
        <ele>206.9</ele>
        <time>2019-08-15T07:46:56Z</time>
      </trkpt>
      <trkpt lat="40.7977680" lon="-8.4817350">
        <ele>206.3</ele>
        <time>2019-08-15T07:46:57Z</time>
      </trkpt>
      <trkpt lat="40.7978830" lon="-8.4818430">
        <ele>207.4</ele>
        <time>2019-08-15T07:47:00Z</time>
      </trkpt>
      <trkpt lat="40.7980600" lon="-8.4818470">
        <ele>208.5</ele>
        <time>2019-08-15T07:47:04Z</time>
      </trkpt>
      <trkpt lat="40.7981340" lon="-8.4818300">
        <ele>208.9</ele>
        <time>2019-08-15T07:47:06Z</time>
      </trkpt>
      <trkpt lat="40.7982520" lon="-8.4818300">
        <ele>209.6</ele>
        <time>2019-08-15T07:47:09Z</time>
      </trkpt>
      <trkpt lat="40.7982940" lon="-8.4818290">
        <ele>209.7</ele>
        <time>2019-08-15T07:47:10Z</time>
      </trkpt>
      <trkpt lat="40.7983310" lon="-8.4818320">
        <ele>209.9</ele>
        <time>2019-08-15T07:47:11Z</time>
      </trkpt>
      <trkpt lat="40.7983660" lon="-8.4818470">
        <ele>210.0</ele>
        <time>2019-08-15T07:47:12Z</time>
      </trkpt>
      <trkpt lat="40.7984040" lon="-8.4818510">
        <ele>210.2</ele>
        <time>2019-08-15T07:47:13Z</time>
      </trkpt>
      <trkpt lat="40.7985630" lon="-8.4818630">
        <ele>210.8</ele>
        <time>2019-08-15T07:47:17Z</time>
      </trkpt>
      <trkpt lat="40.7986030" lon="-8.4818630">
        <ele>210.9</ele>
        <time>2019-08-15T07:47:18Z</time>
      </trkpt>
      <trkpt lat="40.7986470" lon="-8.4818540">
        <ele>211.0</ele>
        <time>2019-08-15T07:47:19Z</time>
      </trkpt>
      <trkpt lat="40.7986910" lon="-8.4818470">
        <ele>211.2</ele>
        <time>2019-08-15T07:47:20Z</time>
      </trkpt>
      <trkpt lat="40.7987340" lon="-8.4818470">
        <ele>211.3</ele>
        <time>2019-08-15T07:47:21Z</time>
      </trkpt>
      <trkpt lat="40.7988940" lon="-8.4818640">
        <ele>210.8</ele>
        <time>2019-08-15T07:47:25Z</time>
      </trkpt>
      <trkpt lat="40.7992730" lon="-8.4819040">
        <ele>209.4</ele>
        <time>2019-08-15T07:47:35Z</time>
      </trkpt>
      <trkpt lat="40.7994650" lon="-8.4819350">
        <ele>208.8</ele>
        <time>2019-08-15T07:47:41Z</time>
      </trkpt>
      <trkpt lat="40.7996480" lon="-8.4818440">
        <ele>208.1</ele>
        <time>2019-08-15T07:47:46Z</time>
      </trkpt>
      <trkpt lat="40.7999560" lon="-8.4816470">
        <ele>207.1</ele>
        <time>2019-08-15T07:47:54Z</time>
      </trkpt>
      <trkpt lat="40.8002260" lon="-8.4814450">
        <ele>206.1</ele>
        <time>2019-08-15T07:48:02Z</time>
      </trkpt>
      <trkpt lat="40.8004010" lon="-8.4812870">
        <ele>204.9</ele>
        <time>2019-08-15T07:48:08Z</time>
      </trkpt>
      <trkpt lat="40.8005620" lon="-8.4813590">
        <ele>203.2</ele>
        <time>2019-08-15T07:48:12Z</time>
      </trkpt>
      <trkpt lat="40.8006980" lon="-8.4813960">
        <ele>201.3</ele>
        <time>2019-08-15T07:48:15Z</time>
      </trkpt>
      <trkpt lat="40.8008040" lon="-8.4814270">
        <ele>199.7</ele>
        <time>2019-08-15T07:48:17Z</time>
      </trkpt>
      <trkpt lat="40.8011100" lon="-8.4815160">
        <ele>195.5</ele>
        <time>2019-08-15T07:48:22Z</time>
      </trkpt>
      <trkpt lat="40.8011890" lon="-8.4815450">
        <ele>194.3</ele>
        <time>2019-08-15T07:48:23Z</time>
      </trkpt>
      <trkpt lat="40.8012460" lon="-8.4816170">
        <ele>193.1</ele>
        <time>2019-08-15T07:48:24Z</time>
      </trkpt>
      <trkpt lat="40.8013150" lon="-8.4816660">
        <ele>192.2</ele>
        <time>2019-08-15T07:48:25Z</time>
      </trkpt>
      <trkpt lat="40.8013810" lon="-8.4817210">
        <ele>191.4</ele>
        <time>2019-08-15T07:48:26Z</time>
      </trkpt>
      <trkpt lat="40.8014430" lon="-8.4817810">
        <ele>190.6</ele>
        <time>2019-08-15T07:48:27Z</time>
      </trkpt>
      <trkpt lat="40.8015040" lon="-8.4818300">
        <ele>189.9</ele>
        <time>2019-08-15T07:48:28Z</time>
      </trkpt>
      <trkpt lat="40.8015700" lon="-8.4818660">
        <ele>189.1</ele>
        <time>2019-08-15T07:48:29Z</time>
      </trkpt>
      <trkpt lat="40.8016310" lon="-8.4818920">
        <ele>188.5</ele>
        <time>2019-08-15T07:48:30Z</time>
      </trkpt>
      <trkpt lat="40.8016940" lon="-8.4819320">
        <ele>187.8</ele>
        <time>2019-08-15T07:48:31Z</time>
      </trkpt>
      <trkpt lat="40.8017560" lon="-8.4819780">
        <ele>187.1</ele>
        <time>2019-08-15T07:48:32Z</time>
      </trkpt>
      <trkpt lat="40.8018180" lon="-8.4820290">
        <ele>186.4</ele>
        <time>2019-08-15T07:48:33Z</time>
      </trkpt>
      <trkpt lat="40.8018800" lon="-8.4820820">
        <ele>185.7</ele>
        <time>2019-08-15T07:48:34Z</time>
      </trkpt>
      <trkpt lat="40.8019450" lon="-8.4821360">
        <ele>185.0</ele>
        <time>2019-08-15T07:48:35Z</time>
      </trkpt>
      <trkpt lat="40.8020160" lon="-8.4821910">
        <ele>184.0</ele>
        <time>2019-08-15T07:48:36Z</time>
      </trkpt>
      <trkpt lat="40.8020840" lon="-8.4822580">
        <ele>183.1</ele>
        <time>2019-08-15T07:48:37Z</time>
      </trkpt>
      <trkpt lat="40.8021530" lon="-8.4823230">
        <ele>182.4</ele>
        <time>2019-08-15T07:48:38Z</time>
      </trkpt>
      <trkpt lat="40.8022270" lon="-8.4823950">
        <ele>181.5</ele>
        <time>2019-08-15T07:48:39Z</time>
      </trkpt>
      <trkpt lat="40.8023050" lon="-8.4824600">
        <ele>180.8</ele>
        <time>2019-08-15T07:48:40Z</time>
      </trkpt>
      <trkpt lat="40.8023870" lon="-8.4825310">
        <ele>180.1</ele>
        <time>2019-08-15T07:48:41Z</time>
      </trkpt>
      <trkpt lat="40.8024700" lon="-8.4825990">
        <ele>179.3</ele>
        <time>2019-08-15T07:48:42Z</time>
      </trkpt>
      <trkpt lat="40.8025550" lon="-8.4826640">
        <ele>179.2</ele>
        <time>2019-08-15T07:48:43Z</time>
      </trkpt>
      <trkpt lat="40.8026380" lon="-8.4827290">
        <ele>179.6</ele>
        <time>2019-08-15T07:48:44Z</time>
      </trkpt>
      <trkpt lat="40.8027280" lon="-8.4827960">
        <ele>180.0</ele>
        <time>2019-08-15T07:48:45Z</time>
      </trkpt>
      <trkpt lat="40.8028210" lon="-8.4828650">
        <ele>180.4</ele>
        <time>2019-08-15T07:48:46Z</time>
      </trkpt>
      <trkpt lat="40.8029150" lon="-8.4829320">
        <ele>181.3</ele>
        <time>2019-08-15T07:48:47Z</time>
      </trkpt>
      <trkpt lat="40.8030090" lon="-8.4829940">
        <ele>181.8</ele>
        <time>2019-08-15T07:48:48Z</time>
      </trkpt>
      <trkpt lat="40.8030960" lon="-8.4830460">
        <ele>182.3</ele>
        <time>2019-08-15T07:48:49Z</time>
      </trkpt>
      <trkpt lat="40.8031820" lon="-8.4830920">
        <ele>182.8</ele>
        <time>2019-08-15T07:48:50Z</time>
      </trkpt>
      <trkpt lat="40.8032690" lon="-8.4831300">
        <ele>183.5</ele>
        <time>2019-08-15T07:48:51Z</time>
      </trkpt>
      <trkpt lat="40.8033620" lon="-8.4831580">
        <ele>184.2</ele>
        <time>2019-08-15T07:48:52Z</time>
      </trkpt>
      <trkpt lat="40.8034480" lon="-8.4831880">
        <ele>185.2</ele>
        <time>2019-08-15T07:48:53Z</time>
      </trkpt>
      <trkpt lat="40.8035360" lon="-8.4832240">
        <ele>184.4</ele>
        <time>2019-08-15T07:48:54Z</time>
      </trkpt>
      <trkpt lat="40.8036250" lon="-8.4832530">
        <ele>184.1</ele>
        <time>2019-08-15T07:48:55Z</time>
      </trkpt>
      <trkpt lat="40.8037850" lon="-8.4833200">
        <ele>183.6</ele>
        <time>2019-08-15T07:48:57Z</time>
      </trkpt>
      <trkpt lat="40.8038550" lon="-8.4833550">
        <ele>183.4</ele>
        <time>2019-08-15T07:48:58Z</time>
      </trkpt>
      <trkpt lat="40.8039290" lon="-8.4833820">
        <ele>183.3</ele>
        <time>2019-08-15T07:48:59Z</time>
      </trkpt>
      <trkpt lat="40.8039980" lon="-8.4834320">
        <ele>183.2</ele>
        <time>2019-08-15T07:49:00Z</time>
      </trkpt>
      <trkpt lat="40.8040680" lon="-8.4834660">
        <ele>183.0</ele>
        <time>2019-08-15T07:49:01Z</time>
      </trkpt>
      <trkpt lat="40.8043220" lon="-8.4836340">
        <ele>183.3</ele>
        <time>2019-08-15T07:49:05Z</time>
      </trkpt>
      <trkpt lat="40.8043890" lon="-8.4836800">
        <ele>182.9</ele>
        <time>2019-08-15T07:49:06Z</time>
      </trkpt>
      <trkpt lat="40.8044600" lon="-8.4837140">
        <ele>182.3</ele>
        <time>2019-08-15T07:49:07Z</time>
      </trkpt>
      <trkpt lat="40.8045220" lon="-8.4837550">
        <ele>181.8</ele>
        <time>2019-08-15T07:49:08Z</time>
      </trkpt>
      <trkpt lat="40.8045830" lon="-8.4837970">
        <ele>181.3</ele>
        <time>2019-08-15T07:49:09Z</time>
      </trkpt>
      <trkpt lat="40.8046450" lon="-8.4838420">
        <ele>180.7</ele>
        <time>2019-08-15T07:49:10Z</time>
      </trkpt>
      <trkpt lat="40.8047130" lon="-8.4838920">
        <ele>180.1</ele>
        <time>2019-08-15T07:49:11Z</time>
      </trkpt>
      <trkpt lat="40.8047840" lon="-8.4839400">
        <ele>179.5</ele>
        <time>2019-08-15T07:49:12Z</time>
      </trkpt>
      <trkpt lat="40.8048620" lon="-8.4839820">
        <ele>178.8</ele>
        <time>2019-08-15T07:49:13Z</time>
      </trkpt>
      <trkpt lat="40.8049400" lon="-8.4840210">
        <ele>178.0</ele>
        <time>2019-08-15T07:49:14Z</time>
      </trkpt>
      <trkpt lat="40.8050290" lon="-8.4840600">
        <ele>177.0</ele>
        <time>2019-08-15T07:49:15Z</time>
      </trkpt>
      <trkpt lat="40.8051220" lon="-8.4840950">
        <ele>176.0</ele>
        <time>2019-08-15T07:49:16Z</time>
      </trkpt>
      <trkpt lat="40.8052140" lon="-8.4841320">
        <ele>175.0</ele>
        <time>2019-08-15T07:49:17Z</time>
      </trkpt>
      <trkpt lat="40.8053080" lon="-8.4841620">
        <ele>173.9</ele>
        <time>2019-08-15T07:49:18Z</time>
      </trkpt>
      <trkpt lat="40.8054040" lon="-8.4841980">
        <ele>172.5</ele>
        <time>2019-08-15T07:49:19Z</time>
      </trkpt>
      <trkpt lat="40.8054950" lon="-8.4842370">
        <ele>170.8</ele>
        <time>2019-08-15T07:49:20Z</time>
      </trkpt>
      <trkpt lat="40.8055810" lon="-8.4842740">
        <ele>169.3</ele>
        <time>2019-08-15T07:49:21Z</time>
      </trkpt>
      <trkpt lat="40.8055950" lon="-8.4843170">
        <ele>168.7</ele>
        <time>2019-08-15T07:49:22Z</time>
      </trkpt>
      <trkpt lat="40.8056270" lon="-8.4843510">
        <ele>168.0</ele>
        <time>2019-08-15T07:49:23Z</time>
      </trkpt>
      <trkpt lat="40.8057630" lon="-8.4844800">
        <ele>166.6</ele>
        <time>2019-08-15T07:49:27Z</time>
      </trkpt>
      <trkpt lat="40.8058080" lon="-8.4844990">
        <ele>165.4</ele>
        <time>2019-08-15T07:49:28Z</time>
      </trkpt>
      <trkpt lat="40.8059010" lon="-8.4845560">
        <ele>164.7</ele>
        <time>2019-08-15T07:49:30Z</time>
      </trkpt>
      <trkpt lat="40.8059390" lon="-8.4845740">
        <ele>164.4</ele>
        <time>2019-08-15T07:49:31Z</time>
      </trkpt>
      <trkpt lat="40.8059790" lon="-8.4845780">
        <ele>164.0</ele>
        <time>2019-08-15T07:49:32Z</time>
      </trkpt>
      <trkpt lat="40.8060190" lon="-8.4845440">
        <ele>163.5</ele>
        <time>2019-08-15T07:49:33Z</time>
      </trkpt>
      <trkpt lat="40.8060540" lon="-8.4845050">
        <ele>163.1</ele>
        <time>2019-08-15T07:49:34Z</time>
      </trkpt>
      <trkpt lat="40.8060630" lon="-8.4844250">
        <ele>162.6</ele>
        <time>2019-08-15T07:49:35Z</time>
      </trkpt>
      <trkpt lat="40.8060780" lon="-8.4843340">
        <ele>161.8</ele>
        <time>2019-08-15T07:49:36Z</time>
      </trkpt>
      <trkpt lat="40.8060890" lon="-8.4842340">
        <ele>160.9</ele>
        <time>2019-08-15T07:49:37Z</time>
      </trkpt>
      <trkpt lat="40.8061050" lon="-8.4841460">
        <ele>160.3</ele>
        <time>2019-08-15T07:49:38Z</time>
      </trkpt>
      <trkpt lat="40.8061620" lon="-8.4840790">
        <ele>159.6</ele>
        <time>2019-08-15T07:49:39Z</time>
      </trkpt>
      <trkpt lat="40.8062150" lon="-8.4840220">
        <ele>159.1</ele>
        <time>2019-08-15T07:49:40Z</time>
      </trkpt>
      <trkpt lat="40.8063050" lon="-8.4840040">
        <ele>158.6</ele>
        <time>2019-08-15T07:49:41Z</time>
      </trkpt>
      <trkpt lat="40.8063860" lon="-8.4839750">
        <ele>158.1</ele>
        <time>2019-08-15T07:49:42Z</time>
      </trkpt>
      <trkpt lat="40.8064590" lon="-8.4839440">
        <ele>157.8</ele>
        <time>2019-08-15T07:49:43Z</time>
      </trkpt>
      <trkpt lat="40.8065300" lon="-8.4839100">
        <ele>157.4</ele>
        <time>2019-08-15T07:49:44Z</time>
      </trkpt>
      <trkpt lat="40.8066010" lon="-8.4838710">
        <ele>157.1</ele>
        <time>2019-08-15T07:49:45Z</time>
      </trkpt>
      <trkpt lat="40.8066780" lon="-8.4838270">
        <ele>156.7</ele>
        <time>2019-08-15T07:49:46Z</time>
      </trkpt>
      <trkpt lat="40.8067480" lon="-8.4837780">
        <ele>156.3</ele>
        <time>2019-08-15T07:49:47Z</time>
      </trkpt>
      <trkpt lat="40.8068170" lon="-8.4837220">
        <ele>155.9</ele>
        <time>2019-08-15T07:49:48Z</time>
      </trkpt>
      <trkpt lat="40.8068850" lon="-8.4836590">
        <ele>155.5</ele>
        <time>2019-08-15T07:49:49Z</time>
      </trkpt>
      <trkpt lat="40.8069520" lon="-8.4835970">
        <ele>155.2</ele>
        <time>2019-08-15T07:49:50Z</time>
      </trkpt>
      <trkpt lat="40.8070210" lon="-8.4835390">
        <ele>154.9</ele>
        <time>2019-08-15T07:49:51Z</time>
      </trkpt>
      <trkpt lat="40.8070900" lon="-8.4834850">
        <ele>154.5</ele>
        <time>2019-08-15T07:49:52Z</time>
      </trkpt>
      <trkpt lat="40.8072330" lon="-8.4833800">
        <ele>153.9</ele>
        <time>2019-08-15T07:49:54Z</time>
      </trkpt>
      <trkpt lat="40.8073900" lon="-8.4833290">
        <ele>153.4</ele>
        <time>2019-08-15T07:49:56Z</time>
      </trkpt>
      <trkpt lat="40.8075360" lon="-8.4833070">
        <ele>152.6</ele>
        <time>2019-08-15T07:49:58Z</time>
      </trkpt>
      <trkpt lat="40.8076080" lon="-8.4833070">
        <ele>152.2</ele>
        <time>2019-08-15T07:49:59Z</time>
      </trkpt>
      <trkpt lat="40.8076840" lon="-8.4833080">
        <ele>151.8</ele>
        <time>2019-08-15T07:50:00Z</time>
      </trkpt>
      <trkpt lat="40.8077530" lon="-8.4833050">
        <ele>151.4</ele>
        <time>2019-08-15T07:50:01Z</time>
      </trkpt>
      <trkpt lat="40.8078330" lon="-8.4833000">
        <ele>151.0</ele>
        <time>2019-08-15T07:50:02Z</time>
      </trkpt>
      <trkpt lat="40.8079790" lon="-8.4833090">
        <ele>150.2</ele>
        <time>2019-08-15T07:50:04Z</time>
      </trkpt>
      <trkpt lat="40.8080560" lon="-8.4833160">
        <ele>149.8</ele>
        <time>2019-08-15T07:50:05Z</time>
      </trkpt>
      <trkpt lat="40.8081320" lon="-8.4833390">
        <ele>149.4</ele>
        <time>2019-08-15T07:50:06Z</time>
      </trkpt>
      <trkpt lat="40.8082100" lon="-8.4833700">
        <ele>149.1</ele>
        <time>2019-08-15T07:50:07Z</time>
      </trkpt>
      <trkpt lat="40.8082850" lon="-8.4834130">
        <ele>148.8</ele>
        <time>2019-08-15T07:50:08Z</time>
      </trkpt>
      <trkpt lat="40.8083610" lon="-8.4834640">
        <ele>148.5</ele>
        <time>2019-08-15T07:50:09Z</time>
      </trkpt>
      <trkpt lat="40.8084380" lon="-8.4835150">
        <ele>148.3</ele>
        <time>2019-08-15T07:50:10Z</time>
      </trkpt>
      <trkpt lat="40.8085240" lon="-8.4835620">
        <ele>148.1</ele>
        <time>2019-08-15T07:50:11Z</time>
      </trkpt>
      <trkpt lat="40.8086110" lon="-8.4836050">
        <ele>148.0</ele>
        <time>2019-08-15T07:50:12Z</time>
      </trkpt>
      <trkpt lat="40.8087090" lon="-8.4836210">
        <ele>147.8</ele>
        <time>2019-08-15T07:50:13Z</time>
      </trkpt>
      <trkpt lat="40.8088080" lon="-8.4836280">
        <ele>147.8</ele>
        <time>2019-08-15T07:50:14Z</time>
      </trkpt>
      <trkpt lat="40.8089090" lon="-8.4836330">
        <ele>147.7</ele>
        <time>2019-08-15T07:50:15Z</time>
      </trkpt>
      <trkpt lat="40.8090060" lon="-8.4836300">
        <ele>147.7</ele>
        <time>2019-08-15T07:50:16Z</time>
      </trkpt>
      <trkpt lat="40.8091000" lon="-8.4836260">
        <ele>147.7</ele>
        <time>2019-08-15T07:50:17Z</time>
      </trkpt>
      <trkpt lat="40.8093970" lon="-8.4836190">
        <ele>147.8</ele>
        <time>2019-08-15T07:50:20Z</time>
      </trkpt>
      <trkpt lat="40.8094950" lon="-8.4836300">
        <ele>147.8</ele>
        <time>2019-08-15T07:50:21Z</time>
      </trkpt>
      <trkpt lat="40.8095900" lon="-8.4836480">
        <ele>147.8</ele>
        <time>2019-08-15T07:50:22Z</time>
      </trkpt>
      <trkpt lat="40.8096880" lon="-8.4836730">
        <ele>147.8</ele>
        <time>2019-08-15T07:50:23Z</time>
      </trkpt>
      <trkpt lat="40.8097760" lon="-8.4836950">
        <ele>147.8</ele>
        <time>2019-08-15T07:50:24Z</time>
      </trkpt>
      <trkpt lat="40.8101090" lon="-8.4837700">
        <ele>148.1</ele>
        <time>2019-08-15T07:50:28Z</time>
      </trkpt>
      <trkpt lat="40.8106160" lon="-8.4839100">
        <ele>148.2</ele>
        <time>2019-08-15T07:50:35Z</time>
      </trkpt>
      <trkpt lat="40.8108790" lon="-8.4840160">
        <ele>147.3</ele>
        <time>2019-08-15T07:50:39Z</time>
      </trkpt>
      <trkpt lat="40.8110010" lon="-8.4840920">
        <ele>146.9</ele>
        <time>2019-08-15T07:50:41Z</time>
      </trkpt>
      <trkpt lat="40.8113730" lon="-8.4843540">
        <ele>145.3</ele>
        <time>2019-08-15T07:50:48Z</time>
      </trkpt>
      <trkpt lat="40.8115410" lon="-8.4844570">
        <ele>144.5</ele>
        <time>2019-08-15T07:50:51Z</time>
      </trkpt>
      <trkpt lat="40.8116030" lon="-8.4845020">
        <ele>144.2</ele>
        <time>2019-08-15T07:50:52Z</time>
      </trkpt>
      <trkpt lat="40.8116690" lon="-8.4845500">
        <ele>143.3</ele>
        <time>2019-08-15T07:50:53Z</time>
      </trkpt>
      <trkpt lat="40.8117330" lon="-8.4846010">
        <ele>142.6</ele>
        <time>2019-08-15T07:50:54Z</time>
      </trkpt>
      <trkpt lat="40.8117960" lon="-8.4846590">
        <ele>142.4</ele>
        <time>2019-08-15T07:50:55Z</time>
      </trkpt>
      <trkpt lat="40.8118480" lon="-8.4847350">
        <ele>141.7</ele>
        <time>2019-08-15T07:50:56Z</time>
      </trkpt>
      <trkpt lat="40.8118950" lon="-8.4848220">
        <ele>140.8</ele>
        <time>2019-08-15T07:50:57Z</time>
      </trkpt>
      <trkpt lat="40.8119340" lon="-8.4849180">
        <ele>140.1</ele>
        <time>2019-08-15T07:50:58Z</time>
      </trkpt>
      <trkpt lat="40.8119680" lon="-8.4850270">
        <ele>139.3</ele>
        <time>2019-08-15T07:50:59Z</time>
      </trkpt>
      <trkpt lat="40.8119910" lon="-8.4851350">
        <ele>138.6</ele>
        <time>2019-08-15T07:51:00Z</time>
      </trkpt>
      <trkpt lat="40.8120050" lon="-8.4852500">
        <ele>137.6</ele>
        <time>2019-08-15T07:51:01Z</time>
      </trkpt>
      <trkpt lat="40.8120050" lon="-8.4853650">
        <ele>136.7</ele>
        <time>2019-08-15T07:51:02Z</time>
      </trkpt>
      <trkpt lat="40.8120030" lon="-8.4854830">
        <ele>135.8</ele>
        <time>2019-08-15T07:51:03Z</time>
      </trkpt>
      <trkpt lat="40.8119930" lon="-8.4856000">
        <ele>134.9</ele>
        <time>2019-08-15T07:51:04Z</time>
      </trkpt>
      <trkpt lat="40.8119800" lon="-8.4857160">
        <ele>134.1</ele>
        <time>2019-08-15T07:51:05Z</time>
      </trkpt>
      <trkpt lat="40.8119710" lon="-8.4858330">
        <ele>133.0</ele>
        <time>2019-08-15T07:51:06Z</time>
      </trkpt>
      <trkpt lat="40.8119770" lon="-8.4859470">
        <ele>131.7</ele>
        <time>2019-08-15T07:51:07Z</time>
      </trkpt>
      <trkpt lat="40.8119940" lon="-8.4860530">
        <ele>130.8</ele>
        <time>2019-08-15T07:51:08Z</time>
      </trkpt>
      <trkpt lat="40.8120160" lon="-8.4861550">
        <ele>129.8</ele>
        <time>2019-08-15T07:51:09Z</time>
      </trkpt>
      <trkpt lat="40.8120390" lon="-8.4862420">
        <ele>129.1</ele>
        <time>2019-08-15T07:51:10Z</time>
      </trkpt>
      <trkpt lat="40.8120630" lon="-8.4863230">
        <ele>128.5</ele>
        <time>2019-08-15T07:51:11Z</time>
      </trkpt>
      <trkpt lat="40.8120870" lon="-8.4863870">
        <ele>128.0</ele>
        <time>2019-08-15T07:51:12Z</time>
      </trkpt>
      <trkpt lat="40.8121120" lon="-8.4864370">
        <ele>127.6</ele>
        <time>2019-08-15T07:51:13Z</time>
      </trkpt>
      <trkpt lat="40.8121330" lon="-8.4864940">
        <ele>127.1</ele>
        <time>2019-08-15T07:51:14Z</time>
      </trkpt>
      <trkpt lat="40.8121660" lon="-8.4865210">
        <ele>126.7</ele>
        <time>2019-08-15T07:51:15Z</time>
      </trkpt>
      <trkpt lat="40.8122560" lon="-8.4864950">
        <ele>126.6</ele>
        <time>2019-08-15T07:51:17Z</time>
      </trkpt>
      <trkpt lat="40.8122950" lon="-8.4864490">
        <ele>126.5</ele>
        <time>2019-08-15T07:51:18Z</time>
      </trkpt>
      <trkpt lat="40.8123420" lon="-8.4864020">
        <ele>126.5</ele>
        <time>2019-08-15T07:51:19Z</time>
      </trkpt>
      <trkpt lat="40.8123870" lon="-8.4863570">
        <ele>126.5</ele>
        <time>2019-08-15T07:51:20Z</time>
      </trkpt>
      <trkpt lat="40.8127680" lon="-8.4860080">
        <ele>126.4</ele>
        <time>2019-08-15T07:51:28Z</time>
      </trkpt>
      <trkpt lat="40.8131570" lon="-8.4856750">
        <ele>124.8</ele>
        <time>2019-08-15T07:51:36Z</time>
      </trkpt>
      <trkpt lat="40.8134220" lon="-8.4854650">
        <ele>122.8</ele>
        <time>2019-08-15T07:51:41Z</time>
      </trkpt>
      <trkpt lat="40.8134950" lon="-8.4854130">
        <ele>122.1</ele>
        <time>2019-08-15T07:51:42Z</time>
      </trkpt>
      <trkpt lat="40.8135640" lon="-8.4853680">
        <ele>121.4</ele>
        <time>2019-08-15T07:51:43Z</time>
      </trkpt>
      <trkpt lat="40.8136400" lon="-8.4853220">
        <ele>120.7</ele>
        <time>2019-08-15T07:51:44Z</time>
      </trkpt>
      <trkpt lat="40.8137790" lon="-8.4852440">
        <ele>119.5</ele>
        <time>2019-08-15T07:51:46Z</time>
      </trkpt>
      <trkpt lat="40.8138500" lon="-8.4852000">
        <ele>119.0</ele>
        <time>2019-08-15T07:51:47Z</time>
      </trkpt>
      <trkpt lat="40.8139180" lon="-8.4851490">
        <ele>118.3</ele>
        <time>2019-08-15T07:51:48Z</time>
      </trkpt>
      <trkpt lat="40.8139800" lon="-8.4850700">
        <ele>117.8</ele>
        <time>2019-08-15T07:51:49Z</time>
      </trkpt>
      <trkpt lat="40.8140400" lon="-8.4849910">
        <ele>117.0</ele>
        <time>2019-08-15T07:51:50Z</time>
      </trkpt>
      <trkpt lat="40.8140940" lon="-8.4849040">
        <ele>116.4</ele>
        <time>2019-08-15T07:51:51Z</time>
      </trkpt>
      <trkpt lat="40.8141520" lon="-8.4848130">
        <ele>115.8</ele>
        <time>2019-08-15T07:51:52Z</time>
      </trkpt>
      <trkpt lat="40.8142010" lon="-8.4847220">
        <ele>115.1</ele>
        <time>2019-08-15T07:51:53Z</time>
      </trkpt>
      <trkpt lat="40.8142590" lon="-8.4846290">
        <ele>114.6</ele>
        <time>2019-08-15T07:51:54Z</time>
      </trkpt>
      <trkpt lat="40.8143130" lon="-8.4845380">
        <ele>114.2</ele>
        <time>2019-08-15T07:51:55Z</time>
      </trkpt>
      <trkpt lat="40.8143540" lon="-8.4844310">
        <ele>113.8</ele>
        <time>2019-08-15T07:51:56Z</time>
      </trkpt>
      <trkpt lat="40.8143920" lon="-8.4843200">
        <ele>113.3</ele>
        <time>2019-08-15T07:51:57Z</time>
      </trkpt>
      <trkpt lat="40.8144180" lon="-8.4842150">
        <ele>112.9</ele>
        <time>2019-08-15T07:51:58Z</time>
      </trkpt>
      <trkpt lat="40.8144300" lon="-8.4841090">
        <ele>112.6</ele>
        <time>2019-08-15T07:51:59Z</time>
      </trkpt>
      <trkpt lat="40.8144440" lon="-8.4840130">
        <ele>112.3</ele>
        <time>2019-08-15T07:52:00Z</time>
      </trkpt>
      <trkpt lat="40.8144600" lon="-8.4839160">
        <ele>111.9</ele>
        <time>2019-08-15T07:52:01Z</time>
      </trkpt>
      <trkpt lat="40.8144900" lon="-8.4837280">
        <ele>111.0</ele>
        <time>2019-08-15T07:52:03Z</time>
      </trkpt>
      <trkpt lat="40.8144910" lon="-8.4836330">
        <ele>110.7</ele>
        <time>2019-08-15T07:52:04Z</time>
      </trkpt>
      <trkpt lat="40.8144820" lon="-8.4835320">
        <ele>110.3</ele>
        <time>2019-08-15T07:52:05Z</time>
      </trkpt>
      <trkpt lat="40.8144550" lon="-8.4834300">
        <ele>110.1</ele>
        <time>2019-08-15T07:52:06Z</time>
      </trkpt>
      <trkpt lat="40.8144260" lon="-8.4833310">
        <ele>110.1</ele>
        <time>2019-08-15T07:52:07Z</time>
      </trkpt>
      <trkpt lat="40.8144000" lon="-8.4832300">
        <ele>110.2</ele>
        <time>2019-08-15T07:52:08Z</time>
      </trkpt>
      <trkpt lat="40.8143850" lon="-8.4831380">
        <ele>110.4</ele>
        <time>2019-08-15T07:52:09Z</time>
      </trkpt>
      <trkpt lat="40.8143690" lon="-8.4830430">
        <ele>110.8</ele>
        <time>2019-08-15T07:52:10Z</time>
      </trkpt>
      <trkpt lat="40.8143700" lon="-8.4829530">
        <ele>111.2</ele>
        <time>2019-08-15T07:52:11Z</time>
      </trkpt>
      <trkpt lat="40.8143740" lon="-8.4827870">
        <ele>112.4</ele>
        <time>2019-08-15T07:52:13Z</time>
      </trkpt>
      <trkpt lat="40.8144680" lon="-8.4825420">
        <ele>114.9</ele>
        <time>2019-08-15T07:52:17Z</time>
      </trkpt>
      <trkpt lat="40.8144940" lon="-8.4824970">
        <ele>115.3</ele>
        <time>2019-08-15T07:52:18Z</time>
      </trkpt>
      <trkpt lat="40.8145190" lon="-8.4824560">
        <ele>115.7</ele>
        <time>2019-08-15T07:52:19Z</time>
      </trkpt>
      <trkpt lat="40.8145670" lon="-8.4823880">
        <ele>116.3</ele>
        <time>2019-08-15T07:52:21Z</time>
      </trkpt>
      <trkpt lat="40.8145890" lon="-8.4823540">
        <ele>116.6</ele>
        <time>2019-08-15T07:52:22Z</time>
      </trkpt>
      <trkpt lat="40.8146130" lon="-8.4823190">
        <ele>116.9</ele>
        <time>2019-08-15T07:52:23Z</time>
      </trkpt>
      <trkpt lat="40.8146360" lon="-8.4822850">
        <ele>117.2</ele>
        <time>2019-08-15T07:52:24Z</time>
      </trkpt>
      <trkpt lat="40.8146590" lon="-8.4822550">
        <ele>117.5</ele>
        <time>2019-08-15T07:52:25Z</time>
      </trkpt>
      <trkpt lat="40.8146850" lon="-8.4822280">
        <ele>117.7</ele>
        <time>2019-08-15T07:52:26Z</time>
      </trkpt>
      <trkpt lat="40.8147410" lon="-8.4821950">
        <ele>118.3</ele>
        <time>2019-08-15T07:52:28Z</time>
      </trkpt>
      <trkpt lat="40.8147720" lon="-8.4821810">
        <ele>118.5</ele>
        <time>2019-08-15T07:52:29Z</time>
      </trkpt>
      <trkpt lat="40.8148050" lon="-8.4821700">
        <ele>118.8</ele>
        <time>2019-08-15T07:52:30Z</time>
      </trkpt>
      <trkpt lat="40.8148670" lon="-8.4821540">
        <ele>119.3</ele>
        <time>2019-08-15T07:52:32Z</time>
      </trkpt>
      <trkpt lat="40.8148960" lon="-8.4821620">
        <ele>119.5</ele>
        <time>2019-08-15T07:52:33Z</time>
      </trkpt>
      <trkpt lat="40.8149250" lon="-8.4821650">
        <ele>119.8</ele>
        <time>2019-08-15T07:52:34Z</time>
      </trkpt>
      <trkpt lat="40.8149570" lon="-8.4821690">
        <ele>120.0</ele>
        <time>2019-08-15T07:52:35Z</time>
      </trkpt>
      <trkpt lat="40.8149870" lon="-8.4821730">
        <ele>120.2</ele>
        <time>2019-08-15T07:52:36Z</time>
      </trkpt>
      <trkpt lat="40.8150150" lon="-8.4821760">
        <ele>120.4</ele>
        <time>2019-08-15T07:52:37Z</time>
      </trkpt>
      <trkpt lat="40.8150450" lon="-8.4821800">
        <ele>120.5</ele>
        <time>2019-08-15T07:52:38Z</time>
      </trkpt>
      <trkpt lat="40.8150750" lon="-8.4821870">
        <ele>120.7</ele>
        <time>2019-08-15T07:52:39Z</time>
      </trkpt>
      <trkpt lat="40.8151020" lon="-8.4821950">
        <ele>120.8</ele>
        <time>2019-08-15T07:52:40Z</time>
      </trkpt>
      <trkpt lat="40.8151320" lon="-8.4822010">
        <ele>121.0</ele>
        <time>2019-08-15T07:52:41Z</time>
      </trkpt>
      <trkpt lat="40.8151860" lon="-8.4822090">
        <ele>121.3</ele>
        <time>2019-08-15T07:52:43Z</time>
      </trkpt>
      <trkpt lat="40.8152110" lon="-8.4822120">
        <ele>121.4</ele>
        <time>2019-08-15T07:52:44Z</time>
      </trkpt>
      <trkpt lat="40.8152360" lon="-8.4822210">
        <ele>121.6</ele>
        <time>2019-08-15T07:52:45Z</time>
      </trkpt>
      <trkpt lat="40.8152570" lon="-8.4822280">
        <ele>121.8</ele>
        <time>2019-08-15T07:52:46Z</time>
      </trkpt>
      <trkpt lat="40.8153060" lon="-8.4822190">
        <ele>122.2</ele>
        <time>2019-08-15T07:52:48Z</time>
      </trkpt>
      <trkpt lat="40.8153560" lon="-8.4822110">
        <ele>122.6</ele>
        <time>2019-08-15T07:52:50Z</time>
      </trkpt>
      <trkpt lat="40.8153780" lon="-8.4822040">
        <ele>122.8</ele>
        <time>2019-08-15T07:52:51Z</time>
      </trkpt>
      <trkpt lat="40.8154010" lon="-8.4822010">
        <ele>123.0</ele>
        <time>2019-08-15T07:52:52Z</time>
      </trkpt>
      <trkpt lat="40.8154670" lon="-8.4821860">
        <ele>123.5</ele>
        <time>2019-08-15T07:52:55Z</time>
      </trkpt>
      <trkpt lat="40.8154910" lon="-8.4821800">
        <ele>123.7</ele>
        <time>2019-08-15T07:52:56Z</time>
      </trkpt>
      <trkpt lat="40.8155110" lon="-8.4821740">
        <ele>123.9</ele>
        <time>2019-08-15T07:52:57Z</time>
      </trkpt>
      <trkpt lat="40.8155320" lon="-8.4821700">
        <ele>124.0</ele>
        <time>2019-08-15T07:52:58Z</time>
      </trkpt>
      <trkpt lat="40.8155570" lon="-8.4821710">
        <ele>124.2</ele>
        <time>2019-08-15T07:52:59Z</time>
      </trkpt>
      <trkpt lat="40.8156640" lon="-8.4821640">
        <ele>125.0</ele>
        <time>2019-08-15T07:53:04Z</time>
      </trkpt>
      <trkpt lat="40.8156990" lon="-8.4821680">
        <ele>125.4</ele>
        <time>2019-08-15T07:53:06Z</time>
      </trkpt>
      <trkpt lat="40.8157170" lon="-8.4821680">
        <ele>125.5</ele>
        <time>2019-08-15T07:53:07Z</time>
      </trkpt>
      <trkpt lat="40.8157360" lon="-8.4821610">
        <ele>125.7</ele>
        <time>2019-08-15T07:53:08Z</time>
      </trkpt>
      <trkpt lat="40.8157550" lon="-8.4821610">
        <ele>125.8</ele>
        <time>2019-08-15T07:53:09Z</time>
      </trkpt>
      <trkpt lat="40.8157720" lon="-8.4821660">
        <ele>126.0</ele>
        <time>2019-08-15T07:53:10Z</time>
      </trkpt>
      <trkpt lat="40.8158600" lon="-8.4821930">
        <ele>127.3</ele>
        <time>2019-08-15T07:53:17Z</time>
      </trkpt>
      <trkpt lat="40.8158300" lon="-8.4820960">
        <ele>127.6</ele>
        <time>2019-08-15T07:53:21Z</time>
      </trkpt>
      <trkpt lat="40.8158190" lon="-8.4820750">
        <ele>127.7</ele>
        <time>2019-08-15T07:53:22Z</time>
      </trkpt>
      <trkpt lat="40.8158110" lon="-8.4820550">
        <ele>127.7</ele>
        <time>2019-08-15T07:53:23Z</time>
      </trkpt>
      <trkpt lat="40.8158030" lon="-8.4820320">
        <ele>127.8</ele>
        <time>2019-08-15T07:53:24Z</time>
      </trkpt>
      <trkpt lat="40.8157940" lon="-8.4820180">
        <ele>127.9</ele>
        <time>2019-08-15T07:53:25Z</time>
      </trkpt>
      <trkpt lat="40.8157840" lon="-8.4820060">
        <ele>127.9</ele>
        <time>2019-08-15T07:53:26Z</time>
      </trkpt>
      <trkpt lat="40.8157390" lon="-8.4819110">
        <ele>128.2</ele>
        <time>2019-08-15T07:53:31Z</time>
      </trkpt>
      <trkpt lat="40.8157250" lon="-8.4818980">
        <ele>128.3</ele>
        <time>2019-08-15T07:53:32Z</time>
      </trkpt>
      <trkpt lat="40.8157150" lon="-8.4818860">
        <ele>128.3</ele>
        <time>2019-08-15T07:53:33Z</time>
      </trkpt>
      <trkpt lat="40.8157020" lon="-8.4818720">
        <ele>128.4</ele>
        <time>2019-08-15T07:53:34Z</time>
      </trkpt>
      <trkpt lat="40.8156930" lon="-8.4818620">
        <ele>128.4</ele>
        <time>2019-08-15T07:53:35Z</time>
      </trkpt>
      <trkpt lat="40.8156870" lon="-8.4818520">
        <ele>128.5</ele>
        <time>2019-08-15T07:53:36Z</time>
      </trkpt>
      <trkpt lat="40.8156880" lon="-8.4818500">
        <ele>128.5</ele>
        <time>2019-08-15T07:53:37Z</time>
      </trkpt>
      <trkpt lat="40.8158000" lon="-8.4817830">
        <ele>128.4</ele>
        <time>2019-08-15T07:53:47Z</time>
      </trkpt>
      <trkpt lat="40.8160290" lon="-8.4817600">
        <ele>128.1</ele>
        <time>2019-08-15T07:53:53Z</time>
      </trkpt>
      <trkpt lat="40.8162690" lon="-8.4816970">
        <ele>127.7</ele>
        <time>2019-08-15T07:54:01Z</time>
      </trkpt>
      <trkpt lat="40.8166120" lon="-8.4814870">
        <ele>127.0</ele>
        <time>2019-08-15T07:54:12Z</time>
      </trkpt>
      <trkpt lat="40.8166690" lon="-8.4814260">
        <ele>126.9</ele>
        <time>2019-08-15T07:54:14Z</time>
      </trkpt>
      <trkpt lat="40.8166950" lon="-8.4813910">
        <ele>126.8</ele>
        <time>2019-08-15T07:54:15Z</time>
      </trkpt>
      <trkpt lat="40.8167230" lon="-8.4813610">
        <ele>126.7</ele>
        <time>2019-08-15T07:54:16Z</time>
      </trkpt>
      <trkpt lat="40.8167500" lon="-8.4813290">
        <ele>126.6</ele>
        <time>2019-08-15T07:54:17Z</time>
      </trkpt>
      <trkpt lat="40.8167710" lon="-8.4813020">
        <ele>126.4</ele>
        <time>2019-08-15T07:54:18Z</time>
      </trkpt>
      <trkpt lat="40.8168930" lon="-8.4811500">
        <ele>125.2</ele>
        <time>2019-08-15T07:54:24Z</time>
      </trkpt>
      <trkpt lat="40.8169710" lon="-8.4810190">
        <ele>123.7</ele>
        <time>2019-08-15T07:54:28Z</time>
      </trkpt>
      <trkpt lat="40.8169920" lon="-8.4809820">
        <ele>123.3</ele>
        <time>2019-08-15T07:54:29Z</time>
      </trkpt>
      <trkpt lat="40.8170140" lon="-8.4809470">
        <ele>122.8</ele>
        <time>2019-08-15T07:54:30Z</time>
      </trkpt>
      <trkpt lat="40.8170340" lon="-8.4809180">
        <ele>122.4</ele>
        <time>2019-08-15T07:54:31Z</time>
      </trkpt>
      <trkpt lat="40.8170560" lon="-8.4808850">
        <ele>122.0</ele>
        <time>2019-08-15T07:54:32Z</time>
      </trkpt>
      <trkpt lat="40.8170760" lon="-8.4808480">
        <ele>121.5</ele>
        <time>2019-08-15T07:54:33Z</time>
      </trkpt>
      <trkpt lat="40.8170930" lon="-8.4808050">
        <ele>120.8</ele>
        <time>2019-08-15T07:54:34Z</time>
      </trkpt>
      <trkpt lat="40.8171100" lon="-8.4807630">
        <ele>120.1</ele>
        <time>2019-08-15T07:54:35Z</time>
      </trkpt>
      <trkpt lat="40.8171290" lon="-8.4807230">
        <ele>119.4</ele>
        <time>2019-08-15T07:54:36Z</time>
      </trkpt>
      <trkpt lat="40.8171540" lon="-8.4806830">
        <ele>118.8</ele>
        <time>2019-08-15T07:54:37Z</time>
      </trkpt>
      <trkpt lat="40.8171840" lon="-8.4806460">
        <ele>118.1</ele>
        <time>2019-08-15T07:54:38Z</time>
      </trkpt>
      <trkpt lat="40.8172230" lon="-8.4806170">
        <ele>117.5</ele>
        <time>2019-08-15T07:54:39Z</time>
      </trkpt>
      <trkpt lat="40.8172720" lon="-8.4805980">
        <ele>116.7</ele>
        <time>2019-08-15T07:54:40Z</time>
      </trkpt>
      <trkpt lat="40.8173270" lon="-8.4805880">
        <ele>115.8</ele>
        <time>2019-08-15T07:54:41Z</time>
      </trkpt>
      <trkpt lat="40.8173850" lon="-8.4805860">
        <ele>114.8</ele>
        <time>2019-08-15T07:54:42Z</time>
      </trkpt>
      <trkpt lat="40.8174430" lon="-8.4805910">
        <ele>113.9</ele>
        <time>2019-08-15T07:54:43Z</time>
      </trkpt>
      <trkpt lat="40.8175030" lon="-8.4805970">
        <ele>113.1</ele>
        <time>2019-08-15T07:54:44Z</time>
      </trkpt>
      <trkpt lat="40.8175620" lon="-8.4805990">
        <ele>112.1</ele>
        <time>2019-08-15T07:54:45Z</time>
      </trkpt>
      <trkpt lat="40.8176170" lon="-8.4806000">
        <ele>111.0</ele>
        <time>2019-08-15T07:54:46Z</time>
      </trkpt>
      <trkpt lat="40.8176700" lon="-8.4806020">
        <ele>110.1</ele>
        <time>2019-08-15T07:54:47Z</time>
      </trkpt>
      <trkpt lat="40.8177130" lon="-8.4806030">
        <ele>109.4</ele>
        <time>2019-08-15T07:54:48Z</time>
      </trkpt>
      <trkpt lat="40.8177430" lon="-8.4806190">
        <ele>108.9</ele>
        <time>2019-08-15T07:54:49Z</time>
      </trkpt>
      <trkpt lat="40.8177840" lon="-8.4806230">
        <ele>108.2</ele>
        <time>2019-08-15T07:54:50Z</time>
      </trkpt>
      <trkpt lat="40.8178330" lon="-8.4806050">
        <ele>107.5</ele>
        <time>2019-08-15T07:54:51Z</time>
      </trkpt>
      <trkpt lat="40.8178940" lon="-8.4806030">
        <ele>106.5</ele>
        <time>2019-08-15T07:54:52Z</time>
      </trkpt>
      <trkpt lat="40.8179540" lon="-8.4805890">
        <ele>105.4</ele>
        <time>2019-08-15T07:54:53Z</time>
      </trkpt>
      <trkpt lat="40.8180170" lon="-8.4805560">
        <ele>104.5</ele>
        <time>2019-08-15T07:54:54Z</time>
      </trkpt>
      <trkpt lat="40.8180800" lon="-8.4805050">
        <ele>103.4</ele>
        <time>2019-08-15T07:54:55Z</time>
      </trkpt>
      <trkpt lat="40.8181320" lon="-8.4804450">
        <ele>102.5</ele>
        <time>2019-08-15T07:54:56Z</time>
      </trkpt>
      <trkpt lat="40.8181750" lon="-8.4803840">
        <ele>101.8</ele>
        <time>2019-08-15T07:54:57Z</time>
      </trkpt>
      <trkpt lat="40.8182100" lon="-8.4803250">
        <ele>101.3</ele>
        <time>2019-08-15T07:54:58Z</time>
      </trkpt>
      <trkpt lat="40.8182460" lon="-8.4802700">
        <ele>101.0</ele>
        <time>2019-08-15T07:54:59Z</time>
      </trkpt>
      <trkpt lat="40.8183180" lon="-8.4801680">
        <ele>100.5</ele>
        <time>2019-08-15T07:55:01Z</time>
      </trkpt>
      <trkpt lat="40.8183540" lon="-8.4801180">
        <ele>100.3</ele>
        <time>2019-08-15T07:55:02Z</time>
      </trkpt>
      <trkpt lat="40.8183920" lon="-8.4800670">
        <ele>100.1</ele>
        <time>2019-08-15T07:55:03Z</time>
      </trkpt>
      <trkpt lat="40.8184270" lon="-8.4800180">
        <ele>100.0</ele>
        <time>2019-08-15T07:55:04Z</time>
      </trkpt>
      <trkpt lat="40.8184640" lon="-8.4799680">
        <ele>99.9</ele>
        <time>2019-08-15T07:55:05Z</time>
      </trkpt>
      <trkpt lat="40.8185010" lon="-8.4799170">
        <ele>99.8</ele>
        <time>2019-08-15T07:55:06Z</time>
      </trkpt>
      <trkpt lat="40.8188420" lon="-8.4794560">
        <ele>99.7</ele>
        <time>2019-08-15T07:55:15Z</time>
      </trkpt>
      <trkpt lat="40.8191620" lon="-8.4790520">
        <ele>99.9</ele>
        <time>2019-08-15T07:55:23Z</time>
      </trkpt>
      <trkpt lat="40.8195400" lon="-8.4784790">
        <ele>99.4</ele>
        <time>2019-08-15T07:55:34Z</time>
      </trkpt>
      <trkpt lat="40.8196250" lon="-8.4784200">
        <ele>99.5</ele>
        <time>2019-08-15T07:55:38Z</time>
      </trkpt>
      <trkpt lat="40.8196320" lon="-8.4784190">
        <ele>99.5</ele>
        <time>2019-08-15T07:55:40Z</time>
      </trkpt>
      <trkpt lat="40.8196490" lon="-8.4784220">
        <ele>99.5</ele>
        <time>2019-08-15T07:59:14Z</time>
      </trkpt>
      <trkpt lat="40.8196590" lon="-8.4784050">
        <ele>99.5</ele>
        <time>2019-08-15T07:59:15Z</time>
      </trkpt>
      <trkpt lat="40.8198000" lon="-8.4783260">
        <ele>100.6</ele>
        <time>2019-08-15T07:59:19Z</time>
      </trkpt>
      <trkpt lat="40.8200080" lon="-8.4782440">
        <ele>101.0</ele>
        <time>2019-08-15T07:59:25Z</time>
      </trkpt>
      <trkpt lat="40.8202920" lon="-8.4781320">
        <ele>101.5</ele>
        <time>2019-08-15T07:59:33Z</time>
      </trkpt>
      <trkpt lat="40.8206140" lon="-8.4780100">
        <ele>100.7</ele>
        <time>2019-08-15T07:59:42Z</time>
      </trkpt>
      <trkpt lat="40.8210240" lon="-8.4778940">
        <ele>101.5</ele>
        <time>2019-08-15T07:59:53Z</time>
      </trkpt>
      <trkpt lat="40.8213670" lon="-8.4778740">
        <ele>102.5</ele>
        <time>2019-08-15T08:00:02Z</time>
      </trkpt>
      <trkpt lat="40.8214760" lon="-8.4778830">
        <ele>102.9</ele>
        <time>2019-08-15T08:00:05Z</time>
      </trkpt>
      <trkpt lat="40.8216130" lon="-8.4778820">
        <ele>104.0</ele>
        <time>2019-08-15T08:00:09Z</time>
      </trkpt>
      <trkpt lat="40.8217110" lon="-8.4779060">
        <ele>105.3</ele>
        <time>2019-08-15T08:00:13Z</time>
      </trkpt>
      <trkpt lat="40.8217350" lon="-8.4779110">
        <ele>105.7</ele>
        <time>2019-08-15T08:00:14Z</time>
      </trkpt>
      <trkpt lat="40.8217600" lon="-8.4779190">
        <ele>106.2</ele>
        <time>2019-08-15T08:00:15Z</time>
      </trkpt>
      <trkpt lat="40.8217850" lon="-8.4779280">
        <ele>106.6</ele>
        <time>2019-08-15T08:00:16Z</time>
      </trkpt>
      <trkpt lat="40.8218080" lon="-8.4779370">
        <ele>107.0</ele>
        <time>2019-08-15T08:00:17Z</time>
      </trkpt>
      <trkpt lat="40.8218490" lon="-8.4779490">
        <ele>107.7</ele>
        <time>2019-08-15T08:00:19Z</time>
      </trkpt>
      <trkpt lat="40.8218710" lon="-8.4779460">
        <ele>108.3</ele>
        <time>2019-08-15T08:00:20Z</time>
      </trkpt>
      <trkpt lat="40.8218940" lon="-8.4779430">
        <ele>108.4</ele>
        <time>2019-08-15T08:00:21Z</time>
      </trkpt>
      <trkpt lat="40.8219160" lon="-8.4779350">
        <ele>108.4</ele>
        <time>2019-08-15T08:00:22Z</time>
      </trkpt>
      <trkpt lat="40.8219410" lon="-8.4779220">
        <ele>108.5</ele>
        <time>2019-08-15T08:00:23Z</time>
      </trkpt>
      <trkpt lat="40.8220270" lon="-8.4778720">
        <ele>108.7</ele>
        <time>2019-08-15T08:00:27Z</time>
      </trkpt>
      <trkpt lat="40.8220700" lon="-8.4778880">
        <ele>108.8</ele>
        <time>2019-08-15T08:00:29Z</time>
      </trkpt>
      <trkpt lat="40.8220960" lon="-8.4779020">
        <ele>109.0</ele>
        <time>2019-08-15T08:00:30Z</time>
      </trkpt>
      <trkpt lat="40.8221190" lon="-8.4779140">
        <ele>109.1</ele>
        <time>2019-08-15T08:00:31Z</time>
      </trkpt>
      <trkpt lat="40.8221430" lon="-8.4779220">
        <ele>109.2</ele>
        <time>2019-08-15T08:00:32Z</time>
      </trkpt>
      <trkpt lat="40.8221730" lon="-8.4779330">
        <ele>109.3</ele>
        <time>2019-08-15T08:00:33Z</time>
      </trkpt>
      <trkpt lat="40.8223110" lon="-8.4779990">
        <ele>110.0</ele>
        <time>2019-08-15T08:00:38Z</time>
      </trkpt>
      <trkpt lat="40.8224100" lon="-8.4780940">
        <ele>110.8</ele>
        <time>2019-08-15T08:00:43Z</time>
      </trkpt>
      <trkpt lat="40.8224320" lon="-8.4781160">
        <ele>111.1</ele>
        <time>2019-08-15T08:00:44Z</time>
      </trkpt>
      <trkpt lat="40.8224490" lon="-8.4781360">
        <ele>111.3</ele>
        <time>2019-08-15T08:00:45Z</time>
      </trkpt>
      <trkpt lat="40.8224690" lon="-8.4781550">
        <ele>111.5</ele>
        <time>2019-08-15T08:00:46Z</time>
      </trkpt>
      <trkpt lat="40.8224880" lon="-8.4781740">
        <ele>111.7</ele>
        <time>2019-08-15T08:00:47Z</time>
      </trkpt>
      <trkpt lat="40.8226310" lon="-8.4782990">
        <ele>113.0</ele>
        <time>2019-08-15T08:00:53Z</time>
      </trkpt>
      <trkpt lat="40.8226560" lon="-8.4783120">
        <ele>113.2</ele>
        <time>2019-08-15T08:00:54Z</time>
      </trkpt>
      <trkpt lat="40.8226770" lon="-8.4783270">
        <ele>113.3</ele>
        <time>2019-08-15T08:00:55Z</time>
      </trkpt>
      <trkpt lat="40.8226970" lon="-8.4783420">
        <ele>113.5</ele>
        <time>2019-08-15T08:00:56Z</time>
      </trkpt>
      <trkpt lat="40.8227130" lon="-8.4783610">
        <ele>113.6</ele>
        <time>2019-08-15T08:00:57Z</time>
      </trkpt>
      <trkpt lat="40.8227790" lon="-8.4785220">
        <ele>114.4</ele>
        <time>2019-08-15T08:01:04Z</time>
      </trkpt>
      <trkpt lat="40.8228990" lon="-8.4785930">
        <ele>114.2</ele>
        <time>2019-08-15T08:01:09Z</time>
      </trkpt>
      <trkpt lat="40.8230080" lon="-8.4785880">
        <ele>114.2</ele>
        <time>2019-08-15T08:01:11Z</time>
      </trkpt>
      <trkpt lat="40.8230740" lon="-8.4785960">
        <ele>114.2</ele>
        <time>2019-08-15T08:01:12Z</time>
      </trkpt>
      <trkpt lat="40.8231550" lon="-8.4785960">
        <ele>114.3</ele>
        <time>2019-08-15T08:01:13Z</time>
      </trkpt>
      <trkpt lat="40.8232290" lon="-8.4785870">
        <ele>114.3</ele>
        <time>2019-08-15T08:01:14Z</time>
      </trkpt>
      <trkpt lat="40.8233010" lon="-8.4785570">
        <ele>114.4</ele>
        <time>2019-08-15T08:01:15Z</time>
      </trkpt>
      <trkpt lat="40.8233720" lon="-8.4785140">
        <ele>114.5</ele>
        <time>2019-08-15T08:01:16Z</time>
      </trkpt>
      <trkpt lat="40.8234350" lon="-8.4784560">
        <ele>114.5</ele>
        <time>2019-08-15T08:01:17Z</time>
      </trkpt>
      <trkpt lat="40.8236620" lon="-8.4781780">
        <ele>114.7</ele>
        <time>2019-08-15T08:01:21Z</time>
      </trkpt>
      <trkpt lat="40.8238650" lon="-8.4780150">
        <ele>115.1</ele>
        <time>2019-08-15T08:01:25Z</time>
      </trkpt>
      <trkpt lat="40.8239150" lon="-8.4780230">
        <ele>115.7</ele>
        <time>2019-08-15T08:01:26Z</time>
      </trkpt>
      <trkpt lat="40.8240040" lon="-8.4780860">
        <ele>116.9</ele>
        <time>2019-08-15T08:01:29Z</time>
      </trkpt>
      <trkpt lat="40.8240270" lon="-8.4780820">
        <ele>117.2</ele>
        <time>2019-08-15T08:01:30Z</time>
      </trkpt>
      <trkpt lat="40.8240450" lon="-8.4780880">
        <ele>117.4</ele>
        <time>2019-08-15T08:01:31Z</time>
      </trkpt>
      <trkpt lat="40.8240630" lon="-8.4780930">
        <ele>117.6</ele>
        <time>2019-08-15T08:01:32Z</time>
      </trkpt>
      <trkpt lat="40.8240830" lon="-8.4780950">
        <ele>117.8</ele>
        <time>2019-08-15T08:01:33Z</time>
      </trkpt>
      <trkpt lat="40.8241000" lon="-8.4780970">
        <ele>117.9</ele>
        <time>2019-08-15T08:01:34Z</time>
      </trkpt>
      <trkpt lat="40.8241520" lon="-8.4781060">
        <ele>118.4</ele>
        <time>2019-08-15T08:01:37Z</time>
      </trkpt>
      <trkpt lat="40.8241700" lon="-8.4781060">
        <ele>118.6</ele>
        <time>2019-08-15T08:01:38Z</time>
      </trkpt>
      <trkpt lat="40.8241900" lon="-8.4781070">
        <ele>118.8</ele>
        <time>2019-08-15T08:01:39Z</time>
      </trkpt>
      <trkpt lat="40.8242110" lon="-8.4781100">
        <ele>119.0</ele>
        <time>2019-08-15T08:01:40Z</time>
      </trkpt>
      <trkpt lat="40.8242340" lon="-8.4781100">
        <ele>119.2</ele>
        <time>2019-08-15T08:01:41Z</time>
      </trkpt>
      <trkpt lat="40.8242600" lon="-8.4781130">
        <ele>119.5</ele>
        <time>2019-08-15T08:01:42Z</time>
      </trkpt>
      <trkpt lat="40.8243440" lon="-8.4781450">
        <ele>120.3</ele>
        <time>2019-08-15T08:01:46Z</time>
      </trkpt>
      <trkpt lat="40.8243680" lon="-8.4781520">
        <ele>120.5</ele>
        <time>2019-08-15T08:01:47Z</time>
      </trkpt>
      <trkpt lat="40.8243890" lon="-8.4781560">
        <ele>120.7</ele>
        <time>2019-08-15T08:01:48Z</time>
      </trkpt>
      <trkpt lat="40.8244110" lon="-8.4781620">
        <ele>121.0</ele>
        <time>2019-08-15T08:01:49Z</time>
      </trkpt>
      <trkpt lat="40.8244350" lon="-8.4781620">
        <ele>121.2</ele>
        <time>2019-08-15T08:01:50Z</time>
      </trkpt>
      <trkpt lat="40.8245210" lon="-8.4781890">
        <ele>122.2</ele>
        <time>2019-08-15T08:01:53Z</time>
      </trkpt>
      <trkpt lat="40.8245440" lon="-8.4781950">
        <ele>122.5</ele>
        <time>2019-08-15T08:01:54Z</time>
      </trkpt>
      <trkpt lat="40.8245670" lon="-8.4782070">
        <ele>122.7</ele>
        <time>2019-08-15T08:01:55Z</time>
      </trkpt>
      <trkpt lat="40.8245890" lon="-8.4782140">
        <ele>123.0</ele>
        <time>2019-08-15T08:01:56Z</time>
      </trkpt>
      <trkpt lat="40.8246050" lon="-8.4782210">
        <ele>123.1</ele>
        <time>2019-08-15T08:01:57Z</time>
      </trkpt>
      <trkpt lat="40.8247140" lon="-8.4782500">
        <ele>124.3</ele>
        <time>2019-08-15T08:02:02Z</time>
      </trkpt>
      <trkpt lat="40.8247390" lon="-8.4782560">
        <ele>124.5</ele>
        <time>2019-08-15T08:02:03Z</time>
      </trkpt>
      <trkpt lat="40.8247640" lon="-8.4782630">
        <ele>124.8</ele>
        <time>2019-08-15T08:02:04Z</time>
      </trkpt>
      <trkpt lat="40.8247860" lon="-8.4782660">
        <ele>125.0</ele>
        <time>2019-08-15T08:02:05Z</time>
      </trkpt>
      <trkpt lat="40.8248090" lon="-8.4782690">
        <ele>125.2</ele>
        <time>2019-08-15T08:02:06Z</time>
      </trkpt>
      <trkpt lat="40.8248830" lon="-8.4783100">
        <ele>126.0</ele>
        <time>2019-08-15T08:02:10Z</time>
      </trkpt>
      <trkpt lat="40.8249020" lon="-8.4783190">
        <ele>126.2</ele>
        <time>2019-08-15T08:02:11Z</time>
      </trkpt>
      <trkpt lat="40.8249240" lon="-8.4783260">
        <ele>126.4</ele>
        <time>2019-08-15T08:02:12Z</time>
      </trkpt>
      <trkpt lat="40.8249440" lon="-8.4783320">
        <ele>126.6</ele>
        <time>2019-08-15T08:02:13Z</time>
      </trkpt>
      <trkpt lat="40.8249660" lon="-8.4783430">
        <ele>126.8</ele>
        <time>2019-08-15T08:02:14Z</time>
      </trkpt>
      <trkpt lat="40.8251040" lon="-8.4784040">
        <ele>128.0</ele>
        <time>2019-08-15T08:02:21Z</time>
      </trkpt>
      <trkpt lat="40.8252180" lon="-8.4784210">
        <ele>128.8</ele>
        <time>2019-08-15T08:02:26Z</time>
      </trkpt>
      <trkpt lat="40.8252410" lon="-8.4784270">
        <ele>128.9</ele>
        <time>2019-08-15T08:02:27Z</time>
      </trkpt>
      <trkpt lat="40.8252610" lon="-8.4784320">
        <ele>129.0</ele>
        <time>2019-08-15T08:02:28Z</time>
      </trkpt>
      <trkpt lat="40.8252760" lon="-8.4784310">
        <ele>129.0</ele>
        <time>2019-08-15T08:02:29Z</time>
      </trkpt>
      <trkpt lat="40.8252930" lon="-8.4784360">
        <ele>129.1</ele>
        <time>2019-08-15T08:02:30Z</time>
      </trkpt>
      <trkpt lat="40.8253980" lon="-8.4784780">
        <ele>129.7</ele>
        <time>2019-08-15T08:02:36Z</time>
      </trkpt>
      <trkpt lat="40.8254400" lon="-8.4784880">
        <ele>129.9</ele>
        <time>2019-08-15T08:02:38Z</time>
      </trkpt>
      <trkpt lat="40.8254550" lon="-8.4784950">
        <ele>130.0</ele>
        <time>2019-08-15T08:02:39Z</time>
      </trkpt>
      <trkpt lat="40.8254740" lon="-8.4785030">
        <ele>130.1</ele>
        <time>2019-08-15T08:02:40Z</time>
      </trkpt>
      <trkpt lat="40.8254930" lon="-8.4785120">
        <ele>130.1</ele>
        <time>2019-08-15T08:02:41Z</time>
      </trkpt>
      <trkpt lat="40.8255130" lon="-8.4785120">
        <ele>130.2</ele>
        <time>2019-08-15T08:02:42Z</time>
      </trkpt>
      <trkpt lat="40.8255530" lon="-8.4785190">
        <ele>130.4</ele>
        <time>2019-08-15T08:02:44Z</time>
      </trkpt>
      <trkpt lat="40.8256440" lon="-8.4785480">
        <ele>130.8</ele>
        <time>2019-08-15T08:02:48Z</time>
      </trkpt>
      <trkpt lat="40.8256630" lon="-8.4785570">
        <ele>130.9</ele>
        <time>2019-08-15T08:02:49Z</time>
      </trkpt>
      <trkpt lat="40.8256810" lon="-8.4785620">
        <ele>131.0</ele>
        <time>2019-08-15T08:02:50Z</time>
      </trkpt>
      <trkpt lat="40.8257050" lon="-8.4785670">
        <ele>131.1</ele>
        <time>2019-08-15T08:02:51Z</time>
      </trkpt>
      <trkpt lat="40.8257290" lon="-8.4785710">
        <ele>131.2</ele>
        <time>2019-08-15T08:02:52Z</time>
      </trkpt>
      <trkpt lat="40.8258900" lon="-8.4786220">
        <ele>131.8</ele>
        <time>2019-08-15T08:03:00Z</time>
      </trkpt>
      <trkpt lat="40.8259060" lon="-8.4786320">
        <ele>131.9</ele>
        <time>2019-08-15T08:03:01Z</time>
      </trkpt>
      <trkpt lat="40.8259260" lon="-8.4786340">
        <ele>132.0</ele>
        <time>2019-08-15T08:03:02Z</time>
      </trkpt>
      <trkpt lat="40.8259420" lon="-8.4786360">
        <ele>132.1</ele>
        <time>2019-08-15T08:03:03Z</time>
      </trkpt>
      <trkpt lat="40.8259620" lon="-8.4786420">
        <ele>132.1</ele>
        <time>2019-08-15T08:03:04Z</time>
      </trkpt>
      <trkpt lat="40.8260090" lon="-8.4786590">
        <ele>132.3</ele>
        <time>2019-08-15T08:03:07Z</time>
      </trkpt>
      <trkpt lat="40.8261720" lon="-8.4786990">
        <ele>133.1</ele>
        <time>2019-08-15T08:03:16Z</time>
      </trkpt>
      <trkpt lat="40.8262470" lon="-8.4786980">
        <ele>133.5</ele>
        <time>2019-08-15T08:03:19Z</time>
      </trkpt>
      <trkpt lat="40.8262710" lon="-8.4787070">
        <ele>133.6</ele>
        <time>2019-08-15T08:03:20Z</time>
      </trkpt>
      <trkpt lat="40.8262910" lon="-8.4787170">
        <ele>133.7</ele>
        <time>2019-08-15T08:03:21Z</time>
      </trkpt>
      <trkpt lat="40.8263150" lon="-8.4787200">
        <ele>133.8</ele>
        <time>2019-08-15T08:03:22Z</time>
      </trkpt>
      <trkpt lat="40.8263360" lon="-8.4787210">
        <ele>133.9</ele>
        <time>2019-08-15T08:03:23Z</time>
      </trkpt>
      <trkpt lat="40.8263550" lon="-8.4787220">
        <ele>134.0</ele>
        <time>2019-08-15T08:03:24Z</time>
      </trkpt>
      <trkpt lat="40.8266490" lon="-8.4787670">
        <ele>135.4</ele>
        <time>2019-08-15T08:03:36Z</time>
      </trkpt>
      <trkpt lat="40.8268150" lon="-8.4788460">
        <ele>136.5</ele>
        <time>2019-08-15T08:03:45Z</time>
      </trkpt>
      <trkpt lat="40.8268950" lon="-8.4788810">
        <ele>137.0</ele>
        <time>2019-08-15T08:03:49Z</time>
      </trkpt>
      <trkpt lat="40.8269180" lon="-8.4788890">
        <ele>137.2</ele>
        <time>2019-08-15T08:03:50Z</time>
      </trkpt>
      <trkpt lat="40.8269380" lon="-8.4788950">
        <ele>137.3</ele>
        <time>2019-08-15T08:03:51Z</time>
      </trkpt>
      <trkpt lat="40.8269610" lon="-8.4789000">
        <ele>137.5</ele>
        <time>2019-08-15T08:03:52Z</time>
      </trkpt>
      <trkpt lat="40.8269800" lon="-8.4789090">
        <ele>137.6</ele>
        <time>2019-08-15T08:03:53Z</time>
      </trkpt>
      <trkpt lat="40.8270370" lon="-8.4789330">
        <ele>138.0</ele>
        <time>2019-08-15T08:03:56Z</time>
      </trkpt>
      <trkpt lat="40.8271770" lon="-8.4790620">
        <ele>139.7</ele>
        <time>2019-08-15T08:04:05Z</time>
      </trkpt>
      <trkpt lat="40.8272950" lon="-8.4791870">
        <ele>140.8</ele>
        <time>2019-08-15T08:04:13Z</time>
      </trkpt>
      <trkpt lat="40.8273350" lon="-8.4792320">
        <ele>141.2</ele>
        <time>2019-08-15T08:04:16Z</time>
      </trkpt>
      <trkpt lat="40.8273500" lon="-8.4792470">
        <ele>141.4</ele>
        <time>2019-08-15T08:04:17Z</time>
      </trkpt>
      <trkpt lat="40.8273590" lon="-8.4792650">
        <ele>141.5</ele>
        <time>2019-08-15T08:04:18Z</time>
      </trkpt>
      <trkpt lat="40.8273720" lon="-8.4792800">
        <ele>141.6</ele>
        <time>2019-08-15T08:04:19Z</time>
      </trkpt>
      <trkpt lat="40.8273890" lon="-8.4792940">
        <ele>141.8</ele>
        <time>2019-08-15T08:04:20Z</time>
      </trkpt>
      <trkpt lat="40.8274180" lon="-8.4793280">
        <ele>142.1</ele>
        <time>2019-08-15T08:04:22Z</time>
      </trkpt>
      <trkpt lat="40.8275800" lon="-8.4795340">
        <ele>143.5</ele>
        <time>2019-08-15T08:04:33Z</time>
      </trkpt>
      <trkpt lat="40.8275850" lon="-8.4795570">
        <ele>143.6</ele>
        <time>2019-08-15T08:04:34Z</time>
      </trkpt>
      <trkpt lat="40.8275920" lon="-8.4795740">
        <ele>143.7</ele>
        <time>2019-08-15T08:04:35Z</time>
      </trkpt>
      <trkpt lat="40.8276060" lon="-8.4795880">
        <ele>143.8</ele>
        <time>2019-08-15T08:04:36Z</time>
      </trkpt>
      <trkpt lat="40.8276230" lon="-8.4796030">
        <ele>143.9</ele>
        <time>2019-08-15T08:04:37Z</time>
      </trkpt>
      <trkpt lat="40.8277050" lon="-8.4796680">
        <ele>144.5</ele>
        <time>2019-08-15T08:04:42Z</time>
      </trkpt>
      <trkpt lat="40.8277330" lon="-8.4796880">
        <ele>144.7</ele>
        <time>2019-08-15T08:04:44Z</time>
      </trkpt>
      <trkpt lat="40.8277460" lon="-8.4797000">
        <ele>144.8</ele>
        <time>2019-08-15T08:04:45Z</time>
      </trkpt>
      <trkpt lat="40.8277600" lon="-8.4797150">
        <ele>144.9</ele>
        <time>2019-08-15T08:04:46Z</time>
      </trkpt>
      <trkpt lat="40.8277780" lon="-8.4797270">
        <ele>145.0</ele>
        <time>2019-08-15T08:04:47Z</time>
      </trkpt>
      <trkpt lat="40.8277980" lon="-8.4797370">
        <ele>145.1</ele>
        <time>2019-08-15T08:04:48Z</time>
      </trkpt>
      <trkpt lat="40.8278120" lon="-8.4797470">
        <ele>145.3</ele>
        <time>2019-08-15T08:04:49Z</time>
      </trkpt>
      <trkpt lat="40.8279340" lon="-8.4798060">
        <ele>146.4</ele>
        <time>2019-08-15T08:04:57Z</time>
      </trkpt>
      <trkpt lat="40.8280000" lon="-8.4798100">
        <ele>146.8</ele>
        <time>2019-08-15T08:05:00Z</time>
      </trkpt>
      <trkpt lat="40.8280520" lon="-8.4798200">
        <ele>147.1</ele>
        <time>2019-08-15T08:05:03Z</time>
      </trkpt>
      <trkpt lat="40.8280670" lon="-8.4798300">
        <ele>147.2</ele>
        <time>2019-08-15T08:05:04Z</time>
      </trkpt>
      <trkpt lat="40.8280860" lon="-8.4798360">
        <ele>147.3</ele>
        <time>2019-08-15T08:05:05Z</time>
      </trkpt>
      <trkpt lat="40.8281080" lon="-8.4798390">
        <ele>147.5</ele>
        <time>2019-08-15T08:05:06Z</time>
      </trkpt>
      <trkpt lat="40.8281340" lon="-8.4798430">
        <ele>147.7</ele>
        <time>2019-08-15T08:05:07Z</time>
      </trkpt>
      <trkpt lat="40.8281560" lon="-8.4798480">
        <ele>147.8</ele>
        <time>2019-08-15T08:05:08Z</time>
      </trkpt>
      <trkpt lat="40.8282720" lon="-8.4798570">
        <ele>148.7</ele>
        <time>2019-08-15T08:05:13Z</time>
      </trkpt>
      <trkpt lat="40.8283370" lon="-8.4798600">
        <ele>149.5</ele>
        <time>2019-08-15T08:05:16Z</time>
      </trkpt>
      <trkpt lat="40.8283610" lon="-8.4798640">
        <ele>149.8</ele>
        <time>2019-08-15T08:05:17Z</time>
      </trkpt>
      <trkpt lat="40.8283830" lon="-8.4798590">
        <ele>150.1</ele>
        <time>2019-08-15T08:05:18Z</time>
      </trkpt>
      <trkpt lat="40.8284060" lon="-8.4798530">
        <ele>150.4</ele>
        <time>2019-08-15T08:05:19Z</time>
      </trkpt>
      <trkpt lat="40.8284290" lon="-8.4798500">
        <ele>150.7</ele>
        <time>2019-08-15T08:05:20Z</time>
      </trkpt>
      <trkpt lat="40.8284530" lon="-8.4798490">
        <ele>151.0</ele>
        <time>2019-08-15T08:05:21Z</time>
      </trkpt>
      <trkpt lat="40.8286450" lon="-8.4798140">
        <ele>153.3</ele>
        <time>2019-08-15T08:05:29Z</time>
      </trkpt>
      <trkpt lat="40.8288330" lon="-8.4798090">
        <ele>155.4</ele>
        <time>2019-08-15T08:05:37Z</time>
      </trkpt>
      <trkpt lat="40.8288550" lon="-8.4798100">
        <ele>155.6</ele>
        <time>2019-08-15T08:05:38Z</time>
      </trkpt>
      <trkpt lat="40.8288760" lon="-8.4798090">
        <ele>155.8</ele>
        <time>2019-08-15T08:05:39Z</time>
      </trkpt>
      <trkpt lat="40.8288980" lon="-8.4798110">
        <ele>156.1</ele>
        <time>2019-08-15T08:05:40Z</time>
      </trkpt>
      <trkpt lat="40.8289200" lon="-8.4798070">
        <ele>156.3</ele>
        <time>2019-08-15T08:05:41Z</time>
      </trkpt>
      <trkpt lat="40.8289390" lon="-8.4798040">
        <ele>156.5</ele>
        <time>2019-08-15T08:05:42Z</time>
      </trkpt>
      <trkpt lat="40.8290850" lon="-8.4798150">
        <ele>158.0</ele>
        <time>2019-08-15T08:05:50Z</time>
      </trkpt>
      <trkpt lat="40.8291220" lon="-8.4798080">
        <ele>158.4</ele>
        <time>2019-08-15T08:05:52Z</time>
      </trkpt>
      <trkpt lat="40.8291400" lon="-8.4798030">
        <ele>158.7</ele>
        <time>2019-08-15T08:05:53Z</time>
      </trkpt>
      <trkpt lat="40.8291570" lon="-8.4798080">
        <ele>158.8</ele>
        <time>2019-08-15T08:05:54Z</time>
      </trkpt>
      <trkpt lat="40.8291750" lon="-8.4798080">
        <ele>158.8</ele>
        <time>2019-08-15T08:05:55Z</time>
      </trkpt>
      <trkpt lat="40.8291930" lon="-8.4798040">
        <ele>158.9</ele>
        <time>2019-08-15T08:05:56Z</time>
      </trkpt>
      <trkpt lat="40.8292230" lon="-8.4798090">
        <ele>159.0</ele>
        <time>2019-08-15T08:05:58Z</time>
      </trkpt>
      <trkpt lat="40.8292590" lon="-8.4798140">
        <ele>159.4</ele>
        <time>2019-08-15T08:06:00Z</time>
      </trkpt>
      <trkpt lat="40.8292740" lon="-8.4798110">
        <ele>159.5</ele>
        <time>2019-08-15T08:06:01Z</time>
      </trkpt>
      <trkpt lat="40.8292890" lon="-8.4798160">
        <ele>159.6</ele>
        <time>2019-08-15T08:06:02Z</time>
      </trkpt>
      <trkpt lat="40.8293000" lon="-8.4798260">
        <ele>159.7</ele>
        <time>2019-08-15T08:06:03Z</time>
      </trkpt>
      <trkpt lat="40.8293140" lon="-8.4798380">
        <ele>159.8</ele>
        <time>2019-08-15T08:06:04Z</time>
      </trkpt>
      <trkpt lat="40.8293450" lon="-8.4798460">
        <ele>160.0</ele>
        <time>2019-08-15T08:06:06Z</time>
      </trkpt>
      <trkpt lat="40.8294210" lon="-8.4798230">
        <ele>160.6</ele>
        <time>2019-08-15T08:06:10Z</time>
      </trkpt>
      <trkpt lat="40.8294890" lon="-8.4797570">
        <ele>161.2</ele>
        <time>2019-08-15T08:06:14Z</time>
      </trkpt>
      <trkpt lat="40.8295060" lon="-8.4797340">
        <ele>161.3</ele>
        <time>2019-08-15T08:06:15Z</time>
      </trkpt>
      <trkpt lat="40.8295210" lon="-8.4797090">
        <ele>161.4</ele>
        <time>2019-08-15T08:06:16Z</time>
      </trkpt>
      <trkpt lat="40.8295350" lon="-8.4797010">
        <ele>161.5</ele>
        <time>2019-08-15T08:06:17Z</time>
      </trkpt>
      <trkpt lat="40.8295560" lon="-8.4797060">
        <ele>161.6</ele>
        <time>2019-08-15T08:06:18Z</time>
      </trkpt>
      <trkpt lat="40.8295840" lon="-8.4797090">
        <ele>161.7</ele>
        <time>2019-08-15T08:06:20Z</time>
      </trkpt>
      <trkpt lat="40.8296120" lon="-8.4796840">
        <ele>161.9</ele>
        <time>2019-08-15T08:06:21Z</time>
      </trkpt>
      <trkpt lat="40.8296550" lon="-8.4796500">
        <ele>162.2</ele>
        <time>2019-08-15T08:06:23Z</time>
      </trkpt>
      <trkpt lat="40.8296770" lon="-8.4796310">
        <ele>162.3</ele>
        <time>2019-08-15T08:06:24Z</time>
      </trkpt>
      <trkpt lat="40.8296980" lon="-8.4796140">
        <ele>162.5</ele>
        <time>2019-08-15T08:06:25Z</time>
      </trkpt>
      <trkpt lat="40.8297200" lon="-8.4795950">
        <ele>162.7</ele>
        <time>2019-08-15T08:06:26Z</time>
      </trkpt>
      <trkpt lat="40.8297350" lon="-8.4795850">
        <ele>162.8</ele>
        <time>2019-08-15T08:06:27Z</time>
      </trkpt>
      <trkpt lat="40.8298330" lon="-8.4795860">
        <ele>163.5</ele>
        <time>2019-08-15T08:06:32Z</time>
      </trkpt>
      <trkpt lat="40.8298520" lon="-8.4795850">
        <ele>163.6</ele>
        <time>2019-08-15T08:06:33Z</time>
      </trkpt>
      <trkpt lat="40.8298700" lon="-8.4795830">
        <ele>163.7</ele>
        <time>2019-08-15T08:06:34Z</time>
      </trkpt>
      <trkpt lat="40.8298840" lon="-8.4795770">
        <ele>163.8</ele>
        <time>2019-08-15T08:06:35Z</time>
      </trkpt>
      <trkpt lat="40.8299050" lon="-8.4795710">
        <ele>163.9</ele>
        <time>2019-08-15T08:06:36Z</time>
      </trkpt>
      <trkpt lat="40.8299210" lon="-8.4795650">
        <ele>164.0</ele>
        <time>2019-08-15T08:06:37Z</time>
      </trkpt>
      <trkpt lat="40.8299810" lon="-8.4795400">
        <ele>164.3</ele>
        <time>2019-08-15T08:06:40Z</time>
      </trkpt>
      <trkpt lat="40.8300490" lon="-8.4795200">
        <ele>164.7</ele>
        <time>2019-08-15T08:06:44Z</time>
      </trkpt>
      <trkpt lat="40.8300720" lon="-8.4795120">
        <ele>164.9</ele>
        <time>2019-08-15T08:06:45Z</time>
      </trkpt>
      <trkpt lat="40.8300850" lon="-8.4795060">
        <ele>165.0</ele>
        <time>2019-08-15T08:06:46Z</time>
      </trkpt>
      <trkpt lat="40.8301010" lon="-8.4795000">
        <ele>165.1</ele>
        <time>2019-08-15T08:06:47Z</time>
      </trkpt>
      <trkpt lat="40.8301160" lon="-8.4794970">
        <ele>165.2</ele>
        <time>2019-08-15T08:06:48Z</time>
      </trkpt>
      <trkpt lat="40.8302520" lon="-8.4794370">
        <ele>166.1</ele>
        <time>2019-08-15T08:06:55Z</time>
      </trkpt>
      <trkpt lat="40.8302730" lon="-8.4794340">
        <ele>166.3</ele>
        <time>2019-08-15T08:06:56Z</time>
      </trkpt>
      <trkpt lat="40.8302960" lon="-8.4794260">
        <ele>166.4</ele>
        <time>2019-08-15T08:06:57Z</time>
      </trkpt>
      <trkpt lat="40.8303180" lon="-8.4794190">
        <ele>166.6</ele>
        <time>2019-08-15T08:06:58Z</time>
      </trkpt>
      <trkpt lat="40.8303390" lon="-8.4794130">
        <ele>166.9</ele>
        <time>2019-08-15T08:06:59Z</time>
      </trkpt>
      <trkpt lat="40.8303950" lon="-8.4793920">
        <ele>167.4</ele>
        <time>2019-08-15T08:07:02Z</time>
      </trkpt>
      <trkpt lat="40.8304490" lon="-8.4793720">
        <ele>167.9</ele>
        <time>2019-08-15T08:07:04Z</time>
      </trkpt>
      <trkpt lat="40.8304740" lon="-8.4793700">
        <ele>168.1</ele>
        <time>2019-08-15T08:07:05Z</time>
      </trkpt>
      <trkpt lat="40.8304910" lon="-8.4793630">
        <ele>168.3</ele>
        <time>2019-08-15T08:07:06Z</time>
      </trkpt>
      <trkpt lat="40.8305100" lon="-8.4793550">
        <ele>168.5</ele>
        <time>2019-08-15T08:07:07Z</time>
      </trkpt>
      <trkpt lat="40.8305300" lon="-8.4793460">
        <ele>168.7</ele>
        <time>2019-08-15T08:07:08Z</time>
      </trkpt>
      <trkpt lat="40.8305500" lon="-8.4793370">
        <ele>168.9</ele>
        <time>2019-08-15T08:07:09Z</time>
      </trkpt>
      <trkpt lat="40.8306470" lon="-8.4793050">
        <ele>170.1</ele>
        <time>2019-08-15T08:07:15Z</time>
      </trkpt>
      <trkpt lat="40.8306650" lon="-8.4793020">
        <ele>170.3</ele>
        <time>2019-08-15T08:07:16Z</time>
      </trkpt>
      <trkpt lat="40.8306780" lon="-8.4792970">
        <ele>170.4</ele>
        <time>2019-08-15T08:07:17Z</time>
      </trkpt>
      <trkpt lat="40.8306920" lon="-8.4792910">
        <ele>170.6</ele>
        <time>2019-08-15T08:07:18Z</time>
      </trkpt>
      <trkpt lat="40.8307040" lon="-8.4792870">
        <ele>170.7</ele>
        <time>2019-08-15T08:07:19Z</time>
      </trkpt>
      <trkpt lat="40.8308060" lon="-8.4792460">
        <ele>171.8</ele>
        <time>2019-08-15T08:07:25Z</time>
      </trkpt>
      <trkpt lat="40.8308210" lon="-8.4792520">
        <ele>171.9</ele>
        <time>2019-08-15T08:07:26Z</time>
      </trkpt>
      <trkpt lat="40.8308380" lon="-8.4792420">
        <ele>172.1</ele>
        <time>2019-08-15T08:07:27Z</time>
      </trkpt>
      <trkpt lat="40.8308510" lon="-8.4792350">
        <ele>172.2</ele>
        <time>2019-08-15T08:07:28Z</time>
      </trkpt>
      <trkpt lat="40.8308650" lon="-8.4792260">
        <ele>172.4</ele>
        <time>2019-08-15T08:07:29Z</time>
      </trkpt>
      <trkpt lat="40.8309810" lon="-8.4791810">
        <ele>173.5</ele>
        <time>2019-08-15T08:07:36Z</time>
      </trkpt>
      <trkpt lat="40.8309930" lon="-8.4791720">
        <ele>173.6</ele>
        <time>2019-08-15T08:07:37Z</time>
      </trkpt>
      <trkpt lat="40.8310100" lon="-8.4791580">
        <ele>173.8</ele>
        <time>2019-08-15T08:07:38Z</time>
      </trkpt>
      <trkpt lat="40.8310290" lon="-8.4791570">
        <ele>174.0</ele>
        <time>2019-08-15T08:07:39Z</time>
      </trkpt>
      <trkpt lat="40.8310410" lon="-8.4791750">
        <ele>174.2</ele>
        <time>2019-08-15T08:07:40Z</time>
      </trkpt>
      <trkpt lat="40.8310710" lon="-8.4791600">
        <ele>174.5</ele>
        <time>2019-08-15T08:07:44Z</time>
      </trkpt>
      <trkpt lat="40.8310940" lon="-8.4791720">
        <ele>174.9</ele>
        <time>2019-08-15T08:07:47Z</time>
      </trkpt>
      <trkpt lat="40.8311820" lon="-8.4791790">
        <ele>176.3</ele>
        <time>2019-08-15T08:07:51Z</time>
      </trkpt>
      <trkpt lat="40.8312110" lon="-8.4791720">
        <ele>176.8</ele>
        <time>2019-08-15T08:07:52Z</time>
      </trkpt>
      <trkpt lat="40.8312370" lon="-8.4791740">
        <ele>177.2</ele>
        <time>2019-08-15T08:07:53Z</time>
      </trkpt>
      <trkpt lat="40.8312580" lon="-8.4791710">
        <ele>177.5</ele>
        <time>2019-08-15T08:07:54Z</time>
      </trkpt>
      <trkpt lat="40.8312820" lon="-8.4791680">
        <ele>177.9</ele>
        <time>2019-08-15T08:07:55Z</time>
      </trkpt>
      <trkpt lat="40.8313040" lon="-8.4791630">
        <ele>178.3</ele>
        <time>2019-08-15T08:07:56Z</time>
      </trkpt>
      <trkpt lat="40.8313660" lon="-8.4791750">
        <ele>179.3</ele>
        <time>2019-08-15T08:07:59Z</time>
      </trkpt>
      <trkpt lat="40.8313870" lon="-8.4791800">
        <ele>179.7</ele>
        <time>2019-08-15T08:08:00Z</time>
      </trkpt>
      <trkpt lat="40.8314130" lon="-8.4791640">
        <ele>180.1</ele>
        <time>2019-08-15T08:08:01Z</time>
      </trkpt>
      <trkpt lat="40.8314330" lon="-8.4791610">
        <ele>180.5</ele>
        <time>2019-08-15T08:08:02Z</time>
      </trkpt>
      <trkpt lat="40.8314500" lon="-8.4791590">
        <ele>180.8</ele>
        <time>2019-08-15T08:08:03Z</time>
      </trkpt>
      <trkpt lat="40.8315750" lon="-8.4791400">
        <ele>182.3</ele>
        <time>2019-08-15T08:08:10Z</time>
      </trkpt>
      <trkpt lat="40.8317240" lon="-8.4791120">
        <ele>184.0</ele>
        <time>2019-08-15T08:08:18Z</time>
      </trkpt>
      <trkpt lat="40.8317420" lon="-8.4791090">
        <ele>184.2</ele>
        <time>2019-08-15T08:08:19Z</time>
      </trkpt>
      <trkpt lat="40.8317620" lon="-8.4791060">
        <ele>184.4</ele>
        <time>2019-08-15T08:08:20Z</time>
      </trkpt>
      <trkpt lat="40.8317830" lon="-8.4791050">
        <ele>184.7</ele>
        <time>2019-08-15T08:08:21Z</time>
      </trkpt>
      <trkpt lat="40.8318040" lon="-8.4791060">
        <ele>184.9</ele>
        <time>2019-08-15T08:08:22Z</time>
      </trkpt>
      <trkpt lat="40.8319680" lon="-8.4790970">
        <ele>187.4</ele>
        <time>2019-08-15T08:08:30Z</time>
      </trkpt>
      <trkpt lat="40.8320470" lon="-8.4790760">
        <ele>188.5</ele>
        <time>2019-08-15T08:08:34Z</time>
      </trkpt>
      <trkpt lat="40.8320630" lon="-8.4790680">
        <ele>188.8</ele>
        <time>2019-08-15T08:08:35Z</time>
      </trkpt>
      <trkpt lat="40.8320820" lon="-8.4790640">
        <ele>189.0</ele>
        <time>2019-08-15T08:08:36Z</time>
      </trkpt>
      <trkpt lat="40.8320990" lon="-8.4790620">
        <ele>189.3</ele>
        <time>2019-08-15T08:08:37Z</time>
      </trkpt>
      <trkpt lat="40.8321140" lon="-8.4790590">
        <ele>189.5</ele>
        <time>2019-08-15T08:08:38Z</time>
      </trkpt>
      <trkpt lat="40.8321870" lon="-8.4790410">
        <ele>190.5</ele>
        <time>2019-08-15T08:08:43Z</time>
      </trkpt>
      <trkpt lat="40.8322150" lon="-8.4790130">
        <ele>191.0</ele>
        <time>2019-08-15T08:08:45Z</time>
      </trkpt>
      <trkpt lat="40.8322320" lon="-8.4790270">
        <ele>191.2</ele>
        <time>2019-08-15T08:08:46Z</time>
      </trkpt>
      <trkpt lat="40.8322440" lon="-8.4790360">
        <ele>191.4</ele>
        <time>2019-08-15T08:08:47Z</time>
      </trkpt>
      <trkpt lat="40.8322570" lon="-8.4790420">
        <ele>191.6</ele>
        <time>2019-08-15T08:08:48Z</time>
      </trkpt>
      <trkpt lat="40.8322730" lon="-8.4790320">
        <ele>191.9</ele>
        <time>2019-08-15T08:08:49Z</time>
      </trkpt>
      <trkpt lat="40.8323150" lon="-8.4789780">
        <ele>192.6</ele>
        <time>2019-08-15T08:08:53Z</time>
      </trkpt>
      <trkpt lat="40.8323290" lon="-8.4789890">
        <ele>192.9</ele>
        <time>2019-08-15T08:08:54Z</time>
      </trkpt>
      <trkpt lat="40.8323550" lon="-8.4789860">
        <ele>193.2</ele>
        <time>2019-08-15T08:08:56Z</time>
      </trkpt>
      <trkpt lat="40.8323670" lon="-8.4789790">
        <ele>193.4</ele>
        <time>2019-08-15T08:08:57Z</time>
      </trkpt>
      <trkpt lat="40.8323670" lon="-8.4789630">
        <ele>193.6</ele>
        <time>2019-08-15T08:08:58Z</time>
      </trkpt>
      <trkpt lat="40.8323740" lon="-8.4789480">
        <ele>193.7</ele>
        <time>2019-08-15T08:08:59Z</time>
      </trkpt>
      <trkpt lat="40.8323850" lon="-8.4789310">
        <ele>194.0</ele>
        <time>2019-08-15T08:09:00Z</time>
      </trkpt>
      <trkpt lat="40.8323920" lon="-8.4789220">
        <ele>194.1</ele>
        <time>2019-08-15T08:09:01Z</time>
      </trkpt>
      <trkpt lat="40.8324770" lon="-8.4789370">
        <ele>195.3</ele>
        <time>2019-08-15T08:09:07Z</time>
      </trkpt>
      <trkpt lat="40.8324910" lon="-8.4789240">
        <ele>195.5</ele>
        <time>2019-08-15T08:09:08Z</time>
      </trkpt>
      <trkpt lat="40.8324980" lon="-8.4789170">
        <ele>195.6</ele>
        <time>2019-08-15T08:09:09Z</time>
      </trkpt>
      <trkpt lat="40.8325070" lon="-8.4789070">
        <ele>195.8</ele>
        <time>2019-08-15T08:09:10Z</time>
      </trkpt>
      <trkpt lat="40.8325170" lon="-8.4788940">
        <ele>195.9</ele>
        <time>2019-08-15T08:09:11Z</time>
      </trkpt>
      <trkpt lat="40.8325320" lon="-8.4788810">
        <ele>196.1</ele>
        <time>2019-08-15T08:09:12Z</time>
      </trkpt>
      <trkpt lat="40.8325690" lon="-8.4788720">
        <ele>196.6</ele>
        <time>2019-08-15T08:09:15Z</time>
      </trkpt>
      <trkpt lat="40.8326000" lon="-8.4788670">
        <ele>197.0</ele>
        <time>2019-08-15T08:09:19Z</time>
      </trkpt>
      <trkpt lat="40.8326130" lon="-8.4788650">
        <ele>197.1</ele>
        <time>2019-08-15T08:09:20Z</time>
      </trkpt>
      <trkpt lat="40.8326270" lon="-8.4788650">
        <ele>197.3</ele>
        <time>2019-08-15T08:09:21Z</time>
      </trkpt>
      <trkpt lat="40.8326390" lon="-8.4788610">
        <ele>197.4</ele>
        <time>2019-08-15T08:09:22Z</time>
      </trkpt>
      <trkpt lat="40.8326540" lon="-8.4788560">
        <ele>197.6</ele>
        <time>2019-08-15T08:09:23Z</time>
      </trkpt>
      <trkpt lat="40.8327220" lon="-8.4788240">
        <ele>198.5</ele>
        <time>2019-08-15T08:09:28Z</time>
      </trkpt>
      <trkpt lat="40.8327350" lon="-8.4788150">
        <ele>198.7</ele>
        <time>2019-08-15T08:09:29Z</time>
      </trkpt>
      <trkpt lat="40.8327520" lon="-8.4788050">
        <ele>199.0</ele>
        <time>2019-08-15T08:09:30Z</time>
      </trkpt>
      <trkpt lat="40.8327650" lon="-8.4787970">
        <ele>199.2</ele>
        <time>2019-08-15T08:09:31Z</time>
      </trkpt>
      <trkpt lat="40.8327790" lon="-8.4787890">
        <ele>199.4</ele>
        <time>2019-08-15T08:09:32Z</time>
      </trkpt>
      <trkpt lat="40.8328030" lon="-8.4787700">
        <ele>199.7</ele>
        <time>2019-08-15T08:09:34Z</time>
      </trkpt>
      <trkpt lat="40.8328940" lon="-8.4787340">
        <ele>200.8</ele>
        <time>2019-08-15T08:09:39Z</time>
      </trkpt>
      <trkpt lat="40.8329130" lon="-8.4787260">
        <ele>201.0</ele>
        <time>2019-08-15T08:09:40Z</time>
      </trkpt>
      <trkpt lat="40.8329280" lon="-8.4787150">
        <ele>201.2</ele>
        <time>2019-08-15T08:09:41Z</time>
      </trkpt>
      <trkpt lat="40.8329430" lon="-8.4787020">
        <ele>201.4</ele>
        <time>2019-08-15T08:09:42Z</time>
      </trkpt>
      <trkpt lat="40.8329520" lon="-8.4786910">
        <ele>201.5</ele>
        <time>2019-08-15T08:09:43Z</time>
      </trkpt>
      <trkpt lat="40.8329840" lon="-8.4786520">
        <ele>202.0</ele>
        <time>2019-08-15T08:09:46Z</time>
      </trkpt>
      <trkpt lat="40.8330640" lon="-8.4785720">
        <ele>202.9</ele>
        <time>2019-08-15T08:09:53Z</time>
      </trkpt>
      <trkpt lat="40.8330760" lon="-8.4785640">
        <ele>203.0</ele>
        <time>2019-08-15T08:09:54Z</time>
      </trkpt>
      <trkpt lat="40.8330870" lon="-8.4785530">
        <ele>203.1</ele>
        <time>2019-08-15T08:09:55Z</time>
      </trkpt>
      <trkpt lat="40.8330980" lon="-8.4785390">
        <ele>203.2</ele>
        <time>2019-08-15T08:09:56Z</time>
      </trkpt>
      <trkpt lat="40.8331120" lon="-8.4785200">
        <ele>203.3</ele>
        <time>2019-08-15T08:09:57Z</time>
      </trkpt>
      <trkpt lat="40.8331870" lon="-8.4783960">
        <ele>203.9</ele>
        <time>2019-08-15T08:10:03Z</time>
      </trkpt>
      <trkpt lat="40.8332010" lon="-8.4783760">
        <ele>204.0</ele>
        <time>2019-08-15T08:10:04Z</time>
      </trkpt>
      <trkpt lat="40.8332130" lon="-8.4783580">
        <ele>204.0</ele>
        <time>2019-08-15T08:10:05Z</time>
      </trkpt>
      <trkpt lat="40.8332180" lon="-8.4783420">
        <ele>204.1</ele>
        <time>2019-08-15T08:10:06Z</time>
      </trkpt>
      <trkpt lat="40.8332270" lon="-8.4783260">
        <ele>204.2</ele>
        <time>2019-08-15T08:10:07Z</time>
      </trkpt>
      <trkpt lat="40.8333210" lon="-8.4782420">
        <ele>204.6</ele>
        <time>2019-08-15T08:10:12Z</time>
      </trkpt>
      <trkpt lat="40.8333860" lon="-8.4781980">
        <ele>204.8</ele>
        <time>2019-08-15T08:10:16Z</time>
      </trkpt>
      <trkpt lat="40.8334050" lon="-8.4781880">
        <ele>204.9</ele>
        <time>2019-08-15T08:10:17Z</time>
      </trkpt>
      <trkpt lat="40.8334240" lon="-8.4781770">
        <ele>205.0</ele>
        <time>2019-08-15T08:10:18Z</time>
      </trkpt>
      <trkpt lat="40.8334430" lon="-8.4781710">
        <ele>205.0</ele>
        <time>2019-08-15T08:10:19Z</time>
      </trkpt>
      <trkpt lat="40.8334590" lon="-8.4781570">
        <ele>205.1</ele>
        <time>2019-08-15T08:10:20Z</time>
      </trkpt>
      <trkpt lat="40.8334750" lon="-8.4781410">
        <ele>205.2</ele>
        <time>2019-08-15T08:10:21Z</time>
      </trkpt>
      <trkpt lat="40.8335880" lon="-8.4780300">
        <ele>205.6</ele>
        <time>2019-08-15T08:10:29Z</time>
      </trkpt>
      <trkpt lat="40.8336370" lon="-8.4780150">
        <ele>205.8</ele>
        <time>2019-08-15T08:10:33Z</time>
      </trkpt>
      <trkpt lat="40.8336660" lon="-8.4780000">
        <ele>205.9</ele>
        <time>2019-08-15T08:10:35Z</time>
      </trkpt>
      <trkpt lat="40.8337570" lon="-8.4779310">
        <ele>206.3</ele>
        <time>2019-08-15T08:10:41Z</time>
      </trkpt>
      <trkpt lat="40.8337750" lon="-8.4779360">
        <ele>206.4</ele>
        <time>2019-08-15T08:10:42Z</time>
      </trkpt>
      <trkpt lat="40.8339090" lon="-8.4780180">
        <ele>207.0</ele>
        <time>2019-08-15T08:10:50Z</time>
      </trkpt>
      <trkpt lat="40.8340560" lon="-8.4781130">
        <ele>207.7</ele>
        <time>2019-08-15T08:10:58Z</time>
      </trkpt>
      <trkpt lat="40.8340720" lon="-8.4781170">
        <ele>207.8</ele>
        <time>2019-08-15T08:10:59Z</time>
      </trkpt>
      <trkpt lat="40.8340910" lon="-8.4781110">
        <ele>207.9</ele>
        <time>2019-08-15T08:11:00Z</time>
      </trkpt>
      <trkpt lat="40.8341050" lon="-8.4781160">
        <ele>208.0</ele>
        <time>2019-08-15T08:11:01Z</time>
      </trkpt>
      <trkpt lat="40.8341130" lon="-8.4781210">
        <ele>208.0</ele>
        <time>2019-08-15T08:11:02Z</time>
      </trkpt>
      <trkpt lat="40.8341410" lon="-8.4781140">
        <ele>208.0</ele>
        <time>2019-08-15T08:11:05Z</time>
      </trkpt>
      <trkpt lat="40.8341400" lon="-8.4781130">
        <ele>208.0</ele>
        <time>2019-08-15T08:11:06Z</time>
      </trkpt>
      <trkpt lat="40.8341670" lon="-8.4781460">
        <ele>208.1</ele>
        <time>2019-08-15T08:11:26Z</time>
      </trkpt>
      <trkpt lat="40.8342180" lon="-8.4781760">
        <ele>208.1</ele>
        <time>2019-08-15T08:11:29Z</time>
      </trkpt>
      <trkpt lat="40.8342730" lon="-8.4781980">
        <ele>208.2</ele>
        <time>2019-08-15T08:11:31Z</time>
      </trkpt>
      <trkpt lat="40.8343370" lon="-8.4782360">
        <ele>208.2</ele>
        <time>2019-08-15T08:11:33Z</time>
      </trkpt>
      <trkpt lat="40.8345200" lon="-8.4783550">
        <ele>208.1</ele>
        <time>2019-08-15T08:11:39Z</time>
      </trkpt>
      <trkpt lat="40.8346360" lon="-8.4784390">
        <ele>208.1</ele>
        <time>2019-08-15T08:11:44Z</time>
      </trkpt>
      <trkpt lat="40.8347810" lon="-8.4785320">
        <ele>208.6</ele>
        <time>2019-08-15T08:11:51Z</time>
      </trkpt>
      <trkpt lat="40.8350420" lon="-8.4785410">
        <ele>209.4</ele>
        <time>2019-08-15T08:11:59Z</time>
      </trkpt>
      <trkpt lat="40.8353150" lon="-8.4785550">
        <ele>208.8</ele>
        <time>2019-08-15T08:12:06Z</time>
      </trkpt>
      <trkpt lat="40.8355330" lon="-8.4784770">
        <ele>208.3</ele>
        <time>2019-08-15T08:12:11Z</time>
      </trkpt>
      <trkpt lat="40.8357930" lon="-8.4784290">
        <ele>208.0</ele>
        <time>2019-08-15T08:12:18Z</time>
      </trkpt>
      <trkpt lat="40.8359350" lon="-8.4783630">
        <ele>207.3</ele>
        <time>2019-08-15T08:12:23Z</time>
      </trkpt>
      <trkpt lat="40.8360440" lon="-8.4783720">
        <ele>207.3</ele>
        <time>2019-08-15T08:12:26Z</time>
      </trkpt>
      <trkpt lat="40.8360770" lon="-8.4783650">
        <ele>207.3</ele>
        <time>2019-08-15T08:12:27Z</time>
      </trkpt>
      <trkpt lat="40.8361080" lon="-8.4783650">
        <ele>207.3</ele>
        <time>2019-08-15T08:12:28Z</time>
      </trkpt>
      <trkpt lat="40.8361390" lon="-8.4783650">
        <ele>207.3</ele>
        <time>2019-08-15T08:12:29Z</time>
      </trkpt>
      <trkpt lat="40.8361630" lon="-8.4783710">
        <ele>207.3</ele>
        <time>2019-08-15T08:12:30Z</time>
      </trkpt>
      <trkpt lat="40.8363140" lon="-8.4783350">
        <ele>206.9</ele>
        <time>2019-08-15T08:12:35Z</time>
      </trkpt>
      <trkpt lat="40.8364180" lon="-8.4782930">
        <ele>206.6</ele>
        <time>2019-08-15T08:12:41Z</time>
      </trkpt>
      <trkpt lat="40.8365230" lon="-8.4782980">
        <ele>206.7</ele>
        <time>2019-08-15T08:12:45Z</time>
      </trkpt>
      <trkpt lat="40.8366720" lon="-8.4782700">
        <ele>207.0</ele>
        <time>2019-08-15T08:12:51Z</time>
      </trkpt>
      <trkpt lat="40.8367980" lon="-8.4782230">
        <ele>207.2</ele>
        <time>2019-08-15T08:12:57Z</time>
      </trkpt>
      <trkpt lat="40.8369920" lon="-8.4781810">
        <ele>207.8</ele>
        <time>2019-08-15T08:13:04Z</time>
      </trkpt>
      <trkpt lat="40.8370470" lon="-8.4781400">
        <ele>207.9</ele>
        <time>2019-08-15T08:13:05Z</time>
      </trkpt>
      <trkpt lat="40.8370840" lon="-8.4781160">
        <ele>208.0</ele>
        <time>2019-08-15T08:13:06Z</time>
      </trkpt>
      <trkpt lat="40.8371040" lon="-8.4781060">
        <ele>208.1</ele>
        <time>2019-08-15T08:13:07Z</time>
      </trkpt>
      <trkpt lat="40.8371250" lon="-8.4781080">
        <ele>208.2</ele>
        <time>2019-08-15T08:13:08Z</time>
      </trkpt>
      <trkpt lat="40.8371820" lon="-8.4781240">
        <ele>208.3</ele>
        <time>2019-08-15T08:13:10Z</time>
      </trkpt>
      <trkpt lat="40.8373360" lon="-8.4781360">
        <ele>208.9</ele>
        <time>2019-08-15T08:13:15Z</time>
      </trkpt>
      <trkpt lat="40.8375630" lon="-8.4782070">
        <ele>209.7</ele>
        <time>2019-08-15T08:13:22Z</time>
      </trkpt>
      <trkpt lat="40.8377340" lon="-8.4782650">
        <ele>210.2</ele>
        <time>2019-08-15T08:13:30Z</time>
      </trkpt>
      <trkpt lat="40.8378860" lon="-8.4782470">
        <ele>210.6</ele>
        <time>2019-08-15T08:13:36Z</time>
      </trkpt>
      <trkpt lat="40.8379100" lon="-8.4782290">
        <ele>210.6</ele>
        <time>2019-08-15T08:13:37Z</time>
      </trkpt>
      <trkpt lat="40.8381000" lon="-8.4781760">
        <ele>211.1</ele>
        <time>2019-08-15T08:13:44Z</time>
      </trkpt>
      <trkpt lat="40.8383690" lon="-8.4779930">
        <ele>211.8</ele>
        <time>2019-08-15T08:13:51Z</time>
      </trkpt>
      <trkpt lat="40.8384600" lon="-8.4780360">
        <ele>211.9</ele>
        <time>2019-08-15T08:13:52Z</time>
      </trkpt>
      <trkpt lat="40.8385200" lon="-8.4780420">
        <ele>212.0</ele>
        <time>2019-08-15T08:13:53Z</time>
      </trkpt>
      <trkpt lat="40.8385690" lon="-8.4780170">
        <ele>212.0</ele>
        <time>2019-08-15T08:13:54Z</time>
      </trkpt>
      <trkpt lat="40.8386420" lon="-8.4779630">
        <ele>212.0</ele>
        <time>2019-08-15T08:13:55Z</time>
      </trkpt>
      <trkpt lat="40.8387670" lon="-8.4778570">
        <ele>212.2</ele>
        <time>2019-08-15T08:13:59Z</time>
      </trkpt>
      <trkpt lat="40.8389290" lon="-8.4778630">
        <ele>212.6</ele>
        <time>2019-08-15T08:14:04Z</time>
      </trkpt>
      <trkpt lat="40.8390520" lon="-8.4778830">
        <ele>212.9</ele>
        <time>2019-08-15T08:14:10Z</time>
      </trkpt>
      <trkpt lat="40.8390810" lon="-8.4778250">
        <ele>213.0</ele>
        <time>2019-08-15T08:15:37Z</time>
      </trkpt>
      <trkpt lat="40.8391060" lon="-8.4778460">
        <ele>213.1</ele>
        <time>2019-08-15T08:15:39Z</time>
      </trkpt>
      <trkpt lat="40.8391290" lon="-8.4778540">
        <ele>213.2</ele>
        <time>2019-08-15T08:15:40Z</time>
      </trkpt>
      <trkpt lat="40.8391570" lon="-8.4778410">
        <ele>213.2</ele>
        <time>2019-08-15T08:15:41Z</time>
      </trkpt>
      <trkpt lat="40.8392340" lon="-8.4778320">
        <ele>213.4</ele>
        <time>2019-08-15T08:15:44Z</time>
      </trkpt>
      <trkpt lat="40.8394730" lon="-8.4778250">
        <ele>214.1</ele>
        <time>2019-08-15T08:15:52Z</time>
      </trkpt>
      <trkpt lat="40.8397340" lon="-8.4778430">
        <ele>214.4</ele>
        <time>2019-08-15T08:15:59Z</time>
      </trkpt>
      <trkpt lat="40.8398810" lon="-8.4778390">
        <ele>214.4</ele>
        <time>2019-08-15T08:16:04Z</time>
      </trkpt>
      <trkpt lat="40.8399070" lon="-8.4778340">
        <ele>214.4</ele>
        <time>2019-08-15T08:16:05Z</time>
      </trkpt>
      <trkpt lat="40.8399380" lon="-8.4778390">
        <ele>214.4</ele>
        <time>2019-08-15T08:16:06Z</time>
      </trkpt>
      <trkpt lat="40.8399690" lon="-8.4778480">
        <ele>214.4</ele>
        <time>2019-08-15T08:16:07Z</time>
      </trkpt>
      <trkpt lat="40.8400040" lon="-8.4778480">
        <ele>214.3</ele>
        <time>2019-08-15T08:16:08Z</time>
      </trkpt>
      <trkpt lat="40.8401450" lon="-8.4778050">
        <ele>214.3</ele>
        <time>2019-08-15T08:16:14Z</time>
      </trkpt>
      <trkpt lat="40.8403460" lon="-8.4778120">
        <ele>214.4</ele>
        <time>2019-08-15T08:16:20Z</time>
      </trkpt>
      <trkpt lat="40.8405970" lon="-8.4777270">
        <ele>215.9</ele>
        <time>2019-08-15T08:16:28Z</time>
      </trkpt>
      <trkpt lat="40.8406360" lon="-8.4777160">
        <ele>216.1</ele>
        <time>2019-08-15T08:16:30Z</time>
      </trkpt>
      <trkpt lat="40.8406590" lon="-8.4777030">
        <ele>216.4</ele>
        <time>2019-08-15T08:16:31Z</time>
      </trkpt>
      <trkpt lat="40.8406740" lon="-8.4776950">
        <ele>216.6</ele>
        <time>2019-08-15T08:16:32Z</time>
      </trkpt>
      <trkpt lat="40.8406780" lon="-8.4776900">
        <ele>216.6</ele>
        <time>2019-08-15T08:16:33Z</time>
      </trkpt>
      <trkpt lat="40.8407120" lon="-8.4776780">
        <ele>217.0</ele>
        <time>2019-08-15T08:16:34Z</time>
      </trkpt>
      <trkpt lat="40.8408360" lon="-8.4776420">
        <ele>218.3</ele>
        <time>2019-08-15T08:16:38Z</time>
      </trkpt>
      <trkpt lat="40.8410510" lon="-8.4775640">
        <ele>219.8</ele>
        <time>2019-08-15T08:16:46Z</time>
      </trkpt>
      <trkpt lat="40.8410820" lon="-8.4775530">
        <ele>220.0</ele>
        <time>2019-08-15T08:16:47Z</time>
      </trkpt>
      <trkpt lat="40.8411140" lon="-8.4775410">
        <ele>220.2</ele>
        <time>2019-08-15T08:16:48Z</time>
      </trkpt>
      <trkpt lat="40.8411360" lon="-8.4775310">
        <ele>220.3</ele>
        <time>2019-08-15T08:16:49Z</time>
      </trkpt>
      <trkpt lat="40.8411640" lon="-8.4775250">
        <ele>220.5</ele>
        <time>2019-08-15T08:16:50Z</time>
      </trkpt>
      <trkpt lat="40.8411830" lon="-8.4775210">
        <ele>220.6</ele>
        <time>2019-08-15T08:16:51Z</time>
      </trkpt>
      <trkpt lat="40.8412090" lon="-8.4775050">
        <ele>220.8</ele>
        <time>2019-08-15T08:16:52Z</time>
      </trkpt>
      <trkpt lat="40.8413560" lon="-8.4774690">
        <ele>222.2</ele>
        <time>2019-08-15T08:16:57Z</time>
      </trkpt>
      <trkpt lat="40.8413780" lon="-8.4774630">
        <ele>222.3</ele>
        <time>2019-08-15T08:16:58Z</time>
      </trkpt>
      <trkpt lat="40.8414090" lon="-8.4774600">
        <ele>222.4</ele>
        <time>2019-08-15T08:16:59Z</time>
      </trkpt>
      <trkpt lat="40.8414420" lon="-8.4774550">
        <ele>222.6</ele>
        <time>2019-08-15T08:17:00Z</time>
      </trkpt>
      <trkpt lat="40.8414690" lon="-8.4774440">
        <ele>222.7</ele>
        <time>2019-08-15T08:17:01Z</time>
      </trkpt>
      <trkpt lat="40.8414960" lon="-8.4774330">
        <ele>222.8</ele>
        <time>2019-08-15T08:17:02Z</time>
      </trkpt>
      <trkpt lat="40.8415260" lon="-8.4774180">
        <ele>222.9</ele>
        <time>2019-08-15T08:17:03Z</time>
      </trkpt>
      <trkpt lat="40.8415520" lon="-8.4774050">
        <ele>223.1</ele>
        <time>2019-08-15T08:17:04Z</time>
      </trkpt>
      <trkpt lat="40.8415740" lon="-8.4773880">
        <ele>223.2</ele>
        <time>2019-08-15T08:17:05Z</time>
      </trkpt>
      <trkpt lat="40.8415930" lon="-8.4773850">
        <ele>223.3</ele>
        <time>2019-08-15T08:17:06Z</time>
      </trkpt>
      <trkpt lat="40.8416150" lon="-8.4773760">
        <ele>223.4</ele>
        <time>2019-08-15T08:17:07Z</time>
      </trkpt>
      <trkpt lat="40.8416310" lon="-8.4773620">
        <ele>223.3</ele>
        <time>2019-08-15T08:17:09Z</time>
      </trkpt>
      <trkpt lat="40.8416920" lon="-8.4773850">
        <ele>223.3</ele>
        <time>2019-08-15T08:17:25Z</time>
      </trkpt>
      <trkpt lat="40.8417420" lon="-8.4774520">
        <ele>223.3</ele>
        <time>2019-08-15T08:17:27Z</time>
      </trkpt>
      <trkpt lat="40.8419240" lon="-8.4775330">
        <ele>223.0</ele>
        <time>2019-08-15T08:17:32Z</time>
      </trkpt>
      <trkpt lat="40.8421850" lon="-8.4776250">
        <ele>222.3</ele>
        <time>2019-08-15T08:17:38Z</time>
      </trkpt>
      <trkpt lat="40.8423780" lon="-8.4776780">
        <ele>221.7</ele>
        <time>2019-08-15T08:17:42Z</time>
      </trkpt>
      <trkpt lat="40.8424770" lon="-8.4777050">
        <ele>220.8</ele>
        <time>2019-08-15T08:17:44Z</time>
      </trkpt>
      <trkpt lat="40.8425300" lon="-8.4777060">
        <ele>220.3</ele>
        <time>2019-08-15T08:17:45Z</time>
      </trkpt>
      <trkpt lat="40.8426840" lon="-8.4776830">
        <ele>218.8</ele>
        <time>2019-08-15T08:17:48Z</time>
      </trkpt>
      <trkpt lat="40.8427220" lon="-8.4776710">
        <ele>218.4</ele>
        <time>2019-08-15T08:17:49Z</time>
      </trkpt>
      <trkpt lat="40.8427600" lon="-8.4776400">
        <ele>217.9</ele>
        <time>2019-08-15T08:17:50Z</time>
      </trkpt>
      <trkpt lat="40.8428320" lon="-8.4775470">
        <ele>216.7</ele>
        <time>2019-08-15T08:17:52Z</time>
      </trkpt>
      <trkpt lat="40.8428620" lon="-8.4775080">
        <ele>216.0</ele>
        <time>2019-08-15T08:17:53Z</time>
      </trkpt>
      <trkpt lat="40.8428950" lon="-8.4774720">
        <ele>215.3</ele>
        <time>2019-08-15T08:17:54Z</time>
      </trkpt>
      <trkpt lat="40.8429530" lon="-8.4774080">
        <ele>214.1</ele>
        <time>2019-08-15T08:17:55Z</time>
      </trkpt>
      <trkpt lat="40.8430110" lon="-8.4773500">
        <ele>213.0</ele>
        <time>2019-08-15T08:17:56Z</time>
      </trkpt>
      <trkpt lat="40.8430860" lon="-8.4772790">
        <ele>212.0</ele>
        <time>2019-08-15T08:17:57Z</time>
      </trkpt>
      <trkpt lat="40.8431610" lon="-8.4772120">
        <ele>211.1</ele>
        <time>2019-08-15T08:17:58Z</time>
      </trkpt>
      <trkpt lat="40.8432370" lon="-8.4771570">
        <ele>210.3</ele>
        <time>2019-08-15T08:17:59Z</time>
      </trkpt>
      <trkpt lat="40.8433160" lon="-8.4770940">
        <ele>209.4</ele>
        <time>2019-08-15T08:18:00Z</time>
      </trkpt>
      <trkpt lat="40.8433930" lon="-8.4770310">
        <ele>208.5</ele>
        <time>2019-08-15T08:18:01Z</time>
      </trkpt>
      <trkpt lat="40.8434710" lon="-8.4769690">
        <ele>207.6</ele>
        <time>2019-08-15T08:18:02Z</time>
      </trkpt>
      <trkpt lat="40.8435450" lon="-8.4769090">
        <ele>206.7</ele>
        <time>2019-08-15T08:18:03Z</time>
      </trkpt>
      <trkpt lat="40.8436200" lon="-8.4768750">
        <ele>205.9</ele>
        <time>2019-08-15T08:18:04Z</time>
      </trkpt>
      <trkpt lat="40.8436960" lon="-8.4768590">
        <ele>205.2</ele>
        <time>2019-08-15T08:18:05Z</time>
      </trkpt>
      <trkpt lat="40.8437750" lon="-8.4768660">
        <ele>204.4</ele>
        <time>2019-08-15T08:18:06Z</time>
      </trkpt>
      <trkpt lat="40.8438600" lon="-8.4769000">
        <ele>203.4</ele>
        <time>2019-08-15T08:18:07Z</time>
      </trkpt>
      <trkpt lat="40.8439400" lon="-8.4769620">
        <ele>202.4</ele>
        <time>2019-08-15T08:18:08Z</time>
      </trkpt>
      <trkpt lat="40.8440170" lon="-8.4770290">
        <ele>201.3</ele>
        <time>2019-08-15T08:18:09Z</time>
      </trkpt>
      <trkpt lat="40.8440840" lon="-8.4771110">
        <ele>200.2</ele>
        <time>2019-08-15T08:18:10Z</time>
      </trkpt>
      <trkpt lat="40.8441470" lon="-8.4771990">
        <ele>199.0</ele>
        <time>2019-08-15T08:18:11Z</time>
      </trkpt>
      <trkpt lat="40.8442160" lon="-8.4772860">
        <ele>197.7</ele>
        <time>2019-08-15T08:18:12Z</time>
      </trkpt>
      <trkpt lat="40.8442770" lon="-8.4773740">
        <ele>196.4</ele>
        <time>2019-08-15T08:18:13Z</time>
      </trkpt>
      <trkpt lat="40.8443240" lon="-8.4774580">
        <ele>195.2</ele>
        <time>2019-08-15T08:18:14Z</time>
      </trkpt>
      <trkpt lat="40.8443640" lon="-8.4775510">
        <ele>193.9</ele>
        <time>2019-08-15T08:18:15Z</time>
      </trkpt>
      <trkpt lat="40.8444030" lon="-8.4776360">
        <ele>192.7</ele>
        <time>2019-08-15T08:18:16Z</time>
      </trkpt>
      <trkpt lat="40.8444340" lon="-8.4777150">
        <ele>191.6</ele>
        <time>2019-08-15T08:18:17Z</time>
      </trkpt>
      <trkpt lat="40.8444630" lon="-8.4777910">
        <ele>190.5</ele>
        <time>2019-08-15T08:18:18Z</time>
      </trkpt>
      <trkpt lat="40.8444910" lon="-8.4778560">
        <ele>189.6</ele>
        <time>2019-08-15T08:18:19Z</time>
      </trkpt>
      <trkpt lat="40.8445330" lon="-8.4779160">
        <ele>187.5</ele>
        <time>2019-08-15T08:18:20Z</time>
      </trkpt>
      <trkpt lat="40.8445770" lon="-8.4779680">
        <ele>186.7</ele>
        <time>2019-08-15T08:18:21Z</time>
      </trkpt>
      <trkpt lat="40.8446210" lon="-8.4780180">
        <ele>185.9</ele>
        <time>2019-08-15T08:18:22Z</time>
      </trkpt>
      <trkpt lat="40.8446540" lon="-8.4780590">
        <ele>185.4</ele>
        <time>2019-08-15T08:18:23Z</time>
      </trkpt>
      <trkpt lat="40.8446980" lon="-8.4780860">
        <ele>184.7</ele>
        <time>2019-08-15T08:18:24Z</time>
      </trkpt>
      <trkpt lat="40.8447360" lon="-8.4781060">
        <ele>184.2</ele>
        <time>2019-08-15T08:18:25Z</time>
      </trkpt>
      <trkpt lat="40.8447810" lon="-8.4781220">
        <ele>183.6</ele>
        <time>2019-08-15T08:18:26Z</time>
      </trkpt>
      <trkpt lat="40.8448420" lon="-8.4781220">
        <ele>182.8</ele>
        <time>2019-08-15T08:18:27Z</time>
      </trkpt>
      <trkpt lat="40.8449160" lon="-8.4781250">
        <ele>181.8</ele>
        <time>2019-08-15T08:18:28Z</time>
      </trkpt>
      <trkpt lat="40.8449960" lon="-8.4781420">
        <ele>180.7</ele>
        <time>2019-08-15T08:18:29Z</time>
      </trkpt>
      <trkpt lat="40.8450800" lon="-8.4781550">
        <ele>179.6</ele>
        <time>2019-08-15T08:18:30Z</time>
      </trkpt>
      <trkpt lat="40.8451640" lon="-8.4781640">
        <ele>178.6</ele>
        <time>2019-08-15T08:18:31Z</time>
      </trkpt>
      <trkpt lat="40.8452640" lon="-8.4781650">
        <ele>177.4</ele>
        <time>2019-08-15T08:18:32Z</time>
      </trkpt>
      <trkpt lat="40.8453840" lon="-8.4781500">
        <ele>175.9</ele>
        <time>2019-08-15T08:18:33Z</time>
      </trkpt>
      <trkpt lat="40.8454940" lon="-8.4781560">
        <ele>174.3</ele>
        <time>2019-08-15T08:18:34Z</time>
      </trkpt>
      <trkpt lat="40.8455900" lon="-8.4781690">
        <ele>172.8</ele>
        <time>2019-08-15T08:18:35Z</time>
      </trkpt>
      <trkpt lat="40.8456820" lon="-8.4781860">
        <ele>171.6</ele>
        <time>2019-08-15T08:18:36Z</time>
      </trkpt>
      <trkpt lat="40.8457630" lon="-8.4782300">
        <ele>171.4</ele>
        <time>2019-08-15T08:18:37Z</time>
      </trkpt>
      <trkpt lat="40.8458430" lon="-8.4782680">
        <ele>171.3</ele>
        <time>2019-08-15T08:18:38Z</time>
      </trkpt>
      <trkpt lat="40.8459280" lon="-8.4783120">
        <ele>171.2</ele>
        <time>2019-08-15T08:18:39Z</time>
      </trkpt>
      <trkpt lat="40.8460010" lon="-8.4783590">
        <ele>171.1</ele>
        <time>2019-08-15T08:18:40Z</time>
      </trkpt>
      <trkpt lat="40.8460750" lon="-8.4784030">
        <ele>171.0</ele>
        <time>2019-08-15T08:18:41Z</time>
      </trkpt>
      <trkpt lat="40.8461400" lon="-8.4784580">
        <ele>171.0</ele>
        <time>2019-08-15T08:18:42Z</time>
      </trkpt>
      <trkpt lat="40.8462020" lon="-8.4785180">
        <ele>171.0</ele>
        <time>2019-08-15T08:18:43Z</time>
      </trkpt>
      <trkpt lat="40.8462560" lon="-8.4785750">
        <ele>171.0</ele>
        <time>2019-08-15T08:18:44Z</time>
      </trkpt>
      <trkpt lat="40.8463610" lon="-8.4786760">
        <ele>171.5</ele>
        <time>2019-08-15T08:18:46Z</time>
      </trkpt>
      <trkpt lat="40.8465420" lon="-8.4788290">
        <ele>172.8</ele>
        <time>2019-08-15T08:18:50Z</time>
      </trkpt>
      <trkpt lat="40.8465880" lon="-8.4788530">
        <ele>173.1</ele>
        <time>2019-08-15T08:18:51Z</time>
      </trkpt>
      <trkpt lat="40.8466780" lon="-8.4790100">
        <ele>174.7</ele>
        <time>2019-08-15T08:18:55Z</time>
      </trkpt>
      <trkpt lat="40.8466610" lon="-8.4790610">
        <ele>174.7</ele>
        <time>2019-08-15T08:18:56Z</time>
      </trkpt>
      <trkpt lat="40.8466400" lon="-8.4791070">
        <ele>174.1</ele>
        <time>2019-08-15T08:18:57Z</time>
      </trkpt>
      <trkpt lat="40.8466100" lon="-8.4791540">
        <ele>174.0</ele>
        <time>2019-08-15T08:18:58Z</time>
      </trkpt>
      <trkpt lat="40.8465650" lon="-8.4792010">
        <ele>173.8</ele>
        <time>2019-08-15T08:18:59Z</time>
      </trkpt>
      <trkpt lat="40.8465080" lon="-8.4792740">
        <ele>173.6</ele>
        <time>2019-08-15T08:19:00Z</time>
      </trkpt>
      <trkpt lat="40.8464320" lon="-8.4793280">
        <ele>173.5</ele>
        <time>2019-08-15T08:19:01Z</time>
      </trkpt>
      <trkpt lat="40.8464060" lon="-8.4795800">
        <ele>173.2</ele>
        <time>2019-08-15T08:19:05Z</time>
      </trkpt>
      <trkpt lat="40.8464040" lon="-8.4796410">
        <ele>173.2</ele>
        <time>2019-08-15T08:19:06Z</time>
      </trkpt>
      <trkpt lat="40.8464200" lon="-8.4801130">
        <ele>172.2</ele>
        <time>2019-08-15T08:19:13Z</time>
      </trkpt>
      <trkpt lat="40.8464240" lon="-8.4801800">
        <ele>172.0</ele>
        <time>2019-08-15T08:19:14Z</time>
      </trkpt>
      <trkpt lat="40.8464160" lon="-8.4802500">
        <ele>171.9</ele>
        <time>2019-08-15T08:19:15Z</time>
      </trkpt>
      <trkpt lat="40.8464070" lon="-8.4803160">
        <ele>171.7</ele>
        <time>2019-08-15T08:19:16Z</time>
      </trkpt>
      <trkpt lat="40.8463900" lon="-8.4803880">
        <ele>171.5</ele>
        <time>2019-08-15T08:19:17Z</time>
      </trkpt>
      <trkpt lat="40.8463670" lon="-8.4804560">
        <ele>171.3</ele>
        <time>2019-08-15T08:19:18Z</time>
      </trkpt>
      <trkpt lat="40.8463200" lon="-8.4805850">
        <ele>170.8</ele>
        <time>2019-08-15T08:19:20Z</time>
      </trkpt>
      <trkpt lat="40.8462160" lon="-8.4808870">
        <ele>169.8</ele>
        <time>2019-08-15T08:19:25Z</time>
      </trkpt>
      <trkpt lat="40.8461720" lon="-8.4809860">
        <ele>169.6</ele>
        <time>2019-08-15T08:19:27Z</time>
      </trkpt>
      <trkpt lat="40.8461030" lon="-8.4811900">
        <ele>169.6</ele>
        <time>2019-08-15T08:19:31Z</time>
      </trkpt>
      <trkpt lat="40.8460290" lon="-8.4814580">
        <ele>170.2</ele>
        <time>2019-08-15T08:19:36Z</time>
      </trkpt>
      <trkpt lat="40.8460120" lon="-8.4815030">
        <ele>170.3</ele>
        <time>2019-08-15T08:19:37Z</time>
      </trkpt>
      <trkpt lat="40.8460060" lon="-8.4815680">
        <ele>170.6</ele>
        <time>2019-08-15T08:19:38Z</time>
      </trkpt>
      <trkpt lat="40.8460000" lon="-8.4816280">
        <ele>170.8</ele>
        <time>2019-08-15T08:19:39Z</time>
      </trkpt>
      <trkpt lat="40.8459960" lon="-8.4816830">
        <ele>171.0</ele>
        <time>2019-08-15T08:19:40Z</time>
      </trkpt>
      <trkpt lat="40.8460560" lon="-8.4819250">
        <ele>173.0</ele>
        <time>2019-08-15T08:19:45Z</time>
      </trkpt>
      <trkpt lat="40.8461920" lon="-8.4821300">
        <ele>174.4</ele>
        <time>2019-08-15T08:19:50Z</time>
      </trkpt>
      <trkpt lat="40.8462220" lon="-8.4821690">
        <ele>174.8</ele>
        <time>2019-08-15T08:19:51Z</time>
      </trkpt>
      <trkpt lat="40.8462520" lon="-8.4822040">
        <ele>175.1</ele>
        <time>2019-08-15T08:19:52Z</time>
      </trkpt>
      <trkpt lat="40.8462740" lon="-8.4822420">
        <ele>175.3</ele>
        <time>2019-08-15T08:19:53Z</time>
      </trkpt>
      <trkpt lat="40.8463000" lon="-8.4822770">
        <ele>175.5</ele>
        <time>2019-08-15T08:19:54Z</time>
      </trkpt>
      <trkpt lat="40.8463810" lon="-8.4823960">
        <ele>176.0</ele>
        <time>2019-08-15T08:19:57Z</time>
      </trkpt>
      <trkpt lat="40.8464340" lon="-8.4824750">
        <ele>176.4</ele>
        <time>2019-08-15T08:19:59Z</time>
      </trkpt>
      <trkpt lat="40.8464610" lon="-8.4825150">
        <ele>176.6</ele>
        <time>2019-08-15T08:20:00Z</time>
      </trkpt>
      <trkpt lat="40.8464870" lon="-8.4825590">
        <ele>176.7</ele>
        <time>2019-08-15T08:20:01Z</time>
      </trkpt>
      <trkpt lat="40.8465100" lon="-8.4826020">
        <ele>176.9</ele>
        <time>2019-08-15T08:20:02Z</time>
      </trkpt>
      <trkpt lat="40.8465340" lon="-8.4826610">
        <ele>177.1</ele>
        <time>2019-08-15T08:20:03Z</time>
      </trkpt>
      <trkpt lat="40.8466160" lon="-8.4828040">
        <ele>177.6</ele>
        <time>2019-08-15T08:20:06Z</time>
      </trkpt>
      <trkpt lat="40.8467030" lon="-8.4829190">
        <ele>178.1</ele>
        <time>2019-08-15T08:20:09Z</time>
      </trkpt>
      <trkpt lat="40.8467250" lon="-8.4829620">
        <ele>178.2</ele>
        <time>2019-08-15T08:20:10Z</time>
      </trkpt>
      <trkpt lat="40.8467490" lon="-8.4830050">
        <ele>178.4</ele>
        <time>2019-08-15T08:20:11Z</time>
      </trkpt>
      <trkpt lat="40.8467740" lon="-8.4830430">
        <ele>178.5</ele>
        <time>2019-08-15T08:20:12Z</time>
      </trkpt>
      <trkpt lat="40.8468000" lon="-8.4830780">
        <ele>178.7</ele>
        <time>2019-08-15T08:20:13Z</time>
      </trkpt>
      <trkpt lat="40.8468740" lon="-8.4831880">
        <ele>179.2</ele>
        <time>2019-08-15T08:20:16Z</time>
      </trkpt>
      <trkpt lat="40.8469390" lon="-8.4833780">
        <ele>180.6</ele>
        <time>2019-08-15T08:20:20Z</time>
      </trkpt>
      <trkpt lat="40.8469560" lon="-8.4834210">
        <ele>180.9</ele>
        <time>2019-08-15T08:20:21Z</time>
      </trkpt>
      <trkpt lat="40.8469670" lon="-8.4834620">
        <ele>181.3</ele>
        <time>2019-08-15T08:20:22Z</time>
      </trkpt>
      <trkpt lat="40.8469820" lon="-8.4835010">
        <ele>181.5</ele>
        <time>2019-08-15T08:20:23Z</time>
      </trkpt>
      <trkpt lat="40.8469950" lon="-8.4835370">
        <ele>181.8</ele>
        <time>2019-08-15T08:20:24Z</time>
      </trkpt>
      <trkpt lat="40.8470220" lon="-8.4837590">
        <ele>181.0</ele>
        <time>2019-08-15T08:20:29Z</time>
      </trkpt>
      <trkpt lat="40.8470460" lon="-8.4841140">
        <ele>179.4</ele>
        <time>2019-08-15T08:20:33Z</time>
      </trkpt>
      <trkpt lat="40.8470560" lon="-8.4842120">
        <ele>179.1</ele>
        <time>2019-08-15T08:20:34Z</time>
      </trkpt>
      <trkpt lat="40.8470680" lon="-8.4843120">
        <ele>179.1</ele>
        <time>2019-08-15T08:20:35Z</time>
      </trkpt>
      <trkpt lat="40.8470910" lon="-8.4844070">
        <ele>179.1</ele>
        <time>2019-08-15T08:20:36Z</time>
      </trkpt>
      <trkpt lat="40.8471130" lon="-8.4844920">
        <ele>179.1</ele>
        <time>2019-08-15T08:20:37Z</time>
      </trkpt>
      <trkpt lat="40.8471330" lon="-8.4845710">
        <ele>179.0</ele>
        <time>2019-08-15T08:20:38Z</time>
      </trkpt>
      <trkpt lat="40.8472400" lon="-8.4851090">
        <ele>177.4</ele>
        <time>2019-08-15T08:20:45Z</time>
      </trkpt>
      <trkpt lat="40.8473520" lon="-8.4856010">
        <ele>175.6</ele>
        <time>2019-08-15T08:20:52Z</time>
      </trkpt>
      <trkpt lat="40.8473860" lon="-8.4857210">
        <ele>175.6</ele>
        <time>2019-08-15T08:20:54Z</time>
      </trkpt>
      <trkpt lat="40.8475610" lon="-8.4861770">
        <ele>175.2</ele>
        <time>2019-08-15T08:21:01Z</time>
      </trkpt>
      <trkpt lat="40.8477790" lon="-8.4867040">
        <ele>173.9</ele>
        <time>2019-08-15T08:21:09Z</time>
      </trkpt>
      <trkpt lat="40.8478100" lon="-8.4867840">
        <ele>173.6</ele>
        <time>2019-08-15T08:21:10Z</time>
      </trkpt>
      <trkpt lat="40.8478400" lon="-8.4868600">
        <ele>173.4</ele>
        <time>2019-08-15T08:21:11Z</time>
      </trkpt>
      <trkpt lat="40.8478690" lon="-8.4869420">
        <ele>173.0</ele>
        <time>2019-08-15T08:21:12Z</time>
      </trkpt>
      <trkpt lat="40.8478930" lon="-8.4870300">
        <ele>172.7</ele>
        <time>2019-08-15T08:21:13Z</time>
      </trkpt>
      <trkpt lat="40.8479520" lon="-8.4872200">
        <ele>171.7</ele>
        <time>2019-08-15T08:21:15Z</time>
      </trkpt>
      <trkpt lat="40.8479860" lon="-8.4873090">
        <ele>171.2</ele>
        <time>2019-08-15T08:21:16Z</time>
      </trkpt>
      <trkpt lat="40.8480220" lon="-8.4873920">
        <ele>170.6</ele>
        <time>2019-08-15T08:21:17Z</time>
      </trkpt>
      <trkpt lat="40.8480600" lon="-8.4874730">
        <ele>170.1</ele>
        <time>2019-08-15T08:21:18Z</time>
      </trkpt>
      <trkpt lat="40.8481000" lon="-8.4875420">
        <ele>169.6</ele>
        <time>2019-08-15T08:21:19Z</time>
      </trkpt>
      <trkpt lat="40.8481430" lon="-8.4876130">
        <ele>169.1</ele>
        <time>2019-08-15T08:21:20Z</time>
      </trkpt>
      <trkpt lat="40.8481880" lon="-8.4876770">
        <ele>168.6</ele>
        <time>2019-08-15T08:21:21Z</time>
      </trkpt>
      <trkpt lat="40.8482380" lon="-8.4877340">
        <ele>168.1</ele>
        <time>2019-08-15T08:21:22Z</time>
      </trkpt>
      <trkpt lat="40.8482930" lon="-8.4877890">
        <ele>167.5</ele>
        <time>2019-08-15T08:21:23Z</time>
      </trkpt>
      <trkpt lat="40.8483530" lon="-8.4878380">
        <ele>167.0</ele>
        <time>2019-08-15T08:21:24Z</time>
      </trkpt>
      <trkpt lat="40.8484160" lon="-8.4878840">
        <ele>166.4</ele>
        <time>2019-08-15T08:21:25Z</time>
      </trkpt>
      <trkpt lat="40.8484770" lon="-8.4879240">
        <ele>165.9</ele>
        <time>2019-08-15T08:21:26Z</time>
      </trkpt>
      <trkpt lat="40.8485390" lon="-8.4879610">
        <ele>165.4</ele>
        <time>2019-08-15T08:21:27Z</time>
      </trkpt>
      <trkpt lat="40.8486040" lon="-8.4879970">
        <ele>164.8</ele>
        <time>2019-08-15T08:21:28Z</time>
      </trkpt>
      <trkpt lat="40.8486700" lon="-8.4880290">
        <ele>164.2</ele>
        <time>2019-08-15T08:21:29Z</time>
      </trkpt>
      <trkpt lat="40.8487380" lon="-8.4880680">
        <ele>163.7</ele>
        <time>2019-08-15T08:21:30Z</time>
      </trkpt>
      <trkpt lat="40.8488040" lon="-8.4881070">
        <ele>163.1</ele>
        <time>2019-08-15T08:21:31Z</time>
      </trkpt>
      <trkpt lat="40.8488680" lon="-8.4881420">
        <ele>162.6</ele>
        <time>2019-08-15T08:21:32Z</time>
      </trkpt>
      <trkpt lat="40.8489340" lon="-8.4881800">
        <ele>162.0</ele>
        <time>2019-08-15T08:21:33Z</time>
      </trkpt>
      <trkpt lat="40.8490140" lon="-8.4882270">
        <ele>161.3</ele>
        <time>2019-08-15T08:21:34Z</time>
      </trkpt>
      <trkpt lat="40.8490900" lon="-8.4882630">
        <ele>160.7</ele>
        <time>2019-08-15T08:21:35Z</time>
      </trkpt>
      <trkpt lat="40.8491600" lon="-8.4883010">
        <ele>160.0</ele>
        <time>2019-08-15T08:21:36Z</time>
      </trkpt>
      <trkpt lat="40.8492360" lon="-8.4883400">
        <ele>159.4</ele>
        <time>2019-08-15T08:21:37Z</time>
      </trkpt>
      <trkpt lat="40.8493100" lon="-8.4883800">
        <ele>158.6</ele>
        <time>2019-08-15T08:21:38Z</time>
      </trkpt>
      <trkpt lat="40.8493890" lon="-8.4884180">
        <ele>157.8</ele>
        <time>2019-08-15T08:21:39Z</time>
      </trkpt>
      <trkpt lat="40.8494680" lon="-8.4884570">
        <ele>155.9</ele>
        <time>2019-08-15T08:21:40Z</time>
      </trkpt>
      <trkpt lat="40.8495420" lon="-8.4884990">
        <ele>155.1</ele>
        <time>2019-08-15T08:21:41Z</time>
      </trkpt>
      <trkpt lat="40.8496120" lon="-8.4885450">
        <ele>154.4</ele>
        <time>2019-08-15T08:21:42Z</time>
      </trkpt>
      <trkpt lat="40.8496490" lon="-8.4886080">
        <ele>153.8</ele>
        <time>2019-08-15T08:21:43Z</time>
      </trkpt>
      <trkpt lat="40.8496840" lon="-8.4886670">
        <ele>153.3</ele>
        <time>2019-08-15T08:21:44Z</time>
      </trkpt>
      <trkpt lat="40.8497140" lon="-8.4887190">
        <ele>152.8</ele>
        <time>2019-08-15T08:21:45Z</time>
      </trkpt>
      <trkpt lat="40.8497260" lon="-8.4887610">
        <ele>152.5</ele>
        <time>2019-08-15T08:21:46Z</time>
      </trkpt>
      <trkpt lat="40.8497480" lon="-8.4888050">
        <ele>152.1</ele>
        <time>2019-08-15T08:21:48Z</time>
      </trkpt>
      <trkpt lat="40.8497930" lon="-8.4889270">
        <ele>151.2</ele>
        <time>2019-08-15T08:21:51Z</time>
      </trkpt>
      <trkpt lat="40.8498090" lon="-8.4889980">
        <ele>150.6</ele>
        <time>2019-08-15T08:21:52Z</time>
      </trkpt>
      <trkpt lat="40.8498280" lon="-8.4890750">
        <ele>149.8</ele>
        <time>2019-08-15T08:21:53Z</time>
      </trkpt>
      <trkpt lat="40.8498560" lon="-8.4891510">
        <ele>148.6</ele>
        <time>2019-08-15T08:21:54Z</time>
      </trkpt>
      <trkpt lat="40.8498860" lon="-8.4892300">
        <ele>147.3</ele>
        <time>2019-08-15T08:21:55Z</time>
      </trkpt>
      <trkpt lat="40.8499130" lon="-8.4893140">
        <ele>145.9</ele>
        <time>2019-08-15T08:21:56Z</time>
      </trkpt>
      <trkpt lat="40.8499400" lon="-8.4894010">
        <ele>144.1</ele>
        <time>2019-08-15T08:21:57Z</time>
      </trkpt>
      <trkpt lat="40.8499760" lon="-8.4894910">
        <ele>141.9</ele>
        <time>2019-08-15T08:21:58Z</time>
      </trkpt>
      <trkpt lat="40.8500160" lon="-8.4895870">
        <ele>141.2</ele>
        <time>2019-08-15T08:21:59Z</time>
      </trkpt>
      <trkpt lat="40.8500560" lon="-8.4896810">
        <ele>140.9</ele>
        <time>2019-08-15T08:22:00Z</time>
      </trkpt>
      <trkpt lat="40.8501000" lon="-8.4897690">
        <ele>140.8</ele>
        <time>2019-08-15T08:22:01Z</time>
      </trkpt>
      <trkpt lat="40.8501480" lon="-8.4898500">
        <ele>140.7</ele>
        <time>2019-08-15T08:22:02Z</time>
      </trkpt>
      <trkpt lat="40.8501950" lon="-8.4899240">
        <ele>140.6</ele>
        <time>2019-08-15T08:22:03Z</time>
      </trkpt>
      <trkpt lat="40.8502410" lon="-8.4899940">
        <ele>140.6</ele>
        <time>2019-08-15T08:22:04Z</time>
      </trkpt>
      <trkpt lat="40.8502860" lon="-8.4900650">
        <ele>140.6</ele>
        <time>2019-08-15T08:22:05Z</time>
      </trkpt>
      <trkpt lat="40.8503280" lon="-8.4901340">
        <ele>140.7</ele>
        <time>2019-08-15T08:22:06Z</time>
      </trkpt>
      <trkpt lat="40.8504020" lon="-8.4902470">
        <ele>140.8</ele>
        <time>2019-08-15T08:22:08Z</time>
      </trkpt>
      <trkpt lat="40.8504640" lon="-8.4903340">
        <ele>140.9</ele>
        <time>2019-08-15T08:22:11Z</time>
      </trkpt>
      <trkpt lat="40.8504720" lon="-8.4903500">
        <ele>140.9</ele>
        <time>2019-08-15T08:22:12Z</time>
      </trkpt>
      <trkpt lat="40.8504780" lon="-8.4903620">
        <ele>140.9</ele>
        <time>2019-08-15T08:22:13Z</time>
      </trkpt>
      <trkpt lat="40.8504780" lon="-8.4903760">
        <ele>140.9</ele>
        <time>2019-08-15T08:22:14Z</time>
      </trkpt>
      <trkpt lat="40.8504490" lon="-8.4903810">
        <ele>140.9</ele>
        <time>2019-08-15T08:22:15Z</time>
      </trkpt>
      <trkpt lat="40.8504280" lon="-8.4903750">
        <ele>140.9</ele>
        <time>2019-08-15T08:22:16Z</time>
      </trkpt>
      <trkpt lat="40.8503490" lon="-8.4902110">
        <ele>140.8</ele>
        <time>2019-08-15T08:22:20Z</time>
      </trkpt>
      <trkpt lat="40.8504710" lon="-8.4901590">
        <ele>141.1</ele>
        <time>2019-08-15T08:22:26Z</time>
      </trkpt>
      <trkpt lat="40.8505350" lon="-8.4902150">
        <ele>141.3</ele>
        <time>2019-08-15T08:22:28Z</time>
      </trkpt>
      <trkpt lat="40.8506340" lon="-8.4903140">
        <ele>142.0</ele>
        <time>2019-08-15T08:22:32Z</time>
      </trkpt>
      <trkpt lat="40.8506960" lon="-8.4903820">
        <ele>142.7</ele>
        <time>2019-08-15T08:22:35Z</time>
      </trkpt>
      <trkpt lat="40.8507150" lon="-8.4904170">
        <ele>143.0</ele>
        <time>2019-08-15T08:22:36Z</time>
      </trkpt>
      <trkpt lat="40.8507450" lon="-8.4904390">
        <ele>143.3</ele>
        <time>2019-08-15T08:22:37Z</time>
      </trkpt>
      <trkpt lat="40.8507630" lon="-8.4904590">
        <ele>143.5</ele>
        <time>2019-08-15T08:22:38Z</time>
      </trkpt>
      <trkpt lat="40.8507840" lon="-8.4904800">
        <ele>143.8</ele>
        <time>2019-08-15T08:22:39Z</time>
      </trkpt>
      <trkpt lat="40.8509080" lon="-8.4905530">
        <ele>145.0</ele>
        <time>2019-08-15T08:22:45Z</time>
      </trkpt>
      <trkpt lat="40.8509310" lon="-8.4905580">
        <ele>145.2</ele>
        <time>2019-08-15T08:22:46Z</time>
      </trkpt>
      <trkpt lat="40.8509530" lon="-8.4905610">
        <ele>145.3</ele>
        <time>2019-08-15T08:22:47Z</time>
      </trkpt>
      <trkpt lat="40.8509770" lon="-8.4905650">
        <ele>145.5</ele>
        <time>2019-08-15T08:22:48Z</time>
      </trkpt>
      <trkpt lat="40.8509960" lon="-8.4905700">
        <ele>145.7</ele>
        <time>2019-08-15T08:22:49Z</time>
      </trkpt>
      <trkpt lat="40.8510260" lon="-8.4905620">
        <ele>145.9</ele>
        <time>2019-08-15T08:22:50Z</time>
      </trkpt>
      <trkpt lat="40.8510530" lon="-8.4905550">
        <ele>146.2</ele>
        <time>2019-08-15T08:22:51Z</time>
      </trkpt>
      <trkpt lat="40.8511010" lon="-8.4905320">
        <ele>146.5</ele>
        <time>2019-08-15T08:22:53Z</time>
      </trkpt>
      <trkpt lat="40.8512690" lon="-8.4904530">
        <ele>147.7</ele>
        <time>2019-08-15T08:23:00Z</time>
      </trkpt>
      <trkpt lat="40.8512910" lon="-8.4904380">
        <ele>147.8</ele>
        <time>2019-08-15T08:23:01Z</time>
      </trkpt>
      <trkpt lat="40.8513120" lon="-8.4904240">
        <ele>148.0</ele>
        <time>2019-08-15T08:23:02Z</time>
      </trkpt>
      <trkpt lat="40.8513370" lon="-8.4904070">
        <ele>148.2</ele>
        <time>2019-08-15T08:23:03Z</time>
      </trkpt>
      <trkpt lat="40.8513640" lon="-8.4903950">
        <ele>148.4</ele>
        <time>2019-08-15T08:23:04Z</time>
      </trkpt>
      <trkpt lat="40.8514140" lon="-8.4903990">
        <ele>148.7</ele>
        <time>2019-08-15T08:23:07Z</time>
      </trkpt>
      <trkpt lat="40.8515680" lon="-8.4904060">
        <ele>148.9</ele>
        <time>2019-08-15T08:23:13Z</time>
      </trkpt>
      <trkpt lat="40.8515940" lon="-8.4904100">
        <ele>149.0</ele>
        <time>2019-08-15T08:23:14Z</time>
      </trkpt>
      <trkpt lat="40.8516200" lon="-8.4904220">
        <ele>149.0</ele>
        <time>2019-08-15T08:23:15Z</time>
      </trkpt>
      <trkpt lat="40.8516380" lon="-8.4904450">
        <ele>149.0</ele>
        <time>2019-08-15T08:23:16Z</time>
      </trkpt>
      <trkpt lat="40.8516530" lon="-8.4904730">
        <ele>149.0</ele>
        <time>2019-08-15T08:23:17Z</time>
      </trkpt>
      <trkpt lat="40.8516770" lon="-8.4905320">
        <ele>149.0</ele>
        <time>2019-08-15T08:23:19Z</time>
      </trkpt>
      <trkpt lat="40.8517640" lon="-8.4907360">
        <ele>149.1</ele>
        <time>2019-08-15T08:23:26Z</time>
      </trkpt>
      <trkpt lat="40.8517760" lon="-8.4907620">
        <ele>149.2</ele>
        <time>2019-08-15T08:23:27Z</time>
      </trkpt>
      <trkpt lat="40.8517820" lon="-8.4907940">
        <ele>149.2</ele>
        <time>2019-08-15T08:23:28Z</time>
      </trkpt>
      <trkpt lat="40.8517850" lon="-8.4908230">
        <ele>149.2</ele>
        <time>2019-08-15T08:23:29Z</time>
      </trkpt>
      <trkpt lat="40.8517940" lon="-8.4908550">
        <ele>149.2</ele>
        <time>2019-08-15T08:23:30Z</time>
      </trkpt>
      <trkpt lat="40.8518180" lon="-8.4908920">
        <ele>149.2</ele>
        <time>2019-08-15T08:23:32Z</time>
      </trkpt>
      <trkpt lat="40.8518540" lon="-8.4908550">
        <ele>149.3</ele>
        <time>2019-08-15T08:23:34Z</time>
      </trkpt>
      <trkpt lat="40.8518740" lon="-8.4908240">
        <ele>149.4</ele>
        <time>2019-08-15T08:23:35Z</time>
      </trkpt>
      <trkpt lat="40.8519920" lon="-8.4907520">
        <ele>149.5</ele>
        <time>2019-08-15T08:23:40Z</time>
      </trkpt>
      <trkpt lat="40.8520240" lon="-8.4907580">
        <ele>149.5</ele>
        <time>2019-08-15T08:23:41Z</time>
      </trkpt>
      <trkpt lat="40.8522650" lon="-8.4907540">
        <ele>150.9</ele>
        <time>2019-08-15T08:23:47Z</time>
      </trkpt>
      <trkpt lat="40.8525410" lon="-8.4907290">
        <ele>151.6</ele>
        <time>2019-08-15T08:23:54Z</time>
      </trkpt>
      <trkpt lat="40.8527000" lon="-8.4907810">
        <ele>151.9</ele>
        <time>2019-08-15T08:23:59Z</time>
      </trkpt>
      <trkpt lat="40.8527550" lon="-8.4908020">
        <ele>152.0</ele>
        <time>2019-08-15T08:24:01Z</time>
      </trkpt>
      <trkpt lat="40.8527790" lon="-8.4908160">
        <ele>152.0</ele>
        <time>2019-08-15T08:24:02Z</time>
      </trkpt>
      <trkpt lat="40.8528040" lon="-8.4908280">
        <ele>152.0</ele>
        <time>2019-08-15T08:24:03Z</time>
      </trkpt>
      <trkpt lat="40.8528330" lon="-8.4908300">
        <ele>152.1</ele>
        <time>2019-08-15T08:24:04Z</time>
      </trkpt>
      <trkpt lat="40.8528550" lon="-8.4908550">
        <ele>152.1</ele>
        <time>2019-08-15T08:24:05Z</time>
      </trkpt>
      <trkpt lat="40.8529010" lon="-8.4909010">
        <ele>152.0</ele>
        <time>2019-08-15T08:24:07Z</time>
      </trkpt>
      <trkpt lat="40.8530990" lon="-8.4911030">
        <ele>153.1</ele>
        <time>2019-08-15T08:24:14Z</time>
      </trkpt>
      <trkpt lat="40.8533620" lon="-8.4912470">
        <ele>156.6</ele>
        <time>2019-08-15T08:24:22Z</time>
      </trkpt>
      <trkpt lat="40.8535610" lon="-8.4913670">
        <ele>157.9</ele>
        <time>2019-08-15T08:24:28Z</time>
      </trkpt>
      <trkpt lat="40.8535940" lon="-8.4913900">
        <ele>158.0</ele>
        <time>2019-08-15T08:24:29Z</time>
      </trkpt>
      <trkpt lat="40.8536260" lon="-8.4914110">
        <ele>158.1</ele>
        <time>2019-08-15T08:24:30Z</time>
      </trkpt>
      <trkpt lat="40.8536580" lon="-8.4914320">
        <ele>158.2</ele>
        <time>2019-08-15T08:24:31Z</time>
      </trkpt>
      <trkpt lat="40.8536890" lon="-8.4914510">
        <ele>158.2</ele>
        <time>2019-08-15T08:24:32Z</time>
      </trkpt>
      <trkpt lat="40.8538780" lon="-8.4915300">
        <ele>158.9</ele>
        <time>2019-08-15T08:24:38Z</time>
      </trkpt>
      <trkpt lat="40.8540030" lon="-8.4915390">
        <ele>159.8</ele>
        <time>2019-08-15T08:24:43Z</time>
      </trkpt>
      <trkpt lat="40.8541610" lon="-8.4914560">
        <ele>160.4</ele>
        <time>2019-08-15T08:24:49Z</time>
      </trkpt>
      <trkpt lat="40.8544600" lon="-8.4913190">
        <ele>160.6</ele>
        <time>2019-08-15T08:24:56Z</time>
      </trkpt>
      <trkpt lat="40.8546680" lon="-8.4912870">
        <ele>160.3</ele>
        <time>2019-08-15T08:25:00Z</time>
      </trkpt>
      <trkpt lat="40.8547700" lon="-8.4913080">
        <ele>160.1</ele>
        <time>2019-08-15T08:25:02Z</time>
      </trkpt>
      <trkpt lat="40.8548740" lon="-8.4913560">
        <ele>159.8</ele>
        <time>2019-08-15T08:25:04Z</time>
      </trkpt>
      <trkpt lat="40.8549590" lon="-8.4914340">
        <ele>159.5</ele>
        <time>2019-08-15T08:25:06Z</time>
      </trkpt>
      <trkpt lat="40.8552360" lon="-8.4917000">
        <ele>158.7</ele>
        <time>2019-08-15T08:25:13Z</time>
      </trkpt>
      <trkpt lat="40.8553210" lon="-8.4917620">
        <ele>158.7</ele>
        <time>2019-08-15T08:25:15Z</time>
      </trkpt>
      <trkpt lat="40.8554510" lon="-8.4918140">
        <ele>158.7</ele>
        <time>2019-08-15T08:25:18Z</time>
      </trkpt>
      <trkpt lat="40.8558400" lon="-8.4919850">
        <ele>158.7</ele>
        <time>2019-08-15T08:25:26Z</time>
      </trkpt>
      <trkpt lat="40.8562260" lon="-8.4921670">
        <ele>158.3</ele>
        <time>2019-08-15T08:25:33Z</time>
      </trkpt>
      <trkpt lat="40.8562790" lon="-8.4922000">
        <ele>158.2</ele>
        <time>2019-08-15T08:25:34Z</time>
      </trkpt>
      <trkpt lat="40.8563280" lon="-8.4922320">
        <ele>158.0</ele>
        <time>2019-08-15T08:25:35Z</time>
      </trkpt>
      <trkpt lat="40.8563730" lon="-8.4922630">
        <ele>157.9</ele>
        <time>2019-08-15T08:25:36Z</time>
      </trkpt>
      <trkpt lat="40.8564110" lon="-8.4922970">
        <ele>157.8</ele>
        <time>2019-08-15T08:25:37Z</time>
      </trkpt>
      <trkpt lat="40.8564400" lon="-8.4923500">
        <ele>157.4</ele>
        <time>2019-08-15T08:25:38Z</time>
      </trkpt>
      <trkpt lat="40.8564650" lon="-8.4924070">
        <ele>157.1</ele>
        <time>2019-08-15T08:25:39Z</time>
      </trkpt>
      <trkpt lat="40.8565320" lon="-8.4926160">
        <ele>156.0</ele>
        <time>2019-08-15T08:25:42Z</time>
      </trkpt>
      <trkpt lat="40.8565560" lon="-8.4926870">
        <ele>155.5</ele>
        <time>2019-08-15T08:25:43Z</time>
      </trkpt>
      <trkpt lat="40.8565850" lon="-8.4927470">
        <ele>155.0</ele>
        <time>2019-08-15T08:25:44Z</time>
      </trkpt>
      <trkpt lat="40.8566640" lon="-8.4928810">
        <ele>153.2</ele>
        <time>2019-08-15T08:25:47Z</time>
      </trkpt>
      <trkpt lat="40.8567110" lon="-8.4930420">
        <ele>152.7</ele>
        <time>2019-08-15T08:25:51Z</time>
      </trkpt>
      <trkpt lat="40.8567290" lon="-8.4930950">
        <ele>152.6</ele>
        <time>2019-08-15T08:25:52Z</time>
      </trkpt>
      <trkpt lat="40.8567450" lon="-8.4931470">
        <ele>152.4</ele>
        <time>2019-08-15T08:25:53Z</time>
      </trkpt>
      <trkpt lat="40.8567630" lon="-8.4931980">
        <ele>152.2</ele>
        <time>2019-08-15T08:25:54Z</time>
      </trkpt>
      <trkpt lat="40.8567850" lon="-8.4932440">
        <ele>152.0</ele>
        <time>2019-08-15T08:25:55Z</time>
      </trkpt>
      <trkpt lat="40.8568200" lon="-8.4932930">
        <ele>151.6</ele>
        <time>2019-08-15T08:25:56Z</time>
      </trkpt>
      <trkpt lat="40.8568520" lon="-8.4933460">
        <ele>151.1</ele>
        <time>2019-08-15T08:25:57Z</time>
      </trkpt>
      <trkpt lat="40.8568830" lon="-8.4934010">
        <ele>150.3</ele>
        <time>2019-08-15T08:25:58Z</time>
      </trkpt>
      <trkpt lat="40.8569130" lon="-8.4934570">
        <ele>149.8</ele>
        <time>2019-08-15T08:25:59Z</time>
      </trkpt>
      <trkpt lat="40.8569430" lon="-8.4935170">
        <ele>149.3</ele>
        <time>2019-08-15T08:26:00Z</time>
      </trkpt>
      <trkpt lat="40.8569770" lon="-8.4935810">
        <ele>148.7</ele>
        <time>2019-08-15T08:26:01Z</time>
      </trkpt>
      <trkpt lat="40.8570100" lon="-8.4936430">
        <ele>148.1</ele>
        <time>2019-08-15T08:26:02Z</time>
      </trkpt>
      <trkpt lat="40.8570470" lon="-8.4937050">
        <ele>147.2</ele>
        <time>2019-08-15T08:26:03Z</time>
      </trkpt>
      <trkpt lat="40.8570790" lon="-8.4937720">
        <ele>146.6</ele>
        <time>2019-08-15T08:26:04Z</time>
      </trkpt>
      <trkpt lat="40.8571130" lon="-8.4938410">
        <ele>145.9</ele>
        <time>2019-08-15T08:26:05Z</time>
      </trkpt>
      <trkpt lat="40.8571480" lon="-8.4939120">
        <ele>145.1</ele>
        <time>2019-08-15T08:26:06Z</time>
      </trkpt>
      <trkpt lat="40.8571870" lon="-8.4939860">
        <ele>144.1</ele>
        <time>2019-08-15T08:26:07Z</time>
      </trkpt>
      <trkpt lat="40.8572180" lon="-8.4940580">
        <ele>143.3</ele>
        <time>2019-08-15T08:26:08Z</time>
      </trkpt>
      <trkpt lat="40.8572540" lon="-8.4941330">
        <ele>142.8</ele>
        <time>2019-08-15T08:26:09Z</time>
      </trkpt>
      <trkpt lat="40.8572920" lon="-8.4942060">
        <ele>142.3</ele>
        <time>2019-08-15T08:26:10Z</time>
      </trkpt>
      <trkpt lat="40.8573240" lon="-8.4942800">
        <ele>141.8</ele>
        <time>2019-08-15T08:26:11Z</time>
      </trkpt>
      <trkpt lat="40.8573570" lon="-8.4943520">
        <ele>141.4</ele>
        <time>2019-08-15T08:26:12Z</time>
      </trkpt>
      <trkpt lat="40.8573940" lon="-8.4944230">
        <ele>141.1</ele>
        <time>2019-08-15T08:26:13Z</time>
      </trkpt>
      <trkpt lat="40.8574240" lon="-8.4944960">
        <ele>140.9</ele>
        <time>2019-08-15T08:26:14Z</time>
      </trkpt>
      <trkpt lat="40.8574480" lon="-8.4945620">
        <ele>140.6</ele>
        <time>2019-08-15T08:26:15Z</time>
      </trkpt>
      <trkpt lat="40.8574720" lon="-8.4946200">
        <ele>140.5</ele>
        <time>2019-08-15T08:26:16Z</time>
      </trkpt>
      <trkpt lat="40.8574980" lon="-8.4946720">
        <ele>140.4</ele>
        <time>2019-08-15T08:26:17Z</time>
      </trkpt>
      <trkpt lat="40.8575230" lon="-8.4947170">
        <ele>140.4</ele>
        <time>2019-08-15T08:26:18Z</time>
      </trkpt>
      <trkpt lat="40.8575440" lon="-8.4947520">
        <ele>139.9</ele>
        <time>2019-08-15T08:26:19Z</time>
      </trkpt>
      <trkpt lat="40.8575650" lon="-8.4947800">
        <ele>139.5</ele>
        <time>2019-08-15T08:26:20Z</time>
      </trkpt>
      <trkpt lat="40.8575810" lon="-8.4948140">
        <ele>139.1</ele>
        <time>2019-08-15T08:26:21Z</time>
      </trkpt>
      <trkpt lat="40.8575980" lon="-8.4948570">
        <ele>138.7</ele>
        <time>2019-08-15T08:26:22Z</time>
      </trkpt>
      <trkpt lat="40.8576600" lon="-8.4950400">
        <ele>136.9</ele>
        <time>2019-08-15T08:26:25Z</time>
      </trkpt>
      <trkpt lat="40.8576830" lon="-8.4951160">
        <ele>136.1</ele>
        <time>2019-08-15T08:26:26Z</time>
      </trkpt>
      <trkpt lat="40.8577110" lon="-8.4952030">
        <ele>135.3</ele>
        <time>2019-08-15T08:26:27Z</time>
      </trkpt>
      <trkpt lat="40.8577370" lon="-8.4952910">
        <ele>134.7</ele>
        <time>2019-08-15T08:26:28Z</time>
      </trkpt>
      <trkpt lat="40.8577660" lon="-8.4953850">
        <ele>134.0</ele>
        <time>2019-08-15T08:26:29Z</time>
      </trkpt>
      <trkpt lat="40.8577890" lon="-8.4954780">
        <ele>133.4</ele>
        <time>2019-08-15T08:26:30Z</time>
      </trkpt>
      <trkpt lat="40.8577980" lon="-8.4955740">
        <ele>132.9</ele>
        <time>2019-08-15T08:26:31Z</time>
      </trkpt>
      <trkpt lat="40.8578170" lon="-8.4956640">
        <ele>132.4</ele>
        <time>2019-08-15T08:26:32Z</time>
      </trkpt>
      <trkpt lat="40.8578340" lon="-8.4957530">
        <ele>132.0</ele>
        <time>2019-08-15T08:26:33Z</time>
      </trkpt>
      <trkpt lat="40.8578510" lon="-8.4958460">
        <ele>131.5</ele>
        <time>2019-08-15T08:26:34Z</time>
      </trkpt>
      <trkpt lat="40.8578680" lon="-8.4959330">
        <ele>131.0</ele>
        <time>2019-08-15T08:26:35Z</time>
      </trkpt>
      <trkpt lat="40.8578850" lon="-8.4960240">
        <ele>130.6</ele>
        <time>2019-08-15T08:26:36Z</time>
      </trkpt>
      <trkpt lat="40.8578990" lon="-8.4961120">
        <ele>130.1</ele>
        <time>2019-08-15T08:26:37Z</time>
      </trkpt>
      <trkpt lat="40.8579160" lon="-8.4961940">
        <ele>129.7</ele>
        <time>2019-08-15T08:26:38Z</time>
      </trkpt>
      <trkpt lat="40.8579300" lon="-8.4962700">
        <ele>129.3</ele>
        <time>2019-08-15T08:26:39Z</time>
      </trkpt>
      <trkpt lat="40.8579530" lon="-8.4964000">
        <ele>128.6</ele>
        <time>2019-08-15T08:26:41Z</time>
      </trkpt>
      <trkpt lat="40.8579750" lon="-8.4964960">
        <ele>127.6</ele>
        <time>2019-08-15T08:26:43Z</time>
      </trkpt>
      <trkpt lat="40.8579990" lon="-8.4965340">
        <ele>127.0</ele>
        <time>2019-08-15T08:26:44Z</time>
      </trkpt>
      <trkpt lat="40.8580190" lon="-8.4965640">
        <ele>126.5</ele>
        <time>2019-08-15T08:26:45Z</time>
      </trkpt>
      <trkpt lat="40.8580290" lon="-8.4965840">
        <ele>126.2</ele>
        <time>2019-08-15T08:26:46Z</time>
      </trkpt>
      <trkpt lat="40.8580320" lon="-8.4965950">
        <ele>126.1</ele>
        <time>2019-08-15T08:26:47Z</time>
      </trkpt>
      <trkpt lat="40.8580450" lon="-8.4966120">
        <ele>125.8</ele>
        <time>2019-08-15T08:26:50Z</time>
      </trkpt>
      <trkpt lat="40.8580510" lon="-8.4966130">
        <ele>125.8</ele>
        <time>2019-08-15T08:29:19Z</time>
      </trkpt>
      <trkpt lat="40.8580650" lon="-8.4967100">
        <ele>124.7</ele>
        <time>2019-08-15T08:29:22Z</time>
      </trkpt>
      <trkpt lat="40.8580800" lon="-8.4970150">
        <ele>121.6</ele>
        <time>2019-08-15T08:29:27Z</time>
      </trkpt>
      <trkpt lat="40.8580900" lon="-8.4970820">
        <ele>121.0</ele>
        <time>2019-08-15T08:29:28Z</time>
      </trkpt>
      <trkpt lat="40.8581070" lon="-8.4971530">
        <ele>120.3</ele>
        <time>2019-08-15T08:29:29Z</time>
      </trkpt>
      <trkpt lat="40.8581270" lon="-8.4972240">
        <ele>119.6</ele>
        <time>2019-08-15T08:29:30Z</time>
      </trkpt>
      <trkpt lat="40.8581480" lon="-8.4972940">
        <ele>118.9</ele>
        <time>2019-08-15T08:29:31Z</time>
      </trkpt>
      <trkpt lat="40.8581710" lon="-8.4973630">
        <ele>118.3</ele>
        <time>2019-08-15T08:29:32Z</time>
      </trkpt>
      <trkpt lat="40.8581950" lon="-8.4974270">
        <ele>117.5</ele>
        <time>2019-08-15T08:29:33Z</time>
      </trkpt>
      <trkpt lat="40.8582100" lon="-8.4974860">
        <ele>117.1</ele>
        <time>2019-08-15T08:29:34Z</time>
      </trkpt>
      <trkpt lat="40.8582150" lon="-8.4975450">
        <ele>117.2</ele>
        <time>2019-08-15T08:29:35Z</time>
      </trkpt>
      <trkpt lat="40.8582270" lon="-8.4975790">
        <ele>117.3</ele>
        <time>2019-08-15T08:29:36Z</time>
      </trkpt>
      <trkpt lat="40.8582290" lon="-8.4976230">
        <ele>117.3</ele>
        <time>2019-08-15T08:29:37Z</time>
      </trkpt>
      <trkpt lat="40.8583310" lon="-8.4979310">
        <ele>119.1</ele>
        <time>2019-08-15T08:29:43Z</time>
      </trkpt>
      <trkpt lat="40.8584180" lon="-8.4981720">
        <ele>121.0</ele>
        <time>2019-08-15T08:29:47Z</time>
      </trkpt>
      <trkpt lat="40.8584470" lon="-8.4982150">
        <ele>121.5</ele>
        <time>2019-08-15T08:29:48Z</time>
      </trkpt>
      <trkpt lat="40.8585270" lon="-8.4982920">
        <ele>122.1</ele>
        <time>2019-08-15T08:29:52Z</time>
      </trkpt>
      <trkpt lat="40.8585920" lon="-8.4982660">
        <ele>122.3</ele>
        <time>2019-08-15T08:29:54Z</time>
      </trkpt>
      <trkpt lat="40.8586570" lon="-8.4982600">
        <ele>122.6</ele>
        <time>2019-08-15T08:29:56Z</time>
      </trkpt>
      <trkpt lat="40.8588370" lon="-8.4982290">
        <ele>123.4</ele>
        <time>2019-08-15T08:30:02Z</time>
      </trkpt>
      <trkpt lat="40.8588680" lon="-8.4982270">
        <ele>123.6</ele>
        <time>2019-08-15T08:30:03Z</time>
      </trkpt>
      <trkpt lat="40.8589050" lon="-8.4982230">
        <ele>123.7</ele>
        <time>2019-08-15T08:30:04Z</time>
      </trkpt>
      <trkpt lat="40.8589370" lon="-8.4982180">
        <ele>123.9</ele>
        <time>2019-08-15T08:30:05Z</time>
      </trkpt>
      <trkpt lat="40.8589710" lon="-8.4982110">
        <ele>124.0</ele>
        <time>2019-08-15T08:30:06Z</time>
      </trkpt>
      <trkpt lat="40.8591750" lon="-8.4981870">
        <ele>124.9</ele>
        <time>2019-08-15T08:30:13Z</time>
      </trkpt>
      <trkpt lat="40.8592040" lon="-8.4981860">
        <ele>125.0</ele>
        <time>2019-08-15T08:30:14Z</time>
      </trkpt>
      <trkpt lat="40.8592350" lon="-8.4981830">
        <ele>125.1</ele>
        <time>2019-08-15T08:30:15Z</time>
      </trkpt>
      <trkpt lat="40.8592610" lon="-8.4981800">
        <ele>125.2</ele>
        <time>2019-08-15T08:30:16Z</time>
      </trkpt>
      <trkpt lat="40.8592870" lon="-8.4981760">
        <ele>125.4</ele>
        <time>2019-08-15T08:30:17Z</time>
      </trkpt>
      <trkpt lat="40.8593150" lon="-8.4981720">
        <ele>125.5</ele>
        <time>2019-08-15T08:30:18Z</time>
      </trkpt>
      <trkpt lat="40.8593740" lon="-8.4981620">
        <ele>125.8</ele>
        <time>2019-08-15T08:30:20Z</time>
      </trkpt>
      <trkpt lat="40.8595640" lon="-8.4981610">
        <ele>126.7</ele>
        <time>2019-08-15T08:30:26Z</time>
      </trkpt>
      <trkpt lat="40.8595780" lon="-8.4981840">
        <ele>126.8</ele>
        <time>2019-08-15T08:30:27Z</time>
      </trkpt>
      <trkpt lat="40.8596090" lon="-8.4981910">
        <ele>126.9</ele>
        <time>2019-08-15T08:30:28Z</time>
      </trkpt>
      <trkpt lat="40.8596430" lon="-8.4981970">
        <ele>127.0</ele>
        <time>2019-08-15T08:30:29Z</time>
      </trkpt>
      <trkpt lat="40.8596740" lon="-8.4982080">
        <ele>127.1</ele>
        <time>2019-08-15T08:30:30Z</time>
      </trkpt>
      <trkpt lat="40.8598290" lon="-8.4982870">
        <ele>127.7</ele>
        <time>2019-08-15T08:30:36Z</time>
      </trkpt>
      <trkpt lat="40.8598560" lon="-8.4983010">
        <ele>127.8</ele>
        <time>2019-08-15T08:30:37Z</time>
      </trkpt>
      <trkpt lat="40.8598780" lon="-8.4983150">
        <ele>127.9</ele>
        <time>2019-08-15T08:30:38Z</time>
      </trkpt>
      <trkpt lat="40.8599020" lon="-8.4983220">
        <ele>127.9</ele>
        <time>2019-08-15T08:30:39Z</time>
      </trkpt>
      <trkpt lat="40.8599320" lon="-8.4983300">
        <ele>128.0</ele>
        <time>2019-08-15T08:30:40Z</time>
      </trkpt>
      <trkpt lat="40.8599600" lon="-8.4983370">
        <ele>128.1</ele>
        <time>2019-08-15T08:30:41Z</time>
      </trkpt>
      <trkpt lat="40.8600200" lon="-8.4983460">
        <ele>128.2</ele>
        <time>2019-08-15T08:30:43Z</time>
      </trkpt>
      <trkpt lat="40.8600780" lon="-8.4983480">
        <ele>128.4</ele>
        <time>2019-08-15T08:30:45Z</time>
      </trkpt>
      <trkpt lat="40.8602580" lon="-8.4983490">
        <ele>128.6</ele>
        <time>2019-08-15T08:30:51Z</time>
      </trkpt>
      <trkpt lat="40.8602870" lon="-8.4983490">
        <ele>128.7</ele>
        <time>2019-08-15T08:30:52Z</time>
      </trkpt>
      <trkpt lat="40.8603180" lon="-8.4983500">
        <ele>128.7</ele>
        <time>2019-08-15T08:30:53Z</time>
      </trkpt>
      <trkpt lat="40.8603480" lon="-8.4983550">
        <ele>128.7</ele>
        <time>2019-08-15T08:30:54Z</time>
      </trkpt>
      <trkpt lat="40.8603890" lon="-8.4983620">
        <ele>128.7</ele>
        <time>2019-08-15T08:30:55Z</time>
      </trkpt>
      <trkpt lat="40.8605930" lon="-8.4983860">
        <ele>128.8</ele>
        <time>2019-08-15T08:31:02Z</time>
      </trkpt>
      <trkpt lat="40.8606200" lon="-8.4983850">
        <ele>128.7</ele>
        <time>2019-08-15T08:31:03Z</time>
      </trkpt>
      <trkpt lat="40.8606480" lon="-8.4983850">
        <ele>128.7</ele>
        <time>2019-08-15T08:31:04Z</time>
      </trkpt>
      <trkpt lat="40.8606730" lon="-8.4983880">
        <ele>128.7</ele>
        <time>2019-08-15T08:31:05Z</time>
      </trkpt>
      <trkpt lat="40.8606980" lon="-8.4983890">
        <ele>128.7</ele>
        <time>2019-08-15T08:31:06Z</time>
      </trkpt>
      <trkpt lat="40.8607280" lon="-8.4983900">
        <ele>128.7</ele>
        <time>2019-08-15T08:31:07Z</time>
      </trkpt>
      <trkpt lat="40.8608080" lon="-8.4984050">
        <ele>128.6</ele>
        <time>2019-08-15T08:31:10Z</time>
      </trkpt>
      <trkpt lat="40.8608580" lon="-8.4984070">
        <ele>128.5</ele>
        <time>2019-08-15T08:31:12Z</time>
      </trkpt>
      <trkpt lat="40.8608840" lon="-8.4984020">
        <ele>128.5</ele>
        <time>2019-08-15T08:31:13Z</time>
      </trkpt>
      <trkpt lat="40.8609110" lon="-8.4983940">
        <ele>128.5</ele>
        <time>2019-08-15T08:31:14Z</time>
      </trkpt>
      <trkpt lat="40.8609390" lon="-8.4983920">
        <ele>128.4</ele>
        <time>2019-08-15T08:31:15Z</time>
      </trkpt>
      <trkpt lat="40.8609690" lon="-8.4983940">
        <ele>128.4</ele>
        <time>2019-08-15T08:31:16Z</time>
      </trkpt>
      <trkpt lat="40.8609970" lon="-8.4983950">
        <ele>128.4</ele>
        <time>2019-08-15T08:31:17Z</time>
      </trkpt>
      <trkpt lat="40.8612000" lon="-8.4984280">
        <ele>130.0</ele>
        <time>2019-08-15T08:31:24Z</time>
      </trkpt>
      <trkpt lat="40.8615300" lon="-8.4984610">
        <ele>131.5</ele>
        <time>2019-08-15T08:31:32Z</time>
      </trkpt>
      <trkpt lat="40.8618690" lon="-8.4985140">
        <ele>132.7</ele>
        <time>2019-08-15T08:31:40Z</time>
      </trkpt>
      <trkpt lat="40.8622000" lon="-8.4985610">
        <ele>135.0</ele>
        <time>2019-08-15T08:31:47Z</time>
      </trkpt>
      <trkpt lat="40.8622540" lon="-8.4985460">
        <ele>135.2</ele>
        <time>2019-08-15T08:31:48Z</time>
      </trkpt>
      <trkpt lat="40.8623020" lon="-8.4984930">
        <ele>135.4</ele>
        <time>2019-08-15T08:31:49Z</time>
      </trkpt>
      <trkpt lat="40.8623350" lon="-8.4984300">
        <ele>135.4</ele>
        <time>2019-08-15T08:31:50Z</time>
      </trkpt>
      <trkpt lat="40.8623650" lon="-8.4983540">
        <ele>135.4</ele>
        <time>2019-08-15T08:31:51Z</time>
      </trkpt>
      <trkpt lat="40.8623980" lon="-8.4982820">
        <ele>135.3</ele>
        <time>2019-08-15T08:31:52Z</time>
      </trkpt>
      <trkpt lat="40.8624340" lon="-8.4982090">
        <ele>135.1</ele>
        <time>2019-08-15T08:31:53Z</time>
      </trkpt>
      <trkpt lat="40.8625680" lon="-8.4979910">
        <ele>134.4</ele>
        <time>2019-08-15T08:31:56Z</time>
      </trkpt>
      <trkpt lat="40.8626270" lon="-8.4979020">
        <ele>134.2</ele>
        <time>2019-08-15T08:31:57Z</time>
      </trkpt>
      <trkpt lat="40.8626860" lon="-8.4978180">
        <ele>133.9</ele>
        <time>2019-08-15T08:31:58Z</time>
      </trkpt>
      <trkpt lat="40.8627360" lon="-8.4977440">
        <ele>133.5</ele>
        <time>2019-08-15T08:31:59Z</time>
      </trkpt>
      <trkpt lat="40.8627900" lon="-8.4976750">
        <ele>133.2</ele>
        <time>2019-08-15T08:32:00Z</time>
      </trkpt>
      <trkpt lat="40.8629280" lon="-8.4975330">
        <ele>132.6</ele>
        <time>2019-08-15T08:32:02Z</time>
      </trkpt>
      <trkpt lat="40.8629930" lon="-8.4974710">
        <ele>132.3</ele>
        <time>2019-08-15T08:32:03Z</time>
      </trkpt>
      <trkpt lat="40.8630710" lon="-8.4974330">
        <ele>132.0</ele>
        <time>2019-08-15T08:32:04Z</time>
      </trkpt>
      <trkpt lat="40.8631470" lon="-8.4973880">
        <ele>131.7</ele>
        <time>2019-08-15T08:32:05Z</time>
      </trkpt>
      <trkpt lat="40.8632270" lon="-8.4973470">
        <ele>131.4</ele>
        <time>2019-08-15T08:32:06Z</time>
      </trkpt>
      <trkpt lat="40.8635880" lon="-8.4971360">
        <ele>130.4</ele>
        <time>2019-08-15T08:32:11Z</time>
      </trkpt>
      <trkpt lat="40.8637590" lon="-8.4969970">
        <ele>130.1</ele>
        <time>2019-08-15T08:32:14Z</time>
      </trkpt>
      <trkpt lat="40.8638180" lon="-8.4968640">
        <ele>130.0</ele>
        <time>2019-08-15T08:32:16Z</time>
      </trkpt>
      <trkpt lat="40.8640080" lon="-8.4964940">
        <ele>129.9</ele>
        <time>2019-08-15T08:32:23Z</time>
      </trkpt>
      <trkpt lat="40.8641740" lon="-8.4962370">
        <ele>129.9</ele>
        <time>2019-08-15T08:32:30Z</time>
      </trkpt>
      <trkpt lat="40.8641830" lon="-8.4961860">
        <ele>129.9</ele>
        <time>2019-08-15T08:32:31Z</time>
      </trkpt>
      <trkpt lat="40.8641860" lon="-8.4961350">
        <ele>129.8</ele>
        <time>2019-08-15T08:32:32Z</time>
      </trkpt>
      <trkpt lat="40.8641870" lon="-8.4960820">
        <ele>129.8</ele>
        <time>2019-08-15T08:32:33Z</time>
      </trkpt>
      <trkpt lat="40.8641880" lon="-8.4960330">
        <ele>129.8</ele>
        <time>2019-08-15T08:32:34Z</time>
      </trkpt>
      <trkpt lat="40.8641770" lon="-8.4959730">
        <ele>129.7</ele>
        <time>2019-08-15T08:32:35Z</time>
      </trkpt>
      <trkpt lat="40.8641860" lon="-8.4957120">
        <ele>130.1</ele>
        <time>2019-08-15T08:32:40Z</time>
      </trkpt>
      <trkpt lat="40.8641920" lon="-8.4956620">
        <ele>130.2</ele>
        <time>2019-08-15T08:32:41Z</time>
      </trkpt>
      <trkpt lat="40.8642060" lon="-8.4956170">
        <ele>130.4</ele>
        <time>2019-08-15T08:32:42Z</time>
      </trkpt>
      <trkpt lat="40.8642170" lon="-8.4955700">
        <ele>130.5</ele>
        <time>2019-08-15T08:32:43Z</time>
      </trkpt>
      <trkpt lat="40.8642300" lon="-8.4955290">
        <ele>130.7</ele>
        <time>2019-08-15T08:32:44Z</time>
      </trkpt>
      <trkpt lat="40.8642450" lon="-8.4954840">
        <ele>130.9</ele>
        <time>2019-08-15T08:32:45Z</time>
      </trkpt>
      <trkpt lat="40.8643430" lon="-8.4952880">
        <ele>131.8</ele>
        <time>2019-08-15T08:32:50Z</time>
      </trkpt>
      <trkpt lat="40.8643680" lon="-8.4952550">
        <ele>132.0</ele>
        <time>2019-08-15T08:32:51Z</time>
      </trkpt>
      <trkpt lat="40.8643990" lon="-8.4952230">
        <ele>132.2</ele>
        <time>2019-08-15T08:32:52Z</time>
      </trkpt>
      <trkpt lat="40.8644290" lon="-8.4951940">
        <ele>132.3</ele>
        <time>2019-08-15T08:32:53Z</time>
      </trkpt>
      <trkpt lat="40.8644520" lon="-8.4951650">
        <ele>132.5</ele>
        <time>2019-08-15T08:32:54Z</time>
      </trkpt>
      <trkpt lat="40.8645420" lon="-8.4950710">
        <ele>133.0</ele>
        <time>2019-08-15T08:32:57Z</time>
      </trkpt>
      <trkpt lat="40.8647520" lon="-8.4948940">
        <ele>133.4</ele>
        <time>2019-08-15T08:33:04Z</time>
      </trkpt>
      <trkpt lat="40.8647740" lon="-8.4948790">
        <ele>133.4</ele>
        <time>2019-08-15T08:33:05Z</time>
      </trkpt>
      <trkpt lat="40.8648030" lon="-8.4948640">
        <ele>133.4</ele>
        <time>2019-08-15T08:33:06Z</time>
      </trkpt>
      <trkpt lat="40.8648320" lon="-8.4948520">
        <ele>133.5</ele>
        <time>2019-08-15T08:33:07Z</time>
      </trkpt>
      <trkpt lat="40.8648690" lon="-8.4948510">
        <ele>133.6</ele>
        <time>2019-08-15T08:33:08Z</time>
      </trkpt>
      <trkpt lat="40.8649350" lon="-8.4948490">
        <ele>133.9</ele>
        <time>2019-08-15T08:33:10Z</time>
      </trkpt>
      <trkpt lat="40.8651910" lon="-8.4948270">
        <ele>134.1</ele>
        <time>2019-08-15T08:33:18Z</time>
      </trkpt>
      <trkpt lat="40.8654280" lon="-8.4948480">
        <ele>133.9</ele>
        <time>2019-08-15T08:33:25Z</time>
      </trkpt>
      <trkpt lat="40.8657740" lon="-8.4948540">
        <ele>134.4</ele>
        <time>2019-08-15T08:33:34Z</time>
      </trkpt>
      <trkpt lat="40.8660070" lon="-8.4947540">
        <ele>134.3</ele>
        <time>2019-08-15T08:33:40Z</time>
      </trkpt>
      <trkpt lat="40.8660390" lon="-8.4947230">
        <ele>134.2</ele>
        <time>2019-08-15T08:33:41Z</time>
      </trkpt>
      <trkpt lat="40.8661120" lon="-8.4946050">
        <ele>133.5</ele>
        <time>2019-08-15T08:33:44Z</time>
      </trkpt>
      <trkpt lat="40.8661580" lon="-8.4945240">
        <ele>133.1</ele>
        <time>2019-08-15T08:33:46Z</time>
      </trkpt>
      <trkpt lat="40.8663750" lon="-8.4941250">
        <ele>132.6</ele>
        <time>2019-08-15T08:33:56Z</time>
      </trkpt>
      <trkpt lat="40.8664240" lon="-8.4940410">
        <ele>132.8</ele>
        <time>2019-08-15T08:34:01Z</time>
      </trkpt>
      <trkpt lat="40.8664530" lon="-8.4940070">
        <ele>132.8</ele>
        <time>2019-08-15T08:34:03Z</time>
      </trkpt>
      <trkpt lat="40.8664970" lon="-8.4939500">
        <ele>132.9</ele>
        <time>2019-08-15T08:34:05Z</time>
      </trkpt>
      <trkpt lat="40.8665960" lon="-8.4939510">
        <ele>133.2</ele>
        <time>2019-08-15T08:34:08Z</time>
      </trkpt>
      <trkpt lat="40.8666300" lon="-8.4939530">
        <ele>133.4</ele>
        <time>2019-08-15T08:34:09Z</time>
      </trkpt>
      <trkpt lat="40.8666620" lon="-8.4939560">
        <ele>133.5</ele>
        <time>2019-08-15T08:34:10Z</time>
      </trkpt>
      <trkpt lat="40.8666950" lon="-8.4939580">
        <ele>133.6</ele>
        <time>2019-08-15T08:34:11Z</time>
      </trkpt>
      <trkpt lat="40.8667280" lon="-8.4939610">
        <ele>133.8</ele>
        <time>2019-08-15T08:34:12Z</time>
      </trkpt>
      <trkpt lat="40.8667630" lon="-8.4939640">
        <ele>133.9</ele>
        <time>2019-08-15T08:34:13Z</time>
      </trkpt>
      <trkpt lat="40.8669040" lon="-8.4939620">
        <ele>134.3</ele>
        <time>2019-08-15T08:34:18Z</time>
      </trkpt>
      <trkpt lat="40.8669730" lon="-8.4939660">
        <ele>134.5</ele>
        <time>2019-08-15T08:34:20Z</time>
      </trkpt>
      <trkpt lat="40.8670070" lon="-8.4939700">
        <ele>134.6</ele>
        <time>2019-08-15T08:34:21Z</time>
      </trkpt>
      <trkpt lat="40.8670400" lon="-8.4939740">
        <ele>134.7</ele>
        <time>2019-08-15T08:34:22Z</time>
      </trkpt>
      <trkpt lat="40.8670700" lon="-8.4939800">
        <ele>134.8</ele>
        <time>2019-08-15T08:34:23Z</time>
      </trkpt>
      <trkpt lat="40.8671010" lon="-8.4939850">
        <ele>134.9</ele>
        <time>2019-08-15T08:34:24Z</time>
      </trkpt>
      <trkpt lat="40.8671540" lon="-8.4939990">
        <ele>135.0</ele>
        <time>2019-08-15T08:34:26Z</time>
      </trkpt>
      <trkpt lat="40.8673120" lon="-8.4941420">
        <ele>135.6</ele>
        <time>2019-08-15T08:34:32Z</time>
      </trkpt>
      <trkpt lat="40.8674340" lon="-8.4942830">
        <ele>136.5</ele>
        <time>2019-08-15T08:34:37Z</time>
      </trkpt>
      <trkpt lat="40.8674650" lon="-8.4943140">
        <ele>136.8</ele>
        <time>2019-08-15T08:34:38Z</time>
      </trkpt>
      <trkpt lat="40.8674940" lon="-8.4943410">
        <ele>137.1</ele>
        <time>2019-08-15T08:34:39Z</time>
      </trkpt>
      <trkpt lat="40.8675240" lon="-8.4943700">
        <ele>137.4</ele>
        <time>2019-08-15T08:34:40Z</time>
      </trkpt>
      <trkpt lat="40.8675540" lon="-8.4943980">
        <ele>137.7</ele>
        <time>2019-08-15T08:34:41Z</time>
      </trkpt>
      <trkpt lat="40.8677350" lon="-8.4945590">
        <ele>138.8</ele>
        <time>2019-08-15T08:34:47Z</time>
      </trkpt>
      <trkpt lat="40.8679940" lon="-8.4948020">
        <ele>139.9</ele>
        <time>2019-08-15T08:34:55Z</time>
      </trkpt>
      <trkpt lat="40.8681690" lon="-8.4949870">
        <ele>140.5</ele>
        <time>2019-08-15T08:35:01Z</time>
      </trkpt>
      <trkpt lat="40.8682010" lon="-8.4950140">
        <ele>140.6</ele>
        <time>2019-08-15T08:35:02Z</time>
      </trkpt>
      <trkpt lat="40.8682350" lon="-8.4950500">
        <ele>140.8</ele>
        <time>2019-08-15T08:35:03Z</time>
      </trkpt>
      <trkpt lat="40.8682680" lon="-8.4950770">
        <ele>141.0</ele>
        <time>2019-08-15T08:35:04Z</time>
      </trkpt>
      <trkpt lat="40.8683000" lon="-8.4951040">
        <ele>141.1</ele>
        <time>2019-08-15T08:35:05Z</time>
      </trkpt>
      <trkpt lat="40.8685060" lon="-8.4951770">
        <ele>141.7</ele>
        <time>2019-08-15T08:35:11Z</time>
      </trkpt>
      <trkpt lat="40.8687580" lon="-8.4951000">
        <ele>142.5</ele>
        <time>2019-08-15T08:35:18Z</time>
      </trkpt>
      <trkpt lat="40.8690650" lon="-8.4950090">
        <ele>143.8</ele>
        <time>2019-08-15T08:35:26Z</time>
      </trkpt>
      <trkpt lat="40.8692670" lon="-8.4950390">
        <ele>144.7</ele>
        <time>2019-08-15T08:35:31Z</time>
      </trkpt>
      <trkpt lat="40.8694930" lon="-8.4951010">
        <ele>145.9</ele>
        <time>2019-08-15T08:35:37Z</time>
      </trkpt>
      <trkpt lat="40.8696850" lon="-8.4951990">
        <ele>147.0</ele>
        <time>2019-08-15T08:35:42Z</time>
      </trkpt>
      <trkpt lat="40.8697170" lon="-8.4952200">
        <ele>147.2</ele>
        <time>2019-08-15T08:35:43Z</time>
      </trkpt>
      <trkpt lat="40.8697520" lon="-8.4952390">
        <ele>147.4</ele>
        <time>2019-08-15T08:35:44Z</time>
      </trkpt>
      <trkpt lat="40.8697870" lon="-8.4952580">
        <ele>147.7</ele>
        <time>2019-08-15T08:35:45Z</time>
      </trkpt>
      <trkpt lat="40.8698220" lon="-8.4952790">
        <ele>147.9</ele>
        <time>2019-08-15T08:35:46Z</time>
      </trkpt>
      <trkpt lat="40.8700610" lon="-8.4954150">
        <ele>149.4</ele>
        <time>2019-08-15T08:35:53Z</time>
      </trkpt>
      <trkpt lat="40.8700890" lon="-8.4954370">
        <ele>149.6</ele>
        <time>2019-08-15T08:35:54Z</time>
      </trkpt>
      <trkpt lat="40.8701210" lon="-8.4954610">
        <ele>149.8</ele>
        <time>2019-08-15T08:35:55Z</time>
      </trkpt>
      <trkpt lat="40.8701530" lon="-8.4954870">
        <ele>150.0</ele>
        <time>2019-08-15T08:35:56Z</time>
      </trkpt>
      <trkpt lat="40.8701810" lon="-8.4955130">
        <ele>150.2</ele>
        <time>2019-08-15T08:35:57Z</time>
      </trkpt>
      <trkpt lat="40.8702100" lon="-8.4955420">
        <ele>150.5</ele>
        <time>2019-08-15T08:35:58Z</time>
      </trkpt>
      <trkpt lat="40.8702620" lon="-8.4955900">
        <ele>151.0</ele>
        <time>2019-08-15T08:36:00Z</time>
      </trkpt>
      <trkpt lat="40.8704590" lon="-8.4957630">
        <ele>153.0</ele>
        <time>2019-08-15T08:36:07Z</time>
      </trkpt>
      <trkpt lat="40.8705840" lon="-8.4958670">
        <ele>154.4</ele>
        <time>2019-08-15T08:36:11Z</time>
      </trkpt>
      <trkpt lat="40.8706110" lon="-8.4958950">
        <ele>154.8</ele>
        <time>2019-08-15T08:36:12Z</time>
      </trkpt>
      <trkpt lat="40.8706360" lon="-8.4959210">
        <ele>155.5</ele>
        <time>2019-08-15T08:36:13Z</time>
      </trkpt>
      <trkpt lat="40.8706620" lon="-8.4959360">
        <ele>155.6</ele>
        <time>2019-08-15T08:36:14Z</time>
      </trkpt>
      <trkpt lat="40.8706820" lon="-8.4959510">
        <ele>155.7</ele>
        <time>2019-08-15T08:36:15Z</time>
      </trkpt>
      <trkpt lat="40.8707290" lon="-8.4960020">
        <ele>155.8</ele>
        <time>2019-08-15T08:36:18Z</time>
      </trkpt>
      <trkpt lat="40.8708120" lon="-8.4960570">
        <ele>157.8</ele>
        <time>2019-08-15T08:36:25Z</time>
      </trkpt>
      <trkpt lat="40.8708270" lon="-8.4960630">
        <ele>158.1</ele>
        <time>2019-08-15T08:36:26Z</time>
      </trkpt>
      <trkpt lat="40.8708450" lon="-8.4960690">
        <ele>158.5</ele>
        <time>2019-08-15T08:36:27Z</time>
      </trkpt>
      <trkpt lat="40.8708620" lon="-8.4960760">
        <ele>158.8</ele>
        <time>2019-08-15T08:36:28Z</time>
      </trkpt>
      <trkpt lat="40.8708740" lon="-8.4960790">
        <ele>159.0</ele>
        <time>2019-08-15T08:36:29Z</time>
      </trkpt>
      <trkpt lat="40.8708930" lon="-8.4960860">
        <ele>159.4</ele>
        <time>2019-08-15T08:36:30Z</time>
      </trkpt>
      <trkpt lat="40.8709090" lon="-8.4960970">
        <ele>159.7</ele>
        <time>2019-08-15T08:36:31Z</time>
      </trkpt>
      <trkpt lat="40.8709260" lon="-8.4961080">
        <ele>160.0</ele>
        <time>2019-08-15T08:36:32Z</time>
      </trkpt>
      <trkpt lat="40.8709420" lon="-8.4961180">
        <ele>160.3</ele>
        <time>2019-08-15T08:36:33Z</time>
      </trkpt>
      <trkpt lat="40.8709490" lon="-8.4961350">
        <ele>160.5</ele>
        <time>2019-08-15T08:36:34Z</time>
      </trkpt>
      <trkpt lat="40.8710230" lon="-8.4961760">
        <ele>161.5</ele>
        <time>2019-08-15T08:36:38Z</time>
      </trkpt>
      <trkpt lat="40.8710380" lon="-8.4961910">
        <ele>161.7</ele>
        <time>2019-08-15T08:36:39Z</time>
      </trkpt>
      <trkpt lat="40.8710520" lon="-8.4962020">
        <ele>161.8</ele>
        <time>2019-08-15T08:36:40Z</time>
      </trkpt>
      <trkpt lat="40.8710650" lon="-8.4962120">
        <ele>161.9</ele>
        <time>2019-08-15T08:36:41Z</time>
      </trkpt>
      <trkpt lat="40.8710760" lon="-8.4962240">
        <ele>162.0</ele>
        <time>2019-08-15T08:36:42Z</time>
      </trkpt>
      <trkpt lat="40.8710870" lon="-8.4962340">
        <ele>162.1</ele>
        <time>2019-08-15T08:36:43Z</time>
      </trkpt>
      <trkpt lat="40.8711010" lon="-8.4962400">
        <ele>162.3</ele>
        <time>2019-08-15T08:36:44Z</time>
      </trkpt>
      <trkpt lat="40.8711130" lon="-8.4962460">
        <ele>162.4</ele>
        <time>2019-08-15T08:36:45Z</time>
      </trkpt>
      <trkpt lat="40.8711590" lon="-8.4962960">
        <ele>162.8</ele>
        <time>2019-08-15T08:36:49Z</time>
      </trkpt>
      <trkpt lat="40.8711700" lon="-8.4963090">
        <ele>162.9</ele>
        <time>2019-08-15T08:36:50Z</time>
      </trkpt>
      <trkpt lat="40.8711820" lon="-8.4963220">
        <ele>163.0</ele>
        <time>2019-08-15T08:36:51Z</time>
      </trkpt>
      <trkpt lat="40.8711960" lon="-8.4963310">
        <ele>163.1</ele>
        <time>2019-08-15T08:36:52Z</time>
      </trkpt>
      <trkpt lat="40.8712110" lon="-8.4963390">
        <ele>163.2</ele>
        <time>2019-08-15T08:36:53Z</time>
      </trkpt>
      <trkpt lat="40.8712380" lon="-8.4963520">
        <ele>163.4</ele>
        <time>2019-08-15T08:36:55Z</time>
      </trkpt>
      <trkpt lat="40.8712510" lon="-8.4963630">
        <ele>163.5</ele>
        <time>2019-08-15T08:36:56Z</time>
      </trkpt>
      <trkpt lat="40.8712630" lon="-8.4963800">
        <ele>163.6</ele>
        <time>2019-08-15T08:36:57Z</time>
      </trkpt>
      <trkpt lat="40.8712730" lon="-8.4963920">
        <ele>163.7</ele>
        <time>2019-08-15T08:36:58Z</time>
      </trkpt>
      <trkpt lat="40.8712860" lon="-8.4964020">
        <ele>163.8</ele>
        <time>2019-08-15T08:36:59Z</time>
      </trkpt>
      <trkpt lat="40.8713170" lon="-8.4964140">
        <ele>164.1</ele>
        <time>2019-08-15T08:37:01Z</time>
      </trkpt>
      <trkpt lat="40.8713310" lon="-8.4964180">
        <ele>164.2</ele>
        <time>2019-08-15T08:37:02Z</time>
      </trkpt>
      <trkpt lat="40.8713450" lon="-8.4964240">
        <ele>164.3</ele>
        <time>2019-08-15T08:37:03Z</time>
      </trkpt>
      <trkpt lat="40.8713590" lon="-8.4964310">
        <ele>164.4</ele>
        <time>2019-08-15T08:37:04Z</time>
      </trkpt>
      <trkpt lat="40.8713730" lon="-8.4964400">
        <ele>164.5</ele>
        <time>2019-08-15T08:37:05Z</time>
      </trkpt>
      <trkpt lat="40.8714170" lon="-8.4964940">
        <ele>164.9</ele>
        <time>2019-08-15T08:37:08Z</time>
      </trkpt>
      <trkpt lat="40.8714290" lon="-8.4965120">
        <ele>165.0</ele>
        <time>2019-08-15T08:37:09Z</time>
      </trkpt>
      <trkpt lat="40.8714400" lon="-8.4965310">
        <ele>165.1</ele>
        <time>2019-08-15T08:37:10Z</time>
      </trkpt>
      <trkpt lat="40.8714540" lon="-8.4965540">
        <ele>165.3</ele>
        <time>2019-08-15T08:37:11Z</time>
      </trkpt>
      <trkpt lat="40.8714610" lon="-8.4965800">
        <ele>165.4</ele>
        <time>2019-08-15T08:37:12Z</time>
      </trkpt>
      <trkpt lat="40.8714940" lon="-8.4966360">
        <ele>165.6</ele>
        <time>2019-08-15T08:37:15Z</time>
      </trkpt>
      <trkpt lat="40.8715060" lon="-8.4966550">
        <ele>165.7</ele>
        <time>2019-08-15T08:37:16Z</time>
      </trkpt>
      <trkpt lat="40.8715070" lon="-8.4966740">
        <ele>165.8</ele>
        <time>2019-08-15T08:37:17Z</time>
      </trkpt>
      <trkpt lat="40.8715110" lon="-8.4966990">
        <ele>165.9</ele>
        <time>2019-08-15T08:37:18Z</time>
      </trkpt>
      <trkpt lat="40.8715180" lon="-8.4967140">
        <ele>165.9</ele>
        <time>2019-08-15T08:37:19Z</time>
      </trkpt>
      <trkpt lat="40.8715460" lon="-8.4968250">
        <ele>166.3</ele>
        <time>2019-08-15T08:37:24Z</time>
      </trkpt>
      <trkpt lat="40.8715580" lon="-8.4968510">
        <ele>166.5</ele>
        <time>2019-08-15T08:37:25Z</time>
      </trkpt>
      <trkpt lat="40.8715680" lon="-8.4968720">
        <ele>166.6</ele>
        <time>2019-08-15T08:37:26Z</time>
      </trkpt>
      <trkpt lat="40.8715800" lon="-8.4968920">
        <ele>166.7</ele>
        <time>2019-08-15T08:37:27Z</time>
      </trkpt>
      <trkpt lat="40.8715900" lon="-8.4969130">
        <ele>166.8</ele>
        <time>2019-08-15T08:37:28Z</time>
      </trkpt>
      <trkpt lat="40.8716510" lon="-8.4970010">
        <ele>167.3</ele>
        <time>2019-08-15T08:37:34Z</time>
      </trkpt>
      <trkpt lat="40.8717480" lon="-8.4970780">
        <ele>167.7</ele>
        <time>2019-08-15T08:37:40Z</time>
      </trkpt>
      <trkpt lat="40.8717660" lon="-8.4970900">
        <ele>167.8</ele>
        <time>2019-08-15T08:37:41Z</time>
      </trkpt>
      <trkpt lat="40.8717760" lon="-8.4971080">
        <ele>167.8</ele>
        <time>2019-08-15T08:37:42Z</time>
      </trkpt>
      <trkpt lat="40.8717860" lon="-8.4971250">
        <ele>167.9</ele>
        <time>2019-08-15T08:37:43Z</time>
      </trkpt>
      <trkpt lat="40.8717970" lon="-8.4971400">
        <ele>168.0</ele>
        <time>2019-08-15T08:37:44Z</time>
      </trkpt>
      <trkpt lat="40.8719080" lon="-8.4972530">
        <ele>168.5</ele>
        <time>2019-08-15T08:37:53Z</time>
      </trkpt>
      <trkpt lat="40.8719970" lon="-8.4973370">
        <ele>168.9</ele>
        <time>2019-08-15T08:37:59Z</time>
      </trkpt>
      <trkpt lat="40.8720130" lon="-8.4973480">
        <ele>169.0</ele>
        <time>2019-08-15T08:38:00Z</time>
      </trkpt>
      <trkpt lat="40.8720300" lon="-8.4973520">
        <ele>169.1</ele>
        <time>2019-08-15T08:38:01Z</time>
      </trkpt>
      <trkpt lat="40.8720480" lon="-8.4973580">
        <ele>169.2</ele>
        <time>2019-08-15T08:38:02Z</time>
      </trkpt>
      <trkpt lat="40.8720630" lon="-8.4973700">
        <ele>169.3</ele>
        <time>2019-08-15T08:38:03Z</time>
      </trkpt>
      <trkpt lat="40.8722210" lon="-8.4975250">
        <ele>170.6</ele>
        <time>2019-08-15T08:38:13Z</time>
      </trkpt>
      <trkpt lat="40.8722680" lon="-8.4976000">
        <ele>171.3</ele>
        <time>2019-08-15T08:38:17Z</time>
      </trkpt>
      <trkpt lat="40.8722820" lon="-8.4976180">
        <ele>171.5</ele>
        <time>2019-08-15T08:38:18Z</time>
      </trkpt>
      <trkpt lat="40.8722950" lon="-8.4976310">
        <ele>171.6</ele>
        <time>2019-08-15T08:38:19Z</time>
      </trkpt>
      <trkpt lat="40.8723080" lon="-8.4976400">
        <ele>171.7</ele>
        <time>2019-08-15T08:38:20Z</time>
      </trkpt>
      <trkpt lat="40.8723200" lon="-8.4976520">
        <ele>171.9</ele>
        <time>2019-08-15T08:38:21Z</time>
      </trkpt>
      <trkpt lat="40.8723790" lon="-8.4978040">
        <ele>173.3</ele>
        <time>2019-08-15T08:38:28Z</time>
      </trkpt>
      <trkpt lat="40.8724110" lon="-8.4979060">
        <ele>173.9</ele>
        <time>2019-08-15T08:38:32Z</time>
      </trkpt>
      <trkpt lat="40.8724190" lon="-8.4979290">
        <ele>174.1</ele>
        <time>2019-08-15T08:38:33Z</time>
      </trkpt>
      <trkpt lat="40.8724310" lon="-8.4979520">
        <ele>174.2</ele>
        <time>2019-08-15T08:38:34Z</time>
      </trkpt>
      <trkpt lat="40.8724460" lon="-8.4979750">
        <ele>174.4</ele>
        <time>2019-08-15T08:38:35Z</time>
      </trkpt>
      <trkpt lat="40.8724580" lon="-8.4979980">
        <ele>174.6</ele>
        <time>2019-08-15T08:38:36Z</time>
      </trkpt>
      <trkpt lat="40.8726060" lon="-8.4982030">
        <ele>176.3</ele>
        <time>2019-08-15T08:38:45Z</time>
      </trkpt>
      <trkpt lat="40.8726710" lon="-8.4982210">
        <ele>177.0</ele>
        <time>2019-08-15T08:38:48Z</time>
      </trkpt>
      <trkpt lat="40.8726880" lon="-8.4982260">
        <ele>177.1</ele>
        <time>2019-08-15T08:38:49Z</time>
      </trkpt>
      <trkpt lat="40.8727080" lon="-8.4982290">
        <ele>177.3</ele>
        <time>2019-08-15T08:38:50Z</time>
      </trkpt>
      <trkpt lat="40.8727290" lon="-8.4982390">
        <ele>177.5</ele>
        <time>2019-08-15T08:38:51Z</time>
      </trkpt>
      <trkpt lat="40.8727460" lon="-8.4982520">
        <ele>177.6</ele>
        <time>2019-08-15T08:38:52Z</time>
      </trkpt>
      <trkpt lat="40.8728320" lon="-8.4983110">
        <ele>178.4</ele>
        <time>2019-08-15T08:38:57Z</time>
      </trkpt>
      <trkpt lat="40.8728520" lon="-8.4983230">
        <ele>178.6</ele>
        <time>2019-08-15T08:38:58Z</time>
      </trkpt>
      <trkpt lat="40.8728720" lon="-8.4983300">
        <ele>178.7</ele>
        <time>2019-08-15T08:38:59Z</time>
      </trkpt>
      <trkpt lat="40.8728910" lon="-8.4983400">
        <ele>178.9</ele>
        <time>2019-08-15T08:39:00Z</time>
      </trkpt>
      <trkpt lat="40.8729130" lon="-8.4983530">
        <ele>179.1</ele>
        <time>2019-08-15T08:39:01Z</time>
      </trkpt>
      <trkpt lat="40.8729310" lon="-8.4983680">
        <ele>179.2</ele>
        <time>2019-08-15T08:39:02Z</time>
      </trkpt>
      <trkpt lat="40.8730110" lon="-8.4984190">
        <ele>179.8</ele>
        <time>2019-08-15T08:39:07Z</time>
      </trkpt>
      <trkpt lat="40.8731210" lon="-8.4984590">
        <ele>180.6</ele>
        <time>2019-08-15T08:39:13Z</time>
      </trkpt>
      <trkpt lat="40.8731400" lon="-8.4984650">
        <ele>180.8</ele>
        <time>2019-08-15T08:39:14Z</time>
      </trkpt>
      <trkpt lat="40.8731590" lon="-8.4984720">
        <ele>181.0</ele>
        <time>2019-08-15T08:39:15Z</time>
      </trkpt>
      <trkpt lat="40.8731760" lon="-8.4984780">
        <ele>181.1</ele>
        <time>2019-08-15T08:39:16Z</time>
      </trkpt>
      <trkpt lat="40.8731940" lon="-8.4984860">
        <ele>181.3</ele>
        <time>2019-08-15T08:39:17Z</time>
      </trkpt>
      <trkpt lat="40.8733360" lon="-8.4985130">
        <ele>182.1</ele>
        <time>2019-08-15T08:39:24Z</time>
      </trkpt>
      <trkpt lat="40.8734630" lon="-8.4985470">
        <ele>182.6</ele>
        <time>2019-08-15T08:39:30Z</time>
      </trkpt>
      <trkpt lat="40.8734780" lon="-8.4985490">
        <ele>182.7</ele>
        <time>2019-08-15T08:39:31Z</time>
      </trkpt>
      <trkpt lat="40.8734990" lon="-8.4985520">
        <ele>182.8</ele>
        <time>2019-08-15T08:39:32Z</time>
      </trkpt>
      <trkpt lat="40.8735190" lon="-8.4985550">
        <ele>182.8</ele>
        <time>2019-08-15T08:39:33Z</time>
      </trkpt>
      <trkpt lat="40.8735380" lon="-8.4985660">
        <ele>182.9</ele>
        <time>2019-08-15T08:39:34Z</time>
      </trkpt>
      <trkpt lat="40.8736760" lon="-8.4985990">
        <ele>183.3</ele>
        <time>2019-08-15T08:39:41Z</time>
      </trkpt>
      <trkpt lat="40.8737010" lon="-8.4986030">
        <ele>183.3</ele>
        <time>2019-08-15T08:39:42Z</time>
      </trkpt>
      <trkpt lat="40.8737230" lon="-8.4986150">
        <ele>183.4</ele>
        <time>2019-08-15T08:39:43Z</time>
      </trkpt>
      <trkpt lat="40.8737460" lon="-8.4986170">
        <ele>183.5</ele>
        <time>2019-08-15T08:39:44Z</time>
      </trkpt>
      <trkpt lat="40.8737630" lon="-8.4986070">
        <ele>183.5</ele>
        <time>2019-08-15T08:39:45Z</time>
      </trkpt>
      <trkpt lat="40.8737870" lon="-8.4985900">
        <ele>183.6</ele>
        <time>2019-08-15T08:39:46Z</time>
      </trkpt>
      <trkpt lat="40.8737960" lon="-8.4985760">
        <ele>183.7</ele>
        <time>2019-08-15T08:39:47Z</time>
      </trkpt>
      <trkpt lat="40.8738670" lon="-8.4985820">
        <ele>183.9</ele>
        <time>2019-08-15T08:39:53Z</time>
      </trkpt>
      <trkpt lat="40.8740310" lon="-8.4987230">
        <ele>184.8</ele>
        <time>2019-08-15T08:40:02Z</time>
      </trkpt>
      <trkpt lat="40.8741010" lon="-8.4987920">
        <ele>185.1</ele>
        <time>2019-08-15T08:40:06Z</time>
      </trkpt>
      <trkpt lat="40.8741130" lon="-8.4987920">
        <ele>185.1</ele>
        <time>2019-08-15T08:40:07Z</time>
      </trkpt>
      <trkpt lat="40.8741240" lon="-8.4987860">
        <ele>185.2</ele>
        <time>2019-08-15T08:40:08Z</time>
      </trkpt>
      <trkpt lat="40.8741340" lon="-8.4987570">
        <ele>185.2</ele>
        <time>2019-08-15T08:40:09Z</time>
      </trkpt>
      <trkpt lat="40.8741470" lon="-8.4987480">
        <ele>185.3</ele>
        <time>2019-08-15T08:40:10Z</time>
      </trkpt>
      <trkpt lat="40.8741680" lon="-8.4987570">
        <ele>185.3</ele>
        <time>2019-08-15T08:40:11Z</time>
      </trkpt>
      <trkpt lat="40.8742360" lon="-8.4987650">
        <ele>185.6</ele>
        <time>2019-08-15T08:40:14Z</time>
      </trkpt>
      <trkpt lat="40.8743610" lon="-8.4987490">
        <ele>186.0</ele>
        <time>2019-08-15T08:40:21Z</time>
      </trkpt>
      <trkpt lat="40.8743790" lon="-8.4987390">
        <ele>185.9</ele>
        <time>2019-08-15T08:40:24Z</time>
      </trkpt>
      <trkpt lat="40.8743800" lon="-8.4987340">
        <ele>185.9</ele>
        <time>2019-08-15T08:40:59Z</time>
      </trkpt>
      <trkpt lat="40.8743950" lon="-8.4987220">
        <ele>185.9</ele>
        <time>2019-08-15T08:41:00Z</time>
      </trkpt>
      <trkpt lat="40.8744950" lon="-8.4986500">
        <ele>185.6</ele>
        <time>2019-08-15T08:41:05Z</time>
      </trkpt>
      <trkpt lat="40.8745450" lon="-8.4986110">
        <ele>185.4</ele>
        <time>2019-08-15T08:41:08Z</time>
      </trkpt>
      <trkpt lat="40.8745630" lon="-8.4986020">
        <ele>185.4</ele>
        <time>2019-08-15T08:41:09Z</time>
      </trkpt>
      <trkpt lat="40.8745800" lon="-8.4985920">
        <ele>185.4</ele>
        <time>2019-08-15T08:41:10Z</time>
      </trkpt>
      <trkpt lat="40.8745990" lon="-8.4985870">
        <ele>185.3</ele>
        <time>2019-08-15T08:41:11Z</time>
      </trkpt>
      <trkpt lat="40.8746190" lon="-8.4985790">
        <ele>185.3</ele>
        <time>2019-08-15T08:41:12Z</time>
      </trkpt>
      <trkpt lat="40.8746850" lon="-8.4985450">
        <ele>185.1</ele>
        <time>2019-08-15T08:41:15Z</time>
      </trkpt>
      <trkpt lat="40.8747910" lon="-8.4985120">
        <ele>184.8</ele>
        <time>2019-08-15T08:41:19Z</time>
      </trkpt>
      <trkpt lat="40.8748200" lon="-8.4985030">
        <ele>184.8</ele>
        <time>2019-08-15T08:41:20Z</time>
      </trkpt>
      <trkpt lat="40.8748610" lon="-8.4984940">
        <ele>184.7</ele>
        <time>2019-08-15T08:41:21Z</time>
      </trkpt>
      <trkpt lat="40.8749020" lon="-8.4984820">
        <ele>184.6</ele>
        <time>2019-08-15T08:41:22Z</time>
      </trkpt>
      <trkpt lat="40.8749420" lon="-8.4984740">
        <ele>184.5</ele>
        <time>2019-08-15T08:41:23Z</time>
      </trkpt>
      <trkpt lat="40.8750780" lon="-8.4985100">
        <ele>184.3</ele>
        <time>2019-08-15T08:41:26Z</time>
      </trkpt>
      <trkpt lat="40.8751280" lon="-8.4985210">
        <ele>184.2</ele>
        <time>2019-08-15T08:41:27Z</time>
      </trkpt>
      <trkpt lat="40.8751760" lon="-8.4985280">
        <ele>184.2</ele>
        <time>2019-08-15T08:41:28Z</time>
      </trkpt>
      <trkpt lat="40.8752220" lon="-8.4985360">
        <ele>184.1</ele>
        <time>2019-08-15T08:41:29Z</time>
      </trkpt>
      <trkpt lat="40.8752690" lon="-8.4985520">
        <ele>184.0</ele>
        <time>2019-08-15T08:41:30Z</time>
      </trkpt>
      <trkpt lat="40.8754240" lon="-8.4986020">
        <ele>184.1</ele>
        <time>2019-08-15T08:41:33Z</time>
      </trkpt>
      <trkpt lat="40.8754790" lon="-8.4986100">
        <ele>184.1</ele>
        <time>2019-08-15T08:41:34Z</time>
      </trkpt>
      <trkpt lat="40.8755310" lon="-8.4986150">
        <ele>184.2</ele>
        <time>2019-08-15T08:41:35Z</time>
      </trkpt>
      <trkpt lat="40.8755800" lon="-8.4986250">
        <ele>184.3</ele>
        <time>2019-08-15T08:41:36Z</time>
      </trkpt>
      <trkpt lat="40.8756370" lon="-8.4986380">
        <ele>184.4</ele>
        <time>2019-08-15T08:41:37Z</time>
      </trkpt>
      <trkpt lat="40.8760060" lon="-8.4987130">
        <ele>185.1</ele>
        <time>2019-08-15T08:41:44Z</time>
      </trkpt>
      <trkpt lat="40.8761090" lon="-8.4987360">
        <ele>185.3</ele>
        <time>2019-08-15T08:41:46Z</time>
      </trkpt>
      <trkpt lat="40.8762570" lon="-8.4987590">
        <ele>185.4</ele>
        <time>2019-08-15T08:41:49Z</time>
      </trkpt>
      <trkpt lat="40.8763010" lon="-8.4987610">
        <ele>185.3</ele>
        <time>2019-08-15T08:41:50Z</time>
      </trkpt>
      <trkpt lat="40.8763500" lon="-8.4987630">
        <ele>184.7</ele>
        <time>2019-08-15T08:41:51Z</time>
      </trkpt>
      <trkpt lat="40.8764020" lon="-8.4987450">
        <ele>184.1</ele>
        <time>2019-08-15T08:41:52Z</time>
      </trkpt>
      <trkpt lat="40.8764630" lon="-8.4987290">
        <ele>183.4</ele>
        <time>2019-08-15T08:41:53Z</time>
      </trkpt>
      <trkpt lat="40.8765270" lon="-8.4987160">
        <ele>182.8</ele>
        <time>2019-08-15T08:41:54Z</time>
      </trkpt>
      <trkpt lat="40.8765760" lon="-8.4987050">
        <ele>182.3</ele>
        <time>2019-08-15T08:41:55Z</time>
      </trkpt>
      <trkpt lat="40.8766430" lon="-8.4986430">
        <ele>181.5</ele>
        <time>2019-08-15T08:41:56Z</time>
      </trkpt>
      <trkpt lat="40.8767150" lon="-8.4985680">
        <ele>180.8</ele>
        <time>2019-08-15T08:41:57Z</time>
      </trkpt>
      <trkpt lat="40.8768000" lon="-8.4984690">
        <ele>179.9</ele>
        <time>2019-08-15T08:41:58Z</time>
      </trkpt>
      <trkpt lat="40.8768770" lon="-8.4983790">
        <ele>179.2</ele>
        <time>2019-08-15T08:41:59Z</time>
      </trkpt>
      <trkpt lat="40.8769540" lon="-8.4982890">
        <ele>178.4</ele>
        <time>2019-08-15T08:42:00Z</time>
      </trkpt>
      <trkpt lat="40.8770310" lon="-8.4982070">
        <ele>177.7</ele>
        <time>2019-08-15T08:42:01Z</time>
      </trkpt>
      <trkpt lat="40.8771070" lon="-8.4981290">
        <ele>176.6</ele>
        <time>2019-08-15T08:42:02Z</time>
      </trkpt>
      <trkpt lat="40.8771800" lon="-8.4980530">
        <ele>175.5</ele>
        <time>2019-08-15T08:42:03Z</time>
      </trkpt>
      <trkpt lat="40.8772540" lon="-8.4979860">
        <ele>174.4</ele>
        <time>2019-08-15T08:42:04Z</time>
      </trkpt>
      <trkpt lat="40.8773260" lon="-8.4979250">
        <ele>173.4</ele>
        <time>2019-08-15T08:42:05Z</time>
      </trkpt>
      <trkpt lat="40.8773960" lon="-8.4978680">
        <ele>172.5</ele>
        <time>2019-08-15T08:42:06Z</time>
      </trkpt>
      <trkpt lat="40.8774710" lon="-8.4978100">
        <ele>171.6</ele>
        <time>2019-08-15T08:42:07Z</time>
      </trkpt>
      <trkpt lat="40.8775440" lon="-8.4977540">
        <ele>170.6</ele>
        <time>2019-08-15T08:42:08Z</time>
      </trkpt>
      <trkpt lat="40.8776210" lon="-8.4976950">
        <ele>169.1</ele>
        <time>2019-08-15T08:42:09Z</time>
      </trkpt>
      <trkpt lat="40.8776970" lon="-8.4976330">
        <ele>167.9</ele>
        <time>2019-08-15T08:42:10Z</time>
      </trkpt>
      <trkpt lat="40.8777760" lon="-8.4975710">
        <ele>167.0</ele>
        <time>2019-08-15T08:42:11Z</time>
      </trkpt>
      <trkpt lat="40.8778550" lon="-8.4975120">
        <ele>166.0</ele>
        <time>2019-08-15T08:42:12Z</time>
      </trkpt>
      <trkpt lat="40.8779310" lon="-8.4974540">
        <ele>164.9</ele>
        <time>2019-08-15T08:42:13Z</time>
      </trkpt>
      <trkpt lat="40.8780040" lon="-8.4974020">
        <ele>164.2</ele>
        <time>2019-08-15T08:42:14Z</time>
      </trkpt>
      <trkpt lat="40.8780810" lon="-8.4973560">
        <ele>163.5</ele>
        <time>2019-08-15T08:42:15Z</time>
      </trkpt>
      <trkpt lat="40.8781640" lon="-8.4973010">
        <ele>162.8</ele>
        <time>2019-08-15T08:42:16Z</time>
      </trkpt>
      <trkpt lat="40.8782390" lon="-8.4972450">
        <ele>162.2</ele>
        <time>2019-08-15T08:42:17Z</time>
      </trkpt>
      <trkpt lat="40.8783160" lon="-8.4971820">
        <ele>161.7</ele>
        <time>2019-08-15T08:42:18Z</time>
      </trkpt>
      <trkpt lat="40.8783960" lon="-8.4971100">
        <ele>161.2</ele>
        <time>2019-08-15T08:42:19Z</time>
      </trkpt>
      <trkpt lat="40.8784690" lon="-8.4970480">
        <ele>160.9</ele>
        <time>2019-08-15T08:42:20Z</time>
      </trkpt>
      <trkpt lat="40.8785480" lon="-8.4969860">
        <ele>160.5</ele>
        <time>2019-08-15T08:42:21Z</time>
      </trkpt>
      <trkpt lat="40.8786290" lon="-8.4969280">
        <ele>160.1</ele>
        <time>2019-08-15T08:42:22Z</time>
      </trkpt>
      <trkpt lat="40.8787130" lon="-8.4968720">
        <ele>159.6</ele>
        <time>2019-08-15T08:42:23Z</time>
      </trkpt>
      <trkpt lat="40.8787920" lon="-8.4968170">
        <ele>159.2</ele>
        <time>2019-08-15T08:42:24Z</time>
      </trkpt>
      <trkpt lat="40.8788720" lon="-8.4967590">
        <ele>158.7</ele>
        <time>2019-08-15T08:42:25Z</time>
      </trkpt>
      <trkpt lat="40.8789500" lon="-8.4967010">
        <ele>158.2</ele>
        <time>2019-08-15T08:42:26Z</time>
      </trkpt>
      <trkpt lat="40.8790330" lon="-8.4966410">
        <ele>157.7</ele>
        <time>2019-08-15T08:42:27Z</time>
      </trkpt>
      <trkpt lat="40.8791160" lon="-8.4965820">
        <ele>157.1</ele>
        <time>2019-08-15T08:42:28Z</time>
      </trkpt>
      <trkpt lat="40.8791940" lon="-8.4965260">
        <ele>156.5</ele>
        <time>2019-08-15T08:42:29Z</time>
      </trkpt>
      <trkpt lat="40.8792660" lon="-8.4964730">
        <ele>155.8</ele>
        <time>2019-08-15T08:42:30Z</time>
      </trkpt>
      <trkpt lat="40.8793260" lon="-8.4964230">
        <ele>155.2</ele>
        <time>2019-08-15T08:42:31Z</time>
      </trkpt>
      <trkpt lat="40.8793820" lon="-8.4963790">
        <ele>154.7</ele>
        <time>2019-08-15T08:42:32Z</time>
      </trkpt>
      <trkpt lat="40.8794370" lon="-8.4963360">
        <ele>154.1</ele>
        <time>2019-08-15T08:42:33Z</time>
      </trkpt>
      <trkpt lat="40.8794940" lon="-8.4962950">
        <ele>153.6</ele>
        <time>2019-08-15T08:42:34Z</time>
      </trkpt>
      <trkpt lat="40.8795410" lon="-8.4962340">
        <ele>152.7</ele>
        <time>2019-08-15T08:42:35Z</time>
      </trkpt>
      <trkpt lat="40.8795780" lon="-8.4961550">
        <ele>152.3</ele>
        <time>2019-08-15T08:42:36Z</time>
      </trkpt>
      <trkpt lat="40.8795940" lon="-8.4960650">
        <ele>151.5</ele>
        <time>2019-08-15T08:42:37Z</time>
      </trkpt>
      <trkpt lat="40.8795970" lon="-8.4959740">
        <ele>151.3</ele>
        <time>2019-08-15T08:42:38Z</time>
      </trkpt>
      <trkpt lat="40.8795980" lon="-8.4958880">
        <ele>151.2</ele>
        <time>2019-08-15T08:42:39Z</time>
      </trkpt>
      <trkpt lat="40.8795950" lon="-8.4958290">
        <ele>151.1</ele>
        <time>2019-08-15T08:42:40Z</time>
      </trkpt>
      <trkpt lat="40.8795990" lon="-8.4957680">
        <ele>151.0</ele>
        <time>2019-08-15T08:42:41Z</time>
      </trkpt>
      <trkpt lat="40.8796060" lon="-8.4956490">
        <ele>151.0</ele>
        <time>2019-08-15T08:42:43Z</time>
      </trkpt>
      <trkpt lat="40.8796280" lon="-8.4952450">
        <ele>152.4</ele>
        <time>2019-08-15T08:42:51Z</time>
      </trkpt>
      <trkpt lat="40.8796220" lon="-8.4952040">
        <ele>152.7</ele>
        <time>2019-08-15T08:42:52Z</time>
      </trkpt>
      <trkpt lat="40.8796120" lon="-8.4951680">
        <ele>153.0</ele>
        <time>2019-08-15T08:42:53Z</time>
      </trkpt>
      <trkpt lat="40.8796020" lon="-8.4951370">
        <ele>153.2</ele>
        <time>2019-08-15T08:42:54Z</time>
      </trkpt>
      <trkpt lat="40.8795930" lon="-8.4951090">
        <ele>153.4</ele>
        <time>2019-08-15T08:42:55Z</time>
      </trkpt>
      <trkpt lat="40.8795780" lon="-8.4950840">
        <ele>153.6</ele>
        <time>2019-08-15T08:42:56Z</time>
      </trkpt>
      <trkpt lat="40.8795630" lon="-8.4950520">
        <ele>153.9</ele>
        <time>2019-08-15T08:42:57Z</time>
      </trkpt>
      <trkpt lat="40.8795510" lon="-8.4950220">
        <ele>154.0</ele>
        <time>2019-08-15T08:42:58Z</time>
      </trkpt>
      <trkpt lat="40.8795400" lon="-8.4950000">
        <ele>154.1</ele>
        <time>2019-08-15T08:42:59Z</time>
      </trkpt>
      <trkpt lat="40.8795330" lon="-8.4949840">
        <ele>154.2</ele>
        <time>2019-08-15T08:43:00Z</time>
      </trkpt>
      <trkpt lat="40.8795360" lon="-8.4949040">
        <ele>155.5</ele>
        <time>2019-08-15T08:43:03Z</time>
      </trkpt>
      <trkpt lat="40.8795840" lon="-8.4948310">
        <ele>156.2</ele>
        <time>2019-08-15T08:43:06Z</time>
      </trkpt>
      <trkpt lat="40.8795960" lon="-8.4948180">
        <ele>156.3</ele>
        <time>2019-08-15T08:43:07Z</time>
      </trkpt>
      <trkpt lat="40.8796100" lon="-8.4948020">
        <ele>156.5</ele>
        <time>2019-08-15T08:43:08Z</time>
      </trkpt>
      <trkpt lat="40.8796240" lon="-8.4947860">
        <ele>156.7</ele>
        <time>2019-08-15T08:43:09Z</time>
      </trkpt>
      <trkpt lat="40.8796410" lon="-8.4947700">
        <ele>157.0</ele>
        <time>2019-08-15T08:43:10Z</time>
      </trkpt>
      <trkpt lat="40.8796700" lon="-8.4947360">
        <ele>157.4</ele>
        <time>2019-08-15T08:43:12Z</time>
      </trkpt>
      <trkpt lat="40.8796890" lon="-8.4947220">
        <ele>157.7</ele>
        <time>2019-08-15T08:43:13Z</time>
      </trkpt>
      <trkpt lat="40.8797020" lon="-8.4947070">
        <ele>158.0</ele>
        <time>2019-08-15T08:43:14Z</time>
      </trkpt>
      <trkpt lat="40.8797150" lon="-8.4946830">
        <ele>158.3</ele>
        <time>2019-08-15T08:43:15Z</time>
      </trkpt>
      <trkpt lat="40.8797250" lon="-8.4946580">
        <ele>158.7</ele>
        <time>2019-08-15T08:43:16Z</time>
      </trkpt>
      <trkpt lat="40.8797340" lon="-8.4946290">
        <ele>159.1</ele>
        <time>2019-08-15T08:43:17Z</time>
      </trkpt>
      <trkpt lat="40.8797540" lon="-8.4945750">
        <ele>159.7</ele>
        <time>2019-08-15T08:43:19Z</time>
      </trkpt>
      <trkpt lat="40.8797540" lon="-8.4945460">
        <ele>160.1</ele>
        <time>2019-08-15T08:43:20Z</time>
      </trkpt>
      <trkpt lat="40.8797550" lon="-8.4945190">
        <ele>160.4</ele>
        <time>2019-08-15T08:43:21Z</time>
      </trkpt>
      <trkpt lat="40.8797620" lon="-8.4944920">
        <ele>160.7</ele>
        <time>2019-08-15T08:43:22Z</time>
      </trkpt>
      <trkpt lat="40.8797690" lon="-8.4944650">
        <ele>161.0</ele>
        <time>2019-08-15T08:43:23Z</time>
      </trkpt>
      <trkpt lat="40.8797760" lon="-8.4944400">
        <ele>161.4</ele>
        <time>2019-08-15T08:43:24Z</time>
      </trkpt>
      <trkpt lat="40.8797780" lon="-8.4944160">
        <ele>161.6</ele>
        <time>2019-08-15T08:43:25Z</time>
      </trkpt>
      <trkpt lat="40.8797810" lon="-8.4943910">
        <ele>161.9</ele>
        <time>2019-08-15T08:43:26Z</time>
      </trkpt>
      <trkpt lat="40.8797860" lon="-8.4943670">
        <ele>162.2</ele>
        <time>2019-08-15T08:43:27Z</time>
      </trkpt>
      <trkpt lat="40.8797850" lon="-8.4943420">
        <ele>162.5</ele>
        <time>2019-08-15T08:43:28Z</time>
      </trkpt>
      <trkpt lat="40.8797830" lon="-8.4943190">
        <ele>162.7</ele>
        <time>2019-08-15T08:43:29Z</time>
      </trkpt>
      <trkpt lat="40.8797860" lon="-8.4941860">
        <ele>164.0</ele>
        <time>2019-08-15T08:43:34Z</time>
      </trkpt>
      <trkpt lat="40.8798000" lon="-8.4941500">
        <ele>164.4</ele>
        <time>2019-08-15T08:43:35Z</time>
      </trkpt>
      <trkpt lat="40.8797980" lon="-8.4941230">
        <ele>164.7</ele>
        <time>2019-08-15T08:43:36Z</time>
      </trkpt>
      <trkpt lat="40.8798000" lon="-8.4940970">
        <ele>164.9</ele>
        <time>2019-08-15T08:43:37Z</time>
      </trkpt>
      <trkpt lat="40.8798040" lon="-8.4940740">
        <ele>165.2</ele>
        <time>2019-08-15T08:43:38Z</time>
      </trkpt>
      <trkpt lat="40.8797960" lon="-8.4939830">
        <ele>166.2</ele>
        <time>2019-08-15T08:43:42Z</time>
      </trkpt>
      <trkpt lat="40.8797970" lon="-8.4939580">
        <ele>166.4</ele>
        <time>2019-08-15T08:43:43Z</time>
      </trkpt>
      <trkpt lat="40.8798050" lon="-8.4939300">
        <ele>166.7</ele>
        <time>2019-08-15T08:43:44Z</time>
      </trkpt>
      <trkpt lat="40.8798110" lon="-8.4939020">
        <ele>167.1</ele>
        <time>2019-08-15T08:43:45Z</time>
      </trkpt>
      <trkpt lat="40.8798150" lon="-8.4938760">
        <ele>167.3</ele>
        <time>2019-08-15T08:43:46Z</time>
      </trkpt>
      <trkpt lat="40.8798310" lon="-8.4937660">
        <ele>168.4</ele>
        <time>2019-08-15T08:43:51Z</time>
      </trkpt>
      <trkpt lat="40.8798110" lon="-8.4936830">
        <ele>169.2</ele>
        <time>2019-08-15T08:43:55Z</time>
      </trkpt>
      <trkpt lat="40.8798110" lon="-8.4936630">
        <ele>169.4</ele>
        <time>2019-08-15T08:43:56Z</time>
      </trkpt>
      <trkpt lat="40.8798050" lon="-8.4936420">
        <ele>169.6</ele>
        <time>2019-08-15T08:43:57Z</time>
      </trkpt>
      <trkpt lat="40.8798010" lon="-8.4936190">
        <ele>169.8</ele>
        <time>2019-08-15T08:43:58Z</time>
      </trkpt>
      <trkpt lat="40.8797940" lon="-8.4935980">
        <ele>169.9</ele>
        <time>2019-08-15T08:43:59Z</time>
      </trkpt>
      <trkpt lat="40.8797530" lon="-8.4934030">
        <ele>171.3</ele>
        <time>2019-08-15T08:44:08Z</time>
      </trkpt>
      <trkpt lat="40.8797000" lon="-8.4932190">
        <ele>172.2</ele>
        <time>2019-08-15T08:44:17Z</time>
      </trkpt>
      <trkpt lat="40.8796950" lon="-8.4932010">
        <ele>172.3</ele>
        <time>2019-08-15T08:44:18Z</time>
      </trkpt>
      <trkpt lat="40.8796810" lon="-8.4931860">
        <ele>172.4</ele>
        <time>2019-08-15T08:44:19Z</time>
      </trkpt>
      <trkpt lat="40.8796730" lon="-8.4931700">
        <ele>172.5</ele>
        <time>2019-08-15T08:44:20Z</time>
      </trkpt>
      <trkpt lat="40.8796670" lon="-8.4931460">
        <ele>172.7</ele>
        <time>2019-08-15T08:44:21Z</time>
      </trkpt>
      <trkpt lat="40.8796500" lon="-8.4930510">
        <ele>173.6</ele>
        <time>2019-08-15T08:44:25Z</time>
      </trkpt>
      <trkpt lat="40.8796210" lon="-8.4928860">
        <ele>174.7</ele>
        <time>2019-08-15T08:44:33Z</time>
      </trkpt>
      <trkpt lat="40.8795790" lon="-8.4926980">
        <ele>175.4</ele>
        <time>2019-08-15T08:44:43Z</time>
      </trkpt>
      <trkpt lat="40.8795740" lon="-8.4926830">
        <ele>175.5</ele>
        <time>2019-08-15T08:44:44Z</time>
      </trkpt>
      <trkpt lat="40.8795660" lon="-8.4926630">
        <ele>175.5</ele>
        <time>2019-08-15T08:44:45Z</time>
      </trkpt>
      <trkpt lat="40.8795540" lon="-8.4926450">
        <ele>175.6</ele>
        <time>2019-08-15T08:44:46Z</time>
      </trkpt>
      <trkpt lat="40.8795450" lon="-8.4926280">
        <ele>175.7</ele>
        <time>2019-08-15T08:44:47Z</time>
      </trkpt>
      <trkpt lat="40.8795400" lon="-8.4926080">
        <ele>175.8</ele>
        <time>2019-08-15T08:44:48Z</time>
      </trkpt>
      <trkpt lat="40.8795260" lon="-8.4925180">
        <ele>176.2</ele>
        <time>2019-08-15T08:44:52Z</time>
      </trkpt>
      <trkpt lat="40.8795020" lon="-8.4923510">
        <ele>176.9</ele>
        <time>2019-08-15T08:44:59Z</time>
      </trkpt>
      <trkpt lat="40.8794950" lon="-8.4921820">
        <ele>177.6</ele>
        <time>2019-08-15T08:45:07Z</time>
      </trkpt>
      <trkpt lat="40.8795040" lon="-8.4921120">
        <ele>177.8</ele>
        <time>2019-08-15T08:45:10Z</time>
      </trkpt>
      <trkpt lat="40.8795010" lon="-8.4920840">
        <ele>177.9</ele>
        <time>2019-08-15T08:45:11Z</time>
      </trkpt>
      <trkpt lat="40.8795090" lon="-8.4920620">
        <ele>178.0</ele>
        <time>2019-08-15T08:45:12Z</time>
      </trkpt>
      <trkpt lat="40.8795090" lon="-8.4920510">
        <ele>178.0</ele>
        <time>2019-08-15T08:45:13Z</time>
      </trkpt>
      <trkpt lat="40.8795080" lon="-8.4920510">
        <ele>178.0</ele>
        <time>2019-08-15T08:45:14Z</time>
      </trkpt>
      <trkpt lat="40.8794930" lon="-8.4920130">
        <ele>178.2</ele>
        <time>2019-08-15T08:45:33Z</time>
      </trkpt>
      <trkpt lat="40.8795020" lon="-8.4919960">
        <ele>178.2</ele>
        <time>2019-08-15T08:45:34Z</time>
      </trkpt>
      <trkpt lat="40.8795250" lon="-8.4919050">
        <ele>178.6</ele>
        <time>2019-08-15T08:45:37Z</time>
      </trkpt>
      <trkpt lat="40.8795570" lon="-8.4917400">
        <ele>179.2</ele>
        <time>2019-08-15T08:45:42Z</time>
      </trkpt>
      <trkpt lat="40.8795590" lon="-8.4917080">
        <ele>179.3</ele>
        <time>2019-08-15T08:45:43Z</time>
      </trkpt>
      <trkpt lat="40.8795590" lon="-8.4916770">
        <ele>179.5</ele>
        <time>2019-08-15T08:45:44Z</time>
      </trkpt>
      <trkpt lat="40.8795630" lon="-8.4916460">
        <ele>179.6</ele>
        <time>2019-08-15T08:45:45Z</time>
      </trkpt>
      <trkpt lat="40.8795680" lon="-8.4916120">
        <ele>179.8</ele>
        <time>2019-08-15T08:45:46Z</time>
      </trkpt>
      <trkpt lat="40.8795810" lon="-8.4915460">
        <ele>180.1</ele>
        <time>2019-08-15T08:45:48Z</time>
      </trkpt>
      <trkpt lat="40.8795880" lon="-8.4915100">
        <ele>180.2</ele>
        <time>2019-08-15T08:45:49Z</time>
      </trkpt>
      <trkpt lat="40.8795720" lon="-8.4912670">
        <ele>181.3</ele>
        <time>2019-08-15T08:45:56Z</time>
      </trkpt>
      <trkpt lat="40.8795650" lon="-8.4912460">
        <ele>181.3</ele>
        <time>2019-08-15T08:45:57Z</time>
      </trkpt>
      <trkpt lat="40.8795760" lon="-8.4912260">
        <ele>181.4</ele>
        <time>2019-08-15T08:45:58Z</time>
      </trkpt>
      <trkpt lat="40.8795990" lon="-8.4912200">
        <ele>181.4</ele>
        <time>2019-08-15T08:45:59Z</time>
      </trkpt>
      <trkpt lat="40.8796190" lon="-8.4912140">
        <ele>181.4</ele>
        <time>2019-08-15T08:46:00Z</time>
      </trkpt>
      <trkpt lat="40.8796760" lon="-8.4912020">
        <ele>181.4</ele>
        <time>2019-08-15T08:46:02Z</time>
      </trkpt>
      <trkpt lat="40.8798360" lon="-8.4911190">
        <ele>181.9</ele>
        <time>2019-08-15T08:46:09Z</time>
      </trkpt>
      <trkpt lat="40.8799690" lon="-8.4910700">
        <ele>182.9</ele>
        <time>2019-08-15T08:46:15Z</time>
      </trkpt>
      <trkpt lat="40.8801470" lon="-8.4909970">
        <ele>184.2</ele>
        <time>2019-08-15T08:46:23Z</time>
      </trkpt>
      <trkpt lat="40.8802270" lon="-8.4909620">
        <ele>184.7</ele>
        <time>2019-08-15T08:46:26Z</time>
      </trkpt>
      <trkpt lat="40.8802520" lon="-8.4909460">
        <ele>184.9</ele>
        <time>2019-08-15T08:46:27Z</time>
      </trkpt>
      <trkpt lat="40.8802750" lon="-8.4909300">
        <ele>185.0</ele>
        <time>2019-08-15T08:46:28Z</time>
      </trkpt>
      <trkpt lat="40.8803080" lon="-8.4909150">
        <ele>185.3</ele>
        <time>2019-08-15T08:46:29Z</time>
      </trkpt>
      <trkpt lat="40.8803360" lon="-8.4908990">
        <ele>185.4</ele>
        <time>2019-08-15T08:46:30Z</time>
      </trkpt>
      <trkpt lat="40.8804580" lon="-8.4908670">
        <ele>186.0</ele>
        <time>2019-08-15T08:46:34Z</time>
      </trkpt>
      <trkpt lat="40.8806450" lon="-8.4907680">
        <ele>186.7</ele>
        <time>2019-08-15T08:46:41Z</time>
      </trkpt>
      <trkpt lat="40.8806990" lon="-8.4907620">
        <ele>186.8</ele>
        <time>2019-08-15T08:46:43Z</time>
      </trkpt>
      <trkpt lat="40.8807220" lon="-8.4907540">
        <ele>186.9</ele>
        <time>2019-08-15T08:46:44Z</time>
      </trkpt>
      <trkpt lat="40.8807480" lon="-8.4907430">
        <ele>187.0</ele>
        <time>2019-08-15T08:46:45Z</time>
      </trkpt>
      <trkpt lat="40.8807780" lon="-8.4907290">
        <ele>187.2</ele>
        <time>2019-08-15T08:46:46Z</time>
      </trkpt>
      <trkpt lat="40.8808110" lon="-8.4907170">
        <ele>187.4</ele>
        <time>2019-08-15T08:46:47Z</time>
      </trkpt>
      <trkpt lat="40.8808330" lon="-8.4907100">
        <ele>187.5</ele>
        <time>2019-08-15T08:46:48Z</time>
      </trkpt>
      <trkpt lat="40.8810090" lon="-8.4906820">
        <ele>188.3</ele>
        <time>2019-08-15T08:46:54Z</time>
      </trkpt>
      <trkpt lat="40.8810500" lon="-8.4906710">
        <ele>188.5</ele>
        <time>2019-08-15T08:46:55Z</time>
      </trkpt>
      <trkpt lat="40.8810780" lon="-8.4906590">
        <ele>188.6</ele>
        <time>2019-08-15T08:46:56Z</time>
      </trkpt>
      <trkpt lat="40.8811060" lon="-8.4906490">
        <ele>188.7</ele>
        <time>2019-08-15T08:46:57Z</time>
      </trkpt>
      <trkpt lat="40.8811340" lon="-8.4906400">
        <ele>188.7</ele>
        <time>2019-08-15T08:46:58Z</time>
      </trkpt>
      <trkpt lat="40.8811650" lon="-8.4906340">
        <ele>188.8</ele>
        <time>2019-08-15T08:46:59Z</time>
      </trkpt>
      <trkpt lat="40.8811940" lon="-8.4906270">
        <ele>188.8</ele>
        <time>2019-08-15T08:47:00Z</time>
      </trkpt>
      <trkpt lat="40.8814150" lon="-8.4905500">
        <ele>189.2</ele>
        <time>2019-08-15T08:47:07Z</time>
      </trkpt>
      <trkpt lat="40.8814440" lon="-8.4905410">
        <ele>189.4</ele>
        <time>2019-08-15T08:47:08Z</time>
      </trkpt>
      <trkpt lat="40.8814710" lon="-8.4905340">
        <ele>189.6</ele>
        <time>2019-08-15T08:47:09Z</time>
      </trkpt>
      <trkpt lat="40.8814970" lon="-8.4905240">
        <ele>189.8</ele>
        <time>2019-08-15T08:47:10Z</time>
      </trkpt>
      <trkpt lat="40.8815280" lon="-8.4905120">
        <ele>190.0</ele>
        <time>2019-08-15T08:47:11Z</time>
      </trkpt>
      <trkpt lat="40.8817630" lon="-8.4904470">
        <ele>191.8</ele>
        <time>2019-08-15T08:47:18Z</time>
      </trkpt>
      <trkpt lat="40.8817920" lon="-8.4904360">
        <ele>191.9</ele>
        <time>2019-08-15T08:47:19Z</time>
      </trkpt>
      <trkpt lat="40.8818240" lon="-8.4904220">
        <ele>192.1</ele>
        <time>2019-08-15T08:47:20Z</time>
      </trkpt>
      <trkpt lat="40.8818580" lon="-8.4904110">
        <ele>192.3</ele>
        <time>2019-08-15T08:47:21Z</time>
      </trkpt>
      <trkpt lat="40.8818880" lon="-8.4903990">
        <ele>192.5</ele>
        <time>2019-08-15T08:47:22Z</time>
      </trkpt>
      <trkpt lat="40.8819210" lon="-8.4903890">
        <ele>192.7</ele>
        <time>2019-08-15T08:47:23Z</time>
      </trkpt>
      <trkpt lat="40.8820170" lon="-8.4903670">
        <ele>193.4</ele>
        <time>2019-08-15T08:47:27Z</time>
      </trkpt>
      <trkpt lat="40.8821820" lon="-8.4903100">
        <ele>194.6</ele>
        <time>2019-08-15T08:47:33Z</time>
      </trkpt>
      <trkpt lat="40.8822100" lon="-8.4903010">
        <ele>194.8</ele>
        <time>2019-08-15T08:47:34Z</time>
      </trkpt>
      <trkpt lat="40.8822410" lon="-8.4902890">
        <ele>195.0</ele>
        <time>2019-08-15T08:47:35Z</time>
      </trkpt>
      <trkpt lat="40.8822760" lon="-8.4902700">
        <ele>196.0</ele>
        <time>2019-08-15T08:47:36Z</time>
      </trkpt>
      <trkpt lat="40.8823090" lon="-8.4902510">
        <ele>196.1</ele>
        <time>2019-08-15T08:47:37Z</time>
      </trkpt>
      <trkpt lat="40.8824130" lon="-8.4902340">
        <ele>196.7</ele>
        <time>2019-08-15T08:47:40Z</time>
      </trkpt>
      <trkpt lat="40.8825560" lon="-8.4901870">
        <ele>196.9</ele>
        <time>2019-08-15T08:47:45Z</time>
      </trkpt>
      <trkpt lat="40.8825740" lon="-8.4901780">
        <ele>196.9</ele>
        <time>2019-08-15T08:47:46Z</time>
      </trkpt>
      <trkpt lat="40.8826060" lon="-8.4901630">
        <ele>197.0</ele>
        <time>2019-08-15T08:47:47Z</time>
      </trkpt>
      <trkpt lat="40.8826430" lon="-8.4901580">
        <ele>197.0</ele>
        <time>2019-08-15T08:47:48Z</time>
      </trkpt>
      <trkpt lat="40.8826710" lon="-8.4901520">
        <ele>197.1</ele>
        <time>2019-08-15T08:47:49Z</time>
      </trkpt>
      <trkpt lat="40.8828400" lon="-8.4900870">
        <ele>197.5</ele>
        <time>2019-08-15T08:47:55Z</time>
      </trkpt>
      <trkpt lat="40.8831220" lon="-8.4899790">
        <ele>198.3</ele>
        <time>2019-08-15T08:48:03Z</time>
      </trkpt>
      <trkpt lat="40.8833340" lon="-8.4899100">
        <ele>198.6</ele>
        <time>2019-08-15T08:48:10Z</time>
      </trkpt>
      <trkpt lat="40.8833690" lon="-8.4898990">
        <ele>198.6</ele>
        <time>2019-08-15T08:48:11Z</time>
      </trkpt>
      <trkpt lat="40.8833870" lon="-8.4898890">
        <ele>198.6</ele>
        <time>2019-08-15T08:48:12Z</time>
      </trkpt>
      <trkpt lat="40.8834200" lon="-8.4898760">
        <ele>198.6</ele>
        <time>2019-08-15T08:48:13Z</time>
      </trkpt>
      <trkpt lat="40.8834440" lon="-8.4898660">
        <ele>198.6</ele>
        <time>2019-08-15T08:48:14Z</time>
      </trkpt>
      <trkpt lat="40.8834960" lon="-8.4898470">
        <ele>198.7</ele>
        <time>2019-08-15T08:48:16Z</time>
      </trkpt>
      <trkpt lat="40.8836420" lon="-8.4897640">
        <ele>199.1</ele>
        <time>2019-08-15T08:48:23Z</time>
      </trkpt>
      <trkpt lat="40.8837790" lon="-8.4897280">
        <ele>199.8</ele>
        <time>2019-08-15T08:48:27Z</time>
      </trkpt>
      <trkpt lat="40.8838130" lon="-8.4897150">
        <ele>200.0</ele>
        <time>2019-08-15T08:48:28Z</time>
      </trkpt>
      <trkpt lat="40.8838410" lon="-8.4897010">
        <ele>200.2</ele>
        <time>2019-08-15T08:48:29Z</time>
      </trkpt>
      <trkpt lat="40.8838570" lon="-8.4896930">
        <ele>200.3</ele>
        <time>2019-08-15T08:48:30Z</time>
      </trkpt>
      <trkpt lat="40.8838810" lon="-8.4896840">
        <ele>200.4</ele>
        <time>2019-08-15T08:48:31Z</time>
      </trkpt>
      <trkpt lat="40.8841620" lon="-8.4896010">
        <ele>202.2</ele>
        <time>2019-08-15T08:48:40Z</time>
      </trkpt>
      <trkpt lat="40.8843590" lon="-8.4895550">
        <ele>203.3</ele>
        <time>2019-08-15T08:48:45Z</time>
      </trkpt>
      <trkpt lat="40.8844040" lon="-8.4895360">
        <ele>203.5</ele>
        <time>2019-08-15T08:48:46Z</time>
      </trkpt>
      <trkpt lat="40.8844370" lon="-8.4895200">
        <ele>203.7</ele>
        <time>2019-08-15T08:48:47Z</time>
      </trkpt>
      <trkpt lat="40.8844700" lon="-8.4895060">
        <ele>203.8</ele>
        <time>2019-08-15T08:48:48Z</time>
      </trkpt>
      <trkpt lat="40.8845000" lon="-8.4894920">
        <ele>204.0</ele>
        <time>2019-08-15T08:48:49Z</time>
      </trkpt>
      <trkpt lat="40.8846310" lon="-8.4894500">
        <ele>204.8</ele>
        <time>2019-08-15T08:48:53Z</time>
      </trkpt>
      <trkpt lat="40.8846940" lon="-8.4894240">
        <ele>205.2</ele>
        <time>2019-08-15T08:48:55Z</time>
      </trkpt>
      <trkpt lat="40.8848480" lon="-8.4893720">
        <ele>206.1</ele>
        <time>2019-08-15T08:49:00Z</time>
      </trkpt>
      <trkpt lat="40.8848780" lon="-8.4893550">
        <ele>206.2</ele>
        <time>2019-08-15T08:49:01Z</time>
      </trkpt>
      <trkpt lat="40.8849070" lon="-8.4893350">
        <ele>206.4</ele>
        <time>2019-08-15T08:49:02Z</time>
      </trkpt>
      <trkpt lat="40.8849320" lon="-8.4893070">
        <ele>206.6</ele>
        <time>2019-08-15T08:49:03Z</time>
      </trkpt>
      <trkpt lat="40.8849570" lon="-8.4892760">
        <ele>206.9</ele>
        <time>2019-08-15T08:49:04Z</time>
      </trkpt>
      <trkpt lat="40.8850090" lon="-8.4891710">
        <ele>207.6</ele>
        <time>2019-08-15T08:49:07Z</time>
      </trkpt>
      <trkpt lat="40.8851880" lon="-8.4889430">
        <ele>208.9</ele>
        <time>2019-08-15T08:49:14Z</time>
      </trkpt>
      <trkpt lat="40.8853190" lon="-8.4889480">
        <ele>209.3</ele>
        <time>2019-08-15T08:49:18Z</time>
      </trkpt>
      <trkpt lat="40.8853780" lon="-8.4889810">
        <ele>209.6</ele>
        <time>2019-08-15T08:49:20Z</time>
      </trkpt>
      <trkpt lat="40.8854080" lon="-8.4890030">
        <ele>209.6</ele>
        <time>2019-08-15T08:49:21Z</time>
      </trkpt>
      <trkpt lat="40.8854460" lon="-8.4890220">
        <ele>209.6</ele>
        <time>2019-08-15T08:49:22Z</time>
      </trkpt>
      <trkpt lat="40.8854850" lon="-8.4890430">
        <ele>209.6</ele>
        <time>2019-08-15T08:49:23Z</time>
      </trkpt>
      <trkpt lat="40.8855180" lon="-8.4890590">
        <ele>209.7</ele>
        <time>2019-08-15T08:49:24Z</time>
      </trkpt>
      <trkpt lat="40.8856710" lon="-8.4892050">
        <ele>209.8</ele>
        <time>2019-08-15T08:49:30Z</time>
      </trkpt>
      <trkpt lat="40.8858740" lon="-8.4893810">
        <ele>210.3</ele>
        <time>2019-08-15T08:49:37Z</time>
      </trkpt>
      <trkpt lat="40.8860920" lon="-8.4896070">
        <ele>210.8</ele>
        <time>2019-08-15T08:49:45Z</time>
      </trkpt>
      <trkpt lat="40.8863350" lon="-8.4896970">
        <ele>211.1</ele>
        <time>2019-08-15T08:49:51Z</time>
      </trkpt>
      <trkpt lat="40.8865300" lon="-8.4896920">
        <ele>211.6</ele>
        <time>2019-08-15T08:49:56Z</time>
      </trkpt>
      <trkpt lat="40.8865580" lon="-8.4896940">
        <ele>211.7</ele>
        <time>2019-08-15T08:49:57Z</time>
      </trkpt>
      <trkpt lat="40.8865830" lon="-8.4897020">
        <ele>211.9</ele>
        <time>2019-08-15T08:49:58Z</time>
      </trkpt>
      <trkpt lat="40.8866040" lon="-8.4897150">
        <ele>211.9</ele>
        <time>2019-08-15T08:49:59Z</time>
      </trkpt>
      <trkpt lat="40.8866250" lon="-8.4897270">
        <ele>211.8</ele>
        <time>2019-08-15T08:50:00Z</time>
      </trkpt>
      <trkpt lat="40.8866450" lon="-8.4897380">
        <ele>211.8</ele>
        <time>2019-08-15T08:50:01Z</time>
      </trkpt>
      <trkpt lat="40.8867260" lon="-8.4897750">
        <ele>211.8</ele>
        <time>2019-08-15T08:50:06Z</time>
      </trkpt>
      <trkpt lat="40.8867740" lon="-8.4898080">
        <ele>211.8</ele>
        <time>2019-08-15T08:50:18Z</time>
      </trkpt>
      <trkpt lat="40.8868370" lon="-8.4897930">
        <ele>211.7</ele>
        <time>2019-08-15T08:50:20Z</time>
      </trkpt>
      <trkpt lat="40.8868530" lon="-8.4897610">
        <ele>211.9</ele>
        <time>2019-08-15T08:50:21Z</time>
      </trkpt>
      <trkpt lat="40.8868570" lon="-8.4896590">
        <ele>212.2</ele>
        <time>2019-08-15T08:50:24Z</time>
      </trkpt>
      <trkpt lat="40.8868760" lon="-8.4895550">
        <ele>213.1</ele>
        <time>2019-08-15T08:50:27Z</time>
      </trkpt>
      <trkpt lat="40.8868850" lon="-8.4895300">
        <ele>213.3</ele>
        <time>2019-08-15T08:50:28Z</time>
      </trkpt>
      <trkpt lat="40.8868890" lon="-8.4895010">
        <ele>213.5</ele>
        <time>2019-08-15T08:50:29Z</time>
      </trkpt>
      <trkpt lat="40.8868950" lon="-8.4894720">
        <ele>213.7</ele>
        <time>2019-08-15T08:50:30Z</time>
      </trkpt>
      <trkpt lat="40.8869010" lon="-8.4894440">
        <ele>213.8</ele>
        <time>2019-08-15T08:50:31Z</time>
      </trkpt>
      <trkpt lat="40.8869110" lon="-8.4893750">
        <ele>214.2</ele>
        <time>2019-08-15T08:50:34Z</time>
      </trkpt>
      <trkpt lat="40.8869190" lon="-8.4893530">
        <ele>214.4</ele>
        <time>2019-08-15T08:50:35Z</time>
      </trkpt>
      <trkpt lat="40.8869290" lon="-8.4893290">
        <ele>214.6</ele>
        <time>2019-08-15T08:50:36Z</time>
      </trkpt>
      <trkpt lat="40.8869360" lon="-8.4893090">
        <ele>214.7</ele>
        <time>2019-08-15T08:50:37Z</time>
      </trkpt>
      <trkpt lat="40.8869420" lon="-8.4892840">
        <ele>214.9</ele>
        <time>2019-08-15T08:50:38Z</time>
      </trkpt>
      <trkpt lat="40.8869470" lon="-8.4891170">
        <ele>215.8</ele>
        <time>2019-08-15T08:50:44Z</time>
      </trkpt>
      <trkpt lat="40.8869280" lon="-8.4890060">
        <ele>216.0</ele>
        <time>2019-08-15T08:50:49Z</time>
      </trkpt>
      <trkpt lat="40.8869260" lon="-8.4889580">
        <ele>216.2</ele>
        <time>2019-08-15T08:50:54Z</time>
      </trkpt>
      <trkpt lat="40.8869410" lon="-8.4889220">
        <ele>216.3</ele>
        <time>2019-08-15T08:51:14Z</time>
      </trkpt>
      <trkpt lat="40.8869650" lon="-8.4889160">
        <ele>216.5</ele>
        <time>2019-08-15T08:51:15Z</time>
      </trkpt>
      <trkpt lat="40.8869840" lon="-8.4889330">
        <ele>216.6</ele>
        <time>2019-08-15T08:51:16Z</time>
      </trkpt>
      <trkpt lat="40.8870340" lon="-8.4889940">
        <ele>216.2</ele>
        <time>2019-08-15T08:51:19Z</time>
      </trkpt>
      <trkpt lat="40.8869780" lon="-8.4890990">
        <ele>215.8</ele>
        <time>2019-08-15T08:51:23Z</time>
      </trkpt>
      <trkpt lat="40.8869720" lon="-8.4891130">
        <ele>215.7</ele>
        <time>2019-08-15T08:51:27Z</time>
      </trkpt>
      <trkpt lat="40.8869710" lon="-8.4891270">
        <ele>215.7</ele>
        <time>2019-08-15T08:51:29Z</time>
      </trkpt>
      <trkpt lat="40.8869610" lon="-8.4891560">
        <ele>215.6</ele>
        <time>2019-08-15T08:51:59Z</time>
      </trkpt>
      <trkpt lat="40.8869570" lon="-8.4892330">
        <ele>215.2</ele>
        <time>2019-08-15T08:52:02Z</time>
      </trkpt>
      <trkpt lat="40.8869420" lon="-8.4894940">
        <ele>213.6</ele>
        <time>2019-08-15T08:52:09Z</time>
      </trkpt>
      <trkpt lat="40.8869360" lon="-8.4895290">
        <ele>213.3</ele>
        <time>2019-08-15T08:52:10Z</time>
      </trkpt>
      <trkpt lat="40.8869380" lon="-8.4895480">
        <ele>213.2</ele>
        <time>2019-08-15T08:52:11Z</time>
      </trkpt>
      <trkpt lat="40.8869390" lon="-8.4895700">
        <ele>212.9</ele>
        <time>2019-08-15T08:52:12Z</time>
      </trkpt>
      <trkpt lat="40.8869400" lon="-8.4895880">
        <ele>212.8</ele>
        <time>2019-08-15T08:52:13Z</time>
      </trkpt>
      <trkpt lat="40.8869430" lon="-8.4896020">
        <ele>212.7</ele>
        <time>2019-08-15T08:52:14Z</time>
      </trkpt>
      <trkpt lat="40.8869430" lon="-8.4896500">
        <ele>212.5</ele>
        <time>2019-08-15T08:52:17Z</time>
      </trkpt>
      <trkpt lat="40.8869390" lon="-8.4896790">
        <ele>212.4</ele>
        <time>2019-08-15T08:52:18Z</time>
      </trkpt>
      <trkpt lat="40.8869440" lon="-8.4897160">
        <ele>212.2</ele>
        <time>2019-08-15T08:52:19Z</time>
      </trkpt>
      <trkpt lat="40.8869460" lon="-8.4897650">
        <ele>212.0</ele>
        <time>2019-08-15T08:52:20Z</time>
      </trkpt>
      <trkpt lat="40.8869490" lon="-8.4898210">
        <ele>211.8</ele>
        <time>2019-08-15T08:52:21Z</time>
      </trkpt>
      <trkpt lat="40.8869670" lon="-8.4898760">
        <ele>211.6</ele>
        <time>2019-08-15T08:52:22Z</time>
      </trkpt>
      <trkpt lat="40.8869890" lon="-8.4899320">
        <ele>211.3</ele>
        <time>2019-08-15T08:52:23Z</time>
      </trkpt>
      <trkpt lat="40.8870210" lon="-8.4899760">
        <ele>211.0</ele>
        <time>2019-08-15T08:52:24Z</time>
      </trkpt>
      <trkpt lat="40.8870670" lon="-8.4900100">
        <ele>210.5</ele>
        <time>2019-08-15T08:52:25Z</time>
      </trkpt>
      <trkpt lat="40.8871040" lon="-8.4900420">
        <ele>210.2</ele>
        <time>2019-08-15T08:52:26Z</time>
      </trkpt>
      <trkpt lat="40.8871390" lon="-8.4900810">
        <ele>209.9</ele>
        <time>2019-08-15T08:52:27Z</time>
      </trkpt>
      <trkpt lat="40.8871750" lon="-8.4901250">
        <ele>209.6</ele>
        <time>2019-08-15T08:52:28Z</time>
      </trkpt>
      <trkpt lat="40.8873140" lon="-8.4903140">
        <ele>208.0</ele>
        <time>2019-08-15T08:52:32Z</time>
      </trkpt>
      <trkpt lat="40.8875410" lon="-8.4907090">
        <ele>205.4</ele>
        <time>2019-08-15T08:52:39Z</time>
      </trkpt>
      <trkpt lat="40.8875910" lon="-8.4907330">
        <ele>205.1</ele>
        <time>2019-08-15T08:52:40Z</time>
      </trkpt>
      <trkpt lat="40.8876470" lon="-8.4907520">
        <ele>204.8</ele>
        <time>2019-08-15T08:52:41Z</time>
      </trkpt>
      <trkpt lat="40.8877010" lon="-8.4907660">
        <ele>204.4</ele>
        <time>2019-08-15T08:52:42Z</time>
      </trkpt>
      <trkpt lat="40.8877460" lon="-8.4907940">
        <ele>204.0</ele>
        <time>2019-08-15T08:52:43Z</time>
      </trkpt>
      <trkpt lat="40.8878310" lon="-8.4908440">
        <ele>203.6</ele>
        <time>2019-08-15T08:52:45Z</time>
      </trkpt>
      <trkpt lat="40.8879410" lon="-8.4909320">
        <ele>203.1</ele>
        <time>2019-08-15T08:52:48Z</time>
      </trkpt>
      <trkpt lat="40.8882440" lon="-8.4911760">
        <ele>202.4</ele>
        <time>2019-08-15T08:52:55Z</time>
      </trkpt>
      <trkpt lat="40.8886590" lon="-8.4914760">
        <ele>203.3</ele>
        <time>2019-08-15T08:53:04Z</time>
      </trkpt>
      <trkpt lat="40.8888180" lon="-8.4916490">
        <ele>204.8</ele>
        <time>2019-08-15T08:53:09Z</time>
      </trkpt>
      <trkpt lat="40.8889950" lon="-8.4918440">
        <ele>206.5</ele>
        <time>2019-08-15T08:53:15Z</time>
      </trkpt>
      <trkpt lat="40.8891060" lon="-8.4919030">
        <ele>207.1</ele>
        <time>2019-08-15T08:53:17Z</time>
      </trkpt>
      <trkpt lat="40.8892000" lon="-8.4919360">
        <ele>207.7</ele>
        <time>2019-08-15T08:53:19Z</time>
      </trkpt>
      <trkpt lat="40.8894450" lon="-8.4921600">
        <ele>209.5</ele>
        <time>2019-08-15T08:53:26Z</time>
      </trkpt>
      <trkpt lat="40.8896450" lon="-8.4923240">
        <ele>210.7</ele>
        <time>2019-08-15T08:53:32Z</time>
      </trkpt>
      <trkpt lat="40.8896880" lon="-8.4923530">
        <ele>211.0</ele>
        <time>2019-08-15T08:53:33Z</time>
      </trkpt>
      <trkpt lat="40.8897200" lon="-8.4923800">
        <ele>211.3</ele>
        <time>2019-08-15T08:53:34Z</time>
      </trkpt>
      <trkpt lat="40.8897640" lon="-8.4924180">
        <ele>211.9</ele>
        <time>2019-08-15T08:53:35Z</time>
      </trkpt>
      <trkpt lat="40.8897830" lon="-8.4924270">
        <ele>212.1</ele>
        <time>2019-08-15T08:53:36Z</time>
      </trkpt>
      <trkpt lat="40.8898990" lon="-8.4924230">
        <ele>213.0</ele>
        <time>2019-08-15T08:53:39Z</time>
      </trkpt>
      <trkpt lat="40.8901970" lon="-8.4925820">
        <ele>214.1</ele>
        <time>2019-08-15T08:53:44Z</time>
      </trkpt>
      <trkpt lat="40.8902590" lon="-8.4926270">
        <ele>214.0</ele>
        <time>2019-08-15T08:53:46Z</time>
      </trkpt>
      <trkpt lat="40.8902900" lon="-8.4926450">
        <ele>213.8</ele>
        <time>2019-08-15T08:53:47Z</time>
      </trkpt>
      <trkpt lat="40.8903140" lon="-8.4926590">
        <ele>213.7</ele>
        <time>2019-08-15T08:53:48Z</time>
      </trkpt>
      <trkpt lat="40.8903290" lon="-8.4926760">
        <ele>213.6</ele>
        <time>2019-08-15T08:53:49Z</time>
      </trkpt>
      <trkpt lat="40.8903420" lon="-8.4926940">
        <ele>213.5</ele>
        <time>2019-08-15T08:53:50Z</time>
      </trkpt>
      <trkpt lat="40.8903860" lon="-8.4927310">
        <ele>213.3</ele>
        <time>2019-08-15T08:53:52Z</time>
      </trkpt>
      <trkpt lat="40.8906190" lon="-8.4927910">
        <ele>212.5</ele>
        <time>2019-08-15T08:53:58Z</time>
      </trkpt>
      <trkpt lat="40.8908070" lon="-8.4928760">
        <ele>212.6</ele>
        <time>2019-08-15T08:54:04Z</time>
      </trkpt>
      <trkpt lat="40.8910140" lon="-8.4929520">
        <ele>213.5</ele>
        <time>2019-08-15T08:54:09Z</time>
      </trkpt>
      <trkpt lat="40.8912210" lon="-8.4930530">
        <ele>214.9</ele>
        <time>2019-08-15T08:54:15Z</time>
      </trkpt>
      <trkpt lat="40.8912550" lon="-8.4930770">
        <ele>215.0</ele>
        <time>2019-08-15T08:54:16Z</time>
      </trkpt>
      <trkpt lat="40.8913020" lon="-8.4930930">
        <ele>215.3</ele>
        <time>2019-08-15T08:54:17Z</time>
      </trkpt>
      <trkpt lat="40.8913550" lon="-8.4931180">
        <ele>215.5</ele>
        <time>2019-08-15T08:54:18Z</time>
      </trkpt>
      <trkpt lat="40.8913930" lon="-8.4931290">
        <ele>215.7</ele>
        <time>2019-08-15T08:54:19Z</time>
      </trkpt>
      <trkpt lat="40.8915190" lon="-8.4931730">
        <ele>216.2</ele>
        <time>2019-08-15T08:54:22Z</time>
      </trkpt>
      <trkpt lat="40.8917920" lon="-8.4932850">
        <ele>217.8</ele>
        <time>2019-08-15T08:54:29Z</time>
      </trkpt>
      <trkpt lat="40.8919480" lon="-8.4933180">
        <ele>218.8</ele>
        <time>2019-08-15T08:54:33Z</time>
      </trkpt>
      <trkpt lat="40.8919830" lon="-8.4933330">
        <ele>219.0</ele>
        <time>2019-08-15T08:54:34Z</time>
      </trkpt>
      <trkpt lat="40.8920220" lon="-8.4933430">
        <ele>219.3</ele>
        <time>2019-08-15T08:54:35Z</time>
      </trkpt>
      <trkpt lat="40.8920620" lon="-8.4933570">
        <ele>219.4</ele>
        <time>2019-08-15T08:54:36Z</time>
      </trkpt>
      <trkpt lat="40.8920930" lon="-8.4933730">
        <ele>219.5</ele>
        <time>2019-08-15T08:54:37Z</time>
      </trkpt>
      <trkpt lat="40.8922010" lon="-8.4934000">
        <ele>219.9</ele>
        <time>2019-08-15T08:54:41Z</time>
      </trkpt>
      <trkpt lat="40.8923650" lon="-8.4934250">
        <ele>220.4</ele>
        <time>2019-08-15T08:54:47Z</time>
      </trkpt>
      <trkpt lat="40.8926080" lon="-8.4934490">
        <ele>220.9</ele>
        <time>2019-08-15T08:54:55Z</time>
      </trkpt>
      <trkpt lat="40.8929000" lon="-8.4934660">
        <ele>221.3</ele>
        <time>2019-08-15T08:55:00Z</time>
      </trkpt>
      <trkpt lat="40.8931790" lon="-8.4934780">
        <ele>221.9</ele>
        <time>2019-08-15T08:55:06Z</time>
      </trkpt>
      <trkpt lat="40.8934970" lon="-8.4934700">
        <ele>223.2</ele>
        <time>2019-08-15T08:55:14Z</time>
      </trkpt>
      <trkpt lat="40.8937350" lon="-8.4934730">
        <ele>224.4</ele>
        <time>2019-08-15T08:55:19Z</time>
      </trkpt>
      <trkpt lat="40.8937630" lon="-8.4934800">
        <ele>224.5</ele>
        <time>2019-08-15T08:55:20Z</time>
      </trkpt>
      <trkpt lat="40.8938190" lon="-8.4934690">
        <ele>224.8</ele>
        <time>2019-08-15T08:55:21Z</time>
      </trkpt>
      <trkpt lat="40.8938610" lon="-8.4934730">
        <ele>225.1</ele>
        <time>2019-08-15T08:55:22Z</time>
      </trkpt>
      <trkpt lat="40.8939030" lon="-8.4934590">
        <ele>225.4</ele>
        <time>2019-08-15T08:55:23Z</time>
      </trkpt>
      <trkpt lat="40.8939470" lon="-8.4934330">
        <ele>225.8</ele>
        <time>2019-08-15T08:55:24Z</time>
      </trkpt>
      <trkpt lat="40.8939880" lon="-8.4934000">
        <ele>226.1</ele>
        <time>2019-08-15T08:55:25Z</time>
      </trkpt>
      <trkpt lat="40.8941340" lon="-8.4932540">
        <ele>226.3</ele>
        <time>2019-08-15T08:55:29Z</time>
      </trkpt>
      <trkpt lat="40.8943080" lon="-8.4930930">
        <ele>225.9</ele>
        <time>2019-08-15T08:55:34Z</time>
      </trkpt>
      <trkpt lat="40.8943680" lon="-8.4930050">
        <ele>226.0</ele>
        <time>2019-08-15T08:55:36Z</time>
      </trkpt>
      <trkpt lat="40.8944470" lon="-8.4928950">
        <ele>226.1</ele>
        <time>2019-08-15T08:55:39Z</time>
      </trkpt>
      <trkpt lat="40.8946960" lon="-8.4926480">
        <ele>226.4</ele>
        <time>2019-08-15T08:55:47Z</time>
      </trkpt>
      <trkpt lat="40.8949440" lon="-8.4924330">
        <ele>226.7</ele>
        <time>2019-08-15T08:55:54Z</time>
      </trkpt>
      <trkpt lat="40.8950590" lon="-8.4923160">
        <ele>227.0</ele>
        <time>2019-08-15T08:55:58Z</time>
      </trkpt>
      <trkpt lat="40.8950940" lon="-8.4922950">
        <ele>227.0</ele>
        <time>2019-08-15T08:55:59Z</time>
      </trkpt>
      <trkpt lat="40.8951280" lon="-8.4922780">
        <ele>227.1</ele>
        <time>2019-08-15T08:56:00Z</time>
      </trkpt>
      <trkpt lat="40.8951550" lon="-8.4922600">
        <ele>227.1</ele>
        <time>2019-08-15T08:56:01Z</time>
      </trkpt>
      <trkpt lat="40.8951750" lon="-8.4922380">
        <ele>227.2</ele>
        <time>2019-08-15T08:56:02Z</time>
      </trkpt>
      <trkpt lat="40.8952560" lon="-8.4921580">
        <ele>227.3</ele>
        <time>2019-08-15T08:56:06Z</time>
      </trkpt>
      <trkpt lat="40.8952800" lon="-8.4921430">
        <ele>227.4</ele>
        <time>2019-08-15T08:56:07Z</time>
      </trkpt>
      <trkpt lat="40.8953030" lon="-8.4921240">
        <ele>227.4</ele>
        <time>2019-08-15T08:56:08Z</time>
      </trkpt>
      <trkpt lat="40.8953270" lon="-8.4920960">
        <ele>227.5</ele>
        <time>2019-08-15T08:56:09Z</time>
      </trkpt>
      <trkpt lat="40.8953450" lon="-8.4920660">
        <ele>227.5</ele>
        <time>2019-08-15T08:56:10Z</time>
      </trkpt>
      <trkpt lat="40.8954270" lon="-8.4919570">
        <ele>227.7</ele>
        <time>2019-08-15T08:56:14Z</time>
      </trkpt>
      <trkpt lat="40.8954510" lon="-8.4919300">
        <ele>227.8</ele>
        <time>2019-08-15T08:56:15Z</time>
      </trkpt>
      <trkpt lat="40.8954720" lon="-8.4919020">
        <ele>227.8</ele>
        <time>2019-08-15T08:56:16Z</time>
      </trkpt>
      <trkpt lat="40.8954910" lon="-8.4918790">
        <ele>227.8</ele>
        <time>2019-08-15T08:56:17Z</time>
      </trkpt>
      <trkpt lat="40.8955070" lon="-8.4918490">
        <ele>227.8</ele>
        <time>2019-08-15T08:56:18Z</time>
      </trkpt>
      <trkpt lat="40.8955190" lon="-8.4918200">
        <ele>227.8</ele>
        <time>2019-08-15T08:56:19Z</time>
      </trkpt>
      <trkpt lat="40.8955560" lon="-8.4917730">
        <ele>227.8</ele>
        <time>2019-08-15T08:56:21Z</time>
      </trkpt>
      <trkpt lat="40.8955880" lon="-8.4917270">
        <ele>227.7</ele>
        <time>2019-08-15T08:56:23Z</time>
      </trkpt>
      <trkpt lat="40.8956040" lon="-8.4917050">
        <ele>227.7</ele>
        <time>2019-08-15T08:56:24Z</time>
      </trkpt>
      <trkpt lat="40.8956150" lon="-8.4916840">
        <ele>227.7</ele>
        <time>2019-08-15T08:56:25Z</time>
      </trkpt>
      <trkpt lat="40.8956370" lon="-8.4916530">
        <ele>227.6</ele>
        <time>2019-08-15T08:56:26Z</time>
      </trkpt>
      <trkpt lat="40.8956580" lon="-8.4916250">
        <ele>227.6</ele>
        <time>2019-08-15T08:56:27Z</time>
      </trkpt>
      <trkpt lat="40.8956990" lon="-8.4915830">
        <ele>227.4</ele>
        <time>2019-08-15T08:56:29Z</time>
      </trkpt>
      <trkpt lat="40.8957140" lon="-8.4915670">
        <ele>227.4</ele>
        <time>2019-08-15T08:56:32Z</time>
      </trkpt>
      <trkpt lat="40.8958230" lon="-8.4914140">
        <ele>226.3</ele>
        <time>2019-08-15T08:56:48Z</time>
      </trkpt>
      <trkpt lat="40.8959080" lon="-8.4911680">
        <ele>224.7</ele>
        <time>2019-08-15T08:56:52Z</time>
      </trkpt>
      <trkpt lat="40.8959240" lon="-8.4911060">
        <ele>224.3</ele>
        <time>2019-08-15T08:56:53Z</time>
      </trkpt>
      <trkpt lat="40.8959330" lon="-8.4910530">
        <ele>224.0</ele>
        <time>2019-08-15T08:56:54Z</time>
      </trkpt>
      <trkpt lat="40.8959390" lon="-8.4910150">
        <ele>223.8</ele>
        <time>2019-08-15T08:56:55Z</time>
      </trkpt>
      <trkpt lat="40.8959420" lon="-8.4909810">
        <ele>223.2</ele>
        <time>2019-08-15T08:56:56Z</time>
      </trkpt>
      <trkpt lat="40.8959340" lon="-8.4909490">
        <ele>222.8</ele>
        <time>2019-08-15T08:56:57Z</time>
      </trkpt>
      <trkpt lat="40.8959440" lon="-8.4909280">
        <ele>222.5</ele>
        <time>2019-08-15T08:56:58Z</time>
      </trkpt>
      <trkpt lat="40.8959570" lon="-8.4909030">
        <ele>222.2</ele>
        <time>2019-08-15T08:56:59Z</time>
      </trkpt>
      <trkpt lat="40.8959740" lon="-8.4908800">
        <ele>221.7</ele>
        <time>2019-08-15T08:57:00Z</time>
      </trkpt>
      <trkpt lat="40.8959960" lon="-8.4908550">
        <ele>221.8</ele>
        <time>2019-08-15T08:57:01Z</time>
      </trkpt>
      <trkpt lat="40.8960290" lon="-8.4908300">
        <ele>221.9</ele>
        <time>2019-08-15T08:57:02Z</time>
      </trkpt>
      <trkpt lat="40.8960770" lon="-8.4908570">
        <ele>222.1</ele>
        <time>2019-08-15T08:57:03Z</time>
      </trkpt>
      <trkpt lat="40.8962710" lon="-8.4909670">
        <ele>222.7</ele>
        <time>2019-08-15T08:57:08Z</time>
      </trkpt>
      <trkpt lat="40.8964550" lon="-8.4910610">
        <ele>223.3</ele>
        <time>2019-08-15T08:57:13Z</time>
      </trkpt>
      <trkpt lat="40.8964870" lon="-8.4910820">
        <ele>223.6</ele>
        <time>2019-08-15T08:57:14Z</time>
      </trkpt>
      <trkpt lat="40.8965200" lon="-8.4911050">
        <ele>223.8</ele>
        <time>2019-08-15T08:57:15Z</time>
      </trkpt>
      <trkpt lat="40.8965510" lon="-8.4911250">
        <ele>224.0</ele>
        <time>2019-08-15T08:57:16Z</time>
      </trkpt>
      <trkpt lat="40.8965730" lon="-8.4911380">
        <ele>224.2</ele>
        <time>2019-08-15T08:57:17Z</time>
      </trkpt>
      <trkpt lat="40.8966500" lon="-8.4911810">
        <ele>224.6</ele>
        <time>2019-08-15T08:57:20Z</time>
      </trkpt>
      <trkpt lat="40.8968380" lon="-8.4913160">
        <ele>225.4</ele>
        <time>2019-08-15T08:57:26Z</time>
      </trkpt>
      <trkpt lat="40.8969410" lon="-8.4913770">
        <ele>225.7</ele>
        <time>2019-08-15T08:57:29Z</time>
      </trkpt>
      <trkpt lat="40.8969700" lon="-8.4913940">
        <ele>225.8</ele>
        <time>2019-08-15T08:57:30Z</time>
      </trkpt>
      <trkpt lat="40.8969960" lon="-8.4914100">
        <ele>225.8</ele>
        <time>2019-08-15T08:57:31Z</time>
      </trkpt>
      <trkpt lat="40.8970190" lon="-8.4914210">
        <ele>225.9</ele>
        <time>2019-08-15T08:57:32Z</time>
      </trkpt>
      <trkpt lat="40.8970420" lon="-8.4914390">
        <ele>225.9</ele>
        <time>2019-08-15T08:57:33Z</time>
      </trkpt>
      <trkpt lat="40.8971850" lon="-8.4915770">
        <ele>226.1</ele>
        <time>2019-08-15T08:57:39Z</time>
      </trkpt>
      <trkpt lat="40.8973480" lon="-8.4916850">
        <ele>226.3</ele>
        <time>2019-08-15T08:57:45Z</time>
      </trkpt>
      <trkpt lat="40.8974770" lon="-8.4916970">
        <ele>227.3</ele>
        <time>2019-08-15T08:57:49Z</time>
      </trkpt>
      <trkpt lat="40.8975660" lon="-8.4916800">
        <ele>228.0</ele>
        <time>2019-08-15T08:57:50Z</time>
      </trkpt>
      <trkpt lat="40.8976960" lon="-8.4916740">
        <ele>229.2</ele>
        <time>2019-08-15T08:57:53Z</time>
      </trkpt>
      <trkpt lat="40.8977240" lon="-8.4916950">
        <ele>229.1</ele>
        <time>2019-08-15T08:57:55Z</time>
      </trkpt>
      <trkpt lat="40.8977700" lon="-8.4917860">
        <ele>229.1</ele>
        <time>2019-08-15T08:58:00Z</time>
      </trkpt>
      <trkpt lat="40.8978150" lon="-8.4918450">
        <ele>229.1</ele>
        <time>2019-08-15T08:58:05Z</time>
      </trkpt>
      <trkpt lat="40.8979040" lon="-8.4919180">
        <ele>229.0</ele>
        <time>2019-08-15T08:58:10Z</time>
      </trkpt>
      <trkpt lat="40.8979890" lon="-8.4919530">
        <ele>229.0</ele>
        <time>2019-08-15T08:58:15Z</time>
      </trkpt>
      <trkpt lat="40.8981040" lon="-8.4920080">
        <ele>229.0</ele>
        <time>2019-08-15T08:58:20Z</time>
      </trkpt>
      <trkpt lat="40.8981300" lon="-8.4920230">
        <ele>229.0</ele>
        <time>2019-08-15T08:58:22Z</time>
      </trkpt>
      <trkpt lat="40.8981500" lon="-8.4920190">
        <ele>229.0</ele>
        <time>2019-08-15T08:58:23Z</time>
      </trkpt>
      <trkpt lat="40.8981680" lon="-8.4920210">
        <ele>229.1</ele>
        <time>2019-08-15T08:58:24Z</time>
      </trkpt>
      <trkpt lat="40.8981860" lon="-8.4920300">
        <ele>229.1</ele>
        <time>2019-08-15T08:58:25Z</time>
      </trkpt>
      <trkpt lat="40.8982290" lon="-8.4920390">
        <ele>229.1</ele>
        <time>2019-08-15T08:58:26Z</time>
      </trkpt>
      <trkpt lat="40.8982890" lon="-8.4920650">
        <ele>229.3</ele>
        <time>2019-08-15T08:58:27Z</time>
      </trkpt>
      <trkpt lat="40.8984550" lon="-8.4921830">
        <ele>229.9</ele>
        <time>2019-08-15T08:58:32Z</time>
      </trkpt>
      <trkpt lat="40.8986570" lon="-8.4922030">
        <ele>230.5</ele>
        <time>2019-08-15T08:58:39Z</time>
      </trkpt>
      <trkpt lat="40.8987080" lon="-8.4922030">
        <ele>230.4</ele>
        <time>2019-08-15T08:58:41Z</time>
      </trkpt>
      <trkpt lat="40.8987280" lon="-8.4922050">
        <ele>230.4</ele>
        <time>2019-08-15T08:58:42Z</time>
      </trkpt>
      <trkpt lat="40.8988120" lon="-8.4922450">
        <ele>230.3</ele>
        <time>2019-08-15T08:58:43Z</time>
      </trkpt>
      <trkpt lat="40.8988670" lon="-8.4922710">
        <ele>230.2</ele>
        <time>2019-08-15T08:58:44Z</time>
      </trkpt>
      <trkpt lat="40.8989160" lon="-8.4922980">
        <ele>230.2</ele>
        <time>2019-08-15T08:58:45Z</time>
      </trkpt>
      <trkpt lat="40.8989540" lon="-8.4923220">
        <ele>230.2</ele>
        <time>2019-08-15T08:58:46Z</time>
      </trkpt>
      <trkpt lat="40.8991270" lon="-8.4924770">
        <ele>230.3</ele>
        <time>2019-08-15T08:58:53Z</time>
      </trkpt>
      <trkpt lat="40.8992300" lon="-8.4925750">
        <ele>230.3</ele>
        <time>2019-08-15T08:58:57Z</time>
      </trkpt>
      <trkpt lat="40.8994750" lon="-8.4927620">
        <ele>230.2</ele>
        <time>2019-08-15T08:59:04Z</time>
      </trkpt>
      <trkpt lat="40.8996950" lon="-8.4929670">
        <ele>229.9</ele>
        <time>2019-08-15T08:59:11Z</time>
      </trkpt>
      <trkpt lat="40.8999570" lon="-8.4931430">
        <ele>229.5</ele>
        <time>2019-08-15T08:59:19Z</time>
      </trkpt>
      <trkpt lat="40.9001230" lon="-8.4932900">
        <ele>229.1</ele>
        <time>2019-08-15T08:59:25Z</time>
      </trkpt>
      <trkpt lat="40.9003750" lon="-8.4934970">
        <ele>228.6</ele>
        <time>2019-08-15T08:59:32Z</time>
      </trkpt>
      <trkpt lat="40.9004150" lon="-8.4934890">
        <ele>228.5</ele>
        <time>2019-08-15T08:59:35Z</time>
      </trkpt>
      <trkpt lat="40.9004480" lon="-8.4935300">
        <ele>228.4</ele>
        <time>2019-08-15T08:59:43Z</time>
      </trkpt>
      <trkpt lat="40.9005730" lon="-8.4936860">
        <ele>228.4</ele>
        <time>2019-08-15T08:59:47Z</time>
      </trkpt>
      <trkpt lat="40.9008660" lon="-8.4939370">
        <ele>228.2</ele>
        <time>2019-08-15T08:59:53Z</time>
      </trkpt>
      <trkpt lat="40.9012140" lon="-8.4942060">
        <ele>226.3</ele>
        <time>2019-08-15T09:00:00Z</time>
      </trkpt>
      <trkpt lat="40.9014060" lon="-8.4943850">
        <ele>225.0</ele>
        <time>2019-08-15T09:00:04Z</time>
      </trkpt>
      <trkpt lat="40.9014330" lon="-8.4944530">
        <ele>224.7</ele>
        <time>2019-08-15T09:00:05Z</time>
      </trkpt>
      <trkpt lat="40.9014740" lon="-8.4945050">
        <ele>224.3</ele>
        <time>2019-08-15T09:00:06Z</time>
      </trkpt>
      <trkpt lat="40.9015260" lon="-8.4945520">
        <ele>224.0</ele>
        <time>2019-08-15T09:00:07Z</time>
      </trkpt>
      <trkpt lat="40.9015850" lon="-8.4945980">
        <ele>223.9</ele>
        <time>2019-08-15T09:00:08Z</time>
      </trkpt>
      <trkpt lat="40.9019540" lon="-8.4948950">
        <ele>221.6</ele>
        <time>2019-08-15T09:00:15Z</time>
      </trkpt>
      <trkpt lat="40.9020670" lon="-8.4949820">
        <ele>220.2</ele>
        <time>2019-08-15T09:00:17Z</time>
      </trkpt>
      <trkpt lat="40.9021200" lon="-8.4950240">
        <ele>219.7</ele>
        <time>2019-08-15T09:00:18Z</time>
      </trkpt>
      <trkpt lat="40.9021750" lon="-8.4950630">
        <ele>219.2</ele>
        <time>2019-08-15T09:00:19Z</time>
      </trkpt>
      <trkpt lat="40.9022340" lon="-8.4951070">
        <ele>218.8</ele>
        <time>2019-08-15T09:00:20Z</time>
      </trkpt>
      <trkpt lat="40.9022940" lon="-8.4951470">
        <ele>218.5</ele>
        <time>2019-08-15T09:00:21Z</time>
      </trkpt>
      <trkpt lat="40.9024090" lon="-8.4952270">
        <ele>218.2</ele>
        <time>2019-08-15T09:00:23Z</time>
      </trkpt>
      <trkpt lat="40.9027700" lon="-8.4954760">
        <ele>220.6</ele>
        <time>2019-08-15T09:00:30Z</time>
      </trkpt>
      <trkpt lat="40.9029480" lon="-8.4954830">
        <ele>222.8</ele>
        <time>2019-08-15T09:00:33Z</time>
      </trkpt>
      <trkpt lat="40.9030630" lon="-8.4954830">
        <ele>223.8</ele>
        <time>2019-08-15T09:00:35Z</time>
      </trkpt>
      <trkpt lat="40.9035180" lon="-8.4954790">
        <ele>226.6</ele>
        <time>2019-08-15T09:00:43Z</time>
      </trkpt>
      <trkpt lat="40.9040810" lon="-8.4954240">
        <ele>225.0</ele>
        <time>2019-08-15T09:00:54Z</time>
      </trkpt>
      <trkpt lat="40.9043040" lon="-8.4954800">
        <ele>224.0</ele>
        <time>2019-08-15T09:00:59Z</time>
      </trkpt>
      <trkpt lat="40.9045580" lon="-8.4954460">
        <ele>223.6</ele>
        <time>2019-08-15T09:01:05Z</time>
      </trkpt>
      <trkpt lat="40.9048730" lon="-8.4954290">
        <ele>223.3</ele>
        <time>2019-08-15T09:01:12Z</time>
      </trkpt>
      <trkpt lat="40.9050720" lon="-8.4954190">
        <ele>223.0</ele>
        <time>2019-08-15T09:01:17Z</time>
      </trkpt>
      <trkpt lat="40.9051160" lon="-8.4953950">
        <ele>223.0</ele>
        <time>2019-08-15T09:01:18Z</time>
      </trkpt>
      <trkpt lat="40.9052120" lon="-8.4953890">
        <ele>223.5</ele>
        <time>2019-08-15T09:01:20Z</time>
      </trkpt>
      <trkpt lat="40.9053040" lon="-8.4954230">
        <ele>223.8</ele>
        <time>2019-08-15T09:01:22Z</time>
      </trkpt>
      <trkpt lat="40.9054000" lon="-8.4954250">
        <ele>224.4</ele>
        <time>2019-08-15T09:01:24Z</time>
      </trkpt>
      <trkpt lat="40.9055040" lon="-8.4954180">
        <ele>225.2</ele>
        <time>2019-08-15T09:01:26Z</time>
      </trkpt>
      <trkpt lat="40.9057970" lon="-8.4954180">
        <ele>226.5</ele>
        <time>2019-08-15T09:01:33Z</time>
      </trkpt>
      <trkpt lat="40.9058410" lon="-8.4954180">
        <ele>226.6</ele>
        <time>2019-08-15T09:01:34Z</time>
      </trkpt>
      <trkpt lat="40.9058800" lon="-8.4954170">
        <ele>226.6</ele>
        <time>2019-08-15T09:01:35Z</time>
      </trkpt>
      <trkpt lat="40.9059310" lon="-8.4954190">
        <ele>226.8</ele>
        <time>2019-08-15T09:01:36Z</time>
      </trkpt>
      <trkpt lat="40.9059730" lon="-8.4954200">
        <ele>226.9</ele>
        <time>2019-08-15T09:01:37Z</time>
      </trkpt>
      <trkpt lat="40.9062410" lon="-8.4954120">
        <ele>227.7</ele>
        <time>2019-08-15T09:01:44Z</time>
      </trkpt>
      <trkpt lat="40.9062830" lon="-8.4954100">
        <ele>227.8</ele>
        <time>2019-08-15T09:01:45Z</time>
      </trkpt>
      <trkpt lat="40.9063180" lon="-8.4954080">
        <ele>227.9</ele>
        <time>2019-08-15T09:01:46Z</time>
      </trkpt>
      <trkpt lat="40.9063560" lon="-8.4954040">
        <ele>228.2</ele>
        <time>2019-08-15T09:01:47Z</time>
      </trkpt>
      <trkpt lat="40.9063940" lon="-8.4953990">
        <ele>228.4</ele>
        <time>2019-08-15T09:01:48Z</time>
      </trkpt>
      <trkpt lat="40.9065760" lon="-8.4954010">
        <ele>229.5</ele>
        <time>2019-08-15T09:01:53Z</time>
      </trkpt>
      <trkpt lat="40.9066130" lon="-8.4953960">
        <ele>229.7</ele>
        <time>2019-08-15T09:01:54Z</time>
      </trkpt>
      <trkpt lat="40.9066490" lon="-8.4953910">
        <ele>229.9</ele>
        <time>2019-08-15T09:01:55Z</time>
      </trkpt>
      <trkpt lat="40.9066980" lon="-8.4953890">
        <ele>230.1</ele>
        <time>2019-08-15T09:01:56Z</time>
      </trkpt>
      <trkpt lat="40.9067420" lon="-8.4953890">
        <ele>230.3</ele>
        <time>2019-08-15T09:01:57Z</time>
      </trkpt>
      <trkpt lat="40.9067750" lon="-8.4953900">
        <ele>230.5</ele>
        <time>2019-08-15T09:01:58Z</time>
      </trkpt>
      <trkpt lat="40.9068500" lon="-8.4953850">
        <ele>230.8</ele>
        <time>2019-08-15T09:02:00Z</time>
      </trkpt>
      <trkpt lat="40.9071250" lon="-8.4953680">
        <ele>232.0</ele>
        <time>2019-08-15T09:02:07Z</time>
      </trkpt>
      <trkpt lat="40.9071670" lon="-8.4953690">
        <ele>232.2</ele>
        <time>2019-08-15T09:02:08Z</time>
      </trkpt>
      <trkpt lat="40.9072030" lon="-8.4953720">
        <ele>232.4</ele>
        <time>2019-08-15T09:02:09Z</time>
      </trkpt>
      <trkpt lat="40.9072370" lon="-8.4953790">
        <ele>232.6</ele>
        <time>2019-08-15T09:02:10Z</time>
      </trkpt>
      <trkpt lat="40.9072770" lon="-8.4953780">
        <ele>232.8</ele>
        <time>2019-08-15T09:02:11Z</time>
      </trkpt>
      <trkpt lat="40.9075130" lon="-8.4953770">
        <ele>233.8</ele>
        <time>2019-08-15T09:02:18Z</time>
      </trkpt>
      <trkpt lat="40.9076100" lon="-8.4953760">
        <ele>234.3</ele>
        <time>2019-08-15T09:02:21Z</time>
      </trkpt>
      <trkpt lat="40.9076360" lon="-8.4953750">
        <ele>234.4</ele>
        <time>2019-08-15T09:02:22Z</time>
      </trkpt>
      <trkpt lat="40.9076620" lon="-8.4953800">
        <ele>234.5</ele>
        <time>2019-08-15T09:02:23Z</time>
      </trkpt>
      <trkpt lat="40.9076910" lon="-8.4953810">
        <ele>234.7</ele>
        <time>2019-08-15T09:02:24Z</time>
      </trkpt>
      <trkpt lat="40.9077190" lon="-8.4953820">
        <ele>234.8</ele>
        <time>2019-08-15T09:02:25Z</time>
      </trkpt>
      <trkpt lat="40.9077710" lon="-8.4953810">
        <ele>235.1</ele>
        <time>2019-08-15T09:02:27Z</time>
      </trkpt>
      <trkpt lat="40.9079770" lon="-8.4953720">
        <ele>236.1</ele>
        <time>2019-08-15T09:02:34Z</time>
      </trkpt>
      <trkpt lat="40.9080110" lon="-8.4953650">
        <ele>236.3</ele>
        <time>2019-08-15T09:02:35Z</time>
      </trkpt>
      <trkpt lat="40.9080420" lon="-8.4953580">
        <ele>236.4</ele>
        <time>2019-08-15T09:02:36Z</time>
      </trkpt>
      <trkpt lat="40.9080730" lon="-8.4953510">
        <ele>236.5</ele>
        <time>2019-08-15T09:02:37Z</time>
      </trkpt>
      <trkpt lat="40.9081010" lon="-8.4953460">
        <ele>236.7</ele>
        <time>2019-08-15T09:02:38Z</time>
      </trkpt>
      <trkpt lat="40.9082940" lon="-8.4953380">
        <ele>237.6</ele>
        <time>2019-08-15T09:02:44Z</time>
      </trkpt>
      <trkpt lat="40.9084240" lon="-8.4952810">
        <ele>238.4</ele>
        <time>2019-08-15T09:02:49Z</time>
      </trkpt>
      <trkpt lat="40.9084550" lon="-8.4952780">
        <ele>238.4</ele>
        <time>2019-08-15T09:02:50Z</time>
      </trkpt>
      <trkpt lat="40.9084820" lon="-8.4952840">
        <ele>238.6</ele>
        <time>2019-08-15T09:02:51Z</time>
      </trkpt>
      <trkpt lat="40.9085110" lon="-8.4952930">
        <ele>238.6</ele>
        <time>2019-08-15T09:02:52Z</time>
      </trkpt>
      <trkpt lat="40.9085410" lon="-8.4953040">
        <ele>238.7</ele>
        <time>2019-08-15T09:02:53Z</time>
      </trkpt>
      <trkpt lat="40.9085740" lon="-8.4953140">
        <ele>238.7</ele>
        <time>2019-08-15T09:02:54Z</time>
      </trkpt>
      <trkpt lat="40.9087740" lon="-8.4953530">
        <ele>240.8</ele>
        <time>2019-08-15T09:03:01Z</time>
      </trkpt>
      <trkpt lat="40.9089610" lon="-8.4953520">
        <ele>242.6</ele>
        <time>2019-08-15T09:03:07Z</time>
      </trkpt>
      <trkpt lat="40.9089920" lon="-8.4953540">
        <ele>243.0</ele>
        <time>2019-08-15T09:03:08Z</time>
      </trkpt>
      <trkpt lat="40.9090380" lon="-8.4953590">
        <ele>243.5</ele>
        <time>2019-08-15T09:03:09Z</time>
      </trkpt>
      <trkpt lat="40.9090650" lon="-8.4953610">
        <ele>243.8</ele>
        <time>2019-08-15T09:03:10Z</time>
      </trkpt>
      <trkpt lat="40.9090890" lon="-8.4953540">
        <ele>244.1</ele>
        <time>2019-08-15T09:03:11Z</time>
      </trkpt>
      <trkpt lat="40.9091780" lon="-8.4953420">
        <ele>245.1</ele>
        <time>2019-08-15T09:03:14Z</time>
      </trkpt>
      <trkpt lat="40.9093800" lon="-8.4953320">
        <ele>247.0</ele>
        <time>2019-08-15T09:03:21Z</time>
      </trkpt>
      <trkpt lat="40.9094050" lon="-8.4953360">
        <ele>247.2</ele>
        <time>2019-08-15T09:03:22Z</time>
      </trkpt>
      <trkpt lat="40.9094360" lon="-8.4953350">
        <ele>247.5</ele>
        <time>2019-08-15T09:03:23Z</time>
      </trkpt>
      <trkpt lat="40.9094720" lon="-8.4953320">
        <ele>247.8</ele>
        <time>2019-08-15T09:03:24Z</time>
      </trkpt>
      <trkpt lat="40.9095030" lon="-8.4953310">
        <ele>248.1</ele>
        <time>2019-08-15T09:03:25Z</time>
      </trkpt>
      <trkpt lat="40.9096440" lon="-8.4953360">
        <ele>249.1</ele>
        <time>2019-08-15T09:03:30Z</time>
      </trkpt>
      <trkpt lat="40.9098780" lon="-8.4953330">
        <ele>251.2</ele>
        <time>2019-08-15T09:03:38Z</time>
      </trkpt>
      <trkpt lat="40.9099420" lon="-8.4953310">
        <ele>252.4</ele>
        <time>2019-08-15T09:03:40Z</time>
      </trkpt>
      <trkpt lat="40.9099650" lon="-8.4953270">
        <ele>252.4</ele>
        <time>2019-08-15T09:03:41Z</time>
      </trkpt>
      <trkpt lat="40.9100000" lon="-8.4953140">
        <ele>252.4</ele>
        <time>2019-08-15T09:03:42Z</time>
      </trkpt>
      <trkpt lat="40.9100380" lon="-8.4953050">
        <ele>252.4</ele>
        <time>2019-08-15T09:03:43Z</time>
      </trkpt>
      <trkpt lat="40.9100710" lon="-8.4952990">
        <ele>252.4</ele>
        <time>2019-08-15T09:03:44Z</time>
      </trkpt>
      <trkpt lat="40.9101280" lon="-8.4952980">
        <ele>252.5</ele>
        <time>2019-08-15T09:03:46Z</time>
      </trkpt>
      <trkpt lat="40.9102990" lon="-8.4952730">
        <ele>252.6</ele>
        <time>2019-08-15T09:03:52Z</time>
      </trkpt>
      <trkpt lat="40.9103280" lon="-8.4952580">
        <ele>252.6</ele>
        <time>2019-08-15T09:03:53Z</time>
      </trkpt>
      <trkpt lat="40.9103570" lon="-8.4952410">
        <ele>252.6</ele>
        <time>2019-08-15T09:03:54Z</time>
      </trkpt>
      <trkpt lat="40.9103840" lon="-8.4952220">
        <ele>252.6</ele>
        <time>2019-08-15T09:03:55Z</time>
      </trkpt>
      <trkpt lat="40.9104110" lon="-8.4952080">
        <ele>252.7</ele>
        <time>2019-08-15T09:03:56Z</time>
      </trkpt>
      <trkpt lat="40.9105260" lon="-8.4951600">
        <ele>252.7</ele>
        <time>2019-08-15T09:04:00Z</time>
      </trkpt>
      <trkpt lat="40.9107240" lon="-8.4950280">
        <ele>252.9</ele>
        <time>2019-08-15T09:04:07Z</time>
      </trkpt>
      <trkpt lat="40.9107480" lon="-8.4950100">
        <ele>252.9</ele>
        <time>2019-08-15T09:04:08Z</time>
      </trkpt>
      <trkpt lat="40.9107740" lon="-8.4949890">
        <ele>252.9</ele>
        <time>2019-08-15T09:04:09Z</time>
      </trkpt>
      <trkpt lat="40.9107980" lon="-8.4949710">
        <ele>253.0</ele>
        <time>2019-08-15T09:04:10Z</time>
      </trkpt>
      <trkpt lat="40.9108290" lon="-8.4949520">
        <ele>253.0</ele>
        <time>2019-08-15T09:04:11Z</time>
      </trkpt>
      <trkpt lat="40.9108590" lon="-8.4949370">
        <ele>253.0</ele>
        <time>2019-08-15T09:04:12Z</time>
      </trkpt>
      <trkpt lat="40.9109390" lon="-8.4948970">
        <ele>253.1</ele>
        <time>2019-08-15T09:04:15Z</time>
      </trkpt>
      <trkpt lat="40.9111850" lon="-8.4947450">
        <ele>253.2</ele>
        <time>2019-08-15T09:04:24Z</time>
      </trkpt>
      <trkpt lat="40.9113340" lon="-8.4946580">
        <ele>253.3</ele>
        <time>2019-08-15T09:04:30Z</time>
      </trkpt>
      <trkpt lat="40.9113580" lon="-8.4946430">
        <ele>253.4</ele>
        <time>2019-08-15T09:04:31Z</time>
      </trkpt>
      <trkpt lat="40.9113840" lon="-8.4946270">
        <ele>253.4</ele>
        <time>2019-08-15T09:04:32Z</time>
      </trkpt>
      <trkpt lat="40.9114090" lon="-8.4946160">
        <ele>253.4</ele>
        <time>2019-08-15T09:04:33Z</time>
      </trkpt>
      <trkpt lat="40.9114320" lon="-8.4946030">
        <ele>253.4</ele>
        <time>2019-08-15T09:04:34Z</time>
      </trkpt>
      <trkpt lat="40.9116220" lon="-8.4944830">
        <ele>253.5</ele>
        <time>2019-08-15T09:04:41Z</time>
      </trkpt>
      <trkpt lat="40.9117760" lon="-8.4944260">
        <ele>253.7</ele>
        <time>2019-08-15T09:04:46Z</time>
      </trkpt>
      <trkpt lat="40.9118990" lon="-8.4943330">
        <ele>253.7</ele>
        <time>2019-08-15T09:04:52Z</time>
      </trkpt>
      <trkpt lat="40.9120880" lon="-8.4941910">
        <ele>253.6</ele>
        <time>2019-08-15T09:04:58Z</time>
      </trkpt>
      <trkpt lat="40.9122560" lon="-8.4940210">
        <ele>253.8</ele>
        <time>2019-08-15T09:05:05Z</time>
      </trkpt>
      <trkpt lat="40.9122850" lon="-8.4939980">
        <ele>253.8</ele>
        <time>2019-08-15T09:05:06Z</time>
      </trkpt>
      <trkpt lat="40.9123210" lon="-8.4939970">
        <ele>253.9</ele>
        <time>2019-08-15T09:05:07Z</time>
      </trkpt>
      <trkpt lat="40.9123640" lon="-8.4940090">
        <ele>253.9</ele>
        <time>2019-08-15T09:05:08Z</time>
      </trkpt>
      <trkpt lat="40.9123970" lon="-8.4940130">
        <ele>253.9</ele>
        <time>2019-08-15T09:05:09Z</time>
      </trkpt>
      <trkpt lat="40.9124240" lon="-8.4940200">
        <ele>253.9</ele>
        <time>2019-08-15T09:05:10Z</time>
      </trkpt>
      <trkpt lat="40.9125920" lon="-8.4939540">
        <ele>254.3</ele>
        <time>2019-08-15T09:05:16Z</time>
      </trkpt>
      <trkpt lat="40.9127540" lon="-8.4938970">
        <ele>255.2</ele>
        <time>2019-08-15T09:05:23Z</time>
      </trkpt>
      <trkpt lat="40.9129380" lon="-8.4938740">
        <ele>256.2</ele>
        <time>2019-08-15T09:05:30Z</time>
      </trkpt>
      <trkpt lat="40.9129630" lon="-8.4938740">
        <ele>256.4</ele>
        <time>2019-08-15T09:05:31Z</time>
      </trkpt>
      <trkpt lat="40.9129910" lon="-8.4938740">
        <ele>256.5</ele>
        <time>2019-08-15T09:05:32Z</time>
      </trkpt>
      <trkpt lat="40.9130170" lon="-8.4938710">
        <ele>256.7</ele>
        <time>2019-08-15T09:05:33Z</time>
      </trkpt>
      <trkpt lat="40.9130390" lon="-8.4938750">
        <ele>256.8</ele>
        <time>2019-08-15T09:05:34Z</time>
      </trkpt>
      <trkpt lat="40.9131080" lon="-8.4938770">
        <ele>257.2</ele>
        <time>2019-08-15T09:05:37Z</time>
      </trkpt>
      <trkpt lat="40.9133480" lon="-8.4939000">
        <ele>258.4</ele>
        <time>2019-08-15T09:05:45Z</time>
      </trkpt>
      <trkpt lat="40.9133750" lon="-8.4939040">
        <ele>258.6</ele>
        <time>2019-08-15T09:05:46Z</time>
      </trkpt>
      <trkpt lat="40.9133960" lon="-8.4939120">
        <ele>258.7</ele>
        <time>2019-08-15T09:05:47Z</time>
      </trkpt>
      <trkpt lat="40.9134160" lon="-8.4939230">
        <ele>258.8</ele>
        <time>2019-08-15T09:05:48Z</time>
      </trkpt>
      <trkpt lat="40.9134560" lon="-8.4939260">
        <ele>259.0</ele>
        <time>2019-08-15T09:05:49Z</time>
      </trkpt>
      <trkpt lat="40.9135210" lon="-8.4939580">
        <ele>259.4</ele>
        <time>2019-08-15T09:05:52Z</time>
      </trkpt>
      <trkpt lat="40.9137210" lon="-8.4940300">
        <ele>260.4</ele>
        <time>2019-08-15T09:06:00Z</time>
      </trkpt>
      <trkpt lat="40.9137510" lon="-8.4940360">
        <ele>260.6</ele>
        <time>2019-08-15T09:06:01Z</time>
      </trkpt>
      <trkpt lat="40.9137790" lon="-8.4940450">
        <ele>260.7</ele>
        <time>2019-08-15T09:06:02Z</time>
      </trkpt>
      <trkpt lat="40.9138060" lon="-8.4940570">
        <ele>260.9</ele>
        <time>2019-08-15T09:06:03Z</time>
      </trkpt>
      <trkpt lat="40.9138330" lon="-8.4940700">
        <ele>261.0</ele>
        <time>2019-08-15T09:06:04Z</time>
      </trkpt>
      <trkpt lat="40.9138590" lon="-8.4940810">
        <ele>261.2</ele>
        <time>2019-08-15T09:06:05Z</time>
      </trkpt>
      <trkpt lat="40.9139400" lon="-8.4941330">
        <ele>261.6</ele>
        <time>2019-08-15T09:06:09Z</time>
      </trkpt>
      <trkpt lat="40.9140710" lon="-8.4942040">
        <ele>262.4</ele>
        <time>2019-08-15T09:06:14Z</time>
      </trkpt>
      <trkpt lat="40.9142430" lon="-8.4943180">
        <ele>263.5</ele>
        <time>2019-08-15T09:06:21Z</time>
      </trkpt>
      <trkpt lat="40.9142610" lon="-8.4943340">
        <ele>263.6</ele>
        <time>2019-08-15T09:06:22Z</time>
      </trkpt>
      <trkpt lat="40.9142750" lon="-8.4943560">
        <ele>263.8</ele>
        <time>2019-08-15T09:06:23Z</time>
      </trkpt>
      <trkpt lat="40.9142920" lon="-8.4943700">
        <ele>263.9</ele>
        <time>2019-08-15T09:06:24Z</time>
      </trkpt>
      <trkpt lat="40.9143090" lon="-8.4943830">
        <ele>264.0</ele>
        <time>2019-08-15T09:06:25Z</time>
      </trkpt>
      <trkpt lat="40.9144540" lon="-8.4945300">
        <ele>265.1</ele>
        <time>2019-08-15T09:06:34Z</time>
      </trkpt>
      <trkpt lat="40.9145880" lon="-8.4946820">
        <ele>265.8</ele>
        <time>2019-08-15T09:06:42Z</time>
      </trkpt>
      <trkpt lat="40.9147180" lon="-8.4948150">
        <ele>266.4</ele>
        <time>2019-08-15T09:06:48Z</time>
      </trkpt>
      <trkpt lat="40.9147370" lon="-8.4948340">
        <ele>266.5</ele>
        <time>2019-08-15T09:06:49Z</time>
      </trkpt>
      <trkpt lat="40.9147600" lon="-8.4948590">
        <ele>266.6</ele>
        <time>2019-08-15T09:06:50Z</time>
      </trkpt>
      <trkpt lat="40.9147800" lon="-8.4948860">
        <ele>266.7</ele>
        <time>2019-08-15T09:06:51Z</time>
      </trkpt>
      <trkpt lat="40.9147970" lon="-8.4949110">
        <ele>266.8</ele>
        <time>2019-08-15T09:06:52Z</time>
      </trkpt>
      <trkpt lat="40.9149480" lon="-8.4950860">
        <ele>267.7</ele>
        <time>2019-08-15T09:07:00Z</time>
      </trkpt>
      <trkpt lat="40.9152080" lon="-8.4953490">
        <ele>268.9</ele>
        <time>2019-08-15T09:07:12Z</time>
      </trkpt>
      <trkpt lat="40.9152230" lon="-8.4953750">
        <ele>268.9</ele>
        <time>2019-08-15T09:07:13Z</time>
      </trkpt>
      <trkpt lat="40.9152420" lon="-8.4953990">
        <ele>269.0</ele>
        <time>2019-08-15T09:07:14Z</time>
      </trkpt>
      <trkpt lat="40.9152610" lon="-8.4954240">
        <ele>269.0</ele>
        <time>2019-08-15T09:07:15Z</time>
      </trkpt>
      <trkpt lat="40.9152830" lon="-8.4954460">
        <ele>269.1</ele>
        <time>2019-08-15T09:07:16Z</time>
      </trkpt>
      <trkpt lat="40.9153090" lon="-8.4954670">
        <ele>269.2</ele>
        <time>2019-08-15T09:07:17Z</time>
      </trkpt>
      <trkpt lat="40.9154050" lon="-8.4955790">
        <ele>269.5</ele>
        <time>2019-08-15T09:07:22Z</time>
      </trkpt>
      <trkpt lat="40.9155060" lon="-8.4957030">
        <ele>269.8</ele>
        <time>2019-08-15T09:07:29Z</time>
      </trkpt>
      <trkpt lat="40.9155900" lon="-8.4957720">
        <ele>270.1</ele>
        <time>2019-08-15T09:07:38Z</time>
      </trkpt>
      <trkpt lat="40.9155970" lon="-8.4957760">
        <ele>270.2</ele>
        <time>2019-08-15T09:07:40Z</time>
      </trkpt>
      <trkpt lat="40.9156020" lon="-8.4957810">
        <ele>270.2</ele>
        <time>2019-08-15T09:08:15Z</time>
      </trkpt>
      <trkpt lat="40.9156270" lon="-8.4958120">
        <ele>270.3</ele>
        <time>2019-08-15T09:08:17Z</time>
      </trkpt>
      <trkpt lat="40.9157510" lon="-8.4959370">
        <ele>270.9</ele>
        <time>2019-08-15T09:08:21Z</time>
      </trkpt>
      <trkpt lat="40.9157950" lon="-8.4960040">
        <ele>271.4</ele>
        <time>2019-08-15T09:08:23Z</time>
      </trkpt>
      <trkpt lat="40.9158190" lon="-8.4960280">
        <ele>271.6</ele>
        <time>2019-08-15T09:08:24Z</time>
      </trkpt>
      <trkpt lat="40.9158420" lon="-8.4960510">
        <ele>271.9</ele>
        <time>2019-08-15T09:08:25Z</time>
      </trkpt>
      <trkpt lat="40.9158660" lon="-8.4960820">
        <ele>272.1</ele>
        <time>2019-08-15T09:08:26Z</time>
      </trkpt>
      <trkpt lat="40.9158930" lon="-8.4961130">
        <ele>272.2</ele>
        <time>2019-08-15T09:08:27Z</time>
      </trkpt>
      <trkpt lat="40.9161300" lon="-8.4963580">
        <ele>273.3</ele>
        <time>2019-08-15T09:08:36Z</time>
      </trkpt>
      <trkpt lat="40.9162250" lon="-8.4964550">
        <ele>273.8</ele>
        <time>2019-08-15T09:08:40Z</time>
      </trkpt>
      <trkpt lat="40.9162470" lon="-8.4964800">
        <ele>274.0</ele>
        <time>2019-08-15T09:08:41Z</time>
      </trkpt>
      <trkpt lat="40.9162700" lon="-8.4965080">
        <ele>274.1</ele>
        <time>2019-08-15T09:08:42Z</time>
      </trkpt>
      <trkpt lat="40.9162920" lon="-8.4965390">
        <ele>274.3</ele>
        <time>2019-08-15T09:08:43Z</time>
      </trkpt>
      <trkpt lat="40.9163170" lon="-8.4965670">
        <ele>274.4</ele>
        <time>2019-08-15T09:08:44Z</time>
      </trkpt>
      <trkpt lat="40.9163640" lon="-8.4966270">
        <ele>274.8</ele>
        <time>2019-08-15T09:08:46Z</time>
      </trkpt>
      <trkpt lat="40.9165750" lon="-8.4968480">
        <ele>275.7</ele>
        <time>2019-08-15T09:08:53Z</time>
      </trkpt>
      <trkpt lat="40.9167640" lon="-8.4970990">
        <ele>275.7</ele>
        <time>2019-08-15T09:09:01Z</time>
      </trkpt>
      <trkpt lat="40.9167880" lon="-8.4971230">
        <ele>275.7</ele>
        <time>2019-08-15T09:09:02Z</time>
      </trkpt>
      <trkpt lat="40.9168140" lon="-8.4971500">
        <ele>275.7</ele>
        <time>2019-08-15T09:09:03Z</time>
      </trkpt>
      <trkpt lat="40.9168390" lon="-8.4971760">
        <ele>275.7</ele>
        <time>2019-08-15T09:09:04Z</time>
      </trkpt>
      <trkpt lat="40.9168650" lon="-8.4972000">
        <ele>275.7</ele>
        <time>2019-08-15T09:09:05Z</time>
      </trkpt>
      <trkpt lat="40.9170080" lon="-8.4973620">
        <ele>275.5</ele>
        <time>2019-08-15T09:09:11Z</time>
      </trkpt>
      <trkpt lat="40.9171410" lon="-8.4975570">
        <ele>274.8</ele>
        <time>2019-08-15T09:09:17Z</time>
      </trkpt>
      <trkpt lat="40.9173740" lon="-8.4977990">
        <ele>273.8</ele>
        <time>2019-08-15T09:09:24Z</time>
      </trkpt>
      <trkpt lat="40.9176910" lon="-8.4981230">
        <ele>273.2</ele>
        <time>2019-08-15T09:09:33Z</time>
      </trkpt>
      <trkpt lat="40.9179820" lon="-8.4984480">
        <ele>272.6</ele>
        <time>2019-08-15T09:09:40Z</time>
      </trkpt>
      <trkpt lat="40.9182900" lon="-8.4987880">
        <ele>271.0</ele>
        <time>2019-08-15T09:09:48Z</time>
      </trkpt>
      <trkpt lat="40.9186720" lon="-8.4991580">
        <ele>269.0</ele>
        <time>2019-08-15T09:09:58Z</time>
      </trkpt>
      <trkpt lat="40.9190100" lon="-8.4995860">
        <ele>268.5</ele>
        <time>2019-08-15T09:10:08Z</time>
      </trkpt>
      <trkpt lat="40.9193230" lon="-8.4999380">
        <ele>268.0</ele>
        <time>2019-08-15T09:10:15Z</time>
      </trkpt>
      <trkpt lat="40.9193720" lon="-8.4999900">
        <ele>267.9</ele>
        <time>2019-08-15T09:10:16Z</time>
      </trkpt>
      <trkpt lat="40.9194180" lon="-8.5000480">
        <ele>267.8</ele>
        <time>2019-08-15T09:10:17Z</time>
      </trkpt>
      <trkpt lat="40.9194710" lon="-8.5001050">
        <ele>267.7</ele>
        <time>2019-08-15T09:10:18Z</time>
      </trkpt>
      <trkpt lat="40.9195230" lon="-8.5001580">
        <ele>267.5</ele>
        <time>2019-08-15T09:10:19Z</time>
      </trkpt>
      <trkpt lat="40.9195720" lon="-8.5002140">
        <ele>267.4</ele>
        <time>2019-08-15T09:10:20Z</time>
      </trkpt>
      <trkpt lat="40.9196220" lon="-8.5002790">
        <ele>267.3</ele>
        <time>2019-08-15T09:10:21Z</time>
      </trkpt>
      <trkpt lat="40.9196850" lon="-8.5003630">
        <ele>266.9</ele>
        <time>2019-08-15T09:10:22Z</time>
      </trkpt>
      <trkpt lat="40.9197410" lon="-8.5004260">
        <ele>266.6</ele>
        <time>2019-08-15T09:10:23Z</time>
      </trkpt>
      <trkpt lat="40.9197960" lon="-8.5004890">
        <ele>266.3</ele>
        <time>2019-08-15T09:10:24Z</time>
      </trkpt>
      <trkpt lat="40.9201710" lon="-8.5009140">
        <ele>265.9</ele>
        <time>2019-08-15T09:10:31Z</time>
      </trkpt>
      <trkpt lat="40.9205100" lon="-8.5012590">
        <ele>266.2</ele>
        <time>2019-08-15T09:10:38Z</time>
      </trkpt>
      <trkpt lat="40.9208510" lon="-8.5016640">
        <ele>267.0</ele>
        <time>2019-08-15T09:10:46Z</time>
      </trkpt>
      <trkpt lat="40.9212270" lon="-8.5019930">
        <ele>267.0</ele>
        <time>2019-08-15T09:10:54Z</time>
      </trkpt>
      <trkpt lat="40.9215240" lon="-8.5021730">
        <ele>267.0</ele>
        <time>2019-08-15T09:11:01Z</time>
      </trkpt>
      <trkpt lat="40.9220070" lon="-8.5023930">
        <ele>267.4</ele>
        <time>2019-08-15T09:11:12Z</time>
      </trkpt>
      <trkpt lat="40.9224080" lon="-8.5025710">
        <ele>267.7</ele>
        <time>2019-08-15T09:11:21Z</time>
      </trkpt>
      <trkpt lat="40.9225840" lon="-8.5026710">
        <ele>268.2</ele>
        <time>2019-08-15T09:11:25Z</time>
      </trkpt>
      <trkpt lat="40.9226520" lon="-8.5027310">
        <ele>268.7</ele>
        <time>2019-08-15T09:11:27Z</time>
      </trkpt>
      <trkpt lat="40.9227050" lon="-8.5028120">
        <ele>269.1</ele>
        <time>2019-08-15T09:11:29Z</time>
      </trkpt>
      <trkpt lat="40.9227290" lon="-8.5028590">
        <ele>269.3</ele>
        <time>2019-08-15T09:11:30Z</time>
      </trkpt>
      <trkpt lat="40.9227560" lon="-8.5029050">
        <ele>269.6</ele>
        <time>2019-08-15T09:11:31Z</time>
      </trkpt>
      <trkpt lat="40.9227770" lon="-8.5029540">
        <ele>269.8</ele>
        <time>2019-08-15T09:11:32Z</time>
      </trkpt>
      <trkpt lat="40.9227930" lon="-8.5030040">
        <ele>270.0</ele>
        <time>2019-08-15T09:11:33Z</time>
      </trkpt>
      <trkpt lat="40.9228280" lon="-8.5033090">
        <ele>269.0</ele>
        <time>2019-08-15T09:11:38Z</time>
      </trkpt>
      <trkpt lat="40.9229330" lon="-8.5036110">
        <ele>268.4</ele>
        <time>2019-08-15T09:11:43Z</time>
      </trkpt>
      <trkpt lat="40.9229550" lon="-8.5036620">
        <ele>268.2</ele>
        <time>2019-08-15T09:11:44Z</time>
      </trkpt>
      <trkpt lat="40.9230030" lon="-8.5037750">
        <ele>267.8</ele>
        <time>2019-08-15T09:11:46Z</time>
      </trkpt>
      <trkpt lat="40.9230360" lon="-8.5038320">
        <ele>267.5</ele>
        <time>2019-08-15T09:11:47Z</time>
      </trkpt>
      <trkpt lat="40.9230720" lon="-8.5038910">
        <ele>267.2</ele>
        <time>2019-08-15T09:11:48Z</time>
      </trkpt>
      <trkpt lat="40.9231100" lon="-8.5039480">
        <ele>266.9</ele>
        <time>2019-08-15T09:11:49Z</time>
      </trkpt>
      <trkpt lat="40.9231520" lon="-8.5040110">
        <ele>266.6</ele>
        <time>2019-08-15T09:11:50Z</time>
      </trkpt>
      <trkpt lat="40.9232490" lon="-8.5041440">
        <ele>266.0</ele>
        <time>2019-08-15T09:11:52Z</time>
      </trkpt>
      <trkpt lat="40.9232990" lon="-8.5042110">
        <ele>265.6</ele>
        <time>2019-08-15T09:11:53Z</time>
      </trkpt>
      <trkpt lat="40.9233550" lon="-8.5042790">
        <ele>265.2</ele>
        <time>2019-08-15T09:11:54Z</time>
      </trkpt>
      <trkpt lat="40.9234160" lon="-8.5043450">
        <ele>264.7</ele>
        <time>2019-08-15T09:11:55Z</time>
      </trkpt>
      <trkpt lat="40.9234850" lon="-8.5044100">
        <ele>264.3</ele>
        <time>2019-08-15T09:11:56Z</time>
      </trkpt>
      <trkpt lat="40.9235500" lon="-8.5044690">
        <ele>263.9</ele>
        <time>2019-08-15T09:11:57Z</time>
      </trkpt>
      <trkpt lat="40.9235980" lon="-8.5045170">
        <ele>263.7</ele>
        <time>2019-08-15T09:11:58Z</time>
      </trkpt>
      <trkpt lat="40.9237040" lon="-8.5045970">
        <ele>263.3</ele>
        <time>2019-08-15T09:12:00Z</time>
      </trkpt>
      <trkpt lat="40.9237520" lon="-8.5046310">
        <ele>263.2</ele>
        <time>2019-08-15T09:12:01Z</time>
      </trkpt>
      <trkpt lat="40.9238830" lon="-8.5047420">
        <ele>263.2</ele>
        <time>2019-08-15T09:12:05Z</time>
      </trkpt>
      <trkpt lat="40.9239160" lon="-8.5047750">
        <ele>263.2</ele>
        <time>2019-08-15T09:12:06Z</time>
      </trkpt>
      <trkpt lat="40.9239430" lon="-8.5047980">
        <ele>263.2</ele>
        <time>2019-08-15T09:12:07Z</time>
      </trkpt>
      <trkpt lat="40.9239600" lon="-8.5048120">
        <ele>263.2</ele>
        <time>2019-08-15T09:12:08Z</time>
      </trkpt>
      <trkpt lat="40.9239810" lon="-8.5048240">
        <ele>263.2</ele>
        <time>2019-08-15T09:12:09Z</time>
      </trkpt>
      <trkpt lat="40.9240120" lon="-8.5048590">
        <ele>263.2</ele>
        <time>2019-08-15T09:12:11Z</time>
      </trkpt>
      <trkpt lat="40.9240250" lon="-8.5049070">
        <ele>263.2</ele>
        <time>2019-08-15T09:12:17Z</time>
      </trkpt>
      <trkpt lat="40.9240040" lon="-8.5049060">
        <ele>263.2</ele>
        <time>2019-08-15T09:12:18Z</time>
      </trkpt>
      <trkpt lat="40.9239830" lon="-8.5049060">
        <ele>263.2</ele>
        <time>2019-08-15T09:12:23Z</time>
      </trkpt>
      <trkpt lat="40.9239630" lon="-8.5049050">
        <ele>263.2</ele>
        <time>2019-08-15T09:12:24Z</time>
      </trkpt>
      <trkpt lat="40.9238470" lon="-8.5047830">
        <ele>263.2</ele>
        <time>2019-08-15T09:12:28Z</time>
      </trkpt>
      <trkpt lat="40.9237580" lon="-8.5048720">
        <ele>262.7</ele>
        <time>2019-08-15T09:12:32Z</time>
      </trkpt>
      <trkpt lat="40.9237540" lon="-8.5048940">
        <ele>262.6</ele>
        <time>2019-08-15T09:12:33Z</time>
      </trkpt>
      <trkpt lat="40.9238080" lon="-8.5050510">
        <ele>262.2</ele>
        <time>2019-08-15T09:12:39Z</time>
      </trkpt>
      <trkpt lat="40.9238980" lon="-8.5051410">
        <ele>261.7</ele>
        <time>2019-08-15T09:12:42Z</time>
      </trkpt>
      <trkpt lat="40.9239320" lon="-8.5051730">
        <ele>261.5</ele>
        <time>2019-08-15T09:12:43Z</time>
      </trkpt>
      <trkpt lat="40.9241120" lon="-8.5053470">
        <ele>260.8</ele>
        <time>2019-08-15T09:12:48Z</time>
      </trkpt>
      <trkpt lat="40.9241520" lon="-8.5053820">
        <ele>260.7</ele>
        <time>2019-08-15T09:12:49Z</time>
      </trkpt>
      <trkpt lat="40.9241980" lon="-8.5054180">
        <ele>260.6</ele>
        <time>2019-08-15T09:12:50Z</time>
      </trkpt>
      <trkpt lat="40.9242400" lon="-8.5054490">
        <ele>260.5</ele>
        <time>2019-08-15T09:12:51Z</time>
      </trkpt>
      <trkpt lat="40.9244420" lon="-8.5055910">
        <ele>259.9</ele>
        <time>2019-08-15T09:12:55Z</time>
      </trkpt>
      <trkpt lat="40.9245030" lon="-8.5056290">
        <ele>259.8</ele>
        <time>2019-08-15T09:12:56Z</time>
      </trkpt>
      <trkpt lat="40.9245680" lon="-8.5056650">
        <ele>259.7</ele>
        <time>2019-08-15T09:12:57Z</time>
      </trkpt>
      <trkpt lat="40.9246350" lon="-8.5057070">
        <ele>259.6</ele>
        <time>2019-08-15T09:12:58Z</time>
      </trkpt>
      <trkpt lat="40.9247030" lon="-8.5057390">
        <ele>259.6</ele>
        <time>2019-08-15T09:12:59Z</time>
      </trkpt>
      <trkpt lat="40.9247740" lon="-8.5057810">
        <ele>259.6</ele>
        <time>2019-08-15T09:13:00Z</time>
      </trkpt>
      <trkpt lat="40.9248470" lon="-8.5058330">
        <ele>259.6</ele>
        <time>2019-08-15T09:13:01Z</time>
      </trkpt>
      <trkpt lat="40.9249150" lon="-8.5058880">
        <ele>259.7</ele>
        <time>2019-08-15T09:13:02Z</time>
      </trkpt>
      <trkpt lat="40.9249820" lon="-8.5059490">
        <ele>259.8</ele>
        <time>2019-08-15T09:13:03Z</time>
      </trkpt>
      <trkpt lat="40.9250390" lon="-8.5060120">
        <ele>259.9</ele>
        <time>2019-08-15T09:13:04Z</time>
      </trkpt>
      <trkpt lat="40.9250990" lon="-8.5060840">
        <ele>259.5</ele>
        <time>2019-08-15T09:13:05Z</time>
      </trkpt>
      <trkpt lat="40.9252140" lon="-8.5062370">
        <ele>257.7</ele>
        <time>2019-08-15T09:13:07Z</time>
      </trkpt>
      <trkpt lat="40.9252710" lon="-8.5063170">
        <ele>257.0</ele>
        <time>2019-08-15T09:13:08Z</time>
      </trkpt>
      <trkpt lat="40.9253210" lon="-8.5063960">
        <ele>256.3</ele>
        <time>2019-08-15T09:13:09Z</time>
      </trkpt>
      <trkpt lat="40.9253730" lon="-8.5064760">
        <ele>255.6</ele>
        <time>2019-08-15T09:13:10Z</time>
      </trkpt>
      <trkpt lat="40.9254170" lon="-8.5065500">
        <ele>254.8</ele>
        <time>2019-08-15T09:13:11Z</time>
      </trkpt>
      <trkpt lat="40.9254550" lon="-8.5066180">
        <ele>254.2</ele>
        <time>2019-08-15T09:13:12Z</time>
      </trkpt>
      <trkpt lat="40.9255030" lon="-8.5066890">
        <ele>253.5</ele>
        <time>2019-08-15T09:13:13Z</time>
      </trkpt>
      <trkpt lat="40.9255480" lon="-8.5067590">
        <ele>252.9</ele>
        <time>2019-08-15T09:13:14Z</time>
      </trkpt>
      <trkpt lat="40.9255930" lon="-8.5068330">
        <ele>252.3</ele>
        <time>2019-08-15T09:13:15Z</time>
      </trkpt>
      <trkpt lat="40.9256380" lon="-8.5069110">
        <ele>251.7</ele>
        <time>2019-08-15T09:13:16Z</time>
      </trkpt>
      <trkpt lat="40.9257180" lon="-8.5070760">
        <ele>250.1</ele>
        <time>2019-08-15T09:13:18Z</time>
      </trkpt>
      <trkpt lat="40.9257630" lon="-8.5071620">
        <ele>249.1</ele>
        <time>2019-08-15T09:13:19Z</time>
      </trkpt>
      <trkpt lat="40.9258120" lon="-8.5072500">
        <ele>248.2</ele>
        <time>2019-08-15T09:13:20Z</time>
      </trkpt>
      <trkpt lat="40.9258610" lon="-8.5073370">
        <ele>247.4</ele>
        <time>2019-08-15T09:13:21Z</time>
      </trkpt>
      <trkpt lat="40.9259130" lon="-8.5074290">
        <ele>246.6</ele>
        <time>2019-08-15T09:13:22Z</time>
      </trkpt>
      <trkpt lat="40.9259680" lon="-8.5075310">
        <ele>245.5</ele>
        <time>2019-08-15T09:13:23Z</time>
      </trkpt>
      <trkpt lat="40.9260220" lon="-8.5076210">
        <ele>244.2</ele>
        <time>2019-08-15T09:13:24Z</time>
      </trkpt>
      <trkpt lat="40.9260850" lon="-8.5077080">
        <ele>242.8</ele>
        <time>2019-08-15T09:13:25Z</time>
      </trkpt>
      <trkpt lat="40.9261450" lon="-8.5077930">
        <ele>241.3</ele>
        <time>2019-08-15T09:13:26Z</time>
      </trkpt>
      <trkpt lat="40.9262000" lon="-8.5078740">
        <ele>240.3</ele>
        <time>2019-08-15T09:13:27Z</time>
      </trkpt>
      <trkpt lat="40.9262320" lon="-8.5079800">
        <ele>239.3</ele>
        <time>2019-08-15T09:13:28Z</time>
      </trkpt>
      <trkpt lat="40.9262560" lon="-8.5080800">
        <ele>238.4</ele>
        <time>2019-08-15T09:13:29Z</time>
      </trkpt>
      <trkpt lat="40.9262900" lon="-8.5081870">
        <ele>237.5</ele>
        <time>2019-08-15T09:13:30Z</time>
      </trkpt>
      <trkpt lat="40.9263330" lon="-8.5082900">
        <ele>236.7</ele>
        <time>2019-08-15T09:13:31Z</time>
      </trkpt>
      <trkpt lat="40.9263840" lon="-8.5084000">
        <ele>235.9</ele>
        <time>2019-08-15T09:13:32Z</time>
      </trkpt>
      <trkpt lat="40.9264410" lon="-8.5085100">
        <ele>235.2</ele>
        <time>2019-08-15T09:13:33Z</time>
      </trkpt>
      <trkpt lat="40.9265180" lon="-8.5085920">
        <ele>234.5</ele>
        <time>2019-08-15T09:13:34Z</time>
      </trkpt>
      <trkpt lat="40.9265790" lon="-8.5086790">
        <ele>233.1</ele>
        <time>2019-08-15T09:13:35Z</time>
      </trkpt>
      <trkpt lat="40.9266320" lon="-8.5087620">
        <ele>233.4</ele>
        <time>2019-08-15T09:13:36Z</time>
      </trkpt>
      <trkpt lat="40.9266950" lon="-8.5088480">
        <ele>233.8</ele>
        <time>2019-08-15T09:13:37Z</time>
      </trkpt>
      <trkpt lat="40.9268410" lon="-8.5090750">
        <ele>234.6</ele>
        <time>2019-08-15T09:13:40Z</time>
      </trkpt>
      <trkpt lat="40.9268870" lon="-8.5091290">
        <ele>234.8</ele>
        <time>2019-08-15T09:13:41Z</time>
      </trkpt>
      <trkpt lat="40.9269270" lon="-8.5091890">
        <ele>235.1</ele>
        <time>2019-08-15T09:13:42Z</time>
      </trkpt>
      <trkpt lat="40.9269590" lon="-8.5092500">
        <ele>235.3</ele>
        <time>2019-08-15T09:13:43Z</time>
      </trkpt>
      <trkpt lat="40.9269900" lon="-8.5093070">
        <ele>235.5</ele>
        <time>2019-08-15T09:13:44Z</time>
      </trkpt>
      <trkpt lat="40.9270220" lon="-8.5093640">
        <ele>236.1</ele>
        <time>2019-08-15T09:13:45Z</time>
      </trkpt>
      <trkpt lat="40.9270550" lon="-8.5094160">
        <ele>236.2</ele>
        <time>2019-08-15T09:13:46Z</time>
      </trkpt>
      <trkpt lat="40.9270880" lon="-8.5094670">
        <ele>236.3</ele>
        <time>2019-08-15T09:13:47Z</time>
      </trkpt>
      <trkpt lat="40.9271190" lon="-8.5095170">
        <ele>236.3</ele>
        <time>2019-08-15T09:13:48Z</time>
      </trkpt>
      <trkpt lat="40.9271420" lon="-8.5095610">
        <ele>236.4</ele>
        <time>2019-08-15T09:13:49Z</time>
      </trkpt>
      <trkpt lat="40.9271970" lon="-8.5096990">
        <ele>236.5</ele>
        <time>2019-08-15T09:13:52Z</time>
      </trkpt>
      <trkpt lat="40.9272130" lon="-8.5097450">
        <ele>236.6</ele>
        <time>2019-08-15T09:13:53Z</time>
      </trkpt>
      <trkpt lat="40.9272270" lon="-8.5097900">
        <ele>236.6</ele>
        <time>2019-08-15T09:13:54Z</time>
      </trkpt>
      <trkpt lat="40.9272480" lon="-8.5098340">
        <ele>236.7</ele>
        <time>2019-08-15T09:13:55Z</time>
      </trkpt>
      <trkpt lat="40.9272650" lon="-8.5098750">
        <ele>236.7</ele>
        <time>2019-08-15T09:13:56Z</time>
      </trkpt>
      <trkpt lat="40.9272790" lon="-8.5099180">
        <ele>236.7</ele>
        <time>2019-08-15T09:13:57Z</time>
      </trkpt>
      <trkpt lat="40.9272920" lon="-8.5099590">
        <ele>236.8</ele>
        <time>2019-08-15T09:13:58Z</time>
      </trkpt>
      <trkpt lat="40.9273050" lon="-8.5099970">
        <ele>236.8</ele>
        <time>2019-08-15T09:13:59Z</time>
      </trkpt>
      <trkpt lat="40.9273150" lon="-8.5100340">
        <ele>236.8</ele>
        <time>2019-08-15T09:14:00Z</time>
      </trkpt>
      <trkpt lat="40.9273210" lon="-8.5100730">
        <ele>236.8</ele>
        <time>2019-08-15T09:14:01Z</time>
      </trkpt>
      <trkpt lat="40.9274660" lon="-8.5102400">
        <ele>237.6</ele>
        <time>2019-08-15T09:14:08Z</time>
      </trkpt>
      <trkpt lat="40.9275510" lon="-8.5100880">
        <ele>238.1</ele>
        <time>2019-08-15T09:14:13Z</time>
      </trkpt>
      <trkpt lat="40.9276430" lon="-8.5099250">
        <ele>238.4</ele>
        <time>2019-08-15T09:14:18Z</time>
      </trkpt>
      <trkpt lat="40.9276600" lon="-8.5098990">
        <ele>238.4</ele>
        <time>2019-08-15T09:14:19Z</time>
      </trkpt>
      <trkpt lat="40.9276790" lon="-8.5098710">
        <ele>238.5</ele>
        <time>2019-08-15T09:14:20Z</time>
      </trkpt>
      <trkpt lat="40.9276960" lon="-8.5098460">
        <ele>238.5</ele>
        <time>2019-08-15T09:14:21Z</time>
      </trkpt>
      <trkpt lat="40.9277120" lon="-8.5098200">
        <ele>238.5</ele>
        <time>2019-08-15T09:14:22Z</time>
      </trkpt>
      <trkpt lat="40.9278230" lon="-8.5096130">
        <ele>239.0</ele>
        <time>2019-08-15T09:14:30Z</time>
      </trkpt>
      <trkpt lat="40.9278860" lon="-8.5095030">
        <ele>239.9</ele>
        <time>2019-08-15T09:14:34Z</time>
      </trkpt>
      <trkpt lat="40.9278990" lon="-8.5094790">
        <ele>240.3</ele>
        <time>2019-08-15T09:14:35Z</time>
      </trkpt>
      <trkpt lat="40.9279150" lon="-8.5094490">
        <ele>240.8</ele>
        <time>2019-08-15T09:14:36Z</time>
      </trkpt>
      <trkpt lat="40.9279300" lon="-8.5094230">
        <ele>241.3</ele>
        <time>2019-08-15T09:14:37Z</time>
      </trkpt>
      <trkpt lat="40.9279450" lon="-8.5093950">
        <ele>241.7</ele>
        <time>2019-08-15T09:14:38Z</time>
      </trkpt>
      <trkpt lat="40.9280720" lon="-8.5092010">
        <ele>245.4</ele>
        <time>2019-08-15T09:14:45Z</time>
      </trkpt>
      <trkpt lat="40.9281330" lon="-8.5090760">
        <ele>247.5</ele>
        <time>2019-08-15T09:14:49Z</time>
      </trkpt>
      <trkpt lat="40.9281510" lon="-8.5090420">
        <ele>248.1</ele>
        <time>2019-08-15T09:14:50Z</time>
      </trkpt>
      <trkpt lat="40.9281650" lon="-8.5090170">
        <ele>248.6</ele>
        <time>2019-08-15T09:14:51Z</time>
      </trkpt>
      <trkpt lat="40.9281810" lon="-8.5089910">
        <ele>249.1</ele>
        <time>2019-08-15T09:14:52Z</time>
      </trkpt>
      <trkpt lat="40.9281960" lon="-8.5089650">
        <ele>249.6</ele>
        <time>2019-08-15T09:14:53Z</time>
      </trkpt>
      <trkpt lat="40.9282580" lon="-8.5088750">
        <ele>251.4</ele>
        <time>2019-08-15T09:14:57Z</time>
      </trkpt>
      <trkpt lat="40.9282730" lon="-8.5088490">
        <ele>251.9</ele>
        <time>2019-08-15T09:14:58Z</time>
      </trkpt>
      <trkpt lat="40.9282940" lon="-8.5088290">
        <ele>252.4</ele>
        <time>2019-08-15T09:14:59Z</time>
      </trkpt>
      <trkpt lat="40.9283080" lon="-8.5088050">
        <ele>252.9</ele>
        <time>2019-08-15T09:15:00Z</time>
      </trkpt>
      <trkpt lat="40.9283240" lon="-8.5087810">
        <ele>253.4</ele>
        <time>2019-08-15T09:15:01Z</time>
      </trkpt>
      <trkpt lat="40.9284150" lon="-8.5086410">
        <ele>256.3</ele>
        <time>2019-08-15T09:15:07Z</time>
      </trkpt>
      <trkpt lat="40.9284310" lon="-8.5086200">
        <ele>256.8</ele>
        <time>2019-08-15T09:15:08Z</time>
      </trkpt>
      <trkpt lat="40.9284440" lon="-8.5086010">
        <ele>257.2</ele>
        <time>2019-08-15T09:15:09Z</time>
      </trkpt>
      <trkpt lat="40.9284580" lon="-8.5085780">
        <ele>257.7</ele>
        <time>2019-08-15T09:15:10Z</time>
      </trkpt>
      <trkpt lat="40.9284700" lon="-8.5085550">
        <ele>258.1</ele>
        <time>2019-08-15T09:15:11Z</time>
      </trkpt>
      <trkpt lat="40.9285150" lon="-8.5084510">
        <ele>259.8</ele>
        <time>2019-08-15T09:15:15Z</time>
      </trkpt>
      <trkpt lat="40.9285290" lon="-8.5084310">
        <ele>260.2</ele>
        <time>2019-08-15T09:15:16Z</time>
      </trkpt>
      <trkpt lat="40.9285430" lon="-8.5084150">
        <ele>260.4</ele>
        <time>2019-08-15T09:15:17Z</time>
      </trkpt>
      <trkpt lat="40.9285620" lon="-8.5083950">
        <ele>260.7</ele>
        <time>2019-08-15T09:15:18Z</time>
      </trkpt>
      <trkpt lat="40.9285760" lon="-8.5083790">
        <ele>260.9</ele>
        <time>2019-08-15T09:15:19Z</time>
      </trkpt>
      <trkpt lat="40.9286200" lon="-8.5082860">
        <ele>261.9</ele>
        <time>2019-08-15T09:15:23Z</time>
      </trkpt>
      <trkpt lat="40.9286360" lon="-8.5082630">
        <ele>262.1</ele>
        <time>2019-08-15T09:15:24Z</time>
      </trkpt>
      <trkpt lat="40.9286500" lon="-8.5082460">
        <ele>262.3</ele>
        <time>2019-08-15T09:15:25Z</time>
      </trkpt>
      <trkpt lat="40.9286660" lon="-8.5082300">
        <ele>262.5</ele>
        <time>2019-08-15T09:15:26Z</time>
      </trkpt>
      <trkpt lat="40.9286780" lon="-8.5082080">
        <ele>262.7</ele>
        <time>2019-08-15T09:15:27Z</time>
      </trkpt>
      <trkpt lat="40.9287460" lon="-8.5080950">
        <ele>263.8</ele>
        <time>2019-08-15T09:15:32Z</time>
      </trkpt>
      <trkpt lat="40.9287600" lon="-8.5080730">
        <ele>264.0</ele>
        <time>2019-08-15T09:15:33Z</time>
      </trkpt>
      <trkpt lat="40.9287730" lon="-8.5080510">
        <ele>264.2</ele>
        <time>2019-08-15T09:15:34Z</time>
      </trkpt>
      <trkpt lat="40.9287850" lon="-8.5080260">
        <ele>264.4</ele>
        <time>2019-08-15T09:15:35Z</time>
      </trkpt>
      <trkpt lat="40.9288010" lon="-8.5080000">
        <ele>264.6</ele>
        <time>2019-08-15T09:15:36Z</time>
      </trkpt>
      <trkpt lat="40.9288400" lon="-8.5079360">
        <ele>265.6</ele>
        <time>2019-08-15T09:15:39Z</time>
      </trkpt>
      <trkpt lat="40.9288550" lon="-8.5079100">
        <ele>265.8</ele>
        <time>2019-08-15T09:15:40Z</time>
      </trkpt>
      <trkpt lat="40.9288690" lon="-8.5078850">
        <ele>266.0</ele>
        <time>2019-08-15T09:15:41Z</time>
      </trkpt>
      <trkpt lat="40.9288820" lon="-8.5078630">
        <ele>266.2</ele>
        <time>2019-08-15T09:15:42Z</time>
      </trkpt>
      <trkpt lat="40.9288970" lon="-8.5078400">
        <ele>266.4</ele>
        <time>2019-08-15T09:15:43Z</time>
      </trkpt>
      <trkpt lat="40.9289490" lon="-8.5077410">
        <ele>267.2</ele>
        <time>2019-08-15T09:15:47Z</time>
      </trkpt>
      <trkpt lat="40.9289640" lon="-8.5077240">
        <ele>267.4</ele>
        <time>2019-08-15T09:15:48Z</time>
      </trkpt>
      <trkpt lat="40.9289780" lon="-8.5077120">
        <ele>267.6</ele>
        <time>2019-08-15T09:15:49Z</time>
      </trkpt>
      <trkpt lat="40.9289920" lon="-8.5076930">
        <ele>267.8</ele>
        <time>2019-08-15T09:15:50Z</time>
      </trkpt>
      <trkpt lat="40.9290040" lon="-8.5076720">
        <ele>268.1</ele>
        <time>2019-08-15T09:15:51Z</time>
      </trkpt>
      <trkpt lat="40.9290860" lon="-8.5075420">
        <ele>269.2</ele>
        <time>2019-08-15T09:15:57Z</time>
      </trkpt>
      <trkpt lat="40.9290990" lon="-8.5075210">
        <ele>269.4</ele>
        <time>2019-08-15T09:15:58Z</time>
      </trkpt>
      <trkpt lat="40.9291120" lon="-8.5075000">
        <ele>269.6</ele>
        <time>2019-08-15T09:15:59Z</time>
      </trkpt>
      <trkpt lat="40.9291270" lon="-8.5074750">
        <ele>269.7</ele>
        <time>2019-08-15T09:16:00Z</time>
      </trkpt>
      <trkpt lat="40.9291430" lon="-8.5074510">
        <ele>269.9</ele>
        <time>2019-08-15T09:16:01Z</time>
      </trkpt>
      <trkpt lat="40.9291870" lon="-8.5073640">
        <ele>270.6</ele>
        <time>2019-08-15T09:16:05Z</time>
      </trkpt>
      <trkpt lat="40.9291960" lon="-8.5073460">
        <ele>270.7</ele>
        <time>2019-08-15T09:16:06Z</time>
      </trkpt>
      <trkpt lat="40.9292090" lon="-8.5073300">
        <ele>270.8</ele>
        <time>2019-08-15T09:16:07Z</time>
      </trkpt>
      <trkpt lat="40.9292240" lon="-8.5073090">
        <ele>271.0</ele>
        <time>2019-08-15T09:16:08Z</time>
      </trkpt>
      <trkpt lat="40.9292380" lon="-8.5072900">
        <ele>271.2</ele>
        <time>2019-08-15T09:16:09Z</time>
      </trkpt>
      <trkpt lat="40.9293040" lon="-8.5071810">
        <ele>272.1</ele>
        <time>2019-08-15T09:16:15Z</time>
      </trkpt>
      <trkpt lat="40.9293150" lon="-8.5071620">
        <ele>272.3</ele>
        <time>2019-08-15T09:16:16Z</time>
      </trkpt>
      <trkpt lat="40.9293200" lon="-8.5071430">
        <ele>272.4</ele>
        <time>2019-08-15T09:16:17Z</time>
      </trkpt>
      <trkpt lat="40.9293290" lon="-8.5071240">
        <ele>272.5</ele>
        <time>2019-08-15T09:16:18Z</time>
      </trkpt>
      <trkpt lat="40.9293440" lon="-8.5071010">
        <ele>272.7</ele>
        <time>2019-08-15T09:16:19Z</time>
      </trkpt>
      <trkpt lat="40.9294650" lon="-8.5069350">
        <ele>274.6</ele>
        <time>2019-08-15T09:16:28Z</time>
      </trkpt>
      <trkpt lat="40.9294830" lon="-8.5069030">
        <ele>274.9</ele>
        <time>2019-08-15T09:16:30Z</time>
      </trkpt>
      <trkpt lat="40.9294900" lon="-8.5068880">
        <ele>275.0</ele>
        <time>2019-08-15T09:16:31Z</time>
      </trkpt>
      <trkpt lat="40.9294960" lon="-8.5068750">
        <ele>275.1</ele>
        <time>2019-08-15T09:16:32Z</time>
      </trkpt>
      <trkpt lat="40.9295020" lon="-8.5068640">
        <ele>275.2</ele>
        <time>2019-08-15T09:16:33Z</time>
      </trkpt>
      <trkpt lat="40.9295060" lon="-8.5068520">
        <ele>275.3</ele>
        <time>2019-08-15T09:16:34Z</time>
      </trkpt>
      <trkpt lat="40.9295010" lon="-8.5068550">
        <ele>275.4</ele>
        <time>2019-08-15T09:16:35Z</time>
      </trkpt>
      <trkpt lat="40.9295060" lon="-8.5068510">
        <ele>275.4</ele>
        <time>2019-08-15T09:17:25Z</time>
      </trkpt>
      <trkpt lat="40.9295130" lon="-8.5068120">
        <ele>275.7</ele>
        <time>2019-08-15T09:17:27Z</time>
      </trkpt>
      <trkpt lat="40.9295470" lon="-8.5067530">
        <ele>276.2</ele>
        <time>2019-08-15T09:17:29Z</time>
      </trkpt>
      <trkpt lat="40.9295630" lon="-8.5067010">
        <ele>276.6</ele>
        <time>2019-08-15T09:17:31Z</time>
      </trkpt>
      <trkpt lat="40.9295770" lon="-8.5066790">
        <ele>276.8</ele>
        <time>2019-08-15T09:17:32Z</time>
      </trkpt>
      <trkpt lat="40.9295910" lon="-8.5066580">
        <ele>277.0</ele>
        <time>2019-08-15T09:17:33Z</time>
      </trkpt>
      <trkpt lat="40.9296040" lon="-8.5066310">
        <ele>277.3</ele>
        <time>2019-08-15T09:17:34Z</time>
      </trkpt>
      <trkpt lat="40.9296150" lon="-8.5066090">
        <ele>277.4</ele>
        <time>2019-08-15T09:17:35Z</time>
      </trkpt>
      <trkpt lat="40.9296430" lon="-8.5065350">
        <ele>278.0</ele>
        <time>2019-08-15T09:17:38Z</time>
      </trkpt>
      <trkpt lat="40.9296690" lon="-8.5064560">
        <ele>278.6</ele>
        <time>2019-08-15T09:17:41Z</time>
      </trkpt>
      <trkpt lat="40.9296780" lon="-8.5064370">
        <ele>278.7</ele>
        <time>2019-08-15T09:17:42Z</time>
      </trkpt>
      <trkpt lat="40.9296890" lon="-8.5064150">
        <ele>278.9</ele>
        <time>2019-08-15T09:17:43Z</time>
      </trkpt>
      <trkpt lat="40.9296980" lon="-8.5063920">
        <ele>279.1</ele>
        <time>2019-08-15T09:17:44Z</time>
      </trkpt>
      <trkpt lat="40.9297000" lon="-8.5063680">
        <ele>279.3</ele>
        <time>2019-08-15T09:17:45Z</time>
      </trkpt>
      <trkpt lat="40.9297060" lon="-8.5063430">
        <ele>279.4</ele>
        <time>2019-08-15T09:17:46Z</time>
      </trkpt>
      <trkpt lat="40.9297540" lon="-8.5061670">
        <ele>280.8</ele>
        <time>2019-08-15T09:17:53Z</time>
      </trkpt>
      <trkpt lat="40.9297690" lon="-8.5061410">
        <ele>281.0</ele>
        <time>2019-08-15T09:17:54Z</time>
      </trkpt>
      <trkpt lat="40.9297800" lon="-8.5061220">
        <ele>281.1</ele>
        <time>2019-08-15T09:17:55Z</time>
      </trkpt>
      <trkpt lat="40.9297910" lon="-8.5061110">
        <ele>281.2</ele>
        <time>2019-08-15T09:17:56Z</time>
      </trkpt>
      <trkpt lat="40.9297990" lon="-8.5061080">
        <ele>281.3</ele>
        <time>2019-08-15T09:17:57Z</time>
      </trkpt>
      <trkpt lat="40.9298010" lon="-8.5061140">
        <ele>281.3</ele>
        <time>2019-08-15T09:17:58Z</time>
      </trkpt>
      <trkpt lat="40.9298320" lon="-8.5061150">
        <ele>281.6</ele>
        <time>2019-08-15T09:18:05Z</time>
      </trkpt>
      <trkpt lat="40.9298760" lon="-8.5059670">
        <ele>282.6</ele>
        <time>2019-08-15T09:18:13Z</time>
      </trkpt>
      <trkpt lat="40.9298830" lon="-8.5058970">
        <ele>283.0</ele>
        <time>2019-08-15T09:18:16Z</time>
      </trkpt>
      <trkpt lat="40.9298850" lon="-8.5058770">
        <ele>283.1</ele>
        <time>2019-08-15T09:18:17Z</time>
      </trkpt>
      <trkpt lat="40.9298870" lon="-8.5058480">
        <ele>283.3</ele>
        <time>2019-08-15T09:18:18Z</time>
      </trkpt>
      <trkpt lat="40.9298920" lon="-8.5058300">
        <ele>283.5</ele>
        <time>2019-08-15T09:18:19Z</time>
      </trkpt>
      <trkpt lat="40.9299010" lon="-8.5058060">
        <ele>283.7</ele>
        <time>2019-08-15T09:18:20Z</time>
      </trkpt>
      <trkpt lat="40.9299430" lon="-8.5056700">
        <ele>284.7</ele>
        <time>2019-08-15T09:18:26Z</time>
      </trkpt>
      <trkpt lat="40.9299430" lon="-8.5056460">
        <ele>284.8</ele>
        <time>2019-08-15T09:18:27Z</time>
      </trkpt>
      <trkpt lat="40.9299500" lon="-8.5056230">
        <ele>285.0</ele>
        <time>2019-08-15T09:18:28Z</time>
      </trkpt>
      <trkpt lat="40.9299590" lon="-8.5056010">
        <ele>285.2</ele>
        <time>2019-08-15T09:18:29Z</time>
      </trkpt>
      <trkpt lat="40.9299590" lon="-8.5055680">
        <ele>285.4</ele>
        <time>2019-08-15T09:18:30Z</time>
      </trkpt>
      <trkpt lat="40.9300060" lon="-8.5054760">
        <ele>286.2</ele>
        <time>2019-08-15T09:18:35Z</time>
      </trkpt>
      <trkpt lat="40.9300220" lon="-8.5054580">
        <ele>286.4</ele>
        <time>2019-08-15T09:18:36Z</time>
      </trkpt>
      <trkpt lat="40.9300200" lon="-8.5054070">
        <ele>286.8</ele>
        <time>2019-08-15T09:18:39Z</time>
      </trkpt>
      <trkpt lat="40.9300180" lon="-8.5053860">
        <ele>286.9</ele>
        <time>2019-08-15T09:18:40Z</time>
      </trkpt>
      <trkpt lat="40.9300160" lon="-8.5053700">
        <ele>287.1</ele>
        <time>2019-08-15T09:18:41Z</time>
      </trkpt>
      <trkpt lat="40.9300210" lon="-8.5053480">
        <ele>287.2</ele>
        <time>2019-08-15T09:18:42Z</time>
      </trkpt>
      <trkpt lat="40.9300240" lon="-8.5053340">
        <ele>287.3</ele>
        <time>2019-08-15T09:18:43Z</time>
      </trkpt>
      <trkpt lat="40.9300530" lon="-8.5052140">
        <ele>288.2</ele>
        <time>2019-08-15T09:18:51Z</time>
      </trkpt>
      <trkpt lat="40.9300660" lon="-8.5051470">
        <ele>288.7</ele>
        <time>2019-08-15T09:18:55Z</time>
      </trkpt>
      <trkpt lat="40.9300630" lon="-8.5051430">
        <ele>288.7</ele>
        <time>2019-08-15T09:18:56Z</time>
      </trkpt>
      <trkpt lat="40.9300660" lon="-8.5051420">
        <ele>288.8</ele>
        <time>2019-08-15T09:18:57Z</time>
      </trkpt>
      <trkpt lat="40.9300760" lon="-8.5051250">
        <ele>288.9</ele>
        <time>2019-08-15T09:19:07Z</time>
      </trkpt>
      <trkpt lat="40.9301220" lon="-8.5049690">
        <ele>289.9</ele>
        <time>2019-08-15T09:19:14Z</time>
      </trkpt>
      <trkpt lat="40.9301500" lon="-8.5048650">
        <ele>290.7</ele>
        <time>2019-08-15T09:19:20Z</time>
      </trkpt>
      <trkpt lat="40.9301580" lon="-8.5048460">
        <ele>290.8</ele>
        <time>2019-08-15T09:19:21Z</time>
      </trkpt>
      <trkpt lat="40.9301610" lon="-8.5048270">
        <ele>290.9</ele>
        <time>2019-08-15T09:19:22Z</time>
      </trkpt>
      <trkpt lat="40.9301680" lon="-8.5048080">
        <ele>291.1</ele>
        <time>2019-08-15T09:19:23Z</time>
      </trkpt>
      <trkpt lat="40.9301790" lon="-8.5047880">
        <ele>291.2</ele>
        <time>2019-08-15T09:19:24Z</time>
      </trkpt>
      <trkpt lat="40.9302310" lon="-8.5046540">
        <ele>292.2</ele>
        <time>2019-08-15T09:19:30Z</time>
      </trkpt>
      <trkpt lat="40.9302410" lon="-8.5046130">
        <ele>292.6</ele>
        <time>2019-08-15T09:19:32Z</time>
      </trkpt>
      <trkpt lat="40.9302460" lon="-8.5045930">
        <ele>292.7</ele>
        <time>2019-08-15T09:19:33Z</time>
      </trkpt>
      <trkpt lat="40.9302500" lon="-8.5045720">
        <ele>292.9</ele>
        <time>2019-08-15T09:19:34Z</time>
      </trkpt>
      <trkpt lat="40.9302520" lon="-8.5045490">
        <ele>292.9</ele>
        <time>2019-08-15T09:19:35Z</time>
      </trkpt>
      <trkpt lat="40.9302510" lon="-8.5045250">
        <ele>293.0</ele>
        <time>2019-08-15T09:19:36Z</time>
      </trkpt>
      <trkpt lat="40.9302710" lon="-8.5044110">
        <ele>293.4</ele>
        <time>2019-08-15T09:19:41Z</time>
      </trkpt>
      <trkpt lat="40.9302960" lon="-8.5042750">
        <ele>294.5</ele>
        <time>2019-08-15T09:19:47Z</time>
      </trkpt>
      <trkpt lat="40.9303020" lon="-8.5042550">
        <ele>294.6</ele>
        <time>2019-08-15T09:19:48Z</time>
      </trkpt>
      <trkpt lat="40.9303010" lon="-8.5042550">
        <ele>294.6</ele>
        <time>2019-08-15T09:19:49Z</time>
      </trkpt>
      <trkpt lat="40.9303040" lon="-8.5042520">
        <ele>294.6</ele>
        <time>2019-08-15T09:19:50Z</time>
      </trkpt>
      <trkpt lat="40.9303050" lon="-8.5042520">
        <ele>294.7</ele>
        <time>2019-08-15T09:19:51Z</time>
      </trkpt>
      <trkpt lat="40.9303220" lon="-8.5042350">
        <ele>294.8</ele>
        <time>2019-08-15T09:20:05Z</time>
      </trkpt>
      <trkpt lat="40.9303240" lon="-8.5041540">
        <ele>295.2</ele>
        <time>2019-08-15T09:20:08Z</time>
      </trkpt>
      <trkpt lat="40.9303430" lon="-8.5040100">
        <ele>296.0</ele>
        <time>2019-08-15T09:20:15Z</time>
      </trkpt>
      <trkpt lat="40.9303470" lon="-8.5039900">
        <ele>296.1</ele>
        <time>2019-08-15T09:20:18Z</time>
      </trkpt>
      <trkpt lat="40.9303410" lon="-8.5039710">
        <ele>296.2</ele>
        <time>2019-08-15T09:20:22Z</time>
      </trkpt>
      <trkpt lat="40.9303510" lon="-8.5039510">
        <ele>296.3</ele>
        <time>2019-08-15T09:20:23Z</time>
      </trkpt>
      <trkpt lat="40.9304650" lon="-8.5038790">
        <ele>296.3</ele>
        <time>2019-08-15T09:20:28Z</time>
      </trkpt>
      <trkpt lat="40.9304970" lon="-8.5039000">
        <ele>296.3</ele>
        <time>2019-08-15T09:20:29Z</time>
      </trkpt>
      <trkpt lat="40.9305830" lon="-8.5039110">
        <ele>296.3</ele>
        <time>2019-08-15T09:20:32Z</time>
      </trkpt>
      <trkpt lat="40.9306920" lon="-8.5039300">
        <ele>296.2</ele>
        <time>2019-08-15T09:20:36Z</time>
      </trkpt>
      <trkpt lat="40.9307180" lon="-8.5039340">
        <ele>296.2</ele>
        <time>2019-08-15T09:20:37Z</time>
      </trkpt>
      <trkpt lat="40.9307400" lon="-8.5039370">
        <ele>296.2</ele>
        <time>2019-08-15T09:20:38Z</time>
      </trkpt>
      <trkpt lat="40.9307640" lon="-8.5039400">
        <ele>296.2</ele>
        <time>2019-08-15T09:20:39Z</time>
      </trkpt>
      <trkpt lat="40.9307870" lon="-8.5039410">
        <ele>296.2</ele>
        <time>2019-08-15T09:20:40Z</time>
      </trkpt>
      <trkpt lat="40.9308130" lon="-8.5039450">
        <ele>296.2</ele>
        <time>2019-08-15T09:20:41Z</time>
      </trkpt>
      <trkpt lat="40.9309990" lon="-8.5039940">
        <ele>296.2</ele>
        <time>2019-08-15T09:20:50Z</time>
      </trkpt>
      <trkpt lat="40.9312500" lon="-8.5040420">
        <ele>296.0</ele>
        <time>2019-08-15T09:21:01Z</time>
      </trkpt>
      <trkpt lat="40.9314320" lon="-8.5040860">
        <ele>296.0</ele>
        <time>2019-08-15T09:21:09Z</time>
      </trkpt>
      <trkpt lat="40.9315490" lon="-8.5041190">
        <ele>295.9</ele>
        <time>2019-08-15T09:21:14Z</time>
      </trkpt>
      <trkpt lat="40.9315700" lon="-8.5041200">
        <ele>295.9</ele>
        <time>2019-08-15T09:21:15Z</time>
      </trkpt>
      <trkpt lat="40.9315940" lon="-8.5041310">
        <ele>295.9</ele>
        <time>2019-08-15T09:21:16Z</time>
      </trkpt>
      <trkpt lat="40.9316120" lon="-8.5041410">
        <ele>295.9</ele>
        <time>2019-08-15T09:21:17Z</time>
      </trkpt>
      <trkpt lat="40.9316310" lon="-8.5041580">
        <ele>295.9</ele>
        <time>2019-08-15T09:21:18Z</time>
      </trkpt>
      <trkpt lat="40.9317060" lon="-8.5041580">
        <ele>296.0</ele>
        <time>2019-08-15T09:21:21Z</time>
      </trkpt>
      <trkpt lat="40.9317630" lon="-8.5041670">
        <ele>296.2</ele>
        <time>2019-08-15T09:21:23Z</time>
      </trkpt>
      <trkpt lat="40.9319350" lon="-8.5042160">
        <ele>296.4</ele>
        <time>2019-08-15T09:21:30Z</time>
      </trkpt>
      <trkpt lat="40.9321640" lon="-8.5042830">
        <ele>296.6</ele>
        <time>2019-08-15T09:21:38Z</time>
      </trkpt>
      <trkpt lat="40.9324530" lon="-8.5043550">
        <ele>296.6</ele>
        <time>2019-08-15T09:21:46Z</time>
      </trkpt>
      <trkpt lat="40.9327370" lon="-8.5044350">
        <ele>296.4</ele>
        <time>2019-08-15T09:21:53Z</time>
      </trkpt>
      <trkpt lat="40.9327900" lon="-8.5044500">
        <ele>296.4</ele>
        <time>2019-08-15T09:21:54Z</time>
      </trkpt>
      <trkpt lat="40.9328390" lon="-8.5044650">
        <ele>296.3</ele>
        <time>2019-08-15T09:21:55Z</time>
      </trkpt>
      <trkpt lat="40.9328950" lon="-8.5044790">
        <ele>296.2</ele>
        <time>2019-08-15T09:21:56Z</time>
      </trkpt>
      <trkpt lat="40.9329550" lon="-8.5044970">
        <ele>296.0</ele>
        <time>2019-08-15T09:21:57Z</time>
      </trkpt>
      <trkpt lat="40.9332010" lon="-8.5045630">
        <ele>294.5</ele>
        <time>2019-08-15T09:22:01Z</time>
      </trkpt>
      <trkpt lat="40.9333310" lon="-8.5045920">
        <ele>294.5</ele>
        <time>2019-08-15T09:22:03Z</time>
      </trkpt>
      <trkpt lat="40.9333970" lon="-8.5046090">
        <ele>294.5</ele>
        <time>2019-08-15T09:22:04Z</time>
      </trkpt>
      <trkpt lat="40.9334670" lon="-8.5046290">
        <ele>294.5</ele>
        <time>2019-08-15T09:22:05Z</time>
      </trkpt>
      <trkpt lat="40.9335320" lon="-8.5046490">
        <ele>294.4</ele>
        <time>2019-08-15T09:22:06Z</time>
      </trkpt>
      <trkpt lat="40.9336060" lon="-8.5046650">
        <ele>294.3</ele>
        <time>2019-08-15T09:22:07Z</time>
      </trkpt>
      <trkpt lat="40.9341780" lon="-8.5048030">
        <ele>293.9</ele>
        <time>2019-08-15T09:22:16Z</time>
      </trkpt>
      <trkpt lat="40.9344290" lon="-8.5048870">
        <ele>294.6</ele>
        <time>2019-08-15T09:22:20Z</time>
      </trkpt>
      <trkpt lat="40.9344890" lon="-8.5049100">
        <ele>294.7</ele>
        <time>2019-08-15T09:22:21Z</time>
      </trkpt>
      <trkpt lat="40.9345470" lon="-8.5049350">
        <ele>294.7</ele>
        <time>2019-08-15T09:22:22Z</time>
      </trkpt>
      <trkpt lat="40.9346050" lon="-8.5049630">
        <ele>294.8</ele>
        <time>2019-08-15T09:22:23Z</time>
      </trkpt>
      <trkpt lat="40.9346540" lon="-8.5049920">
        <ele>294.9</ele>
        <time>2019-08-15T09:22:24Z</time>
      </trkpt>
      <trkpt lat="40.9347980" lon="-8.5050850">
        <ele>295.6</ele>
        <time>2019-08-15T09:22:27Z</time>
      </trkpt>
      <trkpt lat="40.9350370" lon="-8.5052750">
        <ele>296.1</ele>
        <time>2019-08-15T09:22:33Z</time>
      </trkpt>
      <trkpt lat="40.9351030" lon="-8.5053330">
        <ele>296.3</ele>
        <time>2019-08-15T09:22:35Z</time>
      </trkpt>
      <trkpt lat="40.9351360" lon="-8.5053630">
        <ele>296.3</ele>
        <time>2019-08-15T09:22:36Z</time>
      </trkpt>
      <trkpt lat="40.9351670" lon="-8.5053940">
        <ele>296.4</ele>
        <time>2019-08-15T09:22:37Z</time>
      </trkpt>
      <trkpt lat="40.9351970" lon="-8.5054250">
        <ele>296.5</ele>
        <time>2019-08-15T09:22:38Z</time>
      </trkpt>
      <trkpt lat="40.9352270" lon="-8.5054530">
        <ele>296.6</ele>
        <time>2019-08-15T09:22:39Z</time>
      </trkpt>
      <trkpt lat="40.9353080" lon="-8.5055260">
        <ele>296.9</ele>
        <time>2019-08-15T09:22:42Z</time>
      </trkpt>
      <trkpt lat="40.9355160" lon="-8.5057130">
        <ele>297.6</ele>
        <time>2019-08-15T09:22:50Z</time>
      </trkpt>
      <trkpt lat="40.9358770" lon="-8.5060470">
        <ele>298.5</ele>
        <time>2019-08-15T09:23:02Z</time>
      </trkpt>
      <trkpt lat="40.9360010" lon="-8.5061560">
        <ele>298.7</ele>
        <time>2019-08-15T09:23:06Z</time>
      </trkpt>
      <trkpt lat="40.9360300" lon="-8.5061830">
        <ele>298.8</ele>
        <time>2019-08-15T09:23:07Z</time>
      </trkpt>
      <trkpt lat="40.9360840" lon="-8.5062370">
        <ele>298.9</ele>
        <time>2019-08-15T09:23:09Z</time>
      </trkpt>
      <trkpt lat="40.9361110" lon="-8.5062660">
        <ele>299.0</ele>
        <time>2019-08-15T09:23:10Z</time>
      </trkpt>
      <trkpt lat="40.9361390" lon="-8.5062930">
        <ele>299.1</ele>
        <time>2019-08-15T09:23:11Z</time>
      </trkpt>
      <trkpt lat="40.9363940" lon="-8.5065190">
        <ele>299.6</ele>
        <time>2019-08-15T09:23:20Z</time>
      </trkpt>
      <trkpt lat="40.9366850" lon="-8.5067130">
        <ele>299.4</ele>
        <time>2019-08-15T09:23:28Z</time>
      </trkpt>
      <trkpt lat="40.9370670" lon="-8.5069540">
        <ele>298.3</ele>
        <time>2019-08-15T09:23:36Z</time>
      </trkpt>
      <trkpt lat="40.9374050" lon="-8.5071430">
        <ele>297.3</ele>
        <time>2019-08-15T09:23:42Z</time>
      </trkpt>
      <trkpt lat="40.9374540" lon="-8.5071700">
        <ele>297.1</ele>
        <time>2019-08-15T09:23:43Z</time>
      </trkpt>
      <trkpt lat="40.9374960" lon="-8.5071970">
        <ele>297.1</ele>
        <time>2019-08-15T09:23:44Z</time>
      </trkpt>
      <trkpt lat="40.9375410" lon="-8.5072240">
        <ele>297.0</ele>
        <time>2019-08-15T09:23:45Z</time>
      </trkpt>
      <trkpt lat="40.9376350" lon="-8.5072650">
        <ele>296.8</ele>
        <time>2019-08-15T09:23:47Z</time>
      </trkpt>
      <trkpt lat="40.9377170" lon="-8.5073160">
        <ele>296.6</ele>
        <time>2019-08-15T09:23:49Z</time>
      </trkpt>
      <trkpt lat="40.9378350" lon="-8.5073710">
        <ele>296.4</ele>
        <time>2019-08-15T09:23:52Z</time>
      </trkpt>
      <trkpt lat="40.9382820" lon="-8.5075630">
        <ele>295.4</ele>
        <time>2019-08-15T09:24:02Z</time>
      </trkpt>
      <trkpt lat="40.9386720" lon="-8.5076570">
        <ele>294.6</ele>
        <time>2019-08-15T09:24:09Z</time>
      </trkpt>
      <trkpt lat="40.9387280" lon="-8.5076690">
        <ele>294.5</ele>
        <time>2019-08-15T09:24:10Z</time>
      </trkpt>
      <trkpt lat="40.9387850" lon="-8.5076810">
        <ele>294.3</ele>
        <time>2019-08-15T09:24:11Z</time>
      </trkpt>
      <trkpt lat="40.9388410" lon="-8.5076940">
        <ele>294.2</ele>
        <time>2019-08-15T09:24:12Z</time>
      </trkpt>
      <trkpt lat="40.9388960" lon="-8.5077070">
        <ele>294.1</ele>
        <time>2019-08-15T09:24:13Z</time>
      </trkpt>
      <trkpt lat="40.9389530" lon="-8.5077200">
        <ele>294.0</ele>
        <time>2019-08-15T09:24:14Z</time>
      </trkpt>
      <trkpt lat="40.9391280" lon="-8.5077640">
        <ele>293.7</ele>
        <time>2019-08-15T09:24:17Z</time>
      </trkpt>
      <trkpt lat="40.9395880" lon="-8.5078820">
        <ele>293.7</ele>
        <time>2019-08-15T09:24:25Z</time>
      </trkpt>
      <trkpt lat="40.9399580" lon="-8.5079500">
        <ele>294.4</ele>
        <time>2019-08-15T09:24:33Z</time>
      </trkpt>
      <trkpt lat="40.9403360" lon="-8.5080410">
        <ele>294.3</ele>
        <time>2019-08-15T09:24:42Z</time>
      </trkpt>
      <trkpt lat="40.9405060" lon="-8.5080740">
        <ele>294.2</ele>
        <time>2019-08-15T09:24:46Z</time>
      </trkpt>
      <trkpt lat="40.9405500" lon="-8.5080840">
        <ele>294.2</ele>
        <time>2019-08-15T09:24:47Z</time>
      </trkpt>
      <trkpt lat="40.9405920" lon="-8.5080940">
        <ele>294.2</ele>
        <time>2019-08-15T09:24:48Z</time>
      </trkpt>
      <trkpt lat="40.9406380" lon="-8.5081050">
        <ele>294.2</ele>
        <time>2019-08-15T09:24:49Z</time>
      </trkpt>
      <trkpt lat="40.9406830" lon="-8.5081160">
        <ele>294.1</ele>
        <time>2019-08-15T09:24:50Z</time>
      </trkpt>
      <trkpt lat="40.9411440" lon="-8.5082140">
        <ele>294.3</ele>
        <time>2019-08-15T09:25:01Z</time>
      </trkpt>
      <trkpt lat="40.9415040" lon="-8.5083120">
        <ele>295.8</ele>
        <time>2019-08-15T09:25:10Z</time>
      </trkpt>
      <trkpt lat="40.9415450" lon="-8.5083210">
        <ele>296.0</ele>
        <time>2019-08-15T09:25:11Z</time>
      </trkpt>
      <trkpt lat="40.9415810" lon="-8.5083330">
        <ele>296.1</ele>
        <time>2019-08-15T09:25:12Z</time>
      </trkpt>
      <trkpt lat="40.9416250" lon="-8.5083440">
        <ele>296.3</ele>
        <time>2019-08-15T09:25:13Z</time>
      </trkpt>
      <trkpt lat="40.9416670" lon="-8.5083530">
        <ele>296.4</ele>
        <time>2019-08-15T09:25:14Z</time>
      </trkpt>
      <trkpt lat="40.9417150" lon="-8.5083600">
        <ele>296.5</ele>
        <time>2019-08-15T09:25:15Z</time>
      </trkpt>
      <trkpt lat="40.9418380" lon="-8.5083830">
        <ele>296.9</ele>
        <time>2019-08-15T09:25:18Z</time>
      </trkpt>
      <trkpt lat="40.9420840" lon="-8.5084370">
        <ele>297.5</ele>
        <time>2019-08-15T09:25:24Z</time>
      </trkpt>
      <trkpt lat="40.9421180" lon="-8.5084540">
        <ele>297.6</ele>
        <time>2019-08-15T09:25:25Z</time>
      </trkpt>
      <trkpt lat="40.9421500" lon="-8.5084660">
        <ele>297.7</ele>
        <time>2019-08-15T09:25:26Z</time>
      </trkpt>
      <trkpt lat="40.9421850" lon="-8.5084770">
        <ele>297.8</ele>
        <time>2019-08-15T09:25:27Z</time>
      </trkpt>
      <trkpt lat="40.9422230" lon="-8.5084850">
        <ele>297.8</ele>
        <time>2019-08-15T09:25:28Z</time>
      </trkpt>
      <trkpt lat="40.9425000" lon="-8.5085280">
        <ele>298.4</ele>
        <time>2019-08-15T09:25:35Z</time>
      </trkpt>
      <trkpt lat="40.9428690" lon="-8.5085980">
        <ele>298.8</ele>
        <time>2019-08-15T09:25:45Z</time>
      </trkpt>
      <trkpt lat="40.9429830" lon="-8.5086230">
        <ele>298.9</ele>
        <time>2019-08-15T09:25:48Z</time>
      </trkpt>
      <trkpt lat="40.9430210" lon="-8.5086320">
        <ele>298.9</ele>
        <time>2019-08-15T09:25:49Z</time>
      </trkpt>
      <trkpt lat="40.9430590" lon="-8.5086370">
        <ele>298.9</ele>
        <time>2019-08-15T09:25:50Z</time>
      </trkpt>
      <trkpt lat="40.9430950" lon="-8.5086450">
        <ele>298.9</ele>
        <time>2019-08-15T09:25:51Z</time>
      </trkpt>
      <trkpt lat="40.9431290" lon="-8.5086540">
        <ele>299.0</ele>
        <time>2019-08-15T09:25:52Z</time>
      </trkpt>
      <trkpt lat="40.9432090" lon="-8.5086750">
        <ele>299.0</ele>
        <time>2019-08-15T09:25:54Z</time>
      </trkpt>
      <trkpt lat="40.9434450" lon="-8.5087140">
        <ele>299.2</ele>
        <time>2019-08-15T09:26:01Z</time>
      </trkpt>
      <trkpt lat="40.9436590" lon="-8.5088480">
        <ele>299.4</ele>
        <time>2019-08-15T09:26:09Z</time>
      </trkpt>
      <trkpt lat="40.9439590" lon="-8.5090100">
        <ele>299.5</ele>
        <time>2019-08-15T09:26:17Z</time>
      </trkpt>
      <trkpt lat="40.9441780" lon="-8.5091480">
        <ele>299.6</ele>
        <time>2019-08-15T09:26:24Z</time>
      </trkpt>
      <trkpt lat="40.9443970" lon="-8.5092960">
        <ele>299.6</ele>
        <time>2019-08-15T09:26:30Z</time>
      </trkpt>
      <trkpt lat="40.9447430" lon="-8.5095790">
        <ele>300.4</ele>
        <time>2019-08-15T09:26:38Z</time>
      </trkpt>
      <trkpt lat="40.9451140" lon="-8.5097660">
        <ele>301.4</ele>
        <time>2019-08-15T09:26:45Z</time>
      </trkpt>
      <trkpt lat="40.9454350" lon="-8.5099630">
        <ele>303.0</ele>
        <time>2019-08-15T09:26:53Z</time>
      </trkpt>
      <trkpt lat="40.9457430" lon="-8.5101750">
        <ele>304.0</ele>
        <time>2019-08-15T09:27:00Z</time>
      </trkpt>
      <trkpt lat="40.9457760" lon="-8.5101980">
        <ele>304.0</ele>
        <time>2019-08-15T09:27:01Z</time>
      </trkpt>
      <trkpt lat="40.9458110" lon="-8.5102230">
        <ele>304.1</ele>
        <time>2019-08-15T09:27:02Z</time>
      </trkpt>
      <trkpt lat="40.9458610" lon="-8.5102490">
        <ele>304.2</ele>
        <time>2019-08-15T09:27:03Z</time>
      </trkpt>
      <trkpt lat="40.9459000" lon="-8.5102740">
        <ele>304.2</ele>
        <time>2019-08-15T09:27:04Z</time>
      </trkpt>
      <trkpt lat="40.9461710" lon="-8.5104440">
        <ele>304.5</ele>
        <time>2019-08-15T09:27:11Z</time>
      </trkpt>
      <trkpt lat="40.9463310" lon="-8.5105490">
        <ele>304.7</ele>
        <time>2019-08-15T09:27:15Z</time>
      </trkpt>
      <trkpt lat="40.9463700" lon="-8.5105750">
        <ele>304.7</ele>
        <time>2019-08-15T09:27:16Z</time>
      </trkpt>
      <trkpt lat="40.9464090" lon="-8.5106020">
        <ele>304.7</ele>
        <time>2019-08-15T09:27:17Z</time>
      </trkpt>
      <trkpt lat="40.9464460" lon="-8.5106300">
        <ele>304.8</ele>
        <time>2019-08-15T09:27:18Z</time>
      </trkpt>
      <trkpt lat="40.9464850" lon="-8.5106560">
        <ele>304.8</ele>
        <time>2019-08-15T09:27:19Z</time>
      </trkpt>
      <trkpt lat="40.9466000" lon="-8.5107300">
        <ele>304.9</ele>
        <time>2019-08-15T09:27:22Z</time>
      </trkpt>
      <trkpt lat="40.9469060" lon="-8.5109190">
        <ele>305.0</ele>
        <time>2019-08-15T09:27:29Z</time>
      </trkpt>
      <trkpt lat="40.9472480" lon="-8.5111780">
        <ele>304.6</ele>
        <time>2019-08-15T09:27:37Z</time>
      </trkpt>
      <trkpt lat="40.9474300" lon="-8.5113080">
        <ele>304.2</ele>
        <time>2019-08-15T09:27:41Z</time>
      </trkpt>
      <trkpt lat="40.9474770" lon="-8.5113440">
        <ele>304.1</ele>
        <time>2019-08-15T09:27:42Z</time>
      </trkpt>
      <trkpt lat="40.9475170" lon="-8.5113740">
        <ele>304.0</ele>
        <time>2019-08-15T09:27:43Z</time>
      </trkpt>
      <trkpt lat="40.9475620" lon="-8.5114130">
        <ele>304.0</ele>
        <time>2019-08-15T09:27:44Z</time>
      </trkpt>
      <trkpt lat="40.9476130" lon="-8.5114500">
        <ele>303.9</ele>
        <time>2019-08-15T09:27:45Z</time>
      </trkpt>
      <trkpt lat="40.9480270" lon="-8.5118310">
        <ele>304.2</ele>
        <time>2019-08-15T09:27:54Z</time>
      </trkpt>
      <trkpt lat="40.9483140" lon="-8.5121080">
        <ele>304.6</ele>
        <time>2019-08-15T09:28:01Z</time>
      </trkpt>
      <trkpt lat="40.9485550" lon="-8.5123680">
        <ele>304.4</ele>
        <time>2019-08-15T09:28:08Z</time>
      </trkpt>
      <trkpt lat="40.9487270" lon="-8.5125450">
        <ele>304.1</ele>
        <time>2019-08-15T09:28:13Z</time>
      </trkpt>
      <trkpt lat="40.9488680" lon="-8.5126700">
        <ele>304.0</ele>
        <time>2019-08-15T09:28:17Z</time>
      </trkpt>
      <trkpt lat="40.9492450" lon="-8.5130480">
        <ele>304.2</ele>
        <time>2019-08-15T09:28:27Z</time>
      </trkpt>
      <trkpt lat="40.9496510" lon="-8.5134300">
        <ele>304.7</ele>
        <time>2019-08-15T09:28:37Z</time>
      </trkpt>
      <trkpt lat="40.9500310" lon="-8.5138030">
        <ele>305.4</ele>
        <time>2019-08-15T09:28:47Z</time>
      </trkpt>
      <trkpt lat="40.9502770" lon="-8.5140490">
        <ele>305.5</ele>
        <time>2019-08-15T09:28:54Z</time>
      </trkpt>
      <trkpt lat="40.9503140" lon="-8.5140790">
        <ele>305.6</ele>
        <time>2019-08-15T09:28:55Z</time>
      </trkpt>
      <trkpt lat="40.9504780" lon="-8.5142820">
        <ele>305.7</ele>
        <time>2019-08-15T09:29:01Z</time>
      </trkpt>
      <trkpt lat="40.9506020" lon="-8.5143540">
        <ele>305.7</ele>
        <time>2019-08-15T09:29:07Z</time>
      </trkpt>
      <trkpt lat="40.9506660" lon="-8.5143780">
        <ele>305.9</ele>
        <time>2019-08-15T09:29:12Z</time>
      </trkpt>
      <trkpt lat="40.9506970" lon="-8.5143200">
        <ele>306.0</ele>
        <time>2019-08-15T09:29:16Z</time>
      </trkpt>
      <trkpt lat="40.9507130" lon="-8.5142820">
        <ele>306.0</ele>
        <time>2019-08-15T09:43:29Z</time>
      </trkpt>
      <trkpt lat="40.9507100" lon="-8.5142990">
        <ele>306.1</ele>
        <time>2019-08-15T09:43:32Z</time>
      </trkpt>
      <trkpt lat="40.9506980" lon="-8.5143380">
        <ele>306.1</ele>
        <time>2019-08-15T09:43:36Z</time>
      </trkpt>
      <trkpt lat="40.9507000" lon="-8.5143520">
        <ele>306.1</ele>
        <time>2019-08-15T09:43:37Z</time>
      </trkpt>
      <trkpt lat="40.9506940" lon="-8.5144010">
        <ele>306.2</ele>
        <time>2019-08-15T09:43:39Z</time>
      </trkpt>
      <trkpt lat="40.9506950" lon="-8.5144270">
        <ele>306.2</ele>
        <time>2019-08-15T09:43:40Z</time>
      </trkpt>
      <trkpt lat="40.9507100" lon="-8.5144620">
        <ele>306.3</ele>
        <time>2019-08-15T09:43:41Z</time>
      </trkpt>
      <trkpt lat="40.9507280" lon="-8.5144910">
        <ele>306.3</ele>
        <time>2019-08-15T09:43:42Z</time>
      </trkpt>
      <trkpt lat="40.9507510" lon="-8.5145160">
        <ele>306.3</ele>
        <time>2019-08-15T09:43:43Z</time>
      </trkpt>
      <trkpt lat="40.9509000" lon="-8.5146730">
        <ele>306.5</ele>
        <time>2019-08-15T09:43:49Z</time>
      </trkpt>
      <trkpt lat="40.9511210" lon="-8.5149020">
        <ele>306.6</ele>
        <time>2019-08-15T09:43:58Z</time>
      </trkpt>
      <trkpt lat="40.9512140" lon="-8.5150070">
        <ele>306.5</ele>
        <time>2019-08-15T09:44:04Z</time>
      </trkpt>
      <trkpt lat="40.9513690" lon="-8.5151460">
        <ele>306.8</ele>
        <time>2019-08-15T09:44:10Z</time>
      </trkpt>
      <trkpt lat="40.9514370" lon="-8.5152050">
        <ele>306.9</ele>
        <time>2019-08-15T09:44:13Z</time>
      </trkpt>
      <trkpt lat="40.9514850" lon="-8.5152350">
        <ele>307.0</ele>
        <time>2019-08-15T09:44:15Z</time>
      </trkpt>
      <trkpt lat="40.9516940" lon="-8.5154400">
        <ele>307.3</ele>
        <time>2019-08-15T09:44:24Z</time>
      </trkpt>
      <trkpt lat="40.9519430" lon="-8.5157140">
        <ele>307.8</ele>
        <time>2019-08-15T09:44:34Z</time>
      </trkpt>
      <trkpt lat="40.9522220" lon="-8.5159710">
        <ele>308.1</ele>
        <time>2019-08-15T09:44:44Z</time>
      </trkpt>
      <trkpt lat="40.9525450" lon="-8.5162140">
        <ele>308.1</ele>
        <time>2019-08-15T09:44:53Z</time>
      </trkpt>
      <trkpt lat="40.9525840" lon="-8.5162410">
        <ele>308.1</ele>
        <time>2019-08-15T09:44:54Z</time>
      </trkpt>
      <trkpt lat="40.9526260" lon="-8.5162660">
        <ele>308.1</ele>
        <time>2019-08-15T09:44:55Z</time>
      </trkpt>
      <trkpt lat="40.9526660" lon="-8.5162940">
        <ele>308.1</ele>
        <time>2019-08-15T09:44:56Z</time>
      </trkpt>
      <trkpt lat="40.9527070" lon="-8.5163240">
        <ele>308.0</ele>
        <time>2019-08-15T09:44:57Z</time>
      </trkpt>
      <trkpt lat="40.9527490" lon="-8.5163690">
        <ele>307.9</ele>
        <time>2019-08-15T09:44:58Z</time>
      </trkpt>
      <trkpt lat="40.9529230" lon="-8.5165050">
        <ele>307.6</ele>
        <time>2019-08-15T09:45:02Z</time>
      </trkpt>
      <trkpt lat="40.9531130" lon="-8.5166260">
        <ele>306.5</ele>
        <time>2019-08-15T09:45:06Z</time>
      </trkpt>
      <trkpt lat="40.9531650" lon="-8.5166600">
        <ele>306.1</ele>
        <time>2019-08-15T09:45:07Z</time>
      </trkpt>
      <trkpt lat="40.9532140" lon="-8.5166930">
        <ele>305.6</ele>
        <time>2019-08-15T09:45:08Z</time>
      </trkpt>
      <trkpt lat="40.9532790" lon="-8.5167300">
        <ele>305.1</ele>
        <time>2019-08-15T09:45:09Z</time>
      </trkpt>
      <trkpt lat="40.9533410" lon="-8.5167640">
        <ele>304.8</ele>
        <time>2019-08-15T09:45:10Z</time>
      </trkpt>
      <trkpt lat="40.9534010" lon="-8.5167980">
        <ele>304.6</ele>
        <time>2019-08-15T09:45:11Z</time>
      </trkpt>
      <trkpt lat="40.9534740" lon="-8.5168330">
        <ele>304.4</ele>
        <time>2019-08-15T09:45:12Z</time>
      </trkpt>
      <trkpt lat="40.9535420" lon="-8.5168660">
        <ele>304.1</ele>
        <time>2019-08-15T09:45:13Z</time>
      </trkpt>
      <trkpt lat="40.9536120" lon="-8.5169020">
        <ele>303.7</ele>
        <time>2019-08-15T09:45:14Z</time>
      </trkpt>
      <trkpt lat="40.9538840" lon="-8.5170450">
        <ele>301.6</ele>
        <time>2019-08-15T09:45:18Z</time>
      </trkpt>
      <trkpt lat="40.9539600" lon="-8.5170860">
        <ele>300.9</ele>
        <time>2019-08-15T09:45:19Z</time>
      </trkpt>
      <trkpt lat="40.9540320" lon="-8.5171270">
        <ele>300.3</ele>
        <time>2019-08-15T09:45:20Z</time>
      </trkpt>
      <trkpt lat="40.9541050" lon="-8.5171680">
        <ele>299.8</ele>
        <time>2019-08-15T09:45:21Z</time>
      </trkpt>
      <trkpt lat="40.9541720" lon="-8.5172080">
        <ele>299.4</ele>
        <time>2019-08-15T09:45:22Z</time>
      </trkpt>
      <trkpt lat="40.9542550" lon="-8.5172480">
        <ele>299.0</ele>
        <time>2019-08-15T09:45:23Z</time>
      </trkpt>
      <trkpt lat="40.9543300" lon="-8.5172870">
        <ele>298.6</ele>
        <time>2019-08-15T09:45:24Z</time>
      </trkpt>
      <trkpt lat="40.9544030" lon="-8.5173270">
        <ele>298.3</ele>
        <time>2019-08-15T09:45:25Z</time>
      </trkpt>
      <trkpt lat="40.9544750" lon="-8.5173670">
        <ele>297.9</ele>
        <time>2019-08-15T09:45:26Z</time>
      </trkpt>
      <trkpt lat="40.9545450" lon="-8.5174060">
        <ele>297.6</ele>
        <time>2019-08-15T09:45:27Z</time>
      </trkpt>
      <trkpt lat="40.9546800" lon="-8.5174840">
        <ele>297.3</ele>
        <time>2019-08-15T09:45:29Z</time>
      </trkpt>
      <trkpt lat="40.9549680" lon="-8.5176440">
        <ele>297.4</ele>
        <time>2019-08-15T09:45:34Z</time>
      </trkpt>
      <trkpt lat="40.9550220" lon="-8.5176740">
        <ele>297.6</ele>
        <time>2019-08-15T09:45:35Z</time>
      </trkpt>
      <trkpt lat="40.9550730" lon="-8.5177050">
        <ele>297.8</ele>
        <time>2019-08-15T09:45:36Z</time>
      </trkpt>
      <trkpt lat="40.9551210" lon="-8.5177330">
        <ele>298.0</ele>
        <time>2019-08-15T09:45:37Z</time>
      </trkpt>
      <trkpt lat="40.9551690" lon="-8.5177620">
        <ele>298.2</ele>
        <time>2019-08-15T09:45:38Z</time>
      </trkpt>
      <trkpt lat="40.9553530" lon="-8.5178700">
        <ele>298.7</ele>
        <time>2019-08-15T09:45:42Z</time>
      </trkpt>
      <trkpt lat="40.9556710" lon="-8.5180600">
        <ele>300.1</ele>
        <time>2019-08-15T09:45:50Z</time>
      </trkpt>
      <trkpt lat="40.9557360" lon="-8.5181000">
        <ele>300.4</ele>
        <time>2019-08-15T09:45:52Z</time>
      </trkpt>
      <trkpt lat="40.9557660" lon="-8.5181200">
        <ele>300.5</ele>
        <time>2019-08-15T09:45:53Z</time>
      </trkpt>
      <trkpt lat="40.9557930" lon="-8.5181400">
        <ele>300.5</ele>
        <time>2019-08-15T09:45:54Z</time>
      </trkpt>
      <trkpt lat="40.9558150" lon="-8.5181560">
        <ele>300.6</ele>
        <time>2019-08-15T09:45:55Z</time>
      </trkpt>
      <trkpt lat="40.9558340" lon="-8.5181690">
        <ele>300.7</ele>
        <time>2019-08-15T09:45:56Z</time>
      </trkpt>
      <trkpt lat="40.9558440" lon="-8.5181720">
        <ele>300.7</ele>
        <time>2019-08-15T09:45:57Z</time>
      </trkpt>
      <trkpt lat="40.9559790" lon="-8.5182220">
        <ele>301.1</ele>
        <time>2019-08-15T09:46:05Z</time>
      </trkpt>
      <trkpt lat="40.9560320" lon="-8.5182650">
        <ele>301.2</ele>
        <time>2019-08-15T09:46:08Z</time>
      </trkpt>
      <trkpt lat="40.9560460" lon="-8.5182740">
        <ele>301.3</ele>
        <time>2019-08-15T09:46:09Z</time>
      </trkpt>
      <trkpt lat="40.9560620" lon="-8.5182830">
        <ele>301.3</ele>
        <time>2019-08-15T09:46:10Z</time>
      </trkpt>
      <trkpt lat="40.9560770" lon="-8.5182950">
        <ele>301.4</ele>
        <time>2019-08-15T09:46:11Z</time>
      </trkpt>
      <trkpt lat="40.9560870" lon="-8.5183070">
        <ele>301.4</ele>
        <time>2019-08-15T09:46:12Z</time>
      </trkpt>
      <trkpt lat="40.9562420" lon="-8.5184110">
        <ele>301.6</ele>
        <time>2019-08-15T09:46:19Z</time>
      </trkpt>
      <trkpt lat="40.9562960" lon="-8.5184500">
        <ele>301.6</ele>
        <time>2019-08-15T09:46:23Z</time>
      </trkpt>
      <trkpt lat="40.9563790" lon="-8.5184930">
        <ele>301.7</ele>
        <time>2019-08-15T09:46:28Z</time>
      </trkpt>
      <trkpt lat="40.9564190" lon="-8.5185070">
        <ele>301.7</ele>
        <time>2019-08-15T09:46:29Z</time>
      </trkpt>
      <trkpt lat="40.9564720" lon="-8.5185250">
        <ele>301.8</ele>
        <time>2019-08-15T09:46:30Z</time>
      </trkpt>
      <trkpt lat="40.9565330" lon="-8.5185450">
        <ele>301.8</ele>
        <time>2019-08-15T09:46:31Z</time>
      </trkpt>
      <trkpt lat="40.9565570" lon="-8.5185590">
        <ele>301.9</ele>
        <time>2019-08-15T09:46:32Z</time>
      </trkpt>
      <trkpt lat="40.9566700" lon="-8.5186550">
        <ele>301.6</ele>
        <time>2019-08-15T09:46:37Z</time>
      </trkpt>
      <trkpt lat="40.9568480" lon="-8.5187890">
        <ele>301.2</ele>
        <time>2019-08-15T09:46:44Z</time>
      </trkpt>
      <trkpt lat="40.9568960" lon="-8.5188430">
        <ele>301.1</ele>
        <time>2019-08-15T09:46:46Z</time>
      </trkpt>
      <trkpt lat="40.9570860" lon="-8.5190280">
        <ele>300.6</ele>
        <time>2019-08-15T09:46:52Z</time>
      </trkpt>
      <trkpt lat="40.9574890" lon="-8.5193290">
        <ele>299.1</ele>
        <time>2019-08-15T09:47:02Z</time>
      </trkpt>
      <trkpt lat="40.9576930" lon="-8.5194860">
        <ele>298.3</ele>
        <time>2019-08-15T09:47:07Z</time>
      </trkpt>
      <trkpt lat="40.9577360" lon="-8.5195180">
        <ele>298.3</ele>
        <time>2019-08-15T09:47:08Z</time>
      </trkpt>
      <trkpt lat="40.9577820" lon="-8.5195550">
        <ele>298.2</ele>
        <time>2019-08-15T09:47:09Z</time>
      </trkpt>
      <trkpt lat="40.9578340" lon="-8.5195880">
        <ele>298.1</ele>
        <time>2019-08-15T09:47:10Z</time>
      </trkpt>
      <trkpt lat="40.9578870" lon="-8.5196240">
        <ele>298.0</ele>
        <time>2019-08-15T09:47:11Z</time>
      </trkpt>
      <trkpt lat="40.9580970" lon="-8.5197650">
        <ele>297.8</ele>
        <time>2019-08-15T09:47:15Z</time>
      </trkpt>
      <trkpt lat="40.9581560" lon="-8.5197910">
        <ele>297.8</ele>
        <time>2019-08-15T09:47:16Z</time>
      </trkpt>
      <trkpt lat="40.9582020" lon="-8.5198150">
        <ele>297.8</ele>
        <time>2019-08-15T09:47:17Z</time>
      </trkpt>
      <trkpt lat="40.9582470" lon="-8.5198430">
        <ele>297.8</ele>
        <time>2019-08-15T09:47:18Z</time>
      </trkpt>
      <trkpt lat="40.9582920" lon="-8.5198730">
        <ele>297.4</ele>
        <time>2019-08-15T09:47:19Z</time>
      </trkpt>
      <trkpt lat="40.9583440" lon="-8.5199020">
        <ele>297.2</ele>
        <time>2019-08-15T09:47:20Z</time>
      </trkpt>
      <trkpt lat="40.9585260" lon="-8.5200260">
        <ele>296.1</ele>
        <time>2019-08-15T09:47:24Z</time>
      </trkpt>
      <trkpt lat="40.9585740" lon="-8.5200560">
        <ele>295.8</ele>
        <time>2019-08-15T09:47:25Z</time>
      </trkpt>
      <trkpt lat="40.9586210" lon="-8.5200880">
        <ele>295.5</ele>
        <time>2019-08-15T09:47:26Z</time>
      </trkpt>
      <trkpt lat="40.9586730" lon="-8.5201230">
        <ele>295.2</ele>
        <time>2019-08-15T09:47:27Z</time>
      </trkpt>
      <trkpt lat="40.9587270" lon="-8.5201600">
        <ele>294.9</ele>
        <time>2019-08-15T09:47:28Z</time>
      </trkpt>
      <trkpt lat="40.9590120" lon="-8.5203300">
        <ele>292.8</ele>
        <time>2019-08-15T09:47:33Z</time>
      </trkpt>
      <trkpt lat="40.9590600" lon="-8.5203680">
        <ele>292.4</ele>
        <time>2019-08-15T09:47:34Z</time>
      </trkpt>
      <trkpt lat="40.9591170" lon="-8.5204110">
        <ele>291.9</ele>
        <time>2019-08-15T09:47:35Z</time>
      </trkpt>
      <trkpt lat="40.9591720" lon="-8.5204470">
        <ele>291.5</ele>
        <time>2019-08-15T09:47:36Z</time>
      </trkpt>
      <trkpt lat="40.9592270" lon="-8.5204790">
        <ele>291.1</ele>
        <time>2019-08-15T09:47:37Z</time>
      </trkpt>
      <trkpt lat="40.9592810" lon="-8.5205100">
        <ele>290.7</ele>
        <time>2019-08-15T09:47:38Z</time>
      </trkpt>
      <trkpt lat="40.9594820" lon="-8.5206290">
        <ele>289.0</ele>
        <time>2019-08-15T09:47:42Z</time>
      </trkpt>
      <trkpt lat="40.9595320" lon="-8.5206590">
        <ele>288.5</ele>
        <time>2019-08-15T09:47:43Z</time>
      </trkpt>
      <trkpt lat="40.9595810" lon="-8.5206860">
        <ele>288.1</ele>
        <time>2019-08-15T09:47:44Z</time>
      </trkpt>
      <trkpt lat="40.9596300" lon="-8.5207150">
        <ele>287.7</ele>
        <time>2019-08-15T09:47:45Z</time>
      </trkpt>
      <trkpt lat="40.9596710" lon="-8.5207440">
        <ele>287.3</ele>
        <time>2019-08-15T09:47:46Z</time>
      </trkpt>
      <trkpt lat="40.9598430" lon="-8.5208660">
        <ele>286.0</ele>
        <time>2019-08-15T09:47:50Z</time>
      </trkpt>
      <trkpt lat="40.9598860" lon="-8.5208940">
        <ele>285.7</ele>
        <time>2019-08-15T09:47:51Z</time>
      </trkpt>
      <trkpt lat="40.9599220" lon="-8.5209150">
        <ele>285.5</ele>
        <time>2019-08-15T09:47:52Z</time>
      </trkpt>
      <trkpt lat="40.9599590" lon="-8.5209360">
        <ele>285.3</ele>
        <time>2019-08-15T09:47:53Z</time>
      </trkpt>
      <trkpt lat="40.9599950" lon="-8.5209570">
        <ele>285.1</ele>
        <time>2019-08-15T09:47:54Z</time>
      </trkpt>
      <trkpt lat="40.9601360" lon="-8.5210090">
        <ele>284.5</ele>
        <time>2019-08-15T09:47:57Z</time>
      </trkpt>
      <trkpt lat="40.9601880" lon="-8.5210230">
        <ele>284.2</ele>
        <time>2019-08-15T09:47:58Z</time>
      </trkpt>
      <trkpt lat="40.9602320" lon="-8.5210560">
        <ele>284.0</ele>
        <time>2019-08-15T09:47:59Z</time>
      </trkpt>
      <trkpt lat="40.9602820" lon="-8.5210800">
        <ele>283.8</ele>
        <time>2019-08-15T09:48:00Z</time>
      </trkpt>
      <trkpt lat="40.9603350" lon="-8.5211050">
        <ele>283.5</ele>
        <time>2019-08-15T09:48:01Z</time>
      </trkpt>
      <trkpt lat="40.9603860" lon="-8.5211300">
        <ele>283.3</ele>
        <time>2019-08-15T09:48:02Z</time>
      </trkpt>
      <trkpt lat="40.9606040" lon="-8.5211570">
        <ele>282.3</ele>
        <time>2019-08-15T09:48:07Z</time>
      </trkpt>
      <trkpt lat="40.9607380" lon="-8.5211240">
        <ele>281.6</ele>
        <time>2019-08-15T09:48:09Z</time>
      </trkpt>
      <trkpt lat="40.9607900" lon="-8.5211210">
        <ele>281.3</ele>
        <time>2019-08-15T09:48:10Z</time>
      </trkpt>
      <trkpt lat="40.9608410" lon="-8.5211200">
        <ele>281.1</ele>
        <time>2019-08-15T09:48:11Z</time>
      </trkpt>
      <trkpt lat="40.9608940" lon="-8.5211140">
        <ele>280.8</ele>
        <time>2019-08-15T09:48:12Z</time>
      </trkpt>
      <trkpt lat="40.9609480" lon="-8.5211150">
        <ele>280.6</ele>
        <time>2019-08-15T09:48:13Z</time>
      </trkpt>
      <trkpt lat="40.9612600" lon="-8.5212590">
        <ele>278.2</ele>
        <time>2019-08-15T09:48:20Z</time>
      </trkpt>
      <trkpt lat="40.9613470" lon="-8.5213820">
        <ele>277.1</ele>
        <time>2019-08-15T09:48:22Z</time>
      </trkpt>
      <trkpt lat="40.9613990" lon="-8.5214250">
        <ele>276.5</ele>
        <time>2019-08-15T09:48:23Z</time>
      </trkpt>
      <trkpt lat="40.9614620" lon="-8.5214540">
        <ele>275.9</ele>
        <time>2019-08-15T09:48:24Z</time>
      </trkpt>
      <trkpt lat="40.9615220" lon="-8.5214690">
        <ele>275.3</ele>
        <time>2019-08-15T09:48:25Z</time>
      </trkpt>
      <trkpt lat="40.9615830" lon="-8.5214930">
        <ele>275.2</ele>
        <time>2019-08-15T09:48:26Z</time>
      </trkpt>
      <trkpt lat="40.9616380" lon="-8.5215210">
        <ele>275.0</ele>
        <time>2019-08-15T09:48:27Z</time>
      </trkpt>
      <trkpt lat="40.9616910" lon="-8.5215470">
        <ele>274.6</ele>
        <time>2019-08-15T09:48:28Z</time>
      </trkpt>
      <trkpt lat="40.9617400" lon="-8.5215680">
        <ele>274.1</ele>
        <time>2019-08-15T09:48:29Z</time>
      </trkpt>
      <trkpt lat="40.9617910" lon="-8.5215900">
        <ele>273.7</ele>
        <time>2019-08-15T09:48:30Z</time>
      </trkpt>
      <trkpt lat="40.9618340" lon="-8.5216120">
        <ele>273.3</ele>
        <time>2019-08-15T09:48:31Z</time>
      </trkpt>
      <trkpt lat="40.9618740" lon="-8.5216310">
        <ele>272.9</ele>
        <time>2019-08-15T09:48:32Z</time>
      </trkpt>
      <trkpt lat="40.9619230" lon="-8.5216480">
        <ele>272.5</ele>
        <time>2019-08-15T09:48:33Z</time>
      </trkpt>
      <trkpt lat="40.9619690" lon="-8.5216710">
        <ele>272.1</ele>
        <time>2019-08-15T09:48:34Z</time>
      </trkpt>
      <trkpt lat="40.9620150" lon="-8.5217010">
        <ele>271.6</ele>
        <time>2019-08-15T09:48:35Z</time>
      </trkpt>
      <trkpt lat="40.9620620" lon="-8.5217280">
        <ele>271.1</ele>
        <time>2019-08-15T09:48:36Z</time>
      </trkpt>
      <trkpt lat="40.9621140" lon="-8.5217530">
        <ele>270.7</ele>
        <time>2019-08-15T09:48:37Z</time>
      </trkpt>
      <trkpt lat="40.9621780" lon="-8.5217840">
        <ele>270.1</ele>
        <time>2019-08-15T09:48:38Z</time>
      </trkpt>
      <trkpt lat="40.9622340" lon="-8.5218140">
        <ele>269.7</ele>
        <time>2019-08-15T09:48:39Z</time>
      </trkpt>
      <trkpt lat="40.9622870" lon="-8.5218440">
        <ele>269.3</ele>
        <time>2019-08-15T09:48:40Z</time>
      </trkpt>
      <trkpt lat="40.9623370" lon="-8.5218710">
        <ele>269.0</ele>
        <time>2019-08-15T09:48:41Z</time>
      </trkpt>
      <trkpt lat="40.9623900" lon="-8.5218960">
        <ele>268.7</ele>
        <time>2019-08-15T09:48:42Z</time>
      </trkpt>
      <trkpt lat="40.9625360" lon="-8.5219760">
        <ele>268.2</ele>
        <time>2019-08-15T09:48:45Z</time>
      </trkpt>
      <trkpt lat="40.9625840" lon="-8.5220030">
        <ele>268.1</ele>
        <time>2019-08-15T09:48:46Z</time>
      </trkpt>
      <trkpt lat="40.9626300" lon="-8.5220280">
        <ele>268.0</ele>
        <time>2019-08-15T09:48:47Z</time>
      </trkpt>
      <trkpt lat="40.9626670" lon="-8.5220530">
        <ele>267.9</ele>
        <time>2019-08-15T09:48:48Z</time>
      </trkpt>
      <trkpt lat="40.9627010" lon="-8.5220800">
        <ele>267.9</ele>
        <time>2019-08-15T09:48:49Z</time>
      </trkpt>
      <trkpt lat="40.9627330" lon="-8.5221020">
        <ele>267.8</ele>
        <time>2019-08-15T09:48:50Z</time>
      </trkpt>
      <trkpt lat="40.9627630" lon="-8.5221290">
        <ele>267.8</ele>
        <time>2019-08-15T09:48:51Z</time>
      </trkpt>
      <trkpt lat="40.9627930" lon="-8.5221610">
        <ele>267.5</ele>
        <time>2019-08-15T09:48:52Z</time>
      </trkpt>
      <trkpt lat="40.9628230" lon="-8.5221990">
        <ele>267.3</ele>
        <time>2019-08-15T09:48:53Z</time>
      </trkpt>
      <trkpt lat="40.9628640" lon="-8.5222360">
        <ele>267.1</ele>
        <time>2019-08-15T09:48:54Z</time>
      </trkpt>
      <trkpt lat="40.9629010" lon="-8.5222840">
        <ele>266.9</ele>
        <time>2019-08-15T09:48:55Z</time>
      </trkpt>
      <trkpt lat="40.9629370" lon="-8.5223320">
        <ele>266.7</ele>
        <time>2019-08-15T09:48:56Z</time>
      </trkpt>
      <trkpt lat="40.9629850" lon="-8.5223810">
        <ele>266.2</ele>
        <time>2019-08-15T09:48:57Z</time>
      </trkpt>
      <trkpt lat="40.9630350" lon="-8.5224300">
        <ele>265.8</ele>
        <time>2019-08-15T09:48:58Z</time>
      </trkpt>
      <trkpt lat="40.9630770" lon="-8.5224830">
        <ele>265.4</ele>
        <time>2019-08-15T09:48:59Z</time>
      </trkpt>
      <trkpt lat="40.9631210" lon="-8.5225400">
        <ele>264.9</ele>
        <time>2019-08-15T09:49:00Z</time>
      </trkpt>
      <trkpt lat="40.9631640" lon="-8.5225920">
        <ele>264.4</ele>
        <time>2019-08-15T09:49:01Z</time>
      </trkpt>
      <trkpt lat="40.9632120" lon="-8.5226390">
        <ele>263.9</ele>
        <time>2019-08-15T09:49:02Z</time>
      </trkpt>
      <trkpt lat="40.9632660" lon="-8.5226860">
        <ele>263.4</ele>
        <time>2019-08-15T09:49:03Z</time>
      </trkpt>
      <trkpt lat="40.9633210" lon="-8.5227320">
        <ele>262.9</ele>
        <time>2019-08-15T09:49:04Z</time>
      </trkpt>
      <trkpt lat="40.9633740" lon="-8.5227820">
        <ele>262.4</ele>
        <time>2019-08-15T09:49:05Z</time>
      </trkpt>
      <trkpt lat="40.9634250" lon="-8.5228450">
        <ele>261.9</ele>
        <time>2019-08-15T09:49:06Z</time>
      </trkpt>
      <trkpt lat="40.9634700" lon="-8.5229050">
        <ele>261.4</ele>
        <time>2019-08-15T09:49:07Z</time>
      </trkpt>
      <trkpt lat="40.9635190" lon="-8.5229610">
        <ele>261.0</ele>
        <time>2019-08-15T09:49:08Z</time>
      </trkpt>
      <trkpt lat="40.9635740" lon="-8.5230130">
        <ele>260.6</ele>
        <time>2019-08-15T09:49:09Z</time>
      </trkpt>
      <trkpt lat="40.9636320" lon="-8.5230610">
        <ele>260.2</ele>
        <time>2019-08-15T09:49:10Z</time>
      </trkpt>
      <trkpt lat="40.9636920" lon="-8.5231080">
        <ele>259.8</ele>
        <time>2019-08-15T09:49:11Z</time>
      </trkpt>
      <trkpt lat="40.9637620" lon="-8.5231400">
        <ele>259.4</ele>
        <time>2019-08-15T09:49:12Z</time>
      </trkpt>
      <trkpt lat="40.9638400" lon="-8.5231510">
        <ele>259.1</ele>
        <time>2019-08-15T09:49:13Z</time>
      </trkpt>
      <trkpt lat="40.9639210" lon="-8.5231420">
        <ele>259.0</ele>
        <time>2019-08-15T09:49:14Z</time>
      </trkpt>
      <trkpt lat="40.9639980" lon="-8.5231260">
        <ele>258.8</ele>
        <time>2019-08-15T09:49:15Z</time>
      </trkpt>
      <trkpt lat="40.9640710" lon="-8.5231030">
        <ele>258.8</ele>
        <time>2019-08-15T09:49:16Z</time>
      </trkpt>
      <trkpt lat="40.9641370" lon="-8.5230840">
        <ele>258.4</ele>
        <time>2019-08-15T09:49:17Z</time>
      </trkpt>
      <trkpt lat="40.9641980" lon="-8.5230560">
        <ele>258.0</ele>
        <time>2019-08-15T09:49:18Z</time>
      </trkpt>
      <trkpt lat="40.9642540" lon="-8.5230200">
        <ele>257.6</ele>
        <time>2019-08-15T09:49:19Z</time>
      </trkpt>
      <trkpt lat="40.9643070" lon="-8.5229800">
        <ele>257.3</ele>
        <time>2019-08-15T09:49:20Z</time>
      </trkpt>
      <trkpt lat="40.9645200" lon="-8.5227890">
        <ele>255.7</ele>
        <time>2019-08-15T09:49:25Z</time>
      </trkpt>
      <trkpt lat="40.9645510" lon="-8.5227470">
        <ele>255.5</ele>
        <time>2019-08-15T09:49:26Z</time>
      </trkpt>
      <trkpt lat="40.9646090" lon="-8.5226330">
        <ele>254.9</ele>
        <time>2019-08-15T09:49:28Z</time>
      </trkpt>
      <trkpt lat="40.9646340" lon="-8.5225680">
        <ele>254.6</ele>
        <time>2019-08-15T09:49:29Z</time>
      </trkpt>
      <trkpt lat="40.9646570" lon="-8.5225020">
        <ele>254.3</ele>
        <time>2019-08-15T09:49:30Z</time>
      </trkpt>
      <trkpt lat="40.9646830" lon="-8.5224320">
        <ele>253.9</ele>
        <time>2019-08-15T09:49:31Z</time>
      </trkpt>
      <trkpt lat="40.9647170" lon="-8.5223650">
        <ele>253.6</ele>
        <time>2019-08-15T09:49:32Z</time>
      </trkpt>
      <trkpt lat="40.9647600" lon="-8.5223010">
        <ele>253.2</ele>
        <time>2019-08-15T09:49:33Z</time>
      </trkpt>
      <trkpt lat="40.9648120" lon="-8.5222540">
        <ele>252.8</ele>
        <time>2019-08-15T09:49:34Z</time>
      </trkpt>
      <trkpt lat="40.9648730" lon="-8.5222210">
        <ele>252.4</ele>
        <time>2019-08-15T09:49:35Z</time>
      </trkpt>
      <trkpt lat="40.9649410" lon="-8.5222030">
        <ele>252.0</ele>
        <time>2019-08-15T09:49:36Z</time>
      </trkpt>
      <trkpt lat="40.9650170" lon="-8.5222030">
        <ele>251.6</ele>
        <time>2019-08-15T09:49:37Z</time>
      </trkpt>
      <trkpt lat="40.9652190" lon="-8.5222530">
        <ele>250.8</ele>
        <time>2019-08-15T09:49:40Z</time>
      </trkpt>
      <trkpt lat="40.9652890" lon="-8.5222850">
        <ele>250.5</ele>
        <time>2019-08-15T09:49:41Z</time>
      </trkpt>
      <trkpt lat="40.9653690" lon="-8.5223080">
        <ele>250.1</ele>
        <time>2019-08-15T09:49:42Z</time>
      </trkpt>
      <trkpt lat="40.9654420" lon="-8.5223290">
        <ele>249.7</ele>
        <time>2019-08-15T09:49:43Z</time>
      </trkpt>
      <trkpt lat="40.9655190" lon="-8.5223500">
        <ele>249.4</ele>
        <time>2019-08-15T09:49:44Z</time>
      </trkpt>
      <trkpt lat="40.9657130" lon="-8.5224240">
        <ele>248.8</ele>
        <time>2019-08-15T09:49:47Z</time>
      </trkpt>
      <trkpt lat="40.9657790" lon="-8.5224450">
        <ele>248.7</ele>
        <time>2019-08-15T09:49:48Z</time>
      </trkpt>
      <trkpt lat="40.9662000" lon="-8.5226280">
        <ele>247.4</ele>
        <time>2019-08-15T09:49:55Z</time>
      </trkpt>
      <trkpt lat="40.9665100" lon="-8.5228870">
        <ele>247.2</ele>
        <time>2019-08-15T09:50:01Z</time>
      </trkpt>
      <trkpt lat="40.9668500" lon="-8.5231710">
        <ele>247.2</ele>
        <time>2019-08-15T09:50:09Z</time>
      </trkpt>
      <trkpt lat="40.9672070" lon="-8.5233310">
        <ele>247.9</ele>
        <time>2019-08-15T09:50:17Z</time>
      </trkpt>
      <trkpt lat="40.9675970" lon="-8.5235440">
        <ele>250.4</ele>
        <time>2019-08-15T09:50:26Z</time>
      </trkpt>
      <trkpt lat="40.9677020" lon="-8.5236260">
        <ele>251.1</ele>
        <time>2019-08-15T09:50:29Z</time>
      </trkpt>
      <trkpt lat="40.9677390" lon="-8.5236550">
        <ele>251.3</ele>
        <time>2019-08-15T09:50:30Z</time>
      </trkpt>
      <trkpt lat="40.9677790" lon="-8.5236830">
        <ele>251.4</ele>
        <time>2019-08-15T09:50:31Z</time>
      </trkpt>
      <trkpt lat="40.9678160" lon="-8.5237150">
        <ele>251.4</ele>
        <time>2019-08-15T09:50:32Z</time>
      </trkpt>
      <trkpt lat="40.9678530" lon="-8.5237450">
        <ele>251.3</ele>
        <time>2019-08-15T09:50:33Z</time>
      </trkpt>
      <trkpt lat="40.9681030" lon="-8.5240010">
        <ele>251.0</ele>
        <time>2019-08-15T09:50:41Z</time>
      </trkpt>
      <trkpt lat="40.9682990" lon="-8.5241320">
        <ele>250.5</ele>
        <time>2019-08-15T09:50:47Z</time>
      </trkpt>
      <trkpt lat="40.9686240" lon="-8.5242760">
        <ele>247.7</ele>
        <time>2019-08-15T09:50:54Z</time>
      </trkpt>
      <trkpt lat="40.9688810" lon="-8.5243560">
        <ele>245.9</ele>
        <time>2019-08-15T09:50:58Z</time>
      </trkpt>
      <trkpt lat="40.9689490" lon="-8.5243820">
        <ele>245.5</ele>
        <time>2019-08-15T09:50:59Z</time>
      </trkpt>
      <trkpt lat="40.9690160" lon="-8.5244060">
        <ele>245.1</ele>
        <time>2019-08-15T09:51:00Z</time>
      </trkpt>
      <trkpt lat="40.9690870" lon="-8.5244310">
        <ele>244.7</ele>
        <time>2019-08-15T09:51:01Z</time>
      </trkpt>
      <trkpt lat="40.9691660" lon="-8.5244600">
        <ele>244.4</ele>
        <time>2019-08-15T09:51:02Z</time>
      </trkpt>
      <trkpt lat="40.9692450" lon="-8.5244870">
        <ele>244.2</ele>
        <time>2019-08-15T09:51:03Z</time>
      </trkpt>
      <trkpt lat="40.9693210" lon="-8.5245130">
        <ele>244.0</ele>
        <time>2019-08-15T09:51:04Z</time>
      </trkpt>
      <trkpt lat="40.9693920" lon="-8.5245400">
        <ele>243.9</ele>
        <time>2019-08-15T09:51:05Z</time>
      </trkpt>
      <trkpt lat="40.9694670" lon="-8.5245680">
        <ele>243.9</ele>
        <time>2019-08-15T09:51:06Z</time>
      </trkpt>
      <trkpt lat="40.9695370" lon="-8.5245970">
        <ele>244.0</ele>
        <time>2019-08-15T09:51:07Z</time>
      </trkpt>
      <trkpt lat="40.9696050" lon="-8.5246260">
        <ele>244.1</ele>
        <time>2019-08-15T09:51:08Z</time>
      </trkpt>
      <trkpt lat="40.9696810" lon="-8.5246560">
        <ele>244.2</ele>
        <time>2019-08-15T09:51:09Z</time>
      </trkpt>
      <trkpt lat="40.9697590" lon="-8.5246830">
        <ele>243.8</ele>
        <time>2019-08-15T09:51:10Z</time>
      </trkpt>
      <trkpt lat="40.9698240" lon="-8.5247090">
        <ele>243.4</ele>
        <time>2019-08-15T09:51:11Z</time>
      </trkpt>
      <trkpt lat="40.9698770" lon="-8.5247370">
        <ele>243.1</ele>
        <time>2019-08-15T09:51:12Z</time>
      </trkpt>
      <trkpt lat="40.9699300" lon="-8.5247610">
        <ele>242.8</ele>
        <time>2019-08-15T09:51:13Z</time>
      </trkpt>
      <trkpt lat="40.9699830" lon="-8.5247770">
        <ele>242.5</ele>
        <time>2019-08-15T09:51:14Z</time>
      </trkpt>
      <trkpt lat="40.9700390" lon="-8.5247980">
        <ele>241.9</ele>
        <time>2019-08-15T09:51:15Z</time>
      </trkpt>
      <trkpt lat="40.9700880" lon="-8.5248190">
        <ele>241.3</ele>
        <time>2019-08-15T09:51:16Z</time>
      </trkpt>
      <trkpt lat="40.9701420" lon="-8.5248430">
        <ele>240.6</ele>
        <time>2019-08-15T09:51:17Z</time>
      </trkpt>
      <trkpt lat="40.9701950" lon="-8.5248620">
        <ele>240.0</ele>
        <time>2019-08-15T09:51:18Z</time>
      </trkpt>
      <trkpt lat="40.9702470" lon="-8.5248810">
        <ele>239.4</ele>
        <time>2019-08-15T09:51:19Z</time>
      </trkpt>
      <trkpt lat="40.9702960" lon="-8.5249040">
        <ele>238.8</ele>
        <time>2019-08-15T09:51:20Z</time>
      </trkpt>
      <trkpt lat="40.9703500" lon="-8.5249350">
        <ele>238.1</ele>
        <time>2019-08-15T09:51:21Z</time>
      </trkpt>
      <trkpt lat="40.9703990" lon="-8.5249700">
        <ele>237.5</ele>
        <time>2019-08-15T09:51:22Z</time>
      </trkpt>
      <trkpt lat="40.9704500" lon="-8.5250050">
        <ele>236.8</ele>
        <time>2019-08-15T09:51:23Z</time>
      </trkpt>
      <trkpt lat="40.9705010" lon="-8.5250380">
        <ele>236.2</ele>
        <time>2019-08-15T09:51:24Z</time>
      </trkpt>
      <trkpt lat="40.9705580" lon="-8.5250670">
        <ele>235.6</ele>
        <time>2019-08-15T09:51:25Z</time>
      </trkpt>
      <trkpt lat="40.9706160" lon="-8.5250840">
        <ele>235.0</ele>
        <time>2019-08-15T09:51:26Z</time>
      </trkpt>
      <trkpt lat="40.9706780" lon="-8.5250980">
        <ele>234.6</ele>
        <time>2019-08-15T09:51:27Z</time>
      </trkpt>
      <trkpt lat="40.9707420" lon="-8.5251200">
        <ele>234.1</ele>
        <time>2019-08-15T09:51:28Z</time>
      </trkpt>
      <trkpt lat="40.9708050" lon="-8.5251460">
        <ele>233.8</ele>
        <time>2019-08-15T09:51:29Z</time>
      </trkpt>
      <trkpt lat="40.9708660" lon="-8.5251720">
        <ele>233.4</ele>
        <time>2019-08-15T09:51:30Z</time>
      </trkpt>
      <trkpt lat="40.9709250" lon="-8.5251990">
        <ele>233.0</ele>
        <time>2019-08-15T09:51:31Z</time>
      </trkpt>
      <trkpt lat="40.9709810" lon="-8.5252260">
        <ele>232.6</ele>
        <time>2019-08-15T09:51:32Z</time>
      </trkpt>
      <trkpt lat="40.9710460" lon="-8.5252520">
        <ele>232.2</ele>
        <time>2019-08-15T09:51:33Z</time>
      </trkpt>
      <trkpt lat="40.9711110" lon="-8.5252810">
        <ele>231.9</ele>
        <time>2019-08-15T09:51:34Z</time>
      </trkpt>
      <trkpt lat="40.9711750" lon="-8.5253120">
        <ele>231.6</ele>
        <time>2019-08-15T09:51:35Z</time>
      </trkpt>
      <trkpt lat="40.9712390" lon="-8.5253360">
        <ele>231.3</ele>
        <time>2019-08-15T09:51:36Z</time>
      </trkpt>
      <trkpt lat="40.9713040" lon="-8.5253490">
        <ele>230.9</ele>
        <time>2019-08-15T09:51:37Z</time>
      </trkpt>
      <trkpt lat="40.9713710" lon="-8.5253460">
        <ele>230.5</ele>
        <time>2019-08-15T09:51:38Z</time>
      </trkpt>
      <trkpt lat="40.9714300" lon="-8.5253330">
        <ele>230.2</ele>
        <time>2019-08-15T09:51:39Z</time>
      </trkpt>
      <trkpt lat="40.9714650" lon="-8.5253210">
        <ele>230.1</ele>
        <time>2019-08-15T09:51:40Z</time>
      </trkpt>
      <trkpt lat="40.9714950" lon="-8.5253180">
        <ele>230.1</ele>
        <time>2019-08-15T09:51:41Z</time>
      </trkpt>
      <trkpt lat="40.9715070" lon="-8.5253230">
        <ele>230.0</ele>
        <time>2019-08-15T09:51:42Z</time>
      </trkpt>
      <trkpt lat="40.9715270" lon="-8.5253840">
        <ele>229.8</ele>
        <time>2019-08-15T09:51:46Z</time>
      </trkpt>
      <trkpt lat="40.9715410" lon="-8.5253930">
        <ele>229.8</ele>
        <time>2019-08-15T09:51:47Z</time>
      </trkpt>
      <trkpt lat="40.9715570" lon="-8.5254070">
        <ele>229.7</ele>
        <time>2019-08-15T09:51:48Z</time>
      </trkpt>
      <trkpt lat="40.9715790" lon="-8.5254170">
        <ele>229.5</ele>
        <time>2019-08-15T09:51:49Z</time>
      </trkpt>
      <trkpt lat="40.9716070" lon="-8.5254300">
        <ele>229.3</ele>
        <time>2019-08-15T09:51:50Z</time>
      </trkpt>
      <trkpt lat="40.9716400" lon="-8.5254460">
        <ele>229.1</ele>
        <time>2019-08-15T09:51:51Z</time>
      </trkpt>
      <trkpt lat="40.9717050" lon="-8.5254400">
        <ele>228.5</ele>
        <time>2019-08-15T09:51:53Z</time>
      </trkpt>
      <trkpt lat="40.9718380" lon="-8.5254680">
        <ele>227.4</ele>
        <time>2019-08-15T09:51:57Z</time>
      </trkpt>
      <trkpt lat="40.9718770" lon="-8.5254940">
        <ele>227.0</ele>
        <time>2019-08-15T09:51:58Z</time>
      </trkpt>
      <trkpt lat="40.9719180" lon="-8.5255120">
        <ele>226.7</ele>
        <time>2019-08-15T09:51:59Z</time>
      </trkpt>
      <trkpt lat="40.9719690" lon="-8.5255320">
        <ele>226.4</ele>
        <time>2019-08-15T09:52:00Z</time>
      </trkpt>
      <trkpt lat="40.9720200" lon="-8.5255530">
        <ele>226.1</ele>
        <time>2019-08-15T09:52:01Z</time>
      </trkpt>
      <trkpt lat="40.9721100" lon="-8.5256060">
        <ele>225.2</ele>
        <time>2019-08-15T09:52:03Z</time>
      </trkpt>
      <trkpt lat="40.9721490" lon="-8.5256410">
        <ele>224.6</ele>
        <time>2019-08-15T09:52:04Z</time>
      </trkpt>
      <trkpt lat="40.9721880" lon="-8.5256690">
        <ele>223.9</ele>
        <time>2019-08-15T09:52:05Z</time>
      </trkpt>
      <trkpt lat="40.9722340" lon="-8.5256950">
        <ele>223.0</ele>
        <time>2019-08-15T09:52:06Z</time>
      </trkpt>
      <trkpt lat="40.9722800" lon="-8.5257130">
        <ele>222.2</ele>
        <time>2019-08-15T09:52:07Z</time>
      </trkpt>
      <trkpt lat="40.9723260" lon="-8.5257260">
        <ele>221.5</ele>
        <time>2019-08-15T09:52:08Z</time>
      </trkpt>
      <trkpt lat="40.9726840" lon="-8.5258610">
        <ele>220.0</ele>
        <time>2019-08-15T09:52:15Z</time>
      </trkpt>
      <trkpt lat="40.9729590" lon="-8.5259560">
        <ele>218.5</ele>
        <time>2019-08-15T09:52:20Z</time>
      </trkpt>
      <trkpt lat="40.9730240" lon="-8.5259710">
        <ele>218.2</ele>
        <time>2019-08-15T09:52:21Z</time>
      </trkpt>
      <trkpt lat="40.9730910" lon="-8.5259850">
        <ele>217.8</ele>
        <time>2019-08-15T09:52:22Z</time>
      </trkpt>
      <trkpt lat="40.9731550" lon="-8.5259990">
        <ele>217.4</ele>
        <time>2019-08-15T09:52:23Z</time>
      </trkpt>
      <trkpt lat="40.9732220" lon="-8.5260110">
        <ele>217.0</ele>
        <time>2019-08-15T09:52:24Z</time>
      </trkpt>
      <trkpt lat="40.9733560" lon="-8.5260400">
        <ele>216.2</ele>
        <time>2019-08-15T09:52:26Z</time>
      </trkpt>
      <trkpt lat="40.9734260" lon="-8.5260580">
        <ele>215.7</ele>
        <time>2019-08-15T09:52:27Z</time>
      </trkpt>
      <trkpt lat="40.9735000" lon="-8.5260780">
        <ele>215.0</ele>
        <time>2019-08-15T09:52:28Z</time>
      </trkpt>
      <trkpt lat="40.9735730" lon="-8.5260990">
        <ele>214.4</ele>
        <time>2019-08-15T09:52:29Z</time>
      </trkpt>
      <trkpt lat="40.9736480" lon="-8.5261190">
        <ele>213.7</ele>
        <time>2019-08-15T09:52:30Z</time>
      </trkpt>
      <trkpt lat="40.9737190" lon="-8.5261390">
        <ele>213.1</ele>
        <time>2019-08-15T09:52:31Z</time>
      </trkpt>
      <trkpt lat="40.9737950" lon="-8.5261600">
        <ele>212.4</ele>
        <time>2019-08-15T09:52:32Z</time>
      </trkpt>
      <trkpt lat="40.9738770" lon="-8.5261780">
        <ele>211.7</ele>
        <time>2019-08-15T09:52:33Z</time>
      </trkpt>
      <trkpt lat="40.9739600" lon="-8.5262000">
        <ele>210.9</ele>
        <time>2019-08-15T09:52:34Z</time>
      </trkpt>
      <trkpt lat="40.9740500" lon="-8.5262170">
        <ele>210.6</ele>
        <time>2019-08-15T09:52:35Z</time>
      </trkpt>
      <trkpt lat="40.9742180" lon="-8.5262560">
        <ele>210.4</ele>
        <time>2019-08-15T09:52:37Z</time>
      </trkpt>
      <trkpt lat="40.9743030" lon="-8.5262760">
        <ele>210.3</ele>
        <time>2019-08-15T09:52:38Z</time>
      </trkpt>
      <trkpt lat="40.9743930" lon="-8.5262930">
        <ele>210.2</ele>
        <time>2019-08-15T09:52:39Z</time>
      </trkpt>
      <trkpt lat="40.9744900" lon="-8.5263120">
        <ele>209.9</ele>
        <time>2019-08-15T09:52:40Z</time>
      </trkpt>
      <trkpt lat="40.9745840" lon="-8.5263340">
        <ele>209.7</ele>
        <time>2019-08-15T09:52:41Z</time>
      </trkpt>
      <trkpt lat="40.9746810" lon="-8.5263610">
        <ele>209.5</ele>
        <time>2019-08-15T09:52:42Z</time>
      </trkpt>
      <trkpt lat="40.9747770" lon="-8.5263830">
        <ele>209.3</ele>
        <time>2019-08-15T09:52:43Z</time>
      </trkpt>
      <trkpt lat="40.9748700" lon="-8.5264110">
        <ele>209.1</ele>
        <time>2019-08-15T09:52:44Z</time>
      </trkpt>
      <trkpt lat="40.9749590" lon="-8.5264420">
        <ele>209.1</ele>
        <time>2019-08-15T09:52:45Z</time>
      </trkpt>
      <trkpt lat="40.9750510" lon="-8.5264670">
        <ele>209.0</ele>
        <time>2019-08-15T09:52:46Z</time>
      </trkpt>
      <trkpt lat="40.9751400" lon="-8.5264900">
        <ele>208.9</ele>
        <time>2019-08-15T09:52:47Z</time>
      </trkpt>
      <trkpt lat="40.9752310" lon="-8.5265100">
        <ele>208.9</ele>
        <time>2019-08-15T09:52:48Z</time>
      </trkpt>
      <trkpt lat="40.9753170" lon="-8.5265400">
        <ele>208.7</ele>
        <time>2019-08-15T09:52:49Z</time>
      </trkpt>
      <trkpt lat="40.9754040" lon="-8.5265690">
        <ele>208.4</ele>
        <time>2019-08-15T09:52:50Z</time>
      </trkpt>
      <trkpt lat="40.9756570" lon="-8.5266440">
        <ele>207.6</ele>
        <time>2019-08-15T09:52:53Z</time>
      </trkpt>
      <trkpt lat="40.9760490" lon="-8.5267900">
        <ele>206.9</ele>
        <time>2019-08-15T09:52:58Z</time>
      </trkpt>
      <trkpt lat="40.9763290" lon="-8.5269170">
        <ele>206.6</ele>
        <time>2019-08-15T09:53:02Z</time>
      </trkpt>
      <trkpt lat="40.9763920" lon="-8.5269500">
        <ele>206.6</ele>
        <time>2019-08-15T09:53:03Z</time>
      </trkpt>
      <trkpt lat="40.9764560" lon="-8.5269830">
        <ele>206.8</ele>
        <time>2019-08-15T09:53:04Z</time>
      </trkpt>
      <trkpt lat="40.9765120" lon="-8.5270210">
        <ele>206.8</ele>
        <time>2019-08-15T09:53:05Z</time>
      </trkpt>
      <trkpt lat="40.9765630" lon="-8.5270610">
        <ele>206.9</ele>
        <time>2019-08-15T09:53:06Z</time>
      </trkpt>
      <trkpt lat="40.9769320" lon="-8.5272620">
        <ele>207.3</ele>
        <time>2019-08-15T09:53:13Z</time>
      </trkpt>
      <trkpt lat="40.9770880" lon="-8.5273370">
        <ele>206.8</ele>
        <time>2019-08-15T09:53:16Z</time>
      </trkpt>
      <trkpt lat="40.9771910" lon="-8.5274270">
        <ele>206.1</ele>
        <time>2019-08-15T09:53:18Z</time>
      </trkpt>
      <trkpt lat="40.9772410" lon="-8.5274830">
        <ele>205.8</ele>
        <time>2019-08-15T09:53:19Z</time>
      </trkpt>
      <trkpt lat="40.9772980" lon="-8.5275380">
        <ele>205.3</ele>
        <time>2019-08-15T09:53:20Z</time>
      </trkpt>
      <trkpt lat="40.9773530" lon="-8.5275980">
        <ele>204.9</ele>
        <time>2019-08-15T09:53:21Z</time>
      </trkpt>
      <trkpt lat="40.9774110" lon="-8.5276630">
        <ele>204.4</ele>
        <time>2019-08-15T09:53:22Z</time>
      </trkpt>
      <trkpt lat="40.9774660" lon="-8.5277320">
        <ele>204.0</ele>
        <time>2019-08-15T09:53:23Z</time>
      </trkpt>
      <trkpt lat="40.9775280" lon="-8.5278040">
        <ele>203.2</ele>
        <time>2019-08-15T09:53:24Z</time>
      </trkpt>
      <trkpt lat="40.9775880" lon="-8.5278790">
        <ele>202.7</ele>
        <time>2019-08-15T09:53:25Z</time>
      </trkpt>
      <trkpt lat="40.9776490" lon="-8.5279570">
        <ele>202.2</ele>
        <time>2019-08-15T09:53:26Z</time>
      </trkpt>
      <trkpt lat="40.9777090" lon="-8.5280400">
        <ele>201.8</ele>
        <time>2019-08-15T09:53:27Z</time>
      </trkpt>
      <trkpt lat="40.9777740" lon="-8.5281200">
        <ele>201.4</ele>
        <time>2019-08-15T09:53:28Z</time>
      </trkpt>
      <trkpt lat="40.9778370" lon="-8.5282030">
        <ele>201.1</ele>
        <time>2019-08-15T09:53:29Z</time>
      </trkpt>
      <trkpt lat="40.9779010" lon="-8.5282940">
        <ele>200.8</ele>
        <time>2019-08-15T09:53:30Z</time>
      </trkpt>
      <trkpt lat="40.9779640" lon="-8.5283780">
        <ele>200.4</ele>
        <time>2019-08-15T09:53:31Z</time>
      </trkpt>
      <trkpt lat="40.9780270" lon="-8.5284610">
        <ele>200.0</ele>
        <time>2019-08-15T09:53:32Z</time>
      </trkpt>
      <trkpt lat="40.9782120" lon="-8.5286930">
        <ele>199.4</ele>
        <time>2019-08-15T09:53:35Z</time>
      </trkpt>
      <trkpt lat="40.9782690" lon="-8.5287670">
        <ele>199.4</ele>
        <time>2019-08-15T09:53:36Z</time>
      </trkpt>
      <trkpt lat="40.9783180" lon="-8.5288430">
        <ele>199.3</ele>
        <time>2019-08-15T09:53:37Z</time>
      </trkpt>
      <trkpt lat="40.9783700" lon="-8.5289150">
        <ele>199.2</ele>
        <time>2019-08-15T09:53:38Z</time>
      </trkpt>
      <trkpt lat="40.9784220" lon="-8.5289930">
        <ele>199.2</ele>
        <time>2019-08-15T09:53:39Z</time>
      </trkpt>
      <trkpt lat="40.9786340" lon="-8.5293260">
        <ele>199.1</ele>
        <time>2019-08-15T09:53:44Z</time>
      </trkpt>
      <trkpt lat="40.9787970" lon="-8.5295790">
        <ele>202.7</ele>
        <time>2019-08-15T09:53:49Z</time>
      </trkpt>
      <trkpt lat="40.9788250" lon="-8.5296180">
        <ele>203.5</ele>
        <time>2019-08-15T09:53:50Z</time>
      </trkpt>
      <trkpt lat="40.9788530" lon="-8.5296510">
        <ele>204.2</ele>
        <time>2019-08-15T09:53:51Z</time>
      </trkpt>
      <trkpt lat="40.9788740" lon="-8.5296890">
        <ele>204.8</ele>
        <time>2019-08-15T09:53:52Z</time>
      </trkpt>
      <trkpt lat="40.9788980" lon="-8.5297200">
        <ele>205.3</ele>
        <time>2019-08-15T09:53:53Z</time>
      </trkpt>
      <trkpt lat="40.9789630" lon="-8.5298110">
        <ele>206.6</ele>
        <time>2019-08-15T09:53:56Z</time>
      </trkpt>
      <trkpt lat="40.9789870" lon="-8.5298360">
        <ele>206.9</ele>
        <time>2019-08-15T09:53:57Z</time>
      </trkpt>
      <trkpt lat="40.9790100" lon="-8.5298640">
        <ele>207.2</ele>
        <time>2019-08-15T09:53:58Z</time>
      </trkpt>
      <trkpt lat="40.9790300" lon="-8.5298920">
        <ele>207.5</ele>
        <time>2019-08-15T09:53:59Z</time>
      </trkpt>
      <trkpt lat="40.9790520" lon="-8.5299220">
        <ele>207.8</ele>
        <time>2019-08-15T09:54:00Z</time>
      </trkpt>
      <trkpt lat="40.9791760" lon="-8.5300630">
        <ele>208.7</ele>
        <time>2019-08-15T09:54:05Z</time>
      </trkpt>
      <trkpt lat="40.9792000" lon="-8.5300910">
        <ele>208.9</ele>
        <time>2019-08-15T09:54:06Z</time>
      </trkpt>
      <trkpt lat="40.9792280" lon="-8.5301170">
        <ele>208.9</ele>
        <time>2019-08-15T09:54:07Z</time>
      </trkpt>
      <trkpt lat="40.9792580" lon="-8.5301440">
        <ele>209.0</ele>
        <time>2019-08-15T09:54:08Z</time>
      </trkpt>
      <trkpt lat="40.9792820" lon="-8.5301690">
        <ele>209.1</ele>
        <time>2019-08-15T09:54:09Z</time>
      </trkpt>
      <trkpt lat="40.9793090" lon="-8.5301950">
        <ele>209.1</ele>
        <time>2019-08-15T09:54:10Z</time>
      </trkpt>
      <trkpt lat="40.9793300" lon="-8.5302270">
        <ele>209.2</ele>
        <time>2019-08-15T09:54:11Z</time>
      </trkpt>
      <trkpt lat="40.9793880" lon="-8.5303200">
        <ele>209.7</ele>
        <time>2019-08-15T09:54:14Z</time>
      </trkpt>
      <trkpt lat="40.9795410" lon="-8.5304870">
        <ele>212.3</ele>
        <time>2019-08-15T09:54:20Z</time>
      </trkpt>
      <trkpt lat="40.9795660" lon="-8.5305170">
        <ele>212.6</ele>
        <time>2019-08-15T09:54:21Z</time>
      </trkpt>
      <trkpt lat="40.9795940" lon="-8.5305450">
        <ele>212.9</ele>
        <time>2019-08-15T09:54:22Z</time>
      </trkpt>
      <trkpt lat="40.9796200" lon="-8.5305710">
        <ele>213.1</ele>
        <time>2019-08-15T09:54:23Z</time>
      </trkpt>
      <trkpt lat="40.9796460" lon="-8.5305980">
        <ele>213.3</ele>
        <time>2019-08-15T09:54:24Z</time>
      </trkpt>
      <trkpt lat="40.9798450" lon="-8.5307910">
        <ele>214.8</ele>
        <time>2019-08-15T09:54:32Z</time>
      </trkpt>
      <trkpt lat="40.9798770" lon="-8.5308130">
        <ele>215.1</ele>
        <time>2019-08-15T09:54:33Z</time>
      </trkpt>
      <trkpt lat="40.9799040" lon="-8.5308380">
        <ele>215.2</ele>
        <time>2019-08-15T09:54:34Z</time>
      </trkpt>
      <trkpt lat="40.9799330" lon="-8.5308650">
        <ele>215.5</ele>
        <time>2019-08-15T09:54:35Z</time>
      </trkpt>
      <trkpt lat="40.9799600" lon="-8.5308920">
        <ele>215.7</ele>
        <time>2019-08-15T09:54:36Z</time>
      </trkpt>
      <trkpt lat="40.9801260" lon="-8.5310910">
        <ele>216.8</ele>
        <time>2019-08-15T09:54:43Z</time>
      </trkpt>
      <trkpt lat="40.9802570" lon="-8.5312550">
        <ele>218.8</ele>
        <time>2019-08-15T09:54:49Z</time>
      </trkpt>
      <trkpt lat="40.9802780" lon="-8.5312810">
        <ele>218.9</ele>
        <time>2019-08-15T09:54:50Z</time>
      </trkpt>
      <trkpt lat="40.9802990" lon="-8.5313130">
        <ele>219.1</ele>
        <time>2019-08-15T09:54:51Z</time>
      </trkpt>
      <trkpt lat="40.9803200" lon="-8.5313380">
        <ele>219.3</ele>
        <time>2019-08-15T09:54:52Z</time>
      </trkpt>
      <trkpt lat="40.9803390" lon="-8.5313660">
        <ele>219.4</ele>
        <time>2019-08-15T09:54:53Z</time>
      </trkpt>
      <trkpt lat="40.9804780" lon="-8.5315200">
        <ele>220.4</ele>
        <time>2019-08-15T09:54:59Z</time>
      </trkpt>
      <trkpt lat="40.9805000" lon="-8.5315450">
        <ele>220.5</ele>
        <time>2019-08-15T09:55:00Z</time>
      </trkpt>
      <trkpt lat="40.9805230" lon="-8.5315720">
        <ele>220.7</ele>
        <time>2019-08-15T09:55:01Z</time>
      </trkpt>
      <trkpt lat="40.9805450" lon="-8.5315980">
        <ele>220.8</ele>
        <time>2019-08-15T09:55:02Z</time>
      </trkpt>
      <trkpt lat="40.9805670" lon="-8.5316200">
        <ele>221.0</ele>
        <time>2019-08-15T09:55:03Z</time>
      </trkpt>
      <trkpt lat="40.9806510" lon="-8.5317130">
        <ele>221.5</ele>
        <time>2019-08-15T09:55:07Z</time>
      </trkpt>
      <trkpt lat="40.9806940" lon="-8.5317550">
        <ele>221.7</ele>
        <time>2019-08-15T09:55:09Z</time>
      </trkpt>
      <trkpt lat="40.9807130" lon="-8.5317710">
        <ele>221.8</ele>
        <time>2019-08-15T09:55:10Z</time>
      </trkpt>
      <trkpt lat="40.9807330" lon="-8.5317970">
        <ele>221.9</ele>
        <time>2019-08-15T09:55:11Z</time>
      </trkpt>
      <trkpt lat="40.9807530" lon="-8.5318240">
        <ele>222.0</ele>
        <time>2019-08-15T09:55:12Z</time>
      </trkpt>
      <trkpt lat="40.9807770" lon="-8.5318480">
        <ele>222.2</ele>
        <time>2019-08-15T09:55:13Z</time>
      </trkpt>
      <trkpt lat="40.9808740" lon="-8.5319350">
        <ele>222.6</ele>
        <time>2019-08-15T09:55:17Z</time>
      </trkpt>
      <trkpt lat="40.9809020" lon="-8.5319590">
        <ele>222.8</ele>
        <time>2019-08-15T09:55:18Z</time>
      </trkpt>
      <trkpt lat="40.9809290" lon="-8.5319800">
        <ele>222.9</ele>
        <time>2019-08-15T09:55:19Z</time>
      </trkpt>
      <trkpt lat="40.9809620" lon="-8.5320010">
        <ele>223.1</ele>
        <time>2019-08-15T09:55:20Z</time>
      </trkpt>
      <trkpt lat="40.9809900" lon="-8.5320220">
        <ele>223.3</ele>
        <time>2019-08-15T09:55:21Z</time>
      </trkpt>
      <trkpt lat="40.9811160" lon="-8.5321110">
        <ele>223.9</ele>
        <time>2019-08-15T09:55:26Z</time>
      </trkpt>
      <trkpt lat="40.9811400" lon="-8.5321300">
        <ele>224.0</ele>
        <time>2019-08-15T09:55:27Z</time>
      </trkpt>
      <trkpt lat="40.9811630" lon="-8.5321510">
        <ele>224.1</ele>
        <time>2019-08-15T09:55:28Z</time>
      </trkpt>
      <trkpt lat="40.9811860" lon="-8.5321690">
        <ele>224.2</ele>
        <time>2019-08-15T09:55:29Z</time>
      </trkpt>
      <trkpt lat="40.9812030" lon="-8.5321920">
        <ele>224.2</ele>
        <time>2019-08-15T09:55:30Z</time>
      </trkpt>
      <trkpt lat="40.9814140" lon="-8.5323600">
        <ele>225.6</ele>
        <time>2019-08-15T09:55:39Z</time>
      </trkpt>
      <trkpt lat="40.9814360" lon="-8.5323780">
        <ele>225.7</ele>
        <time>2019-08-15T09:55:40Z</time>
      </trkpt>
      <trkpt lat="40.9814620" lon="-8.5323960">
        <ele>225.8</ele>
        <time>2019-08-15T09:55:41Z</time>
      </trkpt>
      <trkpt lat="40.9814870" lon="-8.5324110">
        <ele>225.9</ele>
        <time>2019-08-15T09:55:42Z</time>
      </trkpt>
      <trkpt lat="40.9815110" lon="-8.5324300">
        <ele>226.0</ele>
        <time>2019-08-15T09:55:43Z</time>
      </trkpt>
      <trkpt lat="40.9815320" lon="-8.5324530">
        <ele>226.2</ele>
        <time>2019-08-15T09:55:44Z</time>
      </trkpt>
      <trkpt lat="40.9815680" lon="-8.5324960">
        <ele>226.4</ele>
        <time>2019-08-15T09:55:46Z</time>
      </trkpt>
      <trkpt lat="40.9816550" lon="-8.5325590">
        <ele>226.8</ele>
        <time>2019-08-15T09:55:50Z</time>
      </trkpt>
      <trkpt lat="40.9816780" lon="-8.5325780">
        <ele>226.9</ele>
        <time>2019-08-15T09:55:51Z</time>
      </trkpt>
      <trkpt lat="40.9817020" lon="-8.5325940">
        <ele>227.0</ele>
        <time>2019-08-15T09:55:52Z</time>
      </trkpt>
      <trkpt lat="40.9817230" lon="-8.5326120">
        <ele>227.1</ele>
        <time>2019-08-15T09:55:53Z</time>
      </trkpt>
      <trkpt lat="40.9817450" lon="-8.5326290">
        <ele>227.2</ele>
        <time>2019-08-15T09:55:54Z</time>
      </trkpt>
      <trkpt lat="40.9818300" lon="-8.5327140">
        <ele>227.5</ele>
        <time>2019-08-15T09:56:00Z</time>
      </trkpt>
      <trkpt lat="40.9818350" lon="-8.5327200">
        <ele>227.5</ele>
        <time>2019-08-15T09:56:01Z</time>
      </trkpt>
      <trkpt lat="40.9818390" lon="-8.5327170">
        <ele>227.5</ele>
        <time>2019-08-15T09:56:11Z</time>
      </trkpt>
      <trkpt lat="40.9818450" lon="-8.5327250">
        <ele>227.6</ele>
        <time>2019-08-15T09:56:12Z</time>
      </trkpt>
      <trkpt lat="40.9818570" lon="-8.5327490">
        <ele>227.6</ele>
        <time>2019-08-15T09:56:13Z</time>
      </trkpt>
      <trkpt lat="40.9819980" lon="-8.5329050">
        <ele>228.0</ele>
        <time>2019-08-15T09:56:20Z</time>
      </trkpt>
      <trkpt lat="40.9820180" lon="-8.5329250">
        <ele>228.0</ele>
        <time>2019-08-15T09:56:21Z</time>
      </trkpt>
      <trkpt lat="40.9820380" lon="-8.5329440">
        <ele>228.0</ele>
        <time>2019-08-15T09:56:22Z</time>
      </trkpt>
      <trkpt lat="40.9820620" lon="-8.5329630">
        <ele>228.1</ele>
        <time>2019-08-15T09:56:23Z</time>
      </trkpt>
      <trkpt lat="40.9820850" lon="-8.5329790">
        <ele>228.1</ele>
        <time>2019-08-15T09:56:24Z</time>
      </trkpt>
      <trkpt lat="40.9821090" lon="-8.5329950">
        <ele>228.2</ele>
        <time>2019-08-15T09:56:25Z</time>
      </trkpt>
      <trkpt lat="40.9821820" lon="-8.5330510">
        <ele>228.3</ele>
        <time>2019-08-15T09:56:28Z</time>
      </trkpt>
      <trkpt lat="40.9823380" lon="-8.5332120">
        <ele>228.6</ele>
        <time>2019-08-15T09:56:35Z</time>
      </trkpt>
      <trkpt lat="40.9825220" lon="-8.5333860">
        <ele>228.9</ele>
        <time>2019-08-15T09:56:43Z</time>
      </trkpt>
      <trkpt lat="40.9826130" lon="-8.5334730">
        <ele>229.1</ele>
        <time>2019-08-15T09:56:49Z</time>
      </trkpt>
      <trkpt lat="40.9826260" lon="-8.5334980">
        <ele>229.1</ele>
        <time>2019-08-15T09:56:50Z</time>
      </trkpt>
      <trkpt lat="40.9826400" lon="-8.5335160">
        <ele>229.2</ele>
        <time>2019-08-15T09:56:51Z</time>
      </trkpt>
      <trkpt lat="40.9826440" lon="-8.5335590">
        <ele>229.2</ele>
        <time>2019-08-15T09:56:52Z</time>
      </trkpt>
      <trkpt lat="40.9826610" lon="-8.5335820">
        <ele>229.2</ele>
        <time>2019-08-15T09:56:53Z</time>
      </trkpt>
      <trkpt lat="40.9827050" lon="-8.5336200">
        <ele>229.2</ele>
        <time>2019-08-15T09:56:55Z</time>
      </trkpt>
      <trkpt lat="40.9828810" lon="-8.5337920">
        <ele>229.5</ele>
        <time>2019-08-15T09:57:02Z</time>
      </trkpt>
      <trkpt lat="40.9829320" lon="-8.5338360">
        <ele>229.5</ele>
        <time>2019-08-15T09:57:04Z</time>
      </trkpt>
      <trkpt lat="40.9830960" lon="-8.5340180">
        <ele>229.9</ele>
        <time>2019-08-15T09:57:11Z</time>
      </trkpt>
      <trkpt lat="40.9833930" lon="-8.5341800">
        <ele>229.3</ele>
        <time>2019-08-15T09:57:20Z</time>
      </trkpt>
      <trkpt lat="40.9836770" lon="-8.5343680">
        <ele>228.6</ele>
        <time>2019-08-15T09:57:28Z</time>
      </trkpt>
      <trkpt lat="40.9840060" lon="-8.5345970">
        <ele>227.2</ele>
        <time>2019-08-15T09:57:36Z</time>
      </trkpt>
      <trkpt lat="40.9842250" lon="-8.5347400">
        <ele>226.0</ele>
        <time>2019-08-15T09:57:41Z</time>
      </trkpt>
      <trkpt lat="40.9843080" lon="-8.5347510">
        <ele>225.8</ele>
        <time>2019-08-15T09:57:43Z</time>
      </trkpt>
      <trkpt lat="40.9843490" lon="-8.5347570">
        <ele>225.8</ele>
        <time>2019-08-15T09:57:44Z</time>
      </trkpt>
      <trkpt lat="40.9843880" lon="-8.5347670">
        <ele>225.8</ele>
        <time>2019-08-15T09:57:45Z</time>
      </trkpt>
      <trkpt lat="40.9844280" lon="-8.5347780">
        <ele>225.7</ele>
        <time>2019-08-15T09:57:46Z</time>
      </trkpt>
      <trkpt lat="40.9844640" lon="-8.5347920">
        <ele>225.7</ele>
        <time>2019-08-15T09:57:47Z</time>
      </trkpt>
      <trkpt lat="40.9845020" lon="-8.5348030">
        <ele>225.7</ele>
        <time>2019-08-15T09:57:48Z</time>
      </trkpt>
      <trkpt lat="40.9846230" lon="-8.5348230">
        <ele>225.5</ele>
        <time>2019-08-15T09:57:51Z</time>
      </trkpt>
      <trkpt lat="40.9850240" lon="-8.5349380">
        <ele>225.0</ele>
        <time>2019-08-15T09:58:01Z</time>
      </trkpt>
      <trkpt lat="40.9854100" lon="-8.5351790">
        <ele>224.5</ele>
        <time>2019-08-15T09:58:10Z</time>
      </trkpt>
      <trkpt lat="40.9854970" lon="-8.5352170">
        <ele>224.1</ele>
        <time>2019-08-15T09:58:12Z</time>
      </trkpt>
      <trkpt lat="40.9855430" lon="-8.5352340">
        <ele>223.7</ele>
        <time>2019-08-15T09:58:13Z</time>
      </trkpt>
      <trkpt lat="40.9855890" lon="-8.5352510">
        <ele>223.4</ele>
        <time>2019-08-15T09:58:14Z</time>
      </trkpt>
      <trkpt lat="40.9856370" lon="-8.5352670">
        <ele>223.1</ele>
        <time>2019-08-15T09:58:15Z</time>
      </trkpt>
      <trkpt lat="40.9856870" lon="-8.5352810">
        <ele>222.8</ele>
        <time>2019-08-15T09:58:16Z</time>
      </trkpt>
      <trkpt lat="40.9859480" lon="-8.5353640">
        <ele>222.1</ele>
        <time>2019-08-15T09:58:21Z</time>
      </trkpt>
      <trkpt lat="40.9861130" lon="-8.5354110">
        <ele>221.2</ele>
        <time>2019-08-15T09:58:24Z</time>
      </trkpt>
      <trkpt lat="40.9861640" lon="-8.5354320">
        <ele>220.6</ele>
        <time>2019-08-15T09:58:25Z</time>
      </trkpt>
      <trkpt lat="40.9862100" lon="-8.5354620">
        <ele>220.4</ele>
        <time>2019-08-15T09:58:26Z</time>
      </trkpt>
      <trkpt lat="40.9862610" lon="-8.5354840">
        <ele>220.2</ele>
        <time>2019-08-15T09:58:27Z</time>
      </trkpt>
      <trkpt lat="40.9863130" lon="-8.5355040">
        <ele>220.1</ele>
        <time>2019-08-15T09:58:28Z</time>
      </trkpt>
      <trkpt lat="40.9864290" lon="-8.5355380">
        <ele>219.9</ele>
        <time>2019-08-15T09:58:30Z</time>
      </trkpt>
      <trkpt lat="40.9867980" lon="-8.5356440">
        <ele>219.8</ele>
        <time>2019-08-15T09:58:36Z</time>
      </trkpt>
      <trkpt lat="40.9868430" lon="-8.5356690">
        <ele>219.8</ele>
        <time>2019-08-15T09:58:37Z</time>
      </trkpt>
      <trkpt lat="40.9868890" lon="-8.5356820">
        <ele>219.8</ele>
        <time>2019-08-15T09:58:38Z</time>
      </trkpt>
      <trkpt lat="40.9869370" lon="-8.5356950">
        <ele>219.8</ele>
        <time>2019-08-15T09:58:39Z</time>
      </trkpt>
      <trkpt lat="40.9869850" lon="-8.5357130">
        <ele>219.8</ele>
        <time>2019-08-15T09:58:40Z</time>
      </trkpt>
      <trkpt lat="40.9873320" lon="-8.5358420">
        <ele>220.1</ele>
        <time>2019-08-15T09:58:47Z</time>
      </trkpt>
      <trkpt lat="40.9877370" lon="-8.5359890">
        <ele>220.4</ele>
        <time>2019-08-15T09:58:55Z</time>
      </trkpt>
      <trkpt lat="40.9878430" lon="-8.5360180">
        <ele>220.4</ele>
        <time>2019-08-15T09:58:59Z</time>
      </trkpt>
      <trkpt lat="40.9879850" lon="-8.5360720">
        <ele>220.6</ele>
        <time>2019-08-15T09:59:04Z</time>
      </trkpt>
      <trkpt lat="40.9883070" lon="-8.5361600">
        <ele>221.1</ele>
        <time>2019-08-15T09:59:12Z</time>
      </trkpt>
      <trkpt lat="40.9886080" lon="-8.5362350">
        <ele>221.5</ele>
        <time>2019-08-15T09:59:19Z</time>
      </trkpt>
      <trkpt lat="40.9890200" lon="-8.5363270">
        <ele>221.9</ele>
        <time>2019-08-15T09:59:27Z</time>
      </trkpt>
      <trkpt lat="40.9894400" lon="-8.5365150">
        <ele>222.1</ele>
        <time>2019-08-15T09:59:35Z</time>
      </trkpt>
      <trkpt lat="40.9899100" lon="-8.5367150">
        <ele>222.7</ele>
        <time>2019-08-15T09:59:44Z</time>
      </trkpt>
      <trkpt lat="40.9901000" lon="-8.5368130">
        <ele>223.3</ele>
        <time>2019-08-15T09:59:48Z</time>
      </trkpt>
      <trkpt lat="40.9901400" lon="-8.5368390">
        <ele>223.5</ele>
        <time>2019-08-15T09:59:49Z</time>
      </trkpt>
      <trkpt lat="40.9901790" lon="-8.5368670">
        <ele>223.6</ele>
        <time>2019-08-15T09:59:50Z</time>
      </trkpt>
      <trkpt lat="40.9902160" lon="-8.5368960">
        <ele>223.7</ele>
        <time>2019-08-15T09:59:51Z</time>
      </trkpt>
      <trkpt lat="40.9902550" lon="-8.5369260">
        <ele>223.9</ele>
        <time>2019-08-15T09:59:52Z</time>
      </trkpt>
      <trkpt lat="40.9905560" lon="-8.5370910">
        <ele>224.1</ele>
        <time>2019-08-15T09:59:59Z</time>
      </trkpt>
      <trkpt lat="40.9909440" lon="-8.5372530">
        <ele>224.8</ele>
        <time>2019-08-15T10:00:08Z</time>
      </trkpt>
      <trkpt lat="40.9909880" lon="-8.5372700">
        <ele>224.8</ele>
        <time>2019-08-15T10:00:09Z</time>
      </trkpt>
      <trkpt lat="40.9910300" lon="-8.5372870">
        <ele>224.9</ele>
        <time>2019-08-15T10:00:10Z</time>
      </trkpt>
      <trkpt lat="40.9910730" lon="-8.5373040">
        <ele>224.9</ele>
        <time>2019-08-15T10:00:11Z</time>
      </trkpt>
      <trkpt lat="40.9911120" lon="-8.5373240">
        <ele>224.9</ele>
        <time>2019-08-15T10:00:12Z</time>
      </trkpt>
      <trkpt lat="40.9914150" lon="-8.5374370">
        <ele>225.4</ele>
        <time>2019-08-15T10:00:19Z</time>
      </trkpt>
      <trkpt lat="40.9917970" lon="-8.5376080">
        <ele>227.4</ele>
        <time>2019-08-15T10:00:28Z</time>
      </trkpt>
      <trkpt lat="40.9920690" lon="-8.5377090">
        <ele>229.0</ele>
        <time>2019-08-15T10:00:34Z</time>
      </trkpt>
      <trkpt lat="40.9921130" lon="-8.5377260">
        <ele>229.2</ele>
        <time>2019-08-15T10:00:35Z</time>
      </trkpt>
      <trkpt lat="40.9921570" lon="-8.5377410">
        <ele>229.4</ele>
        <time>2019-08-15T10:00:36Z</time>
      </trkpt>
      <trkpt lat="40.9922010" lon="-8.5377580">
        <ele>229.7</ele>
        <time>2019-08-15T10:00:37Z</time>
      </trkpt>
      <trkpt lat="40.9922440" lon="-8.5377720">
        <ele>229.9</ele>
        <time>2019-08-15T10:00:38Z</time>
      </trkpt>
      <trkpt lat="40.9925080" lon="-8.5378470">
        <ele>230.7</ele>
        <time>2019-08-15T10:00:44Z</time>
      </trkpt>
      <trkpt lat="40.9928590" lon="-8.5379850">
        <ele>231.3</ele>
        <time>2019-08-15T10:00:52Z</time>
      </trkpt>
      <trkpt lat="40.9932550" lon="-8.5381770">
        <ele>231.7</ele>
        <time>2019-08-15T10:01:01Z</time>
      </trkpt>
      <trkpt lat="40.9932900" lon="-8.5381980">
        <ele>231.7</ele>
        <time>2019-08-15T10:01:02Z</time>
      </trkpt>
      <trkpt lat="40.9933330" lon="-8.5382190">
        <ele>231.7</ele>
        <time>2019-08-15T10:01:03Z</time>
      </trkpt>
      <trkpt lat="40.9933730" lon="-8.5382450">
        <ele>231.7</ele>
        <time>2019-08-15T10:01:04Z</time>
      </trkpt>
      <trkpt lat="40.9934150" lon="-8.5382740">
        <ele>231.7</ele>
        <time>2019-08-15T10:01:05Z</time>
      </trkpt>
      <trkpt lat="40.9936560" lon="-8.5384020">
        <ele>231.6</ele>
        <time>2019-08-15T10:01:10Z</time>
      </trkpt>
      <trkpt lat="40.9940660" lon="-8.5386100">
        <ele>231.6</ele>
        <time>2019-08-15T10:01:19Z</time>
      </trkpt>
      <trkpt lat="40.9943930" lon="-8.5387930">
        <ele>231.6</ele>
        <time>2019-08-15T10:01:27Z</time>
      </trkpt>
      <trkpt lat="40.9946830" lon="-8.5389750">
        <ele>231.6</ele>
        <time>2019-08-15T10:01:35Z</time>
      </trkpt>
      <trkpt lat="40.9949070" lon="-8.5390720">
        <ele>231.6</ele>
        <time>2019-08-15T10:01:41Z</time>
      </trkpt>
      <trkpt lat="40.9950790" lon="-8.5391580">
        <ele>231.6</ele>
        <time>2019-08-15T10:01:47Z</time>
      </trkpt>
      <trkpt lat="40.9951730" lon="-8.5393140">
        <ele>231.6</ele>
        <time>2019-08-15T10:01:54Z</time>
      </trkpt>
      <trkpt lat="40.9952560" lon="-8.5395140">
        <ele>231.3</ele>
        <time>2019-08-15T10:01:59Z</time>
      </trkpt>
      <trkpt lat="40.9953620" lon="-8.5395980">
        <ele>231.1</ele>
        <time>2019-08-15T10:02:02Z</time>
      </trkpt>
      <trkpt lat="40.9954080" lon="-8.5396140">
        <ele>231.0</ele>
        <time>2019-08-15T10:02:03Z</time>
      </trkpt>
      <trkpt lat="40.9957200" lon="-8.5396970">
        <ele>230.7</ele>
        <time>2019-08-15T10:02:09Z</time>
      </trkpt>
      <trkpt lat="40.9959570" lon="-8.5397620">
        <ele>231.0</ele>
        <time>2019-08-15T10:02:14Z</time>
      </trkpt>
      <trkpt lat="40.9960040" lon="-8.5397760">
        <ele>231.1</ele>
        <time>2019-08-15T10:02:15Z</time>
      </trkpt>
      <trkpt lat="40.9960500" lon="-8.5397900">
        <ele>231.2</ele>
        <time>2019-08-15T10:02:16Z</time>
      </trkpt>
      <trkpt lat="40.9960980" lon="-8.5398030">
        <ele>231.2</ele>
        <time>2019-08-15T10:02:17Z</time>
      </trkpt>
      <trkpt lat="40.9961460" lon="-8.5398170">
        <ele>231.3</ele>
        <time>2019-08-15T10:02:18Z</time>
      </trkpt>
      <trkpt lat="40.9964300" lon="-8.5399040">
        <ele>231.6</ele>
        <time>2019-08-15T10:02:24Z</time>
      </trkpt>
      <trkpt lat="40.9968230" lon="-8.5400230">
        <ele>232.9</ele>
        <time>2019-08-15T10:02:33Z</time>
      </trkpt>
      <trkpt lat="40.9969150" lon="-8.5400490">
        <ele>233.2</ele>
        <time>2019-08-15T10:02:35Z</time>
      </trkpt>
      <trkpt lat="40.9969620" lon="-8.5400630">
        <ele>233.4</ele>
        <time>2019-08-15T10:02:36Z</time>
      </trkpt>
      <trkpt lat="40.9970060" lon="-8.5400810">
        <ele>233.6</ele>
        <time>2019-08-15T10:02:37Z</time>
      </trkpt>
      <trkpt lat="40.9970500" lon="-8.5401020">
        <ele>233.8</ele>
        <time>2019-08-15T10:02:38Z</time>
      </trkpt>
      <trkpt lat="40.9970930" lon="-8.5401220">
        <ele>233.9</ele>
        <time>2019-08-15T10:02:39Z</time>
      </trkpt>
      <trkpt lat="40.9972130" lon="-8.5401840">
        <ele>234.1</ele>
        <time>2019-08-15T10:02:42Z</time>
      </trkpt>
      <trkpt lat="40.9975630" lon="-8.5403720">
        <ele>234.9</ele>
        <time>2019-08-15T10:02:50Z</time>
      </trkpt>
      <trkpt lat="40.9978830" lon="-8.5405370">
        <ele>236.2</ele>
        <time>2019-08-15T10:02:57Z</time>
      </trkpt>
      <trkpt lat="40.9980160" lon="-8.5406100">
        <ele>236.9</ele>
        <time>2019-08-15T10:03:00Z</time>
      </trkpt>
      <trkpt lat="40.9980610" lon="-8.5406340">
        <ele>237.1</ele>
        <time>2019-08-15T10:03:01Z</time>
      </trkpt>
      <trkpt lat="40.9981090" lon="-8.5406550">
        <ele>237.4</ele>
        <time>2019-08-15T10:03:02Z</time>
      </trkpt>
      <trkpt lat="40.9981510" lon="-8.5406750">
        <ele>237.5</ele>
        <time>2019-08-15T10:03:03Z</time>
      </trkpt>
      <trkpt lat="40.9981910" lon="-8.5406960">
        <ele>237.7</ele>
        <time>2019-08-15T10:03:04Z</time>
      </trkpt>
      <trkpt lat="40.9984070" lon="-8.5408070">
        <ele>238.1</ele>
        <time>2019-08-15T10:03:09Z</time>
      </trkpt>
      <trkpt lat="40.9987330" lon="-8.5409660">
        <ele>238.1</ele>
        <time>2019-08-15T10:03:16Z</time>
      </trkpt>
      <trkpt lat="40.9987750" lon="-8.5409900">
        <ele>238.1</ele>
        <time>2019-08-15T10:03:17Z</time>
      </trkpt>
      <trkpt lat="40.9988160" lon="-8.5410170">
        <ele>238.1</ele>
        <time>2019-08-15T10:03:18Z</time>
      </trkpt>
      <trkpt lat="40.9988610" lon="-8.5410430">
        <ele>238.1</ele>
        <time>2019-08-15T10:03:19Z</time>
      </trkpt>
      <trkpt lat="40.9989060" lon="-8.5410660">
        <ele>238.2</ele>
        <time>2019-08-15T10:03:20Z</time>
      </trkpt>
      <trkpt lat="40.9989550" lon="-8.5410890">
        <ele>238.2</ele>
        <time>2019-08-15T10:03:21Z</time>
      </trkpt>
      <trkpt lat="40.9990390" lon="-8.5411390">
        <ele>238.4</ele>
        <time>2019-08-15T10:03:23Z</time>
      </trkpt>
      <trkpt lat="40.9993880" lon="-8.5413100">
        <ele>239.9</ele>
        <time>2019-08-15T10:03:30Z</time>
      </trkpt>
      <trkpt lat="40.9998980" lon="-8.5415840">
        <ele>240.6</ele>
        <time>2019-08-15T10:03:41Z</time>
      </trkpt>
      <trkpt lat="40.9999480" lon="-8.5416090">
        <ele>240.6</ele>
        <time>2019-08-15T10:03:42Z</time>
      </trkpt>
      <trkpt lat="41.0003200" lon="-8.5418130">
        <ele>240.4</ele>
        <time>2019-08-15T10:03:50Z</time>
      </trkpt>
      <trkpt lat="41.0007430" lon="-8.5420300">
        <ele>240.4</ele>
        <time>2019-08-15T10:03:59Z</time>
      </trkpt>
      <trkpt lat="41.0009990" lon="-8.5421560">
        <ele>240.5</ele>
        <time>2019-08-15T10:04:05Z</time>
      </trkpt>
      <trkpt lat="41.0012400" lon="-8.5423160">
        <ele>240.7</ele>
        <time>2019-08-15T10:04:11Z</time>
      </trkpt>
      <trkpt lat="41.0013480" lon="-8.5424210">
        <ele>240.8</ele>
        <time>2019-08-15T10:04:14Z</time>
      </trkpt>
      <trkpt lat="41.0013870" lon="-8.5424600">
        <ele>240.8</ele>
        <time>2019-08-15T10:04:15Z</time>
      </trkpt>
      <trkpt lat="41.0014270" lon="-8.5424960">
        <ele>240.8</ele>
        <time>2019-08-15T10:04:16Z</time>
      </trkpt>
      <trkpt lat="41.0014640" lon="-8.5425360">
        <ele>240.8</ele>
        <time>2019-08-15T10:04:17Z</time>
      </trkpt>
      <trkpt lat="41.0014970" lon="-8.5425790">
        <ele>240.8</ele>
        <time>2019-08-15T10:04:18Z</time>
      </trkpt>
      <trkpt lat="41.0015310" lon="-8.5426200">
        <ele>240.7</ele>
        <time>2019-08-15T10:04:19Z</time>
      </trkpt>
      <trkpt lat="41.0017040" lon="-8.5428750">
        <ele>240.7</ele>
        <time>2019-08-15T10:04:25Z</time>
      </trkpt>
      <trkpt lat="41.0019260" lon="-8.5432570">
        <ele>240.2</ele>
        <time>2019-08-15T10:04:34Z</time>
      </trkpt>
      <trkpt lat="41.0021710" lon="-8.5437220">
        <ele>239.3</ele>
        <time>2019-08-15T10:04:42Z</time>
      </trkpt>
      <trkpt lat="41.0023000" lon="-8.5439630">
        <ele>239.1</ele>
        <time>2019-08-15T10:04:46Z</time>
      </trkpt>
      <trkpt lat="41.0023300" lon="-8.5440230">
        <ele>239.1</ele>
        <time>2019-08-15T10:04:47Z</time>
      </trkpt>
      <trkpt lat="41.0023620" lon="-8.5440840">
        <ele>239.0</ele>
        <time>2019-08-15T10:04:48Z</time>
      </trkpt>
      <trkpt lat="41.0023990" lon="-8.5441440">
        <ele>238.9</ele>
        <time>2019-08-15T10:04:49Z</time>
      </trkpt>
      <trkpt lat="41.0024360" lon="-8.5442070">
        <ele>238.9</ele>
        <time>2019-08-15T10:04:50Z</time>
      </trkpt>
      <trkpt lat="41.0024700" lon="-8.5442740">
        <ele>238.8</ele>
        <time>2019-08-15T10:04:51Z</time>
      </trkpt>
      <trkpt lat="41.0027010" lon="-8.5447390">
        <ele>238.0</ele>
        <time>2019-08-15T10:04:58Z</time>
      </trkpt>
      <trkpt lat="41.0030450" lon="-8.5453930">
        <ele>236.5</ele>
        <time>2019-08-15T10:05:08Z</time>
      </trkpt>
      <trkpt lat="41.0031740" lon="-8.5457020">
        <ele>236.0</ele>
        <time>2019-08-15T10:05:12Z</time>
      </trkpt>
      <trkpt lat="41.0032090" lon="-8.5457750">
        <ele>235.9</ele>
        <time>2019-08-15T10:05:13Z</time>
      </trkpt>
      <trkpt lat="41.0032450" lon="-8.5458480">
        <ele>235.8</ele>
        <time>2019-08-15T10:05:14Z</time>
      </trkpt>
      <trkpt lat="41.0032840" lon="-8.5459220">
        <ele>235.7</ele>
        <time>2019-08-15T10:05:15Z</time>
      </trkpt>
      <trkpt lat="41.0033220" lon="-8.5459960">
        <ele>235.5</ele>
        <time>2019-08-15T10:05:16Z</time>
      </trkpt>
      <trkpt lat="41.0036510" lon="-8.5466200">
        <ele>233.3</ele>
        <time>2019-08-15T10:05:24Z</time>
      </trkpt>
      <trkpt lat="41.0037440" lon="-8.5467820">
        <ele>233.0</ele>
        <time>2019-08-15T10:05:26Z</time>
      </trkpt>
      <trkpt lat="41.0037950" lon="-8.5468640">
        <ele>232.8</ele>
        <time>2019-08-15T10:05:27Z</time>
      </trkpt>
      <trkpt lat="41.0038460" lon="-8.5469420">
        <ele>232.7</ele>
        <time>2019-08-15T10:05:28Z</time>
      </trkpt>
      <trkpt lat="41.0039000" lon="-8.5470200">
        <ele>232.5</ele>
        <time>2019-08-15T10:05:29Z</time>
      </trkpt>
      <trkpt lat="41.0039540" lon="-8.5471000">
        <ele>232.2</ele>
        <time>2019-08-15T10:05:30Z</time>
      </trkpt>
      <trkpt lat="41.0040600" lon="-8.5472660">
        <ele>231.6</ele>
        <time>2019-08-15T10:05:32Z</time>
      </trkpt>
      <trkpt lat="41.0044500" lon="-8.5478240">
        <ele>230.2</ele>
        <time>2019-08-15T10:05:39Z</time>
      </trkpt>
      <trkpt lat="41.0044950" lon="-8.5479020">
        <ele>230.0</ele>
        <time>2019-08-15T10:05:40Z</time>
      </trkpt>
      <trkpt lat="41.0045420" lon="-8.5479780">
        <ele>229.8</ele>
        <time>2019-08-15T10:05:41Z</time>
      </trkpt>
      <trkpt lat="41.0045890" lon="-8.5480570">
        <ele>229.5</ele>
        <time>2019-08-15T10:05:42Z</time>
      </trkpt>
      <trkpt lat="41.0046370" lon="-8.5481370">
        <ele>229.3</ele>
        <time>2019-08-15T10:05:43Z</time>
      </trkpt>
      <trkpt lat="41.0047750" lon="-8.5483570">
        <ele>228.4</ele>
        <time>2019-08-15T10:05:46Z</time>
      </trkpt>
      <trkpt lat="41.0048280" lon="-8.5484270">
        <ele>228.0</ele>
        <time>2019-08-15T10:05:47Z</time>
      </trkpt>
      <trkpt lat="41.0048810" lon="-8.5485010">
        <ele>227.6</ele>
        <time>2019-08-15T10:05:48Z</time>
      </trkpt>
      <trkpt lat="41.0049380" lon="-8.5485770">
        <ele>227.3</ele>
        <time>2019-08-15T10:05:49Z</time>
      </trkpt>
      <trkpt lat="41.0049910" lon="-8.5486540">
        <ele>227.0</ele>
        <time>2019-08-15T10:05:50Z</time>
      </trkpt>
      <trkpt lat="41.0050370" lon="-8.5487420">
        <ele>226.7</ele>
        <time>2019-08-15T10:05:51Z</time>
      </trkpt>
      <trkpt lat="41.0051470" lon="-8.5489050">
        <ele>226.1</ele>
        <time>2019-08-15T10:05:53Z</time>
      </trkpt>
      <trkpt lat="41.0052040" lon="-8.5489840">
        <ele>225.8</ele>
        <time>2019-08-15T10:05:54Z</time>
      </trkpt>
      <trkpt lat="41.0052610" lon="-8.5490570">
        <ele>225.6</ele>
        <time>2019-08-15T10:05:55Z</time>
      </trkpt>
      <trkpt lat="41.0053160" lon="-8.5491340">
        <ele>225.3</ele>
        <time>2019-08-15T10:05:56Z</time>
      </trkpt>
      <trkpt lat="41.0053720" lon="-8.5492120">
        <ele>225.0</ele>
        <time>2019-08-15T10:05:57Z</time>
      </trkpt>
      <trkpt lat="41.0054290" lon="-8.5492840">
        <ele>224.7</ele>
        <time>2019-08-15T10:05:58Z</time>
      </trkpt>
      <trkpt lat="41.0054820" lon="-8.5493620">
        <ele>224.4</ele>
        <time>2019-08-15T10:05:59Z</time>
      </trkpt>
      <trkpt lat="41.0055360" lon="-8.5494400">
        <ele>224.1</ele>
        <time>2019-08-15T10:06:00Z</time>
      </trkpt>
      <trkpt lat="41.0055900" lon="-8.5495150">
        <ele>223.9</ele>
        <time>2019-08-15T10:06:01Z</time>
      </trkpt>
      <trkpt lat="41.0056460" lon="-8.5495890">
        <ele>223.6</ele>
        <time>2019-08-15T10:06:02Z</time>
      </trkpt>
      <trkpt lat="41.0058620" lon="-8.5499290">
        <ele>222.7</ele>
        <time>2019-08-15T10:06:07Z</time>
      </trkpt>
      <trkpt lat="41.0060830" lon="-8.5501740">
        <ele>221.9</ele>
        <time>2019-08-15T10:06:12Z</time>
      </trkpt>
      <trkpt lat="41.0061110" lon="-8.5502570">
        <ele>221.7</ele>
        <time>2019-08-15T10:06:13Z</time>
      </trkpt>
      <trkpt lat="41.0061470" lon="-8.5503210">
        <ele>221.5</ele>
        <time>2019-08-15T10:06:14Z</time>
      </trkpt>
      <trkpt lat="41.0061880" lon="-8.5503820">
        <ele>221.3</ele>
        <time>2019-08-15T10:06:15Z</time>
      </trkpt>
      <trkpt lat="41.0062360" lon="-8.5504360">
        <ele>221.0</ele>
        <time>2019-08-15T10:06:16Z</time>
      </trkpt>
      <trkpt lat="41.0065540" lon="-8.5507920">
        <ele>220.0</ele>
        <time>2019-08-15T10:06:22Z</time>
      </trkpt>
      <trkpt lat="41.0066690" lon="-8.5509140">
        <ele>219.7</ele>
        <time>2019-08-15T10:06:24Z</time>
      </trkpt>
      <trkpt lat="41.0067240" lon="-8.5509780">
        <ele>219.6</ele>
        <time>2019-08-15T10:06:25Z</time>
      </trkpt>
      <trkpt lat="41.0067770" lon="-8.5510450">
        <ele>219.5</ele>
        <time>2019-08-15T10:06:26Z</time>
      </trkpt>
      <trkpt lat="41.0068190" lon="-8.5511200">
        <ele>219.4</ele>
        <time>2019-08-15T10:06:27Z</time>
      </trkpt>
      <trkpt lat="41.0068670" lon="-8.5511910">
        <ele>219.3</ele>
        <time>2019-08-15T10:06:28Z</time>
      </trkpt>
      <trkpt lat="41.0070030" lon="-8.5514160">
        <ele>219.0</ele>
        <time>2019-08-15T10:06:31Z</time>
      </trkpt>
      <trkpt lat="41.0073660" lon="-8.5520140">
        <ele>218.2</ele>
        <time>2019-08-15T10:06:39Z</time>
      </trkpt>
      <trkpt lat="41.0074490" lon="-8.5521570">
        <ele>218.1</ele>
        <time>2019-08-15T10:06:41Z</time>
      </trkpt>
      <trkpt lat="41.0077270" lon="-8.5526400">
        <ele>217.8</ele>
        <time>2019-08-15T10:06:48Z</time>
      </trkpt>
      <trkpt lat="41.0078080" lon="-8.5528610">
        <ele>217.6</ele>
        <time>2019-08-15T10:06:52Z</time>
      </trkpt>
      <trkpt lat="41.0077850" lon="-8.5529170">
        <ele>217.5</ele>
        <time>2019-08-15T10:06:53Z</time>
      </trkpt>
      <trkpt lat="41.0077470" lon="-8.5529680">
        <ele>217.0</ele>
        <time>2019-08-15T10:06:54Z</time>
      </trkpt>
      <trkpt lat="41.0076380" lon="-8.5531170">
        <ele>216.2</ele>
        <time>2019-08-15T10:06:57Z</time>
      </trkpt>
      <trkpt lat="41.0076050" lon="-8.5531710">
        <ele>216.0</ele>
        <time>2019-08-15T10:06:58Z</time>
      </trkpt>
      <trkpt lat="41.0075700" lon="-8.5532290">
        <ele>215.7</ele>
        <time>2019-08-15T10:06:59Z</time>
      </trkpt>
      <trkpt lat="41.0075360" lon="-8.5532860">
        <ele>215.5</ele>
        <time>2019-08-15T10:07:00Z</time>
      </trkpt>
      <trkpt lat="41.0075050" lon="-8.5533390">
        <ele>215.1</ele>
        <time>2019-08-15T10:07:01Z</time>
      </trkpt>
      <trkpt lat="41.0074190" lon="-8.5534930">
        <ele>214.2</ele>
        <time>2019-08-15T10:07:05Z</time>
      </trkpt>
      <trkpt lat="41.0074070" lon="-8.5535000">
        <ele>214.1</ele>
        <time>2019-08-15T10:07:06Z</time>
      </trkpt>
      <trkpt lat="41.0073960" lon="-8.5535050">
        <ele>214.0</ele>
        <time>2019-08-15T10:07:07Z</time>
      </trkpt>
      <trkpt lat="41.0073900" lon="-8.5535130">
        <ele>213.9</ele>
        <time>2019-08-15T10:07:08Z</time>
      </trkpt>
      <trkpt lat="41.0073820" lon="-8.5535210">
        <ele>213.8</ele>
        <time>2019-08-15T10:07:09Z</time>
      </trkpt>
      <trkpt lat="41.0073760" lon="-8.5535300">
        <ele>213.7</ele>
        <time>2019-08-15T10:07:10Z</time>
      </trkpt>
      <trkpt lat="41.0073730" lon="-8.5535360">
        <ele>213.2</ele>
        <time>2019-08-15T10:07:11Z</time>
      </trkpt>
      <trkpt lat="41.0073520" lon="-8.5535900">
        <ele>212.9</ele>
        <time>2019-08-15T10:07:18Z</time>
      </trkpt>
      <trkpt lat="41.0073370" lon="-8.5536120">
        <ele>212.8</ele>
        <time>2019-08-15T10:07:19Z</time>
      </trkpt>
      <trkpt lat="41.0072780" lon="-8.5537200">
        <ele>212.3</ele>
        <time>2019-08-15T10:07:22Z</time>
      </trkpt>
      <trkpt lat="41.0072540" lon="-8.5537660">
        <ele>212.0</ele>
        <time>2019-08-15T10:07:23Z</time>
      </trkpt>
      <trkpt lat="41.0072280" lon="-8.5538130">
        <ele>211.7</ele>
        <time>2019-08-15T10:07:24Z</time>
      </trkpt>
      <trkpt lat="41.0072020" lon="-8.5538630">
        <ele>211.4</ele>
        <time>2019-08-15T10:07:25Z</time>
      </trkpt>
      <trkpt lat="41.0071800" lon="-8.5539130">
        <ele>211.0</ele>
        <time>2019-08-15T10:07:26Z</time>
      </trkpt>
      <trkpt lat="41.0071570" lon="-8.5539580">
        <ele>210.6</ele>
        <time>2019-08-15T10:07:27Z</time>
      </trkpt>
      <trkpt lat="41.0071360" lon="-8.5540110">
        <ele>210.1</ele>
        <time>2019-08-15T10:07:28Z</time>
      </trkpt>
      <trkpt lat="41.0071190" lon="-8.5540660">
        <ele>209.7</ele>
        <time>2019-08-15T10:07:29Z</time>
      </trkpt>
      <trkpt lat="41.0071130" lon="-8.5541260">
        <ele>209.0</ele>
        <time>2019-08-15T10:07:30Z</time>
      </trkpt>
      <trkpt lat="41.0071280" lon="-8.5541850">
        <ele>209.0</ele>
        <time>2019-08-15T10:07:31Z</time>
      </trkpt>
      <trkpt lat="41.0071550" lon="-8.5542280">
        <ele>208.9</ele>
        <time>2019-08-15T10:07:32Z</time>
      </trkpt>
      <trkpt lat="41.0071840" lon="-8.5542700">
        <ele>208.9</ele>
        <time>2019-08-15T10:07:33Z</time>
      </trkpt>
      <trkpt lat="41.0072360" lon="-8.5543490">
        <ele>208.7</ele>
        <time>2019-08-15T10:07:35Z</time>
      </trkpt>
      <trkpt lat="41.0072840" lon="-8.5544480">
        <ele>208.6</ele>
        <time>2019-08-15T10:07:37Z</time>
      </trkpt>
      <trkpt lat="41.0073160" lon="-8.5545620">
        <ele>208.4</ele>
        <time>2019-08-15T10:07:39Z</time>
      </trkpt>
      <trkpt lat="41.0073600" lon="-8.5547690">
        <ele>207.9</ele>
        <time>2019-08-15T10:07:42Z</time>
      </trkpt>
      <trkpt lat="41.0073760" lon="-8.5548540">
        <ele>207.6</ele>
        <time>2019-08-15T10:07:43Z</time>
      </trkpt>
      <trkpt lat="41.0073990" lon="-8.5549420">
        <ele>207.4</ele>
        <time>2019-08-15T10:07:44Z</time>
      </trkpt>
      <trkpt lat="41.0074340" lon="-8.5550340">
        <ele>207.1</ele>
        <time>2019-08-15T10:07:45Z</time>
      </trkpt>
      <trkpt lat="41.0074720" lon="-8.5551350">
        <ele>206.7</ele>
        <time>2019-08-15T10:07:46Z</time>
      </trkpt>
      <trkpt lat="41.0075150" lon="-8.5552340">
        <ele>206.5</ele>
        <time>2019-08-15T10:07:47Z</time>
      </trkpt>
      <trkpt lat="41.0075560" lon="-8.5553400">
        <ele>206.3</ele>
        <time>2019-08-15T10:07:48Z</time>
      </trkpt>
      <trkpt lat="41.0075910" lon="-8.5554470">
        <ele>205.9</ele>
        <time>2019-08-15T10:07:49Z</time>
      </trkpt>
      <trkpt lat="41.0076240" lon="-8.5555540">
        <ele>205.5</ele>
        <time>2019-08-15T10:07:50Z</time>
      </trkpt>
      <trkpt lat="41.0076470" lon="-8.5556640">
        <ele>205.1</ele>
        <time>2019-08-15T10:07:51Z</time>
      </trkpt>
      <trkpt lat="41.0076620" lon="-8.5557640">
        <ele>204.7</ele>
        <time>2019-08-15T10:07:52Z</time>
      </trkpt>
      <trkpt lat="41.0076740" lon="-8.5558530">
        <ele>204.4</ele>
        <time>2019-08-15T10:07:53Z</time>
      </trkpt>
      <trkpt lat="41.0076820" lon="-8.5559350">
        <ele>204.1</ele>
        <time>2019-08-15T10:07:54Z</time>
      </trkpt>
      <trkpt lat="41.0076880" lon="-8.5560070">
        <ele>203.9</ele>
        <time>2019-08-15T10:07:55Z</time>
      </trkpt>
      <trkpt lat="41.0076930" lon="-8.5560710">
        <ele>203.7</ele>
        <time>2019-08-15T10:07:56Z</time>
      </trkpt>
      <trkpt lat="41.0076970" lon="-8.5561430">
        <ele>203.5</ele>
        <time>2019-08-15T10:07:57Z</time>
      </trkpt>
      <trkpt lat="41.0077070" lon="-8.5562190">
        <ele>203.2</ele>
        <time>2019-08-15T10:07:58Z</time>
      </trkpt>
      <trkpt lat="41.0077220" lon="-8.5563040">
        <ele>203.0</ele>
        <time>2019-08-15T10:07:59Z</time>
      </trkpt>
      <trkpt lat="41.0077410" lon="-8.5563950">
        <ele>202.7</ele>
        <time>2019-08-15T10:08:00Z</time>
      </trkpt>
      <trkpt lat="41.0078700" lon="-8.5567420">
        <ele>201.5</ele>
        <time>2019-08-15T10:08:04Z</time>
      </trkpt>
      <trkpt lat="41.0079060" lon="-8.5568290">
        <ele>201.3</ele>
        <time>2019-08-15T10:08:05Z</time>
      </trkpt>
      <trkpt lat="41.0079410" lon="-8.5569210">
        <ele>201.0</ele>
        <time>2019-08-15T10:08:06Z</time>
      </trkpt>
      <trkpt lat="41.0079770" lon="-8.5570100">
        <ele>200.8</ele>
        <time>2019-08-15T10:08:07Z</time>
      </trkpt>
      <trkpt lat="41.0080130" lon="-8.5571030">
        <ele>200.7</ele>
        <time>2019-08-15T10:08:08Z</time>
      </trkpt>
      <trkpt lat="41.0080430" lon="-8.5571900">
        <ele>200.6</ele>
        <time>2019-08-15T10:08:09Z</time>
      </trkpt>
      <trkpt lat="41.0081250" lon="-8.5574340">
        <ele>200.4</ele>
        <time>2019-08-15T10:08:12Z</time>
      </trkpt>
      <trkpt lat="41.0083310" lon="-8.5579940">
        <ele>200.4</ele>
        <time>2019-08-15T10:08:20Z</time>
      </trkpt>
      <trkpt lat="41.0085010" lon="-8.5585050">
        <ele>200.4</ele>
        <time>2019-08-15T10:08:28Z</time>
      </trkpt>
      <trkpt lat="41.0084930" lon="-8.5587310">
        <ele>200.4</ele>
        <time>2019-08-15T10:08:32Z</time>
      </trkpt>
      <trkpt lat="41.0083780" lon="-8.5589300">
        <ele>200.2</ele>
        <time>2019-08-15T10:08:36Z</time>
      </trkpt>
      <trkpt lat="41.0083400" lon="-8.5589760">
        <ele>200.3</ele>
        <time>2019-08-15T10:08:37Z</time>
      </trkpt>
      <trkpt lat="41.0080780" lon="-8.5592840">
        <ele>200.3</ele>
        <time>2019-08-15T10:08:44Z</time>
      </trkpt>
      <trkpt lat="41.0080370" lon="-8.5593110">
        <ele>200.3</ele>
        <time>2019-08-15T10:08:45Z</time>
      </trkpt>
      <trkpt lat="41.0079880" lon="-8.5593330">
        <ele>200.0</ele>
        <time>2019-08-15T10:08:46Z</time>
      </trkpt>
      <trkpt lat="41.0079280" lon="-8.5593530">
        <ele>199.7</ele>
        <time>2019-08-15T10:08:47Z</time>
      </trkpt>
      <trkpt lat="41.0078590" lon="-8.5593720">
        <ele>199.4</ele>
        <time>2019-08-15T10:08:48Z</time>
      </trkpt>
      <trkpt lat="41.0077840" lon="-8.5593930">
        <ele>199.1</ele>
        <time>2019-08-15T10:08:49Z</time>
      </trkpt>
      <trkpt lat="41.0077090" lon="-8.5594300">
        <ele>198.5</ele>
        <time>2019-08-15T10:08:50Z</time>
      </trkpt>
      <trkpt lat="41.0076290" lon="-8.5594820">
        <ele>197.8</ele>
        <time>2019-08-15T10:08:51Z</time>
      </trkpt>
      <trkpt lat="41.0075610" lon="-8.5595410">
        <ele>197.1</ele>
        <time>2019-08-15T10:08:52Z</time>
      </trkpt>
      <trkpt lat="41.0074910" lon="-8.5596110">
        <ele>196.4</ele>
        <time>2019-08-15T10:08:53Z</time>
      </trkpt>
      <trkpt lat="41.0074220" lon="-8.5596850">
        <ele>195.7</ele>
        <time>2019-08-15T10:08:54Z</time>
      </trkpt>
      <trkpt lat="41.0073540" lon="-8.5597510">
        <ele>195.1</ele>
        <time>2019-08-15T10:08:55Z</time>
      </trkpt>
      <trkpt lat="41.0072810" lon="-8.5598110">
        <ele>194.6</ele>
        <time>2019-08-15T10:08:56Z</time>
      </trkpt>
      <trkpt lat="41.0072040" lon="-8.5598650">
        <ele>194.1</ele>
        <time>2019-08-15T10:08:57Z</time>
      </trkpt>
      <trkpt lat="41.0069750" lon="-8.5599960">
        <ele>192.4</ele>
        <time>2019-08-15T10:09:00Z</time>
      </trkpt>
      <trkpt lat="41.0069110" lon="-8.5600250">
        <ele>191.9</ele>
        <time>2019-08-15T10:09:01Z</time>
      </trkpt>
      <trkpt lat="41.0068500" lon="-8.5600460">
        <ele>191.4</ele>
        <time>2019-08-15T10:09:02Z</time>
      </trkpt>
      <trkpt lat="41.0067960" lon="-8.5600720">
        <ele>191.1</ele>
        <time>2019-08-15T10:09:03Z</time>
      </trkpt>
      <trkpt lat="41.0067620" lon="-8.5601140">
        <ele>191.4</ele>
        <time>2019-08-15T10:09:04Z</time>
      </trkpt>
      <trkpt lat="41.0067550" lon="-8.5601670">
        <ele>191.8</ele>
        <time>2019-08-15T10:09:05Z</time>
      </trkpt>
      <trkpt lat="41.0067930" lon="-8.5603200">
        <ele>193.4</ele>
        <time>2019-08-15T10:09:08Z</time>
      </trkpt>
      <trkpt lat="41.0068090" lon="-8.5603710">
        <ele>194.0</ele>
        <time>2019-08-15T10:09:09Z</time>
      </trkpt>
      <trkpt lat="41.0069090" lon="-8.5606830">
        <ele>197.0</ele>
        <time>2019-08-15T10:09:16Z</time>
      </trkpt>
      <trkpt lat="41.0069190" lon="-8.5607260">
        <ele>197.4</ele>
        <time>2019-08-15T10:09:17Z</time>
      </trkpt>
      <trkpt lat="41.0069290" lon="-8.5607680">
        <ele>197.9</ele>
        <time>2019-08-15T10:09:18Z</time>
      </trkpt>
      <trkpt lat="41.0069440" lon="-8.5608080">
        <ele>198.4</ele>
        <time>2019-08-15T10:09:19Z</time>
      </trkpt>
      <trkpt lat="41.0069590" lon="-8.5608470">
        <ele>198.9</ele>
        <time>2019-08-15T10:09:20Z</time>
      </trkpt>
      <trkpt lat="41.0069940" lon="-8.5609600">
        <ele>200.0</ele>
        <time>2019-08-15T10:09:23Z</time>
      </trkpt>
      <trkpt lat="41.0070060" lon="-8.5609920">
        <ele>200.3</ele>
        <time>2019-08-15T10:09:24Z</time>
      </trkpt>
      <trkpt lat="41.0070160" lon="-8.5610210">
        <ele>200.7</ele>
        <time>2019-08-15T10:09:25Z</time>
      </trkpt>
      <trkpt lat="41.0070240" lon="-8.5610500">
        <ele>201.2</ele>
        <time>2019-08-15T10:09:26Z</time>
      </trkpt>
      <trkpt lat="41.0070300" lon="-8.5610730">
        <ele>201.5</ele>
        <time>2019-08-15T10:09:27Z</time>
      </trkpt>
      <trkpt lat="41.0070320" lon="-8.5610870">
        <ele>201.7</ele>
        <time>2019-08-15T10:09:28Z</time>
      </trkpt>
      <trkpt lat="41.0070430" lon="-8.5611550">
        <ele>202.6</ele>
        <time>2019-08-15T10:09:37Z</time>
      </trkpt>
      <trkpt lat="41.0070620" lon="-8.5613980">
        <ele>205.0</ele>
        <time>2019-08-15T10:09:44Z</time>
      </trkpt>
      <trkpt lat="41.0070520" lon="-8.5615970">
        <ele>206.5</ele>
        <time>2019-08-15T10:09:49Z</time>
      </trkpt>
      <trkpt lat="41.0070490" lon="-8.5616330">
        <ele>206.7</ele>
        <time>2019-08-15T10:09:50Z</time>
      </trkpt>
      <trkpt lat="41.0070470" lon="-8.5616700">
        <ele>207.0</ele>
        <time>2019-08-15T10:09:51Z</time>
      </trkpt>
      <trkpt lat="41.0070420" lon="-8.5617100">
        <ele>207.2</ele>
        <time>2019-08-15T10:09:52Z</time>
      </trkpt>
      <trkpt lat="41.0070340" lon="-8.5617490">
        <ele>207.4</ele>
        <time>2019-08-15T10:09:53Z</time>
      </trkpt>
      <trkpt lat="41.0070140" lon="-8.5618990">
        <ele>208.0</ele>
        <time>2019-08-15T10:09:57Z</time>
      </trkpt>
      <trkpt lat="41.0070060" lon="-8.5619380">
        <ele>208.2</ele>
        <time>2019-08-15T10:09:58Z</time>
      </trkpt>
      <trkpt lat="41.0069990" lon="-8.5619760">
        <ele>208.3</ele>
        <time>2019-08-15T10:09:59Z</time>
      </trkpt>
      <trkpt lat="41.0069930" lon="-8.5620120">
        <ele>208.5</ele>
        <time>2019-08-15T10:10:00Z</time>
      </trkpt>
      <trkpt lat="41.0069870" lon="-8.5620460">
        <ele>208.6</ele>
        <time>2019-08-15T10:10:01Z</time>
      </trkpt>
      <trkpt lat="41.0069540" lon="-8.5621700">
        <ele>209.2</ele>
        <time>2019-08-15T10:10:05Z</time>
      </trkpt>
      <trkpt lat="41.0069170" lon="-8.5622690">
        <ele>209.6</ele>
        <time>2019-08-15T10:10:08Z</time>
      </trkpt>
      <trkpt lat="41.0069030" lon="-8.5623010">
        <ele>209.6</ele>
        <time>2019-08-15T10:10:09Z</time>
      </trkpt>
      <trkpt lat="41.0068880" lon="-8.5623320">
        <ele>209.7</ele>
        <time>2019-08-15T10:10:10Z</time>
      </trkpt>
      <trkpt lat="41.0068730" lon="-8.5623590">
        <ele>209.8</ele>
        <time>2019-08-15T10:10:11Z</time>
      </trkpt>
      <trkpt lat="41.0068560" lon="-8.5623890">
        <ele>209.9</ele>
        <time>2019-08-15T10:10:12Z</time>
      </trkpt>
      <trkpt lat="41.0067710" lon="-8.5625730">
        <ele>210.3</ele>
        <time>2019-08-15T10:10:18Z</time>
      </trkpt>
      <trkpt lat="41.0067620" lon="-8.5626020">
        <ele>210.3</ele>
        <time>2019-08-15T10:10:19Z</time>
      </trkpt>
      <trkpt lat="41.0067470" lon="-8.5626610">
        <ele>210.4</ele>
        <time>2019-08-15T10:10:21Z</time>
      </trkpt>
      <trkpt lat="41.0067390" lon="-8.5626960">
        <ele>210.5</ele>
        <time>2019-08-15T10:10:22Z</time>
      </trkpt>
      <trkpt lat="41.0067300" lon="-8.5627280">
        <ele>210.5</ele>
        <time>2019-08-15T10:10:23Z</time>
      </trkpt>
      <trkpt lat="41.0067230" lon="-8.5627660">
        <ele>210.6</ele>
        <time>2019-08-15T10:10:27Z</time>
      </trkpt>
      <trkpt lat="41.0067150" lon="-8.5628030">
        <ele>210.6</ele>
        <time>2019-08-15T10:10:28Z</time>
      </trkpt>
      <trkpt lat="41.0066860" lon="-8.5629530">
        <ele>210.7</ele>
        <time>2019-08-15T10:10:30Z</time>
      </trkpt>
      <trkpt lat="41.0066930" lon="-8.5630400">
        <ele>210.8</ele>
        <time>2019-08-15T10:10:32Z</time>
      </trkpt>
      <trkpt lat="41.0066950" lon="-8.5630810">
        <ele>210.7</ele>
        <time>2019-08-15T10:10:33Z</time>
      </trkpt>
      <trkpt lat="41.0067340" lon="-8.5633050">
        <ele>210.0</ele>
        <time>2019-08-15T10:10:40Z</time>
      </trkpt>
      <trkpt lat="41.0067670" lon="-8.5635680">
        <ele>209.2</ele>
        <time>2019-08-15T10:10:47Z</time>
      </trkpt>
      <trkpt lat="41.0068500" lon="-8.5638740">
        <ele>207.9</ele>
        <time>2019-08-15T10:10:55Z</time>
      </trkpt>
      <trkpt lat="41.0068860" lon="-8.5640060">
        <ele>207.2</ele>
        <time>2019-08-15T10:10:58Z</time>
      </trkpt>
      <trkpt lat="41.0068980" lon="-8.5640510">
        <ele>207.0</ele>
        <time>2019-08-15T10:10:59Z</time>
      </trkpt>
      <trkpt lat="41.0069130" lon="-8.5640980">
        <ele>206.7</ele>
        <time>2019-08-15T10:11:00Z</time>
      </trkpt>
      <trkpt lat="41.0069280" lon="-8.5641460">
        <ele>206.4</ele>
        <time>2019-08-15T10:11:01Z</time>
      </trkpt>
      <trkpt lat="41.0069380" lon="-8.5641980">
        <ele>206.1</ele>
        <time>2019-08-15T10:11:02Z</time>
      </trkpt>
      <trkpt lat="41.0069510" lon="-8.5643140">
        <ele>205.5</ele>
        <time>2019-08-15T10:11:04Z</time>
      </trkpt>
      <trkpt lat="41.0069550" lon="-8.5643750">
        <ele>205.2</ele>
        <time>2019-08-15T10:11:05Z</time>
      </trkpt>
      <trkpt lat="41.0069580" lon="-8.5644380">
        <ele>204.8</ele>
        <time>2019-08-15T10:11:06Z</time>
      </trkpt>
      <trkpt lat="41.0069530" lon="-8.5645060">
        <ele>204.5</ele>
        <time>2019-08-15T10:11:07Z</time>
      </trkpt>
      <trkpt lat="41.0069530" lon="-8.5645710">
        <ele>203.9</ele>
        <time>2019-08-15T10:11:08Z</time>
      </trkpt>
      <trkpt lat="41.0069530" lon="-8.5646230">
        <ele>203.6</ele>
        <time>2019-08-15T10:11:09Z</time>
      </trkpt>
      <trkpt lat="41.0069520" lon="-8.5646730">
        <ele>203.3</ele>
        <time>2019-08-15T10:11:10Z</time>
      </trkpt>
      <trkpt lat="41.0069490" lon="-8.5647180">
        <ele>203.0</ele>
        <time>2019-08-15T10:11:11Z</time>
      </trkpt>
      <trkpt lat="41.0069490" lon="-8.5647580">
        <ele>202.7</ele>
        <time>2019-08-15T10:11:12Z</time>
      </trkpt>
      <trkpt lat="41.0069520" lon="-8.5648030">
        <ele>202.3</ele>
        <time>2019-08-15T10:11:13Z</time>
      </trkpt>
      <trkpt lat="41.0069580" lon="-8.5648520">
        <ele>201.9</ele>
        <time>2019-08-15T10:11:14Z</time>
      </trkpt>
      <trkpt lat="41.0069650" lon="-8.5649000">
        <ele>201.5</ele>
        <time>2019-08-15T10:11:15Z</time>
      </trkpt>
      <trkpt lat="41.0069690" lon="-8.5649550">
        <ele>201.0</ele>
        <time>2019-08-15T10:11:16Z</time>
      </trkpt>
      <trkpt lat="41.0069710" lon="-8.5650100">
        <ele>200.6</ele>
        <time>2019-08-15T10:11:17Z</time>
      </trkpt>
      <trkpt lat="41.0069720" lon="-8.5650680">
        <ele>200.2</ele>
        <time>2019-08-15T10:11:18Z</time>
      </trkpt>
      <trkpt lat="41.0069690" lon="-8.5651250">
        <ele>199.9</ele>
        <time>2019-08-15T10:11:19Z</time>
      </trkpt>
      <trkpt lat="41.0069700" lon="-8.5651820">
        <ele>199.5</ele>
        <time>2019-08-15T10:11:20Z</time>
      </trkpt>
      <trkpt lat="41.0069710" lon="-8.5652400">
        <ele>199.1</ele>
        <time>2019-08-15T10:11:21Z</time>
      </trkpt>
      <trkpt lat="41.0069740" lon="-8.5652980">
        <ele>198.6</ele>
        <time>2019-08-15T10:11:22Z</time>
      </trkpt>
      <trkpt lat="41.0069780" lon="-8.5653580">
        <ele>198.1</ele>
        <time>2019-08-15T10:11:23Z</time>
      </trkpt>
      <trkpt lat="41.0069810" lon="-8.5654210">
        <ele>197.5</ele>
        <time>2019-08-15T10:11:24Z</time>
      </trkpt>
      <trkpt lat="41.0069830" lon="-8.5654820">
        <ele>197.0</ele>
        <time>2019-08-15T10:11:25Z</time>
      </trkpt>
      <trkpt lat="41.0069840" lon="-8.5655440">
        <ele>196.4</ele>
        <time>2019-08-15T10:11:26Z</time>
      </trkpt>
      <trkpt lat="41.0069850" lon="-8.5656050">
        <ele>195.8</ele>
        <time>2019-08-15T10:11:27Z</time>
      </trkpt>
      <trkpt lat="41.0069980" lon="-8.5656620">
        <ele>195.1</ele>
        <time>2019-08-15T10:11:28Z</time>
      </trkpt>
      <trkpt lat="41.0070200" lon="-8.5657090">
        <ele>195.1</ele>
        <time>2019-08-15T10:11:29Z</time>
      </trkpt>
      <trkpt lat="41.0070710" lon="-8.5657220">
        <ele>195.1</ele>
        <time>2019-08-15T10:11:30Z</time>
      </trkpt>
      <trkpt lat="41.0071150" lon="-8.5657260">
        <ele>195.1</ele>
        <time>2019-08-15T10:11:31Z</time>
      </trkpt>
      <trkpt lat="41.0071480" lon="-8.5657130">
        <ele>195.1</ele>
        <time>2019-08-15T10:11:32Z</time>
      </trkpt>
      <trkpt lat="41.0071800" lon="-8.5657080">
        <ele>195.0</ele>
        <time>2019-08-15T10:11:33Z</time>
      </trkpt>
      <trkpt lat="41.0072110" lon="-8.5657190">
        <ele>195.0</ele>
        <time>2019-08-15T10:11:34Z</time>
      </trkpt>
      <trkpt lat="41.0073530" lon="-8.5657780">
        <ele>194.8</ele>
        <time>2019-08-15T10:11:38Z</time>
      </trkpt>
      <trkpt lat="41.0076680" lon="-8.5659260">
        <ele>191.6</ele>
        <time>2019-08-15T10:11:47Z</time>
      </trkpt>
      <trkpt lat="41.0077780" lon="-8.5661380">
        <ele>189.7</ele>
        <time>2019-08-15T10:11:52Z</time>
      </trkpt>
      <trkpt lat="41.0077930" lon="-8.5662120">
        <ele>189.2</ele>
        <time>2019-08-15T10:11:53Z</time>
      </trkpt>
      <trkpt lat="41.0078330" lon="-8.5662610">
        <ele>188.7</ele>
        <time>2019-08-15T10:11:54Z</time>
      </trkpt>
      <trkpt lat="41.0078790" lon="-8.5663090">
        <ele>188.3</ele>
        <time>2019-08-15T10:11:55Z</time>
      </trkpt>
      <trkpt lat="41.0079280" lon="-8.5663470">
        <ele>187.8</ele>
        <time>2019-08-15T10:11:56Z</time>
      </trkpt>
      <trkpt lat="41.0079820" lon="-8.5663840">
        <ele>187.4</ele>
        <time>2019-08-15T10:11:57Z</time>
      </trkpt>
      <trkpt lat="41.0080380" lon="-8.5664190">
        <ele>186.9</ele>
        <time>2019-08-15T10:11:58Z</time>
      </trkpt>
      <trkpt lat="41.0080960" lon="-8.5664570">
        <ele>186.4</ele>
        <time>2019-08-15T10:11:59Z</time>
      </trkpt>
      <trkpt lat="41.0081490" lon="-8.5664980">
        <ele>185.8</ele>
        <time>2019-08-15T10:12:00Z</time>
      </trkpt>
      <trkpt lat="41.0082080" lon="-8.5665380">
        <ele>185.1</ele>
        <time>2019-08-15T10:12:01Z</time>
      </trkpt>
      <trkpt lat="41.0082590" lon="-8.5665780">
        <ele>184.4</ele>
        <time>2019-08-15T10:12:02Z</time>
      </trkpt>
      <trkpt lat="41.0083040" lon="-8.5666260">
        <ele>183.8</ele>
        <time>2019-08-15T10:12:03Z</time>
      </trkpt>
      <trkpt lat="41.0083550" lon="-8.5666770">
        <ele>183.1</ele>
        <time>2019-08-15T10:12:04Z</time>
      </trkpt>
      <trkpt lat="41.0084390" lon="-8.5667880">
        <ele>181.8</ele>
        <time>2019-08-15T10:12:06Z</time>
      </trkpt>
      <trkpt lat="41.0084720" lon="-8.5668610">
        <ele>181.0</ele>
        <time>2019-08-15T10:12:07Z</time>
      </trkpt>
      <trkpt lat="41.0084950" lon="-8.5669420">
        <ele>180.1</ele>
        <time>2019-08-15T10:12:08Z</time>
      </trkpt>
      <trkpt lat="41.0085150" lon="-8.5670260">
        <ele>179.1</ele>
        <time>2019-08-15T10:12:09Z</time>
      </trkpt>
      <trkpt lat="41.0085320" lon="-8.5671030">
        <ele>178.2</ele>
        <time>2019-08-15T10:12:10Z</time>
      </trkpt>
      <trkpt lat="41.0085520" lon="-8.5671780">
        <ele>177.3</ele>
        <time>2019-08-15T10:12:11Z</time>
      </trkpt>
      <trkpt lat="41.0085720" lon="-8.5672440">
        <ele>176.6</ele>
        <time>2019-08-15T10:12:12Z</time>
      </trkpt>
      <trkpt lat="41.0086040" lon="-8.5672920">
        <ele>174.7</ele>
        <time>2019-08-15T10:12:13Z</time>
      </trkpt>
      <trkpt lat="41.0086470" lon="-8.5673070">
        <ele>174.1</ele>
        <time>2019-08-15T10:12:14Z</time>
      </trkpt>
      <trkpt lat="41.0086880" lon="-8.5673130">
        <ele>173.5</ele>
        <time>2019-08-15T10:12:15Z</time>
      </trkpt>
      <trkpt lat="41.0087330" lon="-8.5672960">
        <ele>172.8</ele>
        <time>2019-08-15T10:12:16Z</time>
      </trkpt>
      <trkpt lat="41.0088500" lon="-8.5672650">
        <ele>171.5</ele>
        <time>2019-08-15T10:12:18Z</time>
      </trkpt>
      <trkpt lat="41.0089110" lon="-8.5672750">
        <ele>170.9</ele>
        <time>2019-08-15T10:12:19Z</time>
      </trkpt>
      <trkpt lat="41.0089670" lon="-8.5672820">
        <ele>170.4</ele>
        <time>2019-08-15T10:12:20Z</time>
      </trkpt>
      <trkpt lat="41.0090250" lon="-8.5672910">
        <ele>169.9</ele>
        <time>2019-08-15T10:12:21Z</time>
      </trkpt>
      <trkpt lat="41.0090830" lon="-8.5673030">
        <ele>169.3</ele>
        <time>2019-08-15T10:12:22Z</time>
      </trkpt>
      <trkpt lat="41.0093140" lon="-8.5673300">
        <ele>168.0</ele>
        <time>2019-08-15T10:12:26Z</time>
      </trkpt>
      <trkpt lat="41.0093740" lon="-8.5673340">
        <ele>167.7</ele>
        <time>2019-08-15T10:12:27Z</time>
      </trkpt>
      <trkpt lat="41.0094320" lon="-8.5673380">
        <ele>167.3</ele>
        <time>2019-08-15T10:12:28Z</time>
      </trkpt>
      <trkpt lat="41.0094950" lon="-8.5673440">
        <ele>167.0</ele>
        <time>2019-08-15T10:12:29Z</time>
      </trkpt>
      <trkpt lat="41.0095520" lon="-8.5673530">
        <ele>166.6</ele>
        <time>2019-08-15T10:12:30Z</time>
      </trkpt>
      <trkpt lat="41.0098350" lon="-8.5674320">
        <ele>164.6</ele>
        <time>2019-08-15T10:12:35Z</time>
      </trkpt>
      <trkpt lat="41.0098980" lon="-8.5674390">
        <ele>164.1</ele>
        <time>2019-08-15T10:12:36Z</time>
      </trkpt>
      <trkpt lat="41.0099690" lon="-8.5674450">
        <ele>163.5</ele>
        <time>2019-08-15T10:12:37Z</time>
      </trkpt>
      <trkpt lat="41.0100350" lon="-8.5674500">
        <ele>163.0</ele>
        <time>2019-08-15T10:12:38Z</time>
      </trkpt>
      <trkpt lat="41.0101020" lon="-8.5674560">
        <ele>162.4</ele>
        <time>2019-08-15T10:12:39Z</time>
      </trkpt>
      <trkpt lat="41.0102860" lon="-8.5674880">
        <ele>160.9</ele>
        <time>2019-08-15T10:12:42Z</time>
      </trkpt>
      <trkpt lat="41.0103420" lon="-8.5674970">
        <ele>160.4</ele>
        <time>2019-08-15T10:12:43Z</time>
      </trkpt>
      <trkpt lat="41.0104040" lon="-8.5675050">
        <ele>159.7</ele>
        <time>2019-08-15T10:12:44Z</time>
      </trkpt>
      <trkpt lat="41.0104660" lon="-8.5675160">
        <ele>159.1</ele>
        <time>2019-08-15T10:12:45Z</time>
      </trkpt>
      <trkpt lat="41.0105310" lon="-8.5675250">
        <ele>158.5</ele>
        <time>2019-08-15T10:12:46Z</time>
      </trkpt>
      <trkpt lat="41.0106630" lon="-8.5675480">
        <ele>157.2</ele>
        <time>2019-08-15T10:12:48Z</time>
      </trkpt>
      <trkpt lat="41.0107270" lon="-8.5675590">
        <ele>156.7</ele>
        <time>2019-08-15T10:12:49Z</time>
      </trkpt>
      <trkpt lat="41.0107950" lon="-8.5675670">
        <ele>156.2</ele>
        <time>2019-08-15T10:12:50Z</time>
      </trkpt>
      <trkpt lat="41.0108620" lon="-8.5675750">
        <ele>155.6</ele>
        <time>2019-08-15T10:12:51Z</time>
      </trkpt>
      <trkpt lat="41.0109280" lon="-8.5675810">
        <ele>155.0</ele>
        <time>2019-08-15T10:12:52Z</time>
      </trkpt>
      <trkpt lat="41.0109990" lon="-8.5675820">
        <ele>154.2</ele>
        <time>2019-08-15T10:12:53Z</time>
      </trkpt>
      <trkpt lat="41.0110710" lon="-8.5675790">
        <ele>153.3</ele>
        <time>2019-08-15T10:12:54Z</time>
      </trkpt>
      <trkpt lat="41.0111460" lon="-8.5675780">
        <ele>152.5</ele>
        <time>2019-08-15T10:12:55Z</time>
      </trkpt>
      <trkpt lat="41.0112230" lon="-8.5675790">
        <ele>151.5</ele>
        <time>2019-08-15T10:12:56Z</time>
      </trkpt>
      <trkpt lat="41.0113040" lon="-8.5675770">
        <ele>150.5</ele>
        <time>2019-08-15T10:12:57Z</time>
      </trkpt>
      <trkpt lat="41.0113880" lon="-8.5675710">
        <ele>149.7</ele>
        <time>2019-08-15T10:12:58Z</time>
      </trkpt>
      <trkpt lat="41.0114680" lon="-8.5675540">
        <ele>149.1</ele>
        <time>2019-08-15T10:12:59Z</time>
      </trkpt>
      <trkpt lat="41.0115470" lon="-8.5675300">
        <ele>149.2</ele>
        <time>2019-08-15T10:13:00Z</time>
      </trkpt>
      <trkpt lat="41.0116200" lon="-8.5675010">
        <ele>149.3</ele>
        <time>2019-08-15T10:13:01Z</time>
      </trkpt>
      <trkpt lat="41.0116900" lon="-8.5674670">
        <ele>149.4</ele>
        <time>2019-08-15T10:13:02Z</time>
      </trkpt>
      <trkpt lat="41.0117600" lon="-8.5674280">
        <ele>149.5</ele>
        <time>2019-08-15T10:13:03Z</time>
      </trkpt>
      <trkpt lat="41.0118310" lon="-8.5673890">
        <ele>149.7</ele>
        <time>2019-08-15T10:13:04Z</time>
      </trkpt>
      <trkpt lat="41.0119060" lon="-8.5673740">
        <ele>149.8</ele>
        <time>2019-08-15T10:13:05Z</time>
      </trkpt>
      <trkpt lat="41.0119920" lon="-8.5673890">
        <ele>149.8</ele>
        <time>2019-08-15T10:13:06Z</time>
      </trkpt>
      <trkpt lat="41.0120660" lon="-8.5674380">
        <ele>149.7</ele>
        <time>2019-08-15T10:13:07Z</time>
      </trkpt>
      <trkpt lat="41.0121220" lon="-8.5675070">
        <ele>149.7</ele>
        <time>2019-08-15T10:13:08Z</time>
      </trkpt>
      <trkpt lat="41.0121640" lon="-8.5675790">
        <ele>149.7</ele>
        <time>2019-08-15T10:13:09Z</time>
      </trkpt>
      <trkpt lat="41.0122100" lon="-8.5676430">
        <ele>149.6</ele>
        <time>2019-08-15T10:13:10Z</time>
      </trkpt>
      <trkpt lat="41.0122550" lon="-8.5676980">
        <ele>149.6</ele>
        <time>2019-08-15T10:13:11Z</time>
      </trkpt>
      <trkpt lat="41.0123350" lon="-8.5677780">
        <ele>149.2</ele>
        <time>2019-08-15T10:13:13Z</time>
      </trkpt>
      <trkpt lat="41.0125170" lon="-8.5678280">
        <ele>148.8</ele>
        <time>2019-08-15T10:13:17Z</time>
      </trkpt>
      <trkpt lat="41.0127220" lon="-8.5678390">
        <ele>149.3</ele>
        <time>2019-08-15T10:13:22Z</time>
      </trkpt>
      <trkpt lat="41.0128090" lon="-8.5678530">
        <ele>149.5</ele>
        <time>2019-08-15T10:13:24Z</time>
      </trkpt>
      <trkpt lat="41.0128520" lon="-8.5678570">
        <ele>149.6</ele>
        <time>2019-08-15T10:13:25Z</time>
      </trkpt>
      <trkpt lat="41.0128920" lon="-8.5678610">
        <ele>149.8</ele>
        <time>2019-08-15T10:13:26Z</time>
      </trkpt>
      <trkpt lat="41.0129300" lon="-8.5678680">
        <ele>149.9</ele>
        <time>2019-08-15T10:13:27Z</time>
      </trkpt>
      <trkpt lat="41.0129680" lon="-8.5678730">
        <ele>150.1</ele>
        <time>2019-08-15T10:13:28Z</time>
      </trkpt>
      <trkpt lat="41.0131500" lon="-8.5678760">
        <ele>151.6</ele>
        <time>2019-08-15T10:13:33Z</time>
      </trkpt>
      <trkpt lat="41.0133930" lon="-8.5678870">
        <ele>153.4</ele>
        <time>2019-08-15T10:13:40Z</time>
      </trkpt>
      <trkpt lat="41.0134250" lon="-8.5678920">
        <ele>153.5</ele>
        <time>2019-08-15T10:13:41Z</time>
      </trkpt>
      <trkpt lat="41.0134620" lon="-8.5678920">
        <ele>153.7</ele>
        <time>2019-08-15T10:13:42Z</time>
      </trkpt>
      <trkpt lat="41.0134970" lon="-8.5678920">
        <ele>153.9</ele>
        <time>2019-08-15T10:13:43Z</time>
      </trkpt>
      <trkpt lat="41.0135220" lon="-8.5678970">
        <ele>154.0</ele>
        <time>2019-08-15T10:13:44Z</time>
      </trkpt>
      <trkpt lat="41.0136120" lon="-8.5679050">
        <ele>154.3</ele>
        <time>2019-08-15T10:13:47Z</time>
      </trkpt>
      <trkpt lat="41.0138020" lon="-8.5679300">
        <ele>154.6</ele>
        <time>2019-08-15T10:13:52Z</time>
      </trkpt>
      <trkpt lat="41.0140440" lon="-8.5679590">
        <ele>155.3</ele>
        <time>2019-08-15T10:13:58Z</time>
      </trkpt>
      <trkpt lat="41.0145470" lon="-8.5679970">
        <ele>154.3</ele>
        <time>2019-08-15T10:14:10Z</time>
      </trkpt>
      <trkpt lat="41.0146170" lon="-8.5680030">
        <ele>154.3</ele>
        <time>2019-08-15T10:14:12Z</time>
      </trkpt>
      <trkpt lat="41.0146540" lon="-8.5680080">
        <ele>153.9</ele>
        <time>2019-08-15T10:14:13Z</time>
      </trkpt>
      <trkpt lat="41.0146960" lon="-8.5680160">
        <ele>153.6</ele>
        <time>2019-08-15T10:14:14Z</time>
      </trkpt>
      <trkpt lat="41.0147460" lon="-8.5680200">
        <ele>153.2</ele>
        <time>2019-08-15T10:14:15Z</time>
      </trkpt>
      <trkpt lat="41.0147970" lon="-8.5680240">
        <ele>152.8</ele>
        <time>2019-08-15T10:14:16Z</time>
      </trkpt>
      <trkpt lat="41.0149030" lon="-8.5680270">
        <ele>151.8</ele>
        <time>2019-08-15T10:14:18Z</time>
      </trkpt>
      <trkpt lat="41.0149560" lon="-8.5680330">
        <ele>151.2</ele>
        <time>2019-08-15T10:14:19Z</time>
      </trkpt>
      <trkpt lat="41.0150020" lon="-8.5680370">
        <ele>150.8</ele>
        <time>2019-08-15T10:14:20Z</time>
      </trkpt>
      <trkpt lat="41.0150470" lon="-8.5680400">
        <ele>150.3</ele>
        <time>2019-08-15T10:14:21Z</time>
      </trkpt>
      <trkpt lat="41.0150930" lon="-8.5680440">
        <ele>149.9</ele>
        <time>2019-08-15T10:14:22Z</time>
      </trkpt>
      <trkpt lat="41.0151360" lon="-8.5680490">
        <ele>149.4</ele>
        <time>2019-08-15T10:14:23Z</time>
      </trkpt>
      <trkpt lat="41.0151770" lon="-8.5680500">
        <ele>149.0</ele>
        <time>2019-08-15T10:14:24Z</time>
      </trkpt>
      <trkpt lat="41.0152060" lon="-8.5680480">
        <ele>148.7</ele>
        <time>2019-08-15T10:14:25Z</time>
      </trkpt>
      <trkpt lat="41.0152320" lon="-8.5680490">
        <ele>148.4</ele>
        <time>2019-08-15T10:14:26Z</time>
      </trkpt>
      <trkpt lat="41.0152660" lon="-8.5680580">
        <ele>148.0</ele>
        <time>2019-08-15T10:14:27Z</time>
      </trkpt>
      <trkpt lat="41.0152980" lon="-8.5680770">
        <ele>147.5</ele>
        <time>2019-08-15T10:14:28Z</time>
      </trkpt>
      <trkpt lat="41.0153210" lon="-8.5681110">
        <ele>147.0</ele>
        <time>2019-08-15T10:14:29Z</time>
      </trkpt>
      <trkpt lat="41.0153430" lon="-8.5681600">
        <ele>146.6</ele>
        <time>2019-08-15T10:14:30Z</time>
      </trkpt>
      <trkpt lat="41.0153660" lon="-8.5682130">
        <ele>146.3</ele>
        <time>2019-08-15T10:14:31Z</time>
      </trkpt>
      <trkpt lat="41.0153890" lon="-8.5682740">
        <ele>146.0</ele>
        <time>2019-08-15T10:14:32Z</time>
      </trkpt>
      <trkpt lat="41.0154170" lon="-8.5683340">
        <ele>145.4</ele>
        <time>2019-08-15T10:14:33Z</time>
      </trkpt>
      <trkpt lat="41.0154520" lon="-8.5683980">
        <ele>144.6</ele>
        <time>2019-08-15T10:14:34Z</time>
      </trkpt>
      <trkpt lat="41.0154930" lon="-8.5684690">
        <ele>143.9</ele>
        <time>2019-08-15T10:14:35Z</time>
      </trkpt>
      <trkpt lat="41.0155340" lon="-8.5685450">
        <ele>143.2</ele>
        <time>2019-08-15T10:14:36Z</time>
      </trkpt>
      <trkpt lat="41.0155860" lon="-8.5686150">
        <ele>142.6</ele>
        <time>2019-08-15T10:14:37Z</time>
      </trkpt>
      <trkpt lat="41.0156410" lon="-8.5686910">
        <ele>141.9</ele>
        <time>2019-08-15T10:14:38Z</time>
      </trkpt>
      <trkpt lat="41.0156920" lon="-8.5687700">
        <ele>141.3</ele>
        <time>2019-08-15T10:14:39Z</time>
      </trkpt>
      <trkpt lat="41.0157470" lon="-8.5688570">
        <ele>140.6</ele>
        <time>2019-08-15T10:14:40Z</time>
      </trkpt>
      <trkpt lat="41.0158050" lon="-8.5689500">
        <ele>140.0</ele>
        <time>2019-08-15T10:14:41Z</time>
      </trkpt>
      <trkpt lat="41.0158600" lon="-8.5690360">
        <ele>139.4</ele>
        <time>2019-08-15T10:14:42Z</time>
      </trkpt>
      <trkpt lat="41.0159220" lon="-8.5691210">
        <ele>138.7</ele>
        <time>2019-08-15T10:14:43Z</time>
      </trkpt>
      <trkpt lat="41.0159880" lon="-8.5691970">
        <ele>138.2</ele>
        <time>2019-08-15T10:14:44Z</time>
      </trkpt>
      <trkpt lat="41.0160550" lon="-8.5692640">
        <ele>137.9</ele>
        <time>2019-08-15T10:14:45Z</time>
      </trkpt>
      <trkpt lat="41.0161180" lon="-8.5693210">
        <ele>137.7</ele>
        <time>2019-08-15T10:14:46Z</time>
      </trkpt>
      <trkpt lat="41.0161800" lon="-8.5693800">
        <ele>137.6</ele>
        <time>2019-08-15T10:14:47Z</time>
      </trkpt>
      <trkpt lat="41.0162380" lon="-8.5694360">
        <ele>137.4</ele>
        <time>2019-08-15T10:14:48Z</time>
      </trkpt>
      <trkpt lat="41.0164410" lon="-8.5696860">
        <ele>137.1</ele>
        <time>2019-08-15T10:14:52Z</time>
      </trkpt>
      <trkpt lat="41.0165890" lon="-8.5699840">
        <ele>136.4</ele>
        <time>2019-08-15T10:14:56Z</time>
      </trkpt>
      <trkpt lat="41.0166880" lon="-8.5701710">
        <ele>135.9</ele>
        <time>2019-08-15T10:15:00Z</time>
      </trkpt>
      <trkpt lat="41.0169080" lon="-8.5705310">
        <ele>134.8</ele>
        <time>2019-08-15T10:15:09Z</time>
      </trkpt>
      <trkpt lat="41.0169820" lon="-8.5706570">
        <ele>135.0</ele>
        <time>2019-08-15T10:15:12Z</time>
      </trkpt>
      <trkpt lat="41.0170380" lon="-8.5707300">
        <ele>135.5</ele>
        <time>2019-08-15T10:15:14Z</time>
      </trkpt>
      <trkpt lat="41.0170600" lon="-8.5707690">
        <ele>135.7</ele>
        <time>2019-08-15T10:15:15Z</time>
      </trkpt>
      <trkpt lat="41.0170830" lon="-8.5708100">
        <ele>135.8</ele>
        <time>2019-08-15T10:15:16Z</time>
      </trkpt>
      <trkpt lat="41.0171070" lon="-8.5708450">
        <ele>136.0</ele>
        <time>2019-08-15T10:15:17Z</time>
      </trkpt>
      <trkpt lat="41.0171320" lon="-8.5708780">
        <ele>136.1</ele>
        <time>2019-08-15T10:15:18Z</time>
      </trkpt>
      <trkpt lat="41.0172810" lon="-8.5710690">
        <ele>136.4</ele>
        <time>2019-08-15T10:15:24Z</time>
      </trkpt>
      <trkpt lat="41.0175450" lon="-8.5713150">
        <ele>136.1</ele>
        <time>2019-08-15T10:15:32Z</time>
      </trkpt>
      <trkpt lat="41.0178450" lon="-8.5716740">
        <ele>136.3</ele>
        <time>2019-08-15T10:15:41Z</time>
      </trkpt>
      <trkpt lat="41.0180380" lon="-8.5719450">
        <ele>136.8</ele>
        <time>2019-08-15T10:15:47Z</time>
      </trkpt>
      <trkpt lat="41.0181000" lon="-8.5720400">
        <ele>136.9</ele>
        <time>2019-08-15T10:15:49Z</time>
      </trkpt>
      <trkpt lat="41.0183760" lon="-8.5724960">
        <ele>137.6</ele>
        <time>2019-08-15T10:15:58Z</time>
      </trkpt>
      <trkpt lat="41.0185080" lon="-8.5727490">
        <ele>138.7</ele>
        <time>2019-08-15T10:16:03Z</time>
      </trkpt>
      <trkpt lat="41.0185390" lon="-8.5728730">
        <ele>138.6</ele>
        <time>2019-08-15T10:16:05Z</time>
      </trkpt>
      <trkpt lat="41.0185500" lon="-8.5729960">
        <ele>138.0</ele>
        <time>2019-08-15T10:16:07Z</time>
      </trkpt>
      <trkpt lat="41.0185850" lon="-8.5732550">
        <ele>137.0</ele>
        <time>2019-08-15T10:16:11Z</time>
      </trkpt>
      <trkpt lat="41.0186230" lon="-8.5735360">
        <ele>136.1</ele>
        <time>2019-08-15T10:16:15Z</time>
      </trkpt>
      <trkpt lat="41.0186840" lon="-8.5736750">
        <ele>135.8</ele>
        <time>2019-08-15T10:16:17Z</time>
      </trkpt>
      <trkpt lat="41.0187520" lon="-8.5738040">
        <ele>135.6</ele>
        <time>2019-08-15T10:16:19Z</time>
      </trkpt>
      <trkpt lat="41.0187880" lon="-8.5738610">
        <ele>135.6</ele>
        <time>2019-08-15T10:16:20Z</time>
      </trkpt>
      <trkpt lat="41.0188250" lon="-8.5739200">
        <ele>135.6</ele>
        <time>2019-08-15T10:16:21Z</time>
      </trkpt>
      <trkpt lat="41.0188630" lon="-8.5739770">
        <ele>135.7</ele>
        <time>2019-08-15T10:16:22Z</time>
      </trkpt>
      <trkpt lat="41.0189010" lon="-8.5740300">
        <ele>135.8</ele>
        <time>2019-08-15T10:16:23Z</time>
      </trkpt>
      <trkpt lat="41.0191280" lon="-8.5742940">
        <ele>136.2</ele>
        <time>2019-08-15T10:16:29Z</time>
      </trkpt>
      <trkpt lat="41.0191600" lon="-8.5743460">
        <ele>136.3</ele>
        <time>2019-08-15T10:16:30Z</time>
      </trkpt>
      <trkpt lat="41.0192210" lon="-8.5745190">
        <ele>136.2</ele>
        <time>2019-08-15T10:16:33Z</time>
      </trkpt>
      <trkpt lat="41.0192380" lon="-8.5745750">
        <ele>136.2</ele>
        <time>2019-08-15T10:16:34Z</time>
      </trkpt>
      <trkpt lat="41.0193260" lon="-8.5748970">
        <ele>136.0</ele>
        <time>2019-08-15T10:16:40Z</time>
      </trkpt>
      <trkpt lat="41.0194020" lon="-8.5751250">
        <ele>135.8</ele>
        <time>2019-08-15T10:16:44Z</time>
      </trkpt>
      <trkpt lat="41.0195130" lon="-8.5752530">
        <ele>135.7</ele>
        <time>2019-08-15T10:16:47Z</time>
      </trkpt>
      <trkpt lat="41.0195530" lon="-8.5752900">
        <ele>135.7</ele>
        <time>2019-08-15T10:16:48Z</time>
      </trkpt>
      <trkpt lat="41.0197910" lon="-8.5755290">
        <ele>135.4</ele>
        <time>2019-08-15T10:16:54Z</time>
      </trkpt>
      <trkpt lat="41.0201430" lon="-8.5758900">
        <ele>135.0</ele>
        <time>2019-08-15T10:17:03Z</time>
      </trkpt>
      <trkpt lat="41.0202620" lon="-8.5760240">
        <ele>134.9</ele>
        <time>2019-08-15T10:17:08Z</time>
      </trkpt>
      <trkpt lat="41.0203570" lon="-8.5762110">
        <ele>134.3</ele>
        <time>2019-08-15T10:17:13Z</time>
      </trkpt>
      <trkpt lat="41.0205220" lon="-8.5764490">
        <ele>133.7</ele>
        <time>2019-08-15T10:17:20Z</time>
      </trkpt>
      <trkpt lat="41.0205610" lon="-8.5764920">
        <ele>133.5</ele>
        <time>2019-08-15T10:17:21Z</time>
      </trkpt>
      <trkpt lat="41.0206920" lon="-8.5766030">
        <ele>133.0</ele>
        <time>2019-08-15T10:17:24Z</time>
      </trkpt>
      <trkpt lat="41.0207400" lon="-8.5766280">
        <ele>132.8</ele>
        <time>2019-08-15T10:17:25Z</time>
      </trkpt>
      <trkpt lat="41.0208440" lon="-8.5766650">
        <ele>132.3</ele>
        <time>2019-08-15T10:17:27Z</time>
      </trkpt>
      <trkpt lat="41.0209010" lon="-8.5766720">
        <ele>132.0</ele>
        <time>2019-08-15T10:17:28Z</time>
      </trkpt>
      <trkpt lat="41.0209710" lon="-8.5766830">
        <ele>131.6</ele>
        <time>2019-08-15T10:17:29Z</time>
      </trkpt>
      <trkpt lat="41.0210420" lon="-8.5766920">
        <ele>131.2</ele>
        <time>2019-08-15T10:17:30Z</time>
      </trkpt>
      <trkpt lat="41.0211020" lon="-8.5767060">
        <ele>130.9</ele>
        <time>2019-08-15T10:17:31Z</time>
      </trkpt>
      <trkpt lat="41.0211730" lon="-8.5767170">
        <ele>130.4</ele>
        <time>2019-08-15T10:17:32Z</time>
      </trkpt>
      <trkpt lat="41.0212430" lon="-8.5767360">
        <ele>130.0</ele>
        <time>2019-08-15T10:17:33Z</time>
      </trkpt>
      <trkpt lat="41.0213130" lon="-8.5767560">
        <ele>129.5</ele>
        <time>2019-08-15T10:17:34Z</time>
      </trkpt>
      <trkpt lat="41.0213830" lon="-8.5767840">
        <ele>128.9</ele>
        <time>2019-08-15T10:17:35Z</time>
      </trkpt>
      <trkpt lat="41.0214510" lon="-8.5768110">
        <ele>128.4</ele>
        <time>2019-08-15T10:17:36Z</time>
      </trkpt>
      <trkpt lat="41.0215300" lon="-8.5768380">
        <ele>127.7</ele>
        <time>2019-08-15T10:17:37Z</time>
      </trkpt>
      <trkpt lat="41.0216020" lon="-8.5768680">
        <ele>127.1</ele>
        <time>2019-08-15T10:17:38Z</time>
      </trkpt>
      <trkpt lat="41.0216760" lon="-8.5769030">
        <ele>126.5</ele>
        <time>2019-08-15T10:17:39Z</time>
      </trkpt>
      <trkpt lat="41.0217510" lon="-8.5769350">
        <ele>125.8</ele>
        <time>2019-08-15T10:17:40Z</time>
      </trkpt>
      <trkpt lat="41.0218230" lon="-8.5769700">
        <ele>125.2</ele>
        <time>2019-08-15T10:17:41Z</time>
      </trkpt>
      <trkpt lat="41.0218980" lon="-8.5769880">
        <ele>124.8</ele>
        <time>2019-08-15T10:17:42Z</time>
      </trkpt>
      <trkpt lat="41.0219710" lon="-8.5769950">
        <ele>124.5</ele>
        <time>2019-08-15T10:17:43Z</time>
      </trkpt>
      <trkpt lat="41.0220440" lon="-8.5770000">
        <ele>124.1</ele>
        <time>2019-08-15T10:17:44Z</time>
      </trkpt>
      <trkpt lat="41.0221250" lon="-8.5770030">
        <ele>123.6</ele>
        <time>2019-08-15T10:17:45Z</time>
      </trkpt>
      <trkpt lat="41.0221990" lon="-8.5770140">
        <ele>123.2</ele>
        <time>2019-08-15T10:17:46Z</time>
      </trkpt>
      <trkpt lat="41.0222910" lon="-8.5770210">
        <ele>122.7</ele>
        <time>2019-08-15T10:17:47Z</time>
      </trkpt>
      <trkpt lat="41.0223900" lon="-8.5770180">
        <ele>122.1</ele>
        <time>2019-08-15T10:17:48Z</time>
      </trkpt>
      <trkpt lat="41.0224910" lon="-8.5770250">
        <ele>121.7</ele>
        <time>2019-08-15T10:17:49Z</time>
      </trkpt>
      <trkpt lat="41.0225940" lon="-8.5770290">
        <ele>121.3</ele>
        <time>2019-08-15T10:17:50Z</time>
      </trkpt>
      <trkpt lat="41.0227060" lon="-8.5770290">
        <ele>120.8</ele>
        <time>2019-08-15T10:17:51Z</time>
      </trkpt>
      <trkpt lat="41.0228230" lon="-8.5770330">
        <ele>120.4</ele>
        <time>2019-08-15T10:17:52Z</time>
      </trkpt>
      <trkpt lat="41.0229450" lon="-8.5770400">
        <ele>119.9</ele>
        <time>2019-08-15T10:17:53Z</time>
      </trkpt>
      <trkpt lat="41.0230610" lon="-8.5770430">
        <ele>117.9</ele>
        <time>2019-08-15T10:17:54Z</time>
      </trkpt>
      <trkpt lat="41.0231780" lon="-8.5770460">
        <ele>116.5</ele>
        <time>2019-08-15T10:17:55Z</time>
      </trkpt>
      <trkpt lat="41.0232960" lon="-8.5770500">
        <ele>115.3</ele>
        <time>2019-08-15T10:17:56Z</time>
      </trkpt>
      <trkpt lat="41.0234020" lon="-8.5770720">
        <ele>114.0</ele>
        <time>2019-08-15T10:17:57Z</time>
      </trkpt>
      <trkpt lat="41.0235440" lon="-8.5770590">
        <ele>113.6</ele>
        <time>2019-08-15T10:17:58Z</time>
      </trkpt>
      <trkpt lat="41.0236450" lon="-8.5770600">
        <ele>113.6</ele>
        <time>2019-08-15T10:17:59Z</time>
      </trkpt>
      <trkpt lat="41.0237400" lon="-8.5770650">
        <ele>113.7</ele>
        <time>2019-08-15T10:18:00Z</time>
      </trkpt>
      <trkpt lat="41.0238410" lon="-8.5770620">
        <ele>113.9</ele>
        <time>2019-08-15T10:18:01Z</time>
      </trkpt>
      <trkpt lat="41.0241820" lon="-8.5770590">
        <ele>115.0</ele>
        <time>2019-08-15T10:18:05Z</time>
      </trkpt>
      <trkpt lat="41.0244260" lon="-8.5770570">
        <ele>116.0</ele>
        <time>2019-08-15T10:18:09Z</time>
      </trkpt>
      <trkpt lat="41.0244780" lon="-8.5770590">
        <ele>116.2</ele>
        <time>2019-08-15T10:18:10Z</time>
      </trkpt>
      <trkpt lat="41.0245230" lon="-8.5770550">
        <ele>116.4</ele>
        <time>2019-08-15T10:18:11Z</time>
      </trkpt>
      <trkpt lat="41.0245650" lon="-8.5770510">
        <ele>116.5</ele>
        <time>2019-08-15T10:18:12Z</time>
      </trkpt>
      <trkpt lat="41.0246080" lon="-8.5770480">
        <ele>116.7</ele>
        <time>2019-08-15T10:18:13Z</time>
      </trkpt>
      <trkpt lat="41.0246530" lon="-8.5770500">
        <ele>116.9</ele>
        <time>2019-08-15T10:18:14Z</time>
      </trkpt>
      <trkpt lat="41.0248340" lon="-8.5770590">
        <ele>117.6</ele>
        <time>2019-08-15T10:18:18Z</time>
      </trkpt>
      <trkpt lat="41.0248790" lon="-8.5770660">
        <ele>117.7</ele>
        <time>2019-08-15T10:18:19Z</time>
      </trkpt>
      <trkpt lat="41.0249300" lon="-8.5770750">
        <ele>117.9</ele>
        <time>2019-08-15T10:18:20Z</time>
      </trkpt>
      <trkpt lat="41.0249740" lon="-8.5770870">
        <ele>118.1</ele>
        <time>2019-08-15T10:18:21Z</time>
      </trkpt>
      <trkpt lat="41.0250140" lon="-8.5771050">
        <ele>118.3</ele>
        <time>2019-08-15T10:18:22Z</time>
      </trkpt>
      <trkpt lat="41.0250490" lon="-8.5771280">
        <ele>118.4</ele>
        <time>2019-08-15T10:18:23Z</time>
      </trkpt>
      <trkpt lat="41.0251610" lon="-8.5772060">
        <ele>118.8</ele>
        <time>2019-08-15T10:18:26Z</time>
      </trkpt>
      <trkpt lat="41.0252190" lon="-8.5772800">
        <ele>119.0</ele>
        <time>2019-08-15T10:18:28Z</time>
      </trkpt>
      <trkpt lat="41.0252520" lon="-8.5773130">
        <ele>119.1</ele>
        <time>2019-08-15T10:18:29Z</time>
      </trkpt>
      <trkpt lat="41.0252820" lon="-8.5773480">
        <ele>119.2</ele>
        <time>2019-08-15T10:18:30Z</time>
      </trkpt>
      <trkpt lat="41.0253110" lon="-8.5773840">
        <ele>119.3</ele>
        <time>2019-08-15T10:18:31Z</time>
      </trkpt>
      <trkpt lat="41.0253410" lon="-8.5774200">
        <ele>119.5</ele>
        <time>2019-08-15T10:18:32Z</time>
      </trkpt>
      <trkpt lat="41.0255740" lon="-8.5776450">
        <ele>120.6</ele>
        <time>2019-08-15T10:18:39Z</time>
      </trkpt>
      <trkpt lat="41.0256540" lon="-8.5776920">
        <ele>120.9</ele>
        <time>2019-08-15T10:18:41Z</time>
      </trkpt>
      <trkpt lat="41.0257400" lon="-8.5777200">
        <ele>121.3</ele>
        <time>2019-08-15T10:18:43Z</time>
      </trkpt>
      <trkpt lat="41.0258670" lon="-8.5777290">
        <ele>121.8</ele>
        <time>2019-08-15T10:18:46Z</time>
      </trkpt>
      <trkpt lat="41.0259090" lon="-8.5777310">
        <ele>121.9</ele>
        <time>2019-08-15T10:18:47Z</time>
      </trkpt>
      <trkpt lat="41.0259510" lon="-8.5777220">
        <ele>122.1</ele>
        <time>2019-08-15T10:18:48Z</time>
      </trkpt>
      <trkpt lat="41.0259880" lon="-8.5777060">
        <ele>122.2</ele>
        <time>2019-08-15T10:18:49Z</time>
      </trkpt>
      <trkpt lat="41.0260240" lon="-8.5776830">
        <ele>122.3</ele>
        <time>2019-08-15T10:18:50Z</time>
      </trkpt>
      <trkpt lat="41.0260590" lon="-8.5776570">
        <ele>122.4</ele>
        <time>2019-08-15T10:18:51Z</time>
      </trkpt>
      <trkpt lat="41.0261320" lon="-8.5776620">
        <ele>122.6</ele>
        <time>2019-08-15T10:18:53Z</time>
      </trkpt>
      <trkpt lat="41.0261690" lon="-8.5776890">
        <ele>122.6</ele>
        <time>2019-08-15T10:18:54Z</time>
      </trkpt>
      <trkpt lat="41.0262830" lon="-8.5779530">
        <ele>122.7</ele>
        <time>2019-08-15T10:19:00Z</time>
      </trkpt>
      <trkpt lat="41.0263070" lon="-8.5781150">
        <ele>122.5</ele>
        <time>2019-08-15T10:19:03Z</time>
      </trkpt>
      <trkpt lat="41.0263060" lon="-8.5781720">
        <ele>122.4</ele>
        <time>2019-08-15T10:19:04Z</time>
      </trkpt>
      <trkpt lat="41.0262830" lon="-8.5783500">
        <ele>122.2</ele>
        <time>2019-08-15T10:19:07Z</time>
      </trkpt>
      <trkpt lat="41.0262650" lon="-8.5784110">
        <ele>122.2</ele>
        <time>2019-08-15T10:19:08Z</time>
      </trkpt>
      <trkpt lat="41.0262430" lon="-8.5784710">
        <ele>122.1</ele>
        <time>2019-08-15T10:19:09Z</time>
      </trkpt>
      <trkpt lat="41.0261440" lon="-8.5790390">
        <ele>121.6</ele>
        <time>2019-08-15T10:19:18Z</time>
      </trkpt>
      <trkpt lat="41.0260790" lon="-8.5796790">
        <ele>121.0</ele>
        <time>2019-08-15T10:19:28Z</time>
      </trkpt>
      <trkpt lat="41.0261210" lon="-8.5803030">
        <ele>120.3</ele>
        <time>2019-08-15T10:19:37Z</time>
      </trkpt>
      <trkpt lat="41.0262530" lon="-8.5807880">
        <ele>119.9</ele>
        <time>2019-08-15T10:19:44Z</time>
      </trkpt>
      <trkpt lat="41.0264470" lon="-8.5811030">
        <ele>119.6</ele>
        <time>2019-08-15T10:19:50Z</time>
      </trkpt>
      <trkpt lat="41.0264910" lon="-8.5811390">
        <ele>119.6</ele>
        <time>2019-08-15T10:19:51Z</time>
      </trkpt>
      <trkpt lat="41.0267230" lon="-8.5812820">
        <ele>120.1</ele>
        <time>2019-08-15T10:19:56Z</time>
      </trkpt>
      <trkpt lat="41.0268060" lon="-8.5813170">
        <ele>120.5</ele>
        <time>2019-08-15T10:19:58Z</time>
      </trkpt>
      <trkpt lat="41.0269350" lon="-8.5813520">
        <ele>121.1</ele>
        <time>2019-08-15T10:20:01Z</time>
      </trkpt>
      <trkpt lat="41.0272110" lon="-8.5814000">
        <ele>122.1</ele>
        <time>2019-08-15T10:20:08Z</time>
      </trkpt>
      <trkpt lat="41.0272510" lon="-8.5814010">
        <ele>122.2</ele>
        <time>2019-08-15T10:20:09Z</time>
      </trkpt>
      <trkpt lat="41.0272850" lon="-8.5814050">
        <ele>122.3</ele>
        <time>2019-08-15T10:20:10Z</time>
      </trkpt>
      <trkpt lat="41.0273200" lon="-8.5814130">
        <ele>122.4</ele>
        <time>2019-08-15T10:20:11Z</time>
      </trkpt>
      <trkpt lat="41.0273590" lon="-8.5814210">
        <ele>122.5</ele>
        <time>2019-08-15T10:20:12Z</time>
      </trkpt>
      <trkpt lat="41.0275690" lon="-8.5814510">
        <ele>123.1</ele>
        <time>2019-08-15T10:20:17Z</time>
      </trkpt>
      <trkpt lat="41.0277660" lon="-8.5814740">
        <ele>123.5</ele>
        <time>2019-08-15T10:20:22Z</time>
      </trkpt>
      <trkpt lat="41.0278080" lon="-8.5814730">
        <ele>123.6</ele>
        <time>2019-08-15T10:20:23Z</time>
      </trkpt>
      <trkpt lat="41.0278490" lon="-8.5814750">
        <ele>123.7</ele>
        <time>2019-08-15T10:20:24Z</time>
      </trkpt>
      <trkpt lat="41.0278900" lon="-8.5814770">
        <ele>123.8</ele>
        <time>2019-08-15T10:20:25Z</time>
      </trkpt>
      <trkpt lat="41.0279290" lon="-8.5814830">
        <ele>123.8</ele>
        <time>2019-08-15T10:20:26Z</time>
      </trkpt>
      <trkpt lat="41.0282500" lon="-8.5815050">
        <ele>124.1</ele>
        <time>2019-08-15T10:20:34Z</time>
      </trkpt>
      <trkpt lat="41.0285580" lon="-8.5815530">
        <ele>124.2</ele>
        <time>2019-08-15T10:20:41Z</time>
      </trkpt>
      <trkpt lat="41.0286450" lon="-8.5815690">
        <ele>124.2</ele>
        <time>2019-08-15T10:20:43Z</time>
      </trkpt>
      <trkpt lat="41.0287360" lon="-8.5816820">
        <ele>124.2</ele>
        <time>2019-08-15T10:20:46Z</time>
      </trkpt>
      <trkpt lat="41.0287520" lon="-8.5817090">
        <ele>124.2</ele>
        <time>2019-08-15T10:20:47Z</time>
      </trkpt>
      <trkpt lat="41.0287740" lon="-8.5817320">
        <ele>124.2</ele>
        <time>2019-08-15T10:20:49Z</time>
      </trkpt>
      <trkpt lat="41.0287780" lon="-8.5817240">
        <ele>124.2</ele>
        <time>2019-08-15T10:20:50Z</time>
      </trkpt>
      <trkpt lat="41.0287680" lon="-8.5816900">
        <ele>124.2</ele>
        <time>2019-08-15T10:20:53Z</time>
      </trkpt>
      <trkpt lat="41.0287730" lon="-8.5816680">
        <ele>124.2</ele>
        <time>2019-08-15T10:20:54Z</time>
      </trkpt>
      <trkpt lat="41.0287680" lon="-8.5816440">
        <ele>124.2</ele>
        <time>2019-08-15T10:20:55Z</time>
      </trkpt>
      <trkpt lat="41.0287300" lon="-8.5814860">
        <ele>124.9</ele>
        <time>2019-08-15T10:21:00Z</time>
      </trkpt>
      <trkpt lat="41.0287160" lon="-8.5811960">
        <ele>125.3</ele>
        <time>2019-08-15T10:21:07Z</time>
      </trkpt>
      <trkpt lat="41.0287220" lon="-8.5809070">
        <ele>125.6</ele>
        <time>2019-08-15T10:21:13Z</time>
      </trkpt>
      <trkpt lat="41.0287170" lon="-8.5805180">
        <ele>126.2</ele>
        <time>2019-08-15T10:21:21Z</time>
      </trkpt>
      <trkpt lat="41.0287170" lon="-8.5802980">
        <ele>126.6</ele>
        <time>2019-08-15T10:21:27Z</time>
      </trkpt>
      <trkpt lat="41.0287170" lon="-8.5802990">
        <ele>126.6</ele>
        <time>2019-08-15T10:21:28Z</time>
      </trkpt>
      <trkpt lat="41.0287210" lon="-8.5803040">
        <ele>126.6</ele>
        <time>2019-08-15T10:23:35Z</time>
      </trkpt>
      <trkpt lat="41.0287200" lon="-8.5803500">
        <ele>126.7</ele>
        <time>2019-08-15T10:23:37Z</time>
      </trkpt>
      <trkpt lat="41.0287220" lon="-8.5805390">
        <ele>126.3</ele>
        <time>2019-08-15T10:23:41Z</time>
      </trkpt>
      <trkpt lat="41.0287790" lon="-8.5808630">
        <ele>125.7</ele>
        <time>2019-08-15T10:23:48Z</time>
      </trkpt>
      <trkpt lat="41.0287310" lon="-8.5813390">
        <ele>125.2</ele>
        <time>2019-08-15T10:23:56Z</time>
      </trkpt>
      <trkpt lat="41.0286940" lon="-8.5817070">
        <ele>124.2</ele>
        <time>2019-08-15T10:24:03Z</time>
      </trkpt>
      <trkpt lat="41.0286970" lon="-8.5817620">
        <ele>124.2</ele>
        <time>2019-08-15T10:24:04Z</time>
      </trkpt>
      <trkpt lat="41.0287100" lon="-8.5820200">
        <ele>124.2</ele>
        <time>2019-08-15T10:24:08Z</time>
      </trkpt>
      <trkpt lat="41.0287010" lon="-8.5826750">
        <ele>124.2</ele>
        <time>2019-08-15T10:24:17Z</time>
      </trkpt>
      <trkpt lat="41.0286830" lon="-8.5832200">
        <ele>124.2</ele>
        <time>2019-08-15T10:24:25Z</time>
      </trkpt>
      <trkpt lat="41.0286740" lon="-8.5837010">
        <ele>124.2</ele>
        <time>2019-08-15T10:24:33Z</time>
      </trkpt>
      <trkpt lat="41.0286680" lon="-8.5843080">
        <ele>124.2</ele>
        <time>2019-08-15T10:24:44Z</time>
      </trkpt>
      <trkpt lat="41.0286630" lon="-8.5847670">
        <ele>124.2</ele>
        <time>2019-08-15T10:24:51Z</time>
      </trkpt>
      <trkpt lat="41.0286710" lon="-8.5853200">
        <ele>124.2</ele>
        <time>2019-08-15T10:25:00Z</time>
      </trkpt>
      <trkpt lat="41.0286910" lon="-8.5859950">
        <ele>124.2</ele>
        <time>2019-08-15T10:25:11Z</time>
      </trkpt>
      <trkpt lat="41.0286930" lon="-8.5866190">
        <ele>124.2</ele>
        <time>2019-08-15T10:25:20Z</time>
      </trkpt>
      <trkpt lat="41.0286940" lon="-8.5873800">
        <ele>124.2</ele>
        <time>2019-08-15T10:25:30Z</time>
      </trkpt>
      <trkpt lat="41.0286930" lon="-8.5874600">
        <ele>124.2</ele>
        <time>2019-08-15T10:25:31Z</time>
      </trkpt>
      <trkpt lat="41.0286940" lon="-8.5877730">
        <ele>124.2</ele>
        <time>2019-08-15T10:25:35Z</time>
      </trkpt>
      <trkpt lat="41.0286950" lon="-8.5878520">
        <ele>124.2</ele>
        <time>2019-08-15T10:25:36Z</time>
      </trkpt>
      <trkpt lat="41.0286980" lon="-8.5879250">
        <ele>124.2</ele>
        <time>2019-08-15T10:25:37Z</time>
      </trkpt>
      <trkpt lat="41.0286980" lon="-8.5880000">
        <ele>124.1</ele>
        <time>2019-08-15T10:25:38Z</time>
      </trkpt>
      <trkpt lat="41.0286980" lon="-8.5880760">
        <ele>124.0</ele>
        <time>2019-08-15T10:25:39Z</time>
      </trkpt>
      <trkpt lat="41.0287070" lon="-8.5883880">
        <ele>123.2</ele>
        <time>2019-08-15T10:25:43Z</time>
      </trkpt>
      <trkpt lat="41.0286900" lon="-8.5890020">
        <ele>122.8</ele>
        <time>2019-08-15T10:25:51Z</time>
      </trkpt>
      <trkpt lat="41.0286920" lon="-8.5891430">
        <ele>122.8</ele>
        <time>2019-08-15T10:25:53Z</time>
      </trkpt>
      <trkpt lat="41.0287460" lon="-8.5892550">
        <ele>122.9</ele>
        <time>2019-08-15T10:25:55Z</time>
      </trkpt>
      <trkpt lat="41.0288570" lon="-8.5893700">
        <ele>123.1</ele>
        <time>2019-08-15T10:25:58Z</time>
      </trkpt>
      <trkpt lat="41.0288830" lon="-8.5894140">
        <ele>123.2</ele>
        <time>2019-08-15T10:25:59Z</time>
      </trkpt>
      <trkpt lat="41.0288740" lon="-8.5895360">
        <ele>122.9</ele>
        <time>2019-08-15T10:26:01Z</time>
      </trkpt>
      <trkpt lat="41.0288530" lon="-8.5896050">
        <ele>122.9</ele>
        <time>2019-08-15T10:26:02Z</time>
      </trkpt>
      <trkpt lat="41.0288260" lon="-8.5898660">
        <ele>122.4</ele>
        <time>2019-08-15T10:26:06Z</time>
      </trkpt>
      <trkpt lat="41.0288300" lon="-8.5899340">
        <ele>122.4</ele>
        <time>2019-08-15T10:26:07Z</time>
      </trkpt>
      <trkpt lat="41.0288350" lon="-8.5899990">
        <ele>122.3</ele>
        <time>2019-08-15T10:26:08Z</time>
      </trkpt>
      <trkpt lat="41.0288370" lon="-8.5900640">
        <ele>122.2</ele>
        <time>2019-08-15T10:26:09Z</time>
      </trkpt>
      <trkpt lat="41.0288350" lon="-8.5901270">
        <ele>122.2</ele>
        <time>2019-08-15T10:26:10Z</time>
      </trkpt>
      <trkpt lat="41.0288140" lon="-8.5906330">
        <ele>121.8</ele>
        <time>2019-08-15T10:26:17Z</time>
      </trkpt>
      <trkpt lat="41.0288080" lon="-8.5913250">
        <ele>121.6</ele>
        <time>2019-08-15T10:26:26Z</time>
      </trkpt>
      <trkpt lat="41.0288240" lon="-8.5919360">
        <ele>121.4</ele>
        <time>2019-08-15T10:26:34Z</time>
      </trkpt>
      <trkpt lat="41.0287900" lon="-8.5925300">
        <ele>121.6</ele>
        <time>2019-08-15T10:26:42Z</time>
      </trkpt>
      <trkpt lat="41.0287490" lon="-8.5931180">
        <ele>122.9</ele>
        <time>2019-08-15T10:26:51Z</time>
      </trkpt>
      <trkpt lat="41.0287180" lon="-8.5933780">
        <ele>123.3</ele>
        <time>2019-08-15T10:26:55Z</time>
      </trkpt>
      <trkpt lat="41.0287130" lon="-8.5934400">
        <ele>123.4</ele>
        <time>2019-08-15T10:26:56Z</time>
      </trkpt>
      <trkpt lat="41.0287090" lon="-8.5934980">
        <ele>123.6</ele>
        <time>2019-08-15T10:26:57Z</time>
      </trkpt>
      <trkpt lat="41.0287040" lon="-8.5935620">
        <ele>123.6</ele>
        <time>2019-08-15T10:26:58Z</time>
      </trkpt>
      <trkpt lat="41.0287020" lon="-8.5936220">
        <ele>123.7</ele>
        <time>2019-08-15T10:26:59Z</time>
      </trkpt>
      <trkpt lat="41.0286940" lon="-8.5937530">
        <ele>123.8</ele>
        <time>2019-08-15T10:27:01Z</time>
      </trkpt>
      <trkpt lat="41.0286610" lon="-8.5942100">
        <ele>124.0</ele>
        <time>2019-08-15T10:27:09Z</time>
      </trkpt>
      <trkpt lat="41.0286600" lon="-8.5942420">
        <ele>124.0</ele>
        <time>2019-08-15T10:27:10Z</time>
      </trkpt>
      <trkpt lat="41.0286630" lon="-8.5942610">
        <ele>124.1</ele>
        <time>2019-08-15T10:27:11Z</time>
      </trkpt>
      <trkpt lat="41.0286620" lon="-8.5942700">
        <ele>124.1</ele>
        <time>2019-08-15T10:27:12Z</time>
      </trkpt>
      <trkpt lat="41.0286620" lon="-8.5942660">
        <ele>124.1</ele>
        <time>2019-08-15T10:27:13Z</time>
      </trkpt>
      <trkpt lat="41.0286730" lon="-8.5942630">
        <ele>124.1</ele>
        <time>2019-08-15T10:27:27Z</time>
      </trkpt>
      <trkpt lat="41.0286800" lon="-8.5942550">
        <ele>124.1</ele>
        <time>2019-08-15T10:27:28Z</time>
      </trkpt>
      <trkpt lat="41.0287500" lon="-8.5942990">
        <ele>124.1</ele>
        <time>2019-08-15T10:27:32Z</time>
      </trkpt>
      <trkpt lat="41.0289000" lon="-8.5943650">
        <ele>124.1</ele>
        <time>2019-08-15T10:27:36Z</time>
      </trkpt>
      <trkpt lat="41.0289370" lon="-8.5943940">
        <ele>124.0</ele>
        <time>2019-08-15T10:27:37Z</time>
      </trkpt>
      <trkpt lat="41.0292180" lon="-8.5945600">
        <ele>123.4</ele>
        <time>2019-08-15T10:27:43Z</time>
      </trkpt>
      <trkpt lat="41.0293230" lon="-8.5947440">
        <ele>122.7</ele>
        <time>2019-08-15T10:27:47Z</time>
      </trkpt>
      <trkpt lat="41.0293350" lon="-8.5947960">
        <ele>122.6</ele>
        <time>2019-08-15T10:27:48Z</time>
      </trkpt>
      <trkpt lat="41.0293570" lon="-8.5948890">
        <ele>122.3</ele>
        <time>2019-08-15T10:27:50Z</time>
      </trkpt>
      <trkpt lat="41.0293700" lon="-8.5949400">
        <ele>122.1</ele>
        <time>2019-08-15T10:27:51Z</time>
      </trkpt>
      <trkpt lat="41.0293840" lon="-8.5949910">
        <ele>122.0</ele>
        <time>2019-08-15T10:27:52Z</time>
      </trkpt>
      <trkpt lat="41.0294010" lon="-8.5950470">
        <ele>121.9</ele>
        <time>2019-08-15T10:27:53Z</time>
      </trkpt>
      <trkpt lat="41.0294150" lon="-8.5951030">
        <ele>121.8</ele>
        <time>2019-08-15T10:27:54Z</time>
      </trkpt>
      <trkpt lat="41.0294540" lon="-8.5953300">
        <ele>121.4</ele>
        <time>2019-08-15T10:27:58Z</time>
      </trkpt>
      <trkpt lat="41.0294610" lon="-8.5954480">
        <ele>121.2</ele>
        <time>2019-08-15T10:28:00Z</time>
      </trkpt>
      <trkpt lat="41.0294750" lon="-8.5955760">
        <ele>120.9</ele>
        <time>2019-08-15T10:28:02Z</time>
      </trkpt>
      <trkpt lat="41.0294830" lon="-8.5956520">
        <ele>120.6</ele>
        <time>2019-08-15T10:28:03Z</time>
      </trkpt>
      <trkpt lat="41.0294910" lon="-8.5957180">
        <ele>120.2</ele>
        <time>2019-08-15T10:28:04Z</time>
      </trkpt>
      <trkpt lat="41.0294980" lon="-8.5957890">
        <ele>119.9</ele>
        <time>2019-08-15T10:28:05Z</time>
      </trkpt>
      <trkpt lat="41.0295030" lon="-8.5958480">
        <ele>119.5</ele>
        <time>2019-08-15T10:28:06Z</time>
      </trkpt>
      <trkpt lat="41.0295260" lon="-8.5959580">
        <ele>118.8</ele>
        <time>2019-08-15T10:28:08Z</time>
      </trkpt>
      <trkpt lat="41.0296020" lon="-8.5961080">
        <ele>117.9</ele>
        <time>2019-08-15T10:28:11Z</time>
      </trkpt>
      <trkpt lat="41.0296410" lon="-8.5961660">
        <ele>117.5</ele>
        <time>2019-08-15T10:28:12Z</time>
      </trkpt>
      <trkpt lat="41.0296860" lon="-8.5962300">
        <ele>117.2</ele>
        <time>2019-08-15T10:28:13Z</time>
      </trkpt>
      <trkpt lat="41.0297290" lon="-8.5962960">
        <ele>116.8</ele>
        <time>2019-08-15T10:28:14Z</time>
      </trkpt>
      <trkpt lat="41.0297710" lon="-8.5963670">
        <ele>116.6</ele>
        <time>2019-08-15T10:28:15Z</time>
      </trkpt>
      <trkpt lat="41.0298190" lon="-8.5964430">
        <ele>116.4</ele>
        <time>2019-08-15T10:28:16Z</time>
      </trkpt>
      <trkpt lat="41.0298690" lon="-8.5965120">
        <ele>116.3</ele>
        <time>2019-08-15T10:28:17Z</time>
      </trkpt>
      <trkpt lat="41.0299220" lon="-8.5965770">
        <ele>116.1</ele>
        <time>2019-08-15T10:28:18Z</time>
      </trkpt>
      <trkpt lat="41.0299800" lon="-8.5966310">
        <ele>116.0</ele>
        <time>2019-08-15T10:28:19Z</time>
      </trkpt>
      <trkpt lat="41.0300400" lon="-8.5966680">
        <ele>115.9</ele>
        <time>2019-08-15T10:28:20Z</time>
      </trkpt>
      <trkpt lat="41.0303040" lon="-8.5967500">
        <ele>116.2</ele>
        <time>2019-08-15T10:28:24Z</time>
      </trkpt>
      <trkpt lat="41.0307270" lon="-8.5968870">
        <ele>115.9</ele>
        <time>2019-08-15T10:28:31Z</time>
      </trkpt>
      <trkpt lat="41.0309250" lon="-8.5969750">
        <ele>115.5</ele>
        <time>2019-08-15T10:28:35Z</time>
      </trkpt>
      <trkpt lat="41.0309630" lon="-8.5970140">
        <ele>115.4</ele>
        <time>2019-08-15T10:28:36Z</time>
      </trkpt>
      <trkpt lat="41.0309970" lon="-8.5972030">
        <ele>114.9</ele>
        <time>2019-08-15T10:28:39Z</time>
      </trkpt>
      <trkpt lat="41.0309680" lon="-8.5973480">
        <ele>114.5</ele>
        <time>2019-08-15T10:28:41Z</time>
      </trkpt>
      <trkpt lat="41.0309540" lon="-8.5974870">
        <ele>114.2</ele>
        <time>2019-08-15T10:28:43Z</time>
      </trkpt>
      <trkpt lat="41.0309430" lon="-8.5975610">
        <ele>113.9</ele>
        <time>2019-08-15T10:28:44Z</time>
      </trkpt>
      <trkpt lat="41.0309390" lon="-8.5976370">
        <ele>113.8</ele>
        <time>2019-08-15T10:28:45Z</time>
      </trkpt>
      <trkpt lat="41.0309400" lon="-8.5977090">
        <ele>113.8</ele>
        <time>2019-08-15T10:28:46Z</time>
      </trkpt>
      <trkpt lat="41.0309540" lon="-8.5978690">
        <ele>112.8</ele>
        <time>2019-08-15T10:28:48Z</time>
      </trkpt>
      <trkpt lat="41.0310280" lon="-8.5981180">
        <ele>111.9</ele>
        <time>2019-08-15T10:28:51Z</time>
      </trkpt>
      <trkpt lat="41.0310560" lon="-8.5982050">
        <ele>111.6</ele>
        <time>2019-08-15T10:28:52Z</time>
      </trkpt>
      <trkpt lat="41.0311460" lon="-8.5984520">
        <ele>111.4</ele>
        <time>2019-08-15T10:28:55Z</time>
      </trkpt>
      <trkpt lat="41.0311760" lon="-8.5985320">
        <ele>111.4</ele>
        <time>2019-08-15T10:28:56Z</time>
      </trkpt>
      <trkpt lat="41.0312080" lon="-8.5986080">
        <ele>111.4</ele>
        <time>2019-08-15T10:28:57Z</time>
      </trkpt>
      <trkpt lat="41.0312340" lon="-8.5986950">
        <ele>111.3</ele>
        <time>2019-08-15T10:28:58Z</time>
      </trkpt>
      <trkpt lat="41.0312640" lon="-8.5987820">
        <ele>111.3</ele>
        <time>2019-08-15T10:28:59Z</time>
      </trkpt>
      <trkpt lat="41.0312970" lon="-8.5988640">
        <ele>111.3</ele>
        <time>2019-08-15T10:29:00Z</time>
      </trkpt>
      <trkpt lat="41.0315540" lon="-8.5995020">
        <ele>110.3</ele>
        <time>2019-08-15T10:29:08Z</time>
      </trkpt>
      <trkpt lat="41.0317800" lon="-8.6001190">
        <ele>109.4</ele>
        <time>2019-08-15T10:29:15Z</time>
      </trkpt>
      <trkpt lat="41.0318090" lon="-8.6002070">
        <ele>109.3</ele>
        <time>2019-08-15T10:29:16Z</time>
      </trkpt>
      <trkpt lat="41.0318380" lon="-8.6002950">
        <ele>109.2</ele>
        <time>2019-08-15T10:29:17Z</time>
      </trkpt>
      <trkpt lat="41.0318640" lon="-8.6003770">
        <ele>109.1</ele>
        <time>2019-08-15T10:29:18Z</time>
      </trkpt>
      <trkpt lat="41.0318900" lon="-8.6004580">
        <ele>109.0</ele>
        <time>2019-08-15T10:29:19Z</time>
      </trkpt>
      <trkpt lat="41.0319280" lon="-8.6006340">
        <ele>108.7</ele>
        <time>2019-08-15T10:29:21Z</time>
      </trkpt>
      <trkpt lat="41.0319680" lon="-8.6008070">
        <ele>108.6</ele>
        <time>2019-08-15T10:29:23Z</time>
      </trkpt>
      <trkpt lat="41.0320850" lon="-8.6015130">
        <ele>108.4</ele>
        <time>2019-08-15T10:29:31Z</time>
      </trkpt>
      <trkpt lat="41.0320920" lon="-8.6016090">
        <ele>108.3</ele>
        <time>2019-08-15T10:29:32Z</time>
      </trkpt>
      <trkpt lat="41.0320970" lon="-8.6017070">
        <ele>108.2</ele>
        <time>2019-08-15T10:29:33Z</time>
      </trkpt>
      <trkpt lat="41.0321000" lon="-8.6018050">
        <ele>108.2</ele>
        <time>2019-08-15T10:29:34Z</time>
      </trkpt>
      <trkpt lat="41.0321020" lon="-8.6019030">
        <ele>108.1</ele>
        <time>2019-08-15T10:29:35Z</time>
      </trkpt>
      <trkpt lat="41.0321000" lon="-8.6019980">
        <ele>107.9</ele>
        <time>2019-08-15T10:29:36Z</time>
      </trkpt>
      <trkpt lat="41.0320980" lon="-8.6020910">
        <ele>107.8</ele>
        <time>2019-08-15T10:29:37Z</time>
      </trkpt>
      <trkpt lat="41.0320930" lon="-8.6024850">
        <ele>107.4</ele>
        <time>2019-08-15T10:29:41Z</time>
      </trkpt>
      <trkpt lat="41.0320970" lon="-8.6030670">
        <ele>106.8</ele>
        <time>2019-08-15T10:29:47Z</time>
      </trkpt>
      <trkpt lat="41.0320980" lon="-8.6031680">
        <ele>106.7</ele>
        <time>2019-08-15T10:29:48Z</time>
      </trkpt>
      <trkpt lat="41.0321000" lon="-8.6032650">
        <ele>106.6</ele>
        <time>2019-08-15T10:29:49Z</time>
      </trkpt>
      <trkpt lat="41.0321050" lon="-8.6033550">
        <ele>106.5</ele>
        <time>2019-08-15T10:29:50Z</time>
      </trkpt>
      <trkpt lat="41.0321110" lon="-8.6034580">
        <ele>106.4</ele>
        <time>2019-08-15T10:29:51Z</time>
      </trkpt>
      <trkpt lat="41.0321730" lon="-8.6040390">
        <ele>105.8</ele>
        <time>2019-08-15T10:29:57Z</time>
      </trkpt>
      <trkpt lat="41.0322050" lon="-8.6042250">
        <ele>105.5</ele>
        <time>2019-08-15T10:29:59Z</time>
      </trkpt>
      <trkpt lat="41.0322240" lon="-8.6043140">
        <ele>105.4</ele>
        <time>2019-08-15T10:30:00Z</time>
      </trkpt>
      <trkpt lat="41.0322440" lon="-8.6043980">
        <ele>105.3</ele>
        <time>2019-08-15T10:30:01Z</time>
      </trkpt>
      <trkpt lat="41.0322650" lon="-8.6044910">
        <ele>105.1</ele>
        <time>2019-08-15T10:30:02Z</time>
      </trkpt>
      <trkpt lat="41.0322810" lon="-8.6045780">
        <ele>105.0</ele>
        <time>2019-08-15T10:30:03Z</time>
      </trkpt>
      <trkpt lat="41.0323190" lon="-8.6047670">
        <ele>104.7</ele>
        <time>2019-08-15T10:30:05Z</time>
      </trkpt>
      <trkpt lat="41.0323780" lon="-8.6050250">
        <ele>104.3</ele>
        <time>2019-08-15T10:30:08Z</time>
      </trkpt>
      <trkpt lat="41.0323960" lon="-8.6051150">
        <ele>104.3</ele>
        <time>2019-08-15T10:30:09Z</time>
      </trkpt>
      <trkpt lat="41.0324160" lon="-8.6052100">
        <ele>103.6</ele>
        <time>2019-08-15T10:30:10Z</time>
      </trkpt>
      <trkpt lat="41.0324370" lon="-8.6053030">
        <ele>103.2</ele>
        <time>2019-08-15T10:30:11Z</time>
      </trkpt>
      <trkpt lat="41.0324620" lon="-8.6053990">
        <ele>102.8</ele>
        <time>2019-08-15T10:30:12Z</time>
      </trkpt>
      <trkpt lat="41.0324840" lon="-8.6054890">
        <ele>102.6</ele>
        <time>2019-08-15T10:30:13Z</time>
      </trkpt>
      <trkpt lat="41.0325840" lon="-8.6059710">
        <ele>101.4</ele>
        <time>2019-08-15T10:30:18Z</time>
      </trkpt>
      <trkpt lat="41.0326030" lon="-8.6060670">
        <ele>100.9</ele>
        <time>2019-08-15T10:30:19Z</time>
      </trkpt>
      <trkpt lat="41.0326250" lon="-8.6061650">
        <ele>100.4</ele>
        <time>2019-08-15T10:30:20Z</time>
      </trkpt>
      <trkpt lat="41.0326460" lon="-8.6062660">
        <ele>100.1</ele>
        <time>2019-08-15T10:30:21Z</time>
      </trkpt>
      <trkpt lat="41.0326670" lon="-8.6063670">
        <ele>99.9</ele>
        <time>2019-08-15T10:30:22Z</time>
      </trkpt>
      <trkpt lat="41.0326860" lon="-8.6064690">
        <ele>99.6</ele>
        <time>2019-08-15T10:30:23Z</time>
      </trkpt>
      <trkpt lat="41.0327480" lon="-8.6067840">
        <ele>99.0</ele>
        <time>2019-08-15T10:30:26Z</time>
      </trkpt>
      <trkpt lat="41.0327710" lon="-8.6068890">
        <ele>98.7</ele>
        <time>2019-08-15T10:30:27Z</time>
      </trkpt>
      <trkpt lat="41.0327880" lon="-8.6069880">
        <ele>98.4</ele>
        <time>2019-08-15T10:30:28Z</time>
      </trkpt>
      <trkpt lat="41.0328080" lon="-8.6070910">
        <ele>97.9</ele>
        <time>2019-08-15T10:30:29Z</time>
      </trkpt>
      <trkpt lat="41.0328270" lon="-8.6071940">
        <ele>97.4</ele>
        <time>2019-08-15T10:30:30Z</time>
      </trkpt>
      <trkpt lat="41.0328670" lon="-8.6073980">
        <ele>96.7</ele>
        <time>2019-08-15T10:30:32Z</time>
      </trkpt>
      <trkpt lat="41.0329600" lon="-8.6079110">
        <ele>95.1</ele>
        <time>2019-08-15T10:30:37Z</time>
      </trkpt>
      <trkpt lat="41.0329810" lon="-8.6080120">
        <ele>94.9</ele>
        <time>2019-08-15T10:30:38Z</time>
      </trkpt>
      <trkpt lat="41.0330020" lon="-8.6081170">
        <ele>94.6</ele>
        <time>2019-08-15T10:30:39Z</time>
      </trkpt>
      <trkpt lat="41.0330260" lon="-8.6082190">
        <ele>94.4</ele>
        <time>2019-08-15T10:30:40Z</time>
      </trkpt>
      <trkpt lat="41.0330490" lon="-8.6083200">
        <ele>94.0</ele>
        <time>2019-08-15T10:30:41Z</time>
      </trkpt>
      <trkpt lat="41.0330680" lon="-8.6084250">
        <ele>93.6</ele>
        <time>2019-08-15T10:30:42Z</time>
      </trkpt>
      <trkpt lat="41.0330890" lon="-8.6085230">
        <ele>93.3</ele>
        <time>2019-08-15T10:30:43Z</time>
      </trkpt>
      <trkpt lat="41.0331070" lon="-8.6086270">
        <ele>92.9</ele>
        <time>2019-08-15T10:30:44Z</time>
      </trkpt>
      <trkpt lat="41.0331230" lon="-8.6087290">
        <ele>92.6</ele>
        <time>2019-08-15T10:30:45Z</time>
      </trkpt>
      <trkpt lat="41.0331420" lon="-8.6088330">
        <ele>92.2</ele>
        <time>2019-08-15T10:30:46Z</time>
      </trkpt>
      <trkpt lat="41.0331840" lon="-8.6090390">
        <ele>91.5</ele>
        <time>2019-08-15T10:30:48Z</time>
      </trkpt>
      <trkpt lat="41.0332040" lon="-8.6091380">
        <ele>91.2</ele>
        <time>2019-08-15T10:30:49Z</time>
      </trkpt>
      <trkpt lat="41.0332280" lon="-8.6092470">
        <ele>90.8</ele>
        <time>2019-08-15T10:30:50Z</time>
      </trkpt>
      <trkpt lat="41.0332500" lon="-8.6093490">
        <ele>90.5</ele>
        <time>2019-08-15T10:30:51Z</time>
      </trkpt>
      <trkpt lat="41.0332700" lon="-8.6094550">
        <ele>90.3</ele>
        <time>2019-08-15T10:30:52Z</time>
      </trkpt>
      <trkpt lat="41.0333310" lon="-8.6097770">
        <ele>89.4</ele>
        <time>2019-08-15T10:30:55Z</time>
      </trkpt>
      <trkpt lat="41.0333540" lon="-8.6098880">
        <ele>89.1</ele>
        <time>2019-08-15T10:30:56Z</time>
      </trkpt>
      <trkpt lat="41.0333750" lon="-8.6099920">
        <ele>88.9</ele>
        <time>2019-08-15T10:30:57Z</time>
      </trkpt>
      <trkpt lat="41.0333970" lon="-8.6101010">
        <ele>88.7</ele>
        <time>2019-08-15T10:30:58Z</time>
      </trkpt>
      <trkpt lat="41.0334190" lon="-8.6102030">
        <ele>88.6</ele>
        <time>2019-08-15T10:30:59Z</time>
      </trkpt>
      <trkpt lat="41.0334650" lon="-8.6104100">
        <ele>88.3</ele>
        <time>2019-08-15T10:31:01Z</time>
      </trkpt>
      <trkpt lat="41.0335510" lon="-8.6108040">
        <ele>87.9</ele>
        <time>2019-08-15T10:31:05Z</time>
      </trkpt>
      <trkpt lat="41.0335720" lon="-8.6108940">
        <ele>87.8</ele>
        <time>2019-08-15T10:31:06Z</time>
      </trkpt>
      <trkpt lat="41.0335930" lon="-8.6109800">
        <ele>87.7</ele>
        <time>2019-08-15T10:31:07Z</time>
      </trkpt>
      <trkpt lat="41.0336150" lon="-8.6110690">
        <ele>87.6</ele>
        <time>2019-08-15T10:31:08Z</time>
      </trkpt>
      <trkpt lat="41.0336320" lon="-8.6111650">
        <ele>87.5</ele>
        <time>2019-08-15T10:31:09Z</time>
      </trkpt>
      <trkpt lat="41.0337680" lon="-8.6117710">
        <ele>86.8</ele>
        <time>2019-08-15T10:31:16Z</time>
      </trkpt>
      <trkpt lat="41.0339150" lon="-8.6125030">
        <ele>86.3</ele>
        <time>2019-08-15T10:31:24Z</time>
      </trkpt>
      <trkpt lat="41.0339510" lon="-8.6126980">
        <ele>86.2</ele>
        <time>2019-08-15T10:31:26Z</time>
      </trkpt>
      <trkpt lat="41.0339960" lon="-8.6131640">
        <ele>85.9</ele>
        <time>2019-08-15T10:31:31Z</time>
      </trkpt>
      <trkpt lat="41.0339990" lon="-8.6132550">
        <ele>85.9</ele>
        <time>2019-08-15T10:31:32Z</time>
      </trkpt>
      <trkpt lat="41.0339980" lon="-8.6133450">
        <ele>85.8</ele>
        <time>2019-08-15T10:31:33Z</time>
      </trkpt>
      <trkpt lat="41.0339950" lon="-8.6134350">
        <ele>85.8</ele>
        <time>2019-08-15T10:31:34Z</time>
      </trkpt>
      <trkpt lat="41.0339910" lon="-8.6135270">
        <ele>85.7</ele>
        <time>2019-08-15T10:31:35Z</time>
      </trkpt>
      <trkpt lat="41.0339620" lon="-8.6139890">
        <ele>84.5</ele>
        <time>2019-08-15T10:31:40Z</time>
      </trkpt>
      <trkpt lat="41.0339190" lon="-8.6145600">
        <ele>82.9</ele>
        <time>2019-08-15T10:31:46Z</time>
      </trkpt>
      <trkpt lat="41.0339300" lon="-8.6147510">
        <ele>82.3</ele>
        <time>2019-08-15T10:31:48Z</time>
      </trkpt>
      <trkpt lat="41.0339250" lon="-8.6149400">
        <ele>81.7</ele>
        <time>2019-08-15T10:31:50Z</time>
      </trkpt>
      <trkpt lat="41.0339200" lon="-8.6150330">
        <ele>81.5</ele>
        <time>2019-08-15T10:31:51Z</time>
      </trkpt>
      <trkpt lat="41.0339160" lon="-8.6151220">
        <ele>81.2</ele>
        <time>2019-08-15T10:31:52Z</time>
      </trkpt>
      <trkpt lat="41.0339130" lon="-8.6152130">
        <ele>80.4</ele>
        <time>2019-08-15T10:31:53Z</time>
      </trkpt>
      <trkpt lat="41.0339090" lon="-8.6153050">
        <ele>79.8</ele>
        <time>2019-08-15T10:31:54Z</time>
      </trkpt>
      <trkpt lat="41.0339030" lon="-8.6154900">
        <ele>78.9</ele>
        <time>2019-08-15T10:31:56Z</time>
      </trkpt>
      <trkpt lat="41.0338790" lon="-8.6159750">
        <ele>77.3</ele>
        <time>2019-08-15T10:32:01Z</time>
      </trkpt>
      <trkpt lat="41.0338740" lon="-8.6160750">
        <ele>76.7</ele>
        <time>2019-08-15T10:32:02Z</time>
      </trkpt>
      <trkpt lat="41.0338680" lon="-8.6161800">
        <ele>76.1</ele>
        <time>2019-08-15T10:32:03Z</time>
      </trkpt>
      <trkpt lat="41.0338610" lon="-8.6162880">
        <ele>75.8</ele>
        <time>2019-08-15T10:32:04Z</time>
      </trkpt>
      <trkpt lat="41.0338570" lon="-8.6163920">
        <ele>75.2</ele>
        <time>2019-08-15T10:32:05Z</time>
      </trkpt>
      <trkpt lat="41.0338540" lon="-8.6165070">
        <ele>74.6</ele>
        <time>2019-08-15T10:32:06Z</time>
      </trkpt>
      <trkpt lat="41.0338500" lon="-8.6166190">
        <ele>74.1</ele>
        <time>2019-08-15T10:32:07Z</time>
      </trkpt>
      <trkpt lat="41.0338470" lon="-8.6167350">
        <ele>73.5</ele>
        <time>2019-08-15T10:32:08Z</time>
      </trkpt>
      <trkpt lat="41.0338410" lon="-8.6168530">
        <ele>73.2</ele>
        <time>2019-08-15T10:32:09Z</time>
      </trkpt>
      <trkpt lat="41.0338400" lon="-8.6169740">
        <ele>72.8</ele>
        <time>2019-08-15T10:32:10Z</time>
      </trkpt>
      <trkpt lat="41.0338370" lon="-8.6170970">
        <ele>72.4</ele>
        <time>2019-08-15T10:32:11Z</time>
      </trkpt>
      <trkpt lat="41.0338330" lon="-8.6172190">
        <ele>72.0</ele>
        <time>2019-08-15T10:32:12Z</time>
      </trkpt>
      <trkpt lat="41.0338260" lon="-8.6173470">
        <ele>71.6</ele>
        <time>2019-08-15T10:32:13Z</time>
      </trkpt>
      <trkpt lat="41.0338210" lon="-8.6174730">
        <ele>71.2</ele>
        <time>2019-08-15T10:32:14Z</time>
      </trkpt>
      <trkpt lat="41.0338160" lon="-8.6175980">
        <ele>70.6</ele>
        <time>2019-08-15T10:32:15Z</time>
      </trkpt>
      <trkpt lat="41.0338080" lon="-8.6177210">
        <ele>70.1</ele>
        <time>2019-08-15T10:32:16Z</time>
      </trkpt>
      <trkpt lat="41.0338010" lon="-8.6178470">
        <ele>69.6</ele>
        <time>2019-08-15T10:32:17Z</time>
      </trkpt>
      <trkpt lat="41.0337920" lon="-8.6179730">
        <ele>69.2</ele>
        <time>2019-08-15T10:32:18Z</time>
      </trkpt>
      <trkpt lat="41.0337830" lon="-8.6180990">
        <ele>68.8</ele>
        <time>2019-08-15T10:32:19Z</time>
      </trkpt>
      <trkpt lat="41.0337750" lon="-8.6182270">
        <ele>68.3</ele>
        <time>2019-08-15T10:32:20Z</time>
      </trkpt>
      <trkpt lat="41.0337680" lon="-8.6183560">
        <ele>67.8</ele>
        <time>2019-08-15T10:32:21Z</time>
      </trkpt>
      <trkpt lat="41.0337630" lon="-8.6184820">
        <ele>67.3</ele>
        <time>2019-08-15T10:32:22Z</time>
      </trkpt>
      <trkpt lat="41.0337590" lon="-8.6186150">
        <ele>66.8</ele>
        <time>2019-08-15T10:32:23Z</time>
      </trkpt>
      <trkpt lat="41.0337540" lon="-8.6187450">
        <ele>66.3</ele>
        <time>2019-08-15T10:32:24Z</time>
      </trkpt>
      <trkpt lat="41.0337460" lon="-8.6188720">
        <ele>65.8</ele>
        <time>2019-08-15T10:32:25Z</time>
      </trkpt>
      <trkpt lat="41.0337370" lon="-8.6190050">
        <ele>65.4</ele>
        <time>2019-08-15T10:32:26Z</time>
      </trkpt>
      <trkpt lat="41.0337310" lon="-8.6191360">
        <ele>64.9</ele>
        <time>2019-08-15T10:32:27Z</time>
      </trkpt>
      <trkpt lat="41.0337250" lon="-8.6192700">
        <ele>64.5</ele>
        <time>2019-08-15T10:32:28Z</time>
      </trkpt>
      <trkpt lat="41.0337170" lon="-8.6194070">
        <ele>63.8</ele>
        <time>2019-08-15T10:32:29Z</time>
      </trkpt>
      <trkpt lat="41.0337030" lon="-8.6195420">
        <ele>63.2</ele>
        <time>2019-08-15T10:32:30Z</time>
      </trkpt>
      <trkpt lat="41.0336910" lon="-8.6196750">
        <ele>62.7</ele>
        <time>2019-08-15T10:32:31Z</time>
      </trkpt>
      <trkpt lat="41.0336830" lon="-8.6198140">
        <ele>62.2</ele>
        <time>2019-08-15T10:32:32Z</time>
      </trkpt>
      <trkpt lat="41.0336790" lon="-8.6199510">
        <ele>61.7</ele>
        <time>2019-08-15T10:32:33Z</time>
      </trkpt>
      <trkpt lat="41.0336760" lon="-8.6200870">
        <ele>60.9</ele>
        <time>2019-08-15T10:32:34Z</time>
      </trkpt>
      <trkpt lat="41.0336720" lon="-8.6202280">
        <ele>60.0</ele>
        <time>2019-08-15T10:32:35Z</time>
      </trkpt>
      <trkpt lat="41.0336650" lon="-8.6203680">
        <ele>59.1</ele>
        <time>2019-08-15T10:32:36Z</time>
      </trkpt>
      <trkpt lat="41.0336610" lon="-8.6205120">
        <ele>58.1</ele>
        <time>2019-08-15T10:32:37Z</time>
      </trkpt>
      <trkpt lat="41.0336560" lon="-8.6206610">
        <ele>57.1</ele>
        <time>2019-08-15T10:32:38Z</time>
      </trkpt>
      <trkpt lat="41.0336510" lon="-8.6207940">
        <ele>56.2</ele>
        <time>2019-08-15T10:32:39Z</time>
      </trkpt>
      <trkpt lat="41.0336430" lon="-8.6209360">
        <ele>55.3</ele>
        <time>2019-08-15T10:32:40Z</time>
      </trkpt>
      <trkpt lat="41.0336370" lon="-8.6210750">
        <ele>54.3</ele>
        <time>2019-08-15T10:32:41Z</time>
      </trkpt>
      <trkpt lat="41.0336300" lon="-8.6212150">
        <ele>54.0</ele>
        <time>2019-08-15T10:32:42Z</time>
      </trkpt>
      <trkpt lat="41.0336230" lon="-8.6213610">
        <ele>53.8</ele>
        <time>2019-08-15T10:32:43Z</time>
      </trkpt>
      <trkpt lat="41.0336110" lon="-8.6216330">
        <ele>53.3</ele>
        <time>2019-08-15T10:32:45Z</time>
      </trkpt>
      <trkpt lat="41.0336080" lon="-8.6217690">
        <ele>53.2</ele>
        <time>2019-08-15T10:32:46Z</time>
      </trkpt>
      <trkpt lat="41.0336080" lon="-8.6219060">
        <ele>53.0</ele>
        <time>2019-08-15T10:32:47Z</time>
      </trkpt>
      <trkpt lat="41.0336050" lon="-8.6220420">
        <ele>52.9</ele>
        <time>2019-08-15T10:32:48Z</time>
      </trkpt>
      <trkpt lat="41.0335960" lon="-8.6221730">
        <ele>52.7</ele>
        <time>2019-08-15T10:32:49Z</time>
      </trkpt>
      <trkpt lat="41.0335860" lon="-8.6223050">
        <ele>52.4</ele>
        <time>2019-08-15T10:32:50Z</time>
      </trkpt>
      <trkpt lat="41.0335770" lon="-8.6224360">
        <ele>52.2</ele>
        <time>2019-08-15T10:32:51Z</time>
      </trkpt>
      <trkpt lat="41.0335700" lon="-8.6225610">
        <ele>52.0</ele>
        <time>2019-08-15T10:32:52Z</time>
      </trkpt>
      <trkpt lat="41.0335620" lon="-8.6226870">
        <ele>51.8</ele>
        <time>2019-08-15T10:32:53Z</time>
      </trkpt>
      <trkpt lat="41.0335540" lon="-8.6228080">
        <ele>51.7</ele>
        <time>2019-08-15T10:32:54Z</time>
      </trkpt>
      <trkpt lat="41.0335490" lon="-8.6229310">
        <ele>51.7</ele>
        <time>2019-08-15T10:32:55Z</time>
      </trkpt>
      <trkpt lat="41.0335440" lon="-8.6230610">
        <ele>51.6</ele>
        <time>2019-08-15T10:32:56Z</time>
      </trkpt>
      <trkpt lat="41.0335130" lon="-8.6234410">
        <ele>51.5</ele>
        <time>2019-08-15T10:32:59Z</time>
      </trkpt>
      <trkpt lat="41.0334770" lon="-8.6235570">
        <ele>50.9</ele>
        <time>2019-08-15T10:33:00Z</time>
      </trkpt>
      <trkpt lat="41.0334220" lon="-8.6236700">
        <ele>50.4</ele>
        <time>2019-08-15T10:33:01Z</time>
      </trkpt>
      <trkpt lat="41.0333390" lon="-8.6237580">
        <ele>50.0</ele>
        <time>2019-08-15T10:33:02Z</time>
      </trkpt>
      <trkpt lat="41.0332550" lon="-8.6238350">
        <ele>49.6</ele>
        <time>2019-08-15T10:33:03Z</time>
      </trkpt>
      <trkpt lat="41.0331710" lon="-8.6239080">
        <ele>48.9</ele>
        <time>2019-08-15T10:33:04Z</time>
      </trkpt>
      <trkpt lat="41.0330950" lon="-8.6239830">
        <ele>47.9</ele>
        <time>2019-08-15T10:33:05Z</time>
      </trkpt>
      <trkpt lat="41.0330380" lon="-8.6240710">
        <ele>47.0</ele>
        <time>2019-08-15T10:33:06Z</time>
      </trkpt>
      <trkpt lat="41.0330010" lon="-8.6241750">
        <ele>46.2</ele>
        <time>2019-08-15T10:33:07Z</time>
      </trkpt>
      <trkpt lat="41.0329810" lon="-8.6242920">
        <ele>45.5</ele>
        <time>2019-08-15T10:33:08Z</time>
      </trkpt>
      <trkpt lat="41.0329630" lon="-8.6244110">
        <ele>44.9</ele>
        <time>2019-08-15T10:33:09Z</time>
      </trkpt>
      <trkpt lat="41.0329480" lon="-8.6245320">
        <ele>43.9</ele>
        <time>2019-08-15T10:33:10Z</time>
      </trkpt>
      <trkpt lat="41.0329330" lon="-8.6246590">
        <ele>42.8</ele>
        <time>2019-08-15T10:33:11Z</time>
      </trkpt>
      <trkpt lat="41.0329210" lon="-8.6247790">
        <ele>41.7</ele>
        <time>2019-08-15T10:33:12Z</time>
      </trkpt>
      <trkpt lat="41.0329060" lon="-8.6249020">
        <ele>40.6</ele>
        <time>2019-08-15T10:33:13Z</time>
      </trkpt>
      <trkpt lat="41.0328900" lon="-8.6250280">
        <ele>39.6</ele>
        <time>2019-08-15T10:33:14Z</time>
      </trkpt>
      <trkpt lat="41.0328730" lon="-8.6251510">
        <ele>38.6</ele>
        <time>2019-08-15T10:33:15Z</time>
      </trkpt>
      <trkpt lat="41.0328520" lon="-8.6252740">
        <ele>37.8</ele>
        <time>2019-08-15T10:33:16Z</time>
      </trkpt>
      <trkpt lat="41.0328310" lon="-8.6253990">
        <ele>37.2</ele>
        <time>2019-08-15T10:33:17Z</time>
      </trkpt>
      <trkpt lat="41.0328120" lon="-8.6255230">
        <ele>36.8</ele>
        <time>2019-08-15T10:33:18Z</time>
      </trkpt>
      <trkpt lat="41.0327920" lon="-8.6256580">
        <ele>36.4</ele>
        <time>2019-08-15T10:33:19Z</time>
      </trkpt>
      <trkpt lat="41.0327730" lon="-8.6257800">
        <ele>36.0</ele>
        <time>2019-08-15T10:33:20Z</time>
      </trkpt>
      <trkpt lat="41.0327570" lon="-8.6259160">
        <ele>35.5</ele>
        <time>2019-08-15T10:33:21Z</time>
      </trkpt>
      <trkpt lat="41.0327410" lon="-8.6260520">
        <ele>35.3</ele>
        <time>2019-08-15T10:33:22Z</time>
      </trkpt>
      <trkpt lat="41.0327220" lon="-8.6261860">
        <ele>34.7</ele>
        <time>2019-08-15T10:33:23Z</time>
      </trkpt>
      <trkpt lat="41.0327010" lon="-8.6263190">
        <ele>33.9</ele>
        <time>2019-08-15T10:33:24Z</time>
      </trkpt>
      <trkpt lat="41.0326840" lon="-8.6264510">
        <ele>33.3</ele>
        <time>2019-08-15T10:33:25Z</time>
      </trkpt>
      <trkpt lat="41.0326720" lon="-8.6265770">
        <ele>32.9</ele>
        <time>2019-08-15T10:33:26Z</time>
      </trkpt>
      <trkpt lat="41.0326740" lon="-8.6267130">
        <ele>32.6</ele>
        <time>2019-08-15T10:33:27Z</time>
      </trkpt>
      <trkpt lat="41.0326910" lon="-8.6268460">
        <ele>32.2</ele>
        <time>2019-08-15T10:33:28Z</time>
      </trkpt>
      <trkpt lat="41.0327270" lon="-8.6269780">
        <ele>31.7</ele>
        <time>2019-08-15T10:33:29Z</time>
      </trkpt>
      <trkpt lat="41.0327840" lon="-8.6270850">
        <ele>31.1</ele>
        <time>2019-08-15T10:33:30Z</time>
      </trkpt>
      <trkpt lat="41.0328500" lon="-8.6271930">
        <ele>30.6</ele>
        <time>2019-08-15T10:33:31Z</time>
      </trkpt>
      <trkpt lat="41.0330290" lon="-8.6273430">
        <ele>29.5</ele>
        <time>2019-08-15T10:33:33Z</time>
      </trkpt>
      <trkpt lat="41.0331230" lon="-8.6273960">
        <ele>29.1</ele>
        <time>2019-08-15T10:33:34Z</time>
      </trkpt>
      <trkpt lat="41.0332200" lon="-8.6274490">
        <ele>28.8</ele>
        <time>2019-08-15T10:33:35Z</time>
      </trkpt>
      <trkpt lat="41.0333190" lon="-8.6275030">
        <ele>28.4</ele>
        <time>2019-08-15T10:33:36Z</time>
      </trkpt>
      <trkpt lat="41.0334130" lon="-8.6275520">
        <ele>28.2</ele>
        <time>2019-08-15T10:33:37Z</time>
      </trkpt>
      <trkpt lat="41.0335000" lon="-8.6276000">
        <ele>28.0</ele>
        <time>2019-08-15T10:33:38Z</time>
      </trkpt>
      <trkpt lat="41.0335870" lon="-8.6276420">
        <ele>27.8</ele>
        <time>2019-08-15T10:33:39Z</time>
      </trkpt>
      <trkpt lat="41.0336730" lon="-8.6276860">
        <ele>27.6</ele>
        <time>2019-08-15T10:33:40Z</time>
      </trkpt>
      <trkpt lat="41.0338290" lon="-8.6277540">
        <ele>27.3</ele>
        <time>2019-08-15T10:33:42Z</time>
      </trkpt>
      <trkpt lat="41.0341020" lon="-8.6279150">
        <ele>28.0</ele>
        <time>2019-08-15T10:33:46Z</time>
      </trkpt>
      <trkpt lat="41.0341650" lon="-8.6279770">
        <ele>28.3</ele>
        <time>2019-08-15T10:33:47Z</time>
      </trkpt>
      <trkpt lat="41.0343130" lon="-8.6281950">
        <ele>29.6</ele>
        <time>2019-08-15T10:33:50Z</time>
      </trkpt>
      <trkpt lat="41.0343560" lon="-8.6282690">
        <ele>30.1</ele>
        <time>2019-08-15T10:33:51Z</time>
      </trkpt>
      <trkpt lat="41.0346750" lon="-8.6288250">
        <ele>34.1</ele>
        <time>2019-08-15T10:33:59Z</time>
      </trkpt>
      <trkpt lat="41.0348330" lon="-8.6291870">
        <ele>36.7</ele>
        <time>2019-08-15T10:34:05Z</time>
      </trkpt>
      <trkpt lat="41.0348230" lon="-8.6292730">
        <ele>37.2</ele>
        <time>2019-08-15T10:34:06Z</time>
      </trkpt>
      <trkpt lat="41.0348110" lon="-8.6293490">
        <ele>37.6</ele>
        <time>2019-08-15T10:34:07Z</time>
      </trkpt>
      <trkpt lat="41.0347960" lon="-8.6294180">
        <ele>37.9</ele>
        <time>2019-08-15T10:34:08Z</time>
      </trkpt>
      <trkpt lat="41.0347750" lon="-8.6294830">
        <ele>38.2</ele>
        <time>2019-08-15T10:34:09Z</time>
      </trkpt>
      <trkpt lat="41.0347490" lon="-8.6295430">
        <ele>38.6</ele>
        <time>2019-08-15T10:34:10Z</time>
      </trkpt>
      <trkpt lat="41.0347150" lon="-8.6295860">
        <ele>38.9</ele>
        <time>2019-08-15T10:34:11Z</time>
      </trkpt>
      <trkpt lat="41.0346410" lon="-8.6296610">
        <ele>39.5</ele>
        <time>2019-08-15T10:34:13Z</time>
      </trkpt>
      <trkpt lat="41.0346090" lon="-8.6296960">
        <ele>39.8</ele>
        <time>2019-08-15T10:34:14Z</time>
      </trkpt>
      <trkpt lat="41.0344390" lon="-8.6298740">
        <ele>39.4</ele>
        <time>2019-08-15T10:34:19Z</time>
      </trkpt>
      <trkpt lat="41.0344190" lon="-8.6299210">
        <ele>39.4</ele>
        <time>2019-08-15T10:34:20Z</time>
      </trkpt>
      <trkpt lat="41.0344040" lon="-8.6299670">
        <ele>39.3</ele>
        <time>2019-08-15T10:34:21Z</time>
      </trkpt>
      <trkpt lat="41.0343930" lon="-8.6300080">
        <ele>39.3</ele>
        <time>2019-08-15T10:34:22Z</time>
      </trkpt>
      <trkpt lat="41.0343840" lon="-8.6300460">
        <ele>39.3</ele>
        <time>2019-08-15T10:34:23Z</time>
      </trkpt>
      <trkpt lat="41.0343760" lon="-8.6301460">
        <ele>39.2</ele>
        <time>2019-08-15T10:34:26Z</time>
      </trkpt>
      <trkpt lat="41.0343490" lon="-8.6302580">
        <ele>39.1</ele>
        <time>2019-08-15T10:34:30Z</time>
      </trkpt>
      <trkpt lat="41.0343400" lon="-8.6302910">
        <ele>39.1</ele>
        <time>2019-08-15T10:34:31Z</time>
      </trkpt>
      <trkpt lat="41.0343290" lon="-8.6303320">
        <ele>39.0</ele>
        <time>2019-08-15T10:34:32Z</time>
      </trkpt>
      <trkpt lat="41.0343260" lon="-8.6303730">
        <ele>39.0</ele>
        <time>2019-08-15T10:34:33Z</time>
      </trkpt>
      <trkpt lat="41.0343340" lon="-8.6304220">
        <ele>38.9</ele>
        <time>2019-08-15T10:34:34Z</time>
      </trkpt>
      <trkpt lat="41.0343810" lon="-8.6307690">
        <ele>38.5</ele>
        <time>2019-08-15T10:34:41Z</time>
      </trkpt>
      <trkpt lat="41.0344270" lon="-8.6310920">
        <ele>38.7</ele>
        <time>2019-08-15T10:34:47Z</time>
      </trkpt>
      <trkpt lat="41.0344660" lon="-8.6314800">
        <ele>38.5</ele>
        <time>2019-08-15T10:34:54Z</time>
      </trkpt>
      <trkpt lat="41.0344730" lon="-8.6315380">
        <ele>38.4</ele>
        <time>2019-08-15T10:34:55Z</time>
      </trkpt>
      <trkpt lat="41.0344800" lon="-8.6315920">
        <ele>38.4</ele>
        <time>2019-08-15T10:34:56Z</time>
      </trkpt>
      <trkpt lat="41.0344870" lon="-8.6316460">
        <ele>38.4</ele>
        <time>2019-08-15T10:34:57Z</time>
      </trkpt>
      <trkpt lat="41.0344930" lon="-8.6316990">
        <ele>38.4</ele>
        <time>2019-08-15T10:34:58Z</time>
      </trkpt>
      <trkpt lat="41.0345580" lon="-8.6320890">
        <ele>38.4</ele>
        <time>2019-08-15T10:35:05Z</time>
      </trkpt>
      <trkpt lat="41.0346490" lon="-8.6323560">
        <ele>38.1</ele>
        <time>2019-08-15T10:35:10Z</time>
      </trkpt>
      <trkpt lat="41.0346710" lon="-8.6324040">
        <ele>38.2</ele>
        <time>2019-08-15T10:35:11Z</time>
      </trkpt>
      <trkpt lat="41.0346960" lon="-8.6324510">
        <ele>38.2</ele>
        <time>2019-08-15T10:35:12Z</time>
      </trkpt>
      <trkpt lat="41.0347210" lon="-8.6324980">
        <ele>38.2</ele>
        <time>2019-08-15T10:35:13Z</time>
      </trkpt>
      <trkpt lat="41.0349470" lon="-8.6329000">
        <ele>38.6</ele>
        <time>2019-08-15T10:35:21Z</time>
      </trkpt>
      <trkpt lat="41.0351700" lon="-8.6333230">
        <ele>38.9</ele>
        <time>2019-08-15T10:35:29Z</time>
      </trkpt>
      <trkpt lat="41.0354740" lon="-8.6339140">
        <ele>39.8</ele>
        <time>2019-08-15T10:35:40Z</time>
      </trkpt>
      <trkpt lat="41.0357740" lon="-8.6344430">
        <ele>40.2</ele>
        <time>2019-08-15T10:35:50Z</time>
      </trkpt>
      <trkpt lat="41.0357950" lon="-8.6345020">
        <ele>40.2</ele>
        <time>2019-08-15T10:35:51Z</time>
      </trkpt>
      <trkpt lat="41.0359270" lon="-8.6347620">
        <ele>39.7</ele>
        <time>2019-08-15T10:35:56Z</time>
      </trkpt>
      <trkpt lat="41.0359810" lon="-8.6348660">
        <ele>39.5</ele>
        <time>2019-08-15T10:35:58Z</time>
      </trkpt>
      <trkpt lat="41.0361250" lon="-8.6351330">
        <ele>39.1</ele>
        <time>2019-08-15T10:36:03Z</time>
      </trkpt>
      <trkpt lat="41.0361450" lon="-8.6351870">
        <ele>39.0</ele>
        <time>2019-08-15T10:36:04Z</time>
      </trkpt>
      <trkpt lat="41.0362650" lon="-8.6354020">
        <ele>38.1</ele>
        <time>2019-08-15T10:36:08Z</time>
      </trkpt>
      <trkpt lat="41.0365050" lon="-8.6358540">
        <ele>36.7</ele>
        <time>2019-08-15T10:36:15Z</time>
      </trkpt>
      <trkpt lat="41.0366920" lon="-8.6362070">
        <ele>37.1</ele>
        <time>2019-08-15T10:36:20Z</time>
      </trkpt>
      <trkpt lat="41.0367260" lon="-8.6362760">
        <ele>36.9</ele>
        <time>2019-08-15T10:36:21Z</time>
      </trkpt>
      <trkpt lat="41.0367560" lon="-8.6363430">
        <ele>36.8</ele>
        <time>2019-08-15T10:36:22Z</time>
      </trkpt>
      <trkpt lat="41.0367880" lon="-8.6364070">
        <ele>36.6</ele>
        <time>2019-08-15T10:36:23Z</time>
      </trkpt>
      <trkpt lat="41.0368230" lon="-8.6364720">
        <ele>36.5</ele>
        <time>2019-08-15T10:36:24Z</time>
      </trkpt>
      <trkpt lat="41.0371090" lon="-8.6370010">
        <ele>35.8</ele>
        <time>2019-08-15T10:36:32Z</time>
      </trkpt>
      <trkpt lat="41.0371390" lon="-8.6370790">
        <ele>35.5</ele>
        <time>2019-08-15T10:36:33Z</time>
      </trkpt>
      <trkpt lat="41.0371730" lon="-8.6371520">
        <ele>35.1</ele>
        <time>2019-08-15T10:36:34Z</time>
      </trkpt>
      <trkpt lat="41.0372110" lon="-8.6372230">
        <ele>34.8</ele>
        <time>2019-08-15T10:36:35Z</time>
      </trkpt>
      <trkpt lat="41.0372460" lon="-8.6372950">
        <ele>34.5</ele>
        <time>2019-08-15T10:36:36Z</time>
      </trkpt>
      <trkpt lat="41.0374410" lon="-8.6376540">
        <ele>34.1</ele>
        <time>2019-08-15T10:36:41Z</time>
      </trkpt>
      <trkpt lat="41.0374810" lon="-8.6377270">
        <ele>33.1</ele>
        <time>2019-08-15T10:36:42Z</time>
      </trkpt>
      <trkpt lat="41.0375210" lon="-8.6377980">
        <ele>32.4</ele>
        <time>2019-08-15T10:36:43Z</time>
      </trkpt>
      <trkpt lat="41.0375620" lon="-8.6378710">
        <ele>32.0</ele>
        <time>2019-08-15T10:36:44Z</time>
      </trkpt>
      <trkpt lat="41.0376020" lon="-8.6379450">
        <ele>32.0</ele>
        <time>2019-08-15T10:36:45Z</time>
      </trkpt>
      <trkpt lat="41.0376430" lon="-8.6380190">
        <ele>32.1</ele>
        <time>2019-08-15T10:36:46Z</time>
      </trkpt>
      <trkpt lat="41.0377490" lon="-8.6382430">
        <ele>32.2</ele>
        <time>2019-08-15T10:36:49Z</time>
      </trkpt>
      <trkpt lat="41.0378410" lon="-8.6384670">
        <ele>32.1</ele>
        <time>2019-08-15T10:36:52Z</time>
      </trkpt>
      <trkpt lat="41.0380750" lon="-8.6389210">
        <ele>31.8</ele>
        <time>2019-08-15T10:36:59Z</time>
      </trkpt>
      <trkpt lat="41.0382760" lon="-8.6392880">
        <ele>31.6</ele>
        <time>2019-08-15T10:37:06Z</time>
      </trkpt>
      <trkpt lat="41.0383400" lon="-8.6393840">
        <ele>31.7</ele>
        <time>2019-08-15T10:37:08Z</time>
      </trkpt>
      <trkpt lat="41.0383700" lon="-8.6394350">
        <ele>31.7</ele>
        <time>2019-08-15T10:37:09Z</time>
      </trkpt>
      <trkpt lat="41.0383990" lon="-8.6394900">
        <ele>31.7</ele>
        <time>2019-08-15T10:37:10Z</time>
      </trkpt>
      <trkpt lat="41.0384260" lon="-8.6395420">
        <ele>31.7</ele>
        <time>2019-08-15T10:37:11Z</time>
      </trkpt>
      <trkpt lat="41.0384560" lon="-8.6395930">
        <ele>31.8</ele>
        <time>2019-08-15T10:37:12Z</time>
      </trkpt>
      <trkpt lat="41.0385150" lon="-8.6397000">
        <ele>31.8</ele>
        <time>2019-08-15T10:37:14Z</time>
      </trkpt>
      <trkpt lat="41.0387700" lon="-8.6401620">
        <ele>31.5</ele>
        <time>2019-08-15T10:37:22Z</time>
      </trkpt>
      <trkpt lat="41.0389590" lon="-8.6405420">
        <ele>30.9</ele>
        <time>2019-08-15T10:37:28Z</time>
      </trkpt>
      <trkpt lat="41.0389890" lon="-8.6406060">
        <ele>30.8</ele>
        <time>2019-08-15T10:37:29Z</time>
      </trkpt>
      <trkpt lat="41.0390160" lon="-8.6406610">
        <ele>30.8</ele>
        <time>2019-08-15T10:37:30Z</time>
      </trkpt>
      <trkpt lat="41.0390340" lon="-8.6407260">
        <ele>30.7</ele>
        <time>2019-08-15T10:37:31Z</time>
      </trkpt>
      <trkpt lat="41.0390370" lon="-8.6407920">
        <ele>30.6</ele>
        <time>2019-08-15T10:37:32Z</time>
      </trkpt>
      <trkpt lat="41.0390280" lon="-8.6409080">
        <ele>29.6</ele>
        <time>2019-08-15T10:37:34Z</time>
      </trkpt>
      <trkpt lat="41.0390260" lon="-8.6409680">
        <ele>29.3</ele>
        <time>2019-08-15T10:37:35Z</time>
      </trkpt>
      <trkpt lat="41.0389980" lon="-8.6412910">
        <ele>28.7</ele>
        <time>2019-08-15T10:37:40Z</time>
      </trkpt>
      <trkpt lat="41.0389940" lon="-8.6413610">
        <ele>28.7</ele>
        <time>2019-08-15T10:37:41Z</time>
      </trkpt>
      <trkpt lat="41.0389900" lon="-8.6414300">
        <ele>28.7</ele>
        <time>2019-08-15T10:37:42Z</time>
      </trkpt>
      <trkpt lat="41.0389880" lon="-8.6415050">
        <ele>28.7</ele>
        <time>2019-08-15T10:37:43Z</time>
      </trkpt>
      <trkpt lat="41.0389830" lon="-8.6415780">
        <ele>28.7</ele>
        <time>2019-08-15T10:37:44Z</time>
      </trkpt>
      <trkpt lat="41.0389330" lon="-8.6418780">
        <ele>28.3</ele>
        <time>2019-08-15T10:37:48Z</time>
      </trkpt>
      <trkpt lat="41.0388800" lon="-8.6421850">
        <ele>27.5</ele>
        <time>2019-08-15T10:37:52Z</time>
      </trkpt>
      <trkpt lat="41.0388730" lon="-8.6422580">
        <ele>27.3</ele>
        <time>2019-08-15T10:37:53Z</time>
      </trkpt>
      <trkpt lat="41.0388630" lon="-8.6423340">
        <ele>27.1</ele>
        <time>2019-08-15T10:37:54Z</time>
      </trkpt>
      <trkpt lat="41.0388530" lon="-8.6424090">
        <ele>26.9</ele>
        <time>2019-08-15T10:37:55Z</time>
      </trkpt>
      <trkpt lat="41.0388470" lon="-8.6424880">
        <ele>26.8</ele>
        <time>2019-08-15T10:37:56Z</time>
      </trkpt>
      <trkpt lat="41.0387670" lon="-8.6430680">
        <ele>25.4</ele>
        <time>2019-08-15T10:38:04Z</time>
      </trkpt>
      <trkpt lat="41.0387250" lon="-8.6434310">
        <ele>24.1</ele>
        <time>2019-08-15T10:38:09Z</time>
      </trkpt>
      <trkpt lat="41.0387190" lon="-8.6435070">
        <ele>24.0</ele>
        <time>2019-08-15T10:38:10Z</time>
      </trkpt>
      <trkpt lat="41.0387140" lon="-8.6435830">
        <ele>23.9</ele>
        <time>2019-08-15T10:38:11Z</time>
      </trkpt>
      <trkpt lat="41.0387090" lon="-8.6436610">
        <ele>23.8</ele>
        <time>2019-08-15T10:38:12Z</time>
      </trkpt>
      <trkpt lat="41.0387000" lon="-8.6437400">
        <ele>23.7</ele>
        <time>2019-08-15T10:38:13Z</time>
      </trkpt>
      <trkpt lat="41.0386670" lon="-8.6439780">
        <ele>23.6</ele>
        <time>2019-08-15T10:38:16Z</time>
      </trkpt>
      <trkpt lat="41.0386570" lon="-8.6440610">
        <ele>23.5</ele>
        <time>2019-08-15T10:38:17Z</time>
      </trkpt>
      <trkpt lat="41.0386440" lon="-8.6441440">
        <ele>23.3</ele>
        <time>2019-08-15T10:38:18Z</time>
      </trkpt>
      <trkpt lat="41.0386310" lon="-8.6442340">
        <ele>23.1</ele>
        <time>2019-08-15T10:38:19Z</time>
      </trkpt>
      <trkpt lat="41.0386190" lon="-8.6443310">
        <ele>22.8</ele>
        <time>2019-08-15T10:38:20Z</time>
      </trkpt>
      <trkpt lat="41.0386090" lon="-8.6444230">
        <ele>22.5</ele>
        <time>2019-08-15T10:38:21Z</time>
      </trkpt>
      <trkpt lat="41.0385850" lon="-8.6446220">
        <ele>21.3</ele>
        <time>2019-08-15T10:38:23Z</time>
      </trkpt>
      <trkpt lat="41.0385550" lon="-8.6447990">
        <ele>20.0</ele>
        <time>2019-08-15T10:38:25Z</time>
      </trkpt>
      <trkpt lat="41.0385510" lon="-8.6448800">
        <ele>19.5</ele>
        <time>2019-08-15T10:38:26Z</time>
      </trkpt>
      <trkpt lat="41.0385420" lon="-8.6449590">
        <ele>19.2</ele>
        <time>2019-08-15T10:38:27Z</time>
      </trkpt>
      <trkpt lat="41.0385300" lon="-8.6450270">
        <ele>19.0</ele>
        <time>2019-08-15T10:38:28Z</time>
      </trkpt>
      <trkpt lat="41.0385060" lon="-8.6452230">
        <ele>18.7</ele>
        <time>2019-08-15T10:38:32Z</time>
      </trkpt>
      <trkpt lat="41.0384930" lon="-8.6454400">
        <ele>18.3</ele>
        <time>2019-08-15T10:38:38Z</time>
      </trkpt>
      <trkpt lat="41.0384920" lon="-8.6454650">
        <ele>18.2</ele>
        <time>2019-08-15T10:38:39Z</time>
      </trkpt>
      <trkpt lat="41.0384890" lon="-8.6454860">
        <ele>18.2</ele>
        <time>2019-08-15T10:38:40Z</time>
      </trkpt>
      <trkpt lat="41.0384820" lon="-8.6455130">
        <ele>18.1</ele>
        <time>2019-08-15T10:38:41Z</time>
      </trkpt>
      <trkpt lat="41.0384720" lon="-8.6455500">
        <ele>17.9</ele>
        <time>2019-08-15T10:38:42Z</time>
      </trkpt>
      <trkpt lat="41.0384730" lon="-8.6456340">
        <ele>17.6</ele>
        <time>2019-08-15T10:38:44Z</time>
      </trkpt>
      <trkpt lat="41.0384720" lon="-8.6459380">
        <ele>16.0</ele>
        <time>2019-08-15T10:38:52Z</time>
      </trkpt>
      <trkpt lat="41.0384730" lon="-8.6460060">
        <ele>15.7</ele>
        <time>2019-08-15T10:38:54Z</time>
      </trkpt>
      <trkpt lat="41.0384640" lon="-8.6460450">
        <ele>15.5</ele>
        <time>2019-08-15T10:38:55Z</time>
      </trkpt>
      <trkpt lat="41.0384560" lon="-8.6460640">
        <ele>15.4</ele>
        <time>2019-08-15T10:38:56Z</time>
      </trkpt>
      <trkpt lat="41.0384460" lon="-8.6460910">
        <ele>15.3</ele>
        <time>2019-08-15T10:38:57Z</time>
      </trkpt>
      <trkpt lat="41.0384420" lon="-8.6461190">
        <ele>15.2</ele>
        <time>2019-08-15T10:38:58Z</time>
      </trkpt>
      <trkpt lat="41.0384200" lon="-8.6463150">
        <ele>14.5</ele>
        <time>2019-08-15T10:39:04Z</time>
      </trkpt>
      <trkpt lat="41.0384300" lon="-8.6465650">
        <ele>14.0</ele>
        <time>2019-08-15T10:39:09Z</time>
      </trkpt>
      <trkpt lat="41.0384840" lon="-8.6466250">
        <ele>13.7</ele>
        <time>2019-08-15T10:39:11Z</time>
      </trkpt>
      <trkpt lat="41.0385580" lon="-8.6466570">
        <ele>13.6</ele>
        <time>2019-08-15T10:39:13Z</time>
      </trkpt>
      <trkpt lat="41.0387810" lon="-8.6467230">
        <ele>13.5</ele>
        <time>2019-08-15T10:39:19Z</time>
      </trkpt>
      <trkpt lat="41.0388150" lon="-8.6467320">
        <ele>13.5</ele>
        <time>2019-08-15T10:39:20Z</time>
      </trkpt>
      <trkpt lat="41.0388450" lon="-8.6467500">
        <ele>13.5</ele>
        <time>2019-08-15T10:39:21Z</time>
      </trkpt>
      <trkpt lat="41.0388820" lon="-8.6467610">
        <ele>13.5</ele>
        <time>2019-08-15T10:39:22Z</time>
      </trkpt>
      <trkpt lat="41.0389190" lon="-8.6467690">
        <ele>13.5</ele>
        <time>2019-08-15T10:39:23Z</time>
      </trkpt>
      <trkpt lat="41.0389520" lon="-8.6467760">
        <ele>13.5</ele>
        <time>2019-08-15T10:39:24Z</time>
      </trkpt>
      <trkpt lat="41.0390140" lon="-8.6467940">
        <ele>13.5</ele>
        <time>2019-08-15T10:39:26Z</time>
      </trkpt>
      <trkpt lat="41.0391700" lon="-8.6468590">
        <ele>13.5</ele>
        <time>2019-08-15T10:39:32Z</time>
      </trkpt>
      <trkpt lat="41.0394140" lon="-8.6469560">
        <ele>13.8</ele>
        <time>2019-08-15T10:39:39Z</time>
      </trkpt>
      <trkpt lat="41.0398550" lon="-8.6471030">
        <ele>14.3</ele>
        <time>2019-08-15T10:39:49Z</time>
      </trkpt>
      <trkpt lat="41.0403990" lon="-8.6473050">
        <ele>14.1</ele>
        <time>2019-08-15T10:39:59Z</time>
      </trkpt>
      <trkpt lat="41.0405020" lon="-8.6473420">
        <ele>14.0</ele>
        <time>2019-08-15T10:40:01Z</time>
      </trkpt>
      <trkpt lat="41.0408620" lon="-8.6474540">
        <ele>13.5</ele>
        <time>2019-08-15T10:40:08Z</time>
      </trkpt>
      <trkpt lat="41.0411350" lon="-8.6475490">
        <ele>13.4</ele>
        <time>2019-08-15T10:40:14Z</time>
      </trkpt>
      <trkpt lat="41.0414170" lon="-8.6477160">
        <ele>13.0</ele>
        <time>2019-08-15T10:40:22Z</time>
      </trkpt>
      <trkpt lat="41.0413660" lon="-8.6478370">
        <ele>12.7</ele>
        <time>2019-08-15T10:40:24Z</time>
      </trkpt>
      <trkpt lat="41.0413410" lon="-8.6478880">
        <ele>12.6</ele>
        <time>2019-08-15T10:40:25Z</time>
      </trkpt>
      <trkpt lat="41.0413070" lon="-8.6479910">
        <ele>12.3</ele>
        <time>2019-08-15T10:40:27Z</time>
      </trkpt>
      <trkpt lat="41.0412840" lon="-8.6481270">
        <ele>12.0</ele>
        <time>2019-08-15T10:40:30Z</time>
      </trkpt>
      <trkpt lat="41.0412080" lon="-8.6484310">
        <ele>11.5</ele>
        <time>2019-08-15T10:40:36Z</time>
      </trkpt>
      <trkpt lat="41.0411800" lon="-8.6485430">
        <ele>11.3</ele>
        <time>2019-08-15T10:40:38Z</time>
      </trkpt>
      <trkpt lat="41.0411680" lon="-8.6486050">
        <ele>11.2</ele>
        <time>2019-08-15T10:40:39Z</time>
      </trkpt>
      <trkpt lat="41.0411590" lon="-8.6486670">
        <ele>11.0</ele>
        <time>2019-08-15T10:40:40Z</time>
      </trkpt>
      <trkpt lat="41.0411460" lon="-8.6487320">
        <ele>10.7</ele>
        <time>2019-08-15T10:40:41Z</time>
      </trkpt>
      <trkpt lat="41.0411340" lon="-8.6487900">
        <ele>10.5</ele>
        <time>2019-08-15T10:40:42Z</time>
      </trkpt>
      <trkpt lat="41.0411150" lon="-8.6488970">
        <ele>10.2</ele>
        <time>2019-08-15T10:40:44Z</time>
      </trkpt>
      <trkpt lat="41.0410660" lon="-8.6491530">
        <ele>9.6</ele>
        <time>2019-08-15T10:40:49Z</time>
      </trkpt>
      <trkpt lat="41.0409680" lon="-8.6496430">
        <ele>8.4</ele>
        <time>2019-08-15T10:40:57Z</time>
      </trkpt>
      <trkpt lat="41.0409520" lon="-8.6497040">
        <ele>8.3</ele>
        <time>2019-08-15T10:40:58Z</time>
      </trkpt>
      <trkpt lat="41.0409380" lon="-8.6497580">
        <ele>8.2</ele>
        <time>2019-08-15T10:40:59Z</time>
      </trkpt>
      <trkpt lat="41.0409250" lon="-8.6498070">
        <ele>8.1</ele>
        <time>2019-08-15T10:41:00Z</time>
      </trkpt>
      <trkpt lat="41.0409150" lon="-8.6498550">
        <ele>8.1</ele>
        <time>2019-08-15T10:41:01Z</time>
      </trkpt>
      <trkpt lat="41.0409030" lon="-8.6499050">
        <ele>8.1</ele>
        <time>2019-08-15T10:41:02Z</time>
      </trkpt>
      <trkpt lat="41.0408790" lon="-8.6499840">
        <ele>8.2</ele>
        <time>2019-08-15T10:41:04Z</time>
      </trkpt>
      <trkpt lat="41.0408260" lon="-8.6500480">
        <ele>8.2</ele>
        <time>2019-08-15T10:41:06Z</time>
      </trkpt>
      <trkpt lat="41.0407970" lon="-8.6500600">
        <ele>8.2</ele>
        <time>2019-08-15T10:41:07Z</time>
      </trkpt>
      <trkpt lat="41.0406150" lon="-8.6500850">
        <ele>8.0</ele>
        <time>2019-08-15T10:41:13Z</time>
      </trkpt>
      <trkpt lat="41.0405360" lon="-8.6501170">
        <ele>7.7</ele>
        <time>2019-08-15T10:41:18Z</time>
      </trkpt>
      <trkpt lat="41.0404370" lon="-8.6500840">
        <ele>7.1</ele>
        <time>2019-08-15T10:41:25Z</time>
      </trkpt>
      <trkpt lat="41.0403570" lon="-8.6500700">
        <ele>6.6</ele>
        <time>2019-08-15T10:41:32Z</time>
      </trkpt>
      <trkpt lat="41.0403400" lon="-8.6500660">
        <ele>6.6</ele>
        <time>2019-08-15T10:46:13Z</time>
      </trkpt>
      <trkpt lat="41.0404130" lon="-8.6500880">
        <ele>6.9</ele>
        <time>2019-08-15T10:46:17Z</time>
      </trkpt>
      <trkpt lat="41.0404640" lon="-8.6500920">
        <ele>7.2</ele>
        <time>2019-08-15T10:46:19Z</time>
      </trkpt>
      <trkpt lat="41.0404870" lon="-8.6500950">
        <ele>7.3</ele>
        <time>2019-08-15T10:46:20Z</time>
      </trkpt>
      <trkpt lat="41.0405070" lon="-8.6500970">
        <ele>7.4</ele>
        <time>2019-08-15T10:46:21Z</time>
      </trkpt>
      <trkpt lat="41.0405250" lon="-8.6501000">
        <ele>7.5</ele>
        <time>2019-08-15T10:46:22Z</time>
      </trkpt>
      <trkpt lat="41.0405440" lon="-8.6501010">
        <ele>7.6</ele>
        <time>2019-08-15T10:46:23Z</time>
      </trkpt>
      <trkpt lat="41.0405640" lon="-8.6501000">
        <ele>7.7</ele>
        <time>2019-08-15T10:46:24Z</time>
      </trkpt>
      <trkpt lat="41.0406110" lon="-8.6500820">
        <ele>7.9</ele>
        <time>2019-08-15T10:46:27Z</time>
      </trkpt>
      <trkpt lat="41.0407290" lon="-8.6500580">
        <ele>8.2</ele>
        <time>2019-08-15T10:46:32Z</time>
      </trkpt>
      <trkpt lat="41.0407730" lon="-8.6500680">
        <ele>8.3</ele>
        <time>2019-08-15T10:46:34Z</time>
      </trkpt>
      <trkpt lat="41.0408280" lon="-8.6500500">
        <ele>8.3</ele>
        <time>2019-08-15T10:46:37Z</time>
      </trkpt>
      <trkpt lat="41.0408720" lon="-8.6500050">
        <ele>8.2</ele>
        <time>2019-08-15T10:46:40Z</time>
      </trkpt>
      <trkpt lat="41.0408850" lon="-8.6499950">
        <ele>8.2</ele>
        <time>2019-08-15T10:46:41Z</time>
      </trkpt>
      <trkpt lat="41.0409100" lon="-8.6499930">
        <ele>8.2</ele>
        <time>2019-08-15T10:46:43Z</time>
      </trkpt>
      <trkpt lat="41.0409140" lon="-8.6499920">
        <ele>8.2</ele>
        <time>2019-08-15T10:46:44Z</time>
      </trkpt>
      <trkpt lat="41.0409220" lon="-8.6499840">
        <ele>8.2</ele>
        <time>2019-08-15T10:46:50Z</time>
      </trkpt>
      <trkpt lat="41.0409310" lon="-8.6499720">
        <ele>8.2</ele>
        <time>2019-08-15T10:46:51Z</time>
      </trkpt>
      <trkpt lat="41.0408760" lon="-8.6498920">
        <ele>8.1</ele>
        <time>2019-08-15T10:46:56Z</time>
      </trkpt>
      <trkpt lat="41.0408570" lon="-8.6498780">
        <ele>8.1</ele>
        <time>2019-08-15T10:46:57Z</time>
      </trkpt>
      <trkpt lat="41.0408610" lon="-8.6497010">
        <ele>8.2</ele>
        <time>2019-08-15T10:47:01Z</time>
      </trkpt>
      <trkpt lat="41.0409330" lon="-8.6494440">
        <ele>8.7</ele>
        <time>2019-08-15T10:47:06Z</time>
      </trkpt>
      <trkpt lat="41.0409810" lon="-8.6492930">
        <ele>9.0</ele>
        <time>2019-08-15T10:47:09Z</time>
      </trkpt>
      <trkpt lat="41.0410020" lon="-8.6492010">
        <ele>9.2</ele>
        <time>2019-08-15T10:47:11Z</time>
      </trkpt>
      <trkpt lat="41.0410070" lon="-8.6491710">
        <ele>9.3</ele>
        <time>2019-08-15T10:47:12Z</time>
      </trkpt>
      <trkpt lat="41.0410140" lon="-8.6491460">
        <ele>9.3</ele>
        <time>2019-08-15T10:47:13Z</time>
      </trkpt>
      <trkpt lat="41.0410140" lon="-8.6491280">
        <ele>9.4</ele>
        <time>2019-08-15T10:47:14Z</time>
      </trkpt>
      <trkpt lat="41.0410170" lon="-8.6491120">
        <ele>9.4</ele>
        <time>2019-08-15T10:47:15Z</time>
      </trkpt>
      <trkpt lat="41.0410170" lon="-8.6490990">
        <ele>9.4</ele>
        <time>2019-08-15T10:47:18Z</time>
      </trkpt>
      <trkpt lat="41.0410330" lon="-8.6490860">
        <ele>9.5</ele>
        <time>2019-08-15T10:47:28Z</time>
      </trkpt>
      <trkpt lat="41.0410370" lon="-8.6490740">
        <ele>9.5</ele>
        <time>2019-08-15T10:47:29Z</time>
      </trkpt>
      <trkpt lat="41.0410700" lon="-8.6489830">
        <ele>9.7</ele>
        <time>2019-08-15T10:47:34Z</time>
      </trkpt>
      <trkpt lat="41.0410830" lon="-8.6489880">
        <ele>9.8</ele>
        <time>2019-08-15T10:47:36Z</time>
      </trkpt>
      <trkpt lat="41.0411860" lon="-8.6490420">
        <ele>9.8</ele>
        <time>2019-08-15T10:47:42Z</time>
      </trkpt>
      <trkpt lat="41.0413730" lon="-8.6491240">
        <ele>10.1</ele>
        <time>2019-08-15T10:47:48Z</time>
      </trkpt>
      <trkpt lat="41.0417080" lon="-8.6492520">
        <ele>10.4</ele>
        <time>2019-08-15T10:47:56Z</time>
      </trkpt>
      <trkpt lat="41.0420400" lon="-8.6493450">
        <ele>9.7</ele>
        <time>2019-08-15T10:48:03Z</time>
      </trkpt>
      <trkpt lat="41.0424710" lon="-8.6494790">
        <ele>9.3</ele>
        <time>2019-08-15T10:48:11Z</time>
      </trkpt>
      <trkpt lat="41.0428170" lon="-8.6496110">
        <ele>8.6</ele>
        <time>2019-08-15T10:48:17Z</time>
      </trkpt>
      <trkpt lat="41.0433140" lon="-8.6497860">
        <ele>8.2</ele>
        <time>2019-08-15T10:48:25Z</time>
      </trkpt>
      <trkpt lat="41.0438450" lon="-8.6499600">
        <ele>8.1</ele>
        <time>2019-08-15T10:48:33Z</time>
      </trkpt>
      <trkpt lat="41.0439120" lon="-8.6499860">
        <ele>8.1</ele>
        <time>2019-08-15T10:48:34Z</time>
      </trkpt>
      <trkpt lat="41.0444850" lon="-8.6502110">
        <ele>8.4</ele>
        <time>2019-08-15T10:48:44Z</time>
      </trkpt>
      <trkpt lat="41.0448680" lon="-8.6503570">
        <ele>8.8</ele>
        <time>2019-08-15T10:48:51Z</time>
      </trkpt>
      <trkpt lat="41.0449020" lon="-8.6503960">
        <ele>8.8</ele>
        <time>2019-08-15T10:48:52Z</time>
      </trkpt>
      <trkpt lat="41.0448740" lon="-8.6505830">
        <ele>8.1</ele>
        <time>2019-08-15T10:48:55Z</time>
      </trkpt>
      <trkpt lat="41.0448400" lon="-8.6507790">
        <ele>7.3</ele>
        <time>2019-08-15T10:48:58Z</time>
      </trkpt>
      <trkpt lat="41.0448340" lon="-8.6508430">
        <ele>7.0</ele>
        <time>2019-08-15T10:48:59Z</time>
      </trkpt>
      <trkpt lat="41.0448150" lon="-8.6509750">
        <ele>6.7</ele>
        <time>2019-08-15T10:49:01Z</time>
      </trkpt>
      <trkpt lat="41.0447510" lon="-8.6512830">
        <ele>6.1</ele>
        <time>2019-08-15T10:49:06Z</time>
      </trkpt>
      <trkpt lat="41.0447630" lon="-8.6513270">
        <ele>6.1</ele>
        <time>2019-08-15T10:49:07Z</time>
      </trkpt>
      <trkpt lat="41.0448230" lon="-8.6514670">
        <ele>5.6</ele>
        <time>2019-08-15T10:49:11Z</time>
      </trkpt>
      <trkpt lat="41.0450700" lon="-8.6515430">
        <ele>5.6</ele>
        <time>2019-08-15T10:49:17Z</time>
      </trkpt>
      <trkpt lat="41.0454070" lon="-8.6516580">
        <ele>6.1</ele>
        <time>2019-08-15T10:49:24Z</time>
      </trkpt>
      <trkpt lat="41.0457710" lon="-8.6517790">
        <ele>6.9</ele>
        <time>2019-08-15T10:49:32Z</time>
      </trkpt>
      <trkpt lat="41.0461240" lon="-8.6519050">
        <ele>7.6</ele>
        <time>2019-08-15T10:49:41Z</time>
      </trkpt>
      <trkpt lat="41.0465710" lon="-8.6520410">
        <ele>7.7</ele>
        <time>2019-08-15T10:49:52Z</time>
      </trkpt>
      <trkpt lat="41.0469870" lon="-8.6521940">
        <ele>7.5</ele>
        <time>2019-08-15T10:50:02Z</time>
      </trkpt>
      <trkpt lat="41.0474870" lon="-8.6523510">
        <ele>6.9</ele>
        <time>2019-08-15T10:50:14Z</time>
      </trkpt>
      <trkpt lat="41.0478320" lon="-8.6524600">
        <ele>6.8</ele>
        <time>2019-08-15T10:50:22Z</time>
      </trkpt>
      <trkpt lat="41.0482020" lon="-8.6525930">
        <ele>6.9</ele>
        <time>2019-08-15T10:50:31Z</time>
      </trkpt>
      <trkpt lat="41.0486380" lon="-8.6527320">
        <ele>7.3</ele>
        <time>2019-08-15T10:50:42Z</time>
      </trkpt>
      <trkpt lat="41.0489540" lon="-8.6528260">
        <ele>7.5</ele>
        <time>2019-08-15T10:50:50Z</time>
      </trkpt>
      <trkpt lat="41.0491380" lon="-8.6529000">
        <ele>7.5</ele>
        <time>2019-08-15T10:50:57Z</time>
      </trkpt>
      <trkpt lat="41.0492060" lon="-8.6530720">
        <ele>7.2</ele>
        <time>2019-08-15T10:51:02Z</time>
      </trkpt>
      <trkpt lat="41.0493740" lon="-8.6532920">
        <ele>7.1</ele>
        <time>2019-08-15T10:51:08Z</time>
      </trkpt>
      <trkpt lat="41.0494010" lon="-8.6533160">
        <ele>7.1</ele>
        <time>2019-08-15T10:51:09Z</time>
      </trkpt>
      <trkpt lat="41.0494220" lon="-8.6533410">
        <ele>7.1</ele>
        <time>2019-08-15T10:51:11Z</time>
      </trkpt>
      <trkpt lat="41.0495150" lon="-8.6533420">
        <ele>7.2</ele>
        <time>2019-08-15T10:51:18Z</time>
      </trkpt>
      <trkpt lat="41.0496580" lon="-8.6532640">
        <ele>7.3</ele>
        <time>2019-08-15T10:51:23Z</time>
      </trkpt>
      <trkpt lat="41.0497590" lon="-8.6531700">
        <ele>7.4</ele>
        <time>2019-08-15T10:51:28Z</time>
      </trkpt>
      <trkpt lat="41.0498960" lon="-8.6531250">
        <ele>7.5</ele>
        <time>2019-08-15T10:51:33Z</time>
      </trkpt>
      <trkpt lat="41.0501560" lon="-8.6532140">
        <ele>7.8</ele>
        <time>2019-08-15T10:51:41Z</time>
      </trkpt>
      <trkpt lat="41.0504620" lon="-8.6533350">
        <ele>8.1</ele>
        <time>2019-08-15T10:51:50Z</time>
      </trkpt>
      <trkpt lat="41.0508170" lon="-8.6534390">
        <ele>9.0</ele>
        <time>2019-08-15T10:52:00Z</time>
      </trkpt>
      <trkpt lat="41.0511730" lon="-8.6535710">
        <ele>9.2</ele>
        <time>2019-08-15T10:52:09Z</time>
      </trkpt>
      <trkpt lat="41.0515610" lon="-8.6536860">
        <ele>9.3</ele>
        <time>2019-08-15T10:52:18Z</time>
      </trkpt>
      <trkpt lat="41.0516870" lon="-8.6537260">
        <ele>9.3</ele>
        <time>2019-08-15T10:52:21Z</time>
      </trkpt>
      <trkpt lat="41.0518930" lon="-8.6537790">
        <ele>9.3</ele>
        <time>2019-08-15T10:52:26Z</time>
      </trkpt>
      <trkpt lat="41.0522200" lon="-8.6538890">
        <ele>9.3</ele>
        <time>2019-08-15T10:52:34Z</time>
      </trkpt>
      <trkpt lat="41.0526100" lon="-8.6540230">
        <ele>8.9</ele>
        <time>2019-08-15T10:52:43Z</time>
      </trkpt>
      <trkpt lat="41.0527730" lon="-8.6540800">
        <ele>8.7</ele>
        <time>2019-08-15T10:52:47Z</time>
      </trkpt>
      <trkpt lat="41.0528140" lon="-8.6540940">
        <ele>8.7</ele>
        <time>2019-08-15T10:52:48Z</time>
      </trkpt>
      <trkpt lat="41.0528570" lon="-8.6541080">
        <ele>8.7</ele>
        <time>2019-08-15T10:52:49Z</time>
      </trkpt>
      <trkpt lat="41.0528970" lon="-8.6541210">
        <ele>8.7</ele>
        <time>2019-08-15T10:52:50Z</time>
      </trkpt>
      <trkpt lat="41.0529380" lon="-8.6541330">
        <ele>8.7</ele>
        <time>2019-08-15T10:52:51Z</time>
      </trkpt>
      <trkpt lat="41.0529800" lon="-8.6541450">
        <ele>8.6</ele>
        <time>2019-08-15T10:52:52Z</time>
      </trkpt>
      <trkpt lat="41.0533540" lon="-8.6542770">
        <ele>8.6</ele>
        <time>2019-08-15T10:53:01Z</time>
      </trkpt>
      <trkpt lat="41.0537630" lon="-8.6544050">
        <ele>8.6</ele>
        <time>2019-08-15T10:53:11Z</time>
      </trkpt>
      <trkpt lat="41.0541090" lon="-8.6545230">
        <ele>8.5</ele>
        <time>2019-08-15T10:53:19Z</time>
      </trkpt>
      <trkpt lat="41.0546050" lon="-8.6547010">
        <ele>7.9</ele>
        <time>2019-08-15T10:53:29Z</time>
      </trkpt>
      <trkpt lat="41.0550360" lon="-8.6548400">
        <ele>7.4</ele>
        <time>2019-08-15T10:53:38Z</time>
      </trkpt>
      <trkpt lat="41.0550850" lon="-8.6548600">
        <ele>7.4</ele>
        <time>2019-08-15T10:53:39Z</time>
      </trkpt>
      <trkpt lat="41.0551340" lon="-8.6548790">
        <ele>7.4</ele>
        <time>2019-08-15T10:53:40Z</time>
      </trkpt>
      <trkpt lat="41.0551820" lon="-8.6548940">
        <ele>7.4</ele>
        <time>2019-08-15T10:53:41Z</time>
      </trkpt>
      <trkpt lat="41.0552340" lon="-8.6549070">
        <ele>7.4</ele>
        <time>2019-08-15T10:53:42Z</time>
      </trkpt>
      <trkpt lat="41.0557770" lon="-8.6551040">
        <ele>7.2</ele>
        <time>2019-08-15T10:53:53Z</time>
      </trkpt>
      <trkpt lat="41.0563240" lon="-8.6552900">
        <ele>7.1</ele>
        <time>2019-08-15T10:54:04Z</time>
      </trkpt>
      <trkpt lat="41.0563740" lon="-8.6553090">
        <ele>7.1</ele>
        <time>2019-08-15T10:54:05Z</time>
      </trkpt>
      <trkpt lat="41.0569290" lon="-8.6555050">
        <ele>6.8</ele>
        <time>2019-08-15T10:54:16Z</time>
      </trkpt>
      <trkpt lat="41.0569790" lon="-8.6555200">
        <ele>6.8</ele>
        <time>2019-08-15T10:54:17Z</time>
      </trkpt>
      <trkpt lat="41.0575240" lon="-8.6557050">
        <ele>6.6</ele>
        <time>2019-08-15T10:54:28Z</time>
      </trkpt>
      <trkpt lat="41.0578410" lon="-8.6558010">
        <ele>6.1</ele>
        <time>2019-08-15T10:54:35Z</time>
      </trkpt>
      <trkpt lat="41.0579230" lon="-8.6558100">
        <ele>6.1</ele>
        <time>2019-08-15T10:54:37Z</time>
      </trkpt>
      <trkpt lat="41.0579640" lon="-8.6558090">
        <ele>6.0</ele>
        <time>2019-08-15T10:54:38Z</time>
      </trkpt>
      <trkpt lat="41.0580810" lon="-8.6557870">
        <ele>6.1</ele>
        <time>2019-08-15T10:54:41Z</time>
      </trkpt>
      <trkpt lat="41.0581510" lon="-8.6557420">
        <ele>6.2</ele>
        <time>2019-08-15T10:54:43Z</time>
      </trkpt>
      <trkpt lat="41.0583440" lon="-8.6555660">
        <ele>6.8</ele>
        <time>2019-08-15T10:54:49Z</time>
      </trkpt>
      <trkpt lat="41.0584540" lon="-8.6551990">
        <ele>7.8</ele>
        <time>2019-08-15T10:54:56Z</time>
      </trkpt>
      <trkpt lat="41.0584830" lon="-8.6549950">
        <ele>8.4</ele>
        <time>2019-08-15T10:55:00Z</time>
      </trkpt>
      <trkpt lat="41.0584900" lon="-8.6549440">
        <ele>8.5</ele>
        <time>2019-08-15T10:55:01Z</time>
      </trkpt>
      <trkpt lat="41.0584950" lon="-8.6548950">
        <ele>8.6</ele>
        <time>2019-08-15T10:55:02Z</time>
      </trkpt>
      <trkpt lat="41.0585020" lon="-8.6548470">
        <ele>8.7</ele>
        <time>2019-08-15T10:55:03Z</time>
      </trkpt>
      <trkpt lat="41.0585080" lon="-8.6547990">
        <ele>8.9</ele>
        <time>2019-08-15T10:55:04Z</time>
      </trkpt>
      <trkpt lat="41.0585610" lon="-8.6543620">
        <ele>10.0</ele>
        <time>2019-08-15T10:55:13Z</time>
      </trkpt>
      <trkpt lat="41.0586260" lon="-8.6541480">
        <ele>10.5</ele>
        <time>2019-08-15T10:55:18Z</time>
      </trkpt>
      <trkpt lat="41.0586640" lon="-8.6541310">
        <ele>10.4</ele>
        <time>2019-08-15T10:55:19Z</time>
      </trkpt>
      <trkpt lat="41.0587010" lon="-8.6541290">
        <ele>10.4</ele>
        <time>2019-08-15T10:55:20Z</time>
      </trkpt>
      <trkpt lat="41.0587400" lon="-8.6541330">
        <ele>10.4</ele>
        <time>2019-08-15T10:55:21Z</time>
      </trkpt>
      <trkpt lat="41.0587860" lon="-8.6541420">
        <ele>10.4</ele>
        <time>2019-08-15T10:55:22Z</time>
      </trkpt>
      <trkpt lat="41.0588340" lon="-8.6541530">
        <ele>10.3</ele>
        <time>2019-08-15T10:55:23Z</time>
      </trkpt>
      <trkpt lat="41.0591740" lon="-8.6541940">
        <ele>10.3</ele>
        <time>2019-08-15T10:55:30Z</time>
      </trkpt>
      <trkpt lat="41.0592180" lon="-8.6541940">
        <ele>10.3</ele>
        <time>2019-08-15T10:55:31Z</time>
      </trkpt>
      <trkpt lat="41.0595120" lon="-8.6542150">
        <ele>10.3</ele>
        <time>2019-08-15T10:55:37Z</time>
      </trkpt>
      <trkpt lat="41.0598900" lon="-8.6542240">
        <ele>10.3</ele>
        <time>2019-08-15T10:55:44Z</time>
      </trkpt>
      <trkpt lat="41.0603470" lon="-8.6541910">
        <ele>10.0</ele>
        <time>2019-08-15T10:55:52Z</time>
      </trkpt>
      <trkpt lat="41.0607790" lon="-8.6541040">
        <ele>9.8</ele>
        <time>2019-08-15T10:56:00Z</time>
      </trkpt>
      <trkpt lat="41.0613180" lon="-8.6539390">
        <ele>10.0</ele>
        <time>2019-08-15T10:56:10Z</time>
      </trkpt>
      <trkpt lat="41.0617480" lon="-8.6537540">
        <ele>10.3</ele>
        <time>2019-08-15T10:56:18Z</time>
      </trkpt>
      <trkpt lat="41.0620540" lon="-8.6536420">
        <ele>10.5</ele>
        <time>2019-08-15T10:56:25Z</time>
      </trkpt>
      <trkpt lat="41.0622830" lon="-8.6534860">
        <ele>10.5</ele>
        <time>2019-08-15T10:56:32Z</time>
      </trkpt>
      <trkpt lat="41.0626020" lon="-8.6532790">
        <ele>10.6</ele>
        <time>2019-08-15T10:56:40Z</time>
      </trkpt>
      <trkpt lat="41.0629110" lon="-8.6530650">
        <ele>10.7</ele>
        <time>2019-08-15T10:56:47Z</time>
      </trkpt>
      <trkpt lat="41.0630460" lon="-8.6529740">
        <ele>10.7</ele>
        <time>2019-08-15T10:56:50Z</time>
      </trkpt>
      <trkpt lat="41.0631780" lon="-8.6528750">
        <ele>10.7</ele>
        <time>2019-08-15T10:56:53Z</time>
      </trkpt>
      <trkpt lat="41.0634110" lon="-8.6527830">
        <ele>10.6</ele>
        <time>2019-08-15T10:56:58Z</time>
      </trkpt>
      <trkpt lat="41.0634560" lon="-8.6527740">
        <ele>10.5</ele>
        <time>2019-08-15T10:56:59Z</time>
      </trkpt>
      <trkpt lat="41.0636850" lon="-8.6527530">
        <ele>10.4</ele>
        <time>2019-08-15T10:57:05Z</time>
      </trkpt>
      <trkpt lat="41.0638550" lon="-8.6527350">
        <ele>10.2</ele>
        <time>2019-08-15T10:57:11Z</time>
      </trkpt>
      <trkpt lat="41.0638800" lon="-8.6527320">
        <ele>10.2</ele>
        <time>2019-08-15T10:57:12Z</time>
      </trkpt>
      <trkpt lat="41.0639080" lon="-8.6527250">
        <ele>10.1</ele>
        <time>2019-08-15T10:57:13Z</time>
      </trkpt>
      <trkpt lat="41.0639420" lon="-8.6527170">
        <ele>10.1</ele>
        <time>2019-08-15T10:57:14Z</time>
      </trkpt>
      <trkpt lat="41.0639790" lon="-8.6527060">
        <ele>10.0</ele>
        <time>2019-08-15T10:57:15Z</time>
      </trkpt>
      <trkpt lat="41.0640610" lon="-8.6526960">
        <ele>9.9</ele>
        <time>2019-08-15T10:57:17Z</time>
      </trkpt>
      <trkpt lat="41.0643820" lon="-8.6526880">
        <ele>9.3</ele>
        <time>2019-08-15T10:57:24Z</time>
      </trkpt>
      <trkpt lat="41.0644800" lon="-8.6526900">
        <ele>9.1</ele>
        <time>2019-08-15T10:57:26Z</time>
      </trkpt>
      <trkpt lat="41.0645140" lon="-8.6526880">
        <ele>9.0</ele>
        <time>2019-08-15T10:57:27Z</time>
      </trkpt>
      <trkpt lat="41.0645400" lon="-8.6526910">
        <ele>8.9</ele>
        <time>2019-08-15T10:57:28Z</time>
      </trkpt>
      <trkpt lat="41.0645600" lon="-8.6526920">
        <ele>8.9</ele>
        <time>2019-08-15T10:57:29Z</time>
      </trkpt>
      <trkpt lat="41.0645830" lon="-8.6526890">
        <ele>8.9</ele>
        <time>2019-08-15T10:57:30Z</time>
      </trkpt>
      <trkpt lat="41.0645950" lon="-8.6526810">
        <ele>8.8</ele>
        <time>2019-08-15T10:57:31Z</time>
      </trkpt>
      <trkpt lat="41.0646150" lon="-8.6526210">
        <ele>8.7</ele>
        <time>2019-08-15T10:57:33Z</time>
      </trkpt>
      <trkpt lat="41.0648360" lon="-8.6525580">
        <ele>8.4</ele>
        <time>2019-08-15T10:57:39Z</time>
      </trkpt>
      <trkpt lat="41.0648870" lon="-8.6525800">
        <ele>8.3</ele>
        <time>2019-08-15T10:57:40Z</time>
      </trkpt>
      <trkpt lat="41.0649820" lon="-8.6525710">
        <ele>8.2</ele>
        <time>2019-08-15T10:57:42Z</time>
      </trkpt>
      <trkpt lat="41.0651750" lon="-8.6525470">
        <ele>8.1</ele>
        <time>2019-08-15T10:57:46Z</time>
      </trkpt>
      <trkpt lat="41.0653610" lon="-8.6525410">
        <ele>8.1</ele>
        <time>2019-08-15T10:57:50Z</time>
      </trkpt>
      <trkpt lat="41.0657330" lon="-8.6525290">
        <ele>8.4</ele>
        <time>2019-08-15T10:57:57Z</time>
      </trkpt>
      <trkpt lat="41.0659440" lon="-8.6525000">
        <ele>8.8</ele>
        <time>2019-08-15T10:58:01Z</time>
      </trkpt>
      <trkpt lat="41.0660270" lon="-8.6524890">
        <ele>8.9</ele>
        <time>2019-08-15T10:58:03Z</time>
      </trkpt>
      <trkpt lat="41.0661740" lon="-8.6524820">
        <ele>9.2</ele>
        <time>2019-08-15T10:58:08Z</time>
      </trkpt>
      <trkpt lat="41.0662270" lon="-8.6525090">
        <ele>9.3</ele>
        <time>2019-08-15T10:58:12Z</time>
      </trkpt>
      <trkpt lat="41.0662250" lon="-8.6525360">
        <ele>9.3</ele>
        <time>2019-08-15T10:58:13Z</time>
      </trkpt>
      <trkpt lat="41.0661970" lon="-8.6527090">
        <ele>9.2</ele>
        <time>2019-08-15T10:58:17Z</time>
      </trkpt>
      <trkpt lat="41.0661220" lon="-8.6531570">
        <ele>8.2</ele>
        <time>2019-08-15T10:58:24Z</time>
      </trkpt>
      <trkpt lat="41.0660650" lon="-8.6536560">
        <ele>7.3</ele>
        <time>2019-08-15T10:58:31Z</time>
      </trkpt>
      <trkpt lat="41.0660220" lon="-8.6538470">
        <ele>7.0</ele>
        <time>2019-08-15T10:58:35Z</time>
      </trkpt>
      <trkpt lat="41.0660190" lon="-8.6539650">
        <ele>6.9</ele>
        <time>2019-08-15T10:58:38Z</time>
      </trkpt>
      <trkpt lat="41.0660160" lon="-8.6540040">
        <ele>6.8</ele>
        <time>2019-08-15T10:58:39Z</time>
      </trkpt>
      <trkpt lat="41.0660130" lon="-8.6540440">
        <ele>6.7</ele>
        <time>2019-08-15T10:58:40Z</time>
      </trkpt>
      <trkpt lat="41.0660080" lon="-8.6540860">
        <ele>6.7</ele>
        <time>2019-08-15T10:58:41Z</time>
      </trkpt>
      <trkpt lat="41.0660050" lon="-8.6541360">
        <ele>6.6</ele>
        <time>2019-08-15T10:58:42Z</time>
      </trkpt>
      <trkpt lat="41.0659640" lon="-8.6544250">
        <ele>6.1</ele>
        <time>2019-08-15T10:58:47Z</time>
      </trkpt>
      <trkpt lat="41.0659400" lon="-8.6546360">
        <ele>5.9</ele>
        <time>2019-08-15T10:58:50Z</time>
      </trkpt>
      <trkpt lat="41.0659340" lon="-8.6548320">
        <ele>5.8</ele>
        <time>2019-08-15T10:58:53Z</time>
      </trkpt>
      <trkpt lat="41.0658880" lon="-8.6550890">
        <ele>5.7</ele>
        <time>2019-08-15T10:58:58Z</time>
      </trkpt>
      <trkpt lat="41.0658780" lon="-8.6552900">
        <ele>5.5</ele>
        <time>2019-08-15T10:59:04Z</time>
      </trkpt>
      <trkpt lat="41.0659260" lon="-8.6555250">
        <ele>5.0</ele>
        <time>2019-08-15T10:59:10Z</time>
      </trkpt>
      <trkpt lat="41.0661060" lon="-8.6557390">
        <ele>4.1</ele>
        <time>2019-08-15T10:59:16Z</time>
      </trkpt>
      <trkpt lat="41.0662680" lon="-8.6559710">
        <ele>3.8</ele>
        <time>2019-08-15T10:59:23Z</time>
      </trkpt>
      <trkpt lat="41.0663540" lon="-8.6559910">
        <ele>4.8</ele>
        <time>2019-08-15T10:59:26Z</time>
      </trkpt>
      <trkpt lat="41.0663730" lon="-8.6559740">
        <ele>4.8</ele>
        <time>2019-08-15T10:59:27Z</time>
      </trkpt>
      <trkpt lat="41.0664520" lon="-8.6559620">
        <ele>4.9</ele>
        <time>2019-08-15T10:59:30Z</time>
      </trkpt>
      <trkpt lat="41.0665150" lon="-8.6559760">
        <ele>4.8</ele>
        <time>2019-08-15T10:59:32Z</time>
      </trkpt>
      <trkpt lat="41.0667550" lon="-8.6560850">
        <ele>4.6</ele>
        <time>2019-08-15T10:59:39Z</time>
      </trkpt>
      <trkpt lat="41.0669450" lon="-8.6562170">
        <ele>4.3</ele>
        <time>2019-08-15T10:59:46Z</time>
      </trkpt>
      <trkpt lat="41.0670720" lon="-8.6562850">
        <ele>4.3</ele>
        <time>2019-08-15T10:59:50Z</time>
      </trkpt>
      <trkpt lat="41.0672110" lon="-8.6562050">
        <ele>4.3</ele>
        <time>2019-08-15T10:59:54Z</time>
      </trkpt>
      <trkpt lat="41.0673290" lon="-8.6561570">
        <ele>4.3</ele>
        <time>2019-08-15T10:59:57Z</time>
      </trkpt>
      <trkpt lat="41.0674080" lon="-8.6561580">
        <ele>4.2</ele>
        <time>2019-08-15T10:59:59Z</time>
      </trkpt>
      <trkpt lat="41.0677110" lon="-8.6562370">
        <ele>4.0</ele>
        <time>2019-08-15T11:00:07Z</time>
      </trkpt>
      <trkpt lat="41.0679810" lon="-8.6563220">
        <ele>3.7</ele>
        <time>2019-08-15T11:00:16Z</time>
      </trkpt>
      <trkpt lat="41.0681940" lon="-8.6563800">
        <ele>3.4</ele>
        <time>2019-08-15T11:00:25Z</time>
      </trkpt>
      <trkpt lat="41.0683850" lon="-8.6564280">
        <ele>3.3</ele>
        <time>2019-08-15T11:00:31Z</time>
      </trkpt>
      <trkpt lat="41.0685950" lon="-8.6565320">
        <ele>3.1</ele>
        <time>2019-08-15T11:00:39Z</time>
      </trkpt>
      <trkpt lat="41.0686730" lon="-8.6565960">
        <ele>3.1</ele>
        <time>2019-08-15T11:00:45Z</time>
      </trkpt>
      <trkpt lat="41.0687800" lon="-8.6566290">
        <ele>3.5</ele>
        <time>2019-08-15T11:00:53Z</time>
      </trkpt>
      <trkpt lat="41.0688240" lon="-8.6566570">
        <ele>3.7</ele>
        <time>2019-08-15T11:01:00Z</time>
      </trkpt>
      <trkpt lat="41.0688270" lon="-8.6566560">
        <ele>3.7</ele>
        <time>2019-08-15T11:02:45Z</time>
      </trkpt>
      <trkpt lat="41.0688340" lon="-8.6566620">
        <ele>3.7</ele>
        <time>2019-08-15T11:02:46Z</time>
      </trkpt>
      <trkpt lat="41.0688530" lon="-8.6566560">
        <ele>3.8</ele>
        <time>2019-08-15T11:02:47Z</time>
      </trkpt>
      <trkpt lat="41.0689530" lon="-8.6566490">
        <ele>4.4</ele>
        <time>2019-08-15T11:02:51Z</time>
      </trkpt>
      <trkpt lat="41.0690640" lon="-8.6566260">
        <ele>4.8</ele>
        <time>2019-08-15T11:02:56Z</time>
      </trkpt>
      <trkpt lat="41.0690880" lon="-8.6566330">
        <ele>4.9</ele>
        <time>2019-08-15T11:02:57Z</time>
      </trkpt>
      <trkpt lat="41.0692990" lon="-8.6566390">
        <ele>5.2</ele>
        <time>2019-08-15T11:03:06Z</time>
      </trkpt>
      <trkpt lat="41.0694150" lon="-8.6566220">
        <ele>5.3</ele>
        <time>2019-08-15T11:03:13Z</time>
      </trkpt>
      <trkpt lat="41.0695300" lon="-8.6564590">
        <ele>5.4</ele>
        <time>2019-08-15T11:03:19Z</time>
      </trkpt>
      <trkpt lat="41.0696250" lon="-8.6562250">
        <ele>5.6</ele>
        <time>2019-08-15T11:03:26Z</time>
      </trkpt>
      <trkpt lat="41.0696940" lon="-8.6559830">
        <ele>6.1</ele>
        <time>2019-08-15T11:03:33Z</time>
      </trkpt>
      <trkpt lat="41.0697690" lon="-8.6558120">
        <ele>6.9</ele>
        <time>2019-08-15T11:03:39Z</time>
      </trkpt>
      <trkpt lat="41.0698850" lon="-8.6555150">
        <ele>7.8</ele>
        <time>2019-08-15T11:03:48Z</time>
      </trkpt>
      <trkpt lat="41.0700150" lon="-8.6552850">
        <ele>8.4</ele>
        <time>2019-08-15T11:03:56Z</time>
      </trkpt>
      <trkpt lat="41.0701470" lon="-8.6552560">
        <ele>8.6</ele>
        <time>2019-08-15T11:04:01Z</time>
      </trkpt>
      <trkpt lat="41.0703130" lon="-8.6553080">
        <ele>8.4</ele>
        <time>2019-08-15T11:04:07Z</time>
      </trkpt>
      <trkpt lat="41.0705820" lon="-8.6553950">
        <ele>7.7</ele>
        <time>2019-08-15T11:04:16Z</time>
      </trkpt>
      <trkpt lat="41.0708240" lon="-8.6554730">
        <ele>7.2</ele>
        <time>2019-08-15T11:04:24Z</time>
      </trkpt>
      <trkpt lat="41.0708550" lon="-8.6554810">
        <ele>7.2</ele>
        <time>2019-08-15T11:04:25Z</time>
      </trkpt>
      <trkpt lat="41.0708830" lon="-8.6554900">
        <ele>7.1</ele>
        <time>2019-08-15T11:04:26Z</time>
      </trkpt>
      <trkpt lat="41.0709140" lon="-8.6554990">
        <ele>7.2</ele>
        <time>2019-08-15T11:04:27Z</time>
      </trkpt>
      <trkpt lat="41.0709450" lon="-8.6555100">
        <ele>7.2</ele>
        <time>2019-08-15T11:04:28Z</time>
      </trkpt>
      <trkpt lat="41.0711820" lon="-8.6555920">
        <ele>7.4</ele>
        <time>2019-08-15T11:04:35Z</time>
      </trkpt>
      <trkpt lat="41.0714630" lon="-8.6556810">
        <ele>7.5</ele>
        <time>2019-08-15T11:04:43Z</time>
      </trkpt>
      <trkpt lat="41.0717410" lon="-8.6557810">
        <ele>8.3</ele>
        <time>2019-08-15T11:04:51Z</time>
      </trkpt>
      <trkpt lat="41.0720260" lon="-8.6558500">
        <ele>9.2</ele>
        <time>2019-08-15T11:04:59Z</time>
      </trkpt>
      <trkpt lat="41.0720590" lon="-8.6558300">
        <ele>9.2</ele>
        <time>2019-08-15T11:05:00Z</time>
      </trkpt>
      <trkpt lat="41.0720960" lon="-8.6557460">
        <ele>9.2</ele>
        <time>2019-08-15T11:05:02Z</time>
      </trkpt>
      <trkpt lat="41.0721180" lon="-8.6556440">
        <ele>9.2</ele>
        <time>2019-08-15T11:05:04Z</time>
      </trkpt>
      <trkpt lat="41.0721680" lon="-8.6554020">
        <ele>8.9</ele>
        <time>2019-08-15T11:05:09Z</time>
      </trkpt>
      <trkpt lat="41.0722980" lon="-8.6550510">
        <ele>9.4</ele>
        <time>2019-08-15T11:05:17Z</time>
      </trkpt>
      <trkpt lat="41.0724120" lon="-8.6550900">
        <ele>9.4</ele>
        <time>2019-08-15T11:05:20Z</time>
      </trkpt>
      <trkpt lat="41.0724500" lon="-8.6551070">
        <ele>9.4</ele>
        <time>2019-08-15T11:05:21Z</time>
      </trkpt>
      <trkpt lat="41.0727340" lon="-8.6551880">
        <ele>9.1</ele>
        <time>2019-08-15T11:05:28Z</time>
      </trkpt>
      <trkpt lat="41.0732230" lon="-8.6553730">
        <ele>7.2</ele>
        <time>2019-08-15T11:05:40Z</time>
      </trkpt>
      <trkpt lat="41.0735990" lon="-8.6555030">
        <ele>6.8</ele>
        <time>2019-08-15T11:05:48Z</time>
      </trkpt>
      <trkpt lat="41.0742740" lon="-8.6557680">
        <ele>6.3</ele>
        <time>2019-08-15T11:06:02Z</time>
      </trkpt>
      <trkpt lat="41.0743250" lon="-8.6557830">
        <ele>6.2</ele>
        <time>2019-08-15T11:06:03Z</time>
      </trkpt>
      <trkpt lat="41.0743800" lon="-8.6557940">
        <ele>6.2</ele>
        <time>2019-08-15T11:06:04Z</time>
      </trkpt>
      <trkpt lat="41.0746380" lon="-8.6558610">
        <ele>6.0</ele>
        <time>2019-08-15T11:06:09Z</time>
      </trkpt>
      <trkpt lat="41.0750950" lon="-8.6559860">
        <ele>5.6</ele>
        <time>2019-08-15T11:06:18Z</time>
      </trkpt>
      <trkpt lat="41.0752370" lon="-8.6559640">
        <ele>5.3</ele>
        <time>2019-08-15T11:06:21Z</time>
      </trkpt>
      <trkpt lat="41.0752810" lon="-8.6559500">
        <ele>5.2</ele>
        <time>2019-08-15T11:06:22Z</time>
      </trkpt>
      <trkpt lat="41.0753250" lon="-8.6559280">
        <ele>5.1</ele>
        <time>2019-08-15T11:06:23Z</time>
      </trkpt>
      <trkpt lat="41.0753670" lon="-8.6559050">
        <ele>5.0</ele>
        <time>2019-08-15T11:06:24Z</time>
      </trkpt>
      <trkpt lat="41.0754110" lon="-8.6558700">
        <ele>4.9</ele>
        <time>2019-08-15T11:06:25Z</time>
      </trkpt>
      <trkpt lat="41.0755540" lon="-8.6557410">
        <ele>4.7</ele>
        <time>2019-08-15T11:06:29Z</time>
      </trkpt>
      <trkpt lat="41.0755850" lon="-8.6556980">
        <ele>4.7</ele>
        <time>2019-08-15T11:06:30Z</time>
      </trkpt>
      <trkpt lat="41.0757030" lon="-8.6554280">
        <ele>4.6</ele>
        <time>2019-08-15T11:06:35Z</time>
      </trkpt>
      <trkpt lat="41.0758150" lon="-8.6551070">
        <ele>4.7</ele>
        <time>2019-08-15T11:06:41Z</time>
      </trkpt>
      <trkpt lat="41.0758520" lon="-8.6550710">
        <ele>4.8</ele>
        <time>2019-08-15T11:06:42Z</time>
      </trkpt>
      <trkpt lat="41.0759860" lon="-8.6550570">
        <ele>4.8</ele>
        <time>2019-08-15T11:06:45Z</time>
      </trkpt>
      <trkpt lat="41.0760310" lon="-8.6550710">
        <ele>4.9</ele>
        <time>2019-08-15T11:06:46Z</time>
      </trkpt>
      <trkpt lat="41.0764050" lon="-8.6552000">
        <ele>4.9</ele>
        <time>2019-08-15T11:06:54Z</time>
      </trkpt>
      <trkpt lat="41.0768790" lon="-8.6553600">
        <ele>4.9</ele>
        <time>2019-08-15T11:07:04Z</time>
      </trkpt>
      <trkpt lat="41.0773520" lon="-8.6555140">
        <ele>4.8</ele>
        <time>2019-08-15T11:07:14Z</time>
      </trkpt>
      <trkpt lat="41.0779070" lon="-8.6556980">
        <ele>3.9</ele>
        <time>2019-08-15T11:07:26Z</time>
      </trkpt>
      <trkpt lat="41.0779530" lon="-8.6557140">
        <ele>3.8</ele>
        <time>2019-08-15T11:07:27Z</time>
      </trkpt>
      <trkpt lat="41.0785250" lon="-8.6559010">
        <ele>2.7</ele>
        <time>2019-08-15T11:07:39Z</time>
      </trkpt>
      <trkpt lat="41.0789390" lon="-8.6559170">
        <ele>1.7</ele>
        <time>2019-08-15T11:07:47Z</time>
      </trkpt>
      <trkpt lat="41.0793840" lon="-8.6558560">
        <ele>3.2</ele>
        <time>2019-08-15T11:07:56Z</time>
      </trkpt>
      <trkpt lat="41.0798820" lon="-8.6558130">
        <ele>4.8</ele>
        <time>2019-08-15T11:08:07Z</time>
      </trkpt>
      <trkpt lat="41.0799650" lon="-8.6558100">
        <ele>4.8</ele>
        <time>2019-08-15T11:08:09Z</time>
      </trkpt>
      <trkpt lat="41.0801480" lon="-8.6557640">
        <ele>4.8</ele>
        <time>2019-08-15T11:08:13Z</time>
      </trkpt>
      <trkpt lat="41.0805080" lon="-8.6557130">
        <ele>5.5</ele>
        <time>2019-08-15T11:08:20Z</time>
      </trkpt>
      <trkpt lat="41.0810200" lon="-8.6556400">
        <ele>6.4</ele>
        <time>2019-08-15T11:08:30Z</time>
      </trkpt>
      <trkpt lat="41.0815300" lon="-8.6555800">
        <ele>4.7</ele>
        <time>2019-08-15T11:08:42Z</time>
      </trkpt>
      <trkpt lat="41.0819770" lon="-8.6555330">
        <ele>5.9</ele>
        <time>2019-08-15T11:08:52Z</time>
      </trkpt>
      <trkpt lat="41.0825120" lon="-8.6554490">
        <ele>7.5</ele>
        <time>2019-08-15T11:09:04Z</time>
      </trkpt>
      <trkpt lat="41.0829530" lon="-8.6554130">
        <ele>7.5</ele>
        <time>2019-08-15T11:09:14Z</time>
      </trkpt>
      <trkpt lat="41.0833880" lon="-8.6554400">
        <ele>7.5</ele>
        <time>2019-08-15T11:09:23Z</time>
      </trkpt>
      <trkpt lat="41.0839440" lon="-8.6555350">
        <ele>6.4</ele>
        <time>2019-08-15T11:09:34Z</time>
      </trkpt>
      <trkpt lat="41.0844950" lon="-8.6556130">
        <ele>5.2</ele>
        <time>2019-08-15T11:09:45Z</time>
      </trkpt>
      <trkpt lat="41.0846410" lon="-8.6556350">
        <ele>4.6</ele>
        <time>2019-08-15T11:09:48Z</time>
      </trkpt>
      <trkpt lat="41.0852240" lon="-8.6557140">
        <ele>4.4</ele>
        <time>2019-08-15T11:10:00Z</time>
      </trkpt>
      <trkpt lat="41.0852720" lon="-8.6557190">
        <ele>4.4</ele>
        <time>2019-08-15T11:10:01Z</time>
      </trkpt>
      <trkpt lat="41.0858260" lon="-8.6557900">
        <ele>4.7</ele>
        <time>2019-08-15T11:10:12Z</time>
      </trkpt>
      <trkpt lat="41.0859760" lon="-8.6558130">
        <ele>4.7</ele>
        <time>2019-08-15T11:10:15Z</time>
      </trkpt>
      <trkpt lat="41.0865270" lon="-8.6559010">
        <ele>4.9</ele>
        <time>2019-08-15T11:10:26Z</time>
      </trkpt>
      <trkpt lat="41.0865800" lon="-8.6559030">
        <ele>4.9</ele>
        <time>2019-08-15T11:10:27Z</time>
      </trkpt>
      <trkpt lat="41.0866300" lon="-8.6559070">
        <ele>4.9</ele>
        <time>2019-08-15T11:10:28Z</time>
      </trkpt>
      <trkpt lat="41.0866830" lon="-8.6559140">
        <ele>4.9</ele>
        <time>2019-08-15T11:10:29Z</time>
      </trkpt>
      <trkpt lat="41.0867320" lon="-8.6559200">
        <ele>4.9</ele>
        <time>2019-08-15T11:10:30Z</time>
      </trkpt>
      <trkpt lat="41.0869260" lon="-8.6559470">
        <ele>4.9</ele>
        <time>2019-08-15T11:10:34Z</time>
      </trkpt>
      <trkpt lat="41.0874710" lon="-8.6560180">
        <ele>5.2</ele>
        <time>2019-08-15T11:10:45Z</time>
      </trkpt>
      <trkpt lat="41.0875230" lon="-8.6560260">
        <ele>5.3</ele>
        <time>2019-08-15T11:10:46Z</time>
      </trkpt>
      <trkpt lat="41.0878690" lon="-8.6560760">
        <ele>6.2</ele>
        <time>2019-08-15T11:10:53Z</time>
      </trkpt>
      <trkpt lat="41.0883900" lon="-8.6561470">
        <ele>6.8</ele>
        <time>2019-08-15T11:11:03Z</time>
      </trkpt>
      <trkpt lat="41.0884400" lon="-8.6561510">
        <ele>6.7</ele>
        <time>2019-08-15T11:11:04Z</time>
      </trkpt>
      <trkpt lat="41.0884950" lon="-8.6561580">
        <ele>6.6</ele>
        <time>2019-08-15T11:11:05Z</time>
      </trkpt>
      <trkpt lat="41.0885500" lon="-8.6561620">
        <ele>6.4</ele>
        <time>2019-08-15T11:11:06Z</time>
      </trkpt>
      <trkpt lat="41.0886010" lon="-8.6561690">
        <ele>6.2</ele>
        <time>2019-08-15T11:11:07Z</time>
      </trkpt>
      <trkpt lat="41.0891770" lon="-8.6562480">
        <ele>4.7</ele>
        <time>2019-08-15T11:11:18Z</time>
      </trkpt>
      <trkpt lat="41.0896950" lon="-8.6563160">
        <ele>3.2</ele>
        <time>2019-08-15T11:11:28Z</time>
      </trkpt>
      <trkpt lat="41.0899380" lon="-8.6563810">
        <ele>3.0</ele>
        <time>2019-08-15T11:11:34Z</time>
      </trkpt>
      <trkpt lat="41.0901600" lon="-8.6564460">
        <ele>3.1</ele>
        <time>2019-08-15T11:11:41Z</time>
      </trkpt>
      <trkpt lat="41.0902810" lon="-8.6564460">
        <ele>3.6</ele>
        <time>2019-08-15T11:11:45Z</time>
      </trkpt>
      <trkpt lat="41.0903010" lon="-8.6564320">
        <ele>3.7</ele>
        <time>2019-08-15T11:11:46Z</time>
      </trkpt>
      <trkpt lat="41.0904090" lon="-8.6564080">
        <ele>4.0</ele>
        <time>2019-08-15T11:11:50Z</time>
      </trkpt>
      <trkpt lat="41.0904500" lon="-8.6564130">
        <ele>4.1</ele>
        <time>2019-08-15T11:11:51Z</time>
      </trkpt>
      <trkpt lat="41.0907740" lon="-8.6564520">
        <ele>4.9</ele>
        <time>2019-08-15T11:11:58Z</time>
      </trkpt>
      <trkpt lat="41.0911330" lon="-8.6565010">
        <ele>5.7</ele>
        <time>2019-08-15T11:12:07Z</time>
      </trkpt>
      <trkpt lat="41.0911890" lon="-8.6565040">
        <ele>5.8</ele>
        <time>2019-08-15T11:12:12Z</time>
      </trkpt>
      <trkpt lat="41.0912320" lon="-8.6565140">
        <ele>5.8</ele>
        <time>2019-08-15T11:12:15Z</time>
      </trkpt>
      <trkpt lat="41.0913720" lon="-8.6565300">
        <ele>6.0</ele>
        <time>2019-08-15T11:12:19Z</time>
      </trkpt>
      <trkpt lat="41.0915250" lon="-8.6565550">
        <ele>6.2</ele>
        <time>2019-08-15T11:12:23Z</time>
      </trkpt>
      <trkpt lat="41.0916470" lon="-8.6565700">
        <ele>6.3</ele>
        <time>2019-08-15T11:12:26Z</time>
      </trkpt>
      <trkpt lat="41.0918940" lon="-8.6566640">
        <ele>6.5</ele>
        <time>2019-08-15T11:12:32Z</time>
      </trkpt>
      <trkpt lat="41.0919780" lon="-8.6567090">
        <ele>6.7</ele>
        <time>2019-08-15T11:12:34Z</time>
      </trkpt>
      <trkpt lat="41.0921240" lon="-8.6567400">
        <ele>7.1</ele>
        <time>2019-08-15T11:12:37Z</time>
      </trkpt>
      <trkpt lat="41.0924140" lon="-8.6567630">
        <ele>8.4</ele>
        <time>2019-08-15T11:12:43Z</time>
      </trkpt>
      <trkpt lat="41.0924610" lon="-8.6567620">
        <ele>8.6</ele>
        <time>2019-08-15T11:12:44Z</time>
      </trkpt>
      <trkpt lat="41.0925100" lon="-8.6567620">
        <ele>8.9</ele>
        <time>2019-08-15T11:12:45Z</time>
      </trkpt>
      <trkpt lat="41.0925580" lon="-8.6567640">
        <ele>9.1</ele>
        <time>2019-08-15T11:12:46Z</time>
      </trkpt>
      <trkpt lat="41.0926090" lon="-8.6567660">
        <ele>9.3</ele>
        <time>2019-08-15T11:12:47Z</time>
      </trkpt>
      <trkpt lat="41.0929130" lon="-8.6567840">
        <ele>10.1</ele>
        <time>2019-08-15T11:12:53Z</time>
      </trkpt>
      <trkpt lat="41.0932730" lon="-8.6568170">
        <ele>10.3</ele>
        <time>2019-08-15T11:13:00Z</time>
      </trkpt>
      <trkpt lat="41.0934880" lon="-8.6568630">
        <ele>10.4</ele>
        <time>2019-08-15T11:13:04Z</time>
      </trkpt>
      <trkpt lat="41.0935390" lon="-8.6568740">
        <ele>10.4</ele>
        <time>2019-08-15T11:13:05Z</time>
      </trkpt>
      <trkpt lat="41.0935920" lon="-8.6568850">
        <ele>10.4</ele>
        <time>2019-08-15T11:13:06Z</time>
      </trkpt>
      <trkpt lat="41.0936450" lon="-8.6568960">
        <ele>10.4</ele>
        <time>2019-08-15T11:13:07Z</time>
      </trkpt>
      <trkpt lat="41.0937000" lon="-8.6569040">
        <ele>10.4</ele>
        <time>2019-08-15T11:13:08Z</time>
      </trkpt>
      <trkpt lat="41.0938080" lon="-8.6569210">
        <ele>10.4</ele>
        <time>2019-08-15T11:13:10Z</time>
      </trkpt>
      <trkpt lat="41.0942660" lon="-8.6570240">
        <ele>10.0</ele>
        <time>2019-08-15T11:13:19Z</time>
      </trkpt>
      <trkpt lat="41.0945400" lon="-8.6570870">
        <ele>9.9</ele>
        <time>2019-08-15T11:13:26Z</time>
      </trkpt>
      <trkpt lat="41.0946840" lon="-8.6571310">
        <ele>9.9</ele>
        <time>2019-08-15T11:13:32Z</time>
      </trkpt>
      <trkpt lat="41.0946930" lon="-8.6571350">
        <ele>9.9</ele>
        <time>2019-08-15T11:13:33Z</time>
      </trkpt>
      <trkpt lat="41.0947190" lon="-8.6571440">
        <ele>9.9</ele>
        <time>2019-08-15T11:13:36Z</time>
      </trkpt>
      <trkpt lat="41.0947400" lon="-8.6571500">
        <ele>9.9</ele>
        <time>2019-08-15T11:13:37Z</time>
      </trkpt>
      <trkpt lat="41.0948880" lon="-8.6571960">
        <ele>9.8</ele>
        <time>2019-08-15T11:13:42Z</time>
      </trkpt>
      <trkpt lat="41.0951380" lon="-8.6572580">
        <ele>9.8</ele>
        <time>2019-08-15T11:13:48Z</time>
      </trkpt>
      <trkpt lat="41.0955990" lon="-8.6573510">
        <ele>9.9</ele>
        <time>2019-08-15T11:13:58Z</time>
      </trkpt>
      <trkpt lat="41.0959060" lon="-8.6574090">
        <ele>10.1</ele>
        <time>2019-08-15T11:14:04Z</time>
      </trkpt>
      <trkpt lat="41.0961320" lon="-8.6574870">
        <ele>10.3</ele>
        <time>2019-08-15T11:14:09Z</time>
      </trkpt>
      <trkpt lat="41.0963680" lon="-8.6575620">
        <ele>10.5</ele>
        <time>2019-08-15T11:14:15Z</time>
      </trkpt>
      <trkpt lat="41.0964010" lon="-8.6575700">
        <ele>10.4</ele>
        <time>2019-08-15T11:14:16Z</time>
      </trkpt>
      <trkpt lat="41.0964360" lon="-8.6575790">
        <ele>10.4</ele>
        <time>2019-08-15T11:14:17Z</time>
      </trkpt>
      <trkpt lat="41.0964750" lon="-8.6575880">
        <ele>10.3</ele>
        <time>2019-08-15T11:14:18Z</time>
      </trkpt>
      <trkpt lat="41.0965170" lon="-8.6575960">
        <ele>10.3</ele>
        <time>2019-08-15T11:14:19Z</time>
      </trkpt>
      <trkpt lat="41.0967040" lon="-8.6576470">
        <ele>9.9</ele>
        <time>2019-08-15T11:14:23Z</time>
      </trkpt>
      <trkpt lat="41.0972630" lon="-8.6578020">
        <ele>8.3</ele>
        <time>2019-08-15T11:14:34Z</time>
      </trkpt>
      <trkpt lat="41.0973150" lon="-8.6578200">
        <ele>8.2</ele>
        <time>2019-08-15T11:14:35Z</time>
      </trkpt>
      <trkpt lat="41.0973700" lon="-8.6578370">
        <ele>8.1</ele>
        <time>2019-08-15T11:14:36Z</time>
      </trkpt>
      <trkpt lat="41.0974220" lon="-8.6578530">
        <ele>8.0</ele>
        <time>2019-08-15T11:14:37Z</time>
      </trkpt>
      <trkpt lat="41.0974740" lon="-8.6578700">
        <ele>7.9</ele>
        <time>2019-08-15T11:14:38Z</time>
      </trkpt>
      <trkpt lat="41.0975270" lon="-8.6578840">
        <ele>7.8</ele>
        <time>2019-08-15T11:14:39Z</time>
      </trkpt>
      <trkpt lat="41.0977490" lon="-8.6579340">
        <ele>7.6</ele>
        <time>2019-08-15T11:14:43Z</time>
      </trkpt>
      <trkpt lat="41.0981340" lon="-8.6579700">
        <ele>6.6</ele>
        <time>2019-08-15T11:14:50Z</time>
      </trkpt>
      <trkpt lat="41.0984820" lon="-8.6580280">
        <ele>6.6</ele>
        <time>2019-08-15T11:14:57Z</time>
      </trkpt>
      <trkpt lat="41.0986410" lon="-8.6580660">
        <ele>6.9</ele>
        <time>2019-08-15T11:15:00Z</time>
      </trkpt>
      <trkpt lat="41.0986960" lon="-8.6580830">
        <ele>7.0</ele>
        <time>2019-08-15T11:15:01Z</time>
      </trkpt>
      <trkpt lat="41.0987520" lon="-8.6581000">
        <ele>7.1</ele>
        <time>2019-08-15T11:15:02Z</time>
      </trkpt>
      <trkpt lat="41.0988080" lon="-8.6581160">
        <ele>7.2</ele>
        <time>2019-08-15T11:15:03Z</time>
      </trkpt>
      <trkpt lat="41.0988620" lon="-8.6581310">
        <ele>7.3</ele>
        <time>2019-08-15T11:15:04Z</time>
      </trkpt>
      <trkpt lat="41.0989600" lon="-8.6581610">
        <ele>7.6</ele>
        <time>2019-08-15T11:15:06Z</time>
      </trkpt>
      <trkpt lat="41.0991000" lon="-8.6582350">
        <ele>7.5</ele>
        <time>2019-08-15T11:15:10Z</time>
      </trkpt>
      <trkpt lat="41.0993080" lon="-8.6584310">
        <ele>7.2</ele>
        <time>2019-08-15T11:15:15Z</time>
      </trkpt>
      <trkpt lat="41.0996690" lon="-8.6588000">
        <ele>6.6</ele>
        <time>2019-08-15T11:15:23Z</time>
      </trkpt>
      <trkpt lat="41.0998870" lon="-8.6589980">
        <ele>6.4</ele>
        <time>2019-08-15T11:15:29Z</time>
      </trkpt>
      <trkpt lat="41.0999490" lon="-8.6590560">
        <ele>6.0</ele>
        <time>2019-08-15T11:15:33Z</time>
      </trkpt>
      <trkpt lat="41.0999780" lon="-8.6591290">
        <ele>6.0</ele>
        <time>2019-08-15T11:15:36Z</time>
      </trkpt>
      <trkpt lat="41.0999700" lon="-8.6591710">
        <ele>6.0</ele>
        <time>2019-08-15T11:15:37Z</time>
      </trkpt>
      <trkpt lat="41.0999270" lon="-8.6593240">
        <ele>4.9</ele>
        <time>2019-08-15T11:15:40Z</time>
      </trkpt>
      <trkpt lat="41.0998920" lon="-8.6594150">
        <ele>4.5</ele>
        <time>2019-08-15T11:15:42Z</time>
      </trkpt>
      <trkpt lat="41.0997610" lon="-8.6597690">
        <ele>2.8</ele>
        <time>2019-08-15T11:15:50Z</time>
      </trkpt>
      <trkpt lat="41.0999320" lon="-8.6599020">
        <ele>3.0</ele>
        <time>2019-08-15T11:15:55Z</time>
      </trkpt>
      <trkpt lat="41.1000110" lon="-8.6599310">
        <ele>3.3</ele>
        <time>2019-08-15T11:15:57Z</time>
      </trkpt>
      <trkpt lat="41.1000490" lon="-8.6599450">
        <ele>3.4</ele>
        <time>2019-08-15T11:15:58Z</time>
      </trkpt>
      <trkpt lat="41.1000850" lon="-8.6599560">
        <ele>3.5</ele>
        <time>2019-08-15T11:15:59Z</time>
      </trkpt>
      <trkpt lat="41.1001200" lon="-8.6599680">
        <ele>3.6</ele>
        <time>2019-08-15T11:16:00Z</time>
      </trkpt>
      <trkpt lat="41.1001500" lon="-8.6599820">
        <ele>3.7</ele>
        <time>2019-08-15T11:16:01Z</time>
      </trkpt>
      <trkpt lat="41.1002260" lon="-8.6599930">
        <ele>3.8</ele>
        <time>2019-08-15T11:16:04Z</time>
      </trkpt>
      <trkpt lat="41.1002480" lon="-8.6599900">
        <ele>3.8</ele>
        <time>2019-08-15T11:16:05Z</time>
      </trkpt>
      <trkpt lat="41.1003890" lon="-8.6600210">
        <ele>4.0</ele>
        <time>2019-08-15T11:16:09Z</time>
      </trkpt>
      <trkpt lat="41.1006510" lon="-8.6601330">
        <ele>4.1</ele>
        <time>2019-08-15T11:16:16Z</time>
      </trkpt>
      <trkpt lat="41.1010850" lon="-8.6603300">
        <ele>4.6</ele>
        <time>2019-08-15T11:16:26Z</time>
      </trkpt>
      <trkpt lat="41.1014450" lon="-8.6604900">
        <ele>4.0</ele>
        <time>2019-08-15T11:16:35Z</time>
      </trkpt>
      <trkpt lat="41.1017250" lon="-8.6606030">
        <ele>4.0</ele>
        <time>2019-08-15T11:16:42Z</time>
      </trkpt>
      <trkpt lat="41.1019370" lon="-8.6607110">
        <ele>4.0</ele>
        <time>2019-08-15T11:16:48Z</time>
      </trkpt>
      <trkpt lat="41.1021560" lon="-8.6608040">
        <ele>4.0</ele>
        <time>2019-08-15T11:16:54Z</time>
      </trkpt>
      <trkpt lat="41.1025320" lon="-8.6609880">
        <ele>3.9</ele>
        <time>2019-08-15T11:17:03Z</time>
      </trkpt>
      <trkpt lat="41.1025790" lon="-8.6610040">
        <ele>3.9</ele>
        <time>2019-08-15T11:17:04Z</time>
      </trkpt>
      <trkpt lat="41.1026220" lon="-8.6610180">
        <ele>3.9</ele>
        <time>2019-08-15T11:17:05Z</time>
      </trkpt>
      <trkpt lat="41.1026680" lon="-8.6610310">
        <ele>3.9</ele>
        <time>2019-08-15T11:17:06Z</time>
      </trkpt>
      <trkpt lat="41.1027110" lon="-8.6610470">
        <ele>3.9</ele>
        <time>2019-08-15T11:17:07Z</time>
      </trkpt>
      <trkpt lat="41.1029270" lon="-8.6611150">
        <ele>4.0</ele>
        <time>2019-08-15T11:17:13Z</time>
      </trkpt>
      <trkpt lat="41.1030790" lon="-8.6611410">
        <ele>4.1</ele>
        <time>2019-08-15T11:17:19Z</time>
      </trkpt>
      <trkpt lat="41.1032190" lon="-8.6611360">
        <ele>4.4</ele>
        <time>2019-08-15T11:17:25Z</time>
      </trkpt>
      <trkpt lat="41.1033480" lon="-8.6610420">
        <ele>4.9</ele>
        <time>2019-08-15T11:17:31Z</time>
      </trkpt>
      <trkpt lat="41.1033980" lon="-8.6607900">
        <ele>6.6</ele>
        <time>2019-08-15T11:17:36Z</time>
      </trkpt>
      <trkpt lat="41.1034540" lon="-8.6605680">
        <ele>8.1</ele>
        <time>2019-08-15T11:17:41Z</time>
      </trkpt>
      <trkpt lat="41.1034710" lon="-8.6605500">
        <ele>8.3</ele>
        <time>2019-08-15T11:17:42Z</time>
      </trkpt>
      <trkpt lat="41.1035020" lon="-8.6605410">
        <ele>8.5</ele>
        <time>2019-08-15T11:17:43Z</time>
      </trkpt>
      <trkpt lat="41.1035290" lon="-8.6605350">
        <ele>8.7</ele>
        <time>2019-08-15T11:17:44Z</time>
      </trkpt>
      <trkpt lat="41.1035600" lon="-8.6605350">
        <ele>8.9</ele>
        <time>2019-08-15T11:17:45Z</time>
      </trkpt>
      <trkpt lat="41.1035930" lon="-8.6605420">
        <ele>9.1</ele>
        <time>2019-08-15T11:17:46Z</time>
      </trkpt>
      <trkpt lat="41.1037620" lon="-8.6605950">
        <ele>10.1</ele>
        <time>2019-08-15T11:17:50Z</time>
      </trkpt>
      <trkpt lat="41.1042290" lon="-8.6607710">
        <ele>12.8</ele>
        <time>2019-08-15T11:18:00Z</time>
      </trkpt>
      <trkpt lat="41.1046060" lon="-8.6609170">
        <ele>12.0</ele>
        <time>2019-08-15T11:18:08Z</time>
      </trkpt>
      <trkpt lat="41.1046550" lon="-8.6609350">
        <ele>12.1</ele>
        <time>2019-08-15T11:18:09Z</time>
      </trkpt>
      <trkpt lat="41.1047060" lon="-8.6609550">
        <ele>11.5</ele>
        <time>2019-08-15T11:18:10Z</time>
      </trkpt>
      <trkpt lat="41.1047540" lon="-8.6609750">
        <ele>11.3</ele>
        <time>2019-08-15T11:18:11Z</time>
      </trkpt>
      <trkpt lat="41.1047980" lon="-8.6609820">
        <ele>11.1</ele>
        <time>2019-08-15T11:18:12Z</time>
      </trkpt>
      <trkpt lat="41.1052590" lon="-8.6611680">
        <ele>10.3</ele>
        <time>2019-08-15T11:18:21Z</time>
      </trkpt>
      <trkpt lat="41.1053240" lon="-8.6611880">
        <ele>10.3</ele>
        <time>2019-08-15T11:18:22Z</time>
      </trkpt>
      <trkpt lat="41.1053920" lon="-8.6612030">
        <ele>9.7</ele>
        <time>2019-08-15T11:18:23Z</time>
      </trkpt>
      <trkpt lat="41.1054640" lon="-8.6612120">
        <ele>9.4</ele>
        <time>2019-08-15T11:18:24Z</time>
      </trkpt>
      <trkpt lat="41.1055340" lon="-8.6612110">
        <ele>9.3</ele>
        <time>2019-08-15T11:18:25Z</time>
      </trkpt>
      <trkpt lat="41.1056040" lon="-8.6612030">
        <ele>9.1</ele>
        <time>2019-08-15T11:18:26Z</time>
      </trkpt>
      <trkpt lat="41.1058620" lon="-8.6611110">
        <ele>8.4</ele>
        <time>2019-08-15T11:18:30Z</time>
      </trkpt>
      <trkpt lat="41.1061480" lon="-8.6610030">
        <ele>7.7</ele>
        <time>2019-08-15T11:18:35Z</time>
      </trkpt>
      <trkpt lat="41.1062570" lon="-8.6609890">
        <ele>7.5</ele>
        <time>2019-08-15T11:18:37Z</time>
      </trkpt>
      <trkpt lat="41.1066380" lon="-8.6610320">
        <ele>7.3</ele>
        <time>2019-08-15T11:18:44Z</time>
      </trkpt>
      <trkpt lat="41.1071600" lon="-8.6611380">
        <ele>6.0</ele>
        <time>2019-08-15T11:18:54Z</time>
      </trkpt>
      <trkpt lat="41.1076680" lon="-8.6612320">
        <ele>7.0</ele>
        <time>2019-08-15T11:19:04Z</time>
      </trkpt>
      <trkpt lat="41.1081240" lon="-8.6613530">
        <ele>7.9</ele>
        <time>2019-08-15T11:19:13Z</time>
      </trkpt>
      <trkpt lat="41.1084660" lon="-8.6614420">
        <ele>8.0</ele>
        <time>2019-08-15T11:19:20Z</time>
      </trkpt>
      <trkpt lat="41.1085140" lon="-8.6614550">
        <ele>8.1</ele>
        <time>2019-08-15T11:19:21Z</time>
      </trkpt>
      <trkpt lat="41.1085600" lon="-8.6614660">
        <ele>8.1</ele>
        <time>2019-08-15T11:19:22Z</time>
      </trkpt>
      <trkpt lat="41.1086070" lon="-8.6614770">
        <ele>8.1</ele>
        <time>2019-08-15T11:19:23Z</time>
      </trkpt>
      <trkpt lat="41.1086540" lon="-8.6614900">
        <ele>8.8</ele>
        <time>2019-08-15T11:19:24Z</time>
      </trkpt>
      <trkpt lat="41.1091420" lon="-8.6616220">
        <ele>11.5</ele>
        <time>2019-08-15T11:19:34Z</time>
      </trkpt>
      <trkpt lat="41.1095890" lon="-8.6617390">
        <ele>11.2</ele>
        <time>2019-08-15T11:19:43Z</time>
      </trkpt>
      <trkpt lat="41.1100290" lon="-8.6618620">
        <ele>8.3</ele>
        <time>2019-08-15T11:19:52Z</time>
      </trkpt>
      <trkpt lat="41.1105070" lon="-8.6620700">
        <ele>3.7</ele>
        <time>2019-08-15T11:20:02Z</time>
      </trkpt>
      <trkpt lat="41.1108360" lon="-8.6623790">
        <ele>3.4</ele>
        <time>2019-08-15T11:20:10Z</time>
      </trkpt>
      <trkpt lat="41.1111360" lon="-8.6626480">
        <ele>3.6</ele>
        <time>2019-08-15T11:20:17Z</time>
      </trkpt>
      <trkpt lat="41.1111840" lon="-8.6626810">
        <ele>3.6</ele>
        <time>2019-08-15T11:20:18Z</time>
      </trkpt>
      <trkpt lat="41.1114820" lon="-8.6628140">
        <ele>3.0</ele>
        <time>2019-08-15T11:20:24Z</time>
      </trkpt>
      <trkpt lat="41.1117590" lon="-8.6628320">
        <ele>2.1</ele>
        <time>2019-08-15T11:20:29Z</time>
      </trkpt>
      <trkpt lat="41.1118160" lon="-8.6628250">
        <ele>2.1</ele>
        <time>2019-08-15T11:20:30Z</time>
      </trkpt>
      <trkpt lat="41.1123770" lon="-8.6627280">
        <ele>3.2</ele>
        <time>2019-08-15T11:20:40Z</time>
      </trkpt>
      <trkpt lat="41.1128280" lon="-8.6627040">
        <ele>3.6</ele>
        <time>2019-08-15T11:20:48Z</time>
      </trkpt>
      <trkpt lat="41.1133900" lon="-8.6627380">
        <ele>3.7</ele>
        <time>2019-08-15T11:20:58Z</time>
      </trkpt>
      <trkpt lat="41.1138780" lon="-8.6627660">
        <ele>3.3</ele>
        <time>2019-08-15T11:21:07Z</time>
      </trkpt>
      <trkpt lat="41.1144300" lon="-8.6627660">
        <ele>3.7</ele>
        <time>2019-08-15T11:21:17Z</time>
      </trkpt>
      <trkpt lat="41.1149900" lon="-8.6627350">
        <ele>4.0</ele>
        <time>2019-08-15T11:21:27Z</time>
      </trkpt>
      <trkpt lat="41.1154870" lon="-8.6626840">
        <ele>5.3</ele>
        <time>2019-08-15T11:21:36Z</time>
      </trkpt>
      <trkpt lat="41.1160720" lon="-8.6626330">
        <ele>6.6</ele>
        <time>2019-08-15T11:21:47Z</time>
      </trkpt>
      <trkpt lat="41.1161770" lon="-8.6626230">
        <ele>6.9</ele>
        <time>2019-08-15T11:21:49Z</time>
      </trkpt>
      <trkpt lat="41.1166050" lon="-8.6625910">
        <ele>7.3</ele>
        <time>2019-08-15T11:21:57Z</time>
      </trkpt>
      <trkpt lat="41.1167120" lon="-8.6625830">
        <ele>7.4</ele>
        <time>2019-08-15T11:21:59Z</time>
      </trkpt>
      <trkpt lat="41.1170290" lon="-8.6625890">
        <ele>7.6</ele>
        <time>2019-08-15T11:22:05Z</time>
      </trkpt>
      <trkpt lat="41.1171860" lon="-8.6626310">
        <ele>7.6</ele>
        <time>2019-08-15T11:22:08Z</time>
      </trkpt>
      <trkpt lat="41.1174620" lon="-8.6627570">
        <ele>7.4</ele>
        <time>2019-08-15T11:22:14Z</time>
      </trkpt>
      <trkpt lat="41.1178100" lon="-8.6629940">
        <ele>6.9</ele>
        <time>2019-08-15T11:22:23Z</time>
      </trkpt>
      <trkpt lat="41.1181760" lon="-8.6631560">
        <ele>6.3</ele>
        <time>2019-08-15T11:22:31Z</time>
      </trkpt>
      <trkpt lat="41.1186540" lon="-8.6633280">
        <ele>5.6</ele>
        <time>2019-08-15T11:22:41Z</time>
      </trkpt>
      <trkpt lat="41.1190420" lon="-8.6635250">
        <ele>5.6</ele>
        <time>2019-08-15T11:22:50Z</time>
      </trkpt>
      <trkpt lat="41.1194220" lon="-8.6638300">
        <ele>6.3</ele>
        <time>2019-08-15T11:22:59Z</time>
      </trkpt>
      <trkpt lat="41.1197430" lon="-8.6640320">
        <ele>7.1</ele>
        <time>2019-08-15T11:23:07Z</time>
      </trkpt>
      <trkpt lat="41.1200060" lon="-8.6642670">
        <ele>7.1</ele>
        <time>2019-08-15T11:23:16Z</time>
      </trkpt>
      <trkpt lat="41.1202830" lon="-8.6645210">
        <ele>6.8</ele>
        <time>2019-08-15T11:23:24Z</time>
      </trkpt>
      <trkpt lat="41.1204590" lon="-8.6646800">
        <ele>6.5</ele>
        <time>2019-08-15T11:23:30Z</time>
      </trkpt>
      <trkpt lat="41.1207200" lon="-8.6649100">
        <ele>6.9</ele>
        <time>2019-08-15T11:23:38Z</time>
      </trkpt>
      <trkpt lat="41.1210640" lon="-8.6652070">
        <ele>7.0</ele>
        <time>2019-08-15T11:23:46Z</time>
      </trkpt>
      <trkpt lat="41.1212870" lon="-8.6654210">
        <ele>7.1</ele>
        <time>2019-08-15T11:23:51Z</time>
      </trkpt>
      <trkpt lat="41.1215970" lon="-8.6658010">
        <ele>7.1</ele>
        <time>2019-08-15T11:24:00Z</time>
      </trkpt>
      <trkpt lat="41.1219370" lon="-8.6661080">
        <ele>7.8</ele>
        <time>2019-08-15T11:24:09Z</time>
      </trkpt>
      <trkpt lat="41.1223120" lon="-8.6663290">
        <ele>8.5</ele>
        <time>2019-08-15T11:24:18Z</time>
      </trkpt>
      <trkpt lat="41.1226970" lon="-8.6664670">
        <ele>9.0</ele>
        <time>2019-08-15T11:24:26Z</time>
      </trkpt>
      <trkpt lat="41.1231180" lon="-8.6665830">
        <ele>9.6</ele>
        <time>2019-08-15T11:24:35Z</time>
      </trkpt>
      <trkpt lat="41.1235790" lon="-8.6667410">
        <ele>9.8</ele>
        <time>2019-08-15T11:24:45Z</time>
      </trkpt>
      <trkpt lat="41.1236270" lon="-8.6667570">
        <ele>9.9</ele>
        <time>2019-08-15T11:24:46Z</time>
      </trkpt>
      <trkpt lat="41.1236730" lon="-8.6667660">
        <ele>9.9</ele>
        <time>2019-08-15T11:24:47Z</time>
      </trkpt>
      <trkpt lat="41.1238830" lon="-8.6667830">
        <ele>9.8</ele>
        <time>2019-08-15T11:24:52Z</time>
      </trkpt>
      <trkpt lat="41.1240630" lon="-8.6668110">
        <ele>9.6</ele>
        <time>2019-08-15T11:24:57Z</time>
      </trkpt>
      <trkpt lat="41.1241080" lon="-8.6668110">
        <ele>9.6</ele>
        <time>2019-08-15T11:24:58Z</time>
      </trkpt>
      <trkpt lat="41.1244690" lon="-8.6668580">
        <ele>9.0</ele>
        <time>2019-08-15T11:25:05Z</time>
      </trkpt>
      <trkpt lat="41.1250370" lon="-8.6669100">
        <ele>8.2</ele>
        <time>2019-08-15T11:25:16Z</time>
      </trkpt>
      <trkpt lat="41.1251310" lon="-8.6669180">
        <ele>8.1</ele>
        <time>2019-08-15T11:25:18Z</time>
      </trkpt>
      <trkpt lat="41.1255320" lon="-8.6669470">
        <ele>7.5</ele>
        <time>2019-08-15T11:25:27Z</time>
      </trkpt>
      <trkpt lat="41.1259450" lon="-8.6669730">
        <ele>7.2</ele>
        <time>2019-08-15T11:25:36Z</time>
      </trkpt>
      <trkpt lat="41.1261740" lon="-8.6669730">
        <ele>7.3</ele>
        <time>2019-08-15T11:25:41Z</time>
      </trkpt>
      <trkpt lat="41.1262610" lon="-8.6669240">
        <ele>7.2</ele>
        <time>2019-08-15T11:25:43Z</time>
      </trkpt>
      <trkpt lat="41.1265250" lon="-8.6668220">
        <ele>7.7</ele>
        <time>2019-08-15T11:25:49Z</time>
      </trkpt>
      <trkpt lat="41.1268820" lon="-8.6669700">
        <ele>7.9</ele>
        <time>2019-08-15T11:25:56Z</time>
      </trkpt>
      <trkpt lat="41.1272390" lon="-8.6671380">
        <ele>7.2</ele>
        <time>2019-08-15T11:26:04Z</time>
      </trkpt>
      <trkpt lat="41.1276230" lon="-8.6672740">
        <ele>8.3</ele>
        <time>2019-08-15T11:26:12Z</time>
      </trkpt>
      <trkpt lat="41.1278760" lon="-8.6673680">
        <ele>9.2</ele>
        <time>2019-08-15T11:26:18Z</time>
      </trkpt>
      <trkpt lat="41.1281290" lon="-8.6674650">
        <ele>9.2</ele>
        <time>2019-08-15T11:26:25Z</time>
      </trkpt>
      <trkpt lat="41.1283920" lon="-8.6675770">
        <ele>9.5</ele>
        <time>2019-08-15T11:26:32Z</time>
      </trkpt>
      <trkpt lat="41.1286940" lon="-8.6676920">
        <ele>10.9</ele>
        <time>2019-08-15T11:26:40Z</time>
      </trkpt>
      <trkpt lat="41.1289960" lon="-8.6677960">
        <ele>10.3</ele>
        <time>2019-08-15T11:26:48Z</time>
      </trkpt>
      <trkpt lat="41.1290360" lon="-8.6677890">
        <ele>10.6</ele>
        <time>2019-08-15T11:26:49Z</time>
      </trkpt>
      <trkpt lat="41.1292200" lon="-8.6678840">
        <ele>10.7</ele>
        <time>2019-08-15T11:26:54Z</time>
      </trkpt>
      <trkpt lat="41.1295000" lon="-8.6680970">
        <ele>9.8</ele>
        <time>2019-08-15T11:27:01Z</time>
      </trkpt>
      <trkpt lat="41.1298640" lon="-8.6684190">
        <ele>9.1</ele>
        <time>2019-08-15T11:27:10Z</time>
      </trkpt>
      <trkpt lat="41.1302090" lon="-8.6687540">
        <ele>10.7</ele>
        <time>2019-08-15T11:27:19Z</time>
      </trkpt>
      <trkpt lat="41.1305640" lon="-8.6691410">
        <ele>11.0</ele>
        <time>2019-08-15T11:27:29Z</time>
      </trkpt>
      <trkpt lat="41.1306290" lon="-8.6691930">
        <ele>10.3</ele>
        <time>2019-08-15T11:27:31Z</time>
      </trkpt>
      <trkpt lat="41.1306570" lon="-8.6692180">
        <ele>9.9</ele>
        <time>2019-08-15T11:27:32Z</time>
      </trkpt>
      <trkpt lat="41.1306900" lon="-8.6692380">
        <ele>9.5</ele>
        <time>2019-08-15T11:27:33Z</time>
      </trkpt>
      <trkpt lat="41.1307240" lon="-8.6692530">
        <ele>8.9</ele>
        <time>2019-08-15T11:27:34Z</time>
      </trkpt>
      <trkpt lat="41.1307590" lon="-8.6692680">
        <ele>8.9</ele>
        <time>2019-08-15T11:27:35Z</time>
      </trkpt>
      <trkpt lat="41.1307970" lon="-8.6692830">
        <ele>8.9</ele>
        <time>2019-08-15T11:27:36Z</time>
      </trkpt>
      <trkpt lat="41.1311440" lon="-8.6694530">
        <ele>9.0</ele>
        <time>2019-08-15T11:27:45Z</time>
      </trkpt>
      <trkpt lat="41.1315110" lon="-8.6695810">
        <ele>9.4</ele>
        <time>2019-08-15T11:27:54Z</time>
      </trkpt>
      <trkpt lat="41.1319620" lon="-8.6696610">
        <ele>8.8</ele>
        <time>2019-08-15T11:28:04Z</time>
      </trkpt>
      <trkpt lat="41.1323180" lon="-8.6697020">
        <ele>7.3</ele>
        <time>2019-08-15T11:28:12Z</time>
      </trkpt>
      <trkpt lat="41.1323590" lon="-8.6697070">
        <ele>7.2</ele>
        <time>2019-08-15T11:28:13Z</time>
      </trkpt>
      <trkpt lat="41.1324020" lon="-8.6697130">
        <ele>7.0</ele>
        <time>2019-08-15T11:28:14Z</time>
      </trkpt>
      <trkpt lat="41.1324460" lon="-8.6697210">
        <ele>6.9</ele>
        <time>2019-08-15T11:28:15Z</time>
      </trkpt>
      <trkpt lat="41.1324940" lon="-8.6697290">
        <ele>6.8</ele>
        <time>2019-08-15T11:28:16Z</time>
      </trkpt>
      <trkpt lat="41.1326760" lon="-8.6697530">
        <ele>6.2</ele>
        <time>2019-08-15T11:28:20Z</time>
      </trkpt>
      <trkpt lat="41.1330570" lon="-8.6698100">
        <ele>4.9</ele>
        <time>2019-08-15T11:28:28Z</time>
      </trkpt>
      <trkpt lat="41.1336080" lon="-8.6699010">
        <ele>8.1</ele>
        <time>2019-08-15T11:28:39Z</time>
      </trkpt>
      <trkpt lat="41.1340470" lon="-8.6699640">
        <ele>10.3</ele>
        <time>2019-08-15T11:28:48Z</time>
      </trkpt>
      <trkpt lat="41.1343630" lon="-8.6700210">
        <ele>12.1</ele>
        <time>2019-08-15T11:28:56Z</time>
      </trkpt>
      <trkpt lat="41.1345060" lon="-8.6700430">
        <ele>10.7</ele>
        <time>2019-08-15T11:29:00Z</time>
      </trkpt>
      <trkpt lat="41.1345510" lon="-8.6700440">
        <ele>9.8</ele>
        <time>2019-08-15T11:29:01Z</time>
      </trkpt>
      <trkpt lat="41.1348220" lon="-8.6700700">
        <ele>4.6</ele>
        <time>2019-08-15T11:29:07Z</time>
      </trkpt>
      <trkpt lat="41.1348550" lon="-8.6700610">
        <ele>4.5</ele>
        <time>2019-08-15T11:29:08Z</time>
      </trkpt>
      <trkpt lat="41.1349150" lon="-8.6699820">
        <ele>4.2</ele>
        <time>2019-08-15T11:29:10Z</time>
      </trkpt>
      <trkpt lat="41.1349760" lon="-8.6696460">
        <ele>4.1</ele>
        <time>2019-08-15T11:29:15Z</time>
      </trkpt>
      <trkpt lat="41.1349990" lon="-8.6693870">
        <ele>4.1</ele>
        <time>2019-08-15T11:29:19Z</time>
      </trkpt>
      <trkpt lat="41.1350140" lon="-8.6693290">
        <ele>4.0</ele>
        <time>2019-08-15T11:29:20Z</time>
      </trkpt>
      <trkpt lat="41.1351400" lon="-8.6691550">
        <ele>3.1</ele>
        <time>2019-08-15T11:29:24Z</time>
      </trkpt>
      <trkpt lat="41.1353140" lon="-8.6690550">
        <ele>1.9</ele>
        <time>2019-08-15T11:29:28Z</time>
      </trkpt>
      <trkpt lat="41.1354180" lon="-8.6690440">
        <ele>1.4</ele>
        <time>2019-08-15T11:29:30Z</time>
      </trkpt>
      <trkpt lat="41.1356280" lon="-8.6690250">
        <ele>0.8</ele>
        <time>2019-08-15T11:29:34Z</time>
      </trkpt>
      <trkpt lat="41.1356820" lon="-8.6690180">
        <ele>0.7</ele>
        <time>2019-08-15T11:29:35Z</time>
      </trkpt>
      <trkpt lat="41.1357390" lon="-8.6690130">
        <ele>0.6</ele>
        <time>2019-08-15T11:29:36Z</time>
      </trkpt>
      <trkpt lat="41.1357920" lon="-8.6690080">
        <ele>0.5</ele>
        <time>2019-08-15T11:29:37Z</time>
      </trkpt>
      <trkpt lat="41.1358510" lon="-8.6690030">
        <ele>0.5</ele>
        <time>2019-08-15T11:29:38Z</time>
      </trkpt>
      <trkpt lat="41.1361370" lon="-8.6689790">
        <ele>1.0</ele>
        <time>2019-08-15T11:29:43Z</time>
      </trkpt>
      <trkpt lat="41.1363000" lon="-8.6689440">
        <ele>1.6</ele>
        <time>2019-08-15T11:29:46Z</time>
      </trkpt>
      <trkpt lat="41.1363810" lon="-8.6688670">
        <ele>1.7</ele>
        <time>2019-08-15T11:29:48Z</time>
      </trkpt>
      <trkpt lat="41.1364430" lon="-8.6687800">
        <ele>1.8</ele>
        <time>2019-08-15T11:29:50Z</time>
      </trkpt>
      <trkpt lat="41.1366040" lon="-8.6686470">
        <ele>2.0</ele>
        <time>2019-08-15T11:29:54Z</time>
      </trkpt>
      <trkpt lat="41.1367120" lon="-8.6685570">
        <ele>2.2</ele>
        <time>2019-08-15T11:29:56Z</time>
      </trkpt>
      <trkpt lat="41.1367490" lon="-8.6684830">
        <ele>2.3</ele>
        <time>2019-08-15T11:29:57Z</time>
      </trkpt>
      <trkpt lat="41.1367620" lon="-8.6683870">
        <ele>2.3</ele>
        <time>2019-08-15T11:29:58Z</time>
      </trkpt>
      <trkpt lat="41.1367790" lon="-8.6682880">
        <ele>2.4</ele>
        <time>2019-08-15T11:29:59Z</time>
      </trkpt>
      <trkpt lat="41.1367950" lon="-8.6681860">
        <ele>2.4</ele>
        <time>2019-08-15T11:30:00Z</time>
      </trkpt>
      <trkpt lat="41.1368100" lon="-8.6680910">
        <ele>2.5</ele>
        <time>2019-08-15T11:30:01Z</time>
      </trkpt>
      <trkpt lat="41.1368250" lon="-8.6679970">
        <ele>2.5</ele>
        <time>2019-08-15T11:30:02Z</time>
      </trkpt>
      <trkpt lat="41.1368480" lon="-8.6678160">
        <ele>2.6</ele>
        <time>2019-08-15T11:30:04Z</time>
      </trkpt>
      <trkpt lat="41.1368570" lon="-8.6676410">
        <ele>2.7</ele>
        <time>2019-08-15T11:30:06Z</time>
      </trkpt>
      <trkpt lat="41.1368410" lon="-8.6672850">
        <ele>3.0</ele>
        <time>2019-08-15T11:30:10Z</time>
      </trkpt>
      <trkpt lat="41.1367330" lon="-8.6668440">
        <ele>3.5</ele>
        <time>2019-08-15T11:30:15Z</time>
      </trkpt>
      <trkpt lat="41.1364880" lon="-8.6663350">
        <ele>4.1</ele>
        <time>2019-08-15T11:30:21Z</time>
      </trkpt>
      <trkpt lat="41.1362330" lon="-8.6659670">
        <ele>4.7</ele>
        <time>2019-08-15T11:30:26Z</time>
      </trkpt>
      <trkpt lat="41.1361810" lon="-8.6658970">
        <ele>4.8</ele>
        <time>2019-08-15T11:30:27Z</time>
      </trkpt>
      <trkpt lat="41.1361300" lon="-8.6658270">
        <ele>4.9</ele>
        <time>2019-08-15T11:30:28Z</time>
      </trkpt>
      <trkpt lat="41.1360810" lon="-8.6657580">
        <ele>5.1</ele>
        <time>2019-08-15T11:30:29Z</time>
      </trkpt>
      <trkpt lat="41.1360350" lon="-8.6656880">
        <ele>5.2</ele>
        <time>2019-08-15T11:30:30Z</time>
      </trkpt>
      <trkpt lat="41.1358540" lon="-8.6653260">
        <ele>5.7</ele>
        <time>2019-08-15T11:30:35Z</time>
      </trkpt>
      <trkpt lat="41.1356600" lon="-8.6647500">
        <ele>4.4</ele>
        <time>2019-08-15T11:30:43Z</time>
      </trkpt>
      <trkpt lat="41.1355710" lon="-8.6641500">
        <ele>2.8</ele>
        <time>2019-08-15T11:30:50Z</time>
      </trkpt>
      <trkpt lat="41.1355720" lon="-8.6640560">
        <ele>2.9</ele>
        <time>2019-08-15T11:30:51Z</time>
      </trkpt>
      <trkpt lat="41.1355840" lon="-8.6638700">
        <ele>2.9</ele>
        <time>2019-08-15T11:30:53Z</time>
      </trkpt>
      <trkpt lat="41.1356060" lon="-8.6636850">
        <ele>3.0</ele>
        <time>2019-08-15T11:30:55Z</time>
      </trkpt>
      <trkpt lat="41.1356800" lon="-8.6633210">
        <ele>3.3</ele>
        <time>2019-08-15T11:30:59Z</time>
      </trkpt>
      <trkpt lat="41.1357750" lon="-8.6626580">
        <ele>3.4</ele>
        <time>2019-08-15T11:31:06Z</time>
      </trkpt>
      <trkpt lat="41.1358070" lon="-8.6619300">
        <ele>3.4</ele>
        <time>2019-08-15T11:31:14Z</time>
      </trkpt>
      <trkpt lat="41.1358070" lon="-8.6618400">
        <ele>3.4</ele>
        <time>2019-08-15T11:31:15Z</time>
      </trkpt>
      <trkpt lat="41.1358670" lon="-8.6611960">
        <ele>3.4</ele>
        <time>2019-08-15T11:31:22Z</time>
      </trkpt>
      <trkpt lat="41.1360210" lon="-8.6606830">
        <ele>3.5</ele>
        <time>2019-08-15T11:31:28Z</time>
      </trkpt>
      <trkpt lat="41.1363250" lon="-8.6601130">
        <ele>4.3</ele>
        <time>2019-08-15T11:31:36Z</time>
      </trkpt>
      <trkpt lat="41.1366230" lon="-8.6596710">
        <ele>5.3</ele>
        <time>2019-08-15T11:31:43Z</time>
      </trkpt>
      <trkpt lat="41.1370540" lon="-8.6591570">
        <ele>6.9</ele>
        <time>2019-08-15T11:31:52Z</time>
      </trkpt>
      <trkpt lat="41.1372790" lon="-8.6588970">
        <ele>7.8</ele>
        <time>2019-08-15T11:31:57Z</time>
      </trkpt>
      <trkpt lat="41.1373790" lon="-8.6588130">
        <ele>8.2</ele>
        <time>2019-08-15T11:31:59Z</time>
      </trkpt>
      <trkpt lat="41.1374310" lon="-8.6587780">
        <ele>8.3</ele>
        <time>2019-08-15T11:32:00Z</time>
      </trkpt>
      <trkpt lat="41.1376500" lon="-8.6586750">
        <ele>9.1</ele>
        <time>2019-08-15T11:32:04Z</time>
      </trkpt>
      <trkpt lat="41.1378300" lon="-8.6585000">
        <ele>9.8</ele>
        <time>2019-08-15T11:32:08Z</time>
      </trkpt>
      <trkpt lat="41.1378990" lon="-8.6583790">
        <ele>10.0</ele>
        <time>2019-08-15T11:32:10Z</time>
      </trkpt>
      <trkpt lat="41.1380140" lon="-8.6581490">
        <ele>10.2</ele>
        <time>2019-08-15T11:32:14Z</time>
      </trkpt>
      <trkpt lat="41.1381950" lon="-8.6577590">
        <ele>9.8</ele>
        <time>2019-08-15T11:32:20Z</time>
      </trkpt>
      <trkpt lat="41.1384950" lon="-8.6571040">
        <ele>8.4</ele>
        <time>2019-08-15T11:32:30Z</time>
      </trkpt>
      <trkpt lat="41.1385210" lon="-8.6570350">
        <ele>8.2</ele>
        <time>2019-08-15T11:32:31Z</time>
      </trkpt>
      <trkpt lat="41.1387670" lon="-8.6564410">
        <ele>8.2</ele>
        <time>2019-08-15T11:32:40Z</time>
      </trkpt>
      <trkpt lat="41.1390640" lon="-8.6557880">
        <ele>8.2</ele>
        <time>2019-08-15T11:32:50Z</time>
      </trkpt>
      <trkpt lat="41.1392020" lon="-8.6554120">
        <ele>8.2</ele>
        <time>2019-08-15T11:32:57Z</time>
      </trkpt>
      <trkpt lat="41.1392340" lon="-8.6553900">
        <ele>8.1</ele>
        <time>2019-08-15T11:32:59Z</time>
      </trkpt>
      <trkpt lat="41.1392540" lon="-8.6554280">
        <ele>8.1</ele>
        <time>2019-08-15T11:33:01Z</time>
      </trkpt>
      <trkpt lat="41.1392300" lon="-8.6554980">
        <ele>8.1</ele>
        <time>2019-08-15T11:33:03Z</time>
      </trkpt>
      <trkpt lat="41.1391390" lon="-8.6557460">
        <ele>8.1</ele>
        <time>2019-08-15T11:33:11Z</time>
      </trkpt>
      <trkpt lat="41.1391350" lon="-8.6557510">
        <ele>8.1</ele>
        <time>2019-08-15T11:33:12Z</time>
      </trkpt>
      <trkpt lat="41.1391260" lon="-8.6557520">
        <ele>8.1</ele>
        <time>2019-08-15T11:35:11Z</time>
      </trkpt>
      <trkpt lat="41.1391280" lon="-8.6557440">
        <ele>8.1</ele>
        <time>2019-08-15T11:35:12Z</time>
      </trkpt>
      <trkpt lat="41.1391420" lon="-8.6557200">
        <ele>8.1</ele>
        <time>2019-08-15T11:35:13Z</time>
      </trkpt>
      <trkpt lat="41.1391740" lon="-8.6556730">
        <ele>8.1</ele>
        <time>2019-08-15T11:35:15Z</time>
      </trkpt>
      <trkpt lat="41.1392380" lon="-8.6554970">
        <ele>8.1</ele>
        <time>2019-08-15T11:35:20Z</time>
      </trkpt>
      <trkpt lat="41.1393590" lon="-8.6551750">
        <ele>8.1</ele>
        <time>2019-08-15T11:35:27Z</time>
      </trkpt>
      <trkpt lat="41.1395160" lon="-8.6548030">
        <ele>7.9</ele>
        <time>2019-08-15T11:35:34Z</time>
      </trkpt>
      <trkpt lat="41.1396810" lon="-8.6544050">
        <ele>5.5</ele>
        <time>2019-08-15T11:35:41Z</time>
      </trkpt>
      <trkpt lat="41.1398680" lon="-8.6539780">
        <ele>5.7</ele>
        <time>2019-08-15T11:35:48Z</time>
      </trkpt>
      <trkpt lat="41.1400440" lon="-8.6536100">
        <ele>5.9</ele>
        <time>2019-08-15T11:35:54Z</time>
      </trkpt>
      <trkpt lat="41.1403090" lon="-8.6530680">
        <ele>6.8</ele>
        <time>2019-08-15T11:36:03Z</time>
      </trkpt>
      <trkpt lat="41.1403280" lon="-8.6530000">
        <ele>7.2</ele>
        <time>2019-08-15T11:36:04Z</time>
      </trkpt>
      <trkpt lat="41.1404330" lon="-8.6526670">
        <ele>8.4</ele>
        <time>2019-08-15T11:36:09Z</time>
      </trkpt>
      <trkpt lat="41.1405050" lon="-8.6524770">
        <ele>8.1</ele>
        <time>2019-08-15T11:36:12Z</time>
      </trkpt>
      <trkpt lat="41.1406870" lon="-8.6520070">
        <ele>5.4</ele>
        <time>2019-08-15T11:36:20Z</time>
      </trkpt>
      <trkpt lat="41.1408430" lon="-8.6516220">
        <ele>3.0</ele>
        <time>2019-08-15T11:36:27Z</time>
      </trkpt>
      <trkpt lat="41.1409950" lon="-8.6512930">
        <ele>1.6</ele>
        <time>2019-08-15T11:36:35Z</time>
      </trkpt>
      <trkpt lat="41.1410110" lon="-8.6512660">
        <ele>1.4</ele>
        <time>2019-08-15T11:36:36Z</time>
      </trkpt>
      <trkpt lat="41.1411030" lon="-8.6511300">
        <ele>1.3</ele>
        <time>2019-08-15T11:36:41Z</time>
      </trkpt>
      <trkpt lat="41.1412620" lon="-8.6508990">
        <ele>1.0</ele>
        <time>2019-08-15T11:36:48Z</time>
      </trkpt>
      <trkpt lat="41.1413810" lon="-8.6506500">
        <ele>0.9</ele>
        <time>2019-08-15T11:36:55Z</time>
      </trkpt>
      <trkpt lat="41.1414570" lon="-8.6504810">
        <ele>1.4</ele>
        <time>2019-08-15T11:37:01Z</time>
      </trkpt>
      <trkpt lat="41.1415630" lon="-8.6502190">
        <ele>1.8</ele>
        <time>2019-08-15T11:37:09Z</time>
      </trkpt>
      <trkpt lat="41.1416800" lon="-8.6499410">
        <ele>2.4</ele>
        <time>2019-08-15T11:37:17Z</time>
      </trkpt>
      <trkpt lat="41.1417820" lon="-8.6496700">
        <ele>2.7</ele>
        <time>2019-08-15T11:37:26Z</time>
      </trkpt>
      <trkpt lat="41.1417830" lon="-8.6495810">
        <ele>2.8</ele>
        <time>2019-08-15T11:37:29Z</time>
      </trkpt>
      <trkpt lat="41.1417600" lon="-8.6495390">
        <ele>2.8</ele>
        <time>2019-08-15T11:37:31Z</time>
      </trkpt>
      <trkpt lat="41.1416920" lon="-8.6494880">
        <ele>3.8</ele>
        <time>2019-08-15T11:37:36Z</time>
      </trkpt>
      <trkpt lat="41.1416950" lon="-8.6493800">
        <ele>4.6</ele>
        <time>2019-08-15T11:37:42Z</time>
      </trkpt>
      <trkpt lat="41.1417250" lon="-8.6491100">
        <ele>3.0</ele>
        <time>2019-08-15T11:37:47Z</time>
      </trkpt>
      <trkpt lat="41.1418570" lon="-8.6488260">
        <ele>2.2</ele>
        <time>2019-08-15T11:37:52Z</time>
      </trkpt>
      <trkpt lat="41.1420000" lon="-8.6486660">
        <ele>2.2</ele>
        <time>2019-08-15T11:37:57Z</time>
      </trkpt>
      <trkpt lat="41.1422520" lon="-8.6485150">
        <ele>1.3</ele>
        <time>2019-08-15T11:38:04Z</time>
      </trkpt>
      <trkpt lat="41.1425170" lon="-8.6483570">
        <ele>0.7</ele>
        <time>2019-08-15T11:38:11Z</time>
      </trkpt>
      <trkpt lat="41.1424940" lon="-8.6482000">
        <ele>0.6</ele>
        <time>2019-08-15T11:38:15Z</time>
      </trkpt>
      <trkpt lat="41.1426590" lon="-8.6480310">
        <ele>0.6</ele>
        <time>2019-08-15T11:38:20Z</time>
      </trkpt>
      <trkpt lat="41.1429990" lon="-8.6477880">
        <ele>0.8</ele>
        <time>2019-08-15T11:38:28Z</time>
      </trkpt>
      <trkpt lat="41.1430790" lon="-8.6477280">
        <ele>0.9</ele>
        <time>2019-08-15T11:38:30Z</time>
      </trkpt>
      <trkpt lat="41.1431830" lon="-8.6476540">
        <ele>1.0</ele>
        <time>2019-08-15T11:38:33Z</time>
      </trkpt>
      <trkpt lat="41.1432520" lon="-8.6475940">
        <ele>1.1</ele>
        <time>2019-08-15T11:38:37Z</time>
      </trkpt>
      <trkpt lat="41.1433360" lon="-8.6475290">
        <ele>1.2</ele>
        <time>2019-08-15T11:38:45Z</time>
      </trkpt>
      <trkpt lat="41.1434480" lon="-8.6474540">
        <ele>1.3</ele>
        <time>2019-08-15T11:38:49Z</time>
      </trkpt>
      <trkpt lat="41.1437320" lon="-8.6472730">
        <ele>1.7</ele>
        <time>2019-08-15T11:38:56Z</time>
      </trkpt>
      <trkpt lat="41.1438900" lon="-8.6471750">
        <ele>1.8</ele>
        <time>2019-08-15T11:39:00Z</time>
      </trkpt>
      <trkpt lat="41.1439650" lon="-8.6471330">
        <ele>1.8</ele>
        <time>2019-08-15T11:39:02Z</time>
      </trkpt>
      <trkpt lat="41.1441880" lon="-8.6470070">
        <ele>1.9</ele>
        <time>2019-08-15T11:39:08Z</time>
      </trkpt>
      <trkpt lat="41.1442910" lon="-8.6468940">
        <ele>2.0</ele>
        <time>2019-08-15T11:39:13Z</time>
      </trkpt>
      <trkpt lat="41.1443620" lon="-8.6468030">
        <ele>2.0</ele>
        <time>2019-08-15T11:39:20Z</time>
      </trkpt>
      <trkpt lat="41.1443560" lon="-8.6466790">
        <ele>2.0</ele>
        <time>2019-08-15T11:39:36Z</time>
      </trkpt>
      <trkpt lat="41.1443850" lon="-8.6466270">
        <ele>2.0</ele>
        <time>2019-08-15T11:39:38Z</time>
      </trkpt>
      <trkpt lat="41.1444680" lon="-8.6463870">
        <ele>2.4</ele>
        <time>2019-08-15T11:39:44Z</time>
      </trkpt>
      <trkpt lat="41.1446030" lon="-8.6459920">
        <ele>2.9</ele>
        <time>2019-08-15T11:39:52Z</time>
      </trkpt>
      <trkpt lat="41.1446670" lon="-8.6457660">
        <ele>2.8</ele>
        <time>2019-08-15T11:39:58Z</time>
      </trkpt>
      <trkpt lat="41.1447570" lon="-8.6454990">
        <ele>2.3</ele>
        <time>2019-08-15T11:40:06Z</time>
      </trkpt>
      <trkpt lat="41.1447660" lon="-8.6454600">
        <ele>2.1</ele>
        <time>2019-08-15T11:40:07Z</time>
      </trkpt>
      <trkpt lat="41.1448710" lon="-8.6451840">
        <ele>2.4</ele>
        <time>2019-08-15T11:40:13Z</time>
      </trkpt>
      <trkpt lat="41.1449860" lon="-8.6448350">
        <ele>5.8</ele>
        <time>2019-08-15T11:40:20Z</time>
      </trkpt>
      <trkpt lat="41.1451410" lon="-8.6443540">
        <ele>6.8</ele>
        <time>2019-08-15T11:40:29Z</time>
      </trkpt>
      <trkpt lat="41.1452560" lon="-8.6440740">
        <ele>8.1</ele>
        <time>2019-08-15T11:40:36Z</time>
      </trkpt>
      <trkpt lat="41.1453270" lon="-8.6438370">
        <ele>8.0</ele>
        <time>2019-08-15T11:40:43Z</time>
      </trkpt>
      <trkpt lat="41.1453450" lon="-8.6437080">
        <ele>8.0</ele>
        <time>2019-08-15T11:40:49Z</time>
      </trkpt>
      <trkpt lat="41.1453620" lon="-8.6436940">
        <ele>8.0</ele>
        <time>2019-08-15T11:41:17Z</time>
      </trkpt>
      <trkpt lat="41.1453620" lon="-8.6437120">
        <ele>7.9</ele>
        <time>2019-08-15T11:41:18Z</time>
      </trkpt>
      <trkpt lat="41.1453570" lon="-8.6437440">
        <ele>7.9</ele>
        <time>2019-08-15T11:41:19Z</time>
      </trkpt>
      <trkpt lat="41.1453270" lon="-8.6438820">
        <ele>7.9</ele>
        <time>2019-08-15T11:41:22Z</time>
      </trkpt>
      <trkpt lat="41.1453090" lon="-8.6439570">
        <ele>7.8</ele>
        <time>2019-08-15T11:41:24Z</time>
      </trkpt>
      <trkpt lat="41.1452700" lon="-8.6440240">
        <ele>7.8</ele>
        <time>2019-08-15T11:41:29Z</time>
      </trkpt>
      <trkpt lat="41.1452410" lon="-8.6440180">
        <ele>7.8</ele>
        <time>2019-08-15T11:41:34Z</time>
      </trkpt>
      <trkpt lat="41.1453010" lon="-8.6439990">
        <ele>7.8</ele>
        <time>2019-08-15T11:42:19Z</time>
      </trkpt>
      <trkpt lat="41.1453140" lon="-8.6439780">
        <ele>7.7</ele>
        <time>2019-08-15T11:42:20Z</time>
      </trkpt>
      <trkpt lat="41.1453860" lon="-8.6438140">
        <ele>7.7</ele>
        <time>2019-08-15T11:42:24Z</time>
      </trkpt>
      <trkpt lat="41.1454960" lon="-8.6433820">
        <ele>7.6</ele>
        <time>2019-08-15T11:42:32Z</time>
      </trkpt>
      <trkpt lat="41.1456040" lon="-8.6429870">
        <ele>7.4</ele>
        <time>2019-08-15T11:42:39Z</time>
      </trkpt>
      <trkpt lat="41.1456510" lon="-8.6427790">
        <ele>7.4</ele>
        <time>2019-08-15T11:42:43Z</time>
      </trkpt>
      <trkpt lat="41.1456620" lon="-8.6427320">
        <ele>7.4</ele>
        <time>2019-08-15T11:42:44Z</time>
      </trkpt>
      <trkpt lat="41.1456740" lon="-8.6426920">
        <ele>7.4</ele>
        <time>2019-08-15T11:42:45Z</time>
      </trkpt>
      <trkpt lat="41.1456850" lon="-8.6426540">
        <ele>7.4</ele>
        <time>2019-08-15T11:42:46Z</time>
      </trkpt>
      <trkpt lat="41.1456970" lon="-8.6426150">
        <ele>7.4</ele>
        <time>2019-08-15T11:42:47Z</time>
      </trkpt>
      <trkpt lat="41.1457700" lon="-8.6422570">
        <ele>7.5</ele>
        <time>2019-08-15T11:42:55Z</time>
      </trkpt>
      <trkpt lat="41.1458010" lon="-8.6419300">
        <ele>7.7</ele>
        <time>2019-08-15T11:43:02Z</time>
      </trkpt>
      <trkpt lat="41.1459310" lon="-8.6414810">
        <ele>8.3</ele>
        <time>2019-08-15T11:43:11Z</time>
      </trkpt>
      <trkpt lat="41.1460330" lon="-8.6411770">
        <ele>9.0</ele>
        <time>2019-08-15T11:43:18Z</time>
      </trkpt>
      <trkpt lat="41.1460400" lon="-8.6411580">
        <ele>9.0</ele>
        <time>2019-08-15T11:43:19Z</time>
      </trkpt>
      <trkpt lat="41.1460940" lon="-8.6411370">
        <ele>9.1</ele>
        <time>2019-08-15T11:43:22Z</time>
      </trkpt>
      <trkpt lat="41.1461020" lon="-8.6411070">
        <ele>9.1</ele>
        <time>2019-08-15T11:43:23Z</time>
      </trkpt>
      <trkpt lat="41.1461150" lon="-8.6410660">
        <ele>9.2</ele>
        <time>2019-08-15T11:43:24Z</time>
      </trkpt>
      <trkpt lat="41.1461250" lon="-8.6410190">
        <ele>9.2</ele>
        <time>2019-08-15T11:43:25Z</time>
      </trkpt>
      <trkpt lat="41.1461370" lon="-8.6409720">
        <ele>9.2</ele>
        <time>2019-08-15T11:43:26Z</time>
      </trkpt>
      <trkpt lat="41.1461530" lon="-8.6409230">
        <ele>9.2</ele>
        <time>2019-08-15T11:43:27Z</time>
      </trkpt>
      <trkpt lat="41.1462220" lon="-8.6406960">
        <ele>9.3</ele>
        <time>2019-08-15T11:43:33Z</time>
      </trkpt>
      <trkpt lat="41.1462860" lon="-8.6404070">
        <ele>9.4</ele>
        <time>2019-08-15T11:43:40Z</time>
      </trkpt>
      <trkpt lat="41.1463450" lon="-8.6399760">
        <ele>9.0</ele>
        <time>2019-08-15T11:43:49Z</time>
      </trkpt>
      <trkpt lat="41.1463680" lon="-8.6396690">
        <ele>8.7</ele>
        <time>2019-08-15T11:43:55Z</time>
      </trkpt>
      <trkpt lat="41.1463910" lon="-8.6392520">
        <ele>8.1</ele>
        <time>2019-08-15T11:44:03Z</time>
      </trkpt>
      <trkpt lat="41.1463720" lon="-8.6390470">
        <ele>7.5</ele>
        <time>2019-08-15T11:44:08Z</time>
      </trkpt>
      <trkpt lat="41.1463170" lon="-8.6388330">
        <ele>6.7</ele>
        <time>2019-08-15T11:44:14Z</time>
      </trkpt>
      <trkpt lat="41.1462980" lon="-8.6385280">
        <ele>6.0</ele>
        <time>2019-08-15T11:44:19Z</time>
      </trkpt>
      <trkpt lat="41.1462300" lon="-8.6379890">
        <ele>5.4</ele>
        <time>2019-08-15T11:44:26Z</time>
      </trkpt>
      <trkpt lat="41.1460540" lon="-8.6375730">
        <ele>4.4</ele>
        <time>2019-08-15T11:44:32Z</time>
      </trkpt>
      <trkpt lat="41.1460170" lon="-8.6375220">
        <ele>4.3</ele>
        <time>2019-08-15T11:44:33Z</time>
      </trkpt>
      <trkpt lat="41.1459770" lon="-8.6374750">
        <ele>4.3</ele>
        <time>2019-08-15T11:44:34Z</time>
      </trkpt>
      <trkpt lat="41.1459350" lon="-8.6374310">
        <ele>4.2</ele>
        <time>2019-08-15T11:44:35Z</time>
      </trkpt>
      <trkpt lat="41.1458960" lon="-8.6373940">
        <ele>4.2</ele>
        <time>2019-08-15T11:44:36Z</time>
      </trkpt>
      <trkpt lat="41.1458200" lon="-8.6373130">
        <ele>4.2</ele>
        <time>2019-08-15T11:44:38Z</time>
      </trkpt>
      <trkpt lat="41.1457550" lon="-8.6372120">
        <ele>4.2</ele>
        <time>2019-08-15T11:44:40Z</time>
      </trkpt>
      <trkpt lat="41.1457060" lon="-8.6370740">
        <ele>4.2</ele>
        <time>2019-08-15T11:44:42Z</time>
      </trkpt>
      <trkpt lat="41.1456050" lon="-8.6367500">
        <ele>4.1</ele>
        <time>2019-08-15T11:44:46Z</time>
      </trkpt>
      <trkpt lat="41.1455670" lon="-8.6366700">
        <ele>4.1</ele>
        <time>2019-08-15T11:44:47Z</time>
      </trkpt>
      <trkpt lat="41.1454250" lon="-8.6364830">
        <ele>3.9</ele>
        <time>2019-08-15T11:44:50Z</time>
      </trkpt>
      <trkpt lat="41.1453740" lon="-8.6364170">
        <ele>3.8</ele>
        <time>2019-08-15T11:44:51Z</time>
      </trkpt>
      <trkpt lat="41.1449420" lon="-8.6358660">
        <ele>3.5</ele>
        <time>2019-08-15T11:45:00Z</time>
      </trkpt>
      <trkpt lat="41.1445560" lon="-8.6353420">
        <ele>3.2</ele>
        <time>2019-08-15T11:45:09Z</time>
      </trkpt>
      <trkpt lat="41.1445230" lon="-8.6352780">
        <ele>3.1</ele>
        <time>2019-08-15T11:45:10Z</time>
      </trkpt>
      <trkpt lat="41.1444940" lon="-8.6352040">
        <ele>3.1</ele>
        <time>2019-08-15T11:45:11Z</time>
      </trkpt>
      <trkpt lat="41.1443120" lon="-8.6348680">
        <ele>3.5</ele>
        <time>2019-08-15T11:45:16Z</time>
      </trkpt>
      <trkpt lat="41.1440510" lon="-8.6343170">
        <ele>4.0</ele>
        <time>2019-08-15T11:45:24Z</time>
      </trkpt>
      <trkpt lat="41.1437980" lon="-8.6336440">
        <ele>4.9</ele>
        <time>2019-08-15T11:45:33Z</time>
      </trkpt>
      <trkpt lat="41.1437480" lon="-8.6335010">
        <ele>5.2</ele>
        <time>2019-08-15T11:45:35Z</time>
      </trkpt>
      <trkpt lat="41.1435000" lon="-8.6327950">
        <ele>7.5</ele>
        <time>2019-08-15T11:45:44Z</time>
      </trkpt>
      <trkpt lat="41.1434460" lon="-8.6326300">
        <ele>7.3</ele>
        <time>2019-08-15T11:45:46Z</time>
      </trkpt>
      <trkpt lat="41.1432440" lon="-8.6319500">
        <ele>6.7</ele>
        <time>2019-08-15T11:45:54Z</time>
      </trkpt>
      <trkpt lat="41.1431670" lon="-8.6316910">
        <ele>6.6</ele>
        <time>2019-08-15T11:45:57Z</time>
      </trkpt>
      <trkpt lat="41.1430040" lon="-8.6309950">
        <ele>6.1</ele>
        <time>2019-08-15T11:46:05Z</time>
      </trkpt>
      <trkpt lat="41.1429470" lon="-8.6307330">
        <ele>5.9</ele>
        <time>2019-08-15T11:46:08Z</time>
      </trkpt>
      <trkpt lat="41.1428150" lon="-8.6299520">
        <ele>5.1</ele>
        <time>2019-08-15T11:46:17Z</time>
      </trkpt>
      <trkpt lat="41.1428030" lon="-8.6293020">
        <ele>4.1</ele>
        <time>2019-08-15T11:46:24Z</time>
      </trkpt>
      <trkpt lat="41.1428150" lon="-8.6286460">
        <ele>3.5</ele>
        <time>2019-08-15T11:46:31Z</time>
      </trkpt>
      <trkpt lat="41.1427940" lon="-8.6285560">
        <ele>3.4</ele>
        <time>2019-08-15T11:46:32Z</time>
      </trkpt>
      <trkpt lat="41.1426680" lon="-8.6283010">
        <ele>3.2</ele>
        <time>2019-08-15T11:46:35Z</time>
      </trkpt>
      <trkpt lat="41.1426310" lon="-8.6282210">
        <ele>3.2</ele>
        <time>2019-08-15T11:46:36Z</time>
      </trkpt>
      <trkpt lat="41.1424130" lon="-8.6277180">
        <ele>3.4</ele>
        <time>2019-08-15T11:46:42Z</time>
      </trkpt>
      <trkpt lat="41.1423900" lon="-8.6276270">
        <ele>3.5</ele>
        <time>2019-08-15T11:46:43Z</time>
      </trkpt>
      <trkpt lat="41.1423890" lon="-8.6273890">
        <ele>3.7</ele>
        <time>2019-08-15T11:46:46Z</time>
      </trkpt>
      <trkpt lat="41.1423940" lon="-8.6273160">
        <ele>3.8</ele>
        <time>2019-08-15T11:46:47Z</time>
      </trkpt>
      <trkpt lat="41.1423980" lon="-8.6272460">
        <ele>3.8</ele>
        <time>2019-08-15T11:46:48Z</time>
      </trkpt>
      <trkpt lat="41.1424010" lon="-8.6271810">
        <ele>3.9</ele>
        <time>2019-08-15T11:46:49Z</time>
      </trkpt>
      <trkpt lat="41.1423990" lon="-8.6271220">
        <ele>3.9</ele>
        <time>2019-08-15T11:46:50Z</time>
      </trkpt>
      <trkpt lat="41.1423980" lon="-8.6270610">
        <ele>4.0</ele>
        <time>2019-08-15T11:46:51Z</time>
      </trkpt>
      <trkpt lat="41.1423990" lon="-8.6270040">
        <ele>4.0</ele>
        <time>2019-08-15T11:46:52Z</time>
      </trkpt>
      <trkpt lat="41.1424280" lon="-8.6265890">
        <ele>3.5</ele>
        <time>2019-08-15T11:46:59Z</time>
      </trkpt>
      <trkpt lat="41.1424060" lon="-8.6263840">
        <ele>2.9</ele>
        <time>2019-08-15T11:47:02Z</time>
      </trkpt>
      <trkpt lat="41.1423720" lon="-8.6262410">
        <ele>2.4</ele>
        <time>2019-08-15T11:47:04Z</time>
      </trkpt>
      <trkpt lat="41.1423300" lon="-8.6261070">
        <ele>2.4</ele>
        <time>2019-08-15T11:47:06Z</time>
      </trkpt>
      <trkpt lat="41.1422250" lon="-8.6259070">
        <ele>3.1</ele>
        <time>2019-08-15T11:47:09Z</time>
      </trkpt>
      <trkpt lat="41.1420440" lon="-8.6254210">
        <ele>4.5</ele>
        <time>2019-08-15T11:47:16Z</time>
      </trkpt>
      <trkpt lat="41.1418550" lon="-8.6248790">
        <ele>2.5</ele>
        <time>2019-08-15T11:47:24Z</time>
      </trkpt>
      <trkpt lat="41.1417320" lon="-8.6244710">
        <ele>1.3</ele>
        <time>2019-08-15T11:47:29Z</time>
      </trkpt>
      <trkpt lat="41.1417170" lon="-8.6243820">
        <ele>1.4</ele>
        <time>2019-08-15T11:47:30Z</time>
      </trkpt>
      <trkpt lat="41.1417050" lon="-8.6242920">
        <ele>1.5</ele>
        <time>2019-08-15T11:47:31Z</time>
      </trkpt>
      <trkpt lat="41.1416920" lon="-8.6242010">
        <ele>1.6</ele>
        <time>2019-08-15T11:47:32Z</time>
      </trkpt>
      <trkpt lat="41.1416690" lon="-8.6241100">
        <ele>1.7</ele>
        <time>2019-08-15T11:47:33Z</time>
      </trkpt>
      <trkpt lat="41.1416360" lon="-8.6240250">
        <ele>1.8</ele>
        <time>2019-08-15T11:47:34Z</time>
      </trkpt>
      <trkpt lat="41.1415520" lon="-8.6238680">
        <ele>1.9</ele>
        <time>2019-08-15T11:47:36Z</time>
      </trkpt>
      <trkpt lat="41.1413020" lon="-8.6235110">
        <ele>2.2</ele>
        <time>2019-08-15T11:47:41Z</time>
      </trkpt>
      <trkpt lat="41.1412490" lon="-8.6234460">
        <ele>2.3</ele>
        <time>2019-08-15T11:47:42Z</time>
      </trkpt>
      <trkpt lat="41.1407920" lon="-8.6229590">
        <ele>4.3</ele>
        <time>2019-08-15T11:47:50Z</time>
      </trkpt>
      <trkpt lat="41.1403390" lon="-8.6225660">
        <ele>10.1</ele>
        <time>2019-08-15T11:47:58Z</time>
      </trkpt>
      <trkpt lat="41.1399990" lon="-8.6223150">
        <ele>12.2</ele>
        <time>2019-08-15T11:48:04Z</time>
      </trkpt>
      <trkpt lat="41.1399260" lon="-8.6222760">
        <ele>12.3</ele>
        <time>2019-08-15T11:48:05Z</time>
      </trkpt>
      <trkpt lat="41.1395350" lon="-8.6218620">
        <ele>7.4</ele>
        <time>2019-08-15T11:48:12Z</time>
      </trkpt>
      <trkpt lat="41.1392040" lon="-8.6214120">
        <ele>2.4</ele>
        <time>2019-08-15T11:48:19Z</time>
      </trkpt>
      <trkpt lat="41.1391480" lon="-8.6213690">
        <ele>2.7</ele>
        <time>2019-08-15T11:48:20Z</time>
      </trkpt>
      <trkpt lat="41.1388130" lon="-8.6211330">
        <ele>4.5</ele>
        <time>2019-08-15T11:48:26Z</time>
      </trkpt>
      <trkpt lat="41.1386480" lon="-8.6210350">
        <ele>5.6</ele>
        <time>2019-08-15T11:48:29Z</time>
      </trkpt>
      <trkpt lat="41.1385280" lon="-8.6209950">
        <ele>6.2</ele>
        <time>2019-08-15T11:48:31Z</time>
      </trkpt>
      <trkpt lat="41.1382400" lon="-8.6208670">
        <ele>7.3</ele>
        <time>2019-08-15T11:48:36Z</time>
      </trkpt>
      <trkpt lat="41.1381900" lon="-8.6208180">
        <ele>7.5</ele>
        <time>2019-08-15T11:48:37Z</time>
      </trkpt>
      <trkpt lat="41.1380580" lon="-8.6206370">
        <ele>7.8</ele>
        <time>2019-08-15T11:48:40Z</time>
      </trkpt>
      <trkpt lat="41.1380140" lon="-8.6205770">
        <ele>7.8</ele>
        <time>2019-08-15T11:48:41Z</time>
      </trkpt>
      <trkpt lat="41.1377140" lon="-8.6202490">
        <ele>7.8</ele>
        <time>2019-08-15T11:48:48Z</time>
      </trkpt>
      <trkpt lat="41.1376020" lon="-8.6200950">
        <ele>8.0</ele>
        <time>2019-08-15T11:48:51Z</time>
      </trkpt>
      <trkpt lat="41.1375540" lon="-8.6200160">
        <ele>8.4</ele>
        <time>2019-08-15T11:48:53Z</time>
      </trkpt>
      <trkpt lat="41.1374480" lon="-8.6198980">
        <ele>9.7</ele>
        <time>2019-08-15T11:48:57Z</time>
      </trkpt>
      <trkpt lat="41.1371830" lon="-8.6195510">
        <ele>9.6</ele>
        <time>2019-08-15T11:49:05Z</time>
      </trkpt>
      <trkpt lat="41.1370050" lon="-8.6191570">
        <ele>9.4</ele>
        <time>2019-08-15T11:49:12Z</time>
      </trkpt>
      <trkpt lat="41.1369380" lon="-8.6189770">
        <ele>9.0</ele>
        <time>2019-08-15T11:49:15Z</time>
      </trkpt>
      <trkpt lat="41.1368880" lon="-8.6187190">
        <ele>8.4</ele>
        <time>2019-08-15T11:49:19Z</time>
      </trkpt>
      <trkpt lat="41.1368860" lon="-8.6186540">
        <ele>8.3</ele>
        <time>2019-08-15T11:49:20Z</time>
      </trkpt>
      <trkpt lat="41.1368850" lon="-8.6183370">
        <ele>7.6</ele>
        <time>2019-08-15T11:49:25Z</time>
      </trkpt>
      <trkpt lat="41.1368760" lon="-8.6182770">
        <ele>7.5</ele>
        <time>2019-08-15T11:49:26Z</time>
      </trkpt>
      <trkpt lat="41.1368550" lon="-8.6181010">
        <ele>7.1</ele>
        <time>2019-08-15T11:49:29Z</time>
      </trkpt>
      <trkpt lat="41.1368560" lon="-8.6180490">
        <ele>6.9</ele>
        <time>2019-08-15T11:49:30Z</time>
      </trkpt>
      <trkpt lat="41.1368920" lon="-8.6175890">
        <ele>6.8</ele>
        <time>2019-08-15T11:49:38Z</time>
      </trkpt>
      <trkpt lat="41.1369360" lon="-8.6170870">
        <ele>6.3</ele>
        <time>2019-08-15T11:49:47Z</time>
      </trkpt>
      <trkpt lat="41.1369350" lon="-8.6167220">
        <ele>6.4</ele>
        <time>2019-08-15T11:49:54Z</time>
      </trkpt>
      <trkpt lat="41.1370040" lon="-8.6164610">
        <ele>6.5</ele>
        <time>2019-08-15T11:50:00Z</time>
      </trkpt>
      <trkpt lat="41.1370390" lon="-8.6162350">
        <ele>6.6</ele>
        <time>2019-08-15T11:50:06Z</time>
      </trkpt>
      <trkpt lat="41.1370860" lon="-8.6159970">
        <ele>6.7</ele>
        <time>2019-08-15T11:50:12Z</time>
      </trkpt>
      <trkpt lat="41.1371870" lon="-8.6156800">
        <ele>6.5</ele>
        <time>2019-08-15T11:50:20Z</time>
      </trkpt>
      <trkpt lat="41.1372720" lon="-8.6154100">
        <ele>6.0</ele>
        <time>2019-08-15T11:50:27Z</time>
      </trkpt>
      <trkpt lat="41.1373540" lon="-8.6150500">
        <ele>4.8</ele>
        <time>2019-08-15T11:50:35Z</time>
      </trkpt>
      <trkpt lat="41.1374200" lon="-8.6146610">
        <ele>4.9</ele>
        <time>2019-08-15T11:50:43Z</time>
      </trkpt>
      <trkpt lat="41.1375050" lon="-8.6143190">
        <ele>5.1</ele>
        <time>2019-08-15T11:50:51Z</time>
      </trkpt>
      <trkpt lat="41.1375460" lon="-8.6141140">
        <ele>5.2</ele>
        <time>2019-08-15T11:50:56Z</time>
      </trkpt>
      <trkpt lat="41.1376090" lon="-8.6138580">
        <ele>5.2</ele>
        <time>2019-08-15T11:51:03Z</time>
      </trkpt>
      <trkpt lat="41.1377090" lon="-8.6134970">
        <ele>5.3</ele>
        <time>2019-08-15T11:51:12Z</time>
      </trkpt>
      <trkpt lat="41.1377620" lon="-8.6131540">
        <ele>5.8</ele>
        <time>2019-08-15T11:51:21Z</time>
      </trkpt>
      <trkpt lat="41.1378400" lon="-8.6127200">
        <ele>6.4</ele>
        <time>2019-08-15T11:51:30Z</time>
      </trkpt>
      <trkpt lat="41.1379070" lon="-8.6123360">
        <ele>7.0</ele>
        <time>2019-08-15T11:51:38Z</time>
      </trkpt>
      <trkpt lat="41.1380000" lon="-8.6119540">
        <ele>8.4</ele>
        <time>2019-08-15T11:51:46Z</time>
      </trkpt>
      <trkpt lat="41.1380260" lon="-8.6118090">
        <ele>8.9</ele>
        <time>2019-08-15T11:51:51Z</time>
      </trkpt>
      <trkpt lat="41.1380510" lon="-8.6117610">
        <ele>9.1</ele>
        <time>2019-08-15T11:51:53Z</time>
      </trkpt>
      <trkpt lat="41.1380870" lon="-8.6116420">
        <ele>9.6</ele>
        <time>2019-08-15T11:51:56Z</time>
      </trkpt>
      <trkpt lat="41.1381670" lon="-8.6113010">
        <ele>10.3</ele>
        <time>2019-08-15T11:52:04Z</time>
      </trkpt>
      <trkpt lat="41.1382280" lon="-8.6110080">
        <ele>8.8</ele>
        <time>2019-08-15T11:52:10Z</time>
      </trkpt>
      <trkpt lat="41.1384270" lon="-8.6105830">
        <ele>6.6</ele>
        <time>2019-08-15T11:52:20Z</time>
      </trkpt>
      <trkpt lat="41.1385960" lon="-8.6102960">
        <ele>8.4</ele>
        <time>2019-08-15T11:52:27Z</time>
      </trkpt>
      <trkpt lat="41.1387820" lon="-8.6099450">
        <ele>8.0</ele>
        <time>2019-08-15T11:52:36Z</time>
      </trkpt>
      <trkpt lat="41.1388750" lon="-8.6096800">
        <ele>6.3</ele>
        <time>2019-08-15T11:52:43Z</time>
      </trkpt>
      <trkpt lat="41.1389010" lon="-8.6096450">
        <ele>5.8</ele>
        <time>2019-08-15T11:52:44Z</time>
      </trkpt>
      <trkpt lat="41.1389130" lon="-8.6096150">
        <ele>5.4</ele>
        <time>2019-08-15T11:52:45Z</time>
      </trkpt>
      <trkpt lat="41.1389240" lon="-8.6095860">
        <ele>5.1</ele>
        <time>2019-08-15T11:52:46Z</time>
      </trkpt>
      <trkpt lat="41.1389400" lon="-8.6095550">
        <ele>4.7</ele>
        <time>2019-08-15T11:52:47Z</time>
      </trkpt>
      <trkpt lat="41.1389510" lon="-8.6095290">
        <ele>4.5</ele>
        <time>2019-08-15T11:52:48Z</time>
      </trkpt>
      <trkpt lat="41.1389530" lon="-8.6094760">
        <ele>3.9</ele>
        <time>2019-08-15T11:52:50Z</time>
      </trkpt>
      <trkpt lat="41.1389480" lon="-8.6094520">
        <ele>3.6</ele>
        <time>2019-08-15T11:52:51Z</time>
      </trkpt>
      <trkpt lat="41.1389440" lon="-8.6094350">
        <ele>3.5</ele>
        <time>2019-08-15T11:52:52Z</time>
      </trkpt>
      <trkpt lat="41.1389420" lon="-8.6094220">
        <ele>3.3</ele>
        <time>2019-08-15T11:52:53Z</time>
      </trkpt>
      <trkpt lat="41.1389410" lon="-8.6094060">
        <ele>3.1</ele>
        <time>2019-08-15T11:52:54Z</time>
      </trkpt>
      <trkpt lat="41.1389150" lon="-8.6092840">
        <ele>2.3</ele>
        <time>2019-08-15T11:52:59Z</time>
      </trkpt>
      <trkpt lat="41.1390040" lon="-8.6091360">
        <ele>2.0</ele>
        <time>2019-08-15T11:53:07Z</time>
      </trkpt>
      <trkpt lat="41.1390830" lon="-8.6091330">
        <ele>1.9</ele>
        <time>2019-08-15T11:53:11Z</time>
      </trkpt>
      <trkpt lat="41.1391160" lon="-8.6091440">
        <ele>1.8</ele>
        <time>2019-08-15T11:53:12Z</time>
      </trkpt>
      <trkpt lat="41.1391100" lon="-8.6091410">
        <ele>1.8</ele>
        <time>2019-08-15T11:53:14Z</time>
      </trkpt>
      <trkpt lat="41.1392580" lon="-8.6092150">
        <ele>1.4</ele>
        <time>2019-08-15T11:53:22Z</time>
      </trkpt>
      <trkpt lat="41.1392870" lon="-8.6092250">
        <ele>1.4</ele>
        <time>2019-08-15T11:53:23Z</time>
      </trkpt>
      <trkpt lat="41.1394480" lon="-8.6093020">
        <ele>1.6</ele>
        <time>2019-08-15T11:53:29Z</time>
      </trkpt>
      <trkpt lat="41.1396380" lon="-8.6093620">
        <ele>1.7</ele>
        <time>2019-08-15T11:53:34Z</time>
      </trkpt>
      <trkpt lat="41.1398990" lon="-8.6094610">
        <ele>1.7</ele>
        <time>2019-08-15T11:53:41Z</time>
      </trkpt>
      <trkpt lat="41.1402190" lon="-8.6095460">
        <ele>1.4</ele>
        <time>2019-08-15T11:53:48Z</time>
      </trkpt>
      <trkpt lat="41.1404370" lon="-8.6096120">
        <ele>1.2</ele>
        <time>2019-08-15T11:53:54Z</time>
      </trkpt>
      <trkpt lat="41.1404780" lon="-8.6096300">
        <ele>1.2</ele>
        <time>2019-08-15T11:53:58Z</time>
      </trkpt>
      <trkpt lat="41.1404910" lon="-8.6096320">
        <ele>1.2</ele>
        <time>2019-08-15T11:54:10Z</time>
      </trkpt>
      <trkpt lat="41.1405060" lon="-8.6096430">
        <ele>1.2</ele>
        <time>2019-08-15T11:54:12Z</time>
      </trkpt>
      <trkpt lat="41.1405520" lon="-8.6096840">
        <ele>1.2</ele>
        <time>2019-08-15T11:54:14Z</time>
      </trkpt>
      <trkpt lat="41.1407690" lon="-8.6098640">
        <ele>13.7</ele>
        <time>2019-08-15T11:54:20Z</time>
      </trkpt>
      <trkpt lat="41.1409100" lon="-8.6101710">
        <ele>21.5</ele>
        <time>2019-08-15T11:54:26Z</time>
      </trkpt>
      <trkpt lat="41.1410840" lon="-8.6103250">
        <ele>26.9</ele>
        <time>2019-08-15T11:54:31Z</time>
      </trkpt>
      <trkpt lat="41.1412270" lon="-8.6106300">
        <ele>33.8</ele>
        <time>2019-08-15T11:54:38Z</time>
      </trkpt>
      <trkpt lat="41.1412580" lon="-8.6107340">
        <ele>36.0</ele>
        <time>2019-08-15T11:54:41Z</time>
      </trkpt>
      <trkpt lat="41.1412610" lon="-8.6107470">
        <ele>36.3</ele>
        <time>2019-08-15T11:54:42Z</time>
      </trkpt>
      <trkpt lat="41.1412580" lon="-8.6107510">
        <ele>36.4</ele>
        <time>2019-08-15T11:54:43Z</time>
      </trkpt>
      <trkpt lat="41.1412620" lon="-8.6107700">
        <ele>36.8</ele>
        <time>2019-08-15T11:54:54Z</time>
      </trkpt>
      <trkpt lat="41.1412810" lon="-8.6108190">
        <ele>37.9</ele>
        <time>2019-08-15T11:55:02Z</time>
      </trkpt>
      <trkpt lat="41.1412810" lon="-8.6108190">
        <ele>37.9</ele>
        <time>2019-08-15T11:55:12Z</time>
      </trkpt>
      <trkpt lat="41.1412810" lon="-8.6108190">
        <ele>37.9</ele>
        <time>2019-08-15T11:55:13Z</time>
      </trkpt>
      <trkpt lat="41.1412810" lon="-8.6108190">
        <ele>37.9</ele>
        <time>2019-08-15T11:55:14Z</time>
      </trkpt>
      <trkpt lat="41.1412810" lon="-8.6108190">
        <ele>37.9</ele>
        <time>2019-08-15T11:55:15Z</time>
      </trkpt>
      <trkpt lat="41.1412810" lon="-8.6108190">
        <ele>37.9</ele>
        <time>2019-08-15T11:55:16Z</time>
      </trkpt>
      <trkpt lat="41.1416020" lon="-8.6130870">
        <ele>31.1</ele>
        <time>2019-08-15T11:55:28Z</time>
      </trkpt>
      <trkpt lat="41.1415250" lon="-8.6131440">
        <ele>30.6</ele>
        <time>2019-08-15T11:55:31Z</time>
      </trkpt>
      <trkpt lat="41.1415650" lon="-8.6132060">
        <ele>30.2</ele>
        <time>2019-08-15T11:55:37Z</time>
      </trkpt>
      <trkpt lat="41.1415590" lon="-8.6133020">
        <ele>29.7</ele>
        <time>2019-08-15T11:55:41Z</time>
      </trkpt>
      <trkpt lat="41.1414940" lon="-8.6135350">
        <ele>28.6</ele>
        <time>2019-08-15T11:55:47Z</time>
      </trkpt>
      <trkpt lat="41.1415740" lon="-8.6136750">
        <ele>28.3</ele>
        <time>2019-08-15T11:55:54Z</time>
      </trkpt>
      <trkpt lat="41.1415620" lon="-8.6136910">
        <ele>28.3</ele>
        <time>2019-08-15T11:55:57Z</time>
      </trkpt>
      <trkpt lat="41.1415790" lon="-8.6136820">
        <ele>28.3</ele>
        <time>2019-08-15T11:56:26Z</time>
      </trkpt>
      <trkpt lat="41.1415790" lon="-8.6136740">
        <ele>28.2</ele>
        <time>2019-08-15T11:56:27Z</time>
      </trkpt>
      <trkpt lat="41.1415890" lon="-8.6136750">
        <ele>28.2</ele>
        <time>2019-08-15T11:56:31Z</time>
      </trkpt>
      <trkpt lat="41.1415940" lon="-8.6136780">
        <ele>28.2</ele>
        <time>2019-08-15T11:56:32Z</time>
      </trkpt>
      <trkpt lat="41.1415980" lon="-8.6136810">
        <ele>28.2</ele>
        <time>2019-08-15T11:56:33Z</time>
      </trkpt>
      <trkpt lat="41.1416120" lon="-8.6136980">
        <ele>28.2</ele>
        <time>2019-08-15T11:56:35Z</time>
      </trkpt>
      <trkpt lat="41.1415630" lon="-8.6137880">
        <ele>28.0</ele>
        <time>2019-08-15T11:56:38Z</time>
      </trkpt>
      <trkpt lat="41.1414700" lon="-8.6138800">
        <ele>27.8</ele>
        <time>2019-08-15T11:56:43Z</time>
      </trkpt>
      <trkpt lat="41.1412680" lon="-8.6140990">
        <ele>27.4</ele>
        <time>2019-08-15T11:56:48Z</time>
      </trkpt>
      <trkpt lat="41.1412430" lon="-8.6141150">
        <ele>27.4</ele>
        <time>2019-08-15T11:56:49Z</time>
      </trkpt>
      <trkpt lat="41.1410900" lon="-8.6141820">
        <ele>27.2</ele>
        <time>2019-08-15T11:57:13Z</time>
      </trkpt>
      <trkpt lat="41.1411000" lon="-8.6142240">
        <ele>27.2</ele>
        <time>2019-08-15T11:57:15Z</time>
      </trkpt>
      <trkpt lat="41.1411150" lon="-8.6143960">
        <ele>26.6</ele>
        <time>2019-08-15T11:57:19Z</time>
      </trkpt>
      <trkpt lat="41.1410400" lon="-8.6148000">
        <ele>25.6</ele>
        <time>2019-08-15T11:57:29Z</time>
      </trkpt>
      <trkpt lat="41.1409320" lon="-8.6150600">
        <ele>24.5</ele>
        <time>2019-08-15T11:57:37Z</time>
      </trkpt>
      <trkpt lat="41.1408440" lon="-8.6153010">
        <ele>23.4</ele>
        <time>2019-08-15T11:57:42Z</time>
      </trkpt>
      <trkpt lat="41.1406670" lon="-8.6157200">
        <ele>19.8</ele>
        <time>2019-08-15T11:57:49Z</time>
      </trkpt>
      <trkpt lat="41.1405170" lon="-8.6161520">
        <ele>14.6</ele>
        <time>2019-08-15T11:57:56Z</time>
      </trkpt>
      <trkpt lat="41.1405030" lon="-8.6162200">
        <ele>14.0</ele>
        <time>2019-08-15T11:57:57Z</time>
      </trkpt>
      <trkpt lat="41.1404800" lon="-8.6163690">
        <ele>13.1</ele>
        <time>2019-08-15T11:57:59Z</time>
      </trkpt>
      <trkpt lat="41.1404830" lon="-8.6164400">
        <ele>12.8</ele>
        <time>2019-08-15T11:58:00Z</time>
      </trkpt>
      <trkpt lat="41.1405550" lon="-8.6167220">
        <ele>12.0</ele>
        <time>2019-08-15T11:58:04Z</time>
      </trkpt>
      <trkpt lat="41.1405840" lon="-8.6167920">
        <ele>11.9</ele>
        <time>2019-08-15T11:58:05Z</time>
      </trkpt>
      <trkpt lat="41.1406140" lon="-8.6168610">
        <ele>11.7</ele>
        <time>2019-08-15T11:58:06Z</time>
      </trkpt>
      <trkpt lat="41.1406430" lon="-8.6169340">
        <ele>11.7</ele>
        <time>2019-08-15T11:58:07Z</time>
      </trkpt>
      <trkpt lat="41.1406730" lon="-8.6170060">
        <ele>11.6</ele>
        <time>2019-08-15T11:58:08Z</time>
      </trkpt>
      <trkpt lat="41.1407080" lon="-8.6170770">
        <ele>11.5</ele>
        <time>2019-08-15T11:58:09Z</time>
      </trkpt>
      <trkpt lat="41.1408380" lon="-8.6173640">
        <ele>11.4</ele>
        <time>2019-08-15T11:58:13Z</time>
      </trkpt>
      <trkpt lat="41.1408690" lon="-8.6174340">
        <ele>11.4</ele>
        <time>2019-08-15T11:58:14Z</time>
      </trkpt>
      <trkpt lat="41.1409010" lon="-8.6175070">
        <ele>11.4</ele>
        <time>2019-08-15T11:58:15Z</time>
      </trkpt>
      <trkpt lat="41.1409310" lon="-8.6175780">
        <ele>11.4</ele>
        <time>2019-08-15T11:58:16Z</time>
      </trkpt>
      <trkpt lat="41.1409660" lon="-8.6176520">
        <ele>11.4</ele>
        <time>2019-08-15T11:58:17Z</time>
      </trkpt>
      <trkpt lat="41.1410040" lon="-8.6177250">
        <ele>11.4</ele>
        <time>2019-08-15T11:58:18Z</time>
      </trkpt>
      <trkpt lat="41.1411050" lon="-8.6179540">
        <ele>11.3</ele>
        <time>2019-08-15T11:58:21Z</time>
      </trkpt>
      <trkpt lat="41.1411440" lon="-8.6180230">
        <ele>11.2</ele>
        <time>2019-08-15T11:58:22Z</time>
      </trkpt>
      <trkpt lat="41.1411860" lon="-8.6180980">
        <ele>11.1</ele>
        <time>2019-08-15T11:58:23Z</time>
      </trkpt>
      <trkpt lat="41.1412270" lon="-8.6181700">
        <ele>10.9</ele>
        <time>2019-08-15T11:58:24Z</time>
      </trkpt>
      <trkpt lat="41.1412620" lon="-8.6182460">
        <ele>10.8</ele>
        <time>2019-08-15T11:58:25Z</time>
      </trkpt>
      <trkpt lat="41.1412980" lon="-8.6183230">
        <ele>10.5</ele>
        <time>2019-08-15T11:58:26Z</time>
      </trkpt>
      <trkpt lat="41.1414810" lon="-8.6187110">
        <ele>9.2</ele>
        <time>2019-08-15T11:58:31Z</time>
      </trkpt>
      <trkpt lat="41.1417830" lon="-8.6191920">
        <ele>8.1</ele>
        <time>2019-08-15T11:58:38Z</time>
      </trkpt>
      <trkpt lat="41.1419490" lon="-8.6194680">
        <ele>7.5</ele>
        <time>2019-08-15T11:58:42Z</time>
      </trkpt>
      <trkpt lat="41.1419950" lon="-8.6195300">
        <ele>7.4</ele>
        <time>2019-08-15T11:58:43Z</time>
      </trkpt>
      <trkpt lat="41.1420390" lon="-8.6195900">
        <ele>7.3</ele>
        <time>2019-08-15T11:58:44Z</time>
      </trkpt>
      <trkpt lat="41.1420850" lon="-8.6196510">
        <ele>7.2</ele>
        <time>2019-08-15T11:58:45Z</time>
      </trkpt>
      <trkpt lat="41.1421240" lon="-8.6197080">
        <ele>7.1</ele>
        <time>2019-08-15T11:58:46Z</time>
      </trkpt>
      <trkpt lat="41.1421630" lon="-8.6197610">
        <ele>7.0</ele>
        <time>2019-08-15T11:58:47Z</time>
      </trkpt>
      <trkpt lat="41.1422070" lon="-8.6198100">
        <ele>6.9</ele>
        <time>2019-08-15T11:58:48Z</time>
      </trkpt>
      <trkpt lat="41.1422980" lon="-8.6198780">
        <ele>7.7</ele>
        <time>2019-08-15T11:58:50Z</time>
      </trkpt>
      <trkpt lat="41.1424750" lon="-8.6201550">
        <ele>9.5</ele>
        <time>2019-08-15T11:58:55Z</time>
      </trkpt>
      <trkpt lat="41.1425480" lon="-8.6202700">
        <ele>10.1</ele>
        <time>2019-08-15T11:58:57Z</time>
      </trkpt>
      <trkpt lat="41.1426790" lon="-8.6204100">
        <ele>10.7</ele>
        <time>2019-08-15T11:59:00Z</time>
      </trkpt>
      <trkpt lat="41.1430070" lon="-8.6207470">
        <ele>11.5</ele>
        <time>2019-08-15T11:59:07Z</time>
      </trkpt>
      <trkpt lat="41.1433650" lon="-8.6211670">
        <ele>12.3</ele>
        <time>2019-08-15T11:59:15Z</time>
      </trkpt>
      <trkpt lat="41.1436110" lon="-8.6215870">
        <ele>13.7</ele>
        <time>2019-08-15T11:59:22Z</time>
      </trkpt>
      <trkpt lat="41.1437720" lon="-8.6219730">
        <ele>15.1</ele>
        <time>2019-08-15T11:59:28Z</time>
      </trkpt>
      <trkpt lat="41.1440090" lon="-8.6225390">
        <ele>15.1</ele>
        <time>2019-08-15T11:59:36Z</time>
      </trkpt>
      <trkpt lat="41.1440650" lon="-8.6226850">
        <ele>13.9</ele>
        <time>2019-08-15T11:59:38Z</time>
      </trkpt>
      <trkpt lat="41.1441750" lon="-8.6229950">
        <ele>13.0</ele>
        <time>2019-08-15T11:59:42Z</time>
      </trkpt>
      <trkpt lat="41.1443980" lon="-8.6237190">
        <ele>11.4</ele>
        <time>2019-08-15T11:59:51Z</time>
      </trkpt>
      <trkpt lat="41.1444180" lon="-8.6238040">
        <ele>11.1</ele>
        <time>2019-08-15T11:59:52Z</time>
      </trkpt>
      <trkpt lat="41.1446030" lon="-8.6244690">
        <ele>9.7</ele>
        <time>2019-08-15T12:00:00Z</time>
      </trkpt>
      <trkpt lat="41.1446270" lon="-8.6245510">
        <ele>9.5</ele>
        <time>2019-08-15T12:00:01Z</time>
      </trkpt>
      <trkpt lat="41.1446560" lon="-8.6246270">
        <ele>9.3</ele>
        <time>2019-08-15T12:00:02Z</time>
      </trkpt>
      <trkpt lat="41.1446800" lon="-8.6247130">
        <ele>8.9</ele>
        <time>2019-08-15T12:00:03Z</time>
      </trkpt>
      <trkpt lat="41.1447050" lon="-8.6247870">
        <ele>8.6</ele>
        <time>2019-08-15T12:00:04Z</time>
      </trkpt>
      <trkpt lat="41.1448310" lon="-8.6252040">
        <ele>7.7</ele>
        <time>2019-08-15T12:00:09Z</time>
      </trkpt>
      <trkpt lat="41.1448700" lon="-8.6254640">
        <ele>6.6</ele>
        <time>2019-08-15T12:00:12Z</time>
      </trkpt>
      <trkpt lat="41.1448690" lon="-8.6256370">
        <ele>5.4</ele>
        <time>2019-08-15T12:00:14Z</time>
      </trkpt>
      <trkpt lat="41.1448370" lon="-8.6263110">
        <ele>1.2</ele>
        <time>2019-08-15T12:00:22Z</time>
      </trkpt>
      <trkpt lat="41.1447920" lon="-8.6269480">
        <ele>-0.8</ele>
        <time>2019-08-15T12:00:30Z</time>
      </trkpt>
      <trkpt lat="41.1447820" lon="-8.6276510">
        <ele>1.9</ele>
        <time>2019-08-15T12:00:39Z</time>
      </trkpt>
      <trkpt lat="41.1449140" lon="-8.6283720">
        <ele>6.0</ele>
        <time>2019-08-15T12:00:49Z</time>
      </trkpt>
      <trkpt lat="41.1449390" lon="-8.6284370">
        <ele>6.8</ele>
        <time>2019-08-15T12:00:50Z</time>
      </trkpt>
      <trkpt lat="41.1451670" lon="-8.6289750">
        <ele>6.2</ele>
        <time>2019-08-15T12:00:58Z</time>
      </trkpt>
      <trkpt lat="41.1454220" lon="-8.6294740">
        <ele>0.4</ele>
        <time>2019-08-15T12:01:06Z</time>
      </trkpt>
      <trkpt lat="41.1455420" lon="-8.6297190">
        <ele>0.8</ele>
        <time>2019-08-15T12:01:10Z</time>
      </trkpt>
      <trkpt lat="41.1455850" lon="-8.6298520">
        <ele>1.0</ele>
        <time>2019-08-15T12:01:12Z</time>
      </trkpt>
      <trkpt lat="41.1456590" lon="-8.6301960">
        <ele>1.4</ele>
        <time>2019-08-15T12:01:17Z</time>
      </trkpt>
      <trkpt lat="41.1456630" lon="-8.6302620">
        <ele>1.5</ele>
        <time>2019-08-15T12:01:18Z</time>
      </trkpt>
      <trkpt lat="41.1456750" lon="-8.6306290">
        <ele>2.2</ele>
        <time>2019-08-15T12:01:23Z</time>
      </trkpt>
      <trkpt lat="41.1457110" lon="-8.6307630">
        <ele>2.3</ele>
        <time>2019-08-15T12:01:25Z</time>
      </trkpt>
      <trkpt lat="41.1458450" lon="-8.6309460">
        <ele>2.2</ele>
        <time>2019-08-15T12:01:29Z</time>
      </trkpt>
      <trkpt lat="41.1458860" lon="-8.6309870">
        <ele>2.1</ele>
        <time>2019-08-15T12:01:30Z</time>
      </trkpt>
      <trkpt lat="41.1460590" lon="-8.6311620">
        <ele>1.7</ele>
        <time>2019-08-15T12:01:35Z</time>
      </trkpt>
      <trkpt lat="41.1462270" lon="-8.6313210">
        <ele>1.1</ele>
        <time>2019-08-15T12:01:41Z</time>
      </trkpt>
      <trkpt lat="41.1463060" lon="-8.6314200">
        <ele>1.6</ele>
        <time>2019-08-15T12:01:46Z</time>
      </trkpt>
      <trkpt lat="41.1463600" lon="-8.6316250">
        <ele>3.0</ele>
        <time>2019-08-15T12:01:52Z</time>
      </trkpt>
      <trkpt lat="41.1464990" lon="-8.6318340">
        <ele>4.0</ele>
        <time>2019-08-15T12:01:59Z</time>
      </trkpt>
      <trkpt lat="41.1465910" lon="-8.6320400">
        <ele>4.1</ele>
        <time>2019-08-15T12:02:05Z</time>
      </trkpt>
      <trkpt lat="41.1466740" lon="-8.6322520">
        <ele>4.3</ele>
        <time>2019-08-15T12:02:11Z</time>
      </trkpt>
      <trkpt lat="41.1467770" lon="-8.6324220">
        <ele>4.5</ele>
        <time>2019-08-15T12:02:15Z</time>
      </trkpt>
      <trkpt lat="41.1470180" lon="-8.6328560">
        <ele>6.1</ele>
        <time>2019-08-15T12:02:22Z</time>
      </trkpt>
      <trkpt lat="41.1473190" lon="-8.6334680">
        <ele>4.8</ele>
        <time>2019-08-15T12:02:31Z</time>
      </trkpt>
      <trkpt lat="41.1473550" lon="-8.6335330">
        <ele>4.7</ele>
        <time>2019-08-15T12:02:32Z</time>
      </trkpt>
      <trkpt lat="41.1475190" lon="-8.6338800">
        <ele>4.3</ele>
        <time>2019-08-15T12:02:37Z</time>
      </trkpt>
      <trkpt lat="41.1475720" lon="-8.6340320">
        <ele>4.0</ele>
        <time>2019-08-15T12:02:39Z</time>
      </trkpt>
      <trkpt lat="41.1477720" lon="-8.6346120">
        <ele>4.3</ele>
        <time>2019-08-15T12:02:47Z</time>
      </trkpt>
      <trkpt lat="41.1479540" lon="-8.6352020">
        <ele>4.5</ele>
        <time>2019-08-15T12:02:55Z</time>
      </trkpt>
      <trkpt lat="41.1480890" lon="-8.6356430">
        <ele>7.5</ele>
        <time>2019-08-15T12:03:01Z</time>
      </trkpt>
      <trkpt lat="41.1481250" lon="-8.6357950">
        <ele>8.8</ele>
        <time>2019-08-15T12:03:03Z</time>
      </trkpt>
      <trkpt lat="41.1481820" lon="-8.6360160">
        <ele>9.7</ele>
        <time>2019-08-15T12:03:06Z</time>
      </trkpt>
      <trkpt lat="41.1482160" lon="-8.6362230">
        <ele>9.6</ele>
        <time>2019-08-15T12:03:09Z</time>
      </trkpt>
      <trkpt lat="41.1482370" lon="-8.6364270">
        <ele>9.5</ele>
        <time>2019-08-15T12:03:13Z</time>
      </trkpt>
      <trkpt lat="41.1482400" lon="-8.6364350">
        <ele>9.5</ele>
        <time>2019-08-15T12:03:14Z</time>
      </trkpt>
      <trkpt lat="41.1482750" lon="-8.6364570">
        <ele>9.5</ele>
        <time>2019-08-15T12:16:15Z</time>
      </trkpt>
      <trkpt lat="41.1482760" lon="-8.6364690">
        <ele>9.5</ele>
        <time>2019-08-15T12:16:16Z</time>
      </trkpt>
      <trkpt lat="41.1482780" lon="-8.6365610">
        <ele>9.4</ele>
        <time>2019-08-15T12:16:22Z</time>
      </trkpt>
      <trkpt lat="41.1482790" lon="-8.6365860">
        <ele>9.4</ele>
        <time>2019-08-15T12:16:23Z</time>
      </trkpt>
      <trkpt lat="41.1482800" lon="-8.6367360">
        <ele>9.3</ele>
        <time>2019-08-15T12:16:29Z</time>
      </trkpt>
      <trkpt lat="41.1483320" lon="-8.6370790">
        <ele>8.8</ele>
        <time>2019-08-15T12:16:36Z</time>
      </trkpt>
      <trkpt lat="41.1483660" lon="-8.6375690">
        <ele>8.0</ele>
        <time>2019-08-15T12:16:44Z</time>
      </trkpt>
      <trkpt lat="41.1484010" lon="-8.6380450">
        <ele>8.5</ele>
        <time>2019-08-15T12:16:52Z</time>
      </trkpt>
      <trkpt lat="41.1484220" lon="-8.6385760">
        <ele>8.8</ele>
        <time>2019-08-15T12:17:01Z</time>
      </trkpt>
      <trkpt lat="41.1484370" lon="-8.6389910">
        <ele>8.9</ele>
        <time>2019-08-15T12:17:08Z</time>
      </trkpt>
      <trkpt lat="41.1484870" lon="-8.6397550">
        <ele>9.3</ele>
        <time>2019-08-15T12:17:20Z</time>
      </trkpt>
      <trkpt lat="41.1485000" lon="-8.6403450">
        <ele>9.6</ele>
        <time>2019-08-15T12:17:30Z</time>
      </trkpt>
      <trkpt lat="41.1484100" lon="-8.6408430">
        <ele>9.8</ele>
        <time>2019-08-15T12:17:38Z</time>
      </trkpt>
      <trkpt lat="41.1482490" lon="-8.6413960">
        <ele>10.0</ele>
        <time>2019-08-15T12:17:47Z</time>
      </trkpt>
      <trkpt lat="41.1480890" lon="-8.6420190">
        <ele>10.2</ele>
        <time>2019-08-15T12:17:57Z</time>
      </trkpt>
      <trkpt lat="41.1480200" lon="-8.6426080">
        <ele>10.1</ele>
        <time>2019-08-15T12:18:06Z</time>
      </trkpt>
      <trkpt lat="41.1480380" lon="-8.6431780">
        <ele>9.7</ele>
        <time>2019-08-15T12:18:15Z</time>
      </trkpt>
      <trkpt lat="41.1481020" lon="-8.6436370">
        <ele>9.7</ele>
        <time>2019-08-15T12:18:22Z</time>
      </trkpt>
      <trkpt lat="41.1481910" lon="-8.6442200">
        <ele>9.9</ele>
        <time>2019-08-15T12:18:31Z</time>
      </trkpt>
      <trkpt lat="41.1482320" lon="-8.6444960">
        <ele>10.0</ele>
        <time>2019-08-15T12:18:35Z</time>
      </trkpt>
      <trkpt lat="41.1482900" lon="-8.6450490">
        <ele>10.3</ele>
        <time>2019-08-15T12:18:43Z</time>
      </trkpt>
      <trkpt lat="41.1483920" lon="-8.6457810">
        <ele>10.6</ele>
        <time>2019-08-15T12:18:54Z</time>
      </trkpt>
      <trkpt lat="41.1484920" lon="-8.6463490">
        <ele>10.4</ele>
        <time>2019-08-15T12:19:02Z</time>
      </trkpt>
      <trkpt lat="41.1484950" lon="-8.6464210">
        <ele>10.3</ele>
        <time>2019-08-15T12:19:03Z</time>
      </trkpt>
      <trkpt lat="41.1484970" lon="-8.6464980">
        <ele>10.2</ele>
        <time>2019-08-15T12:19:04Z</time>
      </trkpt>
      <trkpt lat="41.1484940" lon="-8.6465680">
        <ele>10.1</ele>
        <time>2019-08-15T12:19:05Z</time>
      </trkpt>
      <trkpt lat="41.1484930" lon="-8.6466380">
        <ele>10.1</ele>
        <time>2019-08-15T12:19:06Z</time>
      </trkpt>
      <trkpt lat="41.1485010" lon="-8.6468540">
        <ele>10.1</ele>
        <time>2019-08-15T12:19:09Z</time>
      </trkpt>
      <trkpt lat="41.1484580" lon="-8.6475080">
        <ele>8.3</ele>
        <time>2019-08-15T12:19:18Z</time>
      </trkpt>
      <trkpt lat="41.1483780" lon="-8.6480720">
        <ele>5.8</ele>
        <time>2019-08-15T12:19:26Z</time>
      </trkpt>
      <trkpt lat="41.1482460" lon="-8.6485750">
        <ele>3.7</ele>
        <time>2019-08-15T12:19:34Z</time>
      </trkpt>
      <trkpt lat="41.1480470" lon="-8.6491320">
        <ele>4.8</ele>
        <time>2019-08-15T12:19:43Z</time>
      </trkpt>
      <trkpt lat="41.1479150" lon="-8.6495300">
        <ele>5.0</ele>
        <time>2019-08-15T12:19:49Z</time>
      </trkpt>
      <trkpt lat="41.1479030" lon="-8.6496010">
        <ele>5.1</ele>
        <time>2019-08-15T12:19:50Z</time>
      </trkpt>
      <trkpt lat="41.1478940" lon="-8.6499410">
        <ele>5.4</ele>
        <time>2019-08-15T12:19:55Z</time>
      </trkpt>
      <trkpt lat="41.1479030" lon="-8.6500070">
        <ele>5.4</ele>
        <time>2019-08-15T12:19:56Z</time>
      </trkpt>
      <trkpt lat="41.1479470" lon="-8.6503120">
        <ele>5.6</ele>
        <time>2019-08-15T12:20:02Z</time>
      </trkpt>
      <trkpt lat="41.1480020" lon="-8.6506990">
        <ele>5.7</ele>
        <time>2019-08-15T12:20:09Z</time>
      </trkpt>
      <trkpt lat="41.1480830" lon="-8.6512700">
        <ele>6.3</ele>
        <time>2019-08-15T12:20:18Z</time>
      </trkpt>
      <trkpt lat="41.1481370" lon="-8.6517070">
        <ele>6.5</ele>
        <time>2019-08-15T12:20:25Z</time>
      </trkpt>
      <trkpt lat="41.1482130" lon="-8.6521580">
        <ele>6.7</ele>
        <time>2019-08-15T12:20:33Z</time>
      </trkpt>
      <trkpt lat="41.1482650" lon="-8.6525200">
        <ele>6.8</ele>
        <time>2019-08-15T12:20:39Z</time>
      </trkpt>
      <trkpt lat="41.1482890" lon="-8.6526940">
        <ele>6.8</ele>
        <time>2019-08-15T12:20:42Z</time>
      </trkpt>
      <trkpt lat="41.1482670" lon="-8.6529900">
        <ele>6.6</ele>
        <time>2019-08-15T12:20:48Z</time>
      </trkpt>
      <trkpt lat="41.1481850" lon="-8.6532240">
        <ele>5.9</ele>
        <time>2019-08-15T12:20:53Z</time>
      </trkpt>
      <trkpt lat="41.1481190" lon="-8.6535390">
        <ele>4.9</ele>
        <time>2019-08-15T12:20:59Z</time>
      </trkpt>
      <trkpt lat="41.1480650" lon="-8.6537190">
        <ele>4.5</ele>
        <time>2019-08-15T12:21:03Z</time>
      </trkpt>
      <trkpt lat="41.1480440" lon="-8.6537840">
        <ele>4.4</ele>
        <time>2019-08-15T12:21:04Z</time>
      </trkpt>
      <trkpt lat="41.1478610" lon="-8.6543170">
        <ele>3.2</ele>
        <time>2019-08-15T12:21:12Z</time>
      </trkpt>
      <trkpt lat="41.1477830" lon="-8.6545880">
        <ele>3.3</ele>
        <time>2019-08-15T12:21:16Z</time>
      </trkpt>
      <trkpt lat="41.1477630" lon="-8.6546540">
        <ele>3.4</ele>
        <time>2019-08-15T12:21:17Z</time>
      </trkpt>
      <trkpt lat="41.1477490" lon="-8.6547150">
        <ele>3.4</ele>
        <time>2019-08-15T12:21:18Z</time>
      </trkpt>
      <trkpt lat="41.1477370" lon="-8.6547740">
        <ele>3.4</ele>
        <time>2019-08-15T12:21:19Z</time>
      </trkpt>
      <trkpt lat="41.1477220" lon="-8.6548350">
        <ele>3.5</ele>
        <time>2019-08-15T12:21:20Z</time>
      </trkpt>
      <trkpt lat="41.1477050" lon="-8.6548960">
        <ele>3.5</ele>
        <time>2019-08-15T12:21:21Z</time>
      </trkpt>
      <trkpt lat="41.1475870" lon="-8.6552600">
        <ele>3.7</ele>
        <time>2019-08-15T12:21:28Z</time>
      </trkpt>
      <trkpt lat="41.1474190" lon="-8.6558260">
        <ele>4.0</ele>
        <time>2019-08-15T12:21:38Z</time>
      </trkpt>
      <trkpt lat="41.1472180" lon="-8.6564550">
        <ele>4.5</ele>
        <time>2019-08-15T12:21:49Z</time>
      </trkpt>
      <trkpt lat="41.1471270" lon="-8.6567200">
        <ele>4.8</ele>
        <time>2019-08-15T12:21:54Z</time>
      </trkpt>
      <trkpt lat="41.1470140" lon="-8.6570320">
        <ele>5.3</ele>
        <time>2019-08-15T12:22:00Z</time>
      </trkpt>
      <trkpt lat="41.1469530" lon="-8.6571970">
        <ele>5.8</ele>
        <time>2019-08-15T12:22:03Z</time>
      </trkpt>
      <trkpt lat="41.1468830" lon="-8.6573460">
        <ele>6.7</ele>
        <time>2019-08-15T12:22:06Z</time>
      </trkpt>
      <trkpt lat="41.1468020" lon="-8.6576180">
        <ele>6.2</ele>
        <time>2019-08-15T12:22:12Z</time>
      </trkpt>
      <trkpt lat="41.1467010" lon="-8.6578870">
        <ele>5.8</ele>
        <time>2019-08-15T12:22:18Z</time>
      </trkpt>
      <trkpt lat="41.1466700" lon="-8.6581590">
        <ele>3.0</ele>
        <time>2019-08-15T12:22:23Z</time>
      </trkpt>
      <trkpt lat="41.1466810" lon="-8.6585690">
        <ele>3.4</ele>
        <time>2019-08-15T12:22:30Z</time>
      </trkpt>
      <trkpt lat="41.1467440" lon="-8.6592640">
        <ele>3.4</ele>
        <time>2019-08-15T12:22:41Z</time>
      </trkpt>
      <trkpt lat="41.1467970" lon="-8.6598360">
        <ele>3.0</ele>
        <time>2019-08-15T12:22:50Z</time>
      </trkpt>
      <trkpt lat="41.1468070" lon="-8.6598980">
        <ele>2.9</ele>
        <time>2019-08-15T12:22:51Z</time>
      </trkpt>
      <trkpt lat="41.1468510" lon="-8.6604500">
        <ele>2.5</ele>
        <time>2019-08-15T12:22:59Z</time>
      </trkpt>
      <trkpt lat="41.1469060" lon="-8.6609810">
        <ele>2.5</ele>
        <time>2019-08-15T12:23:07Z</time>
      </trkpt>
      <trkpt lat="41.1469560" lon="-8.6613760">
        <ele>2.5</ele>
        <time>2019-08-15T12:23:13Z</time>
      </trkpt>
      <trkpt lat="41.1469700" lon="-8.6615070">
        <ele>2.5</ele>
        <time>2019-08-15T12:23:15Z</time>
      </trkpt>
      <trkpt lat="41.1470460" lon="-8.6620490">
        <ele>3.8</ele>
        <time>2019-08-15T12:23:23Z</time>
      </trkpt>
      <trkpt lat="41.1471470" lon="-8.6624990">
        <ele>4.5</ele>
        <time>2019-08-15T12:23:31Z</time>
      </trkpt>
      <trkpt lat="41.1472330" lon="-8.6628750">
        <ele>4.6</ele>
        <time>2019-08-15T12:23:38Z</time>
      </trkpt>
      <trkpt lat="41.1472740" lon="-8.6629800">
        <ele>4.3</ele>
        <time>2019-08-15T12:23:40Z</time>
      </trkpt>
      <trkpt lat="41.1474540" lon="-8.6633970">
        <ele>7.6</ele>
        <time>2019-08-15T12:23:47Z</time>
      </trkpt>
      <trkpt lat="41.1476140" lon="-8.6636730">
        <ele>8.6</ele>
        <time>2019-08-15T12:23:53Z</time>
      </trkpt>
      <trkpt lat="41.1476940" lon="-8.6637920">
        <ele>8.9</ele>
        <time>2019-08-15T12:23:56Z</time>
      </trkpt>
      <trkpt lat="41.1477780" lon="-8.6639340">
        <ele>9.6</ele>
        <time>2019-08-15T12:23:59Z</time>
      </trkpt>
      <trkpt lat="41.1479610" lon="-8.6643010">
        <ele>10.3</ele>
        <time>2019-08-15T12:24:07Z</time>
      </trkpt>
      <trkpt lat="41.1480250" lon="-8.6645760">
        <ele>10.5</ele>
        <time>2019-08-15T12:24:13Z</time>
      </trkpt>
      <trkpt lat="41.1480300" lon="-8.6648270">
        <ele>9.9</ele>
        <time>2019-08-15T12:24:19Z</time>
      </trkpt>
      <trkpt lat="41.1479760" lon="-8.6649180">
        <ele>9.7</ele>
        <time>2019-08-15T12:24:21Z</time>
      </trkpt>
      <trkpt lat="41.1479130" lon="-8.6650110">
        <ele>9.5</ele>
        <time>2019-08-15T12:24:23Z</time>
      </trkpt>
      <trkpt lat="41.1478880" lon="-8.6650650">
        <ele>9.3</ele>
        <time>2019-08-15T12:24:24Z</time>
      </trkpt>
      <trkpt lat="41.1477790" lon="-8.6653130">
        <ele>7.3</ele>
        <time>2019-08-15T12:24:29Z</time>
      </trkpt>
      <trkpt lat="41.1477630" lon="-8.6653720">
        <ele>6.7</ele>
        <time>2019-08-15T12:24:30Z</time>
      </trkpt>
      <trkpt lat="41.1477220" lon="-8.6655870">
        <ele>6.9</ele>
        <time>2019-08-15T12:24:34Z</time>
      </trkpt>
      <trkpt lat="41.1476480" lon="-8.6658870">
        <ele>6.5</ele>
        <time>2019-08-15T12:24:40Z</time>
      </trkpt>
      <trkpt lat="41.1476040" lon="-8.6659790">
        <ele>6.5</ele>
        <time>2019-08-15T12:24:42Z</time>
      </trkpt>
      <trkpt lat="41.1475370" lon="-8.6661970">
        <ele>7.2</ele>
        <time>2019-08-15T12:24:46Z</time>
      </trkpt>
      <trkpt lat="41.1474160" lon="-8.6665100">
        <ele>8.6</ele>
        <time>2019-08-15T12:24:52Z</time>
      </trkpt>
      <trkpt lat="41.1473250" lon="-8.6668360">
        <ele>7.5</ele>
        <time>2019-08-15T12:24:59Z</time>
      </trkpt>
      <trkpt lat="41.1473270" lon="-8.6671260">
        <ele>6.2</ele>
        <time>2019-08-15T12:25:05Z</time>
      </trkpt>
      <trkpt lat="41.1473610" lon="-8.6675190">
        <ele>4.8</ele>
        <time>2019-08-15T12:25:12Z</time>
      </trkpt>
      <trkpt lat="41.1473870" lon="-8.6676380">
        <ele>4.6</ele>
        <time>2019-08-15T12:25:14Z</time>
      </trkpt>
      <trkpt lat="41.1474220" lon="-8.6678300">
        <ele>4.2</ele>
        <time>2019-08-15T12:25:17Z</time>
      </trkpt>
      <trkpt lat="41.1474460" lon="-8.6682770">
        <ele>3.5</ele>
        <time>2019-08-15T12:25:24Z</time>
      </trkpt>
      <trkpt lat="41.1474310" lon="-8.6684730">
        <ele>3.8</ele>
        <time>2019-08-15T12:25:27Z</time>
      </trkpt>
      <trkpt lat="41.1474360" lon="-8.6686670">
        <ele>3.8</ele>
        <time>2019-08-15T12:25:30Z</time>
      </trkpt>
      <trkpt lat="41.1474610" lon="-8.6692820">
        <ele>3.6</ele>
        <time>2019-08-15T12:25:39Z</time>
      </trkpt>
      <trkpt lat="41.1474640" lon="-8.6699440">
        <ele>2.7</ele>
        <time>2019-08-15T12:25:49Z</time>
      </trkpt>
      <trkpt lat="41.1475000" lon="-8.6704840">
        <ele>2.1</ele>
        <time>2019-08-15T12:25:58Z</time>
      </trkpt>
      <trkpt lat="41.1475130" lon="-8.6707240">
        <ele>1.8</ele>
        <time>2019-08-15T12:26:02Z</time>
      </trkpt>
      <trkpt lat="41.1475180" lon="-8.6709100">
        <ele>1.6</ele>
        <time>2019-08-15T12:26:05Z</time>
      </trkpt>
      <trkpt lat="41.1475320" lon="-8.6712520">
        <ele>1.4</ele>
        <time>2019-08-15T12:26:12Z</time>
      </trkpt>
      <trkpt lat="41.1475220" lon="-8.6715950">
        <ele>0.9</ele>
        <time>2019-08-15T12:26:18Z</time>
      </trkpt>
      <trkpt lat="41.1475250" lon="-8.6718420">
        <ele>0.7</ele>
        <time>2019-08-15T12:26:22Z</time>
      </trkpt>
      <trkpt lat="41.1475270" lon="-8.6719820">
        <ele>0.8</ele>
        <time>2019-08-15T12:26:24Z</time>
      </trkpt>
      <trkpt lat="41.1475350" lon="-8.6724230">
        <ele>1.5</ele>
        <time>2019-08-15T12:26:31Z</time>
      </trkpt>
      <trkpt lat="41.1475540" lon="-8.6728530">
        <ele>1.6</ele>
        <time>2019-08-15T12:26:38Z</time>
      </trkpt>
      <trkpt lat="41.1475710" lon="-8.6729020">
        <ele>1.6</ele>
        <time>2019-08-15T12:26:39Z</time>
      </trkpt>
      <trkpt lat="41.1476210" lon="-8.6730610">
        <ele>1.6</ele>
        <time>2019-08-15T12:26:43Z</time>
      </trkpt>
      <trkpt lat="41.1476200" lon="-8.6734120">
        <ele>1.6</ele>
        <time>2019-08-15T12:26:50Z</time>
      </trkpt>
      <trkpt lat="41.1475910" lon="-8.6735820">
        <ele>1.7</ele>
        <time>2019-08-15T12:26:56Z</time>
      </trkpt>
      <trkpt lat="41.1475320" lon="-8.6737580">
        <ele>1.8</ele>
        <time>2019-08-15T12:27:02Z</time>
      </trkpt>
      <trkpt lat="41.1474370" lon="-8.6740310">
        <ele>1.7</ele>
        <time>2019-08-15T12:27:08Z</time>
      </trkpt>
      <trkpt lat="41.1473120" lon="-8.6744710">
        <ele>1.1</ele>
        <time>2019-08-15T12:27:16Z</time>
      </trkpt>
      <trkpt lat="41.1472260" lon="-8.6747970">
        <ele>0.5</ele>
        <time>2019-08-15T12:27:22Z</time>
      </trkpt>
      <trkpt lat="41.1472100" lon="-8.6748530">
        <ele>0.4</ele>
        <time>2019-08-15T12:27:23Z</time>
      </trkpt>
      <trkpt lat="41.1472000" lon="-8.6749120">
        <ele>0.4</ele>
        <time>2019-08-15T12:27:24Z</time>
      </trkpt>
      <trkpt lat="41.1471930" lon="-8.6749690">
        <ele>0.3</ele>
        <time>2019-08-15T12:27:25Z</time>
      </trkpt>
      <trkpt lat="41.1471820" lon="-8.6750230">
        <ele>0.3</ele>
        <time>2019-08-15T12:27:26Z</time>
      </trkpt>
      <trkpt lat="41.1471650" lon="-8.6750720">
        <ele>0.2</ele>
        <time>2019-08-15T12:27:27Z</time>
      </trkpt>
      <trkpt lat="41.1471060" lon="-8.6752140">
        <ele>0.2</ele>
        <time>2019-08-15T12:27:30Z</time>
      </trkpt>
      <trkpt lat="41.1470950" lon="-8.6752690">
        <ele>0.1</ele>
        <time>2019-08-15T12:27:31Z</time>
      </trkpt>
      <trkpt lat="41.1470660" lon="-8.6754790">
        <ele>0.1</ele>
        <time>2019-08-15T12:27:35Z</time>
      </trkpt>
      <trkpt lat="41.1469420" lon="-8.6759270">
        <ele>0.1</ele>
        <time>2019-08-15T12:27:44Z</time>
      </trkpt>
      <trkpt lat="41.1468250" lon="-8.6763080">
        <ele>0.1</ele>
        <time>2019-08-15T12:27:52Z</time>
      </trkpt>
      <trkpt lat="41.1466410" lon="-8.6766590">
        <ele>0.1</ele>
        <time>2019-08-15T12:28:01Z</time>
      </trkpt>
      <trkpt lat="41.1465470" lon="-8.6768030">
        <ele>0.1</ele>
        <time>2019-08-15T12:28:07Z</time>
      </trkpt>
      <trkpt lat="41.1464960" lon="-8.6768890">
        <ele>0.1</ele>
        <time>2019-08-15T12:28:13Z</time>
      </trkpt>
      <trkpt lat="41.1464960" lon="-8.6768970">
        <ele>0.1</ele>
        <time>2019-08-15T12:30:19Z</time>
      </trkpt>
      <trkpt lat="41.1465280" lon="-8.6768460">
        <ele>0.1</ele>
        <time>2019-08-15T12:30:21Z</time>
      </trkpt>
      <trkpt lat="41.1465480" lon="-8.6768070">
        <ele>0.1</ele>
        <time>2019-08-15T12:30:22Z</time>
      </trkpt>
      <trkpt lat="41.1466120" lon="-8.6767020">
        <ele>0.1</ele>
        <time>2019-08-15T12:30:25Z</time>
      </trkpt>
      <trkpt lat="41.1466310" lon="-8.6766650">
        <ele>0.1</ele>
        <time>2019-08-15T12:30:26Z</time>
      </trkpt>
      <trkpt lat="41.1466530" lon="-8.6766280">
        <ele>0.1</ele>
        <time>2019-08-15T12:30:27Z</time>
      </trkpt>
      <trkpt lat="41.1466770" lon="-8.6765880">
        <ele>0.1</ele>
        <time>2019-08-15T12:30:28Z</time>
      </trkpt>
      <trkpt lat="41.1466990" lon="-8.6765480">
        <ele>0.1</ele>
        <time>2019-08-15T12:30:29Z</time>
      </trkpt>
      <trkpt lat="41.1468640" lon="-8.6761850">
        <ele>0.1</ele>
        <time>2019-08-15T12:30:37Z</time>
      </trkpt>
      <trkpt lat="41.1468780" lon="-8.6761300">
        <ele>0.1</ele>
        <time>2019-08-15T12:30:38Z</time>
      </trkpt>
      <trkpt lat="41.1470120" lon="-8.6756680">
        <ele>0.1</ele>
        <time>2019-08-15T12:30:46Z</time>
      </trkpt>
      <trkpt lat="41.1470220" lon="-8.6756080">
        <ele>0.1</ele>
        <time>2019-08-15T12:30:47Z</time>
      </trkpt>
      <trkpt lat="41.1471160" lon="-8.6752470">
        <ele>0.1</ele>
        <time>2019-08-15T12:30:54Z</time>
      </trkpt>
      <trkpt lat="41.1471930" lon="-8.6750080">
        <ele>0.2</ele>
        <time>2019-08-15T12:31:00Z</time>
      </trkpt>
      <trkpt lat="41.1472930" lon="-8.6746260">
        <ele>0.5</ele>
        <time>2019-08-15T12:31:09Z</time>
      </trkpt>
      <trkpt lat="41.1473420" lon="-8.6745300">
        <ele>0.7</ele>
        <time>2019-08-15T12:31:12Z</time>
      </trkpt>
      <trkpt lat="41.1474040" lon="-8.6745440">
        <ele>0.9</ele>
        <time>2019-08-15T12:31:14Z</time>
      </trkpt>
      <trkpt lat="41.1474700" lon="-8.6745800">
        <ele>1.1</ele>
        <time>2019-08-15T12:31:16Z</time>
      </trkpt>
      <trkpt lat="41.1476540" lon="-8.6746660">
        <ele>3.0</ele>
        <time>2019-08-15T12:31:21Z</time>
      </trkpt>
      <trkpt lat="41.1478950" lon="-8.6747890">
        <ele>3.3</ele>
        <time>2019-08-15T12:31:28Z</time>
      </trkpt>
      <trkpt lat="41.1481170" lon="-8.6749310">
        <ele>3.7</ele>
        <time>2019-08-15T12:31:36Z</time>
      </trkpt>
      <trkpt lat="41.1481500" lon="-8.6749410">
        <ele>3.8</ele>
        <time>2019-08-15T12:31:37Z</time>
      </trkpt>
      <trkpt lat="41.1482640" lon="-8.6750060">
        <ele>4.2</ele>
        <time>2019-08-15T12:31:41Z</time>
      </trkpt>
      <trkpt lat="41.1483800" lon="-8.6751520">
        <ele>4.8</ele>
        <time>2019-08-15T12:31:46Z</time>
      </trkpt>
      <trkpt lat="41.1485650" lon="-8.6753490">
        <ele>5.1</ele>
        <time>2019-08-15T12:31:54Z</time>
      </trkpt>
      <trkpt lat="41.1487970" lon="-8.6755230">
        <ele>5.8</ele>
        <time>2019-08-15T12:32:02Z</time>
      </trkpt>
      <trkpt lat="41.1488260" lon="-8.6755510">
        <ele>6.0</ele>
        <time>2019-08-15T12:32:03Z</time>
      </trkpt>
      <trkpt lat="41.1488570" lon="-8.6755740">
        <ele>6.1</ele>
        <time>2019-08-15T12:32:04Z</time>
      </trkpt>
      <trkpt lat="41.1488880" lon="-8.6755980">
        <ele>6.2</ele>
        <time>2019-08-15T12:32:05Z</time>
      </trkpt>
      <trkpt lat="41.1489190" lon="-8.6756210">
        <ele>6.2</ele>
        <time>2019-08-15T12:32:06Z</time>
      </trkpt>
      <trkpt lat="41.1491660" lon="-8.6757950">
        <ele>6.6</ele>
        <time>2019-08-15T12:32:14Z</time>
      </trkpt>
      <trkpt lat="41.1493910" lon="-8.6759680">
        <ele>7.1</ele>
        <time>2019-08-15T12:32:22Z</time>
      </trkpt>
      <trkpt lat="41.1494220" lon="-8.6759890">
        <ele>7.2</ele>
        <time>2019-08-15T12:32:23Z</time>
      </trkpt>
      <trkpt lat="41.1494510" lon="-8.6760120">
        <ele>7.2</ele>
        <time>2019-08-15T12:32:24Z</time>
      </trkpt>
      <trkpt lat="41.1494730" lon="-8.6760430">
        <ele>7.3</ele>
        <time>2019-08-15T12:32:25Z</time>
      </trkpt>
      <trkpt lat="41.1495080" lon="-8.6760670">
        <ele>7.3</ele>
        <time>2019-08-15T12:32:26Z</time>
      </trkpt>
      <trkpt lat="41.1495770" lon="-8.6761100">
        <ele>7.3</ele>
        <time>2019-08-15T12:32:28Z</time>
      </trkpt>
      <trkpt lat="41.1497860" lon="-8.6762450">
        <ele>7.1</ele>
        <time>2019-08-15T12:32:35Z</time>
      </trkpt>
      <trkpt lat="41.1500620" lon="-8.6763170">
        <ele>7.0</ele>
        <time>2019-08-15T12:32:42Z</time>
      </trkpt>
      <trkpt lat="41.1501010" lon="-8.6763370">
        <ele>6.9</ele>
        <time>2019-08-15T12:32:43Z</time>
      </trkpt>
      <trkpt lat="41.1502510" lon="-8.6764420">
        <ele>6.6</ele>
        <time>2019-08-15T12:32:47Z</time>
      </trkpt>
      <trkpt lat="41.1504170" lon="-8.6765650">
        <ele>6.2</ele>
        <time>2019-08-15T12:32:51Z</time>
      </trkpt>
      <trkpt lat="41.1504550" lon="-8.6766010">
        <ele>6.1</ele>
        <time>2019-08-15T12:32:52Z</time>
      </trkpt>
      <trkpt lat="41.1504960" lon="-8.6766400">
        <ele>6.1</ele>
        <time>2019-08-15T12:32:53Z</time>
      </trkpt>
      <trkpt lat="41.1505350" lon="-8.6766850">
        <ele>6.0</ele>
        <time>2019-08-15T12:32:54Z</time>
      </trkpt>
      <trkpt lat="41.1505730" lon="-8.6767250">
        <ele>5.9</ele>
        <time>2019-08-15T12:32:55Z</time>
      </trkpt>
      <trkpt lat="41.1506110" lon="-8.6767690">
        <ele>5.9</ele>
        <time>2019-08-15T12:32:56Z</time>
      </trkpt>
      <trkpt lat="41.1510090" lon="-8.6773100">
        <ele>5.6</ele>
        <time>2019-08-15T12:33:07Z</time>
      </trkpt>
      <trkpt lat="41.1512500" lon="-8.6777210">
        <ele>5.6</ele>
        <time>2019-08-15T12:33:15Z</time>
      </trkpt>
      <trkpt lat="41.1512860" lon="-8.6777590">
        <ele>5.6</ele>
        <time>2019-08-15T12:33:16Z</time>
      </trkpt>
      <trkpt lat="41.1514290" lon="-8.6778190">
        <ele>5.6</ele>
        <time>2019-08-15T12:33:19Z</time>
      </trkpt>
      <trkpt lat="41.1515250" lon="-8.6778270">
        <ele>5.7</ele>
        <time>2019-08-15T12:33:21Z</time>
      </trkpt>
      <trkpt lat="41.1517600" lon="-8.6778910">
        <ele>5.8</ele>
        <time>2019-08-15T12:33:26Z</time>
      </trkpt>
      <trkpt lat="41.1520630" lon="-8.6780670">
        <ele>6.4</ele>
        <time>2019-08-15T12:33:33Z</time>
      </trkpt>
      <trkpt lat="41.1523270" lon="-8.6782190">
        <ele>7.0</ele>
        <time>2019-08-15T12:33:40Z</time>
      </trkpt>
      <trkpt lat="41.1525520" lon="-8.6783180">
        <ele>7.7</ele>
        <time>2019-08-15T12:33:46Z</time>
      </trkpt>
      <trkpt lat="41.1525890" lon="-8.6783380">
        <ele>7.8</ele>
        <time>2019-08-15T12:33:47Z</time>
      </trkpt>
      <trkpt lat="41.1526320" lon="-8.6783540">
        <ele>8.1</ele>
        <time>2019-08-15T12:33:48Z</time>
      </trkpt>
      <trkpt lat="41.1526740" lon="-8.6783730">
        <ele>7.8</ele>
        <time>2019-08-15T12:33:49Z</time>
      </trkpt>
      <trkpt lat="41.1527150" lon="-8.6783910">
        <ele>7.5</ele>
        <time>2019-08-15T12:33:50Z</time>
      </trkpt>
      <trkpt lat="41.1529510" lon="-8.6785640">
        <ele>7.5</ele>
        <time>2019-08-15T12:33:57Z</time>
      </trkpt>
      <trkpt lat="41.1531670" lon="-8.6787710">
        <ele>8.2</ele>
        <time>2019-08-15T12:34:04Z</time>
      </trkpt>
      <trkpt lat="41.1532040" lon="-8.6787990">
        <ele>8.3</ele>
        <time>2019-08-15T12:34:05Z</time>
      </trkpt>
      <trkpt lat="41.1532360" lon="-8.6788260">
        <ele>8.4</ele>
        <time>2019-08-15T12:34:06Z</time>
      </trkpt>
      <trkpt lat="41.1532710" lon="-8.6788520">
        <ele>8.4</ele>
        <time>2019-08-15T12:34:07Z</time>
      </trkpt>
      <trkpt lat="41.1533050" lon="-8.6788770">
        <ele>8.5</ele>
        <time>2019-08-15T12:34:08Z</time>
      </trkpt>
      <trkpt lat="41.1536290" lon="-8.6791000">
        <ele>8.8</ele>
        <time>2019-08-15T12:34:16Z</time>
      </trkpt>
      <trkpt lat="41.1538550" lon="-8.6791980">
        <ele>8.2</ele>
        <time>2019-08-15T12:34:21Z</time>
      </trkpt>
      <trkpt lat="41.1538910" lon="-8.6792290">
        <ele>8.0</ele>
        <time>2019-08-15T12:34:22Z</time>
      </trkpt>
      <trkpt lat="41.1539650" lon="-8.6792870">
        <ele>8.0</ele>
        <time>2019-08-15T12:34:24Z</time>
      </trkpt>
      <trkpt lat="41.1542510" lon="-8.6795660">
        <ele>8.0</ele>
        <time>2019-08-15T12:34:32Z</time>
      </trkpt>
      <trkpt lat="41.1542820" lon="-8.6795990">
        <ele>8.2</ele>
        <time>2019-08-15T12:34:33Z</time>
      </trkpt>
      <trkpt lat="41.1543080" lon="-8.6796430">
        <ele>8.3</ele>
        <time>2019-08-15T12:34:34Z</time>
      </trkpt>
      <trkpt lat="41.1543520" lon="-8.6796720">
        <ele>8.4</ele>
        <time>2019-08-15T12:34:35Z</time>
      </trkpt>
      <trkpt lat="41.1543950" lon="-8.6797020">
        <ele>8.5</ele>
        <time>2019-08-15T12:34:36Z</time>
      </trkpt>
      <trkpt lat="41.1544360" lon="-8.6797350">
        <ele>8.7</ele>
        <time>2019-08-15T12:34:37Z</time>
      </trkpt>
      <trkpt lat="41.1545550" lon="-8.6798620">
        <ele>9.1</ele>
        <time>2019-08-15T12:34:40Z</time>
      </trkpt>
      <trkpt lat="41.1546010" lon="-8.6798890">
        <ele>9.3</ele>
        <time>2019-08-15T12:34:41Z</time>
      </trkpt>
      <trkpt lat="41.1548580" lon="-8.6801000">
        <ele>10.1</ele>
        <time>2019-08-15T12:34:47Z</time>
      </trkpt>
      <trkpt lat="41.1550250" lon="-8.6802450">
        <ele>9.8</ele>
        <time>2019-08-15T12:34:51Z</time>
      </trkpt>
      <trkpt lat="41.1550700" lon="-8.6802830">
        <ele>9.7</ele>
        <time>2019-08-15T12:34:52Z</time>
      </trkpt>
      <trkpt lat="41.1551130" lon="-8.6803200">
        <ele>9.7</ele>
        <time>2019-08-15T12:34:53Z</time>
      </trkpt>
      <trkpt lat="41.1551570" lon="-8.6803570">
        <ele>9.6</ele>
        <time>2019-08-15T12:34:54Z</time>
      </trkpt>
      <trkpt lat="41.1552030" lon="-8.6803970">
        <ele>9.5</ele>
        <time>2019-08-15T12:34:55Z</time>
      </trkpt>
      <trkpt lat="41.1553890" lon="-8.6805550">
        <ele>9.4</ele>
        <time>2019-08-15T12:34:59Z</time>
      </trkpt>
      <trkpt lat="41.1558140" lon="-8.6808730">
        <ele>9.5</ele>
        <time>2019-08-15T12:35:08Z</time>
      </trkpt>
      <trkpt lat="41.1560580" lon="-8.6810890">
        <ele>8.2</ele>
        <time>2019-08-15T12:35:14Z</time>
      </trkpt>
      <trkpt lat="41.1561030" lon="-8.6811160">
        <ele>8.1</ele>
        <time>2019-08-15T12:35:15Z</time>
      </trkpt>
      <trkpt lat="41.1564070" lon="-8.6813880">
        <ele>7.3</ele>
        <time>2019-08-15T12:35:23Z</time>
      </trkpt>
      <trkpt lat="41.1568140" lon="-8.6817280">
        <ele>6.7</ele>
        <time>2019-08-15T12:35:33Z</time>
      </trkpt>
      <trkpt lat="41.1571200" lon="-8.6820360">
        <ele>8.2</ele>
        <time>2019-08-15T12:35:42Z</time>
      </trkpt>
      <trkpt lat="41.1574020" lon="-8.6822340">
        <ele>8.2</ele>
        <time>2019-08-15T12:35:50Z</time>
      </trkpt>
      <trkpt lat="41.1575420" lon="-8.6823530">
        <ele>8.3</ele>
        <time>2019-08-15T12:35:55Z</time>
      </trkpt>
      <trkpt lat="41.1578050" lon="-8.6825800">
        <ele>8.7</ele>
        <time>2019-08-15T12:36:03Z</time>
      </trkpt>
      <trkpt lat="41.1580910" lon="-8.6827960">
        <ele>8.8</ele>
        <time>2019-08-15T12:36:10Z</time>
      </trkpt>
      <trkpt lat="41.1584270" lon="-8.6830540">
        <ele>8.7</ele>
        <time>2019-08-15T12:36:17Z</time>
      </trkpt>
      <trkpt lat="41.1588420" lon="-8.6834300">
        <ele>9.0</ele>
        <time>2019-08-15T12:36:27Z</time>
      </trkpt>
      <trkpt lat="41.1592090" lon="-8.6837180">
        <ele>9.3</ele>
        <time>2019-08-15T12:36:36Z</time>
      </trkpt>
      <trkpt lat="41.1597220" lon="-8.6840480">
        <ele>9.3</ele>
        <time>2019-08-15T12:36:48Z</time>
      </trkpt>
      <trkpt lat="41.1600680" lon="-8.6842470">
        <ele>9.4</ele>
        <time>2019-08-15T12:36:56Z</time>
      </trkpt>
      <trkpt lat="41.1605100" lon="-8.6845180">
        <ele>9.1</ele>
        <time>2019-08-15T12:37:07Z</time>
      </trkpt>
      <trkpt lat="41.1608140" lon="-8.6846880">
        <ele>8.2</ele>
        <time>2019-08-15T12:37:14Z</time>
      </trkpt>
      <trkpt lat="41.1612950" lon="-8.6849560">
        <ele>6.5</ele>
        <time>2019-08-15T12:37:25Z</time>
      </trkpt>
      <trkpt lat="41.1617050" lon="-8.6852010">
        <ele>4.9</ele>
        <time>2019-08-15T12:37:35Z</time>
      </trkpt>
      <trkpt lat="41.1620450" lon="-8.6853960">
        <ele>4.7</ele>
        <time>2019-08-15T12:37:43Z</time>
      </trkpt>
      <trkpt lat="41.1624600" lon="-8.6856040">
        <ele>4.8</ele>
        <time>2019-08-15T12:37:52Z</time>
      </trkpt>
      <trkpt lat="41.1629610" lon="-8.6858820">
        <ele>4.7</ele>
        <time>2019-08-15T12:38:03Z</time>
      </trkpt>
      <trkpt lat="41.1630060" lon="-8.6859070">
        <ele>4.9</ele>
        <time>2019-08-15T12:38:04Z</time>
      </trkpt>
      <trkpt lat="41.1633490" lon="-8.6861120">
        <ele>7.4</ele>
        <time>2019-08-15T12:38:12Z</time>
      </trkpt>
      <trkpt lat="41.1634880" lon="-8.6861800">
        <ele>7.8</ele>
        <time>2019-08-15T12:38:15Z</time>
      </trkpt>
      <trkpt lat="41.1638480" lon="-8.6863820">
        <ele>7.8</ele>
        <time>2019-08-15T12:38:23Z</time>
      </trkpt>
      <trkpt lat="41.1642520" lon="-8.6865900">
        <ele>7.8</ele>
        <time>2019-08-15T12:38:32Z</time>
      </trkpt>
      <trkpt lat="41.1645750" lon="-8.6867890">
        <ele>8.3</ele>
        <time>2019-08-15T12:38:39Z</time>
      </trkpt>
      <trkpt lat="41.1647890" lon="-8.6869440">
        <ele>8.5</ele>
        <time>2019-08-15T12:38:45Z</time>
      </trkpt>
      <trkpt lat="41.1648250" lon="-8.6869710">
        <ele>8.5</ele>
        <time>2019-08-15T12:38:46Z</time>
      </trkpt>
      <trkpt lat="41.1648650" lon="-8.6869940">
        <ele>8.5</ele>
        <time>2019-08-15T12:38:47Z</time>
      </trkpt>
      <trkpt lat="41.1649050" lon="-8.6870180">
        <ele>8.6</ele>
        <time>2019-08-15T12:38:48Z</time>
      </trkpt>
      <trkpt lat="41.1649450" lon="-8.6870400">
        <ele>8.6</ele>
        <time>2019-08-15T12:38:49Z</time>
      </trkpt>
      <trkpt lat="41.1652390" lon="-8.6872160">
        <ele>8.9</ele>
        <time>2019-08-15T12:38:56Z</time>
      </trkpt>
      <trkpt lat="41.1656090" lon="-8.6874160">
        <ele>9.3</ele>
        <time>2019-08-15T12:39:04Z</time>
      </trkpt>
      <trkpt lat="41.1659430" lon="-8.6876180">
        <ele>9.1</ele>
        <time>2019-08-15T12:39:12Z</time>
      </trkpt>
      <trkpt lat="41.1662630" lon="-8.6878010">
        <ele>8.6</ele>
        <time>2019-08-15T12:39:21Z</time>
      </trkpt>
      <trkpt lat="41.1665830" lon="-8.6879760">
        <ele>8.8</ele>
        <time>2019-08-15T12:39:30Z</time>
      </trkpt>
      <trkpt lat="41.1669190" lon="-8.6881580">
        <ele>8.5</ele>
        <time>2019-08-15T12:39:39Z</time>
      </trkpt>
      <trkpt lat="41.1671340" lon="-8.6882850">
        <ele>8.1</ele>
        <time>2019-08-15T12:39:44Z</time>
      </trkpt>
      <trkpt lat="41.1671770" lon="-8.6883890">
        <ele>8.0</ele>
        <time>2019-08-15T12:39:46Z</time>
      </trkpt>
      <trkpt lat="41.1671740" lon="-8.6886200">
        <ele>7.9</ele>
        <time>2019-08-15T12:39:50Z</time>
      </trkpt>
      <trkpt lat="41.1672070" lon="-8.6888760">
        <ele>7.2</ele>
        <time>2019-08-15T12:39:55Z</time>
      </trkpt>
      <trkpt lat="41.1672210" lon="-8.6889310">
        <ele>7.0</ele>
        <time>2019-08-15T12:39:56Z</time>
      </trkpt>
      <trkpt lat="41.1672570" lon="-8.6890440">
        <ele>6.7</ele>
        <time>2019-08-15T12:39:58Z</time>
      </trkpt>
      <trkpt lat="41.1673510" lon="-8.6892420">
        <ele>6.6</ele>
        <time>2019-08-15T12:40:02Z</time>
      </trkpt>
      <trkpt lat="41.1674020" lon="-8.6893490">
        <ele>6.5</ele>
        <time>2019-08-15T12:40:04Z</time>
      </trkpt>
      <trkpt lat="41.1675220" lon="-8.6894610">
        <ele>6.4</ele>
        <time>2019-08-15T12:40:07Z</time>
      </trkpt>
      <trkpt lat="41.1675670" lon="-8.6894940">
        <ele>6.4</ele>
        <time>2019-08-15T12:40:08Z</time>
      </trkpt>
      <trkpt lat="41.1676160" lon="-8.6895260">
        <ele>6.3</ele>
        <time>2019-08-15T12:40:09Z</time>
      </trkpt>
      <trkpt lat="41.1676600" lon="-8.6895500">
        <ele>6.3</ele>
        <time>2019-08-15T12:40:10Z</time>
      </trkpt>
      <trkpt lat="41.1677010" lon="-8.6895670">
        <ele>6.2</ele>
        <time>2019-08-15T12:40:11Z</time>
      </trkpt>
      <trkpt lat="41.1677970" lon="-8.6895940">
        <ele>6.2</ele>
        <time>2019-08-15T12:40:13Z</time>
      </trkpt>
      <trkpt lat="41.1678980" lon="-8.6896070">
        <ele>6.1</ele>
        <time>2019-08-15T12:40:15Z</time>
      </trkpt>
      <trkpt lat="41.1680540" lon="-8.6895750">
        <ele>6.2</ele>
        <time>2019-08-15T12:40:18Z</time>
      </trkpt>
      <trkpt lat="41.1681560" lon="-8.6895370">
        <ele>6.2</ele>
        <time>2019-08-15T12:40:20Z</time>
      </trkpt>
      <trkpt lat="41.1683450" lon="-8.6894310">
        <ele>6.4</ele>
        <time>2019-08-15T12:40:24Z</time>
      </trkpt>
      <trkpt lat="41.1684730" lon="-8.6893350">
        <ele>6.2</ele>
        <time>2019-08-15T12:40:27Z</time>
      </trkpt>
      <trkpt lat="41.1685780" lon="-8.6892010">
        <ele>6.0</ele>
        <time>2019-08-15T12:40:30Z</time>
      </trkpt>
      <trkpt lat="41.1687010" lon="-8.6888900">
        <ele>5.7</ele>
        <time>2019-08-15T12:40:35Z</time>
      </trkpt>
      <trkpt lat="41.1687190" lon="-8.6888160">
        <ele>5.7</ele>
        <time>2019-08-15T12:40:36Z</time>
      </trkpt>
      <trkpt lat="41.1687310" lon="-8.6887370">
        <ele>5.7</ele>
        <time>2019-08-15T12:40:37Z</time>
      </trkpt>
      <trkpt lat="41.1687440" lon="-8.6886580">
        <ele>5.6</ele>
        <time>2019-08-15T12:40:38Z</time>
      </trkpt>
      <trkpt lat="41.1687610" lon="-8.6885750">
        <ele>5.6</ele>
        <time>2019-08-15T12:40:39Z</time>
      </trkpt>
      <trkpt lat="41.1687820" lon="-8.6884910">
        <ele>5.6</ele>
        <time>2019-08-15T12:40:40Z</time>
      </trkpt>
      <trkpt lat="41.1688110" lon="-8.6884130">
        <ele>5.6</ele>
        <time>2019-08-15T12:40:41Z</time>
      </trkpt>
      <trkpt lat="41.1688440" lon="-8.6883380">
        <ele>5.6</ele>
        <time>2019-08-15T12:40:42Z</time>
      </trkpt>
      <trkpt lat="41.1688730" lon="-8.6882710">
        <ele>5.6</ele>
        <time>2019-08-15T12:40:43Z</time>
      </trkpt>
      <trkpt lat="41.1689040" lon="-8.6882020">
        <ele>5.6</ele>
        <time>2019-08-15T12:40:44Z</time>
      </trkpt>
      <trkpt lat="41.1691010" lon="-8.6878490">
        <ele>5.0</ele>
        <time>2019-08-15T12:40:50Z</time>
      </trkpt>
      <trkpt lat="41.1691420" lon="-8.6878130">
        <ele>4.9</ele>
        <time>2019-08-15T12:40:51Z</time>
      </trkpt>
      <trkpt lat="41.1693320" lon="-8.6877780">
        <ele>4.7</ele>
        <time>2019-08-15T12:40:55Z</time>
      </trkpt>
      <trkpt lat="41.1693780" lon="-8.6877870">
        <ele>4.7</ele>
        <time>2019-08-15T12:40:56Z</time>
      </trkpt>
      <trkpt lat="41.1694210" lon="-8.6877890">
        <ele>4.7</ele>
        <time>2019-08-15T12:40:57Z</time>
      </trkpt>
      <trkpt lat="41.1694630" lon="-8.6877950">
        <ele>4.7</ele>
        <time>2019-08-15T12:40:58Z</time>
      </trkpt>
      <trkpt lat="41.1695000" lon="-8.6878000">
        <ele>4.7</ele>
        <time>2019-08-15T12:40:59Z</time>
      </trkpt>
      <trkpt lat="41.1695320" lon="-8.6878060">
        <ele>4.7</ele>
        <time>2019-08-15T12:41:00Z</time>
      </trkpt>
      <trkpt lat="41.1695570" lon="-8.6878110">
        <ele>4.7</ele>
        <time>2019-08-15T12:41:01Z</time>
      </trkpt>
      <trkpt lat="41.1696700" lon="-8.6878410">
        <ele>4.7</ele>
        <time>2019-08-15T12:41:07Z</time>
      </trkpt>
      <trkpt lat="41.1697000" lon="-8.6878730">
        <ele>4.6</ele>
        <time>2019-08-15T12:41:10Z</time>
      </trkpt>
      <trkpt lat="41.1697210" lon="-8.6878540">
        <ele>4.6</ele>
        <time>2019-08-15T12:41:11Z</time>
      </trkpt>
      <trkpt lat="41.1697480" lon="-8.6878290">
        <ele>4.6</ele>
        <time>2019-08-15T12:41:12Z</time>
      </trkpt>
      <trkpt lat="41.1697780" lon="-8.6877890">
        <ele>4.6</ele>
        <time>2019-08-15T12:41:13Z</time>
      </trkpt>
      <trkpt lat="41.1697960" lon="-8.6877410">
        <ele>4.6</ele>
        <time>2019-08-15T12:41:14Z</time>
      </trkpt>
      <trkpt lat="41.1698110" lon="-8.6875820">
        <ele>4.5</ele>
        <time>2019-08-15T12:41:17Z</time>
      </trkpt>
      <trkpt lat="41.1698160" lon="-8.6874790">
        <ele>4.4</ele>
        <time>2019-08-15T12:41:19Z</time>
      </trkpt>
      <trkpt lat="41.1698670" lon="-8.6873370">
        <ele>4.3</ele>
        <time>2019-08-15T12:41:22Z</time>
      </trkpt>
      <trkpt lat="41.1699270" lon="-8.6872590">
        <ele>4.2</ele>
        <time>2019-08-15T12:41:24Z</time>
      </trkpt>
      <trkpt lat="41.1700110" lon="-8.6872310">
        <ele>4.1</ele>
        <time>2019-08-15T12:41:26Z</time>
      </trkpt>
      <trkpt lat="41.1700870" lon="-8.6872190">
        <ele>4.1</ele>
        <time>2019-08-15T12:41:28Z</time>
      </trkpt>
      <trkpt lat="41.1702100" lon="-8.6871110">
        <ele>4.4</ele>
        <time>2019-08-15T12:41:32Z</time>
      </trkpt>
      <trkpt lat="41.1704280" lon="-8.6870990">
        <ele>4.5</ele>
        <time>2019-08-15T12:41:38Z</time>
      </trkpt>
      <trkpt lat="41.1707010" lon="-8.6872320">
        <ele>4.1</ele>
        <time>2019-08-15T12:41:46Z</time>
      </trkpt>
      <trkpt lat="41.1709030" lon="-8.6875250">
        <ele>3.9</ele>
        <time>2019-08-15T12:41:53Z</time>
      </trkpt>
      <trkpt lat="41.1711020" lon="-8.6878110">
        <ele>3.8</ele>
        <time>2019-08-15T12:42:01Z</time>
      </trkpt>
      <trkpt lat="41.1713150" lon="-8.6879780">
        <ele>3.6</ele>
        <time>2019-08-15T12:42:08Z</time>
      </trkpt>
      <trkpt lat="41.1714450" lon="-8.6881120">
        <ele>3.6</ele>
        <time>2019-08-15T12:42:14Z</time>
      </trkpt>
      <trkpt lat="41.1716850" lon="-8.6883060">
        <ele>3.7</ele>
        <time>2019-08-15T12:42:22Z</time>
      </trkpt>
      <trkpt lat="41.1718780" lon="-8.6885170">
        <ele>3.8</ele>
        <time>2019-08-15T12:42:29Z</time>
      </trkpt>
      <trkpt lat="41.1720070" lon="-8.6886620">
        <ele>4.0</ele>
        <time>2019-08-15T12:42:34Z</time>
      </trkpt>
      <trkpt lat="41.1721720" lon="-8.6888900">
        <ele>4.1</ele>
        <time>2019-08-15T12:42:40Z</time>
      </trkpt>
      <trkpt lat="41.1722680" lon="-8.6889810">
        <ele>4.2</ele>
        <time>2019-08-15T12:42:43Z</time>
      </trkpt>
      <trkpt lat="41.1724420" lon="-8.6890790">
        <ele>4.4</ele>
        <time>2019-08-15T12:42:48Z</time>
      </trkpt>
      <trkpt lat="41.1726510" lon="-8.6891010">
        <ele>4.8</ele>
        <time>2019-08-15T12:42:53Z</time>
      </trkpt>
      <trkpt lat="41.1727310" lon="-8.6891080">
        <ele>5.0</ele>
        <time>2019-08-15T12:42:55Z</time>
      </trkpt>
      <trkpt lat="41.1728630" lon="-8.6892000">
        <ele>5.3</ele>
        <time>2019-08-15T12:42:59Z</time>
      </trkpt>
      <trkpt lat="41.1728980" lon="-8.6892270">
        <ele>5.4</ele>
        <time>2019-08-15T12:43:00Z</time>
      </trkpt>
      <trkpt lat="41.1729340" lon="-8.6892510">
        <ele>5.4</ele>
        <time>2019-08-15T12:43:01Z</time>
      </trkpt>
      <trkpt lat="41.1729670" lon="-8.6892680">
        <ele>5.5</ele>
        <time>2019-08-15T12:43:02Z</time>
      </trkpt>
      <trkpt lat="41.1730000" lon="-8.6892740">
        <ele>5.6</ele>
        <time>2019-08-15T12:43:03Z</time>
      </trkpt>
      <trkpt lat="41.1730640" lon="-8.6892820">
        <ele>5.7</ele>
        <time>2019-08-15T12:43:05Z</time>
      </trkpt>
      <trkpt lat="41.1732280" lon="-8.6893380">
        <ele>5.8</ele>
        <time>2019-08-15T12:43:10Z</time>
      </trkpt>
      <trkpt lat="41.1734830" lon="-8.6893680">
        <ele>6.0</ele>
        <time>2019-08-15T12:43:18Z</time>
      </trkpt>
      <trkpt lat="41.1736410" lon="-8.6894070">
        <ele>6.1</ele>
        <time>2019-08-15T12:43:23Z</time>
      </trkpt>
      <trkpt lat="41.1738620" lon="-8.6893130">
        <ele>6.4</ele>
        <time>2019-08-15T12:43:30Z</time>
      </trkpt>
      <trkpt lat="41.1740010" lon="-8.6893530">
        <ele>6.4</ele>
        <time>2019-08-15T12:43:34Z</time>
      </trkpt>
      <trkpt lat="41.1742540" lon="-8.6895640">
        <ele>6.4</ele>
        <time>2019-08-15T12:43:42Z</time>
      </trkpt>
      <trkpt lat="41.1745950" lon="-8.6898320">
        <ele>6.4</ele>
        <time>2019-08-15T12:43:52Z</time>
      </trkpt>
      <trkpt lat="41.1749450" lon="-8.6901240">
        <ele>6.4</ele>
        <time>2019-08-15T12:44:02Z</time>
      </trkpt>
      <trkpt lat="41.1752800" lon="-8.6903940">
        <ele>6.3</ele>
        <time>2019-08-15T12:44:11Z</time>
      </trkpt>
      <trkpt lat="41.1756300" lon="-8.6906410">
        <ele>5.6</ele>
        <time>2019-08-15T12:44:20Z</time>
      </trkpt>
      <trkpt lat="41.1759230" lon="-8.6909040">
        <ele>5.5</ele>
        <time>2019-08-15T12:44:28Z</time>
      </trkpt>
      <trkpt lat="41.1764280" lon="-8.6912830">
        <ele>5.5</ele>
        <time>2019-08-15T12:44:41Z</time>
      </trkpt>
      <trkpt lat="41.1768580" lon="-8.6916260">
        <ele>5.3</ele>
        <time>2019-08-15T12:44:52Z</time>
      </trkpt>
      <trkpt lat="41.1772430" lon="-8.6919430">
        <ele>4.5</ele>
        <time>2019-08-15T12:45:02Z</time>
      </trkpt>
      <trkpt lat="41.1773240" lon="-8.6920140">
        <ele>4.5</ele>
        <time>2019-08-15T12:45:04Z</time>
      </trkpt>
      <trkpt lat="41.1777590" lon="-8.6923360">
        <ele>4.5</ele>
        <time>2019-08-15T12:45:15Z</time>
      </trkpt>
      <trkpt lat="41.1779790" lon="-8.6925030">
        <ele>4.5</ele>
        <time>2019-08-15T12:45:21Z</time>
      </trkpt>
      <trkpt lat="41.1780490" lon="-8.6925700">
        <ele>4.5</ele>
        <time>2019-08-15T12:45:23Z</time>
      </trkpt>
      <trkpt lat="41.1783910" lon="-8.6928270">
        <ele>4.5</ele>
        <time>2019-08-15T12:45:32Z</time>
      </trkpt>
      <trkpt lat="41.1787790" lon="-8.6931360">
        <ele>4.5</ele>
        <time>2019-08-15T12:45:42Z</time>
      </trkpt>
      <trkpt lat="41.1792400" lon="-8.6935070">
        <ele>4.5</ele>
        <time>2019-08-15T12:45:54Z</time>
      </trkpt>
      <trkpt lat="41.1793520" lon="-8.6935990">
        <ele>4.5</ele>
        <time>2019-08-15T12:45:57Z</time>
      </trkpt>
      <trkpt lat="41.1795360" lon="-8.6937540">
        <ele>4.5</ele>
        <time>2019-08-15T12:46:02Z</time>
      </trkpt>
      <trkpt lat="41.1797250" lon="-8.6938380">
        <ele>5.0</ele>
        <time>2019-08-15T12:46:08Z</time>
      </trkpt>
      <trkpt lat="41.1799770" lon="-8.6939050">
        <ele>6.2</ele>
        <time>2019-08-15T12:46:17Z</time>
      </trkpt>
      <trkpt lat="41.1801710" lon="-8.6939310">
        <ele>6.9</ele>
        <time>2019-08-15T12:46:23Z</time>
      </trkpt>
      <trkpt lat="41.1803650" lon="-8.6940130">
        <ele>7.0</ele>
        <time>2019-08-15T12:46:29Z</time>
      </trkpt>
      <trkpt lat="41.1804670" lon="-8.6941480">
        <ele>7.0</ele>
        <time>2019-08-15T12:46:33Z</time>
      </trkpt>
      <trkpt lat="41.1807350" lon="-8.6942840">
        <ele>6.8</ele>
        <time>2019-08-15T12:46:41Z</time>
      </trkpt>
      <trkpt lat="41.1808810" lon="-8.6942830">
        <ele>6.7</ele>
        <time>2019-08-15T12:46:46Z</time>
      </trkpt>
      <trkpt lat="41.1811670" lon="-8.6941430">
        <ele>6.9</ele>
        <time>2019-08-15T12:46:54Z</time>
      </trkpt>
      <trkpt lat="41.1815080" lon="-8.6939740">
        <ele>7.7</ele>
        <time>2019-08-15T12:47:04Z</time>
      </trkpt>
      <trkpt lat="41.1817200" lon="-8.6938530">
        <ele>8.4</ele>
        <time>2019-08-15T12:47:11Z</time>
      </trkpt>
      <trkpt lat="41.1818330" lon="-8.6938400">
        <ele>8.8</ele>
        <time>2019-08-15T12:47:17Z</time>
      </trkpt>
      <trkpt lat="41.1819810" lon="-8.6939400">
        <ele>9.1</ele>
        <time>2019-08-15T12:47:23Z</time>
      </trkpt>
      <trkpt lat="41.1820840" lon="-8.6940480">
        <ele>9.1</ele>
        <time>2019-08-15T12:47:27Z</time>
      </trkpt>
      <trkpt lat="41.1820820" lon="-8.6940390">
        <ele>9.1</ele>
        <time>2019-08-15T12:47:28Z</time>
      </trkpt>
      <trkpt lat="41.1821210" lon="-8.6940690">
        <ele>9.1</ele>
        <time>2019-08-15T12:47:30Z</time>
      </trkpt>
      <trkpt lat="41.1821440" lon="-8.6940940">
        <ele>9.1</ele>
        <time>2019-08-15T12:47:31Z</time>
      </trkpt>
      <trkpt lat="41.1822990" lon="-8.6941820">
        <ele>9.1</ele>
        <time>2019-08-15T12:47:38Z</time>
      </trkpt>
      <trkpt lat="41.1824000" lon="-8.6942950">
        <ele>9.2</ele>
        <time>2019-08-15T12:47:44Z</time>
      </trkpt>
      <trkpt lat="41.1824840" lon="-8.6944000">
        <ele>9.3</ele>
        <time>2019-08-15T12:47:50Z</time>
      </trkpt>
      <trkpt lat="41.1826940" lon="-8.6945870">
        <ele>9.4</ele>
        <time>2019-08-15T12:47:56Z</time>
      </trkpt>
      <trkpt lat="41.1829750" lon="-8.6948370">
        <ele>9.3</ele>
        <time>2019-08-15T12:48:05Z</time>
      </trkpt>
      <trkpt lat="41.1831420" lon="-8.6950070">
        <ele>9.1</ele>
        <time>2019-08-15T12:48:13Z</time>
      </trkpt>
      <trkpt lat="41.1832750" lon="-8.6951200">
        <ele>9.0</ele>
        <time>2019-08-15T12:48:20Z</time>
      </trkpt>
      <trkpt lat="41.1833630" lon="-8.6952200">
        <ele>8.9</ele>
        <time>2019-08-15T12:48:24Z</time>
      </trkpt>
      <trkpt lat="41.1834610" lon="-8.6953100">
        <ele>8.8</ele>
        <time>2019-08-15T12:48:29Z</time>
      </trkpt>
      <trkpt lat="41.1836180" lon="-8.6954530">
        <ele>8.5</ele>
        <time>2019-08-15T12:48:34Z</time>
      </trkpt>
      <trkpt lat="41.1838210" lon="-8.6957010">
        <ele>8.0</ele>
        <time>2019-08-15T12:48:41Z</time>
      </trkpt>
      <trkpt lat="41.1840340" lon="-8.6958780">
        <ele>7.6</ele>
        <time>2019-08-15T12:48:46Z</time>
      </trkpt>
      <trkpt lat="41.1842740" lon="-8.6961010">
        <ele>7.4</ele>
        <time>2019-08-15T12:48:53Z</time>
      </trkpt>
      <trkpt lat="41.1844020" lon="-8.6962650">
        <ele>7.0</ele>
        <time>2019-08-15T12:48:58Z</time>
      </trkpt>
      <trkpt lat="41.1845710" lon="-8.6964200">
        <ele>6.2</ele>
        <time>2019-08-15T12:49:03Z</time>
      </trkpt>
      <trkpt lat="41.1848780" lon="-8.6966860">
        <ele>5.4</ele>
        <time>2019-08-15T12:49:10Z</time>
      </trkpt>
      <trkpt lat="41.1850190" lon="-8.6967720">
        <ele>5.4</ele>
        <time>2019-08-15T12:49:13Z</time>
      </trkpt>
      <trkpt lat="41.1851140" lon="-8.6967860">
        <ele>5.4</ele>
        <time>2019-08-15T12:49:15Z</time>
      </trkpt>
      <trkpt lat="41.1851970" lon="-8.6967920">
        <ele>5.5</ele>
        <time>2019-08-15T12:49:17Z</time>
      </trkpt>
      <trkpt lat="41.1853130" lon="-8.6967830">
        <ele>5.5</ele>
        <time>2019-08-15T12:49:20Z</time>
      </trkpt>
      <trkpt lat="41.1855180" lon="-8.6966610">
        <ele>5.8</ele>
        <time>2019-08-15T12:49:26Z</time>
      </trkpt>
      <trkpt lat="41.1855500" lon="-8.6966470">
        <ele>5.8</ele>
        <time>2019-08-15T12:49:27Z</time>
      </trkpt>
      <trkpt lat="41.1855780" lon="-8.6966330">
        <ele>5.8</ele>
        <time>2019-08-15T12:49:28Z</time>
      </trkpt>
      <trkpt lat="41.1856060" lon="-8.6966250">
        <ele>5.9</ele>
        <time>2019-08-15T12:49:29Z</time>
      </trkpt>
      <trkpt lat="41.1856240" lon="-8.6966180">
        <ele>5.9</ele>
        <time>2019-08-15T12:49:30Z</time>
      </trkpt>
      <trkpt lat="41.1856930" lon="-8.6965800">
        <ele>5.9</ele>
        <time>2019-08-15T12:49:33Z</time>
      </trkpt>
      <trkpt lat="41.1857940" lon="-8.6964600">
        <ele>6.1</ele>
        <time>2019-08-15T12:49:37Z</time>
      </trkpt>
      <trkpt lat="41.1858030" lon="-8.6963640">
        <ele>6.1</ele>
        <time>2019-08-15T12:49:41Z</time>
      </trkpt>
      <trkpt lat="41.1857830" lon="-8.6961660">
        <ele>6.2</ele>
        <time>2019-08-15T12:49:47Z</time>
      </trkpt>
      <trkpt lat="41.1857960" lon="-8.6960890">
        <ele>6.2</ele>
        <time>2019-08-15T12:49:49Z</time>
      </trkpt>
      <trkpt lat="41.1858600" lon="-8.6960390">
        <ele>6.2</ele>
        <time>2019-08-15T12:49:51Z</time>
      </trkpt>
      <trkpt lat="41.1859310" lon="-8.6959950">
        <ele>6.1</ele>
        <time>2019-08-15T12:49:53Z</time>
      </trkpt>
      <trkpt lat="41.1860250" lon="-8.6959020">
        <ele>6.1</ele>
        <time>2019-08-15T12:49:56Z</time>
      </trkpt>
      <trkpt lat="41.1862490" lon="-8.6956220">
        <ele>6.0</ele>
        <time>2019-08-15T12:50:03Z</time>
      </trkpt>
      <trkpt lat="41.1865440" lon="-8.6951900">
        <ele>5.9</ele>
        <time>2019-08-15T12:50:13Z</time>
      </trkpt>
      <trkpt lat="41.1867190" lon="-8.6948970">
        <ele>5.8</ele>
        <time>2019-08-15T12:50:20Z</time>
      </trkpt>
      <trkpt lat="41.1868150" lon="-8.6946170">
        <ele>5.6</ele>
        <time>2019-08-15T12:50:26Z</time>
      </trkpt>
      <trkpt lat="41.1868710" lon="-8.6944500">
        <ele>6.0</ele>
        <time>2019-08-15T12:50:29Z</time>
      </trkpt>
      <trkpt lat="41.1869630" lon="-8.6942580">
        <ele>6.0</ele>
        <time>2019-08-15T12:50:33Z</time>
      </trkpt>
      <trkpt lat="41.1870330" lon="-8.6939930">
        <ele>6.7</ele>
        <time>2019-08-15T12:50:38Z</time>
      </trkpt>
      <trkpt lat="41.1870280" lon="-8.6939540">
        <ele>6.7</ele>
        <time>2019-08-15T12:50:39Z</time>
      </trkpt>
      <trkpt lat="41.1870250" lon="-8.6939270">
        <ele>6.7</ele>
        <time>2019-08-15T12:50:40Z</time>
      </trkpt>
      <trkpt lat="41.1870210" lon="-8.6939040">
        <ele>6.8</ele>
        <time>2019-08-15T12:50:41Z</time>
      </trkpt>
      <trkpt lat="41.1870170" lon="-8.6938830">
        <ele>6.8</ele>
        <time>2019-08-15T12:50:42Z</time>
      </trkpt>
      <trkpt lat="41.1869940" lon="-8.6938430">
        <ele>7.1</ele>
        <time>2019-08-15T12:50:44Z</time>
      </trkpt>
      <trkpt lat="41.1868470" lon="-8.6936720">
        <ele>8.2</ele>
        <time>2019-08-15T12:50:51Z</time>
      </trkpt>
      <trkpt lat="41.1866810" lon="-8.6935240">
        <ele>9.7</ele>
        <time>2019-08-15T12:50:57Z</time>
      </trkpt>
      <trkpt lat="41.1866580" lon="-8.6935060">
        <ele>9.9</ele>
        <time>2019-08-15T12:50:58Z</time>
      </trkpt>
      <trkpt lat="41.1866360" lon="-8.6934710">
        <ele>10.0</ele>
        <time>2019-08-15T12:50:59Z</time>
      </trkpt>
      <trkpt lat="41.1866130" lon="-8.6934320">
        <ele>10.2</ele>
        <time>2019-08-15T12:51:00Z</time>
      </trkpt>
      <trkpt lat="41.1865920" lon="-8.6933990">
        <ele>10.4</ele>
        <time>2019-08-15T12:51:01Z</time>
      </trkpt>
      <trkpt lat="41.1865440" lon="-8.6933520">
        <ele>10.7</ele>
        <time>2019-08-15T12:51:03Z</time>
      </trkpt>
      <trkpt lat="41.1864640" lon="-8.6932160">
        <ele>11.6</ele>
        <time>2019-08-15T12:51:08Z</time>
      </trkpt>
      <trkpt lat="41.1864150" lon="-8.6931430">
        <ele>12.2</ele>
        <time>2019-08-15T12:51:11Z</time>
      </trkpt>
      <trkpt lat="41.1864080" lon="-8.6931150">
        <ele>12.3</ele>
        <time>2019-08-15T12:51:12Z</time>
      </trkpt>
      <trkpt lat="41.1864090" lon="-8.6930840">
        <ele>12.5</ele>
        <time>2019-08-15T12:51:13Z</time>
      </trkpt>
      <trkpt lat="41.1864150" lon="-8.6930530">
        <ele>12.6</ele>
        <time>2019-08-15T12:51:14Z</time>
      </trkpt>
      <trkpt lat="41.1864190" lon="-8.6930140">
        <ele>12.8</ele>
        <time>2019-08-15T12:51:15Z</time>
      </trkpt>
      <trkpt lat="41.1863860" lon="-8.6929160">
        <ele>13.4</ele>
        <time>2019-08-15T12:51:19Z</time>
      </trkpt>
      <trkpt lat="41.1863900" lon="-8.6928950">
        <ele>13.4</ele>
        <time>2019-08-15T12:51:20Z</time>
      </trkpt>
      <trkpt lat="41.1863930" lon="-8.6928750">
        <ele>13.4</ele>
        <time>2019-08-15T12:51:21Z</time>
      </trkpt>
      <trkpt lat="41.1863970" lon="-8.6928540">
        <ele>13.3</ele>
        <time>2019-08-15T12:51:22Z</time>
      </trkpt>
      <trkpt lat="41.1865070" lon="-8.6925680">
        <ele>13.2</ele>
        <time>2019-08-15T12:51:28Z</time>
      </trkpt>
      <trkpt lat="41.1867110" lon="-8.6922800">
        <ele>12.5</ele>
        <time>2019-08-15T12:51:34Z</time>
      </trkpt>
      <trkpt lat="41.1868650" lon="-8.6920710">
        <ele>11.6</ele>
        <time>2019-08-15T12:51:40Z</time>
      </trkpt>
      <trkpt lat="41.1869010" lon="-8.6919540">
        <ele>11.6</ele>
        <time>2019-08-15T12:51:44Z</time>
      </trkpt>
      <trkpt lat="41.1869000" lon="-8.6919550">
        <ele>11.6</ele>
        <time>2019-08-15T12:51:45Z</time>
      </trkpt>
      <trkpt lat="41.1869550" lon="-8.6919440">
        <ele>11.6</ele>
        <time>2019-08-15T12:51:48Z</time>
      </trkpt>
      <trkpt lat="41.1869790" lon="-8.6919530">
        <ele>11.6</ele>
        <time>2019-08-15T12:51:49Z</time>
      </trkpt>
      <trkpt lat="41.1870010" lon="-8.6919700">
        <ele>11.6</ele>
        <time>2019-08-15T12:51:50Z</time>
      </trkpt>
      <trkpt lat="41.1870230" lon="-8.6919800">
        <ele>11.6</ele>
        <time>2019-08-15T12:51:53Z</time>
      </trkpt>
      <trkpt lat="41.1870890" lon="-8.6920130">
        <ele>11.5</ele>
        <time>2019-08-15T12:52:02Z</time>
      </trkpt>
      <trkpt lat="41.1872440" lon="-8.6922270">
        <ele>10.3</ele>
        <time>2019-08-15T12:52:07Z</time>
      </trkpt>
      <trkpt lat="41.1874870" lon="-8.6925950">
        <ele>9.2</ele>
        <time>2019-08-15T12:52:15Z</time>
      </trkpt>
      <trkpt lat="41.1878690" lon="-8.6931890">
        <ele>10.5</ele>
        <time>2019-08-15T12:52:26Z</time>
      </trkpt>
      <trkpt lat="41.1879430" lon="-8.6933000">
        <ele>10.8</ele>
        <time>2019-08-15T12:52:28Z</time>
      </trkpt>
      <trkpt lat="41.1879840" lon="-8.6933500">
        <ele>10.9</ele>
        <time>2019-08-15T12:52:29Z</time>
      </trkpt>
      <trkpt lat="41.1880230" lon="-8.6934030">
        <ele>11.1</ele>
        <time>2019-08-15T12:52:30Z</time>
      </trkpt>
      <trkpt lat="41.1880600" lon="-8.6934560">
        <ele>11.2</ele>
        <time>2019-08-15T12:52:31Z</time>
      </trkpt>
      <trkpt lat="41.1880980" lon="-8.6935080">
        <ele>11.3</ele>
        <time>2019-08-15T12:52:32Z</time>
      </trkpt>
      <trkpt lat="41.1881690" lon="-8.6936050">
        <ele>11.4</ele>
        <time>2019-08-15T12:52:34Z</time>
      </trkpt>
      <trkpt lat="41.1883740" lon="-8.6938810">
        <ele>12.0</ele>
        <time>2019-08-15T12:52:41Z</time>
      </trkpt>
      <trkpt lat="41.1884260" lon="-8.6939340">
        <ele>12.2</ele>
        <time>2019-08-15T12:52:43Z</time>
      </trkpt>
      <trkpt lat="41.1884530" lon="-8.6939630">
        <ele>12.4</ele>
        <time>2019-08-15T12:52:44Z</time>
      </trkpt>
      <trkpt lat="41.1884820" lon="-8.6939960">
        <ele>12.6</ele>
        <time>2019-08-15T12:52:45Z</time>
      </trkpt>
      <trkpt lat="41.1885030" lon="-8.6940340">
        <ele>12.8</ele>
        <time>2019-08-15T12:52:46Z</time>
      </trkpt>
      <trkpt lat="41.1885550" lon="-8.6941080">
        <ele>13.2</ele>
        <time>2019-08-15T12:52:48Z</time>
      </trkpt>
      <trkpt lat="41.1887780" lon="-8.6943730">
        <ele>14.4</ele>
        <time>2019-08-15T12:52:55Z</time>
      </trkpt>
      <trkpt lat="41.1889630" lon="-8.6945630">
        <ele>14.7</ele>
        <time>2019-08-15T12:53:00Z</time>
      </trkpt>
      <trkpt lat="41.1892060" lon="-8.6948260">
        <ele>14.3</ele>
        <time>2019-08-15T12:53:05Z</time>
      </trkpt>
      <trkpt lat="41.1892670" lon="-8.6948920">
        <ele>14.0</ele>
        <time>2019-08-15T12:53:06Z</time>
      </trkpt>
      <trkpt lat="41.1893140" lon="-8.6949450">
        <ele>13.8</ele>
        <time>2019-08-15T12:53:07Z</time>
      </trkpt>
      <trkpt lat="41.1893610" lon="-8.6949960">
        <ele>13.6</ele>
        <time>2019-08-15T12:53:08Z</time>
      </trkpt>
      <trkpt lat="41.1894120" lon="-8.6950450">
        <ele>13.4</ele>
        <time>2019-08-15T12:53:09Z</time>
      </trkpt>
      <trkpt lat="41.1896450" lon="-8.6952790">
        <ele>12.6</ele>
        <time>2019-08-15T12:53:14Z</time>
      </trkpt>
      <trkpt lat="41.1900940" lon="-8.6957160">
        <ele>11.4</ele>
        <time>2019-08-15T12:53:24Z</time>
      </trkpt>
      <trkpt lat="41.1904940" lon="-8.6960660">
        <ele>11.4</ele>
        <time>2019-08-15T12:53:33Z</time>
      </trkpt>
      <trkpt lat="41.1907240" lon="-8.6961880">
        <ele>12.2</ele>
        <time>2019-08-15T12:53:39Z</time>
      </trkpt>
      <trkpt lat="41.1907570" lon="-8.6961660">
        <ele>12.4</ele>
        <time>2019-08-15T12:53:40Z</time>
      </trkpt>
      <trkpt lat="41.1907910" lon="-8.6960760">
        <ele>12.6</ele>
        <time>2019-08-15T12:53:42Z</time>
      </trkpt>
      <trkpt lat="41.1908130" lon="-8.6959760">
        <ele>12.0</ele>
        <time>2019-08-15T12:53:44Z</time>
      </trkpt>
      <trkpt lat="41.1908290" lon="-8.6959190">
        <ele>11.9</ele>
        <time>2019-08-15T12:53:45Z</time>
      </trkpt>
      <trkpt lat="41.1908480" lon="-8.6958780">
        <ele>11.8</ele>
        <time>2019-08-15T12:53:46Z</time>
      </trkpt>
      <trkpt lat="41.1908660" lon="-8.6958180">
        <ele>11.6</ele>
        <time>2019-08-15T12:53:47Z</time>
      </trkpt>
      <trkpt lat="41.1909030" lon="-8.6957480">
        <ele>10.8</ele>
        <time>2019-08-15T12:53:48Z</time>
      </trkpt>
      <trkpt lat="41.1909440" lon="-8.6956950">
        <ele>10.8</ele>
        <time>2019-08-15T12:53:49Z</time>
      </trkpt>
      <trkpt lat="41.1910510" lon="-8.6956520">
        <ele>10.6</ele>
        <time>2019-08-15T12:53:51Z</time>
      </trkpt>
      <trkpt lat="41.1911740" lon="-8.6957130">
        <ele>11.0</ele>
        <time>2019-08-15T12:53:54Z</time>
      </trkpt>
      <trkpt lat="41.1912320" lon="-8.6958500">
        <ele>11.7</ele>
        <time>2019-08-15T12:53:57Z</time>
      </trkpt>
      <trkpt lat="41.1912180" lon="-8.6960670">
        <ele>13.4</ele>
        <time>2019-08-15T12:54:01Z</time>
      </trkpt>
      <trkpt lat="41.1912140" lon="-8.6961370">
        <ele>13.8</ele>
        <time>2019-08-15T12:54:02Z</time>
      </trkpt>
      <trkpt lat="41.1910650" lon="-8.6964870">
        <ele>15.7</ele>
        <time>2019-08-15T12:54:08Z</time>
      </trkpt>
      <trkpt lat="41.1908130" lon="-8.6968480">
        <ele>17.0</ele>
        <time>2019-08-15T12:54:15Z</time>
      </trkpt>
      <trkpt lat="41.1907320" lon="-8.6970930">
        <ele>17.5</ele>
        <time>2019-08-15T12:54:19Z</time>
      </trkpt>
      <trkpt lat="41.1907240" lon="-8.6971540">
        <ele>17.6</ele>
        <time>2019-08-15T12:54:20Z</time>
      </trkpt>
      <trkpt lat="41.1907150" lon="-8.6972140">
        <ele>17.7</ele>
        <time>2019-08-15T12:54:21Z</time>
      </trkpt>
      <trkpt lat="41.1907080" lon="-8.6972690">
        <ele>17.9</ele>
        <time>2019-08-15T12:54:22Z</time>
      </trkpt>
      <trkpt lat="41.1907030" lon="-8.6973200">
        <ele>18.1</ele>
        <time>2019-08-15T12:54:23Z</time>
      </trkpt>
      <trkpt lat="41.1906980" lon="-8.6973590">
        <ele>18.2</ele>
        <time>2019-08-15T12:54:24Z</time>
      </trkpt>
      <trkpt lat="41.1906930" lon="-8.6974000">
        <ele>18.3</ele>
        <time>2019-08-15T12:54:25Z</time>
      </trkpt>
      <trkpt lat="41.1907030" lon="-8.6978020">
        <ele>19.4</ele>
        <time>2019-08-15T12:54:34Z</time>
      </trkpt>
      <trkpt lat="41.1906820" lon="-8.6980520">
        <ele>19.5</ele>
        <time>2019-08-15T12:54:41Z</time>
      </trkpt>
      <trkpt lat="41.1906840" lon="-8.6982760">
        <ele>19.4</ele>
        <time>2019-08-15T12:54:46Z</time>
      </trkpt>
      <trkpt lat="41.1906720" lon="-8.6985260">
        <ele>19.2</ele>
        <time>2019-08-15T12:54:52Z</time>
      </trkpt>
      <trkpt lat="41.1906460" lon="-8.6988800">
        <ele>18.6</ele>
        <time>2019-08-15T12:54:59Z</time>
      </trkpt>
      <trkpt lat="41.1906670" lon="-8.6992210">
        <ele>18.2</ele>
        <time>2019-08-15T12:55:06Z</time>
      </trkpt>
      <trkpt lat="41.1906620" lon="-8.6993430">
        <ele>18.2</ele>
        <time>2019-08-15T12:55:11Z</time>
      </trkpt>
      <trkpt lat="41.1906590" lon="-8.6993620">
        <ele>18.2</ele>
        <time>2019-08-15T12:56:07Z</time>
      </trkpt>
      <trkpt lat="41.1906590" lon="-8.6995190">
        <ele>18.1</ele>
        <time>2019-08-15T12:56:09Z</time>
      </trkpt>
      <trkpt lat="41.1906230" lon="-8.7000040">
        <ele>17.2</ele>
        <time>2019-08-15T12:56:15Z</time>
      </trkpt>
      <trkpt lat="41.1906180" lon="-8.7000870">
        <ele>17.2</ele>
        <time>2019-08-15T12:56:16Z</time>
      </trkpt>
      <trkpt lat="41.1905960" lon="-8.7006490">
        <ele>17.0</ele>
        <time>2019-08-15T12:56:23Z</time>
      </trkpt>
      <trkpt lat="41.1905850" lon="-8.7011720">
        <ele>16.4</ele>
        <time>2019-08-15T12:56:30Z</time>
      </trkpt>
      <trkpt lat="41.1905700" lon="-8.7016940">
        <ele>15.8</ele>
        <time>2019-08-15T12:56:38Z</time>
      </trkpt>
      <trkpt lat="41.1905340" lon="-8.7022670">
        <ele>14.7</ele>
        <time>2019-08-15T12:56:46Z</time>
      </trkpt>
      <trkpt lat="41.1905130" lon="-8.7027230">
        <ele>14.1</ele>
        <time>2019-08-15T12:56:53Z</time>
      </trkpt>
      <trkpt lat="41.1904940" lon="-8.7030010">
        <ele>13.4</ele>
        <time>2019-08-15T12:56:58Z</time>
      </trkpt>
      <trkpt lat="41.1904900" lon="-8.7030680">
        <ele>13.2</ele>
        <time>2019-08-15T12:56:59Z</time>
      </trkpt>
      <trkpt lat="41.1904860" lon="-8.7031250">
        <ele>13.1</ele>
        <time>2019-08-15T12:57:00Z</time>
      </trkpt>
      <trkpt lat="41.1904850" lon="-8.7031920">
        <ele>13.1</ele>
        <time>2019-08-15T12:57:01Z</time>
      </trkpt>
      <trkpt lat="41.1904860" lon="-8.7032530">
        <ele>13.2</ele>
        <time>2019-08-15T12:57:02Z</time>
      </trkpt>
      <trkpt lat="41.1904780" lon="-8.7035880">
        <ele>12.5</ele>
        <time>2019-08-15T12:57:08Z</time>
      </trkpt>
      <trkpt lat="41.1904890" lon="-8.7037750">
        <ele>11.6</ele>
        <time>2019-08-15T12:57:11Z</time>
      </trkpt>
      <trkpt lat="41.1904800" lon="-8.7039880">
        <ele>10.7</ele>
        <time>2019-08-15T12:57:14Z</time>
      </trkpt>
      <trkpt lat="41.1904720" lon="-8.7041580">
        <ele>9.6</ele>
        <time>2019-08-15T12:57:16Z</time>
      </trkpt>
      <trkpt lat="41.1904750" lon="-8.7042420">
        <ele>9.1</ele>
        <time>2019-08-15T12:57:17Z</time>
      </trkpt>
      <trkpt lat="41.1904730" lon="-8.7043230">
        <ele>8.6</ele>
        <time>2019-08-15T12:57:18Z</time>
      </trkpt>
      <trkpt lat="41.1904620" lon="-8.7044040">
        <ele>8.1</ele>
        <time>2019-08-15T12:57:19Z</time>
      </trkpt>
      <trkpt lat="41.1904590" lon="-8.7044780">
        <ele>7.6</ele>
        <time>2019-08-15T12:57:20Z</time>
      </trkpt>
      <trkpt lat="41.1904380" lon="-8.7047070">
        <ele>6.4</ele>
        <time>2019-08-15T12:57:23Z</time>
      </trkpt>
      <trkpt lat="41.1904370" lon="-8.7047910">
        <ele>5.9</ele>
        <time>2019-08-15T12:57:24Z</time>
      </trkpt>
      <trkpt lat="41.1904440" lon="-8.7048660">
        <ele>5.6</ele>
        <time>2019-08-15T12:57:25Z</time>
      </trkpt>
      <trkpt lat="41.1904470" lon="-8.7049360">
        <ele>5.2</ele>
        <time>2019-08-15T12:57:26Z</time>
      </trkpt>
      <trkpt lat="41.1904640" lon="-8.7049990">
        <ele>4.8</ele>
        <time>2019-08-15T12:57:27Z</time>
      </trkpt>
      <trkpt lat="41.1905800" lon="-8.7050890">
        <ele>5.0</ele>
        <time>2019-08-15T12:57:30Z</time>
      </trkpt>
      <trkpt lat="41.1906640" lon="-8.7051060">
        <ele>5.2</ele>
        <time>2019-08-15T12:57:32Z</time>
      </trkpt>
      <trkpt lat="41.1908370" lon="-8.7051490">
        <ele>5.6</ele>
        <time>2019-08-15T12:57:36Z</time>
      </trkpt>
      <trkpt lat="41.1912150" lon="-8.7052600">
        <ele>7.2</ele>
        <time>2019-08-15T12:57:45Z</time>
      </trkpt>
      <trkpt lat="41.1915070" lon="-8.7053890">
        <ele>8.3</ele>
        <time>2019-08-15T12:57:54Z</time>
      </trkpt>
      <trkpt lat="41.1916910" lon="-8.7054890">
        <ele>8.9</ele>
        <time>2019-08-15T12:58:01Z</time>
      </trkpt>
      <trkpt lat="41.1916980" lon="-8.7054920">
        <ele>8.9</ele>
        <time>2019-08-15T12:58:03Z</time>
      </trkpt>
      <trkpt lat="41.1916980" lon="-8.7055020">
        <ele>9.0</ele>
        <time>2019-08-15T12:58:19Z</time>
      </trkpt>
      <trkpt lat="41.1918270" lon="-8.7055460">
        <ele>9.8</ele>
        <time>2019-08-15T12:58:23Z</time>
      </trkpt>
      <trkpt lat="41.1919920" lon="-8.7053260">
        <ele>11.2</ele>
        <time>2019-08-15T12:58:30Z</time>
      </trkpt>
      <trkpt lat="41.1920050" lon="-8.7052760">
        <ele>11.3</ele>
        <time>2019-08-15T12:58:31Z</time>
      </trkpt>
      <trkpt lat="41.1920680" lon="-8.7051670">
        <ele>11.6</ele>
        <time>2019-08-15T12:58:34Z</time>
      </trkpt>
      <trkpt lat="41.1921170" lon="-8.7051460">
        <ele>11.7</ele>
        <time>2019-08-15T12:58:36Z</time>
      </trkpt>
      <trkpt lat="41.1921290" lon="-8.7051720">
        <ele>11.8</ele>
        <time>2019-08-15T12:58:37Z</time>
      </trkpt>
      <trkpt lat="41.1921170" lon="-8.7052540">
        <ele>12.0</ele>
        <time>2019-08-15T12:58:41Z</time>
      </trkpt>
      <trkpt lat="41.1921710" lon="-8.7053060">
        <ele>11.9</ele>
        <time>2019-08-15T12:58:46Z</time>
      </trkpt>
      <trkpt lat="41.1922170" lon="-8.7053320">
        <ele>11.7</ele>
        <time>2019-08-15T12:58:48Z</time>
      </trkpt>
      <trkpt lat="41.1922650" lon="-8.7053280">
        <ele>11.5</ele>
        <time>2019-08-15T12:58:50Z</time>
      </trkpt>
      <trkpt lat="41.1923210" lon="-8.7053540">
        <ele>11.4</ele>
        <time>2019-08-15T12:58:52Z</time>
      </trkpt>
      <trkpt lat="41.1924820" lon="-8.7054710">
        <ele>10.9</ele>
        <time>2019-08-15T12:58:58Z</time>
      </trkpt>
      <trkpt lat="41.1926050" lon="-8.7055870">
        <ele>10.5</ele>
        <time>2019-08-15T12:59:04Z</time>
      </trkpt>
      <trkpt lat="41.1926820" lon="-8.7056890">
        <ele>10.0</ele>
        <time>2019-08-15T12:59:10Z</time>
      </trkpt>
      <trkpt lat="41.1926590" lon="-8.7058880">
        <ele>8.8</ele>
        <time>2019-08-15T12:59:17Z</time>
      </trkpt>
      <trkpt lat="41.1926360" lon="-8.7059100">
        <ele>8.6</ele>
        <time>2019-08-15T12:59:19Z</time>
      </trkpt>
      <trkpt lat="41.1926390" lon="-8.7059100">
        <ele>8.6</ele>
        <time>2019-08-15T13:00:23Z</time>
      </trkpt>
      <trkpt lat="41.1926310" lon="-8.7059100">
        <ele>8.6</ele>
        <time>2019-08-15T13:00:24Z</time>
      </trkpt>
      <trkpt lat="41.1925990" lon="-8.7058910">
        <ele>8.3</ele>
        <time>2019-08-15T13:00:25Z</time>
      </trkpt>
      <trkpt lat="41.1925420" lon="-8.7058670">
        <ele>8.6</ele>
        <time>2019-08-15T13:00:27Z</time>
      </trkpt>
      <trkpt lat="41.1924660" lon="-8.7057400">
        <ele>9.2</ele>
        <time>2019-08-15T13:00:32Z</time>
      </trkpt>
      <trkpt lat="41.1924560" lon="-8.7057170">
        <ele>9.4</ele>
        <time>2019-08-15T13:00:33Z</time>
      </trkpt>
      <trkpt lat="41.1924090" lon="-8.7056580">
        <ele>9.9</ele>
        <time>2019-08-15T13:00:37Z</time>
      </trkpt>
      <trkpt lat="41.1923530" lon="-8.7056220">
        <ele>10.2</ele>
        <time>2019-08-15T13:04:44Z</time>
      </trkpt>
      <trkpt lat="41.1923140" lon="-8.7056340">
        <ele>10.4</ele>
        <time>2019-08-15T13:04:49Z</time>
      </trkpt>
      <trkpt lat="41.1923310" lon="-8.7055750">
        <ele>11.1</ele>
        <time>2019-08-15T13:04:53Z</time>
      </trkpt>
      <trkpt lat="41.1923410" lon="-8.7055500">
        <ele>11.4</ele>
        <time>2019-08-15T13:04:54Z</time>
      </trkpt>
      <trkpt lat="41.1924180" lon="-8.7054580">
        <ele>11.8</ele>
        <time>2019-08-15T13:04:59Z</time>
      </trkpt>
      <trkpt lat="41.1924570" lon="-8.7054910">
        <ele>11.5</ele>
        <time>2019-08-15T13:05:00Z</time>
      </trkpt>
      <trkpt lat="41.1925010" lon="-8.7055130">
        <ele>11.3</ele>
        <time>2019-08-15T13:05:01Z</time>
      </trkpt>
      <trkpt lat="41.1927240" lon="-8.7056850">
        <ele>9.9</ele>
        <time>2019-08-15T13:05:08Z</time>
      </trkpt>
      <trkpt lat="41.1927590" lon="-8.7057910">
        <ele>9.6</ele>
        <time>2019-08-15T13:05:11Z</time>
      </trkpt>
      <trkpt lat="41.1927520" lon="-8.7058500">
        <ele>9.3</ele>
        <time>2019-08-15T13:05:12Z</time>
      </trkpt>
      <trkpt lat="41.1927070" lon="-8.7059980">
        <ele>8.3</ele>
        <time>2019-08-15T13:05:15Z</time>
      </trkpt>
      <trkpt lat="41.1926920" lon="-8.7060890">
        <ele>7.8</ele>
        <time>2019-08-15T13:05:17Z</time>
      </trkpt>
      <trkpt lat="41.1926500" lon="-8.7061670">
        <ele>7.3</ele>
        <time>2019-08-15T13:05:21Z</time>
      </trkpt>
      <trkpt lat="41.1926250" lon="-8.7061960">
        <ele>7.2</ele>
        <time>2019-08-15T13:05:26Z</time>
      </trkpt>
      <trkpt lat="41.1926460" lon="-8.7062530">
        <ele>7.0</ele>
        <time>2019-08-15T13:05:31Z</time>
      </trkpt>
      <trkpt lat="41.1926750" lon="-8.7062750">
        <ele>6.8</ele>
        <time>2019-08-15T13:05:32Z</time>
      </trkpt>
      <trkpt lat="41.1928620" lon="-8.7064320">
        <ele>6.2</ele>
        <time>2019-08-15T13:05:37Z</time>
      </trkpt>
      <trkpt lat="41.1930950" lon="-8.7066420">
        <ele>6.5</ele>
        <time>2019-08-15T13:05:43Z</time>
      </trkpt>
      <trkpt lat="41.1931300" lon="-8.7066780">
        <ele>6.5</ele>
        <time>2019-08-15T13:05:44Z</time>
      </trkpt>
      <trkpt lat="41.1931650" lon="-8.7067120">
        <ele>6.6</ele>
        <time>2019-08-15T13:05:45Z</time>
      </trkpt>
      <trkpt lat="41.1932000" lon="-8.7067430">
        <ele>6.6</ele>
        <time>2019-08-15T13:05:46Z</time>
      </trkpt>
      <trkpt lat="41.1932340" lon="-8.7067710">
        <ele>6.7</ele>
        <time>2019-08-15T13:05:47Z</time>
      </trkpt>
      <trkpt lat="41.1934300" lon="-8.7069590">
        <ele>7.2</ele>
        <time>2019-08-15T13:05:53Z</time>
      </trkpt>
      <trkpt lat="41.1936770" lon="-8.7071440">
        <ele>8.0</ele>
        <time>2019-08-15T13:06:00Z</time>
      </trkpt>
      <trkpt lat="41.1937980" lon="-8.7072510">
        <ele>8.5</ele>
        <time>2019-08-15T13:06:03Z</time>
      </trkpt>
      <trkpt lat="41.1938900" lon="-8.7073450">
        <ele>8.9</ele>
        <time>2019-08-15T13:06:06Z</time>
      </trkpt>
      <trkpt lat="41.1938980" lon="-8.7073920">
        <ele>9.0</ele>
        <time>2019-08-15T13:06:07Z</time>
      </trkpt>
      <trkpt lat="41.1938760" lon="-8.7074950">
        <ele>7.4</ele>
        <time>2019-08-15T13:06:09Z</time>
      </trkpt>
      <trkpt lat="41.1939460" lon="-8.7076730">
        <ele>6.0</ele>
        <time>2019-08-15T13:06:14Z</time>
      </trkpt>
      <trkpt lat="41.1941310" lon="-8.7077240">
        <ele>5.3</ele>
        <time>2019-08-15T13:06:18Z</time>
      </trkpt>
      <trkpt lat="41.1941990" lon="-8.7077750">
        <ele>4.9</ele>
        <time>2019-08-15T13:06:20Z</time>
      </trkpt>
      <trkpt lat="41.1944520" lon="-8.7079670">
        <ele>4.6</ele>
        <time>2019-08-15T13:06:27Z</time>
      </trkpt>
      <trkpt lat="41.1947910" lon="-8.7081920">
        <ele>4.0</ele>
        <time>2019-08-15T13:06:36Z</time>
      </trkpt>
      <trkpt lat="41.1951700" lon="-8.7084520">
        <ele>3.5</ele>
        <time>2019-08-15T13:06:46Z</time>
      </trkpt>
      <trkpt lat="41.1956630" lon="-8.7087820">
        <ele>2.9</ele>
        <time>2019-08-15T13:06:58Z</time>
      </trkpt>
      <trkpt lat="41.1957030" lon="-8.7088100">
        <ele>2.8</ele>
        <time>2019-08-15T13:06:59Z</time>
      </trkpt>
      <trkpt lat="41.1961250" lon="-8.7091060">
        <ele>3.0</ele>
        <time>2019-08-15T13:07:10Z</time>
      </trkpt>
      <trkpt lat="41.1965150" lon="-8.7094040">
        <ele>4.1</ele>
        <time>2019-08-15T13:07:20Z</time>
      </trkpt>
      <trkpt lat="41.1969310" lon="-8.7096950">
        <ele>3.9</ele>
        <time>2019-08-15T13:07:30Z</time>
      </trkpt>
      <trkpt lat="41.1972870" lon="-8.7099360">
        <ele>3.5</ele>
        <time>2019-08-15T13:07:39Z</time>
      </trkpt>
      <trkpt lat="41.1975790" lon="-8.7101370">
        <ele>4.2</ele>
        <time>2019-08-15T13:07:47Z</time>
      </trkpt>
      <trkpt lat="41.1978240" lon="-8.7102960">
        <ele>5.6</ele>
        <time>2019-08-15T13:07:55Z</time>
      </trkpt>
      <trkpt lat="41.1980780" lon="-8.7104510">
        <ele>6.1</ele>
        <time>2019-08-15T13:08:03Z</time>
      </trkpt>
      <trkpt lat="41.1983690" lon="-8.7106750">
        <ele>4.3</ele>
        <time>2019-08-15T13:08:12Z</time>
      </trkpt>
      <trkpt lat="41.1986020" lon="-8.7108280">
        <ele>4.7</ele>
        <time>2019-08-15T13:08:19Z</time>
      </trkpt>
      <trkpt lat="41.1989880" lon="-8.7110590">
        <ele>6.7</ele>
        <time>2019-08-15T13:08:29Z</time>
      </trkpt>
      <trkpt lat="41.1993980" lon="-8.7113660">
        <ele>6.4</ele>
        <time>2019-08-15T13:08:41Z</time>
      </trkpt>
      <trkpt lat="41.1997820" lon="-8.7116500">
        <ele>5.2</ele>
        <time>2019-08-15T13:08:51Z</time>
      </trkpt>
      <trkpt lat="41.2002340" lon="-8.7119830">
        <ele>4.8</ele>
        <time>2019-08-15T13:09:02Z</time>
      </trkpt>
      <trkpt lat="41.2007060" lon="-8.7122890">
        <ele>4.2</ele>
        <time>2019-08-15T13:09:13Z</time>
      </trkpt>
      <trkpt lat="41.2012210" lon="-8.7126490">
        <ele>4.7</ele>
        <time>2019-08-15T13:09:25Z</time>
      </trkpt>
      <trkpt lat="41.2013010" lon="-8.7127040">
        <ele>4.5</ele>
        <time>2019-08-15T13:09:27Z</time>
      </trkpt>
      <trkpt lat="41.2017540" lon="-8.7130260">
        <ele>3.7</ele>
        <time>2019-08-15T13:09:38Z</time>
      </trkpt>
      <trkpt lat="41.2021320" lon="-8.7132830">
        <ele>2.3</ele>
        <time>2019-08-15T13:09:47Z</time>
      </trkpt>
      <trkpt lat="41.2023390" lon="-8.7134420">
        <ele>1.9</ele>
        <time>2019-08-15T13:09:52Z</time>
      </trkpt>
      <trkpt lat="41.2023800" lon="-8.7134730">
        <ele>2.2</ele>
        <time>2019-08-15T13:09:53Z</time>
      </trkpt>
      <trkpt lat="41.2024230" lon="-8.7135020">
        <ele>2.5</ele>
        <time>2019-08-15T13:09:54Z</time>
      </trkpt>
      <trkpt lat="41.2024650" lon="-8.7135310">
        <ele>2.7</ele>
        <time>2019-08-15T13:09:55Z</time>
      </trkpt>
      <trkpt lat="41.2025050" lon="-8.7135580">
        <ele>2.9</ele>
        <time>2019-08-15T13:09:56Z</time>
      </trkpt>
      <trkpt lat="41.2028450" lon="-8.7137720">
        <ele>3.3</ele>
        <time>2019-08-15T13:10:04Z</time>
      </trkpt>
      <trkpt lat="41.2031350" lon="-8.7139620">
        <ele>5.4</ele>
        <time>2019-08-15T13:10:12Z</time>
      </trkpt>
      <trkpt lat="41.2034340" lon="-8.7141690">
        <ele>5.7</ele>
        <time>2019-08-15T13:10:20Z</time>
      </trkpt>
      <trkpt lat="41.2035110" lon="-8.7142080">
        <ele>5.7</ele>
        <time>2019-08-15T13:10:22Z</time>
      </trkpt>
      <trkpt lat="41.2037090" lon="-8.7142800">
        <ele>5.4</ele>
        <time>2019-08-15T13:10:27Z</time>
      </trkpt>
      <trkpt lat="41.2039270" lon="-8.7143420">
        <ele>5.0</ele>
        <time>2019-08-15T13:10:33Z</time>
      </trkpt>
      <trkpt lat="41.2042040" lon="-8.7143350">
        <ele>4.5</ele>
        <time>2019-08-15T13:10:41Z</time>
      </trkpt>
      <trkpt lat="41.2043230" lon="-8.7143670">
        <ele>4.4</ele>
        <time>2019-08-15T13:10:44Z</time>
      </trkpt>
      <trkpt lat="41.2044310" lon="-8.7144450">
        <ele>4.3</ele>
        <time>2019-08-15T13:10:47Z</time>
      </trkpt>
      <trkpt lat="41.2045640" lon="-8.7145700">
        <ele>4.3</ele>
        <time>2019-08-15T13:10:51Z</time>
      </trkpt>
      <trkpt lat="41.2046520" lon="-8.7146860">
        <ele>4.3</ele>
        <time>2019-08-15T13:10:54Z</time>
      </trkpt>
      <trkpt lat="41.2047400" lon="-8.7147890">
        <ele>4.2</ele>
        <time>2019-08-15T13:10:57Z</time>
      </trkpt>
      <trkpt lat="41.2048090" lon="-8.7148610">
        <ele>4.2</ele>
        <time>2019-08-15T13:10:59Z</time>
      </trkpt>
      <trkpt lat="41.2048490" lon="-8.7148920">
        <ele>4.2</ele>
        <time>2019-08-15T13:11:00Z</time>
      </trkpt>
      <trkpt lat="41.2048860" lon="-8.7149130">
        <ele>4.2</ele>
        <time>2019-08-15T13:11:01Z</time>
      </trkpt>
      <trkpt lat="41.2049270" lon="-8.7149280">
        <ele>4.2</ele>
        <time>2019-08-15T13:11:02Z</time>
      </trkpt>
      <trkpt lat="41.2049660" lon="-8.7149360">
        <ele>4.2</ele>
        <time>2019-08-15T13:11:03Z</time>
      </trkpt>
      <trkpt lat="41.2051350" lon="-8.7149540">
        <ele>4.1</ele>
        <time>2019-08-15T13:11:07Z</time>
      </trkpt>
      <trkpt lat="41.2054470" lon="-8.7149500">
        <ele>5.0</ele>
        <time>2019-08-15T13:11:15Z</time>
      </trkpt>
      <trkpt lat="41.2056070" lon="-8.7150210">
        <ele>5.1</ele>
        <time>2019-08-15T13:11:20Z</time>
      </trkpt>
      <trkpt lat="41.2056320" lon="-8.7150410">
        <ele>4.9</ele>
        <time>2019-08-15T13:11:21Z</time>
      </trkpt>
      <trkpt lat="41.2056650" lon="-8.7150560">
        <ele>4.8</ele>
        <time>2019-08-15T13:11:22Z</time>
      </trkpt>
      <trkpt lat="41.2056990" lon="-8.7150590">
        <ele>4.7</ele>
        <time>2019-08-15T13:11:23Z</time>
      </trkpt>
      <trkpt lat="41.2057350" lon="-8.7150630">
        <ele>4.6</ele>
        <time>2019-08-15T13:11:24Z</time>
      </trkpt>
      <trkpt lat="41.2057720" lon="-8.7150690">
        <ele>4.5</ele>
        <time>2019-08-15T13:11:25Z</time>
      </trkpt>
      <trkpt lat="41.2061210" lon="-8.7152090">
        <ele>5.1</ele>
        <time>2019-08-15T13:11:34Z</time>
      </trkpt>
      <trkpt lat="41.2065250" lon="-8.7153020">
        <ele>4.5</ele>
        <time>2019-08-15T13:11:44Z</time>
      </trkpt>
      <trkpt lat="41.2068070" lon="-8.7153220">
        <ele>4.3</ele>
        <time>2019-08-15T13:11:51Z</time>
      </trkpt>
      <trkpt lat="41.2068780" lon="-8.7153230">
        <ele>4.2</ele>
        <time>2019-08-15T13:11:53Z</time>
      </trkpt>
      <trkpt lat="41.2069720" lon="-8.7153310">
        <ele>4.1</ele>
        <time>2019-08-15T13:11:57Z</time>
      </trkpt>
      <trkpt lat="41.2071600" lon="-8.7153120">
        <ele>4.1</ele>
        <time>2019-08-15T13:12:02Z</time>
      </trkpt>
      <trkpt lat="41.2074670" lon="-8.7152600">
        <ele>4.2</ele>
        <time>2019-08-15T13:12:10Z</time>
      </trkpt>
      <trkpt lat="41.2078110" lon="-8.7151590">
        <ele>4.5</ele>
        <time>2019-08-15T13:12:19Z</time>
      </trkpt>
      <trkpt lat="41.2081240" lon="-8.7150400">
        <ele>4.6</ele>
        <time>2019-08-15T13:12:27Z</time>
      </trkpt>
      <trkpt lat="41.2083780" lon="-8.7149480">
        <ele>4.6</ele>
        <time>2019-08-15T13:12:33Z</time>
      </trkpt>
      <trkpt lat="41.2084220" lon="-8.7149450">
        <ele>4.6</ele>
        <time>2019-08-15T13:12:34Z</time>
      </trkpt>
      <trkpt lat="41.2087830" lon="-8.7148760">
        <ele>4.5</ele>
        <time>2019-08-15T13:12:42Z</time>
      </trkpt>
      <trkpt lat="41.2092760" lon="-8.7148200">
        <ele>4.4</ele>
        <time>2019-08-15T13:12:53Z</time>
      </trkpt>
      <trkpt lat="41.2094440" lon="-8.7147810">
        <ele>5.1</ele>
        <time>2019-08-15T13:12:57Z</time>
      </trkpt>
      <trkpt lat="41.2095220" lon="-8.7147330">
        <ele>5.4</ele>
        <time>2019-08-15T13:12:59Z</time>
      </trkpt>
      <trkpt lat="41.2097290" lon="-8.7146330">
        <ele>6.2</ele>
        <time>2019-08-15T13:13:04Z</time>
      </trkpt>
      <trkpt lat="41.2097680" lon="-8.7146190">
        <ele>6.3</ele>
        <time>2019-08-15T13:13:05Z</time>
      </trkpt>
      <trkpt lat="41.2098030" lon="-8.7146070">
        <ele>6.4</ele>
        <time>2019-08-15T13:13:06Z</time>
      </trkpt>
      <trkpt lat="41.2098460" lon="-8.7145950">
        <ele>6.5</ele>
        <time>2019-08-15T13:13:07Z</time>
      </trkpt>
      <trkpt lat="41.2098950" lon="-8.7145810">
        <ele>6.6</ele>
        <time>2019-08-15T13:13:08Z</time>
      </trkpt>
      <trkpt lat="41.2100860" lon="-8.7145520">
        <ele>7.0</ele>
        <time>2019-08-15T13:13:12Z</time>
      </trkpt>
      <trkpt lat="41.2101710" lon="-8.7145330">
        <ele>7.2</ele>
        <time>2019-08-15T13:13:14Z</time>
      </trkpt>
      <trkpt lat="41.2101580" lon="-8.7143540">
        <ele>7.6</ele>
        <time>2019-08-15T13:13:17Z</time>
      </trkpt>
      <trkpt lat="41.2101430" lon="-8.7143000">
        <ele>7.7</ele>
        <time>2019-08-15T13:13:18Z</time>
      </trkpt>
      <trkpt lat="41.2100930" lon="-8.7138730">
        <ele>9.1</ele>
        <time>2019-08-15T13:13:26Z</time>
      </trkpt>
      <trkpt lat="41.2100940" lon="-8.7137510">
        <ele>9.5</ele>
        <time>2019-08-15T13:13:30Z</time>
      </trkpt>
      <trkpt lat="41.2101060" lon="-8.7137410">
        <ele>9.5</ele>
        <time>2019-08-15T13:13:31Z</time>
      </trkpt>
      <trkpt lat="41.2102280" lon="-8.7137170">
        <ele>9.9</ele>
        <time>2019-08-15T13:13:34Z</time>
      </trkpt>
      <trkpt lat="41.2105290" lon="-8.7136850">
        <ele>10.0</ele>
        <time>2019-08-15T13:13:40Z</time>
      </trkpt>
      <trkpt lat="41.2109470" lon="-8.7136560">
        <ele>11.5</ele>
        <time>2019-08-15T13:13:48Z</time>
      </trkpt>
      <trkpt lat="41.2113460" lon="-8.7136090">
        <ele>11.5</ele>
        <time>2019-08-15T13:13:56Z</time>
      </trkpt>
      <trkpt lat="41.2118190" lon="-8.7135240">
        <ele>12.3</ele>
        <time>2019-08-15T13:14:07Z</time>
      </trkpt>
      <trkpt lat="41.2121750" lon="-8.7134630">
        <ele>12.5</ele>
        <time>2019-08-15T13:14:14Z</time>
      </trkpt>
      <trkpt lat="41.2125930" lon="-8.7134200">
        <ele>12.1</ele>
        <time>2019-08-15T13:14:22Z</time>
      </trkpt>
      <trkpt lat="41.2127000" lon="-8.7134060">
        <ele>12.0</ele>
        <time>2019-08-15T13:14:24Z</time>
      </trkpt>
      <trkpt lat="41.2131270" lon="-8.7133350">
        <ele>12.0</ele>
        <time>2019-08-15T13:14:32Z</time>
      </trkpt>
      <trkpt lat="41.2136200" lon="-8.7132790">
        <ele>11.3</ele>
        <time>2019-08-15T13:14:41Z</time>
      </trkpt>
      <trkpt lat="41.2141760" lon="-8.7132140">
        <ele>10.5</ele>
        <time>2019-08-15T13:14:51Z</time>
      </trkpt>
      <trkpt lat="41.2145530" lon="-8.7131840">
        <ele>10.3</ele>
        <time>2019-08-15T13:14:58Z</time>
      </trkpt>
      <trkpt lat="41.2145870" lon="-8.7132090">
        <ele>10.2</ele>
        <time>2019-08-15T13:14:59Z</time>
      </trkpt>
      <trkpt lat="41.2145980" lon="-8.7133330">
        <ele>10.1</ele>
        <time>2019-08-15T13:15:01Z</time>
      </trkpt>
      <trkpt lat="41.2145950" lon="-8.7134740">
        <ele>10.1</ele>
        <time>2019-08-15T13:15:03Z</time>
      </trkpt>
      <trkpt lat="41.2147080" lon="-8.7135620">
        <ele>10.2</ele>
        <time>2019-08-15T13:15:06Z</time>
      </trkpt>
      <trkpt lat="41.2149310" lon="-8.7135270">
        <ele>10.3</ele>
        <time>2019-08-15T13:15:10Z</time>
      </trkpt>
      <trkpt lat="41.2153380" lon="-8.7134510">
        <ele>11.9</ele>
        <time>2019-08-15T13:15:18Z</time>
      </trkpt>
      <trkpt lat="41.2157310" lon="-8.7133840">
        <ele>12.5</ele>
        <time>2019-08-15T13:15:26Z</time>
      </trkpt>
      <trkpt lat="41.2162790" lon="-8.7133150">
        <ele>12.6</ele>
        <time>2019-08-15T13:15:37Z</time>
      </trkpt>
      <trkpt lat="41.2163270" lon="-8.7133090">
        <ele>12.6</ele>
        <time>2019-08-15T13:15:38Z</time>
      </trkpt>
      <trkpt lat="41.2168730" lon="-8.7132410">
        <ele>11.7</ele>
        <time>2019-08-15T13:15:49Z</time>
      </trkpt>
      <trkpt lat="41.2169740" lon="-8.7132290">
        <ele>11.0</ele>
        <time>2019-08-15T13:15:51Z</time>
      </trkpt>
      <trkpt lat="41.2170250" lon="-8.7132190">
        <ele>10.7</ele>
        <time>2019-08-15T13:15:52Z</time>
      </trkpt>
      <trkpt lat="41.2175780" lon="-8.7131690">
        <ele>9.0</ele>
        <time>2019-08-15T13:16:03Z</time>
      </trkpt>
      <trkpt lat="41.2176310" lon="-8.7131660">
        <ele>8.9</ele>
        <time>2019-08-15T13:16:04Z</time>
      </trkpt>
      <trkpt lat="41.2181240" lon="-8.7131280">
        <ele>8.1</ele>
        <time>2019-08-15T13:16:14Z</time>
      </trkpt>
      <trkpt lat="41.2185530" lon="-8.7130930">
        <ele>7.7</ele>
        <time>2019-08-15T13:16:23Z</time>
      </trkpt>
      <trkpt lat="41.2186390" lon="-8.7130620">
        <ele>7.7</ele>
        <time>2019-08-15T13:16:25Z</time>
      </trkpt>
      <trkpt lat="41.2186670" lon="-8.7129580">
        <ele>7.7</ele>
        <time>2019-08-15T13:16:27Z</time>
      </trkpt>
      <trkpt lat="41.2186420" lon="-8.7128220">
        <ele>7.9</ele>
        <time>2019-08-15T13:16:30Z</time>
      </trkpt>
      <trkpt lat="41.2186440" lon="-8.7127930">
        <ele>8.0</ele>
        <time>2019-08-15T13:16:31Z</time>
      </trkpt>
      <trkpt lat="41.2186470" lon="-8.7127730">
        <ele>8.0</ele>
        <time>2019-08-15T13:16:33Z</time>
      </trkpt>
      <trkpt lat="41.2186420" lon="-8.7127570">
        <ele>8.0</ele>
        <time>2019-08-15T13:17:37Z</time>
      </trkpt>
      <trkpt lat="41.2186800" lon="-8.7127360">
        <ele>8.1</ele>
        <time>2019-08-15T13:17:39Z</time>
      </trkpt>
      <trkpt lat="41.2187600" lon="-8.7127300">
        <ele>8.4</ele>
        <time>2019-08-15T13:17:41Z</time>
      </trkpt>
      <trkpt lat="41.2189960" lon="-8.7126900">
        <ele>8.8</ele>
        <time>2019-08-15T13:17:48Z</time>
      </trkpt>
      <trkpt lat="41.2193290" lon="-8.7126320">
        <ele>9.3</ele>
        <time>2019-08-15T13:17:57Z</time>
      </trkpt>
      <trkpt lat="41.2194980" lon="-8.7126470">
        <ele>9.4</ele>
        <time>2019-08-15T13:18:01Z</time>
      </trkpt>
      <trkpt lat="41.2196000" lon="-8.7126830">
        <ele>9.4</ele>
        <time>2019-08-15T13:18:03Z</time>
      </trkpt>
      <trkpt lat="41.2196490" lon="-8.7126960">
        <ele>9.4</ele>
        <time>2019-08-15T13:18:04Z</time>
      </trkpt>
      <trkpt lat="41.2197000" lon="-8.7127060">
        <ele>9.4</ele>
        <time>2019-08-15T13:18:05Z</time>
      </trkpt>
      <trkpt lat="41.2197510" lon="-8.7127160">
        <ele>9.5</ele>
        <time>2019-08-15T13:18:06Z</time>
      </trkpt>
      <trkpt lat="41.2197990" lon="-8.7127320">
        <ele>9.5</ele>
        <time>2019-08-15T13:18:07Z</time>
      </trkpt>
      <trkpt lat="41.2199790" lon="-8.7128100">
        <ele>9.7</ele>
        <time>2019-08-15T13:18:11Z</time>
      </trkpt>
      <trkpt lat="41.2201340" lon="-8.7129140">
        <ele>9.6</ele>
        <time>2019-08-15T13:18:15Z</time>
      </trkpt>
      <trkpt lat="41.2201710" lon="-8.7129310">
        <ele>9.6</ele>
        <time>2019-08-15T13:18:16Z</time>
      </trkpt>
      <trkpt lat="41.2203750" lon="-8.7130930">
        <ele>9.3</ele>
        <time>2019-08-15T13:18:22Z</time>
      </trkpt>
      <trkpt lat="41.2205810" lon="-8.7133160">
        <ele>8.6</ele>
        <time>2019-08-15T13:18:27Z</time>
      </trkpt>
      <trkpt lat="41.2206210" lon="-8.7133610">
        <ele>8.4</ele>
        <time>2019-08-15T13:18:28Z</time>
      </trkpt>
      <trkpt lat="41.2206560" lon="-8.7134070">
        <ele>8.1</ele>
        <time>2019-08-15T13:18:29Z</time>
      </trkpt>
      <trkpt lat="41.2206880" lon="-8.7134500">
        <ele>7.9</ele>
        <time>2019-08-15T13:18:30Z</time>
      </trkpt>
      <trkpt lat="41.2207210" lon="-8.7134900">
        <ele>7.7</ele>
        <time>2019-08-15T13:18:31Z</time>
      </trkpt>
      <trkpt lat="41.2208550" lon="-8.7136560">
        <ele>7.4</ele>
        <time>2019-08-15T13:18:35Z</time>
      </trkpt>
      <trkpt lat="41.2211640" lon="-8.7140060">
        <ele>7.4</ele>
        <time>2019-08-15T13:18:44Z</time>
      </trkpt>
      <trkpt lat="41.2215030" lon="-8.7143120">
        <ele>7.2</ele>
        <time>2019-08-15T13:18:53Z</time>
      </trkpt>
      <trkpt lat="41.2218390" lon="-8.7144350">
        <ele>7.3</ele>
        <time>2019-08-15T13:19:01Z</time>
      </trkpt>
      <trkpt lat="41.2222640" lon="-8.7145830">
        <ele>7.3</ele>
        <time>2019-08-15T13:19:11Z</time>
      </trkpt>
      <trkpt lat="41.2226460" lon="-8.7147810">
        <ele>7.1</ele>
        <time>2019-08-15T13:19:20Z</time>
      </trkpt>
      <trkpt lat="41.2226790" lon="-8.7148050">
        <ele>7.1</ele>
        <time>2019-08-15T13:19:21Z</time>
      </trkpt>
      <trkpt lat="41.2228780" lon="-8.7149500">
        <ele>7.0</ele>
        <time>2019-08-15T13:19:27Z</time>
      </trkpt>
      <trkpt lat="41.2232120" lon="-8.7151710">
        <ele>6.8</ele>
        <time>2019-08-15T13:19:37Z</time>
      </trkpt>
      <trkpt lat="41.2233730" lon="-8.7152910">
        <ele>6.7</ele>
        <time>2019-08-15T13:19:44Z</time>
      </trkpt>
      <trkpt lat="41.2234910" lon="-8.7153810">
        <ele>6.6</ele>
        <time>2019-08-15T13:19:51Z</time>
      </trkpt>
      <trkpt lat="41.2234850" lon="-8.7153830">
        <ele>6.6</ele>
        <time>2019-08-15T13:19:52Z</time>
      </trkpt>
      <trkpt lat="41.2234800" lon="-8.7154080">
        <ele>6.6</ele>
        <time>2019-08-15T13:20:09Z</time>
      </trkpt>
      <trkpt lat="41.2234860" lon="-8.7154120">
        <ele>6.6</ele>
        <time>2019-08-15T13:20:10Z</time>
      </trkpt>
      <trkpt lat="41.2236060" lon="-8.7154850">
        <ele>6.6</ele>
        <time>2019-08-15T13:20:15Z</time>
      </trkpt>
      <trkpt lat="41.2238830" lon="-8.7156680">
        <ele>6.7</ele>
        <time>2019-08-15T13:20:22Z</time>
      </trkpt>
      <trkpt lat="41.2241820" lon="-8.7158900">
        <ele>6.5</ele>
        <time>2019-08-15T13:20:30Z</time>
      </trkpt>
      <trkpt lat="41.2242200" lon="-8.7159130">
        <ele>6.4</ele>
        <time>2019-08-15T13:20:31Z</time>
      </trkpt>
      <trkpt lat="41.2242550" lon="-8.7159350">
        <ele>6.3</ele>
        <time>2019-08-15T13:20:32Z</time>
      </trkpt>
      <trkpt lat="41.2242900" lon="-8.7159600">
        <ele>6.2</ele>
        <time>2019-08-15T13:20:33Z</time>
      </trkpt>
      <trkpt lat="41.2243260" lon="-8.7159830">
        <ele>6.1</ele>
        <time>2019-08-15T13:20:34Z</time>
      </trkpt>
      <trkpt lat="41.2244200" lon="-8.7160020">
        <ele>5.9</ele>
        <time>2019-08-15T13:20:37Z</time>
      </trkpt>
      <trkpt lat="41.2244440" lon="-8.7159960">
        <ele>5.9</ele>
        <time>2019-08-15T13:20:40Z</time>
      </trkpt>
      <trkpt lat="41.2244580" lon="-8.7159960">
        <ele>5.9</ele>
        <time>2019-08-15T13:20:50Z</time>
      </trkpt>
      <trkpt lat="41.2245740" lon="-8.7160520">
        <ele>5.5</ele>
        <time>2019-08-15T13:20:54Z</time>
      </trkpt>
      <trkpt lat="41.2246510" lon="-8.7161070">
        <ele>5.3</ele>
        <time>2019-08-15T13:21:00Z</time>
      </trkpt>
      <trkpt lat="41.2246600" lon="-8.7161060">
        <ele>5.2</ele>
        <time>2019-08-15T13:21:06Z</time>
      </trkpt>
      <trkpt lat="41.2247410" lon="-8.7161380">
        <ele>5.1</ele>
        <time>2019-08-15T13:21:10Z</time>
      </trkpt>
      <trkpt lat="41.2249690" lon="-8.7162280">
        <ele>4.6</ele>
        <time>2019-08-15T13:21:17Z</time>
      </trkpt>
      <trkpt lat="41.2253660" lon="-8.7163980">
        <ele>4.1</ele>
        <time>2019-08-15T13:21:27Z</time>
      </trkpt>
      <trkpt lat="41.2258370" lon="-8.7166230">
        <ele>3.9</ele>
        <time>2019-08-15T13:21:38Z</time>
      </trkpt>
      <trkpt lat="41.2263210" lon="-8.7168460">
        <ele>3.6</ele>
        <time>2019-08-15T13:21:49Z</time>
      </trkpt>
      <trkpt lat="41.2264010" lon="-8.7169090">
        <ele>3.6</ele>
        <time>2019-08-15T13:21:51Z</time>
      </trkpt>
      <trkpt lat="41.2264900" lon="-8.7170540">
        <ele>3.6</ele>
        <time>2019-08-15T13:21:54Z</time>
      </trkpt>
      <trkpt lat="41.2265350" lon="-8.7173150">
        <ele>3.6</ele>
        <time>2019-08-15T13:21:58Z</time>
      </trkpt>
      <trkpt lat="41.2265320" lon="-8.7174430">
        <ele>3.6</ele>
        <time>2019-08-15T13:22:00Z</time>
      </trkpt>
      <trkpt lat="41.2265490" lon="-8.7177590">
        <ele>3.7</ele>
        <time>2019-08-15T13:22:05Z</time>
      </trkpt>
      <trkpt lat="41.2265460" lon="-8.7184380">
        <ele>3.8</ele>
        <time>2019-08-15T13:22:16Z</time>
      </trkpt>
      <trkpt lat="41.2265720" lon="-8.7186140">
        <ele>3.8</ele>
        <time>2019-08-15T13:22:19Z</time>
      </trkpt>
      <trkpt lat="41.2266410" lon="-8.7187480">
        <ele>4.0</ele>
        <time>2019-08-15T13:22:22Z</time>
      </trkpt>
      <trkpt lat="41.2266660" lon="-8.7187900">
        <ele>4.0</ele>
        <time>2019-08-15T13:22:23Z</time>
      </trkpt>
      <trkpt lat="41.2268400" lon="-8.7190410">
        <ele>4.4</ele>
        <time>2019-08-15T13:22:30Z</time>
      </trkpt>
      <trkpt lat="41.2270990" lon="-8.7193330">
        <ele>4.8</ele>
        <time>2019-08-15T13:22:40Z</time>
      </trkpt>
      <trkpt lat="41.2271510" lon="-8.7193810">
        <ele>4.9</ele>
        <time>2019-08-15T13:22:43Z</time>
      </trkpt>
      <trkpt lat="41.2271210" lon="-8.7193680">
        <ele>4.9</ele>
        <time>2019-08-15T13:32:09Z</time>
      </trkpt>
      <trkpt lat="41.2271520" lon="-8.7193610">
        <ele>4.9</ele>
        <time>2019-08-15T13:32:12Z</time>
      </trkpt>
      <trkpt lat="41.2271790" lon="-8.7193780">
        <ele>4.9</ele>
        <time>2019-08-15T13:32:13Z</time>
      </trkpt>
      <trkpt lat="41.2273740" lon="-8.7194590">
        <ele>5.7</ele>
        <time>2019-08-15T13:32:19Z</time>
      </trkpt>
      <trkpt lat="41.2274620" lon="-8.7194810">
        <ele>6.0</ele>
        <time>2019-08-15T13:32:21Z</time>
      </trkpt>
      <trkpt lat="41.2275890" lon="-8.7194920">
        <ele>6.5</ele>
        <time>2019-08-15T13:32:24Z</time>
      </trkpt>
      <trkpt lat="41.2276300" lon="-8.7195060">
        <ele>6.6</ele>
        <time>2019-08-15T13:32:25Z</time>
      </trkpt>
      <trkpt lat="41.2277630" lon="-8.7195350">
        <ele>7.0</ele>
        <time>2019-08-15T13:32:28Z</time>
      </trkpt>
      <trkpt lat="41.2278100" lon="-8.7195370">
        <ele>7.1</ele>
        <time>2019-08-15T13:32:29Z</time>
      </trkpt>
      <trkpt lat="41.2280890" lon="-8.7195570">
        <ele>7.4</ele>
        <time>2019-08-15T13:32:35Z</time>
      </trkpt>
      <trkpt lat="41.2281390" lon="-8.7195530">
        <ele>7.4</ele>
        <time>2019-08-15T13:32:36Z</time>
      </trkpt>
      <trkpt lat="41.2284900" lon="-8.7194890">
        <ele>7.0</ele>
        <time>2019-08-15T13:32:43Z</time>
      </trkpt>
      <trkpt lat="41.2288930" lon="-8.7194060">
        <ele>5.3</ele>
        <time>2019-08-15T13:32:51Z</time>
      </trkpt>
      <trkpt lat="41.2290480" lon="-8.7193690">
        <ele>5.2</ele>
        <time>2019-08-15T13:32:54Z</time>
      </trkpt>
      <trkpt lat="41.2291010" lon="-8.7193610">
        <ele>5.2</ele>
        <time>2019-08-15T13:32:55Z</time>
      </trkpt>
      <trkpt lat="41.2291520" lon="-8.7193570">
        <ele>5.2</ele>
        <time>2019-08-15T13:32:56Z</time>
      </trkpt>
      <trkpt lat="41.2292020" lon="-8.7193550">
        <ele>5.2</ele>
        <time>2019-08-15T13:32:57Z</time>
      </trkpt>
      <trkpt lat="41.2292460" lon="-8.7193500">
        <ele>5.2</ele>
        <time>2019-08-15T13:32:58Z</time>
      </trkpt>
      <trkpt lat="41.2293360" lon="-8.7193370">
        <ele>5.2</ele>
        <time>2019-08-15T13:33:00Z</time>
      </trkpt>
      <trkpt lat="41.2295680" lon="-8.7193200">
        <ele>5.1</ele>
        <time>2019-08-15T13:33:06Z</time>
      </trkpt>
      <trkpt lat="41.2298470" lon="-8.7193190">
        <ele>4.8</ele>
        <time>2019-08-15T13:33:13Z</time>
      </trkpt>
      <trkpt lat="41.2301580" lon="-8.7193460">
        <ele>4.4</ele>
        <time>2019-08-15T13:33:21Z</time>
      </trkpt>
      <trkpt lat="41.2304980" lon="-8.7194100">
        <ele>4.4</ele>
        <time>2019-08-15T13:33:29Z</time>
      </trkpt>
      <trkpt lat="41.2309040" lon="-8.7195160">
        <ele>4.5</ele>
        <time>2019-08-15T13:33:39Z</time>
      </trkpt>
      <trkpt lat="41.2312080" lon="-8.7196090">
        <ele>4.6</ele>
        <time>2019-08-15T13:33:47Z</time>
      </trkpt>
      <trkpt lat="41.2314560" lon="-8.7197120">
        <ele>4.7</ele>
        <time>2019-08-15T13:33:54Z</time>
      </trkpt>
      <trkpt lat="41.2318980" lon="-8.7198780">
        <ele>4.7</ele>
        <time>2019-08-15T13:34:06Z</time>
      </trkpt>
      <trkpt lat="41.2323540" lon="-8.7200650">
        <ele>4.8</ele>
        <time>2019-08-15T13:34:18Z</time>
      </trkpt>
      <trkpt lat="41.2328220" lon="-8.7202690">
        <ele>4.9</ele>
        <time>2019-08-15T13:34:30Z</time>
      </trkpt>
      <trkpt lat="41.2332320" lon="-8.7204410">
        <ele>4.9</ele>
        <time>2019-08-15T13:34:40Z</time>
      </trkpt>
      <trkpt lat="41.2333060" lon="-8.7204760">
        <ele>4.9</ele>
        <time>2019-08-15T13:34:42Z</time>
      </trkpt>
      <trkpt lat="41.2336130" lon="-8.7206170">
        <ele>5.0</ele>
        <time>2019-08-15T13:34:50Z</time>
      </trkpt>
      <trkpt lat="41.2340080" lon="-8.7207510">
        <ele>5.2</ele>
        <time>2019-08-15T13:35:00Z</time>
      </trkpt>
      <trkpt lat="41.2344230" lon="-8.7209360">
        <ele>5.5</ele>
        <time>2019-08-15T13:35:10Z</time>
      </trkpt>
      <trkpt lat="41.2347900" lon="-8.7211040">
        <ele>5.6</ele>
        <time>2019-08-15T13:35:19Z</time>
      </trkpt>
      <trkpt lat="41.2350890" lon="-8.7212180">
        <ele>5.8</ele>
        <time>2019-08-15T13:35:28Z</time>
      </trkpt>
      <trkpt lat="41.2352770" lon="-8.7212970">
        <ele>5.9</ele>
        <time>2019-08-15T13:35:34Z</time>
      </trkpt>
      <trkpt lat="41.2355230" lon="-8.7213930">
        <ele>6.1</ele>
        <time>2019-08-15T13:35:40Z</time>
      </trkpt>
      <trkpt lat="41.2359310" lon="-8.7215730">
        <ele>6.5</ele>
        <time>2019-08-15T13:35:50Z</time>
      </trkpt>
      <trkpt lat="41.2362640" lon="-8.7217030">
        <ele>6.7</ele>
        <time>2019-08-15T13:35:58Z</time>
      </trkpt>
      <trkpt lat="41.2366480" lon="-8.7218550">
        <ele>6.8</ele>
        <time>2019-08-15T13:36:08Z</time>
      </trkpt>
      <trkpt lat="41.2368060" lon="-8.7219470">
        <ele>6.9</ele>
        <time>2019-08-15T13:36:14Z</time>
      </trkpt>
      <trkpt lat="41.2368090" lon="-8.7219730">
        <ele>6.9</ele>
        <time>2019-08-15T13:36:16Z</time>
      </trkpt>
      <trkpt lat="41.2367610" lon="-8.7220550">
        <ele>6.5</ele>
        <time>2019-08-15T13:36:20Z</time>
      </trkpt>
      <trkpt lat="41.2367380" lon="-8.7221020">
        <ele>6.4</ele>
        <time>2019-08-15T13:36:21Z</time>
      </trkpt>
      <trkpt lat="41.2365710" lon="-8.7223420">
        <ele>6.0</ele>
        <time>2019-08-15T13:36:27Z</time>
      </trkpt>
      <trkpt lat="41.2365630" lon="-8.7223740">
        <ele>6.0</ele>
        <time>2019-08-15T13:36:29Z</time>
      </trkpt>
      <trkpt lat="41.2365600" lon="-8.7223510">
        <ele>6.0</ele>
        <time>2019-08-15T14:39:57Z</time>
      </trkpt>
      <trkpt lat="41.2365380" lon="-8.7223690">
        <ele>5.9</ele>
        <time>2019-08-15T14:40:00Z</time>
      </trkpt>
      <trkpt lat="41.2365160" lon="-8.7223650">
        <ele>5.9</ele>
        <time>2019-08-15T14:40:04Z</time>
      </trkpt>
      <trkpt lat="41.2365100" lon="-8.7223650">
        <ele>5.9</ele>
        <time>2019-08-15T14:40:05Z</time>
      </trkpt>
      <trkpt lat="41.2365100" lon="-8.7223650">
        <ele>5.9</ele>
        <time>2019-08-15T14:40:06Z</time>
      </trkpt>
      <trkpt lat="41.2365150" lon="-8.7223460">
        <ele>5.8</ele>
        <time>2019-08-15T14:40:31Z</time>
      </trkpt>
      <trkpt lat="41.2365400" lon="-8.7222970">
        <ele>5.8</ele>
        <time>2019-08-15T14:40:33Z</time>
      </trkpt>
      <trkpt lat="41.2367240" lon="-8.7220780">
        <ele>6.4</ele>
        <time>2019-08-15T14:40:42Z</time>
      </trkpt>
      <trkpt lat="41.2368890" lon="-8.7220480">
        <ele>6.9</ele>
        <time>2019-08-15T14:40:47Z</time>
      </trkpt>
      <trkpt lat="41.2369180" lon="-8.7220460">
        <ele>6.9</ele>
        <time>2019-08-15T14:40:48Z</time>
      </trkpt>
      <trkpt lat="41.2369470" lon="-8.7220510">
        <ele>6.9</ele>
        <time>2019-08-15T14:40:49Z</time>
      </trkpt>
      <trkpt lat="41.2369720" lon="-8.7220590">
        <ele>6.9</ele>
        <time>2019-08-15T14:40:50Z</time>
      </trkpt>
      <trkpt lat="41.2369990" lon="-8.7220710">
        <ele>6.9</ele>
        <time>2019-08-15T14:40:51Z</time>
      </trkpt>
      <trkpt lat="41.2370250" lon="-8.7220860">
        <ele>6.9</ele>
        <time>2019-08-15T14:40:52Z</time>
      </trkpt>
      <trkpt lat="41.2371890" lon="-8.7221990">
        <ele>7.0</ele>
        <time>2019-08-15T14:40:58Z</time>
      </trkpt>
      <trkpt lat="41.2373680" lon="-8.7223370">
        <ele>7.0</ele>
        <time>2019-08-15T14:41:03Z</time>
      </trkpt>
      <trkpt lat="41.2375410" lon="-8.7224600">
        <ele>6.8</ele>
        <time>2019-08-15T14:41:09Z</time>
      </trkpt>
      <trkpt lat="41.2376650" lon="-8.7225770">
        <ele>6.4</ele>
        <time>2019-08-15T14:41:15Z</time>
      </trkpt>
      <trkpt lat="41.2376770" lon="-8.7226020">
        <ele>6.3</ele>
        <time>2019-08-15T14:41:16Z</time>
      </trkpt>
      <trkpt lat="41.2377430" lon="-8.7226750">
        <ele>5.9</ele>
        <time>2019-08-15T14:41:20Z</time>
      </trkpt>
      <trkpt lat="41.2378340" lon="-8.7227520">
        <ele>5.8</ele>
        <time>2019-08-15T14:41:25Z</time>
      </trkpt>
      <trkpt lat="41.2378910" lon="-8.7228260">
        <ele>5.7</ele>
        <time>2019-08-15T14:41:30Z</time>
      </trkpt>
      <trkpt lat="41.2380150" lon="-8.7229050">
        <ele>5.7</ele>
        <time>2019-08-15T14:41:35Z</time>
      </trkpt>
      <trkpt lat="41.2381420" lon="-8.7230080">
        <ele>5.7</ele>
        <time>2019-08-15T14:41:41Z</time>
      </trkpt>
      <trkpt lat="41.2381600" lon="-8.7230250">
        <ele>5.7</ele>
        <time>2019-08-15T14:41:42Z</time>
      </trkpt>
      <trkpt lat="41.2381920" lon="-8.7230440">
        <ele>5.7</ele>
        <time>2019-08-15T14:41:43Z</time>
      </trkpt>
      <trkpt lat="41.2382210" lon="-8.7230620">
        <ele>5.7</ele>
        <time>2019-08-15T14:41:44Z</time>
      </trkpt>
      <trkpt lat="41.2382500" lon="-8.7230870">
        <ele>5.7</ele>
        <time>2019-08-15T14:41:45Z</time>
      </trkpt>
      <trkpt lat="41.2383090" lon="-8.7231280">
        <ele>5.7</ele>
        <time>2019-08-15T14:41:47Z</time>
      </trkpt>
      <trkpt lat="41.2384270" lon="-8.7231760">
        <ele>5.9</ele>
        <time>2019-08-15T14:41:52Z</time>
      </trkpt>
      <trkpt lat="41.2385340" lon="-8.7232090">
        <ele>6.2</ele>
        <time>2019-08-15T14:41:58Z</time>
      </trkpt>
      <trkpt lat="41.2386660" lon="-8.7232680">
        <ele>6.6</ele>
        <time>2019-08-15T14:42:05Z</time>
      </trkpt>
      <trkpt lat="41.2389130" lon="-8.7233710">
        <ele>7.0</ele>
        <time>2019-08-15T14:42:16Z</time>
      </trkpt>
      <trkpt lat="41.2391120" lon="-8.7234450">
        <ele>7.0</ele>
        <time>2019-08-15T14:42:25Z</time>
      </trkpt>
      <trkpt lat="41.2392730" lon="-8.7236150">
        <ele>6.8</ele>
        <time>2019-08-15T14:42:33Z</time>
      </trkpt>
      <trkpt lat="41.2393130" lon="-8.7236610">
        <ele>6.8</ele>
        <time>2019-08-15T14:42:35Z</time>
      </trkpt>
      <trkpt lat="41.2393330" lon="-8.7236810">
        <ele>6.8</ele>
        <time>2019-08-15T14:42:36Z</time>
      </trkpt>
      <trkpt lat="41.2393440" lon="-8.7237080">
        <ele>6.9</ele>
        <time>2019-08-15T14:42:37Z</time>
      </trkpt>
      <trkpt lat="41.2393660" lon="-8.7237300">
        <ele>6.9</ele>
        <time>2019-08-15T14:42:38Z</time>
      </trkpt>
      <trkpt lat="41.2393760" lon="-8.7237710">
        <ele>6.9</ele>
        <time>2019-08-15T14:42:39Z</time>
      </trkpt>
      <trkpt lat="41.2394150" lon="-8.7238250">
        <ele>7.0</ele>
        <time>2019-08-15T14:42:41Z</time>
      </trkpt>
      <trkpt lat="41.2396240" lon="-8.7240300">
        <ele>7.0</ele>
        <time>2019-08-15T14:42:50Z</time>
      </trkpt>
      <trkpt lat="41.2397060" lon="-8.7240860">
        <ele>7.1</ele>
        <time>2019-08-15T14:42:53Z</time>
      </trkpt>
      <trkpt lat="41.2398550" lon="-8.7241530">
        <ele>7.4</ele>
        <time>2019-08-15T14:42:58Z</time>
      </trkpt>
      <trkpt lat="41.2401510" lon="-8.7243390">
        <ele>7.6</ele>
        <time>2019-08-15T14:43:08Z</time>
      </trkpt>
      <trkpt lat="41.2403930" lon="-8.7245090">
        <ele>7.4</ele>
        <time>2019-08-15T14:43:16Z</time>
      </trkpt>
      <trkpt lat="41.2406060" lon="-8.7246240">
        <ele>7.1</ele>
        <time>2019-08-15T14:43:24Z</time>
      </trkpt>
      <trkpt lat="41.2407050" lon="-8.7247090">
        <ele>6.6</ele>
        <time>2019-08-15T14:43:30Z</time>
      </trkpt>
      <trkpt lat="41.2406750" lon="-8.7248610">
        <ele>6.1</ele>
        <time>2019-08-15T14:43:34Z</time>
      </trkpt>
      <trkpt lat="41.2406320" lon="-8.7248890">
        <ele>5.8</ele>
        <time>2019-08-15T14:43:36Z</time>
      </trkpt>
      <trkpt lat="41.2406120" lon="-8.7248960">
        <ele>5.6</ele>
        <time>2019-08-15T14:43:37Z</time>
      </trkpt>
      <trkpt lat="41.2405820" lon="-8.7250280">
        <ele>6.7</ele>
        <time>2019-08-15T14:43:40Z</time>
      </trkpt>
      <trkpt lat="41.2405780" lon="-8.7250880">
        <ele>6.7</ele>
        <time>2019-08-15T14:43:41Z</time>
      </trkpt>
      <trkpt lat="41.2405650" lon="-8.7251990">
        <ele>6.7</ele>
        <time>2019-08-15T14:43:43Z</time>
      </trkpt>
      <trkpt lat="41.2405250" lon="-8.7253740">
        <ele>6.6</ele>
        <time>2019-08-15T14:43:48Z</time>
      </trkpt>
      <trkpt lat="41.2405930" lon="-8.7256050">
        <ele>6.4</ele>
        <time>2019-08-15T14:43:53Z</time>
      </trkpt>
      <trkpt lat="41.2406750" lon="-8.7257590">
        <ele>6.3</ele>
        <time>2019-08-15T14:43:57Z</time>
      </trkpt>
      <trkpt lat="41.2408430" lon="-8.7258340">
        <ele>6.2</ele>
        <time>2019-08-15T14:44:02Z</time>
      </trkpt>
      <trkpt lat="41.2411480" lon="-8.7259420">
        <ele>6.0</ele>
        <time>2019-08-15T14:44:10Z</time>
      </trkpt>
      <trkpt lat="41.2413100" lon="-8.7260030">
        <ele>5.9</ele>
        <time>2019-08-15T14:44:16Z</time>
      </trkpt>
      <trkpt lat="41.2413700" lon="-8.7260450">
        <ele>5.8</ele>
        <time>2019-08-15T14:44:21Z</time>
      </trkpt>
      <trkpt lat="41.2414500" lon="-8.7260830">
        <ele>5.7</ele>
        <time>2019-08-15T14:44:24Z</time>
      </trkpt>
      <trkpt lat="41.2417310" lon="-8.7261770">
        <ele>5.5</ele>
        <time>2019-08-15T14:44:31Z</time>
      </trkpt>
      <trkpt lat="41.2419350" lon="-8.7262630">
        <ele>5.3</ele>
        <time>2019-08-15T14:44:38Z</time>
      </trkpt>
      <trkpt lat="41.2420790" lon="-8.7262860">
        <ele>5.2</ele>
        <time>2019-08-15T14:44:43Z</time>
      </trkpt>
      <trkpt lat="41.2422520" lon="-8.7263500">
        <ele>5.0</ele>
        <time>2019-08-15T14:44:49Z</time>
      </trkpt>
      <trkpt lat="41.2424830" lon="-8.7264480">
        <ele>4.8</ele>
        <time>2019-08-15T14:44:56Z</time>
      </trkpt>
      <trkpt lat="41.2427090" lon="-8.7265310">
        <ele>4.7</ele>
        <time>2019-08-15T14:45:04Z</time>
      </trkpt>
      <trkpt lat="41.2428660" lon="-8.7264690">
        <ele>4.6</ele>
        <time>2019-08-15T14:45:09Z</time>
      </trkpt>
      <trkpt lat="41.2429520" lon="-8.7263290">
        <ele>4.6</ele>
        <time>2019-08-15T14:45:14Z</time>
      </trkpt>
      <trkpt lat="41.2429650" lon="-8.7261000">
        <ele>4.6</ele>
        <time>2019-08-15T14:45:19Z</time>
      </trkpt>
      <trkpt lat="41.2429680" lon="-8.7257570">
        <ele>4.6</ele>
        <time>2019-08-15T14:45:27Z</time>
      </trkpt>
      <trkpt lat="41.2429710" lon="-8.7257080">
        <ele>4.6</ele>
        <time>2019-08-15T14:45:28Z</time>
      </trkpt>
      <trkpt lat="41.2429700" lon="-8.7256590">
        <ele>4.6</ele>
        <time>2019-08-15T14:45:29Z</time>
      </trkpt>
      <trkpt lat="41.2429690" lon="-8.7256100">
        <ele>4.6</ele>
        <time>2019-08-15T14:45:30Z</time>
      </trkpt>
      <trkpt lat="41.2429680" lon="-8.7255580">
        <ele>4.6</ele>
        <time>2019-08-15T14:45:31Z</time>
      </trkpt>
      <trkpt lat="41.2429790" lon="-8.7252840">
        <ele>4.6</ele>
        <time>2019-08-15T14:45:37Z</time>
      </trkpt>
      <trkpt lat="41.2429700" lon="-8.7248640">
        <ele>4.4</ele>
        <time>2019-08-15T14:45:45Z</time>
      </trkpt>
      <trkpt lat="41.2429720" lon="-8.7248110">
        <ele>4.4</ele>
        <time>2019-08-15T14:45:46Z</time>
      </trkpt>
      <trkpt lat="41.2430100" lon="-8.7244490">
        <ele>4.3</ele>
        <time>2019-08-15T14:45:54Z</time>
      </trkpt>
      <trkpt lat="41.2431150" lon="-8.7244300">
        <ele>4.3</ele>
        <time>2019-08-15T14:45:57Z</time>
      </trkpt>
      <trkpt lat="41.2431510" lon="-8.7244290">
        <ele>4.3</ele>
        <time>2019-08-15T14:45:58Z</time>
      </trkpt>
      <trkpt lat="41.2433140" lon="-8.7244450">
        <ele>4.3</ele>
        <time>2019-08-15T14:46:03Z</time>
      </trkpt>
      <trkpt lat="41.2435240" lon="-8.7244420">
        <ele>4.4</ele>
        <time>2019-08-15T14:46:09Z</time>
      </trkpt>
      <trkpt lat="41.2437380" lon="-8.7244560">
        <ele>4.5</ele>
        <time>2019-08-15T14:46:15Z</time>
      </trkpt>
      <trkpt lat="41.2437730" lon="-8.7244560">
        <ele>4.5</ele>
        <time>2019-08-15T14:46:16Z</time>
      </trkpt>
      <trkpt lat="41.2438120" lon="-8.7244570">
        <ele>4.5</ele>
        <time>2019-08-15T14:46:17Z</time>
      </trkpt>
      <trkpt lat="41.2438510" lon="-8.7244520">
        <ele>4.5</ele>
        <time>2019-08-15T14:46:18Z</time>
      </trkpt>
      <trkpt lat="41.2438870" lon="-8.7244420">
        <ele>4.5</ele>
        <time>2019-08-15T14:46:19Z</time>
      </trkpt>
      <trkpt lat="41.2440620" lon="-8.7243520">
        <ele>4.6</ele>
        <time>2019-08-15T14:46:24Z</time>
      </trkpt>
      <trkpt lat="41.2441950" lon="-8.7241790">
        <ele>4.6</ele>
        <time>2019-08-15T14:46:29Z</time>
      </trkpt>
      <trkpt lat="41.2444190" lon="-8.7238970">
        <ele>5.0</ele>
        <time>2019-08-15T14:46:37Z</time>
      </trkpt>
      <trkpt lat="41.2447050" lon="-8.7235510">
        <ele>6.2</ele>
        <time>2019-08-15T14:46:47Z</time>
      </trkpt>
      <trkpt lat="41.2449720" lon="-8.7233230">
        <ele>6.3</ele>
        <time>2019-08-15T14:46:55Z</time>
      </trkpt>
      <trkpt lat="41.2450430" lon="-8.7232800">
        <ele>6.3</ele>
        <time>2019-08-15T14:46:57Z</time>
      </trkpt>
      <trkpt lat="41.2451860" lon="-8.7232620">
        <ele>6.3</ele>
        <time>2019-08-15T14:47:01Z</time>
      </trkpt>
      <trkpt lat="41.2454700" lon="-8.7232380">
        <ele>6.3</ele>
        <time>2019-08-15T14:47:08Z</time>
      </trkpt>
      <trkpt lat="41.2457830" lon="-8.7232030">
        <ele>6.3</ele>
        <time>2019-08-15T14:47:16Z</time>
      </trkpt>
      <trkpt lat="41.2460460" lon="-8.7231850">
        <ele>6.3</ele>
        <time>2019-08-15T14:47:23Z</time>
      </trkpt>
      <trkpt lat="41.2463120" lon="-8.7231470">
        <ele>6.3</ele>
        <time>2019-08-15T14:47:30Z</time>
      </trkpt>
      <trkpt lat="41.2466940" lon="-8.7231100">
        <ele>6.3</ele>
        <time>2019-08-15T14:47:40Z</time>
      </trkpt>
      <trkpt lat="41.2469420" lon="-8.7230940">
        <ele>6.3</ele>
        <time>2019-08-15T14:47:48Z</time>
      </trkpt>
      <trkpt lat="41.2472610" lon="-8.7230930">
        <ele>6.3</ele>
        <time>2019-08-15T14:47:57Z</time>
      </trkpt>
      <trkpt lat="41.2472950" lon="-8.7230960">
        <ele>6.3</ele>
        <time>2019-08-15T14:47:58Z</time>
      </trkpt>
      <trkpt lat="41.2476210" lon="-8.7231460">
        <ele>6.3</ele>
        <time>2019-08-15T14:48:07Z</time>
      </trkpt>
      <trkpt lat="41.2480270" lon="-8.7231930">
        <ele>6.3</ele>
        <time>2019-08-15T14:48:17Z</time>
      </trkpt>
      <trkpt lat="41.2482860" lon="-8.7232250">
        <ele>6.3</ele>
        <time>2019-08-15T14:48:24Z</time>
      </trkpt>
      <trkpt lat="41.2486210" lon="-8.7232890">
        <ele>5.8</ele>
        <time>2019-08-15T14:48:33Z</time>
      </trkpt>
      <trkpt lat="41.2489140" lon="-8.7233150">
        <ele>5.0</ele>
        <time>2019-08-15T14:48:40Z</time>
      </trkpt>
      <trkpt lat="41.2490640" lon="-8.7233460">
        <ele>4.7</ele>
        <time>2019-08-15T14:48:45Z</time>
      </trkpt>
      <trkpt lat="41.2493290" lon="-8.7234050">
        <ele>4.0</ele>
        <time>2019-08-15T14:48:52Z</time>
      </trkpt>
      <trkpt lat="41.2496530" lon="-8.7234580">
        <ele>3.6</ele>
        <time>2019-08-15T14:49:00Z</time>
      </trkpt>
      <trkpt lat="41.2499510" lon="-8.7235060">
        <ele>3.1</ele>
        <time>2019-08-15T14:49:08Z</time>
      </trkpt>
      <trkpt lat="41.2503320" lon="-8.7235580">
        <ele>3.2</ele>
        <time>2019-08-15T14:49:18Z</time>
      </trkpt>
      <trkpt lat="41.2505360" lon="-8.7235680">
        <ele>2.9</ele>
        <time>2019-08-15T14:49:24Z</time>
      </trkpt>
      <trkpt lat="41.2507580" lon="-8.7235130">
        <ele>1.9</ele>
        <time>2019-08-15T14:49:30Z</time>
      </trkpt>
      <trkpt lat="41.2509860" lon="-8.7234460">
        <ele>0.8</ele>
        <time>2019-08-15T14:49:37Z</time>
      </trkpt>
      <trkpt lat="41.2513060" lon="-8.7233590">
        <ele>0.8</ele>
        <time>2019-08-15T14:49:46Z</time>
      </trkpt>
      <trkpt lat="41.2516380" lon="-8.7232810">
        <ele>1.3</ele>
        <time>2019-08-15T14:49:55Z</time>
      </trkpt>
      <trkpt lat="41.2516670" lon="-8.7232710">
        <ele>1.3</ele>
        <time>2019-08-15T14:49:56Z</time>
      </trkpt>
      <trkpt lat="41.2516960" lon="-8.7232580">
        <ele>1.4</ele>
        <time>2019-08-15T14:49:57Z</time>
      </trkpt>
      <trkpt lat="41.2517220" lon="-8.7232510">
        <ele>1.4</ele>
        <time>2019-08-15T14:49:58Z</time>
      </trkpt>
      <trkpt lat="41.2517490" lon="-8.7232490">
        <ele>1.5</ele>
        <time>2019-08-15T14:49:59Z</time>
      </trkpt>
      <trkpt lat="41.2518140" lon="-8.7232790">
        <ele>1.6</ele>
        <time>2019-08-15T14:50:02Z</time>
      </trkpt>
      <trkpt lat="41.2521560" lon="-8.7232340">
        <ele>1.4</ele>
        <time>2019-08-15T14:50:09Z</time>
      </trkpt>
      <trkpt lat="41.2525220" lon="-8.7231850">
        <ele>1.9</ele>
        <time>2019-08-15T14:50:17Z</time>
      </trkpt>
      <trkpt lat="41.2528790" lon="-8.7231430">
        <ele>2.8</ele>
        <time>2019-08-15T14:50:24Z</time>
      </trkpt>
      <trkpt lat="41.2529230" lon="-8.7231350">
        <ele>2.8</ele>
        <time>2019-08-15T14:50:25Z</time>
      </trkpt>
      <trkpt lat="41.2529650" lon="-8.7231260">
        <ele>2.8</ele>
        <time>2019-08-15T14:50:26Z</time>
      </trkpt>
      <trkpt lat="41.2530060" lon="-8.7231190">
        <ele>2.8</ele>
        <time>2019-08-15T14:50:27Z</time>
      </trkpt>
      <trkpt lat="41.2530950" lon="-8.7231000">
        <ele>2.7</ele>
        <time>2019-08-15T14:50:29Z</time>
      </trkpt>
      <trkpt lat="41.2531390" lon="-8.7230820">
        <ele>2.6</ele>
        <time>2019-08-15T14:50:30Z</time>
      </trkpt>
      <trkpt lat="41.2531720" lon="-8.7230540">
        <ele>2.5</ele>
        <time>2019-08-15T14:50:31Z</time>
      </trkpt>
      <trkpt lat="41.2532780" lon="-8.7229680">
        <ele>2.2</ele>
        <time>2019-08-15T14:50:34Z</time>
      </trkpt>
      <trkpt lat="41.2533600" lon="-8.7229710">
        <ele>1.9</ele>
        <time>2019-08-15T14:50:36Z</time>
      </trkpt>
      <trkpt lat="41.2536940" lon="-8.7229840">
        <ele>1.4</ele>
        <time>2019-08-15T14:50:45Z</time>
      </trkpt>
      <trkpt lat="41.2538320" lon="-8.7229880">
        <ele>1.8</ele>
        <time>2019-08-15T14:50:48Z</time>
      </trkpt>
      <trkpt lat="41.2539860" lon="-8.7229830">
        <ele>2.5</ele>
        <time>2019-08-15T14:50:51Z</time>
      </trkpt>
      <trkpt lat="41.2543450" lon="-8.7229840">
        <ele>4.6</ele>
        <time>2019-08-15T14:50:58Z</time>
      </trkpt>
      <trkpt lat="41.2546180" lon="-8.7229510">
        <ele>4.9</ele>
        <time>2019-08-15T14:51:04Z</time>
      </trkpt>
      <trkpt lat="41.2546590" lon="-8.7229460">
        <ele>5.0</ele>
        <time>2019-08-15T14:51:05Z</time>
      </trkpt>
      <trkpt lat="41.2550270" lon="-8.7228960">
        <ele>5.4</ele>
        <time>2019-08-15T14:51:14Z</time>
      </trkpt>
      <trkpt lat="41.2554390" lon="-8.7228400">
        <ele>5.8</ele>
        <time>2019-08-15T14:51:24Z</time>
      </trkpt>
      <trkpt lat="41.2556950" lon="-8.7227850">
        <ele>5.7</ele>
        <time>2019-08-15T14:51:31Z</time>
      </trkpt>
      <trkpt lat="41.2557170" lon="-8.7228010">
        <ele>5.7</ele>
        <time>2019-08-15T14:51:32Z</time>
      </trkpt>
      <trkpt lat="41.2557440" lon="-8.7228070">
        <ele>5.7</ele>
        <time>2019-08-15T14:51:33Z</time>
      </trkpt>
      <trkpt lat="41.2557790" lon="-8.7228030">
        <ele>5.7</ele>
        <time>2019-08-15T14:51:34Z</time>
      </trkpt>
      <trkpt lat="41.2558500" lon="-8.7227950">
        <ele>5.6</ele>
        <time>2019-08-15T14:51:36Z</time>
      </trkpt>
      <trkpt lat="41.2559700" lon="-8.7228060">
        <ele>5.4</ele>
        <time>2019-08-15T14:51:40Z</time>
      </trkpt>
      <trkpt lat="41.2561640" lon="-8.7228220">
        <ele>5.1</ele>
        <time>2019-08-15T14:51:46Z</time>
      </trkpt>
      <trkpt lat="41.2563510" lon="-8.7229010">
        <ele>5.0</ele>
        <time>2019-08-15T14:51:51Z</time>
      </trkpt>
      <trkpt lat="41.2566650" lon="-8.7230540">
        <ele>4.9</ele>
        <time>2019-08-15T14:51:59Z</time>
      </trkpt>
      <trkpt lat="41.2569860" lon="-8.7231980">
        <ele>4.9</ele>
        <time>2019-08-15T14:52:07Z</time>
      </trkpt>
      <trkpt lat="41.2572110" lon="-8.7232870">
        <ele>4.7</ele>
        <time>2019-08-15T14:52:12Z</time>
      </trkpt>
      <trkpt lat="41.2572580" lon="-8.7232980">
        <ele>4.6</ele>
        <time>2019-08-15T14:52:13Z</time>
      </trkpt>
      <trkpt lat="41.2573060" lon="-8.7233130">
        <ele>4.6</ele>
        <time>2019-08-15T14:52:14Z</time>
      </trkpt>
      <trkpt lat="41.2577770" lon="-8.7234160">
        <ele>3.7</ele>
        <time>2019-08-15T14:52:24Z</time>
      </trkpt>
      <trkpt lat="41.2578270" lon="-8.7234090">
        <ele>3.6</ele>
        <time>2019-08-15T14:52:25Z</time>
      </trkpt>
      <trkpt lat="41.2578790" lon="-8.7234090">
        <ele>3.5</ele>
        <time>2019-08-15T14:52:26Z</time>
      </trkpt>
      <trkpt lat="41.2579350" lon="-8.7233990">
        <ele>3.4</ele>
        <time>2019-08-15T14:52:27Z</time>
      </trkpt>
      <trkpt lat="41.2579890" lon="-8.7233880">
        <ele>3.2</ele>
        <time>2019-08-15T14:52:28Z</time>
      </trkpt>
      <trkpt lat="41.2581540" lon="-8.7233390">
        <ele>2.9</ele>
        <time>2019-08-15T14:52:31Z</time>
      </trkpt>
      <trkpt lat="41.2583220" lon="-8.7233150">
        <ele>2.6</ele>
        <time>2019-08-15T14:52:34Z</time>
      </trkpt>
      <trkpt lat="41.2584840" lon="-8.7233320">
        <ele>2.4</ele>
        <time>2019-08-15T14:52:37Z</time>
      </trkpt>
      <trkpt lat="41.2585370" lon="-8.7233520">
        <ele>2.4</ele>
        <time>2019-08-15T14:52:38Z</time>
      </trkpt>
      <trkpt lat="41.2586390" lon="-8.7233970">
        <ele>2.4</ele>
        <time>2019-08-15T14:52:40Z</time>
      </trkpt>
      <trkpt lat="41.2586880" lon="-8.7234250">
        <ele>2.4</ele>
        <time>2019-08-15T14:52:41Z</time>
      </trkpt>
      <trkpt lat="41.2587310" lon="-8.7234550">
        <ele>2.4</ele>
        <time>2019-08-15T14:52:42Z</time>
      </trkpt>
      <trkpt lat="41.2587750" lon="-8.7234890">
        <ele>2.4</ele>
        <time>2019-08-15T14:52:43Z</time>
      </trkpt>
      <trkpt lat="41.2588150" lon="-8.7235230">
        <ele>2.4</ele>
        <time>2019-08-15T14:52:44Z</time>
      </trkpt>
      <trkpt lat="41.2590750" lon="-8.7236690">
        <ele>2.6</ele>
        <time>2019-08-15T14:52:50Z</time>
      </trkpt>
      <trkpt lat="41.2594060" lon="-8.7238030">
        <ele>2.8</ele>
        <time>2019-08-15T14:52:57Z</time>
      </trkpt>
      <trkpt lat="41.2597580" lon="-8.7239500">
        <ele>3.0</ele>
        <time>2019-08-15T14:53:05Z</time>
      </trkpt>
      <trkpt lat="41.2599730" lon="-8.7240310">
        <ele>3.0</ele>
        <time>2019-08-15T14:53:10Z</time>
      </trkpt>
      <trkpt lat="41.2600150" lon="-8.7240490">
        <ele>3.0</ele>
        <time>2019-08-15T14:53:11Z</time>
      </trkpt>
      <trkpt lat="41.2600620" lon="-8.7240650">
        <ele>2.9</ele>
        <time>2019-08-15T14:53:12Z</time>
      </trkpt>
      <trkpt lat="41.2601070" lon="-8.7240820">
        <ele>2.9</ele>
        <time>2019-08-15T14:53:13Z</time>
      </trkpt>
      <trkpt lat="41.2601530" lon="-8.7241010">
        <ele>2.9</ele>
        <time>2019-08-15T14:53:14Z</time>
      </trkpt>
      <trkpt lat="41.2604730" lon="-8.7241970">
        <ele>3.1</ele>
        <time>2019-08-15T14:53:21Z</time>
      </trkpt>
      <trkpt lat="41.2607510" lon="-8.7242890">
        <ele>3.0</ele>
        <time>2019-08-15T14:53:27Z</time>
      </trkpt>
      <trkpt lat="41.2607860" lon="-8.7243070">
        <ele>3.0</ele>
        <time>2019-08-15T14:53:28Z</time>
      </trkpt>
      <trkpt lat="41.2610580" lon="-8.7244270">
        <ele>2.9</ele>
        <time>2019-08-15T14:53:36Z</time>
      </trkpt>
      <trkpt lat="41.2611680" lon="-8.7244280">
        <ele>3.0</ele>
        <time>2019-08-15T14:53:41Z</time>
      </trkpt>
      <trkpt lat="41.2612610" lon="-8.7244160">
        <ele>3.4</ele>
        <time>2019-08-15T14:53:46Z</time>
      </trkpt>
      <trkpt lat="41.2614370" lon="-8.7244900">
        <ele>3.6</ele>
        <time>2019-08-15T14:53:51Z</time>
      </trkpt>
      <trkpt lat="41.2614780" lon="-8.7245090">
        <ele>3.8</ele>
        <time>2019-08-15T14:53:52Z</time>
      </trkpt>
      <trkpt lat="41.2618280" lon="-8.7246800">
        <ele>7.0</ele>
        <time>2019-08-15T14:54:01Z</time>
      </trkpt>
      <trkpt lat="41.2621540" lon="-8.7248240">
        <ele>7.7</ele>
        <time>2019-08-15T14:54:09Z</time>
      </trkpt>
      <trkpt lat="41.2621910" lon="-8.7248510">
        <ele>7.7</ele>
        <time>2019-08-15T14:54:10Z</time>
      </trkpt>
      <trkpt lat="41.2623660" lon="-8.7249420">
        <ele>7.9</ele>
        <time>2019-08-15T14:54:14Z</time>
      </trkpt>
      <trkpt lat="41.2628110" lon="-8.7252080">
        <ele>7.9</ele>
        <time>2019-08-15T14:54:24Z</time>
      </trkpt>
      <trkpt lat="41.2629050" lon="-8.7252580">
        <ele>7.8</ele>
        <time>2019-08-15T14:54:26Z</time>
      </trkpt>
      <trkpt lat="41.2631100" lon="-8.7253490">
        <ele>7.4</ele>
        <time>2019-08-15T14:54:30Z</time>
      </trkpt>
      <trkpt lat="41.2635450" lon="-8.7255860">
        <ele>6.9</ele>
        <time>2019-08-15T14:54:39Z</time>
      </trkpt>
      <trkpt lat="41.2639340" lon="-8.7257810">
        <ele>6.5</ele>
        <time>2019-08-15T14:54:47Z</time>
      </trkpt>
      <trkpt lat="41.2644000" lon="-8.7260170">
        <ele>6.7</ele>
        <time>2019-08-15T14:54:57Z</time>
      </trkpt>
      <trkpt lat="41.2648400" lon="-8.7262340">
        <ele>7.1</ele>
        <time>2019-08-15T14:55:07Z</time>
      </trkpt>
      <trkpt lat="41.2651190" lon="-8.7264160">
        <ele>7.1</ele>
        <time>2019-08-15T14:55:14Z</time>
      </trkpt>
      <trkpt lat="41.2651570" lon="-8.7264380">
        <ele>6.9</ele>
        <time>2019-08-15T14:55:15Z</time>
      </trkpt>
      <trkpt lat="41.2654560" lon="-8.7265750">
        <ele>5.9</ele>
        <time>2019-08-15T14:55:22Z</time>
      </trkpt>
      <trkpt lat="41.2654970" lon="-8.7266000">
        <ele>6.0</ele>
        <time>2019-08-15T14:55:23Z</time>
      </trkpt>
      <trkpt lat="41.2656800" lon="-8.7267190">
        <ele>6.0</ele>
        <time>2019-08-15T14:55:28Z</time>
      </trkpt>
      <trkpt lat="41.2657600" lon="-8.7267210">
        <ele>5.9</ele>
        <time>2019-08-15T14:55:30Z</time>
      </trkpt>
      <trkpt lat="41.2659400" lon="-8.7266930">
        <ele>5.6</ele>
        <time>2019-08-15T14:55:34Z</time>
      </trkpt>
      <trkpt lat="41.2659860" lon="-8.7266830">
        <ele>5.5</ele>
        <time>2019-08-15T14:55:35Z</time>
      </trkpt>
      <trkpt lat="41.2660310" lon="-8.7266700">
        <ele>5.5</ele>
        <time>2019-08-15T14:55:36Z</time>
      </trkpt>
      <trkpt lat="41.2660740" lon="-8.7266620">
        <ele>5.4</ele>
        <time>2019-08-15T14:55:37Z</time>
      </trkpt>
      <trkpt lat="41.2661180" lon="-8.7266560">
        <ele>5.4</ele>
        <time>2019-08-15T14:55:38Z</time>
      </trkpt>
      <trkpt lat="41.2663970" lon="-8.7266010">
        <ele>5.2</ele>
        <time>2019-08-15T14:55:45Z</time>
      </trkpt>
      <trkpt lat="41.2666540" lon="-8.7265460">
        <ele>5.0</ele>
        <time>2019-08-15T14:55:53Z</time>
      </trkpt>
      <trkpt lat="41.2667120" lon="-8.7264620">
        <ele>5.1</ele>
        <time>2019-08-15T14:55:58Z</time>
      </trkpt>
      <trkpt lat="41.2668510" lon="-8.7263880">
        <ele>5.3</ele>
        <time>2019-08-15T14:56:03Z</time>
      </trkpt>
      <trkpt lat="41.2670880" lon="-8.7263630">
        <ele>5.6</ele>
        <time>2019-08-15T14:56:09Z</time>
      </trkpt>
      <trkpt lat="41.2671240" lon="-8.7263680">
        <ele>5.7</ele>
        <time>2019-08-15T14:56:10Z</time>
      </trkpt>
      <trkpt lat="41.2672320" lon="-8.7263620">
        <ele>5.8</ele>
        <time>2019-08-15T14:56:13Z</time>
      </trkpt>
      <trkpt lat="41.2673390" lon="-8.7263500">
        <ele>5.9</ele>
        <time>2019-08-15T14:56:18Z</time>
      </trkpt>
      <trkpt lat="41.2674380" lon="-8.7263640">
        <ele>6.0</ele>
        <time>2019-08-15T14:56:24Z</time>
      </trkpt>
      <trkpt lat="41.2674990" lon="-8.7263500">
        <ele>6.0</ele>
        <time>2019-08-15T14:56:28Z</time>
      </trkpt>
      <trkpt lat="41.2675180" lon="-8.7263490">
        <ele>6.0</ele>
        <time>2019-08-15T14:56:30Z</time>
      </trkpt>
      <trkpt lat="41.2676110" lon="-8.7263460">
        <ele>6.2</ele>
        <time>2019-08-15T14:56:34Z</time>
      </trkpt>
      <trkpt lat="41.2678660" lon="-8.7262810">
        <ele>6.6</ele>
        <time>2019-08-15T14:56:39Z</time>
      </trkpt>
      <trkpt lat="41.2682610" lon="-8.7262350">
        <ele>6.7</ele>
        <time>2019-08-15T14:56:47Z</time>
      </trkpt>
      <trkpt lat="41.2685860" lon="-8.7262010">
        <ele>6.2</ele>
        <time>2019-08-15T14:56:54Z</time>
      </trkpt>
      <trkpt lat="41.2687550" lon="-8.7261320">
        <ele>6.2</ele>
        <time>2019-08-15T14:56:59Z</time>
      </trkpt>
      <trkpt lat="41.2687760" lon="-8.7261200">
        <ele>6.3</ele>
        <time>2019-08-15T14:57:00Z</time>
      </trkpt>
      <trkpt lat="41.2687970" lon="-8.7261130">
        <ele>6.3</ele>
        <time>2019-08-15T14:57:01Z</time>
      </trkpt>
      <trkpt lat="41.2688150" lon="-8.7261080">
        <ele>6.4</ele>
        <time>2019-08-15T14:57:02Z</time>
      </trkpt>
      <trkpt lat="41.2688360" lon="-8.7261020">
        <ele>6.3</ele>
        <time>2019-08-15T14:57:03Z</time>
      </trkpt>
      <trkpt lat="41.2688570" lon="-8.7260970">
        <ele>6.2</ele>
        <time>2019-08-15T14:57:04Z</time>
      </trkpt>
      <trkpt lat="41.2688950" lon="-8.7260940">
        <ele>6.0</ele>
        <time>2019-08-15T14:57:06Z</time>
      </trkpt>
      <trkpt lat="41.2690420" lon="-8.7260810">
        <ele>5.5</ele>
        <time>2019-08-15T14:57:12Z</time>
      </trkpt>
      <trkpt lat="41.2693220" lon="-8.7260730">
        <ele>4.8</ele>
        <time>2019-08-15T14:57:20Z</time>
      </trkpt>
      <trkpt lat="41.2695150" lon="-8.7260620">
        <ele>4.4</ele>
        <time>2019-08-15T14:57:25Z</time>
      </trkpt>
      <trkpt lat="41.2695580" lon="-8.7260580">
        <ele>4.4</ele>
        <time>2019-08-15T14:57:26Z</time>
      </trkpt>
      <trkpt lat="41.2697070" lon="-8.7260480">
        <ele>4.1</ele>
        <time>2019-08-15T14:57:29Z</time>
      </trkpt>
      <trkpt lat="41.2697550" lon="-8.7260450">
        <ele>4.0</ele>
        <time>2019-08-15T14:57:30Z</time>
      </trkpt>
      <trkpt lat="41.2698020" lon="-8.7260420">
        <ele>3.9</ele>
        <time>2019-08-15T14:57:31Z</time>
      </trkpt>
      <trkpt lat="41.2698510" lon="-8.7260360">
        <ele>3.7</ele>
        <time>2019-08-15T14:57:32Z</time>
      </trkpt>
      <trkpt lat="41.2698960" lon="-8.7260260">
        <ele>3.6</ele>
        <time>2019-08-15T14:57:33Z</time>
      </trkpt>
      <trkpt lat="41.2700850" lon="-8.7259870">
        <ele>3.2</ele>
        <time>2019-08-15T14:57:38Z</time>
      </trkpt>
      <trkpt lat="41.2701210" lon="-8.7259920">
        <ele>3.0</ele>
        <time>2019-08-15T14:57:39Z</time>
      </trkpt>
      <trkpt lat="41.2701630" lon="-8.7260140">
        <ele>2.8</ele>
        <time>2019-08-15T14:57:40Z</time>
      </trkpt>
      <trkpt lat="41.2702100" lon="-8.7260430">
        <ele>2.6</ele>
        <time>2019-08-15T14:57:41Z</time>
      </trkpt>
      <trkpt lat="41.2702550" lon="-8.7260750">
        <ele>2.5</ele>
        <time>2019-08-15T14:57:42Z</time>
      </trkpt>
      <trkpt lat="41.2702950" lon="-8.7261060">
        <ele>2.5</ele>
        <time>2019-08-15T14:57:43Z</time>
      </trkpt>
      <trkpt lat="41.2705010" lon="-8.7262290">
        <ele>2.4</ele>
        <time>2019-08-15T14:57:48Z</time>
      </trkpt>
      <trkpt lat="41.2705400" lon="-8.7262540">
        <ele>2.4</ele>
        <time>2019-08-15T14:57:49Z</time>
      </trkpt>
      <trkpt lat="41.2705830" lon="-8.7262780">
        <ele>2.4</ele>
        <time>2019-08-15T14:57:50Z</time>
      </trkpt>
      <trkpt lat="41.2706270" lon="-8.7263010">
        <ele>2.4</ele>
        <time>2019-08-15T14:57:51Z</time>
      </trkpt>
      <trkpt lat="41.2706700" lon="-8.7263280">
        <ele>2.4</ele>
        <time>2019-08-15T14:57:52Z</time>
      </trkpt>
      <trkpt lat="41.2707140" lon="-8.7263580">
        <ele>2.4</ele>
        <time>2019-08-15T14:57:53Z</time>
      </trkpt>
      <trkpt lat="41.2709740" lon="-8.7265460">
        <ele>3.4</ele>
        <time>2019-08-15T14:57:59Z</time>
      </trkpt>
      <trkpt lat="41.2711630" lon="-8.7267080">
        <ele>4.1</ele>
        <time>2019-08-15T14:58:05Z</time>
      </trkpt>
      <trkpt lat="41.2711960" lon="-8.7267330">
        <ele>4.1</ele>
        <time>2019-08-15T14:58:06Z</time>
      </trkpt>
      <trkpt lat="41.2712300" lon="-8.7267660">
        <ele>4.0</ele>
        <time>2019-08-15T14:58:07Z</time>
      </trkpt>
      <trkpt lat="41.2712660" lon="-8.7267960">
        <ele>3.9</ele>
        <time>2019-08-15T14:58:08Z</time>
      </trkpt>
      <trkpt lat="41.2713010" lon="-8.7268260">
        <ele>3.8</ele>
        <time>2019-08-15T14:58:09Z</time>
      </trkpt>
      <trkpt lat="41.2714090" lon="-8.7269140">
        <ele>3.4</ele>
        <time>2019-08-15T14:58:12Z</time>
      </trkpt>
      <trkpt lat="41.2716770" lon="-8.7271340">
        <ele>2.5</ele>
        <time>2019-08-15T14:58:19Z</time>
      </trkpt>
      <trkpt lat="41.2718080" lon="-8.7272420">
        <ele>2.2</ele>
        <time>2019-08-15T14:58:24Z</time>
      </trkpt>
      <trkpt lat="41.2719540" lon="-8.7272900">
        <ele>1.8</ele>
        <time>2019-08-15T14:58:32Z</time>
      </trkpt>
      <trkpt lat="41.2720530" lon="-8.7273280">
        <ele>1.6</ele>
        <time>2019-08-15T14:58:38Z</time>
      </trkpt>
      <trkpt lat="41.2722370" lon="-8.7274190">
        <ele>1.2</ele>
        <time>2019-08-15T14:58:46Z</time>
      </trkpt>
      <trkpt lat="41.2724620" lon="-8.7274750">
        <ele>1.1</ele>
        <time>2019-08-15T14:58:54Z</time>
      </trkpt>
      <trkpt lat="41.2727550" lon="-8.7275130">
        <ele>1.3</ele>
        <time>2019-08-15T14:59:03Z</time>
      </trkpt>
      <trkpt lat="41.2730830" lon="-8.7275700">
        <ele>1.9</ele>
        <time>2019-08-15T14:59:12Z</time>
      </trkpt>
      <trkpt lat="41.2733760" lon="-8.7275900">
        <ele>3.4</ele>
        <time>2019-08-15T14:59:21Z</time>
      </trkpt>
      <trkpt lat="41.2733910" lon="-8.7275930">
        <ele>3.4</ele>
        <time>2019-08-15T14:59:22Z</time>
      </trkpt>
      <trkpt lat="41.2734040" lon="-8.7275980">
        <ele>3.4</ele>
        <time>2019-08-15T14:59:23Z</time>
      </trkpt>
      <trkpt lat="41.2734190" lon="-8.7276030">
        <ele>3.5</ele>
        <time>2019-08-15T14:59:24Z</time>
      </trkpt>
      <trkpt lat="41.2734350" lon="-8.7276020">
        <ele>3.5</ele>
        <time>2019-08-15T14:59:25Z</time>
      </trkpt>
      <trkpt lat="41.2734570" lon="-8.7276010">
        <ele>3.5</ele>
        <time>2019-08-15T14:59:26Z</time>
      </trkpt>
      <trkpt lat="41.2736290" lon="-8.7276030">
        <ele>4.1</ele>
        <time>2019-08-15T14:59:32Z</time>
      </trkpt>
      <trkpt lat="41.2738330" lon="-8.7276330">
        <ele>5.0</ele>
        <time>2019-08-15T14:59:39Z</time>
      </trkpt>
      <trkpt lat="41.2740920" lon="-8.7276420">
        <ele>5.8</ele>
        <time>2019-08-15T14:59:48Z</time>
      </trkpt>
      <trkpt lat="41.2742780" lon="-8.7276490">
        <ele>6.3</ele>
        <time>2019-08-15T14:59:54Z</time>
      </trkpt>
      <trkpt lat="41.2743110" lon="-8.7276520">
        <ele>6.4</ele>
        <time>2019-08-15T14:59:55Z</time>
      </trkpt>
      <trkpt lat="41.2743430" lon="-8.7276560">
        <ele>6.5</ele>
        <time>2019-08-15T14:59:56Z</time>
      </trkpt>
      <trkpt lat="41.2743750" lon="-8.7276580">
        <ele>6.7</ele>
        <time>2019-08-15T14:59:57Z</time>
      </trkpt>
      <trkpt lat="41.2744060" lon="-8.7276610">
        <ele>6.8</ele>
        <time>2019-08-15T14:59:58Z</time>
      </trkpt>
      <trkpt lat="41.2745270" lon="-8.7276610">
        <ele>7.3</ele>
        <time>2019-08-15T15:00:02Z</time>
      </trkpt>
      <trkpt lat="41.2746850" lon="-8.7276250">
        <ele>8.1</ele>
        <time>2019-08-15T15:00:09Z</time>
      </trkpt>
      <trkpt lat="41.2747740" lon="-8.7274520">
        <ele>9.8</ele>
        <time>2019-08-15T15:00:15Z</time>
      </trkpt>
      <trkpt lat="41.2748170" lon="-8.7273100">
        <ele>10.8</ele>
        <time>2019-08-15T15:00:19Z</time>
      </trkpt>
      <trkpt lat="41.2748350" lon="-8.7272420">
        <ele>11.3</ele>
        <time>2019-08-15T15:00:21Z</time>
      </trkpt>
      <trkpt lat="41.2748990" lon="-8.7270520">
        <ele>12.4</ele>
        <time>2019-08-15T15:00:27Z</time>
      </trkpt>
      <trkpt lat="41.2749120" lon="-8.7270200">
        <ele>12.5</ele>
        <time>2019-08-15T15:00:28Z</time>
      </trkpt>
      <trkpt lat="41.2749240" lon="-8.7269870">
        <ele>12.6</ele>
        <time>2019-08-15T15:00:29Z</time>
      </trkpt>
      <trkpt lat="41.2749340" lon="-8.7269580">
        <ele>12.7</ele>
        <time>2019-08-15T15:00:30Z</time>
      </trkpt>
      <trkpt lat="41.2749440" lon="-8.7269300">
        <ele>12.7</ele>
        <time>2019-08-15T15:00:31Z</time>
      </trkpt>
      <trkpt lat="41.2750200" lon="-8.7267830">
        <ele>12.9</ele>
        <time>2019-08-15T15:00:36Z</time>
      </trkpt>
      <trkpt lat="41.2751230" lon="-8.7264780">
        <ele>13.5</ele>
        <time>2019-08-15T15:00:44Z</time>
      </trkpt>
      <trkpt lat="41.2751470" lon="-8.7263960">
        <ele>13.8</ele>
        <time>2019-08-15T15:00:46Z</time>
      </trkpt>
      <trkpt lat="41.2751570" lon="-8.7263630">
        <ele>13.9</ele>
        <time>2019-08-15T15:00:47Z</time>
      </trkpt>
      <trkpt lat="41.2751650" lon="-8.7263400">
        <ele>13.9</ele>
        <time>2019-08-15T15:00:48Z</time>
      </trkpt>
      <trkpt lat="41.2751680" lon="-8.7263170">
        <ele>14.0</ele>
        <time>2019-08-15T15:00:49Z</time>
      </trkpt>
      <trkpt lat="41.2751700" lon="-8.7263120">
        <ele>14.0</ele>
        <time>2019-08-15T15:00:50Z</time>
      </trkpt>
      <trkpt lat="41.2751700" lon="-8.7263130">
        <ele>14.0</ele>
        <time>2019-08-15T15:01:21Z</time>
      </trkpt>
      <trkpt lat="41.2751840" lon="-8.7262860">
        <ele>14.1</ele>
        <time>2019-08-15T15:01:22Z</time>
      </trkpt>
      <trkpt lat="41.2752870" lon="-8.7260220">
        <ele>14.7</ele>
        <time>2019-08-15T15:01:28Z</time>
      </trkpt>
      <trkpt lat="41.2753360" lon="-8.7258760">
        <ele>14.9</ele>
        <time>2019-08-15T15:01:31Z</time>
      </trkpt>
      <trkpt lat="41.2753570" lon="-8.7258240">
        <ele>14.9</ele>
        <time>2019-08-15T15:01:32Z</time>
      </trkpt>
      <trkpt lat="41.2753750" lon="-8.7257740">
        <ele>14.9</ele>
        <time>2019-08-15T15:01:33Z</time>
      </trkpt>
      <trkpt lat="41.2753930" lon="-8.7257280">
        <ele>15.0</ele>
        <time>2019-08-15T15:01:34Z</time>
      </trkpt>
      <trkpt lat="41.2754130" lon="-8.7256750">
        <ele>15.1</ele>
        <time>2019-08-15T15:01:35Z</time>
      </trkpt>
      <trkpt lat="41.2755810" lon="-8.7252280">
        <ele>16.5</ele>
        <time>2019-08-15T15:01:43Z</time>
      </trkpt>
      <trkpt lat="41.2756040" lon="-8.7251710">
        <ele>16.7</ele>
        <time>2019-08-15T15:01:44Z</time>
      </trkpt>
      <trkpt lat="41.2756250" lon="-8.7251130">
        <ele>16.9</ele>
        <time>2019-08-15T15:01:45Z</time>
      </trkpt>
      <trkpt lat="41.2756480" lon="-8.7250520">
        <ele>17.1</ele>
        <time>2019-08-15T15:01:46Z</time>
      </trkpt>
      <trkpt lat="41.2756750" lon="-8.7249900">
        <ele>17.4</ele>
        <time>2019-08-15T15:01:47Z</time>
      </trkpt>
      <trkpt lat="41.2756970" lon="-8.7249290">
        <ele>17.6</ele>
        <time>2019-08-15T15:01:48Z</time>
      </trkpt>
      <trkpt lat="41.2758090" lon="-8.7246580">
        <ele>18.6</ele>
        <time>2019-08-15T15:01:53Z</time>
      </trkpt>
      <trkpt lat="41.2759510" lon="-8.7244100">
        <ele>18.9</ele>
        <time>2019-08-15T15:01:59Z</time>
      </trkpt>
      <trkpt lat="41.2759810" lon="-8.7243970">
        <ele>18.9</ele>
        <time>2019-08-15T15:02:00Z</time>
      </trkpt>
      <trkpt lat="41.2760250" lon="-8.7244010">
        <ele>18.9</ele>
        <time>2019-08-15T15:02:02Z</time>
      </trkpt>
      <trkpt lat="41.2760730" lon="-8.7244340">
        <ele>18.8</ele>
        <time>2019-08-15T15:02:04Z</time>
      </trkpt>
      <trkpt lat="41.2761210" lon="-8.7244640">
        <ele>18.8</ele>
        <time>2019-08-15T15:02:06Z</time>
      </trkpt>
      <trkpt lat="41.2761410" lon="-8.7244660">
        <ele>18.8</ele>
        <time>2019-08-15T15:02:07Z</time>
      </trkpt>
      <trkpt lat="41.2761450" lon="-8.7244730">
        <ele>18.8</ele>
        <time>2019-08-15T15:02:08Z</time>
      </trkpt>
      <trkpt lat="41.2761400" lon="-8.7244820">
        <ele>18.8</ele>
        <time>2019-08-15T15:02:19Z</time>
      </trkpt>
      <trkpt lat="41.2761150" lon="-8.7244790">
        <ele>18.8</ele>
        <time>2019-08-15T15:02:20Z</time>
      </trkpt>
      <trkpt lat="41.2760930" lon="-8.7244760">
        <ele>18.8</ele>
        <time>2019-08-15T15:02:21Z</time>
      </trkpt>
      <trkpt lat="41.2759620" lon="-8.7243900">
        <ele>18.9</ele>
        <time>2019-08-15T15:02:26Z</time>
      </trkpt>
      <trkpt lat="41.2760120" lon="-8.7240940">
        <ele>20.1</ele>
        <time>2019-08-15T15:02:32Z</time>
      </trkpt>
      <trkpt lat="41.2760780" lon="-8.7239340">
        <ele>20.9</ele>
        <time>2019-08-15T15:02:36Z</time>
      </trkpt>
      <trkpt lat="41.2761060" lon="-8.7238510">
        <ele>21.2</ele>
        <time>2019-08-15T15:02:38Z</time>
      </trkpt>
      <trkpt lat="41.2762190" lon="-8.7235410">
        <ele>23.5</ele>
        <time>2019-08-15T15:02:46Z</time>
      </trkpt>
      <trkpt lat="41.2762740" lon="-8.7234070">
        <ele>24.7</ele>
        <time>2019-08-15T15:02:51Z</time>
      </trkpt>
      <trkpt lat="41.2762880" lon="-8.7233900">
        <ele>24.7</ele>
        <time>2019-08-15T15:02:52Z</time>
      </trkpt>
      <trkpt lat="41.2763120" lon="-8.7233950">
        <ele>24.7</ele>
        <time>2019-08-15T15:02:53Z</time>
      </trkpt>
      <trkpt lat="41.2763360" lon="-8.7234020">
        <ele>24.8</ele>
        <time>2019-08-15T15:02:54Z</time>
      </trkpt>
      <trkpt lat="41.2763600" lon="-8.7234170">
        <ele>24.8</ele>
        <time>2019-08-15T15:02:55Z</time>
      </trkpt>
      <trkpt lat="41.2765490" lon="-8.7234940">
        <ele>25.3</ele>
        <time>2019-08-15T15:03:01Z</time>
      </trkpt>
      <trkpt lat="41.2767860" lon="-8.7235810">
        <ele>25.7</ele>
        <time>2019-08-15T15:03:08Z</time>
      </trkpt>
      <trkpt lat="41.2771510" lon="-8.7237560">
        <ele>25.7</ele>
        <time>2019-08-15T15:03:18Z</time>
      </trkpt>
      <trkpt lat="41.2775390" lon="-8.7239390">
        <ele>25.0</ele>
        <time>2019-08-15T15:03:28Z</time>
      </trkpt>
      <trkpt lat="41.2779000" lon="-8.7241530">
        <ele>24.1</ele>
        <time>2019-08-15T15:03:38Z</time>
      </trkpt>
      <trkpt lat="41.2781870" lon="-8.7242790">
        <ele>23.5</ele>
        <time>2019-08-15T15:03:46Z</time>
      </trkpt>
      <trkpt lat="41.2785100" lon="-8.7244450">
        <ele>23.4</ele>
        <time>2019-08-15T15:03:55Z</time>
      </trkpt>
      <trkpt lat="41.2787940" lon="-8.7245730">
        <ele>23.6</ele>
        <time>2019-08-15T15:04:03Z</time>
      </trkpt>
      <trkpt lat="41.2790560" lon="-8.7246750">
        <ele>24.3</ele>
        <time>2019-08-15T15:04:10Z</time>
      </trkpt>
      <trkpt lat="41.2793960" lon="-8.7247620">
        <ele>25.2</ele>
        <time>2019-08-15T15:04:19Z</time>
      </trkpt>
      <trkpt lat="41.2794700" lon="-8.7247870">
        <ele>25.3</ele>
        <time>2019-08-15T15:04:21Z</time>
      </trkpt>
      <trkpt lat="41.2795060" lon="-8.7248020">
        <ele>25.3</ele>
        <time>2019-08-15T15:04:22Z</time>
      </trkpt>
      <trkpt lat="41.2795410" lon="-8.7248170">
        <ele>25.4</ele>
        <time>2019-08-15T15:04:23Z</time>
      </trkpt>
      <trkpt lat="41.2795760" lon="-8.7248340">
        <ele>25.4</ele>
        <time>2019-08-15T15:04:24Z</time>
      </trkpt>
      <trkpt lat="41.2796120" lon="-8.7248510">
        <ele>25.4</ele>
        <time>2019-08-15T15:04:25Z</time>
      </trkpt>
      <trkpt lat="41.2796890" lon="-8.7248830">
        <ele>25.4</ele>
        <time>2019-08-15T15:04:27Z</time>
      </trkpt>
      <trkpt lat="41.2800660" lon="-8.7250790">
        <ele>24.9</ele>
        <time>2019-08-15T15:04:36Z</time>
      </trkpt>
      <trkpt lat="41.2801130" lon="-8.7250940">
        <ele>24.9</ele>
        <time>2019-08-15T15:04:37Z</time>
      </trkpt>
      <trkpt lat="41.2801540" lon="-8.7251080">
        <ele>24.8</ele>
        <time>2019-08-15T15:04:38Z</time>
      </trkpt>
      <trkpt lat="41.2802010" lon="-8.7251220">
        <ele>24.7</ele>
        <time>2019-08-15T15:04:39Z</time>
      </trkpt>
      <trkpt lat="41.2802460" lon="-8.7251350">
        <ele>24.6</ele>
        <time>2019-08-15T15:04:40Z</time>
      </trkpt>
      <trkpt lat="41.2802910" lon="-8.7251480">
        <ele>24.5</ele>
        <time>2019-08-15T15:04:41Z</time>
      </trkpt>
      <trkpt lat="41.2804770" lon="-8.7251880">
        <ele>24.3</ele>
        <time>2019-08-15T15:04:45Z</time>
      </trkpt>
      <trkpt lat="41.2810150" lon="-8.7254240">
        <ele>24.1</ele>
        <time>2019-08-15T15:04:57Z</time>
      </trkpt>
      <trkpt lat="41.2810620" lon="-8.7254270">
        <ele>24.1</ele>
        <time>2019-08-15T15:04:58Z</time>
      </trkpt>
      <trkpt lat="41.2812450" lon="-8.7254330">
        <ele>24.0</ele>
        <time>2019-08-15T15:05:02Z</time>
      </trkpt>
      <trkpt lat="41.2816750" lon="-8.7254950">
        <ele>24.1</ele>
        <time>2019-08-15T15:05:12Z</time>
      </trkpt>
      <trkpt lat="41.2820310" lon="-8.7255810">
        <ele>24.7</ele>
        <time>2019-08-15T15:05:21Z</time>
      </trkpt>
      <trkpt lat="41.2822750" lon="-8.7256500">
        <ele>25.2</ele>
        <time>2019-08-15T15:05:28Z</time>
      </trkpt>
      <trkpt lat="41.2822830" lon="-8.7256950">
        <ele>25.1</ele>
        <time>2019-08-15T15:05:29Z</time>
      </trkpt>
      <trkpt lat="41.2822920" lon="-8.7257930">
        <ele>25.0</ele>
        <time>2019-08-15T15:05:31Z</time>
      </trkpt>
      <trkpt lat="41.2823240" lon="-8.7261510">
        <ele>24.5</ele>
        <time>2019-08-15T15:05:38Z</time>
      </trkpt>
      <trkpt lat="41.2823580" lon="-8.7264310">
        <ele>24.0</ele>
        <time>2019-08-15T15:05:43Z</time>
      </trkpt>
      <trkpt lat="41.2824310" lon="-8.7266640">
        <ele>23.4</ele>
        <time>2019-08-15T15:05:49Z</time>
      </trkpt>
      <trkpt lat="41.2825620" lon="-8.7268160">
        <ele>22.8</ele>
        <time>2019-08-15T15:05:54Z</time>
      </trkpt>
      <trkpt lat="41.2826760" lon="-8.7269760">
        <ele>22.0</ele>
        <time>2019-08-15T15:05:59Z</time>
      </trkpt>
      <trkpt lat="41.2827310" lon="-8.7270560">
        <ele>21.4</ele>
        <time>2019-08-15T15:06:01Z</time>
      </trkpt>
      <trkpt lat="41.2827690" lon="-8.7270790">
        <ele>21.2</ele>
        <time>2019-08-15T15:06:02Z</time>
      </trkpt>
      <trkpt lat="41.2827990" lon="-8.7271130">
        <ele>21.0</ele>
        <time>2019-08-15T15:06:03Z</time>
      </trkpt>
      <trkpt lat="41.2828260" lon="-8.7271620">
        <ele>20.7</ele>
        <time>2019-08-15T15:06:04Z</time>
      </trkpt>
      <trkpt lat="41.2828480" lon="-8.7272260">
        <ele>20.4</ele>
        <time>2019-08-15T15:06:05Z</time>
      </trkpt>
      <trkpt lat="41.2828650" lon="-8.7272820">
        <ele>20.1</ele>
        <time>2019-08-15T15:06:06Z</time>
      </trkpt>
      <trkpt lat="41.2828190" lon="-8.7275250">
        <ele>19.0</ele>
        <time>2019-08-15T15:06:09Z</time>
      </trkpt>
      <trkpt lat="41.2827980" lon="-8.7276030">
        <ele>18.6</ele>
        <time>2019-08-15T15:06:10Z</time>
      </trkpt>
      <trkpt lat="41.2827840" lon="-8.7278980">
        <ele>16.8</ele>
        <time>2019-08-15T15:06:14Z</time>
      </trkpt>
      <trkpt lat="41.2827900" lon="-8.7279750">
        <ele>16.5</ele>
        <time>2019-08-15T15:06:15Z</time>
      </trkpt>
      <trkpt lat="41.2828230" lon="-8.7280470">
        <ele>16.2</ele>
        <time>2019-08-15T15:06:16Z</time>
      </trkpt>
      <trkpt lat="41.2828600" lon="-8.7281130">
        <ele>15.9</ele>
        <time>2019-08-15T15:06:17Z</time>
      </trkpt>
      <trkpt lat="41.2829020" lon="-8.7281760">
        <ele>15.6</ele>
        <time>2019-08-15T15:06:18Z</time>
      </trkpt>
      <trkpt lat="41.2830950" lon="-8.7283770">
        <ele>14.2</ele>
        <time>2019-08-15T15:06:22Z</time>
      </trkpt>
      <trkpt lat="41.2831770" lon="-8.7284480">
        <ele>13.6</ele>
        <time>2019-08-15T15:06:24Z</time>
      </trkpt>
      <trkpt lat="41.2832270" lon="-8.7285020">
        <ele>13.3</ele>
        <time>2019-08-15T15:06:25Z</time>
      </trkpt>
      <trkpt lat="41.2833190" lon="-8.7286120">
        <ele>12.4</ele>
        <time>2019-08-15T15:06:27Z</time>
      </trkpt>
      <trkpt lat="41.2833560" lon="-8.7286750">
        <ele>11.9</ele>
        <time>2019-08-15T15:06:28Z</time>
      </trkpt>
      <trkpt lat="41.2833870" lon="-8.7287460">
        <ele>11.5</ele>
        <time>2019-08-15T15:06:29Z</time>
      </trkpt>
      <trkpt lat="41.2834100" lon="-8.7288200">
        <ele>11.1</ele>
        <time>2019-08-15T15:06:30Z</time>
      </trkpt>
      <trkpt lat="41.2834240" lon="-8.7289000">
        <ele>10.6</ele>
        <time>2019-08-15T15:06:31Z</time>
      </trkpt>
      <trkpt lat="41.2834310" lon="-8.7289820">
        <ele>10.2</ele>
        <time>2019-08-15T15:06:32Z</time>
      </trkpt>
      <trkpt lat="41.2834340" lon="-8.7290710">
        <ele>9.6</ele>
        <time>2019-08-15T15:06:33Z</time>
      </trkpt>
      <trkpt lat="41.2834330" lon="-8.7291540">
        <ele>9.1</ele>
        <time>2019-08-15T15:06:34Z</time>
      </trkpt>
      <trkpt lat="41.2834350" lon="-8.7292380">
        <ele>8.7</ele>
        <time>2019-08-15T15:06:35Z</time>
      </trkpt>
      <trkpt lat="41.2834360" lon="-8.7293190">
        <ele>8.1</ele>
        <time>2019-08-15T15:06:36Z</time>
      </trkpt>
      <trkpt lat="41.2834280" lon="-8.7293980">
        <ele>7.7</ele>
        <time>2019-08-15T15:06:37Z</time>
      </trkpt>
      <trkpt lat="41.2834150" lon="-8.7294810">
        <ele>7.4</ele>
        <time>2019-08-15T15:06:38Z</time>
      </trkpt>
      <trkpt lat="41.2833980" lon="-8.7295610">
        <ele>7.0</ele>
        <time>2019-08-15T15:06:39Z</time>
      </trkpt>
      <trkpt lat="41.2833900" lon="-8.7296360">
        <ele>6.6</ele>
        <time>2019-08-15T15:06:40Z</time>
      </trkpt>
      <trkpt lat="41.2833860" lon="-8.7297860">
        <ele>6.0</ele>
        <time>2019-08-15T15:06:42Z</time>
      </trkpt>
      <trkpt lat="41.2833860" lon="-8.7299260">
        <ele>5.6</ele>
        <time>2019-08-15T15:06:44Z</time>
      </trkpt>
      <trkpt lat="41.2833460" lon="-8.7302890">
        <ele>5.3</ele>
        <time>2019-08-15T15:06:49Z</time>
      </trkpt>
      <trkpt lat="41.2833400" lon="-8.7303560">
        <ele>5.2</ele>
        <time>2019-08-15T15:06:50Z</time>
      </trkpt>
      <trkpt lat="41.2833340" lon="-8.7304180">
        <ele>5.0</ele>
        <time>2019-08-15T15:06:51Z</time>
      </trkpt>
      <trkpt lat="41.2833300" lon="-8.7304680">
        <ele>4.7</ele>
        <time>2019-08-15T15:06:52Z</time>
      </trkpt>
      <trkpt lat="41.2833280" lon="-8.7305110">
        <ele>4.5</ele>
        <time>2019-08-15T15:06:53Z</time>
      </trkpt>
      <trkpt lat="41.2833260" lon="-8.7305840">
        <ele>4.1</ele>
        <time>2019-08-15T15:06:55Z</time>
      </trkpt>
      <trkpt lat="41.2833570" lon="-8.7306930">
        <ele>3.5</ele>
        <time>2019-08-15T15:07:00Z</time>
      </trkpt>
      <trkpt lat="41.2833540" lon="-8.7307100">
        <ele>3.5</ele>
        <time>2019-08-15T15:07:04Z</time>
      </trkpt>
      <trkpt lat="41.2833620" lon="-8.7307200">
        <ele>3.4</ele>
        <time>2019-08-15T15:09:38Z</time>
      </trkpt>
      <trkpt lat="41.2833890" lon="-8.7307180">
        <ele>3.4</ele>
        <time>2019-08-15T15:09:39Z</time>
      </trkpt>
      <trkpt lat="41.2834770" lon="-8.7307420">
        <ele>3.5</ele>
        <time>2019-08-15T15:09:42Z</time>
      </trkpt>
      <trkpt lat="41.2835510" lon="-8.7307370">
        <ele>3.6</ele>
        <time>2019-08-15T15:09:44Z</time>
      </trkpt>
      <trkpt lat="41.2835880" lon="-8.7307440">
        <ele>3.7</ele>
        <time>2019-08-15T15:09:45Z</time>
      </trkpt>
      <trkpt lat="41.2836220" lon="-8.7307480">
        <ele>3.8</ele>
        <time>2019-08-15T15:09:46Z</time>
      </trkpt>
      <trkpt lat="41.2836590" lon="-8.7307540">
        <ele>4.0</ele>
        <time>2019-08-15T15:09:47Z</time>
      </trkpt>
      <trkpt lat="41.2837000" lon="-8.7307620">
        <ele>4.1</ele>
        <time>2019-08-15T15:09:48Z</time>
      </trkpt>
      <trkpt lat="41.2838190" lon="-8.7308070">
        <ele>4.3</ele>
        <time>2019-08-15T15:09:51Z</time>
      </trkpt>
      <trkpt lat="41.2842200" lon="-8.7309610">
        <ele>4.7</ele>
        <time>2019-08-15T15:10:01Z</time>
      </trkpt>
      <trkpt lat="41.2844560" lon="-8.7310560">
        <ele>4.7</ele>
        <time>2019-08-15T15:10:09Z</time>
      </trkpt>
      <trkpt lat="41.2845520" lon="-8.7311320">
        <ele>4.2</ele>
        <time>2019-08-15T15:10:13Z</time>
      </trkpt>
      <trkpt lat="41.2845760" lon="-8.7311510">
        <ele>4.1</ele>
        <time>2019-08-15T15:10:14Z</time>
      </trkpt>
      <trkpt lat="41.2848390" lon="-8.7313140">
        <ele>2.7</ele>
        <time>2019-08-15T15:10:23Z</time>
      </trkpt>
      <trkpt lat="41.2850900" lon="-8.7313770">
        <ele>2.5</ele>
        <time>2019-08-15T15:10:30Z</time>
      </trkpt>
      <trkpt lat="41.2854200" lon="-8.7314190">
        <ele>2.4</ele>
        <time>2019-08-15T15:10:38Z</time>
      </trkpt>
      <trkpt lat="41.2858820" lon="-8.7314440">
        <ele>3.3</ele>
        <time>2019-08-15T15:10:48Z</time>
      </trkpt>
      <trkpt lat="41.2863390" lon="-8.7315210">
        <ele>3.0</ele>
        <time>2019-08-15T15:10:59Z</time>
      </trkpt>
      <trkpt lat="41.2864340" lon="-8.7315510">
        <ele>3.0</ele>
        <time>2019-08-15T15:11:03Z</time>
      </trkpt>
      <trkpt lat="41.2864340" lon="-8.7315490">
        <ele>3.0</ele>
        <time>2019-08-15T15:11:04Z</time>
      </trkpt>
      <trkpt lat="41.2864910" lon="-8.7315560">
        <ele>3.2</ele>
        <time>2019-08-15T15:11:09Z</time>
      </trkpt>
      <trkpt lat="41.2865220" lon="-8.7315630">
        <ele>3.3</ele>
        <time>2019-08-15T15:11:10Z</time>
      </trkpt>
      <trkpt lat="41.2867750" lon="-8.7316130">
        <ele>3.9</ele>
        <time>2019-08-15T15:11:17Z</time>
      </trkpt>
      <trkpt lat="41.2871110" lon="-8.7316850">
        <ele>5.0</ele>
        <time>2019-08-15T15:11:25Z</time>
      </trkpt>
      <trkpt lat="41.2875230" lon="-8.7317410">
        <ele>5.6</ele>
        <time>2019-08-15T15:11:35Z</time>
      </trkpt>
      <trkpt lat="41.2876370" lon="-8.7316290">
        <ele>5.6</ele>
        <time>2019-08-15T15:11:38Z</time>
      </trkpt>
      <trkpt lat="41.2877180" lon="-8.7316210">
        <ele>5.5</ele>
        <time>2019-08-15T15:11:40Z</time>
      </trkpt>
      <trkpt lat="41.2877590" lon="-8.7316540">
        <ele>5.5</ele>
        <time>2019-08-15T15:11:41Z</time>
      </trkpt>
      <trkpt lat="41.2878020" lon="-8.7316800">
        <ele>5.4</ele>
        <time>2019-08-15T15:11:42Z</time>
      </trkpt>
      <trkpt lat="41.2878410" lon="-8.7317020">
        <ele>5.3</ele>
        <time>2019-08-15T15:11:43Z</time>
      </trkpt>
      <trkpt lat="41.2878830" lon="-8.7317210">
        <ele>5.2</ele>
        <time>2019-08-15T15:11:44Z</time>
      </trkpt>
      <trkpt lat="41.2879240" lon="-8.7317430">
        <ele>5.1</ele>
        <time>2019-08-15T15:11:45Z</time>
      </trkpt>
      <trkpt lat="41.2879670" lon="-8.7317690">
        <ele>4.9</ele>
        <time>2019-08-15T15:11:46Z</time>
      </trkpt>
      <trkpt lat="41.2880840" lon="-8.7318400">
        <ele>4.6</ele>
        <time>2019-08-15T15:11:49Z</time>
      </trkpt>
      <trkpt lat="41.2883160" lon="-8.7319350">
        <ele>4.6</ele>
        <time>2019-08-15T15:11:56Z</time>
      </trkpt>
      <trkpt lat="41.2885030" lon="-8.7319550">
        <ele>4.7</ele>
        <time>2019-08-15T15:12:02Z</time>
      </trkpt>
      <trkpt lat="41.2885640" lon="-8.7319720">
        <ele>4.9</ele>
        <time>2019-08-15T15:12:04Z</time>
      </trkpt>
      <trkpt lat="41.2885960" lon="-8.7319780">
        <ele>4.9</ele>
        <time>2019-08-15T15:12:05Z</time>
      </trkpt>
      <trkpt lat="41.2886250" lon="-8.7319850">
        <ele>5.0</ele>
        <time>2019-08-15T15:12:06Z</time>
      </trkpt>
      <trkpt lat="41.2886540" lon="-8.7319940">
        <ele>5.1</ele>
        <time>2019-08-15T15:12:07Z</time>
      </trkpt>
      <trkpt lat="41.2886820" lon="-8.7320070">
        <ele>5.2</ele>
        <time>2019-08-15T15:12:08Z</time>
      </trkpt>
      <trkpt lat="41.2887420" lon="-8.7320300">
        <ele>5.3</ele>
        <time>2019-08-15T15:12:10Z</time>
      </trkpt>
      <trkpt lat="41.2889030" lon="-8.7320680">
        <ele>5.6</ele>
        <time>2019-08-15T15:12:16Z</time>
      </trkpt>
      <trkpt lat="41.2890830" lon="-8.7321710">
        <ele>5.5</ele>
        <time>2019-08-15T15:12:23Z</time>
      </trkpt>
      <trkpt lat="41.2892140" lon="-8.7323690">
        <ele>5.5</ele>
        <time>2019-08-15T15:12:30Z</time>
      </trkpt>
      <trkpt lat="41.2893920" lon="-8.7324840">
        <ele>5.6</ele>
        <time>2019-08-15T15:12:36Z</time>
      </trkpt>
      <trkpt lat="41.2897360" lon="-8.7326400">
        <ele>5.8</ele>
        <time>2019-08-15T15:12:47Z</time>
      </trkpt>
      <trkpt lat="41.2900080" lon="-8.7326950">
        <ele>5.9</ele>
        <time>2019-08-15T15:12:55Z</time>
      </trkpt>
      <trkpt lat="41.2903110" lon="-8.7327650">
        <ele>6.1</ele>
        <time>2019-08-15T15:13:04Z</time>
      </trkpt>
      <trkpt lat="41.2905240" lon="-8.7327720">
        <ele>6.1</ele>
        <time>2019-08-15T15:13:10Z</time>
      </trkpt>
      <trkpt lat="41.2907190" lon="-8.7327770">
        <ele>6.2</ele>
        <time>2019-08-15T15:13:16Z</time>
      </trkpt>
      <trkpt lat="41.2910150" lon="-8.7328130">
        <ele>6.2</ele>
        <time>2019-08-15T15:13:25Z</time>
      </trkpt>
      <trkpt lat="41.2911460" lon="-8.7328270">
        <ele>6.2</ele>
        <time>2019-08-15T15:13:30Z</time>
      </trkpt>
      <trkpt lat="41.2911530" lon="-8.7328240">
        <ele>6.2</ele>
        <time>2019-08-15T15:13:32Z</time>
      </trkpt>
      <trkpt lat="41.2911510" lon="-8.7328230">
        <ele>6.2</ele>
        <time>2019-08-15T15:14:00Z</time>
      </trkpt>
      <trkpt lat="41.2911590" lon="-8.7328270">
        <ele>6.2</ele>
        <time>2019-08-15T15:14:01Z</time>
      </trkpt>
      <trkpt lat="41.2912410" lon="-8.7328520">
        <ele>6.2</ele>
        <time>2019-08-15T15:14:07Z</time>
      </trkpt>
      <trkpt lat="41.2913000" lon="-8.7328650">
        <ele>6.1</ele>
        <time>2019-08-15T15:14:10Z</time>
      </trkpt>
      <trkpt lat="41.2913520" lon="-8.7328600">
        <ele>6.1</ele>
        <time>2019-08-15T15:14:12Z</time>
      </trkpt>
      <trkpt lat="41.2914920" lon="-8.7328890">
        <ele>6.1</ele>
        <time>2019-08-15T15:14:18Z</time>
      </trkpt>
      <trkpt lat="41.2915710" lon="-8.7328820">
        <ele>6.1</ele>
        <time>2019-08-15T15:14:22Z</time>
      </trkpt>
      <trkpt lat="41.2916190" lon="-8.7328840">
        <ele>6.1</ele>
        <time>2019-08-15T15:14:24Z</time>
      </trkpt>
      <trkpt lat="41.2917170" lon="-8.7329510">
        <ele>5.7</ele>
        <time>2019-08-15T15:14:28Z</time>
      </trkpt>
      <trkpt lat="41.2917560" lon="-8.7330100">
        <ele>5.6</ele>
        <time>2019-08-15T15:14:30Z</time>
      </trkpt>
      <trkpt lat="41.2919930" lon="-8.7332190">
        <ele>5.0</ele>
        <time>2019-08-15T15:14:38Z</time>
      </trkpt>
      <trkpt lat="41.2922370" lon="-8.7334040">
        <ele>3.5</ele>
        <time>2019-08-15T15:14:45Z</time>
      </trkpt>
      <trkpt lat="41.2923730" lon="-8.7335640">
        <ele>3.3</ele>
        <time>2019-08-15T15:14:51Z</time>
      </trkpt>
      <trkpt lat="41.2923860" lon="-8.7335800">
        <ele>3.3</ele>
        <time>2019-08-15T15:14:52Z</time>
      </trkpt>
      <trkpt lat="41.2924030" lon="-8.7335890">
        <ele>3.3</ele>
        <time>2019-08-15T15:14:53Z</time>
      </trkpt>
      <trkpt lat="41.2924260" lon="-8.7335990">
        <ele>3.3</ele>
        <time>2019-08-15T15:14:54Z</time>
      </trkpt>
      <trkpt lat="41.2924510" lon="-8.7336120">
        <ele>3.4</ele>
        <time>2019-08-15T15:14:55Z</time>
      </trkpt>
      <trkpt lat="41.2924730" lon="-8.7336250">
        <ele>3.5</ele>
        <time>2019-08-15T15:14:56Z</time>
      </trkpt>
      <trkpt lat="41.2925610" lon="-8.7336440">
        <ele>4.4</ele>
        <time>2019-08-15T15:14:59Z</time>
      </trkpt>
      <trkpt lat="41.2926180" lon="-8.7336730">
        <ele>4.5</ele>
        <time>2019-08-15T15:15:01Z</time>
      </trkpt>
      <trkpt lat="41.2927900" lon="-8.7337650">
        <ele>4.7</ele>
        <time>2019-08-15T15:15:07Z</time>
      </trkpt>
      <trkpt lat="41.2928820" lon="-8.7337650">
        <ele>4.8</ele>
        <time>2019-08-15T15:15:11Z</time>
      </trkpt>
      <trkpt lat="41.2929080" lon="-8.7337610">
        <ele>4.8</ele>
        <time>2019-08-15T15:15:12Z</time>
      </trkpt>
      <trkpt lat="41.2929340" lon="-8.7337750">
        <ele>4.9</ele>
        <time>2019-08-15T15:15:13Z</time>
      </trkpt>
      <trkpt lat="41.2930250" lon="-8.7338120">
        <ele>4.9</ele>
        <time>2019-08-15T15:15:16Z</time>
      </trkpt>
      <trkpt lat="41.2930580" lon="-8.7338250">
        <ele>5.0</ele>
        <time>2019-08-15T15:15:17Z</time>
      </trkpt>
      <trkpt lat="41.2932480" lon="-8.7338730">
        <ele>5.1</ele>
        <time>2019-08-15T15:15:23Z</time>
      </trkpt>
      <trkpt lat="41.2934160" lon="-8.7340290">
        <ele>5.5</ele>
        <time>2019-08-15T15:15:29Z</time>
      </trkpt>
      <trkpt lat="41.2936050" lon="-8.7340930">
        <ele>5.9</ele>
        <time>2019-08-15T15:15:35Z</time>
      </trkpt>
      <trkpt lat="41.2936370" lon="-8.7341140">
        <ele>6.0</ele>
        <time>2019-08-15T15:15:36Z</time>
      </trkpt>
      <trkpt lat="41.2936700" lon="-8.7341310">
        <ele>6.1</ele>
        <time>2019-08-15T15:15:37Z</time>
      </trkpt>
      <trkpt lat="41.2936900" lon="-8.7341550">
        <ele>6.2</ele>
        <time>2019-08-15T15:15:38Z</time>
      </trkpt>
      <trkpt lat="41.2937170" lon="-8.7341700">
        <ele>6.3</ele>
        <time>2019-08-15T15:15:39Z</time>
      </trkpt>
      <trkpt lat="41.2937880" lon="-8.7342360">
        <ele>6.6</ele>
        <time>2019-08-15T15:15:42Z</time>
      </trkpt>
      <trkpt lat="41.2938130" lon="-8.7342540">
        <ele>6.8</ele>
        <time>2019-08-15T15:15:43Z</time>
      </trkpt>
      <trkpt lat="41.2938380" lon="-8.7342760">
        <ele>6.9</ele>
        <time>2019-08-15T15:15:44Z</time>
      </trkpt>
      <trkpt lat="41.2938660" lon="-8.7342900">
        <ele>7.1</ele>
        <time>2019-08-15T15:15:45Z</time>
      </trkpt>
      <trkpt lat="41.2938960" lon="-8.7343050">
        <ele>7.2</ele>
        <time>2019-08-15T15:15:46Z</time>
      </trkpt>
      <trkpt lat="41.2940820" lon="-8.7343650">
        <ele>8.2</ele>
        <time>2019-08-15T15:15:53Z</time>
      </trkpt>
      <trkpt lat="41.2941360" lon="-8.7343710">
        <ele>8.4</ele>
        <time>2019-08-15T15:15:55Z</time>
      </trkpt>
      <trkpt lat="41.2941640" lon="-8.7343710">
        <ele>8.5</ele>
        <time>2019-08-15T15:15:56Z</time>
      </trkpt>
      <trkpt lat="41.2941870" lon="-8.7343730">
        <ele>8.5</ele>
        <time>2019-08-15T15:15:57Z</time>
      </trkpt>
      <trkpt lat="41.2942130" lon="-8.7343820">
        <ele>8.6</ele>
        <time>2019-08-15T15:15:58Z</time>
      </trkpt>
      <trkpt lat="41.2942440" lon="-8.7343770">
        <ele>8.7</ele>
        <time>2019-08-15T15:15:59Z</time>
      </trkpt>
      <trkpt lat="41.2942960" lon="-8.7343830">
        <ele>9.0</ele>
        <time>2019-08-15T15:16:01Z</time>
      </trkpt>
      <trkpt lat="41.2945790" lon="-8.7344340">
        <ele>9.9</ele>
        <time>2019-08-15T15:16:09Z</time>
      </trkpt>
      <trkpt lat="41.2948000" lon="-8.7343950">
        <ele>10.4</ele>
        <time>2019-08-15T15:16:17Z</time>
      </trkpt>
      <trkpt lat="41.2949680" lon="-8.7343250">
        <ele>10.8</ele>
        <time>2019-08-15T15:16:22Z</time>
      </trkpt>
      <trkpt lat="41.2950020" lon="-8.7343150">
        <ele>10.9</ele>
        <time>2019-08-15T15:16:23Z</time>
      </trkpt>
      <trkpt lat="41.2950380" lon="-8.7343090">
        <ele>11.1</ele>
        <time>2019-08-15T15:16:24Z</time>
      </trkpt>
      <trkpt lat="41.2950700" lon="-8.7343030">
        <ele>11.2</ele>
        <time>2019-08-15T15:16:25Z</time>
      </trkpt>
      <trkpt lat="41.2951020" lon="-8.7342930">
        <ele>11.5</ele>
        <time>2019-08-15T15:16:26Z</time>
      </trkpt>
      <trkpt lat="41.2951370" lon="-8.7342770">
        <ele>11.7</ele>
        <time>2019-08-15T15:16:27Z</time>
      </trkpt>
      <trkpt lat="41.2952370" lon="-8.7342490">
        <ele>12.2</ele>
        <time>2019-08-15T15:16:31Z</time>
      </trkpt>
      <trkpt lat="41.2952740" lon="-8.7342400">
        <ele>12.4</ele>
        <time>2019-08-15T15:16:34Z</time>
      </trkpt>
      <trkpt lat="41.2953370" lon="-8.7342160">
        <ele>12.5</ele>
        <time>2019-08-15T15:16:37Z</time>
      </trkpt>
      <trkpt lat="41.2954790" lon="-8.7341040">
        <ele>13.6</ele>
        <time>2019-08-15T15:16:44Z</time>
      </trkpt>
      <trkpt lat="41.2955330" lon="-8.7340700">
        <ele>14.7</ele>
        <time>2019-08-15T15:16:47Z</time>
      </trkpt>
      <trkpt lat="41.2955500" lon="-8.7340680">
        <ele>14.6</ele>
        <time>2019-08-15T15:18:01Z</time>
      </trkpt>
      <trkpt lat="41.2955690" lon="-8.7341060">
        <ele>14.2</ele>
        <time>2019-08-15T15:18:03Z</time>
      </trkpt>
      <trkpt lat="41.2955910" lon="-8.7342000">
        <ele>13.6</ele>
        <time>2019-08-15T15:18:05Z</time>
      </trkpt>
      <trkpt lat="41.2955960" lon="-8.7345120">
        <ele>11.3</ele>
        <time>2019-08-15T15:18:11Z</time>
      </trkpt>
      <trkpt lat="41.2955960" lon="-8.7348910">
        <ele>9.7</ele>
        <time>2019-08-15T15:18:16Z</time>
      </trkpt>
      <trkpt lat="41.2955900" lon="-8.7350480">
        <ele>8.8</ele>
        <time>2019-08-15T15:18:19Z</time>
      </trkpt>
      <trkpt lat="41.2955890" lon="-8.7350680">
        <ele>8.7</ele>
        <time>2019-08-15T15:18:20Z</time>
      </trkpt>
      <trkpt lat="41.2955930" lon="-8.7350720">
        <ele>8.7</ele>
        <time>2019-08-15T15:18:21Z</time>
      </trkpt>
      <trkpt lat="41.2955930" lon="-8.7350800">
        <ele>8.7</ele>
        <time>2019-08-15T15:18:22Z</time>
      </trkpt>
      <trkpt lat="41.2955910" lon="-8.7350890">
        <ele>8.6</ele>
        <time>2019-08-15T15:18:23Z</time>
      </trkpt>
      <trkpt lat="41.2955900" lon="-8.7351100">
        <ele>8.5</ele>
        <time>2019-08-15T15:18:24Z</time>
      </trkpt>
      <trkpt lat="41.2955690" lon="-8.7352450">
        <ele>7.9</ele>
        <time>2019-08-15T15:18:29Z</time>
      </trkpt>
      <trkpt lat="41.2955700" lon="-8.7353440">
        <ele>7.4</ele>
        <time>2019-08-15T15:18:34Z</time>
      </trkpt>
      <trkpt lat="41.2955450" lon="-8.7355280">
        <ele>6.3</ele>
        <time>2019-08-15T15:18:39Z</time>
      </trkpt>
      <trkpt lat="41.2955380" lon="-8.7355660">
        <ele>6.1</ele>
        <time>2019-08-15T15:18:40Z</time>
      </trkpt>
      <trkpt lat="41.2955320" lon="-8.7356010">
        <ele>5.9</ele>
        <time>2019-08-15T15:18:41Z</time>
      </trkpt>
      <trkpt lat="41.2955310" lon="-8.7356470">
        <ele>5.6</ele>
        <time>2019-08-15T15:18:42Z</time>
      </trkpt>
      <trkpt lat="41.2955270" lon="-8.7356920">
        <ele>5.3</ele>
        <time>2019-08-15T15:18:43Z</time>
      </trkpt>
      <trkpt lat="41.2954980" lon="-8.7358550">
        <ele>4.6</ele>
        <time>2019-08-15T15:18:46Z</time>
      </trkpt>
      <trkpt lat="41.2955060" lon="-8.7359410">
        <ele>4.2</ele>
        <time>2019-08-15T15:18:48Z</time>
      </trkpt>
      <trkpt lat="41.2955090" lon="-8.7359750">
        <ele>4.1</ele>
        <time>2019-08-15T15:18:49Z</time>
      </trkpt>
      <trkpt lat="41.2955090" lon="-8.7360020">
        <ele>4.0</ele>
        <time>2019-08-15T15:18:50Z</time>
      </trkpt>
      <trkpt lat="41.2955040" lon="-8.7360340">
        <ele>4.0</ele>
        <time>2019-08-15T15:18:51Z</time>
      </trkpt>
      <trkpt lat="41.2954980" lon="-8.7360700">
        <ele>4.0</ele>
        <time>2019-08-15T15:18:52Z</time>
      </trkpt>
      <trkpt lat="41.2954480" lon="-8.7361830">
        <ele>4.0</ele>
        <time>2019-08-15T15:18:54Z</time>
      </trkpt>
      <trkpt lat="41.2954250" lon="-8.7362440">
        <ele>4.1</ele>
        <time>2019-08-15T15:18:55Z</time>
      </trkpt>
      <trkpt lat="41.2955390" lon="-8.7363160">
        <ele>4.1</ele>
        <time>2019-08-15T15:18:58Z</time>
      </trkpt>
      <trkpt lat="41.2955760" lon="-8.7363050">
        <ele>4.1</ele>
        <time>2019-08-15T15:18:59Z</time>
      </trkpt>
      <trkpt lat="41.2956230" lon="-8.7363000">
        <ele>4.1</ele>
        <time>2019-08-15T15:19:00Z</time>
      </trkpt>
      <trkpt lat="41.2958140" lon="-8.7362560">
        <ele>4.2</ele>
        <time>2019-08-15T15:19:05Z</time>
      </trkpt>
      <trkpt lat="41.2960080" lon="-8.7362240">
        <ele>3.9</ele>
        <time>2019-08-15T15:19:12Z</time>
      </trkpt>
      <trkpt lat="41.2962040" lon="-8.7362140">
        <ele>4.0</ele>
        <time>2019-08-15T15:19:18Z</time>
      </trkpt>
      <trkpt lat="41.2964240" lon="-8.7362820">
        <ele>4.4</ele>
        <time>2019-08-15T15:19:25Z</time>
      </trkpt>
      <trkpt lat="41.2967200" lon="-8.7363830">
        <ele>4.0</ele>
        <time>2019-08-15T15:19:35Z</time>
      </trkpt>
      <trkpt lat="41.2968020" lon="-8.7364100">
        <ele>3.8</ele>
        <time>2019-08-15T15:19:41Z</time>
      </trkpt>
      <trkpt lat="41.2968310" lon="-8.7364180">
        <ele>3.8</ele>
        <time>2019-08-15T15:19:44Z</time>
      </trkpt>
      <trkpt lat="41.2968590" lon="-8.7364380">
        <ele>3.7</ele>
        <time>2019-08-15T15:19:50Z</time>
      </trkpt>
      <trkpt lat="41.2969980" lon="-8.7365490">
        <ele>3.7</ele>
        <time>2019-08-15T15:19:55Z</time>
      </trkpt>
      <trkpt lat="41.2970410" lon="-8.7365620">
        <ele>3.7</ele>
        <time>2019-08-15T15:19:56Z</time>
      </trkpt>
      <trkpt lat="41.2972220" lon="-8.7366350">
        <ele>3.7</ele>
        <time>2019-08-15T15:20:00Z</time>
      </trkpt>
      <trkpt lat="41.2973490" lon="-8.7366700">
        <ele>3.7</ele>
        <time>2019-08-15T15:20:03Z</time>
      </trkpt>
      <trkpt lat="41.2974950" lon="-8.7366650">
        <ele>3.5</ele>
        <time>2019-08-15T15:20:06Z</time>
      </trkpt>
      <trkpt lat="41.2978430" lon="-8.7366170">
        <ele>3.0</ele>
        <time>2019-08-15T15:20:14Z</time>
      </trkpt>
      <trkpt lat="41.2978880" lon="-8.7366250">
        <ele>3.1</ele>
        <time>2019-08-15T15:20:15Z</time>
      </trkpt>
      <trkpt lat="41.2980290" lon="-8.7366600">
        <ele>3.5</ele>
        <time>2019-08-15T15:20:18Z</time>
      </trkpt>
      <trkpt lat="41.2980740" lon="-8.7366660">
        <ele>3.7</ele>
        <time>2019-08-15T15:20:19Z</time>
      </trkpt>
      <trkpt lat="41.2981210" lon="-8.7366720">
        <ele>3.8</ele>
        <time>2019-08-15T15:20:20Z</time>
      </trkpt>
      <trkpt lat="41.2981660" lon="-8.7366790">
        <ele>3.9</ele>
        <time>2019-08-15T15:20:21Z</time>
      </trkpt>
      <trkpt lat="41.2982160" lon="-8.7366880">
        <ele>3.9</ele>
        <time>2019-08-15T15:20:22Z</time>
      </trkpt>
      <trkpt lat="41.2985870" lon="-8.7367640">
        <ele>3.7</ele>
        <time>2019-08-15T15:20:30Z</time>
      </trkpt>
      <trkpt lat="41.2988350" lon="-8.7368310">
        <ele>4.1</ele>
        <time>2019-08-15T15:20:36Z</time>
      </trkpt>
      <trkpt lat="41.2989130" lon="-8.7368810">
        <ele>4.2</ele>
        <time>2019-08-15T15:20:38Z</time>
      </trkpt>
      <trkpt lat="41.2990040" lon="-8.7369190">
        <ele>4.3</ele>
        <time>2019-08-15T15:20:40Z</time>
      </trkpt>
      <trkpt lat="41.2991510" lon="-8.7369440">
        <ele>4.4</ele>
        <time>2019-08-15T15:20:43Z</time>
      </trkpt>
      <trkpt lat="41.2996960" lon="-8.7370600">
        <ele>4.6</ele>
        <time>2019-08-15T15:20:53Z</time>
      </trkpt>
      <trkpt lat="41.3002600" lon="-8.7371950">
        <ele>4.8</ele>
        <time>2019-08-15T15:21:04Z</time>
      </trkpt>
      <trkpt lat="41.3003620" lon="-8.7371910">
        <ele>4.7</ele>
        <time>2019-08-15T15:21:06Z</time>
      </trkpt>
      <trkpt lat="41.3004520" lon="-8.7371760">
        <ele>4.6</ele>
        <time>2019-08-15T15:21:08Z</time>
      </trkpt>
      <trkpt lat="41.3004950" lon="-8.7371580">
        <ele>4.6</ele>
        <time>2019-08-15T15:21:09Z</time>
      </trkpt>
      <trkpt lat="41.3006510" lon="-8.7370650">
        <ele>4.3</ele>
        <time>2019-08-15T15:21:14Z</time>
      </trkpt>
      <trkpt lat="41.3008160" lon="-8.7369710">
        <ele>4.6</ele>
        <time>2019-08-15T15:21:20Z</time>
      </trkpt>
      <trkpt lat="41.3010340" lon="-8.7368450">
        <ele>5.3</ele>
        <time>2019-08-15T15:21:27Z</time>
      </trkpt>
      <trkpt lat="41.3011540" lon="-8.7367910">
        <ele>5.6</ele>
        <time>2019-08-15T15:21:30Z</time>
      </trkpt>
      <trkpt lat="41.3011910" lon="-8.7367740">
        <ele>5.6</ele>
        <time>2019-08-15T15:21:31Z</time>
      </trkpt>
      <trkpt lat="41.3012300" lon="-8.7367560">
        <ele>5.7</ele>
        <time>2019-08-15T15:21:32Z</time>
      </trkpt>
      <trkpt lat="41.3012720" lon="-8.7367360">
        <ele>5.9</ele>
        <time>2019-08-15T15:21:33Z</time>
      </trkpt>
      <trkpt lat="41.3013170" lon="-8.7367220">
        <ele>6.1</ele>
        <time>2019-08-15T15:21:34Z</time>
      </trkpt>
      <trkpt lat="41.3013660" lon="-8.7367200">
        <ele>6.2</ele>
        <time>2019-08-15T15:21:35Z</time>
      </trkpt>
      <trkpt lat="41.3014980" lon="-8.7367540">
        <ele>6.6</ele>
        <time>2019-08-15T15:21:38Z</time>
      </trkpt>
      <trkpt lat="41.3017540" lon="-8.7368290">
        <ele>7.7</ele>
        <time>2019-08-15T15:21:44Z</time>
      </trkpt>
      <trkpt lat="41.3018010" lon="-8.7368420">
        <ele>7.9</ele>
        <time>2019-08-15T15:21:45Z</time>
      </trkpt>
      <trkpt lat="41.3018470" lon="-8.7368510">
        <ele>8.2</ele>
        <time>2019-08-15T15:21:46Z</time>
      </trkpt>
      <trkpt lat="41.3018880" lon="-8.7368640">
        <ele>8.4</ele>
        <time>2019-08-15T15:21:47Z</time>
      </trkpt>
      <trkpt lat="41.3019330" lon="-8.7368740">
        <ele>8.7</ele>
        <time>2019-08-15T15:21:48Z</time>
      </trkpt>
      <trkpt lat="41.3021550" lon="-8.7369090">
        <ele>9.3</ele>
        <time>2019-08-15T15:21:53Z</time>
      </trkpt>
      <trkpt lat="41.3023350" lon="-8.7368330">
        <ele>9.9</ele>
        <time>2019-08-15T15:21:57Z</time>
      </trkpt>
      <trkpt lat="41.3024470" lon="-8.7367510">
        <ele>10.4</ele>
        <time>2019-08-15T15:22:00Z</time>
      </trkpt>
      <trkpt lat="41.3025340" lon="-8.7366530">
        <ele>10.8</ele>
        <time>2019-08-15T15:22:03Z</time>
      </trkpt>
      <trkpt lat="41.3025590" lon="-8.7366230">
        <ele>10.9</ele>
        <time>2019-08-15T15:22:04Z</time>
      </trkpt>
      <trkpt lat="41.3025750" lon="-8.7366040">
        <ele>11.0</ele>
        <time>2019-08-15T15:22:05Z</time>
      </trkpt>
      <trkpt lat="41.3025870" lon="-8.7365860">
        <ele>11.0</ele>
        <time>2019-08-15T15:22:06Z</time>
      </trkpt>
      <trkpt lat="41.3026020" lon="-8.7365620">
        <ele>11.1</ele>
        <time>2019-08-15T15:22:07Z</time>
      </trkpt>
      <trkpt lat="41.3026920" lon="-8.7363880">
        <ele>11.3</ele>
        <time>2019-08-15T15:22:12Z</time>
      </trkpt>
      <trkpt lat="41.3028350" lon="-8.7360950">
        <ele>11.3</ele>
        <time>2019-08-15T15:22:20Z</time>
      </trkpt>
      <trkpt lat="41.3029210" lon="-8.7359840">
        <ele>11.1</ele>
        <time>2019-08-15T15:22:25Z</time>
      </trkpt>
      <trkpt lat="41.3029480" lon="-8.7359810">
        <ele>11.0</ele>
        <time>2019-08-15T15:22:26Z</time>
      </trkpt>
      <trkpt lat="41.3030430" lon="-8.7360100">
        <ele>10.7</ele>
        <time>2019-08-15T15:22:30Z</time>
      </trkpt>
      <trkpt lat="41.3030640" lon="-8.7360260">
        <ele>10.6</ele>
        <time>2019-08-15T15:22:31Z</time>
      </trkpt>
      <trkpt lat="41.3032100" lon="-8.7361880">
        <ele>10.1</ele>
        <time>2019-08-15T15:22:36Z</time>
      </trkpt>
      <trkpt lat="41.3034810" lon="-8.7364210">
        <ele>8.0</ele>
        <time>2019-08-15T15:22:44Z</time>
      </trkpt>
      <trkpt lat="41.3037680" lon="-8.7367390">
        <ele>6.3</ele>
        <time>2019-08-15T15:22:54Z</time>
      </trkpt>
      <trkpt lat="41.3037890" lon="-8.7367420">
        <ele>6.3</ele>
        <time>2019-08-15T15:22:55Z</time>
      </trkpt>
      <trkpt lat="41.3038700" lon="-8.7367810">
        <ele>6.0</ele>
        <time>2019-08-15T15:22:58Z</time>
      </trkpt>
      <trkpt lat="41.3039090" lon="-8.7368120">
        <ele>5.9</ele>
        <time>2019-08-15T15:22:59Z</time>
      </trkpt>
      <trkpt lat="41.3039460" lon="-8.7368520">
        <ele>5.9</ele>
        <time>2019-08-15T15:23:00Z</time>
      </trkpt>
      <trkpt lat="41.3039870" lon="-8.7368960">
        <ele>5.9</ele>
        <time>2019-08-15T15:23:01Z</time>
      </trkpt>
      <trkpt lat="41.3040250" lon="-8.7369400">
        <ele>5.9</ele>
        <time>2019-08-15T15:23:02Z</time>
      </trkpt>
      <trkpt lat="41.3040730" lon="-8.7369890">
        <ele>5.9</ele>
        <time>2019-08-15T15:23:03Z</time>
      </trkpt>
      <trkpt lat="41.3043310" lon="-8.7372910">
        <ele>5.5</ele>
        <time>2019-08-15T15:23:09Z</time>
      </trkpt>
      <trkpt lat="41.3045360" lon="-8.7375360">
        <ele>4.2</ele>
        <time>2019-08-15T15:23:15Z</time>
      </trkpt>
      <trkpt lat="41.3045680" lon="-8.7375670">
        <ele>4.2</ele>
        <time>2019-08-15T15:23:16Z</time>
      </trkpt>
      <trkpt lat="41.3047960" lon="-8.7377370">
        <ele>3.6</ele>
        <time>2019-08-15T15:23:22Z</time>
      </trkpt>
      <trkpt lat="41.3048840" lon="-8.7377790">
        <ele>3.4</ele>
        <time>2019-08-15T15:23:24Z</time>
      </trkpt>
      <trkpt lat="41.3049270" lon="-8.7377940">
        <ele>3.3</ele>
        <time>2019-08-15T15:23:25Z</time>
      </trkpt>
      <trkpt lat="41.3049680" lon="-8.7378090">
        <ele>3.2</ele>
        <time>2019-08-15T15:23:26Z</time>
      </trkpt>
      <trkpt lat="41.3050070" lon="-8.7378260">
        <ele>3.1</ele>
        <time>2019-08-15T15:23:27Z</time>
      </trkpt>
      <trkpt lat="41.3050440" lon="-8.7378430">
        <ele>3.0</ele>
        <time>2019-08-15T15:23:28Z</time>
      </trkpt>
      <trkpt lat="41.3050820" lon="-8.7378590">
        <ele>2.9</ele>
        <time>2019-08-15T15:23:29Z</time>
      </trkpt>
      <trkpt lat="41.3052050" lon="-8.7379160">
        <ele>2.7</ele>
        <time>2019-08-15T15:23:34Z</time>
      </trkpt>
      <trkpt lat="41.3053140" lon="-8.7378830">
        <ele>2.7</ele>
        <time>2019-08-15T15:23:39Z</time>
      </trkpt>
      <trkpt lat="41.3055020" lon="-8.7379530">
        <ele>2.4</ele>
        <time>2019-08-15T15:23:46Z</time>
      </trkpt>
      <trkpt lat="41.3057730" lon="-8.7381220">
        <ele>1.6</ele>
        <time>2019-08-15T15:23:54Z</time>
      </trkpt>
      <trkpt lat="41.3060160" lon="-8.7383010">
        <ele>0.7</ele>
        <time>2019-08-15T15:24:00Z</time>
      </trkpt>
      <trkpt lat="41.3061700" lon="-8.7384060">
        <ele>0.0</ele>
        <time>2019-08-15T15:24:04Z</time>
      </trkpt>
      <trkpt lat="41.3063140" lon="-8.7384150">
        <ele>-0.4</ele>
        <time>2019-08-15T15:24:07Z</time>
      </trkpt>
      <trkpt lat="41.3063630" lon="-8.7384180">
        <ele>-0.5</ele>
        <time>2019-08-15T15:24:08Z</time>
      </trkpt>
      <trkpt lat="41.3064110" lon="-8.7384220">
        <ele>-0.4</ele>
        <time>2019-08-15T15:24:09Z</time>
      </trkpt>
      <trkpt lat="41.3064520" lon="-8.7384260">
        <ele>-0.4</ele>
        <time>2019-08-15T15:24:10Z</time>
      </trkpt>
      <trkpt lat="41.3064920" lon="-8.7384290">
        <ele>-0.3</ele>
        <time>2019-08-15T15:24:11Z</time>
      </trkpt>
      <trkpt lat="41.3066540" lon="-8.7384350">
        <ele>0.3</ele>
        <time>2019-08-15T15:24:15Z</time>
      </trkpt>
      <trkpt lat="41.3069070" lon="-8.7385140">
        <ele>1.5</ele>
        <time>2019-08-15T15:24:22Z</time>
      </trkpt>
      <trkpt lat="41.3072280" lon="-8.7386490">
        <ele>2.9</ele>
        <time>2019-08-15T15:24:32Z</time>
      </trkpt>
      <trkpt lat="41.3074860" lon="-8.7387550">
        <ele>3.4</ele>
        <time>2019-08-15T15:24:40Z</time>
      </trkpt>
      <trkpt lat="41.3075180" lon="-8.7387670">
        <ele>3.4</ele>
        <time>2019-08-15T15:24:41Z</time>
      </trkpt>
      <trkpt lat="41.3075490" lon="-8.7387780">
        <ele>3.4</ele>
        <time>2019-08-15T15:24:42Z</time>
      </trkpt>
      <trkpt lat="41.3075820" lon="-8.7387880">
        <ele>3.5</ele>
        <time>2019-08-15T15:24:43Z</time>
      </trkpt>
      <trkpt lat="41.3076140" lon="-8.7387990">
        <ele>3.5</ele>
        <time>2019-08-15T15:24:44Z</time>
      </trkpt>
      <trkpt lat="41.3076460" lon="-8.7388080">
        <ele>3.5</ele>
        <time>2019-08-15T15:24:45Z</time>
      </trkpt>
      <trkpt lat="41.3078280" lon="-8.7388730">
        <ele>3.6</ele>
        <time>2019-08-15T15:24:51Z</time>
      </trkpt>
      <trkpt lat="41.3080430" lon="-8.7389670">
        <ele>3.6</ele>
        <time>2019-08-15T15:24:59Z</time>
      </trkpt>
      <trkpt lat="41.3082040" lon="-8.7390200">
        <ele>3.7</ele>
        <time>2019-08-15T15:25:07Z</time>
      </trkpt>
      <trkpt lat="41.3083100" lon="-8.7390510">
        <ele>3.9</ele>
        <time>2019-08-15T15:25:12Z</time>
      </trkpt>
      <trkpt lat="41.3085900" lon="-8.7391050">
        <ele>4.9</ele>
        <time>2019-08-15T15:25:22Z</time>
      </trkpt>
      <trkpt lat="41.3086080" lon="-8.7391280">
        <ele>4.9</ele>
        <time>2019-08-15T15:25:23Z</time>
      </trkpt>
      <trkpt lat="41.3086550" lon="-8.7391960">
        <ele>4.8</ele>
        <time>2019-08-15T15:25:26Z</time>
      </trkpt>
      <trkpt lat="41.3088160" lon="-8.7393990">
        <ele>3.5</ele>
        <time>2019-08-15T15:25:36Z</time>
      </trkpt>
      <trkpt lat="41.3089630" lon="-8.7394610">
        <ele>3.0</ele>
        <time>2019-08-15T15:25:44Z</time>
      </trkpt>
      <trkpt lat="41.3091110" lon="-8.7395200">
        <ele>2.5</ele>
        <time>2019-08-15T15:25:51Z</time>
      </trkpt>
      <trkpt lat="41.3092170" lon="-8.7395810">
        <ele>2.2</ele>
        <time>2019-08-15T15:25:58Z</time>
      </trkpt>
      <trkpt lat="41.3093630" lon="-8.7396490">
        <ele>2.3</ele>
        <time>2019-08-15T15:26:08Z</time>
      </trkpt>
      <trkpt lat="41.3093810" lon="-8.7396580">
        <ele>2.4</ele>
        <time>2019-08-15T15:26:09Z</time>
      </trkpt>
      <trkpt lat="41.3093940" lon="-8.7396610">
        <ele>2.4</ele>
        <time>2019-08-15T15:26:10Z</time>
      </trkpt>
      <trkpt lat="41.3094100" lon="-8.7396660">
        <ele>2.5</ele>
        <time>2019-08-15T15:26:11Z</time>
      </trkpt>
      <trkpt lat="41.3094290" lon="-8.7396690">
        <ele>2.5</ele>
        <time>2019-08-15T15:26:12Z</time>
      </trkpt>
      <trkpt lat="41.3094450" lon="-8.7396720">
        <ele>2.6</ele>
        <time>2019-08-15T15:26:13Z</time>
      </trkpt>
      <trkpt lat="41.3094780" lon="-8.7396750">
        <ele>2.7</ele>
        <time>2019-08-15T15:26:15Z</time>
      </trkpt>
      <trkpt lat="41.3095530" lon="-8.7396730">
        <ele>2.8</ele>
        <time>2019-08-15T15:26:19Z</time>
      </trkpt>
      <trkpt lat="41.3095980" lon="-8.7396840">
        <ele>2.8</ele>
        <time>2019-08-15T15:26:21Z</time>
      </trkpt>
      <trkpt lat="41.3097430" lon="-8.7397500">
        <ele>2.9</ele>
        <time>2019-08-15T15:26:28Z</time>
      </trkpt>
      <trkpt lat="41.3098720" lon="-8.7398440">
        <ele>3.0</ele>
        <time>2019-08-15T15:26:35Z</time>
      </trkpt>
      <trkpt lat="41.3100430" lon="-8.7399160">
        <ele>3.0</ele>
        <time>2019-08-15T15:26:44Z</time>
      </trkpt>
      <trkpt lat="41.3101380" lon="-8.7399950">
        <ele>2.9</ele>
        <time>2019-08-15T15:26:52Z</time>
      </trkpt>
      <trkpt lat="41.3102190" lon="-8.7400620">
        <ele>2.8</ele>
        <time>2019-08-15T15:26:59Z</time>
      </trkpt>
      <trkpt lat="41.3103590" lon="-8.7401480">
        <ele>2.7</ele>
        <time>2019-08-15T15:27:08Z</time>
      </trkpt>
      <trkpt lat="41.3104460" lon="-8.7401390">
        <ele>2.6</ele>
        <time>2019-08-15T15:27:11Z</time>
      </trkpt>
      <trkpt lat="41.3105130" lon="-8.7401160">
        <ele>2.5</ele>
        <time>2019-08-15T15:27:13Z</time>
      </trkpt>
      <trkpt lat="41.3106630" lon="-8.7401100">
        <ele>2.5</ele>
        <time>2019-08-15T15:27:19Z</time>
      </trkpt>
      <trkpt lat="41.3106840" lon="-8.7401140">
        <ele>2.5</ele>
        <time>2019-08-15T15:27:22Z</time>
      </trkpt>
      <trkpt lat="41.3107560" lon="-8.7401390">
        <ele>2.5</ele>
        <time>2019-08-15T15:36:09Z</time>
      </trkpt>
      <trkpt lat="41.3108650" lon="-8.7400870">
        <ele>2.2</ele>
        <time>2019-08-15T15:36:14Z</time>
      </trkpt>
      <trkpt lat="41.3110720" lon="-8.7399050">
        <ele>2.0</ele>
        <time>2019-08-15T15:36:22Z</time>
      </trkpt>
      <trkpt lat="41.3113040" lon="-8.7397660">
        <ele>2.7</ele>
        <time>2019-08-15T15:36:31Z</time>
      </trkpt>
      <trkpt lat="41.3115480" lon="-8.7396690">
        <ele>3.2</ele>
        <time>2019-08-15T15:36:40Z</time>
      </trkpt>
      <trkpt lat="41.3116930" lon="-8.7396390">
        <ele>3.4</ele>
        <time>2019-08-15T15:36:47Z</time>
      </trkpt>
      <trkpt lat="41.3118910" lon="-8.7396080">
        <ele>3.3</ele>
        <time>2019-08-15T15:36:54Z</time>
      </trkpt>
      <trkpt lat="41.3120030" lon="-8.7395940">
        <ele>3.2</ele>
        <time>2019-08-15T15:36:59Z</time>
      </trkpt>
      <trkpt lat="41.3121130" lon="-8.7395930">
        <ele>3.0</ele>
        <time>2019-08-15T15:37:06Z</time>
      </trkpt>
      <trkpt lat="41.3122270" lon="-8.7396150">
        <ele>2.9</ele>
        <time>2019-08-15T15:37:11Z</time>
      </trkpt>
      <trkpt lat="41.3124020" lon="-8.7396030">
        <ele>2.8</ele>
        <time>2019-08-15T15:37:16Z</time>
      </trkpt>
      <trkpt lat="41.3126400" lon="-8.7396230">
        <ele>2.8</ele>
        <time>2019-08-15T15:37:23Z</time>
      </trkpt>
      <trkpt lat="41.3127810" lon="-8.7396010">
        <ele>2.9</ele>
        <time>2019-08-15T15:37:28Z</time>
      </trkpt>
      <trkpt lat="41.3128970" lon="-8.7395970">
        <ele>2.9</ele>
        <time>2019-08-15T15:37:32Z</time>
      </trkpt>
      <trkpt lat="41.3129620" lon="-8.7396120">
        <ele>3.0</ele>
        <time>2019-08-15T15:37:34Z</time>
      </trkpt>
      <trkpt lat="41.3131740" lon="-8.7396070">
        <ele>3.6</ele>
        <time>2019-08-15T15:37:40Z</time>
      </trkpt>
      <trkpt lat="41.3134120" lon="-8.7395960">
        <ele>4.3</ele>
        <time>2019-08-15T15:37:47Z</time>
      </trkpt>
      <trkpt lat="41.3136210" lon="-8.7395860">
        <ele>4.8</ele>
        <time>2019-08-15T15:37:53Z</time>
      </trkpt>
      <trkpt lat="41.3138580" lon="-8.7395830">
        <ele>5.0</ele>
        <time>2019-08-15T15:38:00Z</time>
      </trkpt>
      <trkpt lat="41.3140990" lon="-8.7395960">
        <ele>4.9</ele>
        <time>2019-08-15T15:38:08Z</time>
      </trkpt>
      <trkpt lat="41.3143100" lon="-8.7396160">
        <ele>4.6</ele>
        <time>2019-08-15T15:38:14Z</time>
      </trkpt>
      <trkpt lat="41.3145060" lon="-8.7396060">
        <ele>5.0</ele>
        <time>2019-08-15T15:38:21Z</time>
      </trkpt>
      <trkpt lat="41.3147300" lon="-8.7395660">
        <ele>4.9</ele>
        <time>2019-08-15T15:38:28Z</time>
      </trkpt>
      <trkpt lat="41.3150340" lon="-8.7394690">
        <ele>4.7</ele>
        <time>2019-08-15T15:38:38Z</time>
      </trkpt>
      <trkpt lat="41.3151430" lon="-8.7394180">
        <ele>4.7</ele>
        <time>2019-08-15T15:38:42Z</time>
      </trkpt>
      <trkpt lat="41.3151430" lon="-8.7393900">
        <ele>4.6</ele>
        <time>2019-08-15T15:38:43Z</time>
      </trkpt>
      <trkpt lat="41.3151430" lon="-8.7393580">
        <ele>4.5</ele>
        <time>2019-08-15T15:38:44Z</time>
      </trkpt>
      <trkpt lat="41.3152360" lon="-8.7392270">
        <ele>3.8</ele>
        <time>2019-08-15T15:38:50Z</time>
      </trkpt>
      <trkpt lat="41.3153310" lon="-8.7391620">
        <ele>3.3</ele>
        <time>2019-08-15T15:38:54Z</time>
      </trkpt>
      <trkpt lat="41.3153500" lon="-8.7391470">
        <ele>3.3</ele>
        <time>2019-08-15T15:38:55Z</time>
      </trkpt>
      <trkpt lat="41.3154500" lon="-8.7390500">
        <ele>3.0</ele>
        <time>2019-08-15T15:39:00Z</time>
      </trkpt>
      <trkpt lat="41.3154700" lon="-8.7390330">
        <ele>2.9</ele>
        <time>2019-08-15T15:39:01Z</time>
      </trkpt>
      <trkpt lat="41.3154910" lon="-8.7390150">
        <ele>2.9</ele>
        <time>2019-08-15T15:39:02Z</time>
      </trkpt>
      <trkpt lat="41.3155140" lon="-8.7389950">
        <ele>2.8</ele>
        <time>2019-08-15T15:39:03Z</time>
      </trkpt>
      <trkpt lat="41.3155430" lon="-8.7389750">
        <ele>2.8</ele>
        <time>2019-08-15T15:39:04Z</time>
      </trkpt>
      <trkpt lat="41.3155700" lon="-8.7389530">
        <ele>2.8</ele>
        <time>2019-08-15T15:39:05Z</time>
      </trkpt>
      <trkpt lat="41.3156980" lon="-8.7389340">
        <ele>2.6</ele>
        <time>2019-08-15T15:39:09Z</time>
      </trkpt>
      <trkpt lat="41.3158420" lon="-8.7389490">
        <ele>2.6</ele>
        <time>2019-08-15T15:39:12Z</time>
      </trkpt>
      <trkpt lat="41.3158910" lon="-8.7389570">
        <ele>2.6</ele>
        <time>2019-08-15T15:39:13Z</time>
      </trkpt>
      <trkpt lat="41.3159400" lon="-8.7389660">
        <ele>2.6</ele>
        <time>2019-08-15T15:39:14Z</time>
      </trkpt>
      <trkpt lat="41.3159860" lon="-8.7389740">
        <ele>2.6</ele>
        <time>2019-08-15T15:39:15Z</time>
      </trkpt>
      <trkpt lat="41.3160320" lon="-8.7389800">
        <ele>2.6</ele>
        <time>2019-08-15T15:39:16Z</time>
      </trkpt>
      <trkpt lat="41.3160790" lon="-8.7389770">
        <ele>2.6</ele>
        <time>2019-08-15T15:39:17Z</time>
      </trkpt>
      <trkpt lat="41.3163280" lon="-8.7389810">
        <ele>2.7</ele>
        <time>2019-08-15T15:39:22Z</time>
      </trkpt>
      <trkpt lat="41.3168860" lon="-8.7389980">
        <ele>2.9</ele>
        <time>2019-08-15T15:39:33Z</time>
      </trkpt>
      <trkpt lat="41.3171600" lon="-8.7389390">
        <ele>3.2</ele>
        <time>2019-08-15T15:39:39Z</time>
      </trkpt>
      <trkpt lat="41.3174170" lon="-8.7388960">
        <ele>3.6</ele>
        <time>2019-08-15T15:39:45Z</time>
      </trkpt>
      <trkpt lat="41.3175000" lon="-8.7389150">
        <ele>3.7</ele>
        <time>2019-08-15T15:39:47Z</time>
      </trkpt>
      <trkpt lat="41.3175710" lon="-8.7389550">
        <ele>3.9</ele>
        <time>2019-08-15T15:39:49Z</time>
      </trkpt>
      <trkpt lat="41.3177300" lon="-8.7389870">
        <ele>4.0</ele>
        <time>2019-08-15T15:39:53Z</time>
      </trkpt>
      <trkpt lat="41.3178780" lon="-8.7389730">
        <ele>4.1</ele>
        <time>2019-08-15T15:39:57Z</time>
      </trkpt>
      <trkpt lat="41.3180280" lon="-8.7389760">
        <ele>4.1</ele>
        <time>2019-08-15T15:40:02Z</time>
      </trkpt>
      <trkpt lat="41.3181940" lon="-8.7389520">
        <ele>4.0</ele>
        <time>2019-08-15T15:40:07Z</time>
      </trkpt>
      <trkpt lat="41.3184910" lon="-8.7388740">
        <ele>3.8</ele>
        <time>2019-08-15T15:40:15Z</time>
      </trkpt>
      <trkpt lat="41.3187120" lon="-8.7388030">
        <ele>3.5</ele>
        <time>2019-08-15T15:40:21Z</time>
      </trkpt>
      <trkpt lat="41.3189860" lon="-8.7387380">
        <ele>3.4</ele>
        <time>2019-08-15T15:40:28Z</time>
      </trkpt>
      <trkpt lat="41.3191120" lon="-8.7387310">
        <ele>3.4</ele>
        <time>2019-08-15T15:40:31Z</time>
      </trkpt>
      <trkpt lat="41.3192900" lon="-8.7387170">
        <ele>3.5</ele>
        <time>2019-08-15T15:40:37Z</time>
      </trkpt>
      <trkpt lat="41.3195150" lon="-8.7386970">
        <ele>3.7</ele>
        <time>2019-08-15T15:40:44Z</time>
      </trkpt>
      <trkpt lat="41.3198130" lon="-8.7386780">
        <ele>4.3</ele>
        <time>2019-08-15T15:40:52Z</time>
      </trkpt>
      <trkpt lat="41.3200150" lon="-8.7385590">
        <ele>4.9</ele>
        <time>2019-08-15T15:40:58Z</time>
      </trkpt>
      <trkpt lat="41.3202760" lon="-8.7385090">
        <ele>5.8</ele>
        <time>2019-08-15T15:41:05Z</time>
      </trkpt>
      <trkpt lat="41.3204700" lon="-8.7385540">
        <ele>6.3</ele>
        <time>2019-08-15T15:41:11Z</time>
      </trkpt>
      <trkpt lat="41.3205360" lon="-8.7385600">
        <ele>6.4</ele>
        <time>2019-08-15T15:41:13Z</time>
      </trkpt>
      <trkpt lat="41.3205770" lon="-8.7385650">
        <ele>6.5</ele>
        <time>2019-08-15T15:41:14Z</time>
      </trkpt>
      <trkpt lat="41.3206130" lon="-8.7385720">
        <ele>6.5</ele>
        <time>2019-08-15T15:41:15Z</time>
      </trkpt>
      <trkpt lat="41.3206500" lon="-8.7385810">
        <ele>6.5</ele>
        <time>2019-08-15T15:41:16Z</time>
      </trkpt>
      <trkpt lat="41.3206850" lon="-8.7385890">
        <ele>6.6</ele>
        <time>2019-08-15T15:41:17Z</time>
      </trkpt>
      <trkpt lat="41.3208490" lon="-8.7386230">
        <ele>6.7</ele>
        <time>2019-08-15T15:41:23Z</time>
      </trkpt>
      <trkpt lat="41.3209220" lon="-8.7386040">
        <ele>6.7</ele>
        <time>2019-08-15T15:41:28Z</time>
      </trkpt>
      <trkpt lat="41.3210200" lon="-8.7385620">
        <ele>6.7</ele>
        <time>2019-08-15T15:41:33Z</time>
      </trkpt>
      <trkpt lat="41.3211210" lon="-8.7385160">
        <ele>6.8</ele>
        <time>2019-08-15T15:41:39Z</time>
      </trkpt>
      <trkpt lat="41.3213260" lon="-8.7384600">
        <ele>6.6</ele>
        <time>2019-08-15T15:41:47Z</time>
      </trkpt>
      <trkpt lat="41.3215220" lon="-8.7384010">
        <ele>6.2</ele>
        <time>2019-08-15T15:41:54Z</time>
      </trkpt>
      <trkpt lat="41.3217580" lon="-8.7383500">
        <ele>5.5</ele>
        <time>2019-08-15T15:42:03Z</time>
      </trkpt>
      <trkpt lat="41.3218050" lon="-8.7383510">
        <ele>5.4</ele>
        <time>2019-08-15T15:42:05Z</time>
      </trkpt>
      <trkpt lat="41.3219550" lon="-8.7383340">
        <ele>5.0</ele>
        <time>2019-08-15T15:42:10Z</time>
      </trkpt>
      <trkpt lat="41.3221090" lon="-8.7383200">
        <ele>4.6</ele>
        <time>2019-08-15T15:42:16Z</time>
      </trkpt>
      <trkpt lat="41.3222160" lon="-8.7383030">
        <ele>4.3</ele>
        <time>2019-08-15T15:42:22Z</time>
      </trkpt>
      <trkpt lat="41.3223070" lon="-8.7382850">
        <ele>4.2</ele>
        <time>2019-08-15T15:42:28Z</time>
      </trkpt>
      <trkpt lat="41.3224450" lon="-8.7382560">
        <ele>3.9</ele>
        <time>2019-08-15T15:42:35Z</time>
      </trkpt>
      <trkpt lat="41.3225750" lon="-8.7382360">
        <ele>3.8</ele>
        <time>2019-08-15T15:42:40Z</time>
      </trkpt>
      <trkpt lat="41.3226030" lon="-8.7382300">
        <ele>3.8</ele>
        <time>2019-08-15T15:42:41Z</time>
      </trkpt>
      <trkpt lat="41.3226330" lon="-8.7382250">
        <ele>3.7</ele>
        <time>2019-08-15T15:42:42Z</time>
      </trkpt>
      <trkpt lat="41.3226650" lon="-8.7382180">
        <ele>3.7</ele>
        <time>2019-08-15T15:42:43Z</time>
      </trkpt>
      <trkpt lat="41.3227000" lon="-8.7382080">
        <ele>3.7</ele>
        <time>2019-08-15T15:42:44Z</time>
      </trkpt>
      <trkpt lat="41.3229120" lon="-8.7381700">
        <ele>3.6</ele>
        <time>2019-08-15T15:42:51Z</time>
      </trkpt>
      <trkpt lat="41.3231130" lon="-8.7381760">
        <ele>3.6</ele>
        <time>2019-08-15T15:42:58Z</time>
      </trkpt>
      <trkpt lat="41.3233400" lon="-8.7381880">
        <ele>3.6</ele>
        <time>2019-08-15T15:43:07Z</time>
      </trkpt>
      <trkpt lat="41.3235470" lon="-8.7379620">
        <ele>3.6</ele>
        <time>2019-08-15T15:43:16Z</time>
      </trkpt>
      <trkpt lat="41.3236700" lon="-8.7378220">
        <ele>3.7</ele>
        <time>2019-08-15T15:43:22Z</time>
      </trkpt>
      <trkpt lat="41.3236910" lon="-8.7375660">
        <ele>3.8</ele>
        <time>2019-08-15T15:43:28Z</time>
      </trkpt>
      <trkpt lat="41.3237110" lon="-8.7372950">
        <ele>4.0</ele>
        <time>2019-08-15T15:43:35Z</time>
      </trkpt>
      <trkpt lat="41.3238700" lon="-8.7372160">
        <ele>4.1</ele>
        <time>2019-08-15T15:43:41Z</time>
      </trkpt>
      <trkpt lat="41.3239010" lon="-8.7372170">
        <ele>4.2</ele>
        <time>2019-08-15T15:43:42Z</time>
      </trkpt>
      <trkpt lat="41.3242010" lon="-8.7372280">
        <ele>4.4</ele>
        <time>2019-08-15T15:43:51Z</time>
      </trkpt>
      <trkpt lat="41.3244420" lon="-8.7372450">
        <ele>4.6</ele>
        <time>2019-08-15T15:43:58Z</time>
      </trkpt>
      <trkpt lat="41.3247350" lon="-8.7373140">
        <ele>4.6</ele>
        <time>2019-08-15T15:44:06Z</time>
      </trkpt>
      <trkpt lat="41.3249620" lon="-8.7373410">
        <ele>4.6</ele>
        <time>2019-08-15T15:44:12Z</time>
      </trkpt>
      <trkpt lat="41.3253650" lon="-8.7374180">
        <ele>4.6</ele>
        <time>2019-08-15T15:44:23Z</time>
      </trkpt>
      <trkpt lat="41.3257100" lon="-8.7374760">
        <ele>4.7</ele>
        <time>2019-08-15T15:44:33Z</time>
      </trkpt>
      <trkpt lat="41.3259680" lon="-8.7374940">
        <ele>4.7</ele>
        <time>2019-08-15T15:44:40Z</time>
      </trkpt>
      <trkpt lat="41.3262870" lon="-8.7374630">
        <ele>4.4</ele>
        <time>2019-08-15T15:44:49Z</time>
      </trkpt>
      <trkpt lat="41.3264480" lon="-8.7373310">
        <ele>4.2</ele>
        <time>2019-08-15T15:44:54Z</time>
      </trkpt>
      <trkpt lat="41.3266970" lon="-8.7371920">
        <ele>4.1</ele>
        <time>2019-08-15T15:45:02Z</time>
      </trkpt>
      <trkpt lat="41.3267320" lon="-8.7372080">
        <ele>4.1</ele>
        <time>2019-08-15T15:45:03Z</time>
      </trkpt>
      <trkpt lat="41.3269580" lon="-8.7373650">
        <ele>4.3</ele>
        <time>2019-08-15T15:45:10Z</time>
      </trkpt>
      <trkpt lat="41.3272480" lon="-8.7375970">
        <ele>4.9</ele>
        <time>2019-08-15T15:45:19Z</time>
      </trkpt>
      <trkpt lat="41.3274100" lon="-8.7378180">
        <ele>5.4</ele>
        <time>2019-08-15T15:45:27Z</time>
      </trkpt>
      <trkpt lat="41.3275410" lon="-8.7379140">
        <ele>5.7</ele>
        <time>2019-08-15T15:45:32Z</time>
      </trkpt>
      <trkpt lat="41.3275730" lon="-8.7379180">
        <ele>5.7</ele>
        <time>2019-08-15T15:45:33Z</time>
      </trkpt>
      <trkpt lat="41.3276060" lon="-8.7379200">
        <ele>5.8</ele>
        <time>2019-08-15T15:45:34Z</time>
      </trkpt>
      <trkpt lat="41.3276390" lon="-8.7379230">
        <ele>5.8</ele>
        <time>2019-08-15T15:45:35Z</time>
      </trkpt>
      <trkpt lat="41.3276720" lon="-8.7379240">
        <ele>5.8</ele>
        <time>2019-08-15T15:45:36Z</time>
      </trkpt>
      <trkpt lat="41.3277100" lon="-8.7379240">
        <ele>5.8</ele>
        <time>2019-08-15T15:45:37Z</time>
      </trkpt>
      <trkpt lat="41.3277480" lon="-8.7379260">
        <ele>5.9</ele>
        <time>2019-08-15T15:45:38Z</time>
      </trkpt>
      <trkpt lat="41.3279280" lon="-8.7379720">
        <ele>5.8</ele>
        <time>2019-08-15T15:45:44Z</time>
      </trkpt>
      <trkpt lat="41.3281690" lon="-8.7381620">
        <ele>5.7</ele>
        <time>2019-08-15T15:45:52Z</time>
      </trkpt>
      <trkpt lat="41.3283760" lon="-8.7382970">
        <ele>5.8</ele>
        <time>2019-08-15T15:45:59Z</time>
      </trkpt>
      <trkpt lat="41.3286460" lon="-8.7384470">
        <ele>6.3</ele>
        <time>2019-08-15T15:46:09Z</time>
      </trkpt>
      <trkpt lat="41.3287880" lon="-8.7384870">
        <ele>6.7</ele>
        <time>2019-08-15T15:46:15Z</time>
      </trkpt>
      <trkpt lat="41.3290440" lon="-8.7385120">
        <ele>7.0</ele>
        <time>2019-08-15T15:46:23Z</time>
      </trkpt>
      <trkpt lat="41.3292220" lon="-8.7385560">
        <ele>6.9</ele>
        <time>2019-08-15T15:46:29Z</time>
      </trkpt>
      <trkpt lat="41.3293500" lon="-8.7385710">
        <ele>6.8</ele>
        <time>2019-08-15T15:46:35Z</time>
      </trkpt>
      <trkpt lat="41.3294620" lon="-8.7386050">
        <ele>6.7</ele>
        <time>2019-08-15T15:46:43Z</time>
      </trkpt>
      <trkpt lat="41.3296220" lon="-8.7386450">
        <ele>6.6</ele>
        <time>2019-08-15T15:46:50Z</time>
      </trkpt>
      <trkpt lat="41.3298870" lon="-8.7387020">
        <ele>6.2</ele>
        <time>2019-08-15T15:46:58Z</time>
      </trkpt>
      <trkpt lat="41.3301110" lon="-8.7387280">
        <ele>5.5</ele>
        <time>2019-08-15T15:47:06Z</time>
      </trkpt>
      <trkpt lat="41.3303040" lon="-8.7386930">
        <ele>5.6</ele>
        <time>2019-08-15T15:47:13Z</time>
      </trkpt>
      <trkpt lat="41.3305640" lon="-8.7387530">
        <ele>5.7</ele>
        <time>2019-08-15T15:47:19Z</time>
      </trkpt>
      <trkpt lat="41.3309570" lon="-8.7388430">
        <ele>5.4</ele>
        <time>2019-08-15T15:47:27Z</time>
      </trkpt>
      <trkpt lat="41.3314230" lon="-8.7389670">
        <ele>3.8</ele>
        <time>2019-08-15T15:47:37Z</time>
      </trkpt>
      <trkpt lat="41.3316860" lon="-8.7390340">
        <ele>3.3</ele>
        <time>2019-08-15T15:47:44Z</time>
      </trkpt>
      <trkpt lat="41.3317650" lon="-8.7390490">
        <ele>3.1</ele>
        <time>2019-08-15T15:47:46Z</time>
      </trkpt>
      <trkpt lat="41.3320590" lon="-8.7391340">
        <ele>2.8</ele>
        <time>2019-08-15T15:47:53Z</time>
      </trkpt>
      <trkpt lat="41.3322370" lon="-8.7391690">
        <ele>2.9</ele>
        <time>2019-08-15T15:47:59Z</time>
      </trkpt>
      <trkpt lat="41.3323340" lon="-8.7391700">
        <ele>3.2</ele>
        <time>2019-08-15T15:48:07Z</time>
      </trkpt>
      <trkpt lat="41.3323520" lon="-8.7390530">
        <ele>3.4</ele>
        <time>2019-08-15T15:48:13Z</time>
      </trkpt>
      <trkpt lat="41.3323880" lon="-8.7390060">
        <ele>3.5</ele>
        <time>2019-08-15T15:48:16Z</time>
      </trkpt>
      <trkpt lat="41.3324090" lon="-8.7390050">
        <ele>3.6</ele>
        <time>2019-08-15T15:48:17Z</time>
      </trkpt>
      <trkpt lat="41.3325150" lon="-8.7390220">
        <ele>3.6</ele>
        <time>2019-08-15T15:48:21Z</time>
      </trkpt>
      <trkpt lat="41.3325420" lon="-8.7390260">
        <ele>3.6</ele>
        <time>2019-08-15T15:48:22Z</time>
      </trkpt>
      <trkpt lat="41.3325660" lon="-8.7390300">
        <ele>3.6</ele>
        <time>2019-08-15T15:48:23Z</time>
      </trkpt>
      <trkpt lat="41.3326160" lon="-8.7390340">
        <ele>3.6</ele>
        <time>2019-08-15T15:48:25Z</time>
      </trkpt>
      <trkpt lat="41.3328400" lon="-8.7390660">
        <ele>3.6</ele>
        <time>2019-08-15T15:48:33Z</time>
      </trkpt>
      <trkpt lat="41.3331830" lon="-8.7391140">
        <ele>3.5</ele>
        <time>2019-08-15T15:48:44Z</time>
      </trkpt>
      <trkpt lat="41.3334780" lon="-8.7391540">
        <ele>2.9</ele>
        <time>2019-08-15T15:48:52Z</time>
      </trkpt>
      <trkpt lat="41.3336800" lon="-8.7392540">
        <ele>2.0</ele>
        <time>2019-08-15T15:48:58Z</time>
      </trkpt>
      <trkpt lat="41.3337910" lon="-8.7393150">
        <ele>2.0</ele>
        <time>2019-08-15T15:49:03Z</time>
      </trkpt>
      <trkpt lat="41.3339830" lon="-8.7394140">
        <ele>2.0</ele>
        <time>2019-08-15T15:49:09Z</time>
      </trkpt>
      <trkpt lat="41.3343630" lon="-8.7396050">
        <ele>2.6</ele>
        <time>2019-08-15T15:49:20Z</time>
      </trkpt>
      <trkpt lat="41.3344170" lon="-8.7395940">
        <ele>2.7</ele>
        <time>2019-08-15T15:49:22Z</time>
      </trkpt>
      <trkpt lat="41.3344410" lon="-8.7395820">
        <ele>2.7</ele>
        <time>2019-08-15T15:49:23Z</time>
      </trkpt>
      <trkpt lat="41.3345660" lon="-8.7395710">
        <ele>2.7</ele>
        <time>2019-08-15T15:49:29Z</time>
      </trkpt>
      <trkpt lat="41.3346810" lon="-8.7395970">
        <ele>2.7</ele>
        <time>2019-08-15T15:49:35Z</time>
      </trkpt>
      <trkpt lat="41.3348190" lon="-8.7396080">
        <ele>2.8</ele>
        <time>2019-08-15T15:49:42Z</time>
      </trkpt>
      <trkpt lat="41.3349450" lon="-8.7396220">
        <ele>3.0</ele>
        <time>2019-08-15T15:49:47Z</time>
      </trkpt>
      <trkpt lat="41.3351100" lon="-8.7397220">
        <ele>3.2</ele>
        <time>2019-08-15T15:49:53Z</time>
      </trkpt>
      <trkpt lat="41.3352240" lon="-8.7398060">
        <ele>3.6</ele>
        <time>2019-08-15T15:49:59Z</time>
      </trkpt>
      <trkpt lat="41.3353430" lon="-8.7398800">
        <ele>4.5</ele>
        <time>2019-08-15T15:50:03Z</time>
      </trkpt>
      <trkpt lat="41.3355990" lon="-8.7400500">
        <ele>5.9</ele>
        <time>2019-08-15T15:50:13Z</time>
      </trkpt>
      <trkpt lat="41.3357760" lon="-8.7401330">
        <ele>6.1</ele>
        <time>2019-08-15T15:50:21Z</time>
      </trkpt>
      <trkpt lat="41.3359070" lon="-8.7401990">
        <ele>5.9</ele>
        <time>2019-08-15T15:50:27Z</time>
      </trkpt>
      <trkpt lat="41.3359950" lon="-8.7403500">
        <ele>5.6</ele>
        <time>2019-08-15T15:50:32Z</time>
      </trkpt>
      <trkpt lat="41.3360490" lon="-8.7404150">
        <ele>5.6</ele>
        <time>2019-08-15T15:50:36Z</time>
      </trkpt>
      <trkpt lat="41.3361530" lon="-8.7404780">
        <ele>5.5</ele>
        <time>2019-08-15T15:50:42Z</time>
      </trkpt>
      <trkpt lat="41.3363460" lon="-8.7405390">
        <ele>5.3</ele>
        <time>2019-08-15T15:50:48Z</time>
      </trkpt>
      <trkpt lat="41.3366040" lon="-8.7405490">
        <ele>5.7</ele>
        <time>2019-08-15T15:50:55Z</time>
      </trkpt>
      <trkpt lat="41.3366460" lon="-8.7405510">
        <ele>5.8</ele>
        <time>2019-08-15T15:50:56Z</time>
      </trkpt>
      <trkpt lat="41.3366870" lon="-8.7405540">
        <ele>5.9</ele>
        <time>2019-08-15T15:50:57Z</time>
      </trkpt>
      <trkpt lat="41.3367270" lon="-8.7405580">
        <ele>6.0</ele>
        <time>2019-08-15T15:50:58Z</time>
      </trkpt>
      <trkpt lat="41.3367640" lon="-8.7405610">
        <ele>6.2</ele>
        <time>2019-08-15T15:50:59Z</time>
      </trkpt>
      <trkpt lat="41.3369010" lon="-8.7405630">
        <ele>6.6</ele>
        <time>2019-08-15T15:51:03Z</time>
      </trkpt>
      <trkpt lat="41.3370670" lon="-8.7405710">
        <ele>6.9</ele>
        <time>2019-08-15T15:51:10Z</time>
      </trkpt>
      <trkpt lat="41.3370970" lon="-8.7405810">
        <ele>6.9</ele>
        <time>2019-08-15T15:51:12Z</time>
      </trkpt>
      <trkpt lat="41.3371880" lon="-8.7405860">
        <ele>7.0</ele>
        <time>2019-08-15T15:51:16Z</time>
      </trkpt>
      <trkpt lat="41.3374090" lon="-8.7405990">
        <ele>7.0</ele>
        <time>2019-08-15T15:51:23Z</time>
      </trkpt>
      <trkpt lat="41.3374770" lon="-8.7405290">
        <ele>7.0</ele>
        <time>2019-08-15T15:51:28Z</time>
      </trkpt>
      <trkpt lat="41.3375140" lon="-8.7405390">
        <ele>6.9</ele>
        <time>2019-08-15T15:51:29Z</time>
      </trkpt>
      <trkpt lat="41.3375530" lon="-8.7405530">
        <ele>6.8</ele>
        <time>2019-08-15T15:51:30Z</time>
      </trkpt>
      <trkpt lat="41.3375910" lon="-8.7405720">
        <ele>6.8</ele>
        <time>2019-08-15T15:51:31Z</time>
      </trkpt>
      <trkpt lat="41.3376310" lon="-8.7405910">
        <ele>6.7</ele>
        <time>2019-08-15T15:51:32Z</time>
      </trkpt>
      <trkpt lat="41.3376750" lon="-8.7406100">
        <ele>6.6</ele>
        <time>2019-08-15T15:51:33Z</time>
      </trkpt>
      <trkpt lat="41.3377160" lon="-8.7406290">
        <ele>6.5</ele>
        <time>2019-08-15T15:51:34Z</time>
      </trkpt>
      <trkpt lat="41.3377530" lon="-8.7406520">
        <ele>6.4</ele>
        <time>2019-08-15T15:51:35Z</time>
      </trkpt>
      <trkpt lat="41.3378880" lon="-8.7407030">
        <ele>6.1</ele>
        <time>2019-08-15T15:51:38Z</time>
      </trkpt>
      <trkpt lat="41.3382150" lon="-8.7408270">
        <ele>5.3</ele>
        <time>2019-08-15T15:51:46Z</time>
      </trkpt>
      <trkpt lat="41.3383100" lon="-8.7407460">
        <ele>5.3</ele>
        <time>2019-08-15T15:51:50Z</time>
      </trkpt>
      <trkpt lat="41.3383440" lon="-8.7405590">
        <ele>5.4</ele>
        <time>2019-08-15T15:51:54Z</time>
      </trkpt>
      <trkpt lat="41.3384700" lon="-8.7401930">
        <ele>5.9</ele>
        <time>2019-08-15T15:52:02Z</time>
      </trkpt>
      <trkpt lat="41.3385150" lon="-8.7400990">
        <ele>6.0</ele>
        <time>2019-08-15T15:52:04Z</time>
      </trkpt>
      <trkpt lat="41.3385750" lon="-8.7399180">
        <ele>6.0</ele>
        <time>2019-08-15T15:52:08Z</time>
      </trkpt>
      <trkpt lat="41.3386500" lon="-8.7396300">
        <ele>6.4</ele>
        <time>2019-08-15T15:52:14Z</time>
      </trkpt>
      <trkpt lat="41.3386510" lon="-8.7394940">
        <ele>6.6</ele>
        <time>2019-08-15T15:52:17Z</time>
      </trkpt>
      <trkpt lat="41.3386490" lon="-8.7394420">
        <ele>6.7</ele>
        <time>2019-08-15T15:52:18Z</time>
      </trkpt>
      <trkpt lat="41.3386480" lon="-8.7393930">
        <ele>6.7</ele>
        <time>2019-08-15T15:52:19Z</time>
      </trkpt>
      <trkpt lat="41.3386470" lon="-8.7393490">
        <ele>6.8</ele>
        <time>2019-08-15T15:52:20Z</time>
      </trkpt>
      <trkpt lat="41.3386510" lon="-8.7393240">
        <ele>6.8</ele>
        <time>2019-08-15T15:52:21Z</time>
      </trkpt>
      <trkpt lat="41.3386210" lon="-8.7392390">
        <ele>6.8</ele>
        <time>2019-08-15T15:52:24Z</time>
      </trkpt>
      <trkpt lat="41.3385210" lon="-8.7390360">
        <ele>6.7</ele>
        <time>2019-08-15T15:52:31Z</time>
      </trkpt>
      <trkpt lat="41.3385510" lon="-8.7390410">
        <ele>6.7</ele>
        <time>2019-08-15T15:52:36Z</time>
      </trkpt>
      <trkpt lat="41.3386260" lon="-8.7392010">
        <ele>6.8</ele>
        <time>2019-08-15T15:52:41Z</time>
      </trkpt>
      <trkpt lat="41.3386920" lon="-8.7394720">
        <ele>6.6</ele>
        <time>2019-08-15T15:52:47Z</time>
      </trkpt>
      <trkpt lat="41.3386880" lon="-8.7395270">
        <ele>6.6</ele>
        <time>2019-08-15T15:52:48Z</time>
      </trkpt>
      <trkpt lat="41.3386480" lon="-8.7398670">
        <ele>5.8</ele>
        <time>2019-08-15T15:52:55Z</time>
      </trkpt>
      <trkpt lat="41.3387110" lon="-8.7400510">
        <ele>5.1</ele>
        <time>2019-08-15T15:53:00Z</time>
      </trkpt>
      <trkpt lat="41.3388510" lon="-8.7403570">
        <ele>4.1</ele>
        <time>2019-08-15T15:53:06Z</time>
      </trkpt>
      <trkpt lat="41.3388730" lon="-8.7404140">
        <ele>3.9</ele>
        <time>2019-08-15T15:53:07Z</time>
      </trkpt>
      <trkpt lat="41.3390550" lon="-8.7408430">
        <ele>2.6</ele>
        <time>2019-08-15T15:53:14Z</time>
      </trkpt>
      <trkpt lat="41.3392030" lon="-8.7412080">
        <ele>2.1</ele>
        <time>2019-08-15T15:53:20Z</time>
      </trkpt>
      <trkpt lat="41.3392240" lon="-8.7412620">
        <ele>2.0</ele>
        <time>2019-08-15T15:53:21Z</time>
      </trkpt>
      <trkpt lat="41.3392420" lon="-8.7413170">
        <ele>1.9</ele>
        <time>2019-08-15T15:53:22Z</time>
      </trkpt>
      <trkpt lat="41.3392920" lon="-8.7414190">
        <ele>1.7</ele>
        <time>2019-08-15T15:53:24Z</time>
      </trkpt>
      <trkpt lat="41.3393190" lon="-8.7414680">
        <ele>1.6</ele>
        <time>2019-08-15T15:53:25Z</time>
      </trkpt>
      <trkpt lat="41.3394080" lon="-8.7415940">
        <ele>1.4</ele>
        <time>2019-08-15T15:53:28Z</time>
      </trkpt>
      <trkpt lat="41.3394750" lon="-8.7416640">
        <ele>1.5</ele>
        <time>2019-08-15T15:53:32Z</time>
      </trkpt>
      <trkpt lat="41.3394920" lon="-8.7416460">
        <ele>1.5</ele>
        <time>2019-08-15T15:53:33Z</time>
      </trkpt>
      <trkpt lat="41.3395310" lon="-8.7416260">
        <ele>1.4</ele>
        <time>2019-08-15T15:53:35Z</time>
      </trkpt>
      <trkpt lat="41.3396900" lon="-8.7415340">
        <ele>1.2</ele>
        <time>2019-08-15T15:53:40Z</time>
      </trkpt>
      <trkpt lat="41.3399920" lon="-8.7413560">
        <ele>1.2</ele>
        <time>2019-08-15T15:53:47Z</time>
      </trkpt>
      <trkpt lat="41.3400370" lon="-8.7413240">
        <ele>1.2</ele>
        <time>2019-08-15T15:53:48Z</time>
      </trkpt>
      <trkpt lat="41.3400780" lon="-8.7412960">
        <ele>1.2</ele>
        <time>2019-08-15T15:53:49Z</time>
      </trkpt>
      <trkpt lat="41.3401230" lon="-8.7412700">
        <ele>1.2</ele>
        <time>2019-08-15T15:53:50Z</time>
      </trkpt>
      <trkpt lat="41.3401660" lon="-8.7412440">
        <ele>1.1</ele>
        <time>2019-08-15T15:53:51Z</time>
      </trkpt>
      <trkpt lat="41.3404710" lon="-8.7410750">
        <ele>0.9</ele>
        <time>2019-08-15T15:53:58Z</time>
      </trkpt>
      <trkpt lat="41.3408160" lon="-8.7408690">
        <ele>0.5</ele>
        <time>2019-08-15T15:54:06Z</time>
      </trkpt>
      <trkpt lat="41.3412560" lon="-8.7406150">
        <ele>2.5</ele>
        <time>2019-08-15T15:54:17Z</time>
      </trkpt>
      <trkpt lat="41.3414850" lon="-8.7405040">
        <ele>3.4</ele>
        <time>2019-08-15T15:54:24Z</time>
      </trkpt>
      <trkpt lat="41.3416650" lon="-8.7403850">
        <ele>3.5</ele>
        <time>2019-08-15T15:54:29Z</time>
      </trkpt>
      <trkpt lat="41.3416850" lon="-8.7403420">
        <ele>3.7</ele>
        <time>2019-08-15T15:54:30Z</time>
      </trkpt>
      <trkpt lat="41.3418050" lon="-8.7400600">
        <ele>5.3</ele>
        <time>2019-08-15T15:54:37Z</time>
      </trkpt>
      <trkpt lat="41.3418360" lon="-8.7399830">
        <ele>5.9</ele>
        <time>2019-08-15T15:54:40Z</time>
      </trkpt>
      <trkpt lat="41.3418480" lon="-8.7399660">
        <ele>6.1</ele>
        <time>2019-08-15T15:54:41Z</time>
      </trkpt>
      <trkpt lat="41.3418690" lon="-8.7399530">
        <ele>6.4</ele>
        <time>2019-08-15T15:54:42Z</time>
      </trkpt>
      <trkpt lat="41.3418890" lon="-8.7399480">
        <ele>6.6</ele>
        <time>2019-08-15T15:54:43Z</time>
      </trkpt>
      <trkpt lat="41.3419050" lon="-8.7399570">
        <ele>6.8</ele>
        <time>2019-08-15T15:54:44Z</time>
      </trkpt>
      <trkpt lat="41.3419400" lon="-8.7400140">
        <ele>8.0</ele>
        <time>2019-08-15T15:54:46Z</time>
      </trkpt>
      <trkpt lat="41.3419530" lon="-8.7400510">
        <ele>8.2</ele>
        <time>2019-08-15T15:54:47Z</time>
      </trkpt>
      <trkpt lat="41.3419670" lon="-8.7400890">
        <ele>8.4</ele>
        <time>2019-08-15T15:54:48Z</time>
      </trkpt>
      <trkpt lat="41.3419800" lon="-8.7401350">
        <ele>8.6</ele>
        <time>2019-08-15T15:54:49Z</time>
      </trkpt>
      <trkpt lat="41.3419910" lon="-8.7401730">
        <ele>8.8</ele>
        <time>2019-08-15T15:54:50Z</time>
      </trkpt>
      <trkpt lat="41.3420000" lon="-8.7402090">
        <ele>8.9</ele>
        <time>2019-08-15T15:54:51Z</time>
      </trkpt>
      <trkpt lat="41.3420120" lon="-8.7402430">
        <ele>9.1</ele>
        <time>2019-08-15T15:54:52Z</time>
      </trkpt>
      <trkpt lat="41.3421040" lon="-8.7404830">
        <ele>9.9</ele>
        <time>2019-08-15T15:55:00Z</time>
      </trkpt>
      <trkpt lat="41.3421080" lon="-8.7405010">
        <ele>9.9</ele>
        <time>2019-08-15T15:55:02Z</time>
      </trkpt>
      <trkpt lat="41.3421100" lon="-8.7405200">
        <ele>9.9</ele>
        <time>2019-08-15T15:56:41Z</time>
      </trkpt>
      <trkpt lat="41.3421250" lon="-8.7405360">
        <ele>9.9</ele>
        <time>2019-08-15T15:56:42Z</time>
      </trkpt>
      <trkpt lat="41.3422510" lon="-8.7406470">
        <ele>9.9</ele>
        <time>2019-08-15T15:56:46Z</time>
      </trkpt>
      <trkpt lat="41.3424270" lon="-8.7408390">
        <ele>9.6</ele>
        <time>2019-08-15T15:56:53Z</time>
      </trkpt>
      <trkpt lat="41.3426150" lon="-8.7409820">
        <ele>9.1</ele>
        <time>2019-08-15T15:57:00Z</time>
      </trkpt>
      <trkpt lat="41.3427260" lon="-8.7410520">
        <ele>8.6</ele>
        <time>2019-08-15T15:57:03Z</time>
      </trkpt>
      <trkpt lat="41.3428770" lon="-8.7410960">
        <ele>7.7</ele>
        <time>2019-08-15T15:57:06Z</time>
      </trkpt>
      <trkpt lat="41.3429360" lon="-8.7410980">
        <ele>7.3</ele>
        <time>2019-08-15T15:57:07Z</time>
      </trkpt>
      <trkpt lat="41.3430020" lon="-8.7410970">
        <ele>6.7</ele>
        <time>2019-08-15T15:57:08Z</time>
      </trkpt>
      <trkpt lat="41.3430670" lon="-8.7410940">
        <ele>6.3</ele>
        <time>2019-08-15T15:57:09Z</time>
      </trkpt>
      <trkpt lat="41.3431380" lon="-8.7410870">
        <ele>5.8</ele>
        <time>2019-08-15T15:57:10Z</time>
      </trkpt>
      <trkpt lat="41.3432030" lon="-8.7410760">
        <ele>5.4</ele>
        <time>2019-08-15T15:57:11Z</time>
      </trkpt>
      <trkpt lat="41.3432650" lon="-8.7410720">
        <ele>5.1</ele>
        <time>2019-08-15T15:57:12Z</time>
      </trkpt>
      <trkpt lat="41.3433220" lon="-8.7410720">
        <ele>4.8</ele>
        <time>2019-08-15T15:57:13Z</time>
      </trkpt>
      <trkpt lat="41.3433800" lon="-8.7410710">
        <ele>4.5</ele>
        <time>2019-08-15T15:57:14Z</time>
      </trkpt>
      <trkpt lat="41.3434330" lon="-8.7410680">
        <ele>4.3</ele>
        <time>2019-08-15T15:57:15Z</time>
      </trkpt>
      <trkpt lat="41.3434880" lon="-8.7410670">
        <ele>4.2</ele>
        <time>2019-08-15T15:57:16Z</time>
      </trkpt>
      <trkpt lat="41.3439810" lon="-8.7410550">
        <ele>3.6</ele>
        <time>2019-08-15T15:57:25Z</time>
      </trkpt>
      <trkpt lat="41.3444150" lon="-8.7410220">
        <ele>3.9</ele>
        <time>2019-08-15T15:57:33Z</time>
      </trkpt>
      <trkpt lat="41.3444710" lon="-8.7409880">
        <ele>4.0</ele>
        <time>2019-08-15T15:57:34Z</time>
      </trkpt>
      <trkpt lat="41.3445870" lon="-8.7407940">
        <ele>4.3</ele>
        <time>2019-08-15T15:57:37Z</time>
      </trkpt>
      <trkpt lat="41.3446190" lon="-8.7407320">
        <ele>4.4</ele>
        <time>2019-08-15T15:57:38Z</time>
      </trkpt>
      <trkpt lat="41.3447900" lon="-8.7404720">
        <ele>5.0</ele>
        <time>2019-08-15T15:57:43Z</time>
      </trkpt>
      <trkpt lat="41.3449820" lon="-8.7402660">
        <ele>5.3</ele>
        <time>2019-08-15T15:57:49Z</time>
      </trkpt>
      <trkpt lat="41.3450270" lon="-8.7402650">
        <ele>5.3</ele>
        <time>2019-08-15T15:57:50Z</time>
      </trkpt>
      <trkpt lat="41.3451170" lon="-8.7403150">
        <ele>4.7</ele>
        <time>2019-08-15T15:57:52Z</time>
      </trkpt>
      <trkpt lat="41.3454920" lon="-8.7404000">
        <ele>4.7</ele>
        <time>2019-08-15T15:57:59Z</time>
      </trkpt>
      <trkpt lat="41.3459180" lon="-8.7404430">
        <ele>4.4</ele>
        <time>2019-08-15T15:58:06Z</time>
      </trkpt>
      <trkpt lat="41.3463000" lon="-8.7404790">
        <ele>3.7</ele>
        <time>2019-08-15T15:58:13Z</time>
      </trkpt>
      <trkpt lat="41.3466150" lon="-8.7404980">
        <ele>3.7</ele>
        <time>2019-08-15T15:58:18Z</time>
      </trkpt>
      <trkpt lat="41.3471650" lon="-8.7405430">
        <ele>3.5</ele>
        <time>2019-08-15T15:58:27Z</time>
      </trkpt>
      <trkpt lat="41.3472270" lon="-8.7405470">
        <ele>3.4</ele>
        <time>2019-08-15T15:58:28Z</time>
      </trkpt>
      <trkpt lat="41.3477140" lon="-8.7405480">
        <ele>1.5</ele>
        <time>2019-08-15T15:58:36Z</time>
      </trkpt>
      <trkpt lat="41.3479400" lon="-8.7405570">
        <ele>1.5</ele>
        <time>2019-08-15T15:58:40Z</time>
      </trkpt>
      <trkpt lat="41.3479970" lon="-8.7405580">
        <ele>1.5</ele>
        <time>2019-08-15T15:58:41Z</time>
      </trkpt>
      <trkpt lat="41.3480550" lon="-8.7405600">
        <ele>1.5</ele>
        <time>2019-08-15T15:58:42Z</time>
      </trkpt>
      <trkpt lat="41.3481080" lon="-8.7405610">
        <ele>1.5</ele>
        <time>2019-08-15T15:58:43Z</time>
      </trkpt>
      <trkpt lat="41.3481650" lon="-8.7405660">
        <ele>1.5</ele>
        <time>2019-08-15T15:58:44Z</time>
      </trkpt>
      <trkpt lat="41.3484870" lon="-8.7405960">
        <ele>1.5</ele>
        <time>2019-08-15T15:58:50Z</time>
      </trkpt>
      <trkpt lat="41.3485420" lon="-8.7405870">
        <ele>1.5</ele>
        <time>2019-08-15T15:58:51Z</time>
      </trkpt>
      <trkpt lat="41.3489450" lon="-8.7404070">
        <ele>1.2</ele>
        <time>2019-08-15T15:58:59Z</time>
      </trkpt>
      <trkpt lat="41.3492350" lon="-8.7402390">
        <ele>1.2</ele>
        <time>2019-08-15T15:59:06Z</time>
      </trkpt>
      <trkpt lat="41.3495520" lon="-8.7400430">
        <ele>1.2</ele>
        <time>2019-08-15T15:59:14Z</time>
      </trkpt>
      <trkpt lat="41.3499110" lon="-8.7398080">
        <ele>1.3</ele>
        <time>2019-08-15T15:59:23Z</time>
      </trkpt>
      <trkpt lat="41.3499850" lon="-8.7397350">
        <ele>1.4</ele>
        <time>2019-08-15T15:59:25Z</time>
      </trkpt>
      <trkpt lat="41.3500320" lon="-8.7396360">
        <ele>1.6</ele>
        <time>2019-08-15T15:59:27Z</time>
      </trkpt>
      <trkpt lat="41.3500600" lon="-8.7395970">
        <ele>1.7</ele>
        <time>2019-08-15T15:59:28Z</time>
      </trkpt>
      <trkpt lat="41.3500910" lon="-8.7395550">
        <ele>1.8</ele>
        <time>2019-08-15T15:59:29Z</time>
      </trkpt>
      <trkpt lat="41.3501200" lon="-8.7395120">
        <ele>1.8</ele>
        <time>2019-08-15T15:59:30Z</time>
      </trkpt>
      <trkpt lat="41.3501470" lon="-8.7394740">
        <ele>1.9</ele>
        <time>2019-08-15T15:59:31Z</time>
      </trkpt>
      <trkpt lat="41.3501750" lon="-8.7394340">
        <ele>2.0</ele>
        <time>2019-08-15T15:59:32Z</time>
      </trkpt>
      <trkpt lat="41.3503460" lon="-8.7391260">
        <ele>2.8</ele>
        <time>2019-08-15T15:59:39Z</time>
      </trkpt>
      <trkpt lat="41.3503770" lon="-8.7390200">
        <ele>3.5</ele>
        <time>2019-08-15T15:59:43Z</time>
      </trkpt>
      <trkpt lat="41.3504480" lon="-8.7390350">
        <ele>3.1</ele>
        <time>2019-08-15T15:59:47Z</time>
      </trkpt>
      <trkpt lat="41.3504710" lon="-8.7390460">
        <ele>3.0</ele>
        <time>2019-08-15T15:59:48Z</time>
      </trkpt>
      <trkpt lat="41.3506290" lon="-8.7391530">
        <ele>2.0</ele>
        <time>2019-08-15T15:59:53Z</time>
      </trkpt>
      <trkpt lat="41.3511150" lon="-8.7394170">
        <ele>2.5</ele>
        <time>2019-08-15T16:00:04Z</time>
      </trkpt>
      <trkpt lat="41.3515620" lon="-8.7396320">
        <ele>3.3</ele>
        <time>2019-08-15T16:00:13Z</time>
      </trkpt>
      <trkpt lat="41.3516130" lon="-8.7396570">
        <ele>3.3</ele>
        <time>2019-08-15T16:00:14Z</time>
      </trkpt>
      <trkpt lat="41.3516620" lon="-8.7396830">
        <ele>3.8</ele>
        <time>2019-08-15T16:00:15Z</time>
      </trkpt>
      <trkpt lat="41.3517120" lon="-8.7397050">
        <ele>4.3</ele>
        <time>2019-08-15T16:00:16Z</time>
      </trkpt>
      <trkpt lat="41.3517610" lon="-8.7397310">
        <ele>4.8</ele>
        <time>2019-08-15T16:00:17Z</time>
      </trkpt>
      <trkpt lat="41.3518100" lon="-8.7397560">
        <ele>5.4</ele>
        <time>2019-08-15T16:00:18Z</time>
      </trkpt>
      <trkpt lat="41.3519600" lon="-8.7398460">
        <ele>6.9</ele>
        <time>2019-08-15T16:00:22Z</time>
      </trkpt>
      <trkpt lat="41.3519750" lon="-8.7399660">
        <ele>6.9</ele>
        <time>2019-08-15T16:00:27Z</time>
      </trkpt>
      <trkpt lat="41.3518400" lon="-8.7400030">
        <ele>4.1</ele>
        <time>2019-08-15T16:00:33Z</time>
      </trkpt>
      <trkpt lat="41.3518030" lon="-8.7400250">
        <ele>4.1</ele>
        <time>2019-08-15T16:00:34Z</time>
      </trkpt>
      <trkpt lat="41.3517890" lon="-8.7400320">
        <ele>4.1</ele>
        <time>2019-08-15T16:00:35Z</time>
      </trkpt>
      <trkpt lat="41.3517660" lon="-8.7400450">
        <ele>4.1</ele>
        <time>2019-08-15T16:00:36Z</time>
      </trkpt>
      <trkpt lat="41.3517420" lon="-8.7400570">
        <ele>4.1</ele>
        <time>2019-08-15T16:00:37Z</time>
      </trkpt>
      <trkpt lat="41.3517180" lon="-8.7400740">
        <ele>4.1</ele>
        <time>2019-08-15T16:00:38Z</time>
      </trkpt>
      <trkpt lat="41.3516890" lon="-8.7401030">
        <ele>4.1</ele>
        <time>2019-08-15T16:00:39Z</time>
      </trkpt>
      <trkpt lat="41.3516680" lon="-8.7401350">
        <ele>4.1</ele>
        <time>2019-08-15T16:00:40Z</time>
      </trkpt>
      <trkpt lat="41.3516510" lon="-8.7401700">
        <ele>4.1</ele>
        <time>2019-08-15T16:00:41Z</time>
      </trkpt>
      <trkpt lat="41.3516300" lon="-8.7402110">
        <ele>4.1</ele>
        <time>2019-08-15T16:00:42Z</time>
      </trkpt>
      <trkpt lat="41.3516240" lon="-8.7402690">
        <ele>4.1</ele>
        <time>2019-08-15T16:00:43Z</time>
      </trkpt>
      <trkpt lat="41.3516030" lon="-8.7403660">
        <ele>4.1</ele>
        <time>2019-08-15T16:00:45Z</time>
      </trkpt>
      <trkpt lat="41.3515140" lon="-8.7407040">
        <ele>4.1</ele>
        <time>2019-08-15T16:00:52Z</time>
      </trkpt>
      <trkpt lat="41.3514090" lon="-8.7407340">
        <ele>4.1</ele>
        <time>2019-08-15T16:00:57Z</time>
      </trkpt>
      <trkpt lat="41.3513930" lon="-8.7408730">
        <ele>4.1</ele>
        <time>2019-08-15T16:01:01Z</time>
      </trkpt>
      <trkpt lat="41.3513410" lon="-8.7410900">
        <ele>4.2</ele>
        <time>2019-08-15T16:01:06Z</time>
      </trkpt>
      <trkpt lat="41.3512980" lon="-8.7411810">
        <ele>4.2</ele>
        <time>2019-08-15T16:01:08Z</time>
      </trkpt>
      <trkpt lat="41.3512340" lon="-8.7412370">
        <ele>4.3</ele>
        <time>2019-08-15T16:01:12Z</time>
      </trkpt>
      <trkpt lat="41.3512660" lon="-8.7412030">
        <ele>4.3</ele>
        <time>2019-08-15T16:01:25Z</time>
      </trkpt>
      <trkpt lat="41.3512880" lon="-8.7411650">
        <ele>4.3</ele>
        <time>2019-08-15T16:01:26Z</time>
      </trkpt>
      <trkpt lat="41.3512950" lon="-8.7409930">
        <ele>4.2</ele>
        <time>2019-08-15T16:01:29Z</time>
      </trkpt>
      <trkpt lat="41.3513060" lon="-8.7409310">
        <ele>4.2</ele>
        <time>2019-08-15T16:01:30Z</time>
      </trkpt>
      <trkpt lat="41.3513600" lon="-8.7406200">
        <ele>4.1</ele>
        <time>2019-08-15T16:01:35Z</time>
      </trkpt>
      <trkpt lat="41.3514280" lon="-8.7403600">
        <ele>4.1</ele>
        <time>2019-08-15T16:01:39Z</time>
      </trkpt>
      <trkpt lat="41.3514970" lon="-8.7402290">
        <ele>4.1</ele>
        <time>2019-08-15T16:01:41Z</time>
      </trkpt>
      <trkpt lat="41.3515890" lon="-8.7398650">
        <ele>4.1</ele>
        <time>2019-08-15T16:01:47Z</time>
      </trkpt>
      <trkpt lat="41.3516860" lon="-8.7398760">
        <ele>4.1</ele>
        <time>2019-08-15T16:01:51Z</time>
      </trkpt>
      <trkpt lat="41.3517590" lon="-8.7400470">
        <ele>4.1</ele>
        <time>2019-08-15T16:01:56Z</time>
      </trkpt>
      <trkpt lat="41.3517850" lon="-8.7400300">
        <ele>4.1</ele>
        <time>2019-08-15T16:01:57Z</time>
      </trkpt>
      <trkpt lat="41.3517840" lon="-8.7400280">
        <ele>4.1</ele>
        <time>2019-08-15T16:02:23Z</time>
      </trkpt>
      <trkpt lat="41.3517420" lon="-8.7400480">
        <ele>4.1</ele>
        <time>2019-08-15T16:02:25Z</time>
      </trkpt>
      <trkpt lat="41.3516210" lon="-8.7403060">
        <ele>4.1</ele>
        <time>2019-08-15T16:02:32Z</time>
      </trkpt>
      <trkpt lat="41.3515900" lon="-8.7404490">
        <ele>4.1</ele>
        <time>2019-08-15T16:02:35Z</time>
      </trkpt>
      <trkpt lat="41.3515570" lon="-8.7405480">
        <ele>4.1</ele>
        <time>2019-08-15T16:02:37Z</time>
      </trkpt>
      <trkpt lat="41.3514130" lon="-8.7407180">
        <ele>4.1</ele>
        <time>2019-08-15T16:02:44Z</time>
      </trkpt>
      <trkpt lat="41.3513340" lon="-8.7409480">
        <ele>4.2</ele>
        <time>2019-08-15T16:02:50Z</time>
      </trkpt>
      <trkpt lat="41.3511830" lon="-8.7413000">
        <ele>4.5</ele>
        <time>2019-08-15T16:02:58Z</time>
      </trkpt>
      <trkpt lat="41.3510290" lon="-8.7414480">
        <ele>4.8</ele>
        <time>2019-08-15T16:03:04Z</time>
      </trkpt>
      <trkpt lat="41.3510080" lon="-8.7414610">
        <ele>5.0</ele>
        <time>2019-08-15T16:03:05Z</time>
      </trkpt>
      <trkpt lat="41.3509820" lon="-8.7414810">
        <ele>5.0</ele>
        <time>2019-08-15T16:03:06Z</time>
      </trkpt>
      <trkpt lat="41.3509570" lon="-8.7415060">
        <ele>5.1</ele>
        <time>2019-08-15T16:03:07Z</time>
      </trkpt>
      <trkpt lat="41.3509350" lon="-8.7415350">
        <ele>5.1</ele>
        <time>2019-08-15T16:03:08Z</time>
      </trkpt>
      <trkpt lat="41.3509140" lon="-8.7415670">
        <ele>5.2</ele>
        <time>2019-08-15T16:03:09Z</time>
      </trkpt>
      <trkpt lat="41.3508750" lon="-8.7416230">
        <ele>5.2</ele>
        <time>2019-08-15T16:03:11Z</time>
      </trkpt>
      <trkpt lat="41.3507190" lon="-8.7418500">
        <ele>5.5</ele>
        <time>2019-08-15T16:03:18Z</time>
      </trkpt>
      <trkpt lat="41.3507490" lon="-8.7418690">
        <ele>5.5</ele>
        <time>2019-08-15T16:03:20Z</time>
      </trkpt>
      <trkpt lat="41.3507720" lon="-8.7418400">
        <ele>5.6</ele>
        <time>2019-08-15T16:03:21Z</time>
      </trkpt>
      <trkpt lat="41.3508340" lon="-8.7418200">
        <ele>5.6</ele>
        <time>2019-08-15T16:03:24Z</time>
      </trkpt>
      <trkpt lat="41.3508720" lon="-8.7418920">
        <ele>5.7</ele>
        <time>2019-08-15T16:03:26Z</time>
      </trkpt>
      <trkpt lat="41.3508670" lon="-8.7421970">
        <ele>6.0</ele>
        <time>2019-08-15T16:03:32Z</time>
      </trkpt>
      <trkpt lat="41.3508540" lon="-8.7424550">
        <ele>6.4</ele>
        <time>2019-08-15T16:03:37Z</time>
      </trkpt>
      <trkpt lat="41.3508440" lon="-8.7425550">
        <ele>6.4</ele>
        <time>2019-08-15T16:03:39Z</time>
      </trkpt>
      <trkpt lat="41.3508210" lon="-8.7426050">
        <ele>6.4</ele>
        <time>2019-08-15T16:03:40Z</time>
      </trkpt>
      <trkpt lat="41.3507870" lon="-8.7426950">
        <ele>6.3</ele>
        <time>2019-08-15T16:03:42Z</time>
      </trkpt>
      <trkpt lat="41.3506900" lon="-8.7430120">
        <ele>6.0</ele>
        <time>2019-08-15T16:03:48Z</time>
      </trkpt>
      <trkpt lat="41.3505570" lon="-8.7434840">
        <ele>6.2</ele>
        <time>2019-08-15T16:03:56Z</time>
      </trkpt>
      <trkpt lat="41.3504490" lon="-8.7436680">
        <ele>6.2</ele>
        <time>2019-08-15T16:04:00Z</time>
      </trkpt>
      <trkpt lat="41.3504090" lon="-8.7436820">
        <ele>6.1</ele>
        <time>2019-08-15T16:04:01Z</time>
      </trkpt>
      <trkpt lat="41.3502930" lon="-8.7436600">
        <ele>6.0</ele>
        <time>2019-08-15T16:04:04Z</time>
      </trkpt>
      <trkpt lat="41.3502590" lon="-8.7436580">
        <ele>6.0</ele>
        <time>2019-08-15T16:04:05Z</time>
      </trkpt>
      <trkpt lat="41.3500680" lon="-8.7436790">
        <ele>5.8</ele>
        <time>2019-08-15T16:04:11Z</time>
      </trkpt>
      <trkpt lat="41.3498570" lon="-8.7436470">
        <ele>5.6</ele>
        <time>2019-08-15T16:04:17Z</time>
      </trkpt>
      <trkpt lat="41.3498500" lon="-8.7435910">
        <ele>5.6</ele>
        <time>2019-08-15T16:04:20Z</time>
      </trkpt>
      <trkpt lat="41.3498520" lon="-8.7435950">
        <ele>5.6</ele>
        <time>2019-08-15T16:06:38Z</time>
      </trkpt>
      <trkpt lat="41.3498090" lon="-8.7436220">
        <ele>5.6</ele>
        <time>2019-08-15T16:06:40Z</time>
      </trkpt>
      <trkpt lat="41.3497700" lon="-8.7436300">
        <ele>5.6</ele>
        <time>2019-08-15T16:06:41Z</time>
      </trkpt>
      <trkpt lat="41.3496220" lon="-8.7435950">
        <ele>5.0</ele>
        <time>2019-08-15T16:06:45Z</time>
      </trkpt>
      <trkpt lat="41.3495430" lon="-8.7435700">
        <ele>4.9</ele>
        <time>2019-08-15T16:06:47Z</time>
      </trkpt>
      <trkpt lat="41.3493820" lon="-8.7436200">
        <ele>5.1</ele>
        <time>2019-08-15T16:06:51Z</time>
      </trkpt>
      <trkpt lat="41.3493010" lon="-8.7436570">
        <ele>5.2</ele>
        <time>2019-08-15T16:06:53Z</time>
      </trkpt>
      <trkpt lat="41.3492130" lon="-8.7437730">
        <ele>5.4</ele>
        <time>2019-08-15T16:06:56Z</time>
      </trkpt>
      <trkpt lat="41.3492250" lon="-8.7439390">
        <ele>5.4</ele>
        <time>2019-08-15T16:06:59Z</time>
      </trkpt>
      <trkpt lat="41.3492970" lon="-8.7440890">
        <ele>5.4</ele>
        <time>2019-08-15T16:07:02Z</time>
      </trkpt>
      <trkpt lat="41.3493470" lon="-8.7441850">
        <ele>5.4</ele>
        <time>2019-08-15T16:07:04Z</time>
      </trkpt>
      <trkpt lat="41.3494320" lon="-8.7443900">
        <ele>5.3</ele>
        <time>2019-08-15T16:07:08Z</time>
      </trkpt>
      <trkpt lat="41.3494230" lon="-8.7444880">
        <ele>5.1</ele>
        <time>2019-08-15T16:07:10Z</time>
      </trkpt>
      <trkpt lat="41.3493320" lon="-8.7446230">
        <ele>4.6</ele>
        <time>2019-08-15T16:07:13Z</time>
      </trkpt>
      <trkpt lat="41.3492100" lon="-8.7448110">
        <ele>4.3</ele>
        <time>2019-08-15T16:07:17Z</time>
      </trkpt>
      <trkpt lat="41.3491140" lon="-8.7449520">
        <ele>4.1</ele>
        <time>2019-08-15T16:07:20Z</time>
      </trkpt>
      <trkpt lat="41.3487960" lon="-8.7454150">
        <ele>4.6</ele>
        <time>2019-08-15T16:07:30Z</time>
      </trkpt>
      <trkpt lat="41.3485820" lon="-8.7457060">
        <ele>4.9</ele>
        <time>2019-08-15T16:07:38Z</time>
      </trkpt>
      <trkpt lat="41.3485490" lon="-8.7457610">
        <ele>5.0</ele>
        <time>2019-08-15T16:07:43Z</time>
      </trkpt>
      <trkpt lat="41.3485540" lon="-8.7457750">
        <ele>5.0</ele>
        <time>2019-08-15T16:07:54Z</time>
      </trkpt>
      <trkpt lat="41.3485360" lon="-8.7457680">
        <ele>5.1</ele>
        <time>2019-08-15T16:07:55Z</time>
      </trkpt>
      <trkpt lat="41.3484900" lon="-8.7457620">
        <ele>5.2</ele>
        <time>2019-08-15T16:07:56Z</time>
      </trkpt>
      <trkpt lat="41.3483460" lon="-8.7457020">
        <ele>5.2</ele>
        <time>2019-08-15T16:07:59Z</time>
      </trkpt>
      <trkpt lat="41.3482570" lon="-8.7456490">
        <ele>5.2</ele>
        <time>2019-08-15T16:08:01Z</time>
      </trkpt>
      <trkpt lat="41.3479260" lon="-8.7454830">
        <ele>5.2</ele>
        <time>2019-08-15T16:08:08Z</time>
      </trkpt>
      <trkpt lat="41.3474730" lon="-8.7451690">
        <ele>4.9</ele>
        <time>2019-08-15T16:08:17Z</time>
      </trkpt>
      <trkpt lat="41.3473800" lon="-8.7451190">
        <ele>4.8</ele>
        <time>2019-08-15T16:08:19Z</time>
      </trkpt>
      <trkpt lat="41.3471730" lon="-8.7450690">
        <ele>4.6</ele>
        <time>2019-08-15T16:08:23Z</time>
      </trkpt>
      <trkpt lat="41.3469570" lon="-8.7450910">
        <ele>4.1</ele>
        <time>2019-08-15T16:08:27Z</time>
      </trkpt>
      <trkpt lat="41.3468470" lon="-8.7451130">
        <ele>4.0</ele>
        <time>2019-08-15T16:08:29Z</time>
      </trkpt>
      <trkpt lat="41.3463750" lon="-8.7452010">
        <ele>3.5</ele>
        <time>2019-08-15T16:08:37Z</time>
      </trkpt>
      <trkpt lat="41.3458720" lon="-8.7452580">
        <ele>3.1</ele>
        <time>2019-08-15T16:08:45Z</time>
      </trkpt>
      <trkpt lat="41.3453550" lon="-8.7453290">
        <ele>3.1</ele>
        <time>2019-08-15T16:08:53Z</time>
      </trkpt>
      <trkpt lat="41.3447830" lon="-8.7454210">
        <ele>3.1</ele>
        <time>2019-08-15T16:09:02Z</time>
      </trkpt>
      <trkpt lat="41.3446520" lon="-8.7454460">
        <ele>3.1</ele>
        <time>2019-08-15T16:09:04Z</time>
      </trkpt>
      <trkpt lat="41.3440660" lon="-8.7455710">
        <ele>4.1</ele>
        <time>2019-08-15T16:09:13Z</time>
      </trkpt>
      <trkpt lat="41.3434730" lon="-8.7456950">
        <ele>3.2</ele>
        <time>2019-08-15T16:09:22Z</time>
      </trkpt>
      <trkpt lat="41.3430650" lon="-8.7459780">
        <ele>3.5</ele>
        <time>2019-08-15T16:09:29Z</time>
      </trkpt>
      <trkpt lat="41.3427360" lon="-8.7463520">
        <ele>3.3</ele>
        <time>2019-08-15T16:09:36Z</time>
      </trkpt>
      <trkpt lat="41.3425350" lon="-8.7467400">
        <ele>2.6</ele>
        <time>2019-08-15T16:09:42Z</time>
      </trkpt>
      <trkpt lat="41.3423220" lon="-8.7473630">
        <ele>1.6</ele>
        <time>2019-08-15T16:09:51Z</time>
      </trkpt>
      <trkpt lat="41.3420960" lon="-8.7479940">
        <ele>1.8</ele>
        <time>2019-08-15T16:10:01Z</time>
      </trkpt>
      <trkpt lat="41.3418470" lon="-8.7486580">
        <ele>3.2</ele>
        <time>2019-08-15T16:10:12Z</time>
      </trkpt>
      <trkpt lat="41.3417830" lon="-8.7488350">
        <ele>3.5</ele>
        <time>2019-08-15T16:10:15Z</time>
      </trkpt>
      <trkpt lat="41.3416110" lon="-8.7493380">
        <ele>4.3</ele>
        <time>2019-08-15T16:10:23Z</time>
      </trkpt>
      <trkpt lat="41.3414330" lon="-8.7498470">
        <ele>5.3</ele>
        <time>2019-08-15T16:10:32Z</time>
      </trkpt>
      <trkpt lat="41.3413950" lon="-8.7499540">
        <ele>5.3</ele>
        <time>2019-08-15T16:10:34Z</time>
      </trkpt>
      <trkpt lat="41.3413790" lon="-8.7500080">
        <ele>5.2</ele>
        <time>2019-08-15T16:10:35Z</time>
      </trkpt>
      <trkpt lat="41.3413680" lon="-8.7500640">
        <ele>5.2</ele>
        <time>2019-08-15T16:10:36Z</time>
      </trkpt>
      <trkpt lat="41.3413620" lon="-8.7501220">
        <ele>5.2</ele>
        <time>2019-08-15T16:10:37Z</time>
      </trkpt>
      <trkpt lat="41.3413590" lon="-8.7501810">
        <ele>5.1</ele>
        <time>2019-08-15T16:10:38Z</time>
      </trkpt>
      <trkpt lat="41.3413610" lon="-8.7502390">
        <ele>5.1</ele>
        <time>2019-08-15T16:10:39Z</time>
      </trkpt>
      <trkpt lat="41.3414340" lon="-8.7505130">
        <ele>4.6</ele>
        <time>2019-08-15T16:10:44Z</time>
      </trkpt>
      <trkpt lat="41.3415980" lon="-8.7506720">
        <ele>4.8</ele>
        <time>2019-08-15T16:10:49Z</time>
      </trkpt>
      <trkpt lat="41.3416350" lon="-8.7506940">
        <ele>4.9</ele>
        <time>2019-08-15T16:10:50Z</time>
      </trkpt>
      <trkpt lat="41.3418450" lon="-8.7507960">
        <ele>5.7</ele>
        <time>2019-08-15T16:10:56Z</time>
      </trkpt>
      <trkpt lat="41.3419900" lon="-8.7508770">
        <ele>6.3</ele>
        <time>2019-08-15T16:11:02Z</time>
      </trkpt>
      <trkpt lat="41.3420060" lon="-8.7509100">
        <ele>6.3</ele>
        <time>2019-08-15T16:11:04Z</time>
      </trkpt>
      <trkpt lat="41.3419960" lon="-8.7509480">
        <ele>6.4</ele>
        <time>2019-08-15T16:11:05Z</time>
      </trkpt>
      <trkpt lat="41.3420010" lon="-8.7509860">
        <ele>6.4</ele>
        <time>2019-08-15T16:11:06Z</time>
      </trkpt>
      <trkpt lat="41.3420220" lon="-8.7510130">
        <ele>6.5</ele>
        <time>2019-08-15T16:11:07Z</time>
      </trkpt>
      <trkpt lat="41.3420520" lon="-8.7510350">
        <ele>6.6</ele>
        <time>2019-08-15T16:11:08Z</time>
      </trkpt>
      <trkpt lat="41.3420850" lon="-8.7510480">
        <ele>6.7</ele>
        <time>2019-08-15T16:11:09Z</time>
      </trkpt>
      <trkpt lat="41.3421530" lon="-8.7510590">
        <ele>6.9</ele>
        <time>2019-08-15T16:11:11Z</time>
      </trkpt>
      <trkpt lat="41.3422770" lon="-8.7510720">
        <ele>7.0</ele>
        <time>2019-08-15T16:11:14Z</time>
      </trkpt>
      <trkpt lat="41.3423120" lon="-8.7510890">
        <ele>7.0</ele>
        <time>2019-08-15T16:11:15Z</time>
      </trkpt>
      <trkpt lat="41.3423500" lon="-8.7511050">
        <ele>7.0</ele>
        <time>2019-08-15T16:11:16Z</time>
      </trkpt>
      <trkpt lat="41.3423880" lon="-8.7511190">
        <ele>7.0</ele>
        <time>2019-08-15T16:11:17Z</time>
      </trkpt>
      <trkpt lat="41.3424290" lon="-8.7511300">
        <ele>7.0</ele>
        <time>2019-08-15T16:11:18Z</time>
      </trkpt>
      <trkpt lat="41.3424700" lon="-8.7511360">
        <ele>7.0</ele>
        <time>2019-08-15T16:11:19Z</time>
      </trkpt>
      <trkpt lat="41.3426800" lon="-8.7512020">
        <ele>6.9</ele>
        <time>2019-08-15T16:11:24Z</time>
      </trkpt>
      <trkpt lat="41.3429880" lon="-8.7512980">
        <ele>6.5</ele>
        <time>2019-08-15T16:11:32Z</time>
      </trkpt>
      <trkpt lat="41.3433350" lon="-8.7513830">
        <ele>6.5</ele>
        <time>2019-08-15T16:11:40Z</time>
      </trkpt>
      <trkpt lat="41.3438820" lon="-8.7515660">
        <ele>6.8</ele>
        <time>2019-08-15T16:11:52Z</time>
      </trkpt>
      <trkpt lat="41.3441880" lon="-8.7516840">
        <ele>6.8</ele>
        <time>2019-08-15T16:11:59Z</time>
      </trkpt>
      <trkpt lat="41.3442810" lon="-8.7517070">
        <ele>6.8</ele>
        <time>2019-08-15T16:12:01Z</time>
      </trkpt>
      <trkpt lat="41.3446440" lon="-8.7518110">
        <ele>6.8</ele>
        <time>2019-08-15T16:12:09Z</time>
      </trkpt>
      <trkpt lat="41.3451170" lon="-8.7519700">
        <ele>6.9</ele>
        <time>2019-08-15T16:12:20Z</time>
      </trkpt>
      <trkpt lat="41.3455520" lon="-8.7521530">
        <ele>7.0</ele>
        <time>2019-08-15T16:12:31Z</time>
      </trkpt>
      <trkpt lat="41.3457770" lon="-8.7522310">
        <ele>7.2</ele>
        <time>2019-08-15T16:12:37Z</time>
      </trkpt>
      <trkpt lat="41.3461500" lon="-8.7523330">
        <ele>7.3</ele>
        <time>2019-08-15T16:12:47Z</time>
      </trkpt>
      <trkpt lat="41.3464860" lon="-8.7524330">
        <ele>7.6</ele>
        <time>2019-08-15T16:12:55Z</time>
      </trkpt>
      <trkpt lat="41.3468260" lon="-8.7525510">
        <ele>7.9</ele>
        <time>2019-08-15T16:13:03Z</time>
      </trkpt>
      <trkpt lat="41.3472180" lon="-8.7526700">
        <ele>8.0</ele>
        <time>2019-08-15T16:13:12Z</time>
      </trkpt>
      <trkpt lat="41.3474410" lon="-8.7527420">
        <ele>7.6</ele>
        <time>2019-08-15T16:13:17Z</time>
      </trkpt>
      <trkpt lat="41.3475190" lon="-8.7527910">
        <ele>7.3</ele>
        <time>2019-08-15T16:13:19Z</time>
      </trkpt>
      <trkpt lat="41.3475590" lon="-8.7528080">
        <ele>7.3</ele>
        <time>2019-08-15T16:13:20Z</time>
      </trkpt>
      <trkpt lat="41.3476730" lon="-8.7528140">
        <ele>7.4</ele>
        <time>2019-08-15T16:13:23Z</time>
      </trkpt>
      <trkpt lat="41.3480160" lon="-8.7529280">
        <ele>6.7</ele>
        <time>2019-08-15T16:13:31Z</time>
      </trkpt>
      <trkpt lat="41.3484280" lon="-8.7530640">
        <ele>5.5</ele>
        <time>2019-08-15T16:13:40Z</time>
      </trkpt>
      <trkpt lat="41.3485660" lon="-8.7531080">
        <ele>5.1</ele>
        <time>2019-08-15T16:13:43Z</time>
      </trkpt>
      <trkpt lat="41.3488840" lon="-8.7532020">
        <ele>3.8</ele>
        <time>2019-08-15T16:13:50Z</time>
      </trkpt>
      <trkpt lat="41.3494360" lon="-8.7533990">
        <ele>5.1</ele>
        <time>2019-08-15T16:14:02Z</time>
      </trkpt>
      <trkpt lat="41.3495790" lon="-8.7534490">
        <ele>4.6</ele>
        <time>2019-08-15T16:14:05Z</time>
      </trkpt>
      <trkpt lat="41.3499150" lon="-8.7535610">
        <ele>4.4</ele>
        <time>2019-08-15T16:14:12Z</time>
      </trkpt>
      <trkpt lat="41.3504620" lon="-8.7537480">
        <ele>4.1</ele>
        <time>2019-08-15T16:14:23Z</time>
      </trkpt>
      <trkpt lat="41.3505120" lon="-8.7537640">
        <ele>4.2</ele>
        <time>2019-08-15T16:14:24Z</time>
      </trkpt>
      <trkpt lat="41.3510540" lon="-8.7539470">
        <ele>4.3</ele>
        <time>2019-08-15T16:14:35Z</time>
      </trkpt>
      <trkpt lat="41.3514690" lon="-8.7540720">
        <ele>3.7</ele>
        <time>2019-08-15T16:14:44Z</time>
      </trkpt>
      <trkpt lat="41.3518310" lon="-8.7541050">
        <ele>3.7</ele>
        <time>2019-08-15T16:14:52Z</time>
      </trkpt>
      <trkpt lat="41.3519230" lon="-8.7541070">
        <ele>3.8</ele>
        <time>2019-08-15T16:14:54Z</time>
      </trkpt>
      <trkpt lat="41.3520160" lon="-8.7541080">
        <ele>3.8</ele>
        <time>2019-08-15T16:14:56Z</time>
      </trkpt>
      <trkpt lat="41.3520610" lon="-8.7541050">
        <ele>3.8</ele>
        <time>2019-08-15T16:14:57Z</time>
      </trkpt>
      <trkpt lat="41.3521110" lon="-8.7541000">
        <ele>3.8</ele>
        <time>2019-08-15T16:14:58Z</time>
      </trkpt>
      <trkpt lat="41.3521600" lon="-8.7540990">
        <ele>3.8</ele>
        <time>2019-08-15T16:14:59Z</time>
      </trkpt>
      <trkpt lat="41.3523450" lon="-8.7540860">
        <ele>3.8</ele>
        <time>2019-08-15T16:15:03Z</time>
      </trkpt>
      <trkpt lat="41.3527740" lon="-8.7541040">
        <ele>3.8</ele>
        <time>2019-08-15T16:15:12Z</time>
      </trkpt>
      <trkpt lat="41.3532100" lon="-8.7541350">
        <ele>3.8</ele>
        <time>2019-08-15T16:15:21Z</time>
      </trkpt>
      <trkpt lat="41.3537440" lon="-8.7542100">
        <ele>3.9</ele>
        <time>2019-08-15T16:15:32Z</time>
      </trkpt>
      <trkpt lat="41.3541870" lon="-8.7542920">
        <ele>2.9</ele>
        <time>2019-08-15T16:15:41Z</time>
      </trkpt>
      <trkpt lat="41.3545970" lon="-8.7543740">
        <ele>2.3</ele>
        <time>2019-08-15T16:15:50Z</time>
      </trkpt>
      <trkpt lat="41.3551350" lon="-8.7545260">
        <ele>1.4</ele>
        <time>2019-08-15T16:16:01Z</time>
      </trkpt>
      <trkpt lat="41.3551820" lon="-8.7545380">
        <ele>1.2</ele>
        <time>2019-08-15T16:16:02Z</time>
      </trkpt>
      <trkpt lat="41.3557180" lon="-8.7547270">
        <ele>1.7</ele>
        <time>2019-08-15T16:16:13Z</time>
      </trkpt>
      <trkpt lat="41.3557650" lon="-8.7547450">
        <ele>1.7</ele>
        <time>2019-08-15T16:16:14Z</time>
      </trkpt>
      <trkpt lat="41.3563060" lon="-8.7549710">
        <ele>1.6</ele>
        <time>2019-08-15T16:16:25Z</time>
      </trkpt>
      <trkpt lat="41.3563550" lon="-8.7549920">
        <ele>1.6</ele>
        <time>2019-08-15T16:16:26Z</time>
      </trkpt>
      <trkpt lat="41.3568380" lon="-8.7552140">
        <ele>1.8</ele>
        <time>2019-08-15T16:16:36Z</time>
      </trkpt>
      <trkpt lat="41.3573460" lon="-8.7554750">
        <ele>4.2</ele>
        <time>2019-08-15T16:16:46Z</time>
      </trkpt>
      <trkpt lat="41.3575460" lon="-8.7555810">
        <ele>5.0</ele>
        <time>2019-08-15T16:16:50Z</time>
      </trkpt>
      <trkpt lat="41.3580380" lon="-8.7558340">
        <ele>7.3</ele>
        <time>2019-08-15T16:17:00Z</time>
      </trkpt>
      <trkpt lat="41.3585450" lon="-8.7560500">
        <ele>7.3</ele>
        <time>2019-08-15T16:17:10Z</time>
      </trkpt>
      <trkpt lat="41.3588540" lon="-8.7561400">
        <ele>7.4</ele>
        <time>2019-08-15T16:17:16Z</time>
      </trkpt>
      <trkpt lat="41.3591520" lon="-8.7562670">
        <ele>7.0</ele>
        <time>2019-08-15T16:17:23Z</time>
      </trkpt>
      <trkpt lat="41.3594180" lon="-8.7564440">
        <ele>6.4</ele>
        <time>2019-08-15T16:17:31Z</time>
      </trkpt>
      <trkpt lat="41.3597950" lon="-8.7567280">
        <ele>6.1</ele>
        <time>2019-08-15T16:17:42Z</time>
      </trkpt>
      <trkpt lat="41.3600250" lon="-8.7570080">
        <ele>6.1</ele>
        <time>2019-08-15T16:17:50Z</time>
      </trkpt>
      <trkpt lat="41.3603570" lon="-8.7573980">
        <ele>6.0</ele>
        <time>2019-08-15T16:18:00Z</time>
      </trkpt>
      <trkpt lat="41.3605830" lon="-8.7576530">
        <ele>5.9</ele>
        <time>2019-08-15T16:18:07Z</time>
      </trkpt>
      <trkpt lat="41.3608580" lon="-8.7579890">
        <ele>6.0</ele>
        <time>2019-08-15T16:18:16Z</time>
      </trkpt>
      <trkpt lat="41.3611700" lon="-8.7583850">
        <ele>6.6</ele>
        <time>2019-08-15T16:18:26Z</time>
      </trkpt>
      <trkpt lat="41.3612680" lon="-8.7584900">
        <ele>6.7</ele>
        <time>2019-08-15T16:18:29Z</time>
      </trkpt>
      <trkpt lat="41.3613590" lon="-8.7586100">
        <ele>6.7</ele>
        <time>2019-08-15T16:18:32Z</time>
      </trkpt>
      <trkpt lat="41.3617210" lon="-8.7590440">
        <ele>6.4</ele>
        <time>2019-08-15T16:18:43Z</time>
      </trkpt>
      <trkpt lat="41.3621180" lon="-8.7594310">
        <ele>6.5</ele>
        <time>2019-08-15T16:18:55Z</time>
      </trkpt>
      <trkpt lat="41.3625320" lon="-8.7596920">
        <ele>6.8</ele>
        <time>2019-08-15T16:19:06Z</time>
      </trkpt>
      <trkpt lat="41.3628520" lon="-8.7599160">
        <ele>6.9</ele>
        <time>2019-08-15T16:19:15Z</time>
      </trkpt>
      <trkpt lat="41.3632670" lon="-8.7602030">
        <ele>6.9</ele>
        <time>2019-08-15T16:19:26Z</time>
      </trkpt>
      <trkpt lat="41.3634960" lon="-8.7603430">
        <ele>6.7</ele>
        <time>2019-08-15T16:19:32Z</time>
      </trkpt>
      <trkpt lat="41.3636760" lon="-8.7603950">
        <ele>6.5</ele>
        <time>2019-08-15T16:19:36Z</time>
      </trkpt>
      <trkpt lat="41.3640220" lon="-8.7605050">
        <ele>6.1</ele>
        <time>2019-08-15T16:19:44Z</time>
      </trkpt>
      <trkpt lat="41.3641070" lon="-8.7605360">
        <ele>6.0</ele>
        <time>2019-08-15T16:19:46Z</time>
      </trkpt>
      <trkpt lat="41.3645510" lon="-8.7606980">
        <ele>5.9</ele>
        <time>2019-08-15T16:19:56Z</time>
      </trkpt>
      <trkpt lat="41.3650210" lon="-8.7609090">
        <ele>5.7</ele>
        <time>2019-08-15T16:20:07Z</time>
      </trkpt>
      <trkpt lat="41.3654200" lon="-8.7610680">
        <ele>5.6</ele>
        <time>2019-08-15T16:20:16Z</time>
      </trkpt>
      <trkpt lat="41.3657930" lon="-8.7612110">
        <ele>5.4</ele>
        <time>2019-08-15T16:20:25Z</time>
      </trkpt>
      <trkpt lat="41.3661590" lon="-8.7613240">
        <ele>5.0</ele>
        <time>2019-08-15T16:20:33Z</time>
      </trkpt>
      <trkpt lat="41.3665550" lon="-8.7614450">
        <ele>4.3</ele>
        <time>2019-08-15T16:20:42Z</time>
      </trkpt>
      <trkpt lat="41.3670160" lon="-8.7614620">
        <ele>3.8</ele>
        <time>2019-08-15T16:20:51Z</time>
      </trkpt>
      <trkpt lat="41.3674770" lon="-8.7614640">
        <ele>3.8</ele>
        <time>2019-08-15T16:21:00Z</time>
      </trkpt>
      <trkpt lat="41.3680000" lon="-8.7614900">
        <ele>4.2</ele>
        <time>2019-08-15T16:21:10Z</time>
      </trkpt>
      <trkpt lat="41.3681040" lon="-8.7614960">
        <ele>4.3</ele>
        <time>2019-08-15T16:21:12Z</time>
      </trkpt>
      <trkpt lat="41.3681550" lon="-8.7614960">
        <ele>4.3</ele>
        <time>2019-08-15T16:21:13Z</time>
      </trkpt>
      <trkpt lat="41.3682040" lon="-8.7614980">
        <ele>4.4</ele>
        <time>2019-08-15T16:21:14Z</time>
      </trkpt>
      <trkpt lat="41.3682540" lon="-8.7614990">
        <ele>4.4</ele>
        <time>2019-08-15T16:21:15Z</time>
      </trkpt>
      <trkpt lat="41.3683060" lon="-8.7615000">
        <ele>4.4</ele>
        <time>2019-08-15T16:21:16Z</time>
      </trkpt>
      <trkpt lat="41.3684550" lon="-8.7615050">
        <ele>4.5</ele>
        <time>2019-08-15T16:21:19Z</time>
      </trkpt>
      <trkpt lat="41.3689290" lon="-8.7615360">
        <ele>4.5</ele>
        <time>2019-08-15T16:21:29Z</time>
      </trkpt>
      <trkpt lat="41.3689760" lon="-8.7615340">
        <ele>4.5</ele>
        <time>2019-08-15T16:21:30Z</time>
      </trkpt>
      <trkpt lat="41.3690260" lon="-8.7615350">
        <ele>4.5</ele>
        <time>2019-08-15T16:21:31Z</time>
      </trkpt>
      <trkpt lat="41.3690690" lon="-8.7615350">
        <ele>4.5</ele>
        <time>2019-08-15T16:21:32Z</time>
      </trkpt>
      <trkpt lat="41.3691170" lon="-8.7615350">
        <ele>4.5</ele>
        <time>2019-08-15T16:21:33Z</time>
      </trkpt>
      <trkpt lat="41.3692600" lon="-8.7615440">
        <ele>4.5</ele>
        <time>2019-08-15T16:21:36Z</time>
      </trkpt>
      <trkpt lat="41.3696450" lon="-8.7615720">
        <ele>4.5</ele>
        <time>2019-08-15T16:21:45Z</time>
      </trkpt>
      <trkpt lat="41.3699800" lon="-8.7615980">
        <ele>4.3</ele>
        <time>2019-08-15T16:21:54Z</time>
      </trkpt>
      <trkpt lat="41.3702070" lon="-8.7616070">
        <ele>4.1</ele>
        <time>2019-08-15T16:22:00Z</time>
      </trkpt>
      <trkpt lat="41.3702840" lon="-8.7616180">
        <ele>4.1</ele>
        <time>2019-08-15T16:22:02Z</time>
      </trkpt>
      <trkpt lat="41.3704520" lon="-8.7616210">
        <ele>4.1</ele>
        <time>2019-08-15T16:22:06Z</time>
      </trkpt>
      <trkpt lat="41.3706520" lon="-8.7616220">
        <ele>4.3</ele>
        <time>2019-08-15T16:22:10Z</time>
      </trkpt>
      <trkpt lat="41.3707060" lon="-8.7616210">
        <ele>4.3</ele>
        <time>2019-08-15T16:22:11Z</time>
      </trkpt>
      <trkpt lat="41.3707540" lon="-8.7616250">
        <ele>4.3</ele>
        <time>2019-08-15T16:22:12Z</time>
      </trkpt>
      <trkpt lat="41.3708060" lon="-8.7616210">
        <ele>4.4</ele>
        <time>2019-08-15T16:22:13Z</time>
      </trkpt>
      <trkpt lat="41.3708570" lon="-8.7616190">
        <ele>4.4</ele>
        <time>2019-08-15T16:22:14Z</time>
      </trkpt>
      <trkpt lat="41.3712010" lon="-8.7616440">
        <ele>4.4</ele>
        <time>2019-08-15T16:22:21Z</time>
      </trkpt>
      <trkpt lat="41.3717560" lon="-8.7616840">
        <ele>4.1</ele>
        <time>2019-08-15T16:22:32Z</time>
      </trkpt>
      <trkpt lat="41.3722020" lon="-8.7616730">
        <ele>4.0</ele>
        <time>2019-08-15T16:22:41Z</time>
      </trkpt>
      <trkpt lat="41.3722500" lon="-8.7616770">
        <ele>4.0</ele>
        <time>2019-08-15T16:22:42Z</time>
      </trkpt>
      <trkpt lat="41.3723780" lon="-8.7616790">
        <ele>4.0</ele>
        <time>2019-08-15T16:22:45Z</time>
      </trkpt>
      <trkpt lat="41.3724240" lon="-8.7616640">
        <ele>4.0</ele>
        <time>2019-08-15T16:22:46Z</time>
      </trkpt>
      <trkpt lat="41.3725520" lon="-8.7616280">
        <ele>3.5</ele>
        <time>2019-08-15T16:22:49Z</time>
      </trkpt>
      <trkpt lat="41.3727340" lon="-8.7616370">
        <ele>3.2</ele>
        <time>2019-08-15T16:22:53Z</time>
      </trkpt>
      <trkpt lat="41.3730650" lon="-8.7616570">
        <ele>3.0</ele>
        <time>2019-08-15T16:23:00Z</time>
      </trkpt>
      <trkpt lat="41.3733540" lon="-8.7616910">
        <ele>1.9</ele>
        <time>2019-08-15T16:23:08Z</time>
      </trkpt>
      <trkpt lat="41.3733800" lon="-8.7616930">
        <ele>1.7</ele>
        <time>2019-08-15T16:23:09Z</time>
      </trkpt>
      <trkpt lat="41.3734070" lon="-8.7616960">
        <ele>1.6</ele>
        <time>2019-08-15T16:23:10Z</time>
      </trkpt>
      <trkpt lat="41.3734490" lon="-8.7617050">
        <ele>1.5</ele>
        <time>2019-08-15T16:23:12Z</time>
      </trkpt>
      <trkpt lat="41.3734670" lon="-8.7617150">
        <ele>1.4</ele>
        <time>2019-08-15T16:23:13Z</time>
      </trkpt>
      <trkpt lat="41.3735060" lon="-8.7617460">
        <ele>1.3</ele>
        <time>2019-08-15T16:23:23Z</time>
      </trkpt>
      <trkpt lat="41.3735370" lon="-8.7617490">
        <ele>1.3</ele>
        <time>2019-08-15T16:23:25Z</time>
      </trkpt>
      <trkpt lat="41.3735430" lon="-8.7617520">
        <ele>1.3</ele>
        <time>2019-08-15T16:23:26Z</time>
      </trkpt>
      <trkpt lat="41.3735480" lon="-8.7617640">
        <ele>1.3</ele>
        <time>2019-08-15T16:23:32Z</time>
      </trkpt>
      <trkpt lat="41.3735780" lon="-8.7617650">
        <ele>1.3</ele>
        <time>2019-08-15T16:23:34Z</time>
      </trkpt>
      <trkpt lat="41.3736860" lon="-8.7617910">
        <ele>1.2</ele>
        <time>2019-08-15T16:23:42Z</time>
      </trkpt>
      <trkpt lat="41.3737500" lon="-8.7619010">
        <ele>1.2</ele>
        <time>2019-08-15T16:23:50Z</time>
      </trkpt>
      <trkpt lat="41.3738330" lon="-8.7619190">
        <ele>1.6</ele>
        <time>2019-08-15T16:23:57Z</time>
      </trkpt>
      <trkpt lat="41.3738350" lon="-8.7619230">
        <ele>1.6</ele>
        <time>2019-08-15T16:23:58Z</time>
      </trkpt>
      <trkpt lat="41.3738760" lon="-8.7619410">
        <ele>1.8</ele>
        <time>2019-08-15T16:24:11Z</time>
      </trkpt>
      <trkpt lat="41.3738970" lon="-8.7619620">
        <ele>1.9</ele>
        <time>2019-08-15T16:24:14Z</time>
      </trkpt>
      <trkpt lat="41.3740010" lon="-8.7619920">
        <ele>2.3</ele>
        <time>2019-08-15T16:24:23Z</time>
      </trkpt>
      <trkpt lat="41.3741160" lon="-8.7620090">
        <ele>2.6</ele>
        <time>2019-08-15T16:24:30Z</time>
      </trkpt>
      <trkpt lat="41.3742720" lon="-8.7620420">
        <ele>3.0</ele>
        <time>2019-08-15T16:24:37Z</time>
      </trkpt>
      <trkpt lat="41.3743850" lon="-8.7620560">
        <ele>3.4</ele>
        <time>2019-08-15T16:24:42Z</time>
      </trkpt>
      <trkpt lat="41.3744690" lon="-8.7620840">
        <ele>3.6</ele>
        <time>2019-08-15T16:24:48Z</time>
      </trkpt>
      <trkpt lat="41.3746360" lon="-8.7621600">
        <ele>4.0</ele>
        <time>2019-08-15T16:24:55Z</time>
      </trkpt>
      <trkpt lat="41.3748290" lon="-8.7622460">
        <ele>3.9</ele>
        <time>2019-08-15T16:25:01Z</time>
      </trkpt>
      <trkpt lat="41.3749860" lon="-8.7623170">
        <ele>3.3</ele>
        <time>2019-08-15T16:25:07Z</time>
      </trkpt>
      <trkpt lat="41.3751450" lon="-8.7623980">
        <ele>2.9</ele>
        <time>2019-08-15T16:25:12Z</time>
      </trkpt>
      <trkpt lat="41.3753960" lon="-8.7625540">
        <ele>2.9</ele>
        <time>2019-08-15T16:25:20Z</time>
      </trkpt>
      <trkpt lat="41.3755070" lon="-8.7626370">
        <ele>3.0</ele>
        <time>2019-08-15T16:25:25Z</time>
      </trkpt>
      <trkpt lat="41.3755930" lon="-8.7627100">
        <ele>3.3</ele>
        <time>2019-08-15T16:25:30Z</time>
      </trkpt>
      <trkpt lat="41.3757160" lon="-8.7628150">
        <ele>3.7</ele>
        <time>2019-08-15T16:25:35Z</time>
      </trkpt>
      <trkpt lat="41.3758420" lon="-8.7628660">
        <ele>4.0</ele>
        <time>2019-08-15T16:25:41Z</time>
      </trkpt>
      <trkpt lat="41.3759490" lon="-8.7629740">
        <ele>4.0</ele>
        <time>2019-08-15T16:25:48Z</time>
      </trkpt>
      <trkpt lat="41.3760410" lon="-8.7630440">
        <ele>4.0</ele>
        <time>2019-08-15T16:25:52Z</time>
      </trkpt>
      <trkpt lat="41.3762380" lon="-8.7632820">
        <ele>4.0</ele>
        <time>2019-08-15T16:25:59Z</time>
      </trkpt>
      <trkpt lat="41.3763720" lon="-8.7634440">
        <ele>3.7</ele>
        <time>2019-08-15T16:26:03Z</time>
      </trkpt>
      <trkpt lat="41.3764120" lon="-8.7634810">
        <ele>3.6</ele>
        <time>2019-08-15T16:26:04Z</time>
      </trkpt>
      <trkpt lat="41.3764520" lon="-8.7635160">
        <ele>3.5</ele>
        <time>2019-08-15T16:26:05Z</time>
      </trkpt>
      <trkpt lat="41.3764940" lon="-8.7635510">
        <ele>3.4</ele>
        <time>2019-08-15T16:26:06Z</time>
      </trkpt>
      <trkpt lat="41.3765370" lon="-8.7635830">
        <ele>3.2</ele>
        <time>2019-08-15T16:26:07Z</time>
      </trkpt>
      <trkpt lat="41.3765800" lon="-8.7636140">
        <ele>3.1</ele>
        <time>2019-08-15T16:26:08Z</time>
      </trkpt>
      <trkpt lat="41.3767900" lon="-8.7637870">
        <ele>3.0</ele>
        <time>2019-08-15T16:26:13Z</time>
      </trkpt>
      <trkpt lat="41.3768590" lon="-8.7638920">
        <ele>3.1</ele>
        <time>2019-08-15T16:26:15Z</time>
      </trkpt>
      <trkpt lat="41.3769430" lon="-8.7641440">
        <ele>3.1</ele>
        <time>2019-08-15T16:26:19Z</time>
      </trkpt>
      <trkpt lat="41.3769730" lon="-8.7642670">
        <ele>3.1</ele>
        <time>2019-08-15T16:26:21Z</time>
      </trkpt>
      <trkpt lat="41.3770380" lon="-8.7643710">
        <ele>3.3</ele>
        <time>2019-08-15T16:26:23Z</time>
      </trkpt>
      <trkpt lat="41.3771550" lon="-8.7644570">
        <ele>3.5</ele>
        <time>2019-08-15T16:26:26Z</time>
      </trkpt>
      <trkpt lat="41.3772330" lon="-8.7645000">
        <ele>3.5</ele>
        <time>2019-08-15T16:26:28Z</time>
      </trkpt>
      <trkpt lat="41.3773310" lon="-8.7645900">
        <ele>3.5</ele>
        <time>2019-08-15T16:26:32Z</time>
      </trkpt>
      <trkpt lat="41.3773990" lon="-8.7646620">
        <ele>3.5</ele>
        <time>2019-08-15T16:26:36Z</time>
      </trkpt>
      <trkpt lat="41.3774420" lon="-8.7647460">
        <ele>3.5</ele>
        <time>2019-08-15T16:26:39Z</time>
      </trkpt>
      <trkpt lat="41.3775770" lon="-8.7650580">
        <ele>3.6</ele>
        <time>2019-08-15T16:26:45Z</time>
      </trkpt>
      <trkpt lat="41.3777270" lon="-8.7654730">
        <ele>3.8</ele>
        <time>2019-08-15T16:26:52Z</time>
      </trkpt>
      <trkpt lat="41.3777440" lon="-8.7655340">
        <ele>3.8</ele>
        <time>2019-08-15T16:26:53Z</time>
      </trkpt>
      <trkpt lat="41.3777560" lon="-8.7655910">
        <ele>3.9</ele>
        <time>2019-08-15T16:26:54Z</time>
      </trkpt>
      <trkpt lat="41.3777670" lon="-8.7656500">
        <ele>3.9</ele>
        <time>2019-08-15T16:26:55Z</time>
      </trkpt>
      <trkpt lat="41.3777830" lon="-8.7656970">
        <ele>3.9</ele>
        <time>2019-08-15T16:26:56Z</time>
      </trkpt>
      <trkpt lat="41.3778100" lon="-8.7658300">
        <ele>4.0</ele>
        <time>2019-08-15T16:26:59Z</time>
      </trkpt>
      <trkpt lat="41.3779120" lon="-8.7662070">
        <ele>4.2</ele>
        <time>2019-08-15T16:27:07Z</time>
      </trkpt>
      <trkpt lat="41.3779980" lon="-8.7665620">
        <ele>4.5</ele>
        <time>2019-08-15T16:27:14Z</time>
      </trkpt>
      <trkpt lat="41.3781120" lon="-8.7669530">
        <ele>4.0</ele>
        <time>2019-08-15T16:27:22Z</time>
      </trkpt>
      <trkpt lat="41.3781530" lon="-8.7671180">
        <ele>3.6</ele>
        <time>2019-08-15T16:27:27Z</time>
      </trkpt>
      <trkpt lat="41.3781840" lon="-8.7672970">
        <ele>3.2</ele>
        <time>2019-08-15T16:27:33Z</time>
      </trkpt>
      <trkpt lat="41.3782650" lon="-8.7675150">
        <ele>4.0</ele>
        <time>2019-08-15T16:27:39Z</time>
      </trkpt>
      <trkpt lat="41.3782960" lon="-8.7675080">
        <ele>4.1</ele>
        <time>2019-08-15T16:27:40Z</time>
      </trkpt>
      <trkpt lat="41.3783240" lon="-8.7675000">
        <ele>4.2</ele>
        <time>2019-08-15T16:27:41Z</time>
      </trkpt>
      <trkpt lat="41.3784000" lon="-8.7675220">
        <ele>4.5</ele>
        <time>2019-08-15T16:27:45Z</time>
      </trkpt>
      <trkpt lat="41.3785210" lon="-8.7676280">
        <ele>4.8</ele>
        <time>2019-08-15T16:27:50Z</time>
      </trkpt>
      <trkpt lat="41.3786790" lon="-8.7676740">
        <ele>5.0</ele>
        <time>2019-08-15T16:27:56Z</time>
      </trkpt>
      <trkpt lat="41.3788380" lon="-8.7677850">
        <ele>5.4</ele>
        <time>2019-08-15T16:28:02Z</time>
      </trkpt>
      <trkpt lat="41.3790580" lon="-8.7678940">
        <ele>5.9</ele>
        <time>2019-08-15T16:28:10Z</time>
      </trkpt>
      <trkpt lat="41.3792040" lon="-8.7679800">
        <ele>6.6</ele>
        <time>2019-08-15T16:28:16Z</time>
      </trkpt>
      <trkpt lat="41.3792660" lon="-8.7680190">
        <ele>6.9</ele>
        <time>2019-08-15T16:28:20Z</time>
      </trkpt>
      <trkpt lat="41.3794660" lon="-8.7681370">
        <ele>8.1</ele>
        <time>2019-08-15T16:28:27Z</time>
      </trkpt>
      <trkpt lat="41.3795020" lon="-8.7681550">
        <ele>8.3</ele>
        <time>2019-08-15T16:28:28Z</time>
      </trkpt>
      <trkpt lat="41.3795360" lon="-8.7681700">
        <ele>8.5</ele>
        <time>2019-08-15T16:28:29Z</time>
      </trkpt>
      <trkpt lat="41.3795660" lon="-8.7681860">
        <ele>8.7</ele>
        <time>2019-08-15T16:28:30Z</time>
      </trkpt>
      <trkpt lat="41.3795810" lon="-8.7681990">
        <ele>8.8</ele>
        <time>2019-08-15T16:28:31Z</time>
      </trkpt>
      <trkpt lat="41.3795920" lon="-8.7682270">
        <ele>8.9</ele>
        <time>2019-08-15T16:28:33Z</time>
      </trkpt>
      <trkpt lat="41.3797280" lon="-8.7682930">
        <ele>9.7</ele>
        <time>2019-08-15T16:28:39Z</time>
      </trkpt>
      <trkpt lat="41.3798340" lon="-8.7683370">
        <ele>10.2</ele>
        <time>2019-08-15T16:28:44Z</time>
      </trkpt>
      <trkpt lat="41.3799300" lon="-8.7683970">
        <ele>10.8</ele>
        <time>2019-08-15T16:28:49Z</time>
      </trkpt>
      <trkpt lat="41.3800760" lon="-8.7684790">
        <ele>11.2</ele>
        <time>2019-08-15T16:28:55Z</time>
      </trkpt>
      <trkpt lat="41.3801370" lon="-8.7685300">
        <ele>11.2</ele>
        <time>2019-08-15T16:29:01Z</time>
      </trkpt>
      <trkpt lat="41.3802420" lon="-8.7686240">
        <ele>11.1</ele>
        <time>2019-08-15T16:29:05Z</time>
      </trkpt>
      <trkpt lat="41.3803310" lon="-8.7687270">
        <ele>10.8</ele>
        <time>2019-08-15T16:29:10Z</time>
      </trkpt>
      <trkpt lat="41.3803820" lon="-8.7687620">
        <ele>10.6</ele>
        <time>2019-08-15T16:29:14Z</time>
      </trkpt>
      <trkpt lat="41.3804390" lon="-8.7687900">
        <ele>10.5</ele>
        <time>2019-08-15T16:29:18Z</time>
      </trkpt>
      <trkpt lat="41.3805500" lon="-8.7689090">
        <ele>10.4</ele>
        <time>2019-08-15T16:29:24Z</time>
      </trkpt>
      <trkpt lat="41.3807010" lon="-8.7690010">
        <ele>10.2</ele>
        <time>2019-08-15T16:29:29Z</time>
      </trkpt>
      <trkpt lat="41.3809180" lon="-8.7691950">
        <ele>9.7</ele>
        <time>2019-08-15T16:29:36Z</time>
      </trkpt>
      <trkpt lat="41.3810110" lon="-8.7692350">
        <ele>9.5</ele>
        <time>2019-08-15T16:29:40Z</time>
      </trkpt>
      <trkpt lat="41.3811490" lon="-8.7694080">
        <ele>9.1</ele>
        <time>2019-08-15T16:29:46Z</time>
      </trkpt>
      <trkpt lat="41.3811710" lon="-8.7694350">
        <ele>9.1</ele>
        <time>2019-08-15T16:29:48Z</time>
      </trkpt>
      <trkpt lat="41.3812080" lon="-8.7694600">
        <ele>9.0</ele>
        <time>2019-08-15T16:29:51Z</time>
      </trkpt>
      <trkpt lat="41.3813030" lon="-8.7695480">
        <ele>8.8</ele>
        <time>2019-08-15T16:29:57Z</time>
      </trkpt>
      <trkpt lat="41.3813270" lon="-8.7695990">
        <ele>8.7</ele>
        <time>2019-08-15T16:30:01Z</time>
      </trkpt>
      <trkpt lat="41.3813350" lon="-8.7696100">
        <ele>8.7</ele>
        <time>2019-08-15T16:30:02Z</time>
      </trkpt>
      <trkpt lat="41.3814060" lon="-8.7696740">
        <ele>8.6</ele>
        <time>2019-08-15T16:30:06Z</time>
      </trkpt>
      <trkpt lat="41.3814980" lon="-8.7697450">
        <ele>8.5</ele>
        <time>2019-08-15T16:30:11Z</time>
      </trkpt>
      <trkpt lat="41.3816030" lon="-8.7698160">
        <ele>8.3</ele>
        <time>2019-08-15T16:30:18Z</time>
      </trkpt>
      <trkpt lat="41.3816240" lon="-8.7698250">
        <ele>8.2</ele>
        <time>2019-08-15T16:30:22Z</time>
      </trkpt>
      <trkpt lat="41.3816730" lon="-8.7698540">
        <ele>7.9</ele>
        <time>2019-08-15T16:30:25Z</time>
      </trkpt>
      <trkpt lat="41.3816860" lon="-8.7698720">
        <ele>7.7</ele>
        <time>2019-08-15T16:30:26Z</time>
      </trkpt>
      <trkpt lat="41.3817130" lon="-8.7698890">
        <ele>7.5</ele>
        <time>2019-08-15T16:30:27Z</time>
      </trkpt>
      <trkpt lat="41.3817300" lon="-8.7698950">
        <ele>7.4</ele>
        <time>2019-08-15T16:30:28Z</time>
      </trkpt>
      <trkpt lat="41.3817480" lon="-8.7699000">
        <ele>7.3</ele>
        <time>2019-08-15T16:30:29Z</time>
      </trkpt>
      <trkpt lat="41.3817660" lon="-8.7699060">
        <ele>7.2</ele>
        <time>2019-08-15T16:30:30Z</time>
      </trkpt>
      <trkpt lat="41.3817840" lon="-8.7699110">
        <ele>7.1</ele>
        <time>2019-08-15T16:30:32Z</time>
      </trkpt>
      <trkpt lat="41.3818010" lon="-8.7699170">
        <ele>7.0</ele>
        <time>2019-08-15T16:30:36Z</time>
      </trkpt>
      <trkpt lat="41.3818190" lon="-8.7699220">
        <ele>7.0</ele>
        <time>2019-08-15T16:30:40Z</time>
      </trkpt>
      <trkpt lat="41.3818370" lon="-8.7699280">
        <ele>6.9</ele>
        <time>2019-08-15T16:30:45Z</time>
      </trkpt>
      <trkpt lat="41.3818540" lon="-8.7699330">
        <ele>6.8</ele>
        <time>2019-08-15T16:30:53Z</time>
      </trkpt>
      <trkpt lat="41.3818720" lon="-8.7699390">
        <ele>6.8</ele>
        <time>2019-08-15T16:30:54Z</time>
      </trkpt>
      <trkpt lat="41.3820020" lon="-8.7699890">
        <ele>6.6</ele>
        <time>2019-08-15T16:30:57Z</time>
      </trkpt>
      <trkpt lat="41.3824410" lon="-8.7702090">
        <ele>5.3</ele>
        <time>2019-08-15T16:31:06Z</time>
      </trkpt>
      <trkpt lat="41.3826800" lon="-8.7703810">
        <ele>4.6</ele>
        <time>2019-08-15T16:31:11Z</time>
      </trkpt>
      <trkpt lat="41.3827610" lon="-8.7704620">
        <ele>4.5</ele>
        <time>2019-08-15T16:31:13Z</time>
      </trkpt>
      <trkpt lat="41.3828540" lon="-8.7705050">
        <ele>4.6</ele>
        <time>2019-08-15T16:31:15Z</time>
      </trkpt>
      <trkpt lat="41.3830000" lon="-8.7705820">
        <ele>4.8</ele>
        <time>2019-08-15T16:31:18Z</time>
      </trkpt>
      <trkpt lat="41.3834310" lon="-8.7708230">
        <ele>5.4</ele>
        <time>2019-08-15T16:31:27Z</time>
      </trkpt>
      <trkpt lat="41.3837530" lon="-8.7710290">
        <ele>5.4</ele>
        <time>2019-08-15T16:31:34Z</time>
      </trkpt>
      <trkpt lat="41.3841640" lon="-8.7712970">
        <ele>5.4</ele>
        <time>2019-08-15T16:31:43Z</time>
      </trkpt>
      <trkpt lat="41.3845440" lon="-8.7715050">
        <ele>5.2</ele>
        <time>2019-08-15T16:31:51Z</time>
      </trkpt>
      <trkpt lat="41.3849230" lon="-8.7717100">
        <ele>5.3</ele>
        <time>2019-08-15T16:31:59Z</time>
      </trkpt>
      <trkpt lat="41.3854150" lon="-8.7719830">
        <ele>6.2</ele>
        <time>2019-08-15T16:32:10Z</time>
      </trkpt>
      <trkpt lat="41.3857830" lon="-8.7721590">
        <ele>6.2</ele>
        <time>2019-08-15T16:32:18Z</time>
      </trkpt>
      <trkpt lat="41.3858220" lon="-8.7721880">
        <ele>6.2</ele>
        <time>2019-08-15T16:32:19Z</time>
      </trkpt>
      <trkpt lat="41.3859420" lon="-8.7723320">
        <ele>6.3</ele>
        <time>2019-08-15T16:32:23Z</time>
      </trkpt>
      <trkpt lat="41.3859720" lon="-8.7723830">
        <ele>6.5</ele>
        <time>2019-08-15T16:32:24Z</time>
      </trkpt>
      <trkpt lat="41.3860060" lon="-8.7724280">
        <ele>6.7</ele>
        <time>2019-08-15T16:32:25Z</time>
      </trkpt>
      <trkpt lat="41.3860450" lon="-8.7724620">
        <ele>6.8</ele>
        <time>2019-08-15T16:32:26Z</time>
      </trkpt>
      <trkpt lat="41.3860870" lon="-8.7724810">
        <ele>7.0</ele>
        <time>2019-08-15T16:32:27Z</time>
      </trkpt>
      <trkpt lat="41.3861360" lon="-8.7724790">
        <ele>7.0</ele>
        <time>2019-08-15T16:32:28Z</time>
      </trkpt>
      <trkpt lat="41.3861800" lon="-8.7724840">
        <ele>7.0</ele>
        <time>2019-08-15T16:32:29Z</time>
      </trkpt>
      <trkpt lat="41.3863670" lon="-8.7725340">
        <ele>6.9</ele>
        <time>2019-08-15T16:32:33Z</time>
      </trkpt>
      <trkpt lat="41.3864370" lon="-8.7725630">
        <ele>6.7</ele>
        <time>2019-08-15T16:32:35Z</time>
      </trkpt>
      <trkpt lat="41.3865670" lon="-8.7726140">
        <ele>7.2</ele>
        <time>2019-08-15T16:32:40Z</time>
      </trkpt>
      <trkpt lat="41.3866170" lon="-8.7725690">
        <ele>7.3</ele>
        <time>2019-08-15T16:32:44Z</time>
      </trkpt>
      <trkpt lat="41.3866550" lon="-8.7725860">
        <ele>7.3</ele>
        <time>2019-08-15T16:32:45Z</time>
      </trkpt>
      <trkpt lat="41.3868580" lon="-8.7727110">
        <ele>7.5</ele>
        <time>2019-08-15T16:32:50Z</time>
      </trkpt>
      <trkpt lat="41.3871320" lon="-8.7728730">
        <ele>7.4</ele>
        <time>2019-08-15T16:32:57Z</time>
      </trkpt>
      <trkpt lat="41.3875100" lon="-8.7730880">
        <ele>7.1</ele>
        <time>2019-08-15T16:33:05Z</time>
      </trkpt>
      <trkpt lat="41.3879780" lon="-8.7733580">
        <ele>6.6</ele>
        <time>2019-08-15T16:33:15Z</time>
      </trkpt>
      <trkpt lat="41.3882380" lon="-8.7735410">
        <ele>6.0</ele>
        <time>2019-08-15T16:33:22Z</time>
      </trkpt>
      <trkpt lat="41.3883150" lon="-8.7735840">
        <ele>5.6</ele>
        <time>2019-08-15T16:33:26Z</time>
      </trkpt>
      <trkpt lat="41.3883720" lon="-8.7736350">
        <ele>5.2</ele>
        <time>2019-08-15T16:33:30Z</time>
      </trkpt>
      <trkpt lat="41.3886040" lon="-8.7737280">
        <ele>4.4</ele>
        <time>2019-08-15T16:33:36Z</time>
      </trkpt>
      <trkpt lat="41.3889580" lon="-8.7738990">
        <ele>3.9</ele>
        <time>2019-08-15T16:33:45Z</time>
      </trkpt>
      <trkpt lat="41.3891500" lon="-8.7742060">
        <ele>3.6</ele>
        <time>2019-08-15T16:33:53Z</time>
      </trkpt>
      <trkpt lat="41.3892620" lon="-8.7742430">
        <ele>3.9</ele>
        <time>2019-08-15T16:33:56Z</time>
      </trkpt>
      <trkpt lat="41.3893040" lon="-8.7742340">
        <ele>4.0</ele>
        <time>2019-08-15T16:33:57Z</time>
      </trkpt>
      <trkpt lat="41.3895700" lon="-8.7741660">
        <ele>4.6</ele>
        <time>2019-08-15T16:34:04Z</time>
      </trkpt>
      <trkpt lat="41.3898320" lon="-8.7740400">
        <ele>5.9</ele>
        <time>2019-08-15T16:34:12Z</time>
      </trkpt>
      <trkpt lat="41.3900330" lon="-8.7739730">
        <ele>6.8</ele>
        <time>2019-08-15T16:34:17Z</time>
      </trkpt>
      <trkpt lat="41.3901220" lon="-8.7739710">
        <ele>7.4</ele>
        <time>2019-08-15T16:34:19Z</time>
      </trkpt>
      <trkpt lat="41.3902560" lon="-8.7739680">
        <ele>8.1</ele>
        <time>2019-08-15T16:34:22Z</time>
      </trkpt>
      <trkpt lat="41.3905030" lon="-8.7739710">
        <ele>8.8</ele>
        <time>2019-08-15T16:34:28Z</time>
      </trkpt>
      <trkpt lat="41.3907050" lon="-8.7739440">
        <ele>9.4</ele>
        <time>2019-08-15T16:34:33Z</time>
      </trkpt>
      <trkpt lat="41.3908430" lon="-8.7739560">
        <ele>9.5</ele>
        <time>2019-08-15T16:34:36Z</time>
      </trkpt>
      <trkpt lat="41.3909780" lon="-8.7739830">
        <ele>9.6</ele>
        <time>2019-08-15T16:34:39Z</time>
      </trkpt>
      <trkpt lat="41.3913050" lon="-8.7740880">
        <ele>9.6</ele>
        <time>2019-08-15T16:34:46Z</time>
      </trkpt>
      <trkpt lat="41.3915870" lon="-8.7742450">
        <ele>10.1</ele>
        <time>2019-08-15T16:34:52Z</time>
      </trkpt>
      <trkpt lat="41.3918760" lon="-8.7744300">
        <ele>9.5</ele>
        <time>2019-08-15T16:34:59Z</time>
      </trkpt>
      <trkpt lat="41.3920650" lon="-8.7746280">
        <ele>8.3</ele>
        <time>2019-08-15T16:35:05Z</time>
      </trkpt>
      <trkpt lat="41.3922780" lon="-8.7748820">
        <ele>7.8</ele>
        <time>2019-08-15T16:35:13Z</time>
      </trkpt>
      <trkpt lat="41.3925360" lon="-8.7751170">
        <ele>7.5</ele>
        <time>2019-08-15T16:35:22Z</time>
      </trkpt>
      <trkpt lat="41.3927490" lon="-8.7753460">
        <ele>7.0</ele>
        <time>2019-08-15T16:35:29Z</time>
      </trkpt>
      <trkpt lat="41.3930360" lon="-8.7756330">
        <ele>5.8</ele>
        <time>2019-08-15T16:35:37Z</time>
      </trkpt>
      <trkpt lat="41.3931900" lon="-8.7758950">
        <ele>5.6</ele>
        <time>2019-08-15T16:35:43Z</time>
      </trkpt>
      <trkpt lat="41.3933410" lon="-8.7760910">
        <ele>6.1</ele>
        <time>2019-08-15T16:35:48Z</time>
      </trkpt>
      <trkpt lat="41.3936520" lon="-8.7764270">
        <ele>6.5</ele>
        <time>2019-08-15T16:35:57Z</time>
      </trkpt>
      <trkpt lat="41.3939070" lon="-8.7766060">
        <ele>6.5</ele>
        <time>2019-08-15T16:36:04Z</time>
      </trkpt>
      <trkpt lat="41.3942290" lon="-8.7767640">
        <ele>6.5</ele>
        <time>2019-08-15T16:36:13Z</time>
      </trkpt>
      <trkpt lat="41.3944420" lon="-8.7768940">
        <ele>6.7</ele>
        <time>2019-08-15T16:36:20Z</time>
      </trkpt>
      <trkpt lat="41.3944700" lon="-8.7769230">
        <ele>6.7</ele>
        <time>2019-08-15T16:36:21Z</time>
      </trkpt>
      <trkpt lat="41.3946580" lon="-8.7770420">
        <ele>6.8</ele>
        <time>2019-08-15T16:36:25Z</time>
      </trkpt>
      <trkpt lat="41.3950520" lon="-8.7772500">
        <ele>6.7</ele>
        <time>2019-08-15T16:36:32Z</time>
      </trkpt>
      <trkpt lat="41.3955230" lon="-8.7775290">
        <ele>5.5</ele>
        <time>2019-08-15T16:36:40Z</time>
      </trkpt>
      <trkpt lat="41.3959820" lon="-8.7778050">
        <ele>5.1</ele>
        <time>2019-08-15T16:36:48Z</time>
      </trkpt>
      <trkpt lat="41.3964500" lon="-8.7780120">
        <ele>6.6</ele>
        <time>2019-08-15T16:36:56Z</time>
      </trkpt>
      <trkpt lat="41.3966130" lon="-8.7780780">
        <ele>7.1</ele>
        <time>2019-08-15T16:36:59Z</time>
      </trkpt>
      <trkpt lat="41.3967910" lon="-8.7781040">
        <ele>7.6</ele>
        <time>2019-08-15T16:37:02Z</time>
      </trkpt>
      <trkpt lat="41.3971170" lon="-8.7781210">
        <ele>8.2</ele>
        <time>2019-08-15T16:37:08Z</time>
      </trkpt>
      <trkpt lat="41.3971600" lon="-8.7781120">
        <ele>8.2</ele>
        <time>2019-08-15T16:37:09Z</time>
      </trkpt>
      <trkpt lat="41.3972720" lon="-8.7780200">
        <ele>8.3</ele>
        <time>2019-08-15T16:37:12Z</time>
      </trkpt>
      <trkpt lat="41.3975360" lon="-8.7778830">
        <ele>8.4</ele>
        <time>2019-08-15T16:37:19Z</time>
      </trkpt>
      <trkpt lat="41.3975980" lon="-8.7779820">
        <ele>7.7</ele>
        <time>2019-08-15T16:37:23Z</time>
      </trkpt>
      <trkpt lat="41.3976040" lon="-8.7781210">
        <ele>6.3</ele>
        <time>2019-08-15T16:37:26Z</time>
      </trkpt>
      <trkpt lat="41.3976130" lon="-8.7782700">
        <ele>5.0</ele>
        <time>2019-08-15T16:37:29Z</time>
      </trkpt>
      <trkpt lat="41.3976320" lon="-8.7783660">
        <ele>4.5</ele>
        <time>2019-08-15T16:37:31Z</time>
      </trkpt>
      <trkpt lat="41.3976860" lon="-8.7784360">
        <ele>3.8</ele>
        <time>2019-08-15T16:37:33Z</time>
      </trkpt>
      <trkpt lat="41.3977560" lon="-8.7784650">
        <ele>3.1</ele>
        <time>2019-08-15T16:37:35Z</time>
      </trkpt>
      <trkpt lat="41.3978240" lon="-8.7784920">
        <ele>2.4</ele>
        <time>2019-08-15T16:37:37Z</time>
      </trkpt>
      <trkpt lat="41.3980170" lon="-8.7784150">
        <ele>1.9</ele>
        <time>2019-08-15T16:37:42Z</time>
      </trkpt>
      <trkpt lat="41.3983290" lon="-8.7782080">
        <ele>1.5</ele>
        <time>2019-08-15T16:37:49Z</time>
      </trkpt>
      <trkpt lat="41.3984150" lon="-8.7781620">
        <ele>1.6</ele>
        <time>2019-08-15T16:37:51Z</time>
      </trkpt>
      <trkpt lat="41.3985460" lon="-8.7780700">
        <ele>1.8</ele>
        <time>2019-08-15T16:37:54Z</time>
      </trkpt>
      <trkpt lat="41.3985870" lon="-8.7780460">
        <ele>1.9</ele>
        <time>2019-08-15T16:37:55Z</time>
      </trkpt>
      <trkpt lat="41.3987650" lon="-8.7779410">
        <ele>2.3</ele>
        <time>2019-08-15T16:37:59Z</time>
      </trkpt>
      <trkpt lat="41.3988100" lon="-8.7779020">
        <ele>2.4</ele>
        <time>2019-08-15T16:38:00Z</time>
      </trkpt>
      <trkpt lat="41.3988510" lon="-8.7778550">
        <ele>2.5</ele>
        <time>2019-08-15T16:38:01Z</time>
      </trkpt>
      <trkpt lat="41.3988890" lon="-8.7778080">
        <ele>2.6</ele>
        <time>2019-08-15T16:38:02Z</time>
      </trkpt>
      <trkpt lat="41.3989320" lon="-8.7777660">
        <ele>2.7</ele>
        <time>2019-08-15T16:38:03Z</time>
      </trkpt>
      <trkpt lat="41.3991930" lon="-8.7774990">
        <ele>2.5</ele>
        <time>2019-08-15T16:38:09Z</time>
      </trkpt>
      <trkpt lat="41.3995660" lon="-8.7772040">
        <ele>3.4</ele>
        <time>2019-08-15T16:38:17Z</time>
      </trkpt>
      <trkpt lat="41.3998200" lon="-8.7770400">
        <ele>4.9</ele>
        <time>2019-08-15T16:38:23Z</time>
      </trkpt>
      <trkpt lat="41.3998320" lon="-8.7770410">
        <ele>4.9</ele>
        <time>2019-08-15T16:38:24Z</time>
      </trkpt>
      <trkpt lat="41.3998330" lon="-8.7770610">
        <ele>4.9</ele>
        <time>2019-08-15T16:39:29Z</time>
      </trkpt>
      <trkpt lat="41.3998300" lon="-8.7770550">
        <ele>4.9</ele>
        <time>2019-08-15T16:39:30Z</time>
      </trkpt>
      <trkpt lat="41.3998200" lon="-8.7770060">
        <ele>4.9</ele>
        <time>2019-08-15T16:44:33Z</time>
      </trkpt>
      <trkpt lat="41.3998380" lon="-8.7770400">
        <ele>4.9</ele>
        <time>2019-08-15T16:44:38Z</time>
      </trkpt>
      <trkpt lat="41.3998450" lon="-8.7770430">
        <ele>4.9</ele>
        <time>2019-08-15T16:44:40Z</time>
      </trkpt>
      <trkpt lat="41.3998550" lon="-8.7770410">
        <ele>4.9</ele>
        <time>2019-08-15T16:45:10Z</time>
      </trkpt>
      <trkpt lat="41.3998510" lon="-8.7770520">
        <ele>4.9</ele>
        <time>2019-08-15T16:45:12Z</time>
      </trkpt>
      <trkpt lat="41.3998640" lon="-8.7770440">
        <ele>4.9</ele>
        <time>2019-08-15T16:45:40Z</time>
      </trkpt>
      <trkpt lat="41.3999020" lon="-8.7769840">
        <ele>5.0</ele>
        <time>2019-08-15T16:45:43Z</time>
      </trkpt>
      <trkpt lat="41.4000500" lon="-8.7767920">
        <ele>5.1</ele>
        <time>2019-08-15T16:45:49Z</time>
      </trkpt>
      <trkpt lat="41.4003490" lon="-8.7765490">
        <ele>5.4</ele>
        <time>2019-08-15T16:45:57Z</time>
      </trkpt>
      <trkpt lat="41.4006230" lon="-8.7763200">
        <ele>5.8</ele>
        <time>2019-08-15T16:46:05Z</time>
      </trkpt>
      <trkpt lat="41.4006620" lon="-8.7762910">
        <ele>5.9</ele>
        <time>2019-08-15T16:46:06Z</time>
      </trkpt>
      <trkpt lat="41.4007050" lon="-8.7762650">
        <ele>6.0</ele>
        <time>2019-08-15T16:46:07Z</time>
      </trkpt>
      <trkpt lat="41.4007510" lon="-8.7762390">
        <ele>6.1</ele>
        <time>2019-08-15T16:46:08Z</time>
      </trkpt>
      <trkpt lat="41.4007940" lon="-8.7762080">
        <ele>6.2</ele>
        <time>2019-08-15T16:46:09Z</time>
      </trkpt>
      <trkpt lat="41.4009200" lon="-8.7761100">
        <ele>6.4</ele>
        <time>2019-08-15T16:46:12Z</time>
      </trkpt>
      <trkpt lat="41.4009850" lon="-8.7760210">
        <ele>6.5</ele>
        <time>2019-08-15T16:46:14Z</time>
      </trkpt>
      <trkpt lat="41.4010530" lon="-8.7758780">
        <ele>6.7</ele>
        <time>2019-08-15T16:46:18Z</time>
      </trkpt>
      <trkpt lat="41.4010670" lon="-8.7758700">
        <ele>6.7</ele>
        <time>2019-08-15T16:46:19Z</time>
      </trkpt>
      <trkpt lat="41.4011060" lon="-8.7758050">
        <ele>6.8</ele>
        <time>2019-08-15T16:46:22Z</time>
      </trkpt>
      <trkpt lat="41.4011510" lon="-8.7755760">
        <ele>6.7</ele>
        <time>2019-08-15T16:46:28Z</time>
      </trkpt>
      <trkpt lat="41.4011520" lon="-8.7755420">
        <ele>6.7</ele>
        <time>2019-08-15T16:46:29Z</time>
      </trkpt>
      <trkpt lat="41.4011650" lon="-8.7754550">
        <ele>6.6</ele>
        <time>2019-08-15T16:46:32Z</time>
      </trkpt>
      <trkpt lat="41.4011760" lon="-8.7752330">
        <ele>6.1</ele>
        <time>2019-08-15T16:46:39Z</time>
      </trkpt>
      <trkpt lat="41.4011740" lon="-8.7751940">
        <ele>6.0</ele>
        <time>2019-08-15T16:46:40Z</time>
      </trkpt>
      <trkpt lat="41.4011740" lon="-8.7751550">
        <ele>6.0</ele>
        <time>2019-08-15T16:46:41Z</time>
      </trkpt>
      <trkpt lat="41.4011750" lon="-8.7751140">
        <ele>5.9</ele>
        <time>2019-08-15T16:46:42Z</time>
      </trkpt>
      <trkpt lat="41.4011770" lon="-8.7750740">
        <ele>5.8</ele>
        <time>2019-08-15T16:46:43Z</time>
      </trkpt>
      <trkpt lat="41.4013350" lon="-8.7748480">
        <ele>5.3</ele>
        <time>2019-08-15T16:46:49Z</time>
      </trkpt>
      <trkpt lat="41.4013980" lon="-8.7745520">
        <ele>5.3</ele>
        <time>2019-08-15T16:46:56Z</time>
      </trkpt>
      <trkpt lat="41.4014370" lon="-8.7743730">
        <ele>5.8</ele>
        <time>2019-08-15T16:47:01Z</time>
      </trkpt>
      <trkpt lat="41.4015030" lon="-8.7742060">
        <ele>6.4</ele>
        <time>2019-08-15T16:47:06Z</time>
      </trkpt>
      <trkpt lat="41.4017280" lon="-8.7738980">
        <ele>7.8</ele>
        <time>2019-08-15T16:47:14Z</time>
      </trkpt>
      <trkpt lat="41.4019670" lon="-8.7735460">
        <ele>8.9</ele>
        <time>2019-08-15T16:47:23Z</time>
      </trkpt>
      <trkpt lat="41.4019930" lon="-8.7735010">
        <ele>9.0</ele>
        <time>2019-08-15T16:47:24Z</time>
      </trkpt>
      <trkpt lat="41.4020170" lon="-8.7734560">
        <ele>9.1</ele>
        <time>2019-08-15T16:47:25Z</time>
      </trkpt>
      <trkpt lat="41.4020420" lon="-8.7734110">
        <ele>9.3</ele>
        <time>2019-08-15T16:47:26Z</time>
      </trkpt>
      <trkpt lat="41.4020640" lon="-8.7733590">
        <ele>9.4</ele>
        <time>2019-08-15T16:47:27Z</time>
      </trkpt>
      <trkpt lat="41.4021550" lon="-8.7730740">
        <ele>10.6</ele>
        <time>2019-08-15T16:47:32Z</time>
      </trkpt>
      <trkpt lat="41.4023380" lon="-8.7725580">
        <ele>12.5</ele>
        <time>2019-08-15T16:47:41Z</time>
      </trkpt>
      <trkpt lat="41.4024820" lon="-8.7721740">
        <ele>13.9</ele>
        <time>2019-08-15T16:47:48Z</time>
      </trkpt>
      <trkpt lat="41.4025280" lon="-8.7720680">
        <ele>14.4</ele>
        <time>2019-08-15T16:47:50Z</time>
      </trkpt>
      <trkpt lat="41.4026070" lon="-8.7718970">
        <ele>14.4</ele>
        <time>2019-08-15T16:47:53Z</time>
      </trkpt>
      <trkpt lat="41.4027090" lon="-8.7717380">
        <ele>14.2</ele>
        <time>2019-08-15T16:47:56Z</time>
      </trkpt>
      <trkpt lat="41.4027280" lon="-8.7716790">
        <ele>14.1</ele>
        <time>2019-08-15T16:47:57Z</time>
      </trkpt>
      <trkpt lat="41.4027540" lon="-8.7716250">
        <ele>14.1</ele>
        <time>2019-08-15T16:47:58Z</time>
      </trkpt>
      <trkpt lat="41.4027720" lon="-8.7715640">
        <ele>14.1</ele>
        <time>2019-08-15T16:47:59Z</time>
      </trkpt>
      <trkpt lat="41.4027880" lon="-8.7714990">
        <ele>14.0</ele>
        <time>2019-08-15T16:48:00Z</time>
      </trkpt>
      <trkpt lat="41.4028240" lon="-8.7713220">
        <ele>13.9</ele>
        <time>2019-08-15T16:48:03Z</time>
      </trkpt>
      <trkpt lat="41.4029680" lon="-8.7708430">
        <ele>13.4</ele>
        <time>2019-08-15T16:48:12Z</time>
      </trkpt>
      <trkpt lat="41.4032060" lon="-8.7703060">
        <ele>12.8</ele>
        <time>2019-08-15T16:48:22Z</time>
      </trkpt>
      <trkpt lat="41.4032250" lon="-8.7702590">
        <ele>12.8</ele>
        <time>2019-08-15T16:48:23Z</time>
      </trkpt>
      <trkpt lat="41.4032390" lon="-8.7702160">
        <ele>12.7</ele>
        <time>2019-08-15T16:48:24Z</time>
      </trkpt>
      <trkpt lat="41.4032510" lon="-8.7701720">
        <ele>12.7</ele>
        <time>2019-08-15T16:48:25Z</time>
      </trkpt>
      <trkpt lat="41.4032710" lon="-8.7701360">
        <ele>12.7</ele>
        <time>2019-08-15T16:48:26Z</time>
      </trkpt>
      <trkpt lat="41.4033170" lon="-8.7700120">
        <ele>12.5</ele>
        <time>2019-08-15T16:48:29Z</time>
      </trkpt>
      <trkpt lat="41.4034060" lon="-8.7698430">
        <ele>12.4</ele>
        <time>2019-08-15T16:48:34Z</time>
      </trkpt>
      <trkpt lat="41.4034260" lon="-8.7698000">
        <ele>12.4</ele>
        <time>2019-08-15T16:48:37Z</time>
      </trkpt>
      <trkpt lat="41.4034040" lon="-8.7698040">
        <ele>12.4</ele>
        <time>2019-08-15T16:48:53Z</time>
      </trkpt>
      <trkpt lat="41.4034770" lon="-8.7696780">
        <ele>12.5</ele>
        <time>2019-08-15T16:48:58Z</time>
      </trkpt>
      <trkpt lat="41.4035400" lon="-8.7696330">
        <ele>12.5</ele>
        <time>2019-08-15T16:49:03Z</time>
      </trkpt>
      <trkpt lat="41.4035330" lon="-8.7696300">
        <ele>12.5</ele>
        <time>2019-08-15T16:49:36Z</time>
      </trkpt>
      <trkpt lat="41.4035470" lon="-8.7695160">
        <ele>12.6</ele>
        <time>2019-08-15T16:49:41Z</time>
      </trkpt>
      <trkpt lat="41.4036490" lon="-8.7692580">
        <ele>12.8</ele>
        <time>2019-08-15T16:49:47Z</time>
      </trkpt>
      <trkpt lat="41.4037610" lon="-8.7689370">
        <ele>13.1</ele>
        <time>2019-08-15T16:49:55Z</time>
      </trkpt>
      <trkpt lat="41.4038290" lon="-8.7689020">
        <ele>13.1</ele>
        <time>2019-08-15T16:50:01Z</time>
      </trkpt>
      <trkpt lat="41.4038350" lon="-8.7689050">
        <ele>13.1</ele>
        <time>2019-08-15T16:50:02Z</time>
      </trkpt>
      <trkpt lat="41.4038420" lon="-8.7689050">
        <ele>13.1</ele>
        <time>2019-08-15T16:50:03Z</time>
      </trkpt>
      <trkpt lat="41.4038500" lon="-8.7688980">
        <ele>13.1</ele>
        <time>2019-08-15T16:50:15Z</time>
      </trkpt>
      <trkpt lat="41.4038920" lon="-8.7688990">
        <ele>13.2</ele>
        <time>2019-08-15T16:50:17Z</time>
      </trkpt>
      <trkpt lat="41.4039350" lon="-8.7689050">
        <ele>13.2</ele>
        <time>2019-08-15T16:50:18Z</time>
      </trkpt>
      <trkpt lat="41.4040090" lon="-8.7689520">
        <ele>13.4</ele>
        <time>2019-08-15T16:50:20Z</time>
      </trkpt>
      <trkpt lat="41.4040460" lon="-8.7689760">
        <ele>13.4</ele>
        <time>2019-08-15T16:50:21Z</time>
      </trkpt>
      <trkpt lat="41.4043090" lon="-8.7691920">
        <ele>13.3</ele>
        <time>2019-08-15T16:50:28Z</time>
      </trkpt>
      <trkpt lat="41.4044770" lon="-8.7693880">
        <ele>13.1</ele>
        <time>2019-08-15T16:50:33Z</time>
      </trkpt>
      <trkpt lat="41.4045360" lon="-8.7694770">
        <ele>13.1</ele>
        <time>2019-08-15T16:50:35Z</time>
      </trkpt>
      <trkpt lat="41.4047450" lon="-8.7698730">
        <ele>13.8</ele>
        <time>2019-08-15T16:50:42Z</time>
      </trkpt>
      <trkpt lat="41.4050730" lon="-8.7703230">
        <ele>14.4</ele>
        <time>2019-08-15T16:50:51Z</time>
      </trkpt>
      <trkpt lat="41.4051770" lon="-8.7704650">
        <ele>14.5</ele>
        <time>2019-08-15T16:50:54Z</time>
      </trkpt>
      <trkpt lat="41.4053090" lon="-8.7705690">
        <ele>14.4</ele>
        <time>2019-08-15T16:50:57Z</time>
      </trkpt>
      <trkpt lat="41.4056940" lon="-8.7708950">
        <ele>14.3</ele>
        <time>2019-08-15T16:51:06Z</time>
      </trkpt>
      <trkpt lat="41.4059320" lon="-8.7711630">
        <ele>14.9</ele>
        <time>2019-08-15T16:51:13Z</time>
      </trkpt>
      <trkpt lat="41.4060410" lon="-8.7712040">
        <ele>15.3</ele>
        <time>2019-08-15T16:51:16Z</time>
      </trkpt>
      <trkpt lat="41.4062460" lon="-8.7712470">
        <ele>15.8</ele>
        <time>2019-08-15T16:51:21Z</time>
      </trkpt>
      <trkpt lat="41.4065630" lon="-8.7715100">
        <ele>15.3</ele>
        <time>2019-08-15T16:51:29Z</time>
      </trkpt>
      <trkpt lat="41.4069040" lon="-8.7718320">
        <ele>15.1</ele>
        <time>2019-08-15T16:51:37Z</time>
      </trkpt>
      <trkpt lat="41.4072360" lon="-8.7720930">
        <ele>15.2</ele>
        <time>2019-08-15T16:51:44Z</time>
      </trkpt>
      <trkpt lat="41.4076200" lon="-8.7724790">
        <ele>15.4</ele>
        <time>2019-08-15T16:51:53Z</time>
      </trkpt>
      <trkpt lat="41.4079390" lon="-8.7728470">
        <ele>15.2</ele>
        <time>2019-08-15T16:52:01Z</time>
      </trkpt>
      <trkpt lat="41.4079700" lon="-8.7728940">
        <ele>15.2</ele>
        <time>2019-08-15T16:52:02Z</time>
      </trkpt>
      <trkpt lat="41.4080890" lon="-8.7730660">
        <ele>14.9</ele>
        <time>2019-08-15T16:52:06Z</time>
      </trkpt>
      <trkpt lat="41.4083520" lon="-8.7733970">
        <ele>14.3</ele>
        <time>2019-08-15T16:52:14Z</time>
      </trkpt>
      <trkpt lat="41.4083900" lon="-8.7734380">
        <ele>14.3</ele>
        <time>2019-08-15T16:52:15Z</time>
      </trkpt>
      <trkpt lat="41.4085470" lon="-8.7736170">
        <ele>14.5</ele>
        <time>2019-08-15T16:52:19Z</time>
      </trkpt>
      <trkpt lat="41.4088380" lon="-8.7739800">
        <ele>14.9</ele>
        <time>2019-08-15T16:52:27Z</time>
      </trkpt>
      <trkpt lat="41.4090860" lon="-8.7742540">
        <ele>14.9</ele>
        <time>2019-08-15T16:52:34Z</time>
      </trkpt>
      <trkpt lat="41.4093630" lon="-8.7745160">
        <ele>14.9</ele>
        <time>2019-08-15T16:52:41Z</time>
      </trkpt>
      <trkpt lat="41.4094690" lon="-8.7746530">
        <ele>15.0</ele>
        <time>2019-08-15T16:52:44Z</time>
      </trkpt>
      <trkpt lat="41.4097720" lon="-8.7750040">
        <ele>15.2</ele>
        <time>2019-08-15T16:52:52Z</time>
      </trkpt>
      <trkpt lat="41.4101110" lon="-8.7752810">
        <ele>15.7</ele>
        <time>2019-08-15T16:53:00Z</time>
      </trkpt>
      <trkpt lat="41.4104760" lon="-8.7755970">
        <ele>16.0</ele>
        <time>2019-08-15T16:53:09Z</time>
      </trkpt>
      <trkpt lat="41.4108820" lon="-8.7759330">
        <ele>15.7</ele>
        <time>2019-08-15T16:53:19Z</time>
      </trkpt>
      <trkpt lat="41.4113360" lon="-8.7763110">
        <ele>15.3</ele>
        <time>2019-08-15T16:53:30Z</time>
      </trkpt>
      <trkpt lat="41.4116230" lon="-8.7764720">
        <ele>15.1</ele>
        <time>2019-08-15T16:53:37Z</time>
      </trkpt>
      <trkpt lat="41.4119960" lon="-8.7766680">
        <ele>15.0</ele>
        <time>2019-08-15T16:53:46Z</time>
      </trkpt>
      <trkpt lat="41.4124070" lon="-8.7768470">
        <ele>15.0</ele>
        <time>2019-08-15T16:53:55Z</time>
      </trkpt>
      <trkpt lat="41.4126380" lon="-8.7769130">
        <ele>15.1</ele>
        <time>2019-08-15T16:54:00Z</time>
      </trkpt>
      <trkpt lat="41.4127820" lon="-8.7769260">
        <ele>15.1</ele>
        <time>2019-08-15T16:54:03Z</time>
      </trkpt>
      <trkpt lat="41.4133630" lon="-8.7769600">
        <ele>15.1</ele>
        <time>2019-08-15T16:54:15Z</time>
      </trkpt>
      <trkpt lat="41.4134110" lon="-8.7769570">
        <ele>15.1</ele>
        <time>2019-08-15T16:54:16Z</time>
      </trkpt>
      <trkpt lat="41.4134630" lon="-8.7769560">
        <ele>15.2</ele>
        <time>2019-08-15T16:54:17Z</time>
      </trkpt>
      <trkpt lat="41.4135130" lon="-8.7769580">
        <ele>15.3</ele>
        <time>2019-08-15T16:54:18Z</time>
      </trkpt>
      <trkpt lat="41.4135630" lon="-8.7769600">
        <ele>15.5</ele>
        <time>2019-08-15T16:54:19Z</time>
      </trkpt>
      <trkpt lat="41.4138150" lon="-8.7769640">
        <ele>16.0</ele>
        <time>2019-08-15T16:54:24Z</time>
      </trkpt>
      <trkpt lat="41.4141210" lon="-8.7770110">
        <ele>16.0</ele>
        <time>2019-08-15T16:54:30Z</time>
      </trkpt>
      <trkpt lat="41.4142170" lon="-8.7770570">
        <ele>16.1</ele>
        <time>2019-08-15T16:54:32Z</time>
      </trkpt>
      <trkpt lat="41.4144990" lon="-8.7772160">
        <ele>16.6</ele>
        <time>2019-08-15T16:54:38Z</time>
      </trkpt>
      <trkpt lat="41.4145470" lon="-8.7772370">
        <ele>16.7</ele>
        <time>2019-08-15T16:54:39Z</time>
      </trkpt>
      <trkpt lat="41.4148650" lon="-8.7773890">
        <ele>16.7</ele>
        <time>2019-08-15T16:54:46Z</time>
      </trkpt>
      <trkpt lat="41.4152550" lon="-8.7775950">
        <ele>16.9</ele>
        <time>2019-08-15T16:54:55Z</time>
      </trkpt>
      <trkpt lat="41.4156530" lon="-8.7778000">
        <ele>16.9</ele>
        <time>2019-08-15T16:55:04Z</time>
      </trkpt>
      <trkpt lat="41.4156960" lon="-8.7777960">
        <ele>16.8</ele>
        <time>2019-08-15T16:55:05Z</time>
      </trkpt>
      <trkpt lat="41.4158200" lon="-8.7777930">
        <ele>16.7</ele>
        <time>2019-08-15T16:55:08Z</time>
      </trkpt>
      <trkpt lat="41.4158980" lon="-8.7778520">
        <ele>16.7</ele>
        <time>2019-08-15T16:55:10Z</time>
      </trkpt>
      <trkpt lat="41.4160460" lon="-8.7780080">
        <ele>17.2</ele>
        <time>2019-08-15T16:55:14Z</time>
      </trkpt>
      <trkpt lat="41.4161380" lon="-8.7780610">
        <ele>17.2</ele>
        <time>2019-08-15T16:55:16Z</time>
      </trkpt>
      <trkpt lat="41.4164230" lon="-8.7781930">
        <ele>17.4</ele>
        <time>2019-08-15T16:55:22Z</time>
      </trkpt>
      <trkpt lat="41.4164750" lon="-8.7782010">
        <ele>17.5</ele>
        <time>2019-08-15T16:55:23Z</time>
      </trkpt>
      <trkpt lat="41.4167770" lon="-8.7781460">
        <ele>17.7</ele>
        <time>2019-08-15T16:55:29Z</time>
      </trkpt>
      <trkpt lat="41.4172570" lon="-8.7780990">
        <ele>17.5</ele>
        <time>2019-08-15T16:55:38Z</time>
      </trkpt>
      <trkpt lat="41.4176190" lon="-8.7781030">
        <ele>17.1</ele>
        <time>2019-08-15T16:55:45Z</time>
      </trkpt>
      <trkpt lat="41.4178240" lon="-8.7781610">
        <ele>16.9</ele>
        <time>2019-08-15T16:55:49Z</time>
      </trkpt>
      <trkpt lat="41.4179200" lon="-8.7782110">
        <ele>16.8</ele>
        <time>2019-08-15T16:55:51Z</time>
      </trkpt>
      <trkpt lat="41.4183380" lon="-8.7784660">
        <ele>16.5</ele>
        <time>2019-08-15T16:55:59Z</time>
      </trkpt>
      <trkpt lat="41.4187120" lon="-8.7786340">
        <ele>16.0</ele>
        <time>2019-08-15T16:56:06Z</time>
      </trkpt>
      <trkpt lat="41.4192360" lon="-8.7787930">
        <ele>15.2</ele>
        <time>2019-08-15T16:56:16Z</time>
      </trkpt>
      <trkpt lat="41.4196930" lon="-8.7788970">
        <ele>14.5</ele>
        <time>2019-08-15T16:56:24Z</time>
      </trkpt>
      <trkpt lat="41.4202390" lon="-8.7790370">
        <ele>14.2</ele>
        <time>2019-08-15T16:56:33Z</time>
      </trkpt>
      <trkpt lat="41.4202980" lon="-8.7790340">
        <ele>14.2</ele>
        <time>2019-08-15T16:56:34Z</time>
      </trkpt>
      <trkpt lat="41.4203540" lon="-8.7790170">
        <ele>14.2</ele>
        <time>2019-08-15T16:56:35Z</time>
      </trkpt>
      <trkpt lat="41.4204070" lon="-8.7789920">
        <ele>14.2</ele>
        <time>2019-08-15T16:56:36Z</time>
      </trkpt>
      <trkpt lat="41.4204610" lon="-8.7789620">
        <ele>14.3</ele>
        <time>2019-08-15T16:56:37Z</time>
      </trkpt>
      <trkpt lat="41.4205100" lon="-8.7789260">
        <ele>14.4</ele>
        <time>2019-08-15T16:56:38Z</time>
      </trkpt>
      <trkpt lat="41.4205570" lon="-8.7788930">
        <ele>14.5</ele>
        <time>2019-08-15T16:56:39Z</time>
      </trkpt>
      <trkpt lat="41.4208660" lon="-8.7787360">
        <ele>14.9</ele>
        <time>2019-08-15T16:56:45Z</time>
      </trkpt>
      <trkpt lat="41.4210280" lon="-8.7786780">
        <ele>15.2</ele>
        <time>2019-08-15T16:56:48Z</time>
      </trkpt>
      <trkpt lat="41.4211980" lon="-8.7786660">
        <ele>15.4</ele>
        <time>2019-08-15T16:56:51Z</time>
      </trkpt>
      <trkpt lat="41.4215880" lon="-8.7787100">
        <ele>15.9</ele>
        <time>2019-08-15T16:56:58Z</time>
      </trkpt>
      <trkpt lat="41.4220540" lon="-8.7788130">
        <ele>15.7</ele>
        <time>2019-08-15T16:57:06Z</time>
      </trkpt>
      <trkpt lat="41.4225910" lon="-8.7789330">
        <ele>15.5</ele>
        <time>2019-08-15T16:57:15Z</time>
      </trkpt>
      <trkpt lat="41.4229610" lon="-8.7790100">
        <ele>15.6</ele>
        <time>2019-08-15T16:57:22Z</time>
      </trkpt>
      <trkpt lat="41.4232590" lon="-8.7790580">
        <ele>15.6</ele>
        <time>2019-08-15T16:57:29Z</time>
      </trkpt>
      <trkpt lat="41.4236530" lon="-8.7790930">
        <ele>14.9</ele>
        <time>2019-08-15T16:57:39Z</time>
      </trkpt>
      <trkpt lat="41.4238910" lon="-8.7791350">
        <ele>14.2</ele>
        <time>2019-08-15T16:57:46Z</time>
      </trkpt>
      <trkpt lat="41.4241980" lon="-8.7791770">
        <ele>13.4</ele>
        <time>2019-08-15T16:57:55Z</time>
      </trkpt>
      <trkpt lat="41.4243990" lon="-8.7791690">
        <ele>13.0</ele>
        <time>2019-08-15T16:58:02Z</time>
      </trkpt>
      <trkpt lat="41.4245890" lon="-8.7791130">
        <ele>12.7</ele>
        <time>2019-08-15T16:58:08Z</time>
      </trkpt>
      <trkpt lat="41.4246170" lon="-8.7791020">
        <ele>12.7</ele>
        <time>2019-08-15T16:58:09Z</time>
      </trkpt>
      <trkpt lat="41.4246520" lon="-8.7790910">
        <ele>12.6</ele>
        <time>2019-08-15T16:58:10Z</time>
      </trkpt>
      <trkpt lat="41.4246910" lon="-8.7790790">
        <ele>12.5</ele>
        <time>2019-08-15T16:58:11Z</time>
      </trkpt>
      <trkpt lat="41.4247350" lon="-8.7790700">
        <ele>12.5</ele>
        <time>2019-08-15T16:58:12Z</time>
      </trkpt>
      <trkpt lat="41.4247840" lon="-8.7790630">
        <ele>12.4</ele>
        <time>2019-08-15T16:58:13Z</time>
      </trkpt>
      <trkpt lat="41.4248330" lon="-8.7790580">
        <ele>12.3</ele>
        <time>2019-08-15T16:58:14Z</time>
      </trkpt>
      <trkpt lat="41.4252870" lon="-8.7790050">
        <ele>11.2</ele>
        <time>2019-08-15T16:58:22Z</time>
      </trkpt>
      <trkpt lat="41.4254580" lon="-8.7790250">
        <ele>11.1</ele>
        <time>2019-08-15T16:58:25Z</time>
      </trkpt>
      <trkpt lat="41.4256190" lon="-8.7790290">
        <ele>11.1</ele>
        <time>2019-08-15T16:58:28Z</time>
      </trkpt>
      <trkpt lat="41.4256740" lon="-8.7790390">
        <ele>11.1</ele>
        <time>2019-08-15T16:58:29Z</time>
      </trkpt>
      <trkpt lat="41.4258740" lon="-8.7790820">
        <ele>11.0</ele>
        <time>2019-08-15T16:58:33Z</time>
      </trkpt>
      <trkpt lat="41.4263720" lon="-8.7791580">
        <ele>10.7</ele>
        <time>2019-08-15T16:58:43Z</time>
      </trkpt>
      <trkpt lat="41.4265950" lon="-8.7791790">
        <ele>10.6</ele>
        <time>2019-08-15T16:58:47Z</time>
      </trkpt>
      <trkpt lat="41.4267570" lon="-8.7792350">
        <ele>10.5</ele>
        <time>2019-08-15T16:58:50Z</time>
      </trkpt>
      <trkpt lat="41.4270190" lon="-8.7793130">
        <ele>10.4</ele>
        <time>2019-08-15T16:58:55Z</time>
      </trkpt>
      <trkpt lat="41.4271270" lon="-8.7793380">
        <ele>10.3</ele>
        <time>2019-08-15T16:58:57Z</time>
      </trkpt>
      <trkpt lat="41.4275080" lon="-8.7793950">
        <ele>9.9</ele>
        <time>2019-08-15T16:59:04Z</time>
      </trkpt>
      <trkpt lat="41.4275590" lon="-8.7793970">
        <ele>9.8</ele>
        <time>2019-08-15T16:59:05Z</time>
      </trkpt>
      <trkpt lat="41.4276050" lon="-8.7794110">
        <ele>9.7</ele>
        <time>2019-08-15T16:59:06Z</time>
      </trkpt>
      <trkpt lat="41.4276450" lon="-8.7794220">
        <ele>9.7</ele>
        <time>2019-08-15T16:59:07Z</time>
      </trkpt>
      <trkpt lat="41.4276890" lon="-8.7794340">
        <ele>9.6</ele>
        <time>2019-08-15T16:59:08Z</time>
      </trkpt>
      <trkpt lat="41.4277330" lon="-8.7794190">
        <ele>9.6</ele>
        <time>2019-08-15T16:59:09Z</time>
      </trkpt>
      <trkpt lat="41.4278990" lon="-8.7792980">
        <ele>9.5</ele>
        <time>2019-08-15T16:59:13Z</time>
      </trkpt>
      <trkpt lat="41.4283000" lon="-8.7790680">
        <ele>9.6</ele>
        <time>2019-08-15T16:59:21Z</time>
      </trkpt>
      <trkpt lat="41.4283460" lon="-8.7790370">
        <ele>9.6</ele>
        <time>2019-08-15T16:59:22Z</time>
      </trkpt>
      <trkpt lat="41.4287140" lon="-8.7789420">
        <ele>9.7</ele>
        <time>2019-08-15T16:59:29Z</time>
      </trkpt>
      <trkpt lat="41.4291270" lon="-8.7788080">
        <ele>9.6</ele>
        <time>2019-08-15T16:59:37Z</time>
      </trkpt>
      <trkpt lat="41.4291730" lon="-8.7787690">
        <ele>9.6</ele>
        <time>2019-08-15T16:59:38Z</time>
      </trkpt>
      <trkpt lat="41.4292560" lon="-8.7785220">
        <ele>9.7</ele>
        <time>2019-08-15T16:59:42Z</time>
      </trkpt>
      <trkpt lat="41.4292700" lon="-8.7784590">
        <ele>9.7</ele>
        <time>2019-08-15T16:59:43Z</time>
      </trkpt>
      <trkpt lat="41.4293570" lon="-8.7780440">
        <ele>9.7</ele>
        <time>2019-08-15T16:59:49Z</time>
      </trkpt>
      <trkpt lat="41.4293820" lon="-8.7775490">
        <ele>10.0</ele>
        <time>2019-08-15T16:59:56Z</time>
      </trkpt>
      <trkpt lat="41.4294210" lon="-8.7772120">
        <ele>10.2</ele>
        <time>2019-08-15T17:00:01Z</time>
      </trkpt>
      <trkpt lat="41.4294670" lon="-8.7770870">
        <ele>10.4</ele>
        <time>2019-08-15T17:00:03Z</time>
      </trkpt>
      <trkpt lat="41.4295270" lon="-8.7769650">
        <ele>10.6</ele>
        <time>2019-08-15T17:00:05Z</time>
      </trkpt>
      <trkpt lat="41.4296380" lon="-8.7767350">
        <ele>10.9</ele>
        <time>2019-08-15T17:00:09Z</time>
      </trkpt>
      <trkpt lat="41.4297130" lon="-8.7766810">
        <ele>11.1</ele>
        <time>2019-08-15T17:00:13Z</time>
      </trkpt>
      <trkpt lat="41.4298800" lon="-8.7767420">
        <ele>11.0</ele>
        <time>2019-08-15T17:00:17Z</time>
      </trkpt>
      <trkpt lat="41.4302670" lon="-8.7768110">
        <ele>11.0</ele>
        <time>2019-08-15T17:00:25Z</time>
      </trkpt>
      <trkpt lat="41.4304950" lon="-8.7768790">
        <ele>10.8</ele>
        <time>2019-08-15T17:00:30Z</time>
      </trkpt>
      <trkpt lat="41.4305690" lon="-8.7769770">
        <ele>10.8</ele>
        <time>2019-08-15T17:00:32Z</time>
      </trkpt>
      <trkpt lat="41.4306570" lon="-8.7771830">
        <ele>10.7</ele>
        <time>2019-08-15T17:00:35Z</time>
      </trkpt>
      <trkpt lat="41.4307200" lon="-8.7773200">
        <ele>10.6</ele>
        <time>2019-08-15T17:00:37Z</time>
      </trkpt>
      <trkpt lat="41.4308990" lon="-8.7776460">
        <ele>10.4</ele>
        <time>2019-08-15T17:00:42Z</time>
      </trkpt>
      <trkpt lat="41.4309300" lon="-8.7776900">
        <ele>10.4</ele>
        <time>2019-08-15T17:00:43Z</time>
      </trkpt>
      <trkpt lat="41.4311410" lon="-8.7778820">
        <ele>10.2</ele>
        <time>2019-08-15T17:00:48Z</time>
      </trkpt>
      <trkpt lat="41.4312390" lon="-8.7779380">
        <ele>10.0</ele>
        <time>2019-08-15T17:00:50Z</time>
      </trkpt>
      <trkpt lat="41.4314020" lon="-8.7779800">
        <ele>9.9</ele>
        <time>2019-08-15T17:00:53Z</time>
      </trkpt>
      <trkpt lat="41.4318160" lon="-8.7780550">
        <ele>9.4</ele>
        <time>2019-08-15T17:01:00Z</time>
      </trkpt>
      <trkpt lat="41.4322520" lon="-8.7781500">
        <ele>8.9</ele>
        <time>2019-08-15T17:01:07Z</time>
      </trkpt>
      <trkpt lat="41.4326750" lon="-8.7783210">
        <ele>8.7</ele>
        <time>2019-08-15T17:01:14Z</time>
      </trkpt>
      <trkpt lat="41.4332530" lon="-8.7783850">
        <ele>8.5</ele>
        <time>2019-08-15T17:01:24Z</time>
      </trkpt>
      <trkpt lat="41.4336570" lon="-8.7784130">
        <ele>8.2</ele>
        <time>2019-08-15T17:01:31Z</time>
      </trkpt>
      <trkpt lat="41.4340270" lon="-8.7783720">
        <ele>7.9</ele>
        <time>2019-08-15T17:01:37Z</time>
      </trkpt>
      <trkpt lat="41.4342660" lon="-8.7784970">
        <ele>7.4</ele>
        <time>2019-08-15T17:01:41Z</time>
      </trkpt>
      <trkpt lat="41.4343220" lon="-8.7785370">
        <ele>7.3</ele>
        <time>2019-08-15T17:01:42Z</time>
      </trkpt>
      <trkpt lat="41.4344340" lon="-8.7786190">
        <ele>7.0</ele>
        <time>2019-08-15T17:01:44Z</time>
      </trkpt>
      <trkpt lat="41.4346150" lon="-8.7786800">
        <ele>6.9</ele>
        <time>2019-08-15T17:01:47Z</time>
      </trkpt>
      <trkpt lat="41.4349250" lon="-8.7787420">
        <ele>6.7</ele>
        <time>2019-08-15T17:01:52Z</time>
      </trkpt>
      <trkpt lat="41.4349880" lon="-8.7787440">
        <ele>6.6</ele>
        <time>2019-08-15T17:01:53Z</time>
      </trkpt>
      <trkpt lat="41.4350530" lon="-8.7787460">
        <ele>6.6</ele>
        <time>2019-08-15T17:01:54Z</time>
      </trkpt>
      <trkpt lat="41.4351170" lon="-8.7787490">
        <ele>6.5</ele>
        <time>2019-08-15T17:01:55Z</time>
      </trkpt>
      <trkpt lat="41.4351850" lon="-8.7787560">
        <ele>6.5</ele>
        <time>2019-08-15T17:01:56Z</time>
      </trkpt>
      <trkpt lat="41.4352520" lon="-8.7787640">
        <ele>6.5</ele>
        <time>2019-08-15T17:01:57Z</time>
      </trkpt>
      <trkpt lat="41.4354550" lon="-8.7787780">
        <ele>6.4</ele>
        <time>2019-08-15T17:02:00Z</time>
      </trkpt>
      <trkpt lat="41.4359230" lon="-8.7787230">
        <ele>6.0</ele>
        <time>2019-08-15T17:02:07Z</time>
      </trkpt>
      <trkpt lat="41.4364630" lon="-8.7785970">
        <ele>5.7</ele>
        <time>2019-08-15T17:02:15Z</time>
      </trkpt>
      <trkpt lat="41.4368270" lon="-8.7784660">
        <ele>5.6</ele>
        <time>2019-08-15T17:02:21Z</time>
      </trkpt>
      <trkpt lat="41.4368840" lon="-8.7784480">
        <ele>5.6</ele>
        <time>2019-08-15T17:02:22Z</time>
      </trkpt>
      <trkpt lat="41.4369400" lon="-8.7784250">
        <ele>5.6</ele>
        <time>2019-08-15T17:02:23Z</time>
      </trkpt>
      <trkpt lat="41.4369990" lon="-8.7784000">
        <ele>5.6</ele>
        <time>2019-08-15T17:02:24Z</time>
      </trkpt>
      <trkpt lat="41.4370600" lon="-8.7783800">
        <ele>5.5</ele>
        <time>2019-08-15T17:02:25Z</time>
      </trkpt>
      <trkpt lat="41.4374040" lon="-8.7782630">
        <ele>5.5</ele>
        <time>2019-08-15T17:02:31Z</time>
      </trkpt>
      <trkpt lat="41.4378800" lon="-8.7780880">
        <ele>5.9</ele>
        <time>2019-08-15T17:02:39Z</time>
      </trkpt>
      <trkpt lat="41.4383800" lon="-8.7778640">
        <ele>6.6</ele>
        <time>2019-08-15T17:02:48Z</time>
      </trkpt>
      <trkpt lat="41.4388080" lon="-8.7776430">
        <ele>7.2</ele>
        <time>2019-08-15T17:02:56Z</time>
      </trkpt>
      <trkpt lat="41.4392580" lon="-8.7773770">
        <ele>6.6</ele>
        <time>2019-08-15T17:03:04Z</time>
      </trkpt>
      <trkpt lat="41.4398070" lon="-8.7770780">
        <ele>6.0</ele>
        <time>2019-08-15T17:03:13Z</time>
      </trkpt>
      <trkpt lat="41.4398630" lon="-8.7770420">
        <ele>5.9</ele>
        <time>2019-08-15T17:03:14Z</time>
      </trkpt>
      <trkpt lat="41.4403310" lon="-8.7767750">
        <ele>5.6</ele>
        <time>2019-08-15T17:03:22Z</time>
      </trkpt>
      <trkpt lat="41.4407180" lon="-8.7765470">
        <ele>5.5</ele>
        <time>2019-08-15T17:03:29Z</time>
      </trkpt>
      <trkpt lat="41.4412710" lon="-8.7762400">
        <ele>5.4</ele>
        <time>2019-08-15T17:03:39Z</time>
      </trkpt>
      <trkpt lat="41.4417200" lon="-8.7759980">
        <ele>5.4</ele>
        <time>2019-08-15T17:03:47Z</time>
      </trkpt>
      <trkpt lat="41.4417700" lon="-8.7759680">
        <ele>5.5</ele>
        <time>2019-08-15T17:03:48Z</time>
      </trkpt>
      <trkpt lat="41.4418190" lon="-8.7759400">
        <ele>5.5</ele>
        <time>2019-08-15T17:03:49Z</time>
      </trkpt>
      <trkpt lat="41.4418720" lon="-8.7759130">
        <ele>5.5</ele>
        <time>2019-08-15T17:03:50Z</time>
      </trkpt>
      <trkpt lat="41.4419220" lon="-8.7758880">
        <ele>5.6</ele>
        <time>2019-08-15T17:03:51Z</time>
      </trkpt>
      <trkpt lat="41.4423600" lon="-8.7756380">
        <ele>5.6</ele>
        <time>2019-08-15T17:04:00Z</time>
      </trkpt>
      <trkpt lat="41.4427140" lon="-8.7753650">
        <ele>5.6</ele>
        <time>2019-08-15T17:04:08Z</time>
      </trkpt>
      <trkpt lat="41.4427600" lon="-8.7753280">
        <ele>5.5</ele>
        <time>2019-08-15T17:04:09Z</time>
      </trkpt>
      <trkpt lat="41.4428030" lon="-8.7752860">
        <ele>5.4</ele>
        <time>2019-08-15T17:04:10Z</time>
      </trkpt>
      <trkpt lat="41.4428420" lon="-8.7752400">
        <ele>5.4</ele>
        <time>2019-08-15T17:04:11Z</time>
      </trkpt>
      <trkpt lat="41.4428820" lon="-8.7751930">
        <ele>5.3</ele>
        <time>2019-08-15T17:04:12Z</time>
      </trkpt>
      <trkpt lat="41.4429950" lon="-8.7750450">
        <ele>5.2</ele>
        <time>2019-08-15T17:04:15Z</time>
      </trkpt>
      <trkpt lat="41.4433240" lon="-8.7745860">
        <ele>5.1</ele>
        <time>2019-08-15T17:04:24Z</time>
      </trkpt>
      <trkpt lat="41.4436130" lon="-8.7743900">
        <ele>5.0</ele>
        <time>2019-08-15T17:04:31Z</time>
      </trkpt>
      <trkpt lat="41.4439490" lon="-8.7742740">
        <ele>4.9</ele>
        <time>2019-08-15T17:04:38Z</time>
      </trkpt>
      <trkpt lat="41.4442780" lon="-8.7742120">
        <ele>4.4</ele>
        <time>2019-08-15T17:04:45Z</time>
      </trkpt>
      <trkpt lat="41.4443440" lon="-8.7742030">
        <ele>4.3</ele>
        <time>2019-08-15T17:04:47Z</time>
      </trkpt>
      <trkpt lat="41.4443830" lon="-8.7742380">
        <ele>4.3</ele>
        <time>2019-08-15T17:04:49Z</time>
      </trkpt>
      <trkpt lat="41.4444020" lon="-8.7742390">
        <ele>4.2</ele>
        <time>2019-08-15T17:04:51Z</time>
      </trkpt>
      <trkpt lat="41.4444100" lon="-8.7742370">
        <ele>4.2</ele>
        <time>2019-08-15T17:06:20Z</time>
      </trkpt>
      <trkpt lat="41.4444170" lon="-8.7742330">
        <ele>4.2</ele>
        <time>2019-08-15T17:06:21Z</time>
      </trkpt>
      <trkpt lat="41.4445360" lon="-8.7741820">
        <ele>4.1</ele>
        <time>2019-08-15T17:06:25Z</time>
      </trkpt>
      <trkpt lat="41.4447600" lon="-8.7741170">
        <ele>4.0</ele>
        <time>2019-08-15T17:06:31Z</time>
      </trkpt>
      <trkpt lat="41.4450160" lon="-8.7740590">
        <ele>4.1</ele>
        <time>2019-08-15T17:06:37Z</time>
      </trkpt>
      <trkpt lat="41.4450590" lon="-8.7740470">
        <ele>4.1</ele>
        <time>2019-08-15T17:06:38Z</time>
      </trkpt>
      <trkpt lat="41.4452560" lon="-8.7739770">
        <ele>4.2</ele>
        <time>2019-08-15T17:06:42Z</time>
      </trkpt>
      <trkpt lat="41.4455950" lon="-8.7739040">
        <ele>4.2</ele>
        <time>2019-08-15T17:06:48Z</time>
      </trkpt>
      <trkpt lat="41.4458470" lon="-8.7738260">
        <ele>4.0</ele>
        <time>2019-08-15T17:06:54Z</time>
      </trkpt>
      <trkpt lat="41.4463720" lon="-8.7736460">
        <ele>4.2</ele>
        <time>2019-08-15T17:07:07Z</time>
      </trkpt>
      <trkpt lat="41.4469260" lon="-8.7734340">
        <ele>4.4</ele>
        <time>2019-08-15T17:07:19Z</time>
      </trkpt>
      <trkpt lat="41.4474070" lon="-8.7732360">
        <ele>4.6</ele>
        <time>2019-08-15T17:07:29Z</time>
      </trkpt>
      <trkpt lat="41.4479170" lon="-8.7731180">
        <ele>4.7</ele>
        <time>2019-08-15T17:07:39Z</time>
      </trkpt>
      <trkpt lat="41.4484770" lon="-8.7729930">
        <ele>4.8</ele>
        <time>2019-08-15T17:07:50Z</time>
      </trkpt>
      <trkpt lat="41.4487340" lon="-8.7729470">
        <ele>4.0</ele>
        <time>2019-08-15T17:07:55Z</time>
      </trkpt>
      <trkpt lat="41.4493070" lon="-8.7728600">
        <ele>3.9</ele>
        <time>2019-08-15T17:08:06Z</time>
      </trkpt>
      <trkpt lat="41.4493590" lon="-8.7728500">
        <ele>4.3</ele>
        <time>2019-08-15T17:08:07Z</time>
      </trkpt>
      <trkpt lat="41.4498120" lon="-8.7727010">
        <ele>5.1</ele>
        <time>2019-08-15T17:08:16Z</time>
      </trkpt>
      <trkpt lat="41.4503410" lon="-8.7724800">
        <ele>5.1</ele>
        <time>2019-08-15T17:08:27Z</time>
      </trkpt>
      <trkpt lat="41.4508950" lon="-8.7722440">
        <ele>6.6</ele>
        <time>2019-08-15T17:08:38Z</time>
      </trkpt>
      <trkpt lat="41.4510010" lon="-8.7721980">
        <ele>6.8</ele>
        <time>2019-08-15T17:08:40Z</time>
      </trkpt>
      <trkpt lat="41.4514090" lon="-8.7720200">
        <ele>7.2</ele>
        <time>2019-08-15T17:08:48Z</time>
      </trkpt>
      <trkpt lat="41.4519160" lon="-8.7718460">
        <ele>8.0</ele>
        <time>2019-08-15T17:08:58Z</time>
      </trkpt>
      <trkpt lat="41.4524780" lon="-8.7716640">
        <ele>8.7</ele>
        <time>2019-08-15T17:09:09Z</time>
      </trkpt>
      <trkpt lat="41.4525260" lon="-8.7716430">
        <ele>8.6</ele>
        <time>2019-08-15T17:09:10Z</time>
      </trkpt>
      <trkpt lat="41.4529650" lon="-8.7714690">
        <ele>7.8</ele>
        <time>2019-08-15T17:09:19Z</time>
      </trkpt>
      <trkpt lat="41.4535060" lon="-8.7711960">
        <ele>7.8</ele>
        <time>2019-08-15T17:09:30Z</time>
      </trkpt>
      <trkpt lat="41.4540100" lon="-8.7709220">
        <ele>7.8</ele>
        <time>2019-08-15T17:09:40Z</time>
      </trkpt>
      <trkpt lat="41.4544480" lon="-8.7707570">
        <ele>7.1</ele>
        <time>2019-08-15T17:09:48Z</time>
      </trkpt>
      <trkpt lat="41.4550230" lon="-8.7705600">
        <ele>6.4</ele>
        <time>2019-08-15T17:09:59Z</time>
      </trkpt>
      <trkpt lat="41.4555490" lon="-8.7703560">
        <ele>6.5</ele>
        <time>2019-08-15T17:10:09Z</time>
      </trkpt>
      <trkpt lat="41.4558690" lon="-8.7702550">
        <ele>6.6</ele>
        <time>2019-08-15T17:10:15Z</time>
      </trkpt>
      <trkpt lat="41.4560330" lon="-8.7702460">
        <ele>6.6</ele>
        <time>2019-08-15T17:10:18Z</time>
      </trkpt>
      <trkpt lat="41.4562530" lon="-8.7702520">
        <ele>6.5</ele>
        <time>2019-08-15T17:10:22Z</time>
      </trkpt>
      <trkpt lat="41.4567390" lon="-8.7702710">
        <ele>6.3</ele>
        <time>2019-08-15T17:10:31Z</time>
      </trkpt>
      <trkpt lat="41.4572880" lon="-8.7702950">
        <ele>6.1</ele>
        <time>2019-08-15T17:10:41Z</time>
      </trkpt>
      <trkpt lat="41.4573410" lon="-8.7702920">
        <ele>6.1</ele>
        <time>2019-08-15T17:10:42Z</time>
      </trkpt>
      <trkpt lat="41.4575530" lon="-8.7702600">
        <ele>6.1</ele>
        <time>2019-08-15T17:10:46Z</time>
      </trkpt>
      <trkpt lat="41.4580680" lon="-8.7701150">
        <ele>6.0</ele>
        <time>2019-08-15T17:10:56Z</time>
      </trkpt>
      <trkpt lat="41.4585980" lon="-8.7699540">
        <ele>5.8</ele>
        <time>2019-08-15T17:11:06Z</time>
      </trkpt>
      <trkpt lat="41.4587610" lon="-8.7699580">
        <ele>5.8</ele>
        <time>2019-08-15T17:11:09Z</time>
      </trkpt>
      <trkpt lat="41.4591180" lon="-8.7699890">
        <ele>5.8</ele>
        <time>2019-08-15T17:11:16Z</time>
      </trkpt>
      <trkpt lat="41.4592450" lon="-8.7699560">
        <ele>5.8</ele>
        <time>2019-08-15T17:11:19Z</time>
      </trkpt>
      <trkpt lat="41.4593130" lon="-8.7699030">
        <ele>5.8</ele>
        <time>2019-08-15T17:11:21Z</time>
      </trkpt>
      <trkpt lat="41.4594070" lon="-8.7697150">
        <ele>6.1</ele>
        <time>2019-08-15T17:11:26Z</time>
      </trkpt>
      <trkpt lat="41.4594170" lon="-8.7696730">
        <ele>6.1</ele>
        <time>2019-08-15T17:11:27Z</time>
      </trkpt>
      <trkpt lat="41.4594700" lon="-8.7693850">
        <ele>6.0</ele>
        <time>2019-08-15T17:11:33Z</time>
      </trkpt>
      <trkpt lat="41.4595730" lon="-8.7690170">
        <ele>5.9</ele>
        <time>2019-08-15T17:11:40Z</time>
      </trkpt>
      <trkpt lat="41.4596180" lon="-8.7689100">
        <ele>5.8</ele>
        <time>2019-08-15T17:11:42Z</time>
      </trkpt>
      <trkpt lat="41.4598440" lon="-8.7685530">
        <ele>5.5</ele>
        <time>2019-08-15T17:11:49Z</time>
      </trkpt>
      <trkpt lat="41.4599460" lon="-8.7684140">
        <ele>5.5</ele>
        <time>2019-08-15T17:11:52Z</time>
      </trkpt>
      <trkpt lat="41.4600150" lon="-8.7682440">
        <ele>5.6</ele>
        <time>2019-08-15T17:11:55Z</time>
      </trkpt>
      <trkpt lat="41.4601120" lon="-8.7679530">
        <ele>5.9</ele>
        <time>2019-08-15T17:12:00Z</time>
      </trkpt>
      <trkpt lat="41.4601590" lon="-8.7677750">
        <ele>6.0</ele>
        <time>2019-08-15T17:12:03Z</time>
      </trkpt>
      <trkpt lat="41.4602830" lon="-8.7675300">
        <ele>6.5</ele>
        <time>2019-08-15T17:12:09Z</time>
      </trkpt>
      <trkpt lat="41.4604050" lon="-8.7675600">
        <ele>6.7</ele>
        <time>2019-08-15T17:12:12Z</time>
      </trkpt>
      <trkpt lat="41.4604420" lon="-8.7675710">
        <ele>6.8</ele>
        <time>2019-08-15T17:12:13Z</time>
      </trkpt>
      <trkpt lat="41.4605130" lon="-8.7675860">
        <ele>7.0</ele>
        <time>2019-08-15T17:12:15Z</time>
      </trkpt>
      <trkpt lat="41.4605480" lon="-8.7675970">
        <ele>7.2</ele>
        <time>2019-08-15T17:12:16Z</time>
      </trkpt>
      <trkpt lat="41.4605850" lon="-8.7676070">
        <ele>7.3</ele>
        <time>2019-08-15T17:12:17Z</time>
      </trkpt>
      <trkpt lat="41.4606250" lon="-8.7676160">
        <ele>7.4</ele>
        <time>2019-08-15T17:12:18Z</time>
      </trkpt>
      <trkpt lat="41.4606650" lon="-8.7676250">
        <ele>7.5</ele>
        <time>2019-08-15T17:12:19Z</time>
      </trkpt>
      <trkpt lat="41.4610690" lon="-8.7677130">
        <ele>7.9</ele>
        <time>2019-08-15T17:12:28Z</time>
      </trkpt>
      <trkpt lat="41.4615460" lon="-8.7677870">
        <ele>7.9</ele>
        <time>2019-08-15T17:12:38Z</time>
      </trkpt>
      <trkpt lat="41.4618630" lon="-8.7678090">
        <ele>7.0</ele>
        <time>2019-08-15T17:12:45Z</time>
      </trkpt>
      <trkpt lat="41.4619070" lon="-8.7678120">
        <ele>6.8</ele>
        <time>2019-08-15T17:12:46Z</time>
      </trkpt>
      <trkpt lat="41.4619560" lon="-8.7678210">
        <ele>6.7</ele>
        <time>2019-08-15T17:12:47Z</time>
      </trkpt>
      <trkpt lat="41.4620050" lon="-8.7678330">
        <ele>6.6</ele>
        <time>2019-08-15T17:12:48Z</time>
      </trkpt>
      <trkpt lat="41.4620520" lon="-8.7678560">
        <ele>6.5</ele>
        <time>2019-08-15T17:12:49Z</time>
      </trkpt>
      <trkpt lat="41.4621300" lon="-8.7679450">
        <ele>6.4</ele>
        <time>2019-08-15T17:12:51Z</time>
      </trkpt>
      <trkpt lat="41.4621970" lon="-8.7680620">
        <ele>6.4</ele>
        <time>2019-08-15T17:12:53Z</time>
      </trkpt>
      <trkpt lat="41.4623340" lon="-8.7682620">
        <ele>6.4</ele>
        <time>2019-08-15T17:12:57Z</time>
      </trkpt>
      <trkpt lat="41.4625340" lon="-8.7685620">
        <ele>6.4</ele>
        <time>2019-08-15T17:13:04Z</time>
      </trkpt>
      <trkpt lat="41.4627420" lon="-8.7688840">
        <ele>6.4</ele>
        <time>2019-08-15T17:13:13Z</time>
      </trkpt>
      <trkpt lat="41.4628920" lon="-8.7689660">
        <ele>6.4</ele>
        <time>2019-08-15T17:13:18Z</time>
      </trkpt>
      <trkpt lat="41.4630290" lon="-8.7688580">
        <ele>6.8</ele>
        <time>2019-08-15T17:13:22Z</time>
      </trkpt>
      <trkpt lat="41.4631890" lon="-8.7687680">
        <ele>7.1</ele>
        <time>2019-08-15T17:13:27Z</time>
      </trkpt>
      <trkpt lat="41.4633930" lon="-8.7686480">
        <ele>8.2</ele>
        <time>2019-08-15T17:13:34Z</time>
      </trkpt>
      <trkpt lat="41.4636260" lon="-8.7685640">
        <ele>10.1</ele>
        <time>2019-08-15T17:13:41Z</time>
      </trkpt>
      <trkpt lat="41.4639100" lon="-8.7684680">
        <ele>11.9</ele>
        <time>2019-08-15T17:13:49Z</time>
      </trkpt>
      <trkpt lat="41.4640980" lon="-8.7683990">
        <ele>14.2</ele>
        <time>2019-08-15T17:13:55Z</time>
      </trkpt>
      <trkpt lat="41.4641240" lon="-8.7683870">
        <ele>14.6</ele>
        <time>2019-08-15T17:13:56Z</time>
      </trkpt>
      <trkpt lat="41.4641520" lon="-8.7683700">
        <ele>15.1</ele>
        <time>2019-08-15T17:13:57Z</time>
      </trkpt>
      <trkpt lat="41.4641820" lon="-8.7683560">
        <ele>15.6</ele>
        <time>2019-08-15T17:13:58Z</time>
      </trkpt>
      <trkpt lat="41.4642080" lon="-8.7683410">
        <ele>16.1</ele>
        <time>2019-08-15T17:13:59Z</time>
      </trkpt>
      <trkpt lat="41.4643720" lon="-8.7682850">
        <ele>17.8</ele>
        <time>2019-08-15T17:14:05Z</time>
      </trkpt>
      <trkpt lat="41.4645880" lon="-8.7681870">
        <ele>17.7</ele>
        <time>2019-08-15T17:14:12Z</time>
      </trkpt>
      <trkpt lat="41.4648090" lon="-8.7681020">
        <ele>16.7</ele>
        <time>2019-08-15T17:14:19Z</time>
      </trkpt>
      <trkpt lat="41.4651760" lon="-8.7680680">
        <ele>14.6</ele>
        <time>2019-08-15T17:14:27Z</time>
      </trkpt>
      <trkpt lat="41.4655870" lon="-8.7680680">
        <ele>11.7</ele>
        <time>2019-08-15T17:14:36Z</time>
      </trkpt>
      <trkpt lat="41.4660130" lon="-8.7680580">
        <ele>10.6</ele>
        <time>2019-08-15T17:14:44Z</time>
      </trkpt>
      <trkpt lat="41.4664190" lon="-8.7679840">
        <ele>11.4</ele>
        <time>2019-08-15T17:14:53Z</time>
      </trkpt>
      <trkpt lat="41.4665450" lon="-8.7679440">
        <ele>11.5</ele>
        <time>2019-08-15T17:14:56Z</time>
      </trkpt>
      <trkpt lat="41.4667130" lon="-8.7678830">
        <ele>11.6</ele>
        <time>2019-08-15T17:15:00Z</time>
      </trkpt>
      <trkpt lat="41.4670990" lon="-8.7677130">
        <ele>12.2</ele>
        <time>2019-08-15T17:15:09Z</time>
      </trkpt>
      <trkpt lat="41.4673550" lon="-8.7676150">
        <ele>12.8</ele>
        <time>2019-08-15T17:15:15Z</time>
      </trkpt>
      <trkpt lat="41.4673870" lon="-8.7675720">
        <ele>12.9</ele>
        <time>2019-08-15T17:15:16Z</time>
      </trkpt>
      <trkpt lat="41.4674460" lon="-8.7674290">
        <ele>12.8</ele>
        <time>2019-08-15T17:15:19Z</time>
      </trkpt>
      <trkpt lat="41.4674580" lon="-8.7673790">
        <ele>12.8</ele>
        <time>2019-08-15T17:15:20Z</time>
      </trkpt>
      <trkpt lat="41.4674620" lon="-8.7673270">
        <ele>12.7</ele>
        <time>2019-08-15T17:15:21Z</time>
      </trkpt>
      <trkpt lat="41.4675010" lon="-8.7669770">
        <ele>12.8</ele>
        <time>2019-08-15T17:15:27Z</time>
      </trkpt>
      <trkpt lat="41.4675030" lon="-8.7669180">
        <ele>12.9</ele>
        <time>2019-08-15T17:15:28Z</time>
      </trkpt>
      <trkpt lat="41.4675040" lon="-8.7668630">
        <ele>12.9</ele>
        <time>2019-08-15T17:15:29Z</time>
      </trkpt>
      <trkpt lat="41.4675070" lon="-8.7668100">
        <ele>13.0</ele>
        <time>2019-08-15T17:15:30Z</time>
      </trkpt>
      <trkpt lat="41.4675160" lon="-8.7667570">
        <ele>13.1</ele>
        <time>2019-08-15T17:15:31Z</time>
      </trkpt>
      <trkpt lat="41.4675590" lon="-8.7664200">
        <ele>13.3</ele>
        <time>2019-08-15T17:15:37Z</time>
      </trkpt>
      <trkpt lat="41.4676950" lon="-8.7661200">
        <ele>13.2</ele>
        <time>2019-08-15T17:15:42Z</time>
      </trkpt>
      <trkpt lat="41.4677330" lon="-8.7660720">
        <ele>13.2</ele>
        <time>2019-08-15T17:15:43Z</time>
      </trkpt>
      <trkpt lat="41.4679520" lon="-8.7660100">
        <ele>12.7</ele>
        <time>2019-08-15T17:15:47Z</time>
      </trkpt>
      <trkpt lat="41.4679970" lon="-8.7659980">
        <ele>12.5</ele>
        <time>2019-08-15T17:15:48Z</time>
      </trkpt>
      <trkpt lat="41.4682300" lon="-8.7658860">
        <ele>11.6</ele>
        <time>2019-08-15T17:15:53Z</time>
      </trkpt>
      <trkpt lat="41.4685390" lon="-8.7655870">
        <ele>11.7</ele>
        <time>2019-08-15T17:16:00Z</time>
      </trkpt>
      <trkpt lat="41.4689040" lon="-8.7652360">
        <ele>12.1</ele>
        <time>2019-08-15T17:16:08Z</time>
      </trkpt>
      <trkpt lat="41.4692460" lon="-8.7649740">
        <ele>12.9</ele>
        <time>2019-08-15T17:16:15Z</time>
      </trkpt>
      <trkpt lat="41.4693010" lon="-8.7649570">
        <ele>13.0</ele>
        <time>2019-08-15T17:16:16Z</time>
      </trkpt>
      <trkpt lat="41.4697230" lon="-8.7648010">
        <ele>13.0</ele>
        <time>2019-08-15T17:16:24Z</time>
      </trkpt>
      <trkpt lat="41.4701030" lon="-8.7646950">
        <ele>12.6</ele>
        <time>2019-08-15T17:16:31Z</time>
      </trkpt>
      <trkpt lat="41.4703640" lon="-8.7646660">
        <ele>12.4</ele>
        <time>2019-08-15T17:16:36Z</time>
      </trkpt>
      <trkpt lat="41.4704220" lon="-8.7646780">
        <ele>12.4</ele>
        <time>2019-08-15T17:16:37Z</time>
      </trkpt>
      <trkpt lat="41.4708750" lon="-8.7648660">
        <ele>12.6</ele>
        <time>2019-08-15T17:16:44Z</time>
      </trkpt>
      <trkpt lat="41.4714060" lon="-8.7650320">
        <ele>12.7</ele>
        <time>2019-08-15T17:16:53Z</time>
      </trkpt>
      <trkpt lat="41.4714650" lon="-8.7650510">
        <ele>12.7</ele>
        <time>2019-08-15T17:16:54Z</time>
      </trkpt>
      <trkpt lat="41.4720150" lon="-8.7652040">
        <ele>12.5</ele>
        <time>2019-08-15T17:17:03Z</time>
      </trkpt>
      <trkpt lat="41.4720750" lon="-8.7652220">
        <ele>12.5</ele>
        <time>2019-08-15T17:17:04Z</time>
      </trkpt>
      <trkpt lat="41.4726330" lon="-8.7653800">
        <ele>12.5</ele>
        <time>2019-08-15T17:17:13Z</time>
      </trkpt>
      <trkpt lat="41.4727650" lon="-8.7654180">
        <ele>12.6</ele>
        <time>2019-08-15T17:17:15Z</time>
      </trkpt>
      <trkpt lat="41.4732930" lon="-8.7654690">
        <ele>12.0</ele>
        <time>2019-08-15T17:17:23Z</time>
      </trkpt>
      <trkpt lat="41.4735860" lon="-8.7654710">
        <ele>13.6</ele>
        <time>2019-08-15T17:17:28Z</time>
      </trkpt>
      <trkpt lat="41.4740680" lon="-8.7655130">
        <ele>15.7</ele>
        <time>2019-08-15T17:17:36Z</time>
      </trkpt>
      <trkpt lat="41.4744980" lon="-8.7655140">
        <ele>17.0</ele>
        <time>2019-08-15T17:17:43Z</time>
      </trkpt>
      <trkpt lat="41.4745490" lon="-8.7654960">
        <ele>17.2</ele>
        <time>2019-08-15T17:17:44Z</time>
      </trkpt>
      <trkpt lat="41.4748190" lon="-8.7653910">
        <ele>18.8</ele>
        <time>2019-08-15T17:17:48Z</time>
      </trkpt>
      <trkpt lat="41.4752970" lon="-8.7652080">
        <ele>18.8</ele>
        <time>2019-08-15T17:17:56Z</time>
      </trkpt>
      <trkpt lat="41.4753590" lon="-8.7651920">
        <ele>18.7</ele>
        <time>2019-08-15T17:17:57Z</time>
      </trkpt>
      <trkpt lat="41.4755950" lon="-8.7651350">
        <ele>17.8</ele>
        <time>2019-08-15T17:18:01Z</time>
      </trkpt>
      <trkpt lat="41.4759180" lon="-8.7651640">
        <ele>16.7</ele>
        <time>2019-08-15T17:18:06Z</time>
      </trkpt>
      <trkpt lat="41.4765040" lon="-8.7652210">
        <ele>15.1</ele>
        <time>2019-08-15T17:18:15Z</time>
      </trkpt>
      <trkpt lat="41.4770430" lon="-8.7652950">
        <ele>13.9</ele>
        <time>2019-08-15T17:18:23Z</time>
      </trkpt>
      <trkpt lat="41.4771110" lon="-8.7652970">
        <ele>13.8</ele>
        <time>2019-08-15T17:18:24Z</time>
      </trkpt>
      <trkpt lat="41.4775560" lon="-8.7652900">
        <ele>13.1</ele>
        <time>2019-08-15T17:18:31Z</time>
      </trkpt>
      <trkpt lat="41.4778810" lon="-8.7652800">
        <ele>13.0</ele>
        <time>2019-08-15T17:18:37Z</time>
      </trkpt>
      <trkpt lat="41.4781210" lon="-8.7653110">
        <ele>12.9</ele>
        <time>2019-08-15T17:18:41Z</time>
      </trkpt>
      <trkpt lat="41.4782250" lon="-8.7653270">
        <ele>12.7</ele>
        <time>2019-08-15T17:18:43Z</time>
      </trkpt>
      <trkpt lat="41.4783800" lon="-8.7653730">
        <ele>12.4</ele>
        <time>2019-08-15T17:18:46Z</time>
      </trkpt>
      <trkpt lat="41.4785640" lon="-8.7652980">
        <ele>12.0</ele>
        <time>2019-08-15T17:18:51Z</time>
      </trkpt>
      <trkpt lat="41.4785890" lon="-8.7653240">
        <ele>11.9</ele>
        <time>2019-08-15T17:18:54Z</time>
      </trkpt>
      <trkpt lat="41.4785910" lon="-8.7653220">
        <ele>11.9</ele>
        <time>2019-08-15T17:19:05Z</time>
      </trkpt>
      <trkpt lat="41.4786000" lon="-8.7653550">
        <ele>11.9</ele>
        <time>2019-08-15T17:19:06Z</time>
      </trkpt>
      <trkpt lat="41.4786210" lon="-8.7653940">
        <ele>11.9</ele>
        <time>2019-08-15T17:19:07Z</time>
      </trkpt>
      <trkpt lat="41.4787690" lon="-8.7654420">
        <ele>11.7</ele>
        <time>2019-08-15T17:19:10Z</time>
      </trkpt>
      <trkpt lat="41.4790480" lon="-8.7653050">
        <ele>11.2</ele>
        <time>2019-08-15T17:19:16Z</time>
      </trkpt>
      <trkpt lat="41.4794640" lon="-8.7651160">
        <ele>10.5</ele>
        <time>2019-08-15T17:19:24Z</time>
      </trkpt>
      <trkpt lat="41.4799480" lon="-8.7649320">
        <ele>10.1</ele>
        <time>2019-08-15T17:19:33Z</time>
      </trkpt>
      <trkpt lat="41.4800450" lon="-8.7648350">
        <ele>10.0</ele>
        <time>2019-08-15T17:19:35Z</time>
      </trkpt>
      <trkpt lat="41.4802000" lon="-8.7646840">
        <ele>9.6</ele>
        <time>2019-08-15T17:19:38Z</time>
      </trkpt>
      <trkpt lat="41.4805040" lon="-8.7643750">
        <ele>8.9</ele>
        <time>2019-08-15T17:19:44Z</time>
      </trkpt>
      <trkpt lat="41.4807960" lon="-8.7641060">
        <ele>8.3</ele>
        <time>2019-08-15T17:19:50Z</time>
      </trkpt>
      <trkpt lat="41.4809110" lon="-8.7640800">
        <ele>8.2</ele>
        <time>2019-08-15T17:19:52Z</time>
      </trkpt>
      <trkpt lat="41.4810270" lon="-8.7640850">
        <ele>8.1</ele>
        <time>2019-08-15T17:19:54Z</time>
      </trkpt>
      <trkpt lat="41.4811440" lon="-8.7640950">
        <ele>8.0</ele>
        <time>2019-08-15T17:19:56Z</time>
      </trkpt>
      <trkpt lat="41.4812040" lon="-8.7641200">
        <ele>8.0</ele>
        <time>2019-08-15T17:19:57Z</time>
      </trkpt>
      <trkpt lat="41.4814290" lon="-8.7642050">
        <ele>8.1</ele>
        <time>2019-08-15T17:20:01Z</time>
      </trkpt>
      <trkpt lat="41.4818860" lon="-8.7643630">
        <ele>8.2</ele>
        <time>2019-08-15T17:20:09Z</time>
      </trkpt>
      <trkpt lat="41.4822130" lon="-8.7645150">
        <ele>8.6</ele>
        <time>2019-08-15T17:20:15Z</time>
      </trkpt>
      <trkpt lat="41.4822620" lon="-8.7645560">
        <ele>8.8</ele>
        <time>2019-08-15T17:20:16Z</time>
      </trkpt>
      <trkpt lat="41.4824090" lon="-8.7646580">
        <ele>9.0</ele>
        <time>2019-08-15T17:20:19Z</time>
      </trkpt>
      <trkpt lat="41.4825650" lon="-8.7647460">
        <ele>9.2</ele>
        <time>2019-08-15T17:20:22Z</time>
      </trkpt>
      <trkpt lat="41.4828330" lon="-8.7648540">
        <ele>9.6</ele>
        <time>2019-08-15T17:20:27Z</time>
      </trkpt>
      <trkpt lat="41.4830060" lon="-8.7648680">
        <ele>9.7</ele>
        <time>2019-08-15T17:20:30Z</time>
      </trkpt>
      <trkpt lat="41.4833650" lon="-8.7648240">
        <ele>9.9</ele>
        <time>2019-08-15T17:20:36Z</time>
      </trkpt>
      <trkpt lat="41.4837650" lon="-8.7647600">
        <ele>10.0</ele>
        <time>2019-08-15T17:20:43Z</time>
      </trkpt>
      <trkpt lat="41.4842300" lon="-8.7645550">
        <ele>9.9</ele>
        <time>2019-08-15T17:20:52Z</time>
      </trkpt>
      <trkpt lat="41.4844480" lon="-8.7644200">
        <ele>9.7</ele>
        <time>2019-08-15T17:20:57Z</time>
      </trkpt>
      <trkpt lat="41.4844870" lon="-8.7643940">
        <ele>9.7</ele>
        <time>2019-08-15T17:20:58Z</time>
      </trkpt>
      <trkpt lat="41.4845260" lon="-8.7643730">
        <ele>9.7</ele>
        <time>2019-08-15T17:20:59Z</time>
      </trkpt>
      <trkpt lat="41.4845620" lon="-8.7643570">
        <ele>9.7</ele>
        <time>2019-08-15T17:21:00Z</time>
      </trkpt>
      <trkpt lat="41.4845960" lon="-8.7643460">
        <ele>9.7</ele>
        <time>2019-08-15T17:21:01Z</time>
      </trkpt>
      <trkpt lat="41.4846390" lon="-8.7643490">
        <ele>9.7</ele>
        <time>2019-08-15T17:21:04Z</time>
      </trkpt>
      <trkpt lat="41.4847860" lon="-8.7643500">
        <ele>9.6</ele>
        <time>2019-08-15T17:21:09Z</time>
      </trkpt>
      <trkpt lat="41.4850860" lon="-8.7643330">
        <ele>9.4</ele>
        <time>2019-08-15T17:21:16Z</time>
      </trkpt>
      <trkpt lat="41.4851640" lon="-8.7643330">
        <ele>9.4</ele>
        <time>2019-08-15T17:21:18Z</time>
      </trkpt>
      <trkpt lat="41.4853260" lon="-8.7643230">
        <ele>9.3</ele>
        <time>2019-08-15T17:21:23Z</time>
      </trkpt>
      <trkpt lat="41.4855340" lon="-8.7643560">
        <ele>9.3</ele>
        <time>2019-08-15T17:21:31Z</time>
      </trkpt>
      <trkpt lat="41.4855660" lon="-8.7643650">
        <ele>9.2</ele>
        <time>2019-08-15T17:21:35Z</time>
      </trkpt>
      <trkpt lat="41.4855930" lon="-8.7643660">
        <ele>9.2</ele>
        <time>2019-08-15T17:21:45Z</time>
      </trkpt>
      <trkpt lat="41.4857210" lon="-8.7643410">
        <ele>9.1</ele>
        <time>2019-08-15T17:21:50Z</time>
      </trkpt>
      <trkpt lat="41.4859620" lon="-8.7642390">
        <ele>8.9</ele>
        <time>2019-08-15T17:21:57Z</time>
      </trkpt>
      <trkpt lat="41.4861930" lon="-8.7642440">
        <ele>8.7</ele>
        <time>2019-08-15T17:22:03Z</time>
      </trkpt>
      <trkpt lat="41.4863820" lon="-8.7641980">
        <ele>8.5</ele>
        <time>2019-08-15T17:22:08Z</time>
      </trkpt>
      <trkpt lat="41.4865440" lon="-8.7642210">
        <ele>8.3</ele>
        <time>2019-08-15T17:22:13Z</time>
      </trkpt>
      <trkpt lat="41.4865840" lon="-8.7642520">
        <ele>8.4</ele>
        <time>2019-08-15T17:22:14Z</time>
      </trkpt>
      <trkpt lat="41.4867350" lon="-8.7643550">
        <ele>8.4</ele>
        <time>2019-08-15T17:22:18Z</time>
      </trkpt>
      <trkpt lat="41.4867680" lon="-8.7643910">
        <ele>8.4</ele>
        <time>2019-08-15T17:22:19Z</time>
      </trkpt>
      <trkpt lat="41.4868050" lon="-8.7644150">
        <ele>8.4</ele>
        <time>2019-08-15T17:22:20Z</time>
      </trkpt>
      <trkpt lat="41.4868460" lon="-8.7644410">
        <ele>8.4</ele>
        <time>2019-08-15T17:22:21Z</time>
      </trkpt>
      <trkpt lat="41.4868850" lon="-8.7644560">
        <ele>8.4</ele>
        <time>2019-08-15T17:22:22Z</time>
      </trkpt>
      <trkpt lat="41.4869290" lon="-8.7644700">
        <ele>8.3</ele>
        <time>2019-08-15T17:22:23Z</time>
      </trkpt>
      <trkpt lat="41.4869990" lon="-8.7645220">
        <ele>8.3</ele>
        <time>2019-08-15T17:22:25Z</time>
      </trkpt>
      <trkpt lat="41.4873010" lon="-8.7647910">
        <ele>8.2</ele>
        <time>2019-08-15T17:22:34Z</time>
      </trkpt>
      <trkpt lat="41.4875440" lon="-8.7648700">
        <ele>8.1</ele>
        <time>2019-08-15T17:22:40Z</time>
      </trkpt>
      <trkpt lat="41.4875900" lon="-8.7648580">
        <ele>8.1</ele>
        <time>2019-08-15T17:22:41Z</time>
      </trkpt>
      <trkpt lat="41.4877360" lon="-8.7647220">
        <ele>8.1</ele>
        <time>2019-08-15T17:22:45Z</time>
      </trkpt>
      <trkpt lat="41.4878910" lon="-8.7646550">
        <ele>8.1</ele>
        <time>2019-08-15T17:22:49Z</time>
      </trkpt>
      <trkpt lat="41.4879330" lon="-8.7646460">
        <ele>8.1</ele>
        <time>2019-08-15T17:22:50Z</time>
      </trkpt>
      <trkpt lat="41.4880150" lon="-8.7646530">
        <ele>8.1</ele>
        <time>2019-08-15T17:22:52Z</time>
      </trkpt>
      <trkpt lat="41.4881990" lon="-8.7646620">
        <ele>8.1</ele>
        <time>2019-08-15T17:22:56Z</time>
      </trkpt>
      <trkpt lat="41.4885570" lon="-8.7647000">
        <ele>8.1</ele>
        <time>2019-08-15T17:23:03Z</time>
      </trkpt>
      <trkpt lat="41.4891240" lon="-8.7647610">
        <ele>8.2</ele>
        <time>2019-08-15T17:23:14Z</time>
      </trkpt>
      <trkpt lat="41.4895830" lon="-8.7648770">
        <ele>8.2</ele>
        <time>2019-08-15T17:23:23Z</time>
      </trkpt>
      <trkpt lat="41.4901280" lon="-8.7649820">
        <ele>8.2</ele>
        <time>2019-08-15T17:23:33Z</time>
      </trkpt>
      <trkpt lat="41.4906700" lon="-8.7650810">
        <ele>7.9</ele>
        <time>2019-08-15T17:23:43Z</time>
      </trkpt>
      <trkpt lat="41.4907240" lon="-8.7650940">
        <ele>7.9</ele>
        <time>2019-08-15T17:23:44Z</time>
      </trkpt>
      <trkpt lat="41.4911940" lon="-8.7651210">
        <ele>7.4</ele>
        <time>2019-08-15T17:23:53Z</time>
      </trkpt>
      <trkpt lat="41.4917830" lon="-8.7650340">
        <ele>7.3</ele>
        <time>2019-08-15T17:24:04Z</time>
      </trkpt>
      <trkpt lat="41.4918350" lon="-8.7650270">
        <ele>7.3</ele>
        <time>2019-08-15T17:24:05Z</time>
      </trkpt>
      <trkpt lat="41.4922120" lon="-8.7649900">
        <ele>7.2</ele>
        <time>2019-08-15T17:24:12Z</time>
      </trkpt>
      <trkpt lat="41.4922660" lon="-8.7650000">
        <ele>7.2</ele>
        <time>2019-08-15T17:24:13Z</time>
      </trkpt>
      <trkpt lat="41.4926830" lon="-8.7651240">
        <ele>7.3</ele>
        <time>2019-08-15T17:24:21Z</time>
      </trkpt>
      <trkpt lat="41.4929940" lon="-8.7652240">
        <ele>7.3</ele>
        <time>2019-08-15T17:24:28Z</time>
      </trkpt>
      <trkpt lat="41.4932390" lon="-8.7653470">
        <ele>7.3</ele>
        <time>2019-08-15T17:24:36Z</time>
      </trkpt>
      <trkpt lat="41.4935630" lon="-8.7655220">
        <ele>7.3</ele>
        <time>2019-08-15T17:24:45Z</time>
      </trkpt>
      <trkpt lat="41.4938020" lon="-8.7657440">
        <ele>7.3</ele>
        <time>2019-08-15T17:24:53Z</time>
      </trkpt>
      <trkpt lat="41.4938350" lon="-8.7659320">
        <ele>7.4</ele>
        <time>2019-08-15T17:24:57Z</time>
      </trkpt>
      <trkpt lat="41.4938610" lon="-8.7660290">
        <ele>7.9</ele>
        <time>2019-08-15T17:25:02Z</time>
      </trkpt>
      <trkpt lat="41.4938970" lon="-8.7660250">
        <ele>8.3</ele>
        <time>2019-08-15T17:25:15Z</time>
      </trkpt>
      <trkpt lat="41.4939760" lon="-8.7660440">
        <ele>9.0</ele>
        <time>2019-08-15T17:25:17Z</time>
      </trkpt>
      <trkpt lat="41.4942140" lon="-8.7660620">
        <ele>10.2</ele>
        <time>2019-08-15T17:25:23Z</time>
      </trkpt>
      <trkpt lat="41.4945220" lon="-8.7661150">
        <ele>11.4</ele>
        <time>2019-08-15T17:25:31Z</time>
      </trkpt>
      <trkpt lat="41.4948550" lon="-8.7662070">
        <ele>12.0</ele>
        <time>2019-08-15T17:25:39Z</time>
      </trkpt>
      <trkpt lat="41.4952840" lon="-8.7663610">
        <ele>12.2</ele>
        <time>2019-08-15T17:25:48Z</time>
      </trkpt>
      <trkpt lat="41.4956390" lon="-8.7664460">
        <ele>12.4</ele>
        <time>2019-08-15T17:25:56Z</time>
      </trkpt>
      <trkpt lat="41.4958610" lon="-8.7665080">
        <ele>12.9</ele>
        <time>2019-08-15T17:26:02Z</time>
      </trkpt>
      <trkpt lat="41.4961490" lon="-8.7665770">
        <ele>13.4</ele>
        <time>2019-08-15T17:26:08Z</time>
      </trkpt>
      <trkpt lat="41.4965730" lon="-8.7666930">
        <ele>14.8</ele>
        <time>2019-08-15T17:26:17Z</time>
      </trkpt>
      <trkpt lat="41.4969220" lon="-8.7667880">
        <ele>16.0</ele>
        <time>2019-08-15T17:26:25Z</time>
      </trkpt>
      <trkpt lat="41.4973290" lon="-8.7669520">
        <ele>17.5</ele>
        <time>2019-08-15T17:26:34Z</time>
      </trkpt>
      <trkpt lat="41.4976520" lon="-8.7670540">
        <ele>17.1</ele>
        <time>2019-08-15T17:26:42Z</time>
      </trkpt>
      <trkpt lat="41.4979640" lon="-8.7671180">
        <ele>16.4</ele>
        <time>2019-08-15T17:26:50Z</time>
      </trkpt>
      <trkpt lat="41.4981160" lon="-8.7670110">
        <ele>16.0</ele>
        <time>2019-08-15T17:26:54Z</time>
      </trkpt>
      <trkpt lat="41.4981470" lon="-8.7669700">
        <ele>15.9</ele>
        <time>2019-08-15T17:26:55Z</time>
      </trkpt>
      <trkpt lat="41.4982270" lon="-8.7669030">
        <ele>15.8</ele>
        <time>2019-08-15T17:26:57Z</time>
      </trkpt>
      <trkpt lat="41.4983080" lon="-8.7668730">
        <ele>15.8</ele>
        <time>2019-08-15T17:26:59Z</time>
      </trkpt>
      <trkpt lat="41.4983500" lon="-8.7668590">
        <ele>15.8</ele>
        <time>2019-08-15T17:27:00Z</time>
      </trkpt>
      <trkpt lat="41.4983920" lon="-8.7668380">
        <ele>15.7</ele>
        <time>2019-08-15T17:27:01Z</time>
      </trkpt>
      <trkpt lat="41.4984370" lon="-8.7668150">
        <ele>15.7</ele>
        <time>2019-08-15T17:27:02Z</time>
      </trkpt>
      <trkpt lat="41.4984960" lon="-8.7667890">
        <ele>15.7</ele>
        <time>2019-08-15T17:27:03Z</time>
      </trkpt>
      <trkpt lat="41.4985430" lon="-8.7667640">
        <ele>15.8</ele>
        <time>2019-08-15T17:27:04Z</time>
      </trkpt>
      <trkpt lat="41.4985850" lon="-8.7667480">
        <ele>15.8</ele>
        <time>2019-08-15T17:27:05Z</time>
      </trkpt>
      <trkpt lat="41.4987940" lon="-8.7666780">
        <ele>15.7</ele>
        <time>2019-08-15T17:27:10Z</time>
      </trkpt>
      <trkpt lat="41.4988910" lon="-8.7666760">
        <ele>15.6</ele>
        <time>2019-08-15T17:27:12Z</time>
      </trkpt>
      <trkpt lat="41.4990250" lon="-8.7666930">
        <ele>15.4</ele>
        <time>2019-08-15T17:27:15Z</time>
      </trkpt>
      <trkpt lat="41.4991180" lon="-8.7667000">
        <ele>15.2</ele>
        <time>2019-08-15T17:27:17Z</time>
      </trkpt>
      <trkpt lat="41.4993190" lon="-8.7667510">
        <ele>14.8</ele>
        <time>2019-08-15T17:27:21Z</time>
      </trkpt>
      <trkpt lat="41.4996600" lon="-8.7668420">
        <ele>14.0</ele>
        <time>2019-08-15T17:27:28Z</time>
      </trkpt>
      <trkpt lat="41.5001520" lon="-8.7670290">
        <ele>13.1</ele>
        <time>2019-08-15T17:27:37Z</time>
      </trkpt>
      <trkpt lat="41.5004660" lon="-8.7671720">
        <ele>12.8</ele>
        <time>2019-08-15T17:27:43Z</time>
      </trkpt>
      <trkpt lat="41.5007100" lon="-8.7672810">
        <ele>12.6</ele>
        <time>2019-08-15T17:27:48Z</time>
      </trkpt>
      <trkpt lat="41.5011310" lon="-8.7674400">
        <ele>12.4</ele>
        <time>2019-08-15T17:27:57Z</time>
      </trkpt>
      <trkpt lat="41.5014530" lon="-8.7675760">
        <ele>12.1</ele>
        <time>2019-08-15T17:28:03Z</time>
      </trkpt>
      <trkpt lat="41.5017640" lon="-8.7676830">
        <ele>11.6</ele>
        <time>2019-08-15T17:28:09Z</time>
      </trkpt>
      <trkpt lat="41.5018120" lon="-8.7677050">
        <ele>11.5</ele>
        <time>2019-08-15T17:28:10Z</time>
      </trkpt>
      <trkpt lat="41.5020870" lon="-8.7678100">
        <ele>11.1</ele>
        <time>2019-08-15T17:28:16Z</time>
      </trkpt>
      <trkpt lat="41.5021260" lon="-8.7678210">
        <ele>11.0</ele>
        <time>2019-08-15T17:28:17Z</time>
      </trkpt>
      <trkpt lat="41.5024340" lon="-8.7679140">
        <ele>10.6</ele>
        <time>2019-08-15T17:28:23Z</time>
      </trkpt>
      <trkpt lat="41.5027970" lon="-8.7680520">
        <ele>10.2</ele>
        <time>2019-08-15T17:28:30Z</time>
      </trkpt>
      <trkpt lat="41.5032340" lon="-8.7682190">
        <ele>9.6</ele>
        <time>2019-08-15T17:28:38Z</time>
      </trkpt>
      <trkpt lat="41.5036360" lon="-8.7683570">
        <ele>8.9</ele>
        <time>2019-08-15T17:28:45Z</time>
      </trkpt>
      <trkpt lat="41.5041990" lon="-8.7685580">
        <ele>8.4</ele>
        <time>2019-08-15T17:28:55Z</time>
      </trkpt>
      <trkpt lat="41.5047290" lon="-8.7687320">
        <ele>7.9</ele>
        <time>2019-08-15T17:29:05Z</time>
      </trkpt>
      <trkpt lat="41.5047870" lon="-8.7687590">
        <ele>7.7</ele>
        <time>2019-08-15T17:29:06Z</time>
      </trkpt>
      <trkpt lat="41.5049960" lon="-8.7688360">
        <ele>6.9</ele>
        <time>2019-08-15T17:29:10Z</time>
      </trkpt>
      <trkpt lat="41.5050500" lon="-8.7688620">
        <ele>6.8</ele>
        <time>2019-08-15T17:29:11Z</time>
      </trkpt>
      <trkpt lat="41.5051020" lon="-8.7688910">
        <ele>6.8</ele>
        <time>2019-08-15T17:29:12Z</time>
      </trkpt>
      <trkpt lat="41.5051610" lon="-8.7689170">
        <ele>6.7</ele>
        <time>2019-08-15T17:29:13Z</time>
      </trkpt>
      <trkpt lat="41.5052250" lon="-8.7689380">
        <ele>6.7</ele>
        <time>2019-08-15T17:29:14Z</time>
      </trkpt>
      <trkpt lat="41.5054660" lon="-8.7690220">
        <ele>6.7</ele>
        <time>2019-08-15T17:29:18Z</time>
      </trkpt>
      <trkpt lat="41.5059700" lon="-8.7692280">
        <ele>6.6</ele>
        <time>2019-08-15T17:29:27Z</time>
      </trkpt>
      <trkpt lat="41.5061990" lon="-8.7692710">
        <ele>6.5</ele>
        <time>2019-08-15T17:29:31Z</time>
      </trkpt>
      <trkpt lat="41.5063200" lon="-8.7692500">
        <ele>6.3</ele>
        <time>2019-08-15T17:29:33Z</time>
      </trkpt>
      <trkpt lat="41.5066200" lon="-8.7692360">
        <ele>4.9</ele>
        <time>2019-08-15T17:29:38Z</time>
      </trkpt>
      <trkpt lat="41.5067430" lon="-8.7692490">
        <ele>4.7</ele>
        <time>2019-08-15T17:29:40Z</time>
      </trkpt>
      <trkpt lat="41.5072370" lon="-8.7693460">
        <ele>4.6</ele>
        <time>2019-08-15T17:29:49Z</time>
      </trkpt>
      <trkpt lat="41.5073220" lon="-8.7693550">
        <ele>4.6</ele>
        <time>2019-08-15T17:29:51Z</time>
      </trkpt>
      <trkpt lat="41.5074220" lon="-8.7692530">
        <ele>4.2</ele>
        <time>2019-08-15T17:29:54Z</time>
      </trkpt>
      <trkpt lat="41.5074610" lon="-8.7690210">
        <ele>3.9</ele>
        <time>2019-08-15T17:29:58Z</time>
      </trkpt>
      <trkpt lat="41.5074840" lon="-8.7686930">
        <ele>4.0</ele>
        <time>2019-08-15T17:30:03Z</time>
      </trkpt>
      <trkpt lat="41.5074740" lon="-8.7686330">
        <ele>4.0</ele>
        <time>2019-08-15T17:30:04Z</time>
      </trkpt>
      <trkpt lat="41.5074210" lon="-8.7681790">
        <ele>3.6</ele>
        <time>2019-08-15T17:30:10Z</time>
      </trkpt>
      <trkpt lat="41.5074240" lon="-8.7676870">
        <ele>3.2</ele>
        <time>2019-08-15T17:30:17Z</time>
      </trkpt>
      <trkpt lat="41.5074200" lon="-8.7676230">
        <ele>3.2</ele>
        <time>2019-08-15T17:30:18Z</time>
      </trkpt>
      <trkpt lat="41.5074080" lon="-8.7675510">
        <ele>3.2</ele>
        <time>2019-08-15T17:30:19Z</time>
      </trkpt>
      <trkpt lat="41.5073540" lon="-8.7673580">
        <ele>3.1</ele>
        <time>2019-08-15T17:30:22Z</time>
      </trkpt>
      <trkpt lat="41.5073070" lon="-8.7669430">
        <ele>2.9</ele>
        <time>2019-08-15T17:30:28Z</time>
      </trkpt>
      <trkpt lat="41.5073500" lon="-8.7666730">
        <ele>2.7</ele>
        <time>2019-08-15T17:30:32Z</time>
      </trkpt>
      <trkpt lat="41.5073660" lon="-8.7666120">
        <ele>2.6</ele>
        <time>2019-08-15T17:30:33Z</time>
      </trkpt>
      <trkpt lat="41.5074430" lon="-8.7664620">
        <ele>2.6</ele>
        <time>2019-08-15T17:30:36Z</time>
      </trkpt>
      <trkpt lat="41.5074860" lon="-8.7664340">
        <ele>2.6</ele>
        <time>2019-08-15T17:30:37Z</time>
      </trkpt>
      <trkpt lat="41.5076370" lon="-8.7664900">
        <ele>2.8</ele>
        <time>2019-08-15T17:30:40Z</time>
      </trkpt>
      <trkpt lat="41.5076830" lon="-8.7665170">
        <ele>2.9</ele>
        <time>2019-08-15T17:30:41Z</time>
      </trkpt>
      <trkpt lat="41.5077400" lon="-8.7665480">
        <ele>2.9</ele>
        <time>2019-08-15T17:30:42Z</time>
      </trkpt>
      <trkpt lat="41.5077920" lon="-8.7665630">
        <ele>3.0</ele>
        <time>2019-08-15T17:30:43Z</time>
      </trkpt>
      <trkpt lat="41.5078420" lon="-8.7665730">
        <ele>3.0</ele>
        <time>2019-08-15T17:30:44Z</time>
      </trkpt>
      <trkpt lat="41.5078900" lon="-8.7665880">
        <ele>3.1</ele>
        <time>2019-08-15T17:30:45Z</time>
      </trkpt>
      <trkpt lat="41.5080240" lon="-8.7666350">
        <ele>3.2</ele>
        <time>2019-08-15T17:30:48Z</time>
      </trkpt>
      <trkpt lat="41.5084100" lon="-8.7667420">
        <ele>3.3</ele>
        <time>2019-08-15T17:30:56Z</time>
      </trkpt>
      <trkpt lat="41.5087560" lon="-8.7668210">
        <ele>3.4</ele>
        <time>2019-08-15T17:31:03Z</time>
      </trkpt>
      <trkpt lat="41.5088040" lon="-8.7668220">
        <ele>3.5</ele>
        <time>2019-08-15T17:31:04Z</time>
      </trkpt>
      <trkpt lat="41.5089510" lon="-8.7668360">
        <ele>3.6</ele>
        <time>2019-08-15T17:31:08Z</time>
      </trkpt>
      <trkpt lat="41.5091020" lon="-8.7669200">
        <ele>3.6</ele>
        <time>2019-08-15T17:31:13Z</time>
      </trkpt>
      <trkpt lat="41.5093750" lon="-8.7671110">
        <ele>3.8</ele>
        <time>2019-08-15T17:31:19Z</time>
      </trkpt>
      <trkpt lat="41.5097810" lon="-8.7674600">
        <ele>3.9</ele>
        <time>2019-08-15T17:31:28Z</time>
      </trkpt>
      <trkpt lat="41.5100490" lon="-8.7677280">
        <ele>3.4</ele>
        <time>2019-08-15T17:31:35Z</time>
      </trkpt>
      <trkpt lat="41.5104100" lon="-8.7680590">
        <ele>3.7</ele>
        <time>2019-08-15T17:31:45Z</time>
      </trkpt>
      <trkpt lat="41.5106570" lon="-8.7682620">
        <ele>4.0</ele>
        <time>2019-08-15T17:31:51Z</time>
      </trkpt>
      <trkpt lat="41.5109190" lon="-8.7685220">
        <ele>4.0</ele>
        <time>2019-08-15T17:31:58Z</time>
      </trkpt>
      <trkpt lat="41.5111780" lon="-8.7687420">
        <ele>4.0</ele>
        <time>2019-08-15T17:32:05Z</time>
      </trkpt>
      <trkpt lat="41.5112780" lon="-8.7688780">
        <ele>4.1</ele>
        <time>2019-08-15T17:32:08Z</time>
      </trkpt>
      <trkpt lat="41.5113670" lon="-8.7690260">
        <ele>4.3</ele>
        <time>2019-08-15T17:32:11Z</time>
      </trkpt>
      <trkpt lat="41.5114590" lon="-8.7691720">
        <ele>4.6</ele>
        <time>2019-08-15T17:32:16Z</time>
      </trkpt>
      <trkpt lat="41.5114650" lon="-8.7690650">
        <ele>4.9</ele>
        <time>2019-08-15T17:32:20Z</time>
      </trkpt>
      <trkpt lat="41.5114230" lon="-8.7689830">
        <ele>4.8</ele>
        <time>2019-08-15T17:32:22Z</time>
      </trkpt>
      <trkpt lat="41.5114110" lon="-8.7688460">
        <ele>4.7</ele>
        <time>2019-08-15T17:32:27Z</time>
      </trkpt>
      <trkpt lat="41.5113960" lon="-8.7688210">
        <ele>4.7</ele>
        <time>2019-08-15T17:34:15Z</time>
      </trkpt>
      <trkpt lat="41.5113670" lon="-8.7687670">
        <ele>4.6</ele>
        <time>2019-08-15T17:34:18Z</time>
      </trkpt>
      <trkpt lat="41.5112000" lon="-8.7685240">
        <ele>4.7</ele>
        <time>2019-08-15T17:34:24Z</time>
      </trkpt>
      <trkpt lat="41.5110360" lon="-8.7683100">
        <ele>4.3</ele>
        <time>2019-08-15T17:34:31Z</time>
      </trkpt>
      <trkpt lat="41.5110350" lon="-8.7683060">
        <ele>4.3</ele>
        <time>2019-08-15T17:34:33Z</time>
      </trkpt>
      <trkpt lat="41.5110250" lon="-8.7682920">
        <ele>4.3</ele>
        <time>2019-08-15T17:34:44Z</time>
      </trkpt>
      <trkpt lat="41.5110170" lon="-8.7682760">
        <ele>4.2</ele>
        <time>2019-08-15T17:34:45Z</time>
      </trkpt>
      <trkpt lat="41.5109130" lon="-8.7681020">
        <ele>3.4</ele>
        <time>2019-08-15T17:34:49Z</time>
      </trkpt>
      <trkpt lat="41.5108630" lon="-8.7679150">
        <ele>2.7</ele>
        <time>2019-08-15T17:34:54Z</time>
      </trkpt>
      <trkpt lat="41.5109880" lon="-8.7677800">
        <ele>2.5</ele>
        <time>2019-08-15T17:34:58Z</time>
      </trkpt>
      <trkpt lat="41.5110230" lon="-8.7676920">
        <ele>2.4</ele>
        <time>2019-08-15T17:35:02Z</time>
      </trkpt>
      <trkpt lat="41.5109460" lon="-8.7675520">
        <ele>2.3</ele>
        <time>2019-08-15T17:35:07Z</time>
      </trkpt>
      <trkpt lat="41.5110000" lon="-8.7674350">
        <ele>2.1</ele>
        <time>2019-08-15T17:35:12Z</time>
      </trkpt>
      <trkpt lat="41.5110190" lon="-8.7674090">
        <ele>2.1</ele>
        <time>2019-08-15T17:35:14Z</time>
      </trkpt>
      <trkpt lat="41.5110180" lon="-8.7674130">
        <ele>2.1</ele>
        <time>2019-08-15T17:35:15Z</time>
      </trkpt>
      <trkpt lat="41.5109980" lon="-8.7676930">
        <ele>13.2</ele>
        <time>2019-08-16T05:57:53Z</time>
      </trkpt>
      <trkpt lat="41.5109820" lon="-8.7677140">
        <ele>13.0</ele>
        <time>2019-08-16T05:57:54Z</time>
      </trkpt>
      <trkpt lat="41.5109650" lon="-8.7677360">
        <ele>13.0</ele>
        <time>2019-08-16T05:57:55Z</time>
      </trkpt>
      <trkpt lat="41.5109420" lon="-8.7677550">
        <ele>13.0</ele>
        <time>2019-08-16T05:57:56Z</time>
      </trkpt>
      <trkpt lat="41.5109220" lon="-8.7677750">
        <ele>12.4</ele>
        <time>2019-08-16T05:57:57Z</time>
      </trkpt>
      <trkpt lat="41.5108620" lon="-8.7678370">
        <ele>12.4</ele>
        <time>2019-08-16T05:58:00Z</time>
      </trkpt>
      <trkpt lat="41.5108360" lon="-8.7679490">
        <ele>12.4</ele>
        <time>2019-08-16T05:58:05Z</time>
      </trkpt>
      <trkpt lat="41.5109020" lon="-8.7680610">
        <ele>12.4</ele>
        <time>2019-08-16T05:58:10Z</time>
      </trkpt>
      <trkpt lat="41.5110130" lon="-8.7682510">
        <ele>12.4</ele>
        <time>2019-08-16T05:58:19Z</time>
      </trkpt>
      <trkpt lat="41.5110900" lon="-8.7684170">
        <ele>12.4</ele>
        <time>2019-08-16T05:58:26Z</time>
      </trkpt>
      <trkpt lat="41.5112830" lon="-8.7687090">
        <ele>12.4</ele>
        <time>2019-08-16T05:58:36Z</time>
      </trkpt>
      <trkpt lat="41.5113270" lon="-8.7688680">
        <ele>12.4</ele>
        <time>2019-08-16T05:58:41Z</time>
      </trkpt>
      <trkpt lat="41.5114450" lon="-8.7691090">
        <ele>12.4</ele>
        <time>2019-08-16T05:58:49Z</time>
      </trkpt>
      <trkpt lat="41.5115640" lon="-8.7693090">
        <ele>12.4</ele>
        <time>2019-08-16T05:58:57Z</time>
      </trkpt>
      <trkpt lat="41.5116850" lon="-8.7695280">
        <ele>12.4</ele>
        <time>2019-08-16T05:59:06Z</time>
      </trkpt>
      <trkpt lat="41.5117690" lon="-8.7697370">
        <ele>12.4</ele>
        <time>2019-08-16T05:59:13Z</time>
      </trkpt>
      <trkpt lat="41.5118680" lon="-8.7699720">
        <ele>12.4</ele>
        <time>2019-08-16T05:59:21Z</time>
      </trkpt>
      <trkpt lat="41.5120100" lon="-8.7701690">
        <ele>12.4</ele>
        <time>2019-08-16T05:59:29Z</time>
      </trkpt>
      <trkpt lat="41.5121570" lon="-8.7703650">
        <ele>12.4</ele>
        <time>2019-08-16T05:59:36Z</time>
      </trkpt>
      <trkpt lat="41.5123930" lon="-8.7705420">
        <ele>12.4</ele>
        <time>2019-08-16T05:59:41Z</time>
      </trkpt>
      <trkpt lat="41.5125260" lon="-8.7707180">
        <ele>12.4</ele>
        <time>2019-08-16T05:59:48Z</time>
      </trkpt>
      <trkpt lat="41.5126190" lon="-8.7709090">
        <ele>12.4</ele>
        <time>2019-08-16T05:59:55Z</time>
      </trkpt>
      <trkpt lat="41.5126950" lon="-8.7709690">
        <ele>12.8</ele>
        <time>2019-08-16T05:59:58Z</time>
      </trkpt>
      <trkpt lat="41.5127270" lon="-8.7709890">
        <ele>13.2</ele>
        <time>2019-08-16T05:59:59Z</time>
      </trkpt>
      <trkpt lat="41.5127480" lon="-8.7710150">
        <ele>13.6</ele>
        <time>2019-08-16T06:00:00Z</time>
      </trkpt>
      <trkpt lat="41.5127690" lon="-8.7710360">
        <ele>14.0</ele>
        <time>2019-08-16T06:00:01Z</time>
      </trkpt>
      <trkpt lat="41.5127880" lon="-8.7710690">
        <ele>14.4</ele>
        <time>2019-08-16T06:00:02Z</time>
      </trkpt>
      <trkpt lat="41.5128180" lon="-8.7711080">
        <ele>14.4</ele>
        <time>2019-08-16T06:00:04Z</time>
      </trkpt>
      <trkpt lat="41.5129130" lon="-8.7712770">
        <ele>14.4</ele>
        <time>2019-08-16T06:00:11Z</time>
      </trkpt>
      <trkpt lat="41.5130140" lon="-8.7714090">
        <ele>14.4</ele>
        <time>2019-08-16T06:00:18Z</time>
      </trkpt>
      <trkpt lat="41.5131710" lon="-8.7715850">
        <ele>14.4</ele>
        <time>2019-08-16T06:00:26Z</time>
      </trkpt>
      <trkpt lat="41.5133510" lon="-8.7716990">
        <ele>14.4</ele>
        <time>2019-08-16T06:00:32Z</time>
      </trkpt>
      <trkpt lat="41.5134960" lon="-8.7717460">
        <ele>14.4</ele>
        <time>2019-08-16T06:00:36Z</time>
      </trkpt>
      <trkpt lat="41.5138430" lon="-8.7718570">
        <ele>14.4</ele>
        <time>2019-08-16T06:00:43Z</time>
      </trkpt>
      <trkpt lat="41.5139690" lon="-8.7718880">
        <ele>14.4</ele>
        <time>2019-08-16T06:00:47Z</time>
      </trkpt>
      <trkpt lat="41.5140220" lon="-8.7718840">
        <ele>14.4</ele>
        <time>2019-08-16T06:00:51Z</time>
      </trkpt>
      <trkpt lat="41.5140260" lon="-8.7718880">
        <ele>14.4</ele>
        <time>2019-08-16T06:00:52Z</time>
      </trkpt>
      <trkpt lat="41.5140380" lon="-8.7718980">
        <ele>14.4</ele>
        <time>2019-08-16T06:01:07Z</time>
      </trkpt>
      <trkpt lat="41.5140670" lon="-8.7718850">
        <ele>14.0</ele>
        <time>2019-08-16T06:01:08Z</time>
      </trkpt>
      <trkpt lat="41.5140970" lon="-8.7718770">
        <ele>13.6</ele>
        <time>2019-08-16T06:01:09Z</time>
      </trkpt>
      <trkpt lat="41.5141200" lon="-8.7718670">
        <ele>13.2</ele>
        <time>2019-08-16T06:01:10Z</time>
      </trkpt>
      <trkpt lat="41.5141410" lon="-8.7718570">
        <ele>12.8</ele>
        <time>2019-08-16T06:01:11Z</time>
      </trkpt>
      <trkpt lat="41.5141600" lon="-8.7718450">
        <ele>12.4</ele>
        <time>2019-08-16T06:01:12Z</time>
      </trkpt>
      <trkpt lat="41.5142210" lon="-8.7718120">
        <ele>12.4</ele>
        <time>2019-08-16T06:01:15Z</time>
      </trkpt>
      <trkpt lat="41.5142640" lon="-8.7718040">
        <ele>12.4</ele>
        <time>2019-08-16T06:01:18Z</time>
      </trkpt>
      <trkpt lat="41.5142800" lon="-8.7718190">
        <ele>12.4</ele>
        <time>2019-08-16T06:01:19Z</time>
      </trkpt>
      <trkpt lat="41.5143700" lon="-8.7719820">
        <ele>12.4</ele>
        <time>2019-08-16T06:01:25Z</time>
      </trkpt>
      <trkpt lat="41.5145030" lon="-8.7722730">
        <ele>12.4</ele>
        <time>2019-08-16T06:01:35Z</time>
      </trkpt>
      <trkpt lat="41.5146180" lon="-8.7725970">
        <ele>12.4</ele>
        <time>2019-08-16T06:01:46Z</time>
      </trkpt>
      <trkpt lat="41.5146080" lon="-8.7727540">
        <ele>12.4</ele>
        <time>2019-08-16T06:01:54Z</time>
      </trkpt>
      <trkpt lat="41.5144510" lon="-8.7728820">
        <ele>12.4</ele>
        <time>2019-08-16T06:02:00Z</time>
      </trkpt>
      <trkpt lat="41.5144770" lon="-8.7730840">
        <ele>12.4</ele>
        <time>2019-08-16T06:02:07Z</time>
      </trkpt>
      <trkpt lat="41.5145620" lon="-8.7733000">
        <ele>12.4</ele>
        <time>2019-08-16T06:02:14Z</time>
      </trkpt>
      <trkpt lat="41.5145090" lon="-8.7735020">
        <ele>12.4</ele>
        <time>2019-08-16T06:02:20Z</time>
      </trkpt>
      <trkpt lat="41.5144230" lon="-8.7736160">
        <ele>12.4</ele>
        <time>2019-08-16T06:02:26Z</time>
      </trkpt>
      <trkpt lat="41.5142850" lon="-8.7735290">
        <ele>12.4</ele>
        <time>2019-08-16T06:02:33Z</time>
      </trkpt>
      <trkpt lat="41.5141850" lon="-8.7734570">
        <ele>12.4</ele>
        <time>2019-08-16T06:02:39Z</time>
      </trkpt>
      <trkpt lat="41.5141590" lon="-8.7734540">
        <ele>14.8</ele>
        <time>2019-08-16T06:03:03Z</time>
      </trkpt>
      <trkpt lat="41.5141640" lon="-8.7734470">
        <ele>14.8</ele>
        <time>2019-08-16T06:03:04Z</time>
      </trkpt>
      <trkpt lat="41.5141960" lon="-8.7733610">
        <ele>14.8</ele>
        <time>2019-08-16T06:03:08Z</time>
      </trkpt>
      <trkpt lat="41.5142110" lon="-8.7733230">
        <ele>14.8</ele>
        <time>2019-08-16T06:03:09Z</time>
      </trkpt>
      <trkpt lat="41.5144150" lon="-8.7731000">
        <ele>14.8</ele>
        <time>2019-08-16T06:03:17Z</time>
      </trkpt>
      <trkpt lat="41.5147080" lon="-8.7728250">
        <ele>14.8</ele>
        <time>2019-08-16T06:03:26Z</time>
      </trkpt>
      <trkpt lat="41.5149510" lon="-8.7726020">
        <ele>14.8</ele>
        <time>2019-08-16T06:03:33Z</time>
      </trkpt>
      <trkpt lat="41.5152410" lon="-8.7723490">
        <ele>14.8</ele>
        <time>2019-08-16T06:03:41Z</time>
      </trkpt>
      <trkpt lat="41.5154920" lon="-8.7721290">
        <ele>14.8</ele>
        <time>2019-08-16T06:03:48Z</time>
      </trkpt>
      <trkpt lat="41.5158540" lon="-8.7718500">
        <ele>14.8</ele>
        <time>2019-08-16T06:03:57Z</time>
      </trkpt>
      <trkpt lat="41.5161710" lon="-8.7715930">
        <ele>14.8</ele>
        <time>2019-08-16T06:04:05Z</time>
      </trkpt>
      <trkpt lat="41.5164500" lon="-8.7713370">
        <ele>14.8</ele>
        <time>2019-08-16T06:04:13Z</time>
      </trkpt>
      <trkpt lat="41.5166430" lon="-8.7711740">
        <ele>14.8</ele>
        <time>2019-08-16T06:04:18Z</time>
      </trkpt>
      <trkpt lat="41.5167570" lon="-8.7710750">
        <ele>14.8</ele>
        <time>2019-08-16T06:04:21Z</time>
      </trkpt>
      <trkpt lat="41.5171510" lon="-8.7707500">
        <ele>14.8</ele>
        <time>2019-08-16T06:04:31Z</time>
      </trkpt>
      <trkpt lat="41.5174250" lon="-8.7705450">
        <ele>14.8</ele>
        <time>2019-08-16T06:04:39Z</time>
      </trkpt>
      <trkpt lat="41.5177470" lon="-8.7703580">
        <ele>14.8</ele>
        <time>2019-08-16T06:04:47Z</time>
      </trkpt>
      <trkpt lat="41.5181170" lon="-8.7702720">
        <ele>14.8</ele>
        <time>2019-08-16T06:04:54Z</time>
      </trkpt>
      <trkpt lat="41.5183190" lon="-8.7702740">
        <ele>14.8</ele>
        <time>2019-08-16T06:04:58Z</time>
      </trkpt>
      <trkpt lat="41.5184230" lon="-8.7702840">
        <ele>14.8</ele>
        <time>2019-08-16T06:05:00Z</time>
      </trkpt>
      <trkpt lat="41.5188330" lon="-8.7704020">
        <ele>14.8</ele>
        <time>2019-08-16T06:05:08Z</time>
      </trkpt>
      <trkpt lat="41.5193500" lon="-8.7706150">
        <ele>14.8</ele>
        <time>2019-08-16T06:05:18Z</time>
      </trkpt>
      <trkpt lat="41.5195120" lon="-8.7706830">
        <ele>14.8</ele>
        <time>2019-08-16T06:05:21Z</time>
      </trkpt>
      <trkpt lat="41.5197790" lon="-8.7707650">
        <ele>14.8</ele>
        <time>2019-08-16T06:05:26Z</time>
      </trkpt>
      <trkpt lat="41.5200930" lon="-8.7708120">
        <ele>14.8</ele>
        <time>2019-08-16T06:05:32Z</time>
      </trkpt>
      <trkpt lat="41.5201940" lon="-8.7708130">
        <ele>14.8</ele>
        <time>2019-08-16T06:05:34Z</time>
      </trkpt>
      <trkpt lat="41.5203340" lon="-8.7708550">
        <ele>14.8</ele>
        <time>2019-08-16T06:05:37Z</time>
      </trkpt>
      <trkpt lat="41.5204040" lon="-8.7709420">
        <ele>14.8</ele>
        <time>2019-08-16T06:05:39Z</time>
      </trkpt>
      <trkpt lat="41.5204180" lon="-8.7711220">
        <ele>14.8</ele>
        <time>2019-08-16T06:05:42Z</time>
      </trkpt>
      <trkpt lat="41.5203410" lon="-8.7712740">
        <ele>14.8</ele>
        <time>2019-08-16T06:05:45Z</time>
      </trkpt>
      <trkpt lat="41.5203230" lon="-8.7713200">
        <ele>14.8</ele>
        <time>2019-08-16T06:05:46Z</time>
      </trkpt>
      <trkpt lat="41.5202840" lon="-8.7714810">
        <ele>14.8</ele>
        <time>2019-08-16T06:05:49Z</time>
      </trkpt>
      <trkpt lat="41.5202790" lon="-8.7715990">
        <ele>14.8</ele>
        <time>2019-08-16T06:05:51Z</time>
      </trkpt>
      <trkpt lat="41.5202880" lon="-8.7720120">
        <ele>14.2</ele>
        <time>2019-08-16T06:05:58Z</time>
      </trkpt>
      <trkpt lat="41.5202890" lon="-8.7720690">
        <ele>13.8</ele>
        <time>2019-08-16T06:05:59Z</time>
      </trkpt>
      <trkpt lat="41.5202920" lon="-8.7721300">
        <ele>13.4</ele>
        <time>2019-08-16T06:06:00Z</time>
      </trkpt>
      <trkpt lat="41.5202960" lon="-8.7721890">
        <ele>13.0</ele>
        <time>2019-08-16T06:06:01Z</time>
      </trkpt>
      <trkpt lat="41.5202980" lon="-8.7722520">
        <ele>12.6</ele>
        <time>2019-08-16T06:06:02Z</time>
      </trkpt>
      <trkpt lat="41.5203020" lon="-8.7724490">
        <ele>12.6</ele>
        <time>2019-08-16T06:06:05Z</time>
      </trkpt>
      <trkpt lat="41.5203230" lon="-8.7730880">
        <ele>12.6</ele>
        <time>2019-08-16T06:06:14Z</time>
      </trkpt>
      <trkpt lat="41.5203540" lon="-8.7738180">
        <ele>12.6</ele>
        <time>2019-08-16T06:06:24Z</time>
      </trkpt>
      <trkpt lat="41.5203780" lon="-8.7738900">
        <ele>12.6</ele>
        <time>2019-08-16T06:06:25Z</time>
      </trkpt>
      <trkpt lat="41.5204660" lon="-8.7740790">
        <ele>12.6</ele>
        <time>2019-08-16T06:06:28Z</time>
      </trkpt>
      <trkpt lat="41.5206790" lon="-8.7742990">
        <ele>12.6</ele>
        <time>2019-08-16T06:06:33Z</time>
      </trkpt>
      <trkpt lat="41.5207300" lon="-8.7743270">
        <ele>12.6</ele>
        <time>2019-08-16T06:06:34Z</time>
      </trkpt>
      <trkpt lat="41.5210910" lon="-8.7744990">
        <ele>12.6</ele>
        <time>2019-08-16T06:06:41Z</time>
      </trkpt>
      <trkpt lat="41.5215460" lon="-8.7747280">
        <ele>12.6</ele>
        <time>2019-08-16T06:06:50Z</time>
      </trkpt>
      <trkpt lat="41.5220630" lon="-8.7749860">
        <ele>12.6</ele>
        <time>2019-08-16T06:07:00Z</time>
      </trkpt>
      <trkpt lat="41.5221130" lon="-8.7750150">
        <ele>12.6</ele>
        <time>2019-08-16T06:07:01Z</time>
      </trkpt>
      <trkpt lat="41.5225790" lon="-8.7752450">
        <ele>12.6</ele>
        <time>2019-08-16T06:07:10Z</time>
      </trkpt>
      <trkpt lat="41.5230240" lon="-8.7754740">
        <ele>12.6</ele>
        <time>2019-08-16T06:07:19Z</time>
      </trkpt>
      <trkpt lat="41.5235730" lon="-8.7757540">
        <ele>12.6</ele>
        <time>2019-08-16T06:07:30Z</time>
      </trkpt>
      <trkpt lat="41.5239840" lon="-8.7759620">
        <ele>12.6</ele>
        <time>2019-08-16T06:07:38Z</time>
      </trkpt>
      <trkpt lat="41.5244770" lon="-8.7761970">
        <ele>12.6</ele>
        <time>2019-08-16T06:07:48Z</time>
      </trkpt>
      <trkpt lat="41.5249620" lon="-8.7764370">
        <ele>12.6</ele>
        <time>2019-08-16T06:07:58Z</time>
      </trkpt>
      <trkpt lat="41.5251060" lon="-8.7764910">
        <ele>12.6</ele>
        <time>2019-08-16T06:08:01Z</time>
      </trkpt>
      <trkpt lat="41.5252650" lon="-8.7764610">
        <ele>12.6</ele>
        <time>2019-08-16T06:08:04Z</time>
      </trkpt>
      <trkpt lat="41.5254030" lon="-8.7763810">
        <ele>12.6</ele>
        <time>2019-08-16T06:08:07Z</time>
      </trkpt>
      <trkpt lat="41.5254500" lon="-8.7763670">
        <ele>12.6</ele>
        <time>2019-08-16T06:08:08Z</time>
      </trkpt>
      <trkpt lat="41.5254930" lon="-8.7763640">
        <ele>12.6</ele>
        <time>2019-08-16T06:08:09Z</time>
      </trkpt>
      <trkpt lat="41.5256210" lon="-8.7764570">
        <ele>12.6</ele>
        <time>2019-08-16T06:08:12Z</time>
      </trkpt>
      <trkpt lat="41.5256540" lon="-8.7764980">
        <ele>12.6</ele>
        <time>2019-08-16T06:08:13Z</time>
      </trkpt>
      <trkpt lat="41.5256840" lon="-8.7765460">
        <ele>12.6</ele>
        <time>2019-08-16T06:08:14Z</time>
      </trkpt>
      <trkpt lat="41.5256870" lon="-8.7766750">
        <ele>12.6</ele>
        <time>2019-08-16T06:08:16Z</time>
      </trkpt>
      <trkpt lat="41.5256490" lon="-8.7769040">
        <ele>12.6</ele>
        <time>2019-08-16T06:08:19Z</time>
      </trkpt>
      <trkpt lat="41.5256500" lon="-8.7769730">
        <ele>12.6</ele>
        <time>2019-08-16T06:08:20Z</time>
      </trkpt>
      <trkpt lat="41.5257190" lon="-8.7771640">
        <ele>12.6</ele>
        <time>2019-08-16T06:08:23Z</time>
      </trkpt>
      <trkpt lat="41.5258450" lon="-8.7773440">
        <ele>12.6</ele>
        <time>2019-08-16T06:08:27Z</time>
      </trkpt>
      <trkpt lat="41.5258910" lon="-8.7773840">
        <ele>12.6</ele>
        <time>2019-08-16T06:08:29Z</time>
      </trkpt>
      <trkpt lat="41.5259380" lon="-8.7773890">
        <ele>12.6</ele>
        <time>2019-08-16T06:08:31Z</time>
      </trkpt>
      <trkpt lat="41.5260140" lon="-8.7772570">
        <ele>12.6</ele>
        <time>2019-08-16T06:08:35Z</time>
      </trkpt>
      <trkpt lat="41.5261290" lon="-8.7770880">
        <ele>12.6</ele>
        <time>2019-08-16T06:08:41Z</time>
      </trkpt>
      <trkpt lat="41.5261630" lon="-8.7770980">
        <ele>12.6</ele>
        <time>2019-08-16T06:08:43Z</time>
      </trkpt>
      <trkpt lat="41.5261750" lon="-8.7771180">
        <ele>12.6</ele>
        <time>2019-08-16T06:08:44Z</time>
      </trkpt>
      <trkpt lat="41.5262800" lon="-8.7772580">
        <ele>12.6</ele>
        <time>2019-08-16T06:08:50Z</time>
      </trkpt>
      <trkpt lat="41.5263760" lon="-8.7773710">
        <ele>12.6</ele>
        <time>2019-08-16T06:08:55Z</time>
      </trkpt>
      <trkpt lat="41.5265150" lon="-8.7774950">
        <ele>12.6</ele>
        <time>2019-08-16T06:09:01Z</time>
      </trkpt>
      <trkpt lat="41.5267810" lon="-8.7775670">
        <ele>12.6</ele>
        <time>2019-08-16T06:09:06Z</time>
      </trkpt>
      <trkpt lat="41.5270580" lon="-8.7777080">
        <ele>12.6</ele>
        <time>2019-08-16T06:09:12Z</time>
      </trkpt>
      <trkpt lat="41.5274190" lon="-8.7779380">
        <ele>12.6</ele>
        <time>2019-08-16T06:09:21Z</time>
      </trkpt>
      <trkpt lat="41.5277170" lon="-8.7782000">
        <ele>12.6</ele>
        <time>2019-08-16T06:09:28Z</time>
      </trkpt>
      <trkpt lat="41.5280510" lon="-8.7784300">
        <ele>12.6</ele>
        <time>2019-08-16T06:09:35Z</time>
      </trkpt>
      <trkpt lat="41.5281020" lon="-8.7784560">
        <ele>12.6</ele>
        <time>2019-08-16T06:09:36Z</time>
      </trkpt>
      <trkpt lat="41.5283410" lon="-8.7786310">
        <ele>12.6</ele>
        <time>2019-08-16T06:09:41Z</time>
      </trkpt>
      <trkpt lat="41.5285640" lon="-8.7788210">
        <ele>12.6</ele>
        <time>2019-08-16T06:09:47Z</time>
      </trkpt>
      <trkpt lat="41.5286110" lon="-8.7788120">
        <ele>12.6</ele>
        <time>2019-08-16T06:09:51Z</time>
      </trkpt>
      <trkpt lat="41.5286150" lon="-8.7788030">
        <ele>12.6</ele>
        <time>2019-08-16T06:09:53Z</time>
      </trkpt>
      <trkpt lat="41.5285070" lon="-8.7789940">
        <ele>12.6</ele>
        <time>2019-08-16T06:21:25Z</time>
      </trkpt>
      <trkpt lat="41.5285100" lon="-8.7789880">
        <ele>12.6</ele>
        <time>2019-08-16T06:21:27Z</time>
      </trkpt>
      <trkpt lat="41.5285670" lon="-8.7789930">
        <ele>12.6</ele>
        <time>2019-08-16T06:22:07Z</time>
      </trkpt>
      <trkpt lat="41.5286640" lon="-8.7790390">
        <ele>12.6</ele>
        <time>2019-08-16T06:22:13Z</time>
      </trkpt>
      <trkpt lat="41.5288100" lon="-8.7791600">
        <ele>12.6</ele>
        <time>2019-08-16T06:22:19Z</time>
      </trkpt>
      <trkpt lat="41.5290260" lon="-8.7791970">
        <ele>12.6</ele>
        <time>2019-08-16T06:22:27Z</time>
      </trkpt>
      <trkpt lat="41.5291660" lon="-8.7792710">
        <ele>12.6</ele>
        <time>2019-08-16T06:22:32Z</time>
      </trkpt>
      <trkpt lat="41.5293450" lon="-8.7794190">
        <ele>12.6</ele>
        <time>2019-08-16T06:22:41Z</time>
      </trkpt>
      <trkpt lat="41.5295580" lon="-8.7795810">
        <ele>12.6</ele>
        <time>2019-08-16T06:22:50Z</time>
      </trkpt>
      <trkpt lat="41.5297180" lon="-8.7796320">
        <ele>12.6</ele>
        <time>2019-08-16T06:22:57Z</time>
      </trkpt>
      <trkpt lat="41.5298840" lon="-8.7797100">
        <ele>12.6</ele>
        <time>2019-08-16T06:23:04Z</time>
      </trkpt>
      <trkpt lat="41.5299100" lon="-8.7797120">
        <ele>13.0</ele>
        <time>2019-08-16T06:23:05Z</time>
      </trkpt>
      <trkpt lat="41.5299240" lon="-8.7797210">
        <ele>13.6</ele>
        <time>2019-08-16T06:23:06Z</time>
      </trkpt>
      <trkpt lat="41.5299540" lon="-8.7797150">
        <ele>14.0</ele>
        <time>2019-08-16T06:23:07Z</time>
      </trkpt>
      <trkpt lat="41.5299780" lon="-8.7797200">
        <ele>14.4</ele>
        <time>2019-08-16T06:23:08Z</time>
      </trkpt>
      <trkpt lat="41.5299980" lon="-8.7797270">
        <ele>14.8</ele>
        <time>2019-08-16T06:23:09Z</time>
      </trkpt>
      <trkpt lat="41.5300170" lon="-8.7797390">
        <ele>14.8</ele>
        <time>2019-08-16T06:23:10Z</time>
      </trkpt>
      <trkpt lat="41.5300840" lon="-8.7797640">
        <ele>14.8</ele>
        <time>2019-08-16T06:23:15Z</time>
      </trkpt>
      <trkpt lat="41.5301000" lon="-8.7797620">
        <ele>14.8</ele>
        <time>2019-08-16T06:23:50Z</time>
      </trkpt>
      <trkpt lat="41.5302050" lon="-8.7798320">
        <ele>14.8</ele>
        <time>2019-08-16T06:23:56Z</time>
      </trkpt>
      <trkpt lat="41.5303400" lon="-8.7798740">
        <ele>14.8</ele>
        <time>2019-08-16T06:24:03Z</time>
      </trkpt>
      <trkpt lat="41.5305150" lon="-8.7799160">
        <ele>14.8</ele>
        <time>2019-08-16T06:24:10Z</time>
      </trkpt>
      <trkpt lat="41.5306510" lon="-8.7799850">
        <ele>14.8</ele>
        <time>2019-08-16T06:24:16Z</time>
      </trkpt>
      <trkpt lat="41.5308460" lon="-8.7800940">
        <ele>14.8</ele>
        <time>2019-08-16T06:24:23Z</time>
      </trkpt>
      <trkpt lat="41.5311070" lon="-8.7802720">
        <ele>14.8</ele>
        <time>2019-08-16T06:24:34Z</time>
      </trkpt>
      <trkpt lat="41.5313790" lon="-8.7804230">
        <ele>14.8</ele>
        <time>2019-08-16T06:24:42Z</time>
      </trkpt>
      <trkpt lat="41.5316020" lon="-8.7806020">
        <ele>14.8</ele>
        <time>2019-08-16T06:24:49Z</time>
      </trkpt>
      <trkpt lat="41.5319820" lon="-8.7808190">
        <ele>14.8</ele>
        <time>2019-08-16T06:24:58Z</time>
      </trkpt>
      <trkpt lat="41.5322230" lon="-8.7809480">
        <ele>14.8</ele>
        <time>2019-08-16T06:25:03Z</time>
      </trkpt>
      <trkpt lat="41.5325900" lon="-8.7810480">
        <ele>14.8</ele>
        <time>2019-08-16T06:25:12Z</time>
      </trkpt>
      <trkpt lat="41.5326750" lon="-8.7810670">
        <ele>14.8</ele>
        <time>2019-08-16T06:25:16Z</time>
      </trkpt>
      <trkpt lat="41.5326940" lon="-8.7810850">
        <ele>14.8</ele>
        <time>2019-08-16T06:25:17Z</time>
      </trkpt>
      <trkpt lat="41.5327220" lon="-8.7811600">
        <ele>14.8</ele>
        <time>2019-08-16T06:25:20Z</time>
      </trkpt>
      <trkpt lat="41.5327260" lon="-8.7811950">
        <ele>14.8</ele>
        <time>2019-08-16T06:25:21Z</time>
      </trkpt>
      <trkpt lat="41.5327390" lon="-8.7812850">
        <ele>14.8</ele>
        <time>2019-08-16T06:25:24Z</time>
      </trkpt>
      <trkpt lat="41.5327430" lon="-8.7813090">
        <ele>14.8</ele>
        <time>2019-08-16T06:25:25Z</time>
      </trkpt>
      <trkpt lat="41.5327900" lon="-8.7814510">
        <ele>14.8</ele>
        <time>2019-08-16T06:25:32Z</time>
      </trkpt>
      <trkpt lat="41.5327650" lon="-8.7814960">
        <ele>14.8</ele>
        <time>2019-08-16T06:25:36Z</time>
      </trkpt>
      <trkpt lat="41.5327950" lon="-8.7814780">
        <ele>14.8</ele>
        <time>2019-08-16T06:25:44Z</time>
      </trkpt>
      <trkpt lat="41.5328840" lon="-8.7814620">
        <ele>14.8</ele>
        <time>2019-08-16T06:25:48Z</time>
      </trkpt>
      <trkpt lat="41.5329370" lon="-8.7814630">
        <ele>14.8</ele>
        <time>2019-08-16T06:25:50Z</time>
      </trkpt>
      <trkpt lat="41.5330640" lon="-8.7814500">
        <ele>14.8</ele>
        <time>2019-08-16T06:25:55Z</time>
      </trkpt>
      <trkpt lat="41.5332760" lon="-8.7814550">
        <ele>14.8</ele>
        <time>2019-08-16T06:26:01Z</time>
      </trkpt>
      <trkpt lat="41.5333920" lon="-8.7814890">
        <ele>14.8</ele>
        <time>2019-08-16T06:26:06Z</time>
      </trkpt>
      <trkpt lat="41.5335110" lon="-8.7815010">
        <ele>14.8</ele>
        <time>2019-08-16T06:26:10Z</time>
      </trkpt>
      <trkpt lat="41.5337110" lon="-8.7815050">
        <ele>14.8</ele>
        <time>2019-08-16T06:26:16Z</time>
      </trkpt>
      <trkpt lat="41.5340060" lon="-8.7815320">
        <ele>14.8</ele>
        <time>2019-08-16T06:26:25Z</time>
      </trkpt>
      <trkpt lat="41.5342430" lon="-8.7815470">
        <ele>14.8</ele>
        <time>2019-08-16T06:26:31Z</time>
      </trkpt>
      <trkpt lat="41.5346120" lon="-8.7815930">
        <ele>14.8</ele>
        <time>2019-08-16T06:26:41Z</time>
      </trkpt>
      <trkpt lat="41.5348820" lon="-8.7816230">
        <ele>14.8</ele>
        <time>2019-08-16T06:26:48Z</time>
      </trkpt>
      <trkpt lat="41.5350410" lon="-8.7815830">
        <ele>14.8</ele>
        <time>2019-08-16T06:26:53Z</time>
      </trkpt>
      <trkpt lat="41.5353020" lon="-8.7816200">
        <ele>14.8</ele>
        <time>2019-08-16T06:27:01Z</time>
      </trkpt>
      <trkpt lat="41.5356410" lon="-8.7816150">
        <ele>14.8</ele>
        <time>2019-08-16T06:27:10Z</time>
      </trkpt>
      <trkpt lat="41.5359050" lon="-8.7816340">
        <ele>14.8</ele>
        <time>2019-08-16T06:27:17Z</time>
      </trkpt>
      <trkpt lat="41.5363010" lon="-8.7816530">
        <ele>14.8</ele>
        <time>2019-08-16T06:27:27Z</time>
      </trkpt>
      <trkpt lat="41.5366100" lon="-8.7816860">
        <ele>14.8</ele>
        <time>2019-08-16T06:27:35Z</time>
      </trkpt>
      <trkpt lat="41.5367880" lon="-8.7818730">
        <ele>14.8</ele>
        <time>2019-08-16T06:27:41Z</time>
      </trkpt>
      <trkpt lat="41.5367970" lon="-8.7820020">
        <ele>14.8</ele>
        <time>2019-08-16T06:27:43Z</time>
      </trkpt>
      <trkpt lat="41.5367720" lon="-8.7823190">
        <ele>14.8</ele>
        <time>2019-08-16T06:27:48Z</time>
      </trkpt>
      <trkpt lat="41.5367270" lon="-8.7827010">
        <ele>14.8</ele>
        <time>2019-08-16T06:27:54Z</time>
      </trkpt>
      <trkpt lat="41.5367050" lon="-8.7832370">
        <ele>14.8</ele>
        <time>2019-08-16T06:28:02Z</time>
      </trkpt>
      <trkpt lat="41.5366740" lon="-8.7838620">
        <ele>14.8</ele>
        <time>2019-08-16T06:28:11Z</time>
      </trkpt>
      <trkpt lat="41.5366450" lon="-8.7845950">
        <ele>14.8</ele>
        <time>2019-08-16T06:28:21Z</time>
      </trkpt>
      <trkpt lat="41.5366420" lon="-8.7846650">
        <ele>14.8</ele>
        <time>2019-08-16T06:28:22Z</time>
      </trkpt>
      <trkpt lat="41.5366390" lon="-8.7849860">
        <ele>14.8</ele>
        <time>2019-08-16T06:28:27Z</time>
      </trkpt>
      <trkpt lat="41.5366690" lon="-8.7850710">
        <ele>14.8</ele>
        <time>2019-08-16T06:28:29Z</time>
      </trkpt>
      <trkpt lat="41.5367440" lon="-8.7852940">
        <ele>14.8</ele>
        <time>2019-08-16T06:28:36Z</time>
      </trkpt>
      <trkpt lat="41.5369600" lon="-8.7853640">
        <ele>14.8</ele>
        <time>2019-08-16T06:28:42Z</time>
      </trkpt>
      <trkpt lat="41.5372400" lon="-8.7854680">
        <ele>14.8</ele>
        <time>2019-08-16T06:28:49Z</time>
      </trkpt>
      <trkpt lat="41.5376270" lon="-8.7856310">
        <ele>14.8</ele>
        <time>2019-08-16T06:28:58Z</time>
      </trkpt>
      <trkpt lat="41.5380360" lon="-8.7858030">
        <ele>14.8</ele>
        <time>2019-08-16T06:29:07Z</time>
      </trkpt>
      <trkpt lat="41.5385680" lon="-8.7860510">
        <ele>14.8</ele>
        <time>2019-08-16T06:29:19Z</time>
      </trkpt>
      <trkpt lat="41.5389590" lon="-8.7862180">
        <ele>14.8</ele>
        <time>2019-08-16T06:29:28Z</time>
      </trkpt>
      <trkpt lat="41.5392170" lon="-8.7863430">
        <ele>14.8</ele>
        <time>2019-08-16T06:29:35Z</time>
      </trkpt>
      <trkpt lat="41.5394830" lon="-8.7865650">
        <ele>14.8</ele>
        <time>2019-08-16T06:29:43Z</time>
      </trkpt>
      <trkpt lat="41.5396810" lon="-8.7868710">
        <ele>14.8</ele>
        <time>2019-08-16T06:29:50Z</time>
      </trkpt>
      <trkpt lat="41.5400180" lon="-8.7871770">
        <ele>14.8</ele>
        <time>2019-08-16T06:29:59Z</time>
      </trkpt>
      <trkpt lat="41.5401060" lon="-8.7872180">
        <ele>14.8</ele>
        <time>2019-08-16T06:30:01Z</time>
      </trkpt>
      <trkpt lat="41.5402250" lon="-8.7872580">
        <ele>14.8</ele>
        <time>2019-08-16T06:30:04Z</time>
      </trkpt>
      <trkpt lat="41.5405250" lon="-8.7872880">
        <ele>14.8</ele>
        <time>2019-08-16T06:30:11Z</time>
      </trkpt>
      <trkpt lat="41.5408490" lon="-8.7873390">
        <ele>14.8</ele>
        <time>2019-08-16T06:30:18Z</time>
      </trkpt>
      <trkpt lat="41.5412580" lon="-8.7875930">
        <ele>14.8</ele>
        <time>2019-08-16T06:30:27Z</time>
      </trkpt>
      <trkpt lat="41.5416380" lon="-8.7879170">
        <ele>14.8</ele>
        <time>2019-08-16T06:30:36Z</time>
      </trkpt>
      <trkpt lat="41.5419970" lon="-8.7882090">
        <ele>14.8</ele>
        <time>2019-08-16T06:30:44Z</time>
      </trkpt>
      <trkpt lat="41.5424070" lon="-8.7885580">
        <ele>14.8</ele>
        <time>2019-08-16T06:30:54Z</time>
      </trkpt>
      <trkpt lat="41.5426780" lon="-8.7887850">
        <ele>14.8</ele>
        <time>2019-08-16T06:31:01Z</time>
      </trkpt>
      <trkpt lat="41.5428990" lon="-8.7890570">
        <ele>14.8</ele>
        <time>2019-08-16T06:31:09Z</time>
      </trkpt>
      <trkpt lat="41.5428540" lon="-8.7891830">
        <ele>14.8</ele>
        <time>2019-08-16T06:31:13Z</time>
      </trkpt>
      <trkpt lat="41.5427000" lon="-8.7894860">
        <ele>14.8</ele>
        <time>2019-08-16T06:31:21Z</time>
      </trkpt>
      <trkpt lat="41.5424400" lon="-8.7899800">
        <ele>14.8</ele>
        <time>2019-08-16T06:31:32Z</time>
      </trkpt>
      <trkpt lat="41.5422450" lon="-8.7903530">
        <ele>14.8</ele>
        <time>2019-08-16T06:31:41Z</time>
      </trkpt>
      <trkpt lat="41.5420830" lon="-8.7905750">
        <ele>14.8</ele>
        <time>2019-08-16T06:31:49Z</time>
      </trkpt>
      <trkpt lat="41.5419840" lon="-8.7906250">
        <ele>14.8</ele>
        <time>2019-08-16T06:31:55Z</time>
      </trkpt>
      <trkpt lat="41.5419760" lon="-8.7906240">
        <ele>14.8</ele>
        <time>2019-08-16T06:31:57Z</time>
      </trkpt>
      <trkpt lat="41.5419760" lon="-8.7906340">
        <ele>14.0</ele>
        <time>2019-08-16T06:34:34Z</time>
      </trkpt>
      <trkpt lat="41.5420050" lon="-8.7906540">
        <ele>13.6</ele>
        <time>2019-08-16T06:34:35Z</time>
      </trkpt>
      <trkpt lat="41.5420280" lon="-8.7906840">
        <ele>13.2</ele>
        <time>2019-08-16T06:34:36Z</time>
      </trkpt>
      <trkpt lat="41.5420560" lon="-8.7907170">
        <ele>12.8</ele>
        <time>2019-08-16T06:34:37Z</time>
      </trkpt>
      <trkpt lat="41.5421540" lon="-8.7908120">
        <ele>12.8</ele>
        <time>2019-08-16T06:34:41Z</time>
      </trkpt>
      <trkpt lat="41.5423470" lon="-8.7910130">
        <ele>12.8</ele>
        <time>2019-08-16T06:34:48Z</time>
      </trkpt>
      <trkpt lat="41.5424920" lon="-8.7910730">
        <ele>12.8</ele>
        <time>2019-08-16T06:34:53Z</time>
      </trkpt>
      <trkpt lat="41.5426420" lon="-8.7911460">
        <ele>12.8</ele>
        <time>2019-08-16T06:34:58Z</time>
      </trkpt>
      <trkpt lat="41.5428450" lon="-8.7911820">
        <ele>12.8</ele>
        <time>2019-08-16T06:35:04Z</time>
      </trkpt>
      <trkpt lat="41.5430700" lon="-8.7911110">
        <ele>12.8</ele>
        <time>2019-08-16T06:35:10Z</time>
      </trkpt>
      <trkpt lat="41.5433180" lon="-8.7910550">
        <ele>12.8</ele>
        <time>2019-08-16T06:35:17Z</time>
      </trkpt>
      <trkpt lat="41.5436370" lon="-8.7909080">
        <ele>12.8</ele>
        <time>2019-08-16T06:35:26Z</time>
      </trkpt>
      <trkpt lat="41.5438500" lon="-8.7906850">
        <ele>12.8</ele>
        <time>2019-08-16T06:35:33Z</time>
      </trkpt>
      <trkpt lat="41.5440450" lon="-8.7903360">
        <ele>12.8</ele>
        <time>2019-08-16T06:35:42Z</time>
      </trkpt>
      <trkpt lat="41.5441530" lon="-8.7901010">
        <ele>12.8</ele>
        <time>2019-08-16T06:35:49Z</time>
      </trkpt>
      <trkpt lat="41.5441910" lon="-8.7901300">
        <ele>12.8</ele>
        <time>2019-08-16T06:35:50Z</time>
      </trkpt>
      <trkpt lat="41.5442500" lon="-8.7901460">
        <ele>12.8</ele>
        <time>2019-08-16T06:35:52Z</time>
      </trkpt>
      <trkpt lat="41.5445290" lon="-8.7903240">
        <ele>12.8</ele>
        <time>2019-08-16T06:36:00Z</time>
      </trkpt>
      <trkpt lat="41.5448590" lon="-8.7906170">
        <ele>12.8</ele>
        <time>2019-08-16T06:36:10Z</time>
      </trkpt>
      <trkpt lat="41.5452270" lon="-8.7909070">
        <ele>12.8</ele>
        <time>2019-08-16T06:36:20Z</time>
      </trkpt>
      <trkpt lat="41.5456460" lon="-8.7910700">
        <ele>12.8</ele>
        <time>2019-08-16T06:36:31Z</time>
      </trkpt>
      <trkpt lat="41.5456860" lon="-8.7910770">
        <ele>13.2</ele>
        <time>2019-08-16T06:36:32Z</time>
      </trkpt>
      <trkpt lat="41.5457280" lon="-8.7910860">
        <ele>13.6</ele>
        <time>2019-08-16T06:36:33Z</time>
      </trkpt>
      <trkpt lat="41.5457680" lon="-8.7910930">
        <ele>14.0</ele>
        <time>2019-08-16T06:36:34Z</time>
      </trkpt>
      <trkpt lat="41.5458090" lon="-8.7911020">
        <ele>14.4</ele>
        <time>2019-08-16T06:36:35Z</time>
      </trkpt>
      <trkpt lat="41.5458500" lon="-8.7911080">
        <ele>14.8</ele>
        <time>2019-08-16T06:36:36Z</time>
      </trkpt>
      <trkpt lat="41.5460240" lon="-8.7911030">
        <ele>14.8</ele>
        <time>2019-08-16T06:36:40Z</time>
      </trkpt>
      <trkpt lat="41.5464370" lon="-8.7910060">
        <ele>14.8</ele>
        <time>2019-08-16T06:36:50Z</time>
      </trkpt>
      <trkpt lat="41.5468760" lon="-8.7908310">
        <ele>14.8</ele>
        <time>2019-08-16T06:37:01Z</time>
      </trkpt>
      <trkpt lat="41.5473730" lon="-8.7906430">
        <ele>14.8</ele>
        <time>2019-08-16T06:37:14Z</time>
      </trkpt>
      <trkpt lat="41.5475580" lon="-8.7905670">
        <ele>15.2</ele>
        <time>2019-08-16T06:37:19Z</time>
      </trkpt>
      <trkpt lat="41.5475940" lon="-8.7905450">
        <ele>15.6</ele>
        <time>2019-08-16T06:37:20Z</time>
      </trkpt>
      <trkpt lat="41.5476290" lon="-8.7905200">
        <ele>16.0</ele>
        <time>2019-08-16T06:37:21Z</time>
      </trkpt>
      <trkpt lat="41.5476600" lon="-8.7904860">
        <ele>16.6</ele>
        <time>2019-08-16T06:37:22Z</time>
      </trkpt>
      <trkpt lat="41.5476880" lon="-8.7904500">
        <ele>17.0</ele>
        <time>2019-08-16T06:37:23Z</time>
      </trkpt>
      <trkpt lat="41.5477580" lon="-8.7902560">
        <ele>17.0</ele>
        <time>2019-08-16T06:37:28Z</time>
      </trkpt>
      <trkpt lat="41.5477400" lon="-8.7900160">
        <ele>17.0</ele>
        <time>2019-08-16T06:37:33Z</time>
      </trkpt>
      <trkpt lat="41.5477720" lon="-8.7896280">
        <ele>17.0</ele>
        <time>2019-08-16T06:37:40Z</time>
      </trkpt>
      <trkpt lat="41.5478590" lon="-8.7889260">
        <ele>17.0</ele>
        <time>2019-08-16T06:37:51Z</time>
      </trkpt>
      <trkpt lat="41.5479140" lon="-8.7884230">
        <ele>17.0</ele>
        <time>2019-08-16T06:38:00Z</time>
      </trkpt>
      <trkpt lat="41.5479710" lon="-8.7878740">
        <ele>17.0</ele>
        <time>2019-08-16T06:38:10Z</time>
      </trkpt>
      <trkpt lat="41.5480300" lon="-8.7872940">
        <ele>17.0</ele>
        <time>2019-08-16T06:38:20Z</time>
      </trkpt>
      <trkpt lat="41.5481000" lon="-8.7866870">
        <ele>17.0</ele>
        <time>2019-08-16T06:38:30Z</time>
      </trkpt>
      <trkpt lat="41.5481780" lon="-8.7859490">
        <ele>17.0</ele>
        <time>2019-08-16T06:38:42Z</time>
      </trkpt>
      <trkpt lat="41.5481840" lon="-8.7858890">
        <ele>17.0</ele>
        <time>2019-08-16T06:38:43Z</time>
      </trkpt>
      <trkpt lat="41.5482560" lon="-8.7852710">
        <ele>17.0</ele>
        <time>2019-08-16T06:38:53Z</time>
      </trkpt>
      <trkpt lat="41.5483230" lon="-8.7848780">
        <ele>17.0</ele>
        <time>2019-08-16T06:39:00Z</time>
      </trkpt>
      <trkpt lat="41.5483560" lon="-8.7848450">
        <ele>17.0</ele>
        <time>2019-08-16T06:39:01Z</time>
      </trkpt>
      <trkpt lat="41.5484940" lon="-8.7848620">
        <ele>17.0</ele>
        <time>2019-08-16T06:39:04Z</time>
      </trkpt>
      <trkpt lat="41.5485370" lon="-8.7848800">
        <ele>17.0</ele>
        <time>2019-08-16T06:39:05Z</time>
      </trkpt>
      <trkpt lat="41.5488590" lon="-8.7849980">
        <ele>17.0</ele>
        <time>2019-08-16T06:39:12Z</time>
      </trkpt>
      <trkpt lat="41.5489920" lon="-8.7850330">
        <ele>17.0</ele>
        <time>2019-08-16T06:39:15Z</time>
      </trkpt>
      <trkpt lat="41.5490810" lon="-8.7850190">
        <ele>17.0</ele>
        <time>2019-08-16T06:39:17Z</time>
      </trkpt>
      <trkpt lat="41.5491680" lon="-8.7849780">
        <ele>17.0</ele>
        <time>2019-08-16T06:39:19Z</time>
      </trkpt>
      <trkpt lat="41.5492630" lon="-8.7849570">
        <ele>17.0</ele>
        <time>2019-08-16T06:39:21Z</time>
      </trkpt>
      <trkpt lat="41.5493110" lon="-8.7849570">
        <ele>17.0</ele>
        <time>2019-08-16T06:39:22Z</time>
      </trkpt>
      <trkpt lat="41.5496010" lon="-8.7849930">
        <ele>17.0</ele>
        <time>2019-08-16T06:39:28Z</time>
      </trkpt>
      <trkpt lat="41.5500560" lon="-8.7850630">
        <ele>17.0</ele>
        <time>2019-08-16T06:39:37Z</time>
      </trkpt>
      <trkpt lat="41.5504140" lon="-8.7850990">
        <ele>17.0</ele>
        <time>2019-08-16T06:39:44Z</time>
      </trkpt>
      <trkpt lat="41.5507110" lon="-8.7852930">
        <ele>17.0</ele>
        <time>2019-08-16T06:39:50Z</time>
      </trkpt>
      <trkpt lat="41.5508300" lon="-8.7855090">
        <ele>17.0</ele>
        <time>2019-08-16T06:39:54Z</time>
      </trkpt>
      <trkpt lat="41.5509880" lon="-8.7857560">
        <ele>17.0</ele>
        <time>2019-08-16T06:39:58Z</time>
      </trkpt>
      <trkpt lat="41.5510790" lon="-8.7858530">
        <ele>17.0</ele>
        <time>2019-08-16T06:40:00Z</time>
      </trkpt>
      <trkpt lat="41.5512830" lon="-8.7859670">
        <ele>17.0</ele>
        <time>2019-08-16T06:40:04Z</time>
      </trkpt>
      <trkpt lat="41.5517460" lon="-8.7862170">
        <ele>17.0</ele>
        <time>2019-08-16T06:40:13Z</time>
      </trkpt>
      <trkpt lat="41.5521410" lon="-8.7864870">
        <ele>17.0</ele>
        <time>2019-08-16T06:40:22Z</time>
      </trkpt>
      <trkpt lat="41.5526350" lon="-8.7868060">
        <ele>17.0</ele>
        <time>2019-08-16T06:40:33Z</time>
      </trkpt>
      <trkpt lat="41.5530340" lon="-8.7870040">
        <ele>17.0</ele>
        <time>2019-08-16T06:40:41Z</time>
      </trkpt>
      <trkpt lat="41.5534720" lon="-8.7872120">
        <ele>17.0</ele>
        <time>2019-08-16T06:40:50Z</time>
      </trkpt>
      <trkpt lat="41.5540070" lon="-8.7875330">
        <ele>17.0</ele>
        <time>2019-08-16T06:41:01Z</time>
      </trkpt>
      <trkpt lat="41.5540520" lon="-8.7875610">
        <ele>17.0</ele>
        <time>2019-08-16T06:41:02Z</time>
      </trkpt>
      <trkpt lat="41.5544930" lon="-8.7877740">
        <ele>17.0</ele>
        <time>2019-08-16T06:41:11Z</time>
      </trkpt>
      <trkpt lat="41.5548840" lon="-8.7879190">
        <ele>17.0</ele>
        <time>2019-08-16T06:41:19Z</time>
      </trkpt>
      <trkpt lat="41.5550260" lon="-8.7879320">
        <ele>17.0</ele>
        <time>2019-08-16T06:41:22Z</time>
      </trkpt>
      <trkpt lat="41.5551130" lon="-8.7878960">
        <ele>17.0</ele>
        <time>2019-08-16T06:41:24Z</time>
      </trkpt>
      <trkpt lat="41.5551260" lon="-8.7877660">
        <ele>17.0</ele>
        <time>2019-08-16T06:41:26Z</time>
      </trkpt>
      <trkpt lat="41.5551470" lon="-8.7876460">
        <ele>17.0</ele>
        <time>2019-08-16T06:41:28Z</time>
      </trkpt>
      <trkpt lat="41.5552190" lon="-8.7874060">
        <ele>17.0</ele>
        <time>2019-08-16T06:41:32Z</time>
      </trkpt>
      <trkpt lat="41.5552960" lon="-8.7871220">
        <ele>17.0</ele>
        <time>2019-08-16T06:41:37Z</time>
      </trkpt>
      <trkpt lat="41.5553480" lon="-8.7869440">
        <ele>17.0</ele>
        <time>2019-08-16T06:41:40Z</time>
      </trkpt>
      <trkpt lat="41.5554590" lon="-8.7866210">
        <ele>17.4</ele>
        <time>2019-08-16T06:41:46Z</time>
      </trkpt>
      <trkpt lat="41.5554800" lon="-8.7865680">
        <ele>17.8</ele>
        <time>2019-08-16T06:41:47Z</time>
      </trkpt>
      <trkpt lat="41.5554990" lon="-8.7865130">
        <ele>18.2</ele>
        <time>2019-08-16T06:41:48Z</time>
      </trkpt>
      <trkpt lat="41.5555180" lon="-8.7864610">
        <ele>18.6</ele>
        <time>2019-08-16T06:41:49Z</time>
      </trkpt>
      <trkpt lat="41.5555400" lon="-8.7864100">
        <ele>19.0</ele>
        <time>2019-08-16T06:41:50Z</time>
      </trkpt>
      <trkpt lat="41.5556830" lon="-8.7861120">
        <ele>19.0</ele>
        <time>2019-08-16T06:41:56Z</time>
      </trkpt>
      <trkpt lat="41.5557540" lon="-8.7859720">
        <ele>19.0</ele>
        <time>2019-08-16T06:41:59Z</time>
      </trkpt>
      <trkpt lat="41.5557930" lon="-8.7858000">
        <ele>19.0</ele>
        <time>2019-08-16T06:42:02Z</time>
      </trkpt>
      <trkpt lat="41.5558240" lon="-8.7854490">
        <ele>19.0</ele>
        <time>2019-08-16T06:42:08Z</time>
      </trkpt>
      <trkpt lat="41.5558510" lon="-8.7852740">
        <ele>19.0</ele>
        <time>2019-08-16T06:42:11Z</time>
      </trkpt>
      <trkpt lat="41.5558800" lon="-8.7851600">
        <ele>19.4</ele>
        <time>2019-08-16T06:42:13Z</time>
      </trkpt>
      <trkpt lat="41.5558970" lon="-8.7851070">
        <ele>20.0</ele>
        <time>2019-08-16T06:42:14Z</time>
      </trkpt>
      <trkpt lat="41.5559160" lon="-8.7850560">
        <ele>20.4</ele>
        <time>2019-08-16T06:42:15Z</time>
      </trkpt>
      <trkpt lat="41.5559350" lon="-8.7850020">
        <ele>20.8</ele>
        <time>2019-08-16T06:42:16Z</time>
      </trkpt>
      <trkpt lat="41.5559620" lon="-8.7849470">
        <ele>21.2</ele>
        <time>2019-08-16T06:42:17Z</time>
      </trkpt>
      <trkpt lat="41.5560340" lon="-8.7847310">
        <ele>21.2</ele>
        <time>2019-08-16T06:42:21Z</time>
      </trkpt>
      <trkpt lat="41.5561260" lon="-8.7843760">
        <ele>21.2</ele>
        <time>2019-08-16T06:42:27Z</time>
      </trkpt>
      <trkpt lat="41.5561540" lon="-8.7842750">
        <ele>21.2</ele>
        <time>2019-08-16T06:42:29Z</time>
      </trkpt>
      <trkpt lat="41.5561680" lon="-8.7842180">
        <ele>21.2</ele>
        <time>2019-08-16T06:42:30Z</time>
      </trkpt>
      <trkpt lat="41.5562250" lon="-8.7839420">
        <ele>21.2</ele>
        <time>2019-08-16T06:42:35Z</time>
      </trkpt>
      <trkpt lat="41.5562760" lon="-8.7836810">
        <ele>21.6</ele>
        <time>2019-08-16T06:42:40Z</time>
      </trkpt>
      <trkpt lat="41.5562830" lon="-8.7836320">
        <ele>22.2</ele>
        <time>2019-08-16T06:42:41Z</time>
      </trkpt>
      <trkpt lat="41.5562920" lon="-8.7835870">
        <ele>22.6</ele>
        <time>2019-08-16T06:42:42Z</time>
      </trkpt>
      <trkpt lat="41.5563020" lon="-8.7835390">
        <ele>23.0</ele>
        <time>2019-08-16T06:42:43Z</time>
      </trkpt>
      <trkpt lat="41.5563090" lon="-8.7834940">
        <ele>23.6</ele>
        <time>2019-08-16T06:42:44Z</time>
      </trkpt>
      <trkpt lat="41.5563140" lon="-8.7834550">
        <ele>23.6</ele>
        <time>2019-08-16T06:42:45Z</time>
      </trkpt>
      <trkpt lat="41.5563150" lon="-8.7833190">
        <ele>23.6</ele>
        <time>2019-08-16T06:42:50Z</time>
      </trkpt>
      <trkpt lat="41.5563190" lon="-8.7833210">
        <ele>23.6</ele>
        <time>2019-08-16T06:42:51Z</time>
      </trkpt>
      <trkpt lat="41.5563400" lon="-8.7832570">
        <ele>23.6</ele>
        <time>2019-08-16T06:42:59Z</time>
      </trkpt>
      <trkpt lat="41.5563510" lon="-8.7832270">
        <ele>23.6</ele>
        <time>2019-08-16T06:43:00Z</time>
      </trkpt>
      <trkpt lat="41.5564170" lon="-8.7830210">
        <ele>23.6</ele>
        <time>2019-08-16T06:43:05Z</time>
      </trkpt>
      <trkpt lat="41.5565430" lon="-8.7827140">
        <ele>23.6</ele>
        <time>2019-08-16T06:43:13Z</time>
      </trkpt>
      <trkpt lat="41.5566380" lon="-8.7824800">
        <ele>24.0</ele>
        <time>2019-08-16T06:43:19Z</time>
      </trkpt>
      <trkpt lat="41.5566550" lon="-8.7824350">
        <ele>24.4</ele>
        <time>2019-08-16T06:43:20Z</time>
      </trkpt>
      <trkpt lat="41.5566710" lon="-8.7823910">
        <ele>24.8</ele>
        <time>2019-08-16T06:43:21Z</time>
      </trkpt>
      <trkpt lat="41.5566840" lon="-8.7823510">
        <ele>25.2</ele>
        <time>2019-08-16T06:43:22Z</time>
      </trkpt>
      <trkpt lat="41.5566990" lon="-8.7823090">
        <ele>25.6</ele>
        <time>2019-08-16T06:43:23Z</time>
      </trkpt>
      <trkpt lat="41.5568180" lon="-8.7818630">
        <ele>25.6</ele>
        <time>2019-08-16T06:43:33Z</time>
      </trkpt>
      <trkpt lat="41.5569830" lon="-8.7813480">
        <ele>25.6</ele>
        <time>2019-08-16T06:43:44Z</time>
      </trkpt>
      <trkpt lat="41.5570190" lon="-8.7812580">
        <ele>26.0</ele>
        <time>2019-08-16T06:43:46Z</time>
      </trkpt>
      <trkpt lat="41.5570370" lon="-8.7812140">
        <ele>26.4</ele>
        <time>2019-08-16T06:43:47Z</time>
      </trkpt>
      <trkpt lat="41.5570560" lon="-8.7811700">
        <ele>26.8</ele>
        <time>2019-08-16T06:43:48Z</time>
      </trkpt>
      <trkpt lat="41.5570730" lon="-8.7811270">
        <ele>27.2</ele>
        <time>2019-08-16T06:43:49Z</time>
      </trkpt>
      <trkpt lat="41.5570910" lon="-8.7810850">
        <ele>27.6</ele>
        <time>2019-08-16T06:43:50Z</time>
      </trkpt>
      <trkpt lat="41.5571820" lon="-8.7809740">
        <ele>27.6</ele>
        <time>2019-08-16T06:43:54Z</time>
      </trkpt>
      <trkpt lat="41.5572840" lon="-8.7810720">
        <ele>27.6</ele>
        <time>2019-08-16T06:43:58Z</time>
      </trkpt>
      <trkpt lat="41.5573090" lon="-8.7811090">
        <ele>27.6</ele>
        <time>2019-08-16T06:43:59Z</time>
      </trkpt>
      <trkpt lat="41.5574580" lon="-8.7812720">
        <ele>27.6</ele>
        <time>2019-08-16T06:44:04Z</time>
      </trkpt>
      <trkpt lat="41.5577570" lon="-8.7816080">
        <ele>27.6</ele>
        <time>2019-08-16T06:44:14Z</time>
      </trkpt>
      <trkpt lat="41.5579610" lon="-8.7817700">
        <ele>27.6</ele>
        <time>2019-08-16T06:44:20Z</time>
      </trkpt>
      <trkpt lat="41.5582990" lon="-8.7820210">
        <ele>27.6</ele>
        <time>2019-08-16T06:44:30Z</time>
      </trkpt>
      <trkpt lat="41.5586390" lon="-8.7823070">
        <ele>27.6</ele>
        <time>2019-08-16T06:44:40Z</time>
      </trkpt>
      <trkpt lat="41.5590020" lon="-8.7825470">
        <ele>27.6</ele>
        <time>2019-08-16T06:44:50Z</time>
      </trkpt>
      <trkpt lat="41.5591740" lon="-8.7825560">
        <ele>27.6</ele>
        <time>2019-08-16T06:44:55Z</time>
      </trkpt>
      <trkpt lat="41.5592240" lon="-8.7824150">
        <ele>27.6</ele>
        <time>2019-08-16T06:44:58Z</time>
      </trkpt>
      <trkpt lat="41.5592360" lon="-8.7823590">
        <ele>27.6</ele>
        <time>2019-08-16T06:44:59Z</time>
      </trkpt>
      <trkpt lat="41.5593230" lon="-8.7821520">
        <ele>27.6</ele>
        <time>2019-08-16T06:45:03Z</time>
      </trkpt>
      <trkpt lat="41.5593460" lon="-8.7820980">
        <ele>27.6</ele>
        <time>2019-08-16T06:45:04Z</time>
      </trkpt>
      <trkpt lat="41.5594560" lon="-8.7818100">
        <ele>27.6</ele>
        <time>2019-08-16T06:45:09Z</time>
      </trkpt>
      <trkpt lat="41.5595110" lon="-8.7817150">
        <ele>27.6</ele>
        <time>2019-08-16T06:45:11Z</time>
      </trkpt>
      <trkpt lat="41.5597730" lon="-8.7814170">
        <ele>27.6</ele>
        <time>2019-08-16T06:45:18Z</time>
      </trkpt>
      <trkpt lat="41.5601620" lon="-8.7809800">
        <ele>27.6</ele>
        <time>2019-08-16T06:45:28Z</time>
      </trkpt>
      <trkpt lat="41.5605060" lon="-8.7805700">
        <ele>28.0</ele>
        <time>2019-08-16T06:45:38Z</time>
      </trkpt>
      <trkpt lat="41.5605300" lon="-8.7805290">
        <ele>28.6</ele>
        <time>2019-08-16T06:45:39Z</time>
      </trkpt>
      <trkpt lat="41.5605530" lon="-8.7804900">
        <ele>29.0</ele>
        <time>2019-08-16T06:45:40Z</time>
      </trkpt>
      <trkpt lat="41.5605730" lon="-8.7804510">
        <ele>29.4</ele>
        <time>2019-08-16T06:45:41Z</time>
      </trkpt>
      <trkpt lat="41.5605890" lon="-8.7804190">
        <ele>29.8</ele>
        <time>2019-08-16T06:45:42Z</time>
      </trkpt>
      <trkpt lat="41.5606080" lon="-8.7803880">
        <ele>29.8</ele>
        <time>2019-08-16T06:45:43Z</time>
      </trkpt>
      <trkpt lat="41.5606230" lon="-8.7803590">
        <ele>30.2</ele>
        <time>2019-08-16T06:45:44Z</time>
      </trkpt>
      <trkpt lat="41.5606400" lon="-8.7803230">
        <ele>30.8</ele>
        <time>2019-08-16T06:45:45Z</time>
      </trkpt>
      <trkpt lat="41.5606540" lon="-8.7802910">
        <ele>31.2</ele>
        <time>2019-08-16T06:45:46Z</time>
      </trkpt>
      <trkpt lat="41.5606680" lon="-8.7802580">
        <ele>31.6</ele>
        <time>2019-08-16T06:45:47Z</time>
      </trkpt>
      <trkpt lat="41.5606810" lon="-8.7802240">
        <ele>32.0</ele>
        <time>2019-08-16T06:45:48Z</time>
      </trkpt>
      <trkpt lat="41.5607140" lon="-8.7801640">
        <ele>32.4</ele>
        <time>2019-08-16T06:45:50Z</time>
      </trkpt>
      <trkpt lat="41.5607320" lon="-8.7801320">
        <ele>32.8</ele>
        <time>2019-08-16T06:45:51Z</time>
      </trkpt>
      <trkpt lat="41.5607510" lon="-8.7801010">
        <ele>33.2</ele>
        <time>2019-08-16T06:45:52Z</time>
      </trkpt>
      <trkpt lat="41.5607820" lon="-8.7800400">
        <ele>33.6</ele>
        <time>2019-08-16T06:45:54Z</time>
      </trkpt>
      <trkpt lat="41.5608000" lon="-8.7800110">
        <ele>34.0</ele>
        <time>2019-08-16T06:45:55Z</time>
      </trkpt>
      <trkpt lat="41.5608550" lon="-8.7799230">
        <ele>34.6</ele>
        <time>2019-08-16T06:45:58Z</time>
      </trkpt>
      <trkpt lat="41.5608650" lon="-8.7798920">
        <ele>35.0</ele>
        <time>2019-08-16T06:45:59Z</time>
      </trkpt>
      <trkpt lat="41.5608770" lon="-8.7798600">
        <ele>35.4</ele>
        <time>2019-08-16T06:46:00Z</time>
      </trkpt>
      <trkpt lat="41.5608910" lon="-8.7798330">
        <ele>35.8</ele>
        <time>2019-08-16T06:46:01Z</time>
      </trkpt>
      <trkpt lat="41.5609080" lon="-8.7798090">
        <ele>36.2</ele>
        <time>2019-08-16T06:46:02Z</time>
      </trkpt>
      <trkpt lat="41.5609540" lon="-8.7797220">
        <ele>36.6</ele>
        <time>2019-08-16T06:46:05Z</time>
      </trkpt>
      <trkpt lat="41.5609650" lon="-8.7796950">
        <ele>37.0</ele>
        <time>2019-08-16T06:46:06Z</time>
      </trkpt>
      <trkpt lat="41.5609830" lon="-8.7796590">
        <ele>37.4</ele>
        <time>2019-08-16T06:46:07Z</time>
      </trkpt>
      <trkpt lat="41.5609980" lon="-8.7796280">
        <ele>37.8</ele>
        <time>2019-08-16T06:46:08Z</time>
      </trkpt>
      <trkpt lat="41.5610140" lon="-8.7796010">
        <ele>38.2</ele>
        <time>2019-08-16T06:46:09Z</time>
      </trkpt>
      <trkpt lat="41.5610620" lon="-8.7795210">
        <ele>38.8</ele>
        <time>2019-08-16T06:46:12Z</time>
      </trkpt>
      <trkpt lat="41.5610830" lon="-8.7794940">
        <ele>39.2</ele>
        <time>2019-08-16T06:46:13Z</time>
      </trkpt>
      <trkpt lat="41.5611020" lon="-8.7794670">
        <ele>39.6</ele>
        <time>2019-08-16T06:46:14Z</time>
      </trkpt>
      <trkpt lat="41.5611170" lon="-8.7794370">
        <ele>40.0</ele>
        <time>2019-08-16T06:46:15Z</time>
      </trkpt>
      <trkpt lat="41.5611290" lon="-8.7794050">
        <ele>40.4</ele>
        <time>2019-08-16T06:46:16Z</time>
      </trkpt>
      <trkpt lat="41.5611440" lon="-8.7793720">
        <ele>40.4</ele>
        <time>2019-08-16T06:46:17Z</time>
      </trkpt>
      <trkpt lat="41.5612540" lon="-8.7791620">
        <ele>40.8</ele>
        <time>2019-08-16T06:46:24Z</time>
      </trkpt>
      <trkpt lat="41.5612700" lon="-8.7791330">
        <ele>41.2</ele>
        <time>2019-08-16T06:46:25Z</time>
      </trkpt>
      <trkpt lat="41.5612870" lon="-8.7790970">
        <ele>41.8</ele>
        <time>2019-08-16T06:46:26Z</time>
      </trkpt>
      <trkpt lat="41.5613020" lon="-8.7790640">
        <ele>42.2</ele>
        <time>2019-08-16T06:46:27Z</time>
      </trkpt>
      <trkpt lat="41.5613110" lon="-8.7790340">
        <ele>42.6</ele>
        <time>2019-08-16T06:46:28Z</time>
      </trkpt>
      <trkpt lat="41.5613530" lon="-8.7789060">
        <ele>42.6</ele>
        <time>2019-08-16T06:46:32Z</time>
      </trkpt>
      <trkpt lat="41.5614710" lon="-8.7787080">
        <ele>42.6</ele>
        <time>2019-08-16T06:46:39Z</time>
      </trkpt>
      <trkpt lat="41.5615250" lon="-8.7786630">
        <ele>42.6</ele>
        <time>2019-08-16T06:46:42Z</time>
      </trkpt>
      <trkpt lat="41.5615440" lon="-8.7786640">
        <ele>42.6</ele>
        <time>2019-08-16T06:46:43Z</time>
      </trkpt>
      <trkpt lat="41.5615620" lon="-8.7786690">
        <ele>43.0</ele>
        <time>2019-08-16T06:46:44Z</time>
      </trkpt>
      <trkpt lat="41.5615850" lon="-8.7786750">
        <ele>43.4</ele>
        <time>2019-08-16T06:46:45Z</time>
      </trkpt>
      <trkpt lat="41.5616120" lon="-8.7786810">
        <ele>43.8</ele>
        <time>2019-08-16T06:46:46Z</time>
      </trkpt>
      <trkpt lat="41.5616340" lon="-8.7786860">
        <ele>44.2</ele>
        <time>2019-08-16T06:46:47Z</time>
      </trkpt>
      <trkpt lat="41.5616560" lon="-8.7786930">
        <ele>44.6</ele>
        <time>2019-08-16T06:46:48Z</time>
      </trkpt>
      <trkpt lat="41.5618120" lon="-8.7787660">
        <ele>44.6</ele>
        <time>2019-08-16T06:46:56Z</time>
      </trkpt>
      <trkpt lat="41.5619620" lon="-8.7788110">
        <ele>44.6</ele>
        <time>2019-08-16T06:47:02Z</time>
      </trkpt>
      <trkpt lat="41.5621950" lon="-8.7789290">
        <ele>44.6</ele>
        <time>2019-08-16T06:47:10Z</time>
      </trkpt>
      <trkpt lat="41.5625650" lon="-8.7790550">
        <ele>44.6</ele>
        <time>2019-08-16T06:47:21Z</time>
      </trkpt>
      <trkpt lat="41.5627620" lon="-8.7791320">
        <ele>44.6</ele>
        <time>2019-08-16T06:47:27Z</time>
      </trkpt>
      <trkpt lat="41.5630110" lon="-8.7792550">
        <ele>44.6</ele>
        <time>2019-08-16T06:47:35Z</time>
      </trkpt>
      <trkpt lat="41.5632220" lon="-8.7793910">
        <ele>44.6</ele>
        <time>2019-08-16T06:47:42Z</time>
      </trkpt>
      <trkpt lat="41.5634060" lon="-8.7795880">
        <ele>44.6</ele>
        <time>2019-08-16T06:47:48Z</time>
      </trkpt>
      <trkpt lat="41.5636320" lon="-8.7797890">
        <ele>44.6</ele>
        <time>2019-08-16T06:47:56Z</time>
      </trkpt>
      <trkpt lat="41.5638610" lon="-8.7799670">
        <ele>44.6</ele>
        <time>2019-08-16T06:48:03Z</time>
      </trkpt>
      <trkpt lat="41.5640520" lon="-8.7800410">
        <ele>44.6</ele>
        <time>2019-08-16T06:48:09Z</time>
      </trkpt>
      <trkpt lat="41.5642590" lon="-8.7800670">
        <ele>45.0</ele>
        <time>2019-08-16T06:48:15Z</time>
      </trkpt>
      <trkpt lat="41.5642950" lon="-8.7800690">
        <ele>45.4</ele>
        <time>2019-08-16T06:48:16Z</time>
      </trkpt>
      <trkpt lat="41.5643320" lon="-8.7800720">
        <ele>45.8</ele>
        <time>2019-08-16T06:48:17Z</time>
      </trkpt>
      <trkpt lat="41.5643640" lon="-8.7800810">
        <ele>46.2</ele>
        <time>2019-08-16T06:48:18Z</time>
      </trkpt>
      <trkpt lat="41.5643990" lon="-8.7800880">
        <ele>46.6</ele>
        <time>2019-08-16T06:48:19Z</time>
      </trkpt>
      <trkpt lat="41.5645860" lon="-8.7801590">
        <ele>46.6</ele>
        <time>2019-08-16T06:48:25Z</time>
      </trkpt>
      <trkpt lat="41.5647340" lon="-8.7801550">
        <ele>46.6</ele>
        <time>2019-08-16T06:48:30Z</time>
      </trkpt>
      <trkpt lat="41.5647640" lon="-8.7801460">
        <ele>47.2</ele>
        <time>2019-08-16T06:48:31Z</time>
      </trkpt>
      <trkpt lat="41.5647930" lon="-8.7801390">
        <ele>47.6</ele>
        <time>2019-08-16T06:48:32Z</time>
      </trkpt>
      <trkpt lat="41.5648210" lon="-8.7801360">
        <ele>48.0</ele>
        <time>2019-08-16T06:48:33Z</time>
      </trkpt>
      <trkpt lat="41.5648500" lon="-8.7801340">
        <ele>48.4</ele>
        <time>2019-08-16T06:48:34Z</time>
      </trkpt>
      <trkpt lat="41.5648780" lon="-8.7801300">
        <ele>48.8</ele>
        <time>2019-08-16T06:48:35Z</time>
      </trkpt>
      <trkpt lat="41.5650440" lon="-8.7800990">
        <ele>48.8</ele>
        <time>2019-08-16T06:48:40Z</time>
      </trkpt>
      <trkpt lat="41.5652730" lon="-8.7801250">
        <ele>48.8</ele>
        <time>2019-08-16T06:48:46Z</time>
      </trkpt>
      <trkpt lat="41.5655690" lon="-8.7801060">
        <ele>48.8</ele>
        <time>2019-08-16T06:48:54Z</time>
      </trkpt>
      <trkpt lat="41.5657940" lon="-8.7800980">
        <ele>48.8</ele>
        <time>2019-08-16T06:49:00Z</time>
      </trkpt>
      <trkpt lat="41.5661090" lon="-8.7800900">
        <ele>48.8</ele>
        <time>2019-08-16T06:49:08Z</time>
      </trkpt>
      <trkpt lat="41.5664040" lon="-8.7800360">
        <ele>48.8</ele>
        <time>2019-08-16T06:49:15Z</time>
      </trkpt>
      <trkpt lat="41.5666790" lon="-8.7800130">
        <ele>48.8</ele>
        <time>2019-08-16T06:49:22Z</time>
      </trkpt>
      <trkpt lat="41.5668090" lon="-8.7799660">
        <ele>48.8</ele>
        <time>2019-08-16T06:49:25Z</time>
      </trkpt>
      <trkpt lat="41.5669040" lon="-8.7799110">
        <ele>48.8</ele>
        <time>2019-08-16T06:49:27Z</time>
      </trkpt>
      <trkpt lat="41.5671000" lon="-8.7797970">
        <ele>48.8</ele>
        <time>2019-08-16T06:49:31Z</time>
      </trkpt>
      <trkpt lat="41.5672040" lon="-8.7797890">
        <ele>48.8</ele>
        <time>2019-08-16T06:49:33Z</time>
      </trkpt>
      <trkpt lat="41.5673110" lon="-8.7797970">
        <ele>48.8</ele>
        <time>2019-08-16T06:49:35Z</time>
      </trkpt>
      <trkpt lat="41.5675000" lon="-8.7797920">
        <ele>48.8</ele>
        <time>2019-08-16T06:49:39Z</time>
      </trkpt>
      <trkpt lat="41.5675830" lon="-8.7797980">
        <ele>48.8</ele>
        <time>2019-08-16T06:49:41Z</time>
      </trkpt>
      <trkpt lat="41.5678020" lon="-8.7798360">
        <ele>48.8</ele>
        <time>2019-08-16T06:49:46Z</time>
      </trkpt>
      <trkpt lat="41.5681760" lon="-8.7799140">
        <ele>48.8</ele>
        <time>2019-08-16T06:49:56Z</time>
      </trkpt>
      <trkpt lat="41.5682870" lon="-8.7799330">
        <ele>49.2</ele>
        <time>2019-08-16T06:49:59Z</time>
      </trkpt>
      <trkpt lat="41.5683230" lon="-8.7799440">
        <ele>49.6</ele>
        <time>2019-08-16T06:50:00Z</time>
      </trkpt>
      <trkpt lat="41.5683620" lon="-8.7799570">
        <ele>50.0</ele>
        <time>2019-08-16T06:50:01Z</time>
      </trkpt>
      <trkpt lat="41.5684000" lon="-8.7799670">
        <ele>50.4</ele>
        <time>2019-08-16T06:50:02Z</time>
      </trkpt>
      <trkpt lat="41.5684390" lon="-8.7799730">
        <ele>50.8</ele>
        <time>2019-08-16T06:50:03Z</time>
      </trkpt>
      <trkpt lat="41.5685500" lon="-8.7799940">
        <ele>50.8</ele>
        <time>2019-08-16T06:50:06Z</time>
      </trkpt>
      <trkpt lat="41.5688380" lon="-8.7800620">
        <ele>50.8</ele>
        <time>2019-08-16T06:50:14Z</time>
      </trkpt>
      <trkpt lat="41.5691020" lon="-8.7801700">
        <ele>50.8</ele>
        <time>2019-08-16T06:50:21Z</time>
      </trkpt>
      <trkpt lat="41.5693380" lon="-8.7802010">
        <ele>51.4</ele>
        <time>2019-08-16T06:50:27Z</time>
      </trkpt>
      <trkpt lat="41.5693780" lon="-8.7802070">
        <ele>51.8</ele>
        <time>2019-08-16T06:50:28Z</time>
      </trkpt>
      <trkpt lat="41.5694140" lon="-8.7802120">
        <ele>52.2</ele>
        <time>2019-08-16T06:50:29Z</time>
      </trkpt>
      <trkpt lat="41.5694480" lon="-8.7802170">
        <ele>52.6</ele>
        <time>2019-08-16T06:50:30Z</time>
      </trkpt>
      <trkpt lat="41.5694860" lon="-8.7802270">
        <ele>53.0</ele>
        <time>2019-08-16T06:50:31Z</time>
      </trkpt>
      <trkpt lat="41.5696360" lon="-8.7802370">
        <ele>53.0</ele>
        <time>2019-08-16T06:50:35Z</time>
      </trkpt>
      <trkpt lat="41.5698710" lon="-8.7802700">
        <ele>53.0</ele>
        <time>2019-08-16T06:50:42Z</time>
      </trkpt>
      <trkpt lat="41.5702300" lon="-8.7803070">
        <ele>53.0</ele>
        <time>2019-08-16T06:50:50Z</time>
      </trkpt>
      <trkpt lat="41.5705680" lon="-8.7803730">
        <ele>53.0</ele>
        <time>2019-08-16T06:50:58Z</time>
      </trkpt>
      <trkpt lat="41.5707640" lon="-8.7804330">
        <ele>53.0</ele>
        <time>2019-08-16T06:51:03Z</time>
      </trkpt>
      <trkpt lat="41.5708100" lon="-8.7804320">
        <ele>52.6</ele>
        <time>2019-08-16T06:51:04Z</time>
      </trkpt>
      <trkpt lat="41.5708640" lon="-8.7804270">
        <ele>52.2</ele>
        <time>2019-08-16T06:51:05Z</time>
      </trkpt>
      <trkpt lat="41.5709150" lon="-8.7804220">
        <ele>51.8</ele>
        <time>2019-08-16T06:51:06Z</time>
      </trkpt>
      <trkpt lat="41.5709630" lon="-8.7804220">
        <ele>51.4</ele>
        <time>2019-08-16T06:51:07Z</time>
      </trkpt>
      <trkpt lat="41.5710080" lon="-8.7804260">
        <ele>51.0</ele>
        <time>2019-08-16T06:51:08Z</time>
      </trkpt>
      <trkpt lat="41.5711460" lon="-8.7804390">
        <ele>51.0</ele>
        <time>2019-08-16T06:51:11Z</time>
      </trkpt>
      <trkpt lat="41.5714230" lon="-8.7805380">
        <ele>51.0</ele>
        <time>2019-08-16T06:51:18Z</time>
      </trkpt>
      <trkpt lat="41.5715980" lon="-8.7806630">
        <ele>51.4</ele>
        <time>2019-08-16T06:51:24Z</time>
      </trkpt>
      <trkpt lat="41.5716260" lon="-8.7806880">
        <ele>51.8</ele>
        <time>2019-08-16T06:51:25Z</time>
      </trkpt>
      <trkpt lat="41.5716530" lon="-8.7807130">
        <ele>52.2</ele>
        <time>2019-08-16T06:51:26Z</time>
      </trkpt>
      <trkpt lat="41.5716810" lon="-8.7807380">
        <ele>52.6</ele>
        <time>2019-08-16T06:51:27Z</time>
      </trkpt>
      <trkpt lat="41.5717050" lon="-8.7807630">
        <ele>53.0</ele>
        <time>2019-08-16T06:51:28Z</time>
      </trkpt>
      <trkpt lat="41.5718090" lon="-8.7808340">
        <ele>53.0</ele>
        <time>2019-08-16T06:51:32Z</time>
      </trkpt>
      <trkpt lat="41.5718350" lon="-8.7808570">
        <ele>53.6</ele>
        <time>2019-08-16T06:51:33Z</time>
      </trkpt>
      <trkpt lat="41.5718620" lon="-8.7808760">
        <ele>54.0</ele>
        <time>2019-08-16T06:51:34Z</time>
      </trkpt>
      <trkpt lat="41.5718890" lon="-8.7808960">
        <ele>54.4</ele>
        <time>2019-08-16T06:51:35Z</time>
      </trkpt>
      <trkpt lat="41.5719150" lon="-8.7809190">
        <ele>55.0</ele>
        <time>2019-08-16T06:51:36Z</time>
      </trkpt>
      <trkpt lat="41.5719390" lon="-8.7809420">
        <ele>55.4</ele>
        <time>2019-08-16T06:51:37Z</time>
      </trkpt>
      <trkpt lat="41.5719920" lon="-8.7810030">
        <ele>55.4</ele>
        <time>2019-08-16T06:51:39Z</time>
      </trkpt>
      <trkpt lat="41.5721200" lon="-8.7811500">
        <ele>55.8</ele>
        <time>2019-08-16T06:51:44Z</time>
      </trkpt>
      <trkpt lat="41.5721430" lon="-8.7811780">
        <ele>56.4</ele>
        <time>2019-08-16T06:51:45Z</time>
      </trkpt>
      <trkpt lat="41.5721670" lon="-8.7812080">
        <ele>56.8</ele>
        <time>2019-08-16T06:51:46Z</time>
      </trkpt>
      <trkpt lat="41.5721920" lon="-8.7812390">
        <ele>57.2</ele>
        <time>2019-08-16T06:51:47Z</time>
      </trkpt>
      <trkpt lat="41.5722140" lon="-8.7812660">
        <ele>57.6</ele>
        <time>2019-08-16T06:51:48Z</time>
      </trkpt>
      <trkpt lat="41.5724270" lon="-8.7814370">
        <ele>58.0</ele>
        <time>2019-08-16T06:51:56Z</time>
      </trkpt>
      <trkpt lat="41.5724590" lon="-8.7814500">
        <ele>58.4</ele>
        <time>2019-08-16T06:51:57Z</time>
      </trkpt>
      <trkpt lat="41.5724880" lon="-8.7814640">
        <ele>59.0</ele>
        <time>2019-08-16T06:51:58Z</time>
      </trkpt>
      <trkpt lat="41.5725200" lon="-8.7814760">
        <ele>59.4</ele>
        <time>2019-08-16T06:51:59Z</time>
      </trkpt>
      <trkpt lat="41.5725510" lon="-8.7814890">
        <ele>59.8</ele>
        <time>2019-08-16T06:52:00Z</time>
      </trkpt>
      <trkpt lat="41.5726430" lon="-8.7815140">
        <ele>59.8</ele>
        <time>2019-08-16T06:52:03Z</time>
      </trkpt>
      <trkpt lat="41.5729330" lon="-8.7816310">
        <ele>60.2</ele>
        <time>2019-08-16T06:52:12Z</time>
      </trkpt>
      <trkpt lat="41.5729640" lon="-8.7816430">
        <ele>60.6</ele>
        <time>2019-08-16T06:52:13Z</time>
      </trkpt>
      <trkpt lat="41.5729930" lon="-8.7816560">
        <ele>61.0</ele>
        <time>2019-08-16T06:52:14Z</time>
      </trkpt>
      <trkpt lat="41.5730220" lon="-8.7816700">
        <ele>61.4</ele>
        <time>2019-08-16T06:52:15Z</time>
      </trkpt>
      <trkpt lat="41.5730500" lon="-8.7816870">
        <ele>61.8</ele>
        <time>2019-08-16T06:52:16Z</time>
      </trkpt>
      <trkpt lat="41.5731360" lon="-8.7817550">
        <ele>61.8</ele>
        <time>2019-08-16T06:52:19Z</time>
      </trkpt>
      <trkpt lat="41.5733320" lon="-8.7819480">
        <ele>61.8</ele>
        <time>2019-08-16T06:52:26Z</time>
      </trkpt>
      <trkpt lat="41.5736330" lon="-8.7822160">
        <ele>61.8</ele>
        <time>2019-08-16T06:52:35Z</time>
      </trkpt>
      <trkpt lat="41.5737290" lon="-8.7822440">
        <ele>61.8</ele>
        <time>2019-08-16T06:52:37Z</time>
      </trkpt>
      <trkpt lat="41.5738160" lon="-8.7822730">
        <ele>61.8</ele>
        <time>2019-08-16T06:52:39Z</time>
      </trkpt>
      <trkpt lat="41.5741810" lon="-8.7824040">
        <ele>61.8</ele>
        <time>2019-08-16T06:52:48Z</time>
      </trkpt>
      <trkpt lat="41.5744390" lon="-8.7825320">
        <ele>61.8</ele>
        <time>2019-08-16T06:52:55Z</time>
      </trkpt>
      <trkpt lat="41.5747920" lon="-8.7827440">
        <ele>61.8</ele>
        <time>2019-08-16T06:53:04Z</time>
      </trkpt>
      <trkpt lat="41.5749870" lon="-8.7828450">
        <ele>61.8</ele>
        <time>2019-08-16T06:53:09Z</time>
      </trkpt>
      <trkpt lat="41.5750720" lon="-8.7828630">
        <ele>61.8</ele>
        <time>2019-08-16T06:53:11Z</time>
      </trkpt>
      <trkpt lat="41.5754010" lon="-8.7829200">
        <ele>61.8</ele>
        <time>2019-08-16T06:53:19Z</time>
      </trkpt>
      <trkpt lat="41.5754750" lon="-8.7829230">
        <ele>61.4</ele>
        <time>2019-08-16T06:53:21Z</time>
      </trkpt>
      <trkpt lat="41.5755140" lon="-8.7829310">
        <ele>61.0</ele>
        <time>2019-08-16T06:53:22Z</time>
      </trkpt>
      <trkpt lat="41.5755570" lon="-8.7829430">
        <ele>60.6</ele>
        <time>2019-08-16T06:53:23Z</time>
      </trkpt>
      <trkpt lat="41.5756010" lon="-8.7829550">
        <ele>60.0</ele>
        <time>2019-08-16T06:53:24Z</time>
      </trkpt>
      <trkpt lat="41.5756450" lon="-8.7829670">
        <ele>59.6</ele>
        <time>2019-08-16T06:53:25Z</time>
      </trkpt>
      <trkpt lat="41.5757770" lon="-8.7830040">
        <ele>59.6</ele>
        <time>2019-08-16T06:53:28Z</time>
      </trkpt>
      <trkpt lat="41.5758220" lon="-8.7830150">
        <ele>59.6</ele>
        <time>2019-08-16T06:53:29Z</time>
      </trkpt>
      <trkpt lat="41.5761510" lon="-8.7831350">
        <ele>59.6</ele>
        <time>2019-08-16T06:53:37Z</time>
      </trkpt>
      <trkpt lat="41.5765260" lon="-8.7832420">
        <ele>59.6</ele>
        <time>2019-08-16T06:53:46Z</time>
      </trkpt>
      <trkpt lat="41.5768480" lon="-8.7833480">
        <ele>59.6</ele>
        <time>2019-08-16T06:53:54Z</time>
      </trkpt>
      <trkpt lat="41.5772820" lon="-8.7834900">
        <ele>59.6</ele>
        <time>2019-08-16T06:54:04Z</time>
      </trkpt>
      <trkpt lat="41.5774400" lon="-8.7835870">
        <ele>59.6</ele>
        <time>2019-08-16T06:54:08Z</time>
      </trkpt>
      <trkpt lat="41.5775020" lon="-8.7836890">
        <ele>59.6</ele>
        <time>2019-08-16T06:54:10Z</time>
      </trkpt>
      <trkpt lat="41.5775380" lon="-8.7838790">
        <ele>59.2</ele>
        <time>2019-08-16T06:54:13Z</time>
      </trkpt>
      <trkpt lat="41.5775250" lon="-8.7839480">
        <ele>58.8</ele>
        <time>2019-08-16T06:54:14Z</time>
      </trkpt>
      <trkpt lat="41.5775090" lon="-8.7840170">
        <ele>58.4</ele>
        <time>2019-08-16T06:54:15Z</time>
      </trkpt>
      <trkpt lat="41.5774960" lon="-8.7840970">
        <ele>58.0</ele>
        <time>2019-08-16T06:54:16Z</time>
      </trkpt>
      <trkpt lat="41.5774950" lon="-8.7841840">
        <ele>57.6</ele>
        <time>2019-08-16T06:54:17Z</time>
      </trkpt>
      <trkpt lat="41.5775050" lon="-8.7842640">
        <ele>57.0</ele>
        <time>2019-08-16T06:54:18Z</time>
      </trkpt>
      <trkpt lat="41.5775250" lon="-8.7843460">
        <ele>56.6</ele>
        <time>2019-08-16T06:54:19Z</time>
      </trkpt>
      <trkpt lat="41.5775560" lon="-8.7844180">
        <ele>56.0</ele>
        <time>2019-08-16T06:54:20Z</time>
      </trkpt>
      <trkpt lat="41.5775960" lon="-8.7844880">
        <ele>55.4</ele>
        <time>2019-08-16T06:54:21Z</time>
      </trkpt>
      <trkpt lat="41.5776800" lon="-8.7845230">
        <ele>55.4</ele>
        <time>2019-08-16T06:54:22Z</time>
      </trkpt>
      <trkpt lat="41.5777730" lon="-8.7846070">
        <ele>55.0</ele>
        <time>2019-08-16T06:54:24Z</time>
      </trkpt>
      <trkpt lat="41.5778190" lon="-8.7846450">
        <ele>54.6</ele>
        <time>2019-08-16T06:54:25Z</time>
      </trkpt>
      <trkpt lat="41.5778700" lon="-8.7846860">
        <ele>54.2</ele>
        <time>2019-08-16T06:54:26Z</time>
      </trkpt>
      <trkpt lat="41.5779230" lon="-8.7847230">
        <ele>53.8</ele>
        <time>2019-08-16T06:54:27Z</time>
      </trkpt>
      <trkpt lat="41.5779750" lon="-8.7847590">
        <ele>53.4</ele>
        <time>2019-08-16T06:54:28Z</time>
      </trkpt>
      <trkpt lat="41.5780260" lon="-8.7847980">
        <ele>53.4</ele>
        <time>2019-08-16T06:54:29Z</time>
      </trkpt>
      <trkpt lat="41.5784120" lon="-8.7850760">
        <ele>53.4</ele>
        <time>2019-08-16T06:54:37Z</time>
      </trkpt>
      <trkpt lat="41.5786670" lon="-8.7851390">
        <ele>53.4</ele>
        <time>2019-08-16T06:54:43Z</time>
      </trkpt>
      <trkpt lat="41.5790490" lon="-8.7851990">
        <ele>53.4</ele>
        <time>2019-08-16T06:54:51Z</time>
      </trkpt>
      <trkpt lat="41.5793850" lon="-8.7852860">
        <ele>53.4</ele>
        <time>2019-08-16T06:54:58Z</time>
      </trkpt>
      <trkpt lat="41.5797520" lon="-8.7853870">
        <ele>53.4</ele>
        <time>2019-08-16T06:55:06Z</time>
      </trkpt>
      <trkpt lat="41.5801100" lon="-8.7855250">
        <ele>53.4</ele>
        <time>2019-08-16T06:55:14Z</time>
      </trkpt>
      <trkpt lat="41.5802880" lon="-8.7855930">
        <ele>53.0</ele>
        <time>2019-08-16T06:55:18Z</time>
      </trkpt>
      <trkpt lat="41.5803780" lon="-8.7856000">
        <ele>52.2</ele>
        <time>2019-08-16T06:55:20Z</time>
      </trkpt>
      <trkpt lat="41.5804200" lon="-8.7855940">
        <ele>51.6</ele>
        <time>2019-08-16T06:55:21Z</time>
      </trkpt>
      <trkpt lat="41.5804630" lon="-8.7855820">
        <ele>51.2</ele>
        <time>2019-08-16T06:55:22Z</time>
      </trkpt>
      <trkpt lat="41.5806250" lon="-8.7854900">
        <ele>51.2</ele>
        <time>2019-08-16T06:55:26Z</time>
      </trkpt>
      <trkpt lat="41.5806650" lon="-8.7854690">
        <ele>50.8</ele>
        <time>2019-08-16T06:55:27Z</time>
      </trkpt>
      <trkpt lat="41.5807090" lon="-8.7854420">
        <ele>50.4</ele>
        <time>2019-08-16T06:55:28Z</time>
      </trkpt>
      <trkpt lat="41.5807560" lon="-8.7854240">
        <ele>50.0</ele>
        <time>2019-08-16T06:55:29Z</time>
      </trkpt>
      <trkpt lat="41.5808030" lon="-8.7854020">
        <ele>49.6</ele>
        <time>2019-08-16T06:55:30Z</time>
      </trkpt>
      <trkpt lat="41.5808490" lon="-8.7853820">
        <ele>49.2</ele>
        <time>2019-08-16T06:55:31Z</time>
      </trkpt>
      <trkpt lat="41.5809010" lon="-8.7853730">
        <ele>48.8</ele>
        <time>2019-08-16T06:55:32Z</time>
      </trkpt>
      <trkpt lat="41.5809580" lon="-8.7853800">
        <ele>48.2</ele>
        <time>2019-08-16T06:55:33Z</time>
      </trkpt>
      <trkpt lat="41.5810120" lon="-8.7854060">
        <ele>47.8</ele>
        <time>2019-08-16T06:55:34Z</time>
      </trkpt>
      <trkpt lat="41.5810650" lon="-8.7854440">
        <ele>47.2</ele>
        <time>2019-08-16T06:55:35Z</time>
      </trkpt>
      <trkpt lat="41.5811080" lon="-8.7854820">
        <ele>46.8</ele>
        <time>2019-08-16T06:55:36Z</time>
      </trkpt>
      <trkpt lat="41.5811510" lon="-8.7855230">
        <ele>46.8</ele>
        <time>2019-08-16T06:55:37Z</time>
      </trkpt>
      <trkpt lat="41.5814430" lon="-8.7857050">
        <ele>46.8</ele>
        <time>2019-08-16T06:55:43Z</time>
      </trkpt>
      <trkpt lat="41.5819600" lon="-8.7859840">
        <ele>46.8</ele>
        <time>2019-08-16T06:55:53Z</time>
      </trkpt>
      <trkpt lat="41.5820710" lon="-8.7860240">
        <ele>46.8</ele>
        <time>2019-08-16T06:55:55Z</time>
      </trkpt>
      <trkpt lat="41.5822320" lon="-8.7860770">
        <ele>46.8</ele>
        <time>2019-08-16T06:55:58Z</time>
      </trkpt>
      <trkpt lat="41.5823280" lon="-8.7861300">
        <ele>46.8</ele>
        <time>2019-08-16T06:56:00Z</time>
      </trkpt>
      <trkpt lat="41.5824210" lon="-8.7862000">
        <ele>46.8</ele>
        <time>2019-08-16T06:56:02Z</time>
      </trkpt>
      <trkpt lat="41.5824600" lon="-8.7862500">
        <ele>46.8</ele>
        <time>2019-08-16T06:56:03Z</time>
      </trkpt>
      <trkpt lat="41.5825550" lon="-8.7864280">
        <ele>46.8</ele>
        <time>2019-08-16T06:56:06Z</time>
      </trkpt>
      <trkpt lat="41.5826110" lon="-8.7865390">
        <ele>46.8</ele>
        <time>2019-08-16T06:56:08Z</time>
      </trkpt>
      <trkpt lat="41.5827060" lon="-8.7867490">
        <ele>46.8</ele>
        <time>2019-08-16T06:56:12Z</time>
      </trkpt>
      <trkpt lat="41.5827450" lon="-8.7868940">
        <ele>46.8</ele>
        <time>2019-08-16T06:56:15Z</time>
      </trkpt>
      <trkpt lat="41.5828520" lon="-8.7870120">
        <ele>46.8</ele>
        <time>2019-08-16T06:56:20Z</time>
      </trkpt>
      <trkpt lat="41.5828880" lon="-8.7870070">
        <ele>46.8</ele>
        <time>2019-08-16T06:56:21Z</time>
      </trkpt>
      <trkpt lat="41.5829600" lon="-8.7869650">
        <ele>46.8</ele>
        <time>2019-08-16T06:56:23Z</time>
      </trkpt>
      <trkpt lat="41.5830170" lon="-8.7869130">
        <ele>47.2</ele>
        <time>2019-08-16T06:56:25Z</time>
      </trkpt>
      <trkpt lat="41.5830430" lon="-8.7868920">
        <ele>47.6</ele>
        <time>2019-08-16T06:56:26Z</time>
      </trkpt>
      <trkpt lat="41.5830680" lon="-8.7868740">
        <ele>48.0</ele>
        <time>2019-08-16T06:56:27Z</time>
      </trkpt>
      <trkpt lat="41.5830970" lon="-8.7868450">
        <ele>48.6</ele>
        <time>2019-08-16T06:56:28Z</time>
      </trkpt>
      <trkpt lat="41.5831240" lon="-8.7868160">
        <ele>49.0</ele>
        <time>2019-08-16T06:56:29Z</time>
      </trkpt>
      <trkpt lat="41.5833120" lon="-8.7867070">
        <ele>49.0</ele>
        <time>2019-08-16T06:56:35Z</time>
      </trkpt>
      <trkpt lat="41.5835710" lon="-8.7866030">
        <ele>49.0</ele>
        <time>2019-08-16T06:56:42Z</time>
      </trkpt>
      <trkpt lat="41.5838480" lon="-8.7866070">
        <ele>49.0</ele>
        <time>2019-08-16T06:56:48Z</time>
      </trkpt>
      <trkpt lat="41.5838980" lon="-8.7866030">
        <ele>49.0</ele>
        <time>2019-08-16T06:56:49Z</time>
      </trkpt>
      <trkpt lat="41.5839430" lon="-8.7865890">
        <ele>49.0</ele>
        <time>2019-08-16T06:56:50Z</time>
      </trkpt>
      <trkpt lat="41.5841150" lon="-8.7865030">
        <ele>49.0</ele>
        <time>2019-08-16T06:56:54Z</time>
      </trkpt>
      <trkpt lat="41.5841920" lon="-8.7864480">
        <ele>49.0</ele>
        <time>2019-08-16T06:56:56Z</time>
      </trkpt>
      <trkpt lat="41.5842600" lon="-8.7863460">
        <ele>49.0</ele>
        <time>2019-08-16T06:56:59Z</time>
      </trkpt>
      <trkpt lat="41.5843080" lon="-8.7861900">
        <ele>49.4</ele>
        <time>2019-08-16T06:57:03Z</time>
      </trkpt>
      <trkpt lat="41.5843150" lon="-8.7861490">
        <ele>49.8</ele>
        <time>2019-08-16T06:57:04Z</time>
      </trkpt>
      <trkpt lat="41.5843200" lon="-8.7861130">
        <ele>50.2</ele>
        <time>2019-08-16T06:57:05Z</time>
      </trkpt>
      <trkpt lat="41.5843340" lon="-8.7860810">
        <ele>50.6</ele>
        <time>2019-08-16T06:57:06Z</time>
      </trkpt>
      <trkpt lat="41.5843440" lon="-8.7860470">
        <ele>51.0</ele>
        <time>2019-08-16T06:57:07Z</time>
      </trkpt>
      <trkpt lat="41.5843790" lon="-8.7859310">
        <ele>51.6</ele>
        <time>2019-08-16T06:57:11Z</time>
      </trkpt>
      <trkpt lat="41.5843950" lon="-8.7859020">
        <ele>52.0</ele>
        <time>2019-08-16T06:57:12Z</time>
      </trkpt>
      <trkpt lat="41.5844140" lon="-8.7858770">
        <ele>52.4</ele>
        <time>2019-08-16T06:57:13Z</time>
      </trkpt>
      <trkpt lat="41.5844350" lon="-8.7858530">
        <ele>52.8</ele>
        <time>2019-08-16T06:57:14Z</time>
      </trkpt>
      <trkpt lat="41.5844560" lon="-8.7858320">
        <ele>53.4</ele>
        <time>2019-08-16T06:57:15Z</time>
      </trkpt>
      <trkpt lat="41.5845680" lon="-8.7857410">
        <ele>53.4</ele>
        <time>2019-08-16T06:57:20Z</time>
      </trkpt>
      <trkpt lat="41.5847540" lon="-8.7856010">
        <ele>53.4</ele>
        <time>2019-08-16T06:57:26Z</time>
      </trkpt>
      <trkpt lat="41.5850910" lon="-8.7853760">
        <ele>53.4</ele>
        <time>2019-08-16T06:57:35Z</time>
      </trkpt>
      <trkpt lat="41.5854550" lon="-8.7850550">
        <ele>53.4</ele>
        <time>2019-08-16T06:57:44Z</time>
      </trkpt>
      <trkpt lat="41.5854960" lon="-8.7850090">
        <ele>53.0</ele>
        <time>2019-08-16T06:57:45Z</time>
      </trkpt>
      <trkpt lat="41.5855450" lon="-8.7849710">
        <ele>52.6</ele>
        <time>2019-08-16T06:57:46Z</time>
      </trkpt>
      <trkpt lat="41.5856040" lon="-8.7849170">
        <ele>52.2</ele>
        <time>2019-08-16T06:57:47Z</time>
      </trkpt>
      <trkpt lat="41.5856580" lon="-8.7848650">
        <ele>51.8</ele>
        <time>2019-08-16T06:57:48Z</time>
      </trkpt>
      <trkpt lat="41.5857180" lon="-8.7848180">
        <ele>51.2</ele>
        <time>2019-08-16T06:57:49Z</time>
      </trkpt>
      <trkpt lat="41.5857810" lon="-8.7847800">
        <ele>50.6</ele>
        <time>2019-08-16T06:57:50Z</time>
      </trkpt>
      <trkpt lat="41.5858450" lon="-8.7847480">
        <ele>50.0</ele>
        <time>2019-08-16T06:57:51Z</time>
      </trkpt>
      <trkpt lat="41.5859140" lon="-8.7847120">
        <ele>49.4</ele>
        <time>2019-08-16T06:57:52Z</time>
      </trkpt>
      <trkpt lat="41.5859830" lon="-8.7846870">
        <ele>49.0</ele>
        <time>2019-08-16T06:57:53Z</time>
      </trkpt>
      <trkpt lat="41.5861200" lon="-8.7846270">
        <ele>48.6</ele>
        <time>2019-08-16T06:57:55Z</time>
      </trkpt>
      <trkpt lat="41.5861940" lon="-8.7845950">
        <ele>48.0</ele>
        <time>2019-08-16T06:57:56Z</time>
      </trkpt>
      <trkpt lat="41.5862630" lon="-8.7845600">
        <ele>47.6</ele>
        <time>2019-08-16T06:57:57Z</time>
      </trkpt>
      <trkpt lat="41.5863490" lon="-8.7845310">
        <ele>47.2</ele>
        <time>2019-08-16T06:57:58Z</time>
      </trkpt>
      <trkpt lat="41.5864310" lon="-8.7845000">
        <ele>46.8</ele>
        <time>2019-08-16T06:57:59Z</time>
      </trkpt>
      <trkpt lat="41.5866040" lon="-8.7844630">
        <ele>46.4</ele>
        <time>2019-08-16T06:58:01Z</time>
      </trkpt>
      <trkpt lat="41.5866760" lon="-8.7844400">
        <ele>46.0</ele>
        <time>2019-08-16T06:58:02Z</time>
      </trkpt>
      <trkpt lat="41.5867470" lon="-8.7844160">
        <ele>45.6</ele>
        <time>2019-08-16T06:58:03Z</time>
      </trkpt>
      <trkpt lat="41.5868150" lon="-8.7843940">
        <ele>45.2</ele>
        <time>2019-08-16T06:58:04Z</time>
      </trkpt>
      <trkpt lat="41.5868830" lon="-8.7843710">
        <ele>44.8</ele>
        <time>2019-08-16T06:58:05Z</time>
      </trkpt>
      <trkpt lat="41.5872080" lon="-8.7842840">
        <ele>44.8</ele>
        <time>2019-08-16T06:58:10Z</time>
      </trkpt>
      <trkpt lat="41.5873840" lon="-8.7842280">
        <ele>44.4</ele>
        <time>2019-08-16T06:58:13Z</time>
      </trkpt>
      <trkpt lat="41.5874410" lon="-8.7841980">
        <ele>43.8</ele>
        <time>2019-08-16T06:58:14Z</time>
      </trkpt>
      <trkpt lat="41.5874940" lon="-8.7841600">
        <ele>43.4</ele>
        <time>2019-08-16T06:58:15Z</time>
      </trkpt>
      <trkpt lat="41.5875470" lon="-8.7841230">
        <ele>43.0</ele>
        <time>2019-08-16T06:58:16Z</time>
      </trkpt>
      <trkpt lat="41.5875970" lon="-8.7840850">
        <ele>42.6</ele>
        <time>2019-08-16T06:58:17Z</time>
      </trkpt>
      <trkpt lat="41.5878920" lon="-8.7838940">
        <ele>42.6</ele>
        <time>2019-08-16T06:58:23Z</time>
      </trkpt>
      <trkpt lat="41.5879840" lon="-8.7838470">
        <ele>42.6</ele>
        <time>2019-08-16T06:58:25Z</time>
      </trkpt>
      <trkpt lat="41.5881370" lon="-8.7838260">
        <ele>42.6</ele>
        <time>2019-08-16T06:58:28Z</time>
      </trkpt>
      <trkpt lat="41.5882290" lon="-8.7837980">
        <ele>42.6</ele>
        <time>2019-08-16T06:58:30Z</time>
      </trkpt>
      <trkpt lat="41.5883550" lon="-8.7837170">
        <ele>42.6</ele>
        <time>2019-08-16T06:58:33Z</time>
      </trkpt>
      <trkpt lat="41.5885140" lon="-8.7836360">
        <ele>42.6</ele>
        <time>2019-08-16T06:58:37Z</time>
      </trkpt>
      <trkpt lat="41.5886000" lon="-8.7836270">
        <ele>42.6</ele>
        <time>2019-08-16T06:58:39Z</time>
      </trkpt>
      <trkpt lat="41.5888800" lon="-8.7836470">
        <ele>42.6</ele>
        <time>2019-08-16T06:58:45Z</time>
      </trkpt>
      <trkpt lat="41.5891210" lon="-8.7836600">
        <ele>42.6</ele>
        <time>2019-08-16T06:58:50Z</time>
      </trkpt>
      <trkpt lat="41.5892110" lon="-8.7836520">
        <ele>42.6</ele>
        <time>2019-08-16T06:58:52Z</time>
      </trkpt>
      <trkpt lat="41.5896230" lon="-8.7836050">
        <ele>42.6</ele>
        <time>2019-08-16T06:59:01Z</time>
      </trkpt>
      <trkpt lat="41.5900040" lon="-8.7835540">
        <ele>42.6</ele>
        <time>2019-08-16T06:59:10Z</time>
      </trkpt>
      <trkpt lat="41.5903230" lon="-8.7835120">
        <ele>42.6</ele>
        <time>2019-08-16T06:59:18Z</time>
      </trkpt>
      <trkpt lat="41.5905110" lon="-8.7834700">
        <ele>43.0</ele>
        <time>2019-08-16T06:59:23Z</time>
      </trkpt>
      <trkpt lat="41.5905450" lon="-8.7834690">
        <ele>43.4</ele>
        <time>2019-08-16T06:59:24Z</time>
      </trkpt>
      <trkpt lat="41.5905780" lon="-8.7834680">
        <ele>43.8</ele>
        <time>2019-08-16T06:59:25Z</time>
      </trkpt>
      <trkpt lat="41.5906150" lon="-8.7834670">
        <ele>44.2</ele>
        <time>2019-08-16T06:59:26Z</time>
      </trkpt>
      <trkpt lat="41.5906540" lon="-8.7834630">
        <ele>44.6</ele>
        <time>2019-08-16T06:59:27Z</time>
      </trkpt>
      <trkpt lat="41.5908910" lon="-8.7834260">
        <ele>44.6</ele>
        <time>2019-08-16T06:59:33Z</time>
      </trkpt>
      <trkpt lat="41.5909730" lon="-8.7834230">
        <ele>45.0</ele>
        <time>2019-08-16T06:59:35Z</time>
      </trkpt>
      <trkpt lat="41.5910120" lon="-8.7834110">
        <ele>45.4</ele>
        <time>2019-08-16T06:59:36Z</time>
      </trkpt>
      <trkpt lat="41.5910460" lon="-8.7834010">
        <ele>45.8</ele>
        <time>2019-08-16T06:59:37Z</time>
      </trkpt>
      <trkpt lat="41.5910770" lon="-8.7833940">
        <ele>46.4</ele>
        <time>2019-08-16T06:59:38Z</time>
      </trkpt>
      <trkpt lat="41.5911100" lon="-8.7833920">
        <ele>46.8</ele>
        <time>2019-08-16T06:59:39Z</time>
      </trkpt>
      <trkpt lat="41.5912150" lon="-8.7833740">
        <ele>46.8</ele>
        <time>2019-08-16T06:59:42Z</time>
      </trkpt>
      <trkpt lat="41.5914250" lon="-8.7834030">
        <ele>46.8</ele>
        <time>2019-08-16T06:59:48Z</time>
      </trkpt>
      <trkpt lat="41.5916590" lon="-8.7834550">
        <ele>47.2</ele>
        <time>2019-08-16T06:59:54Z</time>
      </trkpt>
      <trkpt lat="41.5916970" lon="-8.7834620">
        <ele>47.6</ele>
        <time>2019-08-16T06:59:55Z</time>
      </trkpt>
      <trkpt lat="41.5917320" lon="-8.7834730">
        <ele>48.0</ele>
        <time>2019-08-16T06:59:56Z</time>
      </trkpt>
      <trkpt lat="41.5917690" lon="-8.7834860">
        <ele>48.4</ele>
        <time>2019-08-16T06:59:57Z</time>
      </trkpt>
      <trkpt lat="41.5918070" lon="-8.7834990">
        <ele>48.8</ele>
        <time>2019-08-16T06:59:58Z</time>
      </trkpt>
      <trkpt lat="41.5919680" lon="-8.7835420">
        <ele>48.8</ele>
        <time>2019-08-16T07:00:02Z</time>
      </trkpt>
      <trkpt lat="41.5922680" lon="-8.7835560">
        <ele>48.8</ele>
        <time>2019-08-16T07:00:09Z</time>
      </trkpt>
      <trkpt lat="41.5925390" lon="-8.7835360">
        <ele>48.8</ele>
        <time>2019-08-16T07:00:16Z</time>
      </trkpt>
      <trkpt lat="41.5928040" lon="-8.7835130">
        <ele>49.2</ele>
        <time>2019-08-16T07:00:23Z</time>
      </trkpt>
      <trkpt lat="41.5928390" lon="-8.7835130">
        <ele>49.6</ele>
        <time>2019-08-16T07:00:24Z</time>
      </trkpt>
      <trkpt lat="41.5928730" lon="-8.7835170">
        <ele>50.2</ele>
        <time>2019-08-16T07:00:25Z</time>
      </trkpt>
      <trkpt lat="41.5929100" lon="-8.7835160">
        <ele>50.6</ele>
        <time>2019-08-16T07:00:26Z</time>
      </trkpt>
      <trkpt lat="41.5929470" lon="-8.7835170">
        <ele>51.0</ele>
        <time>2019-08-16T07:00:27Z</time>
      </trkpt>
      <trkpt lat="41.5931100" lon="-8.7835070">
        <ele>51.0</ele>
        <time>2019-08-16T07:00:31Z</time>
      </trkpt>
      <trkpt lat="41.5932840" lon="-8.7834600">
        <ele>51.0</ele>
        <time>2019-08-16T07:00:35Z</time>
      </trkpt>
      <trkpt lat="41.5934030" lon="-8.7833950">
        <ele>51.0</ele>
        <time>2019-08-16T07:00:38Z</time>
      </trkpt>
      <trkpt lat="41.5935200" lon="-8.7833370">
        <ele>51.0</ele>
        <time>2019-08-16T07:00:43Z</time>
      </trkpt>
      <trkpt lat="41.5935590" lon="-8.7833270">
        <ele>51.0</ele>
        <time>2019-08-16T07:01:59Z</time>
      </trkpt>
      <trkpt lat="41.5936450" lon="-8.7832550">
        <ele>51.0</ele>
        <time>2019-08-16T07:02:03Z</time>
      </trkpt>
      <trkpt lat="41.5938900" lon="-8.7830780">
        <ele>51.0</ele>
        <time>2019-08-16T07:02:12Z</time>
      </trkpt>
      <trkpt lat="41.5942010" lon="-8.7828810">
        <ele>51.0</ele>
        <time>2019-08-16T07:02:21Z</time>
      </trkpt>
      <trkpt lat="41.5944710" lon="-8.7826940">
        <ele>51.0</ele>
        <time>2019-08-16T07:02:29Z</time>
      </trkpt>
      <trkpt lat="41.5947400" lon="-8.7825290">
        <ele>51.0</ele>
        <time>2019-08-16T07:02:36Z</time>
      </trkpt>
      <trkpt lat="41.5951230" lon="-8.7824470">
        <ele>51.0</ele>
        <time>2019-08-16T07:02:46Z</time>
      </trkpt>
      <trkpt lat="41.5951940" lon="-8.7824560">
        <ele>51.4</ele>
        <time>2019-08-16T07:02:48Z</time>
      </trkpt>
      <trkpt lat="41.5952300" lon="-8.7824640">
        <ele>51.8</ele>
        <time>2019-08-16T07:02:49Z</time>
      </trkpt>
      <trkpt lat="41.5952710" lon="-8.7824850">
        <ele>52.2</ele>
        <time>2019-08-16T07:02:50Z</time>
      </trkpt>
      <trkpt lat="41.5953090" lon="-8.7825200">
        <ele>52.6</ele>
        <time>2019-08-16T07:02:51Z</time>
      </trkpt>
      <trkpt lat="41.5953400" lon="-8.7825580">
        <ele>53.0</ele>
        <time>2019-08-16T07:02:52Z</time>
      </trkpt>
      <trkpt lat="41.5953950" lon="-8.7826430">
        <ele>53.0</ele>
        <time>2019-08-16T07:02:54Z</time>
      </trkpt>
      <trkpt lat="41.5954450" lon="-8.7827250">
        <ele>53.0</ele>
        <time>2019-08-16T07:02:56Z</time>
      </trkpt>
      <trkpt lat="41.5956680" lon="-8.7830940">
        <ele>52.6</ele>
        <time>2019-08-16T07:03:04Z</time>
      </trkpt>
      <trkpt lat="41.5956960" lon="-8.7831370">
        <ele>52.2</ele>
        <time>2019-08-16T07:03:05Z</time>
      </trkpt>
      <trkpt lat="41.5957220" lon="-8.7831820">
        <ele>51.8</ele>
        <time>2019-08-16T07:03:06Z</time>
      </trkpt>
      <trkpt lat="41.5957530" lon="-8.7832270">
        <ele>51.4</ele>
        <time>2019-08-16T07:03:07Z</time>
      </trkpt>
      <trkpt lat="41.5957920" lon="-8.7832690">
        <ele>51.0</ele>
        <time>2019-08-16T07:03:08Z</time>
      </trkpt>
      <trkpt lat="41.5960240" lon="-8.7834270">
        <ele>51.0</ele>
        <time>2019-08-16T07:03:13Z</time>
      </trkpt>
      <trkpt lat="41.5962760" lon="-8.7835650">
        <ele>51.0</ele>
        <time>2019-08-16T07:03:18Z</time>
      </trkpt>
      <trkpt lat="41.5963910" lon="-8.7835500">
        <ele>51.0</ele>
        <time>2019-08-16T07:03:20Z</time>
      </trkpt>
      <trkpt lat="41.5964950" lon="-8.7834850">
        <ele>51.0</ele>
        <time>2019-08-16T07:03:22Z</time>
      </trkpt>
      <trkpt lat="41.5965870" lon="-8.7834470">
        <ele>51.0</ele>
        <time>2019-08-16T07:03:24Z</time>
      </trkpt>
      <trkpt lat="41.5967580" lon="-8.7833540">
        <ele>51.0</ele>
        <time>2019-08-16T07:03:28Z</time>
      </trkpt>
      <trkpt lat="41.5968440" lon="-8.7832840">
        <ele>51.0</ele>
        <time>2019-08-16T07:03:30Z</time>
      </trkpt>
      <trkpt lat="41.5971630" lon="-8.7830310">
        <ele>51.0</ele>
        <time>2019-08-16T07:03:38Z</time>
      </trkpt>
      <trkpt lat="41.5973820" lon="-8.7829400">
        <ele>51.0</ele>
        <time>2019-08-16T07:03:43Z</time>
      </trkpt>
      <trkpt lat="41.5974710" lon="-8.7829280">
        <ele>51.0</ele>
        <time>2019-08-16T07:03:45Z</time>
      </trkpt>
      <trkpt lat="41.5976320" lon="-8.7829520">
        <ele>51.0</ele>
        <time>2019-08-16T07:03:49Z</time>
      </trkpt>
      <trkpt lat="41.5976890" lon="-8.7830180">
        <ele>51.0</ele>
        <time>2019-08-16T07:03:51Z</time>
      </trkpt>
      <trkpt lat="41.5977920" lon="-8.7831450">
        <ele>50.6</ele>
        <time>2019-08-16T07:03:55Z</time>
      </trkpt>
      <trkpt lat="41.5978260" lon="-8.7831960">
        <ele>50.2</ele>
        <time>2019-08-16T07:03:56Z</time>
      </trkpt>
      <trkpt lat="41.5978630" lon="-8.7832100">
        <ele>49.8</ele>
        <time>2019-08-16T07:03:57Z</time>
      </trkpt>
      <trkpt lat="41.5979060" lon="-8.7832120">
        <ele>49.4</ele>
        <time>2019-08-16T07:03:58Z</time>
      </trkpt>
      <trkpt lat="41.5979600" lon="-8.7831800">
        <ele>48.8</ele>
        <time>2019-08-16T07:03:59Z</time>
      </trkpt>
      <trkpt lat="41.5980680" lon="-8.7831650">
        <ele>48.8</ele>
        <time>2019-08-16T07:04:01Z</time>
      </trkpt>
      <trkpt lat="41.5984130" lon="-8.7831690">
        <ele>48.8</ele>
        <time>2019-08-16T07:04:07Z</time>
      </trkpt>
      <trkpt lat="41.5986530" lon="-8.7831100">
        <ele>48.8</ele>
        <time>2019-08-16T07:04:12Z</time>
      </trkpt>
      <trkpt lat="41.5987370" lon="-8.7830590">
        <ele>48.8</ele>
        <time>2019-08-16T07:04:14Z</time>
      </trkpt>
      <trkpt lat="41.5990330" lon="-8.7828790">
        <ele>49.4</ele>
        <time>2019-08-16T07:04:21Z</time>
      </trkpt>
      <trkpt lat="41.5990750" lon="-8.7828600">
        <ele>49.8</ele>
        <time>2019-08-16T07:04:22Z</time>
      </trkpt>
      <trkpt lat="41.5991230" lon="-8.7828360">
        <ele>50.2</ele>
        <time>2019-08-16T07:04:23Z</time>
      </trkpt>
      <trkpt lat="41.5991690" lon="-8.7828290">
        <ele>50.6</ele>
        <time>2019-08-16T07:04:24Z</time>
      </trkpt>
      <trkpt lat="41.5992140" lon="-8.7828240">
        <ele>51.2</ele>
        <time>2019-08-16T07:04:25Z</time>
      </trkpt>
      <trkpt lat="41.5994280" lon="-8.7828180">
        <ele>51.2</ele>
        <time>2019-08-16T07:04:30Z</time>
      </trkpt>
      <trkpt lat="41.5997220" lon="-8.7828390">
        <ele>51.2</ele>
        <time>2019-08-16T07:04:37Z</time>
      </trkpt>
      <trkpt lat="41.6002640" lon="-8.7828970">
        <ele>51.2</ele>
        <time>2019-08-16T07:04:48Z</time>
      </trkpt>
      <trkpt lat="41.6006460" lon="-8.7828940">
        <ele>51.2</ele>
        <time>2019-08-16T07:04:55Z</time>
      </trkpt>
      <trkpt lat="41.6009650" lon="-8.7828210">
        <ele>51.2</ele>
        <time>2019-08-16T07:05:03Z</time>
      </trkpt>
      <trkpt lat="41.6011080" lon="-8.7827730">
        <ele>51.2</ele>
        <time>2019-08-16T07:05:06Z</time>
      </trkpt>
      <trkpt lat="41.6012140" lon="-8.7827210">
        <ele>51.2</ele>
        <time>2019-08-16T07:05:09Z</time>
      </trkpt>
      <trkpt lat="41.6013730" lon="-8.7825990">
        <ele>51.6</ele>
        <time>2019-08-16T07:05:15Z</time>
      </trkpt>
      <trkpt lat="41.6014040" lon="-8.7825810">
        <ele>52.0</ele>
        <time>2019-08-16T07:05:16Z</time>
      </trkpt>
      <trkpt lat="41.6014380" lon="-8.7825730">
        <ele>52.4</ele>
        <time>2019-08-16T07:05:17Z</time>
      </trkpt>
      <trkpt lat="41.6014700" lon="-8.7825640">
        <ele>52.8</ele>
        <time>2019-08-16T07:05:18Z</time>
      </trkpt>
      <trkpt lat="41.6015060" lon="-8.7825530">
        <ele>53.2</ele>
        <time>2019-08-16T07:05:19Z</time>
      </trkpt>
      <trkpt lat="41.6015610" lon="-8.7825350">
        <ele>53.2</ele>
        <time>2019-08-16T07:05:21Z</time>
      </trkpt>
      <trkpt lat="41.6018010" lon="-8.7825330">
        <ele>53.2</ele>
        <time>2019-08-16T07:05:29Z</time>
      </trkpt>
      <trkpt lat="41.6018410" lon="-8.7825250">
        <ele>53.8</ele>
        <time>2019-08-16T07:05:30Z</time>
      </trkpt>
      <trkpt lat="41.6018770" lon="-8.7825130">
        <ele>54.2</ele>
        <time>2019-08-16T07:05:31Z</time>
      </trkpt>
      <trkpt lat="41.6019090" lon="-8.7824870">
        <ele>54.6</ele>
        <time>2019-08-16T07:05:32Z</time>
      </trkpt>
      <trkpt lat="41.6019390" lon="-8.7824670">
        <ele>55.2</ele>
        <time>2019-08-16T07:05:33Z</time>
      </trkpt>
      <trkpt lat="41.6019680" lon="-8.7824530">
        <ele>55.6</ele>
        <time>2019-08-16T07:05:34Z</time>
      </trkpt>
      <trkpt lat="41.6022180" lon="-8.7823300">
        <ele>55.6</ele>
        <time>2019-08-16T07:05:42Z</time>
      </trkpt>
      <trkpt lat="41.6022500" lon="-8.7823020">
        <ele>56.0</ele>
        <time>2019-08-16T07:05:43Z</time>
      </trkpt>
      <trkpt lat="41.6022840" lon="-8.7822560">
        <ele>56.4</ele>
        <time>2019-08-16T07:05:44Z</time>
      </trkpt>
      <trkpt lat="41.6023190" lon="-8.7822290">
        <ele>56.8</ele>
        <time>2019-08-16T07:05:45Z</time>
      </trkpt>
      <trkpt lat="41.6023550" lon="-8.7821960">
        <ele>57.4</ele>
        <time>2019-08-16T07:05:46Z</time>
      </trkpt>
      <trkpt lat="41.6023830" lon="-8.7821740">
        <ele>57.8</ele>
        <time>2019-08-16T07:05:47Z</time>
      </trkpt>
      <trkpt lat="41.6024420" lon="-8.7821400">
        <ele>58.2</ele>
        <time>2019-08-16T07:05:49Z</time>
      </trkpt>
      <trkpt lat="41.6024670" lon="-8.7821200">
        <ele>58.6</ele>
        <time>2019-08-16T07:05:50Z</time>
      </trkpt>
      <trkpt lat="41.6024980" lon="-8.7821010">
        <ele>59.0</ele>
        <time>2019-08-16T07:05:51Z</time>
      </trkpt>
      <trkpt lat="41.6025250" lon="-8.7820810">
        <ele>59.4</ele>
        <time>2019-08-16T07:05:52Z</time>
      </trkpt>
      <trkpt lat="41.6025510" lon="-8.7820650">
        <ele>59.8</ele>
        <time>2019-08-16T07:05:53Z</time>
      </trkpt>
      <trkpt lat="41.6026920" lon="-8.7818980">
        <ele>59.8</ele>
        <time>2019-08-16T07:06:00Z</time>
      </trkpt>
      <trkpt lat="41.6029370" lon="-8.7817240">
        <ele>59.8</ele>
        <time>2019-08-16T07:06:08Z</time>
      </trkpt>
      <trkpt lat="41.6031470" lon="-8.7815260">
        <ele>59.8</ele>
        <time>2019-08-16T07:06:15Z</time>
      </trkpt>
      <trkpt lat="41.6034110" lon="-8.7813000">
        <ele>59.8</ele>
        <time>2019-08-16T07:06:23Z</time>
      </trkpt>
      <trkpt lat="41.6036520" lon="-8.7811160">
        <ele>59.8</ele>
        <time>2019-08-16T07:06:31Z</time>
      </trkpt>
      <trkpt lat="41.6038600" lon="-8.7809820">
        <ele>59.8</ele>
        <time>2019-08-16T07:06:37Z</time>
      </trkpt>
      <trkpt lat="41.6041040" lon="-8.7807930">
        <ele>59.8</ele>
        <time>2019-08-16T07:06:45Z</time>
      </trkpt>
      <trkpt lat="41.6042830" lon="-8.7806070">
        <ele>59.8</ele>
        <time>2019-08-16T07:06:51Z</time>
      </trkpt>
      <trkpt lat="41.6044060" lon="-8.7804280">
        <ele>59.8</ele>
        <time>2019-08-16T07:06:56Z</time>
      </trkpt>
      <trkpt lat="41.6044910" lon="-8.7803510">
        <ele>59.8</ele>
        <time>2019-08-16T07:07:01Z</time>
      </trkpt>
      <trkpt lat="41.6045020" lon="-8.7803510">
        <ele>59.8</ele>
        <time>2019-08-16T07:07:03Z</time>
      </trkpt>
      <trkpt lat="41.6045730" lon="-8.7803310">
        <ele>59.8</ele>
        <time>2019-08-16T07:07:08Z</time>
      </trkpt>
      <trkpt lat="41.6046940" lon="-8.7803590">
        <ele>59.8</ele>
        <time>2019-08-16T07:07:12Z</time>
      </trkpt>
      <trkpt lat="41.6047320" lon="-8.7803750">
        <ele>59.8</ele>
        <time>2019-08-16T07:07:13Z</time>
      </trkpt>
      <trkpt lat="41.6049960" lon="-8.7804560">
        <ele>59.8</ele>
        <time>2019-08-16T07:07:20Z</time>
      </trkpt>
      <trkpt lat="41.6052020" lon="-8.7805430">
        <ele>59.4</ele>
        <time>2019-08-16T07:07:25Z</time>
      </trkpt>
      <trkpt lat="41.6052470" lon="-8.7805650">
        <ele>59.0</ele>
        <time>2019-08-16T07:07:26Z</time>
      </trkpt>
      <trkpt lat="41.6052890" lon="-8.7805860">
        <ele>58.6</ele>
        <time>2019-08-16T07:07:27Z</time>
      </trkpt>
      <trkpt lat="41.6053340" lon="-8.7806100">
        <ele>58.2</ele>
        <time>2019-08-16T07:07:28Z</time>
      </trkpt>
      <trkpt lat="41.6053810" lon="-8.7806350">
        <ele>57.8</ele>
        <time>2019-08-16T07:07:29Z</time>
      </trkpt>
      <trkpt lat="41.6056550" lon="-8.7808590">
        <ele>57.8</ele>
        <time>2019-08-16T07:07:35Z</time>
      </trkpt>
      <trkpt lat="41.6057740" lon="-8.7809880">
        <ele>57.4</ele>
        <time>2019-08-16T07:07:38Z</time>
      </trkpt>
      <trkpt lat="41.6058160" lon="-8.7810270">
        <ele>57.0</ele>
        <time>2019-08-16T07:07:39Z</time>
      </trkpt>
      <trkpt lat="41.6058570" lon="-8.7810700">
        <ele>56.4</ele>
        <time>2019-08-16T07:07:40Z</time>
      </trkpt>
      <trkpt lat="41.6058960" lon="-8.7811170">
        <ele>56.0</ele>
        <time>2019-08-16T07:07:41Z</time>
      </trkpt>
      <trkpt lat="41.6059350" lon="-8.7811650">
        <ele>55.6</ele>
        <time>2019-08-16T07:07:42Z</time>
      </trkpt>
      <trkpt lat="41.6059800" lon="-8.7812200">
        <ele>55.6</ele>
        <time>2019-08-16T07:07:43Z</time>
      </trkpt>
      <trkpt lat="41.6060070" lon="-8.7812880">
        <ele>55.6</ele>
        <time>2019-08-16T07:07:44Z</time>
      </trkpt>
      <trkpt lat="41.6060840" lon="-8.7814820">
        <ele>55.6</ele>
        <time>2019-08-16T07:07:47Z</time>
      </trkpt>
      <trkpt lat="41.6061170" lon="-8.7815260">
        <ele>55.6</ele>
        <time>2019-08-16T07:07:48Z</time>
      </trkpt>
      <trkpt lat="41.6062060" lon="-8.7815420">
        <ele>55.6</ele>
        <time>2019-08-16T07:07:50Z</time>
      </trkpt>
      <trkpt lat="41.6063040" lon="-8.7815370">
        <ele>55.6</ele>
        <time>2019-08-16T07:07:52Z</time>
      </trkpt>
      <trkpt lat="41.6064150" lon="-8.7815400">
        <ele>55.2</ele>
        <time>2019-08-16T07:07:54Z</time>
      </trkpt>
      <trkpt lat="41.6064670" lon="-8.7815300">
        <ele>54.8</ele>
        <time>2019-08-16T07:07:55Z</time>
      </trkpt>
      <trkpt lat="41.6065260" lon="-8.7815110">
        <ele>54.4</ele>
        <time>2019-08-16T07:07:56Z</time>
      </trkpt>
      <trkpt lat="41.6065890" lon="-8.7814830">
        <ele>54.0</ele>
        <time>2019-08-16T07:07:57Z</time>
      </trkpt>
      <trkpt lat="41.6066560" lon="-8.7814630">
        <ele>53.6</ele>
        <time>2019-08-16T07:07:58Z</time>
      </trkpt>
      <trkpt lat="41.6068310" lon="-8.7814190">
        <ele>53.6</ele>
        <time>2019-08-16T07:08:01Z</time>
      </trkpt>
      <trkpt lat="41.6072060" lon="-8.7813330">
        <ele>53.6</ele>
        <time>2019-08-16T07:08:08Z</time>
      </trkpt>
      <trkpt lat="41.6073070" lon="-8.7813310">
        <ele>53.2</ele>
        <time>2019-08-16T07:08:10Z</time>
      </trkpt>
      <trkpt lat="41.6073500" lon="-8.7813290">
        <ele>52.6</ele>
        <time>2019-08-16T07:08:11Z</time>
      </trkpt>
      <trkpt lat="41.6073870" lon="-8.7813230">
        <ele>52.2</ele>
        <time>2019-08-16T07:08:12Z</time>
      </trkpt>
      <trkpt lat="41.6074160" lon="-8.7813180">
        <ele>51.8</ele>
        <time>2019-08-16T07:08:13Z</time>
      </trkpt>
      <trkpt lat="41.6074360" lon="-8.7813000">
        <ele>51.4</ele>
        <time>2019-08-16T07:08:14Z</time>
      </trkpt>
      <trkpt lat="41.6074550" lon="-8.7812960">
        <ele>51.4</ele>
        <time>2019-08-16T07:08:16Z</time>
      </trkpt>
      <trkpt lat="41.6075280" lon="-8.7813550">
        <ele>51.4</ele>
        <time>2019-08-16T07:08:20Z</time>
      </trkpt>
      <trkpt lat="41.6076760" lon="-8.7813760">
        <ele>51.4</ele>
        <time>2019-08-16T07:08:25Z</time>
      </trkpt>
      <trkpt lat="41.6078490" lon="-8.7812920">
        <ele>51.0</ele>
        <time>2019-08-16T07:08:29Z</time>
      </trkpt>
      <trkpt lat="41.6078970" lon="-8.7812670">
        <ele>50.6</ele>
        <time>2019-08-16T07:08:30Z</time>
      </trkpt>
      <trkpt lat="41.6079450" lon="-8.7812450">
        <ele>50.0</ele>
        <time>2019-08-16T07:08:31Z</time>
      </trkpt>
      <trkpt lat="41.6079970" lon="-8.7812400">
        <ele>49.6</ele>
        <time>2019-08-16T07:08:32Z</time>
      </trkpt>
      <trkpt lat="41.6080450" lon="-8.7812330">
        <ele>49.2</ele>
        <time>2019-08-16T07:08:33Z</time>
      </trkpt>
      <trkpt lat="41.6080910" lon="-8.7812340">
        <ele>49.2</ele>
        <time>2019-08-16T07:08:34Z</time>
      </trkpt>
      <trkpt lat="41.6081420" lon="-8.7812280">
        <ele>49.2</ele>
        <time>2019-08-16T07:08:35Z</time>
      </trkpt>
      <trkpt lat="41.6082630" lon="-8.7812090">
        <ele>48.8</ele>
        <time>2019-08-16T07:08:37Z</time>
      </trkpt>
      <trkpt lat="41.6083210" lon="-8.7812100">
        <ele>48.4</ele>
        <time>2019-08-16T07:08:38Z</time>
      </trkpt>
      <trkpt lat="41.6083780" lon="-8.7812010">
        <ele>48.0</ele>
        <time>2019-08-16T07:08:39Z</time>
      </trkpt>
      <trkpt lat="41.6084330" lon="-8.7811900">
        <ele>47.6</ele>
        <time>2019-08-16T07:08:40Z</time>
      </trkpt>
      <trkpt lat="41.6084900" lon="-8.7811850">
        <ele>47.2</ele>
        <time>2019-08-16T07:08:41Z</time>
      </trkpt>
      <trkpt lat="41.6085550" lon="-8.7811790">
        <ele>46.8</ele>
        <time>2019-08-16T07:08:42Z</time>
      </trkpt>
      <trkpt lat="41.6086270" lon="-8.7811730">
        <ele>46.2</ele>
        <time>2019-08-16T07:08:43Z</time>
      </trkpt>
      <trkpt lat="41.6086930" lon="-8.7811840">
        <ele>45.8</ele>
        <time>2019-08-16T07:08:44Z</time>
      </trkpt>
      <trkpt lat="41.6087730" lon="-8.7811970">
        <ele>45.4</ele>
        <time>2019-08-16T07:08:45Z</time>
      </trkpt>
      <trkpt lat="41.6088430" lon="-8.7812160">
        <ele>45.0</ele>
        <time>2019-08-16T07:08:46Z</time>
      </trkpt>
      <trkpt lat="41.6089440" lon="-8.7812740">
        <ele>45.0</ele>
        <time>2019-08-16T07:08:48Z</time>
      </trkpt>
      <trkpt lat="41.6089810" lon="-8.7813000">
        <ele>45.0</ele>
        <time>2019-08-16T07:08:49Z</time>
      </trkpt>
      <trkpt lat="41.6091510" lon="-8.7813900">
        <ele>45.0</ele>
        <time>2019-08-16T07:08:53Z</time>
      </trkpt>
      <trkpt lat="41.6091970" lon="-8.7814180">
        <ele>44.6</ele>
        <time>2019-08-16T07:08:54Z</time>
      </trkpt>
      <trkpt lat="41.6092470" lon="-8.7814430">
        <ele>44.2</ele>
        <time>2019-08-16T07:08:55Z</time>
      </trkpt>
      <trkpt lat="41.6093040" lon="-8.7814640">
        <ele>43.8</ele>
        <time>2019-08-16T07:08:56Z</time>
      </trkpt>
      <trkpt lat="41.6093580" lon="-8.7814900">
        <ele>43.4</ele>
        <time>2019-08-16T07:08:57Z</time>
      </trkpt>
      <trkpt lat="41.6094030" lon="-8.7815250">
        <ele>42.8</ele>
        <time>2019-08-16T07:08:58Z</time>
      </trkpt>
      <trkpt lat="41.6095850" lon="-8.7816010">
        <ele>42.4</ele>
        <time>2019-08-16T07:09:01Z</time>
      </trkpt>
      <trkpt lat="41.6096430" lon="-8.7816160">
        <ele>42.0</ele>
        <time>2019-08-16T07:09:02Z</time>
      </trkpt>
      <trkpt lat="41.6096980" lon="-8.7816310">
        <ele>41.6</ele>
        <time>2019-08-16T07:09:03Z</time>
      </trkpt>
      <trkpt lat="41.6097410" lon="-8.7816410">
        <ele>41.2</ele>
        <time>2019-08-16T07:09:04Z</time>
      </trkpt>
      <trkpt lat="41.6097860" lon="-8.7816590">
        <ele>40.6</ele>
        <time>2019-08-16T07:09:05Z</time>
      </trkpt>
      <trkpt lat="41.6098320" lon="-8.7816690">
        <ele>40.6</ele>
        <time>2019-08-16T07:09:06Z</time>
      </trkpt>
      <trkpt lat="41.6099710" lon="-8.7816520">
        <ele>40.6</ele>
        <time>2019-08-16T07:09:09Z</time>
      </trkpt>
      <trkpt lat="41.6100700" lon="-8.7815920">
        <ele>40.6</ele>
        <time>2019-08-16T07:09:11Z</time>
      </trkpt>
      <trkpt lat="41.6102020" lon="-8.7814630">
        <ele>40.6</ele>
        <time>2019-08-16T07:09:14Z</time>
      </trkpt>
      <trkpt lat="41.6102400" lon="-8.7814250">
        <ele>40.2</ele>
        <time>2019-08-16T07:09:15Z</time>
      </trkpt>
      <trkpt lat="41.6102860" lon="-8.7813920">
        <ele>39.8</ele>
        <time>2019-08-16T07:09:16Z</time>
      </trkpt>
      <trkpt lat="41.6103450" lon="-8.7813720">
        <ele>39.2</ele>
        <time>2019-08-16T07:09:17Z</time>
      </trkpt>
      <trkpt lat="41.6104020" lon="-8.7813740">
        <ele>38.8</ele>
        <time>2019-08-16T07:09:18Z</time>
      </trkpt>
      <trkpt lat="41.6104410" lon="-8.7814140">
        <ele>38.4</ele>
        <time>2019-08-16T07:09:19Z</time>
      </trkpt>
      <trkpt lat="41.6104840" lon="-8.7814350">
        <ele>38.4</ele>
        <time>2019-08-16T07:09:20Z</time>
      </trkpt>
      <trkpt lat="41.6105640" lon="-8.7814800">
        <ele>38.4</ele>
        <time>2019-08-16T07:09:22Z</time>
      </trkpt>
      <trkpt lat="41.6107070" lon="-8.7815360">
        <ele>38.0</ele>
        <time>2019-08-16T07:09:25Z</time>
      </trkpt>
      <trkpt lat="41.6107690" lon="-8.7815540">
        <ele>37.6</ele>
        <time>2019-08-16T07:09:26Z</time>
      </trkpt>
      <trkpt lat="41.6108350" lon="-8.7815700">
        <ele>37.0</ele>
        <time>2019-08-16T07:09:27Z</time>
      </trkpt>
      <trkpt lat="41.6109110" lon="-8.7815960">
        <ele>36.6</ele>
        <time>2019-08-16T07:09:28Z</time>
      </trkpt>
      <trkpt lat="41.6109780" lon="-8.7816270">
        <ele>36.2</ele>
        <time>2019-08-16T07:09:29Z</time>
      </trkpt>
      <trkpt lat="41.6110390" lon="-8.7816780">
        <ele>35.8</ele>
        <time>2019-08-16T07:09:30Z</time>
      </trkpt>
      <trkpt lat="41.6111090" lon="-8.7817180">
        <ele>35.4</ele>
        <time>2019-08-16T07:09:31Z</time>
      </trkpt>
      <trkpt lat="41.6111620" lon="-8.7817510">
        <ele>35.0</ele>
        <time>2019-08-16T07:09:32Z</time>
      </trkpt>
      <trkpt lat="41.6112020" lon="-8.7817740">
        <ele>34.6</ele>
        <time>2019-08-16T07:09:33Z</time>
      </trkpt>
      <trkpt lat="41.6112370" lon="-8.7817970">
        <ele>34.2</ele>
        <time>2019-08-16T07:09:34Z</time>
      </trkpt>
      <trkpt lat="41.6112650" lon="-8.7818100">
        <ele>34.2</ele>
        <time>2019-08-16T07:09:35Z</time>
      </trkpt>
      <trkpt lat="41.6113090" lon="-8.7818460">
        <ele>34.2</ele>
        <time>2019-08-16T07:09:38Z</time>
      </trkpt>
      <trkpt lat="41.6113160" lon="-8.7818720">
        <ele>32.2</ele>
        <time>2019-08-16T07:12:01Z</time>
      </trkpt>
      <trkpt lat="41.6113330" lon="-8.7818980">
        <ele>32.2</ele>
        <time>2019-08-16T07:12:05Z</time>
      </trkpt>
      <trkpt lat="41.6113900" lon="-8.7820910">
        <ele>32.2</ele>
        <time>2019-08-16T07:12:12Z</time>
      </trkpt>
      <trkpt lat="41.6114000" lon="-8.7821250">
        <ele>32.2</ele>
        <time>2019-08-16T07:12:13Z</time>
      </trkpt>
      <trkpt lat="41.6114460" lon="-8.7823370">
        <ele>32.2</ele>
        <time>2019-08-16T07:12:19Z</time>
      </trkpt>
      <trkpt lat="41.6114290" lon="-8.7823810">
        <ele>32.2</ele>
        <time>2019-08-16T07:12:20Z</time>
      </trkpt>
      <trkpt lat="41.6114070" lon="-8.7824560">
        <ele>31.8</ele>
        <time>2019-08-16T07:12:22Z</time>
      </trkpt>
      <trkpt lat="41.6113940" lon="-8.7824920">
        <ele>31.2</ele>
        <time>2019-08-16T07:12:23Z</time>
      </trkpt>
      <trkpt lat="41.6113850" lon="-8.7825370">
        <ele>30.8</ele>
        <time>2019-08-16T07:12:24Z</time>
      </trkpt>
      <trkpt lat="41.6113720" lon="-8.7825930">
        <ele>30.4</ele>
        <time>2019-08-16T07:12:25Z</time>
      </trkpt>
      <trkpt lat="41.6113600" lon="-8.7826400">
        <ele>30.0</ele>
        <time>2019-08-16T07:12:26Z</time>
      </trkpt>
      <trkpt lat="41.6113330" lon="-8.7828060">
        <ele>30.0</ele>
        <time>2019-08-16T07:12:31Z</time>
      </trkpt>
      <trkpt lat="41.6113240" lon="-8.7830400">
        <ele>30.0</ele>
        <time>2019-08-16T07:12:37Z</time>
      </trkpt>
      <trkpt lat="41.6113420" lon="-8.7832370">
        <ele>30.0</ele>
        <time>2019-08-16T07:12:43Z</time>
      </trkpt>
      <trkpt lat="41.6113270" lon="-8.7833430">
        <ele>30.4</ele>
        <time>2019-08-16T07:12:45Z</time>
      </trkpt>
      <trkpt lat="41.6113270" lon="-8.7833790">
        <ele>30.8</ele>
        <time>2019-08-16T07:12:46Z</time>
      </trkpt>
      <trkpt lat="41.6113110" lon="-8.7834530">
        <ele>31.2</ele>
        <time>2019-08-16T07:12:47Z</time>
      </trkpt>
      <trkpt lat="41.6113150" lon="-8.7834870">
        <ele>31.6</ele>
        <time>2019-08-16T07:12:48Z</time>
      </trkpt>
      <trkpt lat="41.6113220" lon="-8.7835070">
        <ele>32.0</ele>
        <time>2019-08-16T07:12:49Z</time>
      </trkpt>
      <trkpt lat="41.6113420" lon="-8.7835500">
        <ele>32.0</ele>
        <time>2019-08-16T07:12:51Z</time>
      </trkpt>
      <trkpt lat="41.6113590" lon="-8.7836970">
        <ele>32.0</ele>
        <time>2019-08-16T07:12:58Z</time>
      </trkpt>
      <trkpt lat="41.6113660" lon="-8.7837320">
        <ele>32.0</ele>
        <time>2019-08-16T07:13:01Z</time>
      </trkpt>
      <trkpt lat="41.6113730" lon="-8.7838220">
        <ele>32.0</ele>
        <time>2019-08-16T07:13:08Z</time>
      </trkpt>
      <trkpt lat="41.6113620" lon="-8.7838410">
        <ele>32.0</ele>
        <time>2019-08-16T07:13:10Z</time>
      </trkpt>
      <trkpt lat="41.6113420" lon="-8.7838960">
        <ele>32.0</ele>
        <time>2019-08-16T07:13:18Z</time>
      </trkpt>
      <trkpt lat="41.6113300" lon="-8.7839090">
        <ele>32.0</ele>
        <time>2019-08-16T07:13:19Z</time>
      </trkpt>
      <trkpt lat="41.6113290" lon="-8.7839190">
        <ele>32.0</ele>
        <time>2019-08-16T07:13:20Z</time>
      </trkpt>
      <trkpt lat="41.6113160" lon="-8.7840690">
        <ele>32.0</ele>
        <time>2019-08-16T07:13:29Z</time>
      </trkpt>
      <trkpt lat="41.6113060" lon="-8.7841800">
        <ele>32.0</ele>
        <time>2019-08-16T07:13:40Z</time>
      </trkpt>
      <trkpt lat="41.6113590" lon="-8.7842910">
        <ele>32.0</ele>
        <time>2019-08-16T07:13:51Z</time>
      </trkpt>
      <trkpt lat="41.6113470" lon="-8.7842930">
        <ele>32.0</ele>
        <time>2019-08-16T07:13:53Z</time>
      </trkpt>
      <trkpt lat="41.6113930" lon="-8.7844260">
        <ele>30.0</ele>
        <time>2019-08-16T07:14:20Z</time>
      </trkpt>
      <trkpt lat="41.6113950" lon="-8.7844430">
        <ele>30.0</ele>
        <time>2019-08-16T07:14:22Z</time>
      </trkpt>
      <trkpt lat="41.6114340" lon="-8.7845790">
        <ele>30.0</ele>
        <time>2019-08-16T07:14:33Z</time>
      </trkpt>
      <trkpt lat="41.6114860" lon="-8.7847660">
        <ele>30.0</ele>
        <time>2019-08-16T07:14:44Z</time>
      </trkpt>
      <trkpt lat="41.6115160" lon="-8.7848400">
        <ele>29.4</ele>
        <time>2019-08-16T07:14:48Z</time>
      </trkpt>
      <trkpt lat="41.6115300" lon="-8.7848560">
        <ele>29.0</ele>
        <time>2019-08-16T07:14:49Z</time>
      </trkpt>
      <trkpt lat="41.6115390" lon="-8.7848650">
        <ele>28.4</ele>
        <time>2019-08-16T07:14:50Z</time>
      </trkpt>
      <trkpt lat="41.6115460" lon="-8.7848710">
        <ele>28.0</ele>
        <time>2019-08-16T07:14:51Z</time>
      </trkpt>
      <trkpt lat="41.6115490" lon="-8.7848880">
        <ele>27.4</ele>
        <time>2019-08-16T07:14:52Z</time>
      </trkpt>
      <trkpt lat="41.6115530" lon="-8.7849360">
        <ele>27.4</ele>
        <time>2019-08-16T07:14:54Z</time>
      </trkpt>
      <trkpt lat="41.6115590" lon="-8.7850030">
        <ele>27.4</ele>
        <time>2019-08-16T07:14:57Z</time>
      </trkpt>
      <trkpt lat="41.6115590" lon="-8.7850610">
        <ele>27.0</ele>
        <time>2019-08-16T07:15:01Z</time>
      </trkpt>
      <trkpt lat="41.6115680" lon="-8.7850790">
        <ele>26.6</ele>
        <time>2019-08-16T07:15:02Z</time>
      </trkpt>
      <trkpt lat="41.6115750" lon="-8.7850960">
        <ele>26.2</ele>
        <time>2019-08-16T07:15:03Z</time>
      </trkpt>
      <trkpt lat="41.6115810" lon="-8.7851190">
        <ele>25.8</ele>
        <time>2019-08-16T07:15:04Z</time>
      </trkpt>
      <trkpt lat="41.6115870" lon="-8.7851470">
        <ele>25.4</ele>
        <time>2019-08-16T07:15:05Z</time>
      </trkpt>
      <trkpt lat="41.6116010" lon="-8.7851630">
        <ele>25.4</ele>
        <time>2019-08-16T07:15:06Z</time>
      </trkpt>
      <trkpt lat="41.6116090" lon="-8.7851790">
        <ele>24.8</ele>
        <time>2019-08-16T07:15:07Z</time>
      </trkpt>
      <trkpt lat="41.6116170" lon="-8.7852050">
        <ele>24.4</ele>
        <time>2019-08-16T07:15:08Z</time>
      </trkpt>
      <trkpt lat="41.6116370" lon="-8.7852330">
        <ele>23.8</ele>
        <time>2019-08-16T07:15:09Z</time>
      </trkpt>
      <trkpt lat="41.6116590" lon="-8.7852600">
        <ele>23.2</ele>
        <time>2019-08-16T07:15:10Z</time>
      </trkpt>
      <trkpt lat="41.6116800" lon="-8.7852860">
        <ele>22.8</ele>
        <time>2019-08-16T07:15:11Z</time>
      </trkpt>
      <trkpt lat="41.6116990" lon="-8.7854210">
        <ele>22.8</ele>
        <time>2019-08-16T07:15:15Z</time>
      </trkpt>
      <trkpt lat="41.6117310" lon="-8.7855090">
        <ele>22.8</ele>
        <time>2019-08-16T07:15:20Z</time>
      </trkpt>
      <trkpt lat="41.6117470" lon="-8.7855410">
        <ele>22.8</ele>
        <time>2019-08-16T07:15:22Z</time>
      </trkpt>
      <trkpt lat="41.6118010" lon="-8.7856560">
        <ele>22.8</ele>
        <time>2019-08-16T07:15:31Z</time>
      </trkpt>
      <trkpt lat="41.6119040" lon="-8.7858010">
        <ele>22.8</ele>
        <time>2019-08-16T07:15:40Z</time>
      </trkpt>
      <trkpt lat="41.6119740" lon="-8.7859400">
        <ele>22.8</ele>
        <time>2019-08-16T07:15:46Z</time>
      </trkpt>
      <trkpt lat="41.6119780" lon="-8.7859520">
        <ele>22.8</ele>
        <time>2019-08-16T07:15:48Z</time>
      </trkpt>
      <trkpt lat="41.6120730" lon="-8.7860650">
        <ele>21.8</ele>
        <time>2019-08-16T07:16:28Z</time>
      </trkpt>
      <trkpt lat="41.6120820" lon="-8.7860700">
        <ele>21.4</ele>
        <time>2019-08-16T07:16:29Z</time>
      </trkpt>
      <trkpt lat="41.6120890" lon="-8.7860780">
        <ele>21.0</ele>
        <time>2019-08-16T07:16:30Z</time>
      </trkpt>
      <trkpt lat="41.6120960" lon="-8.7860830">
        <ele>20.6</ele>
        <time>2019-08-16T07:16:31Z</time>
      </trkpt>
      <trkpt lat="41.6121190" lon="-8.7861100">
        <ele>20.2</ele>
        <time>2019-08-16T07:16:37Z</time>
      </trkpt>
      <trkpt lat="41.6121230" lon="-8.7861110">
        <ele>19.8</ele>
        <time>2019-08-16T07:16:38Z</time>
      </trkpt>
      <trkpt lat="41.6121470" lon="-8.7861300">
        <ele>18.4</ele>
        <time>2019-08-16T07:16:45Z</time>
      </trkpt>
      <trkpt lat="41.6121560" lon="-8.7861410">
        <ele>18.4</ele>
        <time>2019-08-16T07:16:47Z</time>
      </trkpt>
      <trkpt lat="41.6121850" lon="-8.7861930">
        <ele>18.0</ele>
        <time>2019-08-16T07:16:54Z</time>
      </trkpt>
      <trkpt lat="41.6121830" lon="-8.7862020">
        <ele>17.6</ele>
        <time>2019-08-16T07:16:55Z</time>
      </trkpt>
      <trkpt lat="41.6121840" lon="-8.7862100">
        <ele>17.2</ele>
        <time>2019-08-16T07:16:56Z</time>
      </trkpt>
      <trkpt lat="41.6121860" lon="-8.7862190">
        <ele>16.8</ele>
        <time>2019-08-16T07:16:57Z</time>
      </trkpt>
      <trkpt lat="41.6121890" lon="-8.7862230">
        <ele>16.4</ele>
        <time>2019-08-16T07:16:58Z</time>
      </trkpt>
      <trkpt lat="41.6122100" lon="-8.7862570">
        <ele>16.4</ele>
        <time>2019-08-16T07:17:02Z</time>
      </trkpt>
      <trkpt lat="41.6122190" lon="-8.7862970">
        <ele>16.0</ele>
        <time>2019-08-16T07:17:06Z</time>
      </trkpt>
      <trkpt lat="41.6122250" lon="-8.7863050">
        <ele>15.6</ele>
        <time>2019-08-16T07:17:07Z</time>
      </trkpt>
      <trkpt lat="41.6122310" lon="-8.7863140">
        <ele>15.2</ele>
        <time>2019-08-16T07:17:08Z</time>
      </trkpt>
      <trkpt lat="41.6122370" lon="-8.7863210">
        <ele>14.8</ele>
        <time>2019-08-16T07:17:09Z</time>
      </trkpt>
      <trkpt lat="41.6122400" lon="-8.7863300">
        <ele>14.2</ele>
        <time>2019-08-16T07:17:10Z</time>
      </trkpt>
      <trkpt lat="41.6122650" lon="-8.7863970">
        <ele>14.2</ele>
        <time>2019-08-16T07:17:13Z</time>
      </trkpt>
      <trkpt lat="41.6123430" lon="-8.7865420">
        <ele>14.2</ele>
        <time>2019-08-16T07:17:20Z</time>
      </trkpt>
      <trkpt lat="41.6124010" lon="-8.7866650">
        <ele>14.2</ele>
        <time>2019-08-16T07:17:28Z</time>
      </trkpt>
      <trkpt lat="41.6123980" lon="-8.7867730">
        <ele>14.2</ele>
        <time>2019-08-16T07:17:34Z</time>
      </trkpt>
      <trkpt lat="41.6123750" lon="-8.7869180">
        <ele>14.2</ele>
        <time>2019-08-16T07:17:40Z</time>
      </trkpt>
      <trkpt lat="41.6123760" lon="-8.7870320">
        <ele>14.2</ele>
        <time>2019-08-16T07:17:47Z</time>
      </trkpt>
      <trkpt lat="41.6123870" lon="-8.7872040">
        <ele>14.6</ele>
        <time>2019-08-16T07:17:55Z</time>
      </trkpt>
      <trkpt lat="41.6123850" lon="-8.7872360">
        <ele>15.0</ele>
        <time>2019-08-16T07:17:56Z</time>
      </trkpt>
      <trkpt lat="41.6123790" lon="-8.7872520">
        <ele>15.6</ele>
        <time>2019-08-16T07:17:57Z</time>
      </trkpt>
      <trkpt lat="41.6123730" lon="-8.7872660">
        <ele>16.0</ele>
        <time>2019-08-16T07:17:58Z</time>
      </trkpt>
      <trkpt lat="41.6123710" lon="-8.7872880">
        <ele>16.4</ele>
        <time>2019-08-16T07:17:59Z</time>
      </trkpt>
      <trkpt lat="41.6123350" lon="-8.7874270">
        <ele>16.4</ele>
        <time>2019-08-16T07:18:05Z</time>
      </trkpt>
      <trkpt lat="41.6123250" lon="-8.7877140">
        <ele>16.4</ele>
        <time>2019-08-16T07:18:12Z</time>
      </trkpt>
      <trkpt lat="41.6123050" lon="-8.7877640">
        <ele>16.4</ele>
        <time>2019-08-16T07:18:14Z</time>
      </trkpt>
      <trkpt lat="41.6122490" lon="-8.7878190">
        <ele>16.4</ele>
        <time>2019-08-16T07:18:17Z</time>
      </trkpt>
      <trkpt lat="41.6121560" lon="-8.7879070">
        <ele>16.4</ele>
        <time>2019-08-16T07:18:23Z</time>
      </trkpt>
      <trkpt lat="41.6120280" lon="-8.7879310">
        <ele>16.4</ele>
        <time>2019-08-16T07:18:30Z</time>
      </trkpt>
      <trkpt lat="41.6119030" lon="-8.7880000">
        <ele>15.8</ele>
        <time>2019-08-16T07:18:37Z</time>
      </trkpt>
      <trkpt lat="41.6118780" lon="-8.7880180">
        <ele>15.4</ele>
        <time>2019-08-16T07:18:38Z</time>
      </trkpt>
      <trkpt lat="41.6118600" lon="-8.7880480">
        <ele>15.0</ele>
        <time>2019-08-16T07:18:39Z</time>
      </trkpt>
      <trkpt lat="41.6118360" lon="-8.7880860">
        <ele>14.4</ele>
        <time>2019-08-16T07:18:40Z</time>
      </trkpt>
      <trkpt lat="41.6118210" lon="-8.7881310">
        <ele>14.0</ele>
        <time>2019-08-16T07:18:41Z</time>
      </trkpt>
      <trkpt lat="41.6118140" lon="-8.7881820">
        <ele>14.0</ele>
        <time>2019-08-16T07:18:42Z</time>
      </trkpt>
      <trkpt lat="41.6117920" lon="-8.7883180">
        <ele>13.6</ele>
        <time>2019-08-16T07:18:45Z</time>
      </trkpt>
      <trkpt lat="41.6117890" lon="-8.7883660">
        <ele>13.0</ele>
        <time>2019-08-16T07:18:46Z</time>
      </trkpt>
      <trkpt lat="41.6117920" lon="-8.7884140">
        <ele>12.6</ele>
        <time>2019-08-16T07:18:47Z</time>
      </trkpt>
      <trkpt lat="41.6118030" lon="-8.7884490">
        <ele>12.2</ele>
        <time>2019-08-16T07:18:48Z</time>
      </trkpt>
      <trkpt lat="41.6118140" lon="-8.7884660">
        <ele>11.8</ele>
        <time>2019-08-16T07:18:49Z</time>
      </trkpt>
      <trkpt lat="41.6118820" lon="-8.7885820">
        <ele>11.8</ele>
        <time>2019-08-16T07:18:54Z</time>
      </trkpt>
      <trkpt lat="41.6118720" lon="-8.7886100">
        <ele>11.8</ele>
        <time>2019-08-16T07:18:57Z</time>
      </trkpt>
      <trkpt lat="41.6118670" lon="-8.7886200">
        <ele>11.8</ele>
        <time>2019-08-16T07:20:15Z</time>
      </trkpt>
      <trkpt lat="41.6118740" lon="-8.7886320">
        <ele>11.8</ele>
        <time>2019-08-16T07:20:16Z</time>
      </trkpt>
      <trkpt lat="41.6118990" lon="-8.7886500">
        <ele>11.8</ele>
        <time>2019-08-16T07:20:17Z</time>
      </trkpt>
      <trkpt lat="41.6120130" lon="-8.7887560">
        <ele>11.8</ele>
        <time>2019-08-16T07:20:21Z</time>
      </trkpt>
      <trkpt lat="41.6120740" lon="-8.7887580">
        <ele>11.8</ele>
        <time>2019-08-16T07:20:24Z</time>
      </trkpt>
      <trkpt lat="41.6121290" lon="-8.7887450">
        <ele>11.8</ele>
        <time>2019-08-16T07:20:27Z</time>
      </trkpt>
      <trkpt lat="41.6122360" lon="-8.7886580">
        <ele>11.8</ele>
        <time>2019-08-16T07:20:34Z</time>
      </trkpt>
      <trkpt lat="41.6123250" lon="-8.7886120">
        <ele>11.8</ele>
        <time>2019-08-16T07:20:40Z</time>
      </trkpt>
      <trkpt lat="41.6123570" lon="-8.7885920">
        <ele>12.2</ele>
        <time>2019-08-16T07:20:43Z</time>
      </trkpt>
      <trkpt lat="41.6123660" lon="-8.7885860">
        <ele>12.6</ele>
        <time>2019-08-16T07:20:44Z</time>
      </trkpt>
      <trkpt lat="41.6123800" lon="-8.7885790">
        <ele>13.0</ele>
        <time>2019-08-16T07:20:45Z</time>
      </trkpt>
      <trkpt lat="41.6123970" lon="-8.7885660">
        <ele>13.4</ele>
        <time>2019-08-16T07:20:46Z</time>
      </trkpt>
      <trkpt lat="41.6124140" lon="-8.7885600">
        <ele>13.8</ele>
        <time>2019-08-16T07:20:47Z</time>
      </trkpt>
      <trkpt lat="41.6124470" lon="-8.7885510">
        <ele>13.8</ele>
        <time>2019-08-16T07:20:49Z</time>
      </trkpt>
      <trkpt lat="41.6125810" lon="-8.7885060">
        <ele>13.8</ele>
        <time>2019-08-16T07:20:57Z</time>
      </trkpt>
      <trkpt lat="41.6126760" lon="-8.7884530">
        <ele>14.4</ele>
        <time>2019-08-16T07:21:03Z</time>
      </trkpt>
      <trkpt lat="41.6126910" lon="-8.7884440">
        <ele>14.8</ele>
        <time>2019-08-16T07:21:04Z</time>
      </trkpt>
      <trkpt lat="41.6127040" lon="-8.7884400">
        <ele>15.2</ele>
        <time>2019-08-16T07:21:05Z</time>
      </trkpt>
      <trkpt lat="41.6127210" lon="-8.7884360">
        <ele>15.8</ele>
        <time>2019-08-16T07:21:06Z</time>
      </trkpt>
      <trkpt lat="41.6127330" lon="-8.7884310">
        <ele>16.2</ele>
        <time>2019-08-16T07:21:07Z</time>
      </trkpt>
      <trkpt lat="41.6128220" lon="-8.7883880">
        <ele>16.8</ele>
        <time>2019-08-16T07:21:13Z</time>
      </trkpt>
      <trkpt lat="41.6128390" lon="-8.7883740">
        <ele>17.2</ele>
        <time>2019-08-16T07:21:14Z</time>
      </trkpt>
      <trkpt lat="41.6128560" lon="-8.7883600">
        <ele>17.6</ele>
        <time>2019-08-16T07:21:15Z</time>
      </trkpt>
      <trkpt lat="41.6128740" lon="-8.7883480">
        <ele>18.0</ele>
        <time>2019-08-16T07:21:16Z</time>
      </trkpt>
      <trkpt lat="41.6128900" lon="-8.7883400">
        <ele>18.6</ele>
        <time>2019-08-16T07:21:17Z</time>
      </trkpt>
      <trkpt lat="41.6130090" lon="-8.7882730">
        <ele>18.6</ele>
        <time>2019-08-16T07:21:24Z</time>
      </trkpt>
      <trkpt lat="41.6131100" lon="-8.7882420">
        <ele>18.6</ele>
        <time>2019-08-16T07:21:32Z</time>
      </trkpt>
      <trkpt lat="41.6131220" lon="-8.7882460">
        <ele>18.6</ele>
        <time>2019-08-16T07:21:46Z</time>
      </trkpt>
      <trkpt lat="41.6131360" lon="-8.7882510">
        <ele>18.6</ele>
        <time>2019-08-16T07:21:49Z</time>
      </trkpt>
      <trkpt lat="41.6131590" lon="-8.7882420">
        <ele>18.6</ele>
        <time>2019-08-16T07:22:05Z</time>
      </trkpt>
      <trkpt lat="41.6131760" lon="-8.7882360">
        <ele>18.6</ele>
        <time>2019-08-16T07:22:06Z</time>
      </trkpt>
      <trkpt lat="41.6132020" lon="-8.7882290">
        <ele>19.0</ele>
        <time>2019-08-16T07:22:07Z</time>
      </trkpt>
      <trkpt lat="41.6132180" lon="-8.7882320">
        <ele>19.4</ele>
        <time>2019-08-16T07:22:08Z</time>
      </trkpt>
      <trkpt lat="41.6132400" lon="-8.7882330">
        <ele>19.8</ele>
        <time>2019-08-16T07:22:09Z</time>
      </trkpt>
      <trkpt lat="41.6132590" lon="-8.7882420">
        <ele>20.2</ele>
        <time>2019-08-16T07:22:10Z</time>
      </trkpt>
      <trkpt lat="41.6132760" lon="-8.7882480">
        <ele>20.6</ele>
        <time>2019-08-16T07:22:11Z</time>
      </trkpt>
      <trkpt lat="41.6132910" lon="-8.7882560">
        <ele>20.6</ele>
        <time>2019-08-16T07:22:12Z</time>
      </trkpt>
      <trkpt lat="41.6134710" lon="-8.7883120">
        <ele>20.6</ele>
        <time>2019-08-16T07:22:19Z</time>
      </trkpt>
      <trkpt lat="41.6135380" lon="-8.7884110">
        <ele>20.6</ele>
        <time>2019-08-16T07:22:24Z</time>
      </trkpt>
      <trkpt lat="41.6135810" lon="-8.7884890">
        <ele>21.0</ele>
        <time>2019-08-16T07:22:28Z</time>
      </trkpt>
      <trkpt lat="41.6135900" lon="-8.7885010">
        <ele>21.4</ele>
        <time>2019-08-16T07:22:29Z</time>
      </trkpt>
      <trkpt lat="41.6135990" lon="-8.7885130">
        <ele>22.0</ele>
        <time>2019-08-16T07:22:30Z</time>
      </trkpt>
      <trkpt lat="41.6136110" lon="-8.7885280">
        <ele>22.4</ele>
        <time>2019-08-16T07:22:31Z</time>
      </trkpt>
      <trkpt lat="41.6136180" lon="-8.7885460">
        <ele>22.8</ele>
        <time>2019-08-16T07:22:32Z</time>
      </trkpt>
      <trkpt lat="41.6136230" lon="-8.7885600">
        <ele>22.8</ele>
        <time>2019-08-16T07:22:33Z</time>
      </trkpt>
      <trkpt lat="41.6136780" lon="-8.7886620">
        <ele>23.4</ele>
        <time>2019-08-16T07:22:39Z</time>
      </trkpt>
      <trkpt lat="41.6136840" lon="-8.7886830">
        <ele>23.8</ele>
        <time>2019-08-16T07:22:40Z</time>
      </trkpt>
      <trkpt lat="41.6136930" lon="-8.7886910">
        <ele>24.2</ele>
        <time>2019-08-16T07:22:41Z</time>
      </trkpt>
      <trkpt lat="41.6137060" lon="-8.7887030">
        <ele>24.6</ele>
        <time>2019-08-16T07:22:42Z</time>
      </trkpt>
      <trkpt lat="41.6137170" lon="-8.7887180">
        <ele>25.2</ele>
        <time>2019-08-16T07:22:43Z</time>
      </trkpt>
      <trkpt lat="41.6137850" lon="-8.7887510">
        <ele>25.6</ele>
        <time>2019-08-16T07:22:48Z</time>
      </trkpt>
      <trkpt lat="41.6138020" lon="-8.7887580">
        <ele>26.0</ele>
        <time>2019-08-16T07:22:49Z</time>
      </trkpt>
      <trkpt lat="41.6138190" lon="-8.7887660">
        <ele>26.6</ele>
        <time>2019-08-16T07:22:50Z</time>
      </trkpt>
      <trkpt lat="41.6138350" lon="-8.7887740">
        <ele>27.0</ele>
        <time>2019-08-16T07:22:51Z</time>
      </trkpt>
      <trkpt lat="41.6138540" lon="-8.7887780">
        <ele>27.4</ele>
        <time>2019-08-16T07:22:52Z</time>
      </trkpt>
      <trkpt lat="41.6139150" lon="-8.7887850">
        <ele>27.8</ele>
        <time>2019-08-16T07:22:56Z</time>
      </trkpt>
      <trkpt lat="41.6139280" lon="-8.7887890">
        <ele>28.4</ele>
        <time>2019-08-16T07:22:57Z</time>
      </trkpt>
      <trkpt lat="41.6139440" lon="-8.7887910">
        <ele>28.8</ele>
        <time>2019-08-16T07:22:58Z</time>
      </trkpt>
      <trkpt lat="41.6139630" lon="-8.7887950">
        <ele>29.2</ele>
        <time>2019-08-16T07:22:59Z</time>
      </trkpt>
      <trkpt lat="41.6139790" lon="-8.7888020">
        <ele>29.6</ele>
        <time>2019-08-16T07:23:00Z</time>
      </trkpt>
      <trkpt lat="41.6140410" lon="-8.7888260">
        <ele>29.6</ele>
        <time>2019-08-16T07:23:04Z</time>
      </trkpt>
      <trkpt lat="41.6140590" lon="-8.7888310">
        <ele>30.0</ele>
        <time>2019-08-16T07:23:05Z</time>
      </trkpt>
      <trkpt lat="41.6140780" lon="-8.7888360">
        <ele>30.4</ele>
        <time>2019-08-16T07:23:06Z</time>
      </trkpt>
      <trkpt lat="41.6140950" lon="-8.7888410">
        <ele>31.0</ele>
        <time>2019-08-16T07:23:07Z</time>
      </trkpt>
      <trkpt lat="41.6141100" lon="-8.7888450">
        <ele>31.4</ele>
        <time>2019-08-16T07:23:08Z</time>
      </trkpt>
      <trkpt lat="41.6141350" lon="-8.7888610">
        <ele>31.8</ele>
        <time>2019-08-16T07:23:09Z</time>
      </trkpt>
      <trkpt lat="41.6141980" lon="-8.7888650">
        <ele>31.8</ele>
        <time>2019-08-16T07:23:13Z</time>
      </trkpt>
      <trkpt lat="41.6142510" lon="-8.7888920">
        <ele>32.2</ele>
        <time>2019-08-16T07:23:17Z</time>
      </trkpt>
      <trkpt lat="41.6142700" lon="-8.7888950">
        <ele>33.0</ele>
        <time>2019-08-16T07:23:18Z</time>
      </trkpt>
      <trkpt lat="41.6142820" lon="-8.7888950">
        <ele>33.4</ele>
        <time>2019-08-16T07:23:19Z</time>
      </trkpt>
      <trkpt lat="41.6142950" lon="-8.7889030">
        <ele>34.0</ele>
        <time>2019-08-16T07:23:20Z</time>
      </trkpt>
      <trkpt lat="41.6143710" lon="-8.7889380">
        <ele>34.8</ele>
        <time>2019-08-16T07:23:25Z</time>
      </trkpt>
      <trkpt lat="41.6143990" lon="-8.7889510">
        <ele>35.8</ele>
        <time>2019-08-16T07:23:27Z</time>
      </trkpt>
      <trkpt lat="41.6144140" lon="-8.7889600">
        <ele>36.2</ele>
        <time>2019-08-16T07:23:28Z</time>
      </trkpt>
      <trkpt lat="41.6144660" lon="-8.7889620">
        <ele>36.2</ele>
        <time>2019-08-16T07:23:31Z</time>
      </trkpt>
      <trkpt lat="41.6145680" lon="-8.7888500">
        <ele>36.2</ele>
        <time>2019-08-16T07:23:39Z</time>
      </trkpt>
      <trkpt lat="41.6145950" lon="-8.7887360">
        <ele>36.6</ele>
        <time>2019-08-16T07:23:44Z</time>
      </trkpt>
      <trkpt lat="41.6146030" lon="-8.7887140">
        <ele>37.0</ele>
        <time>2019-08-16T07:23:45Z</time>
      </trkpt>
      <trkpt lat="41.6146140" lon="-8.7886910">
        <ele>37.4</ele>
        <time>2019-08-16T07:23:46Z</time>
      </trkpt>
      <trkpt lat="41.6146220" lon="-8.7886770">
        <ele>37.8</ele>
        <time>2019-08-16T07:23:47Z</time>
      </trkpt>
      <trkpt lat="41.6146260" lon="-8.7886600">
        <ele>38.4</ele>
        <time>2019-08-16T07:23:48Z</time>
      </trkpt>
      <trkpt lat="41.6146770" lon="-8.7885050">
        <ele>38.8</ele>
        <time>2019-08-16T07:23:56Z</time>
      </trkpt>
      <trkpt lat="41.6146810" lon="-8.7884880">
        <ele>39.2</ele>
        <time>2019-08-16T07:23:57Z</time>
      </trkpt>
      <trkpt lat="41.6146870" lon="-8.7884720">
        <ele>39.6</ele>
        <time>2019-08-16T07:23:58Z</time>
      </trkpt>
      <trkpt lat="41.6146910" lon="-8.7884570">
        <ele>39.6</ele>
        <time>2019-08-16T07:23:59Z</time>
      </trkpt>
      <trkpt lat="41.6146990" lon="-8.7884440">
        <ele>40.0</ele>
        <time>2019-08-16T07:24:00Z</time>
      </trkpt>
      <trkpt lat="41.6147100" lon="-8.7884330">
        <ele>40.6</ele>
        <time>2019-08-16T07:24:01Z</time>
      </trkpt>
      <trkpt lat="41.6147730" lon="-8.7883830">
        <ele>41.0</ele>
        <time>2019-08-16T07:24:06Z</time>
      </trkpt>
      <trkpt lat="41.6147840" lon="-8.7883800">
        <ele>41.4</ele>
        <time>2019-08-16T07:24:07Z</time>
      </trkpt>
      <trkpt lat="41.6147970" lon="-8.7883750">
        <ele>41.8</ele>
        <time>2019-08-16T07:24:08Z</time>
      </trkpt>
      <trkpt lat="41.6148120" lon="-8.7883700">
        <ele>42.2</ele>
        <time>2019-08-16T07:24:09Z</time>
      </trkpt>
      <trkpt lat="41.6148270" lon="-8.7883740">
        <ele>42.6</ele>
        <time>2019-08-16T07:24:10Z</time>
      </trkpt>
      <trkpt lat="41.6148930" lon="-8.7883490">
        <ele>42.6</ele>
        <time>2019-08-16T07:24:14Z</time>
      </trkpt>
      <trkpt lat="41.6149420" lon="-8.7883350">
        <ele>43.0</ele>
        <time>2019-08-16T07:24:18Z</time>
      </trkpt>
      <trkpt lat="41.6149540" lon="-8.7883340">
        <ele>43.4</ele>
        <time>2019-08-16T07:24:19Z</time>
      </trkpt>
      <trkpt lat="41.6149660" lon="-8.7883330">
        <ele>43.8</ele>
        <time>2019-08-16T07:24:20Z</time>
      </trkpt>
      <trkpt lat="41.6149840" lon="-8.7883300">
        <ele>44.4</ele>
        <time>2019-08-16T07:24:21Z</time>
      </trkpt>
      <trkpt lat="41.6149970" lon="-8.7883280">
        <ele>44.8</ele>
        <time>2019-08-16T07:24:22Z</time>
      </trkpt>
      <trkpt lat="41.6150110" lon="-8.7883230">
        <ele>45.2</ele>
        <time>2019-08-16T07:24:23Z</time>
      </trkpt>
      <trkpt lat="41.6150220" lon="-8.7883210">
        <ele>45.6</ele>
        <time>2019-08-16T07:24:24Z</time>
      </trkpt>
      <trkpt lat="41.6150360" lon="-8.7883260">
        <ele>46.0</ele>
        <time>2019-08-16T07:24:25Z</time>
      </trkpt>
      <trkpt lat="41.6150480" lon="-8.7883290">
        <ele>46.4</ele>
        <time>2019-08-16T07:24:26Z</time>
      </trkpt>
      <trkpt lat="41.6150600" lon="-8.7883320">
        <ele>46.8</ele>
        <time>2019-08-16T07:24:27Z</time>
      </trkpt>
      <trkpt lat="41.6151450" lon="-8.7883560">
        <ele>46.8</ele>
        <time>2019-08-16T07:24:32Z</time>
      </trkpt>
      <trkpt lat="41.6152360" lon="-8.7883700">
        <ele>47.2</ele>
        <time>2019-08-16T07:24:38Z</time>
      </trkpt>
      <trkpt lat="41.6152540" lon="-8.7883680">
        <ele>47.6</ele>
        <time>2019-08-16T07:24:39Z</time>
      </trkpt>
      <trkpt lat="41.6152720" lon="-8.7883650">
        <ele>48.0</ele>
        <time>2019-08-16T07:24:40Z</time>
      </trkpt>
      <trkpt lat="41.6152910" lon="-8.7883630">
        <ele>48.8</ele>
        <time>2019-08-16T07:24:41Z</time>
      </trkpt>
      <trkpt lat="41.6154140" lon="-8.7883320">
        <ele>48.8</ele>
        <time>2019-08-16T07:24:50Z</time>
      </trkpt>
      <trkpt lat="41.6154240" lon="-8.7883270">
        <ele>49.2</ele>
        <time>2019-08-16T07:24:51Z</time>
      </trkpt>
      <trkpt lat="41.6154400" lon="-8.7883200">
        <ele>49.6</ele>
        <time>2019-08-16T07:24:52Z</time>
      </trkpt>
      <trkpt lat="41.6154530" lon="-8.7883140">
        <ele>50.2</ele>
        <time>2019-08-16T07:24:53Z</time>
      </trkpt>
      <trkpt lat="41.6154640" lon="-8.7883100">
        <ele>50.6</ele>
        <time>2019-08-16T07:24:54Z</time>
      </trkpt>
      <trkpt lat="41.6154780" lon="-8.7883040">
        <ele>51.0</ele>
        <time>2019-08-16T07:24:55Z</time>
      </trkpt>
      <trkpt lat="41.6155180" lon="-8.7882980">
        <ele>51.4</ele>
        <time>2019-08-16T07:24:59Z</time>
      </trkpt>
      <trkpt lat="41.6155330" lon="-8.7883020">
        <ele>51.8</ele>
        <time>2019-08-16T07:25:00Z</time>
      </trkpt>
      <trkpt lat="41.6155460" lon="-8.7883000">
        <ele>52.2</ele>
        <time>2019-08-16T07:25:01Z</time>
      </trkpt>
      <trkpt lat="41.6155580" lon="-8.7883000">
        <ele>52.6</ele>
        <time>2019-08-16T07:25:02Z</time>
      </trkpt>
      <trkpt lat="41.6155740" lon="-8.7882990">
        <ele>53.0</ele>
        <time>2019-08-16T07:25:03Z</time>
      </trkpt>
      <trkpt lat="41.6156200" lon="-8.7883090">
        <ele>53.0</ele>
        <time>2019-08-16T07:25:07Z</time>
      </trkpt>
      <trkpt lat="41.6157350" lon="-8.7883250">
        <ele>53.4</ele>
        <time>2019-08-16T07:25:14Z</time>
      </trkpt>
      <trkpt lat="41.6157470" lon="-8.7883330">
        <ele>53.8</ele>
        <time>2019-08-16T07:25:15Z</time>
      </trkpt>
      <trkpt lat="41.6157590" lon="-8.7883370">
        <ele>54.4</ele>
        <time>2019-08-16T07:25:16Z</time>
      </trkpt>
      <trkpt lat="41.6157730" lon="-8.7883350">
        <ele>54.8</ele>
        <time>2019-08-16T07:25:17Z</time>
      </trkpt>
      <trkpt lat="41.6157900" lon="-8.7883360">
        <ele>55.2</ele>
        <time>2019-08-16T07:25:18Z</time>
      </trkpt>
      <trkpt lat="41.6158880" lon="-8.7883570">
        <ele>55.2</ele>
        <time>2019-08-16T07:25:26Z</time>
      </trkpt>
      <trkpt lat="41.6159510" lon="-8.7883650">
        <ele>55.6</ele>
        <time>2019-08-16T07:25:31Z</time>
      </trkpt>
      <trkpt lat="41.6159650" lon="-8.7883660">
        <ele>56.0</ele>
        <time>2019-08-16T07:25:32Z</time>
      </trkpt>
      <trkpt lat="41.6159770" lon="-8.7883670">
        <ele>56.6</ele>
        <time>2019-08-16T07:25:33Z</time>
      </trkpt>
      <trkpt lat="41.6159900" lon="-8.7883690">
        <ele>57.0</ele>
        <time>2019-08-16T07:25:34Z</time>
      </trkpt>
      <trkpt lat="41.6160050" lon="-8.7883700">
        <ele>57.4</ele>
        <time>2019-08-16T07:25:35Z</time>
      </trkpt>
      <trkpt lat="41.6160160" lon="-8.7883750">
        <ele>57.4</ele>
        <time>2019-08-16T07:25:36Z</time>
      </trkpt>
      <trkpt lat="41.6161590" lon="-8.7884010">
        <ele>57.4</ele>
        <time>2019-08-16T07:25:44Z</time>
      </trkpt>
      <trkpt lat="41.6162130" lon="-8.7884110">
        <ele>57.8</ele>
        <time>2019-08-16T07:25:47Z</time>
      </trkpt>
      <trkpt lat="41.6162300" lon="-8.7884210">
        <ele>58.2</ele>
        <time>2019-08-16T07:25:48Z</time>
      </trkpt>
      <trkpt lat="41.6162420" lon="-8.7884310">
        <ele>58.6</ele>
        <time>2019-08-16T07:25:49Z</time>
      </trkpt>
      <trkpt lat="41.6162560" lon="-8.7884440">
        <ele>59.0</ele>
        <time>2019-08-16T07:25:50Z</time>
      </trkpt>
      <trkpt lat="41.6162670" lon="-8.7884560">
        <ele>59.4</ele>
        <time>2019-08-16T07:25:51Z</time>
      </trkpt>
      <trkpt lat="41.6163010" lon="-8.7884930">
        <ele>59.4</ele>
        <time>2019-08-16T07:25:53Z</time>
      </trkpt>
      <trkpt lat="41.6164400" lon="-8.7885630">
        <ele>59.4</ele>
        <time>2019-08-16T07:26:03Z</time>
      </trkpt>
      <trkpt lat="41.6165080" lon="-8.7886630">
        <ele>59.4</ele>
        <time>2019-08-16T07:26:10Z</time>
      </trkpt>
      <trkpt lat="41.6165250" lon="-8.7886880">
        <ele>59.8</ele>
        <time>2019-08-16T07:26:11Z</time>
      </trkpt>
      <trkpt lat="41.6165440" lon="-8.7887080">
        <ele>60.2</ele>
        <time>2019-08-16T07:26:12Z</time>
      </trkpt>
      <trkpt lat="41.6165640" lon="-8.7887260">
        <ele>60.8</ele>
        <time>2019-08-16T07:26:13Z</time>
      </trkpt>
      <trkpt lat="41.6165850" lon="-8.7887410">
        <ele>61.2</ele>
        <time>2019-08-16T07:26:14Z</time>
      </trkpt>
      <trkpt lat="41.6166110" lon="-8.7887530">
        <ele>61.6</ele>
        <time>2019-08-16T07:26:15Z</time>
      </trkpt>
      <trkpt lat="41.6166710" lon="-8.7887890">
        <ele>61.6</ele>
        <time>2019-08-16T07:26:18Z</time>
      </trkpt>
      <trkpt lat="41.6168220" lon="-8.7888650">
        <ele>61.6</ele>
        <time>2019-08-16T07:26:26Z</time>
      </trkpt>
      <trkpt lat="41.6169130" lon="-8.7888470">
        <ele>61.6</ele>
        <time>2019-08-16T07:26:32Z</time>
      </trkpt>
      <trkpt lat="41.6169360" lon="-8.7888060">
        <ele>62.0</ele>
        <time>2019-08-16T07:26:35Z</time>
      </trkpt>
      <trkpt lat="41.6169390" lon="-8.7887870">
        <ele>62.4</ele>
        <time>2019-08-16T07:26:36Z</time>
      </trkpt>
      <trkpt lat="41.6169430" lon="-8.7887690">
        <ele>62.8</ele>
        <time>2019-08-16T07:26:37Z</time>
      </trkpt>
      <trkpt lat="41.6169340" lon="-8.7887450">
        <ele>63.2</ele>
        <time>2019-08-16T07:26:38Z</time>
      </trkpt>
      <trkpt lat="41.6169270" lon="-8.7887320">
        <ele>63.6</ele>
        <time>2019-08-16T07:26:39Z</time>
      </trkpt>
      <trkpt lat="41.6169230" lon="-8.7887190">
        <ele>63.6</ele>
        <time>2019-08-16T07:26:40Z</time>
      </trkpt>
      <trkpt lat="41.6169260" lon="-8.7886970">
        <ele>63.6</ele>
        <time>2019-08-16T07:26:43Z</time>
      </trkpt>
      <trkpt lat="41.6169130" lon="-8.7886690">
        <ele>63.6</ele>
        <time>2019-08-16T07:27:19Z</time>
      </trkpt>
      <trkpt lat="41.6169080" lon="-8.7886530">
        <ele>63.6</ele>
        <time>2019-08-16T07:27:21Z</time>
      </trkpt>
      <trkpt lat="41.6169170" lon="-8.7885870">
        <ele>63.6</ele>
        <time>2019-08-16T07:27:28Z</time>
      </trkpt>
      <trkpt lat="41.6169160" lon="-8.7885920">
        <ele>63.6</ele>
        <time>2019-08-16T07:27:35Z</time>
      </trkpt>
      <trkpt lat="41.6168990" lon="-8.7885950">
        <ele>63.6</ele>
        <time>2019-08-16T07:27:39Z</time>
      </trkpt>
      <trkpt lat="41.6169170" lon="-8.7885740">
        <ele>63.6</ele>
        <time>2019-08-16T07:31:06Z</time>
      </trkpt>
      <trkpt lat="41.6169250" lon="-8.7885660">
        <ele>63.6</ele>
        <time>2019-08-16T07:31:07Z</time>
      </trkpt>
      <trkpt lat="41.6170310" lon="-8.7884250">
        <ele>63.6</ele>
        <time>2019-08-16T07:31:17Z</time>
      </trkpt>
      <trkpt lat="41.6171880" lon="-8.7882880">
        <ele>63.6</ele>
        <time>2019-08-16T07:31:25Z</time>
      </trkpt>
      <trkpt lat="41.6173780" lon="-8.7881480">
        <ele>63.6</ele>
        <time>2019-08-16T07:31:32Z</time>
      </trkpt>
      <trkpt lat="41.6176390" lon="-8.7879610">
        <ele>63.6</ele>
        <time>2019-08-16T07:31:39Z</time>
      </trkpt>
      <trkpt lat="41.6179860" lon="-8.7876690">
        <ele>63.0</ele>
        <time>2019-08-16T07:31:46Z</time>
      </trkpt>
      <trkpt lat="41.6180360" lon="-8.7876190">
        <ele>62.6</ele>
        <time>2019-08-16T07:31:47Z</time>
      </trkpt>
      <trkpt lat="41.6180820" lon="-8.7875720">
        <ele>62.2</ele>
        <time>2019-08-16T07:31:48Z</time>
      </trkpt>
      <trkpt lat="41.6181290" lon="-8.7875380">
        <ele>61.6</ele>
        <time>2019-08-16T07:31:49Z</time>
      </trkpt>
      <trkpt lat="41.6181730" lon="-8.7875030">
        <ele>61.2</ele>
        <time>2019-08-16T07:31:50Z</time>
      </trkpt>
      <trkpt lat="41.6183160" lon="-8.7873990">
        <ele>61.2</ele>
        <time>2019-08-16T07:31:53Z</time>
      </trkpt>
      <trkpt lat="41.6183460" lon="-8.7873490">
        <ele>61.2</ele>
        <time>2019-08-16T07:31:54Z</time>
      </trkpt>
      <trkpt lat="41.6183820" lon="-8.7872460">
        <ele>60.8</ele>
        <time>2019-08-16T07:31:56Z</time>
      </trkpt>
      <trkpt lat="41.6184010" lon="-8.7872070">
        <ele>60.2</ele>
        <time>2019-08-16T07:31:57Z</time>
      </trkpt>
      <trkpt lat="41.6184230" lon="-8.7871820">
        <ele>59.8</ele>
        <time>2019-08-16T07:31:58Z</time>
      </trkpt>
      <trkpt lat="41.6184800" lon="-8.7872330">
        <ele>59.4</ele>
        <time>2019-08-16T07:31:59Z</time>
      </trkpt>
      <trkpt lat="41.6185130" lon="-8.7872560">
        <ele>59.0</ele>
        <time>2019-08-16T07:32:00Z</time>
      </trkpt>
      <trkpt lat="41.6186680" lon="-8.7873080">
        <ele>59.0</ele>
        <time>2019-08-16T07:32:04Z</time>
      </trkpt>
      <trkpt lat="41.6187110" lon="-8.7873010">
        <ele>59.0</ele>
        <time>2019-08-16T07:32:05Z</time>
      </trkpt>
      <trkpt lat="41.6187540" lon="-8.7872880">
        <ele>58.4</ele>
        <time>2019-08-16T07:32:06Z</time>
      </trkpt>
      <trkpt lat="41.6187950" lon="-8.7872780">
        <ele>58.0</ele>
        <time>2019-08-16T07:32:07Z</time>
      </trkpt>
      <trkpt lat="41.6188320" lon="-8.7872730">
        <ele>57.6</ele>
        <time>2019-08-16T07:32:08Z</time>
      </trkpt>
      <trkpt lat="41.6188680" lon="-8.7872820">
        <ele>57.2</ele>
        <time>2019-08-16T07:32:09Z</time>
      </trkpt>
      <trkpt lat="41.6189010" lon="-8.7872870">
        <ele>56.8</ele>
        <time>2019-08-16T07:32:10Z</time>
      </trkpt>
      <trkpt lat="41.6189760" lon="-8.7872840">
        <ele>56.8</ele>
        <time>2019-08-16T07:32:12Z</time>
      </trkpt>
      <trkpt lat="41.6191020" lon="-8.7872910">
        <ele>57.2</ele>
        <time>2019-08-16T07:32:16Z</time>
      </trkpt>
      <trkpt lat="41.6191290" lon="-8.7872930">
        <ele>57.6</ele>
        <time>2019-08-16T07:32:17Z</time>
      </trkpt>
      <trkpt lat="41.6191620" lon="-8.7872910">
        <ele>58.0</ele>
        <time>2019-08-16T07:32:18Z</time>
      </trkpt>
      <trkpt lat="41.6191910" lon="-8.7872940">
        <ele>58.4</ele>
        <time>2019-08-16T07:32:19Z</time>
      </trkpt>
      <trkpt lat="41.6192250" lon="-8.7873010">
        <ele>58.8</ele>
        <time>2019-08-16T07:32:20Z</time>
      </trkpt>
      <trkpt lat="41.6193800" lon="-8.7873450">
        <ele>58.8</ele>
        <time>2019-08-16T07:32:25Z</time>
      </trkpt>
      <trkpt lat="41.6194370" lon="-8.7873660">
        <ele>59.4</ele>
        <time>2019-08-16T07:32:27Z</time>
      </trkpt>
      <trkpt lat="41.6194670" lon="-8.7873720">
        <ele>59.8</ele>
        <time>2019-08-16T07:32:28Z</time>
      </trkpt>
      <trkpt lat="41.6194970" lon="-8.7873750">
        <ele>60.2</ele>
        <time>2019-08-16T07:32:29Z</time>
      </trkpt>
      <trkpt lat="41.6195250" lon="-8.7873800">
        <ele>60.8</ele>
        <time>2019-08-16T07:32:30Z</time>
      </trkpt>
      <trkpt lat="41.6195590" lon="-8.7873920">
        <ele>61.2</ele>
        <time>2019-08-16T07:32:31Z</time>
      </trkpt>
      <trkpt lat="41.6195910" lon="-8.7874090">
        <ele>61.2</ele>
        <time>2019-08-16T07:32:32Z</time>
      </trkpt>
      <trkpt lat="41.6197570" lon="-8.7875320">
        <ele>61.6</ele>
        <time>2019-08-16T07:32:38Z</time>
      </trkpt>
      <trkpt lat="41.6197890" lon="-8.7875510">
        <ele>62.0</ele>
        <time>2019-08-16T07:32:39Z</time>
      </trkpt>
      <trkpt lat="41.6198100" lon="-8.7875800">
        <ele>62.4</ele>
        <time>2019-08-16T07:32:40Z</time>
      </trkpt>
      <trkpt lat="41.6198290" lon="-8.7876060">
        <ele>62.8</ele>
        <time>2019-08-16T07:32:41Z</time>
      </trkpt>
      <trkpt lat="41.6198570" lon="-8.7876290">
        <ele>63.4</ele>
        <time>2019-08-16T07:32:42Z</time>
      </trkpt>
      <trkpt lat="41.6199660" lon="-8.7877750">
        <ele>63.4</ele>
        <time>2019-08-16T07:32:48Z</time>
      </trkpt>
      <trkpt lat="41.6199880" lon="-8.7878030">
        <ele>63.8</ele>
        <time>2019-08-16T07:32:49Z</time>
      </trkpt>
      <trkpt lat="41.6200140" lon="-8.7878300">
        <ele>64.2</ele>
        <time>2019-08-16T07:32:50Z</time>
      </trkpt>
      <trkpt lat="41.6200360" lon="-8.7878530">
        <ele>64.6</ele>
        <time>2019-08-16T07:32:51Z</time>
      </trkpt>
      <trkpt lat="41.6200570" lon="-8.7878740">
        <ele>65.0</ele>
        <time>2019-08-16T07:32:52Z</time>
      </trkpt>
      <trkpt lat="41.6200790" lon="-8.7878960">
        <ele>65.4</ele>
        <time>2019-08-16T07:32:53Z</time>
      </trkpt>
      <trkpt lat="41.6201190" lon="-8.7879450">
        <ele>65.4</ele>
        <time>2019-08-16T07:32:55Z</time>
      </trkpt>
      <trkpt lat="41.6202600" lon="-8.7881560">
        <ele>65.4</ele>
        <time>2019-08-16T07:33:03Z</time>
      </trkpt>
      <trkpt lat="41.6202740" lon="-8.7881830">
        <ele>65.8</ele>
        <time>2019-08-16T07:33:04Z</time>
      </trkpt>
      <trkpt lat="41.6202890" lon="-8.7881960">
        <ele>66.4</ele>
        <time>2019-08-16T07:33:05Z</time>
      </trkpt>
      <trkpt lat="41.6203040" lon="-8.7882180">
        <ele>66.8</ele>
        <time>2019-08-16T07:33:06Z</time>
      </trkpt>
      <trkpt lat="41.6203170" lon="-8.7882430">
        <ele>67.2</ele>
        <time>2019-08-16T07:33:07Z</time>
      </trkpt>
      <trkpt lat="41.6203270" lon="-8.7882690">
        <ele>67.6</ele>
        <time>2019-08-16T07:33:08Z</time>
      </trkpt>
      <trkpt lat="41.6203540" lon="-8.7883130">
        <ele>67.6</ele>
        <time>2019-08-16T07:33:10Z</time>
      </trkpt>
      <trkpt lat="41.6203650" lon="-8.7883340">
        <ele>68.0</ele>
        <time>2019-08-16T07:33:11Z</time>
      </trkpt>
      <trkpt lat="41.6203740" lon="-8.7883520">
        <ele>68.4</ele>
        <time>2019-08-16T07:33:12Z</time>
      </trkpt>
      <trkpt lat="41.6203850" lon="-8.7883700">
        <ele>69.0</ele>
        <time>2019-08-16T07:33:13Z</time>
      </trkpt>
      <trkpt lat="41.6204010" lon="-8.7883890">
        <ele>69.4</ele>
        <time>2019-08-16T07:33:14Z</time>
      </trkpt>
      <trkpt lat="41.6204170" lon="-8.7884070">
        <ele>69.8</ele>
        <time>2019-08-16T07:33:15Z</time>
      </trkpt>
      <trkpt lat="41.6204540" lon="-8.7884370">
        <ele>69.8</ele>
        <time>2019-08-16T07:33:17Z</time>
      </trkpt>
      <trkpt lat="41.6206500" lon="-8.7885060">
        <ele>69.8</ele>
        <time>2019-08-16T07:33:25Z</time>
      </trkpt>
      <trkpt lat="41.6208600" lon="-8.7885730">
        <ele>70.2</ele>
        <time>2019-08-16T07:33:33Z</time>
      </trkpt>
      <trkpt lat="41.6208900" lon="-8.7885820">
        <ele>70.8</ele>
        <time>2019-08-16T07:33:34Z</time>
      </trkpt>
      <trkpt lat="41.6209200" lon="-8.7885890">
        <ele>71.2</ele>
        <time>2019-08-16T07:33:35Z</time>
      </trkpt>
      <trkpt lat="41.6209460" lon="-8.7886000">
        <ele>71.6</ele>
        <time>2019-08-16T07:33:36Z</time>
      </trkpt>
      <trkpt lat="41.6209760" lon="-8.7886130">
        <ele>72.2</ele>
        <time>2019-08-16T07:33:37Z</time>
      </trkpt>
      <trkpt lat="41.6211730" lon="-8.7887020">
        <ele>72.2</ele>
        <time>2019-08-16T07:33:45Z</time>
      </trkpt>
      <trkpt lat="41.6214270" lon="-8.7888190">
        <ele>72.2</ele>
        <time>2019-08-16T07:33:54Z</time>
      </trkpt>
      <trkpt lat="41.6214740" lon="-8.7888350">
        <ele>72.6</ele>
        <time>2019-08-16T07:33:56Z</time>
      </trkpt>
      <trkpt lat="41.6215000" lon="-8.7888360">
        <ele>73.0</ele>
        <time>2019-08-16T07:33:57Z</time>
      </trkpt>
      <trkpt lat="41.6215260" lon="-8.7888390">
        <ele>73.4</ele>
        <time>2019-08-16T07:33:58Z</time>
      </trkpt>
      <trkpt lat="41.6215490" lon="-8.7888380">
        <ele>73.8</ele>
        <time>2019-08-16T07:33:59Z</time>
      </trkpt>
      <trkpt lat="41.6215740" lon="-8.7888260">
        <ele>74.2</ele>
        <time>2019-08-16T07:34:00Z</time>
      </trkpt>
      <trkpt lat="41.6216880" lon="-8.7887040">
        <ele>74.6</ele>
        <time>2019-08-16T07:34:06Z</time>
      </trkpt>
      <trkpt lat="41.6216950" lon="-8.7886830">
        <ele>75.0</ele>
        <time>2019-08-16T07:34:07Z</time>
      </trkpt>
      <trkpt lat="41.6217040" lon="-8.7886590">
        <ele>75.4</ele>
        <time>2019-08-16T07:34:08Z</time>
      </trkpt>
      <trkpt lat="41.6217140" lon="-8.7886370">
        <ele>76.0</ele>
        <time>2019-08-16T07:34:09Z</time>
      </trkpt>
      <trkpt lat="41.6217200" lon="-8.7886060">
        <ele>76.4</ele>
        <time>2019-08-16T07:34:10Z</time>
      </trkpt>
      <trkpt lat="41.6217760" lon="-8.7885380">
        <ele>76.4</ele>
        <time>2019-08-16T07:34:13Z</time>
      </trkpt>
      <trkpt lat="41.6218030" lon="-8.7885340">
        <ele>76.4</ele>
        <time>2019-08-16T07:34:14Z</time>
      </trkpt>
      <trkpt lat="41.6218810" lon="-8.7885390">
        <ele>76.4</ele>
        <time>2019-08-16T07:34:17Z</time>
      </trkpt>
      <trkpt lat="41.6218870" lon="-8.7885570">
        <ele>76.4</ele>
        <time>2019-08-16T07:34:19Z</time>
      </trkpt>
      <trkpt lat="41.6219920" lon="-8.7886100">
        <ele>76.8</ele>
        <time>2019-08-16T07:34:26Z</time>
      </trkpt>
      <trkpt lat="41.6220100" lon="-8.7886140">
        <ele>77.2</ele>
        <time>2019-08-16T07:34:27Z</time>
      </trkpt>
      <trkpt lat="41.6220220" lon="-8.7886200">
        <ele>77.6</ele>
        <time>2019-08-16T07:34:28Z</time>
      </trkpt>
      <trkpt lat="41.6220380" lon="-8.7886190">
        <ele>78.0</ele>
        <time>2019-08-16T07:34:29Z</time>
      </trkpt>
      <trkpt lat="41.6220520" lon="-8.7886230">
        <ele>78.4</ele>
        <time>2019-08-16T07:34:30Z</time>
      </trkpt>
      <trkpt lat="41.6221510" lon="-8.7886440">
        <ele>78.4</ele>
        <time>2019-08-16T07:34:36Z</time>
      </trkpt>
      <trkpt lat="41.6222220" lon="-8.7886400">
        <ele>78.8</ele>
        <time>2019-08-16T07:34:40Z</time>
      </trkpt>
      <trkpt lat="41.6222370" lon="-8.7886380">
        <ele>79.4</ele>
        <time>2019-08-16T07:34:41Z</time>
      </trkpt>
      <trkpt lat="41.6222530" lon="-8.7886360">
        <ele>79.8</ele>
        <time>2019-08-16T07:34:42Z</time>
      </trkpt>
      <trkpt lat="41.6222710" lon="-8.7886380">
        <ele>80.2</ele>
        <time>2019-08-16T07:34:43Z</time>
      </trkpt>
      <trkpt lat="41.6222820" lon="-8.7886460">
        <ele>80.6</ele>
        <time>2019-08-16T07:34:44Z</time>
      </trkpt>
      <trkpt lat="41.6223490" lon="-8.7886640">
        <ele>80.6</ele>
        <time>2019-08-16T07:34:47Z</time>
      </trkpt>
      <trkpt lat="41.6223700" lon="-8.7886650">
        <ele>80.6</ele>
        <time>2019-08-16T07:34:48Z</time>
      </trkpt>
      <trkpt lat="41.6225010" lon="-8.7886210">
        <ele>81.0</ele>
        <time>2019-08-16T07:34:55Z</time>
      </trkpt>
      <trkpt lat="41.6225200" lon="-8.7886310">
        <ele>81.6</ele>
        <time>2019-08-16T07:34:56Z</time>
      </trkpt>
      <trkpt lat="41.6225410" lon="-8.7886420">
        <ele>82.0</ele>
        <time>2019-08-16T07:34:57Z</time>
      </trkpt>
      <trkpt lat="41.6225610" lon="-8.7886560">
        <ele>82.4</ele>
        <time>2019-08-16T07:34:58Z</time>
      </trkpt>
      <trkpt lat="41.6225800" lon="-8.7886640">
        <ele>82.8</ele>
        <time>2019-08-16T07:34:59Z</time>
      </trkpt>
      <trkpt lat="41.6226580" lon="-8.7887010">
        <ele>83.2</ele>
        <time>2019-08-16T07:35:04Z</time>
      </trkpt>
      <trkpt lat="41.6226740" lon="-8.7887080">
        <ele>83.6</ele>
        <time>2019-08-16T07:35:05Z</time>
      </trkpt>
      <trkpt lat="41.6226900" lon="-8.7887090">
        <ele>84.0</ele>
        <time>2019-08-16T07:35:06Z</time>
      </trkpt>
      <trkpt lat="41.6227060" lon="-8.7887150">
        <ele>84.6</ele>
        <time>2019-08-16T07:35:07Z</time>
      </trkpt>
      <trkpt lat="41.6227190" lon="-8.7887220">
        <ele>85.0</ele>
        <time>2019-08-16T07:35:08Z</time>
      </trkpt>
      <trkpt lat="41.6228270" lon="-8.7887970">
        <ele>85.0</ele>
        <time>2019-08-16T07:35:13Z</time>
      </trkpt>
      <trkpt lat="41.6228940" lon="-8.7888520">
        <ele>85.4</ele>
        <time>2019-08-16T07:35:17Z</time>
      </trkpt>
      <trkpt lat="41.6229090" lon="-8.7888720">
        <ele>85.8</ele>
        <time>2019-08-16T07:35:18Z</time>
      </trkpt>
      <trkpt lat="41.6229220" lon="-8.7888890">
        <ele>86.2</ele>
        <time>2019-08-16T07:35:19Z</time>
      </trkpt>
      <trkpt lat="41.6229300" lon="-8.7889130">
        <ele>86.6</ele>
        <time>2019-08-16T07:35:20Z</time>
      </trkpt>
      <trkpt lat="41.6229530" lon="-8.7889440">
        <ele>87.0</ele>
        <time>2019-08-16T07:35:21Z</time>
      </trkpt>
      <trkpt lat="41.6229650" lon="-8.7889680">
        <ele>87.0</ele>
        <time>2019-08-16T07:35:22Z</time>
      </trkpt>
      <trkpt lat="41.6230980" lon="-8.7890700">
        <ele>87.0</ele>
        <time>2019-08-16T07:35:29Z</time>
      </trkpt>
      <trkpt lat="41.6232470" lon="-8.7890380">
        <ele>87.0</ele>
        <time>2019-08-16T07:35:34Z</time>
      </trkpt>
      <trkpt lat="41.6234260" lon="-8.7889410">
        <ele>87.0</ele>
        <time>2019-08-16T07:35:41Z</time>
      </trkpt>
      <trkpt lat="41.6235570" lon="-8.7889820">
        <ele>87.0</ele>
        <time>2019-08-16T07:35:47Z</time>
      </trkpt>
      <trkpt lat="41.6236290" lon="-8.7890260">
        <ele>87.6</ele>
        <time>2019-08-16T07:35:51Z</time>
      </trkpt>
      <trkpt lat="41.6236430" lon="-8.7890360">
        <ele>88.0</ele>
        <time>2019-08-16T07:35:52Z</time>
      </trkpt>
      <trkpt lat="41.6236580" lon="-8.7890510">
        <ele>88.4</ele>
        <time>2019-08-16T07:35:53Z</time>
      </trkpt>
      <trkpt lat="41.6236760" lon="-8.7890640">
        <ele>89.0</ele>
        <time>2019-08-16T07:35:54Z</time>
      </trkpt>
      <trkpt lat="41.6236910" lon="-8.7890780">
        <ele>89.0</ele>
        <time>2019-08-16T07:35:55Z</time>
      </trkpt>
      <trkpt lat="41.6237080" lon="-8.7890850">
        <ele>89.4</ele>
        <time>2019-08-16T07:35:56Z</time>
      </trkpt>
      <trkpt lat="41.6238430" lon="-8.7891530">
        <ele>90.4</ele>
        <time>2019-08-16T07:36:04Z</time>
      </trkpt>
      <trkpt lat="41.6238600" lon="-8.7891570">
        <ele>90.4</ele>
        <time>2019-08-16T07:36:05Z</time>
      </trkpt>
      <trkpt lat="41.6238760" lon="-8.7891550">
        <ele>91.2</ele>
        <time>2019-08-16T07:36:06Z</time>
      </trkpt>
      <trkpt lat="41.6239060" lon="-8.7891460">
        <ele>91.8</ele>
        <time>2019-08-16T07:36:08Z</time>
      </trkpt>
      <trkpt lat="41.6239510" lon="-8.7891190">
        <ele>91.8</ele>
        <time>2019-08-16T07:36:11Z</time>
      </trkpt>
      <trkpt lat="41.6239700" lon="-8.7891130">
        <ele>92.2</ele>
        <time>2019-08-16T07:36:12Z</time>
      </trkpt>
      <trkpt lat="41.6239830" lon="-8.7890980">
        <ele>93.0</ele>
        <time>2019-08-16T07:36:13Z</time>
      </trkpt>
      <trkpt lat="41.6240080" lon="-8.7890680">
        <ele>93.4</ele>
        <time>2019-08-16T07:36:15Z</time>
      </trkpt>
      <trkpt lat="41.6240150" lon="-8.7890530">
        <ele>93.8</ele>
        <time>2019-08-16T07:36:16Z</time>
      </trkpt>
      <trkpt lat="41.6240410" lon="-8.7890060">
        <ele>94.2</ele>
        <time>2019-08-16T07:36:19Z</time>
      </trkpt>
      <trkpt lat="41.6240540" lon="-8.7889900">
        <ele>94.6</ele>
        <time>2019-08-16T07:36:20Z</time>
      </trkpt>
      <trkpt lat="41.6240680" lon="-8.7889730">
        <ele>95.0</ele>
        <time>2019-08-16T07:36:21Z</time>
      </trkpt>
      <trkpt lat="41.6240890" lon="-8.7889560">
        <ele>95.4</ele>
        <time>2019-08-16T07:36:22Z</time>
      </trkpt>
      <trkpt lat="41.6241070" lon="-8.7889410">
        <ele>95.8</ele>
        <time>2019-08-16T07:36:23Z</time>
      </trkpt>
      <trkpt lat="41.6241900" lon="-8.7888960">
        <ele>96.2</ele>
        <time>2019-08-16T07:36:28Z</time>
      </trkpt>
      <trkpt lat="41.6242070" lon="-8.7888960">
        <ele>96.6</ele>
        <time>2019-08-16T07:36:29Z</time>
      </trkpt>
      <trkpt lat="41.6242240" lon="-8.7888950">
        <ele>97.0</ele>
        <time>2019-08-16T07:36:30Z</time>
      </trkpt>
      <trkpt lat="41.6242350" lon="-8.7888960">
        <ele>97.4</ele>
        <time>2019-08-16T07:36:31Z</time>
      </trkpt>
      <trkpt lat="41.6242450" lon="-8.7889000">
        <ele>98.0</ele>
        <time>2019-08-16T07:36:32Z</time>
      </trkpt>
      <trkpt lat="41.6243190" lon="-8.7889960">
        <ele>98.0</ele>
        <time>2019-08-16T07:36:38Z</time>
      </trkpt>
      <trkpt lat="41.6243250" lon="-8.7890120">
        <ele>98.4</ele>
        <time>2019-08-16T07:36:39Z</time>
      </trkpt>
      <trkpt lat="41.6243320" lon="-8.7890310">
        <ele>98.8</ele>
        <time>2019-08-16T07:36:40Z</time>
      </trkpt>
      <trkpt lat="41.6243370" lon="-8.7890500">
        <ele>99.4</ele>
        <time>2019-08-16T07:36:41Z</time>
      </trkpt>
      <trkpt lat="41.6243420" lon="-8.7890720">
        <ele>99.8</ele>
        <time>2019-08-16T07:36:42Z</time>
      </trkpt>
      <trkpt lat="41.6243450" lon="-8.7890940">
        <ele>100.2</ele>
        <time>2019-08-16T07:36:43Z</time>
      </trkpt>
      <trkpt lat="41.6243570" lon="-8.7891910">
        <ele>100.2</ele>
        <time>2019-08-16T07:36:47Z</time>
      </trkpt>
      <trkpt lat="41.6243880" lon="-8.7893330">
        <ele>100.8</ele>
        <time>2019-08-16T07:36:53Z</time>
      </trkpt>
      <trkpt lat="41.6243980" lon="-8.7893460">
        <ele>101.2</ele>
        <time>2019-08-16T07:36:54Z</time>
      </trkpt>
      <trkpt lat="41.6244030" lon="-8.7893700">
        <ele>101.6</ele>
        <time>2019-08-16T07:36:55Z</time>
      </trkpt>
      <trkpt lat="41.6244070" lon="-8.7893950">
        <ele>102.0</ele>
        <time>2019-08-16T07:36:56Z</time>
      </trkpt>
      <trkpt lat="41.6244110" lon="-8.7894170">
        <ele>102.4</ele>
        <time>2019-08-16T07:36:57Z</time>
      </trkpt>
      <trkpt lat="41.6244140" lon="-8.7894420">
        <ele>102.4</ele>
        <time>2019-08-16T07:36:58Z</time>
      </trkpt>
      <trkpt lat="41.6244420" lon="-8.7895730">
        <ele>103.0</ele>
        <time>2019-08-16T07:37:04Z</time>
      </trkpt>
      <trkpt lat="41.6244490" lon="-8.7895960">
        <ele>103.4</ele>
        <time>2019-08-16T07:37:05Z</time>
      </trkpt>
      <trkpt lat="41.6244560" lon="-8.7896160">
        <ele>103.8</ele>
        <time>2019-08-16T07:37:06Z</time>
      </trkpt>
      <trkpt lat="41.6244650" lon="-8.7896360">
        <ele>104.4</ele>
        <time>2019-08-16T07:37:07Z</time>
      </trkpt>
      <trkpt lat="41.6244750" lon="-8.7896540">
        <ele>104.8</ele>
        <time>2019-08-16T07:37:08Z</time>
      </trkpt>
      <trkpt lat="41.6245390" lon="-8.7897090">
        <ele>104.8</ele>
        <time>2019-08-16T07:37:13Z</time>
      </trkpt>
      <trkpt lat="41.6245700" lon="-8.7897130">
        <ele>105.2</ele>
        <time>2019-08-16T07:37:15Z</time>
      </trkpt>
      <trkpt lat="41.6245880" lon="-8.7897060">
        <ele>105.6</ele>
        <time>2019-08-16T07:37:16Z</time>
      </trkpt>
      <trkpt lat="41.6246040" lon="-8.7896920">
        <ele>106.0</ele>
        <time>2019-08-16T07:37:17Z</time>
      </trkpt>
      <trkpt lat="41.6246180" lon="-8.7896830">
        <ele>106.4</ele>
        <time>2019-08-16T07:37:18Z</time>
      </trkpt>
      <trkpt lat="41.6246310" lon="-8.7896710">
        <ele>106.8</ele>
        <time>2019-08-16T07:37:19Z</time>
      </trkpt>
      <trkpt lat="41.6247030" lon="-8.7896010">
        <ele>107.4</ele>
        <time>2019-08-16T07:37:25Z</time>
      </trkpt>
      <trkpt lat="41.6247150" lon="-8.7895900">
        <ele>107.8</ele>
        <time>2019-08-16T07:37:26Z</time>
      </trkpt>
      <trkpt lat="41.6247240" lon="-8.7895790">
        <ele>108.2</ele>
        <time>2019-08-16T07:37:27Z</time>
      </trkpt>
      <trkpt lat="41.6247320" lon="-8.7895640">
        <ele>108.6</ele>
        <time>2019-08-16T07:37:28Z</time>
      </trkpt>
      <trkpt lat="41.6247420" lon="-8.7895530">
        <ele>109.2</ele>
        <time>2019-08-16T07:37:29Z</time>
      </trkpt>
      <trkpt lat="41.6247530" lon="-8.7895420">
        <ele>109.2</ele>
        <time>2019-08-16T07:37:30Z</time>
      </trkpt>
      <trkpt lat="41.6247990" lon="-8.7894780">
        <ele>109.6</ele>
        <time>2019-08-16T07:37:35Z</time>
      </trkpt>
      <trkpt lat="41.6248080" lon="-8.7894670">
        <ele>110.0</ele>
        <time>2019-08-16T07:37:36Z</time>
      </trkpt>
      <trkpt lat="41.6248280" lon="-8.7894450">
        <ele>110.4</ele>
        <time>2019-08-16T07:37:38Z</time>
      </trkpt>
      <trkpt lat="41.6248350" lon="-8.7894320">
        <ele>110.8</ele>
        <time>2019-08-16T07:37:39Z</time>
      </trkpt>
      <trkpt lat="41.6248390" lon="-8.7894150">
        <ele>111.2</ele>
        <time>2019-08-16T07:37:40Z</time>
      </trkpt>
      <trkpt lat="41.6248680" lon="-8.7893530">
        <ele>111.6</ele>
        <time>2019-08-16T07:37:44Z</time>
      </trkpt>
      <trkpt lat="41.6248760" lon="-8.7893380">
        <ele>112.0</ele>
        <time>2019-08-16T07:37:45Z</time>
      </trkpt>
      <trkpt lat="41.6248850" lon="-8.7893240">
        <ele>112.6</ele>
        <time>2019-08-16T07:37:46Z</time>
      </trkpt>
      <trkpt lat="41.6248950" lon="-8.7893120">
        <ele>113.0</ele>
        <time>2019-08-16T07:37:47Z</time>
      </trkpt>
      <trkpt lat="41.6249040" lon="-8.7893010">
        <ele>113.4</ele>
        <time>2019-08-16T07:37:48Z</time>
      </trkpt>
      <trkpt lat="41.6249110" lon="-8.7892860">
        <ele>113.4</ele>
        <time>2019-08-16T07:37:49Z</time>
      </trkpt>
      <trkpt lat="41.6249720" lon="-8.7891780">
        <ele>114.2</ele>
        <time>2019-08-16T07:37:56Z</time>
      </trkpt>
      <trkpt lat="41.6249810" lon="-8.7891510">
        <ele>114.6</ele>
        <time>2019-08-16T07:37:58Z</time>
      </trkpt>
      <trkpt lat="41.6249890" lon="-8.7891370">
        <ele>115.4</ele>
        <time>2019-08-16T07:37:59Z</time>
      </trkpt>
      <trkpt lat="41.6250370" lon="-8.7890560">
        <ele>115.4</ele>
        <time>2019-08-16T07:38:04Z</time>
      </trkpt>
      <trkpt lat="41.6250620" lon="-8.7890260">
        <ele>116.2</ele>
        <time>2019-08-16T07:38:06Z</time>
      </trkpt>
      <trkpt lat="41.6250770" lon="-8.7890140">
        <ele>116.6</ele>
        <time>2019-08-16T07:38:07Z</time>
      </trkpt>
      <trkpt lat="41.6250930" lon="-8.7890090">
        <ele>117.2</ele>
        <time>2019-08-16T07:38:08Z</time>
      </trkpt>
      <trkpt lat="41.6251140" lon="-8.7890120">
        <ele>117.6</ele>
        <time>2019-08-16T07:38:09Z</time>
      </trkpt>
      <trkpt lat="41.6251460" lon="-8.7890450">
        <ele>117.6</ele>
        <time>2019-08-16T07:38:11Z</time>
      </trkpt>
      <trkpt lat="41.6251320" lon="-8.7891350">
        <ele>117.6</ele>
        <time>2019-08-16T07:38:18Z</time>
      </trkpt>
      <trkpt lat="41.6251160" lon="-8.7892360">
        <ele>119.6</ele>
        <time>2019-08-16T07:39:17Z</time>
      </trkpt>
      <trkpt lat="41.6250970" lon="-8.7893160">
        <ele>119.6</ele>
        <time>2019-08-16T07:39:19Z</time>
      </trkpt>
      <trkpt lat="41.6250890" lon="-8.7893820">
        <ele>119.6</ele>
        <time>2019-08-16T07:39:21Z</time>
      </trkpt>
      <trkpt lat="41.6250780" lon="-8.7895050">
        <ele>119.6</ele>
        <time>2019-08-16T07:39:25Z</time>
      </trkpt>
      <trkpt lat="41.6250510" lon="-8.7897660">
        <ele>119.6</ele>
        <time>2019-08-16T07:39:34Z</time>
      </trkpt>
      <trkpt lat="41.6250800" lon="-8.7898040">
        <ele>119.6</ele>
        <time>2019-08-16T07:39:36Z</time>
      </trkpt>
      <trkpt lat="41.6251210" lon="-8.7898240">
        <ele>119.6</ele>
        <time>2019-08-16T07:39:38Z</time>
      </trkpt>
      <trkpt lat="41.6252260" lon="-8.7898300">
        <ele>120.0</ele>
        <time>2019-08-16T07:39:44Z</time>
      </trkpt>
      <trkpt lat="41.6252440" lon="-8.7898290">
        <ele>120.0</ele>
        <time>2019-08-16T07:39:45Z</time>
      </trkpt>
      <trkpt lat="41.6252610" lon="-8.7898280">
        <ele>120.8</ele>
        <time>2019-08-16T07:39:46Z</time>
      </trkpt>
      <trkpt lat="41.6252740" lon="-8.7898310">
        <ele>121.2</ele>
        <time>2019-08-16T07:39:47Z</time>
      </trkpt>
      <trkpt lat="41.6252790" lon="-8.7898300">
        <ele>121.6</ele>
        <time>2019-08-16T07:39:48Z</time>
      </trkpt>
      <trkpt lat="41.6253280" lon="-8.7898070">
        <ele>121.6</ele>
        <time>2019-08-16T07:39:51Z</time>
      </trkpt>
      <trkpt lat="41.6253490" lon="-8.7897950">
        <ele>122.2</ele>
        <time>2019-08-16T07:39:52Z</time>
      </trkpt>
      <trkpt lat="41.6253700" lon="-8.7897850">
        <ele>122.6</ele>
        <time>2019-08-16T07:39:53Z</time>
      </trkpt>
      <trkpt lat="41.6253840" lon="-8.7897760">
        <ele>123.2</ele>
        <time>2019-08-16T07:39:54Z</time>
      </trkpt>
      <trkpt lat="41.6253960" lon="-8.7897650">
        <ele>123.6</ele>
        <time>2019-08-16T07:39:55Z</time>
      </trkpt>
      <trkpt lat="41.6254060" lon="-8.7897510">
        <ele>124.0</ele>
        <time>2019-08-16T07:39:56Z</time>
      </trkpt>
      <trkpt lat="41.6254150" lon="-8.7897480">
        <ele>124.0</ele>
        <time>2019-08-16T07:39:57Z</time>
      </trkpt>
      <trkpt lat="41.6254360" lon="-8.7897330">
        <ele>124.4</ele>
        <time>2019-08-16T07:39:59Z</time>
      </trkpt>
      <trkpt lat="41.6254500" lon="-8.7897320">
        <ele>124.8</ele>
        <time>2019-08-16T07:40:00Z</time>
      </trkpt>
      <trkpt lat="41.6254610" lon="-8.7897280">
        <ele>125.4</ele>
        <time>2019-08-16T07:40:01Z</time>
      </trkpt>
      <trkpt lat="41.6254730" lon="-8.7897270">
        <ele>125.8</ele>
        <time>2019-08-16T07:40:02Z</time>
      </trkpt>
      <trkpt lat="41.6254890" lon="-8.7897350">
        <ele>126.2</ele>
        <time>2019-08-16T07:40:03Z</time>
      </trkpt>
      <trkpt lat="41.6255150" lon="-8.7897400">
        <ele>126.2</ele>
        <time>2019-08-16T07:40:05Z</time>
      </trkpt>
      <trkpt lat="41.6255820" lon="-8.7897490">
        <ele>126.6</ele>
        <time>2019-08-16T07:40:11Z</time>
      </trkpt>
      <trkpt lat="41.6255970" lon="-8.7897440">
        <ele>127.0</ele>
        <time>2019-08-16T07:40:12Z</time>
      </trkpt>
      <trkpt lat="41.6256120" lon="-8.7897380">
        <ele>127.6</ele>
        <time>2019-08-16T07:40:13Z</time>
      </trkpt>
      <trkpt lat="41.6256250" lon="-8.7897320">
        <ele>128.0</ele>
        <time>2019-08-16T07:40:14Z</time>
      </trkpt>
      <trkpt lat="41.6256350" lon="-8.7897240">
        <ele>128.6</ele>
        <time>2019-08-16T07:40:15Z</time>
      </trkpt>
      <trkpt lat="41.6256720" lon="-8.7896860">
        <ele>128.6</ele>
        <time>2019-08-16T07:40:19Z</time>
      </trkpt>
      <trkpt lat="41.6256960" lon="-8.7896600">
        <ele>129.0</ele>
        <time>2019-08-16T07:40:20Z</time>
      </trkpt>
      <trkpt lat="41.6257100" lon="-8.7896460">
        <ele>129.4</ele>
        <time>2019-08-16T07:40:21Z</time>
      </trkpt>
      <trkpt lat="41.6257170" lon="-8.7896320">
        <ele>129.8</ele>
        <time>2019-08-16T07:40:22Z</time>
      </trkpt>
      <trkpt lat="41.6257340" lon="-8.7896370">
        <ele>130.2</ele>
        <time>2019-08-16T07:40:23Z</time>
      </trkpt>
      <trkpt lat="41.6257410" lon="-8.7896210">
        <ele>130.6</ele>
        <time>2019-08-16T07:40:24Z</time>
      </trkpt>
      <trkpt lat="41.6257480" lon="-8.7896020">
        <ele>130.6</ele>
        <time>2019-08-16T07:40:25Z</time>
      </trkpt>
      <trkpt lat="41.6258500" lon="-8.7895150">
        <ele>130.6</ele>
        <time>2019-08-16T07:40:32Z</time>
      </trkpt>
      <trkpt lat="41.6259630" lon="-8.7893840">
        <ele>130.6</ele>
        <time>2019-08-16T07:40:40Z</time>
      </trkpt>
      <trkpt lat="41.6261070" lon="-8.7893390">
        <ele>130.6</ele>
        <time>2019-08-16T07:40:47Z</time>
      </trkpt>
      <trkpt lat="41.6262450" lon="-8.7893020">
        <ele>130.6</ele>
        <time>2019-08-16T07:40:53Z</time>
      </trkpt>
      <trkpt lat="41.6263570" lon="-8.7892640">
        <ele>130.6</ele>
        <time>2019-08-16T07:40:59Z</time>
      </trkpt>
      <trkpt lat="41.6265180" lon="-8.7892220">
        <ele>130.6</ele>
        <time>2019-08-16T07:41:08Z</time>
      </trkpt>
      <trkpt lat="41.6266080" lon="-8.7891130">
        <ele>130.6</ele>
        <time>2019-08-16T07:41:16Z</time>
      </trkpt>
      <trkpt lat="41.6266810" lon="-8.7889590">
        <ele>130.6</ele>
        <time>2019-08-16T07:41:22Z</time>
      </trkpt>
      <trkpt lat="41.6267380" lon="-8.7888010">
        <ele>130.6</ele>
        <time>2019-08-16T07:41:27Z</time>
      </trkpt>
      <trkpt lat="41.6267250" lon="-8.7886040">
        <ele>130.6</ele>
        <time>2019-08-16T07:41:33Z</time>
      </trkpt>
      <trkpt lat="41.6267130" lon="-8.7885090">
        <ele>130.2</ele>
        <time>2019-08-16T07:41:36Z</time>
      </trkpt>
      <trkpt lat="41.6267090" lon="-8.7884850">
        <ele>129.8</ele>
        <time>2019-08-16T07:41:37Z</time>
      </trkpt>
      <trkpt lat="41.6267090" lon="-8.7884680">
        <ele>129.4</ele>
        <time>2019-08-16T07:41:38Z</time>
      </trkpt>
      <trkpt lat="41.6267110" lon="-8.7884320">
        <ele>129.0</ele>
        <time>2019-08-16T07:41:39Z</time>
      </trkpt>
      <trkpt lat="41.6267180" lon="-8.7884120">
        <ele>128.6</ele>
        <time>2019-08-16T07:41:40Z</time>
      </trkpt>
      <trkpt lat="41.6267540" lon="-8.7882200">
        <ele>128.0</ele>
        <time>2019-08-16T07:41:46Z</time>
      </trkpt>
      <trkpt lat="41.6267710" lon="-8.7881890">
        <ele>127.6</ele>
        <time>2019-08-16T07:41:47Z</time>
      </trkpt>
      <trkpt lat="41.6267750" lon="-8.7881630">
        <ele>127.2</ele>
        <time>2019-08-16T07:41:48Z</time>
      </trkpt>
      <trkpt lat="41.6267700" lon="-8.7881360">
        <ele>126.8</ele>
        <time>2019-08-16T07:41:49Z</time>
      </trkpt>
      <trkpt lat="41.6267520" lon="-8.7880840">
        <ele>126.4</ele>
        <time>2019-08-16T07:41:51Z</time>
      </trkpt>
      <trkpt lat="41.6266990" lon="-8.7879700">
        <ele>125.8</ele>
        <time>2019-08-16T07:41:54Z</time>
      </trkpt>
      <trkpt lat="41.6266740" lon="-8.7879510">
        <ele>125.4</ele>
        <time>2019-08-16T07:41:55Z</time>
      </trkpt>
      <trkpt lat="41.6266290" lon="-8.7879270">
        <ele>125.0</ele>
        <time>2019-08-16T07:41:56Z</time>
      </trkpt>
      <trkpt lat="41.6265970" lon="-8.7879140">
        <ele>124.4</ele>
        <time>2019-08-16T07:41:57Z</time>
      </trkpt>
      <trkpt lat="41.6265650" lon="-8.7879110">
        <ele>124.0</ele>
        <time>2019-08-16T07:41:58Z</time>
      </trkpt>
      <trkpt lat="41.6264390" lon="-8.7879510">
        <ele>124.0</ele>
        <time>2019-08-16T07:42:02Z</time>
      </trkpt>
      <trkpt lat="41.6264080" lon="-8.7879760">
        <ele>124.0</ele>
        <time>2019-08-16T07:42:03Z</time>
      </trkpt>
      <trkpt lat="41.6263810" lon="-8.7880010">
        <ele>124.0</ele>
        <time>2019-08-16T07:42:04Z</time>
      </trkpt>
      <trkpt lat="41.6262540" lon="-8.7880660">
        <ele>123.6</ele>
        <time>2019-08-16T07:42:09Z</time>
      </trkpt>
      <trkpt lat="41.6262270" lon="-8.7880470">
        <ele>123.2</ele>
        <time>2019-08-16T07:42:10Z</time>
      </trkpt>
      <trkpt lat="41.6262050" lon="-8.7880170">
        <ele>122.8</ele>
        <time>2019-08-16T07:42:11Z</time>
      </trkpt>
      <trkpt lat="41.6261710" lon="-8.7879690">
        <ele>122.2</ele>
        <time>2019-08-16T07:42:12Z</time>
      </trkpt>
      <trkpt lat="41.6261460" lon="-8.7879280">
        <ele>121.8</ele>
        <time>2019-08-16T07:42:13Z</time>
      </trkpt>
      <trkpt lat="41.6261210" lon="-8.7878840">
        <ele>121.8</ele>
        <time>2019-08-16T07:42:14Z</time>
      </trkpt>
      <trkpt lat="41.6260880" lon="-8.7878360">
        <ele>121.4</ele>
        <time>2019-08-16T07:42:15Z</time>
      </trkpt>
      <trkpt lat="41.6260590" lon="-8.7877910">
        <ele>121.0</ele>
        <time>2019-08-16T07:42:16Z</time>
      </trkpt>
      <trkpt lat="41.6260250" lon="-8.7877280">
        <ele>120.6</ele>
        <time>2019-08-16T07:42:17Z</time>
      </trkpt>
      <trkpt lat="41.6260020" lon="-8.7876760">
        <ele>120.2</ele>
        <time>2019-08-16T07:42:18Z</time>
      </trkpt>
      <trkpt lat="41.6259780" lon="-8.7876310">
        <ele>119.8</ele>
        <time>2019-08-16T07:42:19Z</time>
      </trkpt>
      <trkpt lat="41.6259210" lon="-8.7874640">
        <ele>119.2</ele>
        <time>2019-08-16T07:42:23Z</time>
      </trkpt>
      <trkpt lat="41.6258700" lon="-8.7873780">
        <ele>118.8</ele>
        <time>2019-08-16T07:42:24Z</time>
      </trkpt>
      <trkpt lat="41.6258400" lon="-8.7873290">
        <ele>118.4</ele>
        <time>2019-08-16T07:42:25Z</time>
      </trkpt>
      <trkpt lat="41.6258180" lon="-8.7872970">
        <ele>118.0</ele>
        <time>2019-08-16T07:42:26Z</time>
      </trkpt>
      <trkpt lat="41.6257820" lon="-8.7872480">
        <ele>117.4</ele>
        <time>2019-08-16T07:42:27Z</time>
      </trkpt>
      <trkpt lat="41.6257200" lon="-8.7871470">
        <ele>117.4</ele>
        <time>2019-08-16T07:42:29Z</time>
      </trkpt>
      <trkpt lat="41.6256970" lon="-8.7871000">
        <ele>117.4</ele>
        <time>2019-08-16T07:42:30Z</time>
      </trkpt>
      <trkpt lat="41.6256600" lon="-8.7869510">
        <ele>117.0</ele>
        <time>2019-08-16T07:42:32Z</time>
      </trkpt>
      <trkpt lat="41.6256510" lon="-8.7868900">
        <ele>116.6</ele>
        <time>2019-08-16T07:42:33Z</time>
      </trkpt>
      <trkpt lat="41.6256370" lon="-8.7868430">
        <ele>116.2</ele>
        <time>2019-08-16T07:42:34Z</time>
      </trkpt>
      <trkpt lat="41.6256250" lon="-8.7868140">
        <ele>115.8</ele>
        <time>2019-08-16T07:42:35Z</time>
      </trkpt>
      <trkpt lat="41.6256020" lon="-8.7868090">
        <ele>115.4</ele>
        <time>2019-08-16T07:42:36Z</time>
      </trkpt>
      <trkpt lat="41.6255410" lon="-8.7868310">
        <ele>115.4</ele>
        <time>2019-08-16T07:42:38Z</time>
      </trkpt>
      <trkpt lat="41.6255040" lon="-8.7868500">
        <ele>115.4</ele>
        <time>2019-08-16T07:42:39Z</time>
      </trkpt>
      <trkpt lat="41.6254270" lon="-8.7868920">
        <ele>115.0</ele>
        <time>2019-08-16T07:42:41Z</time>
      </trkpt>
      <trkpt lat="41.6253900" lon="-8.7869070">
        <ele>114.4</ele>
        <time>2019-08-16T07:42:42Z</time>
      </trkpt>
      <trkpt lat="41.6253600" lon="-8.7869160">
        <ele>113.8</ele>
        <time>2019-08-16T07:42:43Z</time>
      </trkpt>
      <trkpt lat="41.6253340" lon="-8.7869130">
        <ele>113.4</ele>
        <time>2019-08-16T07:42:44Z</time>
      </trkpt>
      <trkpt lat="41.6253130" lon="-8.7869010">
        <ele>112.8</ele>
        <time>2019-08-16T07:42:45Z</time>
      </trkpt>
      <trkpt lat="41.6252840" lon="-8.7868050">
        <ele>112.8</ele>
        <time>2019-08-16T07:42:46Z</time>
      </trkpt>
      <trkpt lat="41.6252760" lon="-8.7867690">
        <ele>112.8</ele>
        <time>2019-08-16T07:42:47Z</time>
      </trkpt>
      <trkpt lat="41.6252820" lon="-8.7866560">
        <ele>112.8</ele>
        <time>2019-08-16T07:42:49Z</time>
      </trkpt>
      <trkpt lat="41.6253220" lon="-8.7864500">
        <ele>112.4</ele>
        <time>2019-08-16T07:42:53Z</time>
      </trkpt>
      <trkpt lat="41.6253450" lon="-8.7864040">
        <ele>112.0</ele>
        <time>2019-08-16T07:42:54Z</time>
      </trkpt>
      <trkpt lat="41.6253780" lon="-8.7863440">
        <ele>111.6</ele>
        <time>2019-08-16T07:42:55Z</time>
      </trkpt>
      <trkpt lat="41.6254150" lon="-8.7862960">
        <ele>111.2</ele>
        <time>2019-08-16T07:42:56Z</time>
      </trkpt>
      <trkpt lat="41.6254460" lon="-8.7862510">
        <ele>110.8</ele>
        <time>2019-08-16T07:42:57Z</time>
      </trkpt>
      <trkpt lat="41.6254740" lon="-8.7862090">
        <ele>110.8</ele>
        <time>2019-08-16T07:42:58Z</time>
      </trkpt>
      <trkpt lat="41.6255080" lon="-8.7861310">
        <ele>110.8</ele>
        <time>2019-08-16T07:43:00Z</time>
      </trkpt>
      <trkpt lat="41.6255930" lon="-8.7859990">
        <ele>110.8</ele>
        <time>2019-08-16T07:43:05Z</time>
      </trkpt>
      <trkpt lat="41.6257250" lon="-8.7859400">
        <ele>110.8</ele>
        <time>2019-08-16T07:43:11Z</time>
      </trkpt>
      <trkpt lat="41.6257970" lon="-8.7859210">
        <ele>111.2</ele>
        <time>2019-08-16T07:43:16Z</time>
      </trkpt>
      <trkpt lat="41.6258100" lon="-8.7859150">
        <ele>111.6</ele>
        <time>2019-08-16T07:43:17Z</time>
      </trkpt>
      <trkpt lat="41.6258330" lon="-8.7859110">
        <ele>112.0</ele>
        <time>2019-08-16T07:43:18Z</time>
      </trkpt>
      <trkpt lat="41.6258500" lon="-8.7859050">
        <ele>112.4</ele>
        <time>2019-08-16T07:43:19Z</time>
      </trkpt>
      <trkpt lat="41.6258610" lon="-8.7859000">
        <ele>112.8</ele>
        <time>2019-08-16T07:43:20Z</time>
      </trkpt>
      <trkpt lat="41.6259290" lon="-8.7858780">
        <ele>112.8</ele>
        <time>2019-08-16T07:43:24Z</time>
      </trkpt>
      <trkpt lat="41.6261470" lon="-8.7858590">
        <ele>112.8</ele>
        <time>2019-08-16T07:43:34Z</time>
      </trkpt>
      <trkpt lat="41.6264240" lon="-8.7860780">
        <ele>114.8</ele>
        <time>2019-08-16T07:43:52Z</time>
      </trkpt>
      <trkpt lat="41.6264680" lon="-8.7861020">
        <ele>114.8</ele>
        <time>2019-08-16T07:43:54Z</time>
      </trkpt>
      <trkpt lat="41.6266840" lon="-8.7861010">
        <ele>114.8</ele>
        <time>2019-08-16T07:44:00Z</time>
      </trkpt>
      <trkpt lat="41.6267130" lon="-8.7860600">
        <ele>114.0</ele>
        <time>2019-08-16T07:44:01Z</time>
      </trkpt>
      <trkpt lat="41.6267400" lon="-8.7860170">
        <ele>113.6</ele>
        <time>2019-08-16T07:44:02Z</time>
      </trkpt>
      <trkpt lat="41.6267670" lon="-8.7859790">
        <ele>113.2</ele>
        <time>2019-08-16T07:44:03Z</time>
      </trkpt>
      <trkpt lat="41.6268030" lon="-8.7859320">
        <ele>112.8</ele>
        <time>2019-08-16T07:44:04Z</time>
      </trkpt>
      <trkpt lat="41.6268250" lon="-8.7858730">
        <ele>112.4</ele>
        <time>2019-08-16T07:44:05Z</time>
      </trkpt>
      <trkpt lat="41.6268430" lon="-8.7858110">
        <ele>112.0</ele>
        <time>2019-08-16T07:44:06Z</time>
      </trkpt>
      <trkpt lat="41.6268570" lon="-8.7857450">
        <ele>111.6</ele>
        <time>2019-08-16T07:44:07Z</time>
      </trkpt>
      <trkpt lat="41.6268810" lon="-8.7856110">
        <ele>110.8</ele>
        <time>2019-08-16T07:44:09Z</time>
      </trkpt>
      <trkpt lat="41.6269000" lon="-8.7855430">
        <ele>110.8</ele>
        <time>2019-08-16T07:44:10Z</time>
      </trkpt>
      <trkpt lat="41.6269190" lon="-8.7854750">
        <ele>110.2</ele>
        <time>2019-08-16T07:44:11Z</time>
      </trkpt>
      <trkpt lat="41.6269410" lon="-8.7854130">
        <ele>109.8</ele>
        <time>2019-08-16T07:44:12Z</time>
      </trkpt>
      <trkpt lat="41.6269660" lon="-8.7853610">
        <ele>109.4</ele>
        <time>2019-08-16T07:44:13Z</time>
      </trkpt>
      <trkpt lat="41.6269910" lon="-8.7853120">
        <ele>108.8</ele>
        <time>2019-08-16T07:44:14Z</time>
      </trkpt>
      <trkpt lat="41.6269980" lon="-8.7852660">
        <ele>108.4</ele>
        <time>2019-08-16T07:44:15Z</time>
      </trkpt>
      <trkpt lat="41.6269880" lon="-8.7852200">
        <ele>108.0</ele>
        <time>2019-08-16T07:44:16Z</time>
      </trkpt>
      <trkpt lat="41.6269740" lon="-8.7851720">
        <ele>107.6</ele>
        <time>2019-08-16T07:44:17Z</time>
      </trkpt>
      <trkpt lat="41.6269440" lon="-8.7850760">
        <ele>106.8</ele>
        <time>2019-08-16T07:44:19Z</time>
      </trkpt>
      <trkpt lat="41.6269280" lon="-8.7850280">
        <ele>106.4</ele>
        <time>2019-08-16T07:44:20Z</time>
      </trkpt>
      <trkpt lat="41.6268840" lon="-8.7848940">
        <ele>106.0</ele>
        <time>2019-08-16T07:44:23Z</time>
      </trkpt>
      <trkpt lat="41.6268680" lon="-8.7848430">
        <ele>105.6</ele>
        <time>2019-08-16T07:44:24Z</time>
      </trkpt>
      <trkpt lat="41.6268630" lon="-8.7847940">
        <ele>105.0</ele>
        <time>2019-08-16T07:44:25Z</time>
      </trkpt>
      <trkpt lat="41.6268230" lon="-8.7846800">
        <ele>104.2</ele>
        <time>2019-08-16T07:44:27Z</time>
      </trkpt>
      <trkpt lat="41.6268100" lon="-8.7845760">
        <ele>103.6</ele>
        <time>2019-08-16T07:44:29Z</time>
      </trkpt>
      <trkpt lat="41.6267890" lon="-8.7845130">
        <ele>103.2</ele>
        <time>2019-08-16T07:44:31Z</time>
      </trkpt>
      <trkpt lat="41.6267920" lon="-8.7844970">
        <ele>102.4</ele>
        <time>2019-08-16T07:44:32Z</time>
      </trkpt>
      <trkpt lat="41.6267970" lon="-8.7844900">
        <ele>102.0</ele>
        <time>2019-08-16T07:44:33Z</time>
      </trkpt>
      <trkpt lat="41.6268310" lon="-8.7844680">
        <ele>102.0</ele>
        <time>2019-08-16T07:44:36Z</time>
      </trkpt>
      <trkpt lat="41.6268460" lon="-8.7844660">
        <ele>102.0</ele>
        <time>2019-08-16T07:44:37Z</time>
      </trkpt>
      <trkpt lat="41.6269250" lon="-8.7844450">
        <ele>102.0</ele>
        <time>2019-08-16T07:44:41Z</time>
      </trkpt>
      <trkpt lat="41.6269730" lon="-8.7843990">
        <ele>102.0</ele>
        <time>2019-08-16T07:44:43Z</time>
      </trkpt>
      <trkpt lat="41.6271330" lon="-8.7843480">
        <ele>102.0</ele>
        <time>2019-08-16T07:44:49Z</time>
      </trkpt>
      <trkpt lat="41.6272860" lon="-8.7843790">
        <ele>102.0</ele>
        <time>2019-08-16T07:44:55Z</time>
      </trkpt>
      <trkpt lat="41.6275330" lon="-8.7844030">
        <ele>102.0</ele>
        <time>2019-08-16T07:45:02Z</time>
      </trkpt>
      <trkpt lat="41.6276790" lon="-8.7842550">
        <ele>102.0</ele>
        <time>2019-08-16T07:45:08Z</time>
      </trkpt>
      <trkpt lat="41.6276980" lon="-8.7842290">
        <ele>102.0</ele>
        <time>2019-08-16T07:45:09Z</time>
      </trkpt>
      <trkpt lat="41.6277550" lon="-8.7841290">
        <ele>101.4</ele>
        <time>2019-08-16T07:45:12Z</time>
      </trkpt>
      <trkpt lat="41.6277720" lon="-8.7841000">
        <ele>101.0</ele>
        <time>2019-08-16T07:45:13Z</time>
      </trkpt>
      <trkpt lat="41.6277910" lon="-8.7840780">
        <ele>100.6</ele>
        <time>2019-08-16T07:45:14Z</time>
      </trkpt>
      <trkpt lat="41.6278110" lon="-8.7840480">
        <ele>100.2</ele>
        <time>2019-08-16T07:45:15Z</time>
      </trkpt>
      <trkpt lat="41.6278220" lon="-8.7840250">
        <ele>99.8</ele>
        <time>2019-08-16T07:45:16Z</time>
      </trkpt>
      <trkpt lat="41.6278400" lon="-8.7840010">
        <ele>99.8</ele>
        <time>2019-08-16T07:45:17Z</time>
      </trkpt>
      <trkpt lat="41.6279190" lon="-8.7838680">
        <ele>99.4</ele>
        <time>2019-08-16T07:45:23Z</time>
      </trkpt>
      <trkpt lat="41.6279360" lon="-8.7838380">
        <ele>99.0</ele>
        <time>2019-08-16T07:45:24Z</time>
      </trkpt>
      <trkpt lat="41.6279570" lon="-8.7838000">
        <ele>98.4</ele>
        <time>2019-08-16T07:45:25Z</time>
      </trkpt>
      <trkpt lat="41.6279730" lon="-8.7837630">
        <ele>98.0</ele>
        <time>2019-08-16T07:45:26Z</time>
      </trkpt>
      <trkpt lat="41.6279820" lon="-8.7837190">
        <ele>97.6</ele>
        <time>2019-08-16T07:45:27Z</time>
      </trkpt>
      <trkpt lat="41.6280180" lon="-8.7836390">
        <ele>97.6</ele>
        <time>2019-08-16T07:45:29Z</time>
      </trkpt>
      <trkpt lat="41.6280850" lon="-8.7834720">
        <ele>97.6</ele>
        <time>2019-08-16T07:45:34Z</time>
      </trkpt>
      <trkpt lat="41.6281000" lon="-8.7834450">
        <ele>97.0</ele>
        <time>2019-08-16T07:45:35Z</time>
      </trkpt>
      <trkpt lat="41.6281060" lon="-8.7834160">
        <ele>96.6</ele>
        <time>2019-08-16T07:45:36Z</time>
      </trkpt>
      <trkpt lat="41.6281130" lon="-8.7833900">
        <ele>96.2</ele>
        <time>2019-08-16T07:45:37Z</time>
      </trkpt>
      <trkpt lat="41.6281210" lon="-8.7833650">
        <ele>95.8</ele>
        <time>2019-08-16T07:45:38Z</time>
      </trkpt>
      <trkpt lat="41.6281350" lon="-8.7833360">
        <ele>95.4</ele>
        <time>2019-08-16T07:45:39Z</time>
      </trkpt>
      <trkpt lat="41.6281470" lon="-8.7832730">
        <ele>95.4</ele>
        <time>2019-08-16T07:45:41Z</time>
      </trkpt>
      <trkpt lat="41.6281650" lon="-8.7831020">
        <ele>95.0</ele>
        <time>2019-08-16T07:45:45Z</time>
      </trkpt>
      <trkpt lat="41.6281740" lon="-8.7830640">
        <ele>94.4</ele>
        <time>2019-08-16T07:45:46Z</time>
      </trkpt>
      <trkpt lat="41.6281850" lon="-8.7830340">
        <ele>94.0</ele>
        <time>2019-08-16T07:45:47Z</time>
      </trkpt>
      <trkpt lat="41.6281970" lon="-8.7830100">
        <ele>93.6</ele>
        <time>2019-08-16T07:45:48Z</time>
      </trkpt>
      <trkpt lat="41.6282040" lon="-8.7829860">
        <ele>93.2</ele>
        <time>2019-08-16T07:45:49Z</time>
      </trkpt>
      <trkpt lat="41.6282380" lon="-8.7828780">
        <ele>93.2</ele>
        <time>2019-08-16T07:45:54Z</time>
      </trkpt>
      <trkpt lat="41.6282470" lon="-8.7828380">
        <ele>93.2</ele>
        <time>2019-08-16T07:45:57Z</time>
      </trkpt>
      <trkpt lat="41.6282680" lon="-8.7826940">
        <ele>92.0</ele>
        <time>2019-08-16T07:46:04Z</time>
      </trkpt>
      <trkpt lat="41.6282770" lon="-8.7826640">
        <ele>91.6</ele>
        <time>2019-08-16T07:46:05Z</time>
      </trkpt>
      <trkpt lat="41.6282840" lon="-8.7826370">
        <ele>91.2</ele>
        <time>2019-08-16T07:46:06Z</time>
      </trkpt>
      <trkpt lat="41.6283100" lon="-8.7824280">
        <ele>91.2</ele>
        <time>2019-08-16T07:46:12Z</time>
      </trkpt>
      <trkpt lat="41.6283810" lon="-8.7822300">
        <ele>91.2</ele>
        <time>2019-08-16T07:46:19Z</time>
      </trkpt>
      <trkpt lat="41.6284660" lon="-8.7820660">
        <ele>90.8</ele>
        <time>2019-08-16T07:46:25Z</time>
      </trkpt>
      <trkpt lat="41.6284770" lon="-8.7820490">
        <ele>90.4</ele>
        <time>2019-08-16T07:46:26Z</time>
      </trkpt>
      <trkpt lat="41.6284860" lon="-8.7820360">
        <ele>90.0</ele>
        <time>2019-08-16T07:46:27Z</time>
      </trkpt>
      <trkpt lat="41.6284960" lon="-8.7820230">
        <ele>89.6</ele>
        <time>2019-08-16T07:46:28Z</time>
      </trkpt>
      <trkpt lat="41.6284990" lon="-8.7820100">
        <ele>89.2</ele>
        <time>2019-08-16T07:46:29Z</time>
      </trkpt>
      <trkpt lat="41.6285110" lon="-8.7819840">
        <ele>89.2</ele>
        <time>2019-08-16T07:46:31Z</time>
      </trkpt>
      <trkpt lat="41.6286120" lon="-8.7818380">
        <ele>89.2</ele>
        <time>2019-08-16T07:46:38Z</time>
      </trkpt>
      <trkpt lat="41.6286560" lon="-8.7817900">
        <ele>88.6</ele>
        <time>2019-08-16T07:46:40Z</time>
      </trkpt>
      <trkpt lat="41.6286720" lon="-8.7817680">
        <ele>88.2</ele>
        <time>2019-08-16T07:46:41Z</time>
      </trkpt>
      <trkpt lat="41.6286810" lon="-8.7817510">
        <ele>87.8</ele>
        <time>2019-08-16T07:46:42Z</time>
      </trkpt>
      <trkpt lat="41.6286900" lon="-8.7817320">
        <ele>87.4</ele>
        <time>2019-08-16T07:46:43Z</time>
      </trkpt>
      <trkpt lat="41.6286970" lon="-8.7817110">
        <ele>87.0</ele>
        <time>2019-08-16T07:46:44Z</time>
      </trkpt>
      <trkpt lat="41.6287300" lon="-8.7815140">
        <ele>87.0</ele>
        <time>2019-08-16T07:46:50Z</time>
      </trkpt>
      <trkpt lat="41.6288240" lon="-8.7813170">
        <ele>86.6</ele>
        <time>2019-08-16T07:46:55Z</time>
      </trkpt>
      <trkpt lat="41.6288470" lon="-8.7812740">
        <ele>86.2</ele>
        <time>2019-08-16T07:46:56Z</time>
      </trkpt>
      <trkpt lat="41.6288740" lon="-8.7812310">
        <ele>85.8</ele>
        <time>2019-08-16T07:46:57Z</time>
      </trkpt>
      <trkpt lat="41.6289020" lon="-8.7811940">
        <ele>85.4</ele>
        <time>2019-08-16T07:46:58Z</time>
      </trkpt>
      <trkpt lat="41.6289320" lon="-8.7811630">
        <ele>85.0</ele>
        <time>2019-08-16T07:46:59Z</time>
      </trkpt>
      <trkpt lat="41.6290200" lon="-8.7810870">
        <ele>85.0</ele>
        <time>2019-08-16T07:47:02Z</time>
      </trkpt>
      <trkpt lat="41.6290880" lon="-8.7810530">
        <ele>85.0</ele>
        <time>2019-08-16T07:47:06Z</time>
      </trkpt>
      <trkpt lat="41.6291120" lon="-8.7809940">
        <ele>85.0</ele>
        <time>2019-08-16T07:47:11Z</time>
      </trkpt>
      <trkpt lat="41.6291130" lon="-8.7809830">
        <ele>85.0</ele>
        <time>2019-08-16T07:48:02Z</time>
      </trkpt>
      <trkpt lat="41.6291170" lon="-8.7809870">
        <ele>85.0</ele>
        <time>2019-08-16T07:48:03Z</time>
      </trkpt>
      <trkpt lat="41.6291250" lon="-8.7809820">
        <ele>85.0</ele>
        <time>2019-08-16T07:48:13Z</time>
      </trkpt>
      <trkpt lat="41.6292220" lon="-8.7809430">
        <ele>85.0</ele>
        <time>2019-08-16T07:48:16Z</time>
      </trkpt>
      <trkpt lat="41.6294820" lon="-8.7808840">
        <ele>85.0</ele>
        <time>2019-08-16T07:48:23Z</time>
      </trkpt>
      <trkpt lat="41.6296820" lon="-8.7807600">
        <ele>85.0</ele>
        <time>2019-08-16T07:48:28Z</time>
      </trkpt>
      <trkpt lat="41.6299290" lon="-8.7805480">
        <ele>85.0</ele>
        <time>2019-08-16T07:48:35Z</time>
      </trkpt>
      <trkpt lat="41.6301670" lon="-8.7803470">
        <ele>85.0</ele>
        <time>2019-08-16T07:48:43Z</time>
      </trkpt>
      <trkpt lat="41.6305010" lon="-8.7801110">
        <ele>85.0</ele>
        <time>2019-08-16T07:48:53Z</time>
      </trkpt>
      <trkpt lat="41.6306640" lon="-8.7799540">
        <ele>85.0</ele>
        <time>2019-08-16T07:48:59Z</time>
      </trkpt>
      <trkpt lat="41.6307310" lon="-8.7798980">
        <ele>84.4</ele>
        <time>2019-08-16T07:49:01Z</time>
      </trkpt>
      <trkpt lat="41.6307620" lon="-8.7798700">
        <ele>84.0</ele>
        <time>2019-08-16T07:49:02Z</time>
      </trkpt>
      <trkpt lat="41.6307980" lon="-8.7798430">
        <ele>83.6</ele>
        <time>2019-08-16T07:49:03Z</time>
      </trkpt>
      <trkpt lat="41.6308350" lon="-8.7798170">
        <ele>83.2</ele>
        <time>2019-08-16T07:49:04Z</time>
      </trkpt>
      <trkpt lat="41.6308660" lon="-8.7797900">
        <ele>82.6</ele>
        <time>2019-08-16T07:49:05Z</time>
      </trkpt>
      <trkpt lat="41.6309380" lon="-8.7795750">
        <ele>82.6</ele>
        <time>2019-08-16T07:49:10Z</time>
      </trkpt>
      <trkpt lat="41.6309760" lon="-8.7794870">
        <ele>82.2</ele>
        <time>2019-08-16T07:49:12Z</time>
      </trkpt>
      <trkpt lat="41.6310020" lon="-8.7794670">
        <ele>81.8</ele>
        <time>2019-08-16T07:49:13Z</time>
      </trkpt>
      <trkpt lat="41.6310310" lon="-8.7794600">
        <ele>81.4</ele>
        <time>2019-08-16T07:49:14Z</time>
      </trkpt>
      <trkpt lat="41.6310690" lon="-8.7794670">
        <ele>80.8</ele>
        <time>2019-08-16T07:49:15Z</time>
      </trkpt>
      <trkpt lat="41.6311050" lon="-8.7794730">
        <ele>80.4</ele>
        <time>2019-08-16T07:49:16Z</time>
      </trkpt>
      <trkpt lat="41.6313650" lon="-8.7795600">
        <ele>80.4</ele>
        <time>2019-08-16T07:49:24Z</time>
      </trkpt>
      <trkpt lat="41.6316310" lon="-8.7796370">
        <ele>80.4</ele>
        <time>2019-08-16T07:49:32Z</time>
      </trkpt>
      <trkpt lat="41.6319470" lon="-8.7797330">
        <ele>80.4</ele>
        <time>2019-08-16T07:49:41Z</time>
      </trkpt>
      <trkpt lat="41.6322570" lon="-8.7798460">
        <ele>80.4</ele>
        <time>2019-08-16T07:49:50Z</time>
      </trkpt>
      <trkpt lat="41.6324310" lon="-8.7799040">
        <ele>81.0</ele>
        <time>2019-08-16T07:49:55Z</time>
      </trkpt>
      <trkpt lat="41.6324630" lon="-8.7799140">
        <ele>81.4</ele>
        <time>2019-08-16T07:49:56Z</time>
      </trkpt>
      <trkpt lat="41.6324890" lon="-8.7799250">
        <ele>81.8</ele>
        <time>2019-08-16T07:49:57Z</time>
      </trkpt>
      <trkpt lat="41.6325180" lon="-8.7799410">
        <ele>82.2</ele>
        <time>2019-08-16T07:49:58Z</time>
      </trkpt>
      <trkpt lat="41.6325440" lon="-8.7799550">
        <ele>82.8</ele>
        <time>2019-08-16T07:49:59Z</time>
      </trkpt>
      <trkpt lat="41.6326500" lon="-8.7800170">
        <ele>82.8</ele>
        <time>2019-08-16T07:50:03Z</time>
      </trkpt>
      <trkpt lat="41.6328310" lon="-8.7801040">
        <ele>82.8</ele>
        <time>2019-08-16T07:50:10Z</time>
      </trkpt>
      <trkpt lat="41.6330110" lon="-8.7801420">
        <ele>82.8</ele>
        <time>2019-08-16T07:50:17Z</time>
      </trkpt>
      <trkpt lat="41.6332740" lon="-8.7801800">
        <ele>82.8</ele>
        <time>2019-08-16T07:50:25Z</time>
      </trkpt>
      <trkpt lat="41.6335760" lon="-8.7801380">
        <ele>82.8</ele>
        <time>2019-08-16T07:50:32Z</time>
      </trkpt>
      <trkpt lat="41.6337610" lon="-8.7801210">
        <ele>82.8</ele>
        <time>2019-08-16T07:50:36Z</time>
      </trkpt>
      <trkpt lat="41.6338480" lon="-8.7800980">
        <ele>82.2</ele>
        <time>2019-08-16T07:50:38Z</time>
      </trkpt>
      <trkpt lat="41.6338990" lon="-8.7800920">
        <ele>81.8</ele>
        <time>2019-08-16T07:50:39Z</time>
      </trkpt>
      <trkpt lat="41.6339450" lon="-8.7800910">
        <ele>81.4</ele>
        <time>2019-08-16T07:50:40Z</time>
      </trkpt>
      <trkpt lat="41.6339910" lon="-8.7801040">
        <ele>81.0</ele>
        <time>2019-08-16T07:50:41Z</time>
      </trkpt>
      <trkpt lat="41.6340250" lon="-8.7801100">
        <ele>80.6</ele>
        <time>2019-08-16T07:50:42Z</time>
      </trkpt>
      <trkpt lat="41.6340920" lon="-8.7801250">
        <ele>80.0</ele>
        <time>2019-08-16T07:50:44Z</time>
      </trkpt>
      <trkpt lat="41.6341330" lon="-8.7801370">
        <ele>79.6</ele>
        <time>2019-08-16T07:50:45Z</time>
      </trkpt>
      <trkpt lat="41.6341900" lon="-8.7801610">
        <ele>79.0</ele>
        <time>2019-08-16T07:50:46Z</time>
      </trkpt>
      <trkpt lat="41.6342350" lon="-8.7801840">
        <ele>78.6</ele>
        <time>2019-08-16T07:50:47Z</time>
      </trkpt>
      <trkpt lat="41.6342840" lon="-8.7802010">
        <ele>78.2</ele>
        <time>2019-08-16T07:50:48Z</time>
      </trkpt>
      <trkpt lat="41.6343880" lon="-8.7802110">
        <ele>77.6</ele>
        <time>2019-08-16T07:50:50Z</time>
      </trkpt>
      <trkpt lat="41.6344420" lon="-8.7802170">
        <ele>77.2</ele>
        <time>2019-08-16T07:50:51Z</time>
      </trkpt>
      <trkpt lat="41.6344910" lon="-8.7802240">
        <ele>76.8</ele>
        <time>2019-08-16T07:50:52Z</time>
      </trkpt>
      <trkpt lat="41.6345420" lon="-8.7802270">
        <ele>76.4</ele>
        <time>2019-08-16T07:50:53Z</time>
      </trkpt>
      <trkpt lat="41.6345870" lon="-8.7802290">
        <ele>75.8</ele>
        <time>2019-08-16T07:50:54Z</time>
      </trkpt>
      <trkpt lat="41.6347960" lon="-8.7801990">
        <ele>75.8</ele>
        <time>2019-08-16T07:50:59Z</time>
      </trkpt>
      <trkpt lat="41.6349300" lon="-8.7802050">
        <ele>75.8</ele>
        <time>2019-08-16T07:51:02Z</time>
      </trkpt>
      <trkpt lat="41.6350210" lon="-8.7802590">
        <ele>75.8</ele>
        <time>2019-08-16T07:51:04Z</time>
      </trkpt>
      <trkpt lat="41.6352410" lon="-8.7804100">
        <ele>75.8</ele>
        <time>2019-08-16T07:51:10Z</time>
      </trkpt>
      <trkpt lat="41.6353920" lon="-8.7804930">
        <ele>75.8</ele>
        <time>2019-08-16T07:51:16Z</time>
      </trkpt>
      <trkpt lat="41.6354440" lon="-8.7805200">
        <ele>76.2</ele>
        <time>2019-08-16T07:51:19Z</time>
      </trkpt>
      <trkpt lat="41.6354620" lon="-8.7805260">
        <ele>76.6</ele>
        <time>2019-08-16T07:51:20Z</time>
      </trkpt>
      <trkpt lat="41.6354710" lon="-8.7805260">
        <ele>77.2</ele>
        <time>2019-08-16T07:51:21Z</time>
      </trkpt>
      <trkpt lat="41.6354940" lon="-8.7805290">
        <ele>77.6</ele>
        <time>2019-08-16T07:51:22Z</time>
      </trkpt>
      <trkpt lat="41.6355150" lon="-8.7805250">
        <ele>78.0</ele>
        <time>2019-08-16T07:51:23Z</time>
      </trkpt>
      <trkpt lat="41.6357270" lon="-8.7805960">
        <ele>78.0</ele>
        <time>2019-08-16T07:51:30Z</time>
      </trkpt>
      <trkpt lat="41.6359000" lon="-8.7806760">
        <ele>78.0</ele>
        <time>2019-08-16T07:51:37Z</time>
      </trkpt>
      <trkpt lat="41.6360090" lon="-8.7806880">
        <ele>78.4</ele>
        <time>2019-08-16T07:51:41Z</time>
      </trkpt>
      <trkpt lat="41.6360330" lon="-8.7806940">
        <ele>78.8</ele>
        <time>2019-08-16T07:51:42Z</time>
      </trkpt>
      <trkpt lat="41.6360600" lon="-8.7806980">
        <ele>79.2</ele>
        <time>2019-08-16T07:51:43Z</time>
      </trkpt>
      <trkpt lat="41.6360830" lon="-8.7807030">
        <ele>79.6</ele>
        <time>2019-08-16T07:51:44Z</time>
      </trkpt>
      <trkpt lat="41.6361090" lon="-8.7807020">
        <ele>80.0</ele>
        <time>2019-08-16T07:51:45Z</time>
      </trkpt>
      <trkpt lat="41.6362010" lon="-8.7807230">
        <ele>80.0</ele>
        <time>2019-08-16T07:51:49Z</time>
      </trkpt>
      <trkpt lat="41.6363420" lon="-8.7807720">
        <ele>80.0</ele>
        <time>2019-08-16T07:51:55Z</time>
      </trkpt>
      <trkpt lat="41.6363710" lon="-8.7807530">
        <ele>80.4</ele>
        <time>2019-08-16T07:51:57Z</time>
      </trkpt>
      <trkpt lat="41.6363880" lon="-8.7807460">
        <ele>80.8</ele>
        <time>2019-08-16T07:51:58Z</time>
      </trkpt>
      <trkpt lat="41.6364030" lon="-8.7807440">
        <ele>81.2</ele>
        <time>2019-08-16T07:51:59Z</time>
      </trkpt>
      <trkpt lat="41.6364230" lon="-8.7807520">
        <ele>81.6</ele>
        <time>2019-08-16T07:52:00Z</time>
      </trkpt>
      <trkpt lat="41.6364360" lon="-8.7807570">
        <ele>82.0</ele>
        <time>2019-08-16T07:52:01Z</time>
      </trkpt>
      <trkpt lat="41.6365600" lon="-8.7808190">
        <ele>82.0</ele>
        <time>2019-08-16T07:52:08Z</time>
      </trkpt>
      <trkpt lat="41.6365750" lon="-8.7808270">
        <ele>82.4</ele>
        <time>2019-08-16T07:52:09Z</time>
      </trkpt>
      <trkpt lat="41.6365890" lon="-8.7808330">
        <ele>82.8</ele>
        <time>2019-08-16T07:52:10Z</time>
      </trkpt>
      <trkpt lat="41.6366000" lon="-8.7808390">
        <ele>83.4</ele>
        <time>2019-08-16T07:52:11Z</time>
      </trkpt>
      <trkpt lat="41.6366130" lon="-8.7808450">
        <ele>83.8</ele>
        <time>2019-08-16T07:52:12Z</time>
      </trkpt>
      <trkpt lat="41.6366230" lon="-8.7808520">
        <ele>84.2</ele>
        <time>2019-08-16T07:52:13Z</time>
      </trkpt>
      <trkpt lat="41.6366510" lon="-8.7808640">
        <ele>84.2</ele>
        <time>2019-08-16T07:52:16Z</time>
      </trkpt>
      <trkpt lat="41.6366780" lon="-8.7808780">
        <ele>84.6</ele>
        <time>2019-08-16T07:52:19Z</time>
      </trkpt>
      <trkpt lat="41.6366860" lon="-8.7808810">
        <ele>85.0</ele>
        <time>2019-08-16T07:52:20Z</time>
      </trkpt>
      <trkpt lat="41.6366930" lon="-8.7808840">
        <ele>85.4</ele>
        <time>2019-08-16T07:52:21Z</time>
      </trkpt>
      <trkpt lat="41.6369320" lon="-8.7809310">
        <ele>88.4</ele>
        <time>2019-08-16T07:52:40Z</time>
      </trkpt>
      <trkpt lat="41.6369630" lon="-8.7809440">
        <ele>88.4</ele>
        <time>2019-08-16T07:52:41Z</time>
      </trkpt>
      <trkpt lat="41.6371910" lon="-8.7810350">
        <ele>88.4</ele>
        <time>2019-08-16T07:52:48Z</time>
      </trkpt>
      <trkpt lat="41.6373390" lon="-8.7811260">
        <ele>88.4</ele>
        <time>2019-08-16T07:52:54Z</time>
      </trkpt>
      <trkpt lat="41.6374020" lon="-8.7811910">
        <ele>88.4</ele>
        <time>2019-08-16T07:52:57Z</time>
      </trkpt>
      <trkpt lat="41.6374590" lon="-8.7812290">
        <ele>88.4</ele>
        <time>2019-08-16T07:53:00Z</time>
      </trkpt>
      <trkpt lat="41.6375470" lon="-8.7812470">
        <ele>88.4</ele>
        <time>2019-08-16T07:53:04Z</time>
      </trkpt>
      <trkpt lat="41.6375860" lon="-8.7812620">
        <ele>88.4</ele>
        <time>2019-08-16T07:53:06Z</time>
      </trkpt>
      <trkpt lat="41.6376070" lon="-8.7812770">
        <ele>88.4</ele>
        <time>2019-08-16T07:53:07Z</time>
      </trkpt>
      <trkpt lat="41.6377670" lon="-8.7813460">
        <ele>88.4</ele>
        <time>2019-08-16T07:53:14Z</time>
      </trkpt>
      <trkpt lat="41.6378420" lon="-8.7813200">
        <ele>88.4</ele>
        <time>2019-08-16T07:53:17Z</time>
      </trkpt>
      <trkpt lat="41.6378860" lon="-8.7812770">
        <ele>88.4</ele>
        <time>2019-08-16T07:53:19Z</time>
      </trkpt>
      <trkpt lat="41.6379570" lon="-8.7812320">
        <ele>88.8</ele>
        <time>2019-08-16T07:53:22Z</time>
      </trkpt>
      <trkpt lat="41.6379730" lon="-8.7812170">
        <ele>89.4</ele>
        <time>2019-08-16T07:53:23Z</time>
      </trkpt>
      <trkpt lat="41.6379890" lon="-8.7812000">
        <ele>89.8</ele>
        <time>2019-08-16T07:53:24Z</time>
      </trkpt>
      <trkpt lat="41.6380040" lon="-8.7811830">
        <ele>90.2</ele>
        <time>2019-08-16T07:53:25Z</time>
      </trkpt>
      <trkpt lat="41.6380130" lon="-8.7811680">
        <ele>90.6</ele>
        <time>2019-08-16T07:53:26Z</time>
      </trkpt>
      <trkpt lat="41.6381210" lon="-8.7810690">
        <ele>90.6</ele>
        <time>2019-08-16T07:53:32Z</time>
      </trkpt>
      <trkpt lat="41.6382750" lon="-8.7809900">
        <ele>90.6</ele>
        <time>2019-08-16T07:53:37Z</time>
      </trkpt>
      <trkpt lat="41.6385370" lon="-8.7808020">
        <ele>90.6</ele>
        <time>2019-08-16T07:53:44Z</time>
      </trkpt>
      <trkpt lat="41.6386390" lon="-8.7807200">
        <ele>90.2</ele>
        <time>2019-08-16T07:53:47Z</time>
      </trkpt>
      <trkpt lat="41.6386800" lon="-8.7807050">
        <ele>89.8</ele>
        <time>2019-08-16T07:53:48Z</time>
      </trkpt>
      <trkpt lat="41.6387210" lon="-8.7806790">
        <ele>89.4</ele>
        <time>2019-08-16T07:53:49Z</time>
      </trkpt>
      <trkpt lat="41.6387550" lon="-8.7806540">
        <ele>88.8</ele>
        <time>2019-08-16T07:53:50Z</time>
      </trkpt>
      <trkpt lat="41.6387800" lon="-8.7806200">
        <ele>88.4</ele>
        <time>2019-08-16T07:53:51Z</time>
      </trkpt>
      <trkpt lat="41.6388050" lon="-8.7805220">
        <ele>88.4</ele>
        <time>2019-08-16T07:53:55Z</time>
      </trkpt>
      <trkpt lat="41.6388110" lon="-8.7804650">
        <ele>88.8</ele>
        <time>2019-08-16T07:53:58Z</time>
      </trkpt>
      <trkpt lat="41.6388130" lon="-8.7804390">
        <ele>89.2</ele>
        <time>2019-08-16T07:53:59Z</time>
      </trkpt>
      <trkpt lat="41.6388120" lon="-8.7804110">
        <ele>89.6</ele>
        <time>2019-08-16T07:54:00Z</time>
      </trkpt>
      <trkpt lat="41.6388120" lon="-8.7803830">
        <ele>90.0</ele>
        <time>2019-08-16T07:54:01Z</time>
      </trkpt>
      <trkpt lat="41.6388130" lon="-8.7803570">
        <ele>90.6</ele>
        <time>2019-08-16T07:54:02Z</time>
      </trkpt>
      <trkpt lat="41.6388100" lon="-8.7803340">
        <ele>90.6</ele>
        <time>2019-08-16T07:54:03Z</time>
      </trkpt>
      <trkpt lat="41.6387820" lon="-8.7801380">
        <ele>90.6</ele>
        <time>2019-08-16T07:54:10Z</time>
      </trkpt>
      <trkpt lat="41.6387850" lon="-8.7801330">
        <ele>90.6</ele>
        <time>2019-08-16T07:54:11Z</time>
      </trkpt>
      <trkpt lat="41.6387890" lon="-8.7801080">
        <ele>90.6</ele>
        <time>2019-08-16T07:54:25Z</time>
      </trkpt>
      <trkpt lat="41.6387660" lon="-8.7800740">
        <ele>90.6</ele>
        <time>2019-08-16T07:54:27Z</time>
      </trkpt>
      <trkpt lat="41.6386790" lon="-8.7799700">
        <ele>90.0</ele>
        <time>2019-08-16T07:54:30Z</time>
      </trkpt>
      <trkpt lat="41.6386550" lon="-8.7799110">
        <ele>89.4</ele>
        <time>2019-08-16T07:54:31Z</time>
      </trkpt>
      <trkpt lat="41.6386350" lon="-8.7798500">
        <ele>89.0</ele>
        <time>2019-08-16T07:54:32Z</time>
      </trkpt>
      <trkpt lat="41.6386130" lon="-8.7797830">
        <ele>88.4</ele>
        <time>2019-08-16T07:54:33Z</time>
      </trkpt>
      <trkpt lat="41.6385970" lon="-8.7797220">
        <ele>88.0</ele>
        <time>2019-08-16T07:54:34Z</time>
      </trkpt>
      <trkpt lat="41.6385870" lon="-8.7796640">
        <ele>87.4</ele>
        <time>2019-08-16T07:54:35Z</time>
      </trkpt>
      <trkpt lat="41.6385800" lon="-8.7796230">
        <ele>86.8</ele>
        <time>2019-08-16T07:54:36Z</time>
      </trkpt>
      <trkpt lat="41.6385740" lon="-8.7795820">
        <ele>86.4</ele>
        <time>2019-08-16T07:54:38Z</time>
      </trkpt>
      <trkpt lat="41.6385720" lon="-8.7795670">
        <ele>85.8</ele>
        <time>2019-08-16T07:54:39Z</time>
      </trkpt>
      <trkpt lat="41.6385430" lon="-8.7794090">
        <ele>85.8</ele>
        <time>2019-08-16T07:54:47Z</time>
      </trkpt>
      <trkpt lat="41.6385480" lon="-8.7792370">
        <ele>85.8</ele>
        <time>2019-08-16T07:54:52Z</time>
      </trkpt>
      <trkpt lat="41.6385720" lon="-8.7790130">
        <ele>85.8</ele>
        <time>2019-08-16T07:54:59Z</time>
      </trkpt>
      <trkpt lat="41.6386500" lon="-8.7787280">
        <ele>85.8</ele>
        <time>2019-08-16T07:55:06Z</time>
      </trkpt>
      <trkpt lat="41.6387440" lon="-8.7785060">
        <ele>85.8</ele>
        <time>2019-08-16T07:55:12Z</time>
      </trkpt>
      <trkpt lat="41.6388100" lon="-8.7781630">
        <ele>85.2</ele>
        <time>2019-08-16T07:55:18Z</time>
      </trkpt>
      <trkpt lat="41.6387990" lon="-8.7781010">
        <ele>84.6</ele>
        <time>2019-08-16T07:55:19Z</time>
      </trkpt>
      <trkpt lat="41.6387960" lon="-8.7780410">
        <ele>84.2</ele>
        <time>2019-08-16T07:55:20Z</time>
      </trkpt>
      <trkpt lat="41.6387950" lon="-8.7779830">
        <ele>83.6</ele>
        <time>2019-08-16T07:55:21Z</time>
      </trkpt>
      <trkpt lat="41.6388090" lon="-8.7779300">
        <ele>83.0</ele>
        <time>2019-08-16T07:55:22Z</time>
      </trkpt>
      <trkpt lat="41.6388650" lon="-8.7778480">
        <ele>83.0</ele>
        <time>2019-08-16T07:55:24Z</time>
      </trkpt>
      <trkpt lat="41.6389330" lon="-8.7777860">
        <ele>82.6</ele>
        <time>2019-08-16T07:55:26Z</time>
      </trkpt>
      <trkpt lat="41.6389630" lon="-8.7777520">
        <ele>82.2</ele>
        <time>2019-08-16T07:55:27Z</time>
      </trkpt>
      <trkpt lat="41.6389950" lon="-8.7777190">
        <ele>81.8</ele>
        <time>2019-08-16T07:55:28Z</time>
      </trkpt>
      <trkpt lat="41.6390230" lon="-8.7776880">
        <ele>81.4</ele>
        <time>2019-08-16T07:55:29Z</time>
      </trkpt>
      <trkpt lat="41.6390550" lon="-8.7776530">
        <ele>81.0</ele>
        <time>2019-08-16T07:55:30Z</time>
      </trkpt>
      <trkpt lat="41.6391160" lon="-8.7774980">
        <ele>81.0</ele>
        <time>2019-08-16T07:55:33Z</time>
      </trkpt>
      <trkpt lat="41.6391180" lon="-8.7774350">
        <ele>80.6</ele>
        <time>2019-08-16T07:55:34Z</time>
      </trkpt>
      <trkpt lat="41.6391260" lon="-8.7773770">
        <ele>80.0</ele>
        <time>2019-08-16T07:55:35Z</time>
      </trkpt>
      <trkpt lat="41.6391460" lon="-8.7773300">
        <ele>79.6</ele>
        <time>2019-08-16T07:55:36Z</time>
      </trkpt>
      <trkpt lat="41.6391780" lon="-8.7772960">
        <ele>79.2</ele>
        <time>2019-08-16T07:55:37Z</time>
      </trkpt>
      <trkpt lat="41.6392200" lon="-8.7772700">
        <ele>78.6</ele>
        <time>2019-08-16T07:55:38Z</time>
      </trkpt>
      <trkpt lat="41.6392670" lon="-8.7772440">
        <ele>78.2</ele>
        <time>2019-08-16T07:55:39Z</time>
      </trkpt>
      <trkpt lat="41.6393160" lon="-8.7772040">
        <ele>77.6</ele>
        <time>2019-08-16T07:55:40Z</time>
      </trkpt>
      <trkpt lat="41.6393620" lon="-8.7771540">
        <ele>77.0</ele>
        <time>2019-08-16T07:55:41Z</time>
      </trkpt>
      <trkpt lat="41.6394050" lon="-8.7770940">
        <ele>76.6</ele>
        <time>2019-08-16T07:55:42Z</time>
      </trkpt>
      <trkpt lat="41.6394440" lon="-8.7770340">
        <ele>76.2</ele>
        <time>2019-08-16T07:55:43Z</time>
      </trkpt>
      <trkpt lat="41.6394820" lon="-8.7769700">
        <ele>75.8</ele>
        <time>2019-08-16T07:55:44Z</time>
      </trkpt>
      <trkpt lat="41.6395170" lon="-8.7769210">
        <ele>75.4</ele>
        <time>2019-08-16T07:55:45Z</time>
      </trkpt>
      <trkpt lat="41.6395460" lon="-8.7768780">
        <ele>74.8</ele>
        <time>2019-08-16T07:55:46Z</time>
      </trkpt>
      <trkpt lat="41.6395690" lon="-8.7768460">
        <ele>74.4</ele>
        <time>2019-08-16T07:55:47Z</time>
      </trkpt>
      <trkpt lat="41.6395950" lon="-8.7768200">
        <ele>74.4</ele>
        <time>2019-08-16T07:55:48Z</time>
      </trkpt>
      <trkpt lat="41.6396920" lon="-8.7767400">
        <ele>74.0</ele>
        <time>2019-08-16T07:55:51Z</time>
      </trkpt>
      <trkpt lat="41.6397260" lon="-8.7767040">
        <ele>73.6</ele>
        <time>2019-08-16T07:55:52Z</time>
      </trkpt>
      <trkpt lat="41.6397620" lon="-8.7766690">
        <ele>73.2</ele>
        <time>2019-08-16T07:55:53Z</time>
      </trkpt>
      <trkpt lat="41.6397990" lon="-8.7766350">
        <ele>72.8</ele>
        <time>2019-08-16T07:55:54Z</time>
      </trkpt>
      <trkpt lat="41.6398360" lon="-8.7766030">
        <ele>72.4</ele>
        <time>2019-08-16T07:55:55Z</time>
      </trkpt>
      <trkpt lat="41.6399880" lon="-8.7765430">
        <ele>72.4</ele>
        <time>2019-08-16T07:55:59Z</time>
      </trkpt>
      <trkpt lat="41.6402140" lon="-8.7765940">
        <ele>72.4</ele>
        <time>2019-08-16T07:56:05Z</time>
      </trkpt>
      <trkpt lat="41.6404510" lon="-8.7767750">
        <ele>72.4</ele>
        <time>2019-08-16T07:56:14Z</time>
      </trkpt>
      <trkpt lat="41.6405760" lon="-8.7768440">
        <ele>72.8</ele>
        <time>2019-08-16T07:56:18Z</time>
      </trkpt>
      <trkpt lat="41.6405970" lon="-8.7768630">
        <ele>73.2</ele>
        <time>2019-08-16T07:56:19Z</time>
      </trkpt>
      <trkpt lat="41.6406230" lon="-8.7768770">
        <ele>73.6</ele>
        <time>2019-08-16T07:56:20Z</time>
      </trkpt>
      <trkpt lat="41.6406470" lon="-8.7768870">
        <ele>74.0</ele>
        <time>2019-08-16T07:56:21Z</time>
      </trkpt>
      <trkpt lat="41.6406740" lon="-8.7769040">
        <ele>74.4</ele>
        <time>2019-08-16T07:56:22Z</time>
      </trkpt>
      <trkpt lat="41.6407780" lon="-8.7769630">
        <ele>74.4</ele>
        <time>2019-08-16T07:56:26Z</time>
      </trkpt>
      <trkpt lat="41.6408540" lon="-8.7770060">
        <ele>74.8</ele>
        <time>2019-08-16T07:56:29Z</time>
      </trkpt>
      <trkpt lat="41.6408770" lon="-8.7770240">
        <ele>75.2</ele>
        <time>2019-08-16T07:56:30Z</time>
      </trkpt>
      <trkpt lat="41.6408980" lon="-8.7770410">
        <ele>75.6</ele>
        <time>2019-08-16T07:56:31Z</time>
      </trkpt>
      <trkpt lat="41.6409200" lon="-8.7770580">
        <ele>76.0</ele>
        <time>2019-08-16T07:56:32Z</time>
      </trkpt>
      <trkpt lat="41.6409430" lon="-8.7770710">
        <ele>76.4</ele>
        <time>2019-08-16T07:56:33Z</time>
      </trkpt>
      <trkpt lat="41.6409650" lon="-8.7770850">
        <ele>76.4</ele>
        <time>2019-08-16T07:56:34Z</time>
      </trkpt>
      <trkpt lat="41.6410860" lon="-8.7771410">
        <ele>77.0</ele>
        <time>2019-08-16T07:56:39Z</time>
      </trkpt>
      <trkpt lat="41.6411080" lon="-8.7771510">
        <ele>77.4</ele>
        <time>2019-08-16T07:56:40Z</time>
      </trkpt>
      <trkpt lat="41.6411300" lon="-8.7771650">
        <ele>77.8</ele>
        <time>2019-08-16T07:56:41Z</time>
      </trkpt>
      <trkpt lat="41.6411550" lon="-8.7771770">
        <ele>78.2</ele>
        <time>2019-08-16T07:56:42Z</time>
      </trkpt>
      <trkpt lat="41.6411780" lon="-8.7771880">
        <ele>78.8</ele>
        <time>2019-08-16T07:56:43Z</time>
      </trkpt>
      <trkpt lat="41.6413580" lon="-8.7772410">
        <ele>78.8</ele>
        <time>2019-08-16T07:56:50Z</time>
      </trkpt>
      <trkpt lat="41.6415670" lon="-8.7772070">
        <ele>78.8</ele>
        <time>2019-08-16T07:56:56Z</time>
      </trkpt>
      <trkpt lat="41.6416130" lon="-8.7771870">
        <ele>78.8</ele>
        <time>2019-08-16T07:56:57Z</time>
      </trkpt>
      <trkpt lat="41.6418190" lon="-8.7771020">
        <ele>78.8</ele>
        <time>2019-08-16T07:57:01Z</time>
      </trkpt>
      <trkpt lat="41.6418710" lon="-8.7770800">
        <ele>78.2</ele>
        <time>2019-08-16T07:57:02Z</time>
      </trkpt>
      <trkpt lat="41.6419250" lon="-8.7770500">
        <ele>77.8</ele>
        <time>2019-08-16T07:57:03Z</time>
      </trkpt>
      <trkpt lat="41.6419790" lon="-8.7770200">
        <ele>77.2</ele>
        <time>2019-08-16T07:57:04Z</time>
      </trkpt>
      <trkpt lat="41.6420370" lon="-8.7769950">
        <ele>76.8</ele>
        <time>2019-08-16T07:57:05Z</time>
      </trkpt>
      <trkpt lat="41.6420960" lon="-8.7769710">
        <ele>76.2</ele>
        <time>2019-08-16T07:57:06Z</time>
      </trkpt>
      <trkpt lat="41.6421650" lon="-8.7769460">
        <ele>75.8</ele>
        <time>2019-08-16T07:57:07Z</time>
      </trkpt>
      <trkpt lat="41.6422320" lon="-8.7769200">
        <ele>75.4</ele>
        <time>2019-08-16T07:57:08Z</time>
      </trkpt>
      <trkpt lat="41.6423030" lon="-8.7768970">
        <ele>75.0</ele>
        <time>2019-08-16T07:57:09Z</time>
      </trkpt>
      <trkpt lat="41.6423750" lon="-8.7768890">
        <ele>74.4</ele>
        <time>2019-08-16T07:57:10Z</time>
      </trkpt>
      <trkpt lat="41.6424420" lon="-8.7768920">
        <ele>73.8</ele>
        <time>2019-08-16T07:57:11Z</time>
      </trkpt>
      <trkpt lat="41.6425070" lon="-8.7769030">
        <ele>73.2</ele>
        <time>2019-08-16T07:57:12Z</time>
      </trkpt>
      <trkpt lat="41.6425780" lon="-8.7769240">
        <ele>72.6</ele>
        <time>2019-08-16T07:57:13Z</time>
      </trkpt>
      <trkpt lat="41.6426420" lon="-8.7769500">
        <ele>72.0</ele>
        <time>2019-08-16T07:57:14Z</time>
      </trkpt>
      <trkpt lat="41.6427020" lon="-8.7769780">
        <ele>71.6</ele>
        <time>2019-08-16T07:57:15Z</time>
      </trkpt>
      <trkpt lat="41.6427620" lon="-8.7770120">
        <ele>71.2</ele>
        <time>2019-08-16T07:57:16Z</time>
      </trkpt>
      <trkpt lat="41.6428090" lon="-8.7770570">
        <ele>70.8</ele>
        <time>2019-08-16T07:57:17Z</time>
      </trkpt>
      <trkpt lat="41.6428590" lon="-8.7770920">
        <ele>70.4</ele>
        <time>2019-08-16T07:57:18Z</time>
      </trkpt>
      <trkpt lat="41.6429160" lon="-8.7771250">
        <ele>70.0</ele>
        <time>2019-08-16T07:57:19Z</time>
      </trkpt>
      <trkpt lat="41.6430730" lon="-8.7772050">
        <ele>69.4</ele>
        <time>2019-08-16T07:57:22Z</time>
      </trkpt>
      <trkpt lat="41.6431300" lon="-8.7772290">
        <ele>69.0</ele>
        <time>2019-08-16T07:57:23Z</time>
      </trkpt>
      <trkpt lat="41.6431850" lon="-8.7772520">
        <ele>68.6</ele>
        <time>2019-08-16T07:57:24Z</time>
      </trkpt>
      <trkpt lat="41.6432430" lon="-8.7772760">
        <ele>68.2</ele>
        <time>2019-08-16T07:57:25Z</time>
      </trkpt>
      <trkpt lat="41.6432930" lon="-8.7772980">
        <ele>67.8</ele>
        <time>2019-08-16T07:57:26Z</time>
      </trkpt>
      <trkpt lat="41.6435510" lon="-8.7774420">
        <ele>67.2</ele>
        <time>2019-08-16T07:57:31Z</time>
      </trkpt>
      <trkpt lat="41.6436070" lon="-8.7774620">
        <ele>66.8</ele>
        <time>2019-08-16T07:57:32Z</time>
      </trkpt>
      <trkpt lat="41.6436670" lon="-8.7774840">
        <ele>66.4</ele>
        <time>2019-08-16T07:57:33Z</time>
      </trkpt>
      <trkpt lat="41.6437220" lon="-8.7775070">
        <ele>65.8</ele>
        <time>2019-08-16T07:57:34Z</time>
      </trkpt>
      <trkpt lat="41.6437830" lon="-8.7775320">
        <ele>65.4</ele>
        <time>2019-08-16T07:57:35Z</time>
      </trkpt>
      <trkpt lat="41.6438460" lon="-8.7775500">
        <ele>65.0</ele>
        <time>2019-08-16T07:57:36Z</time>
      </trkpt>
      <trkpt lat="41.6439150" lon="-8.7775620">
        <ele>64.6</ele>
        <time>2019-08-16T07:57:37Z</time>
      </trkpt>
      <trkpt lat="41.6439830" lon="-8.7775850">
        <ele>64.2</ele>
        <time>2019-08-16T07:57:38Z</time>
      </trkpt>
      <trkpt lat="41.6440550" lon="-8.7776120">
        <ele>63.8</ele>
        <time>2019-08-16T07:57:39Z</time>
      </trkpt>
      <trkpt lat="41.6441280" lon="-8.7776400">
        <ele>63.2</ele>
        <time>2019-08-16T07:57:40Z</time>
      </trkpt>
      <trkpt lat="41.6442040" lon="-8.7776660">
        <ele>62.6</ele>
        <time>2019-08-16T07:57:41Z</time>
      </trkpt>
      <trkpt lat="41.6442820" lon="-8.7776970">
        <ele>62.0</ele>
        <time>2019-08-16T07:57:42Z</time>
      </trkpt>
      <trkpt lat="41.6443570" lon="-8.7777320">
        <ele>61.4</ele>
        <time>2019-08-16T07:57:43Z</time>
      </trkpt>
      <trkpt lat="41.6444300" lon="-8.7777730">
        <ele>60.8</ele>
        <time>2019-08-16T07:57:44Z</time>
      </trkpt>
      <trkpt lat="41.6445000" lon="-8.7778230">
        <ele>60.2</ele>
        <time>2019-08-16T07:57:45Z</time>
      </trkpt>
      <trkpt lat="41.6445700" lon="-8.7778920">
        <ele>59.6</ele>
        <time>2019-08-16T07:57:46Z</time>
      </trkpt>
      <trkpt lat="41.6446350" lon="-8.7779600">
        <ele>59.0</ele>
        <time>2019-08-16T07:57:47Z</time>
      </trkpt>
      <trkpt lat="41.6447000" lon="-8.7780380">
        <ele>58.4</ele>
        <time>2019-08-16T07:57:48Z</time>
      </trkpt>
      <trkpt lat="41.6447670" lon="-8.7781150">
        <ele>57.8</ele>
        <time>2019-08-16T07:57:49Z</time>
      </trkpt>
      <trkpt lat="41.6448420" lon="-8.7781910">
        <ele>57.4</ele>
        <time>2019-08-16T07:57:50Z</time>
      </trkpt>
      <trkpt lat="41.6449210" lon="-8.7782670">
        <ele>57.0</ele>
        <time>2019-08-16T07:57:51Z</time>
      </trkpt>
      <trkpt lat="41.6450030" lon="-8.7783350">
        <ele>56.4</ele>
        <time>2019-08-16T07:57:52Z</time>
      </trkpt>
      <trkpt lat="41.6450850" lon="-8.7784050">
        <ele>55.8</ele>
        <time>2019-08-16T07:57:53Z</time>
      </trkpt>
      <trkpt lat="41.6451710" lon="-8.7784720">
        <ele>55.4</ele>
        <time>2019-08-16T07:57:54Z</time>
      </trkpt>
      <trkpt lat="41.6452550" lon="-8.7785360">
        <ele>54.6</ele>
        <time>2019-08-16T07:57:55Z</time>
      </trkpt>
      <trkpt lat="41.6453450" lon="-8.7786020">
        <ele>53.8</ele>
        <time>2019-08-16T07:57:56Z</time>
      </trkpt>
      <trkpt lat="41.6454270" lon="-8.7786690">
        <ele>53.0</ele>
        <time>2019-08-16T07:57:57Z</time>
      </trkpt>
      <trkpt lat="41.6455110" lon="-8.7787400">
        <ele>52.2</ele>
        <time>2019-08-16T07:57:58Z</time>
      </trkpt>
      <trkpt lat="41.6455870" lon="-8.7788020">
        <ele>51.4</ele>
        <time>2019-08-16T07:57:59Z</time>
      </trkpt>
      <trkpt lat="41.6458300" lon="-8.7789840">
        <ele>51.4</ele>
        <time>2019-08-16T07:58:02Z</time>
      </trkpt>
      <trkpt lat="41.6459660" lon="-8.7791000">
        <ele>51.0</ele>
        <time>2019-08-16T07:58:04Z</time>
      </trkpt>
      <trkpt lat="41.6460200" lon="-8.7791570">
        <ele>50.6</ele>
        <time>2019-08-16T07:58:05Z</time>
      </trkpt>
      <trkpt lat="41.6460680" lon="-8.7792000">
        <ele>50.2</ele>
        <time>2019-08-16T07:58:06Z</time>
      </trkpt>
      <trkpt lat="41.6460940" lon="-8.7792280">
        <ele>49.6</ele>
        <time>2019-08-16T07:58:07Z</time>
      </trkpt>
      <trkpt lat="41.6461080" lon="-8.7792750">
        <ele>49.2</ele>
        <time>2019-08-16T07:58:08Z</time>
      </trkpt>
      <trkpt lat="41.6461170" lon="-8.7793170">
        <ele>49.2</ele>
        <time>2019-08-16T07:58:09Z</time>
      </trkpt>
      <trkpt lat="41.6461930" lon="-8.7796390">
        <ele>49.2</ele>
        <time>2019-08-16T07:58:16Z</time>
      </trkpt>
      <trkpt lat="41.6462040" lon="-8.7796920">
        <ele>49.2</ele>
        <time>2019-08-16T07:58:17Z</time>
      </trkpt>
      <trkpt lat="41.6463380" lon="-8.7801820">
        <ele>49.2</ele>
        <time>2019-08-16T07:58:25Z</time>
      </trkpt>
      <trkpt lat="41.6463840" lon="-8.7802970">
        <ele>48.8</ele>
        <time>2019-08-16T07:58:27Z</time>
      </trkpt>
      <trkpt lat="41.6464070" lon="-8.7803560">
        <ele>48.4</ele>
        <time>2019-08-16T07:58:28Z</time>
      </trkpt>
      <trkpt lat="41.6464310" lon="-8.7804120">
        <ele>48.0</ele>
        <time>2019-08-16T07:58:29Z</time>
      </trkpt>
      <trkpt lat="41.6464530" lon="-8.7804700">
        <ele>47.4</ele>
        <time>2019-08-16T07:58:30Z</time>
      </trkpt>
      <trkpt lat="41.6464760" lon="-8.7805290">
        <ele>47.0</ele>
        <time>2019-08-16T07:58:31Z</time>
      </trkpt>
      <trkpt lat="41.6465040" lon="-8.7806530">
        <ele>47.0</ele>
        <time>2019-08-16T07:58:33Z</time>
      </trkpt>
      <trkpt lat="41.6465240" lon="-8.7808030">
        <ele>47.0</ele>
        <time>2019-08-16T07:58:35Z</time>
      </trkpt>
      <trkpt lat="41.6464930" lon="-8.7809770">
        <ele>46.6</ele>
        <time>2019-08-16T07:58:37Z</time>
      </trkpt>
      <trkpt lat="41.6464790" lon="-8.7810610">
        <ele>46.0</ele>
        <time>2019-08-16T07:58:38Z</time>
      </trkpt>
      <trkpt lat="41.6464670" lon="-8.7811470">
        <ele>45.6</ele>
        <time>2019-08-16T07:58:39Z</time>
      </trkpt>
      <trkpt lat="41.6464540" lon="-8.7812240">
        <ele>45.2</ele>
        <time>2019-08-16T07:58:40Z</time>
      </trkpt>
      <trkpt lat="41.6464390" lon="-8.7813040">
        <ele>44.8</ele>
        <time>2019-08-16T07:58:41Z</time>
      </trkpt>
      <trkpt lat="41.6463790" lon="-8.7816570">
        <ele>44.8</ele>
        <time>2019-08-16T07:58:45Z</time>
      </trkpt>
      <trkpt lat="41.6463480" lon="-8.7818320">
        <ele>44.2</ele>
        <time>2019-08-16T07:58:47Z</time>
      </trkpt>
      <trkpt lat="41.6463290" lon="-8.7819190">
        <ele>43.8</ele>
        <time>2019-08-16T07:58:48Z</time>
      </trkpt>
      <trkpt lat="41.6463140" lon="-8.7819980">
        <ele>43.2</ele>
        <time>2019-08-16T07:58:49Z</time>
      </trkpt>
      <trkpt lat="41.6463080" lon="-8.7820710">
        <ele>42.8</ele>
        <time>2019-08-16T07:58:50Z</time>
      </trkpt>
      <trkpt lat="41.6463060" lon="-8.7821330">
        <ele>42.4</ele>
        <time>2019-08-16T07:58:51Z</time>
      </trkpt>
      <trkpt lat="41.6463620" lon="-8.7822110">
        <ele>42.4</ele>
        <time>2019-08-16T07:58:53Z</time>
      </trkpt>
      <trkpt lat="41.6465270" lon="-8.7822460">
        <ele>42.4</ele>
        <time>2019-08-16T07:58:57Z</time>
      </trkpt>
      <trkpt lat="41.6468810" lon="-8.7822690">
        <ele>42.4</ele>
        <time>2019-08-16T07:59:05Z</time>
      </trkpt>
      <trkpt lat="41.6471870" lon="-8.7822300">
        <ele>42.4</ele>
        <time>2019-08-16T07:59:12Z</time>
      </trkpt>
      <trkpt lat="41.6472300" lon="-8.7822310">
        <ele>42.4</ele>
        <time>2019-08-16T07:59:13Z</time>
      </trkpt>
      <trkpt lat="41.6474290" lon="-8.7822530">
        <ele>42.4</ele>
        <time>2019-08-16T07:59:18Z</time>
      </trkpt>
      <trkpt lat="41.6476350" lon="-8.7823210">
        <ele>42.8</ele>
        <time>2019-08-16T07:59:24Z</time>
      </trkpt>
      <trkpt lat="41.6476620" lon="-8.7823340">
        <ele>43.2</ele>
        <time>2019-08-16T07:59:25Z</time>
      </trkpt>
      <trkpt lat="41.6476870" lon="-8.7823450">
        <ele>43.6</ele>
        <time>2019-08-16T07:59:26Z</time>
      </trkpt>
      <trkpt lat="41.6477120" lon="-8.7823550">
        <ele>44.0</ele>
        <time>2019-08-16T07:59:27Z</time>
      </trkpt>
      <trkpt lat="41.6477390" lon="-8.7823570">
        <ele>44.6</ele>
        <time>2019-08-16T07:59:28Z</time>
      </trkpt>
      <trkpt lat="41.6478610" lon="-8.7823180">
        <ele>44.6</ele>
        <time>2019-08-16T07:59:32Z</time>
      </trkpt>
      <trkpt lat="41.6479710" lon="-8.7821660">
        <ele>44.6</ele>
        <time>2019-08-16T07:59:36Z</time>
      </trkpt>
      <trkpt lat="41.6481010" lon="-8.7820630">
        <ele>44.6</ele>
        <time>2019-08-16T07:59:40Z</time>
      </trkpt>
      <trkpt lat="41.6483570" lon="-8.7819170">
        <ele>44.6</ele>
        <time>2019-08-16T07:59:47Z</time>
      </trkpt>
      <trkpt lat="41.6486070" lon="-8.7817870">
        <ele>44.6</ele>
        <time>2019-08-16T07:59:54Z</time>
      </trkpt>
      <trkpt lat="41.6487400" lon="-8.7817550">
        <ele>44.6</ele>
        <time>2019-08-16T07:59:58Z</time>
      </trkpt>
      <trkpt lat="41.6489980" lon="-8.7817270">
        <ele>44.6</ele>
        <time>2019-08-16T08:00:04Z</time>
      </trkpt>
      <trkpt lat="41.6492590" lon="-8.7816960">
        <ele>44.6</ele>
        <time>2019-08-16T08:00:10Z</time>
      </trkpt>
      <trkpt lat="41.6493500" lon="-8.7817030">
        <ele>44.6</ele>
        <time>2019-08-16T08:00:12Z</time>
      </trkpt>
      <trkpt lat="41.6493950" lon="-8.7817070">
        <ele>44.6</ele>
        <time>2019-08-16T08:00:13Z</time>
      </trkpt>
      <trkpt lat="41.6494450" lon="-8.7817300">
        <ele>44.2</ele>
        <time>2019-08-16T08:00:15Z</time>
      </trkpt>
      <trkpt lat="41.6494590" lon="-8.7817670">
        <ele>43.8</ele>
        <time>2019-08-16T08:00:16Z</time>
      </trkpt>
      <trkpt lat="41.6494660" lon="-8.7818130">
        <ele>43.4</ele>
        <time>2019-08-16T08:00:17Z</time>
      </trkpt>
      <trkpt lat="41.6494650" lon="-8.7818660">
        <ele>43.0</ele>
        <time>2019-08-16T08:00:18Z</time>
      </trkpt>
      <trkpt lat="41.6494620" lon="-8.7819230">
        <ele>42.6</ele>
        <time>2019-08-16T08:00:19Z</time>
      </trkpt>
      <trkpt lat="41.6494560" lon="-8.7819780">
        <ele>42.6</ele>
        <time>2019-08-16T08:00:20Z</time>
      </trkpt>
      <trkpt lat="41.6494500" lon="-8.7820310">
        <ele>42.6</ele>
        <time>2019-08-16T08:00:21Z</time>
      </trkpt>
      <trkpt lat="41.6493760" lon="-8.7824680">
        <ele>42.6</ele>
        <time>2019-08-16T08:00:29Z</time>
      </trkpt>
      <trkpt lat="41.6492150" lon="-8.7829210">
        <ele>42.6</ele>
        <time>2019-08-16T08:00:38Z</time>
      </trkpt>
      <trkpt lat="41.6492120" lon="-8.7829720">
        <ele>42.6</ele>
        <time>2019-08-16T08:00:39Z</time>
      </trkpt>
      <trkpt lat="41.6492630" lon="-8.7830620">
        <ele>42.6</ele>
        <time>2019-08-16T08:00:41Z</time>
      </trkpt>
      <trkpt lat="41.6493190" lon="-8.7831330">
        <ele>42.6</ele>
        <time>2019-08-16T08:00:44Z</time>
      </trkpt>
      <trkpt lat="41.6493510" lon="-8.7831540">
        <ele>42.6</ele>
        <time>2019-08-16T08:00:50Z</time>
      </trkpt>
      <trkpt lat="41.6494090" lon="-8.7831810">
        <ele>42.6</ele>
        <time>2019-08-16T08:00:52Z</time>
      </trkpt>
      <trkpt lat="41.6496910" lon="-8.7833520">
        <ele>42.6</ele>
        <time>2019-08-16T08:01:00Z</time>
      </trkpt>
      <trkpt lat="41.6497690" lon="-8.7834210">
        <ele>42.0</ele>
        <time>2019-08-16T08:01:02Z</time>
      </trkpt>
      <trkpt lat="41.6498070" lon="-8.7834560">
        <ele>41.6</ele>
        <time>2019-08-16T08:01:03Z</time>
      </trkpt>
      <trkpt lat="41.6498410" lon="-8.7834870">
        <ele>41.2</ele>
        <time>2019-08-16T08:01:04Z</time>
      </trkpt>
      <trkpt lat="41.6498750" lon="-8.7835100">
        <ele>40.8</ele>
        <time>2019-08-16T08:01:05Z</time>
      </trkpt>
      <trkpt lat="41.6499160" lon="-8.7835330">
        <ele>40.4</ele>
        <time>2019-08-16T08:01:06Z</time>
      </trkpt>
      <trkpt lat="41.6501560" lon="-8.7836500">
        <ele>40.4</ele>
        <time>2019-08-16T08:01:12Z</time>
      </trkpt>
      <trkpt lat="41.6504870" lon="-8.7837780">
        <ele>40.4</ele>
        <time>2019-08-16T08:01:21Z</time>
      </trkpt>
      <trkpt lat="41.6505230" lon="-8.7837950">
        <ele>40.0</ele>
        <time>2019-08-16T08:01:22Z</time>
      </trkpt>
      <trkpt lat="41.6505730" lon="-8.7838000">
        <ele>39.6</ele>
        <time>2019-08-16T08:01:23Z</time>
      </trkpt>
      <trkpt lat="41.6506220" lon="-8.7838150">
        <ele>39.0</ele>
        <time>2019-08-16T08:01:24Z</time>
      </trkpt>
      <trkpt lat="41.6506710" lon="-8.7838320">
        <ele>38.6</ele>
        <time>2019-08-16T08:01:25Z</time>
      </trkpt>
      <trkpt lat="41.6507200" lon="-8.7838560">
        <ele>38.2</ele>
        <time>2019-08-16T08:01:26Z</time>
      </trkpt>
      <trkpt lat="41.6510580" lon="-8.7840590">
        <ele>38.2</ele>
        <time>2019-08-16T08:01:33Z</time>
      </trkpt>
      <trkpt lat="41.6510980" lon="-8.7840980">
        <ele>38.2</ele>
        <time>2019-08-16T08:01:34Z</time>
      </trkpt>
      <trkpt lat="41.6512120" lon="-8.7842340">
        <ele>37.8</ele>
        <time>2019-08-16T08:01:37Z</time>
      </trkpt>
      <trkpt lat="41.6512550" lon="-8.7842760">
        <ele>37.4</ele>
        <time>2019-08-16T08:01:38Z</time>
      </trkpt>
      <trkpt lat="41.6512980" lon="-8.7843190">
        <ele>37.0</ele>
        <time>2019-08-16T08:01:39Z</time>
      </trkpt>
      <trkpt lat="41.6513350" lon="-8.7843680">
        <ele>36.6</ele>
        <time>2019-08-16T08:01:40Z</time>
      </trkpt>
      <trkpt lat="41.6513620" lon="-8.7844260">
        <ele>36.2</ele>
        <time>2019-08-16T08:01:41Z</time>
      </trkpt>
      <trkpt lat="41.6513840" lon="-8.7845610">
        <ele>36.2</ele>
        <time>2019-08-16T08:01:43Z</time>
      </trkpt>
      <trkpt lat="41.6513450" lon="-8.7849090">
        <ele>36.2</ele>
        <time>2019-08-16T08:01:48Z</time>
      </trkpt>
      <trkpt lat="41.6512300" lon="-8.7851140">
        <ele>36.2</ele>
        <time>2019-08-16T08:01:52Z</time>
      </trkpt>
      <trkpt lat="41.6511690" lon="-8.7852870">
        <ele>36.2</ele>
        <time>2019-08-16T08:01:56Z</time>
      </trkpt>
      <trkpt lat="41.6511870" lon="-8.7853290">
        <ele>36.2</ele>
        <time>2019-08-16T08:01:57Z</time>
      </trkpt>
      <trkpt lat="41.6513330" lon="-8.7855160">
        <ele>36.2</ele>
        <time>2019-08-16T08:02:02Z</time>
      </trkpt>
      <trkpt lat="41.6514900" lon="-8.7858510">
        <ele>36.2</ele>
        <time>2019-08-16T08:02:08Z</time>
      </trkpt>
      <trkpt lat="41.6517840" lon="-8.7863070">
        <ele>36.2</ele>
        <time>2019-08-16T08:02:17Z</time>
      </trkpt>
      <trkpt lat="41.6518640" lon="-8.7863850">
        <ele>36.2</ele>
        <time>2019-08-16T08:02:19Z</time>
      </trkpt>
      <trkpt lat="41.6519920" lon="-8.7864660">
        <ele>36.2</ele>
        <time>2019-08-16T08:02:22Z</time>
      </trkpt>
      <trkpt lat="41.6520760" lon="-8.7865250">
        <ele>35.8</ele>
        <time>2019-08-16T08:02:24Z</time>
      </trkpt>
      <trkpt lat="41.6521190" lon="-8.7865570">
        <ele>35.4</ele>
        <time>2019-08-16T08:02:25Z</time>
      </trkpt>
      <trkpt lat="41.6521640" lon="-8.7865930">
        <ele>34.8</ele>
        <time>2019-08-16T08:02:26Z</time>
      </trkpt>
      <trkpt lat="41.6522070" lon="-8.7866330">
        <ele>34.4</ele>
        <time>2019-08-16T08:02:27Z</time>
      </trkpt>
      <trkpt lat="41.6522530" lon="-8.7866720">
        <ele>34.0</ele>
        <time>2019-08-16T08:02:28Z</time>
      </trkpt>
      <trkpt lat="41.6525850" lon="-8.7869880">
        <ele>34.0</ele>
        <time>2019-08-16T08:02:36Z</time>
      </trkpt>
      <trkpt lat="41.6527190" lon="-8.7870690">
        <ele>34.0</ele>
        <time>2019-08-16T08:02:39Z</time>
      </trkpt>
      <trkpt lat="41.6528150" lon="-8.7870560">
        <ele>34.0</ele>
        <time>2019-08-16T08:02:41Z</time>
      </trkpt>
      <trkpt lat="41.6529210" lon="-8.7869410">
        <ele>34.0</ele>
        <time>2019-08-16T08:02:44Z</time>
      </trkpt>
      <trkpt lat="41.6531000" lon="-8.7867130">
        <ele>34.0</ele>
        <time>2019-08-16T08:02:49Z</time>
      </trkpt>
      <trkpt lat="41.6532400" lon="-8.7866330">
        <ele>34.0</ele>
        <time>2019-08-16T08:02:52Z</time>
      </trkpt>
      <trkpt lat="41.6533830" lon="-8.7866140">
        <ele>34.0</ele>
        <time>2019-08-16T08:02:55Z</time>
      </trkpt>
      <trkpt lat="41.6534700" lon="-8.7866100">
        <ele>34.0</ele>
        <time>2019-08-16T08:02:57Z</time>
      </trkpt>
      <trkpt lat="41.6536330" lon="-8.7866430">
        <ele>34.0</ele>
        <time>2019-08-16T08:03:01Z</time>
      </trkpt>
      <trkpt lat="41.6536750" lon="-8.7866790">
        <ele>34.0</ele>
        <time>2019-08-16T08:03:02Z</time>
      </trkpt>
      <trkpt lat="41.6538090" lon="-8.7868200">
        <ele>33.6</ele>
        <time>2019-08-16T08:03:06Z</time>
      </trkpt>
      <trkpt lat="41.6538440" lon="-8.7868510">
        <ele>33.2</ele>
        <time>2019-08-16T08:03:07Z</time>
      </trkpt>
      <trkpt lat="41.6538800" lon="-8.7868820">
        <ele>32.8</ele>
        <time>2019-08-16T08:03:08Z</time>
      </trkpt>
      <trkpt lat="41.6539150" lon="-8.7869120">
        <ele>32.2</ele>
        <time>2019-08-16T08:03:09Z</time>
      </trkpt>
      <trkpt lat="41.6539520" lon="-8.7869390">
        <ele>31.8</ele>
        <time>2019-08-16T08:03:10Z</time>
      </trkpt>
      <trkpt lat="41.6539890" lon="-8.7869570">
        <ele>31.8</ele>
        <time>2019-08-16T08:03:11Z</time>
      </trkpt>
      <trkpt lat="41.6540980" lon="-8.7869840">
        <ele>31.8</ele>
        <time>2019-08-16T08:03:14Z</time>
      </trkpt>
      <trkpt lat="41.6542520" lon="-8.7870120">
        <ele>31.8</ele>
        <time>2019-08-16T08:03:18Z</time>
      </trkpt>
      <trkpt lat="41.6543010" lon="-8.7870230">
        <ele>31.8</ele>
        <time>2019-08-16T08:03:19Z</time>
      </trkpt>
      <trkpt lat="41.6546840" lon="-8.7871450">
        <ele>31.8</ele>
        <time>2019-08-16T08:03:27Z</time>
      </trkpt>
      <trkpt lat="41.6547320" lon="-8.7871670">
        <ele>31.4</ele>
        <time>2019-08-16T08:03:28Z</time>
      </trkpt>
      <trkpt lat="41.6547810" lon="-8.7871890">
        <ele>31.0</ele>
        <time>2019-08-16T08:03:29Z</time>
      </trkpt>
      <trkpt lat="41.6548160" lon="-8.7872280">
        <ele>31.0</ele>
        <time>2019-08-16T08:03:30Z</time>
      </trkpt>
      <trkpt lat="41.6548540" lon="-8.7872730">
        <ele>30.2</ele>
        <time>2019-08-16T08:03:31Z</time>
      </trkpt>
      <trkpt lat="41.6549220" lon="-8.7873630">
        <ele>29.8</ele>
        <time>2019-08-16T08:03:33Z</time>
      </trkpt>
      <trkpt lat="41.6550720" lon="-8.7875170">
        <ele>29.8</ele>
        <time>2019-08-16T08:03:37Z</time>
      </trkpt>
      <trkpt lat="41.6553440" lon="-8.7877740">
        <ele>29.8</ele>
        <time>2019-08-16T08:03:44Z</time>
      </trkpt>
      <trkpt lat="41.6557680" lon="-8.7881670">
        <ele>29.8</ele>
        <time>2019-08-16T08:03:55Z</time>
      </trkpt>
      <trkpt lat="41.6560840" lon="-8.7884190">
        <ele>29.8</ele>
        <time>2019-08-16T08:04:03Z</time>
      </trkpt>
      <trkpt lat="41.6561170" lon="-8.7884550">
        <ele>29.8</ele>
        <time>2019-08-16T08:04:04Z</time>
      </trkpt>
      <trkpt lat="41.6561810" lon="-8.7885390">
        <ele>29.8</ele>
        <time>2019-08-16T08:04:06Z</time>
      </trkpt>
      <trkpt lat="41.6562080" lon="-8.7885860">
        <ele>29.8</ele>
        <time>2019-08-16T08:04:07Z</time>
      </trkpt>
      <trkpt lat="41.6564370" lon="-8.7889400">
        <ele>29.8</ele>
        <time>2019-08-16T08:04:14Z</time>
      </trkpt>
      <trkpt lat="41.6566410" lon="-8.7893400">
        <ele>29.8</ele>
        <time>2019-08-16T08:04:21Z</time>
      </trkpt>
      <trkpt lat="41.6566580" lon="-8.7894140">
        <ele>29.4</ele>
        <time>2019-08-16T08:04:22Z</time>
      </trkpt>
      <trkpt lat="41.6566730" lon="-8.7894930">
        <ele>29.0</ele>
        <time>2019-08-16T08:04:23Z</time>
      </trkpt>
      <trkpt lat="41.6566860" lon="-8.7895720">
        <ele>28.6</ele>
        <time>2019-08-16T08:04:24Z</time>
      </trkpt>
      <trkpt lat="41.6566930" lon="-8.7896480">
        <ele>28.2</ele>
        <time>2019-08-16T08:04:25Z</time>
      </trkpt>
      <trkpt lat="41.6566990" lon="-8.7897250">
        <ele>27.8</ele>
        <time>2019-08-16T08:04:26Z</time>
      </trkpt>
      <trkpt lat="41.6567210" lon="-8.7898730">
        <ele>27.8</ele>
        <time>2019-08-16T08:04:28Z</time>
      </trkpt>
      <trkpt lat="41.6568000" lon="-8.7900670">
        <ele>27.8</ele>
        <time>2019-08-16T08:04:31Z</time>
      </trkpt>
      <trkpt lat="41.6568830" lon="-8.7901730">
        <ele>27.4</ele>
        <time>2019-08-16T08:04:33Z</time>
      </trkpt>
      <trkpt lat="41.6569270" lon="-8.7902120">
        <ele>27.0</ele>
        <time>2019-08-16T08:04:34Z</time>
      </trkpt>
      <trkpt lat="41.6569750" lon="-8.7902410">
        <ele>26.6</ele>
        <time>2019-08-16T08:04:35Z</time>
      </trkpt>
      <trkpt lat="41.6570270" lon="-8.7902450">
        <ele>26.0</ele>
        <time>2019-08-16T08:04:36Z</time>
      </trkpt>
      <trkpt lat="41.6570720" lon="-8.7902040">
        <ele>25.6</ele>
        <time>2019-08-16T08:04:37Z</time>
      </trkpt>
      <trkpt lat="41.6571090" lon="-8.7901590">
        <ele>25.6</ele>
        <time>2019-08-16T08:04:38Z</time>
      </trkpt>
      <trkpt lat="41.6571470" lon="-8.7901150">
        <ele>25.6</ele>
        <time>2019-08-16T08:04:39Z</time>
      </trkpt>
      <trkpt lat="41.6573780" lon="-8.7899520">
        <ele>25.6</ele>
        <time>2019-08-16T08:04:45Z</time>
      </trkpt>
      <trkpt lat="41.6574800" lon="-8.7899150">
        <ele>25.6</ele>
        <time>2019-08-16T08:04:47Z</time>
      </trkpt>
      <trkpt lat="41.6576040" lon="-8.7899040">
        <ele>25.6</ele>
        <time>2019-08-16T08:04:49Z</time>
      </trkpt>
      <trkpt lat="41.6577250" lon="-8.7899180">
        <ele>25.6</ele>
        <time>2019-08-16T08:04:51Z</time>
      </trkpt>
      <trkpt lat="41.6580600" lon="-8.7899600">
        <ele>25.6</ele>
        <time>2019-08-16T08:04:57Z</time>
      </trkpt>
      <trkpt lat="41.6581110" lon="-8.7899510">
        <ele>25.6</ele>
        <time>2019-08-16T08:04:58Z</time>
      </trkpt>
      <trkpt lat="41.6582730" lon="-8.7898710">
        <ele>25.6</ele>
        <time>2019-08-16T08:05:01Z</time>
      </trkpt>
      <trkpt lat="41.6583230" lon="-8.7898440">
        <ele>25.2</ele>
        <time>2019-08-16T08:05:02Z</time>
      </trkpt>
      <trkpt lat="41.6583750" lon="-8.7898160">
        <ele>24.8</ele>
        <time>2019-08-16T08:05:03Z</time>
      </trkpt>
      <trkpt lat="41.6584250" lon="-8.7897850">
        <ele>24.4</ele>
        <time>2019-08-16T08:05:04Z</time>
      </trkpt>
      <trkpt lat="41.6584760" lon="-8.7897540">
        <ele>23.8</ele>
        <time>2019-08-16T08:05:05Z</time>
      </trkpt>
      <trkpt lat="41.6585260" lon="-8.7897250">
        <ele>23.4</ele>
        <time>2019-08-16T08:05:06Z</time>
      </trkpt>
      <trkpt lat="41.6586710" lon="-8.7896160">
        <ele>23.4</ele>
        <time>2019-08-16T08:05:09Z</time>
      </trkpt>
      <trkpt lat="41.6587110" lon="-8.7895640">
        <ele>23.4</ele>
        <time>2019-08-16T08:05:10Z</time>
      </trkpt>
      <trkpt lat="41.6588120" lon="-8.7893240">
        <ele>23.4</ele>
        <time>2019-08-16T08:05:14Z</time>
      </trkpt>
      <trkpt lat="41.6589700" lon="-8.7889140">
        <ele>23.4</ele>
        <time>2019-08-16T08:05:21Z</time>
      </trkpt>
      <trkpt lat="41.6589900" lon="-8.7888000">
        <ele>23.4</ele>
        <time>2019-08-16T08:05:23Z</time>
      </trkpt>
      <trkpt lat="41.6589790" lon="-8.7886970">
        <ele>23.4</ele>
        <time>2019-08-16T08:05:25Z</time>
      </trkpt>
      <trkpt lat="41.6589870" lon="-8.7886040">
        <ele>23.4</ele>
        <time>2019-08-16T08:05:28Z</time>
      </trkpt>
      <trkpt lat="41.6590040" lon="-8.7885090">
        <ele>23.8</ele>
        <time>2019-08-16T08:05:31Z</time>
      </trkpt>
      <trkpt lat="41.6590190" lon="-8.7884780">
        <ele>24.2</ele>
        <time>2019-08-16T08:05:32Z</time>
      </trkpt>
      <trkpt lat="41.6590420" lon="-8.7884480">
        <ele>24.8</ele>
        <time>2019-08-16T08:05:33Z</time>
      </trkpt>
      <trkpt lat="41.6590720" lon="-8.7884210">
        <ele>25.2</ele>
        <time>2019-08-16T08:05:34Z</time>
      </trkpt>
      <trkpt lat="41.6591020" lon="-8.7883980">
        <ele>25.6</ele>
        <time>2019-08-16T08:05:35Z</time>
      </trkpt>
      <trkpt lat="41.6592850" lon="-8.7882940">
        <ele>25.6</ele>
        <time>2019-08-16T08:05:41Z</time>
      </trkpt>
      <trkpt lat="41.6594650" lon="-8.7881640">
        <ele>25.6</ele>
        <time>2019-08-16T08:05:47Z</time>
      </trkpt>
      <trkpt lat="41.6597020" lon="-8.7879670">
        <ele>25.6</ele>
        <time>2019-08-16T08:05:55Z</time>
      </trkpt>
      <trkpt lat="41.6599840" lon="-8.7877900">
        <ele>25.6</ele>
        <time>2019-08-16T08:06:03Z</time>
      </trkpt>
      <trkpt lat="41.6602070" lon="-8.7876380">
        <ele>25.6</ele>
        <time>2019-08-16T08:06:10Z</time>
      </trkpt>
      <trkpt lat="41.6603970" lon="-8.7875400">
        <ele>25.6</ele>
        <time>2019-08-16T08:06:17Z</time>
      </trkpt>
      <trkpt lat="41.6605080" lon="-8.7876370">
        <ele>25.6</ele>
        <time>2019-08-16T08:06:21Z</time>
      </trkpt>
      <trkpt lat="41.6607010" lon="-8.7879100">
        <ele>25.6</ele>
        <time>2019-08-16T08:06:28Z</time>
      </trkpt>
      <trkpt lat="41.6608080" lon="-8.7881730">
        <ele>25.6</ele>
        <time>2019-08-16T08:06:34Z</time>
      </trkpt>
      <trkpt lat="41.6608950" lon="-8.7883550">
        <ele>26.0</ele>
        <time>2019-08-16T08:06:39Z</time>
      </trkpt>
      <trkpt lat="41.6609100" lon="-8.7883850">
        <ele>26.4</ele>
        <time>2019-08-16T08:06:40Z</time>
      </trkpt>
      <trkpt lat="41.6609240" lon="-8.7884150">
        <ele>26.8</ele>
        <time>2019-08-16T08:06:41Z</time>
      </trkpt>
      <trkpt lat="41.6609380" lon="-8.7884440">
        <ele>27.2</ele>
        <time>2019-08-16T08:06:42Z</time>
      </trkpt>
      <trkpt lat="41.6609540" lon="-8.7884740">
        <ele>27.6</ele>
        <time>2019-08-16T08:06:43Z</time>
      </trkpt>
      <trkpt lat="41.6610740" lon="-8.7887540">
        <ele>27.6</ele>
        <time>2019-08-16T08:06:51Z</time>
      </trkpt>
      <trkpt lat="41.6612640" lon="-8.7891240">
        <ele>27.6</ele>
        <time>2019-08-16T08:07:00Z</time>
      </trkpt>
      <trkpt lat="41.6613410" lon="-8.7893010">
        <ele>27.6</ele>
        <time>2019-08-16T08:07:04Z</time>
      </trkpt>
      <trkpt lat="41.6613610" lon="-8.7894130">
        <ele>27.6</ele>
        <time>2019-08-16T08:07:06Z</time>
      </trkpt>
      <trkpt lat="41.6613730" lon="-8.7897260">
        <ele>27.6</ele>
        <time>2019-08-16T08:07:11Z</time>
      </trkpt>
      <trkpt lat="41.6613990" lon="-8.7898360">
        <ele>27.6</ele>
        <time>2019-08-16T08:07:13Z</time>
      </trkpt>
      <trkpt lat="41.6615200" lon="-8.7903240">
        <ele>27.6</ele>
        <time>2019-08-16T08:07:22Z</time>
      </trkpt>
      <trkpt lat="41.6616590" lon="-8.7908440">
        <ele>27.6</ele>
        <time>2019-08-16T08:07:32Z</time>
      </trkpt>
      <trkpt lat="41.6616830" lon="-8.7908880">
        <ele>27.6</ele>
        <time>2019-08-16T08:07:33Z</time>
      </trkpt>
      <trkpt lat="41.6617890" lon="-8.7910440">
        <ele>28.0</ele>
        <time>2019-08-16T08:07:37Z</time>
      </trkpt>
      <trkpt lat="41.6618190" lon="-8.7910820">
        <ele>28.4</ele>
        <time>2019-08-16T08:07:38Z</time>
      </trkpt>
      <trkpt lat="41.6618510" lon="-8.7911230">
        <ele>29.0</ele>
        <time>2019-08-16T08:07:39Z</time>
      </trkpt>
      <trkpt lat="41.6618780" lon="-8.7911630">
        <ele>29.4</ele>
        <time>2019-08-16T08:07:40Z</time>
      </trkpt>
      <trkpt lat="41.6619030" lon="-8.7912020">
        <ele>29.8</ele>
        <time>2019-08-16T08:07:41Z</time>
      </trkpt>
      <trkpt lat="41.6620270" lon="-8.7914020">
        <ele>29.8</ele>
        <time>2019-08-16T08:07:46Z</time>
      </trkpt>
      <trkpt lat="41.6621800" lon="-8.7917440">
        <ele>29.8</ele>
        <time>2019-08-16T08:07:54Z</time>
      </trkpt>
      <trkpt lat="41.6622580" lon="-8.7919080">
        <ele>30.2</ele>
        <time>2019-08-16T08:07:58Z</time>
      </trkpt>
      <trkpt lat="41.6622790" lon="-8.7919420">
        <ele>30.6</ele>
        <time>2019-08-16T08:07:59Z</time>
      </trkpt>
      <trkpt lat="41.6623010" lon="-8.7919770">
        <ele>31.0</ele>
        <time>2019-08-16T08:08:00Z</time>
      </trkpt>
      <trkpt lat="41.6623230" lon="-8.7920150">
        <ele>31.4</ele>
        <time>2019-08-16T08:08:01Z</time>
      </trkpt>
      <trkpt lat="41.6623420" lon="-8.7920520">
        <ele>31.8</ele>
        <time>2019-08-16T08:08:02Z</time>
      </trkpt>
      <trkpt lat="41.6624220" lon="-8.7922770">
        <ele>31.8</ele>
        <time>2019-08-16T08:08:08Z</time>
      </trkpt>
      <trkpt lat="41.6624510" lon="-8.7923490">
        <ele>32.2</ele>
        <time>2019-08-16T08:08:10Z</time>
      </trkpt>
      <trkpt lat="41.6624720" lon="-8.7923840">
        <ele>32.6</ele>
        <time>2019-08-16T08:08:11Z</time>
      </trkpt>
      <trkpt lat="41.6624950" lon="-8.7924110">
        <ele>33.0</ele>
        <time>2019-08-16T08:08:12Z</time>
      </trkpt>
      <trkpt lat="41.6625150" lon="-8.7924410">
        <ele>33.4</ele>
        <time>2019-08-16T08:08:13Z</time>
      </trkpt>
      <trkpt lat="41.6625360" lon="-8.7924720">
        <ele>33.8</ele>
        <time>2019-08-16T08:08:14Z</time>
      </trkpt>
      <trkpt lat="41.6626880" lon="-8.7927280">
        <ele>33.8</ele>
        <time>2019-08-16T08:08:21Z</time>
      </trkpt>
      <trkpt lat="41.6627320" lon="-8.7927900">
        <ele>34.2</ele>
        <time>2019-08-16T08:08:23Z</time>
      </trkpt>
      <trkpt lat="41.6627550" lon="-8.7928170">
        <ele>34.6</ele>
        <time>2019-08-16T08:08:24Z</time>
      </trkpt>
      <trkpt lat="41.6627770" lon="-8.7928420">
        <ele>35.0</ele>
        <time>2019-08-16T08:08:25Z</time>
      </trkpt>
      <trkpt lat="41.6628010" lon="-8.7928660">
        <ele>35.4</ele>
        <time>2019-08-16T08:08:26Z</time>
      </trkpt>
      <trkpt lat="41.6628210" lon="-8.7928910">
        <ele>35.8</ele>
        <time>2019-08-16T08:08:27Z</time>
      </trkpt>
      <trkpt lat="41.6628380" lon="-8.7929240">
        <ele>35.8</ele>
        <time>2019-08-16T08:08:28Z</time>
      </trkpt>
      <trkpt lat="41.6629400" lon="-8.7930090">
        <ele>36.2</ele>
        <time>2019-08-16T08:08:32Z</time>
      </trkpt>
      <trkpt lat="41.6629660" lon="-8.7930250">
        <ele>36.8</ele>
        <time>2019-08-16T08:08:33Z</time>
      </trkpt>
      <trkpt lat="41.6629850" lon="-8.7930440">
        <ele>37.2</ele>
        <time>2019-08-16T08:08:34Z</time>
      </trkpt>
      <trkpt lat="41.6630080" lon="-8.7930480">
        <ele>37.6</ele>
        <time>2019-08-16T08:08:35Z</time>
      </trkpt>
      <trkpt lat="41.6630320" lon="-8.7930510">
        <ele>38.0</ele>
        <time>2019-08-16T08:08:36Z</time>
      </trkpt>
      <trkpt lat="41.6631010" lon="-8.7931280">
        <ele>38.4</ele>
        <time>2019-08-16T08:08:40Z</time>
      </trkpt>
      <trkpt lat="41.6631080" lon="-8.7931560">
        <ele>38.8</ele>
        <time>2019-08-16T08:08:41Z</time>
      </trkpt>
      <trkpt lat="41.6631050" lon="-8.7931860">
        <ele>39.2</ele>
        <time>2019-08-16T08:08:42Z</time>
      </trkpt>
      <trkpt lat="41.6631100" lon="-8.7932160">
        <ele>39.6</ele>
        <time>2019-08-16T08:08:43Z</time>
      </trkpt>
      <trkpt lat="41.6631130" lon="-8.7932470">
        <ele>40.0</ele>
        <time>2019-08-16T08:08:44Z</time>
      </trkpt>
      <trkpt lat="41.6631200" lon="-8.7933110">
        <ele>40.0</ele>
        <time>2019-08-16T08:08:46Z</time>
      </trkpt>
      <trkpt lat="41.6631210" lon="-8.7933440">
        <ele>40.0</ele>
        <time>2019-08-16T08:08:47Z</time>
      </trkpt>
      <trkpt lat="41.6632310" lon="-8.7935250">
        <ele>40.4</ele>
        <time>2019-08-16T08:08:55Z</time>
      </trkpt>
      <trkpt lat="41.6632410" lon="-8.7935320">
        <ele>40.8</ele>
        <time>2019-08-16T08:08:56Z</time>
      </trkpt>
      <trkpt lat="41.6632470" lon="-8.7935700">
        <ele>41.2</ele>
        <time>2019-08-16T08:08:57Z</time>
      </trkpt>
      <trkpt lat="41.6632500" lon="-8.7935920">
        <ele>41.8</ele>
        <time>2019-08-16T08:08:58Z</time>
      </trkpt>
      <trkpt lat="41.6632610" lon="-8.7936120">
        <ele>42.2</ele>
        <time>2019-08-16T08:08:59Z</time>
      </trkpt>
      <trkpt lat="41.6632960" lon="-8.7935950">
        <ele>42.2</ele>
        <time>2019-08-16T08:09:01Z</time>
      </trkpt>
      <trkpt lat="41.6633110" lon="-8.7935930">
        <ele>42.2</ele>
        <time>2019-08-16T08:09:02Z</time>
      </trkpt>
      <trkpt lat="41.6633400" lon="-8.7935950">
        <ele>42.2</ele>
        <time>2019-08-16T08:09:05Z</time>
      </trkpt>
      <trkpt lat="41.6633530" lon="-8.7935870">
        <ele>42.2</ele>
        <time>2019-08-16T08:10:30Z</time>
      </trkpt>
      <trkpt lat="41.6633680" lon="-8.7936160">
        <ele>42.2</ele>
        <time>2019-08-16T08:10:31Z</time>
      </trkpt>
      <trkpt lat="41.6634110" lon="-8.7937700">
        <ele>42.2</ele>
        <time>2019-08-16T08:10:36Z</time>
      </trkpt>
      <trkpt lat="41.6634650" lon="-8.7940670">
        <ele>42.2</ele>
        <time>2019-08-16T08:10:44Z</time>
      </trkpt>
      <trkpt lat="41.6635390" lon="-8.7942600">
        <ele>42.2</ele>
        <time>2019-08-16T08:10:50Z</time>
      </trkpt>
      <trkpt lat="41.6635550" lon="-8.7943280">
        <ele>42.2</ele>
        <time>2019-08-16T08:10:54Z</time>
      </trkpt>
      <trkpt lat="41.6636040" lon="-8.7943320">
        <ele>42.2</ele>
        <time>2019-08-16T08:11:04Z</time>
      </trkpt>
      <trkpt lat="41.6638440" lon="-8.7944120">
        <ele>42.2</ele>
        <time>2019-08-16T08:11:10Z</time>
      </trkpt>
      <trkpt lat="41.6640320" lon="-8.7944510">
        <ele>42.2</ele>
        <time>2019-08-16T08:11:16Z</time>
      </trkpt>
      <trkpt lat="41.6642160" lon="-8.7945410">
        <ele>42.2</ele>
        <time>2019-08-16T08:11:22Z</time>
      </trkpt>
      <trkpt lat="41.6643570" lon="-8.7945650">
        <ele>41.8</ele>
        <time>2019-08-16T08:11:26Z</time>
      </trkpt>
      <trkpt lat="41.6643970" lon="-8.7945590">
        <ele>41.2</ele>
        <time>2019-08-16T08:11:27Z</time>
      </trkpt>
      <trkpt lat="41.6644360" lon="-8.7945590">
        <ele>40.8</ele>
        <time>2019-08-16T08:11:28Z</time>
      </trkpt>
      <trkpt lat="41.6644740" lon="-8.7945500">
        <ele>40.4</ele>
        <time>2019-08-16T08:11:29Z</time>
      </trkpt>
      <trkpt lat="41.6645150" lon="-8.7945500">
        <ele>40.0</ele>
        <time>2019-08-16T08:11:30Z</time>
      </trkpt>
      <trkpt lat="41.6648190" lon="-8.7945590">
        <ele>40.0</ele>
        <time>2019-08-16T08:11:37Z</time>
      </trkpt>
      <trkpt lat="41.6650730" lon="-8.7946850">
        <ele>40.0</ele>
        <time>2019-08-16T08:11:44Z</time>
      </trkpt>
      <trkpt lat="41.6653160" lon="-8.7947950">
        <ele>40.0</ele>
        <time>2019-08-16T08:11:51Z</time>
      </trkpt>
      <trkpt lat="41.6655000" lon="-8.7947530">
        <ele>40.0</ele>
        <time>2019-08-16T08:11:57Z</time>
      </trkpt>
      <trkpt lat="41.6657190" lon="-8.7946680">
        <ele>40.4</ele>
        <time>2019-08-16T08:12:05Z</time>
      </trkpt>
      <trkpt lat="41.6657480" lon="-8.7946610">
        <ele>40.8</ele>
        <time>2019-08-16T08:12:06Z</time>
      </trkpt>
      <trkpt lat="41.6658010" lon="-8.7946800">
        <ele>41.2</ele>
        <time>2019-08-16T08:12:07Z</time>
      </trkpt>
      <trkpt lat="41.6658330" lon="-8.7946700">
        <ele>41.6</ele>
        <time>2019-08-16T08:12:08Z</time>
      </trkpt>
      <trkpt lat="41.6658780" lon="-8.7946100">
        <ele>42.0</ele>
        <time>2019-08-16T08:12:09Z</time>
      </trkpt>
      <trkpt lat="41.6659920" lon="-8.7945880">
        <ele>42.0</ele>
        <time>2019-08-16T08:12:13Z</time>
      </trkpt>
      <trkpt lat="41.6660680" lon="-8.7946020">
        <ele>42.4</ele>
        <time>2019-08-16T08:12:16Z</time>
      </trkpt>
      <trkpt lat="41.6660900" lon="-8.7946100">
        <ele>42.8</ele>
        <time>2019-08-16T08:12:17Z</time>
      </trkpt>
      <trkpt lat="41.6661100" lon="-8.7946160">
        <ele>43.2</ele>
        <time>2019-08-16T08:12:18Z</time>
      </trkpt>
      <trkpt lat="41.6661290" lon="-8.7946250">
        <ele>43.8</ele>
        <time>2019-08-16T08:12:19Z</time>
      </trkpt>
      <trkpt lat="41.6661470" lon="-8.7946320">
        <ele>44.2</ele>
        <time>2019-08-16T08:12:20Z</time>
      </trkpt>
      <trkpt lat="41.6662560" lon="-8.7946500">
        <ele>44.6</ele>
        <time>2019-08-16T08:12:24Z</time>
      </trkpt>
      <trkpt lat="41.6662820" lon="-8.7946530">
        <ele>45.0</ele>
        <time>2019-08-16T08:12:25Z</time>
      </trkpt>
      <trkpt lat="41.6663100" lon="-8.7946530">
        <ele>45.4</ele>
        <time>2019-08-16T08:12:26Z</time>
      </trkpt>
      <trkpt lat="41.6663370" lon="-8.7946650">
        <ele>46.0</ele>
        <time>2019-08-16T08:12:27Z</time>
      </trkpt>
      <trkpt lat="41.6663620" lon="-8.7946740">
        <ele>46.4</ele>
        <time>2019-08-16T08:12:28Z</time>
      </trkpt>
      <trkpt lat="41.6664840" lon="-8.7947100">
        <ele>46.8</ele>
        <time>2019-08-16T08:12:33Z</time>
      </trkpt>
      <trkpt lat="41.6665110" lon="-8.7947190">
        <ele>47.2</ele>
        <time>2019-08-16T08:12:34Z</time>
      </trkpt>
      <trkpt lat="41.6665410" lon="-8.7947290">
        <ele>47.6</ele>
        <time>2019-08-16T08:12:35Z</time>
      </trkpt>
      <trkpt lat="41.6665650" lon="-8.7947420">
        <ele>48.0</ele>
        <time>2019-08-16T08:12:36Z</time>
      </trkpt>
      <trkpt lat="41.6665980" lon="-8.7947450">
        <ele>48.4</ele>
        <time>2019-08-16T08:12:37Z</time>
      </trkpt>
      <trkpt lat="41.6667300" lon="-8.7947960">
        <ele>48.4</ele>
        <time>2019-08-16T08:12:41Z</time>
      </trkpt>
      <trkpt lat="41.6668840" lon="-8.7948340">
        <ele>48.8</ele>
        <time>2019-08-16T08:12:47Z</time>
      </trkpt>
      <trkpt lat="41.6669100" lon="-8.7948360">
        <ele>49.4</ele>
        <time>2019-08-16T08:12:48Z</time>
      </trkpt>
      <trkpt lat="41.6669320" lon="-8.7948300">
        <ele>49.8</ele>
        <time>2019-08-16T08:12:49Z</time>
      </trkpt>
      <trkpt lat="41.6669560" lon="-8.7948300">
        <ele>50.2</ele>
        <time>2019-08-16T08:12:50Z</time>
      </trkpt>
      <trkpt lat="41.6669770" lon="-8.7948340">
        <ele>50.6</ele>
        <time>2019-08-16T08:12:51Z</time>
      </trkpt>
      <trkpt lat="41.6670840" lon="-8.7948570">
        <ele>50.6</ele>
        <time>2019-08-16T08:12:55Z</time>
      </trkpt>
      <trkpt lat="41.6672140" lon="-8.7949150">
        <ele>51.0</ele>
        <time>2019-08-16T08:13:00Z</time>
      </trkpt>
      <trkpt lat="41.6672300" lon="-8.7949490">
        <ele>51.6</ele>
        <time>2019-08-16T08:13:01Z</time>
      </trkpt>
      <trkpt lat="41.6672530" lon="-8.7949760">
        <ele>52.0</ele>
        <time>2019-08-16T08:13:02Z</time>
      </trkpt>
      <trkpt lat="41.6672730" lon="-8.7950070">
        <ele>52.6</ele>
        <time>2019-08-16T08:13:03Z</time>
      </trkpt>
      <trkpt lat="41.6672950" lon="-8.7950370">
        <ele>53.0</ele>
        <time>2019-08-16T08:13:04Z</time>
      </trkpt>
      <trkpt lat="41.6673700" lon="-8.7951190">
        <ele>53.0</ele>
        <time>2019-08-16T08:13:08Z</time>
      </trkpt>
      <trkpt lat="41.6675100" lon="-8.7952400">
        <ele>53.0</ele>
        <time>2019-08-16T08:13:17Z</time>
      </trkpt>
      <trkpt lat="41.6676420" lon="-8.7952520">
        <ele>53.0</ele>
        <time>2019-08-16T08:13:23Z</time>
      </trkpt>
      <trkpt lat="41.6677880" lon="-8.7951180">
        <ele>53.0</ele>
        <time>2019-08-16T08:13:31Z</time>
      </trkpt>
      <trkpt lat="41.6678580" lon="-8.7950390">
        <ele>53.0</ele>
        <time>2019-08-16T08:13:38Z</time>
      </trkpt>
      <trkpt lat="41.6678660" lon="-8.7950160">
        <ele>53.0</ele>
        <time>2019-08-16T08:13:41Z</time>
      </trkpt>
      <trkpt lat="41.6678860" lon="-8.7950100">
        <ele>55.0</ele>
        <time>2019-08-16T08:14:10Z</time>
      </trkpt>
      <trkpt lat="41.6678930" lon="-8.7950020">
        <ele>55.0</ele>
        <time>2019-08-16T08:14:11Z</time>
      </trkpt>
      <trkpt lat="41.6679040" lon="-8.7949930">
        <ele>55.0</ele>
        <time>2019-08-16T08:14:12Z</time>
      </trkpt>
      <trkpt lat="41.6679770" lon="-8.7949410">
        <ele>55.0</ele>
        <time>2019-08-16T08:14:16Z</time>
      </trkpt>
      <trkpt lat="41.6681150" lon="-8.7948460">
        <ele>55.4</ele>
        <time>2019-08-16T08:14:24Z</time>
      </trkpt>
      <trkpt lat="41.6681290" lon="-8.7948350">
        <ele>56.0</ele>
        <time>2019-08-16T08:14:25Z</time>
      </trkpt>
      <trkpt lat="41.6681390" lon="-8.7948260">
        <ele>56.4</ele>
        <time>2019-08-16T08:14:26Z</time>
      </trkpt>
      <trkpt lat="41.6681480" lon="-8.7948170">
        <ele>56.8</ele>
        <time>2019-08-16T08:14:27Z</time>
      </trkpt>
      <trkpt lat="41.6681620" lon="-8.7948100">
        <ele>57.2</ele>
        <time>2019-08-16T08:14:28Z</time>
      </trkpt>
      <trkpt lat="41.6681940" lon="-8.7947730">
        <ele>57.6</ele>
        <time>2019-08-16T08:14:31Z</time>
      </trkpt>
      <trkpt lat="41.6682000" lon="-8.7947630">
        <ele>58.0</ele>
        <time>2019-08-16T08:14:32Z</time>
      </trkpt>
      <trkpt lat="41.6682060" lon="-8.7947540">
        <ele>58.4</ele>
        <time>2019-08-16T08:14:33Z</time>
      </trkpt>
      <trkpt lat="41.6682150" lon="-8.7947370">
        <ele>58.8</ele>
        <time>2019-08-16T08:14:34Z</time>
      </trkpt>
      <trkpt lat="41.6682270" lon="-8.7947200">
        <ele>59.2</ele>
        <time>2019-08-16T08:14:35Z</time>
      </trkpt>
      <trkpt lat="41.6682660" lon="-8.7946570">
        <ele>59.2</ele>
        <time>2019-08-16T08:14:41Z</time>
      </trkpt>
      <trkpt lat="41.6682670" lon="-8.7946580">
        <ele>59.8</ele>
        <time>2019-08-16T08:14:42Z</time>
      </trkpt>
      <trkpt lat="41.6682710" lon="-8.7946500">
        <ele>60.2</ele>
        <time>2019-08-16T08:14:43Z</time>
      </trkpt>
      <trkpt lat="41.6682780" lon="-8.7946430">
        <ele>60.6</ele>
        <time>2019-08-16T08:14:44Z</time>
      </trkpt>
      <trkpt lat="41.6682830" lon="-8.7946350">
        <ele>61.0</ele>
        <time>2019-08-16T08:14:45Z</time>
      </trkpt>
      <trkpt lat="41.6682850" lon="-8.7946230">
        <ele>61.4</ele>
        <time>2019-08-16T08:14:46Z</time>
      </trkpt>
      <trkpt lat="41.6682990" lon="-8.7945870">
        <ele>61.4</ele>
        <time>2019-08-16T08:14:49Z</time>
      </trkpt>
      <trkpt lat="41.6683130" lon="-8.7945260">
        <ele>61.8</ele>
        <time>2019-08-16T08:14:54Z</time>
      </trkpt>
      <trkpt lat="41.6683180" lon="-8.7945160">
        <ele>62.2</ele>
        <time>2019-08-16T08:14:55Z</time>
      </trkpt>
      <trkpt lat="41.6683260" lon="-8.7945060">
        <ele>62.6</ele>
        <time>2019-08-16T08:14:56Z</time>
      </trkpt>
      <trkpt lat="41.6683370" lon="-8.7944990">
        <ele>63.0</ele>
        <time>2019-08-16T08:14:57Z</time>
      </trkpt>
      <trkpt lat="41.6683480" lon="-8.7944970">
        <ele>63.4</ele>
        <time>2019-08-16T08:14:58Z</time>
      </trkpt>
      <trkpt lat="41.6683620" lon="-8.7944970">
        <ele>63.4</ele>
        <time>2019-08-16T08:14:59Z</time>
      </trkpt>
      <trkpt lat="41.6684580" lon="-8.7945630">
        <ele>63.4</ele>
        <time>2019-08-16T08:15:08Z</time>
      </trkpt>
      <trkpt lat="41.6684930" lon="-8.7946160">
        <ele>63.8</ele>
        <time>2019-08-16T08:15:12Z</time>
      </trkpt>
      <trkpt lat="41.6685000" lon="-8.7946320">
        <ele>64.4</ele>
        <time>2019-08-16T08:15:13Z</time>
      </trkpt>
      <trkpt lat="41.6685080" lon="-8.7946470">
        <ele>64.8</ele>
        <time>2019-08-16T08:15:14Z</time>
      </trkpt>
      <trkpt lat="41.6685150" lon="-8.7946630">
        <ele>65.2</ele>
        <time>2019-08-16T08:15:15Z</time>
      </trkpt>
      <trkpt lat="41.6685250" lon="-8.7946760">
        <ele>65.6</ele>
        <time>2019-08-16T08:15:16Z</time>
      </trkpt>
      <trkpt lat="41.6685360" lon="-8.7946900">
        <ele>65.6</ele>
        <time>2019-08-16T08:15:17Z</time>
      </trkpt>
      <trkpt lat="41.6686370" lon="-8.7949220">
        <ele>65.6</ele>
        <time>2019-08-16T08:15:27Z</time>
      </trkpt>
      <trkpt lat="41.6687200" lon="-8.7950930">
        <ele>65.6</ele>
        <time>2019-08-16T08:15:34Z</time>
      </trkpt>
      <trkpt lat="41.6687670" lon="-8.7952840">
        <ele>66.0</ele>
        <time>2019-08-16T08:15:40Z</time>
      </trkpt>
      <trkpt lat="41.6687790" lon="-8.7953140">
        <ele>66.6</ele>
        <time>2019-08-16T08:15:41Z</time>
      </trkpt>
      <trkpt lat="41.6687920" lon="-8.7953380">
        <ele>67.0</ele>
        <time>2019-08-16T08:15:42Z</time>
      </trkpt>
      <trkpt lat="41.6688020" lon="-8.7953630">
        <ele>67.4</ele>
        <time>2019-08-16T08:15:43Z</time>
      </trkpt>
      <trkpt lat="41.6688150" lon="-8.7953880">
        <ele>68.0</ele>
        <time>2019-08-16T08:15:44Z</time>
      </trkpt>
      <trkpt lat="41.6688770" lon="-8.7954680">
        <ele>68.0</ele>
        <time>2019-08-16T08:15:48Z</time>
      </trkpt>
      <trkpt lat="41.6690180" lon="-8.7955810">
        <ele>68.0</ele>
        <time>2019-08-16T08:15:55Z</time>
      </trkpt>
      <trkpt lat="41.6692470" lon="-8.7956420">
        <ele>68.0</ele>
        <time>2019-08-16T08:16:04Z</time>
      </trkpt>
      <trkpt lat="41.6694190" lon="-8.7957080">
        <ele>68.0</ele>
        <time>2019-08-16T08:16:11Z</time>
      </trkpt>
      <trkpt lat="41.6696710" lon="-8.7957920">
        <ele>68.0</ele>
        <time>2019-08-16T08:16:21Z</time>
      </trkpt>
      <trkpt lat="41.6696910" lon="-8.7958060">
        <ele>68.4</ele>
        <time>2019-08-16T08:16:22Z</time>
      </trkpt>
      <trkpt lat="41.6697130" lon="-8.7958190">
        <ele>68.8</ele>
        <time>2019-08-16T08:16:23Z</time>
      </trkpt>
      <trkpt lat="41.6697330" lon="-8.7958270">
        <ele>69.2</ele>
        <time>2019-08-16T08:16:24Z</time>
      </trkpt>
      <trkpt lat="41.6697510" lon="-8.7958350">
        <ele>69.8</ele>
        <time>2019-08-16T08:16:25Z</time>
      </trkpt>
      <trkpt lat="41.6697710" lon="-8.7958500">
        <ele>70.2</ele>
        <time>2019-08-16T08:16:26Z</time>
      </trkpt>
      <trkpt lat="41.6698300" lon="-8.7958730">
        <ele>70.2</ele>
        <time>2019-08-16T08:16:29Z</time>
      </trkpt>
      <trkpt lat="41.6699030" lon="-8.7959140">
        <ele>70.6</ele>
        <time>2019-08-16T08:16:33Z</time>
      </trkpt>
      <trkpt lat="41.6699200" lon="-8.7959270">
        <ele>71.0</ele>
        <time>2019-08-16T08:16:34Z</time>
      </trkpt>
      <trkpt lat="41.6699380" lon="-8.7959380">
        <ele>71.6</ele>
        <time>2019-08-16T08:16:35Z</time>
      </trkpt>
      <trkpt lat="41.6699560" lon="-8.7959470">
        <ele>72.0</ele>
        <time>2019-08-16T08:16:36Z</time>
      </trkpt>
      <trkpt lat="41.6699730" lon="-8.7959570">
        <ele>72.4</ele>
        <time>2019-08-16T08:16:37Z</time>
      </trkpt>
      <trkpt lat="41.6700180" lon="-8.7960010">
        <ele>72.4</ele>
        <time>2019-08-16T08:16:40Z</time>
      </trkpt>
      <trkpt lat="41.6700370" lon="-8.7960150">
        <ele>72.8</ele>
        <time>2019-08-16T08:16:41Z</time>
      </trkpt>
      <trkpt lat="41.6700580" lon="-8.7960270">
        <ele>73.2</ele>
        <time>2019-08-16T08:16:42Z</time>
      </trkpt>
      <trkpt lat="41.6700780" lon="-8.7960400">
        <ele>73.6</ele>
        <time>2019-08-16T08:16:43Z</time>
      </trkpt>
      <trkpt lat="41.6700970" lon="-8.7960540">
        <ele>74.0</ele>
        <time>2019-08-16T08:16:44Z</time>
      </trkpt>
      <trkpt lat="41.6701160" lon="-8.7960690">
        <ele>74.6</ele>
        <time>2019-08-16T08:16:45Z</time>
      </trkpt>
      <trkpt lat="41.6701810" lon="-8.7961110">
        <ele>75.0</ele>
        <time>2019-08-16T08:16:49Z</time>
      </trkpt>
      <trkpt lat="41.6701950" lon="-8.7961200">
        <ele>75.4</ele>
        <time>2019-08-16T08:16:50Z</time>
      </trkpt>
      <trkpt lat="41.6702130" lon="-8.7961280">
        <ele>76.0</ele>
        <time>2019-08-16T08:16:51Z</time>
      </trkpt>
      <trkpt lat="41.6702280" lon="-8.7961330">
        <ele>76.4</ele>
        <time>2019-08-16T08:16:52Z</time>
      </trkpt>
      <trkpt lat="41.6702490" lon="-8.7961460">
        <ele>76.8</ele>
        <time>2019-08-16T08:16:53Z</time>
      </trkpt>
      <trkpt lat="41.6702960" lon="-8.7961920">
        <ele>77.2</ele>
        <time>2019-08-16T08:16:56Z</time>
      </trkpt>
      <trkpt lat="41.6703130" lon="-8.7962020">
        <ele>77.8</ele>
        <time>2019-08-16T08:16:57Z</time>
      </trkpt>
      <trkpt lat="41.6703280" lon="-8.7962120">
        <ele>78.2</ele>
        <time>2019-08-16T08:16:58Z</time>
      </trkpt>
      <trkpt lat="41.6703410" lon="-8.7962270">
        <ele>78.6</ele>
        <time>2019-08-16T08:16:59Z</time>
      </trkpt>
      <trkpt lat="41.6703550" lon="-8.7962420">
        <ele>79.2</ele>
        <time>2019-08-16T08:17:00Z</time>
      </trkpt>
      <trkpt lat="41.6704520" lon="-8.7963070">
        <ele>79.6</ele>
        <time>2019-08-16T08:17:06Z</time>
      </trkpt>
      <trkpt lat="41.6704680" lon="-8.7963190">
        <ele>80.0</ele>
        <time>2019-08-16T08:17:07Z</time>
      </trkpt>
      <trkpt lat="41.6704830" lon="-8.7963330">
        <ele>80.4</ele>
        <time>2019-08-16T08:17:08Z</time>
      </trkpt>
      <trkpt lat="41.6704990" lon="-8.7963460">
        <ele>80.8</ele>
        <time>2019-08-16T08:17:09Z</time>
      </trkpt>
      <trkpt lat="41.6705140" lon="-8.7963530">
        <ele>81.2</ele>
        <time>2019-08-16T08:17:10Z</time>
      </trkpt>
      <trkpt lat="41.6705810" lon="-8.7964040">
        <ele>81.6</ele>
        <time>2019-08-16T08:17:15Z</time>
      </trkpt>
      <trkpt lat="41.6705950" lon="-8.7964100">
        <ele>82.0</ele>
        <time>2019-08-16T08:17:16Z</time>
      </trkpt>
      <trkpt lat="41.6706070" lon="-8.7964180">
        <ele>82.4</ele>
        <time>2019-08-16T08:17:17Z</time>
      </trkpt>
      <trkpt lat="41.6706160" lon="-8.7964310">
        <ele>83.0</ele>
        <time>2019-08-16T08:17:18Z</time>
      </trkpt>
      <trkpt lat="41.6706250" lon="-8.7964480">
        <ele>83.4</ele>
        <time>2019-08-16T08:17:19Z</time>
      </trkpt>
      <trkpt lat="41.6707010" lon="-8.7964890">
        <ele>83.8</ele>
        <time>2019-08-16T08:17:24Z</time>
      </trkpt>
      <trkpt lat="41.6707170" lon="-8.7964970">
        <ele>84.2</ele>
        <time>2019-08-16T08:17:25Z</time>
      </trkpt>
      <trkpt lat="41.6707330" lon="-8.7965000">
        <ele>84.6</ele>
        <time>2019-08-16T08:17:26Z</time>
      </trkpt>
      <trkpt lat="41.6707470" lon="-8.7965050">
        <ele>85.0</ele>
        <time>2019-08-16T08:17:27Z</time>
      </trkpt>
      <trkpt lat="41.6707630" lon="-8.7965140">
        <ele>85.4</ele>
        <time>2019-08-16T08:17:28Z</time>
      </trkpt>
      <trkpt lat="41.6708570" lon="-8.7965810">
        <ele>86.0</ele>
        <time>2019-08-16T08:17:36Z</time>
      </trkpt>
      <trkpt lat="41.6708660" lon="-8.7965850">
        <ele>86.6</ele>
        <time>2019-08-16T08:17:37Z</time>
      </trkpt>
      <trkpt lat="41.6708800" lon="-8.7965880">
        <ele>87.0</ele>
        <time>2019-08-16T08:17:38Z</time>
      </trkpt>
      <trkpt lat="41.6708920" lon="-8.7965920">
        <ele>87.6</ele>
        <time>2019-08-16T08:17:39Z</time>
      </trkpt>
      <trkpt lat="41.6709080" lon="-8.7965980">
        <ele>88.0</ele>
        <time>2019-08-16T08:17:40Z</time>
      </trkpt>
      <trkpt lat="41.6709650" lon="-8.7966390">
        <ele>88.0</ele>
        <time>2019-08-16T08:17:44Z</time>
      </trkpt>
      <trkpt lat="41.6710120" lon="-8.7966710">
        <ele>88.4</ele>
        <time>2019-08-16T08:17:47Z</time>
      </trkpt>
      <trkpt lat="41.6710290" lon="-8.7966830">
        <ele>88.8</ele>
        <time>2019-08-16T08:17:48Z</time>
      </trkpt>
      <trkpt lat="41.6710440" lon="-8.7966950">
        <ele>89.2</ele>
        <time>2019-08-16T08:17:49Z</time>
      </trkpt>
      <trkpt lat="41.6710600" lon="-8.7967030">
        <ele>89.6</ele>
        <time>2019-08-16T08:17:50Z</time>
      </trkpt>
      <trkpt lat="41.6710770" lon="-8.7967110">
        <ele>90.0</ele>
        <time>2019-08-16T08:17:51Z</time>
      </trkpt>
      <trkpt lat="41.6711290" lon="-8.7967560">
        <ele>90.0</ele>
        <time>2019-08-16T08:17:55Z</time>
      </trkpt>
      <trkpt lat="41.6711980" lon="-8.7968010">
        <ele>90.4</ele>
        <time>2019-08-16T08:18:00Z</time>
      </trkpt>
      <trkpt lat="41.6712110" lon="-8.7968110">
        <ele>91.0</ele>
        <time>2019-08-16T08:18:01Z</time>
      </trkpt>
      <trkpt lat="41.6712250" lon="-8.7968220">
        <ele>91.4</ele>
        <time>2019-08-16T08:18:02Z</time>
      </trkpt>
      <trkpt lat="41.6712400" lon="-8.7968330">
        <ele>91.8</ele>
        <time>2019-08-16T08:18:03Z</time>
      </trkpt>
      <trkpt lat="41.6712540" lon="-8.7968410">
        <ele>92.2</ele>
        <time>2019-08-16T08:18:04Z</time>
      </trkpt>
      <trkpt lat="41.6712820" lon="-8.7968580">
        <ele>92.2</ele>
        <time>2019-08-16T08:18:06Z</time>
      </trkpt>
      <trkpt lat="41.6713790" lon="-8.7968930">
        <ele>92.2</ele>
        <time>2019-08-16T08:18:14Z</time>
      </trkpt>
      <trkpt lat="41.6713780" lon="-8.7969010">
        <ele>92.2</ele>
        <time>2019-08-16T08:18:15Z</time>
      </trkpt>
      <trkpt lat="41.6713710" lon="-8.7969590">
        <ele>92.2</ele>
        <time>2019-08-16T08:19:26Z</time>
      </trkpt>
      <trkpt lat="41.6714010" lon="-8.7969900">
        <ele>92.2</ele>
        <time>2019-08-16T08:19:29Z</time>
      </trkpt>
      <trkpt lat="41.6715110" lon="-8.7970110">
        <ele>92.2</ele>
        <time>2019-08-16T08:19:34Z</time>
      </trkpt>
      <trkpt lat="41.6716680" lon="-8.7971090">
        <ele>92.6</ele>
        <time>2019-08-16T08:19:41Z</time>
      </trkpt>
      <trkpt lat="41.6716890" lon="-8.7971280">
        <ele>93.0</ele>
        <time>2019-08-16T08:19:42Z</time>
      </trkpt>
      <trkpt lat="41.6717090" lon="-8.7971510">
        <ele>93.4</ele>
        <time>2019-08-16T08:19:43Z</time>
      </trkpt>
      <trkpt lat="41.6717260" lon="-8.7971750">
        <ele>94.0</ele>
        <time>2019-08-16T08:19:44Z</time>
      </trkpt>
      <trkpt lat="41.6717360" lon="-8.7972060">
        <ele>94.4</ele>
        <time>2019-08-16T08:19:45Z</time>
      </trkpt>
      <trkpt lat="41.6717820" lon="-8.7972720">
        <ele>94.4</ele>
        <time>2019-08-16T08:19:48Z</time>
      </trkpt>
      <trkpt lat="41.6718700" lon="-8.7973750">
        <ele>94.8</ele>
        <time>2019-08-16T08:19:54Z</time>
      </trkpt>
      <trkpt lat="41.6718850" lon="-8.7973910">
        <ele>95.2</ele>
        <time>2019-08-16T08:19:55Z</time>
      </trkpt>
      <trkpt lat="41.6718990" lon="-8.7974080">
        <ele>95.6</ele>
        <time>2019-08-16T08:19:56Z</time>
      </trkpt>
      <trkpt lat="41.6719130" lon="-8.7974270">
        <ele>96.2</ele>
        <time>2019-08-16T08:19:57Z</time>
      </trkpt>
      <trkpt lat="41.6719280" lon="-8.7974430">
        <ele>96.6</ele>
        <time>2019-08-16T08:19:58Z</time>
      </trkpt>
      <trkpt lat="41.6719580" lon="-8.7974790">
        <ele>96.6</ele>
        <time>2019-08-16T08:20:00Z</time>
      </trkpt>
      <trkpt lat="41.6720520" lon="-8.7976150">
        <ele>97.0</ele>
        <time>2019-08-16T08:20:07Z</time>
      </trkpt>
      <trkpt lat="41.6720590" lon="-8.7976330">
        <ele>97.4</ele>
        <time>2019-08-16T08:20:08Z</time>
      </trkpt>
      <trkpt lat="41.6720720" lon="-8.7976530">
        <ele>97.8</ele>
        <time>2019-08-16T08:20:09Z</time>
      </trkpt>
      <trkpt lat="41.6720860" lon="-8.7976730">
        <ele>98.2</ele>
        <time>2019-08-16T08:20:10Z</time>
      </trkpt>
      <trkpt lat="41.6721000" lon="-8.7976950">
        <ele>98.8</ele>
        <time>2019-08-16T08:20:11Z</time>
      </trkpt>
      <trkpt lat="41.6722260" lon="-8.7978670">
        <ele>98.8</ele>
        <time>2019-08-16T08:20:20Z</time>
      </trkpt>
      <trkpt lat="41.6722590" lon="-8.7979260">
        <ele>99.2</ele>
        <time>2019-08-16T08:20:23Z</time>
      </trkpt>
      <trkpt lat="41.6722690" lon="-8.7979480">
        <ele>99.6</ele>
        <time>2019-08-16T08:20:24Z</time>
      </trkpt>
      <trkpt lat="41.6722840" lon="-8.7979680">
        <ele>100.0</ele>
        <time>2019-08-16T08:20:25Z</time>
      </trkpt>
      <trkpt lat="41.6722970" lon="-8.7979850">
        <ele>100.4</ele>
        <time>2019-08-16T08:20:26Z</time>
      </trkpt>
      <trkpt lat="41.6723140" lon="-8.7980060">
        <ele>100.8</ele>
        <time>2019-08-16T08:20:27Z</time>
      </trkpt>
      <trkpt lat="41.6723400" lon="-8.7980590">
        <ele>100.8</ele>
        <time>2019-08-16T08:20:29Z</time>
      </trkpt>
      <trkpt lat="41.6724530" lon="-8.7982160">
        <ele>100.8</ele>
        <time>2019-08-16T08:20:36Z</time>
      </trkpt>
      <trkpt lat="41.6724810" lon="-8.7982660">
        <ele>101.2</ele>
        <time>2019-08-16T08:20:38Z</time>
      </trkpt>
      <trkpt lat="41.6724940" lon="-8.7982880">
        <ele>101.8</ele>
        <time>2019-08-16T08:20:39Z</time>
      </trkpt>
      <trkpt lat="41.6725060" lon="-8.7983120">
        <ele>102.2</ele>
        <time>2019-08-16T08:20:40Z</time>
      </trkpt>
      <trkpt lat="41.6725170" lon="-8.7983360">
        <ele>102.6</ele>
        <time>2019-08-16T08:20:41Z</time>
      </trkpt>
      <trkpt lat="41.6725290" lon="-8.7983590">
        <ele>103.0</ele>
        <time>2019-08-16T08:20:42Z</time>
      </trkpt>
      <trkpt lat="41.6725620" lon="-8.7984350">
        <ele>103.0</ele>
        <time>2019-08-16T08:20:45Z</time>
      </trkpt>
      <trkpt lat="41.6726310" lon="-8.7985800">
        <ele>103.4</ele>
        <time>2019-08-16T08:20:51Z</time>
      </trkpt>
      <trkpt lat="41.6726430" lon="-8.7986030">
        <ele>103.8</ele>
        <time>2019-08-16T08:20:52Z</time>
      </trkpt>
      <trkpt lat="41.6726560" lon="-8.7986270">
        <ele>104.4</ele>
        <time>2019-08-16T08:20:53Z</time>
      </trkpt>
      <trkpt lat="41.6726690" lon="-8.7986500">
        <ele>104.8</ele>
        <time>2019-08-16T08:20:54Z</time>
      </trkpt>
      <trkpt lat="41.6726810" lon="-8.7986740">
        <ele>105.2</ele>
        <time>2019-08-16T08:20:55Z</time>
      </trkpt>
      <trkpt lat="41.6728110" lon="-8.7989200">
        <ele>105.2</ele>
        <time>2019-08-16T08:21:05Z</time>
      </trkpt>
      <trkpt lat="41.6728900" lon="-8.7991280">
        <ele>105.2</ele>
        <time>2019-08-16T08:21:14Z</time>
      </trkpt>
      <trkpt lat="41.6729220" lon="-8.7991920">
        <ele>105.8</ele>
        <time>2019-08-16T08:21:17Z</time>
      </trkpt>
      <trkpt lat="41.6729330" lon="-8.7992130">
        <ele>106.2</ele>
        <time>2019-08-16T08:21:18Z</time>
      </trkpt>
      <trkpt lat="41.6729440" lon="-8.7992330">
        <ele>106.8</ele>
        <time>2019-08-16T08:21:19Z</time>
      </trkpt>
      <trkpt lat="41.6729530" lon="-8.7992520">
        <ele>107.2</ele>
        <time>2019-08-16T08:21:20Z</time>
      </trkpt>
      <trkpt lat="41.6729550" lon="-8.7992770">
        <ele>107.6</ele>
        <time>2019-08-16T08:21:21Z</time>
      </trkpt>
      <trkpt lat="41.6729710" lon="-8.7993180">
        <ele>107.6</ele>
        <time>2019-08-16T08:21:23Z</time>
      </trkpt>
      <trkpt lat="41.6730610" lon="-8.7995170">
        <ele>107.6</ele>
        <time>2019-08-16T08:21:32Z</time>
      </trkpt>
      <trkpt lat="41.6731600" lon="-8.7996810">
        <ele>107.6</ele>
        <time>2019-08-16T08:21:41Z</time>
      </trkpt>
      <trkpt lat="41.6732860" lon="-8.7998690">
        <ele>107.6</ele>
        <time>2019-08-16T08:21:50Z</time>
      </trkpt>
      <trkpt lat="41.6734820" lon="-8.8001090">
        <ele>107.6</ele>
        <time>2019-08-16T08:21:59Z</time>
      </trkpt>
      <trkpt lat="41.6735370" lon="-8.8001760">
        <ele>107.2</ele>
        <time>2019-08-16T08:22:01Z</time>
      </trkpt>
      <trkpt lat="41.6735650" lon="-8.8002180">
        <ele>106.8</ele>
        <time>2019-08-16T08:22:02Z</time>
      </trkpt>
      <trkpt lat="41.6735950" lon="-8.8002540">
        <ele>106.4</ele>
        <time>2019-08-16T08:22:03Z</time>
      </trkpt>
      <trkpt lat="41.6736240" lon="-8.8002940">
        <ele>106.0</ele>
        <time>2019-08-16T08:22:04Z</time>
      </trkpt>
      <trkpt lat="41.6736440" lon="-8.8003370">
        <ele>105.6</ele>
        <time>2019-08-16T08:22:05Z</time>
      </trkpt>
      <trkpt lat="41.6736760" lon="-8.8003840">
        <ele>105.0</ele>
        <time>2019-08-16T08:22:06Z</time>
      </trkpt>
      <trkpt lat="41.6737080" lon="-8.8004260">
        <ele>104.6</ele>
        <time>2019-08-16T08:22:07Z</time>
      </trkpt>
      <trkpt lat="41.6737410" lon="-8.8004730">
        <ele>104.2</ele>
        <time>2019-08-16T08:22:08Z</time>
      </trkpt>
      <trkpt lat="41.6737740" lon="-8.8005190">
        <ele>103.6</ele>
        <time>2019-08-16T08:22:09Z</time>
      </trkpt>
      <trkpt lat="41.6738080" lon="-8.8005640">
        <ele>103.2</ele>
        <time>2019-08-16T08:22:10Z</time>
      </trkpt>
      <trkpt lat="41.6738390" lon="-8.8006090">
        <ele>102.6</ele>
        <time>2019-08-16T08:22:11Z</time>
      </trkpt>
      <trkpt lat="41.6738680" lon="-8.8006570">
        <ele>102.2</ele>
        <time>2019-08-16T08:22:12Z</time>
      </trkpt>
      <trkpt lat="41.6738890" lon="-8.8006990">
        <ele>101.6</ele>
        <time>2019-08-16T08:22:13Z</time>
      </trkpt>
      <trkpt lat="41.6739100" lon="-8.8007440">
        <ele>101.2</ele>
        <time>2019-08-16T08:22:14Z</time>
      </trkpt>
      <trkpt lat="41.6739400" lon="-8.8007850">
        <ele>100.8</ele>
        <time>2019-08-16T08:22:15Z</time>
      </trkpt>
      <trkpt lat="41.6739690" lon="-8.8008180">
        <ele>100.4</ele>
        <time>2019-08-16T08:22:16Z</time>
      </trkpt>
      <trkpt lat="41.6739920" lon="-8.8008420">
        <ele>100.0</ele>
        <time>2019-08-16T08:22:17Z</time>
      </trkpt>
      <trkpt lat="41.6740090" lon="-8.8008640">
        <ele>99.6</ele>
        <time>2019-08-16T08:22:18Z</time>
      </trkpt>
      <trkpt lat="41.6740270" lon="-8.8008820">
        <ele>99.0</ele>
        <time>2019-08-16T08:22:19Z</time>
      </trkpt>
      <trkpt lat="41.6740530" lon="-8.8008990">
        <ele>98.6</ele>
        <time>2019-08-16T08:22:20Z</time>
      </trkpt>
      <trkpt lat="41.6740770" lon="-8.8009230">
        <ele>98.2</ele>
        <time>2019-08-16T08:22:21Z</time>
      </trkpt>
      <trkpt lat="41.6741010" lon="-8.8009350">
        <ele>97.6</ele>
        <time>2019-08-16T08:22:22Z</time>
      </trkpt>
      <trkpt lat="41.6741190" lon="-8.8009470">
        <ele>97.2</ele>
        <time>2019-08-16T08:22:23Z</time>
      </trkpt>
      <trkpt lat="41.6741510" lon="-8.8009620">
        <ele>96.8</ele>
        <time>2019-08-16T08:22:24Z</time>
      </trkpt>
      <trkpt lat="41.6741740" lon="-8.8009690">
        <ele>96.2</ele>
        <time>2019-08-16T08:22:25Z</time>
      </trkpt>
      <trkpt lat="41.6741940" lon="-8.8009760">
        <ele>95.8</ele>
        <time>2019-08-16T08:22:26Z</time>
      </trkpt>
      <trkpt lat="41.6742200" lon="-8.8009810">
        <ele>95.2</ele>
        <time>2019-08-16T08:22:27Z</time>
      </trkpt>
      <trkpt lat="41.6742470" lon="-8.8009860">
        <ele>94.6</ele>
        <time>2019-08-16T08:22:28Z</time>
      </trkpt>
      <trkpt lat="41.6742710" lon="-8.8009850">
        <ele>94.0</ele>
        <time>2019-08-16T08:22:29Z</time>
      </trkpt>
      <trkpt lat="41.6742920" lon="-8.8009850">
        <ele>93.4</ele>
        <time>2019-08-16T08:22:30Z</time>
      </trkpt>
      <trkpt lat="41.6743140" lon="-8.8009880">
        <ele>92.8</ele>
        <time>2019-08-16T08:22:31Z</time>
      </trkpt>
      <trkpt lat="41.6743310" lon="-8.8009970">
        <ele>92.2</ele>
        <time>2019-08-16T08:22:32Z</time>
      </trkpt>
      <trkpt lat="41.6743520" lon="-8.8010060">
        <ele>91.8</ele>
        <time>2019-08-16T08:22:33Z</time>
      </trkpt>
      <trkpt lat="41.6743720" lon="-8.8010130">
        <ele>91.4</ele>
        <time>2019-08-16T08:22:34Z</time>
      </trkpt>
      <trkpt lat="41.6743980" lon="-8.8010180">
        <ele>91.0</ele>
        <time>2019-08-16T08:22:35Z</time>
      </trkpt>
      <trkpt lat="41.6744210" lon="-8.8010230">
        <ele>90.6</ele>
        <time>2019-08-16T08:22:36Z</time>
      </trkpt>
      <trkpt lat="41.6744430" lon="-8.8010270">
        <ele>90.0</ele>
        <time>2019-08-16T08:22:37Z</time>
      </trkpt>
      <trkpt lat="41.6744780" lon="-8.8010400">
        <ele>89.6</ele>
        <time>2019-08-16T08:22:38Z</time>
      </trkpt>
      <trkpt lat="41.6745110" lon="-8.8010500">
        <ele>89.0</ele>
        <time>2019-08-16T08:22:39Z</time>
      </trkpt>
      <trkpt lat="41.6745510" lon="-8.8010480">
        <ele>88.6</ele>
        <time>2019-08-16T08:22:40Z</time>
      </trkpt>
      <trkpt lat="41.6745830" lon="-8.8010580">
        <ele>88.0</ele>
        <time>2019-08-16T08:22:41Z</time>
      </trkpt>
      <trkpt lat="41.6746380" lon="-8.8010830">
        <ele>87.6</ele>
        <time>2019-08-16T08:22:43Z</time>
      </trkpt>
      <trkpt lat="41.6746590" lon="-8.8010920">
        <ele>87.2</ele>
        <time>2019-08-16T08:22:44Z</time>
      </trkpt>
      <trkpt lat="41.6746750" lon="-8.8011010">
        <ele>86.6</ele>
        <time>2019-08-16T08:22:45Z</time>
      </trkpt>
      <trkpt lat="41.6746870" lon="-8.8011150">
        <ele>86.2</ele>
        <time>2019-08-16T08:22:46Z</time>
      </trkpt>
      <trkpt lat="41.6746910" lon="-8.8011230">
        <ele>85.6</ele>
        <time>2019-08-16T08:22:47Z</time>
      </trkpt>
      <trkpt lat="41.6748140" lon="-8.8011990">
        <ele>81.2</ele>
        <time>2019-08-16T08:22:56Z</time>
      </trkpt>
      <trkpt lat="41.6748360" lon="-8.8012000">
        <ele>80.8</ele>
        <time>2019-08-16T08:22:57Z</time>
      </trkpt>
      <trkpt lat="41.6748610" lon="-8.8012010">
        <ele>80.2</ele>
        <time>2019-08-16T08:22:58Z</time>
      </trkpt>
      <trkpt lat="41.6748930" lon="-8.8012140">
        <ele>79.6</ele>
        <time>2019-08-16T08:22:59Z</time>
      </trkpt>
      <trkpt lat="41.6749240" lon="-8.8012270">
        <ele>79.2</ele>
        <time>2019-08-16T08:23:00Z</time>
      </trkpt>
      <trkpt lat="41.6750000" lon="-8.8012210">
        <ele>78.8</ele>
        <time>2019-08-16T08:23:02Z</time>
      </trkpt>
      <trkpt lat="41.6750330" lon="-8.8012140">
        <ele>78.2</ele>
        <time>2019-08-16T08:23:03Z</time>
      </trkpt>
      <trkpt lat="41.6750640" lon="-8.8012080">
        <ele>77.8</ele>
        <time>2019-08-16T08:23:04Z</time>
      </trkpt>
      <trkpt lat="41.6750960" lon="-8.8012080">
        <ele>77.2</ele>
        <time>2019-08-16T08:23:05Z</time>
      </trkpt>
      <trkpt lat="41.6751260" lon="-8.8012080">
        <ele>76.8</ele>
        <time>2019-08-16T08:23:06Z</time>
      </trkpt>
      <trkpt lat="41.6752000" lon="-8.8012110">
        <ele>76.8</ele>
        <time>2019-08-16T08:23:08Z</time>
      </trkpt>
      <trkpt lat="41.6752300" lon="-8.8012150">
        <ele>76.4</ele>
        <time>2019-08-16T08:23:09Z</time>
      </trkpt>
      <trkpt lat="41.6752510" lon="-8.8012170">
        <ele>76.0</ele>
        <time>2019-08-16T08:23:10Z</time>
      </trkpt>
      <trkpt lat="41.6752910" lon="-8.8012270">
        <ele>75.6</ele>
        <time>2019-08-16T08:23:11Z</time>
      </trkpt>
      <trkpt lat="41.6753370" lon="-8.8012210">
        <ele>75.0</ele>
        <time>2019-08-16T08:23:12Z</time>
      </trkpt>
      <trkpt lat="41.6753810" lon="-8.8012290">
        <ele>74.6</ele>
        <time>2019-08-16T08:23:13Z</time>
      </trkpt>
      <trkpt lat="41.6755090" lon="-8.8012520">
        <ele>74.2</ele>
        <time>2019-08-16T08:23:17Z</time>
      </trkpt>
      <trkpt lat="41.6755380" lon="-8.8012640">
        <ele>73.8</ele>
        <time>2019-08-16T08:23:18Z</time>
      </trkpt>
      <trkpt lat="41.6755630" lon="-8.8012690">
        <ele>73.4</ele>
        <time>2019-08-16T08:23:19Z</time>
      </trkpt>
      <trkpt lat="41.6755920" lon="-8.8012640">
        <ele>73.0</ele>
        <time>2019-08-16T08:23:20Z</time>
      </trkpt>
      <trkpt lat="41.6755920" lon="-8.8012640">
        <ele>72.4</ele>
        <time>2019-08-16T08:23:23Z</time>
      </trkpt>
      <trkpt lat="41.6758310" lon="-8.8013040">
        <ele>72.0</ele>
        <time>2019-08-16T08:23:27Z</time>
      </trkpt>
      <trkpt lat="41.6758610" lon="-8.8013210">
        <ele>71.6</ele>
        <time>2019-08-16T08:23:28Z</time>
      </trkpt>
      <trkpt lat="41.6759010" lon="-8.8013340">
        <ele>71.2</ele>
        <time>2019-08-16T08:23:29Z</time>
      </trkpt>
      <trkpt lat="41.6759440" lon="-8.8013530">
        <ele>70.8</ele>
        <time>2019-08-16T08:23:30Z</time>
      </trkpt>
      <trkpt lat="41.6759840" lon="-8.8013710">
        <ele>70.2</ele>
        <time>2019-08-16T08:23:31Z</time>
      </trkpt>
      <trkpt lat="41.6760200" lon="-8.8013910">
        <ele>69.8</ele>
        <time>2019-08-16T08:23:32Z</time>
      </trkpt>
      <trkpt lat="41.6760540" lon="-8.8014110">
        <ele>69.4</ele>
        <time>2019-08-16T08:23:33Z</time>
      </trkpt>
      <trkpt lat="41.6760850" lon="-8.8014320">
        <ele>69.0</ele>
        <time>2019-08-16T08:23:34Z</time>
      </trkpt>
      <trkpt lat="41.6761150" lon="-8.8014570">
        <ele>68.6</ele>
        <time>2019-08-16T08:23:35Z</time>
      </trkpt>
      <trkpt lat="41.6761510" lon="-8.8014690">
        <ele>68.0</ele>
        <time>2019-08-16T08:23:36Z</time>
      </trkpt>
      <trkpt lat="41.6761870" lon="-8.8014950">
        <ele>67.4</ele>
        <time>2019-08-16T08:23:37Z</time>
      </trkpt>
      <trkpt lat="41.6762460" lon="-8.8015300">
        <ele>66.8</ele>
        <time>2019-08-16T08:23:38Z</time>
      </trkpt>
      <trkpt lat="41.6762980" lon="-8.8015650">
        <ele>66.4</ele>
        <time>2019-08-16T08:23:39Z</time>
      </trkpt>
      <trkpt lat="41.6763340" lon="-8.8015940">
        <ele>65.8</ele>
        <time>2019-08-16T08:23:40Z</time>
      </trkpt>
      <trkpt lat="41.6763640" lon="-8.8016350">
        <ele>65.4</ele>
        <time>2019-08-16T08:23:41Z</time>
      </trkpt>
      <trkpt lat="41.6764040" lon="-8.8016980">
        <ele>64.8</ele>
        <time>2019-08-16T08:23:42Z</time>
      </trkpt>
      <trkpt lat="41.6764340" lon="-8.8017350">
        <ele>64.4</ele>
        <time>2019-08-16T08:23:43Z</time>
      </trkpt>
      <trkpt lat="41.6764810" lon="-8.8017700">
        <ele>63.8</ele>
        <time>2019-08-16T08:23:44Z</time>
      </trkpt>
      <trkpt lat="41.6765210" lon="-8.8018270">
        <ele>63.2</ele>
        <time>2019-08-16T08:23:45Z</time>
      </trkpt>
      <trkpt lat="41.6765630" lon="-8.8018780">
        <ele>62.4</ele>
        <time>2019-08-16T08:23:46Z</time>
      </trkpt>
      <trkpt lat="41.6766090" lon="-8.8019520">
        <ele>61.8</ele>
        <time>2019-08-16T08:23:47Z</time>
      </trkpt>
      <trkpt lat="41.6766450" lon="-8.8020190">
        <ele>61.2</ele>
        <time>2019-08-16T08:23:48Z</time>
      </trkpt>
      <trkpt lat="41.6766970" lon="-8.8020930">
        <ele>60.4</ele>
        <time>2019-08-16T08:23:49Z</time>
      </trkpt>
      <trkpt lat="41.6767480" lon="-8.8021530">
        <ele>59.8</ele>
        <time>2019-08-16T08:23:50Z</time>
      </trkpt>
      <trkpt lat="41.6768100" lon="-8.8022260">
        <ele>59.2</ele>
        <time>2019-08-16T08:23:51Z</time>
      </trkpt>
      <trkpt lat="41.6768650" lon="-8.8022920">
        <ele>58.6</ele>
        <time>2019-08-16T08:23:52Z</time>
      </trkpt>
      <trkpt lat="41.6769180" lon="-8.8023600">
        <ele>57.8</ele>
        <time>2019-08-16T08:23:53Z</time>
      </trkpt>
      <trkpt lat="41.6769730" lon="-8.8024220">
        <ele>57.2</ele>
        <time>2019-08-16T08:23:54Z</time>
      </trkpt>
      <trkpt lat="41.6770260" lon="-8.8024930">
        <ele>56.6</ele>
        <time>2019-08-16T08:23:55Z</time>
      </trkpt>
      <trkpt lat="41.6771440" lon="-8.8026080">
        <ele>56.2</ele>
        <time>2019-08-16T08:23:57Z</time>
      </trkpt>
      <trkpt lat="41.6771960" lon="-8.8026520">
        <ele>55.6</ele>
        <time>2019-08-16T08:23:58Z</time>
      </trkpt>
      <trkpt lat="41.6772430" lon="-8.8027080">
        <ele>55.2</ele>
        <time>2019-08-16T08:23:59Z</time>
      </trkpt>
      <trkpt lat="41.6772970" lon="-8.8027590">
        <ele>54.8</ele>
        <time>2019-08-16T08:24:00Z</time>
      </trkpt>
      <trkpt lat="41.6773610" lon="-8.8028080">
        <ele>54.2</ele>
        <time>2019-08-16T08:24:01Z</time>
      </trkpt>
      <trkpt lat="41.6774750" lon="-8.8029440">
        <ele>53.8</ele>
        <time>2019-08-16T08:24:03Z</time>
      </trkpt>
      <trkpt lat="41.6775280" lon="-8.8030230">
        <ele>53.4</ele>
        <time>2019-08-16T08:24:04Z</time>
      </trkpt>
      <trkpt lat="41.6775730" lon="-8.8030880">
        <ele>53.0</ele>
        <time>2019-08-16T08:24:05Z</time>
      </trkpt>
      <trkpt lat="41.6776040" lon="-8.8031530">
        <ele>52.6</ele>
        <time>2019-08-16T08:24:06Z</time>
      </trkpt>
      <trkpt lat="41.6776390" lon="-8.8032100">
        <ele>52.2</ele>
        <time>2019-08-16T08:24:07Z</time>
      </trkpt>
      <trkpt lat="41.6777230" lon="-8.8033180">
        <ele>51.8</ele>
        <time>2019-08-16T08:24:09Z</time>
      </trkpt>
      <trkpt lat="41.6777650" lon="-8.8033650">
        <ele>51.2</ele>
        <time>2019-08-16T08:24:10Z</time>
      </trkpt>
      <trkpt lat="41.6778080" lon="-8.8034080">
        <ele>50.6</ele>
        <time>2019-08-16T08:24:11Z</time>
      </trkpt>
      <trkpt lat="41.6778510" lon="-8.8034610">
        <ele>50.2</ele>
        <time>2019-08-16T08:24:12Z</time>
      </trkpt>
      <trkpt lat="41.6778820" lon="-8.8035200">
        <ele>49.6</ele>
        <time>2019-08-16T08:24:13Z</time>
      </trkpt>
      <trkpt lat="41.6779170" lon="-8.8035790">
        <ele>49.2</ele>
        <time>2019-08-16T08:24:14Z</time>
      </trkpt>
      <trkpt lat="41.6779520" lon="-8.8036290">
        <ele>48.6</ele>
        <time>2019-08-16T08:24:15Z</time>
      </trkpt>
      <trkpt lat="41.6779850" lon="-8.8036730">
        <ele>48.0</ele>
        <time>2019-08-16T08:24:16Z</time>
      </trkpt>
      <trkpt lat="41.6780230" lon="-8.8037110">
        <ele>47.6</ele>
        <time>2019-08-16T08:24:17Z</time>
      </trkpt>
      <trkpt lat="41.6780730" lon="-8.8037290">
        <ele>47.6</ele>
        <time>2019-08-16T08:24:18Z</time>
      </trkpt>
      <trkpt lat="41.6781150" lon="-8.8037430">
        <ele>47.6</ele>
        <time>2019-08-16T08:24:19Z</time>
      </trkpt>
      <trkpt lat="41.6782010" lon="-8.8038160">
        <ele>47.6</ele>
        <time>2019-08-16T08:24:21Z</time>
      </trkpt>
      <trkpt lat="41.6782370" lon="-8.8038670">
        <ele>47.2</ele>
        <time>2019-08-16T08:24:22Z</time>
      </trkpt>
      <trkpt lat="41.6782700" lon="-8.8039140">
        <ele>46.8</ele>
        <time>2019-08-16T08:24:23Z</time>
      </trkpt>
      <trkpt lat="41.6783040" lon="-8.8039600">
        <ele>46.4</ele>
        <time>2019-08-16T08:24:24Z</time>
      </trkpt>
      <trkpt lat="41.6783410" lon="-8.8040030">
        <ele>46.0</ele>
        <time>2019-08-16T08:24:25Z</time>
      </trkpt>
      <trkpt lat="41.6783760" lon="-8.8040390">
        <ele>45.4</ele>
        <time>2019-08-16T08:24:26Z</time>
      </trkpt>
      <trkpt lat="41.6784850" lon="-8.8041510">
        <ele>45.0</ele>
        <time>2019-08-16T08:24:29Z</time>
      </trkpt>
      <trkpt lat="41.6785190" lon="-8.8041900">
        <ele>44.6</ele>
        <time>2019-08-16T08:24:30Z</time>
      </trkpt>
      <trkpt lat="41.6785540" lon="-8.8042310">
        <ele>44.0</ele>
        <time>2019-08-16T08:24:31Z</time>
      </trkpt>
      <trkpt lat="41.6785870" lon="-8.8042740">
        <ele>43.6</ele>
        <time>2019-08-16T08:24:32Z</time>
      </trkpt>
      <trkpt lat="41.6786210" lon="-8.8043190">
        <ele>43.2</ele>
        <time>2019-08-16T08:24:33Z</time>
      </trkpt>
      <trkpt lat="41.6788060" lon="-8.8045710">
        <ele>42.8</ele>
        <time>2019-08-16T08:24:38Z</time>
      </trkpt>
      <trkpt lat="41.6788420" lon="-8.8046210">
        <ele>42.4</ele>
        <time>2019-08-16T08:24:39Z</time>
      </trkpt>
      <trkpt lat="41.6788840" lon="-8.8046610">
        <ele>41.8</ele>
        <time>2019-08-16T08:24:40Z</time>
      </trkpt>
      <trkpt lat="41.6789310" lon="-8.8047030">
        <ele>41.4</ele>
        <time>2019-08-16T08:24:41Z</time>
      </trkpt>
      <trkpt lat="41.6789690" lon="-8.8047330">
        <ele>41.0</ele>
        <time>2019-08-16T08:24:42Z</time>
      </trkpt>
      <trkpt lat="41.6789970" lon="-8.8047780">
        <ele>41.0</ele>
        <time>2019-08-16T08:24:43Z</time>
      </trkpt>
      <trkpt lat="41.6790220" lon="-8.8048230">
        <ele>41.0</ele>
        <time>2019-08-16T08:24:44Z</time>
      </trkpt>
      <trkpt lat="41.6790830" lon="-8.8049130">
        <ele>40.6</ele>
        <time>2019-08-16T08:24:46Z</time>
      </trkpt>
      <trkpt lat="41.6791200" lon="-8.8049610">
        <ele>40.2</ele>
        <time>2019-08-16T08:24:47Z</time>
      </trkpt>
      <trkpt lat="41.6791570" lon="-8.8050050">
        <ele>39.8</ele>
        <time>2019-08-16T08:24:48Z</time>
      </trkpt>
      <trkpt lat="41.6791950" lon="-8.8050480">
        <ele>39.4</ele>
        <time>2019-08-16T08:24:49Z</time>
      </trkpt>
      <trkpt lat="41.6792290" lon="-8.8050870">
        <ele>39.0</ele>
        <time>2019-08-16T08:24:50Z</time>
      </trkpt>
      <trkpt lat="41.6793240" lon="-8.8051750">
        <ele>38.4</ele>
        <time>2019-08-16T08:24:53Z</time>
      </trkpt>
      <trkpt lat="41.6793520" lon="-8.8051950">
        <ele>38.0</ele>
        <time>2019-08-16T08:24:54Z</time>
      </trkpt>
      <trkpt lat="41.6793750" lon="-8.8052280">
        <ele>37.6</ele>
        <time>2019-08-16T08:24:55Z</time>
      </trkpt>
      <trkpt lat="41.6793970" lon="-8.8052750">
        <ele>37.2</ele>
        <time>2019-08-16T08:24:56Z</time>
      </trkpt>
      <trkpt lat="41.6794210" lon="-8.8053250">
        <ele>36.8</ele>
        <time>2019-08-16T08:24:57Z</time>
      </trkpt>
      <trkpt lat="41.6794680" lon="-8.8054110">
        <ele>36.4</ele>
        <time>2019-08-16T08:24:59Z</time>
      </trkpt>
      <trkpt lat="41.6794930" lon="-8.8054480">
        <ele>36.0</ele>
        <time>2019-08-16T08:25:00Z</time>
      </trkpt>
      <trkpt lat="41.6795180" lon="-8.8054830">
        <ele>35.6</ele>
        <time>2019-08-16T08:25:01Z</time>
      </trkpt>
      <trkpt lat="41.6795390" lon="-8.8055170">
        <ele>35.0</ele>
        <time>2019-08-16T08:25:02Z</time>
      </trkpt>
      <trkpt lat="41.6795620" lon="-8.8055510">
        <ele>34.6</ele>
        <time>2019-08-16T08:25:03Z</time>
      </trkpt>
      <trkpt lat="41.6796180" lon="-8.8056280">
        <ele>34.6</ele>
        <time>2019-08-16T08:25:06Z</time>
      </trkpt>
      <trkpt lat="41.6796560" lon="-8.8056850">
        <ele>34.2</ele>
        <time>2019-08-16T08:25:08Z</time>
      </trkpt>
      <trkpt lat="41.6796730" lon="-8.8057100">
        <ele>33.8</ele>
        <time>2019-08-16T08:25:09Z</time>
      </trkpt>
      <trkpt lat="41.6796900" lon="-8.8057360">
        <ele>33.4</ele>
        <time>2019-08-16T08:25:10Z</time>
      </trkpt>
      <trkpt lat="41.6797040" lon="-8.8057580">
        <ele>33.0</ele>
        <time>2019-08-16T08:25:11Z</time>
      </trkpt>
      <trkpt lat="41.6797200" lon="-8.8057840">
        <ele>32.6</ele>
        <time>2019-08-16T08:25:12Z</time>
      </trkpt>
      <trkpt lat="41.6797880" lon="-8.8058760">
        <ele>32.6</ele>
        <time>2019-08-16T08:25:15Z</time>
      </trkpt>
      <trkpt lat="41.6798560" lon="-8.8059770">
        <ele>32.2</ele>
        <time>2019-08-16T08:25:18Z</time>
      </trkpt>
      <trkpt lat="41.6798770" lon="-8.8060130">
        <ele>31.8</ele>
        <time>2019-08-16T08:25:19Z</time>
      </trkpt>
      <trkpt lat="41.6798910" lon="-8.8060440">
        <ele>31.4</ele>
        <time>2019-08-16T08:25:20Z</time>
      </trkpt>
      <trkpt lat="41.6799100" lon="-8.8060790">
        <ele>31.0</ele>
        <time>2019-08-16T08:25:21Z</time>
      </trkpt>
      <trkpt lat="41.6799410" lon="-8.8060940">
        <ele>30.6</ele>
        <time>2019-08-16T08:25:22Z</time>
      </trkpt>
      <trkpt lat="41.6801210" lon="-8.8063260">
        <ele>30.2</ele>
        <time>2019-08-16T08:25:28Z</time>
      </trkpt>
      <trkpt lat="41.6801470" lon="-8.8063660">
        <ele>29.8</ele>
        <time>2019-08-16T08:25:29Z</time>
      </trkpt>
      <trkpt lat="41.6801750" lon="-8.8064080">
        <ele>29.2</ele>
        <time>2019-08-16T08:25:30Z</time>
      </trkpt>
      <trkpt lat="41.6802030" lon="-8.8064460">
        <ele>28.8</ele>
        <time>2019-08-16T08:25:31Z</time>
      </trkpt>
      <trkpt lat="41.6802260" lon="-8.8064890">
        <ele>28.4</ele>
        <time>2019-08-16T08:25:32Z</time>
      </trkpt>
      <trkpt lat="41.6803100" lon="-8.8065950">
        <ele>28.4</ele>
        <time>2019-08-16T08:25:35Z</time>
      </trkpt>
      <trkpt lat="41.6804170" lon="-8.8067170">
        <ele>28.0</ele>
        <time>2019-08-16T08:25:39Z</time>
      </trkpt>
      <trkpt lat="41.6804420" lon="-8.8067430">
        <ele>27.6</ele>
        <time>2019-08-16T08:25:40Z</time>
      </trkpt>
      <trkpt lat="41.6804680" lon="-8.8067740">
        <ele>27.0</ele>
        <time>2019-08-16T08:25:41Z</time>
      </trkpt>
      <trkpt lat="41.6804850" lon="-8.8068000">
        <ele>26.6</ele>
        <time>2019-08-16T08:25:42Z</time>
      </trkpt>
      <trkpt lat="41.6804930" lon="-8.8068170">
        <ele>26.2</ele>
        <time>2019-08-16T08:25:43Z</time>
      </trkpt>
      <trkpt lat="41.6805040" lon="-8.8068320">
        <ele>26.2</ele>
        <time>2019-08-16T08:25:45Z</time>
      </trkpt>
      <trkpt lat="41.6805130" lon="-8.8068400">
        <ele>26.2</ele>
        <time>2019-08-16T08:26:04Z</time>
      </trkpt>
      <trkpt lat="41.6805390" lon="-8.8068460">
        <ele>26.2</ele>
        <time>2019-08-16T08:26:06Z</time>
      </trkpt>
      <trkpt lat="41.6805990" lon="-8.8068630">
        <ele>26.2</ele>
        <time>2019-08-16T08:26:08Z</time>
      </trkpt>
      <trkpt lat="41.6807640" lon="-8.8069430">
        <ele>26.2</ele>
        <time>2019-08-16T08:26:13Z</time>
      </trkpt>
      <trkpt lat="41.6808410" lon="-8.8070750">
        <ele>26.2</ele>
        <time>2019-08-16T08:26:16Z</time>
      </trkpt>
      <trkpt lat="41.6809050" lon="-8.8071460">
        <ele>26.2</ele>
        <time>2019-08-16T08:26:18Z</time>
      </trkpt>
      <trkpt lat="41.6811450" lon="-8.8074200">
        <ele>25.6</ele>
        <time>2019-08-16T08:26:25Z</time>
      </trkpt>
      <trkpt lat="41.6811800" lon="-8.8074600">
        <ele>25.2</ele>
        <time>2019-08-16T08:26:26Z</time>
      </trkpt>
      <trkpt lat="41.6812120" lon="-8.8075000">
        <ele>24.8</ele>
        <time>2019-08-16T08:26:27Z</time>
      </trkpt>
      <trkpt lat="41.6812450" lon="-8.8075400">
        <ele>24.4</ele>
        <time>2019-08-16T08:26:28Z</time>
      </trkpt>
      <trkpt lat="41.6812770" lon="-8.8075790">
        <ele>24.0</ele>
        <time>2019-08-16T08:26:29Z</time>
      </trkpt>
      <trkpt lat="41.6816230" lon="-8.8079770">
        <ele>24.0</ele>
        <time>2019-08-16T08:26:39Z</time>
      </trkpt>
      <trkpt lat="41.6817070" lon="-8.8080520">
        <ele>24.0</ele>
        <time>2019-08-16T08:26:41Z</time>
      </trkpt>
      <trkpt lat="41.6818720" lon="-8.8082130">
        <ele>24.0</ele>
        <time>2019-08-16T08:26:45Z</time>
      </trkpt>
      <trkpt lat="41.6822480" lon="-8.8086610">
        <ele>24.0</ele>
        <time>2019-08-16T08:26:55Z</time>
      </trkpt>
      <trkpt lat="41.6824710" lon="-8.8089480">
        <ele>23.6</ele>
        <time>2019-08-16T08:27:01Z</time>
      </trkpt>
      <trkpt lat="41.6825090" lon="-8.8089910">
        <ele>23.2</ele>
        <time>2019-08-16T08:27:02Z</time>
      </trkpt>
      <trkpt lat="41.6825500" lon="-8.8090330">
        <ele>22.8</ele>
        <time>2019-08-16T08:27:03Z</time>
      </trkpt>
      <trkpt lat="41.6825890" lon="-8.8090740">
        <ele>22.4</ele>
        <time>2019-08-16T08:27:04Z</time>
      </trkpt>
      <trkpt lat="41.6826290" lon="-8.8091170">
        <ele>21.8</ele>
        <time>2019-08-16T08:27:05Z</time>
      </trkpt>
      <trkpt lat="41.6829290" lon="-8.8094730">
        <ele>21.8</ele>
        <time>2019-08-16T08:27:12Z</time>
      </trkpt>
      <trkpt lat="41.6832750" lon="-8.8098640">
        <ele>21.8</ele>
        <time>2019-08-16T08:27:20Z</time>
      </trkpt>
      <trkpt lat="41.6833510" lon="-8.8099640">
        <ele>21.4</ele>
        <time>2019-08-16T08:27:22Z</time>
      </trkpt>
      <trkpt lat="41.6833870" lon="-8.8100110">
        <ele>21.0</ele>
        <time>2019-08-16T08:27:23Z</time>
      </trkpt>
      <trkpt lat="41.6834270" lon="-8.8100590">
        <ele>20.6</ele>
        <time>2019-08-16T08:27:24Z</time>
      </trkpt>
      <trkpt lat="41.6834670" lon="-8.8101050">
        <ele>20.2</ele>
        <time>2019-08-16T08:27:25Z</time>
      </trkpt>
      <trkpt lat="41.6835070" lon="-8.8101490">
        <ele>19.8</ele>
        <time>2019-08-16T08:27:26Z</time>
      </trkpt>
      <trkpt lat="41.6836650" lon="-8.8103320">
        <ele>19.8</ele>
        <time>2019-08-16T08:27:30Z</time>
      </trkpt>
      <trkpt lat="41.6841040" lon="-8.8108060">
        <ele>19.8</ele>
        <time>2019-08-16T08:27:41Z</time>
      </trkpt>
      <trkpt lat="41.6841490" lon="-8.8108470">
        <ele>19.8</ele>
        <time>2019-08-16T08:27:42Z</time>
      </trkpt>
      <trkpt lat="41.6845010" lon="-8.8111640">
        <ele>19.8</ele>
        <time>2019-08-16T08:27:50Z</time>
      </trkpt>
      <trkpt lat="41.6846390" lon="-8.8112830">
        <ele>19.2</ele>
        <time>2019-08-16T08:27:53Z</time>
      </trkpt>
      <trkpt lat="41.6846840" lon="-8.8113260">
        <ele>18.8</ele>
        <time>2019-08-16T08:27:54Z</time>
      </trkpt>
      <trkpt lat="41.6847320" lon="-8.8113730">
        <ele>18.4</ele>
        <time>2019-08-16T08:27:55Z</time>
      </trkpt>
      <trkpt lat="41.6847800" lon="-8.8114170">
        <ele>18.0</ele>
        <time>2019-08-16T08:27:56Z</time>
      </trkpt>
      <trkpt lat="41.6848290" lon="-8.8114580">
        <ele>17.6</ele>
        <time>2019-08-16T08:27:57Z</time>
      </trkpt>
      <trkpt lat="41.6848750" lon="-8.8115010">
        <ele>17.6</ele>
        <time>2019-08-16T08:27:58Z</time>
      </trkpt>
      <trkpt lat="41.6852390" lon="-8.8118900">
        <ele>17.6</ele>
        <time>2019-08-16T08:28:07Z</time>
      </trkpt>
      <trkpt lat="41.6854530" lon="-8.8120970">
        <ele>17.6</ele>
        <time>2019-08-16T08:28:13Z</time>
      </trkpt>
      <trkpt lat="41.6856730" lon="-8.8122980">
        <ele>17.6</ele>
        <time>2019-08-16T08:28:20Z</time>
      </trkpt>
      <trkpt lat="41.6857430" lon="-8.8123700">
        <ele>17.2</ele>
        <time>2019-08-16T08:28:22Z</time>
      </trkpt>
      <trkpt lat="41.6857800" lon="-8.8124060">
        <ele>16.8</ele>
        <time>2019-08-16T08:28:23Z</time>
      </trkpt>
      <trkpt lat="41.6858170" lon="-8.8124390">
        <ele>16.4</ele>
        <time>2019-08-16T08:28:24Z</time>
      </trkpt>
      <trkpt lat="41.6858540" lon="-8.8124750">
        <ele>16.0</ele>
        <time>2019-08-16T08:28:25Z</time>
      </trkpt>
      <trkpt lat="41.6858890" lon="-8.8125140">
        <ele>15.6</ele>
        <time>2019-08-16T08:28:26Z</time>
      </trkpt>
      <trkpt lat="41.6859670" lon="-8.8125800">
        <ele>15.6</ele>
        <time>2019-08-16T08:28:28Z</time>
      </trkpt>
      <trkpt lat="41.6861090" lon="-8.8126590">
        <ele>15.6</ele>
        <time>2019-08-16T08:28:33Z</time>
      </trkpt>
      <trkpt lat="41.6862720" lon="-8.8127310">
        <ele>15.6</ele>
        <time>2019-08-16T08:28:38Z</time>
      </trkpt>
      <trkpt lat="41.6863510" lon="-8.8128630">
        <ele>15.6</ele>
        <time>2019-08-16T08:28:42Z</time>
      </trkpt>
      <trkpt lat="41.6864660" lon="-8.8130610">
        <ele>15.6</ele>
        <time>2019-08-16T08:28:47Z</time>
      </trkpt>
      <trkpt lat="41.6865060" lon="-8.8130960">
        <ele>15.2</ele>
        <time>2019-08-16T08:28:48Z</time>
      </trkpt>
      <trkpt lat="41.6865420" lon="-8.8131280">
        <ele>14.8</ele>
        <time>2019-08-16T08:28:49Z</time>
      </trkpt>
      <trkpt lat="41.6865780" lon="-8.8131580">
        <ele>14.4</ele>
        <time>2019-08-16T08:28:50Z</time>
      </trkpt>
      <trkpt lat="41.6866130" lon="-8.8131850">
        <ele>14.0</ele>
        <time>2019-08-16T08:28:51Z</time>
      </trkpt>
      <trkpt lat="41.6866470" lon="-8.8132130">
        <ele>13.6</ele>
        <time>2019-08-16T08:28:52Z</time>
      </trkpt>
      <trkpt lat="41.6869100" lon="-8.8134400">
        <ele>13.6</ele>
        <time>2019-08-16T08:29:00Z</time>
      </trkpt>
      <trkpt lat="41.6870050" lon="-8.8133850">
        <ele>13.6</ele>
        <time>2019-08-16T08:29:04Z</time>
      </trkpt>
      <trkpt lat="41.6870460" lon="-8.8133050">
        <ele>13.6</ele>
        <time>2019-08-16T08:29:06Z</time>
      </trkpt>
      <trkpt lat="41.6870880" lon="-8.8132180">
        <ele>13.6</ele>
        <time>2019-08-16T08:29:08Z</time>
      </trkpt>
      <trkpt lat="41.6872830" lon="-8.8130060">
        <ele>13.6</ele>
        <time>2019-08-16T08:29:14Z</time>
      </trkpt>
      <trkpt lat="41.6876140" lon="-8.8128540">
        <ele>13.6</ele>
        <time>2019-08-16T08:29:22Z</time>
      </trkpt>
      <trkpt lat="41.6876870" lon="-8.8127230">
        <ele>13.6</ele>
        <time>2019-08-16T08:29:26Z</time>
      </trkpt>
      <trkpt lat="41.6877510" lon="-8.8125250">
        <ele>13.6</ele>
        <time>2019-08-16T08:29:31Z</time>
      </trkpt>
      <trkpt lat="41.6878080" lon="-8.8124560">
        <ele>13.6</ele>
        <time>2019-08-16T08:29:33Z</time>
      </trkpt>
      <trkpt lat="41.6878860" lon="-8.8124390">
        <ele>13.6</ele>
        <time>2019-08-16T08:29:35Z</time>
      </trkpt>
      <trkpt lat="41.6880550" lon="-8.8125450">
        <ele>13.6</ele>
        <time>2019-08-16T08:29:39Z</time>
      </trkpt>
      <trkpt lat="41.6883930" lon="-8.8128340">
        <ele>13.6</ele>
        <time>2019-08-16T08:29:47Z</time>
      </trkpt>
      <trkpt lat="41.6886600" lon="-8.8131900">
        <ele>13.6</ele>
        <time>2019-08-16T08:29:54Z</time>
      </trkpt>
      <trkpt lat="41.6890340" lon="-8.8136600">
        <ele>13.6</ele>
        <time>2019-08-16T08:30:03Z</time>
      </trkpt>
      <trkpt lat="41.6891570" lon="-8.8138230">
        <ele>13.6</ele>
        <time>2019-08-16T08:30:06Z</time>
      </trkpt>
      <trkpt lat="41.6894430" lon="-8.8141870">
        <ele>13.6</ele>
        <time>2019-08-16T08:30:13Z</time>
      </trkpt>
      <trkpt lat="41.6898410" lon="-8.8147040">
        <ele>13.6</ele>
        <time>2019-08-16T08:30:23Z</time>
      </trkpt>
      <trkpt lat="41.6899110" lon="-8.8147820">
        <ele>14.0</ele>
        <time>2019-08-16T08:30:25Z</time>
      </trkpt>
      <trkpt lat="41.6899390" lon="-8.8148230">
        <ele>14.4</ele>
        <time>2019-08-16T08:30:26Z</time>
      </trkpt>
      <trkpt lat="41.6899690" lon="-8.8148670">
        <ele>14.8</ele>
        <time>2019-08-16T08:30:27Z</time>
      </trkpt>
      <trkpt lat="41.6900020" lon="-8.8149060">
        <ele>15.2</ele>
        <time>2019-08-16T08:30:28Z</time>
      </trkpt>
      <trkpt lat="41.6900320" lon="-8.8149420">
        <ele>15.6</ele>
        <time>2019-08-16T08:30:29Z</time>
      </trkpt>
      <trkpt lat="41.6900660" lon="-8.8149800">
        <ele>15.6</ele>
        <time>2019-08-16T08:30:30Z</time>
      </trkpt>
      <trkpt lat="41.6901800" lon="-8.8151260">
        <ele>16.0</ele>
        <time>2019-08-16T08:30:34Z</time>
      </trkpt>
      <trkpt lat="41.6902080" lon="-8.8151620">
        <ele>16.4</ele>
        <time>2019-08-16T08:30:35Z</time>
      </trkpt>
      <trkpt lat="41.6902350" lon="-8.8151950">
        <ele>16.8</ele>
        <time>2019-08-16T08:30:36Z</time>
      </trkpt>
      <trkpt lat="41.6902640" lon="-8.8152320">
        <ele>17.2</ele>
        <time>2019-08-16T08:30:37Z</time>
      </trkpt>
      <trkpt lat="41.6902930" lon="-8.8152660">
        <ele>17.6</ele>
        <time>2019-08-16T08:30:38Z</time>
      </trkpt>
      <trkpt lat="41.6904670" lon="-8.8154550">
        <ele>18.0</ele>
        <time>2019-08-16T08:30:44Z</time>
      </trkpt>
      <trkpt lat="41.6904940" lon="-8.8154880">
        <ele>18.4</ele>
        <time>2019-08-16T08:30:45Z</time>
      </trkpt>
      <trkpt lat="41.6905210" lon="-8.8155170">
        <ele>18.8</ele>
        <time>2019-08-16T08:30:46Z</time>
      </trkpt>
      <trkpt lat="41.6905510" lon="-8.8155520">
        <ele>19.2</ele>
        <time>2019-08-16T08:30:47Z</time>
      </trkpt>
      <trkpt lat="41.6905770" lon="-8.8155860">
        <ele>19.6</ele>
        <time>2019-08-16T08:30:48Z</time>
      </trkpt>
      <trkpt lat="41.6906060" lon="-8.8156220">
        <ele>19.6</ele>
        <time>2019-08-16T08:30:49Z</time>
      </trkpt>
      <trkpt lat="41.6907470" lon="-8.8157920">
        <ele>20.0</ele>
        <time>2019-08-16T08:30:54Z</time>
      </trkpt>
      <trkpt lat="41.6908060" lon="-8.8158640">
        <ele>20.6</ele>
        <time>2019-08-16T08:30:56Z</time>
      </trkpt>
      <trkpt lat="41.6908340" lon="-8.8158980">
        <ele>21.4</ele>
        <time>2019-08-16T08:30:57Z</time>
      </trkpt>
      <trkpt lat="41.6908640" lon="-8.8159340">
        <ele>21.8</ele>
        <time>2019-08-16T08:30:58Z</time>
      </trkpt>
      <trkpt lat="41.6910180" lon="-8.8161130">
        <ele>22.2</ele>
        <time>2019-08-16T08:31:03Z</time>
      </trkpt>
      <trkpt lat="41.6910740" lon="-8.8161920">
        <ele>22.6</ele>
        <time>2019-08-16T08:31:05Z</time>
      </trkpt>
      <trkpt lat="41.6911040" lon="-8.8162300">
        <ele>23.2</ele>
        <time>2019-08-16T08:31:06Z</time>
      </trkpt>
      <trkpt lat="41.6911280" lon="-8.8162640">
        <ele>23.6</ele>
        <time>2019-08-16T08:31:07Z</time>
      </trkpt>
      <trkpt lat="41.6911560" lon="-8.8162860">
        <ele>24.0</ele>
        <time>2019-08-16T08:31:08Z</time>
      </trkpt>
      <trkpt lat="41.6913460" lon="-8.8164760">
        <ele>24.0</ele>
        <time>2019-08-16T08:31:15Z</time>
      </trkpt>
      <trkpt lat="41.6913990" lon="-8.8165450">
        <ele>24.4</ele>
        <time>2019-08-16T08:31:19Z</time>
      </trkpt>
      <trkpt lat="41.6914080" lon="-8.8165430">
        <ele>26.0</ele>
        <time>2019-08-16T08:32:33Z</time>
      </trkpt>
      <trkpt lat="41.6914610" lon="-8.8166340">
        <ele>26.0</ele>
        <time>2019-08-16T08:32:36Z</time>
      </trkpt>
      <trkpt lat="41.6916670" lon="-8.8168970">
        <ele>26.0</ele>
        <time>2019-08-16T08:32:42Z</time>
      </trkpt>
      <trkpt lat="41.6919890" lon="-8.8173080">
        <ele>26.0</ele>
        <time>2019-08-16T08:32:50Z</time>
      </trkpt>
      <trkpt lat="41.6923690" lon="-8.8178190">
        <ele>26.0</ele>
        <time>2019-08-16T08:32:59Z</time>
      </trkpt>
      <trkpt lat="41.6927710" lon="-8.8183670">
        <ele>26.0</ele>
        <time>2019-08-16T08:33:08Z</time>
      </trkpt>
      <trkpt lat="41.6931950" lon="-8.8189080">
        <ele>26.0</ele>
        <time>2019-08-16T08:33:17Z</time>
      </trkpt>
      <trkpt lat="41.6932900" lon="-8.8190300">
        <ele>26.0</ele>
        <time>2019-08-16T08:33:19Z</time>
      </trkpt>
      <trkpt lat="41.6937170" lon="-8.8195950">
        <ele>26.0</ele>
        <time>2019-08-16T08:33:28Z</time>
      </trkpt>
      <trkpt lat="41.6941320" lon="-8.8201300">
        <ele>26.0</ele>
        <time>2019-08-16T08:33:37Z</time>
      </trkpt>
      <trkpt lat="41.6945540" lon="-8.8206680">
        <ele>26.0</ele>
        <time>2019-08-16T08:33:46Z</time>
      </trkpt>
      <trkpt lat="41.6946470" lon="-8.8207940">
        <ele>26.0</ele>
        <time>2019-08-16T08:33:48Z</time>
      </trkpt>
      <trkpt lat="41.6949810" lon="-8.8212510">
        <ele>26.0</ele>
        <time>2019-08-16T08:33:56Z</time>
      </trkpt>
      <trkpt lat="41.6950060" lon="-8.8213130">
        <ele>26.0</ele>
        <time>2019-08-16T08:33:57Z</time>
      </trkpt>
      <trkpt lat="41.6951080" lon="-8.8214880">
        <ele>26.0</ele>
        <time>2019-08-16T08:34:00Z</time>
      </trkpt>
      <trkpt lat="41.6952520" lon="-8.8216730">
        <ele>25.6</ele>
        <time>2019-08-16T08:34:03Z</time>
      </trkpt>
      <trkpt lat="41.6953020" lon="-8.8217380">
        <ele>25.2</ele>
        <time>2019-08-16T08:34:04Z</time>
      </trkpt>
      <trkpt lat="41.6953550" lon="-8.8218070">
        <ele>24.8</ele>
        <time>2019-08-16T08:34:05Z</time>
      </trkpt>
      <trkpt lat="41.6954110" lon="-8.8218800">
        <ele>24.4</ele>
        <time>2019-08-16T08:34:06Z</time>
      </trkpt>
      <trkpt lat="41.6954680" lon="-8.8219540">
        <ele>23.8</ele>
        <time>2019-08-16T08:34:07Z</time>
      </trkpt>
      <trkpt lat="41.6955940" lon="-8.8221240">
        <ele>23.4</ele>
        <time>2019-08-16T08:34:09Z</time>
      </trkpt>
      <trkpt lat="41.6956510" lon="-8.8222010">
        <ele>22.8</ele>
        <time>2019-08-16T08:34:10Z</time>
      </trkpt>
      <trkpt lat="41.6957000" lon="-8.8222690">
        <ele>22.4</ele>
        <time>2019-08-16T08:34:11Z</time>
      </trkpt>
      <trkpt lat="41.6957400" lon="-8.8223310">
        <ele>22.4</ele>
        <time>2019-08-16T08:34:12Z</time>
      </trkpt>
      <trkpt lat="41.6957780" lon="-8.8223900">
        <ele>21.4</ele>
        <time>2019-08-16T08:34:13Z</time>
      </trkpt>
      <trkpt lat="41.6958070" lon="-8.8224480">
        <ele>20.8</ele>
        <time>2019-08-16T08:34:14Z</time>
      </trkpt>
      <trkpt lat="41.6958330" lon="-8.8225150">
        <ele>20.2</ele>
        <time>2019-08-16T08:34:15Z</time>
      </trkpt>
      <trkpt lat="41.6958600" lon="-8.8225790">
        <ele>20.2</ele>
        <time>2019-08-16T08:34:16Z</time>
      </trkpt>
      <trkpt lat="41.6958920" lon="-8.8226440">
        <ele>19.2</ele>
        <time>2019-08-16T08:34:17Z</time>
      </trkpt>
      <trkpt lat="41.6961550" lon="-8.8230020">
        <ele>19.2</ele>
        <time>2019-08-16T08:34:24Z</time>
      </trkpt>
      <trkpt lat="41.6961580" lon="-8.8231500">
        <ele>19.2</ele>
        <time>2019-08-16T08:34:28Z</time>
      </trkpt>
      <trkpt lat="41.6960480" lon="-8.8232000">
        <ele>19.2</ele>
        <time>2019-08-16T08:34:31Z</time>
      </trkpt>
      <trkpt lat="41.6960070" lon="-8.8231920">
        <ele>18.8</ele>
        <time>2019-08-16T08:34:32Z</time>
      </trkpt>
      <trkpt lat="41.6959710" lon="-8.8231640">
        <ele>18.2</ele>
        <time>2019-08-16T08:34:33Z</time>
      </trkpt>
      <trkpt lat="41.6959370" lon="-8.8231250">
        <ele>17.8</ele>
        <time>2019-08-16T08:34:34Z</time>
      </trkpt>
      <trkpt lat="41.6959100" lon="-8.8230820">
        <ele>17.4</ele>
        <time>2019-08-16T08:34:35Z</time>
      </trkpt>
      <trkpt lat="41.6958850" lon="-8.8230360">
        <ele>16.8</ele>
        <time>2019-08-16T08:34:36Z</time>
      </trkpt>
      <trkpt lat="41.6958410" lon="-8.8229450">
        <ele>16.8</ele>
        <time>2019-08-16T08:34:38Z</time>
      </trkpt>
      <trkpt lat="41.6957840" lon="-8.8228780">
        <ele>16.8</ele>
        <time>2019-08-16T08:34:40Z</time>
      </trkpt>
      <trkpt lat="41.6956280" lon="-8.8227930">
        <ele>16.8</ele>
        <time>2019-08-16T08:34:45Z</time>
      </trkpt>
      <trkpt lat="41.6955620" lon="-8.8229320">
        <ele>16.8</ele>
        <time>2019-08-16T08:34:49Z</time>
      </trkpt>
      <trkpt lat="41.6954530" lon="-8.8232230">
        <ele>16.8</ele>
        <time>2019-08-16T08:34:55Z</time>
      </trkpt>
      <trkpt lat="41.6953550" lon="-8.8234270">
        <ele>16.4</ele>
        <time>2019-08-16T08:34:59Z</time>
      </trkpt>
      <trkpt lat="41.6953210" lon="-8.8234880">
        <ele>16.0</ele>
        <time>2019-08-16T08:35:00Z</time>
      </trkpt>
      <trkpt lat="41.6952950" lon="-8.8235570">
        <ele>15.6</ele>
        <time>2019-08-16T08:35:01Z</time>
      </trkpt>
      <trkpt lat="41.6952690" lon="-8.8236190">
        <ele>15.2</ele>
        <time>2019-08-16T08:35:02Z</time>
      </trkpt>
      <trkpt lat="41.6952400" lon="-8.8236700">
        <ele>14.8</ele>
        <time>2019-08-16T08:35:03Z</time>
      </trkpt>
      <trkpt lat="41.6951690" lon="-8.8238920">
        <ele>14.8</ele>
        <time>2019-08-16T08:35:08Z</time>
      </trkpt>
      <trkpt lat="41.6949680" lon="-8.8242600">
        <ele>14.8</ele>
        <time>2019-08-16T08:35:15Z</time>
      </trkpt>
      <trkpt lat="41.6947690" lon="-8.8245180">
        <ele>14.8</ele>
        <time>2019-08-16T08:35:21Z</time>
      </trkpt>
      <trkpt lat="41.6946050" lon="-8.8247740">
        <ele>14.8</ele>
        <time>2019-08-16T08:35:28Z</time>
      </trkpt>
      <trkpt lat="41.6944500" lon="-8.8250150">
        <ele>14.8</ele>
        <time>2019-08-16T08:35:34Z</time>
      </trkpt>
      <trkpt lat="41.6943340" lon="-8.8252180">
        <ele>14.8</ele>
        <time>2019-08-16T08:35:39Z</time>
      </trkpt>
      <trkpt lat="41.6943180" lon="-8.8252610">
        <ele>14.8</ele>
        <time>2019-08-16T08:35:40Z</time>
      </trkpt>
      <trkpt lat="41.6943540" lon="-8.8255170">
        <ele>14.8</ele>
        <time>2019-08-16T08:35:46Z</time>
      </trkpt>
      <trkpt lat="41.6943600" lon="-8.8255290">
        <ele>14.8</ele>
        <time>2019-08-16T08:35:48Z</time>
      </trkpt>
      <trkpt lat="41.6942180" lon="-8.8255770">
        <ele>15.2</ele>
        <time>2019-08-16T08:35:58Z</time>
      </trkpt>
      <trkpt lat="41.6942060" lon="-8.8255920">
        <ele>15.6</ele>
        <time>2019-08-16T08:35:59Z</time>
      </trkpt>
      <trkpt lat="41.6941910" lon="-8.8256090">
        <ele>16.0</ele>
        <time>2019-08-16T08:36:00Z</time>
      </trkpt>
      <trkpt lat="41.6941800" lon="-8.8256250">
        <ele>16.4</ele>
        <time>2019-08-16T08:36:01Z</time>
      </trkpt>
      <trkpt lat="41.6941680" lon="-8.8256350">
        <ele>16.8</ele>
        <time>2019-08-16T08:36:02Z</time>
      </trkpt>
      <trkpt lat="41.6941410" lon="-8.8256760">
        <ele>16.8</ele>
        <time>2019-08-16T08:36:05Z</time>
      </trkpt>
      <trkpt lat="41.6940130" lon="-8.8258520">
        <ele>16.8</ele>
        <time>2019-08-16T08:36:15Z</time>
      </trkpt>
      <trkpt lat="41.6938880" lon="-8.8259830">
        <ele>16.8</ele>
        <time>2019-08-16T08:36:21Z</time>
      </trkpt>
      <trkpt lat="41.6936800" lon="-8.8261840">
        <ele>16.8</ele>
        <time>2019-08-16T08:36:30Z</time>
      </trkpt>
      <trkpt lat="41.6935200" lon="-8.8263050">
        <ele>16.8</ele>
        <time>2019-08-16T08:36:37Z</time>
      </trkpt>
      <trkpt lat="41.6934960" lon="-8.8263800">
        <ele>16.8</ele>
        <time>2019-08-16T08:36:44Z</time>
      </trkpt>
      <trkpt lat="41.6934710" lon="-8.8264540">
        <ele>18.6</ele>
        <time>2019-08-16T08:36:54Z</time>
      </trkpt>
      <trkpt lat="41.6934470" lon="-8.8265290">
        <ele>19.0</ele>
        <time>2019-08-16T08:36:55Z</time>
      </trkpt>
      <trkpt lat="41.6934210" lon="-8.8268040">
        <ele>19.0</ele>
        <time>2019-08-16T08:37:01Z</time>
      </trkpt>
      <trkpt lat="41.6934650" lon="-8.8269140">
        <ele>19.0</ele>
        <time>2019-08-16T08:37:06Z</time>
      </trkpt>
      <trkpt lat="41.6934540" lon="-8.8269340">
        <ele>19.0</ele>
        <time>2019-08-16T08:37:07Z</time>
      </trkpt>
      <trkpt lat="41.6933830" lon="-8.8270510">
        <ele>19.4</ele>
        <time>2019-08-16T08:37:10Z</time>
      </trkpt>
      <trkpt lat="41.6933650" lon="-8.8270770">
        <ele>20.0</ele>
        <time>2019-08-16T08:37:11Z</time>
      </trkpt>
      <trkpt lat="41.6933450" lon="-8.8271060">
        <ele>20.4</ele>
        <time>2019-08-16T08:37:12Z</time>
      </trkpt>
      <trkpt lat="41.6933110" lon="-8.8271450">
        <ele>20.8</ele>
        <time>2019-08-16T08:37:13Z</time>
      </trkpt>
      <trkpt lat="41.6932900" lon="-8.8271810">
        <ele>21.2</ele>
        <time>2019-08-16T08:37:14Z</time>
      </trkpt>
      <trkpt lat="41.6932750" lon="-8.8272200">
        <ele>21.2</ele>
        <time>2019-08-16T08:37:15Z</time>
      </trkpt>
      <trkpt lat="41.6932450" lon="-8.8273600">
        <ele>21.2</ele>
        <time>2019-08-16T08:37:20Z</time>
      </trkpt>
      <trkpt lat="41.6932800" lon="-8.8274970">
        <ele>21.2</ele>
        <time>2019-08-16T08:37:25Z</time>
      </trkpt>
      <trkpt lat="41.6933600" lon="-8.8275790">
        <ele>21.2</ele>
        <time>2019-08-16T08:37:31Z</time>
      </trkpt>
      <trkpt lat="41.6934450" lon="-8.8276610">
        <ele>21.2</ele>
        <time>2019-08-16T08:37:39Z</time>
      </trkpt>
      <trkpt lat="41.6935130" lon="-8.8277250">
        <ele>21.2</ele>
        <time>2019-08-16T08:37:46Z</time>
      </trkpt>
      <trkpt lat="41.6935520" lon="-8.8277910">
        <ele>21.2</ele>
        <time>2019-08-16T08:37:54Z</time>
      </trkpt>
      <trkpt lat="41.6935850" lon="-8.8278580">
        <ele>21.2</ele>
        <time>2019-08-16T08:38:00Z</time>
      </trkpt>
      <trkpt lat="41.6935920" lon="-8.8278690">
        <ele>21.2</ele>
        <time>2019-08-16T08:38:02Z</time>
      </trkpt>
      <trkpt lat="41.6936130" lon="-8.8278940">
        <ele>21.2</ele>
        <time>2019-08-16T08:38:07Z</time>
      </trkpt>
      <trkpt lat="41.6936330" lon="-8.8279050">
        <ele>21.2</ele>
        <time>2019-08-16T08:38:10Z</time>
      </trkpt>
      <trkpt lat="41.6936470" lon="-8.8279220">
        <ele>21.2</ele>
        <time>2019-08-16T08:38:13Z</time>
      </trkpt>
      <trkpt lat="41.6936580" lon="-8.8279480">
        <ele>21.2</ele>
        <time>2019-08-16T08:38:19Z</time>
      </trkpt>
      <trkpt lat="41.6936700" lon="-8.8279730">
        <ele>21.2</ele>
        <time>2019-08-16T08:38:21Z</time>
      </trkpt>
      <trkpt lat="41.6936850" lon="-8.8280040">
        <ele>21.2</ele>
        <time>2019-08-16T08:38:25Z</time>
      </trkpt>
      <trkpt lat="41.6936960" lon="-8.8279850">
        <ele>21.2</ele>
        <time>2019-08-16T08:38:29Z</time>
      </trkpt>
      <trkpt lat="41.6936990" lon="-8.8279840">
        <ele>21.2</ele>
        <time>2019-08-16T08:38:30Z</time>
      </trkpt>
      <trkpt lat="41.6937040" lon="-8.8279750">
        <ele>21.2</ele>
        <time>2019-08-16T08:38:32Z</time>
      </trkpt>
      <trkpt lat="41.6937300" lon="-8.8279470">
        <ele>21.2</ele>
        <time>2019-08-16T08:38:36Z</time>
      </trkpt>
      <trkpt lat="41.6937370" lon="-8.8279450">
        <ele>21.2</ele>
        <time>2019-08-16T08:38:37Z</time>
      </trkpt>
      <trkpt lat="41.6937660" lon="-8.8279010">
        <ele>21.2</ele>
        <time>2019-08-16T08:39:15Z</time>
      </trkpt>
      <trkpt lat="41.6937640" lon="-8.8279000">
        <ele>21.2</ele>
        <time>2019-08-16T08:39:16Z</time>
      </trkpt>
      <trkpt lat="41.6937490" lon="-8.8278300">
        <ele>21.2</ele>
        <time>2019-08-16T08:39:39Z</time>
      </trkpt>
      <trkpt lat="41.6937570" lon="-8.8278310">
        <ele>21.2</ele>
        <time>2019-08-16T08:39:40Z</time>
      </trkpt>
      <trkpt lat="41.6937710" lon="-8.8278810">
        <ele>21.2</ele>
        <time>2019-08-16T08:39:45Z</time>
      </trkpt>
      <trkpt lat="41.6937760" lon="-8.8279080">
        <ele>21.2</ele>
        <time>2019-08-16T08:39:48Z</time>
      </trkpt>
      <trkpt lat="41.6938390" lon="-8.8278910">
        <ele>21.2</ele>
        <time>2019-08-16T08:41:34Z</time>
      </trkpt>
      <trkpt lat="41.6938470" lon="-8.8279010">
        <ele>21.2</ele>
        <time>2019-08-16T08:41:35Z</time>
      </trkpt>
      <trkpt lat="41.6938480" lon="-8.8278940">
        <ele>21.2</ele>
        <time>2019-08-16T08:41:38Z</time>
      </trkpt>
      <trkpt lat="41.6938250" lon="-8.8278940">
        <ele>21.2</ele>
        <time>2019-08-16T08:41:43Z</time>
      </trkpt>
      <trkpt lat="41.6938310" lon="-8.8278850">
        <ele>21.2</ele>
        <time>2019-08-16T08:41:44Z</time>
      </trkpt>
      <trkpt lat="41.6938720" lon="-8.8278840">
        <ele>21.2</ele>
        <time>2019-08-16T08:41:51Z</time>
      </trkpt>
      <trkpt lat="41.6938700" lon="-8.8279020">
        <ele>21.2</ele>
        <time>2019-08-16T08:41:53Z</time>
      </trkpt>
      <trkpt lat="41.6938580" lon="-8.8279550">
        <ele>21.2</ele>
        <time>2019-08-16T08:41:58Z</time>
      </trkpt>
      <trkpt lat="41.6938610" lon="-8.8279720">
        <ele>21.2</ele>
        <time>2019-08-16T08:41:59Z</time>
      </trkpt>
      <trkpt lat="41.6939070" lon="-8.8280750">
        <ele>21.2</ele>
        <time>2019-08-16T08:42:09Z</time>
      </trkpt>
      <trkpt lat="41.6938400" lon="-8.8281660">
        <ele>21.2</ele>
        <time>2019-08-16T08:42:22Z</time>
      </trkpt>
      <trkpt lat="41.6937710" lon="-8.8282260">
        <ele>21.2</ele>
        <time>2019-08-16T08:42:34Z</time>
      </trkpt>
      <trkpt lat="41.6937620" lon="-8.8282280">
        <ele>21.2</ele>
        <time>2019-08-16T08:42:37Z</time>
      </trkpt>
      <trkpt lat="41.6937160" lon="-8.8283000">
        <ele>21.2</ele>
        <time>2019-08-16T08:42:53Z</time>
      </trkpt>
      <trkpt lat="41.6937040" lon="-8.8283410">
        <ele>21.2</ele>
        <time>2019-08-16T08:42:57Z</time>
      </trkpt>
      <trkpt lat="41.6936960" lon="-8.8283650">
        <ele>21.2</ele>
        <time>2019-08-16T08:43:01Z</time>
      </trkpt>
      <trkpt lat="41.6936710" lon="-8.8284050">
        <ele>21.2</ele>
        <time>2019-08-16T08:43:20Z</time>
      </trkpt>
      <trkpt lat="41.6936690" lon="-8.8284150">
        <ele>21.2</ele>
        <time>2019-08-16T08:43:22Z</time>
      </trkpt>
      <trkpt lat="41.6936650" lon="-8.8283650">
        <ele>21.2</ele>
        <time>2019-08-16T08:44:05Z</time>
      </trkpt>
      <trkpt lat="41.6937020" lon="-8.8283630">
        <ele>21.2</ele>
        <time>2019-08-16T08:44:10Z</time>
      </trkpt>
      <trkpt lat="41.6937030" lon="-8.8283630">
        <ele>21.2</ele>
        <time>2019-08-16T08:44:11Z</time>
      </trkpt>
      <trkpt lat="41.6936770" lon="-8.8283580">
        <ele>21.2</ele>
        <time>2019-08-16T08:45:03Z</time>
      </trkpt>
      <trkpt lat="41.6936650" lon="-8.8283480">
        <ele>21.2</ele>
        <time>2019-08-16T08:45:06Z</time>
      </trkpt>
      <trkpt lat="41.6936780" lon="-8.8283320">
        <ele>21.2</ele>
        <time>2019-08-16T08:45:08Z</time>
      </trkpt>
      <trkpt lat="41.6937040" lon="-8.8283360">
        <ele>21.2</ele>
        <time>2019-08-16T08:45:12Z</time>
      </trkpt>
      <trkpt lat="41.6936920" lon="-8.8283270">
        <ele>21.2</ele>
        <time>2019-08-16T08:45:17Z</time>
      </trkpt>
      <trkpt lat="41.6936000" lon="-8.8284250">
        <ele>21.2</ele>
        <time>2019-08-16T08:45:26Z</time>
      </trkpt>
      <trkpt lat="41.6934390" lon="-8.8284430">
        <ele>21.2</ele>
        <time>2019-08-16T08:45:38Z</time>
      </trkpt>
      <trkpt lat="41.6933590" lon="-8.8284130">
        <ele>21.2</ele>
        <time>2019-08-16T08:45:46Z</time>
      </trkpt>
      <trkpt lat="41.6933030" lon="-8.8284180">
        <ele>21.2</ele>
        <time>2019-08-16T08:45:52Z</time>
      </trkpt>
      <trkpt lat="41.6932160" lon="-8.8284210">
        <ele>21.2</ele>
        <time>2019-08-16T08:46:01Z</time>
      </trkpt>
      <trkpt lat="41.6932170" lon="-8.8284300">
        <ele>21.2</ele>
        <time>2019-08-16T08:46:07Z</time>
      </trkpt>
      <trkpt lat="41.6931330" lon="-8.8284050">
        <ele>21.2</ele>
        <time>2019-08-16T08:46:12Z</time>
      </trkpt>
      <trkpt lat="41.6930460" lon="-8.8284580">
        <ele>21.2</ele>
        <time>2019-08-16T08:46:17Z</time>
      </trkpt>
      <trkpt lat="41.6929270" lon="-8.8285540">
        <ele>21.2</ele>
        <time>2019-08-16T08:46:23Z</time>
      </trkpt>
      <trkpt lat="41.6928950" lon="-8.8285680">
        <ele>21.2</ele>
        <time>2019-08-16T08:46:24Z</time>
      </trkpt>
      <trkpt lat="41.6927850" lon="-8.8286090">
        <ele>20.8</ele>
        <time>2019-08-16T08:46:28Z</time>
      </trkpt>
      <trkpt lat="41.6927590" lon="-8.8286240">
        <ele>20.4</ele>
        <time>2019-08-16T08:46:29Z</time>
      </trkpt>
      <trkpt lat="41.6927370" lon="-8.8286330">
        <ele>20.0</ele>
        <time>2019-08-16T08:46:30Z</time>
      </trkpt>
      <trkpt lat="41.6927160" lon="-8.8286380">
        <ele>19.6</ele>
        <time>2019-08-16T08:46:31Z</time>
      </trkpt>
      <trkpt lat="41.6926870" lon="-8.8286440">
        <ele>19.0</ele>
        <time>2019-08-16T08:46:32Z</time>
      </trkpt>
      <trkpt lat="41.6926080" lon="-8.8286580">
        <ele>19.0</ele>
        <time>2019-08-16T08:46:35Z</time>
      </trkpt>
      <trkpt lat="41.6924560" lon="-8.8286940">
        <ele>19.0</ele>
        <time>2019-08-16T08:46:41Z</time>
      </trkpt>
      <trkpt lat="41.6924270" lon="-8.8287000">
        <ele>19.0</ele>
        <time>2019-08-16T08:46:42Z</time>
      </trkpt>
      <trkpt lat="41.6922960" lon="-8.8287520">
        <ele>19.0</ele>
        <time>2019-08-16T08:46:49Z</time>
      </trkpt>
      <trkpt lat="41.6922240" lon="-8.8286390">
        <ele>19.0</ele>
        <time>2019-08-16T08:46:59Z</time>
      </trkpt>
      <trkpt lat="41.6920590" lon="-8.8288190">
        <ele>19.0</ele>
        <time>2019-08-16T08:47:06Z</time>
      </trkpt>
      <trkpt lat="41.6918700" lon="-8.8288670">
        <ele>19.0</ele>
        <time>2019-08-16T08:47:13Z</time>
      </trkpt>
      <trkpt lat="41.6918960" lon="-8.8288840">
        <ele>19.0</ele>
        <time>2019-08-16T08:47:19Z</time>
      </trkpt>
      <trkpt lat="41.6919090" lon="-8.8288890">
        <ele>18.6</ele>
        <time>2019-08-16T08:47:20Z</time>
      </trkpt>
      <trkpt lat="41.6918990" lon="-8.8289120">
        <ele>18.2</ele>
        <time>2019-08-16T08:47:21Z</time>
      </trkpt>
      <trkpt lat="41.6918920" lon="-8.8289240">
        <ele>17.8</ele>
        <time>2019-08-16T08:47:22Z</time>
      </trkpt>
      <trkpt lat="41.6918700" lon="-8.8289320">
        <ele>17.4</ele>
        <time>2019-08-16T08:47:23Z</time>
      </trkpt>
      <trkpt lat="41.6918560" lon="-8.8289370">
        <ele>17.0</ele>
        <time>2019-08-16T08:47:24Z</time>
      </trkpt>
      <trkpt lat="41.6918460" lon="-8.8289360">
        <ele>17.0</ele>
        <time>2019-08-16T08:47:25Z</time>
      </trkpt>
      <trkpt lat="41.6918530" lon="-8.8289430">
        <ele>17.0</ele>
        <time>2019-08-16T08:47:43Z</time>
      </trkpt>
      <trkpt lat="41.6918900" lon="-8.8289690">
        <ele>17.0</ele>
        <time>2019-08-16T08:47:48Z</time>
      </trkpt>
      <trkpt lat="41.6919130" lon="-8.8290640">
        <ele>17.0</ele>
        <time>2019-08-16T08:47:55Z</time>
      </trkpt>
      <trkpt lat="41.6919040" lon="-8.8291150">
        <ele>17.0</ele>
        <time>2019-08-16T08:47:57Z</time>
      </trkpt>
      <trkpt lat="41.6918750" lon="-8.8294320">
        <ele>17.0</ele>
        <time>2019-08-16T08:48:04Z</time>
      </trkpt>
      <trkpt lat="41.6918100" lon="-8.8296010">
        <ele>17.0</ele>
        <time>2019-08-16T08:48:09Z</time>
      </trkpt>
      <trkpt lat="41.6917230" lon="-8.8297720">
        <ele>17.0</ele>
        <time>2019-08-16T08:48:16Z</time>
      </trkpt>
      <trkpt lat="41.6915930" lon="-8.8299260">
        <ele>17.0</ele>
        <time>2019-08-16T08:48:25Z</time>
      </trkpt>
      <trkpt lat="41.6914890" lon="-8.8301190">
        <ele>17.0</ele>
        <time>2019-08-16T08:48:33Z</time>
      </trkpt>
      <trkpt lat="41.6915240" lon="-8.8304820">
        <ele>17.0</ele>
        <time>2019-08-16T08:48:40Z</time>
      </trkpt>
      <trkpt lat="41.6916280" lon="-8.8306990">
        <ele>17.0</ele>
        <time>2019-08-16T08:48:49Z</time>
      </trkpt>
      <trkpt lat="41.6917900" lon="-8.8308100">
        <ele>17.0</ele>
        <time>2019-08-16T08:48:55Z</time>
      </trkpt>
      <trkpt lat="41.6920080" lon="-8.8307970">
        <ele>17.0</ele>
        <time>2019-08-16T08:49:01Z</time>
      </trkpt>
      <trkpt lat="41.6921240" lon="-8.8308910">
        <ele>17.0</ele>
        <time>2019-08-16T08:49:08Z</time>
      </trkpt>
      <trkpt lat="41.6921190" lon="-8.8309060">
        <ele>17.0</ele>
        <time>2019-08-16T08:49:12Z</time>
      </trkpt>
      <trkpt lat="41.6921330" lon="-8.8309310">
        <ele>17.0</ele>
        <time>2019-08-16T08:49:13Z</time>
      </trkpt>
      <trkpt lat="41.6922060" lon="-8.8311630">
        <ele>17.0</ele>
        <time>2019-08-16T08:49:23Z</time>
      </trkpt>
      <trkpt lat="41.6922310" lon="-8.8312830">
        <ele>17.0</ele>
        <time>2019-08-16T08:49:31Z</time>
      </trkpt>
      <trkpt lat="41.6922200" lon="-8.8314650">
        <ele>17.0</ele>
        <time>2019-08-16T08:49:39Z</time>
      </trkpt>
      <trkpt lat="41.6921820" lon="-8.8315900">
        <ele>17.0</ele>
        <time>2019-08-16T08:49:45Z</time>
      </trkpt>
      <trkpt lat="41.6921260" lon="-8.8317210">
        <ele>17.0</ele>
        <time>2019-08-16T08:49:52Z</time>
      </trkpt>
      <trkpt lat="41.6920900" lon="-8.8319330">
        <ele>17.0</ele>
        <time>2019-08-16T08:50:00Z</time>
      </trkpt>
      <trkpt lat="41.6920550" lon="-8.8320640">
        <ele>17.0</ele>
        <time>2019-08-16T08:50:07Z</time>
      </trkpt>
      <trkpt lat="41.6919520" lon="-8.8321710">
        <ele>17.0</ele>
        <time>2019-08-16T08:50:14Z</time>
      </trkpt>
      <trkpt lat="41.6918860" lon="-8.8324910">
        <ele>17.0</ele>
        <time>2019-08-16T08:50:22Z</time>
      </trkpt>
      <trkpt lat="41.6918630" lon="-8.8326710">
        <ele>17.0</ele>
        <time>2019-08-16T08:50:29Z</time>
      </trkpt>
      <trkpt lat="41.6918340" lon="-8.8328520">
        <ele>17.0</ele>
        <time>2019-08-16T08:50:36Z</time>
      </trkpt>
      <trkpt lat="41.6917720" lon="-8.8330280">
        <ele>17.0</ele>
        <time>2019-08-16T08:50:45Z</time>
      </trkpt>
      <trkpt lat="41.6917080" lon="-8.8331250">
        <ele>17.0</ele>
        <time>2019-08-16T08:50:51Z</time>
      </trkpt>
      <trkpt lat="41.6916600" lon="-8.8333910">
        <ele>17.0</ele>
        <time>2019-08-16T08:50:59Z</time>
      </trkpt>
      <trkpt lat="41.6916750" lon="-8.8335130">
        <ele>17.0</ele>
        <time>2019-08-16T08:51:06Z</time>
      </trkpt>
      <trkpt lat="41.6917080" lon="-8.8336600">
        <ele>17.0</ele>
        <time>2019-08-16T08:51:12Z</time>
      </trkpt>
      <trkpt lat="41.6916840" lon="-8.8338340">
        <ele>17.0</ele>
        <time>2019-08-16T08:51:19Z</time>
      </trkpt>
      <trkpt lat="41.6917520" lon="-8.8340350">
        <ele>17.0</ele>
        <time>2019-08-16T08:51:27Z</time>
      </trkpt>
      <trkpt lat="41.6918330" lon="-8.8342230">
        <ele>17.0</ele>
        <time>2019-08-16T08:51:33Z</time>
      </trkpt>
      <trkpt lat="41.6919000" lon="-8.8344600">
        <ele>17.0</ele>
        <time>2019-08-16T08:51:41Z</time>
      </trkpt>
      <trkpt lat="41.6919280" lon="-8.8346150">
        <ele>17.0</ele>
        <time>2019-08-16T08:51:46Z</time>
      </trkpt>
      <trkpt lat="41.6919350" lon="-8.8346550">
        <ele>17.0</ele>
        <time>2019-08-16T08:51:47Z</time>
      </trkpt>
      <trkpt lat="41.6920390" lon="-8.8347350">
        <ele>17.0</ele>
        <time>2019-08-16T08:51:53Z</time>
      </trkpt>
      <trkpt lat="41.6921960" lon="-8.8347630">
        <ele>17.0</ele>
        <time>2019-08-16T08:52:00Z</time>
      </trkpt>
      <trkpt lat="41.6923620" lon="-8.8348320">
        <ele>17.0</ele>
        <time>2019-08-16T08:52:07Z</time>
      </trkpt>
      <trkpt lat="41.6924120" lon="-8.8348960">
        <ele>17.4</ele>
        <time>2019-08-16T08:52:10Z</time>
      </trkpt>
      <trkpt lat="41.6924250" lon="-8.8349030">
        <ele>18.0</ele>
        <time>2019-08-16T08:52:11Z</time>
      </trkpt>
      <trkpt lat="41.6924460" lon="-8.8349150">
        <ele>18.4</ele>
        <time>2019-08-16T08:52:12Z</time>
      </trkpt>
      <trkpt lat="41.6924650" lon="-8.8349250">
        <ele>18.8</ele>
        <time>2019-08-16T08:52:13Z</time>
      </trkpt>
      <trkpt lat="41.6924810" lon="-8.8349320">
        <ele>19.2</ele>
        <time>2019-08-16T08:52:14Z</time>
      </trkpt>
      <trkpt lat="41.6926000" lon="-8.8349490">
        <ele>19.2</ele>
        <time>2019-08-16T08:52:18Z</time>
      </trkpt>
      <trkpt lat="41.6927480" lon="-8.8350320">
        <ele>19.2</ele>
        <time>2019-08-16T08:52:24Z</time>
      </trkpt>
      <trkpt lat="41.6928840" lon="-8.8352160">
        <ele>19.2</ele>
        <time>2019-08-16T08:52:31Z</time>
      </trkpt>
      <trkpt lat="41.6929060" lon="-8.8352330">
        <ele>19.6</ele>
        <time>2019-08-16T08:52:32Z</time>
      </trkpt>
      <trkpt lat="41.6929260" lon="-8.8352460">
        <ele>20.0</ele>
        <time>2019-08-16T08:52:33Z</time>
      </trkpt>
      <trkpt lat="41.6929480" lon="-8.8352580">
        <ele>20.4</ele>
        <time>2019-08-16T08:52:34Z</time>
      </trkpt>
      <trkpt lat="41.6929720" lon="-8.8352670">
        <ele>21.0</ele>
        <time>2019-08-16T08:52:35Z</time>
      </trkpt>
      <trkpt lat="41.6929910" lon="-8.8352770">
        <ele>21.4</ele>
        <time>2019-08-16T08:52:36Z</time>
      </trkpt>
      <trkpt lat="41.6930150" lon="-8.8352870">
        <ele>21.4</ele>
        <time>2019-08-16T08:52:37Z</time>
      </trkpt>
      <trkpt lat="41.6931500" lon="-8.8353210">
        <ele>21.8</ele>
        <time>2019-08-16T08:52:43Z</time>
      </trkpt>
      <trkpt lat="41.6931650" lon="-8.8353280">
        <ele>22.2</ele>
        <time>2019-08-16T08:52:44Z</time>
      </trkpt>
      <trkpt lat="41.6931830" lon="-8.8353360">
        <ele>22.6</ele>
        <time>2019-08-16T08:52:45Z</time>
      </trkpt>
      <trkpt lat="41.6931970" lon="-8.8353320">
        <ele>23.0</ele>
        <time>2019-08-16T08:52:46Z</time>
      </trkpt>
      <trkpt lat="41.6932170" lon="-8.8353170">
        <ele>23.4</ele>
        <time>2019-08-16T08:52:47Z</time>
      </trkpt>
      <trkpt lat="41.6932810" lon="-8.8352850">
        <ele>23.4</ele>
        <time>2019-08-16T08:52:50Z</time>
      </trkpt>
      <trkpt lat="41.6933260" lon="-8.8352730">
        <ele>23.4</ele>
        <time>2019-08-16T08:52:57Z</time>
      </trkpt>
      <trkpt lat="41.6933700" lon="-8.8352670">
        <ele>23.4</ele>
        <time>2019-08-16T08:53:07Z</time>
      </trkpt>
      <trkpt lat="41.6934110" lon="-8.8352320">
        <ele>23.4</ele>
        <time>2019-08-16T08:53:11Z</time>
      </trkpt>
      <trkpt lat="41.6935590" lon="-8.8351940">
        <ele>23.4</ele>
        <time>2019-08-16T08:53:22Z</time>
      </trkpt>
      <trkpt lat="41.6936260" lon="-8.8351450">
        <ele>23.8</ele>
        <time>2019-08-16T08:53:29Z</time>
      </trkpt>
      <trkpt lat="41.6936320" lon="-8.8351350">
        <ele>24.2</ele>
        <time>2019-08-16T08:53:30Z</time>
      </trkpt>
      <trkpt lat="41.6936380" lon="-8.8351280">
        <ele>24.6</ele>
        <time>2019-08-16T08:53:31Z</time>
      </trkpt>
      <trkpt lat="41.6936400" lon="-8.8351230">
        <ele>25.0</ele>
        <time>2019-08-16T08:53:32Z</time>
      </trkpt>
      <trkpt lat="41.6936440" lon="-8.8351120">
        <ele>25.4</ele>
        <time>2019-08-16T08:53:33Z</time>
      </trkpt>
      <trkpt lat="41.6936520" lon="-8.8350890">
        <ele>25.4</ele>
        <time>2019-08-16T08:53:35Z</time>
      </trkpt>
      <trkpt lat="41.6936700" lon="-8.8350680">
        <ele>25.4</ele>
        <time>2019-08-16T08:53:40Z</time>
      </trkpt>
      <trkpt lat="41.6936700" lon="-8.8350640">
        <ele>25.4</ele>
        <time>2019-08-16T08:53:50Z</time>
      </trkpt>
      <trkpt lat="41.6936750" lon="-8.8350530">
        <ele>25.4</ele>
        <time>2019-08-16T08:53:51Z</time>
      </trkpt>
      <trkpt lat="41.6936750" lon="-8.8350320">
        <ele>25.4</ele>
        <time>2019-08-16T08:53:52Z</time>
      </trkpt>
      <trkpt lat="41.6936750" lon="-8.8349940">
        <ele>25.4</ele>
        <time>2019-08-16T08:53:53Z</time>
      </trkpt>
      <trkpt lat="41.6937460" lon="-8.8348120">
        <ele>25.4</ele>
        <time>2019-08-16T08:53:58Z</time>
      </trkpt>
      <trkpt lat="41.6938640" lon="-8.8346100">
        <ele>25.4</ele>
        <time>2019-08-16T08:54:05Z</time>
      </trkpt>
      <trkpt lat="41.6939490" lon="-8.8344220">
        <ele>25.4</ele>
        <time>2019-08-16T08:54:12Z</time>
      </trkpt>
      <trkpt lat="41.6940160" lon="-8.8344040">
        <ele>25.4</ele>
        <time>2019-08-16T08:54:15Z</time>
      </trkpt>
      <trkpt lat="41.6940380" lon="-8.8344290">
        <ele>25.4</ele>
        <time>2019-08-16T08:54:16Z</time>
      </trkpt>
      <trkpt lat="41.6940600" lon="-8.8344560">
        <ele>25.8</ele>
        <time>2019-08-16T08:54:17Z</time>
      </trkpt>
      <trkpt lat="41.6940780" lon="-8.8344820">
        <ele>26.2</ele>
        <time>2019-08-16T08:54:18Z</time>
      </trkpt>
      <trkpt lat="41.6940960" lon="-8.8345020">
        <ele>26.6</ele>
        <time>2019-08-16T08:54:19Z</time>
      </trkpt>
      <trkpt lat="41.6941070" lon="-8.8345150">
        <ele>27.0</ele>
        <time>2019-08-16T08:54:20Z</time>
      </trkpt>
      <trkpt lat="41.6941190" lon="-8.8345380">
        <ele>27.4</ele>
        <time>2019-08-16T08:54:21Z</time>
      </trkpt>
      <trkpt lat="41.6941230" lon="-8.8345510">
        <ele>27.4</ele>
        <time>2019-08-16T08:54:22Z</time>
      </trkpt>
      <trkpt lat="41.6941890" lon="-8.8346190">
        <ele>28.0</ele>
        <time>2019-08-16T08:54:26Z</time>
      </trkpt>
      <trkpt lat="41.6942010" lon="-8.8346270">
        <ele>28.4</ele>
        <time>2019-08-16T08:54:27Z</time>
      </trkpt>
      <trkpt lat="41.6942120" lon="-8.8346340">
        <ele>29.0</ele>
        <time>2019-08-16T08:54:28Z</time>
      </trkpt>
      <trkpt lat="41.6942290" lon="-8.8346470">
        <ele>29.4</ele>
        <time>2019-08-16T08:54:29Z</time>
      </trkpt>
      <trkpt lat="41.6942500" lon="-8.8346590">
        <ele>29.8</ele>
        <time>2019-08-16T08:54:30Z</time>
      </trkpt>
      <trkpt lat="41.6942750" lon="-8.8346620">
        <ele>29.8</ele>
        <time>2019-08-16T08:54:32Z</time>
      </trkpt>
      <trkpt lat="41.6943200" lon="-8.8346700">
        <ele>29.8</ele>
        <time>2019-08-16T08:54:35Z</time>
      </trkpt>
      <trkpt lat="41.6943780" lon="-8.8346800">
        <ele>30.4</ele>
        <time>2019-08-16T08:54:38Z</time>
      </trkpt>
      <trkpt lat="41.6943930" lon="-8.8346760">
        <ele>30.8</ele>
        <time>2019-08-16T08:54:39Z</time>
      </trkpt>
      <trkpt lat="41.6943870" lon="-8.8346740">
        <ele>31.2</ele>
        <time>2019-08-16T08:54:40Z</time>
      </trkpt>
      <trkpt lat="41.6943890" lon="-8.8346610">
        <ele>31.6</ele>
        <time>2019-08-16T08:54:41Z</time>
      </trkpt>
      <trkpt lat="41.6943920" lon="-8.8346470">
        <ele>32.0</ele>
        <time>2019-08-16T08:54:42Z</time>
      </trkpt>
      <trkpt lat="41.6944360" lon="-8.8346050">
        <ele>32.4</ele>
        <time>2019-08-16T08:54:46Z</time>
      </trkpt>
      <trkpt lat="41.6944560" lon="-8.8345890">
        <ele>33.0</ele>
        <time>2019-08-16T08:54:47Z</time>
      </trkpt>
      <trkpt lat="41.6944730" lon="-8.8345770">
        <ele>33.4</ele>
        <time>2019-08-16T08:54:48Z</time>
      </trkpt>
      <trkpt lat="41.6944870" lon="-8.8345670">
        <ele>33.8</ele>
        <time>2019-08-16T08:54:49Z</time>
      </trkpt>
      <trkpt lat="41.6945050" lon="-8.8345520">
        <ele>34.2</ele>
        <time>2019-08-16T08:54:50Z</time>
      </trkpt>
      <trkpt lat="41.6945660" lon="-8.8345300">
        <ele>34.2</ele>
        <time>2019-08-16T08:54:54Z</time>
      </trkpt>
      <trkpt lat="41.6945840" lon="-8.8345260">
        <ele>34.8</ele>
        <time>2019-08-16T08:54:55Z</time>
      </trkpt>
      <trkpt lat="41.6946020" lon="-8.8345210">
        <ele>35.2</ele>
        <time>2019-08-16T08:54:56Z</time>
      </trkpt>
      <trkpt lat="41.6946740" lon="-8.8345680">
        <ele>35.6</ele>
        <time>2019-08-16T08:54:57Z</time>
      </trkpt>
      <trkpt lat="41.6946860" lon="-8.8345490">
        <ele>36.0</ele>
        <time>2019-08-16T08:54:58Z</time>
      </trkpt>
      <trkpt lat="41.6947030" lon="-8.8345090">
        <ele>36.6</ele>
        <time>2019-08-16T08:54:59Z</time>
      </trkpt>
      <trkpt lat="41.6947550" lon="-8.8344430">
        <ele>36.6</ele>
        <time>2019-08-16T08:55:02Z</time>
      </trkpt>
      <trkpt lat="41.6947930" lon="-8.8343540">
        <ele>36.6</ele>
        <time>2019-08-16T08:55:07Z</time>
      </trkpt>
      <trkpt lat="41.6947950" lon="-8.8343390">
        <ele>37.0</ele>
        <time>2019-08-16T08:55:08Z</time>
      </trkpt>
      <trkpt lat="41.6948040" lon="-8.8343230">
        <ele>37.4</ele>
        <time>2019-08-16T08:55:09Z</time>
      </trkpt>
      <trkpt lat="41.6948150" lon="-8.8343080">
        <ele>37.8</ele>
        <time>2019-08-16T08:55:10Z</time>
      </trkpt>
      <trkpt lat="41.6948230" lon="-8.8342980">
        <ele>38.2</ele>
        <time>2019-08-16T08:55:11Z</time>
      </trkpt>
      <trkpt lat="41.6948350" lon="-8.8342820">
        <ele>38.8</ele>
        <time>2019-08-16T08:55:12Z</time>
      </trkpt>
      <trkpt lat="41.6948750" lon="-8.8342450">
        <ele>38.8</ele>
        <time>2019-08-16T08:55:15Z</time>
      </trkpt>
      <trkpt lat="41.6949530" lon="-8.8341870">
        <ele>39.2</ele>
        <time>2019-08-16T08:55:21Z</time>
      </trkpt>
      <trkpt lat="41.6949670" lon="-8.8341840">
        <ele>39.6</ele>
        <time>2019-08-16T08:55:22Z</time>
      </trkpt>
      <trkpt lat="41.6949790" lon="-8.8341840">
        <ele>40.0</ele>
        <time>2019-08-16T08:55:23Z</time>
      </trkpt>
      <trkpt lat="41.6949950" lon="-8.8341800">
        <ele>40.6</ele>
        <time>2019-08-16T08:55:24Z</time>
      </trkpt>
      <trkpt lat="41.6950050" lon="-8.8341700">
        <ele>41.0</ele>
        <time>2019-08-16T08:55:25Z</time>
      </trkpt>
      <trkpt lat="41.6951060" lon="-8.8341160">
        <ele>41.0</ele>
        <time>2019-08-16T08:55:31Z</time>
      </trkpt>
      <trkpt lat="41.6951880" lon="-8.8340010">
        <ele>41.0</ele>
        <time>2019-08-16T08:55:38Z</time>
      </trkpt>
      <trkpt lat="41.6951940" lon="-8.8340040">
        <ele>41.0</ele>
        <time>2019-08-16T08:55:44Z</time>
      </trkpt>
      <trkpt lat="41.6952070" lon="-8.8340250">
        <ele>41.0</ele>
        <time>2019-08-16T08:55:45Z</time>
      </trkpt>
      <trkpt lat="41.6952810" lon="-8.8340780">
        <ele>41.4</ele>
        <time>2019-08-16T08:55:49Z</time>
      </trkpt>
      <trkpt lat="41.6953600" lon="-8.8340790">
        <ele>43.0</ele>
        <time>2019-08-16T08:56:17Z</time>
      </trkpt>
      <trkpt lat="41.6953550" lon="-8.8340720">
        <ele>43.0</ele>
        <time>2019-08-16T08:56:19Z</time>
      </trkpt>
      <trkpt lat="41.6953930" lon="-8.8340210">
        <ele>45.0</ele>
        <time>2019-08-16T08:57:09Z</time>
      </trkpt>
      <trkpt lat="41.6954010" lon="-8.8339870">
        <ele>45.0</ele>
        <time>2019-08-16T08:57:12Z</time>
      </trkpt>
      <trkpt lat="41.6954190" lon="-8.8338990">
        <ele>45.0</ele>
        <time>2019-08-16T08:57:18Z</time>
      </trkpt>
      <trkpt lat="41.6954630" lon="-8.8339090">
        <ele>45.0</ele>
        <time>2019-08-16T08:57:20Z</time>
      </trkpt>
      <trkpt lat="41.6955030" lon="-8.8339410">
        <ele>45.0</ele>
        <time>2019-08-16T08:57:22Z</time>
      </trkpt>
      <trkpt lat="41.6956700" lon="-8.8341060">
        <ele>45.0</ele>
        <time>2019-08-16T08:57:32Z</time>
      </trkpt>
      <trkpt lat="41.6957050" lon="-8.8341380">
        <ele>45.6</ele>
        <time>2019-08-16T08:57:34Z</time>
      </trkpt>
      <trkpt lat="41.6957200" lon="-8.8341560">
        <ele>46.0</ele>
        <time>2019-08-16T08:57:35Z</time>
      </trkpt>
      <trkpt lat="41.6957330" lon="-8.8341740">
        <ele>46.4</ele>
        <time>2019-08-16T08:57:36Z</time>
      </trkpt>
      <trkpt lat="41.6957490" lon="-8.8341910">
        <ele>46.8</ele>
        <time>2019-08-16T08:57:37Z</time>
      </trkpt>
      <trkpt lat="41.6957710" lon="-8.8342070">
        <ele>47.2</ele>
        <time>2019-08-16T08:57:38Z</time>
      </trkpt>
      <trkpt lat="41.6958410" lon="-8.8342700">
        <ele>47.2</ele>
        <time>2019-08-16T08:57:42Z</time>
      </trkpt>
      <trkpt lat="41.6958600" lon="-8.8342850">
        <ele>47.6</ele>
        <time>2019-08-16T08:57:43Z</time>
      </trkpt>
      <trkpt lat="41.6958760" lon="-8.8343020">
        <ele>48.0</ele>
        <time>2019-08-16T08:57:44Z</time>
      </trkpt>
      <trkpt lat="41.6959040" lon="-8.8343240">
        <ele>48.4</ele>
        <time>2019-08-16T08:57:45Z</time>
      </trkpt>
      <trkpt lat="41.6959220" lon="-8.8343410">
        <ele>48.8</ele>
        <time>2019-08-16T08:57:46Z</time>
      </trkpt>
      <trkpt lat="41.6959370" lon="-8.8343590">
        <ele>49.2</ele>
        <time>2019-08-16T08:57:47Z</time>
      </trkpt>
      <trkpt lat="41.6959790" lon="-8.8344120">
        <ele>49.2</ele>
        <time>2019-08-16T08:57:50Z</time>
      </trkpt>
      <trkpt lat="41.6960450" lon="-8.8345250">
        <ele>49.6</ele>
        <time>2019-08-16T08:57:56Z</time>
      </trkpt>
      <trkpt lat="41.6960650" lon="-8.8345400">
        <ele>50.2</ele>
        <time>2019-08-16T08:57:57Z</time>
      </trkpt>
      <trkpt lat="41.6960830" lon="-8.8345540">
        <ele>50.6</ele>
        <time>2019-08-16T08:57:58Z</time>
      </trkpt>
      <trkpt lat="41.6961020" lon="-8.8345700">
        <ele>51.0</ele>
        <time>2019-08-16T08:57:59Z</time>
      </trkpt>
      <trkpt lat="41.6961250" lon="-8.8345840">
        <ele>51.4</ele>
        <time>2019-08-16T08:58:00Z</time>
      </trkpt>
      <trkpt lat="41.6961410" lon="-8.8346000">
        <ele>51.4</ele>
        <time>2019-08-16T08:58:01Z</time>
      </trkpt>
      <trkpt lat="41.6962190" lon="-8.8347090">
        <ele>51.8</ele>
        <time>2019-08-16T08:58:07Z</time>
      </trkpt>
      <trkpt lat="41.6962380" lon="-8.8347240">
        <ele>52.2</ele>
        <time>2019-08-16T08:58:08Z</time>
      </trkpt>
      <trkpt lat="41.6962480" lon="-8.8347420">
        <ele>52.8</ele>
        <time>2019-08-16T08:58:09Z</time>
      </trkpt>
      <trkpt lat="41.6962630" lon="-8.8347540">
        <ele>53.2</ele>
        <time>2019-08-16T08:58:10Z</time>
      </trkpt>
      <trkpt lat="41.6962760" lon="-8.8347700">
        <ele>53.6</ele>
        <time>2019-08-16T08:58:11Z</time>
      </trkpt>
      <trkpt lat="41.6963690" lon="-8.8348850">
        <ele>53.6</ele>
        <time>2019-08-16T08:58:17Z</time>
      </trkpt>
      <trkpt lat="41.6964670" lon="-8.8350090">
        <ele>54.0</ele>
        <time>2019-08-16T08:58:22Z</time>
      </trkpt>
      <trkpt lat="41.6964880" lon="-8.8350360">
        <ele>54.4</ele>
        <time>2019-08-16T08:58:23Z</time>
      </trkpt>
      <trkpt lat="41.6965070" lon="-8.8350600">
        <ele>55.0</ele>
        <time>2019-08-16T08:58:24Z</time>
      </trkpt>
      <trkpt lat="41.6965240" lon="-8.8350850">
        <ele>55.4</ele>
        <time>2019-08-16T08:58:25Z</time>
      </trkpt>
      <trkpt lat="41.6965420" lon="-8.8351100">
        <ele>55.8</ele>
        <time>2019-08-16T08:58:26Z</time>
      </trkpt>
      <trkpt lat="41.6966950" lon="-8.8353190">
        <ele>55.8</ele>
        <time>2019-08-16T08:58:35Z</time>
      </trkpt>
      <trkpt lat="41.6968510" lon="-8.8355100">
        <ele>55.8</ele>
        <time>2019-08-16T08:58:43Z</time>
      </trkpt>
      <trkpt lat="41.6968910" lon="-8.8355540">
        <ele>56.2</ele>
        <time>2019-08-16T08:58:45Z</time>
      </trkpt>
      <trkpt lat="41.6969120" lon="-8.8355780">
        <ele>56.8</ele>
        <time>2019-08-16T08:58:46Z</time>
      </trkpt>
      <trkpt lat="41.6969290" lon="-8.8356090">
        <ele>57.2</ele>
        <time>2019-08-16T08:58:47Z</time>
      </trkpt>
      <trkpt lat="41.6969480" lon="-8.8356350">
        <ele>57.6</ele>
        <time>2019-08-16T08:58:48Z</time>
      </trkpt>
      <trkpt lat="41.6969720" lon="-8.8356580">
        <ele>58.0</ele>
        <time>2019-08-16T08:58:49Z</time>
      </trkpt>
      <trkpt lat="41.6970140" lon="-8.8357030">
        <ele>58.0</ele>
        <time>2019-08-16T08:58:51Z</time>
      </trkpt>
      <trkpt lat="41.6971880" lon="-8.8359050">
        <ele>58.0</ele>
        <time>2019-08-16T08:58:59Z</time>
      </trkpt>
      <trkpt lat="41.6973470" lon="-8.8360970">
        <ele>58.4</ele>
        <time>2019-08-16T08:59:07Z</time>
      </trkpt>
      <trkpt lat="41.6973680" lon="-8.8361190">
        <ele>58.8</ele>
        <time>2019-08-16T08:59:08Z</time>
      </trkpt>
      <trkpt lat="41.6973890" lon="-8.8361420">
        <ele>59.2</ele>
        <time>2019-08-16T08:59:09Z</time>
      </trkpt>
      <trkpt lat="41.6974100" lon="-8.8361680">
        <ele>59.6</ele>
        <time>2019-08-16T08:59:10Z</time>
      </trkpt>
      <trkpt lat="41.6974340" lon="-8.8362010">
        <ele>60.0</ele>
        <time>2019-08-16T08:59:11Z</time>
      </trkpt>
      <trkpt lat="41.6975210" lon="-8.8363390">
        <ele>60.0</ele>
        <time>2019-08-16T08:59:15Z</time>
      </trkpt>
      <trkpt lat="41.6976090" lon="-8.8365030">
        <ele>60.0</ele>
        <time>2019-08-16T08:59:20Z</time>
      </trkpt>
      <trkpt lat="41.6976570" lon="-8.8365630">
        <ele>60.0</ele>
        <time>2019-08-16T08:59:22Z</time>
      </trkpt>
      <trkpt lat="41.6978820" lon="-8.8368610">
        <ele>60.0</ele>
        <time>2019-08-16T08:59:32Z</time>
      </trkpt>
      <trkpt lat="41.6980520" lon="-8.8370540">
        <ele>60.4</ele>
        <time>2019-08-16T08:59:39Z</time>
      </trkpt>
      <trkpt lat="41.6980810" lon="-8.8370780">
        <ele>60.8</ele>
        <time>2019-08-16T08:59:40Z</time>
      </trkpt>
      <trkpt lat="41.6981070" lon="-8.8371040">
        <ele>61.2</ele>
        <time>2019-08-16T08:59:41Z</time>
      </trkpt>
      <trkpt lat="41.6981340" lon="-8.8371310">
        <ele>61.8</ele>
        <time>2019-08-16T08:59:42Z</time>
      </trkpt>
      <trkpt lat="41.6981590" lon="-8.8371570">
        <ele>62.2</ele>
        <time>2019-08-16T08:59:43Z</time>
      </trkpt>
      <trkpt lat="41.6983000" lon="-8.8373120">
        <ele>62.2</ele>
        <time>2019-08-16T08:59:49Z</time>
      </trkpt>
      <trkpt lat="41.6986040" lon="-8.8376250">
        <ele>62.2</ele>
        <time>2019-08-16T09:00:01Z</time>
      </trkpt>
      <trkpt lat="41.6988490" lon="-8.8378600">
        <ele>62.2</ele>
        <time>2019-08-16T09:00:09Z</time>
      </trkpt>
      <trkpt lat="41.6990420" lon="-8.8380970">
        <ele>62.2</ele>
        <time>2019-08-16T09:00:16Z</time>
      </trkpt>
      <trkpt lat="41.6992300" lon="-8.8383360">
        <ele>62.2</ele>
        <time>2019-08-16T09:00:23Z</time>
      </trkpt>
      <trkpt lat="41.6994890" lon="-8.8387090">
        <ele>62.2</ele>
        <time>2019-08-16T09:00:33Z</time>
      </trkpt>
      <trkpt lat="41.6996840" lon="-8.8390260">
        <ele>62.2</ele>
        <time>2019-08-16T09:00:41Z</time>
      </trkpt>
      <trkpt lat="41.6999650" lon="-8.8394270">
        <ele>62.2</ele>
        <time>2019-08-16T09:00:51Z</time>
      </trkpt>
      <trkpt lat="41.7002290" lon="-8.8397230">
        <ele>62.2</ele>
        <time>2019-08-16T09:00:59Z</time>
      </trkpt>
      <trkpt lat="41.7002860" lon="-8.8397880">
        <ele>61.6</ele>
        <time>2019-08-16T09:01:01Z</time>
      </trkpt>
      <trkpt lat="41.7003180" lon="-8.8398190">
        <ele>61.2</ele>
        <time>2019-08-16T09:01:02Z</time>
      </trkpt>
      <trkpt lat="41.7003490" lon="-8.8398470">
        <ele>60.8</ele>
        <time>2019-08-16T09:01:03Z</time>
      </trkpt>
      <trkpt lat="41.7003770" lon="-8.8398760">
        <ele>60.4</ele>
        <time>2019-08-16T09:01:04Z</time>
      </trkpt>
      <trkpt lat="41.7004040" lon="-8.8399080">
        <ele>60.0</ele>
        <time>2019-08-16T09:01:05Z</time>
      </trkpt>
      <trkpt lat="41.7004600" lon="-8.8399750">
        <ele>60.0</ele>
        <time>2019-08-16T09:01:07Z</time>
      </trkpt>
      <trkpt lat="41.7006710" lon="-8.8402350">
        <ele>60.0</ele>
        <time>2019-08-16T09:01:15Z</time>
      </trkpt>
      <trkpt lat="41.7008850" lon="-8.8404490">
        <ele>60.0</ele>
        <time>2019-08-16T09:01:22Z</time>
      </trkpt>
      <trkpt lat="41.7010430" lon="-8.8405890">
        <ele>60.0</ele>
        <time>2019-08-16T09:01:27Z</time>
      </trkpt>
      <trkpt lat="41.7010800" lon="-8.8406190">
        <ele>60.0</ele>
        <time>2019-08-16T09:01:28Z</time>
      </trkpt>
      <trkpt lat="41.7011580" lon="-8.8406690">
        <ele>60.0</ele>
        <time>2019-08-16T09:01:30Z</time>
      </trkpt>
      <trkpt lat="41.7013470" lon="-8.8408000">
        <ele>60.0</ele>
        <time>2019-08-16T09:01:35Z</time>
      </trkpt>
      <trkpt lat="41.7017350" lon="-8.8410690">
        <ele>60.0</ele>
        <time>2019-08-16T09:01:46Z</time>
      </trkpt>
      <trkpt lat="41.7018160" lon="-8.8411220">
        <ele>60.4</ele>
        <time>2019-08-16T09:01:48Z</time>
      </trkpt>
      <trkpt lat="41.7018570" lon="-8.8411500">
        <ele>60.8</ele>
        <time>2019-08-16T09:01:49Z</time>
      </trkpt>
      <trkpt lat="41.7018920" lon="-8.8411790">
        <ele>61.2</ele>
        <time>2019-08-16T09:01:50Z</time>
      </trkpt>
      <trkpt lat="41.7019260" lon="-8.8412080">
        <ele>61.6</ele>
        <time>2019-08-16T09:01:51Z</time>
      </trkpt>
      <trkpt lat="41.7019670" lon="-8.8412340">
        <ele>62.0</ele>
        <time>2019-08-16T09:01:52Z</time>
      </trkpt>
      <trkpt lat="41.7022360" lon="-8.8414430">
        <ele>62.0</ele>
        <time>2019-08-16T09:01:59Z</time>
      </trkpt>
      <trkpt lat="41.7025350" lon="-8.8416290">
        <ele>62.0</ele>
        <time>2019-08-16T09:02:06Z</time>
      </trkpt>
      <trkpt lat="41.7028720" lon="-8.8418520">
        <ele>62.0</ele>
        <time>2019-08-16T09:02:14Z</time>
      </trkpt>
      <trkpt lat="41.7032710" lon="-8.8421630">
        <ele>62.0</ele>
        <time>2019-08-16T09:02:24Z</time>
      </trkpt>
      <trkpt lat="41.7036730" lon="-8.8424930">
        <ele>62.0</ele>
        <time>2019-08-16T09:02:34Z</time>
      </trkpt>
      <trkpt lat="41.7037600" lon="-8.8425390">
        <ele>62.4</ele>
        <time>2019-08-16T09:02:36Z</time>
      </trkpt>
      <trkpt lat="41.7038030" lon="-8.8425640">
        <ele>62.8</ele>
        <time>2019-08-16T09:02:37Z</time>
      </trkpt>
      <trkpt lat="41.7038430" lon="-8.8425930">
        <ele>63.2</ele>
        <time>2019-08-16T09:02:38Z</time>
      </trkpt>
      <trkpt lat="41.7038870" lon="-8.8426200">
        <ele>63.6</ele>
        <time>2019-08-16T09:02:39Z</time>
      </trkpt>
      <trkpt lat="41.7039310" lon="-8.8426430">
        <ele>64.2</ele>
        <time>2019-08-16T09:02:40Z</time>
      </trkpt>
      <trkpt lat="41.7039750" lon="-8.8426610">
        <ele>64.2</ele>
        <time>2019-08-16T09:02:41Z</time>
      </trkpt>
      <trkpt lat="41.7043250" lon="-8.8428320">
        <ele>64.2</ele>
        <time>2019-08-16T09:02:49Z</time>
      </trkpt>
      <trkpt lat="41.7045450" lon="-8.8429640">
        <ele>64.2</ele>
        <time>2019-08-16T09:02:54Z</time>
      </trkpt>
      <trkpt lat="41.7046400" lon="-8.8430180">
        <ele>64.2</ele>
        <time>2019-08-16T09:02:56Z</time>
      </trkpt>
      <trkpt lat="41.7050120" lon="-8.8432910">
        <ele>63.6</ele>
        <time>2019-08-16T09:03:04Z</time>
      </trkpt>
      <trkpt lat="41.7050620" lon="-8.8433220">
        <ele>63.2</ele>
        <time>2019-08-16T09:03:05Z</time>
      </trkpt>
      <trkpt lat="41.7051130" lon="-8.8433490">
        <ele>62.8</ele>
        <time>2019-08-16T09:03:06Z</time>
      </trkpt>
      <trkpt lat="41.7051650" lon="-8.8433750">
        <ele>62.4</ele>
        <time>2019-08-16T09:03:07Z</time>
      </trkpt>
      <trkpt lat="41.7052170" lon="-8.8434050">
        <ele>62.0</ele>
        <time>2019-08-16T09:03:08Z</time>
      </trkpt>
      <trkpt lat="41.7054690" lon="-8.8435570">
        <ele>62.0</ele>
        <time>2019-08-16T09:03:13Z</time>
      </trkpt>
      <trkpt lat="41.7056210" lon="-8.8436590">
        <ele>62.0</ele>
        <time>2019-08-16T09:03:16Z</time>
      </trkpt>
      <trkpt lat="41.7057040" lon="-8.8437330">
        <ele>62.0</ele>
        <time>2019-08-16T09:03:18Z</time>
      </trkpt>
      <trkpt lat="41.7058780" lon="-8.8438610">
        <ele>62.0</ele>
        <time>2019-08-16T09:03:22Z</time>
      </trkpt>
      <trkpt lat="41.7059640" lon="-8.8439050">
        <ele>62.0</ele>
        <time>2019-08-16T09:03:24Z</time>
      </trkpt>
      <trkpt lat="41.7062470" lon="-8.8440400">
        <ele>62.0</ele>
        <time>2019-08-16T09:03:31Z</time>
      </trkpt>
      <trkpt lat="41.7064720" lon="-8.8441290">
        <ele>62.0</ele>
        <time>2019-08-16T09:03:37Z</time>
      </trkpt>
      <trkpt lat="41.7065110" lon="-8.8441330">
        <ele>62.0</ele>
        <time>2019-08-16T09:03:38Z</time>
      </trkpt>
      <trkpt lat="41.7067040" lon="-8.8441620">
        <ele>62.0</ele>
        <time>2019-08-16T09:03:43Z</time>
      </trkpt>
      <trkpt lat="41.7067510" lon="-8.8441790">
        <ele>62.0</ele>
        <time>2019-08-16T09:03:44Z</time>
      </trkpt>
      <trkpt lat="41.7070710" lon="-8.8443290">
        <ele>62.0</ele>
        <time>2019-08-16T09:03:51Z</time>
      </trkpt>
      <trkpt lat="41.7071730" lon="-8.8443460">
        <ele>62.0</ele>
        <time>2019-08-16T09:03:55Z</time>
      </trkpt>
      <trkpt lat="41.7072040" lon="-8.8444220">
        <ele>62.0</ele>
        <time>2019-08-16T09:03:58Z</time>
      </trkpt>
      <trkpt lat="41.7072150" lon="-8.8444610">
        <ele>62.0</ele>
        <time>2019-08-16T09:03:59Z</time>
      </trkpt>
      <trkpt lat="41.7073590" lon="-8.8445790">
        <ele>62.0</ele>
        <time>2019-08-16T09:04:04Z</time>
      </trkpt>
      <trkpt lat="41.7075160" lon="-8.8446630">
        <ele>62.0</ele>
        <time>2019-08-16T09:04:09Z</time>
      </trkpt>
      <trkpt lat="41.7075600" lon="-8.8448370">
        <ele>61.4</ele>
        <time>2019-08-16T09:04:13Z</time>
      </trkpt>
      <trkpt lat="41.7075700" lon="-8.8448900">
        <ele>61.0</ele>
        <time>2019-08-16T09:04:14Z</time>
      </trkpt>
      <trkpt lat="41.7075800" lon="-8.8449440">
        <ele>60.6</ele>
        <time>2019-08-16T09:04:15Z</time>
      </trkpt>
      <trkpt lat="41.7075990" lon="-8.8449890">
        <ele>60.2</ele>
        <time>2019-08-16T09:04:16Z</time>
      </trkpt>
      <trkpt lat="41.7076190" lon="-8.8450170">
        <ele>59.8</ele>
        <time>2019-08-16T09:04:17Z</time>
      </trkpt>
      <trkpt lat="41.7076570" lon="-8.8450570">
        <ele>59.8</ele>
        <time>2019-08-16T09:04:19Z</time>
      </trkpt>
      <trkpt lat="41.7076790" lon="-8.8450750">
        <ele>59.8</ele>
        <time>2019-08-16T09:04:20Z</time>
      </trkpt>
      <trkpt lat="41.7078080" lon="-8.8451000">
        <ele>59.8</ele>
        <time>2019-08-16T09:04:24Z</time>
      </trkpt>
      <trkpt lat="41.7079540" lon="-8.8451730">
        <ele>59.2</ele>
        <time>2019-08-16T09:04:29Z</time>
      </trkpt>
      <trkpt lat="41.7079970" lon="-8.8452040">
        <ele>58.8</ele>
        <time>2019-08-16T09:04:30Z</time>
      </trkpt>
      <trkpt lat="41.7080390" lon="-8.8452330">
        <ele>58.4</ele>
        <time>2019-08-16T09:04:31Z</time>
      </trkpt>
      <trkpt lat="41.7080700" lon="-8.8452710">
        <ele>57.8</ele>
        <time>2019-08-16T09:04:32Z</time>
      </trkpt>
      <trkpt lat="41.7081350" lon="-8.8453000">
        <ele>57.4</ele>
        <time>2019-08-16T09:04:33Z</time>
      </trkpt>
      <trkpt lat="41.7082920" lon="-8.8453650">
        <ele>57.4</ele>
        <time>2019-08-16T09:04:36Z</time>
      </trkpt>
      <trkpt lat="41.7083650" lon="-8.8453860">
        <ele>57.4</ele>
        <time>2019-08-16T09:04:37Z</time>
      </trkpt>
      <trkpt lat="41.7084210" lon="-8.8454160">
        <ele>56.8</ele>
        <time>2019-08-16T09:04:38Z</time>
      </trkpt>
      <trkpt lat="41.7084560" lon="-8.8454710">
        <ele>56.4</ele>
        <time>2019-08-16T09:04:39Z</time>
      </trkpt>
      <trkpt lat="41.7084920" lon="-8.8455270">
        <ele>55.8</ele>
        <time>2019-08-16T09:04:40Z</time>
      </trkpt>
      <trkpt lat="41.7085270" lon="-8.8455700">
        <ele>55.2</ele>
        <time>2019-08-16T09:04:41Z</time>
      </trkpt>
      <trkpt lat="41.7085620" lon="-8.8455980">
        <ele>54.6</ele>
        <time>2019-08-16T09:04:42Z</time>
      </trkpt>
      <trkpt lat="41.7086970" lon="-8.8456020">
        <ele>54.6</ele>
        <time>2019-08-16T09:04:45Z</time>
      </trkpt>
      <trkpt lat="41.7087380" lon="-8.8456050">
        <ele>54.6</ele>
        <time>2019-08-16T09:04:46Z</time>
      </trkpt>
      <trkpt lat="41.7089360" lon="-8.8455980">
        <ele>54.6</ele>
        <time>2019-08-16T09:04:51Z</time>
      </trkpt>
      <trkpt lat="41.7089700" lon="-8.8456110">
        <ele>54.6</ele>
        <time>2019-08-16T09:04:52Z</time>
      </trkpt>
      <trkpt lat="41.7090410" lon="-8.8457260">
        <ele>54.6</ele>
        <time>2019-08-16T09:04:56Z</time>
      </trkpt>
      <trkpt lat="41.7090500" lon="-8.8459270">
        <ele>54.6</ele>
        <time>2019-08-16T09:05:01Z</time>
      </trkpt>
      <trkpt lat="41.7089870" lon="-8.8462130">
        <ele>54.6</ele>
        <time>2019-08-16T09:05:06Z</time>
      </trkpt>
      <trkpt lat="41.7089710" lon="-8.8463110">
        <ele>54.2</ele>
        <time>2019-08-16T09:05:07Z</time>
      </trkpt>
      <trkpt lat="41.7089620" lon="-8.8464070">
        <ele>53.6</ele>
        <time>2019-08-16T09:05:08Z</time>
      </trkpt>
      <trkpt lat="41.7089530" lon="-8.8465100">
        <ele>53.2</ele>
        <time>2019-08-16T09:05:09Z</time>
      </trkpt>
      <trkpt lat="41.7089510" lon="-8.8466070">
        <ele>52.6</ele>
        <time>2019-08-16T09:05:10Z</time>
      </trkpt>
      <trkpt lat="41.7089660" lon="-8.8466940">
        <ele>52.0</ele>
        <time>2019-08-16T09:05:11Z</time>
      </trkpt>
      <trkpt lat="41.7089820" lon="-8.8467770">
        <ele>51.4</ele>
        <time>2019-08-16T09:05:12Z</time>
      </trkpt>
      <trkpt lat="41.7089940" lon="-8.8468560">
        <ele>50.8</ele>
        <time>2019-08-16T09:05:13Z</time>
      </trkpt>
      <trkpt lat="41.7090040" lon="-8.8469190">
        <ele>50.2</ele>
        <time>2019-08-16T09:05:14Z</time>
      </trkpt>
      <trkpt lat="41.7090200" lon="-8.8469790">
        <ele>49.8</ele>
        <time>2019-08-16T09:05:15Z</time>
      </trkpt>
      <trkpt lat="41.7090830" lon="-8.8470120">
        <ele>49.4</ele>
        <time>2019-08-16T09:05:16Z</time>
      </trkpt>
      <trkpt lat="41.7091240" lon="-8.8470490">
        <ele>49.0</ele>
        <time>2019-08-16T09:05:17Z</time>
      </trkpt>
      <trkpt lat="41.7091730" lon="-8.8470770">
        <ele>48.4</ele>
        <time>2019-08-16T09:05:18Z</time>
      </trkpt>
      <trkpt lat="41.7092140" lon="-8.8471010">
        <ele>48.0</ele>
        <time>2019-08-16T09:05:19Z</time>
      </trkpt>
      <trkpt lat="41.7093070" lon="-8.8471610">
        <ele>48.0</ele>
        <time>2019-08-16T09:05:21Z</time>
      </trkpt>
      <trkpt lat="41.7093410" lon="-8.8472090">
        <ele>48.0</ele>
        <time>2019-08-16T09:05:22Z</time>
      </trkpt>
      <trkpt lat="41.7093860" lon="-8.8472490">
        <ele>47.6</ele>
        <time>2019-08-16T09:05:23Z</time>
      </trkpt>
      <trkpt lat="41.7094290" lon="-8.8472800">
        <ele>47.2</ele>
        <time>2019-08-16T09:05:24Z</time>
      </trkpt>
      <trkpt lat="41.7094780" lon="-8.8472980">
        <ele>46.8</ele>
        <time>2019-08-16T09:05:25Z</time>
      </trkpt>
      <trkpt lat="41.7095310" lon="-8.8473110">
        <ele>46.4</ele>
        <time>2019-08-16T09:05:26Z</time>
      </trkpt>
      <trkpt lat="41.7095940" lon="-8.8472890">
        <ele>46.0</ele>
        <time>2019-08-16T09:05:27Z</time>
      </trkpt>
      <trkpt lat="41.7096410" lon="-8.8472270">
        <ele>46.0</ele>
        <time>2019-08-16T09:05:28Z</time>
      </trkpt>
      <trkpt lat="41.7098180" lon="-8.8471210">
        <ele>46.0</ele>
        <time>2019-08-16T09:05:32Z</time>
      </trkpt>
      <trkpt lat="41.7099940" lon="-8.8472980">
        <ele>46.0</ele>
        <time>2019-08-16T09:05:37Z</time>
      </trkpt>
      <trkpt lat="41.7101080" lon="-8.8473290">
        <ele>46.0</ele>
        <time>2019-08-16T09:05:42Z</time>
      </trkpt>
      <trkpt lat="41.7101320" lon="-8.8473170">
        <ele>46.4</ele>
        <time>2019-08-16T09:05:43Z</time>
      </trkpt>
      <trkpt lat="41.7101420" lon="-8.8472970">
        <ele>46.8</ele>
        <time>2019-08-16T09:05:44Z</time>
      </trkpt>
      <trkpt lat="41.7101540" lon="-8.8472790">
        <ele>47.2</ele>
        <time>2019-08-16T09:05:45Z</time>
      </trkpt>
      <trkpt lat="41.7101680" lon="-8.8472630">
        <ele>47.6</ele>
        <time>2019-08-16T09:05:46Z</time>
      </trkpt>
      <trkpt lat="41.7101840" lon="-8.8472440">
        <ele>48.0</ele>
        <time>2019-08-16T09:05:47Z</time>
      </trkpt>
      <trkpt lat="41.7102940" lon="-8.8472330">
        <ele>48.0</ele>
        <time>2019-08-16T09:05:51Z</time>
      </trkpt>
      <trkpt lat="41.7103270" lon="-8.8472480">
        <ele>48.0</ele>
        <time>2019-08-16T09:05:52Z</time>
      </trkpt>
      <trkpt lat="41.7105550" lon="-8.8474620">
        <ele>48.0</ele>
        <time>2019-08-16T09:05:59Z</time>
      </trkpt>
      <trkpt lat="41.7108530" lon="-8.8476530">
        <ele>48.0</ele>
        <time>2019-08-16T09:06:07Z</time>
      </trkpt>
      <trkpt lat="41.7110370" lon="-8.8477360">
        <ele>48.0</ele>
        <time>2019-08-16T09:06:12Z</time>
      </trkpt>
      <trkpt lat="41.7111570" lon="-8.8480230">
        <ele>48.0</ele>
        <time>2019-08-16T09:06:18Z</time>
      </trkpt>
      <trkpt lat="41.7113020" lon="-8.8483370">
        <ele>48.0</ele>
        <time>2019-08-16T09:06:23Z</time>
      </trkpt>
      <trkpt lat="41.7113730" lon="-8.8484160">
        <ele>48.0</ele>
        <time>2019-08-16T09:06:25Z</time>
      </trkpt>
      <trkpt lat="41.7114910" lon="-8.8485230">
        <ele>48.0</ele>
        <time>2019-08-16T09:06:28Z</time>
      </trkpt>
      <trkpt lat="41.7116400" lon="-8.8486020">
        <ele>48.0</ele>
        <time>2019-08-16T09:06:31Z</time>
      </trkpt>
      <trkpt lat="41.7117450" lon="-8.8486130">
        <ele>48.0</ele>
        <time>2019-08-16T09:06:33Z</time>
      </trkpt>
      <trkpt lat="41.7119630" lon="-8.8486950">
        <ele>48.0</ele>
        <time>2019-08-16T09:06:38Z</time>
      </trkpt>
      <trkpt lat="41.7121050" lon="-8.8486500">
        <ele>48.0</ele>
        <time>2019-08-16T09:06:42Z</time>
      </trkpt>
      <trkpt lat="41.7121470" lon="-8.8486070">
        <ele>48.4</ele>
        <time>2019-08-16T09:06:44Z</time>
      </trkpt>
      <trkpt lat="41.7121670" lon="-8.8485890">
        <ele>48.8</ele>
        <time>2019-08-16T09:06:45Z</time>
      </trkpt>
      <trkpt lat="41.7121950" lon="-8.8485650">
        <ele>49.2</ele>
        <time>2019-08-16T09:06:46Z</time>
      </trkpt>
      <trkpt lat="41.7122240" lon="-8.8485440">
        <ele>49.8</ele>
        <time>2019-08-16T09:06:47Z</time>
      </trkpt>
      <trkpt lat="41.7122530" lon="-8.8485240">
        <ele>50.2</ele>
        <time>2019-08-16T09:06:48Z</time>
      </trkpt>
      <trkpt lat="41.7124930" lon="-8.8484000">
        <ele>50.6</ele>
        <time>2019-08-16T09:06:55Z</time>
      </trkpt>
      <trkpt lat="41.7125320" lon="-8.8483900">
        <ele>51.0</ele>
        <time>2019-08-16T09:06:56Z</time>
      </trkpt>
      <trkpt lat="41.7125750" lon="-8.8483850">
        <ele>51.4</ele>
        <time>2019-08-16T09:06:57Z</time>
      </trkpt>
      <trkpt lat="41.7126130" lon="-8.8483830">
        <ele>51.8</ele>
        <time>2019-08-16T09:06:58Z</time>
      </trkpt>
      <trkpt lat="41.7126560" lon="-8.8483810">
        <ele>52.2</ele>
        <time>2019-08-16T09:06:59Z</time>
      </trkpt>
      <trkpt lat="41.7127250" lon="-8.8483900">
        <ele>52.2</ele>
        <time>2019-08-16T09:07:01Z</time>
      </trkpt>
      <trkpt lat="41.7129590" lon="-8.8484890">
        <ele>52.6</ele>
        <time>2019-08-16T09:07:08Z</time>
      </trkpt>
      <trkpt lat="41.7129930" lon="-8.8485060">
        <ele>53.2</ele>
        <time>2019-08-16T09:07:09Z</time>
      </trkpt>
      <trkpt lat="41.7130070" lon="-8.8485430">
        <ele>53.6</ele>
        <time>2019-08-16T09:07:10Z</time>
      </trkpt>
      <trkpt lat="41.7130280" lon="-8.8485770">
        <ele>54.0</ele>
        <time>2019-08-16T09:07:11Z</time>
      </trkpt>
      <trkpt lat="41.7130590" lon="-8.8485980">
        <ele>54.4</ele>
        <time>2019-08-16T09:07:12Z</time>
      </trkpt>
      <trkpt lat="41.7131310" lon="-8.8486430">
        <ele>54.4</ele>
        <time>2019-08-16T09:07:14Z</time>
      </trkpt>
      <trkpt lat="41.7133950" lon="-8.8488020">
        <ele>54.4</ele>
        <time>2019-08-16T09:07:20Z</time>
      </trkpt>
      <trkpt lat="41.7137050" lon="-8.8489730">
        <ele>54.4</ele>
        <time>2019-08-16T09:07:27Z</time>
      </trkpt>
      <trkpt lat="41.7139020" lon="-8.8490580">
        <ele>54.4</ele>
        <time>2019-08-16T09:07:34Z</time>
      </trkpt>
      <trkpt lat="41.7141500" lon="-8.8490440">
        <ele>54.4</ele>
        <time>2019-08-16T09:07:40Z</time>
      </trkpt>
      <trkpt lat="41.7142520" lon="-8.8490360">
        <ele>55.0</ele>
        <time>2019-08-16T09:07:42Z</time>
      </trkpt>
      <trkpt lat="41.7142840" lon="-8.8490410">
        <ele>55.4</ele>
        <time>2019-08-16T09:07:43Z</time>
      </trkpt>
      <trkpt lat="41.7143190" lon="-8.8490390">
        <ele>55.8</ele>
        <time>2019-08-16T09:07:44Z</time>
      </trkpt>
      <trkpt lat="41.7143480" lon="-8.8490420">
        <ele>56.4</ele>
        <time>2019-08-16T09:07:45Z</time>
      </trkpt>
      <trkpt lat="41.7143760" lon="-8.8490460">
        <ele>56.8</ele>
        <time>2019-08-16T09:07:46Z</time>
      </trkpt>
      <trkpt lat="41.7145380" lon="-8.8490650">
        <ele>56.8</ele>
        <time>2019-08-16T09:07:51Z</time>
      </trkpt>
      <trkpt lat="41.7147850" lon="-8.8492480">
        <ele>56.8</ele>
        <time>2019-08-16T09:08:00Z</time>
      </trkpt>
      <trkpt lat="41.7149990" lon="-8.8493890">
        <ele>56.8</ele>
        <time>2019-08-16T09:08:07Z</time>
      </trkpt>
      <trkpt lat="41.7152040" lon="-8.8495330">
        <ele>56.8</ele>
        <time>2019-08-16T09:08:14Z</time>
      </trkpt>
      <trkpt lat="41.7155040" lon="-8.8497160">
        <ele>56.8</ele>
        <time>2019-08-16T09:08:23Z</time>
      </trkpt>
      <trkpt lat="41.7157860" lon="-8.8499110">
        <ele>56.8</ele>
        <time>2019-08-16T09:08:32Z</time>
      </trkpt>
      <trkpt lat="41.7160920" lon="-8.8499730">
        <ele>56.8</ele>
        <time>2019-08-16T09:08:40Z</time>
      </trkpt>
      <trkpt lat="41.7163340" lon="-8.8500680">
        <ele>56.8</ele>
        <time>2019-08-16T09:08:47Z</time>
      </trkpt>
      <trkpt lat="41.7164930" lon="-8.8501620">
        <ele>56.8</ele>
        <time>2019-08-16T09:08:52Z</time>
      </trkpt>
      <trkpt lat="41.7168050" lon="-8.8502150">
        <ele>56.8</ele>
        <time>2019-08-16T09:09:00Z</time>
      </trkpt>
      <trkpt lat="41.7170830" lon="-8.8502960">
        <ele>56.8</ele>
        <time>2019-08-16T09:09:08Z</time>
      </trkpt>
      <trkpt lat="41.7173420" lon="-8.8502020">
        <ele>56.8</ele>
        <time>2019-08-16T09:09:13Z</time>
      </trkpt>
      <trkpt lat="41.7176970" lon="-8.8502190">
        <ele>56.8</ele>
        <time>2019-08-16T09:09:21Z</time>
      </trkpt>
      <trkpt lat="41.7178350" lon="-8.8503860">
        <ele>56.8</ele>
        <time>2019-08-16T09:09:26Z</time>
      </trkpt>
      <trkpt lat="41.7180070" lon="-8.8505610">
        <ele>56.8</ele>
        <time>2019-08-16T09:09:33Z</time>
      </trkpt>
      <trkpt lat="41.7181010" lon="-8.8505990">
        <ele>56.8</ele>
        <time>2019-08-16T09:09:36Z</time>
      </trkpt>
      <trkpt lat="41.7181840" lon="-8.8505630">
        <ele>56.8</ele>
        <time>2019-08-16T09:09:38Z</time>
      </trkpt>
      <trkpt lat="41.7183120" lon="-8.8504220">
        <ele>56.8</ele>
        <time>2019-08-16T09:09:44Z</time>
      </trkpt>
      <trkpt lat="41.7183950" lon="-8.8502380">
        <ele>57.2</ele>
        <time>2019-08-16T09:09:50Z</time>
      </trkpt>
      <trkpt lat="41.7183880" lon="-8.8502210">
        <ele>57.6</ele>
        <time>2019-08-16T09:09:51Z</time>
      </trkpt>
      <trkpt lat="41.7183820" lon="-8.8502170">
        <ele>58.0</ele>
        <time>2019-08-16T09:09:52Z</time>
      </trkpt>
      <trkpt lat="41.7183870" lon="-8.8501960">
        <ele>58.4</ele>
        <time>2019-08-16T09:09:53Z</time>
      </trkpt>
      <trkpt lat="41.7183940" lon="-8.8501780">
        <ele>59.0</ele>
        <time>2019-08-16T09:09:54Z</time>
      </trkpt>
      <trkpt lat="41.7184260" lon="-8.8501010">
        <ele>59.4</ele>
        <time>2019-08-16T09:09:58Z</time>
      </trkpt>
      <trkpt lat="41.7184340" lon="-8.8500830">
        <ele>59.8</ele>
        <time>2019-08-16T09:09:59Z</time>
      </trkpt>
      <trkpt lat="41.7184410" lon="-8.8500580">
        <ele>60.2</ele>
        <time>2019-08-16T09:10:00Z</time>
      </trkpt>
      <trkpt lat="41.7184450" lon="-8.8500340">
        <ele>60.6</ele>
        <time>2019-08-16T09:10:01Z</time>
      </trkpt>
      <trkpt lat="41.7184590" lon="-8.8500110">
        <ele>61.0</ele>
        <time>2019-08-16T09:10:02Z</time>
      </trkpt>
      <trkpt lat="41.7184870" lon="-8.8499780">
        <ele>61.4</ele>
        <time>2019-08-16T09:10:05Z</time>
      </trkpt>
      <trkpt lat="41.7185050" lon="-8.8499720">
        <ele>61.8</ele>
        <time>2019-08-16T09:10:06Z</time>
      </trkpt>
      <trkpt lat="41.7185320" lon="-8.8499840">
        <ele>62.2</ele>
        <time>2019-08-16T09:10:07Z</time>
      </trkpt>
      <trkpt lat="41.7185520" lon="-8.8499890">
        <ele>62.6</ele>
        <time>2019-08-16T09:10:08Z</time>
      </trkpt>
      <trkpt lat="41.7185760" lon="-8.8499940">
        <ele>63.0</ele>
        <time>2019-08-16T09:10:09Z</time>
      </trkpt>
      <trkpt lat="41.7186660" lon="-8.8500070">
        <ele>63.0</ele>
        <time>2019-08-16T09:10:13Z</time>
      </trkpt>
      <trkpt lat="41.7188730" lon="-8.8500140">
        <ele>63.0</ele>
        <time>2019-08-16T09:10:22Z</time>
      </trkpt>
      <trkpt lat="41.7189640" lon="-8.8499960">
        <ele>63.4</ele>
        <time>2019-08-16T09:10:26Z</time>
      </trkpt>
      <trkpt lat="41.7189860" lon="-8.8499920">
        <ele>63.8</ele>
        <time>2019-08-16T09:10:27Z</time>
      </trkpt>
      <trkpt lat="41.7190070" lon="-8.8499900">
        <ele>64.2</ele>
        <time>2019-08-16T09:10:28Z</time>
      </trkpt>
      <trkpt lat="41.7190250" lon="-8.8499880">
        <ele>64.6</ele>
        <time>2019-08-16T09:10:29Z</time>
      </trkpt>
      <trkpt lat="41.7190430" lon="-8.8499780">
        <ele>65.0</ele>
        <time>2019-08-16T09:10:30Z</time>
      </trkpt>
      <trkpt lat="41.7191140" lon="-8.8499470">
        <ele>65.0</ele>
        <time>2019-08-16T09:10:34Z</time>
      </trkpt>
      <trkpt lat="41.7192290" lon="-8.8498850">
        <ele>65.0</ele>
        <time>2019-08-16T09:10:41Z</time>
      </trkpt>
      <trkpt lat="41.7192630" lon="-8.8498470">
        <ele>65.0</ele>
        <time>2019-08-16T09:10:43Z</time>
      </trkpt>
      <trkpt lat="41.7193060" lon="-8.8497890">
        <ele>65.0</ele>
        <time>2019-08-16T09:10:47Z</time>
      </trkpt>
      <trkpt lat="41.7193400" lon="-8.8497660">
        <ele>65.6</ele>
        <time>2019-08-16T09:10:51Z</time>
      </trkpt>
      <trkpt lat="41.7193390" lon="-8.8497620">
        <ele>66.0</ele>
        <time>2019-08-16T09:10:52Z</time>
      </trkpt>
      <trkpt lat="41.7193550" lon="-8.8497620">
        <ele>66.4</ele>
        <time>2019-08-16T09:10:53Z</time>
      </trkpt>
      <trkpt lat="41.7193710" lon="-8.8497610">
        <ele>67.0</ele>
        <time>2019-08-16T09:10:54Z</time>
      </trkpt>
      <trkpt lat="41.7193820" lon="-8.8497630">
        <ele>67.4</ele>
        <time>2019-08-16T09:10:55Z</time>
      </trkpt>
      <trkpt lat="41.7193940" lon="-8.8497680">
        <ele>63.2</ele>
        <time>2019-08-16T09:12:03Z</time>
      </trkpt>
      <trkpt lat="41.7194030" lon="-8.8498130">
        <ele>63.2</ele>
        <time>2019-08-16T09:12:04Z</time>
      </trkpt>
      <trkpt lat="41.7194230" lon="-8.8498670">
        <ele>62.6</ele>
        <time>2019-08-16T09:12:05Z</time>
      </trkpt>
      <trkpt lat="41.7194880" lon="-8.8499410">
        <ele>62.2</ele>
        <time>2019-08-16T09:12:06Z</time>
      </trkpt>
      <trkpt lat="41.7195390" lon="-8.8500110">
        <ele>61.6</ele>
        <time>2019-08-16T09:12:07Z</time>
      </trkpt>
      <trkpt lat="41.7195890" lon="-8.8500820">
        <ele>61.0</ele>
        <time>2019-08-16T09:12:08Z</time>
      </trkpt>
      <trkpt lat="41.7196200" lon="-8.8501870">
        <ele>60.4</ele>
        <time>2019-08-16T09:12:09Z</time>
      </trkpt>
      <trkpt lat="41.7196490" lon="-8.8502670">
        <ele>59.6</ele>
        <time>2019-08-16T09:12:10Z</time>
      </trkpt>
      <trkpt lat="41.7196760" lon="-8.8503380">
        <ele>59.0</ele>
        <time>2019-08-16T09:12:11Z</time>
      </trkpt>
      <trkpt lat="41.7197020" lon="-8.8504060">
        <ele>58.4</ele>
        <time>2019-08-16T09:12:12Z</time>
      </trkpt>
      <trkpt lat="41.7197340" lon="-8.8504760">
        <ele>57.8</ele>
        <time>2019-08-16T09:12:13Z</time>
      </trkpt>
      <trkpt lat="41.7197750" lon="-8.8505160">
        <ele>57.2</ele>
        <time>2019-08-16T09:12:14Z</time>
      </trkpt>
      <trkpt lat="41.7198150" lon="-8.8505410">
        <ele>56.8</ele>
        <time>2019-08-16T09:12:15Z</time>
      </trkpt>
      <trkpt lat="41.7198590" lon="-8.8505540">
        <ele>56.2</ele>
        <time>2019-08-16T09:12:16Z</time>
      </trkpt>
      <trkpt lat="41.7199170" lon="-8.8505560">
        <ele>55.6</ele>
        <time>2019-08-16T09:12:17Z</time>
      </trkpt>
      <trkpt lat="41.7199650" lon="-8.8505590">
        <ele>55.0</ele>
        <time>2019-08-16T09:12:18Z</time>
      </trkpt>
      <trkpt lat="41.7200170" lon="-8.8505370">
        <ele>54.4</ele>
        <time>2019-08-16T09:12:19Z</time>
      </trkpt>
      <trkpt lat="41.7200570" lon="-8.8504920">
        <ele>53.8</ele>
        <time>2019-08-16T09:12:20Z</time>
      </trkpt>
      <trkpt lat="41.7201350" lon="-8.8503870">
        <ele>53.8</ele>
        <time>2019-08-16T09:12:22Z</time>
      </trkpt>
      <trkpt lat="41.7201630" lon="-8.8503520">
        <ele>53.8</ele>
        <time>2019-08-16T09:12:23Z</time>
      </trkpt>
      <trkpt lat="41.7202630" lon="-8.8502660">
        <ele>53.8</ele>
        <time>2019-08-16T09:12:27Z</time>
      </trkpt>
      <trkpt lat="41.7203750" lon="-8.8502070">
        <ele>53.8</ele>
        <time>2019-08-16T09:12:30Z</time>
      </trkpt>
      <trkpt lat="41.7204120" lon="-8.8501990">
        <ele>53.8</ele>
        <time>2019-08-16T09:12:31Z</time>
      </trkpt>
      <trkpt lat="41.7206510" lon="-8.8500980">
        <ele>53.8</ele>
        <time>2019-08-16T09:12:39Z</time>
      </trkpt>
      <trkpt lat="41.7207690" lon="-8.8500670">
        <ele>53.8</ele>
        <time>2019-08-16T09:12:45Z</time>
      </trkpt>
      <trkpt lat="41.7208880" lon="-8.8499200">
        <ele>53.8</ele>
        <time>2019-08-16T09:12:51Z</time>
      </trkpt>
      <trkpt lat="41.7209540" lon="-8.8497100">
        <ele>53.8</ele>
        <time>2019-08-16T09:12:58Z</time>
      </trkpt>
      <trkpt lat="41.7209840" lon="-8.8495910">
        <ele>53.8</ele>
        <time>2019-08-16T09:13:04Z</time>
      </trkpt>
      <trkpt lat="41.7209860" lon="-8.8495710">
        <ele>54.2</ele>
        <time>2019-08-16T09:13:05Z</time>
      </trkpt>
      <trkpt lat="41.7209900" lon="-8.8495530">
        <ele>54.6</ele>
        <time>2019-08-16T09:13:06Z</time>
      </trkpt>
      <trkpt lat="41.7209790" lon="-8.8495470">
        <ele>55.0</ele>
        <time>2019-08-16T09:13:07Z</time>
      </trkpt>
      <trkpt lat="41.7209720" lon="-8.8495350">
        <ele>55.6</ele>
        <time>2019-08-16T09:13:08Z</time>
      </trkpt>
      <trkpt lat="41.7209710" lon="-8.8495200">
        <ele>56.0</ele>
        <time>2019-08-16T09:13:09Z</time>
      </trkpt>
      <trkpt lat="41.7210160" lon="-8.8494020">
        <ele>56.0</ele>
        <time>2019-08-16T09:13:14Z</time>
      </trkpt>
      <trkpt lat="41.7210850" lon="-8.8493270">
        <ele>56.0</ele>
        <time>2019-08-16T09:13:19Z</time>
      </trkpt>
      <trkpt lat="41.7211330" lon="-8.8493190">
        <ele>56.0</ele>
        <time>2019-08-16T09:13:21Z</time>
      </trkpt>
      <trkpt lat="41.7211760" lon="-8.8493110">
        <ele>56.0</ele>
        <time>2019-08-16T09:13:24Z</time>
      </trkpt>
      <trkpt lat="41.7212260" lon="-8.8492900">
        <ele>56.0</ele>
        <time>2019-08-16T09:13:26Z</time>
      </trkpt>
      <trkpt lat="41.7212800" lon="-8.8493120">
        <ele>55.6</ele>
        <time>2019-08-16T09:13:28Z</time>
      </trkpt>
      <trkpt lat="41.7213150" lon="-8.8493270">
        <ele>55.0</ele>
        <time>2019-08-16T09:13:29Z</time>
      </trkpt>
      <trkpt lat="41.7213330" lon="-8.8493570">
        <ele>54.6</ele>
        <time>2019-08-16T09:13:30Z</time>
      </trkpt>
      <trkpt lat="41.7213650" lon="-8.8493830">
        <ele>54.0</ele>
        <time>2019-08-16T09:13:31Z</time>
      </trkpt>
      <trkpt lat="41.7214790" lon="-8.8494010">
        <ele>53.6</ele>
        <time>2019-08-16T09:13:33Z</time>
      </trkpt>
      <trkpt lat="41.7216860" lon="-8.8493830">
        <ele>53.6</ele>
        <time>2019-08-16T09:13:35Z</time>
      </trkpt>
      <trkpt lat="41.7217530" lon="-8.8493730">
        <ele>53.6</ele>
        <time>2019-08-16T09:13:36Z</time>
      </trkpt>
      <trkpt lat="41.7219470" lon="-8.8493330">
        <ele>53.6</ele>
        <time>2019-08-16T09:13:40Z</time>
      </trkpt>
      <trkpt lat="41.7220100" lon="-8.8493740">
        <ele>53.6</ele>
        <time>2019-08-16T09:13:42Z</time>
      </trkpt>
      <trkpt lat="41.7221110" lon="-8.8495140">
        <ele>53.6</ele>
        <time>2019-08-16T09:13:47Z</time>
      </trkpt>
      <trkpt lat="41.7221400" lon="-8.8496550">
        <ele>53.6</ele>
        <time>2019-08-16T09:13:51Z</time>
      </trkpt>
      <trkpt lat="41.7221300" lon="-8.8499420">
        <ele>53.6</ele>
        <time>2019-08-16T09:13:58Z</time>
      </trkpt>
      <trkpt lat="41.7221180" lon="-8.8500900">
        <ele>53.0</ele>
        <time>2019-08-16T09:14:01Z</time>
      </trkpt>
      <trkpt lat="41.7221160" lon="-8.8501390">
        <ele>52.0</ele>
        <time>2019-08-16T09:14:02Z</time>
      </trkpt>
      <trkpt lat="41.7221150" lon="-8.8501830">
        <ele>51.6</ele>
        <time>2019-08-16T09:14:03Z</time>
      </trkpt>
      <trkpt lat="41.7221160" lon="-8.8502280">
        <ele>51.0</ele>
        <time>2019-08-16T09:14:04Z</time>
      </trkpt>
      <trkpt lat="41.7221090" lon="-8.8502700">
        <ele>51.0</ele>
        <time>2019-08-16T09:14:05Z</time>
      </trkpt>
      <trkpt lat="41.7221170" lon="-8.8504530">
        <ele>50.6</ele>
        <time>2019-08-16T09:14:09Z</time>
      </trkpt>
      <trkpt lat="41.7221280" lon="-8.8505130">
        <ele>50.2</ele>
        <time>2019-08-16T09:14:10Z</time>
      </trkpt>
      <trkpt lat="41.7221440" lon="-8.8505740">
        <ele>49.8</ele>
        <time>2019-08-16T09:14:11Z</time>
      </trkpt>
      <trkpt lat="41.7221500" lon="-8.8506410">
        <ele>49.4</ele>
        <time>2019-08-16T09:14:12Z</time>
      </trkpt>
      <trkpt lat="41.7221590" lon="-8.8507060">
        <ele>49.0</ele>
        <time>2019-08-16T09:14:13Z</time>
      </trkpt>
      <trkpt lat="41.7221470" lon="-8.8510920">
        <ele>49.0</ele>
        <time>2019-08-16T09:14:19Z</time>
      </trkpt>
      <trkpt lat="41.7220940" lon="-8.8512630">
        <ele>49.0</ele>
        <time>2019-08-16T09:14:23Z</time>
      </trkpt>
      <trkpt lat="41.7220450" lon="-8.8516000">
        <ele>49.0</ele>
        <time>2019-08-16T09:14:30Z</time>
      </trkpt>
      <trkpt lat="41.7219920" lon="-8.8519050">
        <ele>49.0</ele>
        <time>2019-08-16T09:14:36Z</time>
      </trkpt>
      <trkpt lat="41.7218750" lon="-8.8522890">
        <ele>49.0</ele>
        <time>2019-08-16T09:14:44Z</time>
      </trkpt>
      <trkpt lat="41.7218470" lon="-8.8524150">
        <ele>48.6</ele>
        <time>2019-08-16T09:14:47Z</time>
      </trkpt>
      <trkpt lat="41.7218460" lon="-8.8524460">
        <ele>48.2</ele>
        <time>2019-08-16T09:14:48Z</time>
      </trkpt>
      <trkpt lat="41.7218460" lon="-8.8524870">
        <ele>47.8</ele>
        <time>2019-08-16T09:14:49Z</time>
      </trkpt>
      <trkpt lat="41.7218560" lon="-8.8525270">
        <ele>47.4</ele>
        <time>2019-08-16T09:14:50Z</time>
      </trkpt>
      <trkpt lat="41.7218940" lon="-8.8525270">
        <ele>47.0</ele>
        <time>2019-08-16T09:14:51Z</time>
      </trkpt>
      <trkpt lat="41.7219170" lon="-8.8525320">
        <ele>47.0</ele>
        <time>2019-08-16T09:14:52Z</time>
      </trkpt>
      <trkpt lat="41.7220010" lon="-8.8525430">
        <ele>47.4</ele>
        <time>2019-08-16T09:14:55Z</time>
      </trkpt>
      <trkpt lat="41.7220250" lon="-8.8525560">
        <ele>48.0</ele>
        <time>2019-08-16T09:14:56Z</time>
      </trkpt>
      <trkpt lat="41.7220550" lon="-8.8525690">
        <ele>48.4</ele>
        <time>2019-08-16T09:14:57Z</time>
      </trkpt>
      <trkpt lat="41.7220850" lon="-8.8525760">
        <ele>48.8</ele>
        <time>2019-08-16T09:14:58Z</time>
      </trkpt>
      <trkpt lat="41.7221340" lon="-8.8525890">
        <ele>49.2</ele>
        <time>2019-08-16T09:14:59Z</time>
      </trkpt>
      <trkpt lat="41.7222850" lon="-8.8526230">
        <ele>49.2</ele>
        <time>2019-08-16T09:15:03Z</time>
      </trkpt>
      <trkpt lat="41.7223150" lon="-8.8526390">
        <ele>49.6</ele>
        <time>2019-08-16T09:15:04Z</time>
      </trkpt>
      <trkpt lat="41.7223460" lon="-8.8526560">
        <ele>50.0</ele>
        <time>2019-08-16T09:15:05Z</time>
      </trkpt>
      <trkpt lat="41.7223770" lon="-8.8526750">
        <ele>50.4</ele>
        <time>2019-08-16T09:15:06Z</time>
      </trkpt>
      <trkpt lat="41.7224060" lon="-8.8526920">
        <ele>51.0</ele>
        <time>2019-08-16T09:15:07Z</time>
      </trkpt>
      <trkpt lat="41.7224330" lon="-8.8527050">
        <ele>51.4</ele>
        <time>2019-08-16T09:15:08Z</time>
      </trkpt>
      <trkpt lat="41.7225460" lon="-8.8527880">
        <ele>51.4</ele>
        <time>2019-08-16T09:15:12Z</time>
      </trkpt>
      <trkpt lat="41.7227740" lon="-8.8528840">
        <ele>51.4</ele>
        <time>2019-08-16T09:15:19Z</time>
      </trkpt>
      <trkpt lat="41.7229400" lon="-8.8527900">
        <ele>51.4</ele>
        <time>2019-08-16T09:15:24Z</time>
      </trkpt>
      <trkpt lat="41.7229970" lon="-8.8527650">
        <ele>51.8</ele>
        <time>2019-08-16T09:15:26Z</time>
      </trkpt>
      <trkpt lat="41.7230390" lon="-8.8527660">
        <ele>52.2</ele>
        <time>2019-08-16T09:15:27Z</time>
      </trkpt>
      <trkpt lat="41.7230720" lon="-8.8527800">
        <ele>52.6</ele>
        <time>2019-08-16T09:15:28Z</time>
      </trkpt>
      <trkpt lat="41.7231050" lon="-8.8527960">
        <ele>53.0</ele>
        <time>2019-08-16T09:15:29Z</time>
      </trkpt>
      <trkpt lat="41.7231340" lon="-8.8528200">
        <ele>53.6</ele>
        <time>2019-08-16T09:15:30Z</time>
      </trkpt>
      <trkpt lat="41.7232980" lon="-8.8529630">
        <ele>53.6</ele>
        <time>2019-08-16T09:15:36Z</time>
      </trkpt>
      <trkpt lat="41.7235850" lon="-8.8531650">
        <ele>53.6</ele>
        <time>2019-08-16T09:15:44Z</time>
      </trkpt>
      <trkpt lat="41.7239080" lon="-8.8533710">
        <ele>53.6</ele>
        <time>2019-08-16T09:15:52Z</time>
      </trkpt>
      <trkpt lat="41.7241910" lon="-8.8533990">
        <ele>53.6</ele>
        <time>2019-08-16T09:15:58Z</time>
      </trkpt>
      <trkpt lat="41.7245450" lon="-8.8534690">
        <ele>53.6</ele>
        <time>2019-08-16T09:16:06Z</time>
      </trkpt>
      <trkpt lat="41.7248720" lon="-8.8535340">
        <ele>53.6</ele>
        <time>2019-08-16T09:16:14Z</time>
      </trkpt>
      <trkpt lat="41.7249860" lon="-8.8535810">
        <ele>53.6</ele>
        <time>2019-08-16T09:16:17Z</time>
      </trkpt>
      <trkpt lat="41.7252870" lon="-8.8537680">
        <ele>53.6</ele>
        <time>2019-08-16T09:16:26Z</time>
      </trkpt>
      <trkpt lat="41.7254370" lon="-8.8538510">
        <ele>54.0</ele>
        <time>2019-08-16T09:16:31Z</time>
      </trkpt>
      <trkpt lat="41.7254730" lon="-8.8538740">
        <ele>54.4</ele>
        <time>2019-08-16T09:16:32Z</time>
      </trkpt>
      <trkpt lat="41.7255040" lon="-8.8538880">
        <ele>54.8</ele>
        <time>2019-08-16T09:16:33Z</time>
      </trkpt>
      <trkpt lat="41.7255360" lon="-8.8539050">
        <ele>55.2</ele>
        <time>2019-08-16T09:16:34Z</time>
      </trkpt>
      <trkpt lat="41.7255660" lon="-8.8539250">
        <ele>55.6</ele>
        <time>2019-08-16T09:16:35Z</time>
      </trkpt>
      <trkpt lat="41.7256280" lon="-8.8539740">
        <ele>55.6</ele>
        <time>2019-08-16T09:16:37Z</time>
      </trkpt>
      <trkpt lat="41.7259290" lon="-8.8542550">
        <ele>55.6</ele>
        <time>2019-08-16T09:16:47Z</time>
      </trkpt>
      <trkpt lat="41.7261710" lon="-8.8544040">
        <ele>55.6</ele>
        <time>2019-08-16T09:16:54Z</time>
      </trkpt>
      <trkpt lat="41.7264580" lon="-8.8545170">
        <ele>55.6</ele>
        <time>2019-08-16T09:17:01Z</time>
      </trkpt>
      <trkpt lat="41.7267340" lon="-8.8546700">
        <ele>55.6</ele>
        <time>2019-08-16T09:17:08Z</time>
      </trkpt>
      <trkpt lat="41.7270650" lon="-8.8548200">
        <ele>55.6</ele>
        <time>2019-08-16T09:17:17Z</time>
      </trkpt>
      <trkpt lat="41.7273330" lon="-8.8549520">
        <ele>55.6</ele>
        <time>2019-08-16T09:17:25Z</time>
      </trkpt>
      <trkpt lat="41.7275090" lon="-8.8549960">
        <ele>55.6</ele>
        <time>2019-08-16T09:17:30Z</time>
      </trkpt>
      <trkpt lat="41.7277960" lon="-8.8549720">
        <ele>55.6</ele>
        <time>2019-08-16T09:17:37Z</time>
      </trkpt>
      <trkpt lat="41.7279320" lon="-8.8549450">
        <ele>56.2</ele>
        <time>2019-08-16T09:17:41Z</time>
      </trkpt>
      <trkpt lat="41.7279660" lon="-8.8549370">
        <ele>56.6</ele>
        <time>2019-08-16T09:17:42Z</time>
      </trkpt>
      <trkpt lat="41.7279970" lon="-8.8549300">
        <ele>57.0</ele>
        <time>2019-08-16T09:17:43Z</time>
      </trkpt>
      <trkpt lat="41.7280220" lon="-8.8549180">
        <ele>57.6</ele>
        <time>2019-08-16T09:17:44Z</time>
      </trkpt>
      <trkpt lat="41.7280490" lon="-8.8548970">
        <ele>58.0</ele>
        <time>2019-08-16T09:17:45Z</time>
      </trkpt>
      <trkpt lat="41.7281050" lon="-8.8548690">
        <ele>58.4</ele>
        <time>2019-08-16T09:17:47Z</time>
      </trkpt>
      <trkpt lat="41.7281370" lon="-8.8548570">
        <ele>58.8</ele>
        <time>2019-08-16T09:17:48Z</time>
      </trkpt>
      <trkpt lat="41.7281700" lon="-8.8548460">
        <ele>59.2</ele>
        <time>2019-08-16T09:17:49Z</time>
      </trkpt>
      <trkpt lat="41.7282060" lon="-8.8548320">
        <ele>59.6</ele>
        <time>2019-08-16T09:17:50Z</time>
      </trkpt>
      <trkpt lat="41.7282400" lon="-8.8548180">
        <ele>60.0</ele>
        <time>2019-08-16T09:17:51Z</time>
      </trkpt>
      <trkpt lat="41.7284050" lon="-8.8547560">
        <ele>60.0</ele>
        <time>2019-08-16T09:17:56Z</time>
      </trkpt>
      <trkpt lat="41.7285870" lon="-8.8547360">
        <ele>60.0</ele>
        <time>2019-08-16T09:18:02Z</time>
      </trkpt>
      <trkpt lat="41.7288500" lon="-8.8547200">
        <ele>60.0</ele>
        <time>2019-08-16T09:18:09Z</time>
      </trkpt>
      <trkpt lat="41.7290950" lon="-8.8546590">
        <ele>60.4</ele>
        <time>2019-08-16T09:18:16Z</time>
      </trkpt>
      <trkpt lat="41.7291300" lon="-8.8546540">
        <ele>60.8</ele>
        <time>2019-08-16T09:18:17Z</time>
      </trkpt>
      <trkpt lat="41.7291620" lon="-8.8546480">
        <ele>61.2</ele>
        <time>2019-08-16T09:18:18Z</time>
      </trkpt>
      <trkpt lat="41.7291970" lon="-8.8546380">
        <ele>61.8</ele>
        <time>2019-08-16T09:18:19Z</time>
      </trkpt>
      <trkpt lat="41.7292320" lon="-8.8546290">
        <ele>62.2</ele>
        <time>2019-08-16T09:18:20Z</time>
      </trkpt>
      <trkpt lat="41.7294290" lon="-8.8546030">
        <ele>62.2</ele>
        <time>2019-08-16T09:18:26Z</time>
      </trkpt>
      <trkpt lat="41.7295940" lon="-8.8546310">
        <ele>62.2</ele>
        <time>2019-08-16T09:18:32Z</time>
      </trkpt>
      <trkpt lat="41.7295960" lon="-8.8546340">
        <ele>62.2</ele>
        <time>2019-08-16T09:18:33Z</time>
      </trkpt>
      <trkpt lat="41.7296020" lon="-8.8546470">
        <ele>62.2</ele>
        <time>2019-08-16T09:19:27Z</time>
      </trkpt>
      <trkpt lat="41.7296110" lon="-8.8546510">
        <ele>62.2</ele>
        <time>2019-08-16T09:19:28Z</time>
      </trkpt>
      <trkpt lat="41.7297540" lon="-8.8546870">
        <ele>62.2</ele>
        <time>2019-08-16T09:19:33Z</time>
      </trkpt>
      <trkpt lat="41.7299750" lon="-8.8548270">
        <ele>61.6</ele>
        <time>2019-08-16T09:19:40Z</time>
      </trkpt>
      <trkpt lat="41.7300100" lon="-8.8548700">
        <ele>61.2</ele>
        <time>2019-08-16T09:19:41Z</time>
      </trkpt>
      <trkpt lat="41.7300500" lon="-8.8549180">
        <ele>60.8</ele>
        <time>2019-08-16T09:19:42Z</time>
      </trkpt>
      <trkpt lat="41.7300910" lon="-8.8549650">
        <ele>60.4</ele>
        <time>2019-08-16T09:19:43Z</time>
      </trkpt>
      <trkpt lat="41.7301370" lon="-8.8550050">
        <ele>59.8</ele>
        <time>2019-08-16T09:19:44Z</time>
      </trkpt>
      <trkpt lat="41.7301910" lon="-8.8550370">
        <ele>59.4</ele>
        <time>2019-08-16T09:19:45Z</time>
      </trkpt>
      <trkpt lat="41.7302610" lon="-8.8550590">
        <ele>59.0</ele>
        <time>2019-08-16T09:19:46Z</time>
      </trkpt>
      <trkpt lat="41.7303130" lon="-8.8550690">
        <ele>58.6</ele>
        <time>2019-08-16T09:19:47Z</time>
      </trkpt>
      <trkpt lat="41.7303690" lon="-8.8550690">
        <ele>58.2</ele>
        <time>2019-08-16T09:19:48Z</time>
      </trkpt>
      <trkpt lat="41.7304240" lon="-8.8550800">
        <ele>57.8</ele>
        <time>2019-08-16T09:19:49Z</time>
      </trkpt>
      <trkpt lat="41.7304600" lon="-8.8550960">
        <ele>57.8</ele>
        <time>2019-08-16T09:19:50Z</time>
      </trkpt>
      <trkpt lat="41.7305140" lon="-8.8551470">
        <ele>57.8</ele>
        <time>2019-08-16T09:19:52Z</time>
      </trkpt>
      <trkpt lat="41.7306440" lon="-8.8552510">
        <ele>57.8</ele>
        <time>2019-08-16T09:19:58Z</time>
      </trkpt>
      <trkpt lat="41.7307970" lon="-8.8553420">
        <ele>57.8</ele>
        <time>2019-08-16T09:20:05Z</time>
      </trkpt>
      <trkpt lat="41.7309140" lon="-8.8553860">
        <ele>57.2</ele>
        <time>2019-08-16T09:20:09Z</time>
      </trkpt>
      <trkpt lat="41.7309630" lon="-8.8554060">
        <ele>56.6</ele>
        <time>2019-08-16T09:20:10Z</time>
      </trkpt>
      <trkpt lat="41.7310020" lon="-8.8554450">
        <ele>56.0</ele>
        <time>2019-08-16T09:20:11Z</time>
      </trkpt>
      <trkpt lat="41.7310420" lon="-8.8554740">
        <ele>55.6</ele>
        <time>2019-08-16T09:20:12Z</time>
      </trkpt>
      <trkpt lat="41.7310690" lon="-8.8555160">
        <ele>55.0</ele>
        <time>2019-08-16T09:20:13Z</time>
      </trkpt>
      <trkpt lat="41.7310820" lon="-8.8555850">
        <ele>54.6</ele>
        <time>2019-08-16T09:20:14Z</time>
      </trkpt>
      <trkpt lat="41.7310910" lon="-8.8556390">
        <ele>54.2</ele>
        <time>2019-08-16T09:20:15Z</time>
      </trkpt>
      <trkpt lat="41.7310870" lon="-8.8556940">
        <ele>53.8</ele>
        <time>2019-08-16T09:20:16Z</time>
      </trkpt>
      <trkpt lat="41.7310860" lon="-8.8557460">
        <ele>53.2</ele>
        <time>2019-08-16T09:20:17Z</time>
      </trkpt>
      <trkpt lat="41.7310780" lon="-8.8558000">
        <ele>52.8</ele>
        <time>2019-08-16T09:20:18Z</time>
      </trkpt>
      <trkpt lat="41.7311180" lon="-8.8558400">
        <ele>52.8</ele>
        <time>2019-08-16T09:20:19Z</time>
      </trkpt>
      <trkpt lat="41.7311580" lon="-8.8559730">
        <ele>52.4</ele>
        <time>2019-08-16T09:20:21Z</time>
      </trkpt>
      <trkpt lat="41.7311760" lon="-8.8560090">
        <ele>52.0</ele>
        <time>2019-08-16T09:20:22Z</time>
      </trkpt>
      <trkpt lat="41.7312280" lon="-8.8560170">
        <ele>51.6</ele>
        <time>2019-08-16T09:20:23Z</time>
      </trkpt>
      <trkpt lat="41.7313020" lon="-8.8560170">
        <ele>51.2</ele>
        <time>2019-08-16T09:20:24Z</time>
      </trkpt>
      <trkpt lat="41.7313500" lon="-8.8560490">
        <ele>50.6</ele>
        <time>2019-08-16T09:20:25Z</time>
      </trkpt>
      <trkpt lat="41.7313910" lon="-8.8562070">
        <ele>50.2</ele>
        <time>2019-08-16T09:20:28Z</time>
      </trkpt>
      <trkpt lat="41.7313850" lon="-8.8562890">
        <ele>49.8</ele>
        <time>2019-08-16T09:20:29Z</time>
      </trkpt>
      <trkpt lat="41.7313680" lon="-8.8563880">
        <ele>49.4</ele>
        <time>2019-08-16T09:20:30Z</time>
      </trkpt>
      <trkpt lat="41.7313440" lon="-8.8564870">
        <ele>49.0</ele>
        <time>2019-08-16T09:20:31Z</time>
      </trkpt>
      <trkpt lat="41.7313240" lon="-8.8565800">
        <ele>48.4</ele>
        <time>2019-08-16T09:20:32Z</time>
      </trkpt>
      <trkpt lat="41.7312890" lon="-8.8568260">
        <ele>48.4</ele>
        <time>2019-08-16T09:20:35Z</time>
      </trkpt>
      <trkpt lat="41.7313210" lon="-8.8569640">
        <ele>48.4</ele>
        <time>2019-08-16T09:20:37Z</time>
      </trkpt>
      <trkpt lat="41.7314280" lon="-8.8571030">
        <ele>48.4</ele>
        <time>2019-08-16T09:20:41Z</time>
      </trkpt>
      <trkpt lat="41.7315210" lon="-8.8571230">
        <ele>48.8</ele>
        <time>2019-08-16T09:20:44Z</time>
      </trkpt>
      <trkpt lat="41.7315460" lon="-8.8571300">
        <ele>49.4</ele>
        <time>2019-08-16T09:20:45Z</time>
      </trkpt>
      <trkpt lat="41.7315810" lon="-8.8571180">
        <ele>49.8</ele>
        <time>2019-08-16T09:20:46Z</time>
      </trkpt>
      <trkpt lat="41.7316080" lon="-8.8571140">
        <ele>50.2</ele>
        <time>2019-08-16T09:20:47Z</time>
      </trkpt>
      <trkpt lat="41.7316370" lon="-8.8571050">
        <ele>50.6</ele>
        <time>2019-08-16T09:20:48Z</time>
      </trkpt>
      <trkpt lat="41.7316960" lon="-8.8570840">
        <ele>50.6</ele>
        <time>2019-08-16T09:20:50Z</time>
      </trkpt>
      <trkpt lat="41.7317530" lon="-8.8570730">
        <ele>50.6</ele>
        <time>2019-08-16T09:20:52Z</time>
      </trkpt>
      <trkpt lat="41.7318830" lon="-8.8571320">
        <ele>50.6</ele>
        <time>2019-08-16T09:20:57Z</time>
      </trkpt>
      <trkpt lat="41.7320450" lon="-8.8572760">
        <ele>50.6</ele>
        <time>2019-08-16T09:21:04Z</time>
      </trkpt>
      <trkpt lat="41.7321740" lon="-8.8572330">
        <ele>50.6</ele>
        <time>2019-08-16T09:21:09Z</time>
      </trkpt>
      <trkpt lat="41.7323350" lon="-8.8571830">
        <ele>50.6</ele>
        <time>2019-08-16T09:21:16Z</time>
      </trkpt>
      <trkpt lat="41.7324020" lon="-8.8571830">
        <ele>51.0</ele>
        <time>2019-08-16T09:21:19Z</time>
      </trkpt>
      <trkpt lat="41.7324260" lon="-8.8571860">
        <ele>51.4</ele>
        <time>2019-08-16T09:21:20Z</time>
      </trkpt>
      <trkpt lat="41.7324490" lon="-8.8571890">
        <ele>51.8</ele>
        <time>2019-08-16T09:21:21Z</time>
      </trkpt>
      <trkpt lat="41.7324780" lon="-8.8571950">
        <ele>52.2</ele>
        <time>2019-08-16T09:21:22Z</time>
      </trkpt>
      <trkpt lat="41.7325000" lon="-8.8572070">
        <ele>52.6</ele>
        <time>2019-08-16T09:21:23Z</time>
      </trkpt>
      <trkpt lat="41.7326560" lon="-8.8573290">
        <ele>52.6</ele>
        <time>2019-08-16T09:21:30Z</time>
      </trkpt>
      <trkpt lat="41.7328650" lon="-8.8573860">
        <ele>52.6</ele>
        <time>2019-08-16T09:21:38Z</time>
      </trkpt>
      <trkpt lat="41.7328940" lon="-8.8573890">
        <ele>52.6</ele>
        <time>2019-08-16T09:21:39Z</time>
      </trkpt>
      <trkpt lat="41.7330960" lon="-8.8574290">
        <ele>52.6</ele>
        <time>2019-08-16T09:21:46Z</time>
      </trkpt>
      <trkpt lat="41.7333100" lon="-8.8574410">
        <ele>52.6</ele>
        <time>2019-08-16T09:21:52Z</time>
      </trkpt>
      <trkpt lat="41.7336430" lon="-8.8574960">
        <ele>52.6</ele>
        <time>2019-08-16T09:22:01Z</time>
      </trkpt>
      <trkpt lat="41.7339060" lon="-8.8574840">
        <ele>52.6</ele>
        <time>2019-08-16T09:22:08Z</time>
      </trkpt>
      <trkpt lat="41.7341130" lon="-8.8575360">
        <ele>52.6</ele>
        <time>2019-08-16T09:22:15Z</time>
      </trkpt>
      <trkpt lat="41.7342790" lon="-8.8576140">
        <ele>52.6</ele>
        <time>2019-08-16T09:22:22Z</time>
      </trkpt>
      <trkpt lat="41.7345170" lon="-8.8576670">
        <ele>52.6</ele>
        <time>2019-08-16T09:22:29Z</time>
      </trkpt>
      <trkpt lat="41.7346630" lon="-8.8576830">
        <ele>52.6</ele>
        <time>2019-08-16T09:22:32Z</time>
      </trkpt>
      <trkpt lat="41.7347270" lon="-8.8576450">
        <ele>52.6</ele>
        <time>2019-08-16T09:22:34Z</time>
      </trkpt>
      <trkpt lat="41.7348050" lon="-8.8575660">
        <ele>52.6</ele>
        <time>2019-08-16T09:22:39Z</time>
      </trkpt>
      <trkpt lat="41.7349470" lon="-8.8574780">
        <ele>52.6</ele>
        <time>2019-08-16T09:22:47Z</time>
      </trkpt>
      <trkpt lat="41.7349630" lon="-8.8574630">
        <ele>53.0</ele>
        <time>2019-08-16T09:22:48Z</time>
      </trkpt>
      <trkpt lat="41.7349790" lon="-8.8574490">
        <ele>53.6</ele>
        <time>2019-08-16T09:22:49Z</time>
      </trkpt>
      <trkpt lat="41.7349940" lon="-8.8574310">
        <ele>54.0</ele>
        <time>2019-08-16T09:22:50Z</time>
      </trkpt>
      <trkpt lat="41.7350090" lon="-8.8574140">
        <ele>54.4</ele>
        <time>2019-08-16T09:22:51Z</time>
      </trkpt>
      <trkpt lat="41.7350290" lon="-8.8573990">
        <ele>54.8</ele>
        <time>2019-08-16T09:22:52Z</time>
      </trkpt>
      <trkpt lat="41.7350690" lon="-8.8573900">
        <ele>54.8</ele>
        <time>2019-08-16T09:22:54Z</time>
      </trkpt>
      <trkpt lat="41.7350900" lon="-8.8573970">
        <ele>54.8</ele>
        <time>2019-08-16T09:22:55Z</time>
      </trkpt>
      <trkpt lat="41.7352590" lon="-8.8574450">
        <ele>54.8</ele>
        <time>2019-08-16T09:23:03Z</time>
      </trkpt>
      <trkpt lat="41.7354250" lon="-8.8574820">
        <ele>54.8</ele>
        <time>2019-08-16T09:23:11Z</time>
      </trkpt>
      <trkpt lat="41.7356060" lon="-8.8575050">
        <ele>54.8</ele>
        <time>2019-08-16T09:23:17Z</time>
      </trkpt>
      <trkpt lat="41.7357540" lon="-8.8574980">
        <ele>55.2</ele>
        <time>2019-08-16T09:23:21Z</time>
      </trkpt>
      <trkpt lat="41.7357830" lon="-8.8575000">
        <ele>55.8</ele>
        <time>2019-08-16T09:23:22Z</time>
      </trkpt>
      <trkpt lat="41.7358140" lon="-8.8575080">
        <ele>56.2</ele>
        <time>2019-08-16T09:23:23Z</time>
      </trkpt>
      <trkpt lat="41.7358460" lon="-8.8575140">
        <ele>56.6</ele>
        <time>2019-08-16T09:23:24Z</time>
      </trkpt>
      <trkpt lat="41.7358890" lon="-8.8575120">
        <ele>57.0</ele>
        <time>2019-08-16T09:23:25Z</time>
      </trkpt>
      <trkpt lat="41.7360020" lon="-8.8575270">
        <ele>57.0</ele>
        <time>2019-08-16T09:23:28Z</time>
      </trkpt>
      <trkpt lat="41.7361840" lon="-8.8576120">
        <ele>57.0</ele>
        <time>2019-08-16T09:23:34Z</time>
      </trkpt>
      <trkpt lat="41.7364010" lon="-8.8576670">
        <ele>57.0</ele>
        <time>2019-08-16T09:23:41Z</time>
      </trkpt>
      <trkpt lat="41.7364830" lon="-8.8576800">
        <ele>57.4</ele>
        <time>2019-08-16T09:23:44Z</time>
      </trkpt>
      <trkpt lat="41.7365080" lon="-8.8576800">
        <ele>57.8</ele>
        <time>2019-08-16T09:23:45Z</time>
      </trkpt>
      <trkpt lat="41.7365360" lon="-8.8576800">
        <ele>58.2</ele>
        <time>2019-08-16T09:23:46Z</time>
      </trkpt>
      <trkpt lat="41.7365710" lon="-8.8576870">
        <ele>58.6</ele>
        <time>2019-08-16T09:23:47Z</time>
      </trkpt>
      <trkpt lat="41.7365990" lon="-8.8576870">
        <ele>59.0</ele>
        <time>2019-08-16T09:23:48Z</time>
      </trkpt>
      <trkpt lat="41.7366290" lon="-8.8576870">
        <ele>59.0</ele>
        <time>2019-08-16T09:23:49Z</time>
      </trkpt>
      <trkpt lat="41.7366970" lon="-8.8576900">
        <ele>59.0</ele>
        <time>2019-08-16T09:23:54Z</time>
      </trkpt>
      <trkpt lat="41.7366970" lon="-8.8576930">
        <ele>59.0</ele>
        <time>2019-08-16T09:23:55Z</time>
      </trkpt>
      <trkpt lat="41.7367010" lon="-8.8576900">
        <ele>59.0</ele>
        <time>2019-08-16T09:24:49Z</time>
      </trkpt>
      <trkpt lat="41.7367330" lon="-8.8576940">
        <ele>59.0</ele>
        <time>2019-08-16T09:24:51Z</time>
      </trkpt>
      <trkpt lat="41.7369370" lon="-8.8577680">
        <ele>58.6</ele>
        <time>2019-08-16T09:24:57Z</time>
      </trkpt>
      <trkpt lat="41.7369730" lon="-8.8577860">
        <ele>58.2</ele>
        <time>2019-08-16T09:24:58Z</time>
      </trkpt>
      <trkpt lat="41.7370050" lon="-8.8578070">
        <ele>57.8</ele>
        <time>2019-08-16T09:24:59Z</time>
      </trkpt>
      <trkpt lat="41.7370380" lon="-8.8578280">
        <ele>57.4</ele>
        <time>2019-08-16T09:25:00Z</time>
      </trkpt>
      <trkpt lat="41.7370670" lon="-8.8578540">
        <ele>57.0</ele>
        <time>2019-08-16T09:25:01Z</time>
      </trkpt>
      <trkpt lat="41.7370960" lon="-8.8579200">
        <ele>57.0</ele>
        <time>2019-08-16T09:25:03Z</time>
      </trkpt>
      <trkpt lat="41.7371170" lon="-8.8580890">
        <ele>57.0</ele>
        <time>2019-08-16T09:25:06Z</time>
      </trkpt>
      <trkpt lat="41.7371130" lon="-8.8581620">
        <ele>56.4</ele>
        <time>2019-08-16T09:25:07Z</time>
      </trkpt>
      <trkpt lat="41.7371270" lon="-8.8582790">
        <ele>56.0</ele>
        <time>2019-08-16T09:25:09Z</time>
      </trkpt>
      <trkpt lat="41.7371370" lon="-8.8583290">
        <ele>55.0</ele>
        <time>2019-08-16T09:25:10Z</time>
      </trkpt>
      <trkpt lat="41.7371450" lon="-8.8583760">
        <ele>54.6</ele>
        <time>2019-08-16T09:25:11Z</time>
      </trkpt>
      <trkpt lat="41.7371640" lon="-8.8584510">
        <ele>54.6</ele>
        <time>2019-08-16T09:25:13Z</time>
      </trkpt>
      <trkpt lat="41.7372110" lon="-8.8586030">
        <ele>53.8</ele>
        <time>2019-08-16T09:25:16Z</time>
      </trkpt>
      <trkpt lat="41.7372380" lon="-8.8586650">
        <ele>53.4</ele>
        <time>2019-08-16T09:25:17Z</time>
      </trkpt>
      <trkpt lat="41.7372720" lon="-8.8587160">
        <ele>53.4</ele>
        <time>2019-08-16T09:25:18Z</time>
      </trkpt>
      <trkpt lat="41.7373080" lon="-8.8587640">
        <ele>52.8</ele>
        <time>2019-08-16T09:25:19Z</time>
      </trkpt>
      <trkpt lat="41.7373360" lon="-8.8588160">
        <ele>52.4</ele>
        <time>2019-08-16T09:25:20Z</time>
      </trkpt>
      <trkpt lat="41.7374780" lon="-8.8589780">
        <ele>52.4</ele>
        <time>2019-08-16T09:25:24Z</time>
      </trkpt>
      <trkpt lat="41.7375140" lon="-8.8590090">
        <ele>52.0</ele>
        <time>2019-08-16T09:25:25Z</time>
      </trkpt>
      <trkpt lat="41.7375580" lon="-8.8590260">
        <ele>52.0</ele>
        <time>2019-08-16T09:25:26Z</time>
      </trkpt>
      <trkpt lat="41.7375960" lon="-8.8590610">
        <ele>51.2</ele>
        <time>2019-08-16T09:25:27Z</time>
      </trkpt>
      <trkpt lat="41.7376380" lon="-8.8590870">
        <ele>50.8</ele>
        <time>2019-08-16T09:25:28Z</time>
      </trkpt>
      <trkpt lat="41.7376700" lon="-8.8591220">
        <ele>50.4</ele>
        <time>2019-08-16T09:25:29Z</time>
      </trkpt>
      <trkpt lat="41.7377280" lon="-8.8591880">
        <ele>50.0</ele>
        <time>2019-08-16T09:25:31Z</time>
      </trkpt>
      <trkpt lat="41.7377320" lon="-8.8592480">
        <ele>49.6</ele>
        <time>2019-08-16T09:25:32Z</time>
      </trkpt>
      <trkpt lat="41.7377540" lon="-8.8592830">
        <ele>49.2</ele>
        <time>2019-08-16T09:25:33Z</time>
      </trkpt>
      <trkpt lat="41.7377790" lon="-8.8593170">
        <ele>48.2</ele>
        <time>2019-08-16T09:25:34Z</time>
      </trkpt>
      <trkpt lat="41.7378150" lon="-8.8594030">
        <ele>47.8</ele>
        <time>2019-08-16T09:25:36Z</time>
      </trkpt>
      <trkpt lat="41.7378390" lon="-8.8594410">
        <ele>47.4</ele>
        <time>2019-08-16T09:25:37Z</time>
      </trkpt>
      <trkpt lat="41.7378610" lon="-8.8594740">
        <ele>46.8</ele>
        <time>2019-08-16T09:25:38Z</time>
      </trkpt>
      <trkpt lat="41.7379060" lon="-8.8594780">
        <ele>46.8</ele>
        <time>2019-08-16T09:25:39Z</time>
      </trkpt>
      <trkpt lat="41.7379370" lon="-8.8594680">
        <ele>46.4</ele>
        <time>2019-08-16T09:25:40Z</time>
      </trkpt>
      <trkpt lat="41.7379600" lon="-8.8594660">
        <ele>46.0</ele>
        <time>2019-08-16T09:25:41Z</time>
      </trkpt>
      <trkpt lat="41.7381030" lon="-8.8594440">
        <ele>46.0</ele>
        <time>2019-08-16T09:25:48Z</time>
      </trkpt>
      <trkpt lat="41.7382590" lon="-8.8595180">
        <ele>46.0</ele>
        <time>2019-08-16T09:25:56Z</time>
      </trkpt>
      <trkpt lat="41.7383930" lon="-8.8595740">
        <ele>46.4</ele>
        <time>2019-08-16T09:26:03Z</time>
      </trkpt>
      <trkpt lat="41.7384120" lon="-8.8595790">
        <ele>46.8</ele>
        <time>2019-08-16T09:26:04Z</time>
      </trkpt>
      <trkpt lat="41.7384260" lon="-8.8595910">
        <ele>47.2</ele>
        <time>2019-08-16T09:26:05Z</time>
      </trkpt>
      <trkpt lat="41.7384730" lon="-8.8596030">
        <ele>48.0</ele>
        <time>2019-08-16T09:26:07Z</time>
      </trkpt>
      <trkpt lat="41.7385790" lon="-8.8596300">
        <ele>48.0</ele>
        <time>2019-08-16T09:26:12Z</time>
      </trkpt>
      <trkpt lat="41.7386700" lon="-8.8596430">
        <ele>48.4</ele>
        <time>2019-08-16T09:26:16Z</time>
      </trkpt>
      <trkpt lat="41.7386990" lon="-8.8596480">
        <ele>48.8</ele>
        <time>2019-08-16T09:26:17Z</time>
      </trkpt>
      <trkpt lat="41.7387250" lon="-8.8596530">
        <ele>49.6</ele>
        <time>2019-08-16T09:26:18Z</time>
      </trkpt>
      <trkpt lat="41.7387510" lon="-8.8596570">
        <ele>50.0</ele>
        <time>2019-08-16T09:26:19Z</time>
      </trkpt>
      <trkpt lat="41.7387750" lon="-8.8596600">
        <ele>50.0</ele>
        <time>2019-08-16T09:26:20Z</time>
      </trkpt>
      <trkpt lat="41.7389110" lon="-8.8596820">
        <ele>50.0</ele>
        <time>2019-08-16T09:26:27Z</time>
      </trkpt>
      <trkpt lat="41.7390400" lon="-8.8595660">
        <ele>50.0</ele>
        <time>2019-08-16T09:26:32Z</time>
      </trkpt>
      <trkpt lat="41.7390580" lon="-8.8595370">
        <ele>50.0</ele>
        <time>2019-08-16T09:26:33Z</time>
      </trkpt>
      <trkpt lat="41.7390930" lon="-8.8594900">
        <ele>50.6</ele>
        <time>2019-08-16T09:26:35Z</time>
      </trkpt>
      <trkpt lat="41.7391120" lon="-8.8594670">
        <ele>51.0</ele>
        <time>2019-08-16T09:26:36Z</time>
      </trkpt>
      <trkpt lat="41.7391340" lon="-8.8594480">
        <ele>51.4</ele>
        <time>2019-08-16T09:26:37Z</time>
      </trkpt>
      <trkpt lat="41.7391480" lon="-8.8594240">
        <ele>52.4</ele>
        <time>2019-08-16T09:26:38Z</time>
      </trkpt>
      <trkpt lat="41.7391880" lon="-8.8593720">
        <ele>52.4</ele>
        <time>2019-08-16T09:26:41Z</time>
      </trkpt>
      <trkpt lat="41.7392370" lon="-8.8593070">
        <ele>53.2</ele>
        <time>2019-08-16T09:26:45Z</time>
      </trkpt>
      <trkpt lat="41.7392620" lon="-8.8592880">
        <ele>53.6</ele>
        <time>2019-08-16T09:26:47Z</time>
      </trkpt>
      <trkpt lat="41.7392770" lon="-8.8592800">
        <ele>54.4</ele>
        <time>2019-08-16T09:26:48Z</time>
      </trkpt>
      <trkpt lat="41.7393710" lon="-8.8592170">
        <ele>54.8</ele>
        <time>2019-08-16T09:26:53Z</time>
      </trkpt>
      <trkpt lat="41.7393950" lon="-8.8592200">
        <ele>55.2</ele>
        <time>2019-08-16T09:26:54Z</time>
      </trkpt>
      <trkpt lat="41.7394310" lon="-8.8592140">
        <ele>56.0</ele>
        <time>2019-08-16T09:26:56Z</time>
      </trkpt>
      <trkpt lat="41.7394720" lon="-8.8591900">
        <ele>56.4</ele>
        <time>2019-08-16T09:26:58Z</time>
      </trkpt>
      <trkpt lat="41.7396240" lon="-8.8591490">
        <ele>56.4</ele>
        <time>2019-08-16T09:27:05Z</time>
      </trkpt>
      <trkpt lat="41.7397190" lon="-8.8591350">
        <ele>57.4</ele>
        <time>2019-08-16T09:27:09Z</time>
      </trkpt>
      <trkpt lat="41.7397670" lon="-8.8591260">
        <ele>57.8</ele>
        <time>2019-08-16T09:27:11Z</time>
      </trkpt>
      <trkpt lat="41.7397900" lon="-8.8591230">
        <ele>58.4</ele>
        <time>2019-08-16T09:27:12Z</time>
      </trkpt>
      <trkpt lat="41.7398110" lon="-8.8591240">
        <ele>58.8</ele>
        <time>2019-08-16T09:27:13Z</time>
      </trkpt>
      <trkpt lat="41.7400350" lon="-8.8591560">
        <ele>58.8</ele>
        <time>2019-08-16T09:27:22Z</time>
      </trkpt>
      <trkpt lat="41.7402210" lon="-8.8592660">
        <ele>58.8</ele>
        <time>2019-08-16T09:27:29Z</time>
      </trkpt>
      <trkpt lat="41.7402930" lon="-8.8593090">
        <ele>58.4</ele>
        <time>2019-08-16T09:27:31Z</time>
      </trkpt>
      <trkpt lat="41.7403260" lon="-8.8593230">
        <ele>58.0</ele>
        <time>2019-08-16T09:27:32Z</time>
      </trkpt>
      <trkpt lat="41.7403570" lon="-8.8593310">
        <ele>57.6</ele>
        <time>2019-08-16T09:27:33Z</time>
      </trkpt>
      <trkpt lat="41.7403870" lon="-8.8593420">
        <ele>57.2</ele>
        <time>2019-08-16T09:27:34Z</time>
      </trkpt>
      <trkpt lat="41.7404200" lon="-8.8593540">
        <ele>56.8</ele>
        <time>2019-08-16T09:27:35Z</time>
      </trkpt>
      <trkpt lat="41.7405360" lon="-8.8594340">
        <ele>56.8</ele>
        <time>2019-08-16T09:27:39Z</time>
      </trkpt>
      <trkpt lat="41.7407370" lon="-8.8595420">
        <ele>56.8</ele>
        <time>2019-08-16T09:27:46Z</time>
      </trkpt>
      <trkpt lat="41.7409040" lon="-8.8595790">
        <ele>56.8</ele>
        <time>2019-08-16T09:27:52Z</time>
      </trkpt>
      <trkpt lat="41.7410440" lon="-8.8595540">
        <ele>56.8</ele>
        <time>2019-08-16T09:27:58Z</time>
      </trkpt>
      <trkpt lat="41.7412800" lon="-8.8595620">
        <ele>56.8</ele>
        <time>2019-08-16T09:28:05Z</time>
      </trkpt>
      <trkpt lat="41.7414880" lon="-8.8596400">
        <ele>56.8</ele>
        <time>2019-08-16T09:28:12Z</time>
      </trkpt>
      <trkpt lat="41.7417290" lon="-8.8598200">
        <ele>56.8</ele>
        <time>2019-08-16T09:28:21Z</time>
      </trkpt>
      <trkpt lat="41.7419570" lon="-8.8599950">
        <ele>56.4</ele>
        <time>2019-08-16T09:28:26Z</time>
      </trkpt>
      <trkpt lat="41.7420060" lon="-8.8600400">
        <ele>55.8</ele>
        <time>2019-08-16T09:28:27Z</time>
      </trkpt>
      <trkpt lat="41.7420640" lon="-8.8600830">
        <ele>55.4</ele>
        <time>2019-08-16T09:28:28Z</time>
      </trkpt>
      <trkpt lat="41.7421230" lon="-8.8601210">
        <ele>55.0</ele>
        <time>2019-08-16T09:28:29Z</time>
      </trkpt>
      <trkpt lat="41.7421880" lon="-8.8601540">
        <ele>54.6</ele>
        <time>2019-08-16T09:28:30Z</time>
      </trkpt>
      <trkpt lat="41.7423120" lon="-8.8601920">
        <ele>54.6</ele>
        <time>2019-08-16T09:28:32Z</time>
      </trkpt>
      <trkpt lat="41.7425200" lon="-8.8601920">
        <ele>54.6</ele>
        <time>2019-08-16T09:28:36Z</time>
      </trkpt>
      <trkpt lat="41.7426770" lon="-8.8601420">
        <ele>54.6</ele>
        <time>2019-08-16T09:28:41Z</time>
      </trkpt>
      <trkpt lat="41.7428560" lon="-8.8601000">
        <ele>54.6</ele>
        <time>2019-08-16T09:28:47Z</time>
      </trkpt>
      <trkpt lat="41.7430820" lon="-8.8600820">
        <ele>54.6</ele>
        <time>2019-08-16T09:28:54Z</time>
      </trkpt>
      <trkpt lat="41.7432310" lon="-8.8601020">
        <ele>54.6</ele>
        <time>2019-08-16T09:29:00Z</time>
      </trkpt>
      <trkpt lat="41.7434410" lon="-8.8602740">
        <ele>55.0</ele>
        <time>2019-08-16T09:29:07Z</time>
      </trkpt>
      <trkpt lat="41.7434710" lon="-8.8602880">
        <ele>55.4</ele>
        <time>2019-08-16T09:29:08Z</time>
      </trkpt>
      <trkpt lat="41.7434940" lon="-8.8603040">
        <ele>55.8</ele>
        <time>2019-08-16T09:29:09Z</time>
      </trkpt>
      <trkpt lat="41.7435120" lon="-8.8603240">
        <ele>56.2</ele>
        <time>2019-08-16T09:29:10Z</time>
      </trkpt>
      <trkpt lat="41.7435270" lon="-8.8603510">
        <ele>56.6</ele>
        <time>2019-08-16T09:29:11Z</time>
      </trkpt>
      <trkpt lat="41.7435750" lon="-8.8603980">
        <ele>56.6</ele>
        <time>2019-08-16T09:29:13Z</time>
      </trkpt>
      <trkpt lat="41.7437260" lon="-8.8604270">
        <ele>56.6</ele>
        <time>2019-08-16T09:29:17Z</time>
      </trkpt>
      <trkpt lat="41.7438760" lon="-8.8604970">
        <ele>56.6</ele>
        <time>2019-08-16T09:29:23Z</time>
      </trkpt>
      <trkpt lat="41.7440510" lon="-8.8605880">
        <ele>56.6</ele>
        <time>2019-08-16T09:29:29Z</time>
      </trkpt>
      <trkpt lat="41.7442680" lon="-8.8608600">
        <ele>56.6</ele>
        <time>2019-08-16T09:29:35Z</time>
      </trkpt>
      <trkpt lat="41.7443330" lon="-8.8609520">
        <ele>56.2</ele>
        <time>2019-08-16T09:29:37Z</time>
      </trkpt>
      <trkpt lat="41.7443540" lon="-8.8609910">
        <ele>55.8</ele>
        <time>2019-08-16T09:29:38Z</time>
      </trkpt>
      <trkpt lat="41.7443780" lon="-8.8610210">
        <ele>55.4</ele>
        <time>2019-08-16T09:29:39Z</time>
      </trkpt>
      <trkpt lat="41.7444170" lon="-8.8610640">
        <ele>55.0</ele>
        <time>2019-08-16T09:29:40Z</time>
      </trkpt>
      <trkpt lat="41.7444390" lon="-8.8610980">
        <ele>54.6</ele>
        <time>2019-08-16T09:29:41Z</time>
      </trkpt>
      <trkpt lat="41.7445500" lon="-8.8612440">
        <ele>54.6</ele>
        <time>2019-08-16T09:29:45Z</time>
      </trkpt>
      <trkpt lat="41.7447600" lon="-8.8614820">
        <ele>54.6</ele>
        <time>2019-08-16T09:29:52Z</time>
      </trkpt>
      <trkpt lat="41.7447910" lon="-8.8616350">
        <ele>54.2</ele>
        <time>2019-08-16T09:29:55Z</time>
      </trkpt>
      <trkpt lat="41.7447950" lon="-8.8616860">
        <ele>53.8</ele>
        <time>2019-08-16T09:29:56Z</time>
      </trkpt>
      <trkpt lat="41.7447980" lon="-8.8617380">
        <ele>53.2</ele>
        <time>2019-08-16T09:29:57Z</time>
      </trkpt>
      <trkpt lat="41.7448000" lon="-8.8617900">
        <ele>52.8</ele>
        <time>2019-08-16T09:29:58Z</time>
      </trkpt>
      <trkpt lat="41.7448020" lon="-8.8618460">
        <ele>52.4</ele>
        <time>2019-08-16T09:29:59Z</time>
      </trkpt>
      <trkpt lat="41.7448190" lon="-8.8620120">
        <ele>52.4</ele>
        <time>2019-08-16T09:30:02Z</time>
      </trkpt>
      <trkpt lat="41.7448380" lon="-8.8620650">
        <ele>52.4</ele>
        <time>2019-08-16T09:30:03Z</time>
      </trkpt>
      <trkpt lat="41.7449560" lon="-8.8621980">
        <ele>52.0</ele>
        <time>2019-08-16T09:30:06Z</time>
      </trkpt>
      <trkpt lat="41.7450070" lon="-8.8622410">
        <ele>51.6</ele>
        <time>2019-08-16T09:30:07Z</time>
      </trkpt>
      <trkpt lat="41.7450610" lon="-8.8622810">
        <ele>51.2</ele>
        <time>2019-08-16T09:30:08Z</time>
      </trkpt>
      <trkpt lat="41.7451160" lon="-8.8623240">
        <ele>50.8</ele>
        <time>2019-08-16T09:30:09Z</time>
      </trkpt>
      <trkpt lat="41.7451660" lon="-8.8623580">
        <ele>50.2</ele>
        <time>2019-08-16T09:30:10Z</time>
      </trkpt>
      <trkpt lat="41.7452590" lon="-8.8623890">
        <ele>50.2</ele>
        <time>2019-08-16T09:30:12Z</time>
      </trkpt>
      <trkpt lat="41.7453030" lon="-8.8623610">
        <ele>50.2</ele>
        <time>2019-08-16T09:30:13Z</time>
      </trkpt>
      <trkpt lat="41.7453660" lon="-8.8622820">
        <ele>50.2</ele>
        <time>2019-08-16T09:30:15Z</time>
      </trkpt>
      <trkpt lat="41.7455590" lon="-8.8621380">
        <ele>50.2</ele>
        <time>2019-08-16T09:30:21Z</time>
      </trkpt>
      <trkpt lat="41.7456050" lon="-8.8621370">
        <ele>49.8</ele>
        <time>2019-08-16T09:30:22Z</time>
      </trkpt>
      <trkpt lat="41.7456560" lon="-8.8621520">
        <ele>49.4</ele>
        <time>2019-08-16T09:30:23Z</time>
      </trkpt>
      <trkpt lat="41.7457050" lon="-8.8621640">
        <ele>49.0</ele>
        <time>2019-08-16T09:30:24Z</time>
      </trkpt>
      <trkpt lat="41.7457550" lon="-8.8621730">
        <ele>48.6</ele>
        <time>2019-08-16T09:30:25Z</time>
      </trkpt>
      <trkpt lat="41.7458050" lon="-8.8621770">
        <ele>48.2</ele>
        <time>2019-08-16T09:30:26Z</time>
      </trkpt>
      <trkpt lat="41.7458570" lon="-8.8621710">
        <ele>48.2</ele>
        <time>2019-08-16T09:30:27Z</time>
      </trkpt>
      <trkpt lat="41.7459430" lon="-8.8621130">
        <ele>48.2</ele>
        <time>2019-08-16T09:30:29Z</time>
      </trkpt>
      <trkpt lat="41.7459920" lon="-8.8620240">
        <ele>48.2</ele>
        <time>2019-08-16T09:30:31Z</time>
      </trkpt>
      <trkpt lat="41.7460400" lon="-8.8619500">
        <ele>48.2</ele>
        <time>2019-08-16T09:30:33Z</time>
      </trkpt>
      <trkpt lat="41.7461730" lon="-8.8618300">
        <ele>48.2</ele>
        <time>2019-08-16T09:30:38Z</time>
      </trkpt>
      <trkpt lat="41.7462030" lon="-8.8618160">
        <ele>48.2</ele>
        <time>2019-08-16T09:30:39Z</time>
      </trkpt>
      <trkpt lat="41.7463840" lon="-8.8618270">
        <ele>48.2</ele>
        <time>2019-08-16T09:30:45Z</time>
      </trkpt>
      <trkpt lat="41.7464950" lon="-8.8619250">
        <ele>48.2</ele>
        <time>2019-08-16T09:30:49Z</time>
      </trkpt>
      <trkpt lat="41.7466640" lon="-8.8619980">
        <ele>48.2</ele>
        <time>2019-08-16T09:30:55Z</time>
      </trkpt>
      <trkpt lat="41.7467960" lon="-8.8620750">
        <ele>48.2</ele>
        <time>2019-08-16T09:31:00Z</time>
      </trkpt>
      <trkpt lat="41.7468340" lon="-8.8621310">
        <ele>48.2</ele>
        <time>2019-08-16T09:31:02Z</time>
      </trkpt>
      <trkpt lat="41.7468670" lon="-8.8621970">
        <ele>48.2</ele>
        <time>2019-08-16T09:31:04Z</time>
      </trkpt>
      <trkpt lat="41.7468960" lon="-8.8623360">
        <ele>48.2</ele>
        <time>2019-08-16T09:31:08Z</time>
      </trkpt>
      <trkpt lat="41.7468740" lon="-8.8625160">
        <ele>48.2</ele>
        <time>2019-08-16T09:31:12Z</time>
      </trkpt>
      <trkpt lat="41.7468560" lon="-8.8627030">
        <ele>48.2</ele>
        <time>2019-08-16T09:31:15Z</time>
      </trkpt>
      <trkpt lat="41.7468510" lon="-8.8628020">
        <ele>48.2</ele>
        <time>2019-08-16T09:31:17Z</time>
      </trkpt>
      <trkpt lat="41.7468500" lon="-8.8628270">
        <ele>47.8</ele>
        <time>2019-08-16T09:31:18Z</time>
      </trkpt>
      <trkpt lat="41.7468510" lon="-8.8628480">
        <ele>47.4</ele>
        <time>2019-08-16T09:31:19Z</time>
      </trkpt>
      <trkpt lat="41.7468440" lon="-8.8628580">
        <ele>47.0</ele>
        <time>2019-08-16T09:31:20Z</time>
      </trkpt>
      <trkpt lat="41.7468350" lon="-8.8628630">
        <ele>46.6</ele>
        <time>2019-08-16T09:31:21Z</time>
      </trkpt>
      <trkpt lat="41.7468320" lon="-8.8628580">
        <ele>46.0</ele>
        <time>2019-08-16T09:31:22Z</time>
      </trkpt>
      <trkpt lat="41.7468350" lon="-8.8628560">
        <ele>46.0</ele>
        <time>2019-08-16T09:31:25Z</time>
      </trkpt>
      <trkpt lat="41.7468410" lon="-8.8628750">
        <ele>46.0</ele>
        <time>2019-08-16T09:33:13Z</time>
      </trkpt>
      <trkpt lat="41.7468550" lon="-8.8628950">
        <ele>46.0</ele>
        <time>2019-08-16T09:33:14Z</time>
      </trkpt>
      <trkpt lat="41.7470000" lon="-8.8631010">
        <ele>46.0</ele>
        <time>2019-08-16T09:33:17Z</time>
      </trkpt>
      <trkpt lat="41.7471080" lon="-8.8633030">
        <ele>46.0</ele>
        <time>2019-08-16T09:33:21Z</time>
      </trkpt>
      <trkpt lat="41.7472440" lon="-8.8634730">
        <ele>46.0</ele>
        <time>2019-08-16T09:33:28Z</time>
      </trkpt>
      <trkpt lat="41.7474630" lon="-8.8636560">
        <ele>46.0</ele>
        <time>2019-08-16T09:33:39Z</time>
      </trkpt>
      <trkpt lat="41.7474990" lon="-8.8636490">
        <ele>46.6</ele>
        <time>2019-08-16T09:33:40Z</time>
      </trkpt>
      <trkpt lat="41.7475260" lon="-8.8636530">
        <ele>47.0</ele>
        <time>2019-08-16T09:33:41Z</time>
      </trkpt>
      <trkpt lat="41.7475520" lon="-8.8636560">
        <ele>47.4</ele>
        <time>2019-08-16T09:33:42Z</time>
      </trkpt>
      <trkpt lat="41.7475760" lon="-8.8636640">
        <ele>47.8</ele>
        <time>2019-08-16T09:33:43Z</time>
      </trkpt>
      <trkpt lat="41.7475990" lon="-8.8636780">
        <ele>48.2</ele>
        <time>2019-08-16T09:33:44Z</time>
      </trkpt>
      <trkpt lat="41.7476370" lon="-8.8637130">
        <ele>48.2</ele>
        <time>2019-08-16T09:33:46Z</time>
      </trkpt>
      <trkpt lat="41.7478380" lon="-8.8637860">
        <ele>48.2</ele>
        <time>2019-08-16T09:33:56Z</time>
      </trkpt>
      <trkpt lat="41.7478730" lon="-8.8637860">
        <ele>48.6</ele>
        <time>2019-08-16T09:33:58Z</time>
      </trkpt>
      <trkpt lat="41.7478960" lon="-8.8637920">
        <ele>49.0</ele>
        <time>2019-08-16T09:33:59Z</time>
      </trkpt>
      <trkpt lat="41.7479170" lon="-8.8638020">
        <ele>49.4</ele>
        <time>2019-08-16T09:34:00Z</time>
      </trkpt>
      <trkpt lat="41.7479340" lon="-8.8638250">
        <ele>49.8</ele>
        <time>2019-08-16T09:34:01Z</time>
      </trkpt>
      <trkpt lat="41.7479460" lon="-8.8638520">
        <ele>50.2</ele>
        <time>2019-08-16T09:34:02Z</time>
      </trkpt>
      <trkpt lat="41.7479900" lon="-8.8640350">
        <ele>50.2</ele>
        <time>2019-08-16T09:34:07Z</time>
      </trkpt>
      <trkpt lat="41.7479850" lon="-8.8640770">
        <ele>49.8</ele>
        <time>2019-08-16T09:34:08Z</time>
      </trkpt>
      <trkpt lat="41.7479810" lon="-8.8641210">
        <ele>49.4</ele>
        <time>2019-08-16T09:34:09Z</time>
      </trkpt>
      <trkpt lat="41.7479780" lon="-8.8641620">
        <ele>49.0</ele>
        <time>2019-08-16T09:34:10Z</time>
      </trkpt>
      <trkpt lat="41.7479720" lon="-8.8642030">
        <ele>48.6</ele>
        <time>2019-08-16T09:34:11Z</time>
      </trkpt>
      <trkpt lat="41.7479680" lon="-8.8642430">
        <ele>48.2</ele>
        <time>2019-08-16T09:34:12Z</time>
      </trkpt>
      <trkpt lat="41.7479600" lon="-8.8643260">
        <ele>47.8</ele>
        <time>2019-08-16T09:34:14Z</time>
      </trkpt>
      <trkpt lat="41.7479520" lon="-8.8643630">
        <ele>47.4</ele>
        <time>2019-08-16T09:34:15Z</time>
      </trkpt>
      <trkpt lat="41.7479470" lon="-8.8643970">
        <ele>47.0</ele>
        <time>2019-08-16T09:34:16Z</time>
      </trkpt>
      <trkpt lat="41.7479400" lon="-8.8644300">
        <ele>46.6</ele>
        <time>2019-08-16T09:34:17Z</time>
      </trkpt>
      <trkpt lat="41.7479370" lon="-8.8644690">
        <ele>46.0</ele>
        <time>2019-08-16T09:34:18Z</time>
      </trkpt>
      <trkpt lat="41.7479210" lon="-8.8645630">
        <ele>45.6</ele>
        <time>2019-08-16T09:34:22Z</time>
      </trkpt>
      <trkpt lat="41.7479180" lon="-8.8645650">
        <ele>45.2</ele>
        <time>2019-08-16T09:34:23Z</time>
      </trkpt>
      <trkpt lat="41.7479140" lon="-8.8645880">
        <ele>42.4</ele>
        <time>2019-08-16T09:34:39Z</time>
      </trkpt>
      <trkpt lat="41.7479190" lon="-8.8645980">
        <ele>42.0</ele>
        <time>2019-08-16T09:34:40Z</time>
      </trkpt>
      <trkpt lat="41.7479800" lon="-8.8646390">
        <ele>41.6</ele>
        <time>2019-08-16T09:34:42Z</time>
      </trkpt>
      <trkpt lat="41.7480160" lon="-8.8646530">
        <ele>41.0</ele>
        <time>2019-08-16T09:34:43Z</time>
      </trkpt>
      <trkpt lat="41.7480450" lon="-8.8646590">
        <ele>40.6</ele>
        <time>2019-08-16T09:34:44Z</time>
      </trkpt>
      <trkpt lat="41.7480640" lon="-8.8646630">
        <ele>40.0</ele>
        <time>2019-08-16T09:34:45Z</time>
      </trkpt>
      <trkpt lat="41.7480990" lon="-8.8646430">
        <ele>39.6</ele>
        <time>2019-08-16T09:34:46Z</time>
      </trkpt>
      <trkpt lat="41.7481170" lon="-8.8646480">
        <ele>39.6</ele>
        <time>2019-08-16T09:34:48Z</time>
      </trkpt>
      <trkpt lat="41.7481580" lon="-8.8646670">
        <ele>39.6</ele>
        <time>2019-08-16T09:34:55Z</time>
      </trkpt>
      <trkpt lat="41.7481660" lon="-8.8646460">
        <ele>39.6</ele>
        <time>2019-08-16T09:34:57Z</time>
      </trkpt>
      <trkpt lat="41.7481870" lon="-8.8646080">
        <ele>39.6</ele>
        <time>2019-08-16T09:35:07Z</time>
      </trkpt>
      <trkpt lat="41.7481330" lon="-8.8646460">
        <ele>37.6</ele>
        <time>2019-08-16T09:50:44Z</time>
      </trkpt>
      <trkpt lat="41.7481480" lon="-8.8647170">
        <ele>37.6</ele>
        <time>2019-08-16T09:50:48Z</time>
      </trkpt>
      <trkpt lat="41.7482010" lon="-8.8648420">
        <ele>37.6</ele>
        <time>2019-08-16T09:50:53Z</time>
      </trkpt>
      <trkpt lat="41.7482250" lon="-8.8648330">
        <ele>37.6</ele>
        <time>2019-08-16T09:50:54Z</time>
      </trkpt>
      <trkpt lat="41.7482670" lon="-8.8648150">
        <ele>37.6</ele>
        <time>2019-08-16T09:50:56Z</time>
      </trkpt>
      <trkpt lat="41.7484100" lon="-8.8648250">
        <ele>37.6</ele>
        <time>2019-08-16T09:51:03Z</time>
      </trkpt>
      <trkpt lat="41.7485600" lon="-8.8648750">
        <ele>37.6</ele>
        <time>2019-08-16T09:51:10Z</time>
      </trkpt>
      <trkpt lat="41.7487890" lon="-8.8648620">
        <ele>37.6</ele>
        <time>2019-08-16T09:51:18Z</time>
      </trkpt>
      <trkpt lat="41.7490780" lon="-8.8649380">
        <ele>37.6</ele>
        <time>2019-08-16T09:51:28Z</time>
      </trkpt>
      <trkpt lat="41.7491800" lon="-8.8650020">
        <ele>38.0</ele>
        <time>2019-08-16T09:51:32Z</time>
      </trkpt>
      <trkpt lat="41.7492040" lon="-8.8650220">
        <ele>38.4</ele>
        <time>2019-08-16T09:51:33Z</time>
      </trkpt>
      <trkpt lat="41.7492310" lon="-8.8650410">
        <ele>38.8</ele>
        <time>2019-08-16T09:51:34Z</time>
      </trkpt>
      <trkpt lat="41.7492600" lon="-8.8650590">
        <ele>39.2</ele>
        <time>2019-08-16T09:51:35Z</time>
      </trkpt>
      <trkpt lat="41.7492870" lon="-8.8650790">
        <ele>39.6</ele>
        <time>2019-08-16T09:51:36Z</time>
      </trkpt>
      <trkpt lat="41.7494610" lon="-8.8651660">
        <ele>39.6</ele>
        <time>2019-08-16T09:51:43Z</time>
      </trkpt>
      <trkpt lat="41.7494850" lon="-8.8651500">
        <ele>39.6</ele>
        <time>2019-08-16T09:51:44Z</time>
      </trkpt>
      <trkpt lat="41.7495250" lon="-8.8649450">
        <ele>39.6</ele>
        <time>2019-08-16T09:51:50Z</time>
      </trkpt>
      <trkpt lat="41.7495450" lon="-8.8647910">
        <ele>40.0</ele>
        <time>2019-08-16T09:51:54Z</time>
      </trkpt>
      <trkpt lat="41.7495520" lon="-8.8647560">
        <ele>40.6</ele>
        <time>2019-08-16T09:51:55Z</time>
      </trkpt>
      <trkpt lat="41.7495570" lon="-8.8647200">
        <ele>41.0</ele>
        <time>2019-08-16T09:51:56Z</time>
      </trkpt>
      <trkpt lat="41.7495590" lon="-8.8646810">
        <ele>41.4</ele>
        <time>2019-08-16T09:51:57Z</time>
      </trkpt>
      <trkpt lat="41.7495600" lon="-8.8646460">
        <ele>41.8</ele>
        <time>2019-08-16T09:51:58Z</time>
      </trkpt>
      <trkpt lat="41.7495870" lon="-8.8644350">
        <ele>41.8</ele>
        <time>2019-08-16T09:52:04Z</time>
      </trkpt>
      <trkpt lat="41.7496380" lon="-8.8641900">
        <ele>41.8</ele>
        <time>2019-08-16T09:52:11Z</time>
      </trkpt>
      <trkpt lat="41.7496500" lon="-8.8641570">
        <ele>42.2</ele>
        <time>2019-08-16T09:52:12Z</time>
      </trkpt>
      <trkpt lat="41.7496610" lon="-8.8641270">
        <ele>42.6</ele>
        <time>2019-08-16T09:52:13Z</time>
      </trkpt>
      <trkpt lat="41.7496750" lon="-8.8641000">
        <ele>43.0</ele>
        <time>2019-08-16T09:52:14Z</time>
      </trkpt>
      <trkpt lat="41.7496890" lon="-8.8640720">
        <ele>43.4</ele>
        <time>2019-08-16T09:52:15Z</time>
      </trkpt>
      <trkpt lat="41.7497040" lon="-8.8640450">
        <ele>43.8</ele>
        <time>2019-08-16T09:52:16Z</time>
      </trkpt>
      <trkpt lat="41.7497330" lon="-8.8639970">
        <ele>43.8</ele>
        <time>2019-08-16T09:52:18Z</time>
      </trkpt>
      <trkpt lat="41.7499160" lon="-8.8637860">
        <ele>43.8</ele>
        <time>2019-08-16T09:52:27Z</time>
      </trkpt>
      <trkpt lat="41.7499440" lon="-8.8637770">
        <ele>44.2</ele>
        <time>2019-08-16T09:52:28Z</time>
      </trkpt>
      <trkpt lat="41.7499700" lon="-8.8637680">
        <ele>44.8</ele>
        <time>2019-08-16T09:52:29Z</time>
      </trkpt>
      <trkpt lat="41.7499980" lon="-8.8637610">
        <ele>45.2</ele>
        <time>2019-08-16T09:52:30Z</time>
      </trkpt>
      <trkpt lat="41.7500240" lon="-8.8637540">
        <ele>45.6</ele>
        <time>2019-08-16T09:52:31Z</time>
      </trkpt>
      <trkpt lat="41.7500510" lon="-8.8637480">
        <ele>46.0</ele>
        <time>2019-08-16T09:52:32Z</time>
      </trkpt>
      <trkpt lat="41.7501520" lon="-8.8637230">
        <ele>46.0</ele>
        <time>2019-08-16T09:52:36Z</time>
      </trkpt>
      <trkpt lat="41.7503350" lon="-8.8637370">
        <ele>46.0</ele>
        <time>2019-08-16T09:52:43Z</time>
      </trkpt>
      <trkpt lat="41.7504760" lon="-8.8637480">
        <ele>46.0</ele>
        <time>2019-08-16T09:52:48Z</time>
      </trkpt>
      <trkpt lat="41.7506700" lon="-8.8637710">
        <ele>46.0</ele>
        <time>2019-08-16T09:52:55Z</time>
      </trkpt>
      <trkpt lat="41.7508950" lon="-8.8638200">
        <ele>46.0</ele>
        <time>2019-08-16T09:53:03Z</time>
      </trkpt>
      <trkpt lat="41.7509670" lon="-8.8638270">
        <ele>46.4</ele>
        <time>2019-08-16T09:53:06Z</time>
      </trkpt>
      <trkpt lat="41.7509910" lon="-8.8638280">
        <ele>46.8</ele>
        <time>2019-08-16T09:53:07Z</time>
      </trkpt>
      <trkpt lat="41.7510180" lon="-8.8638310">
        <ele>47.2</ele>
        <time>2019-08-16T09:53:08Z</time>
      </trkpt>
      <trkpt lat="41.7510450" lon="-8.8638330">
        <ele>47.6</ele>
        <time>2019-08-16T09:53:09Z</time>
      </trkpt>
      <trkpt lat="41.7510730" lon="-8.8638320">
        <ele>48.0</ele>
        <time>2019-08-16T09:53:10Z</time>
      </trkpt>
      <trkpt lat="41.7511020" lon="-8.8638330">
        <ele>48.0</ele>
        <time>2019-08-16T09:53:11Z</time>
      </trkpt>
      <trkpt lat="41.7513690" lon="-8.8638690">
        <ele>48.0</ele>
        <time>2019-08-16T09:53:21Z</time>
      </trkpt>
      <trkpt lat="41.7514280" lon="-8.8638650">
        <ele>48.6</ele>
        <time>2019-08-16T09:53:23Z</time>
      </trkpt>
      <trkpt lat="41.7514530" lon="-8.8638630">
        <ele>49.0</ele>
        <time>2019-08-16T09:53:24Z</time>
      </trkpt>
      <trkpt lat="41.7514810" lon="-8.8638650">
        <ele>49.4</ele>
        <time>2019-08-16T09:53:25Z</time>
      </trkpt>
      <trkpt lat="41.7515050" lon="-8.8638650">
        <ele>49.8</ele>
        <time>2019-08-16T09:53:26Z</time>
      </trkpt>
      <trkpt lat="41.7515300" lon="-8.8638630">
        <ele>50.2</ele>
        <time>2019-08-16T09:53:27Z</time>
      </trkpt>
      <trkpt lat="41.7516060" lon="-8.8638650">
        <ele>50.2</ele>
        <time>2019-08-16T09:53:30Z</time>
      </trkpt>
      <trkpt lat="41.7518700" lon="-8.8638780">
        <ele>50.2</ele>
        <time>2019-08-16T09:53:39Z</time>
      </trkpt>
      <trkpt lat="41.7520900" lon="-8.8638750">
        <ele>50.6</ele>
        <time>2019-08-16T09:53:47Z</time>
      </trkpt>
      <trkpt lat="41.7521160" lon="-8.8638800">
        <ele>51.0</ele>
        <time>2019-08-16T09:53:48Z</time>
      </trkpt>
      <trkpt lat="41.7521400" lon="-8.8638860">
        <ele>51.4</ele>
        <time>2019-08-16T09:53:49Z</time>
      </trkpt>
      <trkpt lat="41.7521640" lon="-8.8638910">
        <ele>51.8</ele>
        <time>2019-08-16T09:53:50Z</time>
      </trkpt>
      <trkpt lat="41.7521890" lon="-8.8638940">
        <ele>52.2</ele>
        <time>2019-08-16T09:53:51Z</time>
      </trkpt>
      <trkpt lat="41.7522770" lon="-8.8638690">
        <ele>52.2</ele>
        <time>2019-08-16T09:53:55Z</time>
      </trkpt>
      <trkpt lat="41.7523690" lon="-8.8637430">
        <ele>52.2</ele>
        <time>2019-08-16T09:54:01Z</time>
      </trkpt>
      <trkpt lat="41.7523830" lon="-8.8635720">
        <ele>52.2</ele>
        <time>2019-08-16T09:54:06Z</time>
      </trkpt>
      <trkpt lat="41.7523530" lon="-8.8633700">
        <ele>52.2</ele>
        <time>2019-08-16T09:54:12Z</time>
      </trkpt>
      <trkpt lat="41.7523080" lon="-8.8630950">
        <ele>52.2</ele>
        <time>2019-08-16T09:54:20Z</time>
      </trkpt>
      <trkpt lat="41.7522720" lon="-8.8628730">
        <ele>52.6</ele>
        <time>2019-08-16T09:54:26Z</time>
      </trkpt>
      <trkpt lat="41.7522670" lon="-8.8628370">
        <ele>53.0</ele>
        <time>2019-08-16T09:54:27Z</time>
      </trkpt>
      <trkpt lat="41.7522660" lon="-8.8628030">
        <ele>53.6</ele>
        <time>2019-08-16T09:54:28Z</time>
      </trkpt>
      <trkpt lat="41.7522640" lon="-8.8627680">
        <ele>54.0</ele>
        <time>2019-08-16T09:54:29Z</time>
      </trkpt>
      <trkpt lat="41.7522630" lon="-8.8627360">
        <ele>54.4</ele>
        <time>2019-08-16T09:54:30Z</time>
      </trkpt>
      <trkpt lat="41.7522790" lon="-8.8624920">
        <ele>54.4</ele>
        <time>2019-08-16T09:54:37Z</time>
      </trkpt>
      <trkpt lat="41.7523800" lon="-8.8623700">
        <ele>54.4</ele>
        <time>2019-08-16T09:54:42Z</time>
      </trkpt>
      <trkpt lat="41.7525010" lon="-8.8622780">
        <ele>54.8</ele>
        <time>2019-08-16T09:54:48Z</time>
      </trkpt>
      <trkpt lat="41.7525150" lon="-8.8622570">
        <ele>55.2</ele>
        <time>2019-08-16T09:54:49Z</time>
      </trkpt>
      <trkpt lat="41.7525310" lon="-8.8622370">
        <ele>55.6</ele>
        <time>2019-08-16T09:54:50Z</time>
      </trkpt>
      <trkpt lat="41.7525460" lon="-8.8622190">
        <ele>56.0</ele>
        <time>2019-08-16T09:54:51Z</time>
      </trkpt>
      <trkpt lat="41.7525610" lon="-8.8622020">
        <ele>56.4</ele>
        <time>2019-08-16T09:54:52Z</time>
      </trkpt>
      <trkpt lat="41.7526480" lon="-8.8621460">
        <ele>56.8</ele>
        <time>2019-08-16T09:54:57Z</time>
      </trkpt>
      <trkpt lat="41.7526730" lon="-8.8621270">
        <ele>57.4</ele>
        <time>2019-08-16T09:54:58Z</time>
      </trkpt>
      <trkpt lat="41.7527010" lon="-8.8621170">
        <ele>57.8</ele>
        <time>2019-08-16T09:54:59Z</time>
      </trkpt>
      <trkpt lat="41.7527290" lon="-8.8621060">
        <ele>58.2</ele>
        <time>2019-08-16T09:55:00Z</time>
      </trkpt>
      <trkpt lat="41.7527510" lon="-8.8620840">
        <ele>58.8</ele>
        <time>2019-08-16T09:55:01Z</time>
      </trkpt>
      <trkpt lat="41.7527860" lon="-8.8619530">
        <ele>59.2</ele>
        <time>2019-08-16T09:55:06Z</time>
      </trkpt>
      <trkpt lat="41.7527910" lon="-8.8619260">
        <ele>59.6</ele>
        <time>2019-08-16T09:55:07Z</time>
      </trkpt>
      <trkpt lat="41.7528000" lon="-8.8619000">
        <ele>60.0</ele>
        <time>2019-08-16T09:55:08Z</time>
      </trkpt>
      <trkpt lat="41.7528060" lon="-8.8618730">
        <ele>60.4</ele>
        <time>2019-08-16T09:55:09Z</time>
      </trkpt>
      <trkpt lat="41.7528160" lon="-8.8618460">
        <ele>60.8</ele>
        <time>2019-08-16T09:55:10Z</time>
      </trkpt>
      <trkpt lat="41.7528840" lon="-8.8617930">
        <ele>60.8</ele>
        <time>2019-08-16T09:55:13Z</time>
      </trkpt>
      <trkpt lat="41.7529730" lon="-8.8617510">
        <ele>61.2</ele>
        <time>2019-08-16T09:55:17Z</time>
      </trkpt>
      <trkpt lat="41.7529970" lon="-8.8617450">
        <ele>61.6</ele>
        <time>2019-08-16T09:55:18Z</time>
      </trkpt>
      <trkpt lat="41.7530190" lon="-8.8617400">
        <ele>62.0</ele>
        <time>2019-08-16T09:55:19Z</time>
      </trkpt>
      <trkpt lat="41.7530430" lon="-8.8617340">
        <ele>62.4</ele>
        <time>2019-08-16T09:55:20Z</time>
      </trkpt>
      <trkpt lat="41.7530670" lon="-8.8617290">
        <ele>63.0</ele>
        <time>2019-08-16T09:55:21Z</time>
      </trkpt>
      <trkpt lat="41.7531400" lon="-8.8617050">
        <ele>63.4</ele>
        <time>2019-08-16T09:55:24Z</time>
      </trkpt>
      <trkpt lat="41.7531610" lon="-8.8617010">
        <ele>63.8</ele>
        <time>2019-08-16T09:55:25Z</time>
      </trkpt>
      <trkpt lat="41.7531830" lon="-8.8616990">
        <ele>64.4</ele>
        <time>2019-08-16T09:55:26Z</time>
      </trkpt>
      <trkpt lat="41.7532020" lon="-8.8616910">
        <ele>64.8</ele>
        <time>2019-08-16T09:55:27Z</time>
      </trkpt>
      <trkpt lat="41.7532220" lon="-8.8616840">
        <ele>65.2</ele>
        <time>2019-08-16T09:55:28Z</time>
      </trkpt>
      <trkpt lat="41.7532650" lon="-8.8616640">
        <ele>65.2</ele>
        <time>2019-08-16T09:55:30Z</time>
      </trkpt>
      <trkpt lat="41.7533290" lon="-8.8616430">
        <ele>65.8</ele>
        <time>2019-08-16T09:55:33Z</time>
      </trkpt>
      <trkpt lat="41.7533530" lon="-8.8616360">
        <ele>66.2</ele>
        <time>2019-08-16T09:55:34Z</time>
      </trkpt>
      <trkpt lat="41.7533800" lon="-8.8616270">
        <ele>66.6</ele>
        <time>2019-08-16T09:55:35Z</time>
      </trkpt>
      <trkpt lat="41.7534030" lon="-8.8616190">
        <ele>67.0</ele>
        <time>2019-08-16T09:55:36Z</time>
      </trkpt>
      <trkpt lat="41.7534260" lon="-8.8616140">
        <ele>67.4</ele>
        <time>2019-08-16T09:55:37Z</time>
      </trkpt>
      <trkpt lat="41.7535000" lon="-8.8616020">
        <ele>67.4</ele>
        <time>2019-08-16T09:55:40Z</time>
      </trkpt>
      <trkpt lat="41.7536500" lon="-8.8615750">
        <ele>67.4</ele>
        <time>2019-08-16T09:55:45Z</time>
      </trkpt>
      <trkpt lat="41.7538150" lon="-8.8615830">
        <ele>67.4</ele>
        <time>2019-08-16T09:55:51Z</time>
      </trkpt>
      <trkpt lat="41.7539960" lon="-8.8615450">
        <ele>67.4</ele>
        <time>2019-08-16T09:55:57Z</time>
      </trkpt>
      <trkpt lat="41.7541200" lon="-8.8613940">
        <ele>67.4</ele>
        <time>2019-08-16T09:56:02Z</time>
      </trkpt>
      <trkpt lat="41.7542810" lon="-8.8612370">
        <ele>67.4</ele>
        <time>2019-08-16T09:56:08Z</time>
      </trkpt>
      <trkpt lat="41.7544070" lon="-8.8612290">
        <ele>67.4</ele>
        <time>2019-08-16T09:56:12Z</time>
      </trkpt>
      <trkpt lat="41.7545370" lon="-8.8613300">
        <ele>67.4</ele>
        <time>2019-08-16T09:56:17Z</time>
      </trkpt>
      <trkpt lat="41.7547150" lon="-8.8614150">
        <ele>67.0</ele>
        <time>2019-08-16T09:56:23Z</time>
      </trkpt>
      <trkpt lat="41.7547540" lon="-8.8614190">
        <ele>66.6</ele>
        <time>2019-08-16T09:56:24Z</time>
      </trkpt>
      <trkpt lat="41.7547900" lon="-8.8614200">
        <ele>66.0</ele>
        <time>2019-08-16T09:56:25Z</time>
      </trkpt>
      <trkpt lat="41.7548290" lon="-8.8614180">
        <ele>65.6</ele>
        <time>2019-08-16T09:56:26Z</time>
      </trkpt>
      <trkpt lat="41.7548660" lon="-8.8614130">
        <ele>65.2</ele>
        <time>2019-08-16T09:56:27Z</time>
      </trkpt>
      <trkpt lat="41.7549960" lon="-8.8613460">
        <ele>65.2</ele>
        <time>2019-08-16T09:56:31Z</time>
      </trkpt>
      <trkpt lat="41.7552030" lon="-8.8611940">
        <ele>65.2</ele>
        <time>2019-08-16T09:56:38Z</time>
      </trkpt>
      <trkpt lat="41.7553970" lon="-8.8610790">
        <ele>65.2</ele>
        <time>2019-08-16T09:56:45Z</time>
      </trkpt>
      <trkpt lat="41.7555480" lon="-8.8610170">
        <ele>65.2</ele>
        <time>2019-08-16T09:56:52Z</time>
      </trkpt>
      <trkpt lat="41.7557730" lon="-8.8609330">
        <ele>65.2</ele>
        <time>2019-08-16T09:57:01Z</time>
      </trkpt>
      <trkpt lat="41.7559040" lon="-8.8608610">
        <ele>65.2</ele>
        <time>2019-08-16T09:57:07Z</time>
      </trkpt>
      <trkpt lat="41.7561420" lon="-8.8606980">
        <ele>65.2</ele>
        <time>2019-08-16T09:57:16Z</time>
      </trkpt>
      <trkpt lat="41.7563280" lon="-8.8606720">
        <ele>65.2</ele>
        <time>2019-08-16T09:57:22Z</time>
      </trkpt>
      <trkpt lat="41.7565260" lon="-8.8607500">
        <ele>65.2</ele>
        <time>2019-08-16T09:57:29Z</time>
      </trkpt>
      <trkpt lat="41.7567180" lon="-8.8608430">
        <ele>66.0</ele>
        <time>2019-08-16T09:57:35Z</time>
      </trkpt>
      <trkpt lat="41.7567530" lon="-8.8608600">
        <ele>66.4</ele>
        <time>2019-08-16T09:57:36Z</time>
      </trkpt>
      <trkpt lat="41.7567910" lon="-8.8608740">
        <ele>66.8</ele>
        <time>2019-08-16T09:57:37Z</time>
      </trkpt>
      <trkpt lat="41.7568260" lon="-8.8608990">
        <ele>66.8</ele>
        <time>2019-08-16T09:57:38Z</time>
      </trkpt>
      <trkpt lat="41.7568610" lon="-8.8609250">
        <ele>67.2</ele>
        <time>2019-08-16T09:57:39Z</time>
      </trkpt>
      <trkpt lat="41.7569840" lon="-8.8609940">
        <ele>67.2</ele>
        <time>2019-08-16T09:57:42Z</time>
      </trkpt>
      <trkpt lat="41.7570660" lon="-8.8610300">
        <ele>67.2</ele>
        <time>2019-08-16T09:57:44Z</time>
      </trkpt>
      <trkpt lat="41.7572650" lon="-8.8611180">
        <ele>67.2</ele>
        <time>2019-08-16T09:57:49Z</time>
      </trkpt>
      <trkpt lat="41.7576080" lon="-8.8612140">
        <ele>67.2</ele>
        <time>2019-08-16T09:57:57Z</time>
      </trkpt>
      <trkpt lat="41.7576560" lon="-8.8612370">
        <ele>66.8</ele>
        <time>2019-08-16T09:57:58Z</time>
      </trkpt>
      <trkpt lat="41.7577080" lon="-8.8612500">
        <ele>66.4</ele>
        <time>2019-08-16T09:57:59Z</time>
      </trkpt>
      <trkpt lat="41.7577530" lon="-8.8612590">
        <ele>66.0</ele>
        <time>2019-08-16T09:58:00Z</time>
      </trkpt>
      <trkpt lat="41.7577990" lon="-8.8612640">
        <ele>65.6</ele>
        <time>2019-08-16T09:58:01Z</time>
      </trkpt>
      <trkpt lat="41.7578370" lon="-8.8612690">
        <ele>65.2</ele>
        <time>2019-08-16T09:58:02Z</time>
      </trkpt>
      <trkpt lat="41.7579020" lon="-8.8612490">
        <ele>65.2</ele>
        <time>2019-08-16T09:58:04Z</time>
      </trkpt>
      <trkpt lat="41.7580730" lon="-8.8612520">
        <ele>65.2</ele>
        <time>2019-08-16T09:58:09Z</time>
      </trkpt>
      <trkpt lat="41.7582240" lon="-8.8614220">
        <ele>65.2</ele>
        <time>2019-08-16T09:58:14Z</time>
      </trkpt>
      <trkpt lat="41.7582530" lon="-8.8614650">
        <ele>65.2</ele>
        <time>2019-08-16T09:58:15Z</time>
      </trkpt>
      <trkpt lat="41.7583250" lon="-8.8616470">
        <ele>65.2</ele>
        <time>2019-08-16T09:58:18Z</time>
      </trkpt>
      <trkpt lat="41.7583470" lon="-8.8617160">
        <ele>65.2</ele>
        <time>2019-08-16T09:58:19Z</time>
      </trkpt>
      <trkpt lat="41.7583680" lon="-8.8617710">
        <ele>64.6</ele>
        <time>2019-08-16T09:58:20Z</time>
      </trkpt>
      <trkpt lat="41.7583860" lon="-8.8618280">
        <ele>64.2</ele>
        <time>2019-08-16T09:58:21Z</time>
      </trkpt>
      <trkpt lat="41.7584120" lon="-8.8618760">
        <ele>63.8</ele>
        <time>2019-08-16T09:58:22Z</time>
      </trkpt>
      <trkpt lat="41.7584440" lon="-8.8619250">
        <ele>63.4</ele>
        <time>2019-08-16T09:58:23Z</time>
      </trkpt>
      <trkpt lat="41.7584800" lon="-8.8619640">
        <ele>63.0</ele>
        <time>2019-08-16T09:58:24Z</time>
      </trkpt>
      <trkpt lat="41.7586080" lon="-8.8620200">
        <ele>62.6</ele>
        <time>2019-08-16T09:58:27Z</time>
      </trkpt>
      <trkpt lat="41.7586430" lon="-8.8620250">
        <ele>62.2</ele>
        <time>2019-08-16T09:58:28Z</time>
      </trkpt>
      <trkpt lat="41.7586800" lon="-8.8620260">
        <ele>61.8</ele>
        <time>2019-08-16T09:58:29Z</time>
      </trkpt>
      <trkpt lat="41.7587160" lon="-8.8620260">
        <ele>61.8</ele>
        <time>2019-08-16T09:58:30Z</time>
      </trkpt>
      <trkpt lat="41.7587460" lon="-8.8620280">
        <ele>61.0</ele>
        <time>2019-08-16T09:58:31Z</time>
      </trkpt>
      <trkpt lat="41.7587630" lon="-8.8620270">
        <ele>61.0</ele>
        <time>2019-08-16T09:58:32Z</time>
      </trkpt>
      <trkpt lat="41.7589130" lon="-8.8620030">
        <ele>61.0</ele>
        <time>2019-08-16T09:58:36Z</time>
      </trkpt>
      <trkpt lat="41.7589930" lon="-8.8618080">
        <ele>61.0</ele>
        <time>2019-08-16T09:58:41Z</time>
      </trkpt>
      <trkpt lat="41.7590670" lon="-8.8617120">
        <ele>61.4</ele>
        <time>2019-08-16T09:58:45Z</time>
      </trkpt>
      <trkpt lat="41.7590940" lon="-8.8617000">
        <ele>61.8</ele>
        <time>2019-08-16T09:58:46Z</time>
      </trkpt>
      <trkpt lat="41.7591210" lon="-8.8616900">
        <ele>62.2</ele>
        <time>2019-08-16T09:58:47Z</time>
      </trkpt>
      <trkpt lat="41.7591450" lon="-8.8616780">
        <ele>62.6</ele>
        <time>2019-08-16T09:58:48Z</time>
      </trkpt>
      <trkpt lat="41.7591670" lon="-8.8616650">
        <ele>63.0</ele>
        <time>2019-08-16T09:58:49Z</time>
      </trkpt>
      <trkpt lat="41.7592490" lon="-8.8616420">
        <ele>63.0</ele>
        <time>2019-08-16T09:58:53Z</time>
      </trkpt>
      <trkpt lat="41.7593220" lon="-8.8616410">
        <ele>63.4</ele>
        <time>2019-08-16T09:58:56Z</time>
      </trkpt>
      <trkpt lat="41.7593520" lon="-8.8616440">
        <ele>63.8</ele>
        <time>2019-08-16T09:58:57Z</time>
      </trkpt>
      <trkpt lat="41.7593870" lon="-8.8616460">
        <ele>64.4</ele>
        <time>2019-08-16T09:58:58Z</time>
      </trkpt>
      <trkpt lat="41.7594230" lon="-8.8616460">
        <ele>64.8</ele>
        <time>2019-08-16T09:58:59Z</time>
      </trkpt>
      <trkpt lat="41.7594580" lon="-8.8616440">
        <ele>65.2</ele>
        <time>2019-08-16T09:59:00Z</time>
      </trkpt>
      <trkpt lat="41.7596380" lon="-8.8615520">
        <ele>65.2</ele>
        <time>2019-08-16T09:59:05Z</time>
      </trkpt>
      <trkpt lat="41.7598160" lon="-8.8612840">
        <ele>65.2</ele>
        <time>2019-08-16T09:59:12Z</time>
      </trkpt>
      <trkpt lat="41.7599160" lon="-8.8611720">
        <ele>65.6</ele>
        <time>2019-08-16T09:59:16Z</time>
      </trkpt>
      <trkpt lat="41.7599630" lon="-8.8611510">
        <ele>66.0</ele>
        <time>2019-08-16T09:59:18Z</time>
      </trkpt>
      <trkpt lat="41.7599930" lon="-8.8611650">
        <ele>66.4</ele>
        <time>2019-08-16T09:59:19Z</time>
      </trkpt>
      <trkpt lat="41.7600200" lon="-8.8611710">
        <ele>66.8</ele>
        <time>2019-08-16T09:59:20Z</time>
      </trkpt>
      <trkpt lat="41.7600470" lon="-8.8611670">
        <ele>67.2</ele>
        <time>2019-08-16T09:59:21Z</time>
      </trkpt>
      <trkpt lat="41.7602480" lon="-8.8610220">
        <ele>67.2</ele>
        <time>2019-08-16T09:59:26Z</time>
      </trkpt>
      <trkpt lat="41.7604390" lon="-8.8607400">
        <ele>67.2</ele>
        <time>2019-08-16T09:59:33Z</time>
      </trkpt>
      <trkpt lat="41.7605680" lon="-8.8605190">
        <ele>66.8</ele>
        <time>2019-08-16T09:59:38Z</time>
      </trkpt>
      <trkpt lat="41.7605870" lon="-8.8604730">
        <ele>66.4</ele>
        <time>2019-08-16T09:59:39Z</time>
      </trkpt>
      <trkpt lat="41.7606110" lon="-8.8604320">
        <ele>66.0</ele>
        <time>2019-08-16T09:59:40Z</time>
      </trkpt>
      <trkpt lat="41.7606270" lon="-8.8603980">
        <ele>65.6</ele>
        <time>2019-08-16T09:59:41Z</time>
      </trkpt>
      <trkpt lat="41.7606430" lon="-8.8603630">
        <ele>65.2</ele>
        <time>2019-08-16T09:59:42Z</time>
      </trkpt>
      <trkpt lat="41.7606840" lon="-8.8602990">
        <ele>65.2</ele>
        <time>2019-08-16T09:59:44Z</time>
      </trkpt>
      <trkpt lat="41.7607900" lon="-8.8602260">
        <ele>65.2</ele>
        <time>2019-08-16T09:59:48Z</time>
      </trkpt>
      <trkpt lat="41.7610200" lon="-8.8602310">
        <ele>65.2</ele>
        <time>2019-08-16T09:59:54Z</time>
      </trkpt>
      <trkpt lat="41.7613470" lon="-8.8602090">
        <ele>65.2</ele>
        <time>2019-08-16T10:00:02Z</time>
      </trkpt>
      <trkpt lat="41.7616860" lon="-8.8601740">
        <ele>65.2</ele>
        <time>2019-08-16T10:00:10Z</time>
      </trkpt>
      <trkpt lat="41.7617320" lon="-8.8601660">
        <ele>64.8</ele>
        <time>2019-08-16T10:00:11Z</time>
      </trkpt>
      <trkpt lat="41.7617720" lon="-8.8601530">
        <ele>64.4</ele>
        <time>2019-08-16T10:00:12Z</time>
      </trkpt>
      <trkpt lat="41.7618050" lon="-8.8601340">
        <ele>64.0</ele>
        <time>2019-08-16T10:00:13Z</time>
      </trkpt>
      <trkpt lat="41.7618360" lon="-8.8601150">
        <ele>63.4</ele>
        <time>2019-08-16T10:00:14Z</time>
      </trkpt>
      <trkpt lat="41.7618700" lon="-8.8600980">
        <ele>63.0</ele>
        <time>2019-08-16T10:00:15Z</time>
      </trkpt>
      <trkpt lat="41.7620480" lon="-8.8600400">
        <ele>63.0</ele>
        <time>2019-08-16T10:00:22Z</time>
      </trkpt>
      <trkpt lat="41.7621540" lon="-8.8599940">
        <ele>63.0</ele>
        <time>2019-08-16T10:00:28Z</time>
      </trkpt>
      <trkpt lat="41.7622830" lon="-8.8599710">
        <ele>63.0</ele>
        <time>2019-08-16T10:00:35Z</time>
      </trkpt>
      <trkpt lat="41.7624460" lon="-8.8599610">
        <ele>63.0</ele>
        <time>2019-08-16T10:00:42Z</time>
      </trkpt>
      <trkpt lat="41.7625270" lon="-8.8599280">
        <ele>62.6</ele>
        <time>2019-08-16T10:00:45Z</time>
      </trkpt>
      <trkpt lat="41.7625510" lon="-8.8599190">
        <ele>62.2</ele>
        <time>2019-08-16T10:00:46Z</time>
      </trkpt>
      <trkpt lat="41.7625720" lon="-8.8599130">
        <ele>61.6</ele>
        <time>2019-08-16T10:00:47Z</time>
      </trkpt>
      <trkpt lat="41.7625940" lon="-8.8599080">
        <ele>61.2</ele>
        <time>2019-08-16T10:00:48Z</time>
      </trkpt>
      <trkpt lat="41.7626130" lon="-8.8598950">
        <ele>60.8</ele>
        <time>2019-08-16T10:00:49Z</time>
      </trkpt>
      <trkpt lat="41.7626560" lon="-8.8598680">
        <ele>60.8</ele>
        <time>2019-08-16T10:00:51Z</time>
      </trkpt>
      <trkpt lat="41.7628300" lon="-8.8598200">
        <ele>60.8</ele>
        <time>2019-08-16T10:00:58Z</time>
      </trkpt>
      <trkpt lat="41.7629310" lon="-8.8598390">
        <ele>60.8</ele>
        <time>2019-08-16T10:01:03Z</time>
      </trkpt>
      <trkpt lat="41.7629580" lon="-8.8598520">
        <ele>60.8</ele>
        <time>2019-08-16T10:01:04Z</time>
      </trkpt>
      <trkpt lat="41.7630820" lon="-8.8598960">
        <ele>60.8</ele>
        <time>2019-08-16T10:01:08Z</time>
      </trkpt>
      <trkpt lat="41.7631000" lon="-8.8599010">
        <ele>60.4</ele>
        <time>2019-08-16T10:01:09Z</time>
      </trkpt>
      <trkpt lat="41.7631210" lon="-8.8599110">
        <ele>59.8</ele>
        <time>2019-08-16T10:01:10Z</time>
      </trkpt>
      <trkpt lat="41.7631380" lon="-8.8599200">
        <ele>59.4</ele>
        <time>2019-08-16T10:01:11Z</time>
      </trkpt>
      <trkpt lat="41.7631600" lon="-8.8599280">
        <ele>59.0</ele>
        <time>2019-08-16T10:01:12Z</time>
      </trkpt>
      <trkpt lat="41.7631780" lon="-8.8599330">
        <ele>58.6</ele>
        <time>2019-08-16T10:01:13Z</time>
      </trkpt>
      <trkpt lat="41.7632160" lon="-8.8599330">
        <ele>58.6</ele>
        <time>2019-08-16T10:01:15Z</time>
      </trkpt>
      <trkpt lat="41.7632700" lon="-8.8599370">
        <ele>59.0</ele>
        <time>2019-08-16T10:01:19Z</time>
      </trkpt>
      <trkpt lat="41.7632870" lon="-8.8599380">
        <ele>59.6</ele>
        <time>2019-08-16T10:01:20Z</time>
      </trkpt>
      <trkpt lat="41.7633070" lon="-8.8599450">
        <ele>60.0</ele>
        <time>2019-08-16T10:01:21Z</time>
      </trkpt>
      <trkpt lat="41.7633320" lon="-8.8599530">
        <ele>60.4</ele>
        <time>2019-08-16T10:01:22Z</time>
      </trkpt>
      <trkpt lat="41.7633530" lon="-8.8599550">
        <ele>60.8</ele>
        <time>2019-08-16T10:01:23Z</time>
      </trkpt>
      <trkpt lat="41.7633660" lon="-8.8599550">
        <ele>60.8</ele>
        <time>2019-08-16T10:01:24Z</time>
      </trkpt>
      <trkpt lat="41.7634690" lon="-8.8600120">
        <ele>60.8</ele>
        <time>2019-08-16T10:01:30Z</time>
      </trkpt>
      <trkpt lat="41.7635460" lon="-8.8600410">
        <ele>61.2</ele>
        <time>2019-08-16T10:01:35Z</time>
      </trkpt>
      <trkpt lat="41.7635640" lon="-8.8600510">
        <ele>61.6</ele>
        <time>2019-08-16T10:01:36Z</time>
      </trkpt>
      <trkpt lat="41.7635800" lon="-8.8600570">
        <ele>62.0</ele>
        <time>2019-08-16T10:01:37Z</time>
      </trkpt>
      <trkpt lat="41.7636000" lon="-8.8600700">
        <ele>62.4</ele>
        <time>2019-08-16T10:01:38Z</time>
      </trkpt>
      <trkpt lat="41.7636170" lon="-8.8600750">
        <ele>62.8</ele>
        <time>2019-08-16T10:01:39Z</time>
      </trkpt>
      <trkpt lat="41.7636950" lon="-8.8600970">
        <ele>62.8</ele>
        <time>2019-08-16T10:01:44Z</time>
      </trkpt>
      <trkpt lat="41.7638990" lon="-8.8601370">
        <ele>62.8</ele>
        <time>2019-08-16T10:01:51Z</time>
      </trkpt>
      <trkpt lat="41.7640360" lon="-8.8601680">
        <ele>62.8</ele>
        <time>2019-08-16T10:01:57Z</time>
      </trkpt>
      <trkpt lat="41.7642460" lon="-8.8600930">
        <ele>62.8</ele>
        <time>2019-08-16T10:02:05Z</time>
      </trkpt>
      <trkpt lat="41.7644940" lon="-8.8599110">
        <ele>62.8</ele>
        <time>2019-08-16T10:02:15Z</time>
      </trkpt>
      <trkpt lat="41.7645740" lon="-8.8598110">
        <ele>62.8</ele>
        <time>2019-08-16T10:02:22Z</time>
      </trkpt>
      <trkpt lat="41.7646290" lon="-8.8597540">
        <ele>63.2</ele>
        <time>2019-08-16T10:02:26Z</time>
      </trkpt>
      <trkpt lat="41.7646420" lon="-8.8597550">
        <ele>63.8</ele>
        <time>2019-08-16T10:02:27Z</time>
      </trkpt>
      <trkpt lat="41.7646600" lon="-8.8597510">
        <ele>64.2</ele>
        <time>2019-08-16T10:02:28Z</time>
      </trkpt>
      <trkpt lat="41.7646710" lon="-8.8597440">
        <ele>64.6</ele>
        <time>2019-08-16T10:02:29Z</time>
      </trkpt>
      <trkpt lat="41.7646820" lon="-8.8597340">
        <ele>65.0</ele>
        <time>2019-08-16T10:02:30Z</time>
      </trkpt>
      <trkpt lat="41.7647040" lon="-8.8597130">
        <ele>65.0</ele>
        <time>2019-08-16T10:02:32Z</time>
      </trkpt>
      <trkpt lat="41.7648430" lon="-8.8595930">
        <ele>65.0</ele>
        <time>2019-08-16T10:02:41Z</time>
      </trkpt>
      <trkpt lat="41.7649850" lon="-8.8594580">
        <ele>65.0</ele>
        <time>2019-08-16T10:02:49Z</time>
      </trkpt>
      <trkpt lat="41.7650780" lon="-8.8593460">
        <ele>65.0</ele>
        <time>2019-08-16T10:02:54Z</time>
      </trkpt>
      <trkpt lat="41.7651800" lon="-8.8591730">
        <ele>65.0</ele>
        <time>2019-08-16T10:03:01Z</time>
      </trkpt>
      <trkpt lat="41.7651960" lon="-8.8591530">
        <ele>65.4</ele>
        <time>2019-08-16T10:03:02Z</time>
      </trkpt>
      <trkpt lat="41.7652120" lon="-8.8591300">
        <ele>65.8</ele>
        <time>2019-08-16T10:03:03Z</time>
      </trkpt>
      <trkpt lat="41.7652240" lon="-8.8591070">
        <ele>66.4</ele>
        <time>2019-08-16T10:03:04Z</time>
      </trkpt>
      <trkpt lat="41.7652360" lon="-8.8590830">
        <ele>66.8</ele>
        <time>2019-08-16T10:03:05Z</time>
      </trkpt>
      <trkpt lat="41.7652470" lon="-8.8590580">
        <ele>67.2</ele>
        <time>2019-08-16T10:03:06Z</time>
      </trkpt>
      <trkpt lat="41.7652790" lon="-8.8590090">
        <ele>67.2</ele>
        <time>2019-08-16T10:03:08Z</time>
      </trkpt>
      <trkpt lat="41.7654200" lon="-8.8589250">
        <ele>67.2</ele>
        <time>2019-08-16T10:03:12Z</time>
      </trkpt>
      <trkpt lat="41.7654730" lon="-8.8588840">
        <ele>66.8</ele>
        <time>2019-08-16T10:03:14Z</time>
      </trkpt>
      <trkpt lat="41.7654930" lon="-8.8588610">
        <ele>66.4</ele>
        <time>2019-08-16T10:03:15Z</time>
      </trkpt>
      <trkpt lat="41.7655160" lon="-8.8588430">
        <ele>66.0</ele>
        <time>2019-08-16T10:03:16Z</time>
      </trkpt>
      <trkpt lat="41.7655400" lon="-8.8588280">
        <ele>65.6</ele>
        <time>2019-08-16T10:03:17Z</time>
      </trkpt>
      <trkpt lat="41.7655540" lon="-8.8588140">
        <ele>65.2</ele>
        <time>2019-08-16T10:03:18Z</time>
      </trkpt>
      <trkpt lat="41.7656450" lon="-8.8587180">
        <ele>64.8</ele>
        <time>2019-08-16T10:03:23Z</time>
      </trkpt>
      <trkpt lat="41.7656560" lon="-8.8587020">
        <ele>64.4</ele>
        <time>2019-08-16T10:03:24Z</time>
      </trkpt>
      <trkpt lat="41.7656650" lon="-8.8586790">
        <ele>64.0</ele>
        <time>2019-08-16T10:03:25Z</time>
      </trkpt>
      <trkpt lat="41.7656750" lon="-8.8586560">
        <ele>63.6</ele>
        <time>2019-08-16T10:03:26Z</time>
      </trkpt>
      <trkpt lat="41.7656790" lon="-8.8586320">
        <ele>63.2</ele>
        <time>2019-08-16T10:03:27Z</time>
      </trkpt>
      <trkpt lat="41.7656870" lon="-8.8585810">
        <ele>63.2</ele>
        <time>2019-08-16T10:03:29Z</time>
      </trkpt>
      <trkpt lat="41.7657140" lon="-8.8584120">
        <ele>62.8</ele>
        <time>2019-08-16T10:03:35Z</time>
      </trkpt>
      <trkpt lat="41.7657160" lon="-8.8583880">
        <ele>62.4</ele>
        <time>2019-08-16T10:03:36Z</time>
      </trkpt>
      <trkpt lat="41.7657230" lon="-8.8583590">
        <ele>61.8</ele>
        <time>2019-08-16T10:03:37Z</time>
      </trkpt>
      <trkpt lat="41.7657290" lon="-8.8583290">
        <ele>61.4</ele>
        <time>2019-08-16T10:03:38Z</time>
      </trkpt>
      <trkpt lat="41.7657370" lon="-8.8583030">
        <ele>61.0</ele>
        <time>2019-08-16T10:03:39Z</time>
      </trkpt>
      <trkpt lat="41.7657490" lon="-8.8582820">
        <ele>61.0</ele>
        <time>2019-08-16T10:03:40Z</time>
      </trkpt>
      <trkpt lat="41.7658310" lon="-8.8581500">
        <ele>61.0</ele>
        <time>2019-08-16T10:03:45Z</time>
      </trkpt>
      <trkpt lat="41.7659520" lon="-8.8580210">
        <ele>61.0</ele>
        <time>2019-08-16T10:03:52Z</time>
      </trkpt>
      <trkpt lat="41.7660370" lon="-8.8578990">
        <ele>61.0</ele>
        <time>2019-08-16T10:03:58Z</time>
      </trkpt>
      <trkpt lat="41.7660560" lon="-8.8578520">
        <ele>61.0</ele>
        <time>2019-08-16T10:04:00Z</time>
      </trkpt>
      <trkpt lat="41.7660850" lon="-8.8577890">
        <ele>61.0</ele>
        <time>2019-08-16T10:04:03Z</time>
      </trkpt>
      <trkpt lat="41.7661070" lon="-8.8577750">
        <ele>61.4</ele>
        <time>2019-08-16T10:04:05Z</time>
      </trkpt>
      <trkpt lat="41.7661150" lon="-8.8577600">
        <ele>61.8</ele>
        <time>2019-08-16T10:04:06Z</time>
      </trkpt>
      <trkpt lat="41.7661230" lon="-8.8577560">
        <ele>62.2</ele>
        <time>2019-08-16T10:04:07Z</time>
      </trkpt>
      <trkpt lat="41.7661320" lon="-8.8577500">
        <ele>62.6</ele>
        <time>2019-08-16T10:04:08Z</time>
      </trkpt>
      <trkpt lat="41.7661430" lon="-8.8577410">
        <ele>63.0</ele>
        <time>2019-08-16T10:04:09Z</time>
      </trkpt>
      <trkpt lat="41.7661940" lon="-8.8577450">
        <ele>63.0</ele>
        <time>2019-08-16T10:04:12Z</time>
      </trkpt>
      <trkpt lat="41.7662400" lon="-8.8577360">
        <ele>63.0</ele>
        <time>2019-08-16T10:04:14Z</time>
      </trkpt>
      <trkpt lat="41.7662990" lon="-8.8577040">
        <ele>63.6</ele>
        <time>2019-08-16T10:04:17Z</time>
      </trkpt>
      <trkpt lat="41.7663180" lon="-8.8577040">
        <ele>64.0</ele>
        <time>2019-08-16T10:04:18Z</time>
      </trkpt>
      <trkpt lat="41.7663320" lon="-8.8576990">
        <ele>64.4</ele>
        <time>2019-08-16T10:04:19Z</time>
      </trkpt>
      <trkpt lat="41.7663490" lon="-8.8576920">
        <ele>64.8</ele>
        <time>2019-08-16T10:04:20Z</time>
      </trkpt>
      <trkpt lat="41.7663880" lon="-8.8576670">
        <ele>65.4</ele>
        <time>2019-08-16T10:04:21Z</time>
      </trkpt>
      <trkpt lat="41.7664050" lon="-8.8576570">
        <ele>65.4</ele>
        <time>2019-08-16T10:04:22Z</time>
      </trkpt>
      <trkpt lat="41.7665690" lon="-8.8575800">
        <ele>65.8</ele>
        <time>2019-08-16T10:04:31Z</time>
      </trkpt>
      <trkpt lat="41.7665810" lon="-8.8575780">
        <ele>66.2</ele>
        <time>2019-08-16T10:04:32Z</time>
      </trkpt>
      <trkpt lat="41.7665970" lon="-8.8575820">
        <ele>66.6</ele>
        <time>2019-08-16T10:04:33Z</time>
      </trkpt>
      <trkpt lat="41.7666180" lon="-8.8575760">
        <ele>67.0</ele>
        <time>2019-08-16T10:04:34Z</time>
      </trkpt>
      <trkpt lat="41.7666410" lon="-8.8575680">
        <ele>67.4</ele>
        <time>2019-08-16T10:04:35Z</time>
      </trkpt>
      <trkpt lat="41.7667360" lon="-8.8575000">
        <ele>67.4</ele>
        <time>2019-08-16T10:04:39Z</time>
      </trkpt>
      <trkpt lat="41.7668690" lon="-8.8573680">
        <ele>67.4</ele>
        <time>2019-08-16T10:04:46Z</time>
      </trkpt>
      <trkpt lat="41.7669050" lon="-8.8573260">
        <ele>67.8</ele>
        <time>2019-08-16T10:04:48Z</time>
      </trkpt>
      <trkpt lat="41.7669180" lon="-8.8573020">
        <ele>68.2</ele>
        <time>2019-08-16T10:04:49Z</time>
      </trkpt>
      <trkpt lat="41.7669310" lon="-8.8572850">
        <ele>68.8</ele>
        <time>2019-08-16T10:04:50Z</time>
      </trkpt>
      <trkpt lat="41.7669430" lon="-8.8572680">
        <ele>69.2</ele>
        <time>2019-08-16T10:04:51Z</time>
      </trkpt>
      <trkpt lat="41.7669510" lon="-8.8572590">
        <ele>69.6</ele>
        <time>2019-08-16T10:04:52Z</time>
      </trkpt>
      <trkpt lat="41.7669670" lon="-8.8572500">
        <ele>69.6</ele>
        <time>2019-08-16T10:04:54Z</time>
      </trkpt>
      <trkpt lat="41.7669670" lon="-8.8572540">
        <ele>69.6</ele>
        <time>2019-08-16T10:04:55Z</time>
      </trkpt>
      <trkpt lat="41.7669740" lon="-8.8572460">
        <ele>69.6</ele>
        <time>2019-08-16T10:05:26Z</time>
      </trkpt>
      <trkpt lat="41.7670000" lon="-8.8572220">
        <ele>69.6</ele>
        <time>2019-08-16T10:05:28Z</time>
      </trkpt>
      <trkpt lat="41.7670760" lon="-8.8571820">
        <ele>69.2</ele>
        <time>2019-08-16T10:05:31Z</time>
      </trkpt>
      <trkpt lat="41.7671020" lon="-8.8571470">
        <ele>68.8</ele>
        <time>2019-08-16T10:05:32Z</time>
      </trkpt>
      <trkpt lat="41.7671170" lon="-8.8571050">
        <ele>68.4</ele>
        <time>2019-08-16T10:05:33Z</time>
      </trkpt>
      <trkpt lat="41.7671310" lon="-8.8570660">
        <ele>68.0</ele>
        <time>2019-08-16T10:05:34Z</time>
      </trkpt>
      <trkpt lat="41.7671430" lon="-8.8570020">
        <ele>67.6</ele>
        <time>2019-08-16T10:05:36Z</time>
      </trkpt>
      <trkpt lat="41.7671590" lon="-8.8569440">
        <ele>67.6</ele>
        <time>2019-08-16T10:05:38Z</time>
      </trkpt>
      <trkpt lat="41.7671730" lon="-8.8568510">
        <ele>67.6</ele>
        <time>2019-08-16T10:05:41Z</time>
      </trkpt>
      <trkpt lat="41.7671610" lon="-8.8567910">
        <ele>67.6</ele>
        <time>2019-08-16T10:05:43Z</time>
      </trkpt>
      <trkpt lat="41.7671830" lon="-8.8566560">
        <ele>68.0</ele>
        <time>2019-08-16T10:05:48Z</time>
      </trkpt>
      <trkpt lat="41.7671860" lon="-8.8566330">
        <ele>68.4</ele>
        <time>2019-08-16T10:05:49Z</time>
      </trkpt>
      <trkpt lat="41.7671910" lon="-8.8566050">
        <ele>68.8</ele>
        <time>2019-08-16T10:05:50Z</time>
      </trkpt>
      <trkpt lat="41.7671960" lon="-8.8565820">
        <ele>69.2</ele>
        <time>2019-08-16T10:05:51Z</time>
      </trkpt>
      <trkpt lat="41.7672020" lon="-8.8565560">
        <ele>69.6</ele>
        <time>2019-08-16T10:05:52Z</time>
      </trkpt>
      <trkpt lat="41.7672640" lon="-8.8563700">
        <ele>69.6</ele>
        <time>2019-08-16T10:05:59Z</time>
      </trkpt>
      <trkpt lat="41.7673570" lon="-8.8561190">
        <ele>69.6</ele>
        <time>2019-08-16T10:06:04Z</time>
      </trkpt>
      <trkpt lat="41.7674080" lon="-8.8558510">
        <ele>69.6</ele>
        <time>2019-08-16T10:06:12Z</time>
      </trkpt>
      <trkpt lat="41.7673740" lon="-8.8558210">
        <ele>69.6</ele>
        <time>2019-08-16T10:06:14Z</time>
      </trkpt>
      <trkpt lat="41.7673390" lon="-8.8557790">
        <ele>69.6</ele>
        <time>2019-08-16T10:06:16Z</time>
      </trkpt>
      <trkpt lat="41.7672650" lon="-8.8557000">
        <ele>69.6</ele>
        <time>2019-08-16T10:06:22Z</time>
      </trkpt>
      <trkpt lat="41.7672260" lon="-8.8556490">
        <ele>69.6</ele>
        <time>2019-08-16T10:06:25Z</time>
      </trkpt>
      <trkpt lat="41.7671850" lon="-8.8555840">
        <ele>70.0</ele>
        <time>2019-08-16T10:06:29Z</time>
      </trkpt>
      <trkpt lat="41.7671760" lon="-8.8555640">
        <ele>70.4</ele>
        <time>2019-08-16T10:06:30Z</time>
      </trkpt>
      <trkpt lat="41.7671850" lon="-8.8555450">
        <ele>70.8</ele>
        <time>2019-08-16T10:06:31Z</time>
      </trkpt>
      <trkpt lat="41.7671850" lon="-8.8555090">
        <ele>71.4</ele>
        <time>2019-08-16T10:06:32Z</time>
      </trkpt>
      <trkpt lat="41.7671880" lon="-8.8554770">
        <ele>71.8</ele>
        <time>2019-08-16T10:06:33Z</time>
      </trkpt>
      <trkpt lat="41.7671870" lon="-8.8553160">
        <ele>71.8</ele>
        <time>2019-08-16T10:06:40Z</time>
      </trkpt>
      <trkpt lat="41.7671520" lon="-8.8551710">
        <ele>72.2</ele>
        <time>2019-08-16T10:06:46Z</time>
      </trkpt>
      <trkpt lat="41.7671440" lon="-8.8551490">
        <ele>72.8</ele>
        <time>2019-08-16T10:06:47Z</time>
      </trkpt>
      <trkpt lat="41.7671380" lon="-8.8551300">
        <ele>73.2</ele>
        <time>2019-08-16T10:06:48Z</time>
      </trkpt>
      <trkpt lat="41.7671300" lon="-8.8551080">
        <ele>73.8</ele>
        <time>2019-08-16T10:06:49Z</time>
      </trkpt>
      <trkpt lat="41.7671260" lon="-8.8550880">
        <ele>74.2</ele>
        <time>2019-08-16T10:06:50Z</time>
      </trkpt>
      <trkpt lat="41.7670890" lon="-8.8550120">
        <ele>74.2</ele>
        <time>2019-08-16T10:06:55Z</time>
      </trkpt>
      <trkpt lat="41.7670710" lon="-8.8549830">
        <ele>74.6</ele>
        <time>2019-08-16T10:06:57Z</time>
      </trkpt>
      <trkpt lat="41.7670620" lon="-8.8549700">
        <ele>75.2</ele>
        <time>2019-08-16T10:06:58Z</time>
      </trkpt>
      <trkpt lat="41.7670550" lon="-8.8549470">
        <ele>75.6</ele>
        <time>2019-08-16T10:06:59Z</time>
      </trkpt>
      <trkpt lat="41.7670470" lon="-8.8549250">
        <ele>76.0</ele>
        <time>2019-08-16T10:07:00Z</time>
      </trkpt>
      <trkpt lat="41.7670410" lon="-8.8549090">
        <ele>76.6</ele>
        <time>2019-08-16T10:07:01Z</time>
      </trkpt>
      <trkpt lat="41.7670170" lon="-8.8547720">
        <ele>76.6</ele>
        <time>2019-08-16T10:07:06Z</time>
      </trkpt>
      <trkpt lat="41.7670020" lon="-8.8547580">
        <ele>77.0</ele>
        <time>2019-08-16T10:07:07Z</time>
      </trkpt>
      <trkpt lat="41.7669900" lon="-8.8547420">
        <ele>77.6</ele>
        <time>2019-08-16T10:07:08Z</time>
      </trkpt>
      <trkpt lat="41.7669790" lon="-8.8547230">
        <ele>78.0</ele>
        <time>2019-08-16T10:07:09Z</time>
      </trkpt>
      <trkpt lat="41.7669680" lon="-8.8547050">
        <ele>78.6</ele>
        <time>2019-08-16T10:07:10Z</time>
      </trkpt>
      <trkpt lat="41.7669570" lon="-8.8546850">
        <ele>79.0</ele>
        <time>2019-08-16T10:07:11Z</time>
      </trkpt>
      <trkpt lat="41.7669460" lon="-8.8545920">
        <ele>79.0</ele>
        <time>2019-08-16T10:07:15Z</time>
      </trkpt>
      <trkpt lat="41.7669990" lon="-8.8544470">
        <ele>79.0</ele>
        <time>2019-08-16T10:07:20Z</time>
      </trkpt>
      <trkpt lat="41.7670730" lon="-8.8543590">
        <ele>79.0</ele>
        <time>2019-08-16T10:07:25Z</time>
      </trkpt>
      <trkpt lat="41.7671550" lon="-8.8543000">
        <ele>78.6</ele>
        <time>2019-08-16T10:07:30Z</time>
      </trkpt>
      <trkpt lat="41.7671760" lon="-8.8542830">
        <ele>78.0</ele>
        <time>2019-08-16T10:07:31Z</time>
      </trkpt>
      <trkpt lat="41.7671920" lon="-8.8542640">
        <ele>77.6</ele>
        <time>2019-08-16T10:07:32Z</time>
      </trkpt>
      <trkpt lat="41.7672110" lon="-8.8542440">
        <ele>77.2</ele>
        <time>2019-08-16T10:07:33Z</time>
      </trkpt>
      <trkpt lat="41.7672360" lon="-8.8542230">
        <ele>76.8</ele>
        <time>2019-08-16T10:07:34Z</time>
      </trkpt>
      <trkpt lat="41.7673350" lon="-8.8541390">
        <ele>76.2</ele>
        <time>2019-08-16T10:07:38Z</time>
      </trkpt>
      <trkpt lat="41.7673520" lon="-8.8541280">
        <ele>75.8</ele>
        <time>2019-08-16T10:07:39Z</time>
      </trkpt>
      <trkpt lat="41.7673640" lon="-8.8541200">
        <ele>75.4</ele>
        <time>2019-08-16T10:07:40Z</time>
      </trkpt>
      <trkpt lat="41.7673710" lon="-8.8541100">
        <ele>75.0</ele>
        <time>2019-08-16T10:07:41Z</time>
      </trkpt>
      <trkpt lat="41.7673780" lon="-8.8541010">
        <ele>74.4</ele>
        <time>2019-08-16T10:07:42Z</time>
      </trkpt>
      <trkpt lat="41.7674130" lon="-8.8540600">
        <ele>74.4</ele>
        <time>2019-08-16T10:07:45Z</time>
      </trkpt>
      <trkpt lat="41.7674290" lon="-8.8540490">
        <ele>74.0</ele>
        <time>2019-08-16T10:07:46Z</time>
      </trkpt>
      <trkpt lat="41.7674400" lon="-8.8540420">
        <ele>73.6</ele>
        <time>2019-08-16T10:07:47Z</time>
      </trkpt>
      <trkpt lat="41.7674640" lon="-8.8540400">
        <ele>73.2</ele>
        <time>2019-08-16T10:07:48Z</time>
      </trkpt>
      <trkpt lat="41.7674920" lon="-8.8540250">
        <ele>72.8</ele>
        <time>2019-08-16T10:07:49Z</time>
      </trkpt>
      <trkpt lat="41.7675140" lon="-8.8540100">
        <ele>72.2</ele>
        <time>2019-08-16T10:07:50Z</time>
      </trkpt>
      <trkpt lat="41.7675280" lon="-8.8540010">
        <ele>72.2</ele>
        <time>2019-08-16T10:07:51Z</time>
      </trkpt>
      <trkpt lat="41.7675790" lon="-8.8539900">
        <ele>71.8</ele>
        <time>2019-08-16T10:07:53Z</time>
      </trkpt>
      <trkpt lat="41.7675960" lon="-8.8539860">
        <ele>71.4</ele>
        <time>2019-08-16T10:07:54Z</time>
      </trkpt>
      <trkpt lat="41.7676060" lon="-8.8539790">
        <ele>71.0</ele>
        <time>2019-08-16T10:07:55Z</time>
      </trkpt>
      <trkpt lat="41.7676510" lon="-8.8539550">
        <ele>70.2</ele>
        <time>2019-08-16T10:13:51Z</time>
      </trkpt>
      <trkpt lat="41.7676550" lon="-8.8539290">
        <ele>70.2</ele>
        <time>2019-08-16T10:13:52Z</time>
      </trkpt>
      <trkpt lat="41.7676470" lon="-8.8538110">
        <ele>69.8</ele>
        <time>2019-08-16T10:13:54Z</time>
      </trkpt>
      <trkpt lat="41.7676500" lon="-8.8537460">
        <ele>69.4</ele>
        <time>2019-08-16T10:13:55Z</time>
      </trkpt>
      <trkpt lat="41.7676540" lon="-8.8536740">
        <ele>69.0</ele>
        <time>2019-08-16T10:13:56Z</time>
      </trkpt>
      <trkpt lat="41.7676610" lon="-8.8536070">
        <ele>68.6</ele>
        <time>2019-08-16T10:13:57Z</time>
      </trkpt>
      <trkpt lat="41.7676630" lon="-8.8535390">
        <ele>68.2</ele>
        <time>2019-08-16T10:13:58Z</time>
      </trkpt>
      <trkpt lat="41.7676500" lon="-8.8534730">
        <ele>68.2</ele>
        <time>2019-08-16T10:13:59Z</time>
      </trkpt>
      <trkpt lat="41.7676390" lon="-8.8534160">
        <ele>68.2</ele>
        <time>2019-08-16T10:14:00Z</time>
      </trkpt>
      <trkpt lat="41.7676520" lon="-8.8532750">
        <ele>68.2</ele>
        <time>2019-08-16T10:14:04Z</time>
      </trkpt>
      <trkpt lat="41.7675770" lon="-8.8531080">
        <ele>68.2</ele>
        <time>2019-08-16T10:14:12Z</time>
      </trkpt>
      <trkpt lat="41.7675310" lon="-8.8530130">
        <ele>68.6</ele>
        <time>2019-08-16T10:14:17Z</time>
      </trkpt>
      <trkpt lat="41.7675250" lon="-8.8529970">
        <ele>69.0</ele>
        <time>2019-08-16T10:14:18Z</time>
      </trkpt>
      <trkpt lat="41.7675140" lon="-8.8529770">
        <ele>69.4</ele>
        <time>2019-08-16T10:14:19Z</time>
      </trkpt>
      <trkpt lat="41.7675050" lon="-8.8529560">
        <ele>69.8</ele>
        <time>2019-08-16T10:14:20Z</time>
      </trkpt>
      <trkpt lat="41.7674960" lon="-8.8529380">
        <ele>70.2</ele>
        <time>2019-08-16T10:14:21Z</time>
      </trkpt>
      <trkpt lat="41.7674720" lon="-8.8528810">
        <ele>70.8</ele>
        <time>2019-08-16T10:14:24Z</time>
      </trkpt>
      <trkpt lat="41.7674680" lon="-8.8528560">
        <ele>71.2</ele>
        <time>2019-08-16T10:14:25Z</time>
      </trkpt>
      <trkpt lat="41.7674670" lon="-8.8528350">
        <ele>71.8</ele>
        <time>2019-08-16T10:14:26Z</time>
      </trkpt>
      <trkpt lat="41.7674660" lon="-8.8528150">
        <ele>72.2</ele>
        <time>2019-08-16T10:14:27Z</time>
      </trkpt>
      <trkpt lat="41.7674590" lon="-8.8527940">
        <ele>72.6</ele>
        <time>2019-08-16T10:14:28Z</time>
      </trkpt>
      <trkpt lat="41.7674590" lon="-8.8527730">
        <ele>72.6</ele>
        <time>2019-08-16T10:14:29Z</time>
      </trkpt>
      <trkpt lat="41.7674490" lon="-8.8527280">
        <ele>73.0</ele>
        <time>2019-08-16T10:14:32Z</time>
      </trkpt>
      <trkpt lat="41.7674500" lon="-8.8527080">
        <ele>73.6</ele>
        <time>2019-08-16T10:14:33Z</time>
      </trkpt>
      <trkpt lat="41.7674520" lon="-8.8526840">
        <ele>74.0</ele>
        <time>2019-08-16T10:14:34Z</time>
      </trkpt>
      <trkpt lat="41.7674530" lon="-8.8526630">
        <ele>74.4</ele>
        <time>2019-08-16T10:14:35Z</time>
      </trkpt>
      <trkpt lat="41.7674550" lon="-8.8526390">
        <ele>74.8</ele>
        <time>2019-08-16T10:14:36Z</time>
      </trkpt>
      <trkpt lat="41.7674740" lon="-8.8525400">
        <ele>75.2</ele>
        <time>2019-08-16T10:14:40Z</time>
      </trkpt>
      <trkpt lat="41.7674790" lon="-8.8525180">
        <ele>75.6</ele>
        <time>2019-08-16T10:14:41Z</time>
      </trkpt>
      <trkpt lat="41.7674820" lon="-8.8524950">
        <ele>76.2</ele>
        <time>2019-08-16T10:14:42Z</time>
      </trkpt>
      <trkpt lat="41.7674870" lon="-8.8524730">
        <ele>76.6</ele>
        <time>2019-08-16T10:14:43Z</time>
      </trkpt>
      <trkpt lat="41.7674940" lon="-8.8524480">
        <ele>77.0</ele>
        <time>2019-08-16T10:14:44Z</time>
      </trkpt>
      <trkpt lat="41.7675370" lon="-8.8523350">
        <ele>77.0</ele>
        <time>2019-08-16T10:14:49Z</time>
      </trkpt>
      <trkpt lat="41.7676150" lon="-8.8522020">
        <ele>77.4</ele>
        <time>2019-08-16T10:14:55Z</time>
      </trkpt>
      <trkpt lat="41.7676320" lon="-8.8521830">
        <ele>77.8</ele>
        <time>2019-08-16T10:14:56Z</time>
      </trkpt>
      <trkpt lat="41.7676480" lon="-8.8521640">
        <ele>78.2</ele>
        <time>2019-08-16T10:14:57Z</time>
      </trkpt>
      <trkpt lat="41.7676650" lon="-8.8521470">
        <ele>78.6</ele>
        <time>2019-08-16T10:14:58Z</time>
      </trkpt>
      <trkpt lat="41.7676860" lon="-8.8521270">
        <ele>79.0</ele>
        <time>2019-08-16T10:14:59Z</time>
      </trkpt>
      <trkpt lat="41.7677870" lon="-8.8520390">
        <ele>79.0</ele>
        <time>2019-08-16T10:15:04Z</time>
      </trkpt>
      <trkpt lat="41.7680280" lon="-8.8519930">
        <ele>79.0</ele>
        <time>2019-08-16T10:15:11Z</time>
      </trkpt>
      <trkpt lat="41.7680730" lon="-8.8519870">
        <ele>78.6</ele>
        <time>2019-08-16T10:15:12Z</time>
      </trkpt>
      <trkpt lat="41.7681170" lon="-8.8519790">
        <ele>78.2</ele>
        <time>2019-08-16T10:15:13Z</time>
      </trkpt>
      <trkpt lat="41.7681550" lon="-8.8519520">
        <ele>77.8</ele>
        <time>2019-08-16T10:15:14Z</time>
      </trkpt>
      <trkpt lat="41.7681910" lon="-8.8519160">
        <ele>77.4</ele>
        <time>2019-08-16T10:15:15Z</time>
      </trkpt>
      <trkpt lat="41.7682280" lon="-8.8518810">
        <ele>76.8</ele>
        <time>2019-08-16T10:15:16Z</time>
      </trkpt>
      <trkpt lat="41.7684830" lon="-8.8517100">
        <ele>76.8</ele>
        <time>2019-08-16T10:15:21Z</time>
      </trkpt>
      <trkpt lat="41.7686380" lon="-8.8516030">
        <ele>76.8</ele>
        <time>2019-08-16T10:15:25Z</time>
      </trkpt>
      <trkpt lat="41.7687990" lon="-8.8515260">
        <ele>76.4</ele>
        <time>2019-08-16T10:15:29Z</time>
      </trkpt>
      <trkpt lat="41.7688330" lon="-8.8515060">
        <ele>76.0</ele>
        <time>2019-08-16T10:15:30Z</time>
      </trkpt>
      <trkpt lat="41.7688650" lon="-8.8514830">
        <ele>75.6</ele>
        <time>2019-08-16T10:15:31Z</time>
      </trkpt>
      <trkpt lat="41.7688960" lon="-8.8514580">
        <ele>75.2</ele>
        <time>2019-08-16T10:15:32Z</time>
      </trkpt>
      <trkpt lat="41.7689270" lon="-8.8514280">
        <ele>74.8</ele>
        <time>2019-08-16T10:15:33Z</time>
      </trkpt>
      <trkpt lat="41.7690680" lon="-8.8513210">
        <ele>74.8</ele>
        <time>2019-08-16T10:15:38Z</time>
      </trkpt>
      <trkpt lat="41.7691520" lon="-8.8512580">
        <ele>74.4</ele>
        <time>2019-08-16T10:15:41Z</time>
      </trkpt>
      <trkpt lat="41.7691740" lon="-8.8512330">
        <ele>74.0</ele>
        <time>2019-08-16T10:15:42Z</time>
      </trkpt>
      <trkpt lat="41.7691910" lon="-8.8512090">
        <ele>73.6</ele>
        <time>2019-08-16T10:15:43Z</time>
      </trkpt>
      <trkpt lat="41.7692070" lon="-8.8511880">
        <ele>73.2</ele>
        <time>2019-08-16T10:15:44Z</time>
      </trkpt>
      <trkpt lat="41.7692270" lon="-8.8511620">
        <ele>72.8</ele>
        <time>2019-08-16T10:15:45Z</time>
      </trkpt>
      <trkpt lat="41.7693470" lon="-8.8509240">
        <ele>72.8</ele>
        <time>2019-08-16T10:15:52Z</time>
      </trkpt>
      <trkpt lat="41.7695520" lon="-8.8506670">
        <ele>72.8</ele>
        <time>2019-08-16T10:16:01Z</time>
      </trkpt>
      <trkpt lat="41.7696770" lon="-8.8505640">
        <ele>72.8</ele>
        <time>2019-08-16T10:16:05Z</time>
      </trkpt>
      <trkpt lat="41.7697280" lon="-8.8504720">
        <ele>72.8</ele>
        <time>2019-08-16T10:16:07Z</time>
      </trkpt>
      <trkpt lat="41.7697980" lon="-8.8503640">
        <ele>73.2</ele>
        <time>2019-08-16T10:16:10Z</time>
      </trkpt>
      <trkpt lat="41.7698340" lon="-8.8503370">
        <ele>73.6</ele>
        <time>2019-08-16T10:16:11Z</time>
      </trkpt>
      <trkpt lat="41.7698720" lon="-8.8503120">
        <ele>74.0</ele>
        <time>2019-08-16T10:16:12Z</time>
      </trkpt>
      <trkpt lat="41.7699060" lon="-8.8502890">
        <ele>74.4</ele>
        <time>2019-08-16T10:16:13Z</time>
      </trkpt>
      <trkpt lat="41.7699370" lon="-8.8502650">
        <ele>75.0</ele>
        <time>2019-08-16T10:16:14Z</time>
      </trkpt>
      <trkpt lat="41.7701300" lon="-8.8500230">
        <ele>75.0</ele>
        <time>2019-08-16T10:16:20Z</time>
      </trkpt>
      <trkpt lat="41.7702800" lon="-8.8498580">
        <ele>74.4</ele>
        <time>2019-08-16T10:16:24Z</time>
      </trkpt>
      <trkpt lat="41.7703250" lon="-8.8498100">
        <ele>74.0</ele>
        <time>2019-08-16T10:16:25Z</time>
      </trkpt>
      <trkpt lat="41.7703710" lon="-8.8497500">
        <ele>73.6</ele>
        <time>2019-08-16T10:16:26Z</time>
      </trkpt>
      <trkpt lat="41.7704200" lon="-8.8496940">
        <ele>73.2</ele>
        <time>2019-08-16T10:16:27Z</time>
      </trkpt>
      <trkpt lat="41.7704760" lon="-8.8496400">
        <ele>72.8</ele>
        <time>2019-08-16T10:16:28Z</time>
      </trkpt>
      <trkpt lat="41.7705820" lon="-8.8495550">
        <ele>72.8</ele>
        <time>2019-08-16T10:16:30Z</time>
      </trkpt>
      <trkpt lat="41.7708130" lon="-8.8493680">
        <ele>72.4</ele>
        <time>2019-08-16T10:16:35Z</time>
      </trkpt>
      <trkpt lat="41.7708460" lon="-8.8493090">
        <ele>71.8</ele>
        <time>2019-08-16T10:16:36Z</time>
      </trkpt>
      <trkpt lat="41.7708710" lon="-8.8492350">
        <ele>71.4</ele>
        <time>2019-08-16T10:16:37Z</time>
      </trkpt>
      <trkpt lat="41.7708810" lon="-8.8491570">
        <ele>71.0</ele>
        <time>2019-08-16T10:16:38Z</time>
      </trkpt>
      <trkpt lat="41.7708950" lon="-8.8490800">
        <ele>70.6</ele>
        <time>2019-08-16T10:16:39Z</time>
      </trkpt>
      <trkpt lat="41.7709900" lon="-8.8489050">
        <ele>70.0</ele>
        <time>2019-08-16T10:16:42Z</time>
      </trkpt>
      <trkpt lat="41.7710330" lon="-8.8488490">
        <ele>69.6</ele>
        <time>2019-08-16T10:16:43Z</time>
      </trkpt>
      <trkpt lat="41.7710790" lon="-8.8487930">
        <ele>69.2</ele>
        <time>2019-08-16T10:16:44Z</time>
      </trkpt>
      <trkpt lat="41.7711280" lon="-8.8487350">
        <ele>68.8</ele>
        <time>2019-08-16T10:16:45Z</time>
      </trkpt>
      <trkpt lat="41.7711810" lon="-8.8486790">
        <ele>68.2</ele>
        <time>2019-08-16T10:16:46Z</time>
      </trkpt>
      <trkpt lat="41.7712180" lon="-8.8485580">
        <ele>68.2</ele>
        <time>2019-08-16T10:16:48Z</time>
      </trkpt>
      <trkpt lat="41.7712070" lon="-8.8484380">
        <ele>67.8</ele>
        <time>2019-08-16T10:16:50Z</time>
      </trkpt>
      <trkpt lat="41.7712210" lon="-8.8483800">
        <ele>67.4</ele>
        <time>2019-08-16T10:16:51Z</time>
      </trkpt>
      <trkpt lat="41.7712380" lon="-8.8483300">
        <ele>67.0</ele>
        <time>2019-08-16T10:16:52Z</time>
      </trkpt>
      <trkpt lat="41.7712580" lon="-8.8482900">
        <ele>66.6</ele>
        <time>2019-08-16T10:16:53Z</time>
      </trkpt>
      <trkpt lat="41.7712890" lon="-8.8482560">
        <ele>66.0</ele>
        <time>2019-08-16T10:16:54Z</time>
      </trkpt>
      <trkpt lat="41.7714260" lon="-8.8482120">
        <ele>66.0</ele>
        <time>2019-08-16T10:16:57Z</time>
      </trkpt>
      <trkpt lat="41.7716560" lon="-8.8480450">
        <ele>66.0</ele>
        <time>2019-08-16T10:17:02Z</time>
      </trkpt>
      <trkpt lat="41.7718170" lon="-8.8478390">
        <ele>66.0</ele>
        <time>2019-08-16T10:17:06Z</time>
      </trkpt>
      <trkpt lat="41.7718920" lon="-8.8477380">
        <ele>66.0</ele>
        <time>2019-08-16T10:17:08Z</time>
      </trkpt>
      <trkpt lat="41.7720690" lon="-8.8475480">
        <ele>66.0</ele>
        <time>2019-08-16T10:17:13Z</time>
      </trkpt>
      <trkpt lat="41.7722190" lon="-8.8475150">
        <ele>66.0</ele>
        <time>2019-08-16T10:17:17Z</time>
      </trkpt>
      <trkpt lat="41.7723560" lon="-8.8474750">
        <ele>66.6</ele>
        <time>2019-08-16T10:17:21Z</time>
      </trkpt>
      <trkpt lat="41.7723850" lon="-8.8474540">
        <ele>67.0</ele>
        <time>2019-08-16T10:17:22Z</time>
      </trkpt>
      <trkpt lat="41.7724130" lon="-8.8474240">
        <ele>67.4</ele>
        <time>2019-08-16T10:17:23Z</time>
      </trkpt>
      <trkpt lat="41.7724420" lon="-8.8473920">
        <ele>67.8</ele>
        <time>2019-08-16T10:17:24Z</time>
      </trkpt>
      <trkpt lat="41.7724730" lon="-8.8473620">
        <ele>68.2</ele>
        <time>2019-08-16T10:17:25Z</time>
      </trkpt>
      <trkpt lat="41.7725890" lon="-8.8472250">
        <ele>68.2</ele>
        <time>2019-08-16T10:17:29Z</time>
      </trkpt>
      <trkpt lat="41.7727740" lon="-8.8470680">
        <ele>67.8</ele>
        <time>2019-08-16T10:17:35Z</time>
      </trkpt>
      <trkpt lat="41.7728020" lon="-8.8470460">
        <ele>67.2</ele>
        <time>2019-08-16T10:17:36Z</time>
      </trkpt>
      <trkpt lat="41.7728390" lon="-8.8470290">
        <ele>66.8</ele>
        <time>2019-08-16T10:17:37Z</time>
      </trkpt>
      <trkpt lat="41.7728780" lon="-8.8470120">
        <ele>66.4</ele>
        <time>2019-08-16T10:17:38Z</time>
      </trkpt>
      <trkpt lat="41.7729140" lon="-8.8469890">
        <ele>65.8</ele>
        <time>2019-08-16T10:17:39Z</time>
      </trkpt>
      <trkpt lat="41.7729450" lon="-8.8469630">
        <ele>65.4</ele>
        <time>2019-08-16T10:17:40Z</time>
      </trkpt>
      <trkpt lat="41.7730090" lon="-8.8469070">
        <ele>64.8</ele>
        <time>2019-08-16T10:17:42Z</time>
      </trkpt>
      <trkpt lat="41.7730370" lon="-8.8468810">
        <ele>64.2</ele>
        <time>2019-08-16T10:17:43Z</time>
      </trkpt>
      <trkpt lat="41.7730650" lon="-8.8468620">
        <ele>63.4</ele>
        <time>2019-08-16T10:17:44Z</time>
      </trkpt>
      <trkpt lat="41.7730910" lon="-8.8468480">
        <ele>62.8</ele>
        <time>2019-08-16T10:17:45Z</time>
      </trkpt>
      <trkpt lat="41.7731220" lon="-8.8468350">
        <ele>62.0</ele>
        <time>2019-08-16T10:17:46Z</time>
      </trkpt>
      <trkpt lat="41.7731590" lon="-8.8468100">
        <ele>61.4</ele>
        <time>2019-08-16T10:17:47Z</time>
      </trkpt>
      <trkpt lat="41.7731890" lon="-8.8467810">
        <ele>60.8</ele>
        <time>2019-08-16T10:17:48Z</time>
      </trkpt>
      <trkpt lat="41.7732170" lon="-8.8467580">
        <ele>60.2</ele>
        <time>2019-08-16T10:17:49Z</time>
      </trkpt>
      <trkpt lat="41.7732450" lon="-8.8467440">
        <ele>59.6</ele>
        <time>2019-08-16T10:17:50Z</time>
      </trkpt>
      <trkpt lat="41.7732810" lon="-8.8467240">
        <ele>59.0</ele>
        <time>2019-08-16T10:17:51Z</time>
      </trkpt>
      <trkpt lat="41.7733990" lon="-8.8466350">
        <ele>59.0</ele>
        <time>2019-08-16T10:17:55Z</time>
      </trkpt>
      <trkpt lat="41.7733990" lon="-8.8465880">
        <ele>59.0</ele>
        <time>2019-08-16T10:17:56Z</time>
      </trkpt>
      <trkpt lat="41.7733510" lon="-8.8464850">
        <ele>59.0</ele>
        <time>2019-08-16T10:17:59Z</time>
      </trkpt>
      <trkpt lat="41.7733350" lon="-8.8464620">
        <ele>59.0</ele>
        <time>2019-08-16T10:18:00Z</time>
      </trkpt>
      <trkpt lat="41.7732780" lon="-8.8463690">
        <ele>59.0</ele>
        <time>2019-08-16T10:18:05Z</time>
      </trkpt>
      <trkpt lat="41.7732030" lon="-8.8462480">
        <ele>59.0</ele>
        <time>2019-08-16T10:18:11Z</time>
      </trkpt>
      <trkpt lat="41.7731700" lon="-8.8461770">
        <ele>59.0</ele>
        <time>2019-08-16T10:18:17Z</time>
      </trkpt>
      <trkpt lat="41.7731660" lon="-8.8461740">
        <ele>59.0</ele>
        <time>2019-08-16T10:18:18Z</time>
      </trkpt>
      <trkpt lat="41.7731650" lon="-8.8461710">
        <ele>65.6</ele>
        <time>2019-08-16T10:18:50Z</time>
      </trkpt>
      <trkpt lat="41.7731690" lon="-8.8461680">
        <ele>65.6</ele>
        <time>2019-08-16T10:18:51Z</time>
      </trkpt>
      <trkpt lat="41.7731800" lon="-8.8461580">
        <ele>82.8</ele>
        <time>2019-08-16T10:20:34Z</time>
      </trkpt>
      <trkpt lat="41.7731870" lon="-8.8461570">
        <ele>82.8</ele>
        <time>2019-08-16T10:20:35Z</time>
      </trkpt>
      <trkpt lat="41.7731930" lon="-8.8461400">
        <ele>82.8</ele>
        <time>2019-08-16T10:21:50Z</time>
      </trkpt>
      <trkpt lat="41.7732270" lon="-8.8461270">
        <ele>82.8</ele>
        <time>2019-08-16T10:21:51Z</time>
      </trkpt>
      <trkpt lat="41.7732810" lon="-8.8460760">
        <ele>82.8</ele>
        <time>2019-08-16T10:21:52Z</time>
      </trkpt>
      <trkpt lat="41.7734010" lon="-8.8459330">
        <ele>82.2</ele>
        <time>2019-08-16T10:21:55Z</time>
      </trkpt>
      <trkpt lat="41.7734360" lon="-8.8459000">
        <ele>81.6</ele>
        <time>2019-08-16T10:21:56Z</time>
      </trkpt>
      <trkpt lat="41.7734820" lon="-8.8458620">
        <ele>81.0</ele>
        <time>2019-08-16T10:21:57Z</time>
      </trkpt>
      <trkpt lat="41.7735300" lon="-8.8458320">
        <ele>80.4</ele>
        <time>2019-08-16T10:21:58Z</time>
      </trkpt>
      <trkpt lat="41.7736150" lon="-8.8458320">
        <ele>79.8</ele>
        <time>2019-08-16T10:21:59Z</time>
      </trkpt>
      <trkpt lat="41.7736820" lon="-8.8458180">
        <ele>79.2</ele>
        <time>2019-08-16T10:22:00Z</time>
      </trkpt>
      <trkpt lat="41.7737560" lon="-8.8457820">
        <ele>78.4</ele>
        <time>2019-08-16T10:22:01Z</time>
      </trkpt>
      <trkpt lat="41.7738690" lon="-8.8457080">
        <ele>77.8</ele>
        <time>2019-08-16T10:22:02Z</time>
      </trkpt>
      <trkpt lat="41.7739750" lon="-8.8456150">
        <ele>77.4</ele>
        <time>2019-08-16T10:22:03Z</time>
      </trkpt>
      <trkpt lat="41.7740640" lon="-8.8455240">
        <ele>76.8</ele>
        <time>2019-08-16T10:22:04Z</time>
      </trkpt>
      <trkpt lat="41.7741510" lon="-8.8454590">
        <ele>76.2</ele>
        <time>2019-08-16T10:22:05Z</time>
      </trkpt>
      <trkpt lat="41.7742040" lon="-8.8454310">
        <ele>75.8</ele>
        <time>2019-08-16T10:22:06Z</time>
      </trkpt>
      <trkpt lat="41.7742820" lon="-8.8454070">
        <ele>75.8</ele>
        <time>2019-08-16T10:22:08Z</time>
      </trkpt>
      <trkpt lat="41.7743350" lon="-8.8454500">
        <ele>75.8</ele>
        <time>2019-08-16T10:22:09Z</time>
      </trkpt>
      <trkpt lat="41.7743640" lon="-8.8454770">
        <ele>75.8</ele>
        <time>2019-08-16T10:22:10Z</time>
      </trkpt>
      <trkpt lat="41.7745320" lon="-8.8455250">
        <ele>75.4</ele>
        <time>2019-08-16T10:22:11Z</time>
      </trkpt>
      <trkpt lat="41.7746210" lon="-8.8455880">
        <ele>74.8</ele>
        <time>2019-08-16T10:22:12Z</time>
      </trkpt>
      <trkpt lat="41.7746790" lon="-8.8456540">
        <ele>74.4</ele>
        <time>2019-08-16T10:22:13Z</time>
      </trkpt>
      <trkpt lat="41.7746800" lon="-8.8457320">
        <ele>74.0</ele>
        <time>2019-08-16T10:22:14Z</time>
      </trkpt>
      <trkpt lat="41.7746820" lon="-8.8458100">
        <ele>73.6</ele>
        <time>2019-08-16T10:22:15Z</time>
      </trkpt>
      <trkpt lat="41.7748220" lon="-8.8461410">
        <ele>73.6</ele>
        <time>2019-08-16T10:22:21Z</time>
      </trkpt>
      <trkpt lat="41.7749290" lon="-8.8464840">
        <ele>73.6</ele>
        <time>2019-08-16T10:22:28Z</time>
      </trkpt>
      <trkpt lat="41.7751210" lon="-8.8466840">
        <ele>73.6</ele>
        <time>2019-08-16T10:22:35Z</time>
      </trkpt>
      <trkpt lat="41.7752660" lon="-8.8464490">
        <ele>74.0</ele>
        <time>2019-08-16T10:22:40Z</time>
      </trkpt>
      <trkpt lat="41.7752840" lon="-8.8464430">
        <ele>74.4</ele>
        <time>2019-08-16T10:22:41Z</time>
      </trkpt>
      <trkpt lat="41.7753030" lon="-8.8464380">
        <ele>74.8</ele>
        <time>2019-08-16T10:22:42Z</time>
      </trkpt>
      <trkpt lat="41.7753220" lon="-8.8464320">
        <ele>75.2</ele>
        <time>2019-08-16T10:22:43Z</time>
      </trkpt>
      <trkpt lat="41.7753410" lon="-8.8464270">
        <ele>75.6</ele>
        <time>2019-08-16T10:22:44Z</time>
      </trkpt>
      <trkpt lat="41.7753590" lon="-8.8464210">
        <ele>81.8</ele>
        <time>2019-08-16T10:23:02Z</time>
      </trkpt>
      <trkpt lat="41.7753780" lon="-8.8464160">
        <ele>82.2</ele>
        <time>2019-08-16T10:23:03Z</time>
      </trkpt>
      <trkpt lat="41.7753950" lon="-8.8464270">
        <ele>82.6</ele>
        <time>2019-08-16T10:23:04Z</time>
      </trkpt>
      <trkpt lat="41.7755830" lon="-8.8466420">
        <ele>82.6</ele>
        <time>2019-08-16T10:23:19Z</time>
      </trkpt>
      <trkpt lat="41.7757570" lon="-8.8467720">
        <ele>82.6</ele>
        <time>2019-08-16T10:23:31Z</time>
      </trkpt>
      <trkpt lat="41.7757450" lon="-8.8468730">
        <ele>82.6</ele>
        <time>2019-08-16T10:23:37Z</time>
      </trkpt>
      <trkpt lat="41.7757420" lon="-8.8468870">
        <ele>82.6</ele>
        <time>2019-08-16T10:23:44Z</time>
      </trkpt>
      <trkpt lat="41.7757680" lon="-8.8469840">
        <ele>82.6</ele>
        <time>2019-08-16T10:23:47Z</time>
      </trkpt>
      <trkpt lat="41.7758400" lon="-8.8471960">
        <ele>82.6</ele>
        <time>2019-08-16T10:23:53Z</time>
      </trkpt>
      <trkpt lat="41.7759780" lon="-8.8472910">
        <ele>82.6</ele>
        <time>2019-08-16T10:23:57Z</time>
      </trkpt>
      <trkpt lat="41.7760690" lon="-8.8473480">
        <ele>82.6</ele>
        <time>2019-08-16T10:23:59Z</time>
      </trkpt>
      <trkpt lat="41.7761630" lon="-8.8473910">
        <ele>82.6</ele>
        <time>2019-08-16T10:24:01Z</time>
      </trkpt>
      <trkpt lat="41.7762090" lon="-8.8474000">
        <ele>82.2</ele>
        <time>2019-08-16T10:24:02Z</time>
      </trkpt>
      <trkpt lat="41.7762550" lon="-8.8473910">
        <ele>81.8</ele>
        <time>2019-08-16T10:24:03Z</time>
      </trkpt>
      <trkpt lat="41.7762980" lon="-8.8473910">
        <ele>81.4</ele>
        <time>2019-08-16T10:24:04Z</time>
      </trkpt>
      <trkpt lat="41.7763410" lon="-8.8473930">
        <ele>81.0</ele>
        <time>2019-08-16T10:24:05Z</time>
      </trkpt>
      <trkpt lat="41.7763790" lon="-8.8473960">
        <ele>80.6</ele>
        <time>2019-08-16T10:24:06Z</time>
      </trkpt>
      <trkpt lat="41.7765160" lon="-8.8474360">
        <ele>80.6</ele>
        <time>2019-08-16T10:24:11Z</time>
      </trkpt>
      <trkpt lat="41.7765700" lon="-8.8474770">
        <ele>81.0</ele>
        <time>2019-08-16T10:24:15Z</time>
      </trkpt>
      <trkpt lat="41.7765840" lon="-8.8474920">
        <ele>81.6</ele>
        <time>2019-08-16T10:24:16Z</time>
      </trkpt>
      <trkpt lat="41.7765950" lon="-8.8475080">
        <ele>82.0</ele>
        <time>2019-08-16T10:24:17Z</time>
      </trkpt>
      <trkpt lat="41.7766010" lon="-8.8475310">
        <ele>82.6</ele>
        <time>2019-08-16T10:24:18Z</time>
      </trkpt>
      <trkpt lat="41.7766060" lon="-8.8475540">
        <ele>83.0</ele>
        <time>2019-08-16T10:24:19Z</time>
      </trkpt>
      <trkpt lat="41.7766330" lon="-8.8477210">
        <ele>83.0</ele>
        <time>2019-08-16T10:24:24Z</time>
      </trkpt>
      <trkpt lat="41.7766910" lon="-8.8479790">
        <ele>83.0</ele>
        <time>2019-08-16T10:24:34Z</time>
      </trkpt>
      <trkpt lat="41.7767090" lon="-8.8480200">
        <ele>83.0</ele>
        <time>2019-08-16T10:24:37Z</time>
      </trkpt>
      <trkpt lat="41.7767220" lon="-8.8480130">
        <ele>83.0</ele>
        <time>2019-08-16T10:24:38Z</time>
      </trkpt>
      <trkpt lat="41.7767270" lon="-8.8479700">
        <ele>83.0</ele>
        <time>2019-08-16T10:24:40Z</time>
      </trkpt>
      <trkpt lat="41.7767200" lon="-8.8479470">
        <ele>83.6</ele>
        <time>2019-08-16T10:24:41Z</time>
      </trkpt>
      <trkpt lat="41.7767130" lon="-8.8479220">
        <ele>84.0</ele>
        <time>2019-08-16T10:24:42Z</time>
      </trkpt>
      <trkpt lat="41.7767070" lon="-8.8478970">
        <ele>84.6</ele>
        <time>2019-08-16T10:24:43Z</time>
      </trkpt>
      <trkpt lat="41.7767070" lon="-8.8478710">
        <ele>85.0</ele>
        <time>2019-08-16T10:24:44Z</time>
      </trkpt>
      <trkpt lat="41.7767070" lon="-8.8478480">
        <ele>85.4</ele>
        <time>2019-08-16T10:24:45Z</time>
      </trkpt>
      <trkpt lat="41.7767040" lon="-8.8477680">
        <ele>86.0</ele>
        <time>2019-08-16T10:24:48Z</time>
      </trkpt>
      <trkpt lat="41.7767090" lon="-8.8477310">
        <ele>86.4</ele>
        <time>2019-08-16T10:24:49Z</time>
      </trkpt>
      <trkpt lat="41.7767150" lon="-8.8477010">
        <ele>86.8</ele>
        <time>2019-08-16T10:24:50Z</time>
      </trkpt>
      <trkpt lat="41.7767210" lon="-8.8476750">
        <ele>87.2</ele>
        <time>2019-08-16T10:24:51Z</time>
      </trkpt>
      <trkpt lat="41.7767290" lon="-8.8476520">
        <ele>87.6</ele>
        <time>2019-08-16T10:24:52Z</time>
      </trkpt>
      <trkpt lat="41.7767460" lon="-8.8476160">
        <ele>87.6</ele>
        <time>2019-08-16T10:24:54Z</time>
      </trkpt>
      <trkpt lat="41.7767960" lon="-8.8475110">
        <ele>88.0</ele>
        <time>2019-08-16T10:25:00Z</time>
      </trkpt>
      <trkpt lat="41.7768060" lon="-8.8474940">
        <ele>88.6</ele>
        <time>2019-08-16T10:25:01Z</time>
      </trkpt>
      <trkpt lat="41.7768130" lon="-8.8474810">
        <ele>89.0</ele>
        <time>2019-08-16T10:25:02Z</time>
      </trkpt>
      <trkpt lat="41.7768220" lon="-8.8474690">
        <ele>89.4</ele>
        <time>2019-08-16T10:25:03Z</time>
      </trkpt>
      <trkpt lat="41.7768360" lon="-8.8474580">
        <ele>89.8</ele>
        <time>2019-08-16T10:25:04Z</time>
      </trkpt>
      <trkpt lat="41.7768830" lon="-8.8474550">
        <ele>89.8</ele>
        <time>2019-08-16T10:25:07Z</time>
      </trkpt>
      <trkpt lat="41.7769130" lon="-8.8474640">
        <ele>89.8</ele>
        <time>2019-08-16T10:25:09Z</time>
      </trkpt>
      <trkpt lat="41.7769670" lon="-8.8474670">
        <ele>89.8</ele>
        <time>2019-08-16T10:25:12Z</time>
      </trkpt>
      <trkpt lat="41.7770330" lon="-8.8474530">
        <ele>90.2</ele>
        <time>2019-08-16T10:25:17Z</time>
      </trkpt>
      <trkpt lat="41.7770480" lon="-8.8474490">
        <ele>90.6</ele>
        <time>2019-08-16T10:25:18Z</time>
      </trkpt>
      <trkpt lat="41.7770640" lon="-8.8474520">
        <ele>91.0</ele>
        <time>2019-08-16T10:25:19Z</time>
      </trkpt>
      <trkpt lat="41.7770710" lon="-8.8474550">
        <ele>91.6</ele>
        <time>2019-08-16T10:25:20Z</time>
      </trkpt>
      <trkpt lat="41.7770940" lon="-8.8474530">
        <ele>92.0</ele>
        <time>2019-08-16T10:25:21Z</time>
      </trkpt>
      <trkpt lat="41.7771130" lon="-8.8474600">
        <ele>92.0</ele>
        <time>2019-08-16T10:25:22Z</time>
      </trkpt>
      <trkpt lat="41.7771480" lon="-8.8474690">
        <ele>92.0</ele>
        <time>2019-08-16T10:25:25Z</time>
      </trkpt>
      <trkpt lat="41.7772560" lon="-8.8474910">
        <ele>92.0</ele>
        <time>2019-08-16T10:25:32Z</time>
      </trkpt>
      <trkpt lat="41.7772820" lon="-8.8475040">
        <ele>92.4</ele>
        <time>2019-08-16T10:25:34Z</time>
      </trkpt>
      <trkpt lat="41.7772950" lon="-8.8475130">
        <ele>92.8</ele>
        <time>2019-08-16T10:25:35Z</time>
      </trkpt>
      <trkpt lat="41.7773090" lon="-8.8475200">
        <ele>93.2</ele>
        <time>2019-08-16T10:25:36Z</time>
      </trkpt>
      <trkpt lat="41.7773180" lon="-8.8475270">
        <ele>93.6</ele>
        <time>2019-08-16T10:25:37Z</time>
      </trkpt>
      <trkpt lat="41.7773350" lon="-8.8475320">
        <ele>94.0</ele>
        <time>2019-08-16T10:25:38Z</time>
      </trkpt>
      <trkpt lat="41.7773660" lon="-8.8475460">
        <ele>94.0</ele>
        <time>2019-08-16T10:25:40Z</time>
      </trkpt>
      <trkpt lat="41.7774630" lon="-8.8475950">
        <ele>94.0</ele>
        <time>2019-08-16T10:25:47Z</time>
      </trkpt>
      <trkpt lat="41.7775950" lon="-8.8476210">
        <ele>94.0</ele>
        <time>2019-08-16T10:25:55Z</time>
      </trkpt>
      <trkpt lat="41.7777010" lon="-8.8476600">
        <ele>94.0</ele>
        <time>2019-08-16T10:26:01Z</time>
      </trkpt>
      <trkpt lat="41.7777640" lon="-8.8476640">
        <ele>94.4</ele>
        <time>2019-08-16T10:26:02Z</time>
      </trkpt>
      <trkpt lat="41.7778120" lon="-8.8476640">
        <ele>94.8</ele>
        <time>2019-08-16T10:26:03Z</time>
      </trkpt>
      <trkpt lat="41.7778590" lon="-8.8476630">
        <ele>95.2</ele>
        <time>2019-08-16T10:26:04Z</time>
      </trkpt>
      <trkpt lat="41.7779070" lon="-8.8476630">
        <ele>95.8</ele>
        <time>2019-08-16T10:26:05Z</time>
      </trkpt>
      <trkpt lat="41.7779550" lon="-8.8476620">
        <ele>96.2</ele>
        <time>2019-08-16T10:26:06Z</time>
      </trkpt>
      <trkpt lat="41.7780030" lon="-8.8476610">
        <ele>96.2</ele>
        <time>2019-08-16T10:26:08Z</time>
      </trkpt>
      <trkpt lat="41.7780500" lon="-8.8476610">
        <ele>102.8</ele>
        <time>2019-08-16T10:26:53Z</time>
      </trkpt>
      <trkpt lat="41.7780980" lon="-8.8476600">
        <ele>103.2</ele>
        <time>2019-08-16T10:26:54Z</time>
      </trkpt>
      <trkpt lat="41.7781360" lon="-8.8476580">
        <ele>103.8</ele>
        <time>2019-08-16T10:26:55Z</time>
      </trkpt>
      <trkpt lat="41.7781670" lon="-8.8476590">
        <ele>104.2</ele>
        <time>2019-08-16T10:26:56Z</time>
      </trkpt>
      <trkpt lat="41.7782020" lon="-8.8476540">
        <ele>104.6</ele>
        <time>2019-08-16T10:26:57Z</time>
      </trkpt>
      <trkpt lat="41.7782610" lon="-8.8476390">
        <ele>105.2</ele>
        <time>2019-08-16T10:26:58Z</time>
      </trkpt>
      <trkpt lat="41.7784420" lon="-8.8476290">
        <ele>105.6</ele>
        <time>2019-08-16T10:27:01Z</time>
      </trkpt>
      <trkpt lat="41.7784650" lon="-8.8476250">
        <ele>106.0</ele>
        <time>2019-08-16T10:27:02Z</time>
      </trkpt>
      <trkpt lat="41.7784900" lon="-8.8476260">
        <ele>106.4</ele>
        <time>2019-08-16T10:27:03Z</time>
      </trkpt>
      <trkpt lat="41.7785130" lon="-8.8476240">
        <ele>106.8</ele>
        <time>2019-08-16T10:27:04Z</time>
      </trkpt>
      <trkpt lat="41.7785390" lon="-8.8476280">
        <ele>107.2</ele>
        <time>2019-08-16T10:27:05Z</time>
      </trkpt>
      <trkpt lat="41.7785800" lon="-8.8476400">
        <ele>107.6</ele>
        <time>2019-08-16T10:27:07Z</time>
      </trkpt>
      <trkpt lat="41.7786030" lon="-8.8476460">
        <ele>108.0</ele>
        <time>2019-08-16T10:27:08Z</time>
      </trkpt>
      <trkpt lat="41.7786240" lon="-8.8476560">
        <ele>108.4</ele>
        <time>2019-08-16T10:27:09Z</time>
      </trkpt>
      <trkpt lat="41.7786420" lon="-8.8476630">
        <ele>108.8</ele>
        <time>2019-08-16T10:27:10Z</time>
      </trkpt>
      <trkpt lat="41.7786590" lon="-8.8476730">
        <ele>109.2</ele>
        <time>2019-08-16T10:27:11Z</time>
      </trkpt>
      <trkpt lat="41.7787470" lon="-8.8477890">
        <ele>109.6</ele>
        <time>2019-08-16T10:27:17Z</time>
      </trkpt>
      <trkpt lat="41.7787670" lon="-8.8478040">
        <ele>110.0</ele>
        <time>2019-08-16T10:27:18Z</time>
      </trkpt>
      <trkpt lat="41.7787910" lon="-8.8478220">
        <ele>110.4</ele>
        <time>2019-08-16T10:27:19Z</time>
      </trkpt>
      <trkpt lat="41.7788080" lon="-8.8478330">
        <ele>110.8</ele>
        <time>2019-08-16T10:27:20Z</time>
      </trkpt>
      <trkpt lat="41.7788250" lon="-8.8478480">
        <ele>111.2</ele>
        <time>2019-08-16T10:27:21Z</time>
      </trkpt>
      <trkpt lat="41.7788880" lon="-8.8478810">
        <ele>111.2</ele>
        <time>2019-08-16T10:27:24Z</time>
      </trkpt>
      <trkpt lat="41.7790030" lon="-8.8479620">
        <ele>111.2</ele>
        <time>2019-08-16T10:27:30Z</time>
      </trkpt>
      <trkpt lat="41.7791540" lon="-8.8480180">
        <ele>111.2</ele>
        <time>2019-08-16T10:27:37Z</time>
      </trkpt>
      <trkpt lat="41.7793150" lon="-8.8480580">
        <ele>111.2</ele>
        <time>2019-08-16T10:27:47Z</time>
      </trkpt>
      <trkpt lat="41.7793410" lon="-8.8480700">
        <ele>111.8</ele>
        <time>2019-08-16T10:27:49Z</time>
      </trkpt>
      <trkpt lat="41.7793550" lon="-8.8480770">
        <ele>112.2</ele>
        <time>2019-08-16T10:27:50Z</time>
      </trkpt>
      <trkpt lat="41.7793660" lon="-8.8480820">
        <ele>112.6</ele>
        <time>2019-08-16T10:27:51Z</time>
      </trkpt>
      <trkpt lat="41.7793820" lon="-8.8480900">
        <ele>113.2</ele>
        <time>2019-08-16T10:27:52Z</time>
      </trkpt>
      <trkpt lat="41.7793980" lon="-8.8480980">
        <ele>113.6</ele>
        <time>2019-08-16T10:27:53Z</time>
      </trkpt>
      <trkpt lat="41.7794120" lon="-8.8480990">
        <ele>113.6</ele>
        <time>2019-08-16T10:27:54Z</time>
      </trkpt>
      <trkpt lat="41.7794260" lon="-8.8480920">
        <ele>113.6</ele>
        <time>2019-08-16T10:27:55Z</time>
      </trkpt>
      <trkpt lat="41.7794530" lon="-8.8480970">
        <ele>113.6</ele>
        <time>2019-08-16T10:27:57Z</time>
      </trkpt>
      <trkpt lat="41.7794840" lon="-8.8481150">
        <ele>113.6</ele>
        <time>2019-08-16T10:27:59Z</time>
      </trkpt>
      <trkpt lat="41.7794950" lon="-8.8481230">
        <ele>114.0</ele>
        <time>2019-08-16T10:28:00Z</time>
      </trkpt>
      <trkpt lat="41.7795120" lon="-8.8481300">
        <ele>114.4</ele>
        <time>2019-08-16T10:28:01Z</time>
      </trkpt>
      <trkpt lat="41.7795250" lon="-8.8481360">
        <ele>114.8</ele>
        <time>2019-08-16T10:28:02Z</time>
      </trkpt>
      <trkpt lat="41.7795390" lon="-8.8481350">
        <ele>115.2</ele>
        <time>2019-08-16T10:28:03Z</time>
      </trkpt>
      <trkpt lat="41.7795560" lon="-8.8481410">
        <ele>115.6</ele>
        <time>2019-08-16T10:28:04Z</time>
      </trkpt>
      <trkpt lat="41.7795900" lon="-8.8481580">
        <ele>115.6</ele>
        <time>2019-08-16T10:28:07Z</time>
      </trkpt>
      <trkpt lat="41.7796080" lon="-8.8481670">
        <ele>116.0</ele>
        <time>2019-08-16T10:28:08Z</time>
      </trkpt>
      <trkpt lat="41.7796200" lon="-8.8481770">
        <ele>116.4</ele>
        <time>2019-08-16T10:28:09Z</time>
      </trkpt>
      <trkpt lat="41.7796340" lon="-8.8481850">
        <ele>117.0</ele>
        <time>2019-08-16T10:28:10Z</time>
      </trkpt>
      <trkpt lat="41.7796430" lon="-8.8481880">
        <ele>117.4</ele>
        <time>2019-08-16T10:28:11Z</time>
      </trkpt>
      <trkpt lat="41.7796520" lon="-8.8481880">
        <ele>117.8</ele>
        <time>2019-08-16T10:28:12Z</time>
      </trkpt>
      <trkpt lat="41.7796640" lon="-8.8481900">
        <ele>117.8</ele>
        <time>2019-08-16T10:28:13Z</time>
      </trkpt>
      <trkpt lat="41.7797490" lon="-8.8482490">
        <ele>118.2</ele>
        <time>2019-08-16T10:28:21Z</time>
      </trkpt>
      <trkpt lat="41.7797600" lon="-8.8482580">
        <ele>118.6</ele>
        <time>2019-08-16T10:28:22Z</time>
      </trkpt>
      <trkpt lat="41.7797780" lon="-8.8482620">
        <ele>119.0</ele>
        <time>2019-08-16T10:28:23Z</time>
      </trkpt>
      <trkpt lat="41.7797920" lon="-8.8482690">
        <ele>119.4</ele>
        <time>2019-08-16T10:28:24Z</time>
      </trkpt>
      <trkpt lat="41.7798050" lon="-8.8482760">
        <ele>119.8</ele>
        <time>2019-08-16T10:28:25Z</time>
      </trkpt>
      <trkpt lat="41.7798520" lon="-8.8482950">
        <ele>119.8</ele>
        <time>2019-08-16T10:28:28Z</time>
      </trkpt>
      <trkpt lat="41.7799490" lon="-8.8483040">
        <ele>120.2</ele>
        <time>2019-08-16T10:28:33Z</time>
      </trkpt>
      <trkpt lat="41.7799760" lon="-8.8483140">
        <ele>120.6</ele>
        <time>2019-08-16T10:28:34Z</time>
      </trkpt>
      <trkpt lat="41.7800000" lon="-8.8483170">
        <ele>121.0</ele>
        <time>2019-08-16T10:28:35Z</time>
      </trkpt>
      <trkpt lat="41.7800390" lon="-8.8483180">
        <ele>121.4</ele>
        <time>2019-08-16T10:28:37Z</time>
      </trkpt>
      <trkpt lat="41.7800530" lon="-8.8483260">
        <ele>122.0</ele>
        <time>2019-08-16T10:28:38Z</time>
      </trkpt>
      <trkpt lat="41.7801030" lon="-8.8483820">
        <ele>122.0</ele>
        <time>2019-08-16T10:28:42Z</time>
      </trkpt>
      <trkpt lat="41.7802120" lon="-8.8484020">
        <ele>122.0</ele>
        <time>2019-08-16T10:28:48Z</time>
      </trkpt>
      <trkpt lat="41.7802410" lon="-8.8484130">
        <ele>122.4</ele>
        <time>2019-08-16T10:28:50Z</time>
      </trkpt>
      <trkpt lat="41.7802500" lon="-8.8484170">
        <ele>122.8</ele>
        <time>2019-08-16T10:28:51Z</time>
      </trkpt>
      <trkpt lat="41.7802590" lon="-8.8484160">
        <ele>123.2</ele>
        <time>2019-08-16T10:28:52Z</time>
      </trkpt>
      <trkpt lat="41.7802670" lon="-8.8484220">
        <ele>123.6</ele>
        <time>2019-08-16T10:28:53Z</time>
      </trkpt>
      <trkpt lat="41.7802770" lon="-8.8484290">
        <ele>124.0</ele>
        <time>2019-08-16T10:28:54Z</time>
      </trkpt>
      <trkpt lat="41.7803020" lon="-8.8484610">
        <ele>124.0</ele>
        <time>2019-08-16T10:28:57Z</time>
      </trkpt>
      <trkpt lat="41.7803530" lon="-8.8485090">
        <ele>124.4</ele>
        <time>2019-08-16T10:29:02Z</time>
      </trkpt>
      <trkpt lat="41.7803770" lon="-8.8485310">
        <ele>124.8</ele>
        <time>2019-08-16T10:29:03Z</time>
      </trkpt>
      <trkpt lat="41.7803970" lon="-8.8485390">
        <ele>125.2</ele>
        <time>2019-08-16T10:29:04Z</time>
      </trkpt>
      <trkpt lat="41.7804140" lon="-8.8485620">
        <ele>125.8</ele>
        <time>2019-08-16T10:29:05Z</time>
      </trkpt>
      <trkpt lat="41.7804350" lon="-8.8485820">
        <ele>126.2</ele>
        <time>2019-08-16T10:29:06Z</time>
      </trkpt>
      <trkpt lat="41.7804770" lon="-8.8486160">
        <ele>126.2</ele>
        <time>2019-08-16T10:29:08Z</time>
      </trkpt>
      <trkpt lat="41.7806410" lon="-8.8486770">
        <ele>126.2</ele>
        <time>2019-08-16T10:29:16Z</time>
      </trkpt>
      <trkpt lat="41.7807280" lon="-8.8487060">
        <ele>126.6</ele>
        <time>2019-08-16T10:29:20Z</time>
      </trkpt>
      <trkpt lat="41.7807530" lon="-8.8487170">
        <ele>127.0</ele>
        <time>2019-08-16T10:29:21Z</time>
      </trkpt>
      <trkpt lat="41.7807780" lon="-8.8487270">
        <ele>127.4</ele>
        <time>2019-08-16T10:29:22Z</time>
      </trkpt>
      <trkpt lat="41.7808070" lon="-8.8487390">
        <ele>127.8</ele>
        <time>2019-08-16T10:29:23Z</time>
      </trkpt>
      <trkpt lat="41.7808370" lon="-8.8487500">
        <ele>128.2</ele>
        <time>2019-08-16T10:29:24Z</time>
      </trkpt>
      <trkpt lat="41.7809690" lon="-8.8487790">
        <ele>128.2</ele>
        <time>2019-08-16T10:29:29Z</time>
      </trkpt>
      <trkpt lat="41.7811480" lon="-8.8488390">
        <ele>128.2</ele>
        <time>2019-08-16T10:29:36Z</time>
      </trkpt>
      <trkpt lat="41.7813680" lon="-8.8489120">
        <ele>128.2</ele>
        <time>2019-08-16T10:29:44Z</time>
      </trkpt>
      <trkpt lat="41.7815040" lon="-8.8489230">
        <ele>128.2</ele>
        <time>2019-08-16T10:29:50Z</time>
      </trkpt>
      <trkpt lat="41.7816170" lon="-8.8489320">
        <ele>128.2</ele>
        <time>2019-08-16T10:29:56Z</time>
      </trkpt>
      <trkpt lat="41.7817550" lon="-8.8489550">
        <ele>128.2</ele>
        <time>2019-08-16T10:30:04Z</time>
      </trkpt>
      <trkpt lat="41.7819070" lon="-8.8490530">
        <ele>128.6</ele>
        <time>2019-08-16T10:30:08Z</time>
      </trkpt>
      <trkpt lat="41.7819500" lon="-8.8490620">
        <ele>129.0</ele>
        <time>2019-08-16T10:30:09Z</time>
      </trkpt>
      <trkpt lat="41.7820050" lon="-8.8490610">
        <ele>129.4</ele>
        <time>2019-08-16T10:30:10Z</time>
      </trkpt>
      <trkpt lat="41.7820450" lon="-8.8490700">
        <ele>130.0</ele>
        <time>2019-08-16T10:30:11Z</time>
      </trkpt>
      <trkpt lat="41.7820750" lon="-8.8490740">
        <ele>130.4</ele>
        <time>2019-08-16T10:30:12Z</time>
      </trkpt>
      <trkpt lat="41.7821880" lon="-8.8490910">
        <ele>130.4</ele>
        <time>2019-08-16T10:30:16Z</time>
      </trkpt>
      <trkpt lat="41.7823480" lon="-8.8491350">
        <ele>130.8</ele>
        <time>2019-08-16T10:30:22Z</time>
      </trkpt>
      <trkpt lat="41.7823780" lon="-8.8491410">
        <ele>131.2</ele>
        <time>2019-08-16T10:30:23Z</time>
      </trkpt>
      <trkpt lat="41.7824090" lon="-8.8491500">
        <ele>131.6</ele>
        <time>2019-08-16T10:30:24Z</time>
      </trkpt>
      <trkpt lat="41.7824400" lon="-8.8491580">
        <ele>132.0</ele>
        <time>2019-08-16T10:30:25Z</time>
      </trkpt>
      <trkpt lat="41.7824640" lon="-8.8491700">
        <ele>132.4</ele>
        <time>2019-08-16T10:30:26Z</time>
      </trkpt>
      <trkpt lat="41.7825640" lon="-8.8492310">
        <ele>132.4</ele>
        <time>2019-08-16T10:30:31Z</time>
      </trkpt>
      <trkpt lat="41.7826080" lon="-8.8492420">
        <ele>132.8</ele>
        <time>2019-08-16T10:30:33Z</time>
      </trkpt>
      <trkpt lat="41.7826250" lon="-8.8492460">
        <ele>133.2</ele>
        <time>2019-08-16T10:30:34Z</time>
      </trkpt>
      <trkpt lat="41.7826410" lon="-8.8492520">
        <ele>133.8</ele>
        <time>2019-08-16T10:30:35Z</time>
      </trkpt>
      <trkpt lat="41.7826760" lon="-8.8492880">
        <ele>134.2</ele>
        <time>2019-08-16T10:30:36Z</time>
      </trkpt>
      <trkpt lat="41.7827130" lon="-8.8493150">
        <ele>134.6</ele>
        <time>2019-08-16T10:30:37Z</time>
      </trkpt>
      <trkpt lat="41.7827360" lon="-8.8493230">
        <ele>134.6</ele>
        <time>2019-08-16T10:30:38Z</time>
      </trkpt>
      <trkpt lat="41.7828630" lon="-8.8494040">
        <ele>134.6</ele>
        <time>2019-08-16T10:30:45Z</time>
      </trkpt>
      <trkpt lat="41.7828860" lon="-8.8494040">
        <ele>135.0</ele>
        <time>2019-08-16T10:30:46Z</time>
      </trkpt>
      <trkpt lat="41.7829050" lon="-8.8494020">
        <ele>135.6</ele>
        <time>2019-08-16T10:30:47Z</time>
      </trkpt>
      <trkpt lat="41.7829220" lon="-8.8494050">
        <ele>136.0</ele>
        <time>2019-08-16T10:30:48Z</time>
      </trkpt>
      <trkpt lat="41.7829380" lon="-8.8494080">
        <ele>136.4</ele>
        <time>2019-08-16T10:30:49Z</time>
      </trkpt>
      <trkpt lat="41.7829530" lon="-8.8494090">
        <ele>137.0</ele>
        <time>2019-08-16T10:30:50Z</time>
      </trkpt>
      <trkpt lat="41.7830070" lon="-8.8494360">
        <ele>137.4</ele>
        <time>2019-08-16T10:30:54Z</time>
      </trkpt>
      <trkpt lat="41.7830210" lon="-8.8494410">
        <ele>137.8</ele>
        <time>2019-08-16T10:30:55Z</time>
      </trkpt>
      <trkpt lat="41.7830360" lon="-8.8494440">
        <ele>138.2</ele>
        <time>2019-08-16T10:30:56Z</time>
      </trkpt>
      <trkpt lat="41.7830520" lon="-8.8494490">
        <ele>138.6</ele>
        <time>2019-08-16T10:30:57Z</time>
      </trkpt>
      <trkpt lat="41.7830670" lon="-8.8494560">
        <ele>139.0</ele>
        <time>2019-08-16T10:30:58Z</time>
      </trkpt>
      <trkpt lat="41.7831760" lon="-8.8494550">
        <ele>139.0</ele>
        <time>2019-08-16T10:31:04Z</time>
      </trkpt>
      <trkpt lat="41.7832130" lon="-8.8494630">
        <ele>139.0</ele>
        <time>2019-08-16T10:31:07Z</time>
      </trkpt>
      <trkpt lat="41.7832600" lon="-8.8494580">
        <ele>139.0</ele>
        <time>2019-08-16T10:31:36Z</time>
      </trkpt>
      <trkpt lat="41.7832680" lon="-8.8494540">
        <ele>139.0</ele>
        <time>2019-08-16T10:31:37Z</time>
      </trkpt>
      <trkpt lat="41.7832890" lon="-8.8494460">
        <ele>139.0</ele>
        <time>2019-08-16T10:31:38Z</time>
      </trkpt>
      <trkpt lat="41.7834440" lon="-8.8494160">
        <ele>139.0</ele>
        <time>2019-08-16T10:31:41Z</time>
      </trkpt>
      <trkpt lat="41.7836240" lon="-8.8494030">
        <ele>138.6</ele>
        <time>2019-08-16T10:31:44Z</time>
      </trkpt>
      <trkpt lat="41.7836680" lon="-8.8493970">
        <ele>138.2</ele>
        <time>2019-08-16T10:31:45Z</time>
      </trkpt>
      <trkpt lat="41.7837210" lon="-8.8493830">
        <ele>137.8</ele>
        <time>2019-08-16T10:31:46Z</time>
      </trkpt>
      <trkpt lat="41.7837630" lon="-8.8493630">
        <ele>137.4</ele>
        <time>2019-08-16T10:31:47Z</time>
      </trkpt>
      <trkpt lat="41.7838130" lon="-8.8493450">
        <ele>137.0</ele>
        <time>2019-08-16T10:31:48Z</time>
      </trkpt>
      <trkpt lat="41.7838590" lon="-8.8493200">
        <ele>136.4</ele>
        <time>2019-08-16T10:31:49Z</time>
      </trkpt>
      <trkpt lat="41.7839210" lon="-8.8492880">
        <ele>136.0</ele>
        <time>2019-08-16T10:31:50Z</time>
      </trkpt>
      <trkpt lat="41.7839770" lon="-8.8492510">
        <ele>135.6</ele>
        <time>2019-08-16T10:31:51Z</time>
      </trkpt>
      <trkpt lat="41.7840300" lon="-8.8492140">
        <ele>135.0</ele>
        <time>2019-08-16T10:31:52Z</time>
      </trkpt>
      <trkpt lat="41.7840790" lon="-8.8491720">
        <ele>134.6</ele>
        <time>2019-08-16T10:31:53Z</time>
      </trkpt>
      <trkpt lat="41.7841780" lon="-8.8490840">
        <ele>134.2</ele>
        <time>2019-08-16T10:31:55Z</time>
      </trkpt>
      <trkpt lat="41.7842290" lon="-8.8490420">
        <ele>133.6</ele>
        <time>2019-08-16T10:31:56Z</time>
      </trkpt>
      <trkpt lat="41.7842870" lon="-8.8490120">
        <ele>133.2</ele>
        <time>2019-08-16T10:31:57Z</time>
      </trkpt>
      <trkpt lat="41.7843350" lon="-8.8489990">
        <ele>132.6</ele>
        <time>2019-08-16T10:31:58Z</time>
      </trkpt>
      <trkpt lat="41.7843810" lon="-8.8489920">
        <ele>132.2</ele>
        <time>2019-08-16T10:31:59Z</time>
      </trkpt>
      <trkpt lat="41.7845380" lon="-8.8490540">
        <ele>132.2</ele>
        <time>2019-08-16T10:32:02Z</time>
      </trkpt>
      <trkpt lat="41.7845920" lon="-8.8490830">
        <ele>132.2</ele>
        <time>2019-08-16T10:32:03Z</time>
      </trkpt>
      <trkpt lat="41.7848410" lon="-8.8492860">
        <ele>132.2</ele>
        <time>2019-08-16T10:32:09Z</time>
      </trkpt>
      <trkpt lat="41.7850730" lon="-8.8495620">
        <ele>132.2</ele>
        <time>2019-08-16T10:32:15Z</time>
      </trkpt>
      <trkpt lat="41.7851320" lon="-8.8496750">
        <ele>132.2</ele>
        <time>2019-08-16T10:32:17Z</time>
      </trkpt>
      <trkpt lat="41.7851810" lon="-8.8497790">
        <ele>132.2</ele>
        <time>2019-08-16T10:32:19Z</time>
      </trkpt>
      <trkpt lat="41.7853160" lon="-8.8500900">
        <ele>132.2</ele>
        <time>2019-08-16T10:32:25Z</time>
      </trkpt>
      <trkpt lat="41.7854010" lon="-8.8502760">
        <ele>132.6</ele>
        <time>2019-08-16T10:32:29Z</time>
      </trkpt>
      <trkpt lat="41.7854170" lon="-8.8503240">
        <ele>133.0</ele>
        <time>2019-08-16T10:32:30Z</time>
      </trkpt>
      <trkpt lat="41.7854300" lon="-8.8503680">
        <ele>133.4</ele>
        <time>2019-08-16T10:32:31Z</time>
      </trkpt>
      <trkpt lat="41.7854410" lon="-8.8504150">
        <ele>133.8</ele>
        <time>2019-08-16T10:32:32Z</time>
      </trkpt>
      <trkpt lat="41.7854500" lon="-8.8504540">
        <ele>134.2</ele>
        <time>2019-08-16T10:32:33Z</time>
      </trkpt>
      <trkpt lat="41.7854600" lon="-8.8505680">
        <ele>134.2</ele>
        <time>2019-08-16T10:32:36Z</time>
      </trkpt>
      <trkpt lat="41.7854760" lon="-8.8506510">
        <ele>134.2</ele>
        <time>2019-08-16T10:32:38Z</time>
      </trkpt>
      <trkpt lat="41.7853960" lon="-8.8510180">
        <ele>134.2</ele>
        <time>2019-08-16T10:32:47Z</time>
      </trkpt>
      <trkpt lat="41.7853770" lon="-8.8513510">
        <ele>134.2</ele>
        <time>2019-08-16T10:32:55Z</time>
      </trkpt>
      <trkpt lat="41.7854400" lon="-8.8515080">
        <ele>134.2</ele>
        <time>2019-08-16T10:32:58Z</time>
      </trkpt>
      <trkpt lat="41.7854560" lon="-8.8515550">
        <ele>134.2</ele>
        <time>2019-08-16T10:32:59Z</time>
      </trkpt>
      <trkpt lat="41.7855890" lon="-8.8519050">
        <ele>134.2</ele>
        <time>2019-08-16T10:33:06Z</time>
      </trkpt>
      <trkpt lat="41.7856900" lon="-8.8521330">
        <ele>134.2</ele>
        <time>2019-08-16T10:33:11Z</time>
      </trkpt>
      <trkpt lat="41.7857910" lon="-8.8522850">
        <ele>134.6</ele>
        <time>2019-08-16T10:33:15Z</time>
      </trkpt>
      <trkpt lat="41.7858230" lon="-8.8522770">
        <ele>135.0</ele>
        <time>2019-08-16T10:33:16Z</time>
      </trkpt>
      <trkpt lat="41.7858520" lon="-8.8522800">
        <ele>135.4</ele>
        <time>2019-08-16T10:33:17Z</time>
      </trkpt>
      <trkpt lat="41.7858850" lon="-8.8522650">
        <ele>135.8</ele>
        <time>2019-08-16T10:33:18Z</time>
      </trkpt>
      <trkpt lat="41.7859180" lon="-8.8522400">
        <ele>136.4</ele>
        <time>2019-08-16T10:33:19Z</time>
      </trkpt>
      <trkpt lat="41.7859530" lon="-8.8522160">
        <ele>136.4</ele>
        <time>2019-08-16T10:33:20Z</time>
      </trkpt>
      <trkpt lat="41.7859840" lon="-8.8522080">
        <ele>136.4</ele>
        <time>2019-08-16T10:33:21Z</time>
      </trkpt>
      <trkpt lat="41.7861890" lon="-8.8520750">
        <ele>136.4</ele>
        <time>2019-08-16T10:33:29Z</time>
      </trkpt>
      <trkpt lat="41.7863690" lon="-8.8520150">
        <ele>136.4</ele>
        <time>2019-08-16T10:33:35Z</time>
      </trkpt>
      <trkpt lat="41.7865350" lon="-8.8519730">
        <ele>136.4</ele>
        <time>2019-08-16T10:33:41Z</time>
      </trkpt>
      <trkpt lat="41.7865930" lon="-8.8519320">
        <ele>135.8</ele>
        <time>2019-08-16T10:33:43Z</time>
      </trkpt>
      <trkpt lat="41.7866300" lon="-8.8519000">
        <ele>135.4</ele>
        <time>2019-08-16T10:33:44Z</time>
      </trkpt>
      <trkpt lat="41.7866530" lon="-8.8518690">
        <ele>134.8</ele>
        <time>2019-08-16T10:33:45Z</time>
      </trkpt>
      <trkpt lat="41.7866760" lon="-8.8518450">
        <ele>134.2</ele>
        <time>2019-08-16T10:33:46Z</time>
      </trkpt>
      <trkpt lat="41.7867000" lon="-8.8518190">
        <ele>133.4</ele>
        <time>2019-08-16T10:33:47Z</time>
      </trkpt>
      <trkpt lat="41.7867210" lon="-8.8517980">
        <ele>132.8</ele>
        <time>2019-08-16T10:33:48Z</time>
      </trkpt>
      <trkpt lat="41.7867410" lon="-8.8517770">
        <ele>132.2</ele>
        <time>2019-08-16T10:33:49Z</time>
      </trkpt>
      <trkpt lat="41.7867610" lon="-8.8517590">
        <ele>131.6</ele>
        <time>2019-08-16T10:33:50Z</time>
      </trkpt>
      <trkpt lat="41.7867800" lon="-8.8517450">
        <ele>131.0</ele>
        <time>2019-08-16T10:33:51Z</time>
      </trkpt>
      <trkpt lat="41.7868160" lon="-8.8517290">
        <ele>130.4</ele>
        <time>2019-08-16T10:33:52Z</time>
      </trkpt>
      <trkpt lat="41.7868630" lon="-8.8517260">
        <ele>130.0</ele>
        <time>2019-08-16T10:33:53Z</time>
      </trkpt>
      <trkpt lat="41.7869110" lon="-8.8517380">
        <ele>129.4</ele>
        <time>2019-08-16T10:33:54Z</time>
      </trkpt>
      <trkpt lat="41.7869510" lon="-8.8517590">
        <ele>128.8</ele>
        <time>2019-08-16T10:33:55Z</time>
      </trkpt>
      <trkpt lat="41.7869830" lon="-8.8517730">
        <ele>128.4</ele>
        <time>2019-08-16T10:33:56Z</time>
      </trkpt>
      <trkpt lat="41.7870100" lon="-8.8517890">
        <ele>127.8</ele>
        <time>2019-08-16T10:33:57Z</time>
      </trkpt>
      <trkpt lat="41.7870420" lon="-8.8518160">
        <ele>127.4</ele>
        <time>2019-08-16T10:33:58Z</time>
      </trkpt>
      <trkpt lat="41.7870640" lon="-8.8518300">
        <ele>126.8</ele>
        <time>2019-08-16T10:33:59Z</time>
      </trkpt>
      <trkpt lat="41.7870790" lon="-8.8518480">
        <ele>126.4</ele>
        <time>2019-08-16T10:34:00Z</time>
      </trkpt>
      <trkpt lat="41.7870980" lon="-8.8518690">
        <ele>125.8</ele>
        <time>2019-08-16T10:34:01Z</time>
      </trkpt>
      <trkpt lat="41.7871230" lon="-8.8518920">
        <ele>125.4</ele>
        <time>2019-08-16T10:34:02Z</time>
      </trkpt>
      <trkpt lat="41.7871490" lon="-8.8519060">
        <ele>125.4</ele>
        <time>2019-08-16T10:34:03Z</time>
      </trkpt>
      <trkpt lat="41.7871840" lon="-8.8519250">
        <ele>124.8</ele>
        <time>2019-08-16T10:34:04Z</time>
      </trkpt>
      <trkpt lat="41.7872160" lon="-8.8519410">
        <ele>124.4</ele>
        <time>2019-08-16T10:34:05Z</time>
      </trkpt>
      <trkpt lat="41.7872450" lon="-8.8519290">
        <ele>124.0</ele>
        <time>2019-08-16T10:34:06Z</time>
      </trkpt>
      <trkpt lat="41.7872750" lon="-8.8519340">
        <ele>123.4</ele>
        <time>2019-08-16T10:34:07Z</time>
      </trkpt>
      <trkpt lat="41.7872960" lon="-8.8519320">
        <ele>123.0</ele>
        <time>2019-08-16T10:34:08Z</time>
      </trkpt>
      <trkpt lat="41.7873080" lon="-8.8519340">
        <ele>122.6</ele>
        <time>2019-08-16T10:34:09Z</time>
      </trkpt>
      <trkpt lat="41.7873240" lon="-8.8519390">
        <ele>122.0</ele>
        <time>2019-08-16T10:34:10Z</time>
      </trkpt>
      <trkpt lat="41.7873420" lon="-8.8519490">
        <ele>121.6</ele>
        <time>2019-08-16T10:34:11Z</time>
      </trkpt>
      <trkpt lat="41.7873590" lon="-8.8519550">
        <ele>121.2</ele>
        <time>2019-08-16T10:34:12Z</time>
      </trkpt>
      <trkpt lat="41.7873800" lon="-8.8519580">
        <ele>120.6</ele>
        <time>2019-08-16T10:34:13Z</time>
      </trkpt>
      <trkpt lat="41.7874090" lon="-8.8519610">
        <ele>120.2</ele>
        <time>2019-08-16T10:34:14Z</time>
      </trkpt>
      <trkpt lat="41.7874400" lon="-8.8519710">
        <ele>119.6</ele>
        <time>2019-08-16T10:34:15Z</time>
      </trkpt>
      <trkpt lat="41.7874690" lon="-8.8519790">
        <ele>119.2</ele>
        <time>2019-08-16T10:34:16Z</time>
      </trkpt>
      <trkpt lat="41.7875020" lon="-8.8519960">
        <ele>118.6</ele>
        <time>2019-08-16T10:34:17Z</time>
      </trkpt>
      <trkpt lat="41.7875400" lon="-8.8520070">
        <ele>118.0</ele>
        <time>2019-08-16T10:34:18Z</time>
      </trkpt>
      <trkpt lat="41.7875800" lon="-8.8520200">
        <ele>117.4</ele>
        <time>2019-08-16T10:34:19Z</time>
      </trkpt>
      <trkpt lat="41.7876190" lon="-8.8520310">
        <ele>116.8</ele>
        <time>2019-08-16T10:34:20Z</time>
      </trkpt>
      <trkpt lat="41.7876620" lon="-8.8520470">
        <ele>116.2</ele>
        <time>2019-08-16T10:34:21Z</time>
      </trkpt>
      <trkpt lat="41.7877070" lon="-8.8520660">
        <ele>115.6</ele>
        <time>2019-08-16T10:34:22Z</time>
      </trkpt>
      <trkpt lat="41.7878470" lon="-8.8521360">
        <ele>115.2</ele>
        <time>2019-08-16T10:34:25Z</time>
      </trkpt>
      <trkpt lat="41.7878950" lon="-8.8521080">
        <ele>114.8</ele>
        <time>2019-08-16T10:34:26Z</time>
      </trkpt>
      <trkpt lat="41.7879430" lon="-8.8520890">
        <ele>114.4</ele>
        <time>2019-08-16T10:34:27Z</time>
      </trkpt>
      <trkpt lat="41.7879960" lon="-8.8520630">
        <ele>114.0</ele>
        <time>2019-08-16T10:34:28Z</time>
      </trkpt>
      <trkpt lat="41.7880380" lon="-8.8520240">
        <ele>113.6</ele>
        <time>2019-08-16T10:34:29Z</time>
      </trkpt>
      <trkpt lat="41.7881620" lon="-8.8518330">
        <ele>113.6</ele>
        <time>2019-08-16T10:34:33Z</time>
      </trkpt>
      <trkpt lat="41.7883340" lon="-8.8517260">
        <ele>113.6</ele>
        <time>2019-08-16T10:34:38Z</time>
      </trkpt>
      <trkpt lat="41.7884780" lon="-8.8517080">
        <ele>113.2</ele>
        <time>2019-08-16T10:34:41Z</time>
      </trkpt>
      <trkpt lat="41.7885260" lon="-8.8517020">
        <ele>112.6</ele>
        <time>2019-08-16T10:34:42Z</time>
      </trkpt>
      <trkpt lat="41.7885700" lon="-8.8516940">
        <ele>112.2</ele>
        <time>2019-08-16T10:34:43Z</time>
      </trkpt>
      <trkpt lat="41.7886040" lon="-8.8516750">
        <ele>111.8</ele>
        <time>2019-08-16T10:34:44Z</time>
      </trkpt>
      <trkpt lat="41.7886330" lon="-8.8516600">
        <ele>111.4</ele>
        <time>2019-08-16T10:34:45Z</time>
      </trkpt>
      <trkpt lat="41.7886900" lon="-8.8516770">
        <ele>111.4</ele>
        <time>2019-08-16T10:34:46Z</time>
      </trkpt>
      <trkpt lat="41.7887310" lon="-8.8516820">
        <ele>110.8</ele>
        <time>2019-08-16T10:34:47Z</time>
      </trkpt>
      <trkpt lat="41.7887770" lon="-8.8516960">
        <ele>110.4</ele>
        <time>2019-08-16T10:34:48Z</time>
      </trkpt>
      <trkpt lat="41.7888150" lon="-8.8517190">
        <ele>110.0</ele>
        <time>2019-08-16T10:34:49Z</time>
      </trkpt>
      <trkpt lat="41.7888530" lon="-8.8517460">
        <ele>109.6</ele>
        <time>2019-08-16T10:34:50Z</time>
      </trkpt>
      <trkpt lat="41.7888940" lon="-8.8517660">
        <ele>109.2</ele>
        <time>2019-08-16T10:34:51Z</time>
      </trkpt>
      <trkpt lat="41.7889340" lon="-8.8517790">
        <ele>108.8</ele>
        <time>2019-08-16T10:34:52Z</time>
      </trkpt>
      <trkpt lat="41.7889730" lon="-8.8517700">
        <ele>108.4</ele>
        <time>2019-08-16T10:34:53Z</time>
      </trkpt>
      <trkpt lat="41.7890080" lon="-8.8517620">
        <ele>108.0</ele>
        <time>2019-08-16T10:34:54Z</time>
      </trkpt>
      <trkpt lat="41.7890540" lon="-8.8517540">
        <ele>107.4</ele>
        <time>2019-08-16T10:34:55Z</time>
      </trkpt>
      <trkpt lat="41.7890920" lon="-8.8517450">
        <ele>106.8</ele>
        <time>2019-08-16T10:34:56Z</time>
      </trkpt>
      <trkpt lat="41.7891320" lon="-8.8517330">
        <ele>106.2</ele>
        <time>2019-08-16T10:34:57Z</time>
      </trkpt>
      <trkpt lat="41.7891640" lon="-8.8517210">
        <ele>105.6</ele>
        <time>2019-08-16T10:34:58Z</time>
      </trkpt>
      <trkpt lat="41.7892010" lon="-8.8517180">
        <ele>105.0</ele>
        <time>2019-08-16T10:34:59Z</time>
      </trkpt>
      <trkpt lat="41.7892270" lon="-8.8517080">
        <ele>105.0</ele>
        <time>2019-08-16T10:35:00Z</time>
      </trkpt>
      <trkpt lat="41.7892420" lon="-8.8516950">
        <ele>104.6</ele>
        <time>2019-08-16T10:35:01Z</time>
      </trkpt>
      <trkpt lat="41.7892710" lon="-8.8516790">
        <ele>104.2</ele>
        <time>2019-08-16T10:35:02Z</time>
      </trkpt>
      <trkpt lat="41.7892940" lon="-8.8516640">
        <ele>103.6</ele>
        <time>2019-08-16T10:35:03Z</time>
      </trkpt>
      <trkpt lat="41.7893130" lon="-8.8516470">
        <ele>103.2</ele>
        <time>2019-08-16T10:35:04Z</time>
      </trkpt>
      <trkpt lat="41.7893330" lon="-8.8516300">
        <ele>102.8</ele>
        <time>2019-08-16T10:35:05Z</time>
      </trkpt>
      <trkpt lat="41.7893440" lon="-8.8515970">
        <ele>102.2</ele>
        <time>2019-08-16T10:35:06Z</time>
      </trkpt>
      <trkpt lat="41.7893480" lon="-8.8515600">
        <ele>101.6</ele>
        <time>2019-08-16T10:35:07Z</time>
      </trkpt>
      <trkpt lat="41.7893570" lon="-8.8515230">
        <ele>101.0</ele>
        <time>2019-08-16T10:35:08Z</time>
      </trkpt>
      <trkpt lat="41.7893740" lon="-8.8514940">
        <ele>100.6</ele>
        <time>2019-08-16T10:35:09Z</time>
      </trkpt>
      <trkpt lat="41.7894030" lon="-8.8514690">
        <ele>100.0</ele>
        <time>2019-08-16T10:35:10Z</time>
      </trkpt>
      <trkpt lat="41.7894450" lon="-8.8514500">
        <ele>99.4</ele>
        <time>2019-08-16T10:35:11Z</time>
      </trkpt>
      <trkpt lat="41.7894830" lon="-8.8514400">
        <ele>98.8</ele>
        <time>2019-08-16T10:35:12Z</time>
      </trkpt>
      <trkpt lat="41.7895370" lon="-8.8514760">
        <ele>98.2</ele>
        <time>2019-08-16T10:35:13Z</time>
      </trkpt>
      <trkpt lat="41.7895860" lon="-8.8514870">
        <ele>97.6</ele>
        <time>2019-08-16T10:35:14Z</time>
      </trkpt>
      <trkpt lat="41.7896330" lon="-8.8514950">
        <ele>97.0</ele>
        <time>2019-08-16T10:35:15Z</time>
      </trkpt>
      <trkpt lat="41.7896720" lon="-8.8515100">
        <ele>96.2</ele>
        <time>2019-08-16T10:35:16Z</time>
      </trkpt>
      <trkpt lat="41.7897210" lon="-8.8515060">
        <ele>95.6</ele>
        <time>2019-08-16T10:35:17Z</time>
      </trkpt>
      <trkpt lat="41.7898080" lon="-8.8515230">
        <ele>95.6</ele>
        <time>2019-08-16T10:35:19Z</time>
      </trkpt>
      <trkpt lat="41.7899280" lon="-8.8515540">
        <ele>95.6</ele>
        <time>2019-08-16T10:35:22Z</time>
      </trkpt>
      <trkpt lat="41.7899660" lon="-8.8515490">
        <ele>95.6</ele>
        <time>2019-08-16T10:35:23Z</time>
      </trkpt>
      <trkpt lat="41.7901300" lon="-8.8515350">
        <ele>95.6</ele>
        <time>2019-08-16T10:35:28Z</time>
      </trkpt>
      <trkpt lat="41.7901720" lon="-8.8515140">
        <ele>95.2</ele>
        <time>2019-08-16T10:35:29Z</time>
      </trkpt>
      <trkpt lat="41.7902210" lon="-8.8514970">
        <ele>94.8</ele>
        <time>2019-08-16T10:35:30Z</time>
      </trkpt>
      <trkpt lat="41.7902760" lon="-8.8514830">
        <ele>94.2</ele>
        <time>2019-08-16T10:35:31Z</time>
      </trkpt>
      <trkpt lat="41.7903260" lon="-8.8514810">
        <ele>93.8</ele>
        <time>2019-08-16T10:35:32Z</time>
      </trkpt>
      <trkpt lat="41.7903750" lon="-8.8515010">
        <ele>93.2</ele>
        <time>2019-08-16T10:35:33Z</time>
      </trkpt>
      <trkpt lat="41.7904150" lon="-8.8515070">
        <ele>92.8</ele>
        <time>2019-08-16T10:35:34Z</time>
      </trkpt>
      <trkpt lat="41.7904550" lon="-8.8515130">
        <ele>92.4</ele>
        <time>2019-08-16T10:35:35Z</time>
      </trkpt>
      <trkpt lat="41.7905050" lon="-8.8515190">
        <ele>92.0</ele>
        <time>2019-08-16T10:35:36Z</time>
      </trkpt>
      <trkpt lat="41.7905650" lon="-8.8515240">
        <ele>91.6</ele>
        <time>2019-08-16T10:35:37Z</time>
      </trkpt>
      <trkpt lat="41.7906210" lon="-8.8515280">
        <ele>91.0</ele>
        <time>2019-08-16T10:35:38Z</time>
      </trkpt>
      <trkpt lat="41.7907470" lon="-8.8515310">
        <ele>90.6</ele>
        <time>2019-08-16T10:35:40Z</time>
      </trkpt>
      <trkpt lat="41.7908080" lon="-8.8515320">
        <ele>90.2</ele>
        <time>2019-08-16T10:35:41Z</time>
      </trkpt>
      <trkpt lat="41.7908710" lon="-8.8515290">
        <ele>89.6</ele>
        <time>2019-08-16T10:35:42Z</time>
      </trkpt>
      <trkpt lat="41.7909230" lon="-8.8515220">
        <ele>89.2</ele>
        <time>2019-08-16T10:35:43Z</time>
      </trkpt>
      <trkpt lat="41.7909680" lon="-8.8514980">
        <ele>88.6</ele>
        <time>2019-08-16T10:35:44Z</time>
      </trkpt>
      <trkpt lat="41.7910570" lon="-8.8514740">
        <ele>88.2</ele>
        <time>2019-08-16T10:35:46Z</time>
      </trkpt>
      <trkpt lat="41.7911050" lon="-8.8514790">
        <ele>87.8</ele>
        <time>2019-08-16T10:35:47Z</time>
      </trkpt>
      <trkpt lat="41.7911680" lon="-8.8514770">
        <ele>87.4</ele>
        <time>2019-08-16T10:35:48Z</time>
      </trkpt>
      <trkpt lat="41.7912270" lon="-8.8514680">
        <ele>87.0</ele>
        <time>2019-08-16T10:35:49Z</time>
      </trkpt>
      <trkpt lat="41.7912840" lon="-8.8514550">
        <ele>86.4</ele>
        <time>2019-08-16T10:35:50Z</time>
      </trkpt>
      <trkpt lat="41.7913410" lon="-8.8514440">
        <ele>85.8</ele>
        <time>2019-08-16T10:35:51Z</time>
      </trkpt>
      <trkpt lat="41.7914090" lon="-8.8514350">
        <ele>85.4</ele>
        <time>2019-08-16T10:35:52Z</time>
      </trkpt>
      <trkpt lat="41.7914690" lon="-8.8514300">
        <ele>84.8</ele>
        <time>2019-08-16T10:35:53Z</time>
      </trkpt>
      <trkpt lat="41.7915360" lon="-8.8514260">
        <ele>84.2</ele>
        <time>2019-08-16T10:35:54Z</time>
      </trkpt>
      <trkpt lat="41.7916100" lon="-8.8514240">
        <ele>83.8</ele>
        <time>2019-08-16T10:35:55Z</time>
      </trkpt>
      <trkpt lat="41.7916860" lon="-8.8514230">
        <ele>83.4</ele>
        <time>2019-08-16T10:35:56Z</time>
      </trkpt>
      <trkpt lat="41.7917580" lon="-8.8514160">
        <ele>83.0</ele>
        <time>2019-08-16T10:35:57Z</time>
      </trkpt>
      <trkpt lat="41.7918350" lon="-8.8513930">
        <ele>82.4</ele>
        <time>2019-08-16T10:35:58Z</time>
      </trkpt>
      <trkpt lat="41.7919100" lon="-8.8513600">
        <ele>82.0</ele>
        <time>2019-08-16T10:35:59Z</time>
      </trkpt>
      <trkpt lat="41.7919790" lon="-8.8513270">
        <ele>81.6</ele>
        <time>2019-08-16T10:36:00Z</time>
      </trkpt>
      <trkpt lat="41.7920450" lon="-8.8512950">
        <ele>81.0</ele>
        <time>2019-08-16T10:36:01Z</time>
      </trkpt>
      <trkpt lat="41.7921050" lon="-8.8512600">
        <ele>80.6</ele>
        <time>2019-08-16T10:36:02Z</time>
      </trkpt>
      <trkpt lat="41.7921470" lon="-8.8512070">
        <ele>80.0</ele>
        <time>2019-08-16T10:36:03Z</time>
      </trkpt>
      <trkpt lat="41.7921940" lon="-8.8511380">
        <ele>79.4</ele>
        <time>2019-08-16T10:36:04Z</time>
      </trkpt>
      <trkpt lat="41.7922460" lon="-8.8510680">
        <ele>78.6</ele>
        <time>2019-08-16T10:36:05Z</time>
      </trkpt>
      <trkpt lat="41.7923020" lon="-8.8510010">
        <ele>77.8</ele>
        <time>2019-08-16T10:36:06Z</time>
      </trkpt>
      <trkpt lat="41.7923640" lon="-8.8509570">
        <ele>76.8</ele>
        <time>2019-08-16T10:36:07Z</time>
      </trkpt>
      <trkpt lat="41.7924240" lon="-8.8509100">
        <ele>76.0</ele>
        <time>2019-08-16T10:36:08Z</time>
      </trkpt>
      <trkpt lat="41.7924710" lon="-8.8508620">
        <ele>75.2</ele>
        <time>2019-08-16T10:36:09Z</time>
      </trkpt>
      <trkpt lat="41.7924900" lon="-8.8507920">
        <ele>74.4</ele>
        <time>2019-08-16T10:36:10Z</time>
      </trkpt>
      <trkpt lat="41.7925220" lon="-8.8507440">
        <ele>73.8</ele>
        <time>2019-08-16T10:36:11Z</time>
      </trkpt>
      <trkpt lat="41.7925540" lon="-8.8506930">
        <ele>73.0</ele>
        <time>2019-08-16T10:36:12Z</time>
      </trkpt>
      <trkpt lat="41.7925990" lon="-8.8506640">
        <ele>72.4</ele>
        <time>2019-08-16T10:36:13Z</time>
      </trkpt>
      <trkpt lat="41.7926580" lon="-8.8506590">
        <ele>71.8</ele>
        <time>2019-08-16T10:36:14Z</time>
      </trkpt>
      <trkpt lat="41.7927190" lon="-8.8506650">
        <ele>71.2</ele>
        <time>2019-08-16T10:36:15Z</time>
      </trkpt>
      <trkpt lat="41.7927750" lon="-8.8506520">
        <ele>70.6</ele>
        <time>2019-08-16T10:36:16Z</time>
      </trkpt>
      <trkpt lat="41.7928270" lon="-8.8506320">
        <ele>70.0</ele>
        <time>2019-08-16T10:36:17Z</time>
      </trkpt>
      <trkpt lat="41.7931910" lon="-8.8505490">
        <ele>70.0</ele>
        <time>2019-08-16T10:36:23Z</time>
      </trkpt>
      <trkpt lat="41.7932600" lon="-8.8505540">
        <ele>69.0</ele>
        <time>2019-08-16T10:36:24Z</time>
      </trkpt>
      <trkpt lat="41.7933880" lon="-8.8505690">
        <ele>68.0</ele>
        <time>2019-08-16T10:36:26Z</time>
      </trkpt>
      <trkpt lat="41.7934550" lon="-8.8505910">
        <ele>68.0</ele>
        <time>2019-08-16T10:36:27Z</time>
      </trkpt>
      <trkpt lat="41.7935130" lon="-8.8506230">
        <ele>67.6</ele>
        <time>2019-08-16T10:36:28Z</time>
      </trkpt>
      <trkpt lat="41.7937240" lon="-8.8507080">
        <ele>67.6</ele>
        <time>2019-08-16T10:36:32Z</time>
      </trkpt>
      <trkpt lat="41.7938570" lon="-8.8506700">
        <ele>67.2</ele>
        <time>2019-08-16T10:36:34Z</time>
      </trkpt>
      <trkpt lat="41.7939210" lon="-8.8506560">
        <ele>66.6</ele>
        <time>2019-08-16T10:36:35Z</time>
      </trkpt>
      <trkpt lat="41.7939810" lon="-8.8506410">
        <ele>66.2</ele>
        <time>2019-08-16T10:36:36Z</time>
      </trkpt>
      <trkpt lat="41.7941130" lon="-8.8506190">
        <ele>65.8</ele>
        <time>2019-08-16T10:36:38Z</time>
      </trkpt>
      <trkpt lat="41.7941750" lon="-8.8506140">
        <ele>65.4</ele>
        <time>2019-08-16T10:36:39Z</time>
      </trkpt>
      <trkpt lat="41.7942970" lon="-8.8506210">
        <ele>65.4</ele>
        <time>2019-08-16T10:36:41Z</time>
      </trkpt>
      <trkpt lat="41.7944680" lon="-8.8506350">
        <ele>65.4</ele>
        <time>2019-08-16T10:36:44Z</time>
      </trkpt>
      <trkpt lat="41.7946130" lon="-8.8506670">
        <ele>65.4</ele>
        <time>2019-08-16T10:36:47Z</time>
      </trkpt>
      <trkpt lat="41.7946590" lon="-8.8506610">
        <ele>64.6</ele>
        <time>2019-08-16T10:36:48Z</time>
      </trkpt>
      <trkpt lat="41.7947130" lon="-8.8506480">
        <ele>64.2</ele>
        <time>2019-08-16T10:36:49Z</time>
      </trkpt>
      <trkpt lat="41.7948230" lon="-8.8506120">
        <ele>63.8</ele>
        <time>2019-08-16T10:36:51Z</time>
      </trkpt>
      <trkpt lat="41.7948580" lon="-8.8505910">
        <ele>63.4</ele>
        <time>2019-08-16T10:36:52Z</time>
      </trkpt>
      <trkpt lat="41.7948980" lon="-8.8505710">
        <ele>62.8</ele>
        <time>2019-08-16T10:36:53Z</time>
      </trkpt>
      <trkpt lat="41.7949300" lon="-8.8505540">
        <ele>62.4</ele>
        <time>2019-08-16T10:36:54Z</time>
      </trkpt>
      <trkpt lat="41.7949620" lon="-8.8505350">
        <ele>61.8</ele>
        <time>2019-08-16T10:36:55Z</time>
      </trkpt>
      <trkpt lat="41.7949870" lon="-8.8505210">
        <ele>61.2</ele>
        <time>2019-08-16T10:36:56Z</time>
      </trkpt>
      <trkpt lat="41.7950110" lon="-8.8505060">
        <ele>60.6</ele>
        <time>2019-08-16T10:36:57Z</time>
      </trkpt>
      <trkpt lat="41.7950280" lon="-8.8504930">
        <ele>60.0</ele>
        <time>2019-08-16T10:36:58Z</time>
      </trkpt>
      <trkpt lat="41.7950480" lon="-8.8504800">
        <ele>59.2</ele>
        <time>2019-08-16T10:36:59Z</time>
      </trkpt>
      <trkpt lat="41.7950670" lon="-8.8504660">
        <ele>58.6</ele>
        <time>2019-08-16T10:37:00Z</time>
      </trkpt>
      <trkpt lat="41.7951040" lon="-8.8504740">
        <ele>58.6</ele>
        <time>2019-08-16T10:37:03Z</time>
      </trkpt>
      <trkpt lat="41.7951300" lon="-8.8504800">
        <ele>58.2</ele>
        <time>2019-08-16T10:37:05Z</time>
      </trkpt>
      <trkpt lat="41.7951360" lon="-8.8504780">
        <ele>57.8</ele>
        <time>2019-08-16T10:37:06Z</time>
      </trkpt>
      <trkpt lat="41.7951420" lon="-8.8504780">
        <ele>57.4</ele>
        <time>2019-08-16T10:37:07Z</time>
      </trkpt>
      <trkpt lat="41.7951510" lon="-8.8504800">
        <ele>57.0</ele>
        <time>2019-08-16T10:37:08Z</time>
      </trkpt>
      <trkpt lat="41.7951600" lon="-8.8504820">
        <ele>56.6</ele>
        <time>2019-08-16T10:37:09Z</time>
      </trkpt>
      <trkpt lat="41.7951640" lon="-8.8504860">
        <ele>56.6</ele>
        <time>2019-08-16T10:37:11Z</time>
      </trkpt>
      <trkpt lat="41.7951690" lon="-8.8504880">
        <ele>56.6</ele>
        <time>2019-08-16T10:37:40Z</time>
      </trkpt>
      <trkpt lat="41.7951680" lon="-8.8504930">
        <ele>56.6</ele>
        <time>2019-08-16T10:37:41Z</time>
      </trkpt>
      <trkpt lat="41.7954170" lon="-8.8508660">
        <ele>62.8</ele>
        <time>2019-08-16T10:38:07Z</time>
      </trkpt>
      <trkpt lat="41.7954290" lon="-8.8508840">
        <ele>62.8</ele>
        <time>2019-08-16T10:38:08Z</time>
      </trkpt>
      <trkpt lat="41.7955460" lon="-8.8510120">
        <ele>62.8</ele>
        <time>2019-08-16T10:38:14Z</time>
      </trkpt>
      <trkpt lat="41.7956510" lon="-8.8511770">
        <ele>62.8</ele>
        <time>2019-08-16T10:38:19Z</time>
      </trkpt>
      <trkpt lat="41.7958320" lon="-8.8513440">
        <ele>62.8</ele>
        <time>2019-08-16T10:38:26Z</time>
      </trkpt>
      <trkpt lat="41.7959780" lon="-8.8514230">
        <ele>62.2</ele>
        <time>2019-08-16T10:38:30Z</time>
      </trkpt>
      <trkpt lat="41.7960140" lon="-8.8514450">
        <ele>61.8</ele>
        <time>2019-08-16T10:38:31Z</time>
      </trkpt>
      <trkpt lat="41.7960530" lon="-8.8514730">
        <ele>61.4</ele>
        <time>2019-08-16T10:38:32Z</time>
      </trkpt>
      <trkpt lat="41.7961010" lon="-8.8515110">
        <ele>60.6</ele>
        <time>2019-08-16T10:38:33Z</time>
      </trkpt>
      <trkpt lat="41.7961560" lon="-8.8515470">
        <ele>60.0</ele>
        <time>2019-08-16T10:38:34Z</time>
      </trkpt>
      <trkpt lat="41.7962060" lon="-8.8515610">
        <ele>59.4</ele>
        <time>2019-08-16T10:38:35Z</time>
      </trkpt>
      <trkpt lat="41.7962530" lon="-8.8515530">
        <ele>58.8</ele>
        <time>2019-08-16T10:38:36Z</time>
      </trkpt>
      <trkpt lat="41.7963150" lon="-8.8515390">
        <ele>58.2</ele>
        <time>2019-08-16T10:38:37Z</time>
      </trkpt>
      <trkpt lat="41.7963790" lon="-8.8515210">
        <ele>57.6</ele>
        <time>2019-08-16T10:38:38Z</time>
      </trkpt>
      <trkpt lat="41.7964440" lon="-8.8515050">
        <ele>56.8</ele>
        <time>2019-08-16T10:38:39Z</time>
      </trkpt>
      <trkpt lat="41.7965030" lon="-8.8514970">
        <ele>56.2</ele>
        <time>2019-08-16T10:38:40Z</time>
      </trkpt>
      <trkpt lat="41.7965680" lon="-8.8515080">
        <ele>55.4</ele>
        <time>2019-08-16T10:38:41Z</time>
      </trkpt>
      <trkpt lat="41.7966250" lon="-8.8515250">
        <ele>54.8</ele>
        <time>2019-08-16T10:38:42Z</time>
      </trkpt>
      <trkpt lat="41.7966890" lon="-8.8515400">
        <ele>54.0</ele>
        <time>2019-08-16T10:38:43Z</time>
      </trkpt>
      <trkpt lat="41.7967520" lon="-8.8515530">
        <ele>53.4</ele>
        <time>2019-08-16T10:38:44Z</time>
      </trkpt>
      <trkpt lat="41.7968160" lon="-8.8515650">
        <ele>52.8</ele>
        <time>2019-08-16T10:38:45Z</time>
      </trkpt>
      <trkpt lat="41.7968740" lon="-8.8515750">
        <ele>52.0</ele>
        <time>2019-08-16T10:38:46Z</time>
      </trkpt>
      <trkpt lat="41.7969240" lon="-8.8515840">
        <ele>51.4</ele>
        <time>2019-08-16T10:38:47Z</time>
      </trkpt>
      <trkpt lat="41.7969690" lon="-8.8515830">
        <ele>51.0</ele>
        <time>2019-08-16T10:38:48Z</time>
      </trkpt>
      <trkpt lat="41.7970040" lon="-8.8515750">
        <ele>50.6</ele>
        <time>2019-08-16T10:38:49Z</time>
      </trkpt>
      <trkpt lat="41.7970370" lon="-8.8515590">
        <ele>50.2</ele>
        <time>2019-08-16T10:38:50Z</time>
      </trkpt>
      <trkpt lat="41.7970730" lon="-8.8515570">
        <ele>49.6</ele>
        <time>2019-08-16T10:38:51Z</time>
      </trkpt>
      <trkpt lat="41.7971130" lon="-8.8515760">
        <ele>49.2</ele>
        <time>2019-08-16T10:38:52Z</time>
      </trkpt>
      <trkpt lat="41.7972150" lon="-8.8516260">
        <ele>49.2</ele>
        <time>2019-08-16T10:38:54Z</time>
      </trkpt>
      <trkpt lat="41.7973450" lon="-8.8517030">
        <ele>48.6</ele>
        <time>2019-08-16T10:38:56Z</time>
      </trkpt>
      <trkpt lat="41.7974220" lon="-8.8517470">
        <ele>48.2</ele>
        <time>2019-08-16T10:38:57Z</time>
      </trkpt>
      <trkpt lat="41.7975030" lon="-8.8517930">
        <ele>47.4</ele>
        <time>2019-08-16T10:38:58Z</time>
      </trkpt>
      <trkpt lat="41.7975840" lon="-8.8518370">
        <ele>46.6</ele>
        <time>2019-08-16T10:38:59Z</time>
      </trkpt>
      <trkpt lat="41.7976820" lon="-8.8518750">
        <ele>45.6</ele>
        <time>2019-08-16T10:39:00Z</time>
      </trkpt>
      <trkpt lat="41.7977810" lon="-8.8519090">
        <ele>44.6</ele>
        <time>2019-08-16T10:39:01Z</time>
      </trkpt>
      <trkpt lat="41.7978880" lon="-8.8519350">
        <ele>43.4</ele>
        <time>2019-08-16T10:39:02Z</time>
      </trkpt>
      <trkpt lat="41.7980070" lon="-8.8519550">
        <ele>42.4</ele>
        <time>2019-08-16T10:39:03Z</time>
      </trkpt>
      <trkpt lat="41.7981270" lon="-8.8519700">
        <ele>41.2</ele>
        <time>2019-08-16T10:39:04Z</time>
      </trkpt>
      <trkpt lat="41.7982470" lon="-8.8519600">
        <ele>40.2</ele>
        <time>2019-08-16T10:39:05Z</time>
      </trkpt>
      <trkpt lat="41.7983670" lon="-8.8519660">
        <ele>39.2</ele>
        <time>2019-08-16T10:39:06Z</time>
      </trkpt>
      <trkpt lat="41.7984910" lon="-8.8519770">
        <ele>38.2</ele>
        <time>2019-08-16T10:39:07Z</time>
      </trkpt>
      <trkpt lat="41.7986110" lon="-8.8519880">
        <ele>37.2</ele>
        <time>2019-08-16T10:39:08Z</time>
      </trkpt>
      <trkpt lat="41.7987310" lon="-8.8519970">
        <ele>36.2</ele>
        <time>2019-08-16T10:39:09Z</time>
      </trkpt>
      <trkpt lat="41.7988500" lon="-8.8520030">
        <ele>35.2</ele>
        <time>2019-08-16T10:39:10Z</time>
      </trkpt>
      <trkpt lat="41.7989680" lon="-8.8520170">
        <ele>34.2</ele>
        <time>2019-08-16T10:39:11Z</time>
      </trkpt>
      <trkpt lat="41.7990860" lon="-8.8520300">
        <ele>33.4</ele>
        <time>2019-08-16T10:39:12Z</time>
      </trkpt>
      <trkpt lat="41.7992070" lon="-8.8520380">
        <ele>32.4</ele>
        <time>2019-08-16T10:39:13Z</time>
      </trkpt>
      <trkpt lat="41.7993250" lon="-8.8520440">
        <ele>31.4</ele>
        <time>2019-08-16T10:39:14Z</time>
      </trkpt>
      <trkpt lat="41.7994480" lon="-8.8520540">
        <ele>30.4</ele>
        <time>2019-08-16T10:39:15Z</time>
      </trkpt>
      <trkpt lat="41.7995710" lon="-8.8520630">
        <ele>29.4</ele>
        <time>2019-08-16T10:39:16Z</time>
      </trkpt>
      <trkpt lat="41.7996910" lon="-8.8520720">
        <ele>28.4</ele>
        <time>2019-08-16T10:39:17Z</time>
      </trkpt>
      <trkpt lat="41.7998100" lon="-8.8520800">
        <ele>27.6</ele>
        <time>2019-08-16T10:39:18Z</time>
      </trkpt>
      <trkpt lat="41.7999280" lon="-8.8520840">
        <ele>26.8</ele>
        <time>2019-08-16T10:39:19Z</time>
      </trkpt>
      <trkpt lat="41.8000470" lon="-8.8520890">
        <ele>25.8</ele>
        <time>2019-08-16T10:39:20Z</time>
      </trkpt>
      <trkpt lat="41.8001630" lon="-8.8520950">
        <ele>25.0</ele>
        <time>2019-08-16T10:39:21Z</time>
      </trkpt>
      <trkpt lat="41.8002840" lon="-8.8521010">
        <ele>24.0</ele>
        <time>2019-08-16T10:39:22Z</time>
      </trkpt>
      <trkpt lat="41.8003920" lon="-8.8521060">
        <ele>23.2</ele>
        <time>2019-08-16T10:39:23Z</time>
      </trkpt>
      <trkpt lat="41.8005010" lon="-8.8521100">
        <ele>22.8</ele>
        <time>2019-08-16T10:39:24Z</time>
      </trkpt>
      <trkpt lat="41.8006100" lon="-8.8521180">
        <ele>22.2</ele>
        <time>2019-08-16T10:39:25Z</time>
      </trkpt>
      <trkpt lat="41.8007190" lon="-8.8521270">
        <ele>21.8</ele>
        <time>2019-08-16T10:39:26Z</time>
      </trkpt>
      <trkpt lat="41.8008250" lon="-8.8521380">
        <ele>21.4</ele>
        <time>2019-08-16T10:39:27Z</time>
      </trkpt>
      <trkpt lat="41.8009270" lon="-8.8521480">
        <ele>21.0</ele>
        <time>2019-08-16T10:39:28Z</time>
      </trkpt>
      <trkpt lat="41.8012970" lon="-8.8521740">
        <ele>20.6</ele>
        <time>2019-08-16T10:39:32Z</time>
      </trkpt>
      <trkpt lat="41.8013830" lon="-8.8521780">
        <ele>20.6</ele>
        <time>2019-08-16T10:39:33Z</time>
      </trkpt>
      <trkpt lat="41.8014720" lon="-8.8521810">
        <ele>19.8</ele>
        <time>2019-08-16T10:39:34Z</time>
      </trkpt>
      <trkpt lat="41.8015600" lon="-8.8521850">
        <ele>19.2</ele>
        <time>2019-08-16T10:39:35Z</time>
      </trkpt>
      <trkpt lat="41.8016480" lon="-8.8521890">
        <ele>18.8</ele>
        <time>2019-08-16T10:39:36Z</time>
      </trkpt>
      <trkpt lat="41.8020730" lon="-8.8522210">
        <ele>18.4</ele>
        <time>2019-08-16T10:39:41Z</time>
      </trkpt>
      <trkpt lat="41.8021600" lon="-8.8522300">
        <ele>18.0</ele>
        <time>2019-08-16T10:39:42Z</time>
      </trkpt>
      <trkpt lat="41.8022420" lon="-8.8522380">
        <ele>17.6</ele>
        <time>2019-08-16T10:39:43Z</time>
      </trkpt>
      <trkpt lat="41.8023210" lon="-8.8522440">
        <ele>17.2</ele>
        <time>2019-08-16T10:39:44Z</time>
      </trkpt>
      <trkpt lat="41.8024000" lon="-8.8522510">
        <ele>16.8</ele>
        <time>2019-08-16T10:39:45Z</time>
      </trkpt>
      <trkpt lat="41.8028420" lon="-8.8522760">
        <ele>16.8</ele>
        <time>2019-08-16T10:39:51Z</time>
      </trkpt>
      <trkpt lat="41.8029230" lon="-8.8522800">
        <ele>16.4</ele>
        <time>2019-08-16T10:39:52Z</time>
      </trkpt>
      <trkpt lat="41.8029940" lon="-8.8522870">
        <ele>15.8</ele>
        <time>2019-08-16T10:39:53Z</time>
      </trkpt>
      <trkpt lat="41.8030620" lon="-8.8522920">
        <ele>15.4</ele>
        <time>2019-08-16T10:39:54Z</time>
      </trkpt>
      <trkpt lat="41.8031320" lon="-8.8522950">
        <ele>14.8</ele>
        <time>2019-08-16T10:39:55Z</time>
      </trkpt>
      <trkpt lat="41.8031930" lon="-8.8523000">
        <ele>14.4</ele>
        <time>2019-08-16T10:39:56Z</time>
      </trkpt>
      <trkpt lat="41.8032580" lon="-8.8523030">
        <ele>14.4</ele>
        <time>2019-08-16T10:39:57Z</time>
      </trkpt>
      <trkpt lat="41.8036500" lon="-8.8523040">
        <ele>14.4</ele>
        <time>2019-08-16T10:40:04Z</time>
      </trkpt>
      <trkpt lat="41.8037870" lon="-8.8522690">
        <ele>14.4</ele>
        <time>2019-08-16T10:40:07Z</time>
      </trkpt>
      <trkpt lat="41.8038600" lon="-8.8521770">
        <ele>14.4</ele>
        <time>2019-08-16T10:40:09Z</time>
      </trkpt>
      <trkpt lat="41.8039010" lon="-8.8520560">
        <ele>14.4</ele>
        <time>2019-08-16T10:40:11Z</time>
      </trkpt>
      <trkpt lat="41.8039720" lon="-8.8519680">
        <ele>14.4</ele>
        <time>2019-08-16T10:40:13Z</time>
      </trkpt>
      <trkpt lat="41.8041520" lon="-8.8517980">
        <ele>14.4</ele>
        <time>2019-08-16T10:40:18Z</time>
      </trkpt>
      <trkpt lat="41.8042130" lon="-8.8517350">
        <ele>14.4</ele>
        <time>2019-08-16T10:40:20Z</time>
      </trkpt>
      <trkpt lat="41.8043960" lon="-8.8514420">
        <ele>14.4</ele>
        <time>2019-08-16T10:40:27Z</time>
      </trkpt>
      <trkpt lat="41.8045770" lon="-8.8513390">
        <ele>14.4</ele>
        <time>2019-08-16T10:40:32Z</time>
      </trkpt>
      <trkpt lat="41.8048100" lon="-8.8512360">
        <ele>14.4</ele>
        <time>2019-08-16T10:40:38Z</time>
      </trkpt>
      <trkpt lat="41.8049290" lon="-8.8510980">
        <ele>14.4</ele>
        <time>2019-08-16T10:40:42Z</time>
      </trkpt>
      <trkpt lat="41.8049550" lon="-8.8510520">
        <ele>14.4</ele>
        <time>2019-08-16T10:40:43Z</time>
      </trkpt>
      <trkpt lat="41.8050000" lon="-8.8509590">
        <ele>14.4</ele>
        <time>2019-08-16T10:40:45Z</time>
      </trkpt>
      <trkpt lat="41.8051180" lon="-8.8507800">
        <ele>14.4</ele>
        <time>2019-08-16T10:40:49Z</time>
      </trkpt>
      <trkpt lat="41.8054470" lon="-8.8504990">
        <ele>14.4</ele>
        <time>2019-08-16T10:40:57Z</time>
      </trkpt>
      <trkpt lat="41.8057540" lon="-8.8503610">
        <ele>14.0</ele>
        <time>2019-08-16T10:41:02Z</time>
      </trkpt>
      <trkpt lat="41.8057890" lon="-8.8503000">
        <ele>13.4</ele>
        <time>2019-08-16T10:41:03Z</time>
      </trkpt>
      <trkpt lat="41.8058130" lon="-8.8502310">
        <ele>13.0</ele>
        <time>2019-08-16T10:41:04Z</time>
      </trkpt>
      <trkpt lat="41.8058390" lon="-8.8501600">
        <ele>12.6</ele>
        <time>2019-08-16T10:41:05Z</time>
      </trkpt>
      <trkpt lat="41.8058580" lon="-8.8500840">
        <ele>12.2</ele>
        <time>2019-08-16T10:41:06Z</time>
      </trkpt>
      <trkpt lat="41.8058910" lon="-8.8499380">
        <ele>12.2</ele>
        <time>2019-08-16T10:41:08Z</time>
      </trkpt>
      <trkpt lat="41.8059190" lon="-8.8498840">
        <ele>12.2</ele>
        <time>2019-08-16T10:41:09Z</time>
      </trkpt>
      <trkpt lat="41.8059550" lon="-8.8498400">
        <ele>11.6</ele>
        <time>2019-08-16T10:41:10Z</time>
      </trkpt>
      <trkpt lat="41.8060000" lon="-8.8498080">
        <ele>11.2</ele>
        <time>2019-08-16T10:41:11Z</time>
      </trkpt>
      <trkpt lat="41.8060510" lon="-8.8497880">
        <ele>10.8</ele>
        <time>2019-08-16T10:41:12Z</time>
      </trkpt>
      <trkpt lat="41.8061170" lon="-8.8497780">
        <ele>10.4</ele>
        <time>2019-08-16T10:41:13Z</time>
      </trkpt>
      <trkpt lat="41.8061700" lon="-8.8497730">
        <ele>10.0</ele>
        <time>2019-08-16T10:41:14Z</time>
      </trkpt>
      <trkpt lat="41.8063890" lon="-8.8497670">
        <ele>10.0</ele>
        <time>2019-08-16T10:41:19Z</time>
      </trkpt>
      <trkpt lat="41.8065740" lon="-8.8498550">
        <ele>10.0</ele>
        <time>2019-08-16T10:41:24Z</time>
      </trkpt>
      <trkpt lat="41.8067860" lon="-8.8499340">
        <ele>9.6</ele>
        <time>2019-08-16T10:41:30Z</time>
      </trkpt>
      <trkpt lat="41.8068240" lon="-8.8499410">
        <ele>9.2</ele>
        <time>2019-08-16T10:41:31Z</time>
      </trkpt>
      <trkpt lat="41.8068570" lon="-8.8499460">
        <ele>8.8</ele>
        <time>2019-08-16T10:41:32Z</time>
      </trkpt>
      <trkpt lat="41.8068900" lon="-8.8499590">
        <ele>8.4</ele>
        <time>2019-08-16T10:41:33Z</time>
      </trkpt>
      <trkpt lat="41.8069170" lon="-8.8499800">
        <ele>8.0</ele>
        <time>2019-08-16T10:41:34Z</time>
      </trkpt>
      <trkpt lat="41.8070050" lon="-8.8500540">
        <ele>8.0</ele>
        <time>2019-08-16T10:41:37Z</time>
      </trkpt>
      <trkpt lat="41.8071850" lon="-8.8501930">
        <ele>8.0</ele>
        <time>2019-08-16T10:41:45Z</time>
      </trkpt>
      <trkpt lat="41.8072640" lon="-8.8502870">
        <ele>8.4</ele>
        <time>2019-08-16T10:41:50Z</time>
      </trkpt>
      <trkpt lat="41.8072720" lon="-8.8503070">
        <ele>9.0</ele>
        <time>2019-08-16T10:41:51Z</time>
      </trkpt>
      <trkpt lat="41.8072880" lon="-8.8503300">
        <ele>9.6</ele>
        <time>2019-08-16T10:41:52Z</time>
      </trkpt>
      <trkpt lat="41.8072970" lon="-8.8503560">
        <ele>10.0</ele>
        <time>2019-08-16T10:41:53Z</time>
      </trkpt>
      <trkpt lat="41.8073080" lon="-8.8503840">
        <ele>10.6</ele>
        <time>2019-08-16T10:41:54Z</time>
      </trkpt>
      <trkpt lat="41.8073550" lon="-8.8504790">
        <ele>10.6</ele>
        <time>2019-08-16T10:41:58Z</time>
      </trkpt>
      <trkpt lat="41.8074030" lon="-8.8504860">
        <ele>10.6</ele>
        <time>2019-08-16T10:42:00Z</time>
      </trkpt>
      <trkpt lat="41.8076350" lon="-8.8505500">
        <ele>11.0</ele>
        <time>2019-08-16T10:42:09Z</time>
      </trkpt>
      <trkpt lat="41.8076660" lon="-8.8505510">
        <ele>11.4</ele>
        <time>2019-08-16T10:42:10Z</time>
      </trkpt>
      <trkpt lat="41.8076960" lon="-8.8505380">
        <ele>11.8</ele>
        <time>2019-08-16T10:42:11Z</time>
      </trkpt>
      <trkpt lat="41.8077280" lon="-8.8505390">
        <ele>12.2</ele>
        <time>2019-08-16T10:42:12Z</time>
      </trkpt>
      <trkpt lat="41.8077610" lon="-8.8505410">
        <ele>12.6</ele>
        <time>2019-08-16T10:42:13Z</time>
      </trkpt>
      <trkpt lat="41.8077920" lon="-8.8505500">
        <ele>12.6</ele>
        <time>2019-08-16T10:42:14Z</time>
      </trkpt>
      <trkpt lat="41.8080900" lon="-8.8505930">
        <ele>12.6</ele>
        <time>2019-08-16T10:42:24Z</time>
      </trkpt>
      <trkpt lat="41.8082930" lon="-8.8506180">
        <ele>13.0</ele>
        <time>2019-08-16T10:42:31Z</time>
      </trkpt>
      <trkpt lat="41.8083160" lon="-8.8506210">
        <ele>13.4</ele>
        <time>2019-08-16T10:42:32Z</time>
      </trkpt>
      <trkpt lat="41.8083340" lon="-8.8506260">
        <ele>13.8</ele>
        <time>2019-08-16T10:42:33Z</time>
      </trkpt>
      <trkpt lat="41.8083500" lon="-8.8506370">
        <ele>14.2</ele>
        <time>2019-08-16T10:42:34Z</time>
      </trkpt>
      <trkpt lat="41.8083620" lon="-8.8506420">
        <ele>14.6</ele>
        <time>2019-08-16T10:42:35Z</time>
      </trkpt>
      <trkpt lat="41.8083790" lon="-8.8506480">
        <ele>14.6</ele>
        <time>2019-08-16T10:42:38Z</time>
      </trkpt>
      <trkpt lat="41.8083870" lon="-8.8506570">
        <ele>14.6</ele>
        <time>2019-08-16T10:42:49Z</time>
      </trkpt>
      <trkpt lat="41.8084420" lon="-8.8506790">
        <ele>14.6</ele>
        <time>2019-08-16T10:42:52Z</time>
      </trkpt>
      <trkpt lat="41.8085870" lon="-8.8507790">
        <ele>15.0</ele>
        <time>2019-08-16T10:42:58Z</time>
      </trkpt>
      <trkpt lat="41.8086140" lon="-8.8507980">
        <ele>15.6</ele>
        <time>2019-08-16T10:42:59Z</time>
      </trkpt>
      <trkpt lat="41.8086400" lon="-8.8508200">
        <ele>16.0</ele>
        <time>2019-08-16T10:43:00Z</time>
      </trkpt>
      <trkpt lat="41.8086610" lon="-8.8508450">
        <ele>16.4</ele>
        <time>2019-08-16T10:43:01Z</time>
      </trkpt>
      <trkpt lat="41.8086780" lon="-8.8508630">
        <ele>17.0</ele>
        <time>2019-08-16T10:43:02Z</time>
      </trkpt>
      <trkpt lat="41.8087180" lon="-8.8509160">
        <ele>17.0</ele>
        <time>2019-08-16T10:43:04Z</time>
      </trkpt>
      <trkpt lat="41.8087330" lon="-8.8509330">
        <ele>17.0</ele>
        <time>2019-08-16T10:43:05Z</time>
      </trkpt>
      <trkpt lat="41.8088650" lon="-8.8510900">
        <ele>17.0</ele>
        <time>2019-08-16T10:43:12Z</time>
      </trkpt>
      <trkpt lat="41.8088870" lon="-8.8511140">
        <ele>17.4</ele>
        <time>2019-08-16T10:43:13Z</time>
      </trkpt>
      <trkpt lat="41.8089310" lon="-8.8511580">
        <ele>18.2</ele>
        <time>2019-08-16T10:43:15Z</time>
      </trkpt>
      <trkpt lat="41.8089490" lon="-8.8511780">
        <ele>18.6</ele>
        <time>2019-08-16T10:43:16Z</time>
      </trkpt>
      <trkpt lat="41.8089650" lon="-8.8511940">
        <ele>19.0</ele>
        <time>2019-08-16T10:43:17Z</time>
      </trkpt>
      <trkpt lat="41.8090270" lon="-8.8512590">
        <ele>19.0</ele>
        <time>2019-08-16T10:43:21Z</time>
      </trkpt>
      <trkpt lat="41.8091190" lon="-8.8513510">
        <ele>19.0</ele>
        <time>2019-08-16T10:43:27Z</time>
      </trkpt>
      <trkpt lat="41.8092270" lon="-8.8515380">
        <ele>19.0</ele>
        <time>2019-08-16T10:43:35Z</time>
      </trkpt>
      <trkpt lat="41.8093600" lon="-8.8516660">
        <ele>19.0</ele>
        <time>2019-08-16T10:43:43Z</time>
      </trkpt>
      <trkpt lat="41.8094290" lon="-8.8517530">
        <ele>19.0</ele>
        <time>2019-08-16T10:43:49Z</time>
      </trkpt>
      <trkpt lat="41.8094460" lon="-8.8518080">
        <ele>19.4</ele>
        <time>2019-08-16T10:43:51Z</time>
      </trkpt>
      <trkpt lat="41.8094510" lon="-8.8518350">
        <ele>19.8</ele>
        <time>2019-08-16T10:43:52Z</time>
      </trkpt>
      <trkpt lat="41.8094550" lon="-8.8518630">
        <ele>20.2</ele>
        <time>2019-08-16T10:43:53Z</time>
      </trkpt>
      <trkpt lat="41.8094650" lon="-8.8518850">
        <ele>20.6</ele>
        <time>2019-08-16T10:43:54Z</time>
      </trkpt>
      <trkpt lat="41.8094740" lon="-8.8519270">
        <ele>21.0</ele>
        <time>2019-08-16T10:43:55Z</time>
      </trkpt>
      <trkpt lat="41.8094780" lon="-8.8519580">
        <ele>21.0</ele>
        <time>2019-08-16T10:43:56Z</time>
      </trkpt>
      <trkpt lat="41.8095680" lon="-8.8521980">
        <ele>21.0</ele>
        <time>2019-08-16T10:44:04Z</time>
      </trkpt>
      <trkpt lat="41.8096710" lon="-8.8523880">
        <ele>21.0</ele>
        <time>2019-08-16T10:44:11Z</time>
      </trkpt>
      <trkpt lat="41.8097760" lon="-8.8525580">
        <ele>21.0</ele>
        <time>2019-08-16T10:44:16Z</time>
      </trkpt>
      <trkpt lat="41.8098830" lon="-8.8527830">
        <ele>21.0</ele>
        <time>2019-08-16T10:44:22Z</time>
      </trkpt>
      <trkpt lat="41.8100740" lon="-8.8531910">
        <ele>21.0</ele>
        <time>2019-08-16T10:44:30Z</time>
      </trkpt>
      <trkpt lat="41.8101790" lon="-8.8533970">
        <ele>20.6</ele>
        <time>2019-08-16T10:44:34Z</time>
      </trkpt>
      <trkpt lat="41.8102080" lon="-8.8534450">
        <ele>20.2</ele>
        <time>2019-08-16T10:44:35Z</time>
      </trkpt>
      <trkpt lat="41.8102390" lon="-8.8534980">
        <ele>19.8</ele>
        <time>2019-08-16T10:44:36Z</time>
      </trkpt>
      <trkpt lat="41.8102630" lon="-8.8535490">
        <ele>19.4</ele>
        <time>2019-08-16T10:44:37Z</time>
      </trkpt>
      <trkpt lat="41.8102900" lon="-8.8536010">
        <ele>19.0</ele>
        <time>2019-08-16T10:44:38Z</time>
      </trkpt>
      <trkpt lat="41.8105600" lon="-8.8540520">
        <ele>19.0</ele>
        <time>2019-08-16T10:44:48Z</time>
      </trkpt>
      <trkpt lat="41.8106870" lon="-8.8544890">
        <ele>19.0</ele>
        <time>2019-08-16T10:44:56Z</time>
      </trkpt>
      <trkpt lat="41.8107180" lon="-8.8548410">
        <ele>18.6</ele>
        <time>2019-08-16T10:45:01Z</time>
      </trkpt>
      <trkpt lat="41.8107420" lon="-8.8549060">
        <ele>18.2</ele>
        <time>2019-08-16T10:45:02Z</time>
      </trkpt>
      <trkpt lat="41.8107670" lon="-8.8549720">
        <ele>17.6</ele>
        <time>2019-08-16T10:45:03Z</time>
      </trkpt>
      <trkpt lat="41.8107940" lon="-8.8550350">
        <ele>17.2</ele>
        <time>2019-08-16T10:45:04Z</time>
      </trkpt>
      <trkpt lat="41.8108200" lon="-8.8550980">
        <ele>16.8</ele>
        <time>2019-08-16T10:45:05Z</time>
      </trkpt>
      <trkpt lat="41.8109100" lon="-8.8553650">
        <ele>16.8</ele>
        <time>2019-08-16T10:45:09Z</time>
      </trkpt>
      <trkpt lat="41.8110720" lon="-8.8558540">
        <ele>16.8</ele>
        <time>2019-08-16T10:45:17Z</time>
      </trkpt>
      <trkpt lat="41.8112380" lon="-8.8563520">
        <ele>16.8</ele>
        <time>2019-08-16T10:45:25Z</time>
      </trkpt>
      <trkpt lat="41.8113980" lon="-8.8566830">
        <ele>16.8</ele>
        <time>2019-08-16T10:45:31Z</time>
      </trkpt>
      <trkpt lat="41.8114370" lon="-8.8567170">
        <ele>16.8</ele>
        <time>2019-08-16T10:45:32Z</time>
      </trkpt>
      <trkpt lat="41.8116650" lon="-8.8569120">
        <ele>16.8</ele>
        <time>2019-08-16T10:45:38Z</time>
      </trkpt>
      <trkpt lat="41.8117450" lon="-8.8569500">
        <ele>16.8</ele>
        <time>2019-08-16T10:45:40Z</time>
      </trkpt>
      <trkpt lat="41.8118250" lon="-8.8569300">
        <ele>16.8</ele>
        <time>2019-08-16T10:45:42Z</time>
      </trkpt>
      <trkpt lat="41.8119120" lon="-8.8568920">
        <ele>16.8</ele>
        <time>2019-08-16T10:45:44Z</time>
      </trkpt>
      <trkpt lat="41.8120570" lon="-8.8568100">
        <ele>16.8</ele>
        <time>2019-08-16T10:45:48Z</time>
      </trkpt>
      <trkpt lat="41.8122390" lon="-8.8567290">
        <ele>17.2</ele>
        <time>2019-08-16T10:45:53Z</time>
      </trkpt>
      <trkpt lat="41.8122780" lon="-8.8567110">
        <ele>17.6</ele>
        <time>2019-08-16T10:45:54Z</time>
      </trkpt>
      <trkpt lat="41.8123120" lon="-8.8566910">
        <ele>18.2</ele>
        <time>2019-08-16T10:45:55Z</time>
      </trkpt>
      <trkpt lat="41.8123480" lon="-8.8566750">
        <ele>18.6</ele>
        <time>2019-08-16T10:45:56Z</time>
      </trkpt>
      <trkpt lat="41.8123820" lon="-8.8566590">
        <ele>19.0</ele>
        <time>2019-08-16T10:45:57Z</time>
      </trkpt>
      <trkpt lat="41.8126200" lon="-8.8565100">
        <ele>19.0</ele>
        <time>2019-08-16T10:46:04Z</time>
      </trkpt>
      <trkpt lat="41.8126500" lon="-8.8564930">
        <ele>19.6</ele>
        <time>2019-08-16T10:46:05Z</time>
      </trkpt>
      <trkpt lat="41.8126810" lon="-8.8564740">
        <ele>20.0</ele>
        <time>2019-08-16T10:46:06Z</time>
      </trkpt>
      <trkpt lat="41.8127140" lon="-8.8564530">
        <ele>20.6</ele>
        <time>2019-08-16T10:46:07Z</time>
      </trkpt>
      <trkpt lat="41.8127400" lon="-8.8564350">
        <ele>21.0</ele>
        <time>2019-08-16T10:46:08Z</time>
      </trkpt>
      <trkpt lat="41.8127660" lon="-8.8564190">
        <ele>21.6</ele>
        <time>2019-08-16T10:46:09Z</time>
      </trkpt>
      <trkpt lat="41.8128330" lon="-8.8563860">
        <ele>21.6</ele>
        <time>2019-08-16T10:46:12Z</time>
      </trkpt>
      <trkpt lat="41.8129290" lon="-8.8564430">
        <ele>21.6</ele>
        <time>2019-08-16T10:46:16Z</time>
      </trkpt>
      <trkpt lat="41.8129970" lon="-8.8566280">
        <ele>21.6</ele>
        <time>2019-08-16T10:46:21Z</time>
      </trkpt>
      <trkpt lat="41.8131350" lon="-8.8569680">
        <ele>21.6</ele>
        <time>2019-08-16T10:46:30Z</time>
      </trkpt>
      <trkpt lat="41.8132210" lon="-8.8573190">
        <ele>21.6</ele>
        <time>2019-08-16T10:46:38Z</time>
      </trkpt>
      <trkpt lat="41.8132600" lon="-8.8577570">
        <ele>21.6</ele>
        <time>2019-08-16T10:46:46Z</time>
      </trkpt>
      <trkpt lat="41.8132720" lon="-8.8578180">
        <ele>21.2</ele>
        <time>2019-08-16T10:46:47Z</time>
      </trkpt>
      <trkpt lat="41.8132840" lon="-8.8578760">
        <ele>20.6</ele>
        <time>2019-08-16T10:46:48Z</time>
      </trkpt>
      <trkpt lat="41.8132930" lon="-8.8579340">
        <ele>20.2</ele>
        <time>2019-08-16T10:46:49Z</time>
      </trkpt>
      <trkpt lat="41.8133070" lon="-8.8579900">
        <ele>19.8</ele>
        <time>2019-08-16T10:46:50Z</time>
      </trkpt>
      <trkpt lat="41.8133250" lon="-8.8580470">
        <ele>19.4</ele>
        <time>2019-08-16T10:46:51Z</time>
      </trkpt>
      <trkpt lat="41.8133460" lon="-8.8581550">
        <ele>19.4</ele>
        <time>2019-08-16T10:46:53Z</time>
      </trkpt>
      <trkpt lat="41.8134140" lon="-8.8583610">
        <ele>19.0</ele>
        <time>2019-08-16T10:46:56Z</time>
      </trkpt>
      <trkpt lat="41.8134300" lon="-8.8584400">
        <ele>18.6</ele>
        <time>2019-08-16T10:46:57Z</time>
      </trkpt>
      <trkpt lat="41.8134530" lon="-8.8585240">
        <ele>18.2</ele>
        <time>2019-08-16T10:46:58Z</time>
      </trkpt>
      <trkpt lat="41.8134560" lon="-8.8586230">
        <ele>17.8</ele>
        <time>2019-08-16T10:46:59Z</time>
      </trkpt>
      <trkpt lat="41.8134660" lon="-8.8587110">
        <ele>17.4</ele>
        <time>2019-08-16T10:47:00Z</time>
      </trkpt>
      <trkpt lat="41.8135270" lon="-8.8589550">
        <ele>17.4</ele>
        <time>2019-08-16T10:47:03Z</time>
      </trkpt>
      <trkpt lat="41.8135030" lon="-8.8591810">
        <ele>17.4</ele>
        <time>2019-08-16T10:47:06Z</time>
      </trkpt>
      <trkpt lat="41.8134990" lon="-8.8593240">
        <ele>17.4</ele>
        <time>2019-08-16T10:47:08Z</time>
      </trkpt>
      <trkpt lat="41.8134740" lon="-8.8598510">
        <ele>17.4</ele>
        <time>2019-08-16T10:47:16Z</time>
      </trkpt>
      <trkpt lat="41.8135370" lon="-8.8603650">
        <ele>17.4</ele>
        <time>2019-08-16T10:47:24Z</time>
      </trkpt>
      <trkpt lat="41.8135530" lon="-8.8604260">
        <ele>17.4</ele>
        <time>2019-08-16T10:47:25Z</time>
      </trkpt>
      <trkpt lat="41.8136150" lon="-8.8606610">
        <ele>17.4</ele>
        <time>2019-08-16T10:47:29Z</time>
      </trkpt>
      <trkpt lat="41.8136170" lon="-8.8607720">
        <ele>17.4</ele>
        <time>2019-08-16T10:47:31Z</time>
      </trkpt>
      <trkpt lat="41.8136210" lon="-8.8609630">
        <ele>17.4</ele>
        <time>2019-08-16T10:47:34Z</time>
      </trkpt>
      <trkpt lat="41.8136040" lon="-8.8611200">
        <ele>17.4</ele>
        <time>2019-08-16T10:47:37Z</time>
      </trkpt>
      <trkpt lat="41.8136010" lon="-8.8614100">
        <ele>17.4</ele>
        <time>2019-08-16T10:47:43Z</time>
      </trkpt>
      <trkpt lat="41.8135670" lon="-8.8617570">
        <ele>17.4</ele>
        <time>2019-08-16T10:47:51Z</time>
      </trkpt>
      <trkpt lat="41.8135520" lon="-8.8620900">
        <ele>17.4</ele>
        <time>2019-08-16T10:48:00Z</time>
      </trkpt>
      <trkpt lat="41.8135150" lon="-8.8623700">
        <ele>17.4</ele>
        <time>2019-08-16T10:48:08Z</time>
      </trkpt>
      <trkpt lat="41.8135020" lon="-8.8625360">
        <ele>17.0</ele>
        <time>2019-08-16T10:48:14Z</time>
      </trkpt>
      <trkpt lat="41.8135130" lon="-8.8625550">
        <ele>16.4</ele>
        <time>2019-08-16T10:48:15Z</time>
      </trkpt>
      <trkpt lat="41.8135220" lon="-8.8625800">
        <ele>16.0</ele>
        <time>2019-08-16T10:48:16Z</time>
      </trkpt>
      <trkpt lat="41.8135350" lon="-8.8626050">
        <ele>15.6</ele>
        <time>2019-08-16T10:48:17Z</time>
      </trkpt>
      <trkpt lat="41.8135560" lon="-8.8626270">
        <ele>15.2</ele>
        <time>2019-08-16T10:48:18Z</time>
      </trkpt>
      <trkpt lat="41.8136470" lon="-8.8627260">
        <ele>15.2</ele>
        <time>2019-08-16T10:48:23Z</time>
      </trkpt>
      <trkpt lat="41.8137690" lon="-8.8628670">
        <ele>15.2</ele>
        <time>2019-08-16T10:48:30Z</time>
      </trkpt>
      <trkpt lat="41.8138990" lon="-8.8630700">
        <ele>15.2</ele>
        <time>2019-08-16T10:48:36Z</time>
      </trkpt>
      <trkpt lat="41.8140050" lon="-8.8631890">
        <ele>15.2</ele>
        <time>2019-08-16T10:48:41Z</time>
      </trkpt>
      <trkpt lat="41.8141830" lon="-8.8634130">
        <ele>15.2</ele>
        <time>2019-08-16T10:48:49Z</time>
      </trkpt>
      <trkpt lat="41.8143680" lon="-8.8636510">
        <ele>15.2</ele>
        <time>2019-08-16T10:48:56Z</time>
      </trkpt>
      <trkpt lat="41.8145240" lon="-8.8638730">
        <ele>15.2</ele>
        <time>2019-08-16T10:49:02Z</time>
      </trkpt>
      <trkpt lat="41.8147480" lon="-8.8641840">
        <ele>15.2</ele>
        <time>2019-08-16T10:49:08Z</time>
      </trkpt>
      <trkpt lat="41.8149370" lon="-8.8644500">
        <ele>15.2</ele>
        <time>2019-08-16T10:49:15Z</time>
      </trkpt>
      <trkpt lat="41.8151010" lon="-8.8646590">
        <ele>15.2</ele>
        <time>2019-08-16T10:49:22Z</time>
      </trkpt>
      <trkpt lat="41.8150670" lon="-8.8647850">
        <ele>15.2</ele>
        <time>2019-08-16T10:49:27Z</time>
      </trkpt>
      <trkpt lat="41.8149180" lon="-8.8650290">
        <ele>15.2</ele>
        <time>2019-08-16T10:49:33Z</time>
      </trkpt>
      <trkpt lat="41.8148970" lon="-8.8650790">
        <ele>14.8</ele>
        <time>2019-08-16T10:49:34Z</time>
      </trkpt>
      <trkpt lat="41.8148900" lon="-8.8651410">
        <ele>14.4</ele>
        <time>2019-08-16T10:49:35Z</time>
      </trkpt>
      <trkpt lat="41.8149060" lon="-8.8652440">
        <ele>14.0</ele>
        <time>2019-08-16T10:49:36Z</time>
      </trkpt>
      <trkpt lat="41.8149330" lon="-8.8653250">
        <ele>13.6</ele>
        <time>2019-08-16T10:49:37Z</time>
      </trkpt>
      <trkpt lat="41.8149500" lon="-8.8654110">
        <ele>13.0</ele>
        <time>2019-08-16T10:49:38Z</time>
      </trkpt>
      <trkpt lat="41.8149540" lon="-8.8654860">
        <ele>12.6</ele>
        <time>2019-08-16T10:49:39Z</time>
      </trkpt>
      <trkpt lat="41.8149710" lon="-8.8655520">
        <ele>12.2</ele>
        <time>2019-08-16T10:49:40Z</time>
      </trkpt>
      <trkpt lat="41.8149930" lon="-8.8656150">
        <ele>11.8</ele>
        <time>2019-08-16T10:49:41Z</time>
      </trkpt>
      <trkpt lat="41.8150090" lon="-8.8656720">
        <ele>11.2</ele>
        <time>2019-08-16T10:49:42Z</time>
      </trkpt>
      <trkpt lat="41.8150270" lon="-8.8657200">
        <ele>10.8</ele>
        <time>2019-08-16T10:49:43Z</time>
      </trkpt>
      <trkpt lat="41.8150680" lon="-8.8658620">
        <ele>10.8</ele>
        <time>2019-08-16T10:49:46Z</time>
      </trkpt>
      <trkpt lat="41.8151510" lon="-8.8661500">
        <ele>10.8</ele>
        <time>2019-08-16T10:49:53Z</time>
      </trkpt>
      <trkpt lat="41.8152350" lon="-8.8664260">
        <ele>10.8</ele>
        <time>2019-08-16T10:50:01Z</time>
      </trkpt>
      <trkpt lat="41.8152660" lon="-8.8665630">
        <ele>10.4</ele>
        <time>2019-08-16T10:50:07Z</time>
      </trkpt>
      <trkpt lat="41.8152890" lon="-8.8665530">
        <ele>10.0</ele>
        <time>2019-08-16T10:50:08Z</time>
      </trkpt>
      <trkpt lat="41.8153170" lon="-8.8665380">
        <ele>9.6</ele>
        <time>2019-08-16T10:50:09Z</time>
      </trkpt>
      <trkpt lat="41.8153410" lon="-8.8665260">
        <ele>9.2</ele>
        <time>2019-08-16T10:50:10Z</time>
      </trkpt>
      <trkpt lat="41.8153660" lon="-8.8665200">
        <ele>8.8</ele>
        <time>2019-08-16T10:50:11Z</time>
      </trkpt>
      <trkpt lat="41.8154330" lon="-8.8665350">
        <ele>8.8</ele>
        <time>2019-08-16T10:50:14Z</time>
      </trkpt>
      <trkpt lat="41.8155120" lon="-8.8665550">
        <ele>8.8</ele>
        <time>2019-08-16T10:50:17Z</time>
      </trkpt>
      <trkpt lat="41.8155840" lon="-8.8665680">
        <ele>8.8</ele>
        <time>2019-08-16T10:50:19Z</time>
      </trkpt>
      <trkpt lat="41.8157290" lon="-8.8666590">
        <ele>9.2</ele>
        <time>2019-08-16T10:50:24Z</time>
      </trkpt>
      <trkpt lat="41.8157560" lon="-8.8666940">
        <ele>9.6</ele>
        <time>2019-08-16T10:50:25Z</time>
      </trkpt>
      <trkpt lat="41.8157820" lon="-8.8667310">
        <ele>10.0</ele>
        <time>2019-08-16T10:50:26Z</time>
      </trkpt>
      <trkpt lat="41.8158000" lon="-8.8667780">
        <ele>10.4</ele>
        <time>2019-08-16T10:50:27Z</time>
      </trkpt>
      <trkpt lat="41.8158080" lon="-8.8668230">
        <ele>10.8</ele>
        <time>2019-08-16T10:50:28Z</time>
      </trkpt>
      <trkpt lat="41.8158180" lon="-8.8669140">
        <ele>10.8</ele>
        <time>2019-08-16T10:50:30Z</time>
      </trkpt>
      <trkpt lat="41.8158970" lon="-8.8671750">
        <ele>10.8</ele>
        <time>2019-08-16T10:50:36Z</time>
      </trkpt>
      <trkpt lat="41.8159860" lon="-8.8674090">
        <ele>10.8</ele>
        <time>2019-08-16T10:50:42Z</time>
      </trkpt>
      <trkpt lat="41.8159930" lon="-8.8674320">
        <ele>10.8</ele>
        <time>2019-08-16T10:50:45Z</time>
      </trkpt>
      <trkpt lat="41.8160310" lon="-8.8674950">
        <ele>10.8</ele>
        <time>2019-08-16T10:50:55Z</time>
      </trkpt>
      <trkpt lat="41.8161400" lon="-8.8676920">
        <ele>10.8</ele>
        <time>2019-08-16T10:51:02Z</time>
      </trkpt>
      <trkpt lat="41.8162320" lon="-8.8678880">
        <ele>10.8</ele>
        <time>2019-08-16T10:51:09Z</time>
      </trkpt>
      <trkpt lat="41.8162760" lon="-8.8679590">
        <ele>10.8</ele>
        <time>2019-08-16T10:51:15Z</time>
      </trkpt>
      <trkpt lat="41.8162890" lon="-8.8679600">
        <ele>10.8</ele>
        <time>2019-08-16T10:59:34Z</time>
      </trkpt>
      <trkpt lat="41.8162870" lon="-8.8680800">
        <ele>10.8</ele>
        <time>2019-08-16T10:59:38Z</time>
      </trkpt>
      <trkpt lat="41.8163500" lon="-8.8682780">
        <ele>10.8</ele>
        <time>2019-08-16T10:59:44Z</time>
      </trkpt>
      <trkpt lat="41.8164930" lon="-8.8685590">
        <ele>10.8</ele>
        <time>2019-08-16T10:59:54Z</time>
      </trkpt>
      <trkpt lat="41.8165840" lon="-8.8687490">
        <ele>10.8</ele>
        <time>2019-08-16T11:00:01Z</time>
      </trkpt>
      <trkpt lat="41.8167270" lon="-8.8689580">
        <ele>10.8</ele>
        <time>2019-08-16T11:00:08Z</time>
      </trkpt>
      <trkpt lat="41.8169040" lon="-8.8692700">
        <ele>10.8</ele>
        <time>2019-08-16T11:00:15Z</time>
      </trkpt>
      <trkpt lat="41.8171630" lon="-8.8696720">
        <ele>10.8</ele>
        <time>2019-08-16T11:00:24Z</time>
      </trkpt>
      <trkpt lat="41.8173440" lon="-8.8700390">
        <ele>10.8</ele>
        <time>2019-08-16T11:00:32Z</time>
      </trkpt>
      <trkpt lat="41.8175330" lon="-8.8703450">
        <ele>10.8</ele>
        <time>2019-08-16T11:00:39Z</time>
      </trkpt>
      <trkpt lat="41.8176220" lon="-8.8703670">
        <ele>10.8</ele>
        <time>2019-08-16T11:00:41Z</time>
      </trkpt>
      <trkpt lat="41.8177990" lon="-8.8704370">
        <ele>10.8</ele>
        <time>2019-08-16T11:00:45Z</time>
      </trkpt>
      <trkpt lat="41.8178740" lon="-8.8705170">
        <ele>10.8</ele>
        <time>2019-08-16T11:00:47Z</time>
      </trkpt>
      <trkpt lat="41.8179910" lon="-8.8706150">
        <ele>10.8</ele>
        <time>2019-08-16T11:00:50Z</time>
      </trkpt>
      <trkpt lat="41.8181010" lon="-8.8707150">
        <ele>10.8</ele>
        <time>2019-08-16T11:00:53Z</time>
      </trkpt>
      <trkpt lat="41.8183350" lon="-8.8709460">
        <ele>10.8</ele>
        <time>2019-08-16T11:01:00Z</time>
      </trkpt>
      <trkpt lat="41.8186750" lon="-8.8712690">
        <ele>10.8</ele>
        <time>2019-08-16T11:01:09Z</time>
      </trkpt>
      <trkpt lat="41.8190130" lon="-8.8715990">
        <ele>10.8</ele>
        <time>2019-08-16T11:01:18Z</time>
      </trkpt>
      <trkpt lat="41.8192210" lon="-8.8717840">
        <ele>10.8</ele>
        <time>2019-08-16T11:01:24Z</time>
      </trkpt>
      <trkpt lat="41.8193010" lon="-8.8718550">
        <ele>10.8</ele>
        <time>2019-08-16T11:01:26Z</time>
      </trkpt>
      <trkpt lat="41.8196150" lon="-8.8721550">
        <ele>10.8</ele>
        <time>2019-08-16T11:01:35Z</time>
      </trkpt>
      <trkpt lat="41.8198490" lon="-8.8723880">
        <ele>10.8</ele>
        <time>2019-08-16T11:01:42Z</time>
      </trkpt>
      <trkpt lat="41.8201740" lon="-8.8726490">
        <ele>10.8</ele>
        <time>2019-08-16T11:01:51Z</time>
      </trkpt>
      <trkpt lat="41.8204150" lon="-8.8727180">
        <ele>10.8</ele>
        <time>2019-08-16T11:01:58Z</time>
      </trkpt>
      <trkpt lat="41.8207720" lon="-8.8727760">
        <ele>10.8</ele>
        <time>2019-08-16T11:02:07Z</time>
      </trkpt>
      <trkpt lat="41.8210740" lon="-8.8728320">
        <ele>11.2</ele>
        <time>2019-08-16T11:02:16Z</time>
      </trkpt>
      <trkpt lat="41.8211080" lon="-8.8728470">
        <ele>11.6</ele>
        <time>2019-08-16T11:02:17Z</time>
      </trkpt>
      <trkpt lat="41.8211440" lon="-8.8728600">
        <ele>12.2</ele>
        <time>2019-08-16T11:02:18Z</time>
      </trkpt>
      <trkpt lat="41.8211780" lon="-8.8728710">
        <ele>12.6</ele>
        <time>2019-08-16T11:02:19Z</time>
      </trkpt>
      <trkpt lat="41.8212210" lon="-8.8728780">
        <ele>13.0</ele>
        <time>2019-08-16T11:02:20Z</time>
      </trkpt>
      <trkpt lat="41.8213450" lon="-8.8728840">
        <ele>13.0</ele>
        <time>2019-08-16T11:02:23Z</time>
      </trkpt>
      <trkpt lat="41.8216100" lon="-8.8729370">
        <ele>13.0</ele>
        <time>2019-08-16T11:02:30Z</time>
      </trkpt>
      <trkpt lat="41.8218750" lon="-8.8730530">
        <ele>13.0</ele>
        <time>2019-08-16T11:02:37Z</time>
      </trkpt>
      <trkpt lat="41.8222480" lon="-8.8732500">
        <ele>13.0</ele>
        <time>2019-08-16T11:02:46Z</time>
      </trkpt>
      <trkpt lat="41.8223310" lon="-8.8732820">
        <ele>13.0</ele>
        <time>2019-08-16T11:02:48Z</time>
      </trkpt>
      <trkpt lat="41.8225030" lon="-8.8733530">
        <ele>13.0</ele>
        <time>2019-08-16T11:02:52Z</time>
      </trkpt>
      <trkpt lat="41.8228660" lon="-8.8735220">
        <ele>13.0</ele>
        <time>2019-08-16T11:03:01Z</time>
      </trkpt>
      <trkpt lat="41.8232660" lon="-8.8736580">
        <ele>13.0</ele>
        <time>2019-08-16T11:03:10Z</time>
      </trkpt>
      <trkpt lat="41.8234120" lon="-8.8736620">
        <ele>13.0</ele>
        <time>2019-08-16T11:03:13Z</time>
      </trkpt>
      <trkpt lat="41.8235700" lon="-8.8736450">
        <ele>13.0</ele>
        <time>2019-08-16T11:03:16Z</time>
      </trkpt>
      <trkpt lat="41.8237200" lon="-8.8736090">
        <ele>13.0</ele>
        <time>2019-08-16T11:03:19Z</time>
      </trkpt>
      <trkpt lat="41.8238380" lon="-8.8735410">
        <ele>13.0</ele>
        <time>2019-08-16T11:03:22Z</time>
      </trkpt>
      <trkpt lat="41.8240540" lon="-8.8734720">
        <ele>13.0</ele>
        <time>2019-08-16T11:03:28Z</time>
      </trkpt>
      <trkpt lat="41.8240980" lon="-8.8734760">
        <ele>13.4</ele>
        <time>2019-08-16T11:03:29Z</time>
      </trkpt>
      <trkpt lat="41.8241410" lon="-8.8734800">
        <ele>13.8</ele>
        <time>2019-08-16T11:03:30Z</time>
      </trkpt>
      <trkpt lat="41.8241870" lon="-8.8734860">
        <ele>14.2</ele>
        <time>2019-08-16T11:03:31Z</time>
      </trkpt>
      <trkpt lat="41.8242380" lon="-8.8734910">
        <ele>14.6</ele>
        <time>2019-08-16T11:03:32Z</time>
      </trkpt>
      <trkpt lat="41.8242910" lon="-8.8734930">
        <ele>15.0</ele>
        <time>2019-08-16T11:03:33Z</time>
      </trkpt>
      <trkpt lat="41.8243450" lon="-8.8735000">
        <ele>14.6</ele>
        <time>2019-08-16T11:03:34Z</time>
      </trkpt>
      <trkpt lat="41.8244030" lon="-8.8735040">
        <ele>14.0</ele>
        <time>2019-08-16T11:03:35Z</time>
      </trkpt>
      <trkpt lat="41.8244610" lon="-8.8735040">
        <ele>13.6</ele>
        <time>2019-08-16T11:03:36Z</time>
      </trkpt>
      <trkpt lat="41.8245180" lon="-8.8735030">
        <ele>13.2</ele>
        <time>2019-08-16T11:03:37Z</time>
      </trkpt>
      <trkpt lat="41.8245780" lon="-8.8734970">
        <ele>12.8</ele>
        <time>2019-08-16T11:03:38Z</time>
      </trkpt>
      <trkpt lat="41.8247490" lon="-8.8734580">
        <ele>12.8</ele>
        <time>2019-08-16T11:03:41Z</time>
      </trkpt>
      <trkpt lat="41.8251300" lon="-8.8732700">
        <ele>12.8</ele>
        <time>2019-08-16T11:03:48Z</time>
      </trkpt>
      <trkpt lat="41.8255720" lon="-8.8729950">
        <ele>12.8</ele>
        <time>2019-08-16T11:03:56Z</time>
      </trkpt>
      <trkpt lat="41.8260430" lon="-8.8728190">
        <ele>12.8</ele>
        <time>2019-08-16T11:04:04Z</time>
      </trkpt>
      <trkpt lat="41.8261030" lon="-8.8728230">
        <ele>12.8</ele>
        <time>2019-08-16T11:04:05Z</time>
      </trkpt>
      <trkpt lat="41.8265740" lon="-8.8728540">
        <ele>12.8</ele>
        <time>2019-08-16T11:04:13Z</time>
      </trkpt>
      <trkpt lat="41.8266300" lon="-8.8728610">
        <ele>12.8</ele>
        <time>2019-08-16T11:04:14Z</time>
      </trkpt>
      <trkpt lat="41.8267460" lon="-8.8728580">
        <ele>12.8</ele>
        <time>2019-08-16T11:04:16Z</time>
      </trkpt>
      <trkpt lat="41.8270290" lon="-8.8728800">
        <ele>12.8</ele>
        <time>2019-08-16T11:04:21Z</time>
      </trkpt>
      <trkpt lat="41.8275820" lon="-8.8729160">
        <ele>12.8</ele>
        <time>2019-08-16T11:04:31Z</time>
      </trkpt>
      <trkpt lat="41.8280250" lon="-8.8729450">
        <ele>12.8</ele>
        <time>2019-08-16T11:04:40Z</time>
      </trkpt>
      <trkpt lat="41.8283440" lon="-8.8729830">
        <ele>12.8</ele>
        <time>2019-08-16T11:04:48Z</time>
      </trkpt>
      <trkpt lat="41.8283800" lon="-8.8730140">
        <ele>13.2</ele>
        <time>2019-08-16T11:04:49Z</time>
      </trkpt>
      <trkpt lat="41.8284140" lon="-8.8730500">
        <ele>13.6</ele>
        <time>2019-08-16T11:04:50Z</time>
      </trkpt>
      <trkpt lat="41.8284450" lon="-8.8730870">
        <ele>14.0</ele>
        <time>2019-08-16T11:04:51Z</time>
      </trkpt>
      <trkpt lat="41.8284740" lon="-8.8731300">
        <ele>14.4</ele>
        <time>2019-08-16T11:04:52Z</time>
      </trkpt>
      <trkpt lat="41.8284980" lon="-8.8731750">
        <ele>15.0</ele>
        <time>2019-08-16T11:04:53Z</time>
      </trkpt>
      <trkpt lat="41.8285490" lon="-8.8732640">
        <ele>15.0</ele>
        <time>2019-08-16T11:04:55Z</time>
      </trkpt>
      <trkpt lat="41.8286690" lon="-8.8734310">
        <ele>15.0</ele>
        <time>2019-08-16T11:04:59Z</time>
      </trkpt>
      <trkpt lat="41.8288460" lon="-8.8736110">
        <ele>15.0</ele>
        <time>2019-08-16T11:05:04Z</time>
      </trkpt>
      <trkpt lat="41.8291480" lon="-8.8738450">
        <ele>15.0</ele>
        <time>2019-08-16T11:05:12Z</time>
      </trkpt>
      <trkpt lat="41.8293270" lon="-8.8739630">
        <ele>15.0</ele>
        <time>2019-08-16T11:05:16Z</time>
      </trkpt>
      <trkpt lat="41.8294380" lon="-8.8739790">
        <ele>15.0</ele>
        <time>2019-08-16T11:05:18Z</time>
      </trkpt>
      <trkpt lat="41.8294860" lon="-8.8739880">
        <ele>14.6</ele>
        <time>2019-08-16T11:05:19Z</time>
      </trkpt>
      <trkpt lat="41.8295340" lon="-8.8740050">
        <ele>14.2</ele>
        <time>2019-08-16T11:05:20Z</time>
      </trkpt>
      <trkpt lat="41.8295850" lon="-8.8740260">
        <ele>13.8</ele>
        <time>2019-08-16T11:05:21Z</time>
      </trkpt>
      <trkpt lat="41.8296340" lon="-8.8740450">
        <ele>13.4</ele>
        <time>2019-08-16T11:05:22Z</time>
      </trkpt>
      <trkpt lat="41.8296810" lon="-8.8740640">
        <ele>13.0</ele>
        <time>2019-08-16T11:05:23Z</time>
      </trkpt>
      <trkpt lat="41.8297780" lon="-8.8741000">
        <ele>13.0</ele>
        <time>2019-08-16T11:05:25Z</time>
      </trkpt>
      <trkpt lat="41.8298920" lon="-8.8741680">
        <ele>13.0</ele>
        <time>2019-08-16T11:05:29Z</time>
      </trkpt>
      <trkpt lat="41.8298610" lon="-8.8743300">
        <ele>13.0</ele>
        <time>2019-08-16T11:05:33Z</time>
      </trkpt>
      <trkpt lat="41.8297900" lon="-8.8747720">
        <ele>13.0</ele>
        <time>2019-08-16T11:05:42Z</time>
      </trkpt>
      <trkpt lat="41.8298180" lon="-8.8748010">
        <ele>13.0</ele>
        <time>2019-08-16T11:05:43Z</time>
      </trkpt>
      <trkpt lat="41.8298840" lon="-8.8748090">
        <ele>13.0</ele>
        <time>2019-08-16T11:05:45Z</time>
      </trkpt>
      <trkpt lat="41.8302110" lon="-8.8748550">
        <ele>13.0</ele>
        <time>2019-08-16T11:05:53Z</time>
      </trkpt>
      <trkpt lat="41.8306020" lon="-8.8749880">
        <ele>13.0</ele>
        <time>2019-08-16T11:06:01Z</time>
      </trkpt>
      <trkpt lat="41.8309820" lon="-8.8750560">
        <ele>12.4</ele>
        <time>2019-08-16T11:06:08Z</time>
      </trkpt>
      <trkpt lat="41.8310380" lon="-8.8750660">
        <ele>12.0</ele>
        <time>2019-08-16T11:06:09Z</time>
      </trkpt>
      <trkpt lat="41.8310910" lon="-8.8750780">
        <ele>11.6</ele>
        <time>2019-08-16T11:06:10Z</time>
      </trkpt>
      <trkpt lat="41.8311490" lon="-8.8750890">
        <ele>11.2</ele>
        <time>2019-08-16T11:06:11Z</time>
      </trkpt>
      <trkpt lat="41.8312070" lon="-8.8750930">
        <ele>10.8</ele>
        <time>2019-08-16T11:06:12Z</time>
      </trkpt>
      <trkpt lat="41.8314430" lon="-8.8751030">
        <ele>10.8</ele>
        <time>2019-08-16T11:06:16Z</time>
      </trkpt>
      <trkpt lat="41.8318010" lon="-8.8750880">
        <ele>10.8</ele>
        <time>2019-08-16T11:06:22Z</time>
      </trkpt>
      <trkpt lat="41.8321300" lon="-8.8749600">
        <ele>10.8</ele>
        <time>2019-08-16T11:06:28Z</time>
      </trkpt>
      <trkpt lat="41.8321820" lon="-8.8749560">
        <ele>10.8</ele>
        <time>2019-08-16T11:06:29Z</time>
      </trkpt>
      <trkpt lat="41.8324410" lon="-8.8749390">
        <ele>10.8</ele>
        <time>2019-08-16T11:06:34Z</time>
      </trkpt>
      <trkpt lat="41.8327410" lon="-8.8749620">
        <ele>10.8</ele>
        <time>2019-08-16T11:06:40Z</time>
      </trkpt>
      <trkpt lat="41.8328430" lon="-8.8749860">
        <ele>10.8</ele>
        <time>2019-08-16T11:06:42Z</time>
      </trkpt>
      <trkpt lat="41.8331410" lon="-8.8750280">
        <ele>11.2</ele>
        <time>2019-08-16T11:06:48Z</time>
      </trkpt>
      <trkpt lat="41.8331890" lon="-8.8750330">
        <ele>11.6</ele>
        <time>2019-08-16T11:06:49Z</time>
      </trkpt>
      <trkpt lat="41.8332340" lon="-8.8750370">
        <ele>12.0</ele>
        <time>2019-08-16T11:06:50Z</time>
      </trkpt>
      <trkpt lat="41.8332850" lon="-8.8750370">
        <ele>12.4</ele>
        <time>2019-08-16T11:06:51Z</time>
      </trkpt>
      <trkpt lat="41.8333330" lon="-8.8750360">
        <ele>12.8</ele>
        <time>2019-08-16T11:06:52Z</time>
      </trkpt>
      <trkpt lat="41.8334140" lon="-8.8750250">
        <ele>12.8</ele>
        <time>2019-08-16T11:06:54Z</time>
      </trkpt>
      <trkpt lat="41.8335470" lon="-8.8750010">
        <ele>12.8</ele>
        <time>2019-08-16T11:06:57Z</time>
      </trkpt>
      <trkpt lat="41.8338790" lon="-8.8749250">
        <ele>12.8</ele>
        <time>2019-08-16T11:07:04Z</time>
      </trkpt>
      <trkpt lat="41.8340290" lon="-8.8749060">
        <ele>12.8</ele>
        <time>2019-08-16T11:07:07Z</time>
      </trkpt>
      <trkpt lat="41.8341230" lon="-8.8749390">
        <ele>12.8</ele>
        <time>2019-08-16T11:07:09Z</time>
      </trkpt>
      <trkpt lat="41.8342250" lon="-8.8749490">
        <ele>12.8</ele>
        <time>2019-08-16T11:07:11Z</time>
      </trkpt>
      <trkpt lat="41.8343310" lon="-8.8749030">
        <ele>12.4</ele>
        <time>2019-08-16T11:07:13Z</time>
      </trkpt>
      <trkpt lat="41.8343820" lon="-8.8748840">
        <ele>12.0</ele>
        <time>2019-08-16T11:07:14Z</time>
      </trkpt>
      <trkpt lat="41.8344330" lon="-8.8748690">
        <ele>11.6</ele>
        <time>2019-08-16T11:07:15Z</time>
      </trkpt>
      <trkpt lat="41.8344830" lon="-8.8748520">
        <ele>11.2</ele>
        <time>2019-08-16T11:07:16Z</time>
      </trkpt>
      <trkpt lat="41.8345290" lon="-8.8748390">
        <ele>10.8</ele>
        <time>2019-08-16T11:07:17Z</time>
      </trkpt>
      <trkpt lat="41.8347980" lon="-8.8747730">
        <ele>10.8</ele>
        <time>2019-08-16T11:07:22Z</time>
      </trkpt>
      <trkpt lat="41.8351760" lon="-8.8746610">
        <ele>10.8</ele>
        <time>2019-08-16T11:07:29Z</time>
      </trkpt>
      <trkpt lat="41.8352280" lon="-8.8746620">
        <ele>10.8</ele>
        <time>2019-08-16T11:07:30Z</time>
      </trkpt>
      <trkpt lat="41.8355340" lon="-8.8746940">
        <ele>10.8</ele>
        <time>2019-08-16T11:07:36Z</time>
      </trkpt>
      <trkpt lat="41.8355850" lon="-8.8746700">
        <ele>10.8</ele>
        <time>2019-08-16T11:07:37Z</time>
      </trkpt>
      <trkpt lat="41.8359030" lon="-8.8745590">
        <ele>10.8</ele>
        <time>2019-08-16T11:07:43Z</time>
      </trkpt>
      <trkpt lat="41.8364200" lon="-8.8744800">
        <ele>10.8</ele>
        <time>2019-08-16T11:07:53Z</time>
      </trkpt>
      <trkpt lat="41.8368530" lon="-8.8742920">
        <ele>10.8</ele>
        <time>2019-08-16T11:08:02Z</time>
      </trkpt>
      <trkpt lat="41.8369980" lon="-8.8741970">
        <ele>10.8</ele>
        <time>2019-08-16T11:08:05Z</time>
      </trkpt>
      <trkpt lat="41.8371130" lon="-8.8741830">
        <ele>10.8</ele>
        <time>2019-08-16T11:08:07Z</time>
      </trkpt>
      <trkpt lat="41.8373350" lon="-8.8742160">
        <ele>10.8</ele>
        <time>2019-08-16T11:08:11Z</time>
      </trkpt>
      <trkpt lat="41.8373900" lon="-8.8742210">
        <ele>10.8</ele>
        <time>2019-08-16T11:08:12Z</time>
      </trkpt>
      <trkpt lat="41.8375080" lon="-8.8742200">
        <ele>10.8</ele>
        <time>2019-08-16T11:08:14Z</time>
      </trkpt>
      <trkpt lat="41.8376550" lon="-8.8741550">
        <ele>10.8</ele>
        <time>2019-08-16T11:08:17Z</time>
      </trkpt>
      <trkpt lat="41.8379610" lon="-8.8740700">
        <ele>10.8</ele>
        <time>2019-08-16T11:08:24Z</time>
      </trkpt>
      <trkpt lat="41.8380990" lon="-8.8740480">
        <ele>10.8</ele>
        <time>2019-08-16T11:08:27Z</time>
      </trkpt>
      <trkpt lat="41.8382950" lon="-8.8740010">
        <ele>10.8</ele>
        <time>2019-08-16T11:08:31Z</time>
      </trkpt>
      <trkpt lat="41.8386200" lon="-8.8739590">
        <ele>10.8</ele>
        <time>2019-08-16T11:08:38Z</time>
      </trkpt>
      <trkpt lat="41.8387110" lon="-8.8739460">
        <ele>10.8</ele>
        <time>2019-08-16T11:08:40Z</time>
      </trkpt>
      <trkpt lat="41.8390770" lon="-8.8738580">
        <ele>10.8</ele>
        <time>2019-08-16T11:08:48Z</time>
      </trkpt>
      <trkpt lat="41.8391240" lon="-8.8738290">
        <ele>10.8</ele>
        <time>2019-08-16T11:08:49Z</time>
      </trkpt>
      <trkpt lat="41.8392200" lon="-8.8738140">
        <ele>10.8</ele>
        <time>2019-08-16T11:08:51Z</time>
      </trkpt>
      <trkpt lat="41.8392680" lon="-8.8738070">
        <ele>10.8</ele>
        <time>2019-08-16T11:08:52Z</time>
      </trkpt>
      <trkpt lat="41.8397230" lon="-8.8736520">
        <ele>10.8</ele>
        <time>2019-08-16T11:09:02Z</time>
      </trkpt>
      <trkpt lat="41.8401810" lon="-8.8735200">
        <ele>10.8</ele>
        <time>2019-08-16T11:09:12Z</time>
      </trkpt>
      <trkpt lat="41.8406170" lon="-8.8732800">
        <ele>10.8</ele>
        <time>2019-08-16T11:09:21Z</time>
      </trkpt>
      <trkpt lat="41.8408970" lon="-8.8731160">
        <ele>10.8</ele>
        <time>2019-08-16T11:09:27Z</time>
      </trkpt>
      <trkpt lat="41.8409690" lon="-8.8730320">
        <ele>10.8</ele>
        <time>2019-08-16T11:09:29Z</time>
      </trkpt>
      <trkpt lat="41.8410840" lon="-8.8729070">
        <ele>10.8</ele>
        <time>2019-08-16T11:09:32Z</time>
      </trkpt>
      <trkpt lat="41.8411270" lon="-8.8728760">
        <ele>10.8</ele>
        <time>2019-08-16T11:09:33Z</time>
      </trkpt>
      <trkpt lat="41.8413190" lon="-8.8726960">
        <ele>10.8</ele>
        <time>2019-08-16T11:09:38Z</time>
      </trkpt>
      <trkpt lat="41.8416120" lon="-8.8724520">
        <ele>10.8</ele>
        <time>2019-08-16T11:09:45Z</time>
      </trkpt>
      <trkpt lat="41.8419150" lon="-8.8722510">
        <ele>10.8</ele>
        <time>2019-08-16T11:09:52Z</time>
      </trkpt>
      <trkpt lat="41.8421730" lon="-8.8720400">
        <ele>10.8</ele>
        <time>2019-08-16T11:09:59Z</time>
      </trkpt>
      <trkpt lat="41.8425450" lon="-8.8718240">
        <ele>10.8</ele>
        <time>2019-08-16T11:10:07Z</time>
      </trkpt>
      <trkpt lat="41.8426160" lon="-8.8717340">
        <ele>10.8</ele>
        <time>2019-08-16T11:10:09Z</time>
      </trkpt>
      <trkpt lat="41.8426450" lon="-8.8716080">
        <ele>10.8</ele>
        <time>2019-08-16T11:10:11Z</time>
      </trkpt>
      <trkpt lat="41.8427450" lon="-8.8711640">
        <ele>10.8</ele>
        <time>2019-08-16T11:10:18Z</time>
      </trkpt>
      <trkpt lat="41.8427930" lon="-8.8710460">
        <ele>10.8</ele>
        <time>2019-08-16T11:10:20Z</time>
      </trkpt>
      <trkpt lat="41.8428940" lon="-8.8708990">
        <ele>10.8</ele>
        <time>2019-08-16T11:10:23Z</time>
      </trkpt>
      <trkpt lat="41.8431570" lon="-8.8706190">
        <ele>10.8</ele>
        <time>2019-08-16T11:10:30Z</time>
      </trkpt>
      <trkpt lat="41.8435680" lon="-8.8701450">
        <ele>10.8</ele>
        <time>2019-08-16T11:10:42Z</time>
      </trkpt>
      <trkpt lat="41.8437880" lon="-8.8696990">
        <ele>10.8</ele>
        <time>2019-08-16T11:10:51Z</time>
      </trkpt>
      <trkpt lat="41.8439580" lon="-8.8692840">
        <ele>10.8</ele>
        <time>2019-08-16T11:10:58Z</time>
      </trkpt>
      <trkpt lat="41.8440420" lon="-8.8689100">
        <ele>10.8</ele>
        <time>2019-08-16T11:11:04Z</time>
      </trkpt>
      <trkpt lat="41.8441560" lon="-8.8685330">
        <ele>10.8</ele>
        <time>2019-08-16T11:11:10Z</time>
      </trkpt>
      <trkpt lat="41.8441960" lon="-8.8684110">
        <ele>10.8</ele>
        <time>2019-08-16T11:11:12Z</time>
      </trkpt>
      <trkpt lat="41.8443050" lon="-8.8681080">
        <ele>10.8</ele>
        <time>2019-08-16T11:11:17Z</time>
      </trkpt>
      <trkpt lat="41.8444470" lon="-8.8678700">
        <ele>10.8</ele>
        <time>2019-08-16T11:11:21Z</time>
      </trkpt>
      <trkpt lat="41.8445360" lon="-8.8677750">
        <ele>10.8</ele>
        <time>2019-08-16T11:11:23Z</time>
      </trkpt>
      <trkpt lat="41.8446220" lon="-8.8676950">
        <ele>10.8</ele>
        <time>2019-08-16T11:11:25Z</time>
      </trkpt>
      <trkpt lat="41.8448010" lon="-8.8675340">
        <ele>10.8</ele>
        <time>2019-08-16T11:11:29Z</time>
      </trkpt>
      <trkpt lat="41.8451660" lon="-8.8672070">
        <ele>10.8</ele>
        <time>2019-08-16T11:11:37Z</time>
      </trkpt>
      <trkpt lat="41.8456550" lon="-8.8667870">
        <ele>10.8</ele>
        <time>2019-08-16T11:11:48Z</time>
      </trkpt>
      <trkpt lat="41.8457030" lon="-8.8667580">
        <ele>10.8</ele>
        <time>2019-08-16T11:11:49Z</time>
      </trkpt>
      <trkpt lat="41.8461000" lon="-8.8665600">
        <ele>10.8</ele>
        <time>2019-08-16T11:11:57Z</time>
      </trkpt>
      <trkpt lat="41.8464940" lon="-8.8663570">
        <ele>10.8</ele>
        <time>2019-08-16T11:12:05Z</time>
      </trkpt>
      <trkpt lat="41.8466450" lon="-8.8662410">
        <ele>10.8</ele>
        <time>2019-08-16T11:12:10Z</time>
      </trkpt>
      <trkpt lat="41.8466760" lon="-8.8662650">
        <ele>10.8</ele>
        <time>2019-08-16T11:12:11Z</time>
      </trkpt>
      <trkpt lat="41.8467350" lon="-8.8663080">
        <ele>10.8</ele>
        <time>2019-08-16T11:12:13Z</time>
      </trkpt>
      <trkpt lat="41.8470110" lon="-8.8664200">
        <ele>10.8</ele>
        <time>2019-08-16T11:12:22Z</time>
      </trkpt>
      <trkpt lat="41.8471770" lon="-8.8663630">
        <ele>10.8</ele>
        <time>2019-08-16T11:12:27Z</time>
      </trkpt>
      <trkpt lat="41.8473040" lon="-8.8662920">
        <ele>11.2</ele>
        <time>2019-08-16T11:12:31Z</time>
      </trkpt>
      <trkpt lat="41.8473390" lon="-8.8662670">
        <ele>11.6</ele>
        <time>2019-08-16T11:12:32Z</time>
      </trkpt>
      <trkpt lat="41.8473820" lon="-8.8662480">
        <ele>12.0</ele>
        <time>2019-08-16T11:12:33Z</time>
      </trkpt>
      <trkpt lat="41.8474250" lon="-8.8662310">
        <ele>12.4</ele>
        <time>2019-08-16T11:12:34Z</time>
      </trkpt>
      <trkpt lat="41.8474670" lon="-8.8662130">
        <ele>12.8</ele>
        <time>2019-08-16T11:12:35Z</time>
      </trkpt>
      <trkpt lat="41.8475080" lon="-8.8661950">
        <ele>12.8</ele>
        <time>2019-08-16T11:12:36Z</time>
      </trkpt>
      <trkpt lat="41.8477880" lon="-8.8660800">
        <ele>12.8</ele>
        <time>2019-08-16T11:12:43Z</time>
      </trkpt>
      <trkpt lat="41.8481380" lon="-8.8660240">
        <ele>12.8</ele>
        <time>2019-08-16T11:12:51Z</time>
      </trkpt>
      <trkpt lat="41.8481780" lon="-8.8660100">
        <ele>12.8</ele>
        <time>2019-08-16T11:12:52Z</time>
      </trkpt>
      <trkpt lat="41.8481950" lon="-8.8660060">
        <ele>12.8</ele>
        <time>2019-08-16T11:12:55Z</time>
      </trkpt>
      <trkpt lat="41.8482510" lon="-8.8660340">
        <ele>12.8</ele>
        <time>2019-08-16T11:13:02Z</time>
      </trkpt>
      <trkpt lat="41.8483080" lon="-8.8660430">
        <ele>12.8</ele>
        <time>2019-08-16T11:13:04Z</time>
      </trkpt>
      <trkpt lat="41.8485090" lon="-8.8661240">
        <ele>12.8</ele>
        <time>2019-08-16T11:13:10Z</time>
      </trkpt>
      <trkpt lat="41.8487060" lon="-8.8661510">
        <ele>12.8</ele>
        <time>2019-08-16T11:13:15Z</time>
      </trkpt>
      <trkpt lat="41.8488610" lon="-8.8661490">
        <ele>12.8</ele>
        <time>2019-08-16T11:13:21Z</time>
      </trkpt>
      <trkpt lat="41.8490120" lon="-8.8661440">
        <ele>12.8</ele>
        <time>2019-08-16T11:13:26Z</time>
      </trkpt>
      <trkpt lat="41.8491980" lon="-8.8661650">
        <ele>12.8</ele>
        <time>2019-08-16T11:13:33Z</time>
      </trkpt>
      <trkpt lat="41.8493960" lon="-8.8661620">
        <ele>12.8</ele>
        <time>2019-08-16T11:13:41Z</time>
      </trkpt>
      <trkpt lat="41.8494800" lon="-8.8661790">
        <ele>12.8</ele>
        <time>2019-08-16T11:13:44Z</time>
      </trkpt>
      <trkpt lat="41.8495390" lon="-8.8661750">
        <ele>12.8</ele>
        <time>2019-08-16T11:13:46Z</time>
      </trkpt>
      <trkpt lat="41.8496470" lon="-8.8661780">
        <ele>12.8</ele>
        <time>2019-08-16T11:13:51Z</time>
      </trkpt>
      <trkpt lat="41.8497380" lon="-8.8661750">
        <ele>12.8</ele>
        <time>2019-08-16T11:13:57Z</time>
      </trkpt>
      <trkpt lat="41.8498350" lon="-8.8661900">
        <ele>12.8</ele>
        <time>2019-08-16T11:14:03Z</time>
      </trkpt>
      <trkpt lat="41.8498550" lon="-8.8660270">
        <ele>12.8</ele>
        <time>2019-08-16T11:14:10Z</time>
      </trkpt>
      <trkpt lat="41.8498710" lon="-8.8659480">
        <ele>12.8</ele>
        <time>2019-08-16T11:14:13Z</time>
      </trkpt>
      <trkpt lat="41.8498670" lon="-8.8659190">
        <ele>12.8</ele>
        <time>2019-08-16T11:14:14Z</time>
      </trkpt>
      <trkpt lat="41.8498650" lon="-8.8658620">
        <ele>12.8</ele>
        <time>2019-08-16T11:14:16Z</time>
      </trkpt>
      <trkpt lat="41.8498620" lon="-8.8657720">
        <ele>12.8</ele>
        <time>2019-08-16T11:14:21Z</time>
      </trkpt>
      <trkpt lat="41.8498640" lon="-8.8655610">
        <ele>12.8</ele>
        <time>2019-08-16T11:14:27Z</time>
      </trkpt>
      <trkpt lat="41.8498640" lon="-8.8651840">
        <ele>12.8</ele>
        <time>2019-08-16T11:14:35Z</time>
      </trkpt>
      <trkpt lat="41.8498600" lon="-8.8649490">
        <ele>12.8</ele>
        <time>2019-08-16T11:14:42Z</time>
      </trkpt>
      <trkpt lat="41.8498010" lon="-8.8649570">
        <ele>12.8</ele>
        <time>2019-08-16T11:14:49Z</time>
      </trkpt>
      <trkpt lat="41.8497450" lon="-8.8649940">
        <ele>12.8</ele>
        <time>2019-08-16T11:14:51Z</time>
      </trkpt>
      <trkpt lat="41.8495090" lon="-8.8649690">
        <ele>12.8</ele>
        <time>2019-08-16T11:14:58Z</time>
      </trkpt>
      <trkpt lat="41.8495280" lon="-8.8648280">
        <ele>12.8</ele>
        <time>2019-08-16T11:15:00Z</time>
      </trkpt>
      <trkpt lat="41.8495400" lon="-8.8647790">
        <ele>12.8</ele>
        <time>2019-08-16T11:15:01Z</time>
      </trkpt>
      <trkpt lat="41.8496510" lon="-8.8645110">
        <ele>12.8</ele>
        <time>2019-08-16T11:15:07Z</time>
      </trkpt>
      <trkpt lat="41.8497130" lon="-8.8641850">
        <ele>12.8</ele>
        <time>2019-08-16T11:15:13Z</time>
      </trkpt>
      <trkpt lat="41.8497300" lon="-8.8641400">
        <ele>12.8</ele>
        <time>2019-08-16T11:15:14Z</time>
      </trkpt>
      <trkpt lat="41.8497940" lon="-8.8640170">
        <ele>13.2</ele>
        <time>2019-08-16T11:15:17Z</time>
      </trkpt>
      <trkpt lat="41.8498230" lon="-8.8639790">
        <ele>13.6</ele>
        <time>2019-08-16T11:15:18Z</time>
      </trkpt>
      <trkpt lat="41.8498510" lon="-8.8639420">
        <ele>14.0</ele>
        <time>2019-08-16T11:15:19Z</time>
      </trkpt>
      <trkpt lat="41.8498830" lon="-8.8639060">
        <ele>14.6</ele>
        <time>2019-08-16T11:15:20Z</time>
      </trkpt>
      <trkpt lat="41.8499110" lon="-8.8638710">
        <ele>15.0</ele>
        <time>2019-08-16T11:15:21Z</time>
      </trkpt>
      <trkpt lat="41.8501040" lon="-8.8636020">
        <ele>15.0</ele>
        <time>2019-08-16T11:15:28Z</time>
      </trkpt>
      <trkpt lat="41.8501620" lon="-8.8635160">
        <ele>15.0</ele>
        <time>2019-08-16T11:15:30Z</time>
      </trkpt>
      <trkpt lat="41.8502130" lon="-8.8634310">
        <ele>15.4</ele>
        <time>2019-08-16T11:15:32Z</time>
      </trkpt>
      <trkpt lat="41.8502290" lon="-8.8633820">
        <ele>15.8</ele>
        <time>2019-08-16T11:15:33Z</time>
      </trkpt>
      <trkpt lat="41.8502510" lon="-8.8633370">
        <ele>16.2</ele>
        <time>2019-08-16T11:15:34Z</time>
      </trkpt>
      <trkpt lat="41.8502750" lon="-8.8632950">
        <ele>16.6</ele>
        <time>2019-08-16T11:15:35Z</time>
      </trkpt>
      <trkpt lat="41.8503010" lon="-8.8632570">
        <ele>17.2</ele>
        <time>2019-08-16T11:15:36Z</time>
      </trkpt>
      <trkpt lat="41.8504110" lon="-8.8630100">
        <ele>17.2</ele>
        <time>2019-08-16T11:15:41Z</time>
      </trkpt>
      <trkpt lat="41.8504690" lon="-8.8626380">
        <ele>17.2</ele>
        <time>2019-08-16T11:15:49Z</time>
      </trkpt>
      <trkpt lat="41.8505930" lon="-8.8624510">
        <ele>17.2</ele>
        <time>2019-08-16T11:15:54Z</time>
      </trkpt>
      <trkpt lat="41.8507830" lon="-8.8622450">
        <ele>17.2</ele>
        <time>2019-08-16T11:15:59Z</time>
      </trkpt>
      <trkpt lat="41.8508180" lon="-8.8622130">
        <ele>17.2</ele>
        <time>2019-08-16T11:16:02Z</time>
      </trkpt>
      <trkpt lat="41.8508260" lon="-8.8621970">
        <ele>16.8</ele>
        <time>2019-08-16T11:16:04Z</time>
      </trkpt>
      <trkpt lat="41.8508320" lon="-8.8621880">
        <ele>16.4</ele>
        <time>2019-08-16T11:16:05Z</time>
      </trkpt>
      <trkpt lat="41.8508420" lon="-8.8621790">
        <ele>16.0</ele>
        <time>2019-08-16T11:16:06Z</time>
      </trkpt>
      <trkpt lat="41.8508550" lon="-8.8621660">
        <ele>15.6</ele>
        <time>2019-08-16T11:16:07Z</time>
      </trkpt>
      <trkpt lat="41.8508710" lon="-8.8621520">
        <ele>15.2</ele>
        <time>2019-08-16T11:16:08Z</time>
      </trkpt>
      <trkpt lat="41.8509000" lon="-8.8621310">
        <ele>15.2</ele>
        <time>2019-08-16T11:16:09Z</time>
      </trkpt>
      <trkpt lat="41.8510470" lon="-8.8620180">
        <ele>15.2</ele>
        <time>2019-08-16T11:16:14Z</time>
      </trkpt>
      <trkpt lat="41.8512730" lon="-8.8617830">
        <ele>15.2</ele>
        <time>2019-08-16T11:16:20Z</time>
      </trkpt>
      <trkpt lat="41.8515160" lon="-8.8615740">
        <ele>14.8</ele>
        <time>2019-08-16T11:16:25Z</time>
      </trkpt>
      <trkpt lat="41.8515610" lon="-8.8615290">
        <ele>14.4</ele>
        <time>2019-08-16T11:16:26Z</time>
      </trkpt>
      <trkpt lat="41.8516080" lon="-8.8614860">
        <ele>14.0</ele>
        <time>2019-08-16T11:16:27Z</time>
      </trkpt>
      <trkpt lat="41.8516350" lon="-8.8614430">
        <ele>13.6</ele>
        <time>2019-08-16T11:16:28Z</time>
      </trkpt>
      <trkpt lat="41.8516720" lon="-8.8614010">
        <ele>13.2</ele>
        <time>2019-08-16T11:16:29Z</time>
      </trkpt>
      <trkpt lat="41.8518810" lon="-8.8612570">
        <ele>13.2</ele>
        <time>2019-08-16T11:16:34Z</time>
      </trkpt>
      <trkpt lat="41.8519610" lon="-8.8612130">
        <ele>13.6</ele>
        <time>2019-08-16T11:16:36Z</time>
      </trkpt>
      <trkpt lat="41.8520030" lon="-8.8611940">
        <ele>14.0</ele>
        <time>2019-08-16T11:16:37Z</time>
      </trkpt>
      <trkpt lat="41.8520400" lon="-8.8611760">
        <ele>14.4</ele>
        <time>2019-08-16T11:16:38Z</time>
      </trkpt>
      <trkpt lat="41.8520780" lon="-8.8611690">
        <ele>15.0</ele>
        <time>2019-08-16T11:16:39Z</time>
      </trkpt>
      <trkpt lat="41.8521200" lon="-8.8611610">
        <ele>15.4</ele>
        <time>2019-08-16T11:16:40Z</time>
      </trkpt>
      <trkpt lat="41.8521570" lon="-8.8611470">
        <ele>15.4</ele>
        <time>2019-08-16T11:16:41Z</time>
      </trkpt>
      <trkpt lat="41.8522580" lon="-8.8610890">
        <ele>15.8</ele>
        <time>2019-08-16T11:16:44Z</time>
      </trkpt>
      <trkpt lat="41.8522750" lon="-8.8610510">
        <ele>16.4</ele>
        <time>2019-08-16T11:16:45Z</time>
      </trkpt>
      <trkpt lat="41.8522880" lon="-8.8610140">
        <ele>16.8</ele>
        <time>2019-08-16T11:16:46Z</time>
      </trkpt>
      <trkpt lat="41.8522950" lon="-8.8609740">
        <ele>17.2</ele>
        <time>2019-08-16T11:16:47Z</time>
      </trkpt>
      <trkpt lat="41.8522910" lon="-8.8609350">
        <ele>17.8</ele>
        <time>2019-08-16T11:16:48Z</time>
      </trkpt>
      <trkpt lat="41.8522860" lon="-8.8608910">
        <ele>18.4</ele>
        <time>2019-08-16T11:16:49Z</time>
      </trkpt>
      <trkpt lat="41.8522790" lon="-8.8608550">
        <ele>18.8</ele>
        <time>2019-08-16T11:16:50Z</time>
      </trkpt>
      <trkpt lat="41.8522690" lon="-8.8608260">
        <ele>19.4</ele>
        <time>2019-08-16T11:16:51Z</time>
      </trkpt>
      <trkpt lat="41.8522600" lon="-8.8608040">
        <ele>19.8</ele>
        <time>2019-08-16T11:16:52Z</time>
      </trkpt>
      <trkpt lat="41.8522440" lon="-8.8607770">
        <ele>19.8</ele>
        <time>2019-08-16T11:16:54Z</time>
      </trkpt>
      <trkpt lat="41.8522210" lon="-8.8607530">
        <ele>19.8</ele>
        <time>2019-08-16T11:16:56Z</time>
      </trkpt>
      <trkpt lat="41.8520740" lon="-8.8607480">
        <ele>19.8</ele>
        <time>2019-08-16T11:17:02Z</time>
      </trkpt>
      <trkpt lat="41.8517990" lon="-8.8607320">
        <ele>19.8</ele>
        <time>2019-08-16T11:17:11Z</time>
      </trkpt>
      <trkpt lat="41.8517570" lon="-8.8607270">
        <ele>19.8</ele>
        <time>2019-08-16T11:17:14Z</time>
      </trkpt>
      <trkpt lat="41.8517390" lon="-8.8607230">
        <ele>19.8</ele>
        <time>2019-08-16T11:17:37Z</time>
      </trkpt>
      <trkpt lat="41.8516270" lon="-8.8607160">
        <ele>19.8</ele>
        <time>2019-08-16T11:17:41Z</time>
      </trkpt>
      <trkpt lat="41.8513730" lon="-8.8606900">
        <ele>19.8</ele>
        <time>2019-08-16T11:17:47Z</time>
      </trkpt>
      <trkpt lat="41.8511020" lon="-8.8607170">
        <ele>19.8</ele>
        <time>2019-08-16T11:17:53Z</time>
      </trkpt>
      <trkpt lat="41.8510210" lon="-8.8607380">
        <ele>19.8</ele>
        <time>2019-08-16T11:17:55Z</time>
      </trkpt>
      <trkpt lat="41.8509190" lon="-8.8607480">
        <ele>19.8</ele>
        <time>2019-08-16T11:17:57Z</time>
      </trkpt>
      <trkpt lat="41.8507750" lon="-8.8606680">
        <ele>19.8</ele>
        <time>2019-08-16T11:18:00Z</time>
      </trkpt>
      <trkpt lat="41.8507590" lon="-8.8606080">
        <ele>20.4</ele>
        <time>2019-08-16T11:18:01Z</time>
      </trkpt>
      <trkpt lat="41.8507610" lon="-8.8605510">
        <ele>20.8</ele>
        <time>2019-08-16T11:18:02Z</time>
      </trkpt>
      <trkpt lat="41.8507710" lon="-8.8604970">
        <ele>21.2</ele>
        <time>2019-08-16T11:18:03Z</time>
      </trkpt>
      <trkpt lat="41.8507820" lon="-8.8604400">
        <ele>21.8</ele>
        <time>2019-08-16T11:18:04Z</time>
      </trkpt>
      <trkpt lat="41.8507960" lon="-8.8603860">
        <ele>22.2</ele>
        <time>2019-08-16T11:18:05Z</time>
      </trkpt>
      <trkpt lat="41.8508730" lon="-8.8602550">
        <ele>22.2</ele>
        <time>2019-08-16T11:18:08Z</time>
      </trkpt>
      <trkpt lat="41.8510750" lon="-8.8602070">
        <ele>22.2</ele>
        <time>2019-08-16T11:18:12Z</time>
      </trkpt>
      <trkpt lat="41.8511370" lon="-8.8602080">
        <ele>22.2</ele>
        <time>2019-08-16T11:18:13Z</time>
      </trkpt>
      <trkpt lat="41.8511990" lon="-8.8602070">
        <ele>21.8</ele>
        <time>2019-08-16T11:18:14Z</time>
      </trkpt>
      <trkpt lat="41.8512660" lon="-8.8602020">
        <ele>21.4</ele>
        <time>2019-08-16T11:18:15Z</time>
      </trkpt>
      <trkpt lat="41.8513350" lon="-8.8601960">
        <ele>20.8</ele>
        <time>2019-08-16T11:18:16Z</time>
      </trkpt>
      <trkpt lat="41.8514020" lon="-8.8601870">
        <ele>20.4</ele>
        <time>2019-08-16T11:18:17Z</time>
      </trkpt>
      <trkpt lat="41.8514700" lon="-8.8601720">
        <ele>20.0</ele>
        <time>2019-08-16T11:18:18Z</time>
      </trkpt>
      <trkpt lat="41.8516810" lon="-8.8601460">
        <ele>19.6</ele>
        <time>2019-08-16T11:18:21Z</time>
      </trkpt>
      <trkpt lat="41.8517470" lon="-8.8601360">
        <ele>19.2</ele>
        <time>2019-08-16T11:18:22Z</time>
      </trkpt>
      <trkpt lat="41.8518210" lon="-8.8601180">
        <ele>18.8</ele>
        <time>2019-08-16T11:18:23Z</time>
      </trkpt>
      <trkpt lat="41.8518850" lon="-8.8600740">
        <ele>18.4</ele>
        <time>2019-08-16T11:18:24Z</time>
      </trkpt>
      <trkpt lat="41.8519530" lon="-8.8600270">
        <ele>18.0</ele>
        <time>2019-08-16T11:18:25Z</time>
      </trkpt>
      <trkpt lat="41.8523440" lon="-8.8597050">
        <ele>18.0</ele>
        <time>2019-08-16T11:18:31Z</time>
      </trkpt>
      <trkpt lat="41.8524620" lon="-8.8595930">
        <ele>17.6</ele>
        <time>2019-08-16T11:18:33Z</time>
      </trkpt>
      <trkpt lat="41.8525160" lon="-8.8595430">
        <ele>17.0</ele>
        <time>2019-08-16T11:18:34Z</time>
      </trkpt>
      <trkpt lat="41.8525650" lon="-8.8594920">
        <ele>16.6</ele>
        <time>2019-08-16T11:18:35Z</time>
      </trkpt>
      <trkpt lat="41.8526260" lon="-8.8594400">
        <ele>16.2</ele>
        <time>2019-08-16T11:18:36Z</time>
      </trkpt>
      <trkpt lat="41.8526740" lon="-8.8593900">
        <ele>15.8</ele>
        <time>2019-08-16T11:18:37Z</time>
      </trkpt>
      <trkpt lat="41.8527320" lon="-8.8593370">
        <ele>15.8</ele>
        <time>2019-08-16T11:18:38Z</time>
      </trkpt>
      <trkpt lat="41.8532150" lon="-8.8589170">
        <ele>15.8</ele>
        <time>2019-08-16T11:18:46Z</time>
      </trkpt>
      <trkpt lat="41.8533390" lon="-8.8588110">
        <ele>15.4</ele>
        <time>2019-08-16T11:18:48Z</time>
      </trkpt>
      <trkpt lat="41.8533880" lon="-8.8587540">
        <ele>15.0</ele>
        <time>2019-08-16T11:18:49Z</time>
      </trkpt>
      <trkpt lat="41.8534250" lon="-8.8586890">
        <ele>14.4</ele>
        <time>2019-08-16T11:18:50Z</time>
      </trkpt>
      <trkpt lat="41.8534770" lon="-8.8586360">
        <ele>14.0</ele>
        <time>2019-08-16T11:18:51Z</time>
      </trkpt>
      <trkpt lat="41.8535320" lon="-8.8585810">
        <ele>13.6</ele>
        <time>2019-08-16T11:18:52Z</time>
      </trkpt>
      <trkpt lat="41.8535880" lon="-8.8585280">
        <ele>13.6</ele>
        <time>2019-08-16T11:18:53Z</time>
      </trkpt>
      <trkpt lat="41.8540560" lon="-8.8580750">
        <ele>13.6</ele>
        <time>2019-08-16T11:19:01Z</time>
      </trkpt>
      <trkpt lat="41.8545050" lon="-8.8576600">
        <ele>13.6</ele>
        <time>2019-08-16T11:19:08Z</time>
      </trkpt>
      <trkpt lat="41.8547500" lon="-8.8574320">
        <ele>13.2</ele>
        <time>2019-08-16T11:19:12Z</time>
      </trkpt>
      <trkpt lat="41.8548090" lon="-8.8573750">
        <ele>12.8</ele>
        <time>2019-08-16T11:19:13Z</time>
      </trkpt>
      <trkpt lat="41.8548670" lon="-8.8573170">
        <ele>12.4</ele>
        <time>2019-08-16T11:19:14Z</time>
      </trkpt>
      <trkpt lat="41.8549200" lon="-8.8572620">
        <ele>12.0</ele>
        <time>2019-08-16T11:19:15Z</time>
      </trkpt>
      <trkpt lat="41.8549790" lon="-8.8572090">
        <ele>11.6</ele>
        <time>2019-08-16T11:19:16Z</time>
      </trkpt>
      <trkpt lat="41.8554070" lon="-8.8568260">
        <ele>11.6</ele>
        <time>2019-08-16T11:19:23Z</time>
      </trkpt>
      <trkpt lat="41.8558780" lon="-8.8563980">
        <ele>11.6</ele>
        <time>2019-08-16T11:19:31Z</time>
      </trkpt>
      <trkpt lat="41.8561630" lon="-8.8561400">
        <ele>11.6</ele>
        <time>2019-08-16T11:19:36Z</time>
      </trkpt>
      <trkpt lat="41.8563170" lon="-8.8559720">
        <ele>11.6</ele>
        <time>2019-08-16T11:19:39Z</time>
      </trkpt>
      <trkpt lat="41.8567870" lon="-8.8555230">
        <ele>11.6</ele>
        <time>2019-08-16T11:19:47Z</time>
      </trkpt>
      <trkpt lat="41.8568450" lon="-8.8554650">
        <ele>11.6</ele>
        <time>2019-08-16T11:19:48Z</time>
      </trkpt>
      <trkpt lat="41.8572420" lon="-8.8550950">
        <ele>11.6</ele>
        <time>2019-08-16T11:19:55Z</time>
      </trkpt>
      <trkpt lat="41.8575860" lon="-8.8547730">
        <ele>11.6</ele>
        <time>2019-08-16T11:20:01Z</time>
      </trkpt>
      <trkpt lat="41.8580620" lon="-8.8543150">
        <ele>11.6</ele>
        <time>2019-08-16T11:20:09Z</time>
      </trkpt>
      <trkpt lat="41.8581250" lon="-8.8542560">
        <ele>11.6</ele>
        <time>2019-08-16T11:20:10Z</time>
      </trkpt>
      <trkpt lat="41.8584590" lon="-8.8538930">
        <ele>11.6</ele>
        <time>2019-08-16T11:20:16Z</time>
      </trkpt>
      <trkpt lat="41.8588540" lon="-8.8535400">
        <ele>11.6</ele>
        <time>2019-08-16T11:20:23Z</time>
      </trkpt>
      <trkpt lat="41.8592890" lon="-8.8531490">
        <ele>11.6</ele>
        <time>2019-08-16T11:20:30Z</time>
      </trkpt>
      <trkpt lat="41.8597870" lon="-8.8526750">
        <ele>11.6</ele>
        <time>2019-08-16T11:20:38Z</time>
      </trkpt>
      <trkpt lat="41.8599780" lon="-8.8525000">
        <ele>11.6</ele>
        <time>2019-08-16T11:20:41Z</time>
      </trkpt>
      <trkpt lat="41.8604590" lon="-8.8520750">
        <ele>11.6</ele>
        <time>2019-08-16T11:20:48Z</time>
      </trkpt>
      <trkpt lat="41.8607360" lon="-8.8518230">
        <ele>11.6</ele>
        <time>2019-08-16T11:20:52Z</time>
      </trkpt>
      <trkpt lat="41.8612250" lon="-8.8513650">
        <ele>11.6</ele>
        <time>2019-08-16T11:21:00Z</time>
      </trkpt>
      <trkpt lat="41.8617200" lon="-8.8509250">
        <ele>11.6</ele>
        <time>2019-08-16T11:21:09Z</time>
      </trkpt>
      <trkpt lat="41.8621820" lon="-8.8504970">
        <ele>11.6</ele>
        <time>2019-08-16T11:21:18Z</time>
      </trkpt>
      <trkpt lat="41.8626630" lon="-8.8500420">
        <ele>11.6</ele>
        <time>2019-08-16T11:21:27Z</time>
      </trkpt>
      <trkpt lat="41.8627200" lon="-8.8499840">
        <ele>11.6</ele>
        <time>2019-08-16T11:21:28Z</time>
      </trkpt>
      <trkpt lat="41.8630530" lon="-8.8495450">
        <ele>11.6</ele>
        <time>2019-08-16T11:21:35Z</time>
      </trkpt>
      <trkpt lat="41.8632130" lon="-8.8494240">
        <ele>11.6</ele>
        <time>2019-08-16T11:21:38Z</time>
      </trkpt>
      <trkpt lat="41.8633290" lon="-8.8494000">
        <ele>11.6</ele>
        <time>2019-08-16T11:21:40Z</time>
      </trkpt>
      <trkpt lat="41.8634730" lon="-8.8493600">
        <ele>11.6</ele>
        <time>2019-08-16T11:21:43Z</time>
      </trkpt>
      <trkpt lat="41.8635780" lon="-8.8492990">
        <ele>11.6</ele>
        <time>2019-08-16T11:21:45Z</time>
      </trkpt>
      <trkpt lat="41.8636680" lon="-8.8492110">
        <ele>11.6</ele>
        <time>2019-08-16T11:21:47Z</time>
      </trkpt>
      <trkpt lat="41.8637520" lon="-8.8491060">
        <ele>11.6</ele>
        <time>2019-08-16T11:21:49Z</time>
      </trkpt>
      <trkpt lat="41.8641740" lon="-8.8486490">
        <ele>11.6</ele>
        <time>2019-08-16T11:21:58Z</time>
      </trkpt>
      <trkpt lat="41.8642200" lon="-8.8485900">
        <ele>11.6</ele>
        <time>2019-08-16T11:21:59Z</time>
      </trkpt>
      <trkpt lat="41.8645590" lon="-8.8482230">
        <ele>11.6</ele>
        <time>2019-08-16T11:22:06Z</time>
      </trkpt>
      <trkpt lat="41.8650150" lon="-8.8478310">
        <ele>11.6</ele>
        <time>2019-08-16T11:22:15Z</time>
      </trkpt>
      <trkpt lat="41.8654680" lon="-8.8473980">
        <ele>11.6</ele>
        <time>2019-08-16T11:22:24Z</time>
      </trkpt>
      <trkpt lat="41.8657930" lon="-8.8471320">
        <ele>11.6</ele>
        <time>2019-08-16T11:22:30Z</time>
      </trkpt>
      <trkpt lat="41.8658470" lon="-8.8470880">
        <ele>11.6</ele>
        <time>2019-08-16T11:22:31Z</time>
      </trkpt>
      <trkpt lat="41.8661980" lon="-8.8467640">
        <ele>11.6</ele>
        <time>2019-08-16T11:22:38Z</time>
      </trkpt>
      <trkpt lat="41.8665910" lon="-8.8463710">
        <ele>11.6</ele>
        <time>2019-08-16T11:22:46Z</time>
      </trkpt>
      <trkpt lat="41.8669580" lon="-8.8460290">
        <ele>11.6</ele>
        <time>2019-08-16T11:22:53Z</time>
      </trkpt>
      <trkpt lat="41.8674120" lon="-8.8456130">
        <ele>11.6</ele>
        <time>2019-08-16T11:23:02Z</time>
      </trkpt>
      <trkpt lat="41.8678700" lon="-8.8451890">
        <ele>11.6</ele>
        <time>2019-08-16T11:23:11Z</time>
      </trkpt>
      <trkpt lat="41.8682590" lon="-8.8448300">
        <ele>11.6</ele>
        <time>2019-08-16T11:23:19Z</time>
      </trkpt>
      <trkpt lat="41.8684750" lon="-8.8446350">
        <ele>12.0</ele>
        <time>2019-08-16T11:23:24Z</time>
      </trkpt>
      <trkpt lat="41.8685160" lon="-8.8445910">
        <ele>12.6</ele>
        <time>2019-08-16T11:23:25Z</time>
      </trkpt>
      <trkpt lat="41.8685670" lon="-8.8445460">
        <ele>13.0</ele>
        <time>2019-08-16T11:23:26Z</time>
      </trkpt>
      <trkpt lat="41.8686050" lon="-8.8445050">
        <ele>13.4</ele>
        <time>2019-08-16T11:23:27Z</time>
      </trkpt>
      <trkpt lat="41.8686500" lon="-8.8444640">
        <ele>13.8</ele>
        <time>2019-08-16T11:23:28Z</time>
      </trkpt>
      <trkpt lat="41.8687020" lon="-8.8444150">
        <ele>13.8</ele>
        <time>2019-08-16T11:23:29Z</time>
      </trkpt>
      <trkpt lat="41.8689130" lon="-8.8441900">
        <ele>13.8</ele>
        <time>2019-08-16T11:23:34Z</time>
      </trkpt>
      <trkpt lat="41.8692180" lon="-8.8439110">
        <ele>13.8</ele>
        <time>2019-08-16T11:23:40Z</time>
      </trkpt>
      <trkpt lat="41.8696760" lon="-8.8435140">
        <ele>13.8</ele>
        <time>2019-08-16T11:23:49Z</time>
      </trkpt>
      <trkpt lat="41.8699810" lon="-8.8432580">
        <ele>13.8</ele>
        <time>2019-08-16T11:23:56Z</time>
      </trkpt>
      <trkpt lat="41.8700300" lon="-8.8432310">
        <ele>13.8</ele>
        <time>2019-08-16T11:23:57Z</time>
      </trkpt>
      <trkpt lat="41.8701720" lon="-8.8430850">
        <ele>13.8</ele>
        <time>2019-08-16T11:24:01Z</time>
      </trkpt>
      <trkpt lat="41.8702880" lon="-8.8429680">
        <ele>13.8</ele>
        <time>2019-08-16T11:24:04Z</time>
      </trkpt>
      <trkpt lat="41.8703910" lon="-8.8428700">
        <ele>13.8</ele>
        <time>2019-08-16T11:24:07Z</time>
      </trkpt>
      <trkpt lat="41.8704930" lon="-8.8427690">
        <ele>13.8</ele>
        <time>2019-08-16T11:24:10Z</time>
      </trkpt>
      <trkpt lat="41.8706190" lon="-8.8426440">
        <ele>13.8</ele>
        <time>2019-08-16T11:24:14Z</time>
      </trkpt>
      <trkpt lat="41.8708200" lon="-8.8424160">
        <ele>13.8</ele>
        <time>2019-08-16T11:24:21Z</time>
      </trkpt>
      <trkpt lat="41.8709090" lon="-8.8422970">
        <ele>13.8</ele>
        <time>2019-08-16T11:24:24Z</time>
      </trkpt>
      <trkpt lat="41.8710050" lon="-8.8422130">
        <ele>13.8</ele>
        <time>2019-08-16T11:24:27Z</time>
      </trkpt>
      <trkpt lat="41.8711550" lon="-8.8420930">
        <ele>14.2</ele>
        <time>2019-08-16T11:24:31Z</time>
      </trkpt>
      <trkpt lat="41.8712120" lon="-8.8420550">
        <ele>14.6</ele>
        <time>2019-08-16T11:24:32Z</time>
      </trkpt>
      <trkpt lat="41.8712700" lon="-8.8420160">
        <ele>15.0</ele>
        <time>2019-08-16T11:24:33Z</time>
      </trkpt>
      <trkpt lat="41.8713420" lon="-8.8419750">
        <ele>15.4</ele>
        <time>2019-08-16T11:24:34Z</time>
      </trkpt>
      <trkpt lat="41.8713960" lon="-8.8419430">
        <ele>15.8</ele>
        <time>2019-08-16T11:24:35Z</time>
      </trkpt>
      <trkpt lat="41.8717000" lon="-8.8417840">
        <ele>15.8</ele>
        <time>2019-08-16T11:24:41Z</time>
      </trkpt>
      <trkpt lat="41.8720700" lon="-8.8416110">
        <ele>16.2</ele>
        <time>2019-08-16T11:24:48Z</time>
      </trkpt>
      <trkpt lat="41.8721320" lon="-8.8415820">
        <ele>16.6</ele>
        <time>2019-08-16T11:24:49Z</time>
      </trkpt>
      <trkpt lat="41.8721600" lon="-8.8415240">
        <ele>17.2</ele>
        <time>2019-08-16T11:24:50Z</time>
      </trkpt>
      <trkpt lat="41.8721990" lon="-8.8414930">
        <ele>17.6</ele>
        <time>2019-08-16T11:24:51Z</time>
      </trkpt>
      <trkpt lat="41.8722420" lon="-8.8414550">
        <ele>18.0</ele>
        <time>2019-08-16T11:24:52Z</time>
      </trkpt>
      <trkpt lat="41.8723230" lon="-8.8413870">
        <ele>18.0</ele>
        <time>2019-08-16T11:24:54Z</time>
      </trkpt>
      <trkpt lat="41.8725660" lon="-8.8411780">
        <ele>18.0</ele>
        <time>2019-08-16T11:25:01Z</time>
      </trkpt>
      <trkpt lat="41.8726320" lon="-8.8411140">
        <ele>18.0</ele>
        <time>2019-08-16T11:25:07Z</time>
      </trkpt>
      <trkpt lat="41.8726570" lon="-8.8410630">
        <ele>18.0</ele>
        <time>2019-08-16T11:25:12Z</time>
      </trkpt>
      <trkpt lat="41.8727640" lon="-8.8410240">
        <ele>18.0</ele>
        <time>2019-08-16T11:25:16Z</time>
      </trkpt>
      <trkpt lat="41.8729240" lon="-8.8409990">
        <ele>18.0</ele>
        <time>2019-08-16T11:25:21Z</time>
      </trkpt>
      <trkpt lat="41.8729600" lon="-8.8409970">
        <ele>17.6</ele>
        <time>2019-08-16T11:25:22Z</time>
      </trkpt>
      <trkpt lat="41.8729910" lon="-8.8409890">
        <ele>17.0</ele>
        <time>2019-08-16T11:25:23Z</time>
      </trkpt>
      <trkpt lat="41.8730200" lon="-8.8409840">
        <ele>16.6</ele>
        <time>2019-08-16T11:25:24Z</time>
      </trkpt>
      <trkpt lat="41.8730420" lon="-8.8409810">
        <ele>16.2</ele>
        <time>2019-08-16T11:25:25Z</time>
      </trkpt>
      <trkpt lat="41.8730720" lon="-8.8409740">
        <ele>15.8</ele>
        <time>2019-08-16T11:25:26Z</time>
      </trkpt>
      <trkpt lat="41.8731690" lon="-8.8409570">
        <ele>15.8</ele>
        <time>2019-08-16T11:25:29Z</time>
      </trkpt>
      <trkpt lat="41.8732910" lon="-8.8408940">
        <ele>15.8</ele>
        <time>2019-08-16T11:25:35Z</time>
      </trkpt>
      <trkpt lat="41.8734840" lon="-8.8408330">
        <ele>15.8</ele>
        <time>2019-08-16T11:25:41Z</time>
      </trkpt>
      <trkpt lat="41.8736660" lon="-8.8407060">
        <ele>15.8</ele>
        <time>2019-08-16T11:25:46Z</time>
      </trkpt>
      <trkpt lat="41.8737720" lon="-8.8406160">
        <ele>15.4</ele>
        <time>2019-08-16T11:25:49Z</time>
      </trkpt>
      <trkpt lat="41.8738080" lon="-8.8405860">
        <ele>14.8</ele>
        <time>2019-08-16T11:25:50Z</time>
      </trkpt>
      <trkpt lat="41.8738440" lon="-8.8405620">
        <ele>14.4</ele>
        <time>2019-08-16T11:25:51Z</time>
      </trkpt>
      <trkpt lat="41.8738880" lon="-8.8405400">
        <ele>14.0</ele>
        <time>2019-08-16T11:25:52Z</time>
      </trkpt>
      <trkpt lat="41.8739360" lon="-8.8405170">
        <ele>13.4</ele>
        <time>2019-08-16T11:25:53Z</time>
      </trkpt>
      <trkpt lat="41.8741360" lon="-8.8404110">
        <ele>13.4</ele>
        <time>2019-08-16T11:25:58Z</time>
      </trkpt>
      <trkpt lat="41.8742160" lon="-8.8403770">
        <ele>13.4</ele>
        <time>2019-08-16T11:26:00Z</time>
      </trkpt>
      <trkpt lat="41.8743900" lon="-8.8402350">
        <ele>13.4</ele>
        <time>2019-08-16T11:26:06Z</time>
      </trkpt>
      <trkpt lat="41.8745710" lon="-8.8401410">
        <ele>13.4</ele>
        <time>2019-08-16T11:26:13Z</time>
      </trkpt>
      <trkpt lat="41.8746910" lon="-8.8400210">
        <ele>13.4</ele>
        <time>2019-08-16T11:26:21Z</time>
      </trkpt>
      <trkpt lat="41.8748070" lon="-8.8398970">
        <ele>13.4</ele>
        <time>2019-08-16T11:26:26Z</time>
      </trkpt>
      <trkpt lat="41.8749940" lon="-8.8397320">
        <ele>13.4</ele>
        <time>2019-08-16T11:26:33Z</time>
      </trkpt>
      <trkpt lat="41.8752000" lon="-8.8395370">
        <ele>13.4</ele>
        <time>2019-08-16T11:26:41Z</time>
      </trkpt>
      <trkpt lat="41.8752920" lon="-8.8393700">
        <ele>13.4</ele>
        <time>2019-08-16T11:26:45Z</time>
      </trkpt>
      <trkpt lat="41.8754450" lon="-8.8392580">
        <ele>13.4</ele>
        <time>2019-08-16T11:26:51Z</time>
      </trkpt>
      <trkpt lat="41.8755610" lon="-8.8390860">
        <ele>13.4</ele>
        <time>2019-08-16T11:26:57Z</time>
      </trkpt>
      <trkpt lat="41.8757890" lon="-8.8389380">
        <ele>13.4</ele>
        <time>2019-08-16T11:27:05Z</time>
      </trkpt>
      <trkpt lat="41.8758860" lon="-8.8387540">
        <ele>13.4</ele>
        <time>2019-08-16T11:27:12Z</time>
      </trkpt>
      <trkpt lat="41.8759070" lon="-8.8385550">
        <ele>13.4</ele>
        <time>2019-08-16T11:27:19Z</time>
      </trkpt>
      <trkpt lat="41.8759340" lon="-8.8384680">
        <ele>13.4</ele>
        <time>2019-08-16T11:27:24Z</time>
      </trkpt>
      <trkpt lat="41.8759980" lon="-8.8383110">
        <ele>13.4</ele>
        <time>2019-08-16T11:27:30Z</time>
      </trkpt>
      <trkpt lat="41.8760590" lon="-8.8382810">
        <ele>13.4</ele>
        <time>2019-08-16T11:27:35Z</time>
      </trkpt>
      <trkpt lat="41.8761630" lon="-8.8380950">
        <ele>13.4</ele>
        <time>2019-08-16T11:27:41Z</time>
      </trkpt>
      <trkpt lat="41.8763270" lon="-8.8379530">
        <ele>13.4</ele>
        <time>2019-08-16T11:27:48Z</time>
      </trkpt>
      <trkpt lat="41.8764700" lon="-8.8378430">
        <ele>13.4</ele>
        <time>2019-08-16T11:27:53Z</time>
      </trkpt>
      <trkpt lat="41.8766850" lon="-8.8376710">
        <ele>13.4</ele>
        <time>2019-08-16T11:28:01Z</time>
      </trkpt>
      <trkpt lat="41.8769230" lon="-8.8375150">
        <ele>13.4</ele>
        <time>2019-08-16T11:28:08Z</time>
      </trkpt>
      <trkpt lat="41.8771730" lon="-8.8373270">
        <ele>13.4</ele>
        <time>2019-08-16T11:28:16Z</time>
      </trkpt>
      <trkpt lat="41.8774430" lon="-8.8371130">
        <ele>13.4</ele>
        <time>2019-08-16T11:28:27Z</time>
      </trkpt>
      <trkpt lat="41.8776060" lon="-8.8369750">
        <ele>13.4</ele>
        <time>2019-08-16T11:28:33Z</time>
      </trkpt>
      <trkpt lat="41.8778210" lon="-8.8367050">
        <ele>13.4</ele>
        <time>2019-08-16T11:28:41Z</time>
      </trkpt>
      <trkpt lat="41.8779650" lon="-8.8364570">
        <ele>13.0</ele>
        <time>2019-08-16T11:28:48Z</time>
      </trkpt>
      <trkpt lat="41.8779770" lon="-8.8364140">
        <ele>12.6</ele>
        <time>2019-08-16T11:28:49Z</time>
      </trkpt>
      <trkpt lat="41.8779850" lon="-8.8363740">
        <ele>12.2</ele>
        <time>2019-08-16T11:28:50Z</time>
      </trkpt>
      <trkpt lat="41.8779990" lon="-8.8363380">
        <ele>11.6</ele>
        <time>2019-08-16T11:28:51Z</time>
      </trkpt>
      <trkpt lat="41.8780160" lon="-8.8363090">
        <ele>11.2</ele>
        <time>2019-08-16T11:28:52Z</time>
      </trkpt>
      <trkpt lat="41.8780650" lon="-8.8362500">
        <ele>11.2</ele>
        <time>2019-08-16T11:28:54Z</time>
      </trkpt>
      <trkpt lat="41.8781900" lon="-8.8362210">
        <ele>11.2</ele>
        <time>2019-08-16T11:28:58Z</time>
      </trkpt>
      <trkpt lat="41.8784050" lon="-8.8362900">
        <ele>11.2</ele>
        <time>2019-08-16T11:29:04Z</time>
      </trkpt>
      <trkpt lat="41.8785860" lon="-8.8363160">
        <ele>11.2</ele>
        <time>2019-08-16T11:29:10Z</time>
      </trkpt>
      <trkpt lat="41.8786460" lon="-8.8363900">
        <ele>11.2</ele>
        <time>2019-08-16T11:29:16Z</time>
      </trkpt>
      <trkpt lat="41.8784990" lon="-8.8364210">
        <ele>11.2</ele>
        <time>2019-08-16T11:29:21Z</time>
      </trkpt>
      <trkpt lat="41.8784540" lon="-8.8364210">
        <ele>11.2</ele>
        <time>2019-08-16T11:29:23Z</time>
      </trkpt>
      <trkpt lat="41.8783930" lon="-8.8364530">
        <ele>11.2</ele>
        <time>2019-08-16T11:29:26Z</time>
      </trkpt>
      <trkpt lat="41.8783770" lon="-8.8364660">
        <ele>11.2</ele>
        <time>2019-08-16T11:29:28Z</time>
      </trkpt>
      <trkpt lat="41.8783600" lon="-8.8364800">
        <ele>11.2</ele>
        <time>2019-08-16T11:29:34Z</time>
      </trkpt>
      <trkpt lat="41.8783430" lon="-8.8364930">
        <ele>11.2</ele>
        <time>2019-08-16T11:29:35Z</time>
      </trkpt>
      <trkpt lat="41.8781670" lon="-8.8366890">
        <ele>11.2</ele>
        <time>2019-08-16T11:29:40Z</time>
      </trkpt>
      <trkpt lat="41.8781050" lon="-8.8366420">
        <ele>11.2</ele>
        <time>2019-08-16T11:29:41Z</time>
      </trkpt>
      <trkpt lat="41.8780640" lon="-8.8366010">
        <ele>11.2</ele>
        <time>2019-08-16T11:29:42Z</time>
      </trkpt>
      <trkpt lat="41.8780210" lon="-8.8364220">
        <ele>11.2</ele>
        <time>2019-08-16T11:29:45Z</time>
      </trkpt>
      <trkpt lat="41.8780410" lon="-8.8362070">
        <ele>11.2</ele>
        <time>2019-08-16T11:29:48Z</time>
      </trkpt>
      <trkpt lat="41.8780510" lon="-8.8361330">
        <ele>11.2</ele>
        <time>2019-08-16T11:29:49Z</time>
      </trkpt>
      <trkpt lat="41.8780530" lon="-8.8359860">
        <ele>11.2</ele>
        <time>2019-08-16T11:29:51Z</time>
      </trkpt>
      <trkpt lat="41.8780650" lon="-8.8357690">
        <ele>11.2</ele>
        <time>2019-08-16T11:29:54Z</time>
      </trkpt>
      <trkpt lat="41.8780780" lon="-8.8356970">
        <ele>11.2</ele>
        <time>2019-08-16T11:29:55Z</time>
      </trkpt>
      <trkpt lat="41.8781870" lon="-8.8350890">
        <ele>11.2</ele>
        <time>2019-08-16T11:30:03Z</time>
      </trkpt>
      <trkpt lat="41.8783350" lon="-8.8344180">
        <ele>11.2</ele>
        <time>2019-08-16T11:30:12Z</time>
      </trkpt>
      <trkpt lat="41.8784950" lon="-8.8336510">
        <ele>11.2</ele>
        <time>2019-08-16T11:30:22Z</time>
      </trkpt>
      <trkpt lat="41.8785770" lon="-8.8332910">
        <ele>11.2</ele>
        <time>2019-08-16T11:30:28Z</time>
      </trkpt>
      <trkpt lat="41.8785730" lon="-8.8332590">
        <ele>11.2</ele>
        <time>2019-08-16T11:30:31Z</time>
      </trkpt>
      <trkpt lat="41.8785680" lon="-8.8332600">
        <ele>13.2</ele>
        <time>2019-08-16T11:31:53Z</time>
      </trkpt>
      <trkpt lat="41.8785700" lon="-8.8332540">
        <ele>13.2</ele>
        <time>2019-08-16T11:31:54Z</time>
      </trkpt>
      <trkpt lat="41.8785760" lon="-8.8332390">
        <ele>13.2</ele>
        <time>2019-08-16T11:31:55Z</time>
      </trkpt>
      <trkpt lat="41.8785890" lon="-8.8331860">
        <ele>13.2</ele>
        <time>2019-08-16T11:31:57Z</time>
      </trkpt>
      <trkpt lat="41.8786440" lon="-8.8329360">
        <ele>13.2</ele>
        <time>2019-08-16T11:32:03Z</time>
      </trkpt>
      <trkpt lat="41.8787490" lon="-8.8324450">
        <ele>13.2</ele>
        <time>2019-08-16T11:32:12Z</time>
      </trkpt>
      <trkpt lat="41.8788770" lon="-8.8318520">
        <ele>13.2</ele>
        <time>2019-08-16T11:32:21Z</time>
      </trkpt>
      <trkpt lat="41.8790380" lon="-8.8311340">
        <ele>13.2</ele>
        <time>2019-08-16T11:32:31Z</time>
      </trkpt>
      <trkpt lat="41.8790710" lon="-8.8309850">
        <ele>13.2</ele>
        <time>2019-08-16T11:32:33Z</time>
      </trkpt>
      <trkpt lat="41.8792150" lon="-8.8302640">
        <ele>13.2</ele>
        <time>2019-08-16T11:32:42Z</time>
      </trkpt>
      <trkpt lat="41.8793740" lon="-8.8294980">
        <ele>13.2</ele>
        <time>2019-08-16T11:32:51Z</time>
      </trkpt>
      <trkpt lat="41.8795050" lon="-8.8289180">
        <ele>13.2</ele>
        <time>2019-08-16T11:32:58Z</time>
      </trkpt>
      <trkpt lat="41.8795620" lon="-8.8286630">
        <ele>12.8</ele>
        <time>2019-08-16T11:33:01Z</time>
      </trkpt>
      <trkpt lat="41.8795810" lon="-8.8285770">
        <ele>12.4</ele>
        <time>2019-08-16T11:33:02Z</time>
      </trkpt>
      <trkpt lat="41.8796000" lon="-8.8284890">
        <ele>12.0</ele>
        <time>2019-08-16T11:33:03Z</time>
      </trkpt>
      <trkpt lat="41.8796180" lon="-8.8284020">
        <ele>11.6</ele>
        <time>2019-08-16T11:33:04Z</time>
      </trkpt>
      <trkpt lat="41.8796360" lon="-8.8283100">
        <ele>11.2</ele>
        <time>2019-08-16T11:33:05Z</time>
      </trkpt>
      <trkpt lat="41.8797200" lon="-8.8278690">
        <ele>11.2</ele>
        <time>2019-08-16T11:33:10Z</time>
      </trkpt>
      <trkpt lat="41.8798770" lon="-8.8271120">
        <ele>11.2</ele>
        <time>2019-08-16T11:33:19Z</time>
      </trkpt>
      <trkpt lat="41.8798960" lon="-8.8270310">
        <ele>11.2</ele>
        <time>2019-08-16T11:33:20Z</time>
      </trkpt>
      <trkpt lat="41.8800990" lon="-8.8263370">
        <ele>11.2</ele>
        <time>2019-08-16T11:33:29Z</time>
      </trkpt>
      <trkpt lat="41.8801260" lon="-8.8262640">
        <ele>11.2</ele>
        <time>2019-08-16T11:33:30Z</time>
      </trkpt>
      <trkpt lat="41.8804160" lon="-8.8256690">
        <ele>11.2</ele>
        <time>2019-08-16T11:33:39Z</time>
      </trkpt>
      <trkpt lat="41.8806620" lon="-8.8252380">
        <ele>11.2</ele>
        <time>2019-08-16T11:33:46Z</time>
      </trkpt>
      <trkpt lat="41.8806470" lon="-8.8251610">
        <ele>11.2</ele>
        <time>2019-08-16T11:33:47Z</time>
      </trkpt>
      <trkpt lat="41.8805510" lon="-8.8249590">
        <ele>11.2</ele>
        <time>2019-08-16T11:33:50Z</time>
      </trkpt>
      <trkpt lat="41.8805700" lon="-8.8248750">
        <ele>11.2</ele>
        <time>2019-08-16T11:33:51Z</time>
      </trkpt>
      <trkpt lat="41.8805820" lon="-8.8248120">
        <ele>11.2</ele>
        <time>2019-08-16T11:33:52Z</time>
      </trkpt>
      <trkpt lat="41.8806330" lon="-8.8247000">
        <ele>11.2</ele>
        <time>2019-08-16T11:33:55Z</time>
      </trkpt>
      <trkpt lat="41.8806490" lon="-8.8246650">
        <ele>11.2</ele>
        <time>2019-08-16T11:33:56Z</time>
      </trkpt>
      <trkpt lat="41.8807010" lon="-8.8245030">
        <ele>11.2</ele>
        <time>2019-08-16T11:34:02Z</time>
      </trkpt>
      <trkpt lat="41.8807840" lon="-8.8243070">
        <ele>11.2</ele>
        <time>2019-08-16T11:34:10Z</time>
      </trkpt>
      <trkpt lat="41.8808290" lon="-8.8241460">
        <ele>11.2</ele>
        <time>2019-08-16T11:34:17Z</time>
      </trkpt>
      <trkpt lat="41.8808310" lon="-8.8241420">
        <ele>11.2</ele>
        <time>2019-08-16T11:34:19Z</time>
      </trkpt>
      <trkpt lat="41.8808360" lon="-8.8241250">
        <ele>11.2</ele>
        <time>2019-08-16T11:34:47Z</time>
      </trkpt>
      <trkpt lat="41.8808380" lon="-8.8241260">
        <ele>11.2</ele>
        <time>2019-08-16T11:34:48Z</time>
      </trkpt>
      <trkpt lat="41.8808550" lon="-8.8240860">
        <ele>11.2</ele>
        <time>2019-08-16T11:34:50Z</time>
      </trkpt>
      <trkpt lat="41.8808860" lon="-8.8240190">
        <ele>11.2</ele>
        <time>2019-08-16T11:34:52Z</time>
      </trkpt>
      <trkpt lat="41.8809960" lon="-8.8237740">
        <ele>11.2</ele>
        <time>2019-08-16T11:34:58Z</time>
      </trkpt>
      <trkpt lat="41.8811180" lon="-8.8235080">
        <ele>11.2</ele>
        <time>2019-08-16T11:35:04Z</time>
      </trkpt>
      <trkpt lat="41.8812670" lon="-8.8231370">
        <ele>11.2</ele>
        <time>2019-08-16T11:35:12Z</time>
      </trkpt>
      <trkpt lat="41.8813790" lon="-8.8228100">
        <ele>11.2</ele>
        <time>2019-08-16T11:35:20Z</time>
      </trkpt>
      <trkpt lat="41.8814170" lon="-8.8226600">
        <ele>11.2</ele>
        <time>2019-08-16T11:35:25Z</time>
      </trkpt>
      <trkpt lat="41.8814160" lon="-8.8226540">
        <ele>11.6</ele>
        <time>2019-08-16T11:35:27Z</time>
      </trkpt>
      <trkpt lat="41.8814140" lon="-8.8226490">
        <ele>13.2</ele>
        <time>2019-08-16T11:35:41Z</time>
      </trkpt>
      <trkpt lat="41.8814490" lon="-8.8226480">
        <ele>13.2</ele>
        <time>2019-08-16T11:35:43Z</time>
      </trkpt>
      <trkpt lat="41.8814770" lon="-8.8226430">
        <ele>13.2</ele>
        <time>2019-08-16T11:35:44Z</time>
      </trkpt>
      <trkpt lat="41.8817020" lon="-8.8225750">
        <ele>12.8</ele>
        <time>2019-08-16T11:35:50Z</time>
      </trkpt>
      <trkpt lat="41.8817630" lon="-8.8225710">
        <ele>12.4</ele>
        <time>2019-08-16T11:35:51Z</time>
      </trkpt>
      <trkpt lat="41.8818170" lon="-8.8225600">
        <ele>12.0</ele>
        <time>2019-08-16T11:35:52Z</time>
      </trkpt>
      <trkpt lat="41.8818740" lon="-8.8225420">
        <ele>11.4</ele>
        <time>2019-08-16T11:35:53Z</time>
      </trkpt>
      <trkpt lat="41.8819230" lon="-8.8225330">
        <ele>11.0</ele>
        <time>2019-08-16T11:35:54Z</time>
      </trkpt>
      <trkpt lat="41.8820140" lon="-8.8225170">
        <ele>11.0</ele>
        <time>2019-08-16T11:35:56Z</time>
      </trkpt>
      <trkpt lat="41.8823350" lon="-8.8224870">
        <ele>11.0</ele>
        <time>2019-08-16T11:36:03Z</time>
      </trkpt>
      <trkpt lat="41.8824230" lon="-8.8224850">
        <ele>11.0</ele>
        <time>2019-08-16T11:36:05Z</time>
      </trkpt>
      <trkpt lat="41.8827810" lon="-8.8224690">
        <ele>11.0</ele>
        <time>2019-08-16T11:36:13Z</time>
      </trkpt>
      <trkpt lat="41.8830850" lon="-8.8224810">
        <ele>11.0</ele>
        <time>2019-08-16T11:36:20Z</time>
      </trkpt>
      <trkpt lat="41.8834170" lon="-8.8224740">
        <ele>11.0</ele>
        <time>2019-08-16T11:36:28Z</time>
      </trkpt>
      <trkpt lat="41.8834930" lon="-8.8224280">
        <ele>11.6</ele>
        <time>2019-08-16T11:36:32Z</time>
      </trkpt>
      <trkpt lat="41.8835000" lon="-8.8224120">
        <ele>12.0</ele>
        <time>2019-08-16T11:36:33Z</time>
      </trkpt>
      <trkpt lat="41.8835130" lon="-8.8223800">
        <ele>12.6</ele>
        <time>2019-08-16T11:36:35Z</time>
      </trkpt>
      <trkpt lat="41.8835190" lon="-8.8223560">
        <ele>13.0</ele>
        <time>2019-08-16T11:36:36Z</time>
      </trkpt>
      <trkpt lat="41.8835230" lon="-8.8223200">
        <ele>13.4</ele>
        <time>2019-08-16T11:36:37Z</time>
      </trkpt>
      <trkpt lat="41.8835200" lon="-8.8222080">
        <ele>13.4</ele>
        <time>2019-08-16T11:36:39Z</time>
      </trkpt>
      <trkpt lat="41.8834820" lon="-8.8220490">
        <ele>13.4</ele>
        <time>2019-08-16T11:36:41Z</time>
      </trkpt>
      <trkpt lat="41.8834860" lon="-8.8218710">
        <ele>13.0</ele>
        <time>2019-08-16T11:36:44Z</time>
      </trkpt>
      <trkpt lat="41.8834870" lon="-8.8218260">
        <ele>12.6</ele>
        <time>2019-08-16T11:36:45Z</time>
      </trkpt>
      <trkpt lat="41.8834910" lon="-8.8217970">
        <ele>12.2</ele>
        <time>2019-08-16T11:36:46Z</time>
      </trkpt>
      <trkpt lat="41.8834930" lon="-8.8217650">
        <ele>11.8</ele>
        <time>2019-08-16T11:36:47Z</time>
      </trkpt>
      <trkpt lat="41.8834980" lon="-8.8217400">
        <ele>11.4</ele>
        <time>2019-08-16T11:36:48Z</time>
      </trkpt>
      <trkpt lat="41.8835120" lon="-8.8217050">
        <ele>11.4</ele>
        <time>2019-08-16T11:36:51Z</time>
      </trkpt>
      <trkpt lat="41.8835170" lon="-8.8217150">
        <ele>11.4</ele>
        <time>2019-08-16T11:36:52Z</time>
      </trkpt>
      <trkpt lat="41.8835630" lon="-8.8217030">
        <ele>11.4</ele>
        <time>2019-08-16T11:37:02Z</time>
      </trkpt>
      <trkpt lat="41.8835900" lon="-8.8217040">
        <ele>11.4</ele>
        <time>2019-08-16T11:37:03Z</time>
      </trkpt>
      <trkpt lat="41.8836780" lon="-8.8217540">
        <ele>11.4</ele>
        <time>2019-08-16T11:37:07Z</time>
      </trkpt>
      <trkpt lat="41.8837310" lon="-8.8217800">
        <ele>11.4</ele>
        <time>2019-08-16T11:37:09Z</time>
      </trkpt>
      <trkpt lat="41.8841080" lon="-8.8219540">
        <ele>11.4</ele>
        <time>2019-08-16T11:37:20Z</time>
      </trkpt>
      <trkpt lat="41.8843890" lon="-8.8221000">
        <ele>11.4</ele>
        <time>2019-08-16T11:37:27Z</time>
      </trkpt>
      <trkpt lat="41.8846910" lon="-8.8222560">
        <ele>11.4</ele>
        <time>2019-08-16T11:37:34Z</time>
      </trkpt>
      <trkpt lat="41.8850290" lon="-8.8224250">
        <ele>11.4</ele>
        <time>2019-08-16T11:37:41Z</time>
      </trkpt>
      <trkpt lat="41.8853310" lon="-8.8225950">
        <ele>11.4</ele>
        <time>2019-08-16T11:37:48Z</time>
      </trkpt>
      <trkpt lat="41.8856600" lon="-8.8227810">
        <ele>11.4</ele>
        <time>2019-08-16T11:37:56Z</time>
      </trkpt>
      <trkpt lat="41.8859410" lon="-8.8229300">
        <ele>11.8</ele>
        <time>2019-08-16T11:38:03Z</time>
      </trkpt>
      <trkpt lat="41.8859840" lon="-8.8229500">
        <ele>12.2</ele>
        <time>2019-08-16T11:38:04Z</time>
      </trkpt>
      <trkpt lat="41.8860250" lon="-8.8229660">
        <ele>12.6</ele>
        <time>2019-08-16T11:38:05Z</time>
      </trkpt>
      <trkpt lat="41.8860680" lon="-8.8229860">
        <ele>13.2</ele>
        <time>2019-08-16T11:38:06Z</time>
      </trkpt>
      <trkpt lat="41.8861090" lon="-8.8230010">
        <ele>13.6</ele>
        <time>2019-08-16T11:38:07Z</time>
      </trkpt>
      <trkpt lat="41.8864250" lon="-8.8231280">
        <ele>13.6</ele>
        <time>2019-08-16T11:38:15Z</time>
      </trkpt>
      <trkpt lat="41.8864660" lon="-8.8231440">
        <ele>14.0</ele>
        <time>2019-08-16T11:38:16Z</time>
      </trkpt>
      <trkpt lat="41.8865100" lon="-8.8231550">
        <ele>14.4</ele>
        <time>2019-08-16T11:38:17Z</time>
      </trkpt>
      <trkpt lat="41.8865490" lon="-8.8231680">
        <ele>14.8</ele>
        <time>2019-08-16T11:38:18Z</time>
      </trkpt>
      <trkpt lat="41.8865860" lon="-8.8231800">
        <ele>15.2</ele>
        <time>2019-08-16T11:38:19Z</time>
      </trkpt>
      <trkpt lat="41.8866280" lon="-8.8231900">
        <ele>15.6</ele>
        <time>2019-08-16T11:38:20Z</time>
      </trkpt>
      <trkpt lat="41.8867070" lon="-8.8232150">
        <ele>15.6</ele>
        <time>2019-08-16T11:38:22Z</time>
      </trkpt>
      <trkpt lat="41.8871620" lon="-8.8233180">
        <ele>15.6</ele>
        <time>2019-08-16T11:38:33Z</time>
      </trkpt>
      <trkpt lat="41.8872470" lon="-8.8233380">
        <ele>16.0</ele>
        <time>2019-08-16T11:38:35Z</time>
      </trkpt>
      <trkpt lat="41.8872840" lon="-8.8233410">
        <ele>16.6</ele>
        <time>2019-08-16T11:38:36Z</time>
      </trkpt>
      <trkpt lat="41.8873030" lon="-8.8233540">
        <ele>17.0</ele>
        <time>2019-08-16T11:38:37Z</time>
      </trkpt>
      <trkpt lat="41.8873380" lon="-8.8233600">
        <ele>17.4</ele>
        <time>2019-08-16T11:38:38Z</time>
      </trkpt>
      <trkpt lat="41.8873820" lon="-8.8233610">
        <ele>17.8</ele>
        <time>2019-08-16T11:38:39Z</time>
      </trkpt>
      <trkpt lat="41.8874230" lon="-8.8233630">
        <ele>17.8</ele>
        <time>2019-08-16T11:38:40Z</time>
      </trkpt>
      <trkpt lat="41.8877870" lon="-8.8233750">
        <ele>17.8</ele>
        <time>2019-08-16T11:38:49Z</time>
      </trkpt>
      <trkpt lat="41.8880520" lon="-8.8233520">
        <ele>17.8</ele>
        <time>2019-08-16T11:38:55Z</time>
      </trkpt>
      <trkpt lat="41.8883980" lon="-8.8232980">
        <ele>17.8</ele>
        <time>2019-08-16T11:39:03Z</time>
      </trkpt>
      <trkpt lat="41.8885080" lon="-8.8232800">
        <ele>17.8</ele>
        <time>2019-08-16T11:39:08Z</time>
      </trkpt>
      <trkpt lat="41.8885860" lon="-8.8232070">
        <ele>17.8</ele>
        <time>2019-08-16T11:39:16Z</time>
      </trkpt>
      <trkpt lat="41.8886570" lon="-8.8231700">
        <ele>18.2</ele>
        <time>2019-08-16T11:39:23Z</time>
      </trkpt>
      <trkpt lat="41.8886650" lon="-8.8231690">
        <ele>18.6</ele>
        <time>2019-08-16T11:39:24Z</time>
      </trkpt>
      <trkpt lat="41.8886660" lon="-8.8231700">
        <ele>19.0</ele>
        <time>2019-08-16T11:39:25Z</time>
      </trkpt>
      <trkpt lat="41.8886660" lon="-8.8231700">
        <ele>19.4</ele>
        <time>2019-08-16T11:39:26Z</time>
      </trkpt>
      <trkpt lat="41.8886780" lon="-8.8231650">
        <ele>19.8</ele>
        <time>2019-08-16T11:40:21Z</time>
      </trkpt>
      <trkpt lat="41.8887030" lon="-8.8231400">
        <ele>19.8</ele>
        <time>2019-08-16T11:40:22Z</time>
      </trkpt>
      <trkpt lat="41.8888970" lon="-8.8230420">
        <ele>19.8</ele>
        <time>2019-08-16T11:40:27Z</time>
      </trkpt>
      <trkpt lat="41.8889180" lon="-8.8230480">
        <ele>19.8</ele>
        <time>2019-08-16T11:40:28Z</time>
      </trkpt>
      <trkpt lat="41.8890150" lon="-8.8230680">
        <ele>19.8</ele>
        <time>2019-08-16T11:40:32Z</time>
      </trkpt>
      <trkpt lat="41.8890420" lon="-8.8230500">
        <ele>19.8</ele>
        <time>2019-08-16T11:40:36Z</time>
      </trkpt>
      <trkpt lat="41.8890640" lon="-8.8230490">
        <ele>19.8</ele>
        <time>2019-08-16T11:40:40Z</time>
      </trkpt>
      <trkpt lat="41.8892000" lon="-8.8229950">
        <ele>19.8</ele>
        <time>2019-08-16T11:40:44Z</time>
      </trkpt>
      <trkpt lat="41.8893150" lon="-8.8229290">
        <ele>19.8</ele>
        <time>2019-08-16T11:40:47Z</time>
      </trkpt>
      <trkpt lat="41.8893900" lon="-8.8228820">
        <ele>19.8</ele>
        <time>2019-08-16T11:40:49Z</time>
      </trkpt>
      <trkpt lat="41.8897130" lon="-8.8226830">
        <ele>19.8</ele>
        <time>2019-08-16T11:40:56Z</time>
      </trkpt>
      <trkpt lat="41.8897650" lon="-8.8226600">
        <ele>19.4</ele>
        <time>2019-08-16T11:40:57Z</time>
      </trkpt>
      <trkpt lat="41.8898090" lon="-8.8226340">
        <ele>19.0</ele>
        <time>2019-08-16T11:40:58Z</time>
      </trkpt>
      <trkpt lat="41.8898550" lon="-8.8226050">
        <ele>18.6</ele>
        <time>2019-08-16T11:40:59Z</time>
      </trkpt>
      <trkpt lat="41.8899030" lon="-8.8225750">
        <ele>18.2</ele>
        <time>2019-08-16T11:41:00Z</time>
      </trkpt>
      <trkpt lat="41.8899520" lon="-8.8225440">
        <ele>17.8</ele>
        <time>2019-08-16T11:41:01Z</time>
      </trkpt>
      <trkpt lat="41.8901510" lon="-8.8224210">
        <ele>17.8</ele>
        <time>2019-08-16T11:41:05Z</time>
      </trkpt>
      <trkpt lat="41.8906000" lon="-8.8221510">
        <ele>17.8</ele>
        <time>2019-08-16T11:41:13Z</time>
      </trkpt>
      <trkpt lat="41.8907770" lon="-8.8220470">
        <ele>17.4</ele>
        <time>2019-08-16T11:41:16Z</time>
      </trkpt>
      <trkpt lat="41.8908370" lon="-8.8220120">
        <ele>17.0</ele>
        <time>2019-08-16T11:41:17Z</time>
      </trkpt>
      <trkpt lat="41.8908960" lon="-8.8219770">
        <ele>16.6</ele>
        <time>2019-08-16T11:41:18Z</time>
      </trkpt>
      <trkpt lat="41.8909560" lon="-8.8219410">
        <ele>16.0</ele>
        <time>2019-08-16T11:41:19Z</time>
      </trkpt>
      <trkpt lat="41.8910130" lon="-8.8219070">
        <ele>15.6</ele>
        <time>2019-08-16T11:41:20Z</time>
      </trkpt>
      <trkpt lat="41.8915480" lon="-8.8215820">
        <ele>15.6</ele>
        <time>2019-08-16T11:41:29Z</time>
      </trkpt>
      <trkpt lat="41.8916690" lon="-8.8215180">
        <ele>15.2</ele>
        <time>2019-08-16T11:41:31Z</time>
      </trkpt>
      <trkpt lat="41.8917280" lon="-8.8214870">
        <ele>14.8</ele>
        <time>2019-08-16T11:41:32Z</time>
      </trkpt>
      <trkpt lat="41.8917870" lon="-8.8214540">
        <ele>14.4</ele>
        <time>2019-08-16T11:41:33Z</time>
      </trkpt>
      <trkpt lat="41.8918440" lon="-8.8214210">
        <ele>14.0</ele>
        <time>2019-08-16T11:41:34Z</time>
      </trkpt>
      <trkpt lat="41.8919030" lon="-8.8213850">
        <ele>13.6</ele>
        <time>2019-08-16T11:41:35Z</time>
      </trkpt>
      <trkpt lat="41.8920620" lon="-8.8212730">
        <ele>13.6</ele>
        <time>2019-08-16T11:41:38Z</time>
      </trkpt>
      <trkpt lat="41.8921390" lon="-8.8210700">
        <ele>13.6</ele>
        <time>2019-08-16T11:41:41Z</time>
      </trkpt>
      <trkpt lat="41.8921500" lon="-8.8209340">
        <ele>13.6</ele>
        <time>2019-08-16T11:41:43Z</time>
      </trkpt>
      <trkpt lat="41.8921930" lon="-8.8206850">
        <ele>13.6</ele>
        <time>2019-08-16T11:41:47Z</time>
      </trkpt>
      <trkpt lat="41.8922230" lon="-8.8206340">
        <ele>13.6</ele>
        <time>2019-08-16T11:41:48Z</time>
      </trkpt>
      <trkpt lat="41.8923620" lon="-8.8205430">
        <ele>13.6</ele>
        <time>2019-08-16T11:41:51Z</time>
      </trkpt>
      <trkpt lat="41.8924040" lon="-8.8205160">
        <ele>13.6</ele>
        <time>2019-08-16T11:41:52Z</time>
      </trkpt>
      <trkpt lat="41.8927130" lon="-8.8202950">
        <ele>13.6</ele>
        <time>2019-08-16T11:41:59Z</time>
      </trkpt>
      <trkpt lat="41.8927490" lon="-8.8202550">
        <ele>13.6</ele>
        <time>2019-08-16T11:42:00Z</time>
      </trkpt>
      <trkpt lat="41.8928380" lon="-8.8201490">
        <ele>13.6</ele>
        <time>2019-08-16T11:42:03Z</time>
      </trkpt>
      <trkpt lat="41.8930560" lon="-8.8200660">
        <ele>13.6</ele>
        <time>2019-08-16T11:42:09Z</time>
      </trkpt>
      <trkpt lat="41.8932410" lon="-8.8200070">
        <ele>13.6</ele>
        <time>2019-08-16T11:42:14Z</time>
      </trkpt>
      <trkpt lat="41.8934280" lon="-8.8199370">
        <ele>14.0</ele>
        <time>2019-08-16T11:42:19Z</time>
      </trkpt>
      <trkpt lat="41.8934670" lon="-8.8199180">
        <ele>14.4</ele>
        <time>2019-08-16T11:42:20Z</time>
      </trkpt>
      <trkpt lat="41.8935110" lon="-8.8198990">
        <ele>14.8</ele>
        <time>2019-08-16T11:42:21Z</time>
      </trkpt>
      <trkpt lat="41.8935550" lon="-8.8198790">
        <ele>15.2</ele>
        <time>2019-08-16T11:42:22Z</time>
      </trkpt>
      <trkpt lat="41.8935890" lon="-8.8198590">
        <ele>15.6</ele>
        <time>2019-08-16T11:42:23Z</time>
      </trkpt>
      <trkpt lat="41.8938740" lon="-8.8197280">
        <ele>15.6</ele>
        <time>2019-08-16T11:42:30Z</time>
      </trkpt>
      <trkpt lat="41.8941990" lon="-8.8195680">
        <ele>15.6</ele>
        <time>2019-08-16T11:42:38Z</time>
      </trkpt>
      <trkpt lat="41.8945870" lon="-8.8193630">
        <ele>15.6</ele>
        <time>2019-08-16T11:42:46Z</time>
      </trkpt>
      <trkpt lat="41.8949800" lon="-8.8191490">
        <ele>15.6</ele>
        <time>2019-08-16T11:42:54Z</time>
      </trkpt>
      <trkpt lat="41.8953320" lon="-8.8189760">
        <ele>15.6</ele>
        <time>2019-08-16T11:43:01Z</time>
      </trkpt>
      <trkpt lat="41.8956020" lon="-8.8187960">
        <ele>15.6</ele>
        <time>2019-08-16T11:43:07Z</time>
      </trkpt>
      <trkpt lat="41.8959010" lon="-8.8186180">
        <ele>16.0</ele>
        <time>2019-08-16T11:43:14Z</time>
      </trkpt>
      <trkpt lat="41.8959310" lon="-8.8186160">
        <ele>16.4</ele>
        <time>2019-08-16T11:43:15Z</time>
      </trkpt>
      <trkpt lat="41.8959560" lon="-8.8186210">
        <ele>16.8</ele>
        <time>2019-08-16T11:43:16Z</time>
      </trkpt>
      <trkpt lat="41.8959800" lon="-8.8186150">
        <ele>17.2</ele>
        <time>2019-08-16T11:43:17Z</time>
      </trkpt>
      <trkpt lat="41.8959960" lon="-8.8186070">
        <ele>17.6</ele>
        <time>2019-08-16T11:43:18Z</time>
      </trkpt>
      <trkpt lat="41.8960240" lon="-8.8185970">
        <ele>17.6</ele>
        <time>2019-08-16T11:43:19Z</time>
      </trkpt>
      <trkpt lat="41.8960700" lon="-8.8185650">
        <ele>17.6</ele>
        <time>2019-08-16T11:43:21Z</time>
      </trkpt>
      <trkpt lat="41.8961720" lon="-8.8184840">
        <ele>17.6</ele>
        <time>2019-08-16T11:43:26Z</time>
      </trkpt>
      <trkpt lat="41.8962850" lon="-8.8184130">
        <ele>17.6</ele>
        <time>2019-08-16T11:43:32Z</time>
      </trkpt>
      <trkpt lat="41.8963390" lon="-8.8182920">
        <ele>17.6</ele>
        <time>2019-08-16T11:43:39Z</time>
      </trkpt>
      <trkpt lat="41.8963080" lon="-8.8181290">
        <ele>17.6</ele>
        <time>2019-08-16T11:43:45Z</time>
      </trkpt>
      <trkpt lat="41.8963140" lon="-8.8180890">
        <ele>17.6</ele>
        <time>2019-08-16T11:43:47Z</time>
      </trkpt>
      <trkpt lat="41.8963500" lon="-8.8180770">
        <ele>17.6</ele>
        <time>2019-08-16T11:43:49Z</time>
      </trkpt>
      <trkpt lat="41.8965100" lon="-8.8179340">
        <ele>17.6</ele>
        <time>2019-08-16T11:43:56Z</time>
      </trkpt>
      <trkpt lat="41.8967590" lon="-8.8177490">
        <ele>17.6</ele>
        <time>2019-08-16T11:44:03Z</time>
      </trkpt>
      <trkpt lat="41.8968370" lon="-8.8177170">
        <ele>17.6</ele>
        <time>2019-08-16T11:44:05Z</time>
      </trkpt>
      <trkpt lat="41.8970390" lon="-8.8176450">
        <ele>17.6</ele>
        <time>2019-08-16T11:44:11Z</time>
      </trkpt>
      <trkpt lat="41.8972980" lon="-8.8176030">
        <ele>17.6</ele>
        <time>2019-08-16T11:44:19Z</time>
      </trkpt>
      <trkpt lat="41.8975470" lon="-8.8175750">
        <ele>17.6</ele>
        <time>2019-08-16T11:44:25Z</time>
      </trkpt>
      <trkpt lat="41.8978440" lon="-8.8175000">
        <ele>17.6</ele>
        <time>2019-08-16T11:44:32Z</time>
      </trkpt>
      <trkpt lat="41.8979900" lon="-8.8173940">
        <ele>17.6</ele>
        <time>2019-08-16T11:44:35Z</time>
      </trkpt>
      <trkpt lat="41.8980330" lon="-8.8173370">
        <ele>17.6</ele>
        <time>2019-08-16T11:44:36Z</time>
      </trkpt>
      <trkpt lat="41.8981480" lon="-8.8170540">
        <ele>17.6</ele>
        <time>2019-08-16T11:44:40Z</time>
      </trkpt>
      <trkpt lat="41.8981680" lon="-8.8169930">
        <ele>17.6</ele>
        <time>2019-08-16T11:44:41Z</time>
      </trkpt>
      <trkpt lat="41.8982580" lon="-8.8167560">
        <ele>17.6</ele>
        <time>2019-08-16T11:44:45Z</time>
      </trkpt>
      <trkpt lat="41.8982910" lon="-8.8167030">
        <ele>17.6</ele>
        <time>2019-08-16T11:44:46Z</time>
      </trkpt>
      <trkpt lat="41.8984580" lon="-8.8164700">
        <ele>17.6</ele>
        <time>2019-08-16T11:44:51Z</time>
      </trkpt>
      <trkpt lat="41.8985130" lon="-8.8163750">
        <ele>17.6</ele>
        <time>2019-08-16T11:44:53Z</time>
      </trkpt>
      <trkpt lat="41.8986340" lon="-8.8160580">
        <ele>17.6</ele>
        <time>2019-08-16T11:44:59Z</time>
      </trkpt>
      <trkpt lat="41.8987600" lon="-8.8159210">
        <ele>17.6</ele>
        <time>2019-08-16T11:45:04Z</time>
      </trkpt>
      <trkpt lat="41.8988730" lon="-8.8159180">
        <ele>17.6</ele>
        <time>2019-08-16T11:45:07Z</time>
      </trkpt>
      <trkpt lat="41.8989190" lon="-8.8159220">
        <ele>17.6</ele>
        <time>2019-08-16T11:45:08Z</time>
      </trkpt>
      <trkpt lat="41.8991190" lon="-8.8159090">
        <ele>17.6</ele>
        <time>2019-08-16T11:45:12Z</time>
      </trkpt>
      <trkpt lat="41.8992040" lon="-8.8158830">
        <ele>17.6</ele>
        <time>2019-08-16T11:45:16Z</time>
      </trkpt>
      <trkpt lat="41.8992280" lon="-8.8158670">
        <ele>17.6</ele>
        <time>2019-08-16T11:45:18Z</time>
      </trkpt>
      <trkpt lat="41.8992530" lon="-8.8158500">
        <ele>17.6</ele>
        <time>2019-08-16T11:45:28Z</time>
      </trkpt>
      <trkpt lat="41.8992770" lon="-8.8158340">
        <ele>17.6</ele>
        <time>2019-08-16T11:45:29Z</time>
      </trkpt>
      <trkpt lat="41.8992990" lon="-8.8158040">
        <ele>18.0</ele>
        <time>2019-08-16T11:45:30Z</time>
      </trkpt>
      <trkpt lat="41.8993150" lon="-8.8157790">
        <ele>18.4</ele>
        <time>2019-08-16T11:45:31Z</time>
      </trkpt>
      <trkpt lat="41.8993180" lon="-8.8157470">
        <ele>19.0</ele>
        <time>2019-08-16T11:45:32Z</time>
      </trkpt>
      <trkpt lat="41.8993190" lon="-8.8157160">
        <ele>19.4</ele>
        <time>2019-08-16T11:45:33Z</time>
      </trkpt>
      <trkpt lat="41.8993180" lon="-8.8157060">
        <ele>19.8</ele>
        <time>2019-08-16T11:45:34Z</time>
      </trkpt>
      <trkpt lat="41.8992640" lon="-8.8157250">
        <ele>20.2</ele>
        <time>2019-08-16T11:45:39Z</time>
      </trkpt>
      <trkpt lat="41.8992540" lon="-8.8157290">
        <ele>20.8</ele>
        <time>2019-08-16T11:45:40Z</time>
      </trkpt>
      <trkpt lat="41.8992330" lon="-8.8157340">
        <ele>21.2</ele>
        <time>2019-08-16T11:45:41Z</time>
      </trkpt>
      <trkpt lat="41.8992120" lon="-8.8157350">
        <ele>21.6</ele>
        <time>2019-08-16T11:45:42Z</time>
      </trkpt>
      <trkpt lat="41.8991910" lon="-8.8157300">
        <ele>22.2</ele>
        <time>2019-08-16T11:45:43Z</time>
      </trkpt>
      <trkpt lat="41.8991230" lon="-8.8156970">
        <ele>22.2</ele>
        <time>2019-08-16T11:45:47Z</time>
      </trkpt>
      <trkpt lat="41.8990980" lon="-8.8156570">
        <ele>22.6</ele>
        <time>2019-08-16T11:45:49Z</time>
      </trkpt>
      <trkpt lat="41.8990950" lon="-8.8156410">
        <ele>23.0</ele>
        <time>2019-08-16T11:45:50Z</time>
      </trkpt>
      <trkpt lat="41.8990900" lon="-8.8156260">
        <ele>23.6</ele>
        <time>2019-08-16T11:45:51Z</time>
      </trkpt>
      <trkpt lat="41.8990860" lon="-8.8156090">
        <ele>24.0</ele>
        <time>2019-08-16T11:45:52Z</time>
      </trkpt>
      <trkpt lat="41.8990880" lon="-8.8155900">
        <ele>24.4</ele>
        <time>2019-08-16T11:45:53Z</time>
      </trkpt>
      <trkpt lat="41.8990920" lon="-8.8155710">
        <ele>24.4</ele>
        <time>2019-08-16T11:45:54Z</time>
      </trkpt>
      <trkpt lat="41.8991260" lon="-8.8155460">
        <ele>24.8</ele>
        <time>2019-08-16T11:45:56Z</time>
      </trkpt>
      <trkpt lat="41.8991380" lon="-8.8155310">
        <ele>25.2</ele>
        <time>2019-08-16T11:45:57Z</time>
      </trkpt>
      <trkpt lat="41.8991490" lon="-8.8155140">
        <ele>25.6</ele>
        <time>2019-08-16T11:45:58Z</time>
      </trkpt>
      <trkpt lat="41.8991560" lon="-8.8154950">
        <ele>26.0</ele>
        <time>2019-08-16T11:45:59Z</time>
      </trkpt>
      <trkpt lat="41.8991500" lon="-8.8154780">
        <ele>26.4</ele>
        <time>2019-08-16T11:46:00Z</time>
      </trkpt>
      <trkpt lat="41.8991830" lon="-8.8153810">
        <ele>26.4</ele>
        <time>2019-08-16T11:46:06Z</time>
      </trkpt>
      <trkpt lat="41.8991950" lon="-8.8153680">
        <ele>27.0</ele>
        <time>2019-08-16T11:46:07Z</time>
      </trkpt>
      <trkpt lat="41.8992050" lon="-8.8153510">
        <ele>27.4</ele>
        <time>2019-08-16T11:46:08Z</time>
      </trkpt>
      <trkpt lat="41.8992160" lon="-8.8153320">
        <ele>27.8</ele>
        <time>2019-08-16T11:46:09Z</time>
      </trkpt>
      <trkpt lat="41.8992270" lon="-8.8153060">
        <ele>28.4</ele>
        <time>2019-08-16T11:46:10Z</time>
      </trkpt>
      <trkpt lat="41.8992370" lon="-8.8152720">
        <ele>28.8</ele>
        <time>2019-08-16T11:46:11Z</time>
      </trkpt>
      <trkpt lat="41.8992490" lon="-8.8152110">
        <ele>28.8</ele>
        <time>2019-08-16T11:46:13Z</time>
      </trkpt>
      <trkpt lat="41.8992580" lon="-8.8151760">
        <ele>28.8</ele>
        <time>2019-08-16T11:46:14Z</time>
      </trkpt>
      <trkpt lat="41.8992420" lon="-8.8150180">
        <ele>28.8</ele>
        <time>2019-08-16T11:46:19Z</time>
      </trkpt>
      <trkpt lat="41.8991370" lon="-8.8148770">
        <ele>28.8</ele>
        <time>2019-08-16T11:46:26Z</time>
      </trkpt>
      <trkpt lat="41.8990160" lon="-8.8147140">
        <ele>28.8</ele>
        <time>2019-08-16T11:46:34Z</time>
      </trkpt>
      <trkpt lat="41.8990710" lon="-8.8144500">
        <ele>28.8</ele>
        <time>2019-08-16T11:46:41Z</time>
      </trkpt>
      <trkpt lat="41.8991550" lon="-8.8143810">
        <ele>28.8</ele>
        <time>2019-08-16T11:46:46Z</time>
      </trkpt>
      <trkpt lat="41.8993080" lon="-8.8143050">
        <ele>28.8</ele>
        <time>2019-08-16T11:46:51Z</time>
      </trkpt>
      <trkpt lat="41.8993650" lon="-8.8142930">
        <ele>28.8</ele>
        <time>2019-08-16T11:46:53Z</time>
      </trkpt>
      <trkpt lat="41.8994290" lon="-8.8142690">
        <ele>28.4</ele>
        <time>2019-08-16T11:46:55Z</time>
      </trkpt>
      <trkpt lat="41.8994640" lon="-8.8142550">
        <ele>27.8</ele>
        <time>2019-08-16T11:46:56Z</time>
      </trkpt>
      <trkpt lat="41.8994930" lon="-8.8142410">
        <ele>27.4</ele>
        <time>2019-08-16T11:46:57Z</time>
      </trkpt>
      <trkpt lat="41.8995250" lon="-8.8142280">
        <ele>27.0</ele>
        <time>2019-08-16T11:46:58Z</time>
      </trkpt>
      <trkpt lat="41.8995670" lon="-8.8142080">
        <ele>26.6</ele>
        <time>2019-08-16T11:46:59Z</time>
      </trkpt>
      <trkpt lat="41.8996540" lon="-8.8141060">
        <ele>26.6</ele>
        <time>2019-08-16T11:47:01Z</time>
      </trkpt>
      <trkpt lat="41.8996980" lon="-8.8140680">
        <ele>26.6</ele>
        <time>2019-08-16T11:47:02Z</time>
      </trkpt>
      <trkpt lat="41.8997340" lon="-8.8140310">
        <ele>26.6</ele>
        <time>2019-08-16T11:47:03Z</time>
      </trkpt>
      <trkpt lat="41.8998780" lon="-8.8138610">
        <ele>26.6</ele>
        <time>2019-08-16T11:47:07Z</time>
      </trkpt>
      <trkpt lat="41.8999870" lon="-8.8135920">
        <ele>26.6</ele>
        <time>2019-08-16T11:47:14Z</time>
      </trkpt>
      <trkpt lat="41.8999980" lon="-8.8134060">
        <ele>26.6</ele>
        <time>2019-08-16T11:47:18Z</time>
      </trkpt>
      <trkpt lat="41.9000170" lon="-8.8133650">
        <ele>26.6</ele>
        <time>2019-08-16T11:47:19Z</time>
      </trkpt>
      <trkpt lat="41.9001310" lon="-8.8132450">
        <ele>26.6</ele>
        <time>2019-08-16T11:47:23Z</time>
      </trkpt>
      <trkpt lat="41.9002770" lon="-8.8131900">
        <ele>26.0</ele>
        <time>2019-08-16T11:47:27Z</time>
      </trkpt>
      <trkpt lat="41.9003240" lon="-8.8131720">
        <ele>25.6</ele>
        <time>2019-08-16T11:47:28Z</time>
      </trkpt>
      <trkpt lat="41.9003660" lon="-8.8131570">
        <ele>25.0</ele>
        <time>2019-08-16T11:47:29Z</time>
      </trkpt>
      <trkpt lat="41.9004210" lon="-8.8131400">
        <ele>24.6</ele>
        <time>2019-08-16T11:47:30Z</time>
      </trkpt>
      <trkpt lat="41.9004860" lon="-8.8131760">
        <ele>24.0</ele>
        <time>2019-08-16T11:47:31Z</time>
      </trkpt>
      <trkpt lat="41.9005720" lon="-8.8132060">
        <ele>24.0</ele>
        <time>2019-08-16T11:47:33Z</time>
      </trkpt>
      <trkpt lat="41.9006760" lon="-8.8132300">
        <ele>23.6</ele>
        <time>2019-08-16T11:47:36Z</time>
      </trkpt>
      <trkpt lat="41.9006990" lon="-8.8132380">
        <ele>23.2</ele>
        <time>2019-08-16T11:47:37Z</time>
      </trkpt>
      <trkpt lat="41.9007400" lon="-8.8132440">
        <ele>22.8</ele>
        <time>2019-08-16T11:47:38Z</time>
      </trkpt>
      <trkpt lat="41.9007870" lon="-8.8132570">
        <ele>22.4</ele>
        <time>2019-08-16T11:47:39Z</time>
      </trkpt>
      <trkpt lat="41.9008400" lon="-8.8132720">
        <ele>21.8</ele>
        <time>2019-08-16T11:47:40Z</time>
      </trkpt>
      <trkpt lat="41.9008960" lon="-8.8132820">
        <ele>21.2</ele>
        <time>2019-08-16T11:47:41Z</time>
      </trkpt>
      <trkpt lat="41.9009490" lon="-8.8132910">
        <ele>20.6</ele>
        <time>2019-08-16T11:47:42Z</time>
      </trkpt>
      <trkpt lat="41.9010050" lon="-8.8133010">
        <ele>19.8</ele>
        <time>2019-08-16T11:47:43Z</time>
      </trkpt>
      <trkpt lat="41.9010410" lon="-8.8133210">
        <ele>19.2</ele>
        <time>2019-08-16T11:47:44Z</time>
      </trkpt>
      <trkpt lat="41.9010780" lon="-8.8133010">
        <ele>17.8</ele>
        <time>2019-08-16T11:47:46Z</time>
      </trkpt>
      <trkpt lat="41.9010960" lon="-8.8132870">
        <ele>17.0</ele>
        <time>2019-08-16T11:47:47Z</time>
      </trkpt>
      <trkpt lat="41.9011510" lon="-8.8131990">
        <ele>17.0</ele>
        <time>2019-08-16T11:47:52Z</time>
      </trkpt>
      <trkpt lat="41.9011950" lon="-8.8130330">
        <ele>17.0</ele>
        <time>2019-08-16T11:47:58Z</time>
      </trkpt>
      <trkpt lat="41.9012030" lon="-8.8129930">
        <ele>17.0</ele>
        <time>2019-08-16T11:48:02Z</time>
      </trkpt>
      <trkpt lat="41.9011740" lon="-8.8130690">
        <ele>17.0</ele>
        <time>2019-08-16T11:48:06Z</time>
      </trkpt>
      <trkpt lat="41.9011260" lon="-8.8132460">
        <ele>17.0</ele>
        <time>2019-08-16T11:48:13Z</time>
      </trkpt>
      <trkpt lat="41.9011600" lon="-8.8132290">
        <ele>17.0</ele>
        <time>2019-08-16T11:48:14Z</time>
      </trkpt>
      <trkpt lat="41.9012460" lon="-8.8131660">
        <ele>16.6</ele>
        <time>2019-08-16T11:48:16Z</time>
      </trkpt>
      <trkpt lat="41.9013100" lon="-8.8131020">
        <ele>16.2</ele>
        <time>2019-08-16T11:48:17Z</time>
      </trkpt>
      <trkpt lat="41.9013530" lon="-8.8130250">
        <ele>15.8</ele>
        <time>2019-08-16T11:48:18Z</time>
      </trkpt>
      <trkpt lat="41.9013980" lon="-8.8129570">
        <ele>15.4</ele>
        <time>2019-08-16T11:48:19Z</time>
      </trkpt>
      <trkpt lat="41.9014340" lon="-8.8128930">
        <ele>14.8</ele>
        <time>2019-08-16T11:48:20Z</time>
      </trkpt>
      <trkpt lat="41.9015510" lon="-8.8126710">
        <ele>14.8</ele>
        <time>2019-08-16T11:48:24Z</time>
      </trkpt>
      <trkpt lat="41.9015750" lon="-8.8124310">
        <ele>14.8</ele>
        <time>2019-08-16T11:48:28Z</time>
      </trkpt>
      <trkpt lat="41.9016220" lon="-8.8119250">
        <ele>14.8</ele>
        <time>2019-08-16T11:48:36Z</time>
      </trkpt>
      <trkpt lat="41.9016230" lon="-8.8113120">
        <ele>14.8</ele>
        <time>2019-08-16T11:48:47Z</time>
      </trkpt>
      <trkpt lat="41.9015010" lon="-8.8108320">
        <ele>14.8</ele>
        <time>2019-08-16T11:48:55Z</time>
      </trkpt>
      <trkpt lat="41.9013660" lon="-8.8105460">
        <ele>14.8</ele>
        <time>2019-08-16T11:49:01Z</time>
      </trkpt>
      <trkpt lat="41.9013000" lon="-8.8103520">
        <ele>14.4</ele>
        <time>2019-08-16T11:49:04Z</time>
      </trkpt>
      <trkpt lat="41.9012890" lon="-8.8102570">
        <ele>14.0</ele>
        <time>2019-08-16T11:49:05Z</time>
      </trkpt>
      <trkpt lat="41.9012720" lon="-8.8101650">
        <ele>13.6</ele>
        <time>2019-08-16T11:49:06Z</time>
      </trkpt>
      <trkpt lat="41.9012520" lon="-8.8100810">
        <ele>13.2</ele>
        <time>2019-08-16T11:49:07Z</time>
      </trkpt>
      <trkpt lat="41.9012570" lon="-8.8099970">
        <ele>12.8</ele>
        <time>2019-08-16T11:49:08Z</time>
      </trkpt>
      <trkpt lat="41.9012420" lon="-8.8099200">
        <ele>12.8</ele>
        <time>2019-08-16T11:49:09Z</time>
      </trkpt>
      <trkpt lat="41.9012030" lon="-8.8096070">
        <ele>12.8</ele>
        <time>2019-08-16T11:49:14Z</time>
      </trkpt>
      <trkpt lat="41.9011900" lon="-8.8095940">
        <ele>12.8</ele>
        <time>2019-08-16T11:49:15Z</time>
      </trkpt>
      <trkpt lat="41.9011650" lon="-8.8096160">
        <ele>12.8</ele>
        <time>2019-08-16T11:49:17Z</time>
      </trkpt>
      <trkpt lat="41.9011560" lon="-8.8096740">
        <ele>12.8</ele>
        <time>2019-08-16T11:49:20Z</time>
      </trkpt>
      <trkpt lat="41.9011380" lon="-8.8097180">
        <ele>12.8</ele>
        <time>2019-08-16T11:49:22Z</time>
      </trkpt>
      <trkpt lat="41.9011320" lon="-8.8098070">
        <ele>13.2</ele>
        <time>2019-08-16T11:49:26Z</time>
      </trkpt>
      <trkpt lat="41.9011270" lon="-8.8098270">
        <ele>13.8</ele>
        <time>2019-08-16T11:49:27Z</time>
      </trkpt>
      <trkpt lat="41.9011240" lon="-8.8098500">
        <ele>14.2</ele>
        <time>2019-08-16T11:49:28Z</time>
      </trkpt>
      <trkpt lat="41.9011170" lon="-8.8098750">
        <ele>14.6</ele>
        <time>2019-08-16T11:49:29Z</time>
      </trkpt>
      <trkpt lat="41.9011180" lon="-8.8099020">
        <ele>15.0</ele>
        <time>2019-08-16T11:49:30Z</time>
      </trkpt>
      <trkpt lat="41.9011050" lon="-8.8100420">
        <ele>15.4</ele>
        <time>2019-08-16T11:49:35Z</time>
      </trkpt>
      <trkpt lat="41.9010960" lon="-8.8100650">
        <ele>15.8</ele>
        <time>2019-08-16T11:49:36Z</time>
      </trkpt>
      <trkpt lat="41.9010870" lon="-8.8100910">
        <ele>16.2</ele>
        <time>2019-08-16T11:49:37Z</time>
      </trkpt>
      <trkpt lat="41.9010790" lon="-8.8101190">
        <ele>16.8</ele>
        <time>2019-08-16T11:49:38Z</time>
      </trkpt>
      <trkpt lat="41.9010720" lon="-8.8101470">
        <ele>17.2</ele>
        <time>2019-08-16T11:49:39Z</time>
      </trkpt>
      <trkpt lat="41.9010560" lon="-8.8102420">
        <ele>17.6</ele>
        <time>2019-08-16T11:49:43Z</time>
      </trkpt>
      <trkpt lat="41.9010530" lon="-8.8102580">
        <ele>18.0</ele>
        <time>2019-08-16T11:49:44Z</time>
      </trkpt>
      <trkpt lat="41.9010490" lon="-8.8102700">
        <ele>18.4</ele>
        <time>2019-08-16T11:49:45Z</time>
      </trkpt>
      <trkpt lat="41.9010420" lon="-8.8102760">
        <ele>18.8</ele>
        <time>2019-08-16T11:49:46Z</time>
      </trkpt>
      <trkpt lat="41.9010380" lon="-8.8102810">
        <ele>19.2</ele>
        <time>2019-08-16T11:49:47Z</time>
      </trkpt>
      <trkpt lat="41.9010290" lon="-8.8102870">
        <ele>19.2</ele>
        <time>2019-08-16T11:49:49Z</time>
      </trkpt>
      <trkpt lat="41.9009720" lon="-8.8102660">
        <ele>19.2</ele>
        <time>2019-08-16T11:49:52Z</time>
      </trkpt>
      <trkpt lat="41.9009610" lon="-8.8102570">
        <ele>19.2</ele>
        <time>2019-08-16T11:49:53Z</time>
      </trkpt>
      <trkpt lat="41.9009730" lon="-8.8102280">
        <ele>19.2</ele>
        <time>2019-08-16T11:49:54Z</time>
      </trkpt>
      <trkpt lat="41.9009830" lon="-8.8101590">
        <ele>19.2</ele>
        <time>2019-08-16T11:49:56Z</time>
      </trkpt>
      <trkpt lat="41.9009300" lon="-8.8098970">
        <ele>19.2</ele>
        <time>2019-08-16T11:50:02Z</time>
      </trkpt>
      <trkpt lat="41.9008680" lon="-8.8096780">
        <ele>19.2</ele>
        <time>2019-08-16T11:50:06Z</time>
      </trkpt>
      <trkpt lat="41.9008570" lon="-8.8095540">
        <ele>19.2</ele>
        <time>2019-08-16T11:50:08Z</time>
      </trkpt>
      <trkpt lat="41.9008650" lon="-8.8094240">
        <ele>19.2</ele>
        <time>2019-08-16T11:50:10Z</time>
      </trkpt>
      <trkpt lat="41.9009090" lon="-8.8091370">
        <ele>19.2</ele>
        <time>2019-08-16T11:50:14Z</time>
      </trkpt>
      <trkpt lat="41.9009360" lon="-8.8089880">
        <ele>18.8</ele>
        <time>2019-08-16T11:50:16Z</time>
      </trkpt>
      <trkpt lat="41.9009520" lon="-8.8089090">
        <ele>18.4</ele>
        <time>2019-08-16T11:50:17Z</time>
      </trkpt>
      <trkpt lat="41.9009740" lon="-8.8088330">
        <ele>18.0</ele>
        <time>2019-08-16T11:50:18Z</time>
      </trkpt>
      <trkpt lat="41.9009990" lon="-8.8087590">
        <ele>17.6</ele>
        <time>2019-08-16T11:50:19Z</time>
      </trkpt>
      <trkpt lat="41.9010210" lon="-8.8086790">
        <ele>17.2</ele>
        <time>2019-08-16T11:50:20Z</time>
      </trkpt>
      <trkpt lat="41.9010670" lon="-8.8085190">
        <ele>17.2</ele>
        <time>2019-08-16T11:50:22Z</time>
      </trkpt>
      <trkpt lat="41.9011560" lon="-8.8082070">
        <ele>16.8</ele>
        <time>2019-08-16T11:50:26Z</time>
      </trkpt>
      <trkpt lat="41.9011790" lon="-8.8081320">
        <ele>16.4</ele>
        <time>2019-08-16T11:50:27Z</time>
      </trkpt>
      <trkpt lat="41.9012010" lon="-8.8080590">
        <ele>16.0</ele>
        <time>2019-08-16T11:50:28Z</time>
      </trkpt>
      <trkpt lat="41.9012250" lon="-8.8079890">
        <ele>15.6</ele>
        <time>2019-08-16T11:50:29Z</time>
      </trkpt>
      <trkpt lat="41.9012480" lon="-8.8079210">
        <ele>15.2</ele>
        <time>2019-08-16T11:50:30Z</time>
      </trkpt>
      <trkpt lat="41.9012860" lon="-8.8077920">
        <ele>15.2</ele>
        <time>2019-08-16T11:50:32Z</time>
      </trkpt>
      <trkpt lat="41.9014170" lon="-8.8073650">
        <ele>15.2</ele>
        <time>2019-08-16T11:50:39Z</time>
      </trkpt>
      <trkpt lat="41.9014770" lon="-8.8071580">
        <ele>15.6</ele>
        <time>2019-08-16T11:50:43Z</time>
      </trkpt>
      <trkpt lat="41.9014880" lon="-8.8071100">
        <ele>16.0</ele>
        <time>2019-08-16T11:50:44Z</time>
      </trkpt>
      <trkpt lat="41.9014930" lon="-8.8070630">
        <ele>16.4</ele>
        <time>2019-08-16T11:50:45Z</time>
      </trkpt>
      <trkpt lat="41.9014910" lon="-8.8070180">
        <ele>16.8</ele>
        <time>2019-08-16T11:50:46Z</time>
      </trkpt>
      <trkpt lat="41.9014880" lon="-8.8069720">
        <ele>17.2</ele>
        <time>2019-08-16T11:50:47Z</time>
      </trkpt>
      <trkpt lat="41.9014920" lon="-8.8068880">
        <ele>17.6</ele>
        <time>2019-08-16T11:50:49Z</time>
      </trkpt>
      <trkpt lat="41.9014920" lon="-8.8068480">
        <ele>18.0</ele>
        <time>2019-08-16T11:50:50Z</time>
      </trkpt>
      <trkpt lat="41.9014820" lon="-8.8068100">
        <ele>18.4</ele>
        <time>2019-08-16T11:50:51Z</time>
      </trkpt>
      <trkpt lat="41.9014710" lon="-8.8067820">
        <ele>18.8</ele>
        <time>2019-08-16T11:50:52Z</time>
      </trkpt>
      <trkpt lat="41.9014500" lon="-8.8067610">
        <ele>19.2</ele>
        <time>2019-08-16T11:50:53Z</time>
      </trkpt>
      <trkpt lat="41.9013850" lon="-8.8067120">
        <ele>19.2</ele>
        <time>2019-08-16T11:50:56Z</time>
      </trkpt>
      <trkpt lat="41.9013660" lon="-8.8066980">
        <ele>19.6</ele>
        <time>2019-08-16T11:50:57Z</time>
      </trkpt>
      <trkpt lat="41.9013550" lon="-8.8066860">
        <ele>20.2</ele>
        <time>2019-08-16T11:50:58Z</time>
      </trkpt>
      <trkpt lat="41.9013530" lon="-8.8066760">
        <ele>20.6</ele>
        <time>2019-08-16T11:50:59Z</time>
      </trkpt>
      <trkpt lat="41.9013470" lon="-8.8066670">
        <ele>21.0</ele>
        <time>2019-08-16T11:51:00Z</time>
      </trkpt>
      <trkpt lat="41.9013450" lon="-8.8066580">
        <ele>21.4</ele>
        <time>2019-08-16T11:51:01Z</time>
      </trkpt>
      <trkpt lat="41.9013430" lon="-8.8066460">
        <ele>21.4</ele>
        <time>2019-08-16T11:51:02Z</time>
      </trkpt>
      <trkpt lat="41.9013060" lon="-8.8064950">
        <ele>21.4</ele>
        <time>2019-08-16T11:51:07Z</time>
      </trkpt>
      <trkpt lat="41.9013760" lon="-8.8062940">
        <ele>21.4</ele>
        <time>2019-08-16T11:51:11Z</time>
      </trkpt>
      <trkpt lat="41.9014200" lon="-8.8062470">
        <ele>21.4</ele>
        <time>2019-08-16T11:51:12Z</time>
      </trkpt>
      <trkpt lat="41.9015460" lon="-8.8058300">
        <ele>21.4</ele>
        <time>2019-08-16T11:51:19Z</time>
      </trkpt>
      <trkpt lat="41.9016530" lon="-8.8054780">
        <ele>21.0</ele>
        <time>2019-08-16T11:51:24Z</time>
      </trkpt>
      <trkpt lat="41.9016790" lon="-8.8054030">
        <ele>20.6</ele>
        <time>2019-08-16T11:51:25Z</time>
      </trkpt>
      <trkpt lat="41.9017020" lon="-8.8053290">
        <ele>20.2</ele>
        <time>2019-08-16T11:51:26Z</time>
      </trkpt>
      <trkpt lat="41.9017260" lon="-8.8052520">
        <ele>19.6</ele>
        <time>2019-08-16T11:51:27Z</time>
      </trkpt>
      <trkpt lat="41.9017500" lon="-8.8051750">
        <ele>19.2</ele>
        <time>2019-08-16T11:51:28Z</time>
      </trkpt>
      <trkpt lat="41.9018310" lon="-8.8049180">
        <ele>18.8</ele>
        <time>2019-08-16T11:51:31Z</time>
      </trkpt>
      <trkpt lat="41.9018620" lon="-8.8048290">
        <ele>18.4</ele>
        <time>2019-08-16T11:51:32Z</time>
      </trkpt>
      <trkpt lat="41.9018900" lon="-8.8047340">
        <ele>18.0</ele>
        <time>2019-08-16T11:51:33Z</time>
      </trkpt>
      <trkpt lat="41.9019180" lon="-8.8046360">
        <ele>17.6</ele>
        <time>2019-08-16T11:51:34Z</time>
      </trkpt>
      <trkpt lat="41.9019470" lon="-8.8045390">
        <ele>17.2</ele>
        <time>2019-08-16T11:51:35Z</time>
      </trkpt>
      <trkpt lat="41.9019790" lon="-8.8044370">
        <ele>17.2</ele>
        <time>2019-08-16T11:51:36Z</time>
      </trkpt>
      <trkpt lat="41.9021370" lon="-8.8039230">
        <ele>17.2</ele>
        <time>2019-08-16T11:51:41Z</time>
      </trkpt>
      <trkpt lat="41.9021630" lon="-8.8038260">
        <ele>16.8</ele>
        <time>2019-08-16T11:51:42Z</time>
      </trkpt>
      <trkpt lat="41.9021820" lon="-8.8037580">
        <ele>16.4</ele>
        <time>2019-08-16T11:51:43Z</time>
      </trkpt>
      <trkpt lat="41.9021930" lon="-8.8037130">
        <ele>16.0</ele>
        <time>2019-08-16T11:51:44Z</time>
      </trkpt>
      <trkpt lat="41.9022040" lon="-8.8036830">
        <ele>15.6</ele>
        <time>2019-08-16T11:51:45Z</time>
      </trkpt>
      <trkpt lat="41.9022040" lon="-8.8036700">
        <ele>15.2</ele>
        <time>2019-08-16T11:51:46Z</time>
      </trkpt>
      <trkpt lat="41.9022020" lon="-8.8036700">
        <ele>15.2</ele>
        <time>2019-08-16T11:51:47Z</time>
      </trkpt>
      <trkpt lat="41.9021990" lon="-8.8037230">
        <ele>15.2</ele>
        <time>2019-08-16T11:51:58Z</time>
      </trkpt>
      <trkpt lat="41.9021770" lon="-8.8037760">
        <ele>15.2</ele>
        <time>2019-08-16T11:52:00Z</time>
      </trkpt>
      <trkpt lat="41.9020880" lon="-8.8037620">
        <ele>15.2</ele>
        <time>2019-08-16T11:52:04Z</time>
      </trkpt>
      <trkpt lat="41.9020820" lon="-8.8037330">
        <ele>15.2</ele>
        <time>2019-08-16T11:52:05Z</time>
      </trkpt>
      <trkpt lat="41.9021010" lon="-8.8035290">
        <ele>15.2</ele>
        <time>2019-08-16T11:52:10Z</time>
      </trkpt>
      <trkpt lat="41.9020490" lon="-8.8031930">
        <ele>15.2</ele>
        <time>2019-08-16T11:52:16Z</time>
      </trkpt>
      <trkpt lat="41.9020040" lon="-8.8030120">
        <ele>15.2</ele>
        <time>2019-08-16T11:52:19Z</time>
      </trkpt>
      <trkpt lat="41.9019330" lon="-8.8027700">
        <ele>15.2</ele>
        <time>2019-08-16T11:52:23Z</time>
      </trkpt>
      <trkpt lat="41.9018510" lon="-8.8023530">
        <ele>15.2</ele>
        <time>2019-08-16T11:52:30Z</time>
      </trkpt>
      <trkpt lat="41.9018570" lon="-8.8022910">
        <ele>15.2</ele>
        <time>2019-08-16T11:52:31Z</time>
      </trkpt>
      <trkpt lat="41.9019150" lon="-8.8018660">
        <ele>15.2</ele>
        <time>2019-08-16T11:52:38Z</time>
      </trkpt>
      <trkpt lat="41.9019740" lon="-8.8017230">
        <ele>15.6</ele>
        <time>2019-08-16T11:52:41Z</time>
      </trkpt>
      <trkpt lat="41.9020000" lon="-8.8016920">
        <ele>16.0</ele>
        <time>2019-08-16T11:52:42Z</time>
      </trkpt>
      <trkpt lat="41.9020170" lon="-8.8016540">
        <ele>16.4</ele>
        <time>2019-08-16T11:52:43Z</time>
      </trkpt>
      <trkpt lat="41.9020330" lon="-8.8016190">
        <ele>16.8</ele>
        <time>2019-08-16T11:52:44Z</time>
      </trkpt>
      <trkpt lat="41.9020470" lon="-8.8015830">
        <ele>17.2</ele>
        <time>2019-08-16T11:52:45Z</time>
      </trkpt>
      <trkpt lat="41.9020710" lon="-8.8015160">
        <ele>17.8</ele>
        <time>2019-08-16T11:52:47Z</time>
      </trkpt>
      <trkpt lat="41.9020930" lon="-8.8014870">
        <ele>18.2</ele>
        <time>2019-08-16T11:52:48Z</time>
      </trkpt>
      <trkpt lat="41.9021140" lon="-8.8014450">
        <ele>18.6</ele>
        <time>2019-08-16T11:52:49Z</time>
      </trkpt>
      <trkpt lat="41.9021270" lon="-8.8014070">
        <ele>19.0</ele>
        <time>2019-08-16T11:52:50Z</time>
      </trkpt>
      <trkpt lat="41.9021390" lon="-8.8013650">
        <ele>19.4</ele>
        <time>2019-08-16T11:52:51Z</time>
      </trkpt>
      <trkpt lat="41.9022230" lon="-8.8011600">
        <ele>19.4</ele>
        <time>2019-08-16T11:52:56Z</time>
      </trkpt>
      <trkpt lat="41.9023960" lon="-8.8008970">
        <ele>19.4</ele>
        <time>2019-08-16T11:53:03Z</time>
      </trkpt>
      <trkpt lat="41.9026900" lon="-8.8005830">
        <ele>19.4</ele>
        <time>2019-08-16T11:53:11Z</time>
      </trkpt>
      <trkpt lat="41.9029900" lon="-8.8002640">
        <ele>19.4</ele>
        <time>2019-08-16T11:53:19Z</time>
      </trkpt>
      <trkpt lat="41.9030970" lon="-8.8001260">
        <ele>19.4</ele>
        <time>2019-08-16T11:53:22Z</time>
      </trkpt>
      <trkpt lat="41.9032140" lon="-8.7999800">
        <ele>19.4</ele>
        <time>2019-08-16T11:53:25Z</time>
      </trkpt>
      <trkpt lat="41.9032830" lon="-8.7998770">
        <ele>19.4</ele>
        <time>2019-08-16T11:53:27Z</time>
      </trkpt>
      <trkpt lat="41.9034200" lon="-8.7996480">
        <ele>19.4</ele>
        <time>2019-08-16T11:53:31Z</time>
      </trkpt>
      <trkpt lat="41.9034580" lon="-8.7995990">
        <ele>19.4</ele>
        <time>2019-08-16T11:53:32Z</time>
      </trkpt>
      <trkpt lat="41.9037400" lon="-8.7991040">
        <ele>19.4</ele>
        <time>2019-08-16T11:53:41Z</time>
      </trkpt>
      <trkpt lat="41.9038870" lon="-8.7987060">
        <ele>19.4</ele>
        <time>2019-08-16T11:53:49Z</time>
      </trkpt>
      <trkpt lat="41.9039020" lon="-8.7984380">
        <ele>19.4</ele>
        <time>2019-08-16T11:53:56Z</time>
      </trkpt>
      <trkpt lat="41.9039480" lon="-8.7982160">
        <ele>19.4</ele>
        <time>2019-08-16T11:53:59Z</time>
      </trkpt>
      <trkpt lat="41.9040040" lon="-8.7980190">
        <ele>19.4</ele>
        <time>2019-08-16T11:54:01Z</time>
      </trkpt>
      <trkpt lat="41.9040530" lon="-8.7979280">
        <ele>18.8</ele>
        <time>2019-08-16T11:54:02Z</time>
      </trkpt>
      <trkpt lat="41.9041140" lon="-8.7978530">
        <ele>18.4</ele>
        <time>2019-08-16T11:54:03Z</time>
      </trkpt>
      <trkpt lat="41.9041710" lon="-8.7977820">
        <ele>17.8</ele>
        <time>2019-08-16T11:54:04Z</time>
      </trkpt>
      <trkpt lat="41.9042260" lon="-8.7977130">
        <ele>17.2</ele>
        <time>2019-08-16T11:54:05Z</time>
      </trkpt>
      <trkpt lat="41.9042760" lon="-8.7976540">
        <ele>16.6</ele>
        <time>2019-08-16T11:54:06Z</time>
      </trkpt>
      <trkpt lat="41.9043370" lon="-8.7976090">
        <ele>16.6</ele>
        <time>2019-08-16T11:54:07Z</time>
      </trkpt>
      <trkpt lat="41.9043950" lon="-8.7975680">
        <ele>16.6</ele>
        <time>2019-08-16T11:54:08Z</time>
      </trkpt>
      <trkpt lat="41.9047080" lon="-8.7973630">
        <ele>16.6</ele>
        <time>2019-08-16T11:54:14Z</time>
      </trkpt>
      <trkpt lat="41.9050590" lon="-8.7972570">
        <ele>16.6</ele>
        <time>2019-08-16T11:54:21Z</time>
      </trkpt>
      <trkpt lat="41.9053470" lon="-8.7971480">
        <ele>16.6</ele>
        <time>2019-08-16T11:54:27Z</time>
      </trkpt>
      <trkpt lat="41.9054260" lon="-8.7970970">
        <ele>16.6</ele>
        <time>2019-08-16T11:54:29Z</time>
      </trkpt>
      <trkpt lat="41.9055410" lon="-8.7969960">
        <ele>16.6</ele>
        <time>2019-08-16T11:54:32Z</time>
      </trkpt>
      <trkpt lat="41.9056270" lon="-8.7968660">
        <ele>16.6</ele>
        <time>2019-08-16T11:54:35Z</time>
      </trkpt>
      <trkpt lat="41.9058170" lon="-8.7966050">
        <ele>17.2</ele>
        <time>2019-08-16T11:54:42Z</time>
      </trkpt>
      <trkpt lat="41.9058440" lon="-8.7965740">
        <ele>17.6</ele>
        <time>2019-08-16T11:54:43Z</time>
      </trkpt>
      <trkpt lat="41.9058720" lon="-8.7965400">
        <ele>18.2</ele>
        <time>2019-08-16T11:54:44Z</time>
      </trkpt>
      <trkpt lat="41.9059010" lon="-8.7965050">
        <ele>18.6</ele>
        <time>2019-08-16T11:54:45Z</time>
      </trkpt>
      <trkpt lat="41.9059240" lon="-8.7964730">
        <ele>19.2</ele>
        <time>2019-08-16T11:54:46Z</time>
      </trkpt>
      <trkpt lat="41.9060500" lon="-8.7963190">
        <ele>19.6</ele>
        <time>2019-08-16T11:54:51Z</time>
      </trkpt>
      <trkpt lat="41.9060760" lon="-8.7962880">
        <ele>20.0</ele>
        <time>2019-08-16T11:54:52Z</time>
      </trkpt>
      <trkpt lat="41.9061030" lon="-8.7962590">
        <ele>20.6</ele>
        <time>2019-08-16T11:54:53Z</time>
      </trkpt>
      <trkpt lat="41.9061340" lon="-8.7962310">
        <ele>21.0</ele>
        <time>2019-08-16T11:54:54Z</time>
      </trkpt>
      <trkpt lat="41.9061600" lon="-8.7962060">
        <ele>21.6</ele>
        <time>2019-08-16T11:54:55Z</time>
      </trkpt>
      <trkpt lat="41.9063270" lon="-8.7960510">
        <ele>21.6</ele>
        <time>2019-08-16T11:55:02Z</time>
      </trkpt>
      <trkpt lat="41.9065250" lon="-8.7958480">
        <ele>21.6</ele>
        <time>2019-08-16T11:55:09Z</time>
      </trkpt>
      <trkpt lat="41.9067200" lon="-8.7955830">
        <ele>21.6</ele>
        <time>2019-08-16T11:55:15Z</time>
      </trkpt>
      <trkpt lat="41.9067600" lon="-8.7955550">
        <ele>21.2</ele>
        <time>2019-08-16T11:55:16Z</time>
      </trkpt>
      <trkpt lat="41.9068010" lon="-8.7955350">
        <ele>20.6</ele>
        <time>2019-08-16T11:55:17Z</time>
      </trkpt>
      <trkpt lat="41.9068480" lon="-8.7955180">
        <ele>20.2</ele>
        <time>2019-08-16T11:55:18Z</time>
      </trkpt>
      <trkpt lat="41.9069040" lon="-8.7955050">
        <ele>19.8</ele>
        <time>2019-08-16T11:55:19Z</time>
      </trkpt>
      <trkpt lat="41.9069550" lon="-8.7954900">
        <ele>19.4</ele>
        <time>2019-08-16T11:55:20Z</time>
      </trkpt>
      <trkpt lat="41.9069940" lon="-8.7954680">
        <ele>19.4</ele>
        <time>2019-08-16T11:55:21Z</time>
      </trkpt>
      <trkpt lat="41.9070540" lon="-8.7953880">
        <ele>19.4</ele>
        <time>2019-08-16T11:55:24Z</time>
      </trkpt>
      <trkpt lat="41.9070590" lon="-8.7952840">
        <ele>19.4</ele>
        <time>2019-08-16T11:55:26Z</time>
      </trkpt>
      <trkpt lat="41.9070630" lon="-8.7952350">
        <ele>19.4</ele>
        <time>2019-08-16T11:55:27Z</time>
      </trkpt>
      <trkpt lat="41.9070800" lon="-8.7949190">
        <ele>19.4</ele>
        <time>2019-08-16T11:55:34Z</time>
      </trkpt>
      <trkpt lat="41.9071150" lon="-8.7945520">
        <ele>19.4</ele>
        <time>2019-08-16T11:55:42Z</time>
      </trkpt>
      <trkpt lat="41.9071860" lon="-8.7941830">
        <ele>19.4</ele>
        <time>2019-08-16T11:55:50Z</time>
      </trkpt>
      <trkpt lat="41.9073280" lon="-8.7939760">
        <ele>19.4</ele>
        <time>2019-08-16T11:55:56Z</time>
      </trkpt>
      <trkpt lat="41.9073850" lon="-8.7937320">
        <ele>19.4</ele>
        <time>2019-08-16T11:56:02Z</time>
      </trkpt>
      <trkpt lat="41.9074560" lon="-8.7933960">
        <ele>19.4</ele>
        <time>2019-08-16T11:56:09Z</time>
      </trkpt>
      <trkpt lat="41.9074700" lon="-8.7932290">
        <ele>19.4</ele>
        <time>2019-08-16T11:56:12Z</time>
      </trkpt>
      <trkpt lat="41.9074380" lon="-8.7931320">
        <ele>19.4</ele>
        <time>2019-08-16T11:56:14Z</time>
      </trkpt>
      <trkpt lat="41.9074440" lon="-8.7928050">
        <ele>19.4</ele>
        <time>2019-08-16T11:56:21Z</time>
      </trkpt>
      <trkpt lat="41.9075380" lon="-8.7926550">
        <ele>19.8</ele>
        <time>2019-08-16T11:56:24Z</time>
      </trkpt>
      <trkpt lat="41.9075650" lon="-8.7926110">
        <ele>20.4</ele>
        <time>2019-08-16T11:56:25Z</time>
      </trkpt>
      <trkpt lat="41.9075910" lon="-8.7925670">
        <ele>20.8</ele>
        <time>2019-08-16T11:56:26Z</time>
      </trkpt>
      <trkpt lat="41.9076100" lon="-8.7925260">
        <ele>21.2</ele>
        <time>2019-08-16T11:56:27Z</time>
      </trkpt>
      <trkpt lat="41.9076330" lon="-8.7924830">
        <ele>21.6</ele>
        <time>2019-08-16T11:56:28Z</time>
      </trkpt>
      <trkpt lat="41.9076720" lon="-8.7924530">
        <ele>21.6</ele>
        <time>2019-08-16T11:56:29Z</time>
      </trkpt>
      <trkpt lat="41.9076920" lon="-8.7924150">
        <ele>22.0</ele>
        <time>2019-08-16T11:56:30Z</time>
      </trkpt>
      <trkpt lat="41.9077110" lon="-8.7923760">
        <ele>22.4</ele>
        <time>2019-08-16T11:56:31Z</time>
      </trkpt>
      <trkpt lat="41.9077340" lon="-8.7923360">
        <ele>22.8</ele>
        <time>2019-08-16T11:56:32Z</time>
      </trkpt>
      <trkpt lat="41.9077610" lon="-8.7922970">
        <ele>23.2</ele>
        <time>2019-08-16T11:56:33Z</time>
      </trkpt>
      <trkpt lat="41.9077760" lon="-8.7922560">
        <ele>23.6</ele>
        <time>2019-08-16T11:56:34Z</time>
      </trkpt>
      <trkpt lat="41.9078400" lon="-8.7921480">
        <ele>24.0</ele>
        <time>2019-08-16T11:56:37Z</time>
      </trkpt>
      <trkpt lat="41.9078650" lon="-8.7921070">
        <ele>24.4</ele>
        <time>2019-08-16T11:56:38Z</time>
      </trkpt>
      <trkpt lat="41.9078920" lon="-8.7920690">
        <ele>24.8</ele>
        <time>2019-08-16T11:56:39Z</time>
      </trkpt>
      <trkpt lat="41.9079160" lon="-8.7920330">
        <ele>25.2</ele>
        <time>2019-08-16T11:56:40Z</time>
      </trkpt>
      <trkpt lat="41.9079400" lon="-8.7919960">
        <ele>25.6</ele>
        <time>2019-08-16T11:56:41Z</time>
      </trkpt>
      <trkpt lat="41.9080930" lon="-8.7918110">
        <ele>25.6</ele>
        <time>2019-08-16T11:56:47Z</time>
      </trkpt>
      <trkpt lat="41.9081400" lon="-8.7917550">
        <ele>26.0</ele>
        <time>2019-08-16T11:56:49Z</time>
      </trkpt>
      <trkpt lat="41.9081490" lon="-8.7917260">
        <ele>26.6</ele>
        <time>2019-08-16T11:56:50Z</time>
      </trkpt>
      <trkpt lat="41.9081660" lon="-8.7916950">
        <ele>27.0</ele>
        <time>2019-08-16T11:56:51Z</time>
      </trkpt>
      <trkpt lat="41.9081810" lon="-8.7916610">
        <ele>27.4</ele>
        <time>2019-08-16T11:56:52Z</time>
      </trkpt>
      <trkpt lat="41.9082030" lon="-8.7916320">
        <ele>27.8</ele>
        <time>2019-08-16T11:56:53Z</time>
      </trkpt>
      <trkpt lat="41.9082480" lon="-8.7914850">
        <ele>27.8</ele>
        <time>2019-08-16T11:56:58Z</time>
      </trkpt>
      <trkpt lat="41.9081560" lon="-8.7913610">
        <ele>27.8</ele>
        <time>2019-08-16T11:57:03Z</time>
      </trkpt>
      <trkpt lat="41.9080590" lon="-8.7912110">
        <ele>28.2</ele>
        <time>2019-08-16T11:57:08Z</time>
      </trkpt>
      <trkpt lat="41.9080400" lon="-8.7911840">
        <ele>28.8</ele>
        <time>2019-08-16T11:57:09Z</time>
      </trkpt>
      <trkpt lat="41.9080220" lon="-8.7911610">
        <ele>29.2</ele>
        <time>2019-08-16T11:57:10Z</time>
      </trkpt>
      <trkpt lat="41.9080020" lon="-8.7911320">
        <ele>29.6</ele>
        <time>2019-08-16T11:57:11Z</time>
      </trkpt>
      <trkpt lat="41.9079840" lon="-8.7911000">
        <ele>30.2</ele>
        <time>2019-08-16T11:57:12Z</time>
      </trkpt>
      <trkpt lat="41.9078780" lon="-8.7909320">
        <ele>30.2</ele>
        <time>2019-08-16T11:57:18Z</time>
      </trkpt>
      <trkpt lat="41.9078310" lon="-8.7907870">
        <ele>30.6</ele>
        <time>2019-08-16T11:57:22Z</time>
      </trkpt>
      <trkpt lat="41.9078220" lon="-8.7907460">
        <ele>31.0</ele>
        <time>2019-08-16T11:57:23Z</time>
      </trkpt>
      <trkpt lat="41.9078150" lon="-8.7907070">
        <ele>31.4</ele>
        <time>2019-08-16T11:57:24Z</time>
      </trkpt>
      <trkpt lat="41.9078060" lon="-8.7906670">
        <ele>31.8</ele>
        <time>2019-08-16T11:57:25Z</time>
      </trkpt>
      <trkpt lat="41.9077990" lon="-8.7906200">
        <ele>32.2</ele>
        <time>2019-08-16T11:57:26Z</time>
      </trkpt>
      <trkpt lat="41.9077840" lon="-8.7905750">
        <ele>32.2</ele>
        <time>2019-08-16T11:57:27Z</time>
      </trkpt>
      <trkpt lat="41.9076850" lon="-8.7902930">
        <ele>32.2</ele>
        <time>2019-08-16T11:57:34Z</time>
      </trkpt>
      <trkpt lat="41.9076470" lon="-8.7901800">
        <ele>32.6</ele>
        <time>2019-08-16T11:57:37Z</time>
      </trkpt>
      <trkpt lat="41.9076330" lon="-8.7901460">
        <ele>33.2</ele>
        <time>2019-08-16T11:57:38Z</time>
      </trkpt>
      <trkpt lat="41.9076200" lon="-8.7901110">
        <ele>33.6</ele>
        <time>2019-08-16T11:57:39Z</time>
      </trkpt>
      <trkpt lat="41.9076100" lon="-8.7900830">
        <ele>34.0</ele>
        <time>2019-08-16T11:57:40Z</time>
      </trkpt>
      <trkpt lat="41.9075920" lon="-8.7900500">
        <ele>34.4</ele>
        <time>2019-08-16T11:57:41Z</time>
      </trkpt>
      <trkpt lat="41.9075110" lon="-8.7899030">
        <ele>34.4</ele>
        <time>2019-08-16T11:57:46Z</time>
      </trkpt>
      <trkpt lat="41.9074780" lon="-8.7898020">
        <ele>34.8</ele>
        <time>2019-08-16T11:57:49Z</time>
      </trkpt>
      <trkpt lat="41.9074700" lon="-8.7897700">
        <ele>35.2</ele>
        <time>2019-08-16T11:57:50Z</time>
      </trkpt>
      <trkpt lat="41.9074580" lon="-8.7897400">
        <ele>35.8</ele>
        <time>2019-08-16T11:57:51Z</time>
      </trkpt>
      <trkpt lat="41.9074460" lon="-8.7897130">
        <ele>36.2</ele>
        <time>2019-08-16T11:57:52Z</time>
      </trkpt>
      <trkpt lat="41.9074300" lon="-8.7896850">
        <ele>36.6</ele>
        <time>2019-08-16T11:57:53Z</time>
      </trkpt>
      <trkpt lat="41.9072860" lon="-8.7894730">
        <ele>37.0</ele>
        <time>2019-08-16T11:58:01Z</time>
      </trkpt>
      <trkpt lat="41.9072710" lon="-8.7894490">
        <ele>37.4</ele>
        <time>2019-08-16T11:58:02Z</time>
      </trkpt>
      <trkpt lat="41.9072550" lon="-8.7894280">
        <ele>37.8</ele>
        <time>2019-08-16T11:58:03Z</time>
      </trkpt>
      <trkpt lat="41.9072410" lon="-8.7894090">
        <ele>38.2</ele>
        <time>2019-08-16T11:58:04Z</time>
      </trkpt>
      <trkpt lat="41.9072310" lon="-8.7893960">
        <ele>38.6</ele>
        <time>2019-08-16T11:58:05Z</time>
      </trkpt>
      <trkpt lat="41.9071700" lon="-8.7893530">
        <ele>38.6</ele>
        <time>2019-08-16T11:58:08Z</time>
      </trkpt>
      <trkpt lat="41.9071480" lon="-8.7893140">
        <ele>39.2</ele>
        <time>2019-08-16T11:58:10Z</time>
      </trkpt>
      <trkpt lat="41.9071410" lon="-8.7892970">
        <ele>39.6</ele>
        <time>2019-08-16T11:58:11Z</time>
      </trkpt>
      <trkpt lat="41.9071340" lon="-8.7892620">
        <ele>40.0</ele>
        <time>2019-08-16T11:58:12Z</time>
      </trkpt>
      <trkpt lat="41.9071400" lon="-8.7892280">
        <ele>40.4</ele>
        <time>2019-08-16T11:58:13Z</time>
      </trkpt>
      <trkpt lat="41.9071570" lon="-8.7891960">
        <ele>40.8</ele>
        <time>2019-08-16T11:58:14Z</time>
      </trkpt>
      <trkpt lat="41.9072650" lon="-8.7890600">
        <ele>40.8</ele>
        <time>2019-08-16T11:58:19Z</time>
      </trkpt>
      <trkpt lat="41.9072920" lon="-8.7890390">
        <ele>41.4</ele>
        <time>2019-08-16T11:58:20Z</time>
      </trkpt>
      <trkpt lat="41.9073280" lon="-8.7890230">
        <ele>41.8</ele>
        <time>2019-08-16T11:58:21Z</time>
      </trkpt>
      <trkpt lat="41.9073490" lon="-8.7889990">
        <ele>42.2</ele>
        <time>2019-08-16T11:58:22Z</time>
      </trkpt>
      <trkpt lat="41.9073660" lon="-8.7889770">
        <ele>42.6</ele>
        <time>2019-08-16T11:58:23Z</time>
      </trkpt>
      <trkpt lat="41.9073800" lon="-8.7889520">
        <ele>43.2</ele>
        <time>2019-08-16T11:58:24Z</time>
      </trkpt>
      <trkpt lat="41.9074300" lon="-8.7888710">
        <ele>43.6</ele>
        <time>2019-08-16T11:58:27Z</time>
      </trkpt>
      <trkpt lat="41.9074420" lon="-8.7888400">
        <ele>44.0</ele>
        <time>2019-08-16T11:58:28Z</time>
      </trkpt>
      <trkpt lat="41.9074550" lon="-8.7888140">
        <ele>44.4</ele>
        <time>2019-08-16T11:58:29Z</time>
      </trkpt>
      <trkpt lat="41.9074660" lon="-8.7887860">
        <ele>44.8</ele>
        <time>2019-08-16T11:58:30Z</time>
      </trkpt>
      <trkpt lat="41.9074830" lon="-8.7887600">
        <ele>45.2</ele>
        <time>2019-08-16T11:58:31Z</time>
      </trkpt>
      <trkpt lat="41.9075300" lon="-8.7885630">
        <ele>45.6</ele>
        <time>2019-08-16T11:58:38Z</time>
      </trkpt>
      <trkpt lat="41.9075390" lon="-8.7885360">
        <ele>46.0</ele>
        <time>2019-08-16T11:58:39Z</time>
      </trkpt>
      <trkpt lat="41.9075420" lon="-8.7885090">
        <ele>46.6</ele>
        <time>2019-08-16T11:58:40Z</time>
      </trkpt>
      <trkpt lat="41.9075490" lon="-8.7884770">
        <ele>47.0</ele>
        <time>2019-08-16T11:58:41Z</time>
      </trkpt>
      <trkpt lat="41.9075600" lon="-8.7884500">
        <ele>47.4</ele>
        <time>2019-08-16T11:58:42Z</time>
      </trkpt>
      <trkpt lat="41.9075890" lon="-8.7883750">
        <ele>47.4</ele>
        <time>2019-08-16T11:58:45Z</time>
      </trkpt>
      <trkpt lat="41.9076630" lon="-8.7881530">
        <ele>47.4</ele>
        <time>2019-08-16T11:58:52Z</time>
      </trkpt>
      <trkpt lat="41.9077440" lon="-8.7880840">
        <ele>47.4</ele>
        <time>2019-08-16T11:58:56Z</time>
      </trkpt>
      <trkpt lat="41.9077940" lon="-8.7880610">
        <ele>47.4</ele>
        <time>2019-08-16T11:58:58Z</time>
      </trkpt>
      <trkpt lat="41.9079420" lon="-8.7879500">
        <ele>47.4</ele>
        <time>2019-08-16T11:59:03Z</time>
      </trkpt>
      <trkpt lat="41.9081460" lon="-8.7876770">
        <ele>47.4</ele>
        <time>2019-08-16T11:59:10Z</time>
      </trkpt>
      <trkpt lat="41.9082750" lon="-8.7876030">
        <ele>47.4</ele>
        <time>2019-08-16T11:59:14Z</time>
      </trkpt>
      <trkpt lat="41.9085120" lon="-8.7875170">
        <ele>47.4</ele>
        <time>2019-08-16T11:59:22Z</time>
      </trkpt>
      <trkpt lat="41.9086020" lon="-8.7873960">
        <ele>47.4</ele>
        <time>2019-08-16T11:59:26Z</time>
      </trkpt>
      <trkpt lat="41.9086140" lon="-8.7872100">
        <ele>47.4</ele>
        <time>2019-08-16T11:59:32Z</time>
      </trkpt>
      <trkpt lat="41.9086580" lon="-8.7869740">
        <ele>47.4</ele>
        <time>2019-08-16T11:59:39Z</time>
      </trkpt>
      <trkpt lat="41.9086520" lon="-8.7869130">
        <ele>47.8</ele>
        <time>2019-08-16T11:59:41Z</time>
      </trkpt>
      <trkpt lat="41.9086540" lon="-8.7868870">
        <ele>48.2</ele>
        <time>2019-08-16T11:59:42Z</time>
      </trkpt>
      <trkpt lat="41.9086520" lon="-8.7868600">
        <ele>48.6</ele>
        <time>2019-08-16T11:59:43Z</time>
      </trkpt>
      <trkpt lat="41.9086460" lon="-8.7868370">
        <ele>49.0</ele>
        <time>2019-08-16T11:59:44Z</time>
      </trkpt>
      <trkpt lat="41.9086410" lon="-8.7868210">
        <ele>49.4</ele>
        <time>2019-08-16T11:59:45Z</time>
      </trkpt>
      <trkpt lat="41.9086410" lon="-8.7868280">
        <ele>49.4</ele>
        <time>2019-08-16T11:59:46Z</time>
      </trkpt>
      <trkpt lat="41.9086520" lon="-8.7868250">
        <ele>49.4</ele>
        <time>2019-08-16T12:01:09Z</time>
      </trkpt>
      <trkpt lat="41.9086800" lon="-8.7867890">
        <ele>49.4</ele>
        <time>2019-08-16T12:01:11Z</time>
      </trkpt>
      <trkpt lat="41.9087710" lon="-8.7867260">
        <ele>49.4</ele>
        <time>2019-08-16T12:01:13Z</time>
      </trkpt>
      <trkpt lat="41.9089130" lon="-8.7866860">
        <ele>49.4</ele>
        <time>2019-08-16T12:01:16Z</time>
      </trkpt>
      <trkpt lat="41.9089590" lon="-8.7866570">
        <ele>49.4</ele>
        <time>2019-08-16T12:01:17Z</time>
      </trkpt>
      <trkpt lat="41.9090170" lon="-8.7865540">
        <ele>49.0</ele>
        <time>2019-08-16T12:01:19Z</time>
      </trkpt>
      <trkpt lat="41.9090270" lon="-8.7864890">
        <ele>48.4</ele>
        <time>2019-08-16T12:01:20Z</time>
      </trkpt>
      <trkpt lat="41.9090440" lon="-8.7864310">
        <ele>48.0</ele>
        <time>2019-08-16T12:01:21Z</time>
      </trkpt>
      <trkpt lat="41.9090640" lon="-8.7863750">
        <ele>47.4</ele>
        <time>2019-08-16T12:01:22Z</time>
      </trkpt>
      <trkpt lat="41.9090930" lon="-8.7863230">
        <ele>46.6</ele>
        <time>2019-08-16T12:01:23Z</time>
      </trkpt>
      <trkpt lat="41.9091410" lon="-8.7862960">
        <ele>46.0</ele>
        <time>2019-08-16T12:01:24Z</time>
      </trkpt>
      <trkpt lat="41.9092030" lon="-8.7862940">
        <ele>45.2</ele>
        <time>2019-08-16T12:01:25Z</time>
      </trkpt>
      <trkpt lat="41.9092840" lon="-8.7863100">
        <ele>44.4</ele>
        <time>2019-08-16T12:01:26Z</time>
      </trkpt>
      <trkpt lat="41.9093560" lon="-8.7863270">
        <ele>43.6</ele>
        <time>2019-08-16T12:01:27Z</time>
      </trkpt>
      <trkpt lat="41.9094270" lon="-8.7863360">
        <ele>42.8</ele>
        <time>2019-08-16T12:01:28Z</time>
      </trkpt>
      <trkpt lat="41.9094870" lon="-8.7863390">
        <ele>42.0</ele>
        <time>2019-08-16T12:01:29Z</time>
      </trkpt>
      <trkpt lat="41.9095440" lon="-8.7863410">
        <ele>41.2</ele>
        <time>2019-08-16T12:01:30Z</time>
      </trkpt>
      <trkpt lat="41.9095920" lon="-8.7863410">
        <ele>40.4</ele>
        <time>2019-08-16T12:01:31Z</time>
      </trkpt>
      <trkpt lat="41.9096390" lon="-8.7863380">
        <ele>39.6</ele>
        <time>2019-08-16T12:01:32Z</time>
      </trkpt>
      <trkpt lat="41.9096710" lon="-8.7863260">
        <ele>39.6</ele>
        <time>2019-08-16T12:01:33Z</time>
      </trkpt>
      <trkpt lat="41.9097740" lon="-8.7863220">
        <ele>39.6</ele>
        <time>2019-08-16T12:01:35Z</time>
      </trkpt>
      <trkpt lat="41.9098190" lon="-8.7863220">
        <ele>39.2</ele>
        <time>2019-08-16T12:01:36Z</time>
      </trkpt>
      <trkpt lat="41.9098590" lon="-8.7863060">
        <ele>38.8</ele>
        <time>2019-08-16T12:01:37Z</time>
      </trkpt>
      <trkpt lat="41.9098880" lon="-8.7862880">
        <ele>38.2</ele>
        <time>2019-08-16T12:01:38Z</time>
      </trkpt>
      <trkpt lat="41.9099020" lon="-8.7862810">
        <ele>37.8</ele>
        <time>2019-08-16T12:01:39Z</time>
      </trkpt>
      <trkpt lat="41.9099150" lon="-8.7862800">
        <ele>37.4</ele>
        <time>2019-08-16T12:01:40Z</time>
      </trkpt>
      <trkpt lat="41.9099560" lon="-8.7862950">
        <ele>37.4</ele>
        <time>2019-08-16T12:01:43Z</time>
      </trkpt>
      <trkpt lat="41.9099770" lon="-8.7862990">
        <ele>37.8</ele>
        <time>2019-08-16T12:01:45Z</time>
      </trkpt>
      <trkpt lat="41.9099970" lon="-8.7862830">
        <ele>38.2</ele>
        <time>2019-08-16T12:01:46Z</time>
      </trkpt>
      <trkpt lat="41.9100170" lon="-8.7862750">
        <ele>38.6</ele>
        <time>2019-08-16T12:01:47Z</time>
      </trkpt>
      <trkpt lat="41.9100410" lon="-8.7862690">
        <ele>39.0</ele>
        <time>2019-08-16T12:01:48Z</time>
      </trkpt>
      <trkpt lat="41.9100550" lon="-8.7862670">
        <ele>39.4</ele>
        <time>2019-08-16T12:01:49Z</time>
      </trkpt>
      <trkpt lat="41.9100710" lon="-8.7862690">
        <ele>39.4</ele>
        <time>2019-08-16T12:01:50Z</time>
      </trkpt>
      <trkpt lat="41.9100790" lon="-8.7862740">
        <ele>39.4</ele>
        <time>2019-08-16T12:01:51Z</time>
      </trkpt>
      <trkpt lat="41.9100920" lon="-8.7862760">
        <ele>41.6</ele>
        <time>2019-08-16T12:02:37Z</time>
      </trkpt>
      <trkpt lat="41.9100860" lon="-8.7862710">
        <ele>41.6</ele>
        <time>2019-08-16T12:02:38Z</time>
      </trkpt>
      <trkpt lat="41.9102530" lon="-8.7861710">
        <ele>43.8</ele>
        <time>2019-08-16T12:02:53Z</time>
      </trkpt>
      <trkpt lat="41.9104840" lon="-8.7860360">
        <ele>43.8</ele>
        <time>2019-08-16T12:03:00Z</time>
      </trkpt>
      <trkpt lat="41.9106920" lon="-8.7859060">
        <ele>43.8</ele>
        <time>2019-08-16T12:03:08Z</time>
      </trkpt>
      <trkpt lat="41.9109170" lon="-8.7857840">
        <ele>43.8</ele>
        <time>2019-08-16T12:03:17Z</time>
      </trkpt>
      <trkpt lat="41.9111060" lon="-8.7857330">
        <ele>43.8</ele>
        <time>2019-08-16T12:03:24Z</time>
      </trkpt>
      <trkpt lat="41.9113030" lon="-8.7857400">
        <ele>43.8</ele>
        <time>2019-08-16T12:03:31Z</time>
      </trkpt>
      <trkpt lat="41.9114470" lon="-8.7856360">
        <ele>43.8</ele>
        <time>2019-08-16T12:03:36Z</time>
      </trkpt>
      <trkpt lat="41.9116710" lon="-8.7855000">
        <ele>43.4</ele>
        <time>2019-08-16T12:03:41Z</time>
      </trkpt>
      <trkpt lat="41.9117230" lon="-8.7854880">
        <ele>43.0</ele>
        <time>2019-08-16T12:03:42Z</time>
      </trkpt>
      <trkpt lat="41.9117770" lon="-8.7854830">
        <ele>42.6</ele>
        <time>2019-08-16T12:03:43Z</time>
      </trkpt>
      <trkpt lat="41.9118260" lon="-8.7854750">
        <ele>42.2</ele>
        <time>2019-08-16T12:03:44Z</time>
      </trkpt>
      <trkpt lat="41.9118680" lon="-8.7854600">
        <ele>41.6</ele>
        <time>2019-08-16T12:03:45Z</time>
      </trkpt>
      <trkpt lat="41.9118980" lon="-8.7854050">
        <ele>41.2</ele>
        <time>2019-08-16T12:03:46Z</time>
      </trkpt>
      <trkpt lat="41.9119170" lon="-8.7853400">
        <ele>40.6</ele>
        <time>2019-08-16T12:03:47Z</time>
      </trkpt>
      <trkpt lat="41.9119130" lon="-8.7852640">
        <ele>40.0</ele>
        <time>2019-08-16T12:03:48Z</time>
      </trkpt>
      <trkpt lat="41.9119180" lon="-8.7852020">
        <ele>39.6</ele>
        <time>2019-08-16T12:03:49Z</time>
      </trkpt>
      <trkpt lat="41.9119890" lon="-8.7849240">
        <ele>39.6</ele>
        <time>2019-08-16T12:03:55Z</time>
      </trkpt>
      <trkpt lat="41.9119900" lon="-8.7848140">
        <ele>39.6</ele>
        <time>2019-08-16T12:04:00Z</time>
      </trkpt>
      <trkpt lat="41.9120030" lon="-8.7847110">
        <ele>40.0</ele>
        <time>2019-08-16T12:04:05Z</time>
      </trkpt>
      <trkpt lat="41.9120050" lon="-8.7846700">
        <ele>41.0</ele>
        <time>2019-08-16T12:04:07Z</time>
      </trkpt>
      <trkpt lat="41.9120100" lon="-8.7846510">
        <ele>41.4</ele>
        <time>2019-08-16T12:04:08Z</time>
      </trkpt>
      <trkpt lat="41.9120160" lon="-8.7846290">
        <ele>42.0</ele>
        <time>2019-08-16T12:04:09Z</time>
      </trkpt>
      <trkpt lat="41.9120220" lon="-8.7845740">
        <ele>42.4</ele>
        <time>2019-08-16T12:04:12Z</time>
      </trkpt>
      <trkpt lat="41.9120180" lon="-8.7845550">
        <ele>42.8</ele>
        <time>2019-08-16T12:04:13Z</time>
      </trkpt>
      <trkpt lat="41.9120110" lon="-8.7845380">
        <ele>43.2</ele>
        <time>2019-08-16T12:04:14Z</time>
      </trkpt>
      <trkpt lat="41.9120030" lon="-8.7845200">
        <ele>44.0</ele>
        <time>2019-08-16T12:04:15Z</time>
      </trkpt>
      <trkpt lat="41.9119820" lon="-8.7844480">
        <ele>44.0</ele>
        <time>2019-08-16T12:04:19Z</time>
      </trkpt>
      <trkpt lat="41.9119800" lon="-8.7844090">
        <ele>44.6</ele>
        <time>2019-08-16T12:04:21Z</time>
      </trkpt>
      <trkpt lat="41.9119810" lon="-8.7843930">
        <ele>45.0</ele>
        <time>2019-08-16T12:04:22Z</time>
      </trkpt>
      <trkpt lat="41.9119780" lon="-8.7843750">
        <ele>45.4</ele>
        <time>2019-08-16T12:04:23Z</time>
      </trkpt>
      <trkpt lat="41.9119750" lon="-8.7843570">
        <ele>45.8</ele>
        <time>2019-08-16T12:04:24Z</time>
      </trkpt>
      <trkpt lat="41.9119680" lon="-8.7843390">
        <ele>46.4</ele>
        <time>2019-08-16T12:04:25Z</time>
      </trkpt>
      <trkpt lat="41.9119600" lon="-8.7842860">
        <ele>46.4</ele>
        <time>2019-08-16T12:04:29Z</time>
      </trkpt>
      <trkpt lat="41.9119520" lon="-8.7842750">
        <ele>46.8</ele>
        <time>2019-08-16T12:04:30Z</time>
      </trkpt>
      <trkpt lat="41.9119420" lon="-8.7842600">
        <ele>47.2</ele>
        <time>2019-08-16T12:04:31Z</time>
      </trkpt>
      <trkpt lat="41.9119300" lon="-8.7842420">
        <ele>47.6</ele>
        <time>2019-08-16T12:04:32Z</time>
      </trkpt>
      <trkpt lat="41.9119240" lon="-8.7842310">
        <ele>48.0</ele>
        <time>2019-08-16T12:04:33Z</time>
      </trkpt>
      <trkpt lat="41.9119170" lon="-8.7842170">
        <ele>48.4</ele>
        <time>2019-08-16T12:04:34Z</time>
      </trkpt>
      <trkpt lat="41.9119100" lon="-8.7841970">
        <ele>48.4</ele>
        <time>2019-08-16T12:04:36Z</time>
      </trkpt>
      <trkpt lat="41.9118830" lon="-8.7841590">
        <ele>48.8</ele>
        <time>2019-08-16T12:04:40Z</time>
      </trkpt>
      <trkpt lat="41.9118600" lon="-8.7841510">
        <ele>49.4</ele>
        <time>2019-08-16T12:04:41Z</time>
      </trkpt>
      <trkpt lat="41.9118420" lon="-8.7841280">
        <ele>49.8</ele>
        <time>2019-08-16T12:04:42Z</time>
      </trkpt>
      <trkpt lat="41.9118210" lon="-8.7841160">
        <ele>50.2</ele>
        <time>2019-08-16T12:04:43Z</time>
      </trkpt>
      <trkpt lat="41.9118080" lon="-8.7840990">
        <ele>50.6</ele>
        <time>2019-08-16T12:04:44Z</time>
      </trkpt>
      <trkpt lat="41.9117780" lon="-8.7840830">
        <ele>50.6</ele>
        <time>2019-08-16T12:04:46Z</time>
      </trkpt>
      <trkpt lat="41.9116910" lon="-8.7840340">
        <ele>51.0</ele>
        <time>2019-08-16T12:04:52Z</time>
      </trkpt>
      <trkpt lat="41.9116730" lon="-8.7840300">
        <ele>51.4</ele>
        <time>2019-08-16T12:04:53Z</time>
      </trkpt>
      <trkpt lat="41.9116600" lon="-8.7840270">
        <ele>51.8</ele>
        <time>2019-08-16T12:04:54Z</time>
      </trkpt>
      <trkpt lat="41.9116420" lon="-8.7840200">
        <ele>52.2</ele>
        <time>2019-08-16T12:04:55Z</time>
      </trkpt>
      <trkpt lat="41.9116230" lon="-8.7840150">
        <ele>52.6</ele>
        <time>2019-08-16T12:04:56Z</time>
      </trkpt>
      <trkpt lat="41.9115940" lon="-8.7840150">
        <ele>52.6</ele>
        <time>2019-08-16T12:04:58Z</time>
      </trkpt>
      <trkpt lat="41.9115400" lon="-8.7839620">
        <ele>53.0</ele>
        <time>2019-08-16T12:05:03Z</time>
      </trkpt>
      <trkpt lat="41.9115270" lon="-8.7839540">
        <ele>53.6</ele>
        <time>2019-08-16T12:05:04Z</time>
      </trkpt>
      <trkpt lat="41.9115180" lon="-8.7839480">
        <ele>54.0</ele>
        <time>2019-08-16T12:05:05Z</time>
      </trkpt>
      <trkpt lat="41.9115080" lon="-8.7839400">
        <ele>54.4</ele>
        <time>2019-08-16T12:05:06Z</time>
      </trkpt>
      <trkpt lat="41.9115020" lon="-8.7839290">
        <ele>54.8</ele>
        <time>2019-08-16T12:05:07Z</time>
      </trkpt>
      <trkpt lat="41.9114400" lon="-8.7839140">
        <ele>54.8</ele>
        <time>2019-08-16T12:05:11Z</time>
      </trkpt>
      <trkpt lat="41.9113290" lon="-8.7839070">
        <ele>55.2</ele>
        <time>2019-08-16T12:05:20Z</time>
      </trkpt>
      <trkpt lat="41.9113160" lon="-8.7839050">
        <ele>55.6</ele>
        <time>2019-08-16T12:05:21Z</time>
      </trkpt>
      <trkpt lat="41.9113020" lon="-8.7839030">
        <ele>56.0</ele>
        <time>2019-08-16T12:05:22Z</time>
      </trkpt>
      <trkpt lat="41.9112870" lon="-8.7838990">
        <ele>56.6</ele>
        <time>2019-08-16T12:05:23Z</time>
      </trkpt>
      <trkpt lat="41.9112730" lon="-8.7838950">
        <ele>57.0</ele>
        <time>2019-08-16T12:05:24Z</time>
      </trkpt>
      <trkpt lat="41.9112460" lon="-8.7838850">
        <ele>57.4</ele>
        <time>2019-08-16T12:05:26Z</time>
      </trkpt>
      <trkpt lat="41.9112390" lon="-8.7838840">
        <ele>57.8</ele>
        <time>2019-08-16T12:05:27Z</time>
      </trkpt>
      <trkpt lat="41.9112190" lon="-8.7838930">
        <ele>58.4</ele>
        <time>2019-08-16T12:05:28Z</time>
      </trkpt>
      <trkpt lat="41.9112090" lon="-8.7838990">
        <ele>58.8</ele>
        <time>2019-08-16T12:05:29Z</time>
      </trkpt>
      <trkpt lat="41.9111930" lon="-8.7839060">
        <ele>59.2</ele>
        <time>2019-08-16T12:05:30Z</time>
      </trkpt>
      <trkpt lat="41.9111480" lon="-8.7838870">
        <ele>59.2</ele>
        <time>2019-08-16T12:05:33Z</time>
      </trkpt>
      <trkpt lat="41.9111340" lon="-8.7838790">
        <ele>59.6</ele>
        <time>2019-08-16T12:05:34Z</time>
      </trkpt>
      <trkpt lat="41.9111220" lon="-8.7838770">
        <ele>60.2</ele>
        <time>2019-08-16T12:05:35Z</time>
      </trkpt>
      <trkpt lat="41.9111070" lon="-8.7838750">
        <ele>60.6</ele>
        <time>2019-08-16T12:05:36Z</time>
      </trkpt>
      <trkpt lat="41.9110920" lon="-8.7838730">
        <ele>61.0</ele>
        <time>2019-08-16T12:05:37Z</time>
      </trkpt>
      <trkpt lat="41.9110760" lon="-8.7838740">
        <ele>61.6</ele>
        <time>2019-08-16T12:05:38Z</time>
      </trkpt>
      <trkpt lat="41.9110170" lon="-8.7838830">
        <ele>62.0</ele>
        <time>2019-08-16T12:05:42Z</time>
      </trkpt>
      <trkpt lat="41.9110060" lon="-8.7838900">
        <ele>62.4</ele>
        <time>2019-08-16T12:05:43Z</time>
      </trkpt>
      <trkpt lat="41.9109890" lon="-8.7838910">
        <ele>62.8</ele>
        <time>2019-08-16T12:05:44Z</time>
      </trkpt>
      <trkpt lat="41.9109790" lon="-8.7838900">
        <ele>63.2</ele>
        <time>2019-08-16T12:05:45Z</time>
      </trkpt>
      <trkpt lat="41.9109600" lon="-8.7838910">
        <ele>63.6</ele>
        <time>2019-08-16T12:05:46Z</time>
      </trkpt>
      <trkpt lat="41.9108370" lon="-8.7838930">
        <ele>63.6</ele>
        <time>2019-08-16T12:05:54Z</time>
      </trkpt>
      <trkpt lat="41.9107530" lon="-8.7839060">
        <ele>64.0</ele>
        <time>2019-08-16T12:05:59Z</time>
      </trkpt>
      <trkpt lat="41.9107360" lon="-8.7839020">
        <ele>64.4</ele>
        <time>2019-08-16T12:06:00Z</time>
      </trkpt>
      <trkpt lat="41.9107170" lon="-8.7839000">
        <ele>64.8</ele>
        <time>2019-08-16T12:06:01Z</time>
      </trkpt>
      <trkpt lat="41.9106970" lon="-8.7838960">
        <ele>65.2</ele>
        <time>2019-08-16T12:06:02Z</time>
      </trkpt>
      <trkpt lat="41.9106790" lon="-8.7838900">
        <ele>65.8</ele>
        <time>2019-08-16T12:06:03Z</time>
      </trkpt>
      <trkpt lat="41.9105590" lon="-8.7839010">
        <ele>65.8</ele>
        <time>2019-08-16T12:06:12Z</time>
      </trkpt>
      <trkpt lat="41.9104810" lon="-8.7839030">
        <ele>66.2</ele>
        <time>2019-08-16T12:06:17Z</time>
      </trkpt>
      <trkpt lat="41.9104620" lon="-8.7839020">
        <ele>66.6</ele>
        <time>2019-08-16T12:06:18Z</time>
      </trkpt>
      <trkpt lat="41.9104460" lon="-8.7839120">
        <ele>67.0</ele>
        <time>2019-08-16T12:06:19Z</time>
      </trkpt>
      <trkpt lat="41.9104270" lon="-8.7839120">
        <ele>67.4</ele>
        <time>2019-08-16T12:06:20Z</time>
      </trkpt>
      <trkpt lat="41.9104070" lon="-8.7839120">
        <ele>67.8</ele>
        <time>2019-08-16T12:06:21Z</time>
      </trkpt>
      <trkpt lat="41.9102490" lon="-8.7838990">
        <ele>67.8</ele>
        <time>2019-08-16T12:06:30Z</time>
      </trkpt>
      <trkpt lat="41.9102160" lon="-8.7838910">
        <ele>68.2</ele>
        <time>2019-08-16T12:06:32Z</time>
      </trkpt>
      <trkpt lat="41.9101970" lon="-8.7838860">
        <ele>68.6</ele>
        <time>2019-08-16T12:06:33Z</time>
      </trkpt>
      <trkpt lat="41.9101800" lon="-8.7838810">
        <ele>69.0</ele>
        <time>2019-08-16T12:06:34Z</time>
      </trkpt>
      <trkpt lat="41.9101650" lon="-8.7838820">
        <ele>69.6</ele>
        <time>2019-08-16T12:06:35Z</time>
      </trkpt>
      <trkpt lat="41.9101470" lon="-8.7838910">
        <ele>70.0</ele>
        <time>2019-08-16T12:06:36Z</time>
      </trkpt>
      <trkpt lat="41.9101070" lon="-8.7839100">
        <ele>70.0</ele>
        <time>2019-08-16T12:06:38Z</time>
      </trkpt>
      <trkpt lat="41.9100300" lon="-8.7839340">
        <ele>70.4</ele>
        <time>2019-08-16T12:06:44Z</time>
      </trkpt>
      <trkpt lat="41.9100090" lon="-8.7839440">
        <ele>70.8</ele>
        <time>2019-08-16T12:06:45Z</time>
      </trkpt>
      <trkpt lat="41.9099910" lon="-8.7839510">
        <ele>71.2</ele>
        <time>2019-08-16T12:06:46Z</time>
      </trkpt>
      <trkpt lat="41.9099740" lon="-8.7839560">
        <ele>71.6</ele>
        <time>2019-08-16T12:06:47Z</time>
      </trkpt>
      <trkpt lat="41.9099520" lon="-8.7839620">
        <ele>72.0</ele>
        <time>2019-08-16T12:06:48Z</time>
      </trkpt>
      <trkpt lat="41.9099100" lon="-8.7839930">
        <ele>72.4</ele>
        <time>2019-08-16T12:06:51Z</time>
      </trkpt>
      <trkpt lat="41.9098940" lon="-8.7840040">
        <ele>73.0</ele>
        <time>2019-08-16T12:06:52Z</time>
      </trkpt>
      <trkpt lat="41.9098770" lon="-8.7840160">
        <ele>73.4</ele>
        <time>2019-08-16T12:06:53Z</time>
      </trkpt>
      <trkpt lat="41.9098650" lon="-8.7840270">
        <ele>73.8</ele>
        <time>2019-08-16T12:06:54Z</time>
      </trkpt>
      <trkpt lat="41.9098460" lon="-8.7840380">
        <ele>74.2</ele>
        <time>2019-08-16T12:06:55Z</time>
      </trkpt>
      <trkpt lat="41.9097800" lon="-8.7840810">
        <ele>74.8</ele>
        <time>2019-08-16T12:06:59Z</time>
      </trkpt>
      <trkpt lat="41.9097720" lon="-8.7840950">
        <ele>75.2</ele>
        <time>2019-08-16T12:07:00Z</time>
      </trkpt>
      <trkpt lat="41.9097500" lon="-8.7841100">
        <ele>75.8</ele>
        <time>2019-08-16T12:07:01Z</time>
      </trkpt>
      <trkpt lat="41.9097320" lon="-8.7841240">
        <ele>76.2</ele>
        <time>2019-08-16T12:07:02Z</time>
      </trkpt>
      <trkpt lat="41.9097260" lon="-8.7841320">
        <ele>76.8</ele>
        <time>2019-08-16T12:07:03Z</time>
      </trkpt>
      <trkpt lat="41.9096740" lon="-8.7841530">
        <ele>76.8</ele>
        <time>2019-08-16T12:07:06Z</time>
      </trkpt>
      <trkpt lat="41.9095990" lon="-8.7841970">
        <ele>77.2</ele>
        <time>2019-08-16T12:07:10Z</time>
      </trkpt>
      <trkpt lat="41.9095830" lon="-8.7842070">
        <ele>77.6</ele>
        <time>2019-08-16T12:07:11Z</time>
      </trkpt>
      <trkpt lat="41.9095700" lon="-8.7842170">
        <ele>78.0</ele>
        <time>2019-08-16T12:07:12Z</time>
      </trkpt>
      <trkpt lat="41.9095600" lon="-8.7842250">
        <ele>78.4</ele>
        <time>2019-08-16T12:07:13Z</time>
      </trkpt>
      <trkpt lat="41.9095460" lon="-8.7842360">
        <ele>79.0</ele>
        <time>2019-08-16T12:07:14Z</time>
      </trkpt>
      <trkpt lat="41.9095350" lon="-8.7842460">
        <ele>79.0</ele>
        <time>2019-08-16T12:07:15Z</time>
      </trkpt>
      <trkpt lat="41.9095030" lon="-8.7842720">
        <ele>79.4</ele>
        <time>2019-08-16T12:07:17Z</time>
      </trkpt>
      <trkpt lat="41.9094920" lon="-8.7842830">
        <ele>79.8</ele>
        <time>2019-08-16T12:07:18Z</time>
      </trkpt>
      <trkpt lat="41.9094770" lon="-8.7842930">
        <ele>80.2</ele>
        <time>2019-08-16T12:07:19Z</time>
      </trkpt>
      <trkpt lat="41.9094570" lon="-8.7843080">
        <ele>80.8</ele>
        <time>2019-08-16T12:07:20Z</time>
      </trkpt>
      <trkpt lat="41.9094460" lon="-8.7843150">
        <ele>81.2</ele>
        <time>2019-08-16T12:07:21Z</time>
      </trkpt>
      <trkpt lat="41.9094340" lon="-8.7843310">
        <ele>81.2</ele>
        <time>2019-08-16T12:07:22Z</time>
      </trkpt>
      <trkpt lat="41.9093400" lon="-8.7843930">
        <ele>81.6</ele>
        <time>2019-08-16T12:07:28Z</time>
      </trkpt>
      <trkpt lat="41.9093320" lon="-8.7843960">
        <ele>82.0</ele>
        <time>2019-08-16T12:07:29Z</time>
      </trkpt>
      <trkpt lat="41.9093230" lon="-8.7844010">
        <ele>82.4</ele>
        <time>2019-08-16T12:07:30Z</time>
      </trkpt>
      <trkpt lat="41.9093050" lon="-8.7844110">
        <ele>82.8</ele>
        <time>2019-08-16T12:07:31Z</time>
      </trkpt>
      <trkpt lat="41.9092950" lon="-8.7844200">
        <ele>83.2</ele>
        <time>2019-08-16T12:07:32Z</time>
      </trkpt>
      <trkpt lat="41.9092020" lon="-8.7844720">
        <ele>83.2</ele>
        <time>2019-08-16T12:07:39Z</time>
      </trkpt>
      <trkpt lat="41.9091730" lon="-8.7844910">
        <ele>83.6</ele>
        <time>2019-08-16T12:07:41Z</time>
      </trkpt>
      <trkpt lat="41.9091570" lon="-8.7845020">
        <ele>84.0</ele>
        <time>2019-08-16T12:07:42Z</time>
      </trkpt>
      <trkpt lat="41.9091360" lon="-8.7845130">
        <ele>84.6</ele>
        <time>2019-08-16T12:07:43Z</time>
      </trkpt>
      <trkpt lat="41.9091300" lon="-8.7845200">
        <ele>85.0</ele>
        <time>2019-08-16T12:07:44Z</time>
      </trkpt>
      <trkpt lat="41.9091180" lon="-8.7845250">
        <ele>85.4</ele>
        <time>2019-08-16T12:07:45Z</time>
      </trkpt>
      <trkpt lat="41.9090640" lon="-8.7845460">
        <ele>85.4</ele>
        <time>2019-08-16T12:07:49Z</time>
      </trkpt>
      <trkpt lat="41.9089860" lon="-8.7845650">
        <ele>85.8</ele>
        <time>2019-08-16T12:07:55Z</time>
      </trkpt>
      <trkpt lat="41.9089690" lon="-8.7845680">
        <ele>86.2</ele>
        <time>2019-08-16T12:07:56Z</time>
      </trkpt>
      <trkpt lat="41.9089470" lon="-8.7845750">
        <ele>86.8</ele>
        <time>2019-08-16T12:07:57Z</time>
      </trkpt>
      <trkpt lat="41.9089400" lon="-8.7845800">
        <ele>87.2</ele>
        <time>2019-08-16T12:07:58Z</time>
      </trkpt>
      <trkpt lat="41.9089240" lon="-8.7845910">
        <ele>87.6</ele>
        <time>2019-08-16T12:07:59Z</time>
      </trkpt>
      <trkpt lat="41.9088300" lon="-8.7845970">
        <ele>87.6</ele>
        <time>2019-08-16T12:08:04Z</time>
      </trkpt>
      <trkpt lat="41.9087380" lon="-8.7846020">
        <ele>88.0</ele>
        <time>2019-08-16T12:08:09Z</time>
      </trkpt>
      <trkpt lat="41.9087200" lon="-8.7846020">
        <ele>88.4</ele>
        <time>2019-08-16T12:08:10Z</time>
      </trkpt>
      <trkpt lat="41.9087040" lon="-8.7845950">
        <ele>88.8</ele>
        <time>2019-08-16T12:08:11Z</time>
      </trkpt>
      <trkpt lat="41.9086840" lon="-8.7845940">
        <ele>89.2</ele>
        <time>2019-08-16T12:08:12Z</time>
      </trkpt>
      <trkpt lat="41.9086730" lon="-8.7845940">
        <ele>89.6</ele>
        <time>2019-08-16T12:08:13Z</time>
      </trkpt>
      <trkpt lat="41.9086590" lon="-8.7845960">
        <ele>89.6</ele>
        <time>2019-08-16T12:08:14Z</time>
      </trkpt>
      <trkpt lat="41.9086010" lon="-8.7845510">
        <ele>89.6</ele>
        <time>2019-08-16T12:08:20Z</time>
      </trkpt>
      <trkpt lat="41.9086010" lon="-8.7845390">
        <ele>89.6</ele>
        <time>2019-08-16T12:08:21Z</time>
      </trkpt>
      <trkpt lat="41.9085960" lon="-8.7845020">
        <ele>90.0</ele>
        <time>2019-08-16T12:08:23Z</time>
      </trkpt>
      <trkpt lat="41.9086000" lon="-8.7844680">
        <ele>90.4</ele>
        <time>2019-08-16T12:08:24Z</time>
      </trkpt>
      <trkpt lat="41.9086010" lon="-8.7844410">
        <ele>90.8</ele>
        <time>2019-08-16T12:08:25Z</time>
      </trkpt>
      <trkpt lat="41.9086170" lon="-8.7844310">
        <ele>91.2</ele>
        <time>2019-08-16T12:08:26Z</time>
      </trkpt>
      <trkpt lat="41.9086290" lon="-8.7844070">
        <ele>91.6</ele>
        <time>2019-08-16T12:08:27Z</time>
      </trkpt>
      <trkpt lat="41.9086710" lon="-8.7844120">
        <ele>91.6</ele>
        <time>2019-08-16T12:08:31Z</time>
      </trkpt>
      <trkpt lat="41.9086780" lon="-8.7844140">
        <ele>91.6</ele>
        <time>2019-08-16T12:08:34Z</time>
      </trkpt>
      <trkpt lat="41.9087330" lon="-8.7844060">
        <ele>93.8</ele>
        <time>2019-08-16T12:11:17Z</time>
      </trkpt>
      <trkpt lat="41.9087400" lon="-8.7843720">
        <ele>93.8</ele>
        <time>2019-08-16T12:11:19Z</time>
      </trkpt>
      <trkpt lat="41.9087910" lon="-8.7842150">
        <ele>93.8</ele>
        <time>2019-08-16T12:11:26Z</time>
      </trkpt>
      <trkpt lat="41.9088640" lon="-8.7841110">
        <ele>94.4</ele>
        <time>2019-08-16T12:11:32Z</time>
      </trkpt>
      <trkpt lat="41.9088730" lon="-8.7840950">
        <ele>94.8</ele>
        <time>2019-08-16T12:11:33Z</time>
      </trkpt>
      <trkpt lat="41.9088820" lon="-8.7840820">
        <ele>95.2</ele>
        <time>2019-08-16T12:11:34Z</time>
      </trkpt>
      <trkpt lat="41.9088910" lon="-8.7840650">
        <ele>95.8</ele>
        <time>2019-08-16T12:11:35Z</time>
      </trkpt>
      <trkpt lat="41.9088980" lon="-8.7840540">
        <ele>96.2</ele>
        <time>2019-08-16T12:11:36Z</time>
      </trkpt>
      <trkpt lat="41.9090080" lon="-8.7838950">
        <ele>96.2</ele>
        <time>2019-08-16T12:11:45Z</time>
      </trkpt>
      <trkpt lat="41.9090320" lon="-8.7838540">
        <ele>96.6</ele>
        <time>2019-08-16T12:11:47Z</time>
      </trkpt>
      <trkpt lat="41.9090430" lon="-8.7838330">
        <ele>97.2</ele>
        <time>2019-08-16T12:11:48Z</time>
      </trkpt>
      <trkpt lat="41.9090570" lon="-8.7838160">
        <ele>97.6</ele>
        <time>2019-08-16T12:11:49Z</time>
      </trkpt>
      <trkpt lat="41.9090630" lon="-8.7837960">
        <ele>98.0</ele>
        <time>2019-08-16T12:11:50Z</time>
      </trkpt>
      <trkpt lat="41.9090750" lon="-8.7837750">
        <ele>98.4</ele>
        <time>2019-08-16T12:11:51Z</time>
      </trkpt>
      <trkpt lat="41.9091180" lon="-8.7836730">
        <ele>98.4</ele>
        <time>2019-08-16T12:11:55Z</time>
      </trkpt>
      <trkpt lat="41.9091330" lon="-8.7834770">
        <ele>98.4</ele>
        <time>2019-08-16T12:12:02Z</time>
      </trkpt>
      <trkpt lat="41.9091350" lon="-8.7834040">
        <ele>98.8</ele>
        <time>2019-08-16T12:12:07Z</time>
      </trkpt>
      <trkpt lat="41.9091370" lon="-8.7834050">
        <ele>100.4</ele>
        <time>2019-08-16T12:12:13Z</time>
      </trkpt>
      <trkpt lat="41.9091370" lon="-8.7834090">
        <ele>100.4</ele>
        <time>2019-08-16T12:12:14Z</time>
      </trkpt>
      <trkpt lat="41.9091230" lon="-8.7833960">
        <ele>100.4</ele>
        <time>2019-08-16T12:12:35Z</time>
      </trkpt>
      <trkpt lat="41.9091200" lon="-8.7833370">
        <ele>100.4</ele>
        <time>2019-08-16T12:12:38Z</time>
      </trkpt>
      <trkpt lat="41.9091810" lon="-8.7831740">
        <ele>100.4</ele>
        <time>2019-08-16T12:12:43Z</time>
      </trkpt>
      <trkpt lat="41.9093040" lon="-8.7830420">
        <ele>100.0</ele>
        <time>2019-08-16T12:12:47Z</time>
      </trkpt>
      <trkpt lat="41.9093610" lon="-8.7830290">
        <ele>99.6</ele>
        <time>2019-08-16T12:12:48Z</time>
      </trkpt>
      <trkpt lat="41.9094230" lon="-8.7830190">
        <ele>99.0</ele>
        <time>2019-08-16T12:12:49Z</time>
      </trkpt>
      <trkpt lat="41.9094900" lon="-8.7830130">
        <ele>98.6</ele>
        <time>2019-08-16T12:12:50Z</time>
      </trkpt>
      <trkpt lat="41.9095590" lon="-8.7830050">
        <ele>98.2</ele>
        <time>2019-08-16T12:12:51Z</time>
      </trkpt>
      <trkpt lat="41.9096220" lon="-8.7829920">
        <ele>97.8</ele>
        <time>2019-08-16T12:12:52Z</time>
      </trkpt>
      <trkpt lat="41.9096890" lon="-8.7829580">
        <ele>97.4</ele>
        <time>2019-08-16T12:12:53Z</time>
      </trkpt>
      <trkpt lat="41.9097370" lon="-8.7829400">
        <ele>97.0</ele>
        <time>2019-08-16T12:12:54Z</time>
      </trkpt>
      <trkpt lat="41.9097620" lon="-8.7829290">
        <ele>96.4</ele>
        <time>2019-08-16T12:12:55Z</time>
      </trkpt>
      <trkpt lat="41.9097820" lon="-8.7829120">
        <ele>96.0</ele>
        <time>2019-08-16T12:12:56Z</time>
      </trkpt>
      <trkpt lat="41.9098470" lon="-8.7828450">
        <ele>96.6</ele>
        <time>2019-08-16T12:12:59Z</time>
      </trkpt>
      <trkpt lat="41.9098650" lon="-8.7828240">
        <ele>97.0</ele>
        <time>2019-08-16T12:13:00Z</time>
      </trkpt>
      <trkpt lat="41.9098760" lon="-8.7828050">
        <ele>97.4</ele>
        <time>2019-08-16T12:13:01Z</time>
      </trkpt>
      <trkpt lat="41.9098970" lon="-8.7827740">
        <ele>97.8</ele>
        <time>2019-08-16T12:13:02Z</time>
      </trkpt>
      <trkpt lat="41.9099090" lon="-8.7827530">
        <ele>98.2</ele>
        <time>2019-08-16T12:13:03Z</time>
      </trkpt>
      <trkpt lat="41.9100130" lon="-8.7826260">
        <ele>98.2</ele>
        <time>2019-08-16T12:13:08Z</time>
      </trkpt>
      <trkpt lat="41.9101530" lon="-8.7825750">
        <ele>98.6</ele>
        <time>2019-08-16T12:13:13Z</time>
      </trkpt>
      <trkpt lat="41.9101760" lon="-8.7825580">
        <ele>99.0</ele>
        <time>2019-08-16T12:13:14Z</time>
      </trkpt>
      <trkpt lat="41.9101930" lon="-8.7825500">
        <ele>99.4</ele>
        <time>2019-08-16T12:13:15Z</time>
      </trkpt>
      <trkpt lat="41.9102110" lon="-8.7825440">
        <ele>99.8</ele>
        <time>2019-08-16T12:13:16Z</time>
      </trkpt>
      <trkpt lat="41.9102300" lon="-8.7825450">
        <ele>100.2</ele>
        <time>2019-08-16T12:13:17Z</time>
      </trkpt>
      <trkpt lat="41.9103210" lon="-8.7825250">
        <ele>100.2</ele>
        <time>2019-08-16T12:13:21Z</time>
      </trkpt>
      <trkpt lat="41.9104200" lon="-8.7824920">
        <ele>99.8</ele>
        <time>2019-08-16T12:13:24Z</time>
      </trkpt>
      <trkpt lat="41.9104730" lon="-8.7824770">
        <ele>99.4</ele>
        <time>2019-08-16T12:13:25Z</time>
      </trkpt>
      <trkpt lat="41.9105330" lon="-8.7824500">
        <ele>98.8</ele>
        <time>2019-08-16T12:13:26Z</time>
      </trkpt>
      <trkpt lat="41.9105980" lon="-8.7824150">
        <ele>98.4</ele>
        <time>2019-08-16T12:13:27Z</time>
      </trkpt>
      <trkpt lat="41.9106610" lon="-8.7823770">
        <ele>98.0</ele>
        <time>2019-08-16T12:13:28Z</time>
      </trkpt>
      <trkpt lat="41.9107200" lon="-8.7823340">
        <ele>97.4</ele>
        <time>2019-08-16T12:13:29Z</time>
      </trkpt>
      <trkpt lat="41.9107680" lon="-8.7822870">
        <ele>96.8</ele>
        <time>2019-08-16T12:13:30Z</time>
      </trkpt>
      <trkpt lat="41.9108130" lon="-8.7822520">
        <ele>96.4</ele>
        <time>2019-08-16T12:13:31Z</time>
      </trkpt>
      <trkpt lat="41.9108480" lon="-8.7822200">
        <ele>95.8</ele>
        <time>2019-08-16T12:13:32Z</time>
      </trkpt>
      <trkpt lat="41.9108790" lon="-8.7821850">
        <ele>95.8</ele>
        <time>2019-08-16T12:13:33Z</time>
      </trkpt>
      <trkpt lat="41.9109080" lon="-8.7821510">
        <ele>95.8</ele>
        <time>2019-08-16T12:13:34Z</time>
      </trkpt>
      <trkpt lat="41.9110660" lon="-8.7820030">
        <ele>95.8</ele>
        <time>2019-08-16T12:13:38Z</time>
      </trkpt>
      <trkpt lat="41.9110980" lon="-8.7819430">
        <ele>95.8</ele>
        <time>2019-08-16T12:13:39Z</time>
      </trkpt>
      <trkpt lat="41.9112370" lon="-8.7817500">
        <ele>95.8</ele>
        <time>2019-08-16T12:13:44Z</time>
      </trkpt>
      <trkpt lat="41.9114180" lon="-8.7814750">
        <ele>95.8</ele>
        <time>2019-08-16T12:13:51Z</time>
      </trkpt>
      <trkpt lat="41.9115000" lon="-8.7812710">
        <ele>95.8</ele>
        <time>2019-08-16T12:13:56Z</time>
      </trkpt>
      <trkpt lat="41.9115500" lon="-8.7811320">
        <ele>95.8</ele>
        <time>2019-08-16T12:14:01Z</time>
      </trkpt>
      <trkpt lat="41.9116560" lon="-8.7809650">
        <ele>95.4</ele>
        <time>2019-08-16T12:14:06Z</time>
      </trkpt>
      <trkpt lat="41.9116910" lon="-8.7809370">
        <ele>95.0</ele>
        <time>2019-08-16T12:14:07Z</time>
      </trkpt>
      <trkpt lat="41.9117160" lon="-8.7809060">
        <ele>94.6</ele>
        <time>2019-08-16T12:14:08Z</time>
      </trkpt>
      <trkpt lat="41.9117430" lon="-8.7808580">
        <ele>94.2</ele>
        <time>2019-08-16T12:14:09Z</time>
      </trkpt>
      <trkpt lat="41.9117630" lon="-8.7808070">
        <ele>93.8</ele>
        <time>2019-08-16T12:14:10Z</time>
      </trkpt>
      <trkpt lat="41.9117710" lon="-8.7807100">
        <ele>93.4</ele>
        <time>2019-08-16T12:14:12Z</time>
      </trkpt>
      <trkpt lat="41.9117770" lon="-8.7806310">
        <ele>92.8</ele>
        <time>2019-08-16T12:14:13Z</time>
      </trkpt>
      <trkpt lat="41.9118020" lon="-8.7805720">
        <ele>92.4</ele>
        <time>2019-08-16T12:14:14Z</time>
      </trkpt>
      <trkpt lat="41.9118400" lon="-8.7805270">
        <ele>91.8</ele>
        <time>2019-08-16T12:14:15Z</time>
      </trkpt>
      <trkpt lat="41.9118880" lon="-8.7805050">
        <ele>91.2</ele>
        <time>2019-08-16T12:14:16Z</time>
      </trkpt>
      <trkpt lat="41.9119400" lon="-8.7804890">
        <ele>90.4</ele>
        <time>2019-08-16T12:14:17Z</time>
      </trkpt>
      <trkpt lat="41.9119980" lon="-8.7804710">
        <ele>89.8</ele>
        <time>2019-08-16T12:14:18Z</time>
      </trkpt>
      <trkpt lat="41.9120660" lon="-8.7804950">
        <ele>89.0</ele>
        <time>2019-08-16T12:14:19Z</time>
      </trkpt>
      <trkpt lat="41.9120980" lon="-8.7805070">
        <ele>88.4</ele>
        <time>2019-08-16T12:14:20Z</time>
      </trkpt>
      <trkpt lat="41.9121240" lon="-8.7804950">
        <ele>87.6</ele>
        <time>2019-08-16T12:14:21Z</time>
      </trkpt>
      <trkpt lat="41.9121590" lon="-8.7804800">
        <ele>87.0</ele>
        <time>2019-08-16T12:14:22Z</time>
      </trkpt>
      <trkpt lat="41.9122100" lon="-8.7804670">
        <ele>86.4</ele>
        <time>2019-08-16T12:14:23Z</time>
      </trkpt>
      <trkpt lat="41.9122490" lon="-8.7804860">
        <ele>85.8</ele>
        <time>2019-08-16T12:14:24Z</time>
      </trkpt>
      <trkpt lat="41.9122930" lon="-8.7804840">
        <ele>85.2</ele>
        <time>2019-08-16T12:14:25Z</time>
      </trkpt>
      <trkpt lat="41.9123310" lon="-8.7804900">
        <ele>84.6</ele>
        <time>2019-08-16T12:14:26Z</time>
      </trkpt>
      <trkpt lat="41.9123830" lon="-8.7804980">
        <ele>84.0</ele>
        <time>2019-08-16T12:14:27Z</time>
      </trkpt>
      <trkpt lat="41.9124390" lon="-8.7805210">
        <ele>83.2</ele>
        <time>2019-08-16T12:14:28Z</time>
      </trkpt>
      <trkpt lat="41.9125300" lon="-8.7805520">
        <ele>82.2</ele>
        <time>2019-08-16T12:14:29Z</time>
      </trkpt>
      <trkpt lat="41.9125840" lon="-8.7805680">
        <ele>81.4</ele>
        <time>2019-08-16T12:14:30Z</time>
      </trkpt>
      <trkpt lat="41.9126550" lon="-8.7805350">
        <ele>80.6</ele>
        <time>2019-08-16T12:14:31Z</time>
      </trkpt>
      <trkpt lat="41.9127100" lon="-8.7805030">
        <ele>80.0</ele>
        <time>2019-08-16T12:14:32Z</time>
      </trkpt>
      <trkpt lat="41.9127670" lon="-8.7804870">
        <ele>79.2</ele>
        <time>2019-08-16T12:14:33Z</time>
      </trkpt>
      <trkpt lat="41.9128130" lon="-8.7804670">
        <ele>78.4</ele>
        <time>2019-08-16T12:14:34Z</time>
      </trkpt>
      <trkpt lat="41.9128620" lon="-8.7804380">
        <ele>77.6</ele>
        <time>2019-08-16T12:14:35Z</time>
      </trkpt>
      <trkpt lat="41.9130130" lon="-8.7803070">
        <ele>77.2</ele>
        <time>2019-08-16T12:14:39Z</time>
      </trkpt>
      <trkpt lat="41.9130490" lon="-8.7802640">
        <ele>76.6</ele>
        <time>2019-08-16T12:14:40Z</time>
      </trkpt>
      <trkpt lat="41.9130990" lon="-8.7802220">
        <ele>76.2</ele>
        <time>2019-08-16T12:14:41Z</time>
      </trkpt>
      <trkpt lat="41.9131340" lon="-8.7801650">
        <ele>75.4</ele>
        <time>2019-08-16T12:14:42Z</time>
      </trkpt>
      <trkpt lat="41.9131660" lon="-8.7801120">
        <ele>74.6</ele>
        <time>2019-08-16T12:14:43Z</time>
      </trkpt>
      <trkpt lat="41.9132000" lon="-8.7800430">
        <ele>73.6</ele>
        <time>2019-08-16T12:14:44Z</time>
      </trkpt>
      <trkpt lat="41.9132280" lon="-8.7799720">
        <ele>72.6</ele>
        <time>2019-08-16T12:14:45Z</time>
      </trkpt>
      <trkpt lat="41.9132560" lon="-8.7798880">
        <ele>71.8</ele>
        <time>2019-08-16T12:14:46Z</time>
      </trkpt>
      <trkpt lat="41.9132900" lon="-8.7798010">
        <ele>70.8</ele>
        <time>2019-08-16T12:14:47Z</time>
      </trkpt>
      <trkpt lat="41.9133210" lon="-8.7797150">
        <ele>70.0</ele>
        <time>2019-08-16T12:14:48Z</time>
      </trkpt>
      <trkpt lat="41.9133490" lon="-8.7796300">
        <ele>69.2</ele>
        <time>2019-08-16T12:14:49Z</time>
      </trkpt>
      <trkpt lat="41.9133850" lon="-8.7795380">
        <ele>68.4</ele>
        <time>2019-08-16T12:14:50Z</time>
      </trkpt>
      <trkpt lat="41.9134170" lon="-8.7794400">
        <ele>67.4</ele>
        <time>2019-08-16T12:14:51Z</time>
      </trkpt>
      <trkpt lat="41.9134570" lon="-8.7793390">
        <ele>67.0</ele>
        <time>2019-08-16T12:14:52Z</time>
      </trkpt>
      <trkpt lat="41.9135010" lon="-8.7792440">
        <ele>66.4</ele>
        <time>2019-08-16T12:14:53Z</time>
      </trkpt>
      <trkpt lat="41.9135540" lon="-8.7791650">
        <ele>66.0</ele>
        <time>2019-08-16T12:14:54Z</time>
      </trkpt>
      <trkpt lat="41.9136110" lon="-8.7790920">
        <ele>65.4</ele>
        <time>2019-08-16T12:14:55Z</time>
      </trkpt>
      <trkpt lat="41.9136640" lon="-8.7790130">
        <ele>65.0</ele>
        <time>2019-08-16T12:14:56Z</time>
      </trkpt>
      <trkpt lat="41.9137150" lon="-8.7789360">
        <ele>64.4</ele>
        <time>2019-08-16T12:14:57Z</time>
      </trkpt>
      <trkpt lat="41.9137740" lon="-8.7788500">
        <ele>63.8</ele>
        <time>2019-08-16T12:14:58Z</time>
      </trkpt>
      <trkpt lat="41.9138320" lon="-8.7787800">
        <ele>63.2</ele>
        <time>2019-08-16T12:14:59Z</time>
      </trkpt>
      <trkpt lat="41.9138800" lon="-8.7787170">
        <ele>62.6</ele>
        <time>2019-08-16T12:15:00Z</time>
      </trkpt>
      <trkpt lat="41.9139350" lon="-8.7786600">
        <ele>62.0</ele>
        <time>2019-08-16T12:15:01Z</time>
      </trkpt>
      <trkpt lat="41.9139890" lon="-8.7786060">
        <ele>61.4</ele>
        <time>2019-08-16T12:15:02Z</time>
      </trkpt>
      <trkpt lat="41.9140570" lon="-8.7785620">
        <ele>60.6</ele>
        <time>2019-08-16T12:15:03Z</time>
      </trkpt>
      <trkpt lat="41.9141090" lon="-8.7785070">
        <ele>59.8</ele>
        <time>2019-08-16T12:15:04Z</time>
      </trkpt>
      <trkpt lat="41.9141610" lon="-8.7784380">
        <ele>59.0</ele>
        <time>2019-08-16T12:15:05Z</time>
      </trkpt>
      <trkpt lat="41.9141890" lon="-8.7783700">
        <ele>58.2</ele>
        <time>2019-08-16T12:15:06Z</time>
      </trkpt>
      <trkpt lat="41.9141710" lon="-8.7782700">
        <ele>57.4</ele>
        <time>2019-08-16T12:15:07Z</time>
      </trkpt>
      <trkpt lat="41.9141670" lon="-8.7781870">
        <ele>57.4</ele>
        <time>2019-08-16T12:15:08Z</time>
      </trkpt>
      <trkpt lat="41.9141940" lon="-8.7777980">
        <ele>57.4</ele>
        <time>2019-08-16T12:15:13Z</time>
      </trkpt>
      <trkpt lat="41.9142900" lon="-8.7774420">
        <ele>57.4</ele>
        <time>2019-08-16T12:15:18Z</time>
      </trkpt>
      <trkpt lat="41.9143290" lon="-8.7773860">
        <ele>57.4</ele>
        <time>2019-08-16T12:15:19Z</time>
      </trkpt>
      <trkpt lat="41.9144370" lon="-8.7772690">
        <ele>57.0</ele>
        <time>2019-08-16T12:15:21Z</time>
      </trkpt>
      <trkpt lat="41.9144920" lon="-8.7772090">
        <ele>56.4</ele>
        <time>2019-08-16T12:15:22Z</time>
      </trkpt>
      <trkpt lat="41.9145390" lon="-8.7771400">
        <ele>55.8</ele>
        <time>2019-08-16T12:15:23Z</time>
      </trkpt>
      <trkpt lat="41.9145610" lon="-8.7770800">
        <ele>55.4</ele>
        <time>2019-08-16T12:15:24Z</time>
      </trkpt>
      <trkpt lat="41.9145760" lon="-8.7770190">
        <ele>54.8</ele>
        <time>2019-08-16T12:15:25Z</time>
      </trkpt>
      <trkpt lat="41.9146090" lon="-8.7768930">
        <ele>54.8</ele>
        <time>2019-08-16T12:15:27Z</time>
      </trkpt>
      <trkpt lat="41.9146630" lon="-8.7766700">
        <ele>54.4</ele>
        <time>2019-08-16T12:15:30Z</time>
      </trkpt>
      <trkpt lat="41.9146820" lon="-8.7765820">
        <ele>54.0</ele>
        <time>2019-08-16T12:15:31Z</time>
      </trkpt>
      <trkpt lat="41.9147060" lon="-8.7764950">
        <ele>53.6</ele>
        <time>2019-08-16T12:15:32Z</time>
      </trkpt>
      <trkpt lat="41.9147250" lon="-8.7764160">
        <ele>53.2</ele>
        <time>2019-08-16T12:15:33Z</time>
      </trkpt>
      <trkpt lat="41.9147450" lon="-8.7763300">
        <ele>52.8</ele>
        <time>2019-08-16T12:15:34Z</time>
      </trkpt>
      <trkpt lat="41.9147660" lon="-8.7762430">
        <ele>52.2</ele>
        <time>2019-08-16T12:15:35Z</time>
      </trkpt>
      <trkpt lat="41.9147600" lon="-8.7761530">
        <ele>51.8</ele>
        <time>2019-08-16T12:15:36Z</time>
      </trkpt>
      <trkpt lat="41.9147620" lon="-8.7760520">
        <ele>51.4</ele>
        <time>2019-08-16T12:15:37Z</time>
      </trkpt>
      <trkpt lat="41.9147640" lon="-8.7759630">
        <ele>51.0</ele>
        <time>2019-08-16T12:15:38Z</time>
      </trkpt>
      <trkpt lat="41.9147540" lon="-8.7758750">
        <ele>50.6</ele>
        <time>2019-08-16T12:15:39Z</time>
      </trkpt>
      <trkpt lat="41.9147740" lon="-8.7755960">
        <ele>50.6</ele>
        <time>2019-08-16T12:15:42Z</time>
      </trkpt>
      <trkpt lat="41.9147820" lon="-8.7755350">
        <ele>50.6</ele>
        <time>2019-08-16T12:15:43Z</time>
      </trkpt>
      <trkpt lat="41.9148790" lon="-8.7754130">
        <ele>50.6</ele>
        <time>2019-08-16T12:15:45Z</time>
      </trkpt>
      <trkpt lat="41.9149750" lon="-8.7753630">
        <ele>50.6</ele>
        <time>2019-08-16T12:15:48Z</time>
      </trkpt>
      <trkpt lat="41.9150490" lon="-8.7754000">
        <ele>50.6</ele>
        <time>2019-08-16T12:15:50Z</time>
      </trkpt>
      <trkpt lat="41.9151670" lon="-8.7754260">
        <ele>50.6</ele>
        <time>2019-08-16T12:15:54Z</time>
      </trkpt>
      <trkpt lat="41.9152820" lon="-8.7754350">
        <ele>50.6</ele>
        <time>2019-08-16T12:15:58Z</time>
      </trkpt>
      <trkpt lat="41.9154440" lon="-8.7754280">
        <ele>50.6</ele>
        <time>2019-08-16T12:16:03Z</time>
      </trkpt>
      <trkpt lat="41.9156780" lon="-8.7753910">
        <ele>50.6</ele>
        <time>2019-08-16T12:16:10Z</time>
      </trkpt>
      <trkpt lat="41.9158630" lon="-8.7753100">
        <ele>50.6</ele>
        <time>2019-08-16T12:16:15Z</time>
      </trkpt>
      <trkpt lat="41.9160430" lon="-8.7752530">
        <ele>51.0</ele>
        <time>2019-08-16T12:16:20Z</time>
      </trkpt>
      <trkpt lat="41.9160680" lon="-8.7752330">
        <ele>51.4</ele>
        <time>2019-08-16T12:16:21Z</time>
      </trkpt>
      <trkpt lat="41.9160920" lon="-8.7752070">
        <ele>51.8</ele>
        <time>2019-08-16T12:16:22Z</time>
      </trkpt>
      <trkpt lat="41.9161140" lon="-8.7751810">
        <ele>52.2</ele>
        <time>2019-08-16T12:16:23Z</time>
      </trkpt>
      <trkpt lat="41.9161410" lon="-8.7751570">
        <ele>52.6</ele>
        <time>2019-08-16T12:16:24Z</time>
      </trkpt>
      <trkpt lat="41.9162590" lon="-8.7750330">
        <ele>52.6</ele>
        <time>2019-08-16T12:16:29Z</time>
      </trkpt>
      <trkpt lat="41.9163030" lon="-8.7749840">
        <ele>53.0</ele>
        <time>2019-08-16T12:16:31Z</time>
      </trkpt>
      <trkpt lat="41.9163260" lon="-8.7749540">
        <ele>53.4</ele>
        <time>2019-08-16T12:16:32Z</time>
      </trkpt>
      <trkpt lat="41.9163510" lon="-8.7749270">
        <ele>53.8</ele>
        <time>2019-08-16T12:16:33Z</time>
      </trkpt>
      <trkpt lat="41.9163710" lon="-8.7749040">
        <ele>54.2</ele>
        <time>2019-08-16T12:16:34Z</time>
      </trkpt>
      <trkpt lat="41.9163930" lon="-8.7748770">
        <ele>54.6</ele>
        <time>2019-08-16T12:16:35Z</time>
      </trkpt>
      <trkpt lat="41.9164580" lon="-8.7747800">
        <ele>54.6</ele>
        <time>2019-08-16T12:16:38Z</time>
      </trkpt>
      <trkpt lat="41.9165920" lon="-8.7745020">
        <ele>54.6</ele>
        <time>2019-08-16T12:16:46Z</time>
      </trkpt>
      <trkpt lat="41.9166070" lon="-8.7744700">
        <ele>55.0</ele>
        <time>2019-08-16T12:16:47Z</time>
      </trkpt>
      <trkpt lat="41.9166250" lon="-8.7744380">
        <ele>55.4</ele>
        <time>2019-08-16T12:16:48Z</time>
      </trkpt>
      <trkpt lat="41.9166420" lon="-8.7744120">
        <ele>55.8</ele>
        <time>2019-08-16T12:16:49Z</time>
      </trkpt>
      <trkpt lat="41.9166620" lon="-8.7743810">
        <ele>56.2</ele>
        <time>2019-08-16T12:16:50Z</time>
      </trkpt>
      <trkpt lat="41.9166770" lon="-8.7743540">
        <ele>56.6</ele>
        <time>2019-08-16T12:16:51Z</time>
      </trkpt>
      <trkpt lat="41.9167090" lon="-8.7743050">
        <ele>56.6</ele>
        <time>2019-08-16T12:16:53Z</time>
      </trkpt>
      <trkpt lat="41.9167930" lon="-8.7742500">
        <ele>56.6</ele>
        <time>2019-08-16T12:16:58Z</time>
      </trkpt>
      <trkpt lat="41.9169080" lon="-8.7742160">
        <ele>56.6</ele>
        <time>2019-08-16T12:17:03Z</time>
      </trkpt>
      <trkpt lat="41.9170020" lon="-8.7741260">
        <ele>56.6</ele>
        <time>2019-08-16T12:17:09Z</time>
      </trkpt>
      <trkpt lat="41.9170660" lon="-8.7740410">
        <ele>56.6</ele>
        <time>2019-08-16T12:17:15Z</time>
      </trkpt>
      <trkpt lat="41.9170440" lon="-8.7737960">
        <ele>57.0</ele>
        <time>2019-08-16T12:17:23Z</time>
      </trkpt>
      <trkpt lat="41.9170430" lon="-8.7737670">
        <ele>57.6</ele>
        <time>2019-08-16T12:17:24Z</time>
      </trkpt>
      <trkpt lat="41.9170480" lon="-8.7737400">
        <ele>58.0</ele>
        <time>2019-08-16T12:17:25Z</time>
      </trkpt>
      <trkpt lat="41.9170450" lon="-8.7737200">
        <ele>58.4</ele>
        <time>2019-08-16T12:17:26Z</time>
      </trkpt>
      <trkpt lat="41.9170400" lon="-8.7737050">
        <ele>58.8</ele>
        <time>2019-08-16T12:17:27Z</time>
      </trkpt>
      <trkpt lat="41.9170120" lon="-8.7736430">
        <ele>58.8</ele>
        <time>2019-08-16T12:17:30Z</time>
      </trkpt>
      <trkpt lat="41.9170000" lon="-8.7734430">
        <ele>58.8</ele>
        <time>2019-08-16T12:17:38Z</time>
      </trkpt>
      <trkpt lat="41.9170040" lon="-8.7734020">
        <ele>58.2</ele>
        <time>2019-08-16T12:17:39Z</time>
      </trkpt>
      <trkpt lat="41.9170100" lon="-8.7733530">
        <ele>57.8</ele>
        <time>2019-08-16T12:17:40Z</time>
      </trkpt>
      <trkpt lat="41.9170160" lon="-8.7733080">
        <ele>57.2</ele>
        <time>2019-08-16T12:17:41Z</time>
      </trkpt>
      <trkpt lat="41.9170570" lon="-8.7732220">
        <ele>56.8</ele>
        <time>2019-08-16T12:17:43Z</time>
      </trkpt>
      <trkpt lat="41.9170900" lon="-8.7731920">
        <ele>56.2</ele>
        <time>2019-08-16T12:17:44Z</time>
      </trkpt>
      <trkpt lat="41.9171180" lon="-8.7731640">
        <ele>55.4</ele>
        <time>2019-08-16T12:17:45Z</time>
      </trkpt>
      <trkpt lat="41.9171350" lon="-8.7731390">
        <ele>54.8</ele>
        <time>2019-08-16T12:17:46Z</time>
      </trkpt>
      <trkpt lat="41.9171440" lon="-8.7731130">
        <ele>54.2</ele>
        <time>2019-08-16T12:17:47Z</time>
      </trkpt>
      <trkpt lat="41.9171400" lon="-8.7730860">
        <ele>53.4</ele>
        <time>2019-08-16T12:17:48Z</time>
      </trkpt>
      <trkpt lat="41.9171300" lon="-8.7730390">
        <ele>52.8</ele>
        <time>2019-08-16T12:17:49Z</time>
      </trkpt>
      <trkpt lat="41.9171100" lon="-8.7729920">
        <ele>52.2</ele>
        <time>2019-08-16T12:17:50Z</time>
      </trkpt>
      <trkpt lat="41.9170920" lon="-8.7729560">
        <ele>51.4</ele>
        <time>2019-08-16T12:17:51Z</time>
      </trkpt>
      <trkpt lat="41.9170780" lon="-8.7729200">
        <ele>51.4</ele>
        <time>2019-08-16T12:17:52Z</time>
      </trkpt>
      <trkpt lat="41.9170470" lon="-8.7728960">
        <ele>51.4</ele>
        <time>2019-08-16T12:17:53Z</time>
      </trkpt>
      <trkpt lat="41.9170150" lon="-8.7728390">
        <ele>51.4</ele>
        <time>2019-08-16T12:17:55Z</time>
      </trkpt>
      <trkpt lat="41.9170040" lon="-8.7727970">
        <ele>51.0</ele>
        <time>2019-08-16T12:17:56Z</time>
      </trkpt>
      <trkpt lat="41.9169900" lon="-8.7727600">
        <ele>50.6</ele>
        <time>2019-08-16T12:17:57Z</time>
      </trkpt>
      <trkpt lat="41.9169770" lon="-8.7727190">
        <ele>50.2</ele>
        <time>2019-08-16T12:17:58Z</time>
      </trkpt>
      <trkpt lat="41.9169690" lon="-8.7726720">
        <ele>49.8</ele>
        <time>2019-08-16T12:17:59Z</time>
      </trkpt>
      <trkpt lat="41.9169600" lon="-8.7726220">
        <ele>49.4</ele>
        <time>2019-08-16T12:18:00Z</time>
      </trkpt>
      <trkpt lat="41.9168360" lon="-8.7721220">
        <ele>49.0</ele>
        <time>2019-08-16T12:18:09Z</time>
      </trkpt>
      <trkpt lat="41.9168060" lon="-8.7720650">
        <ele>48.4</ele>
        <time>2019-08-16T12:18:10Z</time>
      </trkpt>
      <trkpt lat="41.9167680" lon="-8.7720050">
        <ele>48.0</ele>
        <time>2019-08-16T12:18:11Z</time>
      </trkpt>
      <trkpt lat="41.9167360" lon="-8.7719430">
        <ele>47.6</ele>
        <time>2019-08-16T12:18:12Z</time>
      </trkpt>
      <trkpt lat="41.9166970" lon="-8.7718820">
        <ele>47.2</ele>
        <time>2019-08-16T12:18:13Z</time>
      </trkpt>
      <trkpt lat="41.9166610" lon="-8.7718290">
        <ele>46.8</ele>
        <time>2019-08-16T12:18:14Z</time>
      </trkpt>
      <trkpt lat="41.9166320" lon="-8.7717650">
        <ele>46.2</ele>
        <time>2019-08-16T12:18:15Z</time>
      </trkpt>
      <trkpt lat="41.9166040" lon="-8.7717030">
        <ele>45.8</ele>
        <time>2019-08-16T12:18:16Z</time>
      </trkpt>
      <trkpt lat="41.9165790" lon="-8.7716430">
        <ele>45.4</ele>
        <time>2019-08-16T12:18:17Z</time>
      </trkpt>
      <trkpt lat="41.9165540" lon="-8.7715830">
        <ele>45.0</ele>
        <time>2019-08-16T12:18:18Z</time>
      </trkpt>
      <trkpt lat="41.9165260" lon="-8.7715270">
        <ele>44.4</ele>
        <time>2019-08-16T12:18:19Z</time>
      </trkpt>
      <trkpt lat="41.9164950" lon="-8.7714680">
        <ele>44.0</ele>
        <time>2019-08-16T12:18:20Z</time>
      </trkpt>
      <trkpt lat="41.9164670" lon="-8.7714020">
        <ele>43.4</ele>
        <time>2019-08-16T12:18:21Z</time>
      </trkpt>
      <trkpt lat="41.9164340" lon="-8.7713470">
        <ele>42.8</ele>
        <time>2019-08-16T12:18:22Z</time>
      </trkpt>
      <trkpt lat="41.9163970" lon="-8.7712940">
        <ele>42.2</ele>
        <time>2019-08-16T12:18:23Z</time>
      </trkpt>
      <trkpt lat="41.9163540" lon="-8.7712410">
        <ele>41.8</ele>
        <time>2019-08-16T12:18:24Z</time>
      </trkpt>
      <trkpt lat="41.9163120" lon="-8.7711920">
        <ele>41.2</ele>
        <time>2019-08-16T12:18:25Z</time>
      </trkpt>
      <trkpt lat="41.9162760" lon="-8.7711420">
        <ele>40.6</ele>
        <time>2019-08-16T12:18:26Z</time>
      </trkpt>
      <trkpt lat="41.9162380" lon="-8.7710890">
        <ele>40.2</ele>
        <time>2019-08-16T12:18:27Z</time>
      </trkpt>
      <trkpt lat="41.9162120" lon="-8.7710270">
        <ele>39.8</ele>
        <time>2019-08-16T12:18:28Z</time>
      </trkpt>
      <trkpt lat="41.9162010" lon="-8.7709490">
        <ele>39.2</ele>
        <time>2019-08-16T12:18:29Z</time>
      </trkpt>
      <trkpt lat="41.9162020" lon="-8.7708730">
        <ele>38.8</ele>
        <time>2019-08-16T12:18:30Z</time>
      </trkpt>
      <trkpt lat="41.9162180" lon="-8.7707920">
        <ele>38.2</ele>
        <time>2019-08-16T12:18:31Z</time>
      </trkpt>
      <trkpt lat="41.9162530" lon="-8.7707110">
        <ele>37.8</ele>
        <time>2019-08-16T12:18:32Z</time>
      </trkpt>
      <trkpt lat="41.9163040" lon="-8.7706400">
        <ele>37.2</ele>
        <time>2019-08-16T12:18:33Z</time>
      </trkpt>
      <trkpt lat="41.9163540" lon="-8.7705710">
        <ele>36.6</ele>
        <time>2019-08-16T12:18:34Z</time>
      </trkpt>
      <trkpt lat="41.9164030" lon="-8.7705040">
        <ele>36.0</ele>
        <time>2019-08-16T12:18:35Z</time>
      </trkpt>
      <trkpt lat="41.9164550" lon="-8.7704350">
        <ele>35.4</ele>
        <time>2019-08-16T12:18:36Z</time>
      </trkpt>
      <trkpt lat="41.9164980" lon="-8.7703610">
        <ele>34.8</ele>
        <time>2019-08-16T12:18:37Z</time>
      </trkpt>
      <trkpt lat="41.9165310" lon="-8.7702940">
        <ele>34.4</ele>
        <time>2019-08-16T12:18:38Z</time>
      </trkpt>
      <trkpt lat="41.9165570" lon="-8.7702340">
        <ele>33.8</ele>
        <time>2019-08-16T12:18:39Z</time>
      </trkpt>
      <trkpt lat="41.9165810" lon="-8.7701840">
        <ele>33.2</ele>
        <time>2019-08-16T12:18:40Z</time>
      </trkpt>
      <trkpt lat="41.9165990" lon="-8.7701400">
        <ele>32.8</ele>
        <time>2019-08-16T12:18:41Z</time>
      </trkpt>
      <trkpt lat="41.9166080" lon="-8.7701060">
        <ele>32.2</ele>
        <time>2019-08-16T12:18:42Z</time>
      </trkpt>
      <trkpt lat="41.9166180" lon="-8.7700770">
        <ele>31.8</ele>
        <time>2019-08-16T12:18:43Z</time>
      </trkpt>
      <trkpt lat="41.9166290" lon="-8.7700550">
        <ele>31.4</ele>
        <time>2019-08-16T12:18:44Z</time>
      </trkpt>
      <trkpt lat="41.9167030" lon="-8.7700190">
        <ele>30.8</ele>
        <time>2019-08-16T12:18:48Z</time>
      </trkpt>
      <trkpt lat="41.9167240" lon="-8.7700210">
        <ele>30.4</ele>
        <time>2019-08-16T12:18:49Z</time>
      </trkpt>
      <trkpt lat="41.9167450" lon="-8.7700190">
        <ele>30.0</ele>
        <time>2019-08-16T12:18:50Z</time>
      </trkpt>
      <trkpt lat="41.9167590" lon="-8.7700350">
        <ele>29.6</ele>
        <time>2019-08-16T12:18:51Z</time>
      </trkpt>
      <trkpt lat="41.9167700" lon="-8.7700370">
        <ele>29.2</ele>
        <time>2019-08-16T12:18:52Z</time>
      </trkpt>
      <trkpt lat="41.9168140" lon="-8.7700370">
        <ele>29.2</ele>
        <time>2019-08-16T12:18:54Z</time>
      </trkpt>
      <trkpt lat="41.9170200" lon="-8.7700650">
        <ele>28.8</ele>
        <time>2019-08-16T12:19:00Z</time>
      </trkpt>
      <trkpt lat="41.9170610" lon="-8.7700810">
        <ele>28.4</ele>
        <time>2019-08-16T12:19:01Z</time>
      </trkpt>
      <trkpt lat="41.9171020" lon="-8.7701040">
        <ele>28.0</ele>
        <time>2019-08-16T12:19:02Z</time>
      </trkpt>
      <trkpt lat="41.9171460" lon="-8.7701200">
        <ele>27.6</ele>
        <time>2019-08-16T12:19:03Z</time>
      </trkpt>
      <trkpt lat="41.9171870" lon="-8.7701350">
        <ele>27.0</ele>
        <time>2019-08-16T12:19:04Z</time>
      </trkpt>
      <trkpt lat="41.9172230" lon="-8.7700910">
        <ele>27.0</ele>
        <time>2019-08-16T12:19:05Z</time>
      </trkpt>
      <trkpt lat="41.9172420" lon="-8.7700220">
        <ele>26.6</ele>
        <time>2019-08-16T12:19:06Z</time>
      </trkpt>
      <trkpt lat="41.9172420" lon="-8.7699560">
        <ele>26.2</ele>
        <time>2019-08-16T12:19:07Z</time>
      </trkpt>
      <trkpt lat="41.9172320" lon="-8.7698940">
        <ele>25.8</ele>
        <time>2019-08-16T12:19:08Z</time>
      </trkpt>
      <trkpt lat="41.9172160" lon="-8.7698400">
        <ele>25.4</ele>
        <time>2019-08-16T12:19:09Z</time>
      </trkpt>
      <trkpt lat="41.9172070" lon="-8.7697880">
        <ele>24.8</ele>
        <time>2019-08-16T12:19:10Z</time>
      </trkpt>
      <trkpt lat="41.9171980" lon="-8.7697350">
        <ele>24.8</ele>
        <time>2019-08-16T12:19:11Z</time>
      </trkpt>
      <trkpt lat="41.9171700" lon="-8.7694420">
        <ele>24.8</ele>
        <time>2019-08-16T12:19:17Z</time>
      </trkpt>
      <trkpt lat="41.9171550" lon="-8.7691040">
        <ele>24.8</ele>
        <time>2019-08-16T12:19:25Z</time>
      </trkpt>
      <trkpt lat="41.9171160" lon="-8.7688720">
        <ele>24.8</ele>
        <time>2019-08-16T12:19:33Z</time>
      </trkpt>
      <trkpt lat="41.9170930" lon="-8.7686670">
        <ele>24.8</ele>
        <time>2019-08-16T12:19:39Z</time>
      </trkpt>
      <trkpt lat="41.9170670" lon="-8.7683220">
        <ele>24.8</ele>
        <time>2019-08-16T12:19:46Z</time>
      </trkpt>
      <trkpt lat="41.9170090" lon="-8.7680230">
        <ele>24.8</ele>
        <time>2019-08-16T12:19:53Z</time>
      </trkpt>
      <trkpt lat="41.9168800" lon="-8.7677970">
        <ele>24.8</ele>
        <time>2019-08-16T12:19:59Z</time>
      </trkpt>
      <trkpt lat="41.9167060" lon="-8.7675150">
        <ele>24.8</ele>
        <time>2019-08-16T12:20:07Z</time>
      </trkpt>
      <trkpt lat="41.9166780" lon="-8.7673550">
        <ele>24.8</ele>
        <time>2019-08-16T12:20:11Z</time>
      </trkpt>
      <trkpt lat="41.9167350" lon="-8.7670820">
        <ele>24.8</ele>
        <time>2019-08-16T12:20:18Z</time>
      </trkpt>
      <trkpt lat="41.9168550" lon="-8.7667820">
        <ele>24.8</ele>
        <time>2019-08-16T12:20:24Z</time>
      </trkpt>
      <trkpt lat="41.9168720" lon="-8.7667120">
        <ele>24.8</ele>
        <time>2019-08-16T12:20:25Z</time>
      </trkpt>
      <trkpt lat="41.9168920" lon="-8.7664900">
        <ele>24.8</ele>
        <time>2019-08-16T12:20:28Z</time>
      </trkpt>
      <trkpt lat="41.9168920" lon="-8.7662920">
        <ele>24.8</ele>
        <time>2019-08-16T12:20:31Z</time>
      </trkpt>
      <trkpt lat="41.9168840" lon="-8.7661110">
        <ele>24.8</ele>
        <time>2019-08-16T12:20:34Z</time>
      </trkpt>
      <trkpt lat="41.9168450" lon="-8.7656050">
        <ele>24.8</ele>
        <time>2019-08-16T12:20:43Z</time>
      </trkpt>
      <trkpt lat="41.9167690" lon="-8.7649720">
        <ele>24.8</ele>
        <time>2019-08-16T12:20:55Z</time>
      </trkpt>
      <trkpt lat="41.9167060" lon="-8.7647610">
        <ele>25.2</ele>
        <time>2019-08-16T12:21:00Z</time>
      </trkpt>
      <trkpt lat="41.9166940" lon="-8.7647180">
        <ele>25.6</ele>
        <time>2019-08-16T12:21:01Z</time>
      </trkpt>
      <trkpt lat="41.9166820" lon="-8.7646790">
        <ele>26.0</ele>
        <time>2019-08-16T12:21:02Z</time>
      </trkpt>
      <trkpt lat="41.9166700" lon="-8.7646420">
        <ele>26.6</ele>
        <time>2019-08-16T12:21:03Z</time>
      </trkpt>
      <trkpt lat="41.9166580" lon="-8.7646050">
        <ele>27.0</ele>
        <time>2019-08-16T12:21:04Z</time>
      </trkpt>
      <trkpt lat="41.9165850" lon="-8.7643900">
        <ele>27.4</ele>
        <time>2019-08-16T12:21:10Z</time>
      </trkpt>
      <trkpt lat="41.9165700" lon="-8.7643500">
        <ele>28.0</ele>
        <time>2019-08-16T12:21:11Z</time>
      </trkpt>
      <trkpt lat="41.9165540" lon="-8.7643140">
        <ele>28.4</ele>
        <time>2019-08-16T12:21:12Z</time>
      </trkpt>
      <trkpt lat="41.9165390" lon="-8.7642800">
        <ele>29.0</ele>
        <time>2019-08-16T12:21:13Z</time>
      </trkpt>
      <trkpt lat="41.9165280" lon="-8.7642470">
        <ele>29.4</ele>
        <time>2019-08-16T12:21:14Z</time>
      </trkpt>
      <trkpt lat="41.9164620" lon="-8.7640680">
        <ele>29.8</ele>
        <time>2019-08-16T12:21:19Z</time>
      </trkpt>
      <trkpt lat="41.9164570" lon="-8.7640300">
        <ele>30.2</ele>
        <time>2019-08-16T12:21:20Z</time>
      </trkpt>
      <trkpt lat="41.9164470" lon="-8.7639980">
        <ele>30.6</ele>
        <time>2019-08-16T12:21:21Z</time>
      </trkpt>
      <trkpt lat="41.9164370" lon="-8.7639620">
        <ele>31.0</ele>
        <time>2019-08-16T12:21:22Z</time>
      </trkpt>
      <trkpt lat="41.9164280" lon="-8.7639250">
        <ele>31.4</ele>
        <time>2019-08-16T12:21:23Z</time>
      </trkpt>
      <trkpt lat="41.9164230" lon="-8.7637660">
        <ele>32.0</ele>
        <time>2019-08-16T12:21:27Z</time>
      </trkpt>
      <trkpt lat="41.9164250" lon="-8.7637250">
        <ele>32.4</ele>
        <time>2019-08-16T12:21:28Z</time>
      </trkpt>
      <trkpt lat="41.9164280" lon="-8.7636900">
        <ele>32.8</ele>
        <time>2019-08-16T12:21:29Z</time>
      </trkpt>
      <trkpt lat="41.9164310" lon="-8.7636530">
        <ele>33.4</ele>
        <time>2019-08-16T12:21:30Z</time>
      </trkpt>
      <trkpt lat="41.9164340" lon="-8.7636120">
        <ele>33.8</ele>
        <time>2019-08-16T12:21:31Z</time>
      </trkpt>
      <trkpt lat="41.9164780" lon="-8.7634170">
        <ele>34.2</ele>
        <time>2019-08-16T12:21:36Z</time>
      </trkpt>
      <trkpt lat="41.9164880" lon="-8.7633810">
        <ele>34.6</ele>
        <time>2019-08-16T12:21:37Z</time>
      </trkpt>
      <trkpt lat="41.9165030" lon="-8.7633470">
        <ele>35.0</ele>
        <time>2019-08-16T12:21:38Z</time>
      </trkpt>
      <trkpt lat="41.9165200" lon="-8.7633090">
        <ele>35.6</ele>
        <time>2019-08-16T12:21:39Z</time>
      </trkpt>
      <trkpt lat="41.9165340" lon="-8.7632700">
        <ele>36.0</ele>
        <time>2019-08-16T12:21:40Z</time>
      </trkpt>
      <trkpt lat="41.9166380" lon="-8.7630830">
        <ele>36.0</ele>
        <time>2019-08-16T12:21:46Z</time>
      </trkpt>
      <trkpt lat="41.9167180" lon="-8.7630120">
        <ele>36.4</ele>
        <time>2019-08-16T12:21:49Z</time>
      </trkpt>
      <trkpt lat="41.9167430" lon="-8.7629890">
        <ele>36.8</ele>
        <time>2019-08-16T12:21:50Z</time>
      </trkpt>
      <trkpt lat="41.9167680" lon="-8.7629680">
        <ele>37.4</ele>
        <time>2019-08-16T12:21:51Z</time>
      </trkpt>
      <trkpt lat="41.9167980" lon="-8.7629500">
        <ele>37.8</ele>
        <time>2019-08-16T12:21:52Z</time>
      </trkpt>
      <trkpt lat="41.9168230" lon="-8.7629310">
        <ele>38.4</ele>
        <time>2019-08-16T12:21:53Z</time>
      </trkpt>
      <trkpt lat="41.9169420" lon="-8.7627660">
        <ele>38.4</ele>
        <time>2019-08-16T12:21:58Z</time>
      </trkpt>
      <trkpt lat="41.9170350" lon="-8.7626220">
        <ele>38.4</ele>
        <time>2019-08-16T12:22:02Z</time>
      </trkpt>
      <trkpt lat="41.9170600" lon="-8.7625940">
        <ele>38.8</ele>
        <time>2019-08-16T12:22:03Z</time>
      </trkpt>
      <trkpt lat="41.9170790" lon="-8.7625670">
        <ele>39.2</ele>
        <time>2019-08-16T12:22:04Z</time>
      </trkpt>
      <trkpt lat="41.9170960" lon="-8.7625360">
        <ele>39.6</ele>
        <time>2019-08-16T12:22:05Z</time>
      </trkpt>
      <trkpt lat="41.9171130" lon="-8.7625010">
        <ele>40.0</ele>
        <time>2019-08-16T12:22:06Z</time>
      </trkpt>
      <trkpt lat="41.9171320" lon="-8.7624650">
        <ele>40.4</ele>
        <time>2019-08-16T12:22:07Z</time>
      </trkpt>
      <trkpt lat="41.9172080" lon="-8.7622490">
        <ele>40.4</ele>
        <time>2019-08-16T12:22:12Z</time>
      </trkpt>
      <trkpt lat="41.9171760" lon="-8.7620220">
        <ele>40.4</ele>
        <time>2019-08-16T12:22:17Z</time>
      </trkpt>
      <trkpt lat="41.9170490" lon="-8.7617490">
        <ele>40.4</ele>
        <time>2019-08-16T12:22:24Z</time>
      </trkpt>
      <trkpt lat="41.9170400" lon="-8.7614810">
        <ele>40.4</ele>
        <time>2019-08-16T12:22:30Z</time>
      </trkpt>
      <trkpt lat="41.9170260" lon="-8.7614270">
        <ele>40.4</ele>
        <time>2019-08-16T12:22:31Z</time>
      </trkpt>
      <trkpt lat="41.9169350" lon="-8.7613070">
        <ele>40.4</ele>
        <time>2019-08-16T12:22:34Z</time>
      </trkpt>
      <trkpt lat="41.9168470" lon="-8.7612680">
        <ele>40.4</ele>
        <time>2019-08-16T12:22:38Z</time>
      </trkpt>
      <trkpt lat="41.9168260" lon="-8.7612630">
        <ele>40.4</ele>
        <time>2019-08-16T12:22:39Z</time>
      </trkpt>
      <trkpt lat="41.9168060" lon="-8.7612570">
        <ele>40.8</ele>
        <time>2019-08-16T12:22:40Z</time>
      </trkpt>
      <trkpt lat="41.9167840" lon="-8.7612450">
        <ele>41.2</ele>
        <time>2019-08-16T12:22:41Z</time>
      </trkpt>
      <trkpt lat="41.9167650" lon="-8.7612290">
        <ele>41.6</ele>
        <time>2019-08-16T12:22:42Z</time>
      </trkpt>
      <trkpt lat="41.9167450" lon="-8.7612150">
        <ele>42.2</ele>
        <time>2019-08-16T12:22:43Z</time>
      </trkpt>
      <trkpt lat="41.9167300" lon="-8.7612000">
        <ele>42.6</ele>
        <time>2019-08-16T12:22:44Z</time>
      </trkpt>
      <trkpt lat="41.9167070" lon="-8.7611630">
        <ele>42.6</ele>
        <time>2019-08-16T12:22:46Z</time>
      </trkpt>
      <trkpt lat="41.9166230" lon="-8.7610120">
        <ele>43.0</ele>
        <time>2019-08-16T12:22:54Z</time>
      </trkpt>
      <trkpt lat="41.9166150" lon="-8.7609920">
        <ele>43.4</ele>
        <time>2019-08-16T12:22:55Z</time>
      </trkpt>
      <trkpt lat="41.9166140" lon="-8.7609680">
        <ele>43.8</ele>
        <time>2019-08-16T12:22:56Z</time>
      </trkpt>
      <trkpt lat="41.9166130" lon="-8.7609470">
        <ele>44.2</ele>
        <time>2019-08-16T12:22:57Z</time>
      </trkpt>
      <trkpt lat="41.9166090" lon="-8.7609270">
        <ele>44.6</ele>
        <time>2019-08-16T12:22:58Z</time>
      </trkpt>
      <trkpt lat="41.9165830" lon="-8.7608620">
        <ele>44.6</ele>
        <time>2019-08-16T12:23:01Z</time>
      </trkpt>
      <trkpt lat="41.9165180" lon="-8.7606930">
        <ele>45.0</ele>
        <time>2019-08-16T12:23:09Z</time>
      </trkpt>
      <trkpt lat="41.9165090" lon="-8.7606740">
        <ele>45.4</ele>
        <time>2019-08-16T12:23:10Z</time>
      </trkpt>
      <trkpt lat="41.9164980" lon="-8.7606590">
        <ele>45.8</ele>
        <time>2019-08-16T12:23:11Z</time>
      </trkpt>
      <trkpt lat="41.9164880" lon="-8.7606420">
        <ele>46.2</ele>
        <time>2019-08-16T12:23:12Z</time>
      </trkpt>
      <trkpt lat="41.9164770" lon="-8.7606210">
        <ele>46.6</ele>
        <time>2019-08-16T12:23:13Z</time>
      </trkpt>
      <trkpt lat="41.9164040" lon="-8.7604370">
        <ele>46.6</ele>
        <time>2019-08-16T12:23:21Z</time>
      </trkpt>
      <trkpt lat="41.9163830" lon="-8.7603390">
        <ele>47.0</ele>
        <time>2019-08-16T12:23:25Z</time>
      </trkpt>
      <trkpt lat="41.9163750" lon="-8.7603170">
        <ele>47.6</ele>
        <time>2019-08-16T12:23:26Z</time>
      </trkpt>
      <trkpt lat="41.9163710" lon="-8.7602950">
        <ele>48.0</ele>
        <time>2019-08-16T12:23:27Z</time>
      </trkpt>
      <trkpt lat="41.9163680" lon="-8.7602740">
        <ele>48.4</ele>
        <time>2019-08-16T12:23:28Z</time>
      </trkpt>
      <trkpt lat="41.9163660" lon="-8.7602550">
        <ele>48.8</ele>
        <time>2019-08-16T12:23:29Z</time>
      </trkpt>
      <trkpt lat="41.9163730" lon="-8.7601810">
        <ele>48.8</ele>
        <time>2019-08-16T12:23:32Z</time>
      </trkpt>
      <trkpt lat="41.9165090" lon="-8.7600580">
        <ele>48.8</ele>
        <time>2019-08-16T12:23:39Z</time>
      </trkpt>
      <trkpt lat="41.9165400" lon="-8.7600370">
        <ele>49.2</ele>
        <time>2019-08-16T12:23:41Z</time>
      </trkpt>
      <trkpt lat="41.9165640" lon="-8.7600390">
        <ele>49.8</ele>
        <time>2019-08-16T12:23:42Z</time>
      </trkpt>
      <trkpt lat="41.9165790" lon="-8.7600350">
        <ele>50.2</ele>
        <time>2019-08-16T12:23:43Z</time>
      </trkpt>
      <trkpt lat="41.9165930" lon="-8.7600280">
        <ele>50.6</ele>
        <time>2019-08-16T12:23:44Z</time>
      </trkpt>
      <trkpt lat="41.9166090" lon="-8.7600170">
        <ele>51.0</ele>
        <time>2019-08-16T12:23:45Z</time>
      </trkpt>
      <trkpt lat="41.9166400" lon="-8.7600120">
        <ele>51.0</ele>
        <time>2019-08-16T12:23:47Z</time>
      </trkpt>
      <trkpt lat="41.9167090" lon="-8.7600260">
        <ele>51.0</ele>
        <time>2019-08-16T12:23:51Z</time>
      </trkpt>
      <trkpt lat="41.9167280" lon="-8.7599920">
        <ele>51.0</ele>
        <time>2019-08-16T12:23:54Z</time>
      </trkpt>
      <trkpt lat="41.9167370" lon="-8.7599960">
        <ele>51.0</ele>
        <time>2019-08-16T12:24:06Z</time>
      </trkpt>
      <trkpt lat="41.9167380" lon="-8.7599940">
        <ele>51.0</ele>
        <time>2019-08-16T12:24:07Z</time>
      </trkpt>
      <trkpt lat="41.9167740" lon="-8.7599600">
        <ele>51.0</ele>
        <time>2019-08-16T12:24:11Z</time>
      </trkpt>
      <trkpt lat="41.9168010" lon="-8.7599350">
        <ele>51.0</ele>
        <time>2019-08-16T12:24:12Z</time>
      </trkpt>
      <trkpt lat="41.9168380" lon="-8.7599010">
        <ele>51.0</ele>
        <time>2019-08-16T12:24:17Z</time>
      </trkpt>
      <trkpt lat="41.9168360" lon="-8.7599060">
        <ele>51.0</ele>
        <time>2019-08-16T12:24:18Z</time>
      </trkpt>
      <trkpt lat="41.9168410" lon="-8.7598800">
        <ele>51.0</ele>
        <time>2019-08-16T12:26:07Z</time>
      </trkpt>
      <trkpt lat="41.9167950" lon="-8.7599310">
        <ele>51.0</ele>
        <time>2019-08-16T12:26:09Z</time>
      </trkpt>
      <trkpt lat="41.9167010" lon="-8.7600760">
        <ele>51.0</ele>
        <time>2019-08-16T12:26:15Z</time>
      </trkpt>
      <trkpt lat="41.9167020" lon="-8.7600770">
        <ele>51.0</ele>
        <time>2019-08-16T12:26:16Z</time>
      </trkpt>
      <trkpt lat="41.9167170" lon="-8.7600850">
        <ele>51.0</ele>
        <time>2019-08-16T12:27:12Z</time>
      </trkpt>
      <trkpt lat="41.9167320" lon="-8.7600340">
        <ele>51.0</ele>
        <time>2019-08-16T12:27:14Z</time>
      </trkpt>
      <trkpt lat="41.9167500" lon="-8.7599950">
        <ele>51.0</ele>
        <time>2019-08-16T12:27:16Z</time>
      </trkpt>
      <trkpt lat="41.9168050" lon="-8.7599560">
        <ele>51.0</ele>
        <time>2019-08-16T12:27:19Z</time>
      </trkpt>
      <trkpt lat="41.9170420" lon="-8.7597700">
        <ele>51.0</ele>
        <time>2019-08-16T12:27:30Z</time>
      </trkpt>
      <trkpt lat="41.9170990" lon="-8.7596940">
        <ele>51.4</ele>
        <time>2019-08-16T12:27:33Z</time>
      </trkpt>
      <trkpt lat="41.9171130" lon="-8.7596650">
        <ele>51.8</ele>
        <time>2019-08-16T12:27:34Z</time>
      </trkpt>
      <trkpt lat="41.9171270" lon="-8.7596400">
        <ele>52.2</ele>
        <time>2019-08-16T12:27:35Z</time>
      </trkpt>
      <trkpt lat="41.9171410" lon="-8.7596140">
        <ele>52.6</ele>
        <time>2019-08-16T12:27:36Z</time>
      </trkpt>
      <trkpt lat="41.9171490" lon="-8.7595880">
        <ele>53.0</ele>
        <time>2019-08-16T12:27:37Z</time>
      </trkpt>
      <trkpt lat="41.9171980" lon="-8.7593670">
        <ele>53.0</ele>
        <time>2019-08-16T12:27:45Z</time>
      </trkpt>
      <trkpt lat="41.9171980" lon="-8.7593410">
        <ele>53.4</ele>
        <time>2019-08-16T12:27:46Z</time>
      </trkpt>
      <trkpt lat="41.9171960" lon="-8.7593160">
        <ele>54.0</ele>
        <time>2019-08-16T12:27:47Z</time>
      </trkpt>
      <trkpt lat="41.9171950" lon="-8.7592920">
        <ele>54.4</ele>
        <time>2019-08-16T12:27:48Z</time>
      </trkpt>
      <trkpt lat="41.9171950" lon="-8.7592680">
        <ele>54.8</ele>
        <time>2019-08-16T12:27:49Z</time>
      </trkpt>
      <trkpt lat="41.9171940" lon="-8.7592410">
        <ele>55.2</ele>
        <time>2019-08-16T12:27:50Z</time>
      </trkpt>
      <trkpt lat="41.9171820" lon="-8.7591600">
        <ele>55.2</ele>
        <time>2019-08-16T12:27:53Z</time>
      </trkpt>
      <trkpt lat="41.9171730" lon="-8.7589690">
        <ele>55.6</ele>
        <time>2019-08-16T12:28:00Z</time>
      </trkpt>
      <trkpt lat="41.9171680" lon="-8.7589430">
        <ele>56.2</ele>
        <time>2019-08-16T12:28:01Z</time>
      </trkpt>
      <trkpt lat="41.9171620" lon="-8.7589180">
        <ele>56.6</ele>
        <time>2019-08-16T12:28:02Z</time>
      </trkpt>
      <trkpt lat="41.9171550" lon="-8.7588920">
        <ele>57.0</ele>
        <time>2019-08-16T12:28:03Z</time>
      </trkpt>
      <trkpt lat="41.9171490" lon="-8.7588670">
        <ele>57.6</ele>
        <time>2019-08-16T12:28:04Z</time>
      </trkpt>
      <trkpt lat="41.9170550" lon="-8.7586900">
        <ele>57.6</ele>
        <time>2019-08-16T12:28:12Z</time>
      </trkpt>
      <trkpt lat="41.9170410" lon="-8.7586720">
        <ele>58.0</ele>
        <time>2019-08-16T12:28:13Z</time>
      </trkpt>
      <trkpt lat="41.9170280" lon="-8.7586530">
        <ele>58.4</ele>
        <time>2019-08-16T12:28:14Z</time>
      </trkpt>
      <trkpt lat="41.9170120" lon="-8.7586370">
        <ele>58.8</ele>
        <time>2019-08-16T12:28:15Z</time>
      </trkpt>
      <trkpt lat="41.9169990" lon="-8.7586190">
        <ele>59.2</ele>
        <time>2019-08-16T12:28:16Z</time>
      </trkpt>
      <trkpt lat="41.9169850" lon="-8.7586030">
        <ele>59.6</ele>
        <time>2019-08-16T12:28:17Z</time>
      </trkpt>
      <trkpt lat="41.9169420" lon="-8.7585590">
        <ele>59.6</ele>
        <time>2019-08-16T12:28:21Z</time>
      </trkpt>
      <trkpt lat="41.9169430" lon="-8.7585560">
        <ele>59.6</ele>
        <time>2019-08-16T12:28:22Z</time>
      </trkpt>
      <trkpt lat="41.9169310" lon="-8.7585370">
        <ele>59.6</ele>
        <time>2019-08-16T12:28:46Z</time>
      </trkpt>
      <trkpt lat="41.9169070" lon="-8.7585110">
        <ele>59.6</ele>
        <time>2019-08-16T12:28:48Z</time>
      </trkpt>
      <trkpt lat="41.9167940" lon="-8.7583630">
        <ele>59.6</ele>
        <time>2019-08-16T12:28:58Z</time>
      </trkpt>
      <trkpt lat="41.9167850" lon="-8.7583440">
        <ele>60.0</ele>
        <time>2019-08-16T12:28:59Z</time>
      </trkpt>
      <trkpt lat="41.9167770" lon="-8.7583230">
        <ele>60.4</ele>
        <time>2019-08-16T12:29:00Z</time>
      </trkpt>
      <trkpt lat="41.9167700" lon="-8.7582990">
        <ele>61.0</ele>
        <time>2019-08-16T12:29:01Z</time>
      </trkpt>
      <trkpt lat="41.9167610" lon="-8.7582840">
        <ele>61.4</ele>
        <time>2019-08-16T12:29:02Z</time>
      </trkpt>
      <trkpt lat="41.9167520" lon="-8.7582620">
        <ele>61.8</ele>
        <time>2019-08-16T12:29:03Z</time>
      </trkpt>
      <trkpt lat="41.9167140" lon="-8.7581610">
        <ele>61.8</ele>
        <time>2019-08-16T12:29:08Z</time>
      </trkpt>
      <trkpt lat="41.9166790" lon="-8.7580050">
        <ele>62.2</ele>
        <time>2019-08-16T12:29:15Z</time>
      </trkpt>
      <trkpt lat="41.9166400" lon="-8.7579830">
        <ele>62.6</ele>
        <time>2019-08-16T12:29:17Z</time>
      </trkpt>
      <trkpt lat="41.9166230" lon="-8.7579730">
        <ele>63.2</ele>
        <time>2019-08-16T12:29:18Z</time>
      </trkpt>
      <trkpt lat="41.9166020" lon="-8.7579710">
        <ele>63.6</ele>
        <time>2019-08-16T12:29:19Z</time>
      </trkpt>
      <trkpt lat="41.9165850" lon="-8.7579680">
        <ele>64.0</ele>
        <time>2019-08-16T12:29:20Z</time>
      </trkpt>
      <trkpt lat="41.9165580" lon="-8.7579230">
        <ele>64.0</ele>
        <time>2019-08-16T12:29:23Z</time>
      </trkpt>
      <trkpt lat="41.9163920" lon="-8.7578450">
        <ele>64.0</ele>
        <time>2019-08-16T12:29:33Z</time>
      </trkpt>
      <trkpt lat="41.9163840" lon="-8.7578290">
        <ele>64.4</ele>
        <time>2019-08-16T12:29:34Z</time>
      </trkpt>
      <trkpt lat="41.9163730" lon="-8.7578060">
        <ele>64.8</ele>
        <time>2019-08-16T12:29:35Z</time>
      </trkpt>
      <trkpt lat="41.9163650" lon="-8.7577860">
        <ele>65.2</ele>
        <time>2019-08-16T12:29:36Z</time>
      </trkpt>
      <trkpt lat="41.9163650" lon="-8.7577620">
        <ele>65.6</ele>
        <time>2019-08-16T12:29:37Z</time>
      </trkpt>
      <trkpt lat="41.9163650" lon="-8.7577400">
        <ele>66.0</ele>
        <time>2019-08-16T12:29:38Z</time>
      </trkpt>
      <trkpt lat="41.9163690" lon="-8.7577100">
        <ele>66.4</ele>
        <time>2019-08-16T12:29:39Z</time>
      </trkpt>
      <trkpt lat="41.9163720" lon="-8.7576870">
        <ele>66.8</ele>
        <time>2019-08-16T12:29:40Z</time>
      </trkpt>
      <trkpt lat="41.9163770" lon="-8.7576650">
        <ele>67.2</ele>
        <time>2019-08-16T12:29:41Z</time>
      </trkpt>
      <trkpt lat="41.9163840" lon="-8.7576450">
        <ele>67.6</ele>
        <time>2019-08-16T12:29:42Z</time>
      </trkpt>
      <trkpt lat="41.9163920" lon="-8.7576240">
        <ele>68.0</ele>
        <time>2019-08-16T12:29:43Z</time>
      </trkpt>
      <trkpt lat="41.9164260" lon="-8.7575090">
        <ele>68.0</ele>
        <time>2019-08-16T12:29:48Z</time>
      </trkpt>
      <trkpt lat="41.9164940" lon="-8.7573860">
        <ele>68.4</ele>
        <time>2019-08-16T12:29:55Z</time>
      </trkpt>
      <trkpt lat="41.9165040" lon="-8.7573650">
        <ele>69.0</ele>
        <time>2019-08-16T12:29:56Z</time>
      </trkpt>
      <trkpt lat="41.9165150" lon="-8.7573430">
        <ele>69.4</ele>
        <time>2019-08-16T12:29:57Z</time>
      </trkpt>
      <trkpt lat="41.9165320" lon="-8.7573200">
        <ele>69.8</ele>
        <time>2019-08-16T12:29:58Z</time>
      </trkpt>
      <trkpt lat="41.9165480" lon="-8.7573040">
        <ele>70.2</ele>
        <time>2019-08-16T12:29:59Z</time>
      </trkpt>
      <trkpt lat="41.9166400" lon="-8.7571260">
        <ele>70.6</ele>
        <time>2019-08-16T12:30:07Z</time>
      </trkpt>
      <trkpt lat="41.9166530" lon="-8.7571040">
        <ele>71.0</ele>
        <time>2019-08-16T12:30:08Z</time>
      </trkpt>
      <trkpt lat="41.9166670" lon="-8.7570810">
        <ele>71.4</ele>
        <time>2019-08-16T12:30:09Z</time>
      </trkpt>
      <trkpt lat="41.9166790" lon="-8.7570580">
        <ele>71.8</ele>
        <time>2019-08-16T12:30:10Z</time>
      </trkpt>
      <trkpt lat="41.9166890" lon="-8.7570400">
        <ele>72.2</ele>
        <time>2019-08-16T12:30:11Z</time>
      </trkpt>
      <trkpt lat="41.9167240" lon="-8.7569110">
        <ele>72.2</ele>
        <time>2019-08-16T12:30:16Z</time>
      </trkpt>
      <trkpt lat="41.9167360" lon="-8.7567390">
        <ele>72.8</ele>
        <time>2019-08-16T12:30:22Z</time>
      </trkpt>
      <trkpt lat="41.9167320" lon="-8.7567110">
        <ele>73.2</ele>
        <time>2019-08-16T12:30:23Z</time>
      </trkpt>
      <trkpt lat="41.9167330" lon="-8.7566840">
        <ele>73.6</ele>
        <time>2019-08-16T12:30:24Z</time>
      </trkpt>
      <trkpt lat="41.9167340" lon="-8.7566600">
        <ele>74.0</ele>
        <time>2019-08-16T12:30:25Z</time>
      </trkpt>
      <trkpt lat="41.9167320" lon="-8.7566370">
        <ele>74.4</ele>
        <time>2019-08-16T12:30:26Z</time>
      </trkpt>
      <trkpt lat="41.9167400" lon="-8.7564610">
        <ele>74.4</ele>
        <time>2019-08-16T12:30:32Z</time>
      </trkpt>
      <trkpt lat="41.9167520" lon="-8.7564110">
        <ele>75.0</ele>
        <time>2019-08-16T12:30:34Z</time>
      </trkpt>
      <trkpt lat="41.9167570" lon="-8.7563870">
        <ele>75.4</ele>
        <time>2019-08-16T12:30:35Z</time>
      </trkpt>
      <trkpt lat="41.9167630" lon="-8.7563630">
        <ele>75.8</ele>
        <time>2019-08-16T12:30:36Z</time>
      </trkpt>
      <trkpt lat="41.9167730" lon="-8.7563420">
        <ele>76.2</ele>
        <time>2019-08-16T12:30:37Z</time>
      </trkpt>
      <trkpt lat="41.9167840" lon="-8.7563190">
        <ele>76.6</ele>
        <time>2019-08-16T12:30:38Z</time>
      </trkpt>
      <trkpt lat="41.9167940" lon="-8.7562970">
        <ele>76.6</ele>
        <time>2019-08-16T12:30:39Z</time>
      </trkpt>
      <trkpt lat="41.9168690" lon="-8.7561360">
        <ele>76.6</ele>
        <time>2019-08-16T12:30:48Z</time>
      </trkpt>
      <trkpt lat="41.9168770" lon="-8.7561310">
        <ele>76.6</ele>
        <time>2019-08-16T12:30:49Z</time>
      </trkpt>
      <trkpt lat="41.9169230" lon="-8.7561410">
        <ele>76.6</ele>
        <time>2019-08-16T12:30:53Z</time>
      </trkpt>
      <trkpt lat="41.9169340" lon="-8.7561300">
        <ele>76.6</ele>
        <time>2019-08-16T12:30:54Z</time>
      </trkpt>
      <trkpt lat="41.9169460" lon="-8.7561310">
        <ele>76.6</ele>
        <time>2019-08-16T12:30:58Z</time>
      </trkpt>
      <trkpt lat="41.9169500" lon="-8.7561420">
        <ele>78.6</ele>
        <time>2019-08-16T12:31:22Z</time>
      </trkpt>
      <trkpt lat="41.9169930" lon="-8.7561710">
        <ele>78.6</ele>
        <time>2019-08-16T12:31:25Z</time>
      </trkpt>
      <trkpt lat="41.9170150" lon="-8.7561670">
        <ele>78.6</ele>
        <time>2019-08-16T12:31:27Z</time>
      </trkpt>
      <trkpt lat="41.9170110" lon="-8.7561650">
        <ele>78.6</ele>
        <time>2019-08-16T12:31:28Z</time>
      </trkpt>
      <trkpt lat="41.9170080" lon="-8.7561640">
        <ele>78.6</ele>
        <time>2019-08-16T12:38:25Z</time>
      </trkpt>
      <trkpt lat="41.9169980" lon="-8.7561460">
        <ele>78.6</ele>
        <time>2019-08-16T12:38:26Z</time>
      </trkpt>
      <trkpt lat="41.9169460" lon="-8.7560480">
        <ele>78.6</ele>
        <time>2019-08-16T12:38:31Z</time>
      </trkpt>
      <trkpt lat="41.9169540" lon="-8.7560330">
        <ele>78.6</ele>
        <time>2019-08-16T12:38:32Z</time>
      </trkpt>
      <trkpt lat="41.9169920" lon="-8.7559870">
        <ele>78.6</ele>
        <time>2019-08-16T12:38:35Z</time>
      </trkpt>
      <trkpt lat="41.9170280" lon="-8.7559440">
        <ele>78.6</ele>
        <time>2019-08-16T12:38:38Z</time>
      </trkpt>
      <trkpt lat="41.9171420" lon="-8.7558050">
        <ele>78.6</ele>
        <time>2019-08-16T12:38:48Z</time>
      </trkpt>
      <trkpt lat="41.9172190" lon="-8.7556820">
        <ele>79.0</ele>
        <time>2019-08-16T12:38:56Z</time>
      </trkpt>
      <trkpt lat="41.9172360" lon="-8.7556650">
        <ele>79.4</ele>
        <time>2019-08-16T12:38:57Z</time>
      </trkpt>
      <trkpt lat="41.9172460" lon="-8.7556460">
        <ele>79.8</ele>
        <time>2019-08-16T12:38:58Z</time>
      </trkpt>
      <trkpt lat="41.9172640" lon="-8.7556320">
        <ele>80.2</ele>
        <time>2019-08-16T12:38:59Z</time>
      </trkpt>
      <trkpt lat="41.9172750" lon="-8.7556170">
        <ele>80.6</ele>
        <time>2019-08-16T12:39:00Z</time>
      </trkpt>
      <trkpt lat="41.9173370" lon="-8.7555310">
        <ele>80.6</ele>
        <time>2019-08-16T12:39:06Z</time>
      </trkpt>
      <trkpt lat="41.9173750" lon="-8.7554030">
        <ele>81.0</ele>
        <time>2019-08-16T12:39:12Z</time>
      </trkpt>
      <trkpt lat="41.9173830" lon="-8.7553810">
        <ele>81.4</ele>
        <time>2019-08-16T12:39:13Z</time>
      </trkpt>
      <trkpt lat="41.9173910" lon="-8.7553610">
        <ele>81.8</ele>
        <time>2019-08-16T12:39:14Z</time>
      </trkpt>
      <trkpt lat="41.9173990" lon="-8.7553380">
        <ele>82.2</ele>
        <time>2019-08-16T12:39:15Z</time>
      </trkpt>
      <trkpt lat="41.9174040" lon="-8.7553140">
        <ele>82.6</ele>
        <time>2019-08-16T12:39:16Z</time>
      </trkpt>
      <trkpt lat="41.9174480" lon="-8.7550910">
        <ele>82.6</ele>
        <time>2019-08-16T12:39:26Z</time>
      </trkpt>
      <trkpt lat="41.9175650" lon="-8.7548350">
        <ele>83.2</ele>
        <time>2019-08-16T12:39:37Z</time>
      </trkpt>
      <trkpt lat="41.9175720" lon="-8.7548070">
        <ele>83.6</ele>
        <time>2019-08-16T12:39:38Z</time>
      </trkpt>
      <trkpt lat="41.9175770" lon="-8.7547770">
        <ele>84.0</ele>
        <time>2019-08-16T12:39:39Z</time>
      </trkpt>
      <trkpt lat="41.9175840" lon="-8.7547480">
        <ele>84.4</ele>
        <time>2019-08-16T12:39:40Z</time>
      </trkpt>
      <trkpt lat="41.9175860" lon="-8.7547210">
        <ele>84.8</ele>
        <time>2019-08-16T12:39:41Z</time>
      </trkpt>
      <trkpt lat="41.9176170" lon="-8.7546050">
        <ele>84.8</ele>
        <time>2019-08-16T12:39:46Z</time>
      </trkpt>
      <trkpt lat="41.9177000" lon="-8.7544260">
        <ele>84.8</ele>
        <time>2019-08-16T12:39:54Z</time>
      </trkpt>
      <trkpt lat="41.9178020" lon="-8.7542370">
        <ele>84.8</ele>
        <time>2019-08-16T12:39:58Z</time>
      </trkpt>
      <trkpt lat="41.9178330" lon="-8.7541850">
        <ele>84.4</ele>
        <time>2019-08-16T12:39:59Z</time>
      </trkpt>
      <trkpt lat="41.9178630" lon="-8.7541390">
        <ele>84.0</ele>
        <time>2019-08-16T12:40:00Z</time>
      </trkpt>
      <trkpt lat="41.9178990" lon="-8.7540920">
        <ele>83.6</ele>
        <time>2019-08-16T12:40:01Z</time>
      </trkpt>
      <trkpt lat="41.9179360" lon="-8.7540460">
        <ele>83.0</ele>
        <time>2019-08-16T12:40:02Z</time>
      </trkpt>
      <trkpt lat="41.9179690" lon="-8.7540030">
        <ele>82.4</ele>
        <time>2019-08-16T12:40:03Z</time>
      </trkpt>
      <trkpt lat="41.9180130" lon="-8.7539550">
        <ele>81.8</ele>
        <time>2019-08-16T12:40:04Z</time>
      </trkpt>
      <trkpt lat="41.9180480" lon="-8.7539110">
        <ele>81.2</ele>
        <time>2019-08-16T12:40:05Z</time>
      </trkpt>
      <trkpt lat="41.9180820" lon="-8.7538600">
        <ele>80.6</ele>
        <time>2019-08-16T12:40:06Z</time>
      </trkpt>
      <trkpt lat="41.9180860" lon="-8.7537910">
        <ele>80.0</ele>
        <time>2019-08-16T12:40:07Z</time>
      </trkpt>
      <trkpt lat="41.9181050" lon="-8.7536480">
        <ele>79.6</ele>
        <time>2019-08-16T12:40:09Z</time>
      </trkpt>
      <trkpt lat="41.9181030" lon="-8.7535820">
        <ele>79.2</ele>
        <time>2019-08-16T12:40:10Z</time>
      </trkpt>
      <trkpt lat="41.9181130" lon="-8.7535130">
        <ele>78.8</ele>
        <time>2019-08-16T12:40:11Z</time>
      </trkpt>
      <trkpt lat="41.9181520" lon="-8.7534620">
        <ele>78.4</ele>
        <time>2019-08-16T12:40:12Z</time>
      </trkpt>
      <trkpt lat="41.9181870" lon="-8.7534090">
        <ele>78.0</ele>
        <time>2019-08-16T12:40:13Z</time>
      </trkpt>
      <trkpt lat="41.9182950" lon="-8.7532730">
        <ele>78.0</ele>
        <time>2019-08-16T12:40:16Z</time>
      </trkpt>
      <trkpt lat="41.9183310" lon="-8.7532280">
        <ele>78.0</ele>
        <time>2019-08-16T12:40:17Z</time>
      </trkpt>
      <trkpt lat="41.9184910" lon="-8.7530440">
        <ele>78.0</ele>
        <time>2019-08-16T12:40:22Z</time>
      </trkpt>
      <trkpt lat="41.9185340" lon="-8.7530220">
        <ele>78.0</ele>
        <time>2019-08-16T12:40:23Z</time>
      </trkpt>
      <trkpt lat="41.9186170" lon="-8.7530090">
        <ele>78.0</ele>
        <time>2019-08-16T12:40:26Z</time>
      </trkpt>
      <trkpt lat="41.9186400" lon="-8.7530150">
        <ele>78.0</ele>
        <time>2019-08-16T12:40:27Z</time>
      </trkpt>
      <trkpt lat="41.9187950" lon="-8.7530640">
        <ele>78.0</ele>
        <time>2019-08-16T12:40:33Z</time>
      </trkpt>
      <trkpt lat="41.9190180" lon="-8.7531600">
        <ele>78.0</ele>
        <time>2019-08-16T12:40:42Z</time>
      </trkpt>
      <trkpt lat="41.9190830" lon="-8.7531620">
        <ele>78.4</ele>
        <time>2019-08-16T12:40:45Z</time>
      </trkpt>
      <trkpt lat="41.9191030" lon="-8.7531720">
        <ele>78.8</ele>
        <time>2019-08-16T12:40:46Z</time>
      </trkpt>
      <trkpt lat="41.9191240" lon="-8.7531840">
        <ele>79.2</ele>
        <time>2019-08-16T12:40:47Z</time>
      </trkpt>
      <trkpt lat="41.9191400" lon="-8.7531930">
        <ele>79.6</ele>
        <time>2019-08-16T12:40:48Z</time>
      </trkpt>
      <trkpt lat="41.9191590" lon="-8.7532070">
        <ele>80.0</ele>
        <time>2019-08-16T12:40:49Z</time>
      </trkpt>
      <trkpt lat="41.9191980" lon="-8.7532370">
        <ele>80.0</ele>
        <time>2019-08-16T12:40:51Z</time>
      </trkpt>
      <trkpt lat="41.9192780" lon="-8.7532300">
        <ele>80.0</ele>
        <time>2019-08-16T12:40:56Z</time>
      </trkpt>
      <trkpt lat="41.9193150" lon="-8.7531910">
        <ele>80.6</ele>
        <time>2019-08-16T12:40:58Z</time>
      </trkpt>
      <trkpt lat="41.9193380" lon="-8.7531730">
        <ele>81.0</ele>
        <time>2019-08-16T12:40:59Z</time>
      </trkpt>
      <trkpt lat="41.9193570" lon="-8.7531500">
        <ele>81.4</ele>
        <time>2019-08-16T12:41:00Z</time>
      </trkpt>
      <trkpt lat="41.9193760" lon="-8.7531300">
        <ele>81.8</ele>
        <time>2019-08-16T12:41:01Z</time>
      </trkpt>
      <trkpt lat="41.9193960" lon="-8.7531060">
        <ele>82.2</ele>
        <time>2019-08-16T12:41:02Z</time>
      </trkpt>
      <trkpt lat="41.9194330" lon="-8.7530640">
        <ele>82.2</ele>
        <time>2019-08-16T12:41:04Z</time>
      </trkpt>
      <trkpt lat="41.9195460" lon="-8.7528920">
        <ele>82.2</ele>
        <time>2019-08-16T12:41:12Z</time>
      </trkpt>
      <trkpt lat="41.9196300" lon="-8.7527680">
        <ele>82.2</ele>
        <time>2019-08-16T12:41:19Z</time>
      </trkpt>
      <trkpt lat="41.9196410" lon="-8.7527430">
        <ele>82.6</ele>
        <time>2019-08-16T12:41:20Z</time>
      </trkpt>
      <trkpt lat="41.9196530" lon="-8.7527160">
        <ele>83.0</ele>
        <time>2019-08-16T12:41:21Z</time>
      </trkpt>
      <trkpt lat="41.9196630" lon="-8.7526880">
        <ele>83.4</ele>
        <time>2019-08-16T12:41:22Z</time>
      </trkpt>
      <trkpt lat="41.9196800" lon="-8.7526570">
        <ele>83.8</ele>
        <time>2019-08-16T12:41:23Z</time>
      </trkpt>
      <trkpt lat="41.9196950" lon="-8.7526300">
        <ele>84.2</ele>
        <time>2019-08-16T12:41:24Z</time>
      </trkpt>
      <trkpt lat="41.9197200" lon="-8.7525310">
        <ele>84.2</ele>
        <time>2019-08-16T12:41:27Z</time>
      </trkpt>
      <trkpt lat="41.9197210" lon="-8.7523950">
        <ele>84.2</ele>
        <time>2019-08-16T12:41:31Z</time>
      </trkpt>
      <trkpt lat="41.9197180" lon="-8.7523390">
        <ele>84.2</ele>
        <time>2019-08-16T12:41:33Z</time>
      </trkpt>
      <trkpt lat="41.9197250" lon="-8.7521220">
        <ele>84.2</ele>
        <time>2019-08-16T12:41:41Z</time>
      </trkpt>
      <trkpt lat="41.9197220" lon="-8.7519190">
        <ele>84.2</ele>
        <time>2019-08-16T12:41:47Z</time>
      </trkpt>
      <trkpt lat="41.9197270" lon="-8.7518090">
        <ele>83.8</ele>
        <time>2019-08-16T12:41:49Z</time>
      </trkpt>
      <trkpt lat="41.9197250" lon="-8.7517500">
        <ele>83.4</ele>
        <time>2019-08-16T12:41:50Z</time>
      </trkpt>
      <trkpt lat="41.9197130" lon="-8.7516980">
        <ele>82.8</ele>
        <time>2019-08-16T12:41:51Z</time>
      </trkpt>
      <trkpt lat="41.9196980" lon="-8.7516530">
        <ele>82.4</ele>
        <time>2019-08-16T12:41:52Z</time>
      </trkpt>
      <trkpt lat="41.9196790" lon="-8.7516290">
        <ele>82.0</ele>
        <time>2019-08-16T12:41:53Z</time>
      </trkpt>
      <trkpt lat="41.9195640" lon="-8.7515820">
        <ele>82.0</ele>
        <time>2019-08-16T12:41:56Z</time>
      </trkpt>
      <trkpt lat="41.9195240" lon="-8.7515570">
        <ele>82.0</ele>
        <time>2019-08-16T12:41:57Z</time>
      </trkpt>
      <trkpt lat="41.9194490" lon="-8.7515010">
        <ele>81.4</ele>
        <time>2019-08-16T12:41:59Z</time>
      </trkpt>
      <trkpt lat="41.9194070" lon="-8.7514750">
        <ele>81.0</ele>
        <time>2019-08-16T12:42:00Z</time>
      </trkpt>
      <trkpt lat="41.9193670" lon="-8.7514470">
        <ele>80.6</ele>
        <time>2019-08-16T12:42:01Z</time>
      </trkpt>
      <trkpt lat="41.9193270" lon="-8.7514170">
        <ele>80.2</ele>
        <time>2019-08-16T12:42:02Z</time>
      </trkpt>
      <trkpt lat="41.9192860" lon="-8.7513830">
        <ele>79.6</ele>
        <time>2019-08-16T12:42:03Z</time>
      </trkpt>
      <trkpt lat="41.9191670" lon="-8.7512870">
        <ele>79.6</ele>
        <time>2019-08-16T12:42:06Z</time>
      </trkpt>
      <trkpt lat="41.9189120" lon="-8.7510190">
        <ele>79.6</ele>
        <time>2019-08-16T12:42:13Z</time>
      </trkpt>
      <trkpt lat="41.9188340" lon="-8.7507010">
        <ele>79.6</ele>
        <time>2019-08-16T12:42:19Z</time>
      </trkpt>
      <trkpt lat="41.9189130" lon="-8.7505450">
        <ele>79.6</ele>
        <time>2019-08-16T12:42:23Z</time>
      </trkpt>
      <trkpt lat="41.9189950" lon="-8.7504820">
        <ele>79.6</ele>
        <time>2019-08-16T12:42:27Z</time>
      </trkpt>
      <trkpt lat="41.9190310" lon="-8.7504850">
        <ele>79.6</ele>
        <time>2019-08-16T12:42:28Z</time>
      </trkpt>
      <trkpt lat="41.9192710" lon="-8.7505100">
        <ele>79.6</ele>
        <time>2019-08-16T12:42:35Z</time>
      </trkpt>
      <trkpt lat="41.9193630" lon="-8.7505010">
        <ele>79.6</ele>
        <time>2019-08-16T12:42:40Z</time>
      </trkpt>
      <trkpt lat="41.9193640" lon="-8.7505160">
        <ele>79.6</ele>
        <time>2019-08-16T12:42:51Z</time>
      </trkpt>
      <trkpt lat="41.9194900" lon="-8.7505100">
        <ele>79.6</ele>
        <time>2019-08-16T12:42:56Z</time>
      </trkpt>
      <trkpt lat="41.9197160" lon="-8.7504440">
        <ele>79.6</ele>
        <time>2019-08-16T12:43:03Z</time>
      </trkpt>
      <trkpt lat="41.9199510" lon="-8.7503290">
        <ele>79.6</ele>
        <time>2019-08-16T12:43:10Z</time>
      </trkpt>
      <trkpt lat="41.9202570" lon="-8.7503190">
        <ele>79.6</ele>
        <time>2019-08-16T12:43:18Z</time>
      </trkpt>
      <trkpt lat="41.9202870" lon="-8.7503140">
        <ele>80.2</ele>
        <time>2019-08-16T12:43:19Z</time>
      </trkpt>
      <trkpt lat="41.9203110" lon="-8.7502950">
        <ele>80.6</ele>
        <time>2019-08-16T12:43:20Z</time>
      </trkpt>
      <trkpt lat="41.9203360" lon="-8.7502740">
        <ele>81.0</ele>
        <time>2019-08-16T12:43:21Z</time>
      </trkpt>
      <trkpt lat="41.9203610" lon="-8.7502590">
        <ele>81.4</ele>
        <time>2019-08-16T12:43:22Z</time>
      </trkpt>
      <trkpt lat="41.9203840" lon="-8.7502470">
        <ele>81.8</ele>
        <time>2019-08-16T12:43:23Z</time>
      </trkpt>
      <trkpt lat="41.9205020" lon="-8.7501950">
        <ele>81.8</ele>
        <time>2019-08-16T12:43:29Z</time>
      </trkpt>
      <trkpt lat="41.9205930" lon="-8.7500910">
        <ele>82.2</ele>
        <time>2019-08-16T12:43:34Z</time>
      </trkpt>
      <trkpt lat="41.9206120" lon="-8.7500670">
        <ele>82.6</ele>
        <time>2019-08-16T12:43:35Z</time>
      </trkpt>
      <trkpt lat="41.9206300" lon="-8.7500370">
        <ele>83.0</ele>
        <time>2019-08-16T12:43:36Z</time>
      </trkpt>
      <trkpt lat="41.9206450" lon="-8.7500040">
        <ele>83.4</ele>
        <time>2019-08-16T12:43:37Z</time>
      </trkpt>
      <trkpt lat="41.9206560" lon="-8.7499730">
        <ele>83.8</ele>
        <time>2019-08-16T12:43:38Z</time>
      </trkpt>
      <trkpt lat="41.9206890" lon="-8.7498840">
        <ele>84.2</ele>
        <time>2019-08-16T12:43:41Z</time>
      </trkpt>
      <trkpt lat="41.9207040" lon="-8.7498500">
        <ele>84.8</ele>
        <time>2019-08-16T12:43:42Z</time>
      </trkpt>
      <trkpt lat="41.9207160" lon="-8.7498150">
        <ele>85.2</ele>
        <time>2019-08-16T12:43:43Z</time>
      </trkpt>
      <trkpt lat="41.9207240" lon="-8.7497780">
        <ele>85.6</ele>
        <time>2019-08-16T12:43:44Z</time>
      </trkpt>
      <trkpt lat="41.9207370" lon="-8.7497440">
        <ele>86.2</ele>
        <time>2019-08-16T12:43:45Z</time>
      </trkpt>
      <trkpt lat="41.9208150" lon="-8.7495620">
        <ele>86.6</ele>
        <time>2019-08-16T12:43:50Z</time>
      </trkpt>
      <trkpt lat="41.9208310" lon="-8.7495230">
        <ele>87.0</ele>
        <time>2019-08-16T12:43:51Z</time>
      </trkpt>
      <trkpt lat="41.9208480" lon="-8.7494810">
        <ele>87.4</ele>
        <time>2019-08-16T12:43:52Z</time>
      </trkpt>
      <trkpt lat="41.9208600" lon="-8.7494440">
        <ele>87.8</ele>
        <time>2019-08-16T12:43:53Z</time>
      </trkpt>
      <trkpt lat="41.9208780" lon="-8.7494020">
        <ele>88.2</ele>
        <time>2019-08-16T12:43:54Z</time>
      </trkpt>
      <trkpt lat="41.9209700" lon="-8.7492030">
        <ele>88.6</ele>
        <time>2019-08-16T12:43:59Z</time>
      </trkpt>
      <trkpt lat="41.9209820" lon="-8.7491820">
        <ele>89.0</ele>
        <time>2019-08-16T12:44:00Z</time>
      </trkpt>
      <trkpt lat="41.9209950" lon="-8.7491560">
        <ele>89.4</ele>
        <time>2019-08-16T12:44:01Z</time>
      </trkpt>
      <trkpt lat="41.9210170" lon="-8.7491370">
        <ele>90.0</ele>
        <time>2019-08-16T12:44:02Z</time>
      </trkpt>
      <trkpt lat="41.9210370" lon="-8.7491140">
        <ele>90.4</ele>
        <time>2019-08-16T12:44:03Z</time>
      </trkpt>
      <trkpt lat="41.9210810" lon="-8.7490370">
        <ele>90.4</ele>
        <time>2019-08-16T12:44:07Z</time>
      </trkpt>
      <trkpt lat="41.9211400" lon="-8.7488890">
        <ele>90.4</ele>
        <time>2019-08-16T12:44:13Z</time>
      </trkpt>
      <trkpt lat="41.9213090" lon="-8.7487980">
        <ele>90.4</ele>
        <time>2019-08-16T12:44:18Z</time>
      </trkpt>
      <trkpt lat="41.9213790" lon="-8.7487880">
        <ele>90.0</ele>
        <time>2019-08-16T12:44:20Z</time>
      </trkpt>
      <trkpt lat="41.9214130" lon="-8.7487820">
        <ele>89.4</ele>
        <time>2019-08-16T12:44:21Z</time>
      </trkpt>
      <trkpt lat="41.9214450" lon="-8.7487800">
        <ele>89.0</ele>
        <time>2019-08-16T12:44:22Z</time>
      </trkpt>
      <trkpt lat="41.9214710" lon="-8.7487740">
        <ele>88.6</ele>
        <time>2019-08-16T12:44:23Z</time>
      </trkpt>
      <trkpt lat="41.9215060" lon="-8.7487680">
        <ele>88.2</ele>
        <time>2019-08-16T12:44:24Z</time>
      </trkpt>
      <trkpt lat="41.9216770" lon="-8.7486570">
        <ele>88.2</ele>
        <time>2019-08-16T12:44:29Z</time>
      </trkpt>
      <trkpt lat="41.9218650" lon="-8.7484310">
        <ele>87.8</ele>
        <time>2019-08-16T12:44:34Z</time>
      </trkpt>
      <trkpt lat="41.9218950" lon="-8.7483790">
        <ele>87.4</ele>
        <time>2019-08-16T12:44:35Z</time>
      </trkpt>
      <trkpt lat="41.9219260" lon="-8.7483270">
        <ele>87.0</ele>
        <time>2019-08-16T12:44:36Z</time>
      </trkpt>
      <trkpt lat="41.9219680" lon="-8.7482700">
        <ele>86.4</ele>
        <time>2019-08-16T12:44:37Z</time>
      </trkpt>
      <trkpt lat="41.9220040" lon="-8.7482200">
        <ele>85.8</ele>
        <time>2019-08-16T12:44:38Z</time>
      </trkpt>
      <trkpt lat="41.9220450" lon="-8.7481520">
        <ele>85.2</ele>
        <time>2019-08-16T12:44:39Z</time>
      </trkpt>
      <trkpt lat="41.9220960" lon="-8.7480830">
        <ele>84.6</ele>
        <time>2019-08-16T12:44:40Z</time>
      </trkpt>
      <trkpt lat="41.9221400" lon="-8.7480200">
        <ele>84.0</ele>
        <time>2019-08-16T12:44:41Z</time>
      </trkpt>
      <trkpt lat="41.9221820" lon="-8.7479570">
        <ele>83.4</ele>
        <time>2019-08-16T12:44:42Z</time>
      </trkpt>
      <trkpt lat="41.9222310" lon="-8.7478900">
        <ele>82.8</ele>
        <time>2019-08-16T12:44:43Z</time>
      </trkpt>
      <trkpt lat="41.9222790" lon="-8.7478310">
        <ele>82.2</ele>
        <time>2019-08-16T12:44:44Z</time>
      </trkpt>
      <trkpt lat="41.9223200" lon="-8.7477820">
        <ele>81.4</ele>
        <time>2019-08-16T12:44:45Z</time>
      </trkpt>
      <trkpt lat="41.9223650" lon="-8.7477350">
        <ele>80.6</ele>
        <time>2019-08-16T12:44:46Z</time>
      </trkpt>
      <trkpt lat="41.9224280" lon="-8.7476900">
        <ele>79.8</ele>
        <time>2019-08-16T12:44:47Z</time>
      </trkpt>
      <trkpt lat="41.9225020" lon="-8.7476490">
        <ele>78.8</ele>
        <time>2019-08-16T12:44:48Z</time>
      </trkpt>
      <trkpt lat="41.9225650" lon="-8.7476200">
        <ele>78.0</ele>
        <time>2019-08-16T12:44:49Z</time>
      </trkpt>
      <trkpt lat="41.9226410" lon="-8.7475910">
        <ele>77.2</ele>
        <time>2019-08-16T12:44:50Z</time>
      </trkpt>
      <trkpt lat="41.9227040" lon="-8.7475810">
        <ele>76.2</ele>
        <time>2019-08-16T12:44:51Z</time>
      </trkpt>
      <trkpt lat="41.9227740" lon="-8.7475650">
        <ele>75.4</ele>
        <time>2019-08-16T12:44:52Z</time>
      </trkpt>
      <trkpt lat="41.9228400" lon="-8.7475530">
        <ele>74.4</ele>
        <time>2019-08-16T12:44:53Z</time>
      </trkpt>
      <trkpt lat="41.9229120" lon="-8.7475430">
        <ele>73.2</ele>
        <time>2019-08-16T12:44:54Z</time>
      </trkpt>
      <trkpt lat="41.9229690" lon="-8.7475390">
        <ele>72.2</ele>
        <time>2019-08-16T12:44:55Z</time>
      </trkpt>
      <trkpt lat="41.9230220" lon="-8.7475340">
        <ele>71.4</ele>
        <time>2019-08-16T12:44:56Z</time>
      </trkpt>
      <trkpt lat="41.9230610" lon="-8.7475370">
        <ele>70.4</ele>
        <time>2019-08-16T12:44:57Z</time>
      </trkpt>
      <trkpt lat="41.9231020" lon="-8.7475320">
        <ele>69.4</ele>
        <time>2019-08-16T12:44:58Z</time>
      </trkpt>
      <trkpt lat="41.9231510" lon="-8.7475070">
        <ele>68.4</ele>
        <time>2019-08-16T12:44:59Z</time>
      </trkpt>
      <trkpt lat="41.9231760" lon="-8.7474430">
        <ele>67.8</ele>
        <time>2019-08-16T12:45:00Z</time>
      </trkpt>
      <trkpt lat="41.9231950" lon="-8.7473700">
        <ele>67.0</ele>
        <time>2019-08-16T12:45:01Z</time>
      </trkpt>
      <trkpt lat="41.9231830" lon="-8.7472860">
        <ele>66.2</ele>
        <time>2019-08-16T12:45:02Z</time>
      </trkpt>
      <trkpt lat="41.9231840" lon="-8.7472120">
        <ele>65.6</ele>
        <time>2019-08-16T12:45:03Z</time>
      </trkpt>
      <trkpt lat="41.9231870" lon="-8.7471260">
        <ele>64.8</ele>
        <time>2019-08-16T12:45:04Z</time>
      </trkpt>
      <trkpt lat="41.9232610" lon="-8.7469920">
        <ele>64.8</ele>
        <time>2019-08-16T12:45:06Z</time>
      </trkpt>
      <trkpt lat="41.9233130" lon="-8.7469510">
        <ele>64.8</ele>
        <time>2019-08-16T12:45:07Z</time>
      </trkpt>
      <trkpt lat="41.9234710" lon="-8.7469080">
        <ele>64.8</ele>
        <time>2019-08-16T12:45:10Z</time>
      </trkpt>
      <trkpt lat="41.9237060" lon="-8.7468680">
        <ele>64.8</ele>
        <time>2019-08-16T12:45:16Z</time>
      </trkpt>
      <trkpt lat="41.9238670" lon="-8.7468920">
        <ele>65.4</ele>
        <time>2019-08-16T12:45:21Z</time>
      </trkpt>
      <trkpt lat="41.9238990" lon="-8.7468870">
        <ele>65.4</ele>
        <time>2019-08-16T12:45:22Z</time>
      </trkpt>
      <trkpt lat="41.9239290" lon="-8.7468880">
        <ele>65.8</ele>
        <time>2019-08-16T12:45:23Z</time>
      </trkpt>
      <trkpt lat="41.9239640" lon="-8.7468990">
        <ele>66.4</ele>
        <time>2019-08-16T12:45:24Z</time>
      </trkpt>
      <trkpt lat="41.9240020" lon="-8.7469060">
        <ele>66.8</ele>
        <time>2019-08-16T12:45:25Z</time>
      </trkpt>
      <trkpt lat="41.9240330" lon="-8.7469300">
        <ele>67.2</ele>
        <time>2019-08-16T12:45:26Z</time>
      </trkpt>
      <trkpt lat="41.9241690" lon="-8.7470700">
        <ele>67.2</ele>
        <time>2019-08-16T12:45:30Z</time>
      </trkpt>
      <trkpt lat="41.9243370" lon="-8.7472000">
        <ele>67.2</ele>
        <time>2019-08-16T12:45:34Z</time>
      </trkpt>
      <trkpt lat="41.9244390" lon="-8.7472530">
        <ele>67.2</ele>
        <time>2019-08-16T12:45:36Z</time>
      </trkpt>
      <trkpt lat="41.9247280" lon="-8.7473640">
        <ele>66.8</ele>
        <time>2019-08-16T12:45:41Z</time>
      </trkpt>
      <trkpt lat="41.9247950" lon="-8.7473830">
        <ele>66.4</ele>
        <time>2019-08-16T12:45:42Z</time>
      </trkpt>
      <trkpt lat="41.9248560" lon="-8.7473970">
        <ele>66.0</ele>
        <time>2019-08-16T12:45:43Z</time>
      </trkpt>
      <trkpt lat="41.9249160" lon="-8.7474100">
        <ele>65.4</ele>
        <time>2019-08-16T12:45:44Z</time>
      </trkpt>
      <trkpt lat="41.9249780" lon="-8.7474270">
        <ele>65.0</ele>
        <time>2019-08-16T12:45:45Z</time>
      </trkpt>
      <trkpt lat="41.9250510" lon="-8.7474460">
        <ele>64.6</ele>
        <time>2019-08-16T12:45:46Z</time>
      </trkpt>
      <trkpt lat="41.9251180" lon="-8.7474700">
        <ele>64.0</ele>
        <time>2019-08-16T12:45:47Z</time>
      </trkpt>
      <trkpt lat="41.9251730" lon="-8.7475370">
        <ele>63.6</ele>
        <time>2019-08-16T12:45:48Z</time>
      </trkpt>
      <trkpt lat="41.9252410" lon="-8.7475840">
        <ele>63.2</ele>
        <time>2019-08-16T12:45:49Z</time>
      </trkpt>
      <trkpt lat="41.9253210" lon="-8.7476250">
        <ele>62.6</ele>
        <time>2019-08-16T12:45:50Z</time>
      </trkpt>
      <trkpt lat="41.9253950" lon="-8.7476700">
        <ele>62.0</ele>
        <time>2019-08-16T12:45:51Z</time>
      </trkpt>
      <trkpt lat="41.9254700" lon="-8.7477280">
        <ele>61.6</ele>
        <time>2019-08-16T12:45:52Z</time>
      </trkpt>
      <trkpt lat="41.9255430" lon="-8.7477890">
        <ele>61.0</ele>
        <time>2019-08-16T12:45:53Z</time>
      </trkpt>
      <trkpt lat="41.9256120" lon="-8.7478520">
        <ele>60.2</ele>
        <time>2019-08-16T12:45:54Z</time>
      </trkpt>
      <trkpt lat="41.9256850" lon="-8.7479110">
        <ele>59.6</ele>
        <time>2019-08-16T12:45:55Z</time>
      </trkpt>
      <trkpt lat="41.9257440" lon="-8.7479680">
        <ele>59.0</ele>
        <time>2019-08-16T12:45:56Z</time>
      </trkpt>
      <trkpt lat="41.9258080" lon="-8.7480220">
        <ele>58.0</ele>
        <time>2019-08-16T12:45:57Z</time>
      </trkpt>
      <trkpt lat="41.9258580" lon="-8.7480730">
        <ele>57.2</ele>
        <time>2019-08-16T12:45:58Z</time>
      </trkpt>
      <trkpt lat="41.9259020" lon="-8.7481440">
        <ele>56.4</ele>
        <time>2019-08-16T12:45:59Z</time>
      </trkpt>
      <trkpt lat="41.9259280" lon="-8.7482190">
        <ele>55.6</ele>
        <time>2019-08-16T12:46:00Z</time>
      </trkpt>
      <trkpt lat="41.9259070" lon="-8.7483280">
        <ele>54.8</ele>
        <time>2019-08-16T12:46:01Z</time>
      </trkpt>
      <trkpt lat="41.9258900" lon="-8.7484350">
        <ele>54.0</ele>
        <time>2019-08-16T12:46:02Z</time>
      </trkpt>
      <trkpt lat="41.9258910" lon="-8.7485180">
        <ele>53.2</ele>
        <time>2019-08-16T12:46:03Z</time>
      </trkpt>
      <trkpt lat="41.9258980" lon="-8.7485870">
        <ele>52.4</ele>
        <time>2019-08-16T12:46:04Z</time>
      </trkpt>
      <trkpt lat="41.9259200" lon="-8.7486220">
        <ele>51.6</ele>
        <time>2019-08-16T12:46:05Z</time>
      </trkpt>
      <trkpt lat="41.9259640" lon="-8.7486470">
        <ele>50.8</ele>
        <time>2019-08-16T12:46:06Z</time>
      </trkpt>
      <trkpt lat="41.9260450" lon="-8.7485380">
        <ele>50.2</ele>
        <time>2019-08-16T12:46:07Z</time>
      </trkpt>
      <trkpt lat="41.9260740" lon="-8.7484510">
        <ele>49.4</ele>
        <time>2019-08-16T12:46:08Z</time>
      </trkpt>
      <trkpt lat="41.9261090" lon="-8.7483800">
        <ele>48.8</ele>
        <time>2019-08-16T12:46:09Z</time>
      </trkpt>
      <trkpt lat="41.9261230" lon="-8.7483360">
        <ele>48.0</ele>
        <time>2019-08-16T12:46:10Z</time>
      </trkpt>
      <trkpt lat="41.9261370" lon="-8.7482920">
        <ele>47.4</ele>
        <time>2019-08-16T12:46:11Z</time>
      </trkpt>
      <trkpt lat="41.9261940" lon="-8.7481160">
        <ele>47.4</ele>
        <time>2019-08-16T12:46:13Z</time>
      </trkpt>
      <trkpt lat="41.9262790" lon="-8.7479490">
        <ele>47.4</ele>
        <time>2019-08-16T12:46:16Z</time>
      </trkpt>
      <trkpt lat="41.9263270" lon="-8.7477720">
        <ele>47.4</ele>
        <time>2019-08-16T12:46:19Z</time>
      </trkpt>
      <trkpt lat="41.9264520" lon="-8.7475240">
        <ele>47.4</ele>
        <time>2019-08-16T12:46:24Z</time>
      </trkpt>
      <trkpt lat="41.9265240" lon="-8.7473530">
        <ele>47.4</ele>
        <time>2019-08-16T12:46:27Z</time>
      </trkpt>
      <trkpt lat="41.9266840" lon="-8.7469630">
        <ele>47.4</ele>
        <time>2019-08-16T12:46:34Z</time>
      </trkpt>
      <trkpt lat="41.9267080" lon="-8.7468290">
        <ele>47.4</ele>
        <time>2019-08-16T12:46:36Z</time>
      </trkpt>
      <trkpt lat="41.9267270" lon="-8.7467540">
        <ele>47.0</ele>
        <time>2019-08-16T12:46:37Z</time>
      </trkpt>
      <trkpt lat="41.9267540" lon="-8.7466740">
        <ele>46.4</ele>
        <time>2019-08-16T12:46:38Z</time>
      </trkpt>
      <trkpt lat="41.9267870" lon="-8.7465960">
        <ele>46.0</ele>
        <time>2019-08-16T12:46:39Z</time>
      </trkpt>
      <trkpt lat="41.9268280" lon="-8.7465140">
        <ele>45.4</ele>
        <time>2019-08-16T12:46:40Z</time>
      </trkpt>
      <trkpt lat="41.9268880" lon="-8.7464200">
        <ele>44.6</ele>
        <time>2019-08-16T12:46:41Z</time>
      </trkpt>
      <trkpt lat="41.9270120" lon="-8.7463930">
        <ele>43.8</ele>
        <time>2019-08-16T12:46:42Z</time>
      </trkpt>
      <trkpt lat="41.9271170" lon="-8.7463510">
        <ele>43.0</ele>
        <time>2019-08-16T12:46:43Z</time>
      </trkpt>
      <trkpt lat="41.9272140" lon="-8.7463280">
        <ele>42.0</ele>
        <time>2019-08-16T12:46:44Z</time>
      </trkpt>
      <trkpt lat="41.9273060" lon="-8.7463130">
        <ele>41.2</ele>
        <time>2019-08-16T12:46:45Z</time>
      </trkpt>
      <trkpt lat="41.9273890" lon="-8.7462920">
        <ele>40.4</ele>
        <time>2019-08-16T12:46:46Z</time>
      </trkpt>
      <trkpt lat="41.9276810" lon="-8.7462090">
        <ele>39.8</ele>
        <time>2019-08-16T12:46:49Z</time>
      </trkpt>
      <trkpt lat="41.9278050" lon="-8.7461860">
        <ele>39.4</ele>
        <time>2019-08-16T12:46:50Z</time>
      </trkpt>
      <trkpt lat="41.9279260" lon="-8.7461730">
        <ele>38.6</ele>
        <time>2019-08-16T12:46:51Z</time>
      </trkpt>
      <trkpt lat="41.9280300" lon="-8.7461730">
        <ele>38.0</ele>
        <time>2019-08-16T12:46:52Z</time>
      </trkpt>
      <trkpt lat="41.9281280" lon="-8.7461800">
        <ele>37.2</ele>
        <time>2019-08-16T12:46:53Z</time>
      </trkpt>
      <trkpt lat="41.9282320" lon="-8.7461850">
        <ele>36.4</ele>
        <time>2019-08-16T12:46:54Z</time>
      </trkpt>
      <trkpt lat="41.9283250" lon="-8.7462060">
        <ele>35.8</ele>
        <time>2019-08-16T12:46:55Z</time>
      </trkpt>
      <trkpt lat="41.9284960" lon="-8.7462230">
        <ele>35.8</ele>
        <time>2019-08-16T12:46:57Z</time>
      </trkpt>
      <trkpt lat="41.9288650" lon="-8.7462360">
        <ele>36.2</ele>
        <time>2019-08-16T12:47:02Z</time>
      </trkpt>
      <trkpt lat="41.9289200" lon="-8.7462300">
        <ele>36.6</ele>
        <time>2019-08-16T12:47:03Z</time>
      </trkpt>
      <trkpt lat="41.9289650" lon="-8.7462340">
        <ele>37.0</ele>
        <time>2019-08-16T12:47:04Z</time>
      </trkpt>
      <trkpt lat="41.9289960" lon="-8.7462440">
        <ele>37.6</ele>
        <time>2019-08-16T12:47:05Z</time>
      </trkpt>
      <trkpt lat="41.9290250" lon="-8.7462550">
        <ele>38.2</ele>
        <time>2019-08-16T12:47:06Z</time>
      </trkpt>
      <trkpt lat="41.9290560" lon="-8.7462660">
        <ele>38.8</ele>
        <time>2019-08-16T12:47:07Z</time>
      </trkpt>
      <trkpt lat="41.9290800" lon="-8.7462790">
        <ele>39.2</ele>
        <time>2019-08-16T12:47:08Z</time>
      </trkpt>
      <trkpt lat="41.9291090" lon="-8.7463020">
        <ele>39.8</ele>
        <time>2019-08-16T12:47:09Z</time>
      </trkpt>
      <trkpt lat="41.9291760" lon="-8.7463050">
        <ele>39.8</ele>
        <time>2019-08-16T12:47:12Z</time>
      </trkpt>
      <trkpt lat="41.9292880" lon="-8.7462810">
        <ele>40.4</ele>
        <time>2019-08-16T12:47:17Z</time>
      </trkpt>
      <trkpt lat="41.9293110" lon="-8.7462820">
        <ele>40.8</ele>
        <time>2019-08-16T12:47:18Z</time>
      </trkpt>
      <trkpt lat="41.9293280" lon="-8.7462860">
        <ele>41.2</ele>
        <time>2019-08-16T12:47:19Z</time>
      </trkpt>
      <trkpt lat="41.9293590" lon="-8.7462780">
        <ele>41.6</ele>
        <time>2019-08-16T12:47:20Z</time>
      </trkpt>
      <trkpt lat="41.9293880" lon="-8.7462700">
        <ele>42.0</ele>
        <time>2019-08-16T12:47:21Z</time>
      </trkpt>
      <trkpt lat="41.9296020" lon="-8.7462870">
        <ele>42.0</ele>
        <time>2019-08-16T12:47:29Z</time>
      </trkpt>
      <trkpt lat="41.9296580" lon="-8.7463340">
        <ele>42.6</ele>
        <time>2019-08-16T12:47:33Z</time>
      </trkpt>
      <trkpt lat="41.9296730" lon="-8.7463450">
        <ele>43.0</ele>
        <time>2019-08-16T12:47:34Z</time>
      </trkpt>
      <trkpt lat="41.9296870" lon="-8.7463520">
        <ele>43.4</ele>
        <time>2019-08-16T12:47:35Z</time>
      </trkpt>
      <trkpt lat="41.9296980" lon="-8.7463590">
        <ele>43.8</ele>
        <time>2019-08-16T12:47:36Z</time>
      </trkpt>
      <trkpt lat="41.9297140" lon="-8.7463640">
        <ele>44.2</ele>
        <time>2019-08-16T12:47:37Z</time>
      </trkpt>
      <trkpt lat="41.9297820" lon="-8.7464260">
        <ele>44.2</ele>
        <time>2019-08-16T12:47:43Z</time>
      </trkpt>
      <trkpt lat="41.9298270" lon="-8.7464480">
        <ele>44.6</ele>
        <time>2019-08-16T12:47:46Z</time>
      </trkpt>
      <trkpt lat="41.9298370" lon="-8.7464530">
        <ele>45.0</ele>
        <time>2019-08-16T12:47:47Z</time>
      </trkpt>
      <trkpt lat="41.9298540" lon="-8.7464410">
        <ele>45.6</ele>
        <time>2019-08-16T12:47:48Z</time>
      </trkpt>
      <trkpt lat="41.9298610" lon="-8.7464380">
        <ele>46.0</ele>
        <time>2019-08-16T12:47:49Z</time>
      </trkpt>
      <trkpt lat="41.9298760" lon="-8.7464300">
        <ele>46.4</ele>
        <time>2019-08-16T12:47:50Z</time>
      </trkpt>
      <trkpt lat="41.9299260" lon="-8.7463080">
        <ele>46.4</ele>
        <time>2019-08-16T12:47:57Z</time>
      </trkpt>
      <trkpt lat="41.9299260" lon="-8.7462930">
        <ele>46.4</ele>
        <time>2019-08-16T12:47:58Z</time>
      </trkpt>
      <trkpt lat="41.9299180" lon="-8.7461410">
        <ele>46.4</ele>
        <time>2019-08-16T12:48:07Z</time>
      </trkpt>
      <trkpt lat="41.9299200" lon="-8.7460890">
        <ele>47.0</ele>
        <time>2019-08-16T12:48:10Z</time>
      </trkpt>
      <trkpt lat="41.9299210" lon="-8.7460710">
        <ele>47.4</ele>
        <time>2019-08-16T12:48:11Z</time>
      </trkpt>
      <trkpt lat="41.9299210" lon="-8.7460520">
        <ele>47.8</ele>
        <time>2019-08-16T12:48:12Z</time>
      </trkpt>
      <trkpt lat="41.9299210" lon="-8.7460350">
        <ele>48.2</ele>
        <time>2019-08-16T12:48:13Z</time>
      </trkpt>
      <trkpt lat="41.9299230" lon="-8.7460170">
        <ele>48.6</ele>
        <time>2019-08-16T12:48:14Z</time>
      </trkpt>
      <trkpt lat="41.9299280" lon="-8.7458580">
        <ele>49.2</ele>
        <time>2019-08-16T12:48:24Z</time>
      </trkpt>
      <trkpt lat="41.9299240" lon="-8.7458450">
        <ele>49.6</ele>
        <time>2019-08-16T12:48:25Z</time>
      </trkpt>
      <trkpt lat="41.9299180" lon="-8.7458300">
        <ele>50.0</ele>
        <time>2019-08-16T12:48:26Z</time>
      </trkpt>
      <trkpt lat="41.9299180" lon="-8.7458210">
        <ele>50.4</ele>
        <time>2019-08-16T12:48:27Z</time>
      </trkpt>
      <trkpt lat="41.9299260" lon="-8.7457980">
        <ele>51.0</ele>
        <time>2019-08-16T12:48:28Z</time>
      </trkpt>
      <trkpt lat="41.9299610" lon="-8.7457660">
        <ele>51.0</ele>
        <time>2019-08-16T12:48:31Z</time>
      </trkpt>
      <trkpt lat="41.9299970" lon="-8.7457350">
        <ele>51.4</ele>
        <time>2019-08-16T12:48:34Z</time>
      </trkpt>
      <trkpt lat="41.9300080" lon="-8.7457260">
        <ele>51.8</ele>
        <time>2019-08-16T12:48:35Z</time>
      </trkpt>
      <trkpt lat="41.9300160" lon="-8.7457260">
        <ele>52.2</ele>
        <time>2019-08-16T12:48:36Z</time>
      </trkpt>
      <trkpt lat="41.9300290" lon="-8.7457100">
        <ele>52.8</ele>
        <time>2019-08-16T12:48:37Z</time>
      </trkpt>
      <trkpt lat="41.9300430" lon="-8.7456980">
        <ele>53.2</ele>
        <time>2019-08-16T12:48:38Z</time>
      </trkpt>
      <trkpt lat="41.9301150" lon="-8.7456330">
        <ele>53.6</ele>
        <time>2019-08-16T12:48:45Z</time>
      </trkpt>
      <trkpt lat="41.9301220" lon="-8.7456210">
        <ele>54.0</ele>
        <time>2019-08-16T12:48:46Z</time>
      </trkpt>
      <trkpt lat="41.9301270" lon="-8.7456260">
        <ele>54.4</ele>
        <time>2019-08-16T12:48:47Z</time>
      </trkpt>
      <trkpt lat="41.9301350" lon="-8.7456200">
        <ele>54.8</ele>
        <time>2019-08-16T12:48:48Z</time>
      </trkpt>
      <trkpt lat="41.9302440" lon="-8.7455050">
        <ele>57.2</ele>
        <time>2019-08-16T12:48:57Z</time>
      </trkpt>
      <trkpt lat="41.9302610" lon="-8.7454920">
        <ele>57.6</ele>
        <time>2019-08-16T12:48:58Z</time>
      </trkpt>
      <trkpt lat="41.9303550" lon="-8.7454250">
        <ele>57.6</ele>
        <time>2019-08-16T12:49:06Z</time>
      </trkpt>
      <trkpt lat="41.9303820" lon="-8.7454080">
        <ele>58.2</ele>
        <time>2019-08-16T12:49:08Z</time>
      </trkpt>
      <trkpt lat="41.9303960" lon="-8.7454040">
        <ele>58.6</ele>
        <time>2019-08-16T12:49:09Z</time>
      </trkpt>
      <trkpt lat="41.9304120" lon="-8.7454000">
        <ele>59.0</ele>
        <time>2019-08-16T12:49:10Z</time>
      </trkpt>
      <trkpt lat="41.9304250" lon="-8.7453960">
        <ele>59.4</ele>
        <time>2019-08-16T12:49:11Z</time>
      </trkpt>
      <trkpt lat="41.9304350" lon="-8.7453930">
        <ele>59.8</ele>
        <time>2019-08-16T12:49:12Z</time>
      </trkpt>
      <trkpt lat="41.9304620" lon="-8.7453770">
        <ele>60.2</ele>
        <time>2019-08-16T12:49:14Z</time>
      </trkpt>
      <trkpt lat="41.9304760" lon="-8.7453690">
        <ele>60.6</ele>
        <time>2019-08-16T12:49:15Z</time>
      </trkpt>
      <trkpt lat="41.9304880" lon="-8.7453620">
        <ele>61.0</ele>
        <time>2019-08-16T12:49:16Z</time>
      </trkpt>
      <trkpt lat="41.9304960" lon="-8.7453560">
        <ele>61.4</ele>
        <time>2019-08-16T12:49:17Z</time>
      </trkpt>
      <trkpt lat="41.9305040" lon="-8.7453530">
        <ele>61.8</ele>
        <time>2019-08-16T12:49:18Z</time>
      </trkpt>
      <trkpt lat="41.9305780" lon="-8.7453060">
        <ele>61.8</ele>
        <time>2019-08-16T12:49:26Z</time>
      </trkpt>
      <trkpt lat="41.9305880" lon="-8.7452900">
        <ele>62.4</ele>
        <time>2019-08-16T12:49:28Z</time>
      </trkpt>
      <trkpt lat="41.9305940" lon="-8.7452780">
        <ele>62.8</ele>
        <time>2019-08-16T12:49:29Z</time>
      </trkpt>
      <trkpt lat="41.9305990" lon="-8.7452670">
        <ele>63.4</ele>
        <time>2019-08-16T12:49:30Z</time>
      </trkpt>
      <trkpt lat="41.9306050" lon="-8.7452540">
        <ele>63.8</ele>
        <time>2019-08-16T12:49:31Z</time>
      </trkpt>
      <trkpt lat="41.9306090" lon="-8.7452390">
        <ele>64.2</ele>
        <time>2019-08-16T12:49:32Z</time>
      </trkpt>
      <trkpt lat="41.9305930" lon="-8.7451760">
        <ele>64.2</ele>
        <time>2019-08-16T12:49:36Z</time>
      </trkpt>
      <trkpt lat="41.9305900" lon="-8.7451620">
        <ele>64.6</ele>
        <time>2019-08-16T12:49:37Z</time>
      </trkpt>
      <trkpt lat="41.9305870" lon="-8.7451450">
        <ele>65.0</ele>
        <time>2019-08-16T12:49:38Z</time>
      </trkpt>
      <trkpt lat="41.9305830" lon="-8.7451300">
        <ele>65.6</ele>
        <time>2019-08-16T12:49:39Z</time>
      </trkpt>
      <trkpt lat="41.9305780" lon="-8.7451150">
        <ele>66.0</ele>
        <time>2019-08-16T12:49:40Z</time>
      </trkpt>
      <trkpt lat="41.9305670" lon="-8.7451030">
        <ele>66.4</ele>
        <time>2019-08-16T12:49:41Z</time>
      </trkpt>
      <trkpt lat="41.9305350" lon="-8.7450980">
        <ele>66.4</ele>
        <time>2019-08-16T12:49:42Z</time>
      </trkpt>
      <trkpt lat="41.9305230" lon="-8.7450870">
        <ele>66.4</ele>
        <time>2019-08-16T12:49:43Z</time>
      </trkpt>
      <trkpt lat="41.9304830" lon="-8.7450250">
        <ele>66.8</ele>
        <time>2019-08-16T12:49:47Z</time>
      </trkpt>
      <trkpt lat="41.9304720" lon="-8.7450120">
        <ele>67.2</ele>
        <time>2019-08-16T12:49:48Z</time>
      </trkpt>
      <trkpt lat="41.9304590" lon="-8.7449950">
        <ele>67.8</ele>
        <time>2019-08-16T12:49:49Z</time>
      </trkpt>
      <trkpt lat="41.9304510" lon="-8.7449800">
        <ele>68.2</ele>
        <time>2019-08-16T12:49:50Z</time>
      </trkpt>
      <trkpt lat="41.9304440" lon="-8.7449630">
        <ele>68.6</ele>
        <time>2019-08-16T12:49:51Z</time>
      </trkpt>
      <trkpt lat="41.9304430" lon="-8.7449400">
        <ele>68.6</ele>
        <time>2019-08-16T12:49:52Z</time>
      </trkpt>
      <trkpt lat="41.9304400" lon="-8.7449230">
        <ele>68.6</ele>
        <time>2019-08-16T12:49:53Z</time>
      </trkpt>
      <trkpt lat="41.9304610" lon="-8.7448400">
        <ele>69.2</ele>
        <time>2019-08-16T12:49:57Z</time>
      </trkpt>
      <trkpt lat="41.9304650" lon="-8.7448210">
        <ele>69.6</ele>
        <time>2019-08-16T12:49:58Z</time>
      </trkpt>
      <trkpt lat="41.9304690" lon="-8.7448040">
        <ele>70.0</ele>
        <time>2019-08-16T12:49:59Z</time>
      </trkpt>
      <trkpt lat="41.9304730" lon="-8.7447870">
        <ele>70.6</ele>
        <time>2019-08-16T12:50:00Z</time>
      </trkpt>
      <trkpt lat="41.9304790" lon="-8.7447720">
        <ele>71.0</ele>
        <time>2019-08-16T12:50:01Z</time>
      </trkpt>
      <trkpt lat="41.9304940" lon="-8.7447450">
        <ele>71.0</ele>
        <time>2019-08-16T12:50:03Z</time>
      </trkpt>
      <trkpt lat="41.9305550" lon="-8.7447030">
        <ele>71.4</ele>
        <time>2019-08-16T12:50:07Z</time>
      </trkpt>
      <trkpt lat="41.9305730" lon="-8.7446910">
        <ele>71.8</ele>
        <time>2019-08-16T12:50:08Z</time>
      </trkpt>
      <trkpt lat="41.9305950" lon="-8.7446760">
        <ele>72.4</ele>
        <time>2019-08-16T12:50:09Z</time>
      </trkpt>
      <trkpt lat="41.9306200" lon="-8.7446590">
        <ele>72.8</ele>
        <time>2019-08-16T12:50:10Z</time>
      </trkpt>
      <trkpt lat="41.9306440" lon="-8.7446450">
        <ele>73.2</ele>
        <time>2019-08-16T12:50:11Z</time>
      </trkpt>
      <trkpt lat="41.9307050" lon="-8.7445520">
        <ele>73.2</ele>
        <time>2019-08-16T12:50:17Z</time>
      </trkpt>
      <trkpt lat="41.9307940" lon="-8.7443560">
        <ele>73.2</ele>
        <time>2019-08-16T12:50:25Z</time>
      </trkpt>
      <trkpt lat="41.9308500" lon="-8.7440830">
        <ele>73.2</ele>
        <time>2019-08-16T12:50:31Z</time>
      </trkpt>
      <trkpt lat="41.9308430" lon="-8.7438740">
        <ele>73.2</ele>
        <time>2019-08-16T12:50:37Z</time>
      </trkpt>
      <trkpt lat="41.9308170" lon="-8.7436830">
        <ele>73.2</ele>
        <time>2019-08-16T12:50:45Z</time>
      </trkpt>
      <trkpt lat="41.9308010" lon="-8.7434740">
        <ele>73.2</ele>
        <time>2019-08-16T12:50:53Z</time>
      </trkpt>
      <trkpt lat="41.9308050" lon="-8.7434360">
        <ele>73.2</ele>
        <time>2019-08-16T12:50:57Z</time>
      </trkpt>
      <trkpt lat="41.9308140" lon="-8.7434300">
        <ele>73.2</ele>
        <time>2019-08-16T12:54:17Z</time>
      </trkpt>
      <trkpt lat="41.9308140" lon="-8.7434290">
        <ele>73.2</ele>
        <time>2019-08-16T12:54:18Z</time>
      </trkpt>
      <trkpt lat="41.9308780" lon="-8.7434200">
        <ele>75.4</ele>
        <time>2019-08-16T12:54:25Z</time>
      </trkpt>
      <trkpt lat="41.9309300" lon="-8.7434120">
        <ele>75.4</ele>
        <time>2019-08-16T12:54:27Z</time>
      </trkpt>
      <trkpt lat="41.9310160" lon="-8.7434150">
        <ele>75.4</ele>
        <time>2019-08-16T12:54:30Z</time>
      </trkpt>
      <trkpt lat="41.9310740" lon="-8.7433830">
        <ele>75.0</ele>
        <time>2019-08-16T12:54:32Z</time>
      </trkpt>
      <trkpt lat="41.9311040" lon="-8.7433560">
        <ele>74.6</ele>
        <time>2019-08-16T12:54:33Z</time>
      </trkpt>
      <trkpt lat="41.9311340" lon="-8.7433320">
        <ele>74.2</ele>
        <time>2019-08-16T12:54:34Z</time>
      </trkpt>
      <trkpt lat="41.9311600" lon="-8.7433050">
        <ele>73.8</ele>
        <time>2019-08-16T12:54:35Z</time>
      </trkpt>
      <trkpt lat="41.9311870" lon="-8.7432770">
        <ele>73.4</ele>
        <time>2019-08-16T12:54:36Z</time>
      </trkpt>
      <trkpt lat="41.9312510" lon="-8.7432200">
        <ele>73.4</ele>
        <time>2019-08-16T12:54:38Z</time>
      </trkpt>
      <trkpt lat="41.9314050" lon="-8.7430790">
        <ele>73.4</ele>
        <time>2019-08-16T12:54:42Z</time>
      </trkpt>
      <trkpt lat="41.9314490" lon="-8.7430650">
        <ele>73.4</ele>
        <time>2019-08-16T12:54:43Z</time>
      </trkpt>
      <trkpt lat="41.9316250" lon="-8.7430880">
        <ele>73.4</ele>
        <time>2019-08-16T12:54:47Z</time>
      </trkpt>
      <trkpt lat="41.9316590" lon="-8.7430920">
        <ele>73.4</ele>
        <time>2019-08-16T12:54:48Z</time>
      </trkpt>
      <trkpt lat="41.9317280" lon="-8.7431510">
        <ele>73.0</ele>
        <time>2019-08-16T12:54:51Z</time>
      </trkpt>
      <trkpt lat="41.9317660" lon="-8.7431700">
        <ele>72.6</ele>
        <time>2019-08-16T12:54:52Z</time>
      </trkpt>
      <trkpt lat="41.9318130" lon="-8.7431810">
        <ele>72.0</ele>
        <time>2019-08-16T12:54:53Z</time>
      </trkpt>
      <trkpt lat="41.9318660" lon="-8.7431880">
        <ele>71.6</ele>
        <time>2019-08-16T12:54:54Z</time>
      </trkpt>
      <trkpt lat="41.9319240" lon="-8.7432020">
        <ele>71.2</ele>
        <time>2019-08-16T12:54:55Z</time>
      </trkpt>
      <trkpt lat="41.9319850" lon="-8.7432160">
        <ele>70.8</ele>
        <time>2019-08-16T12:54:56Z</time>
      </trkpt>
      <trkpt lat="41.9320520" lon="-8.7432250">
        <ele>70.2</ele>
        <time>2019-08-16T12:54:57Z</time>
      </trkpt>
      <trkpt lat="41.9321150" lon="-8.7432400">
        <ele>69.6</ele>
        <time>2019-08-16T12:54:58Z</time>
      </trkpt>
      <trkpt lat="41.9321730" lon="-8.7432550">
        <ele>69.2</ele>
        <time>2019-08-16T12:54:59Z</time>
      </trkpt>
      <trkpt lat="41.9322210" lon="-8.7432690">
        <ele>68.6</ele>
        <time>2019-08-16T12:55:00Z</time>
      </trkpt>
      <trkpt lat="41.9322730" lon="-8.7432820">
        <ele>68.6</ele>
        <time>2019-08-16T12:55:01Z</time>
      </trkpt>
      <trkpt lat="41.9323750" lon="-8.7432930">
        <ele>68.6</ele>
        <time>2019-08-16T12:55:03Z</time>
      </trkpt>
      <trkpt lat="41.9324270" lon="-8.7432670">
        <ele>68.2</ele>
        <time>2019-08-16T12:55:04Z</time>
      </trkpt>
      <trkpt lat="41.9324690" lon="-8.7432300">
        <ele>67.8</ele>
        <time>2019-08-16T12:55:05Z</time>
      </trkpt>
      <trkpt lat="41.9324940" lon="-8.7431900">
        <ele>67.4</ele>
        <time>2019-08-16T12:55:06Z</time>
      </trkpt>
      <trkpt lat="41.9325110" lon="-8.7431490">
        <ele>67.0</ele>
        <time>2019-08-16T12:55:07Z</time>
      </trkpt>
      <trkpt lat="41.9325310" lon="-8.7431090">
        <ele>66.6</ele>
        <time>2019-08-16T12:55:08Z</time>
      </trkpt>
      <trkpt lat="41.9326670" lon="-8.7430230">
        <ele>66.6</ele>
        <time>2019-08-16T12:55:13Z</time>
      </trkpt>
      <trkpt lat="41.9327760" lon="-8.7430630">
        <ele>66.6</ele>
        <time>2019-08-16T12:55:15Z</time>
      </trkpt>
      <trkpt lat="41.9328250" lon="-8.7430800">
        <ele>66.6</ele>
        <time>2019-08-16T12:55:16Z</time>
      </trkpt>
      <trkpt lat="41.9329290" lon="-8.7431400">
        <ele>66.6</ele>
        <time>2019-08-16T12:55:19Z</time>
      </trkpt>
      <trkpt lat="41.9329640" lon="-8.7431510">
        <ele>66.6</ele>
        <time>2019-08-16T12:55:20Z</time>
      </trkpt>
      <trkpt lat="41.9330170" lon="-8.7431490">
        <ele>66.6</ele>
        <time>2019-08-16T12:55:22Z</time>
      </trkpt>
      <trkpt lat="41.9330380" lon="-8.7431900">
        <ele>66.0</ele>
        <time>2019-08-16T12:55:24Z</time>
      </trkpt>
      <trkpt lat="41.9330560" lon="-8.7432420">
        <ele>65.6</ele>
        <time>2019-08-16T12:55:25Z</time>
      </trkpt>
      <trkpt lat="41.9330700" lon="-8.7432880">
        <ele>65.2</ele>
        <time>2019-08-16T12:55:26Z</time>
      </trkpt>
      <trkpt lat="41.9330840" lon="-8.7433120">
        <ele>64.8</ele>
        <time>2019-08-16T12:55:27Z</time>
      </trkpt>
      <trkpt lat="41.9331100" lon="-8.7433290">
        <ele>64.2</ele>
        <time>2019-08-16T12:55:28Z</time>
      </trkpt>
      <trkpt lat="41.9331330" lon="-8.7433410">
        <ele>63.6</ele>
        <time>2019-08-16T12:55:29Z</time>
      </trkpt>
      <trkpt lat="41.9331570" lon="-8.7433600">
        <ele>63.0</ele>
        <time>2019-08-16T12:55:30Z</time>
      </trkpt>
      <trkpt lat="41.9331730" lon="-8.7433800">
        <ele>62.4</ele>
        <time>2019-08-16T12:55:31Z</time>
      </trkpt>
      <trkpt lat="41.9331830" lon="-8.7434010">
        <ele>61.8</ele>
        <time>2019-08-16T12:55:32Z</time>
      </trkpt>
      <trkpt lat="41.9331940" lon="-8.7434150">
        <ele>61.0</ele>
        <time>2019-08-16T12:55:33Z</time>
      </trkpt>
      <trkpt lat="41.9332060" lon="-8.7434250">
        <ele>60.4</ele>
        <time>2019-08-16T12:55:34Z</time>
      </trkpt>
      <trkpt lat="41.9332150" lon="-8.7434340">
        <ele>59.8</ele>
        <time>2019-08-16T12:55:35Z</time>
      </trkpt>
      <trkpt lat="41.9332470" lon="-8.7434800">
        <ele>59.2</ele>
        <time>2019-08-16T12:55:37Z</time>
      </trkpt>
      <trkpt lat="41.9332540" lon="-8.7435100">
        <ele>58.8</ele>
        <time>2019-08-16T12:55:38Z</time>
      </trkpt>
      <trkpt lat="41.9332530" lon="-8.7435460">
        <ele>58.4</ele>
        <time>2019-08-16T12:55:39Z</time>
      </trkpt>
      <trkpt lat="41.9332450" lon="-8.7435850">
        <ele>57.8</ele>
        <time>2019-08-16T12:55:40Z</time>
      </trkpt>
      <trkpt lat="41.9332340" lon="-8.7436190">
        <ele>57.4</ele>
        <time>2019-08-16T12:55:41Z</time>
      </trkpt>
      <trkpt lat="41.9332030" lon="-8.7437200">
        <ele>57.4</ele>
        <time>2019-08-16T12:55:43Z</time>
      </trkpt>
      <trkpt lat="41.9332020" lon="-8.7437740">
        <ele>57.0</ele>
        <time>2019-08-16T12:55:44Z</time>
      </trkpt>
      <trkpt lat="41.9332030" lon="-8.7438340">
        <ele>56.6</ele>
        <time>2019-08-16T12:55:45Z</time>
      </trkpt>
      <trkpt lat="41.9332030" lon="-8.7438810">
        <ele>56.0</ele>
        <time>2019-08-16T12:55:46Z</time>
      </trkpt>
      <trkpt lat="41.9332080" lon="-8.7439350">
        <ele>55.6</ele>
        <time>2019-08-16T12:55:47Z</time>
      </trkpt>
      <trkpt lat="41.9332130" lon="-8.7439830">
        <ele>55.2</ele>
        <time>2019-08-16T12:55:48Z</time>
      </trkpt>
      <trkpt lat="41.9332160" lon="-8.7440180">
        <ele>54.6</ele>
        <time>2019-08-16T12:55:49Z</time>
      </trkpt>
      <trkpt lat="41.9332130" lon="-8.7440610">
        <ele>54.0</ele>
        <time>2019-08-16T12:55:50Z</time>
      </trkpt>
      <trkpt lat="41.9332180" lon="-8.7440940">
        <ele>53.4</ele>
        <time>2019-08-16T12:55:51Z</time>
      </trkpt>
      <trkpt lat="41.9332300" lon="-8.7441290">
        <ele>53.0</ele>
        <time>2019-08-16T12:55:52Z</time>
      </trkpt>
      <trkpt lat="41.9332750" lon="-8.7441750">
        <ele>52.6</ele>
        <time>2019-08-16T12:55:54Z</time>
      </trkpt>
      <trkpt lat="41.9333020" lon="-8.7442080">
        <ele>52.2</ele>
        <time>2019-08-16T12:55:55Z</time>
      </trkpt>
      <trkpt lat="41.9333160" lon="-8.7442490">
        <ele>51.8</ele>
        <time>2019-08-16T12:55:56Z</time>
      </trkpt>
      <trkpt lat="41.9333640" lon="-8.7442720">
        <ele>51.2</ele>
        <time>2019-08-16T12:55:57Z</time>
      </trkpt>
      <trkpt lat="41.9333980" lon="-8.7442480">
        <ele>50.6</ele>
        <time>2019-08-16T12:55:58Z</time>
      </trkpt>
      <trkpt lat="41.9334270" lon="-8.7441980">
        <ele>50.0</ele>
        <time>2019-08-16T12:55:59Z</time>
      </trkpt>
      <trkpt lat="41.9334570" lon="-8.7441470">
        <ele>49.4</ele>
        <time>2019-08-16T12:56:00Z</time>
      </trkpt>
      <trkpt lat="41.9334700" lon="-8.7440870">
        <ele>48.6</ele>
        <time>2019-08-16T12:56:01Z</time>
      </trkpt>
      <trkpt lat="41.9334940" lon="-8.7440300">
        <ele>47.8</ele>
        <time>2019-08-16T12:56:02Z</time>
      </trkpt>
      <trkpt lat="41.9335190" lon="-8.7439780">
        <ele>47.2</ele>
        <time>2019-08-16T12:56:03Z</time>
      </trkpt>
      <trkpt lat="41.9335420" lon="-8.7439280">
        <ele>46.4</ele>
        <time>2019-08-16T12:56:04Z</time>
      </trkpt>
      <trkpt lat="41.9335600" lon="-8.7438710">
        <ele>45.6</ele>
        <time>2019-08-16T12:56:05Z</time>
      </trkpt>
      <trkpt lat="41.9335910" lon="-8.7438100">
        <ele>44.8</ele>
        <time>2019-08-16T12:56:06Z</time>
      </trkpt>
      <trkpt lat="41.9336250" lon="-8.7437460">
        <ele>44.0</ele>
        <time>2019-08-16T12:56:07Z</time>
      </trkpt>
      <trkpt lat="41.9336590" lon="-8.7436740">
        <ele>43.2</ele>
        <time>2019-08-16T12:56:08Z</time>
      </trkpt>
      <trkpt lat="41.9336910" lon="-8.7436000">
        <ele>42.6</ele>
        <time>2019-08-16T12:56:09Z</time>
      </trkpt>
      <trkpt lat="41.9337220" lon="-8.7435270">
        <ele>41.8</ele>
        <time>2019-08-16T12:56:10Z</time>
      </trkpt>
      <trkpt lat="41.9337570" lon="-8.7434600">
        <ele>41.0</ele>
        <time>2019-08-16T12:56:11Z</time>
      </trkpt>
      <trkpt lat="41.9337880" lon="-8.7433940">
        <ele>40.2</ele>
        <time>2019-08-16T12:56:12Z</time>
      </trkpt>
      <trkpt lat="41.9338330" lon="-8.7433450">
        <ele>39.4</ele>
        <time>2019-08-16T12:56:13Z</time>
      </trkpt>
      <trkpt lat="41.9338700" lon="-8.7432950">
        <ele>38.6</ele>
        <time>2019-08-16T12:56:14Z</time>
      </trkpt>
      <trkpt lat="41.9339130" lon="-8.7432550">
        <ele>38.6</ele>
        <time>2019-08-16T12:56:15Z</time>
      </trkpt>
      <trkpt lat="41.9339590" lon="-8.7432210">
        <ele>38.0</ele>
        <time>2019-08-16T12:56:16Z</time>
      </trkpt>
      <trkpt lat="41.9340050" lon="-8.7431850">
        <ele>37.6</ele>
        <time>2019-08-16T12:56:17Z</time>
      </trkpt>
      <trkpt lat="41.9340530" lon="-8.7431470">
        <ele>37.2</ele>
        <time>2019-08-16T12:56:18Z</time>
      </trkpt>
      <trkpt lat="41.9341040" lon="-8.7431340">
        <ele>36.8</ele>
        <time>2019-08-16T12:56:19Z</time>
      </trkpt>
      <trkpt lat="41.9341570" lon="-8.7431360">
        <ele>36.2</ele>
        <time>2019-08-16T12:56:20Z</time>
      </trkpt>
      <trkpt lat="41.9342290" lon="-8.7431560">
        <ele>35.6</ele>
        <time>2019-08-16T12:56:21Z</time>
      </trkpt>
      <trkpt lat="41.9342980" lon="-8.7431680">
        <ele>35.0</ele>
        <time>2019-08-16T12:56:22Z</time>
      </trkpt>
      <trkpt lat="41.9343620" lon="-8.7431830">
        <ele>34.4</ele>
        <time>2019-08-16T12:56:23Z</time>
      </trkpt>
      <trkpt lat="41.9344320" lon="-8.7431940">
        <ele>33.8</ele>
        <time>2019-08-16T12:56:24Z</time>
      </trkpt>
      <trkpt lat="41.9346410" lon="-8.7432980">
        <ele>33.8</ele>
        <time>2019-08-16T12:56:28Z</time>
      </trkpt>
      <trkpt lat="41.9347070" lon="-8.7433660">
        <ele>33.8</ele>
        <time>2019-08-16T12:56:32Z</time>
      </trkpt>
      <trkpt lat="41.9347680" lon="-8.7434030">
        <ele>34.4</ele>
        <time>2019-08-16T12:56:36Z</time>
      </trkpt>
      <trkpt lat="41.9347830" lon="-8.7434200">
        <ele>34.8</ele>
        <time>2019-08-16T12:56:37Z</time>
      </trkpt>
      <trkpt lat="41.9347970" lon="-8.7434380">
        <ele>35.2</ele>
        <time>2019-08-16T12:56:38Z</time>
      </trkpt>
      <trkpt lat="41.9348130" lon="-8.7434620">
        <ele>35.6</ele>
        <time>2019-08-16T12:56:39Z</time>
      </trkpt>
      <trkpt lat="41.9348280" lon="-8.7434870">
        <ele>36.0</ele>
        <time>2019-08-16T12:56:40Z</time>
      </trkpt>
      <trkpt lat="41.9349090" lon="-8.7435880">
        <ele>36.4</ele>
        <time>2019-08-16T12:56:45Z</time>
      </trkpt>
      <trkpt lat="41.9349290" lon="-8.7436040">
        <ele>36.8</ele>
        <time>2019-08-16T12:56:46Z</time>
      </trkpt>
      <trkpt lat="41.9349530" lon="-8.7436160">
        <ele>37.2</ele>
        <time>2019-08-16T12:56:47Z</time>
      </trkpt>
      <trkpt lat="41.9349750" lon="-8.7436200">
        <ele>37.6</ele>
        <time>2019-08-16T12:56:48Z</time>
      </trkpt>
      <trkpt lat="41.9349970" lon="-8.7436240">
        <ele>38.2</ele>
        <time>2019-08-16T12:56:49Z</time>
      </trkpt>
      <trkpt lat="41.9350760" lon="-8.7436350">
        <ele>38.6</ele>
        <time>2019-08-16T12:56:53Z</time>
      </trkpt>
      <trkpt lat="41.9350920" lon="-8.7436350">
        <ele>39.0</ele>
        <time>2019-08-16T12:56:54Z</time>
      </trkpt>
      <trkpt lat="41.9351010" lon="-8.7436360">
        <ele>39.4</ele>
        <time>2019-08-16T12:56:55Z</time>
      </trkpt>
      <trkpt lat="41.9351220" lon="-8.7436380">
        <ele>39.8</ele>
        <time>2019-08-16T12:56:56Z</time>
      </trkpt>
      <trkpt lat="41.9351390" lon="-8.7436420">
        <ele>40.4</ele>
        <time>2019-08-16T12:56:57Z</time>
      </trkpt>
      <trkpt lat="41.9352640" lon="-8.7436080">
        <ele>40.4</ele>
        <time>2019-08-16T12:57:04Z</time>
      </trkpt>
      <trkpt lat="41.9353960" lon="-8.7435820">
        <ele>40.4</ele>
        <time>2019-08-16T12:57:13Z</time>
      </trkpt>
      <trkpt lat="41.9354110" lon="-8.7434370">
        <ele>40.8</ele>
        <time>2019-08-16T12:57:18Z</time>
      </trkpt>
      <trkpt lat="41.9353900" lon="-8.7433970">
        <ele>41.2</ele>
        <time>2019-08-16T12:57:19Z</time>
      </trkpt>
      <trkpt lat="41.9353890" lon="-8.7433680">
        <ele>41.6</ele>
        <time>2019-08-16T12:57:20Z</time>
      </trkpt>
      <trkpt lat="41.9353870" lon="-8.7433390">
        <ele>42.0</ele>
        <time>2019-08-16T12:57:21Z</time>
      </trkpt>
      <trkpt lat="41.9353890" lon="-8.7433110">
        <ele>42.4</ele>
        <time>2019-08-16T12:57:22Z</time>
      </trkpt>
      <trkpt lat="41.9353990" lon="-8.7431270">
        <ele>42.4</ele>
        <time>2019-08-16T12:57:29Z</time>
      </trkpt>
      <trkpt lat="41.9354920" lon="-8.7428730">
        <ele>42.4</ele>
        <time>2019-08-16T12:57:39Z</time>
      </trkpt>
      <trkpt lat="41.9356300" lon="-8.7428590">
        <ele>42.4</ele>
        <time>2019-08-16T12:57:44Z</time>
      </trkpt>
      <trkpt lat="41.9356540" lon="-8.7428560">
        <ele>42.4</ele>
        <time>2019-08-16T12:57:45Z</time>
      </trkpt>
      <trkpt lat="41.9358480" lon="-8.7428470">
        <ele>42.4</ele>
        <time>2019-08-16T12:57:51Z</time>
      </trkpt>
      <trkpt lat="41.9362150" lon="-8.7428030">
        <ele>42.4</ele>
        <time>2019-08-16T12:58:02Z</time>
      </trkpt>
      <trkpt lat="41.9363350" lon="-8.7426380">
        <ele>42.4</ele>
        <time>2019-08-16T12:58:07Z</time>
      </trkpt>
      <trkpt lat="41.9364510" lon="-8.7426150">
        <ele>42.4</ele>
        <time>2019-08-16T12:58:11Z</time>
      </trkpt>
      <trkpt lat="41.9367210" lon="-8.7426510">
        <ele>42.4</ele>
        <time>2019-08-16T12:58:19Z</time>
      </trkpt>
      <trkpt lat="41.9368700" lon="-8.7425510">
        <ele>42.4</ele>
        <time>2019-08-16T12:58:25Z</time>
      </trkpt>
      <trkpt lat="41.9368910" lon="-8.7424310">
        <ele>42.8</ele>
        <time>2019-08-16T12:58:28Z</time>
      </trkpt>
      <trkpt lat="41.9368970" lon="-8.7423960">
        <ele>43.2</ele>
        <time>2019-08-16T12:58:29Z</time>
      </trkpt>
      <trkpt lat="41.9369040" lon="-8.7423660">
        <ele>43.8</ele>
        <time>2019-08-16T12:58:30Z</time>
      </trkpt>
      <trkpt lat="41.9369170" lon="-8.7423310">
        <ele>44.2</ele>
        <time>2019-08-16T12:58:31Z</time>
      </trkpt>
      <trkpt lat="41.9369280" lon="-8.7423060">
        <ele>44.6</ele>
        <time>2019-08-16T12:58:32Z</time>
      </trkpt>
      <trkpt lat="41.9369490" lon="-8.7422000">
        <ele>45.0</ele>
        <time>2019-08-16T12:58:36Z</time>
      </trkpt>
      <trkpt lat="41.9369560" lon="-8.7421780">
        <ele>45.4</ele>
        <time>2019-08-16T12:58:37Z</time>
      </trkpt>
      <trkpt lat="41.9369750" lon="-8.7421410">
        <ele>45.8</ele>
        <time>2019-08-16T12:58:38Z</time>
      </trkpt>
      <trkpt lat="41.9369930" lon="-8.7421020">
        <ele>46.2</ele>
        <time>2019-08-16T12:58:39Z</time>
      </trkpt>
      <trkpt lat="41.9370090" lon="-8.7420640">
        <ele>46.6</ele>
        <time>2019-08-16T12:58:40Z</time>
      </trkpt>
      <trkpt lat="41.9370380" lon="-8.7420170">
        <ele>46.6</ele>
        <time>2019-08-16T12:58:41Z</time>
      </trkpt>
      <trkpt lat="41.9372100" lon="-8.7417840">
        <ele>46.2</ele>
        <time>2019-08-16T12:58:46Z</time>
      </trkpt>
      <trkpt lat="41.9372570" lon="-8.7417310">
        <ele>45.8</ele>
        <time>2019-08-16T12:58:47Z</time>
      </trkpt>
      <trkpt lat="41.9373150" lon="-8.7416690">
        <ele>45.4</ele>
        <time>2019-08-16T12:58:48Z</time>
      </trkpt>
      <trkpt lat="41.9373630" lon="-8.7416180">
        <ele>45.0</ele>
        <time>2019-08-16T12:58:49Z</time>
      </trkpt>
      <trkpt lat="41.9374220" lon="-8.7415620">
        <ele>44.4</ele>
        <time>2019-08-16T12:58:50Z</time>
      </trkpt>
      <trkpt lat="41.9375360" lon="-8.7414380">
        <ele>44.4</ele>
        <time>2019-08-16T12:58:52Z</time>
      </trkpt>
      <trkpt lat="41.9375880" lon="-8.7413780">
        <ele>44.0</ele>
        <time>2019-08-16T12:58:53Z</time>
      </trkpt>
      <trkpt lat="41.9376420" lon="-8.7413160">
        <ele>43.6</ele>
        <time>2019-08-16T12:58:54Z</time>
      </trkpt>
      <trkpt lat="41.9376870" lon="-8.7412630">
        <ele>43.2</ele>
        <time>2019-08-16T12:58:55Z</time>
      </trkpt>
      <trkpt lat="41.9377350" lon="-8.7412210">
        <ele>42.6</ele>
        <time>2019-08-16T12:58:56Z</time>
      </trkpt>
      <trkpt lat="41.9377830" lon="-8.7411950">
        <ele>42.2</ele>
        <time>2019-08-16T12:58:57Z</time>
      </trkpt>
      <trkpt lat="41.9378270" lon="-8.7411620">
        <ele>42.2</ele>
        <time>2019-08-16T12:58:58Z</time>
      </trkpt>
      <trkpt lat="41.9378690" lon="-8.7411440">
        <ele>42.2</ele>
        <time>2019-08-16T12:58:59Z</time>
      </trkpt>
      <trkpt lat="41.9379980" lon="-8.7411310">
        <ele>41.8</ele>
        <time>2019-08-16T12:59:02Z</time>
      </trkpt>
      <trkpt lat="41.9380410" lon="-8.7411330">
        <ele>41.4</ele>
        <time>2019-08-16T12:59:03Z</time>
      </trkpt>
      <trkpt lat="41.9380900" lon="-8.7411380">
        <ele>41.0</ele>
        <time>2019-08-16T12:59:04Z</time>
      </trkpt>
      <trkpt lat="41.9381370" lon="-8.7411480">
        <ele>40.6</ele>
        <time>2019-08-16T12:59:05Z</time>
      </trkpt>
      <trkpt lat="41.9381830" lon="-8.7411550">
        <ele>40.0</ele>
        <time>2019-08-16T12:59:06Z</time>
      </trkpt>
      <trkpt lat="41.9382790" lon="-8.7411700">
        <ele>40.0</ele>
        <time>2019-08-16T12:59:08Z</time>
      </trkpt>
      <trkpt lat="41.9385270" lon="-8.7411630">
        <ele>40.0</ele>
        <time>2019-08-16T12:59:13Z</time>
      </trkpt>
      <trkpt lat="41.9386210" lon="-8.7411330">
        <ele>39.6</ele>
        <time>2019-08-16T12:59:15Z</time>
      </trkpt>
      <trkpt lat="41.9386660" lon="-8.7411150">
        <ele>39.2</ele>
        <time>2019-08-16T12:59:16Z</time>
      </trkpt>
      <trkpt lat="41.9387080" lon="-8.7411010">
        <ele>38.8</ele>
        <time>2019-08-16T12:59:17Z</time>
      </trkpt>
      <trkpt lat="41.9387520" lon="-8.7410920">
        <ele>38.4</ele>
        <time>2019-08-16T12:59:18Z</time>
      </trkpt>
      <trkpt lat="41.9388000" lon="-8.7410840">
        <ele>38.0</ele>
        <time>2019-08-16T12:59:19Z</time>
      </trkpt>
      <trkpt lat="41.9389660" lon="-8.7410600">
        <ele>38.0</ele>
        <time>2019-08-16T12:59:22Z</time>
      </trkpt>
      <trkpt lat="41.9392420" lon="-8.7410210">
        <ele>37.6</ele>
        <time>2019-08-16T12:59:27Z</time>
      </trkpt>
      <trkpt lat="41.9392900" lon="-8.7410210">
        <ele>37.2</ele>
        <time>2019-08-16T12:59:28Z</time>
      </trkpt>
      <trkpt lat="41.9393260" lon="-8.7410290">
        <ele>36.8</ele>
        <time>2019-08-16T12:59:29Z</time>
      </trkpt>
      <trkpt lat="41.9393640" lon="-8.7410340">
        <ele>36.4</ele>
        <time>2019-08-16T12:59:30Z</time>
      </trkpt>
      <trkpt lat="41.9393920" lon="-8.7410410">
        <ele>36.0</ele>
        <time>2019-08-16T12:59:31Z</time>
      </trkpt>
      <trkpt lat="41.9393960" lon="-8.7410800">
        <ele>36.0</ele>
        <time>2019-08-16T12:59:32Z</time>
      </trkpt>
      <trkpt lat="41.9394080" lon="-8.7411130">
        <ele>36.0</ele>
        <time>2019-08-16T12:59:33Z</time>
      </trkpt>
      <trkpt lat="41.9394550" lon="-8.7413170">
        <ele>35.4</ele>
        <time>2019-08-16T12:59:37Z</time>
      </trkpt>
      <trkpt lat="41.9394710" lon="-8.7413790">
        <ele>35.0</ele>
        <time>2019-08-16T12:59:38Z</time>
      </trkpt>
      <trkpt lat="41.9394930" lon="-8.7414640">
        <ele>34.4</ele>
        <time>2019-08-16T12:59:39Z</time>
      </trkpt>
      <trkpt lat="41.9395110" lon="-8.7415360">
        <ele>33.8</ele>
        <time>2019-08-16T12:59:40Z</time>
      </trkpt>
      <trkpt lat="41.9395230" lon="-8.7416000">
        <ele>33.4</ele>
        <time>2019-08-16T12:59:41Z</time>
      </trkpt>
      <trkpt lat="41.9395470" lon="-8.7417720">
        <ele>33.4</ele>
        <time>2019-08-16T12:59:45Z</time>
      </trkpt>
      <trkpt lat="41.9395520" lon="-8.7418030">
        <ele>33.4</ele>
        <time>2019-08-16T12:59:48Z</time>
      </trkpt>
      <trkpt lat="41.9395630" lon="-8.7418060">
        <ele>33.4</ele>
        <time>2019-08-16T13:00:48Z</time>
      </trkpt>
      <trkpt lat="41.9395660" lon="-8.7417980">
        <ele>33.4</ele>
        <time>2019-08-16T13:00:49Z</time>
      </trkpt>
      <trkpt lat="41.9396740" lon="-8.7418280">
        <ele>27.2</ele>
        <time>2019-08-16T14:00:33Z</time>
      </trkpt>
      <trkpt lat="41.9397030" lon="-8.7418620">
        <ele>27.2</ele>
        <time>2019-08-16T14:00:35Z</time>
      </trkpt>
      <trkpt lat="41.9397690" lon="-8.7418980">
        <ele>27.2</ele>
        <time>2019-08-16T14:00:39Z</time>
      </trkpt>
      <trkpt lat="41.9398160" lon="-8.7418990">
        <ele>27.2</ele>
        <time>2019-08-16T14:00:41Z</time>
      </trkpt>
      <trkpt lat="41.9399220" lon="-8.7419240">
        <ele>27.2</ele>
        <time>2019-08-16T14:00:47Z</time>
      </trkpt>
      <trkpt lat="41.9399310" lon="-8.7419430">
        <ele>27.2</ele>
        <time>2019-08-16T14:00:48Z</time>
      </trkpt>
      <trkpt lat="41.9398970" lon="-8.7420320">
        <ele>27.2</ele>
        <time>2019-08-16T14:00:51Z</time>
      </trkpt>
      <trkpt lat="41.9398250" lon="-8.7420900">
        <ele>27.2</ele>
        <time>2019-08-16T14:00:54Z</time>
      </trkpt>
      <trkpt lat="41.9397620" lon="-8.7421430">
        <ele>27.2</ele>
        <time>2019-08-16T14:00:57Z</time>
      </trkpt>
      <trkpt lat="41.9396850" lon="-8.7422220">
        <ele>26.8</ele>
        <time>2019-08-16T14:01:00Z</time>
      </trkpt>
      <trkpt lat="41.9396690" lon="-8.7422680">
        <ele>26.4</ele>
        <time>2019-08-16T14:01:01Z</time>
      </trkpt>
      <trkpt lat="41.9396530" lon="-8.7423050">
        <ele>26.0</ele>
        <time>2019-08-16T14:01:02Z</time>
      </trkpt>
      <trkpt lat="41.9396370" lon="-8.7423400">
        <ele>25.4</ele>
        <time>2019-08-16T14:01:03Z</time>
      </trkpt>
      <trkpt lat="41.9396190" lon="-8.7423650">
        <ele>25.0</ele>
        <time>2019-08-16T14:01:04Z</time>
      </trkpt>
      <trkpt lat="41.9395980" lon="-8.7424110">
        <ele>25.0</ele>
        <time>2019-08-16T14:01:07Z</time>
      </trkpt>
      <trkpt lat="41.9395960" lon="-8.7424170">
        <ele>25.0</ele>
        <time>2019-08-16T14:01:51Z</time>
      </trkpt>
      <trkpt lat="41.9396010" lon="-8.7424260">
        <ele>25.0</ele>
        <time>2019-08-16T14:01:52Z</time>
      </trkpt>
      <trkpt lat="41.9396100" lon="-8.7424820">
        <ele>25.0</ele>
        <time>2019-08-16T14:01:57Z</time>
      </trkpt>
      <trkpt lat="41.9397060" lon="-8.7427590">
        <ele>24.6</ele>
        <time>2019-08-16T14:02:02Z</time>
      </trkpt>
      <trkpt lat="41.9397230" lon="-8.7428170">
        <ele>24.2</ele>
        <time>2019-08-16T14:02:03Z</time>
      </trkpt>
      <trkpt lat="41.9397310" lon="-8.7428800">
        <ele>23.8</ele>
        <time>2019-08-16T14:02:04Z</time>
      </trkpt>
      <trkpt lat="41.9397500" lon="-8.7429280">
        <ele>23.4</ele>
        <time>2019-08-16T14:02:05Z</time>
      </trkpt>
      <trkpt lat="41.9397640" lon="-8.7429700">
        <ele>23.0</ele>
        <time>2019-08-16T14:02:06Z</time>
      </trkpt>
      <trkpt lat="41.9398310" lon="-8.7431500">
        <ele>23.0</ele>
        <time>2019-08-16T14:02:10Z</time>
      </trkpt>
      <trkpt lat="41.9398490" lon="-8.7432610">
        <ele>23.0</ele>
        <time>2019-08-16T14:02:14Z</time>
      </trkpt>
      <trkpt lat="41.9398640" lon="-8.7433710">
        <ele>23.0</ele>
        <time>2019-08-16T14:02:19Z</time>
      </trkpt>
      <trkpt lat="41.9399870" lon="-8.7435590">
        <ele>23.0</ele>
        <time>2019-08-16T14:02:25Z</time>
      </trkpt>
      <trkpt lat="41.9400220" lon="-8.7435920">
        <ele>22.6</ele>
        <time>2019-08-16T14:02:26Z</time>
      </trkpt>
      <trkpt lat="41.9400520" lon="-8.7436380">
        <ele>22.2</ele>
        <time>2019-08-16T14:02:27Z</time>
      </trkpt>
      <trkpt lat="41.9400790" lon="-8.7436830">
        <ele>21.8</ele>
        <time>2019-08-16T14:02:28Z</time>
      </trkpt>
      <trkpt lat="41.9401030" lon="-8.7437350">
        <ele>21.4</ele>
        <time>2019-08-16T14:02:29Z</time>
      </trkpt>
      <trkpt lat="41.9401350" lon="-8.7437990">
        <ele>21.0</ele>
        <time>2019-08-16T14:02:30Z</time>
      </trkpt>
      <trkpt lat="41.9402710" lon="-8.7439570">
        <ele>21.0</ele>
        <time>2019-08-16T14:02:36Z</time>
      </trkpt>
      <trkpt lat="41.9402920" lon="-8.7439520">
        <ele>21.0</ele>
        <time>2019-08-16T14:02:37Z</time>
      </trkpt>
      <trkpt lat="41.9403290" lon="-8.7439110">
        <ele>21.0</ele>
        <time>2019-08-16T14:02:39Z</time>
      </trkpt>
      <trkpt lat="41.9404530" lon="-8.7437540">
        <ele>21.0</ele>
        <time>2019-08-16T14:02:47Z</time>
      </trkpt>
      <trkpt lat="41.9405210" lon="-8.7436200">
        <ele>21.0</ele>
        <time>2019-08-16T14:02:53Z</time>
      </trkpt>
      <trkpt lat="41.9406780" lon="-8.7435180">
        <ele>20.6</ele>
        <time>2019-08-16T14:03:00Z</time>
      </trkpt>
      <trkpt lat="41.9407020" lon="-8.7435060">
        <ele>20.0</ele>
        <time>2019-08-16T14:03:01Z</time>
      </trkpt>
      <trkpt lat="41.9407320" lon="-8.7434930">
        <ele>19.6</ele>
        <time>2019-08-16T14:03:02Z</time>
      </trkpt>
      <trkpt lat="41.9407640" lon="-8.7434800">
        <ele>19.2</ele>
        <time>2019-08-16T14:03:03Z</time>
      </trkpt>
      <trkpt lat="41.9407960" lon="-8.7434640">
        <ele>18.8</ele>
        <time>2019-08-16T14:03:04Z</time>
      </trkpt>
      <trkpt lat="41.9410770" lon="-8.7433350">
        <ele>18.8</ele>
        <time>2019-08-16T14:03:11Z</time>
      </trkpt>
      <trkpt lat="41.9413110" lon="-8.7432550">
        <ele>18.8</ele>
        <time>2019-08-16T14:03:17Z</time>
      </trkpt>
      <trkpt lat="41.9414040" lon="-8.7433350">
        <ele>18.8</ele>
        <time>2019-08-16T14:03:20Z</time>
      </trkpt>
      <trkpt lat="41.9415680" lon="-8.7434780">
        <ele>18.8</ele>
        <time>2019-08-16T14:03:26Z</time>
      </trkpt>
      <trkpt lat="41.9418270" lon="-8.7435330">
        <ele>18.8</ele>
        <time>2019-08-16T14:03:32Z</time>
      </trkpt>
      <trkpt lat="41.9421540" lon="-8.7436140">
        <ele>18.8</ele>
        <time>2019-08-16T14:03:40Z</time>
      </trkpt>
      <trkpt lat="41.9425190" lon="-8.7437040">
        <ele>18.8</ele>
        <time>2019-08-16T14:03:49Z</time>
      </trkpt>
      <trkpt lat="41.9429850" lon="-8.7437380">
        <ele>18.8</ele>
        <time>2019-08-16T14:04:00Z</time>
      </trkpt>
      <trkpt lat="41.9433380" lon="-8.7436870">
        <ele>18.8</ele>
        <time>2019-08-16T14:04:08Z</time>
      </trkpt>
      <trkpt lat="41.9436390" lon="-8.7435770">
        <ele>18.8</ele>
        <time>2019-08-16T14:04:15Z</time>
      </trkpt>
      <trkpt lat="41.9436840" lon="-8.7435530">
        <ele>18.8</ele>
        <time>2019-08-16T14:04:16Z</time>
      </trkpt>
      <trkpt lat="41.9439470" lon="-8.7433390">
        <ele>18.8</ele>
        <time>2019-08-16T14:04:23Z</time>
      </trkpt>
      <trkpt lat="41.9440430" lon="-8.7432990">
        <ele>19.2</ele>
        <time>2019-08-16T14:04:26Z</time>
      </trkpt>
      <trkpt lat="41.9440700" lon="-8.7433070">
        <ele>19.6</ele>
        <time>2019-08-16T14:04:27Z</time>
      </trkpt>
      <trkpt lat="41.9440910" lon="-8.7433290">
        <ele>20.0</ele>
        <time>2019-08-16T14:04:28Z</time>
      </trkpt>
      <trkpt lat="41.9441090" lon="-8.7433620">
        <ele>20.4</ele>
        <time>2019-08-16T14:04:29Z</time>
      </trkpt>
      <trkpt lat="41.9441260" lon="-8.7434050">
        <ele>20.8</ele>
        <time>2019-08-16T14:04:30Z</time>
      </trkpt>
      <trkpt lat="41.9441610" lon="-8.7435210">
        <ele>20.8</ele>
        <time>2019-08-16T14:04:32Z</time>
      </trkpt>
      <trkpt lat="41.9442060" lon="-8.7436670">
        <ele>20.4</ele>
        <time>2019-08-16T14:04:34Z</time>
      </trkpt>
      <trkpt lat="41.9442290" lon="-8.7437310">
        <ele>19.8</ele>
        <time>2019-08-16T14:04:35Z</time>
      </trkpt>
      <trkpt lat="41.9442560" lon="-8.7437700">
        <ele>19.4</ele>
        <time>2019-08-16T14:04:36Z</time>
      </trkpt>
      <trkpt lat="41.9442900" lon="-8.7437890">
        <ele>18.8</ele>
        <time>2019-08-16T14:04:37Z</time>
      </trkpt>
      <trkpt lat="41.9443320" lon="-8.7438510">
        <ele>18.4</ele>
        <time>2019-08-16T14:04:39Z</time>
      </trkpt>
      <trkpt lat="41.9443130" lon="-8.7439170">
        <ele>18.4</ele>
        <time>2019-08-16T14:04:41Z</time>
      </trkpt>
      <trkpt lat="41.9442850" lon="-8.7439260">
        <ele>18.4</ele>
        <time>2019-08-16T14:04:42Z</time>
      </trkpt>
      <trkpt lat="41.9442500" lon="-8.7438980">
        <ele>18.4</ele>
        <time>2019-08-16T14:04:43Z</time>
      </trkpt>
      <trkpt lat="41.9441400" lon="-8.7436660">
        <ele>18.4</ele>
        <time>2019-08-16T14:04:48Z</time>
      </trkpt>
      <trkpt lat="41.9440870" lon="-8.7434750">
        <ele>18.4</ele>
        <time>2019-08-16T14:04:52Z</time>
      </trkpt>
      <trkpt lat="41.9440550" lon="-8.7433890">
        <ele>18.8</ele>
        <time>2019-08-16T14:04:55Z</time>
      </trkpt>
      <trkpt lat="41.9440460" lon="-8.7433750">
        <ele>19.2</ele>
        <time>2019-08-16T14:04:56Z</time>
      </trkpt>
      <trkpt lat="41.9440430" lon="-8.7433660">
        <ele>19.6</ele>
        <time>2019-08-16T14:04:57Z</time>
      </trkpt>
      <trkpt lat="41.9440330" lon="-8.7433610">
        <ele>20.0</ele>
        <time>2019-08-16T14:04:58Z</time>
      </trkpt>
      <trkpt lat="41.9440340" lon="-8.7433620">
        <ele>20.4</ele>
        <time>2019-08-16T14:04:59Z</time>
      </trkpt>
      <trkpt lat="41.9440490" lon="-8.7433470">
        <ele>20.4</ele>
        <time>2019-08-16T14:05:09Z</time>
      </trkpt>
      <trkpt lat="41.9440490" lon="-8.7433170">
        <ele>20.4</ele>
        <time>2019-08-16T14:05:10Z</time>
      </trkpt>
      <trkpt lat="41.9440580" lon="-8.7432700">
        <ele>20.4</ele>
        <time>2019-08-16T14:05:11Z</time>
      </trkpt>
      <trkpt lat="41.9441440" lon="-8.7431760">
        <ele>20.4</ele>
        <time>2019-08-16T14:05:14Z</time>
      </trkpt>
      <trkpt lat="41.9441700" lon="-8.7431500">
        <ele>20.4</ele>
        <time>2019-08-16T14:05:15Z</time>
      </trkpt>
      <trkpt lat="41.9443470" lon="-8.7430350">
        <ele>21.0</ele>
        <time>2019-08-16T14:05:21Z</time>
      </trkpt>
      <trkpt lat="41.9443750" lon="-8.7430180">
        <ele>21.4</ele>
        <time>2019-08-16T14:05:22Z</time>
      </trkpt>
      <trkpt lat="41.9444020" lon="-8.7430020">
        <ele>21.8</ele>
        <time>2019-08-16T14:05:23Z</time>
      </trkpt>
      <trkpt lat="41.9444310" lon="-8.7429820">
        <ele>22.2</ele>
        <time>2019-08-16T14:05:24Z</time>
      </trkpt>
      <trkpt lat="41.9444580" lon="-8.7429610">
        <ele>22.6</ele>
        <time>2019-08-16T14:05:25Z</time>
      </trkpt>
      <trkpt lat="41.9446180" lon="-8.7428700">
        <ele>22.6</ele>
        <time>2019-08-16T14:05:30Z</time>
      </trkpt>
      <trkpt lat="41.9447820" lon="-8.7427440">
        <ele>23.0</ele>
        <time>2019-08-16T14:05:36Z</time>
      </trkpt>
      <trkpt lat="41.9448070" lon="-8.7427220">
        <ele>23.4</ele>
        <time>2019-08-16T14:05:37Z</time>
      </trkpt>
      <trkpt lat="41.9448300" lon="-8.7426990">
        <ele>23.8</ele>
        <time>2019-08-16T14:05:38Z</time>
      </trkpt>
      <trkpt lat="41.9448570" lon="-8.7426760">
        <ele>24.2</ele>
        <time>2019-08-16T14:05:39Z</time>
      </trkpt>
      <trkpt lat="41.9448840" lon="-8.7426590">
        <ele>24.6</ele>
        <time>2019-08-16T14:05:40Z</time>
      </trkpt>
      <trkpt lat="41.9450230" lon="-8.7426050">
        <ele>24.6</ele>
        <time>2019-08-16T14:05:44Z</time>
      </trkpt>
      <trkpt lat="41.9451360" lon="-8.7425590">
        <ele>24.6</ele>
        <time>2019-08-16T14:05:47Z</time>
      </trkpt>
      <trkpt lat="41.9453080" lon="-8.7424950">
        <ele>24.6</ele>
        <time>2019-08-16T14:05:51Z</time>
      </trkpt>
      <trkpt lat="41.9456840" lon="-8.7424010">
        <ele>24.2</ele>
        <time>2019-08-16T14:05:58Z</time>
      </trkpt>
      <trkpt lat="41.9457420" lon="-8.7423870">
        <ele>23.6</ele>
        <time>2019-08-16T14:05:59Z</time>
      </trkpt>
      <trkpt lat="41.9458000" lon="-8.7423720">
        <ele>23.2</ele>
        <time>2019-08-16T14:06:00Z</time>
      </trkpt>
      <trkpt lat="41.9458580" lon="-8.7423580">
        <ele>22.6</ele>
        <time>2019-08-16T14:06:01Z</time>
      </trkpt>
      <trkpt lat="41.9459190" lon="-8.7423400">
        <ele>22.0</ele>
        <time>2019-08-16T14:06:02Z</time>
      </trkpt>
      <trkpt lat="41.9461820" lon="-8.7422610">
        <ele>22.0</ele>
        <time>2019-08-16T14:06:06Z</time>
      </trkpt>
      <trkpt lat="41.9463090" lon="-8.7421780">
        <ele>22.0</ele>
        <time>2019-08-16T14:06:08Z</time>
      </trkpt>
      <trkpt lat="41.9463720" lon="-8.7421200">
        <ele>21.6</ele>
        <time>2019-08-16T14:06:09Z</time>
      </trkpt>
      <trkpt lat="41.9464300" lon="-8.7420590">
        <ele>21.2</ele>
        <time>2019-08-16T14:06:10Z</time>
      </trkpt>
      <trkpt lat="41.9464850" lon="-8.7419940">
        <ele>20.8</ele>
        <time>2019-08-16T14:06:11Z</time>
      </trkpt>
      <trkpt lat="41.9465350" lon="-8.7419250">
        <ele>20.4</ele>
        <time>2019-08-16T14:06:12Z</time>
      </trkpt>
      <trkpt lat="41.9465850" lon="-8.7418590">
        <ele>20.0</ele>
        <time>2019-08-16T14:06:13Z</time>
      </trkpt>
      <trkpt lat="41.9466820" lon="-8.7417470">
        <ele>20.0</ele>
        <time>2019-08-16T14:06:15Z</time>
      </trkpt>
      <trkpt lat="41.9468500" lon="-8.7417430">
        <ele>20.0</ele>
        <time>2019-08-16T14:06:18Z</time>
      </trkpt>
      <trkpt lat="41.9469300" lon="-8.7419250">
        <ele>20.0</ele>
        <time>2019-08-16T14:06:21Z</time>
      </trkpt>
      <trkpt lat="41.9468900" lon="-8.7421590">
        <ele>20.0</ele>
        <time>2019-08-16T14:06:24Z</time>
      </trkpt>
      <trkpt lat="41.9468920" lon="-8.7422400">
        <ele>20.0</ele>
        <time>2019-08-16T14:06:25Z</time>
      </trkpt>
      <trkpt lat="41.9469120" lon="-8.7423270">
        <ele>19.6</ele>
        <time>2019-08-16T14:06:26Z</time>
      </trkpt>
      <trkpt lat="41.9469400" lon="-8.7424120">
        <ele>19.2</ele>
        <time>2019-08-16T14:06:27Z</time>
      </trkpt>
      <trkpt lat="41.9469690" lon="-8.7424980">
        <ele>18.8</ele>
        <time>2019-08-16T14:06:28Z</time>
      </trkpt>
      <trkpt lat="41.9469980" lon="-8.7425850">
        <ele>18.4</ele>
        <time>2019-08-16T14:06:29Z</time>
      </trkpt>
      <trkpt lat="41.9470210" lon="-8.7426720">
        <ele>18.0</ele>
        <time>2019-08-16T14:06:30Z</time>
      </trkpt>
      <trkpt lat="41.9470660" lon="-8.7428170">
        <ele>18.0</ele>
        <time>2019-08-16T14:06:32Z</time>
      </trkpt>
      <trkpt lat="41.9470980" lon="-8.7428830">
        <ele>18.0</ele>
        <time>2019-08-16T14:06:33Z</time>
      </trkpt>
      <trkpt lat="41.9471330" lon="-8.7429380">
        <ele>17.6</ele>
        <time>2019-08-16T14:06:34Z</time>
      </trkpt>
      <trkpt lat="41.9471770" lon="-8.7429820">
        <ele>17.2</ele>
        <time>2019-08-16T14:06:35Z</time>
      </trkpt>
      <trkpt lat="41.9472220" lon="-8.7430220">
        <ele>16.6</ele>
        <time>2019-08-16T14:06:36Z</time>
      </trkpt>
      <trkpt lat="41.9472680" lon="-8.7430610">
        <ele>16.2</ele>
        <time>2019-08-16T14:06:37Z</time>
      </trkpt>
      <trkpt lat="41.9473150" lon="-8.7430970">
        <ele>15.8</ele>
        <time>2019-08-16T14:06:38Z</time>
      </trkpt>
      <trkpt lat="41.9473620" lon="-8.7431230">
        <ele>15.8</ele>
        <time>2019-08-16T14:06:39Z</time>
      </trkpt>
      <trkpt lat="41.9475050" lon="-8.7431460">
        <ele>15.8</ele>
        <time>2019-08-16T14:06:42Z</time>
      </trkpt>
      <trkpt lat="41.9478570" lon="-8.7431940">
        <ele>15.8</ele>
        <time>2019-08-16T14:06:50Z</time>
      </trkpt>
      <trkpt lat="41.9483450" lon="-8.7432610">
        <ele>15.8</ele>
        <time>2019-08-16T14:07:02Z</time>
      </trkpt>
      <trkpt lat="41.9484620" lon="-8.7432620">
        <ele>15.8</ele>
        <time>2019-08-16T14:07:05Z</time>
      </trkpt>
      <trkpt lat="41.9485360" lon="-8.7432630">
        <ele>16.4</ele>
        <time>2019-08-16T14:07:07Z</time>
      </trkpt>
      <trkpt lat="41.9485750" lon="-8.7432640">
        <ele>16.8</ele>
        <time>2019-08-16T14:07:08Z</time>
      </trkpt>
      <trkpt lat="41.9486120" lon="-8.7432640">
        <ele>17.2</ele>
        <time>2019-08-16T14:07:09Z</time>
      </trkpt>
      <trkpt lat="41.9486460" lon="-8.7432590">
        <ele>17.8</ele>
        <time>2019-08-16T14:07:10Z</time>
      </trkpt>
      <trkpt lat="41.9486790" lon="-8.7432560">
        <ele>18.2</ele>
        <time>2019-08-16T14:07:11Z</time>
      </trkpt>
      <trkpt lat="41.9488190" lon="-8.7432410">
        <ele>18.2</ele>
        <time>2019-08-16T14:07:15Z</time>
      </trkpt>
      <trkpt lat="41.9489000" lon="-8.7432110">
        <ele>18.6</ele>
        <time>2019-08-16T14:07:18Z</time>
      </trkpt>
      <trkpt lat="41.9489270" lon="-8.7432020">
        <ele>19.0</ele>
        <time>2019-08-16T14:07:19Z</time>
      </trkpt>
      <trkpt lat="41.9489550" lon="-8.7431910">
        <ele>19.4</ele>
        <time>2019-08-16T14:07:20Z</time>
      </trkpt>
      <trkpt lat="41.9489820" lon="-8.7431790">
        <ele>19.8</ele>
        <time>2019-08-16T14:07:21Z</time>
      </trkpt>
      <trkpt lat="41.9490130" lon="-8.7431700">
        <ele>20.2</ele>
        <time>2019-08-16T14:07:22Z</time>
      </trkpt>
      <trkpt lat="41.9492130" lon="-8.7430660">
        <ele>20.6</ele>
        <time>2019-08-16T14:07:29Z</time>
      </trkpt>
      <trkpt lat="41.9492450" lon="-8.7430490">
        <ele>21.0</ele>
        <time>2019-08-16T14:07:30Z</time>
      </trkpt>
      <trkpt lat="41.9492810" lon="-8.7430320">
        <ele>21.4</ele>
        <time>2019-08-16T14:07:31Z</time>
      </trkpt>
      <trkpt lat="41.9493180" lon="-8.7430170">
        <ele>21.8</ele>
        <time>2019-08-16T14:07:32Z</time>
      </trkpt>
      <trkpt lat="41.9493530" lon="-8.7430010">
        <ele>22.2</ele>
        <time>2019-08-16T14:07:33Z</time>
      </trkpt>
      <trkpt lat="41.9494410" lon="-8.7429430">
        <ele>22.6</ele>
        <time>2019-08-16T14:07:36Z</time>
      </trkpt>
      <trkpt lat="41.9494680" lon="-8.7429200">
        <ele>23.0</ele>
        <time>2019-08-16T14:07:37Z</time>
      </trkpt>
      <trkpt lat="41.9494950" lon="-8.7429000">
        <ele>23.4</ele>
        <time>2019-08-16T14:07:38Z</time>
      </trkpt>
      <trkpt lat="41.9495290" lon="-8.7428870">
        <ele>23.8</ele>
        <time>2019-08-16T14:07:39Z</time>
      </trkpt>
      <trkpt lat="41.9495640" lon="-8.7428790">
        <ele>24.2</ele>
        <time>2019-08-16T14:07:40Z</time>
      </trkpt>
      <trkpt lat="41.9497640" lon="-8.7428040">
        <ele>24.2</ele>
        <time>2019-08-16T14:07:46Z</time>
      </trkpt>
      <trkpt lat="41.9497980" lon="-8.7427890">
        <ele>24.6</ele>
        <time>2019-08-16T14:07:47Z</time>
      </trkpt>
      <trkpt lat="41.9498300" lon="-8.7427720">
        <ele>25.0</ele>
        <time>2019-08-16T14:07:48Z</time>
      </trkpt>
      <trkpt lat="41.9498620" lon="-8.7427580">
        <ele>25.6</ele>
        <time>2019-08-16T14:07:49Z</time>
      </trkpt>
      <trkpt lat="41.9498920" lon="-8.7427480">
        <ele>26.0</ele>
        <time>2019-08-16T14:07:50Z</time>
      </trkpt>
      <trkpt lat="41.9499250" lon="-8.7427390">
        <ele>26.4</ele>
        <time>2019-08-16T14:07:51Z</time>
      </trkpt>
      <trkpt lat="41.9500800" lon="-8.7427190">
        <ele>26.8</ele>
        <time>2019-08-16T14:07:56Z</time>
      </trkpt>
      <trkpt lat="41.9501050" lon="-8.7427430">
        <ele>27.4</ele>
        <time>2019-08-16T14:07:57Z</time>
      </trkpt>
      <trkpt lat="41.9501240" lon="-8.7427790">
        <ele>27.8</ele>
        <time>2019-08-16T14:07:58Z</time>
      </trkpt>
      <trkpt lat="41.9501390" lon="-8.7428180">
        <ele>28.2</ele>
        <time>2019-08-16T14:07:59Z</time>
      </trkpt>
      <trkpt lat="41.9501540" lon="-8.7428590">
        <ele>28.6</ele>
        <time>2019-08-16T14:08:00Z</time>
      </trkpt>
      <trkpt lat="41.9502430" lon="-8.7431730">
        <ele>28.6</ele>
        <time>2019-08-16T14:08:06Z</time>
      </trkpt>
      <trkpt lat="41.9502880" lon="-8.7433290">
        <ele>28.2</ele>
        <time>2019-08-16T14:08:09Z</time>
      </trkpt>
      <trkpt lat="41.9503030" lon="-8.7433770">
        <ele>27.8</ele>
        <time>2019-08-16T14:08:10Z</time>
      </trkpt>
      <trkpt lat="41.9503190" lon="-8.7434260">
        <ele>27.4</ele>
        <time>2019-08-16T14:08:11Z</time>
      </trkpt>
      <trkpt lat="41.9503370" lon="-8.7434810">
        <ele>27.0</ele>
        <time>2019-08-16T14:08:12Z</time>
      </trkpt>
      <trkpt lat="41.9503590" lon="-8.7435370">
        <ele>26.6</ele>
        <time>2019-08-16T14:08:13Z</time>
      </trkpt>
      <trkpt lat="41.9504340" lon="-8.7437340">
        <ele>26.2</ele>
        <time>2019-08-16T14:08:16Z</time>
      </trkpt>
      <trkpt lat="41.9504570" lon="-8.7438130">
        <ele>25.6</ele>
        <time>2019-08-16T14:08:17Z</time>
      </trkpt>
      <trkpt lat="41.9504770" lon="-8.7438930">
        <ele>25.2</ele>
        <time>2019-08-16T14:08:18Z</time>
      </trkpt>
      <trkpt lat="41.9504950" lon="-8.7439710">
        <ele>24.8</ele>
        <time>2019-08-16T14:08:19Z</time>
      </trkpt>
      <trkpt lat="41.9505170" lon="-8.7440450">
        <ele>24.4</ele>
        <time>2019-08-16T14:08:20Z</time>
      </trkpt>
      <trkpt lat="41.9505480" lon="-8.7441170">
        <ele>24.0</ele>
        <time>2019-08-16T14:08:21Z</time>
      </trkpt>
      <trkpt lat="41.9505940" lon="-8.7441730">
        <ele>23.6</ele>
        <time>2019-08-16T14:08:22Z</time>
      </trkpt>
      <trkpt lat="41.9506500" lon="-8.7442180">
        <ele>23.2</ele>
        <time>2019-08-16T14:08:23Z</time>
      </trkpt>
      <trkpt lat="41.9507120" lon="-8.7442510">
        <ele>22.8</ele>
        <time>2019-08-16T14:08:24Z</time>
      </trkpt>
      <trkpt lat="41.9507800" lon="-8.7442460">
        <ele>22.2</ele>
        <time>2019-08-16T14:08:25Z</time>
      </trkpt>
      <trkpt lat="41.9508740" lon="-8.7442210">
        <ele>21.6</ele>
        <time>2019-08-16T14:08:26Z</time>
      </trkpt>
      <trkpt lat="41.9509550" lon="-8.7442100">
        <ele>21.0</ele>
        <time>2019-08-16T14:08:27Z</time>
      </trkpt>
      <trkpt lat="41.9510370" lon="-8.7442020">
        <ele>20.4</ele>
        <time>2019-08-16T14:08:28Z</time>
      </trkpt>
      <trkpt lat="41.9511170" lon="-8.7441950">
        <ele>19.8</ele>
        <time>2019-08-16T14:08:29Z</time>
      </trkpt>
      <trkpt lat="41.9514250" lon="-8.7441910">
        <ele>19.8</ele>
        <time>2019-08-16T14:08:33Z</time>
      </trkpt>
      <trkpt lat="41.9516530" lon="-8.7442100">
        <ele>19.8</ele>
        <time>2019-08-16T14:08:36Z</time>
      </trkpt>
      <trkpt lat="41.9517890" lon="-8.7442460">
        <ele>19.8</ele>
        <time>2019-08-16T14:08:38Z</time>
      </trkpt>
      <trkpt lat="41.9522820" lon="-8.7444150">
        <ele>19.8</ele>
        <time>2019-08-16T14:08:46Z</time>
      </trkpt>
      <trkpt lat="41.9524610" lon="-8.7444440">
        <ele>19.8</ele>
        <time>2019-08-16T14:08:49Z</time>
      </trkpt>
      <trkpt lat="41.9525800" lon="-8.7444290">
        <ele>19.8</ele>
        <time>2019-08-16T14:08:51Z</time>
      </trkpt>
      <trkpt lat="41.9527670" lon="-8.7443530">
        <ele>19.8</ele>
        <time>2019-08-16T14:08:54Z</time>
      </trkpt>
      <trkpt lat="41.9528900" lon="-8.7442890">
        <ele>19.8</ele>
        <time>2019-08-16T14:08:56Z</time>
      </trkpt>
      <trkpt lat="41.9533750" lon="-8.7440970">
        <ele>19.4</ele>
        <time>2019-08-16T14:09:04Z</time>
      </trkpt>
      <trkpt lat="41.9534430" lon="-8.7440960">
        <ele>19.0</ele>
        <time>2019-08-16T14:09:05Z</time>
      </trkpt>
      <trkpt lat="41.9535130" lon="-8.7440960">
        <ele>18.6</ele>
        <time>2019-08-16T14:09:06Z</time>
      </trkpt>
      <trkpt lat="41.9535850" lon="-8.7440890">
        <ele>18.2</ele>
        <time>2019-08-16T14:09:07Z</time>
      </trkpt>
      <trkpt lat="41.9536590" lon="-8.7440860">
        <ele>17.8</ele>
        <time>2019-08-16T14:09:08Z</time>
      </trkpt>
      <trkpt lat="41.9537290" lon="-8.7440860">
        <ele>17.4</ele>
        <time>2019-08-16T14:09:09Z</time>
      </trkpt>
      <trkpt lat="41.9538010" lon="-8.7440850">
        <ele>17.0</ele>
        <time>2019-08-16T14:09:10Z</time>
      </trkpt>
      <trkpt lat="41.9538780" lon="-8.7440820">
        <ele>16.4</ele>
        <time>2019-08-16T14:09:11Z</time>
      </trkpt>
      <trkpt lat="41.9539540" lon="-8.7440820">
        <ele>16.0</ele>
        <time>2019-08-16T14:09:12Z</time>
      </trkpt>
      <trkpt lat="41.9540350" lon="-8.7440850">
        <ele>15.6</ele>
        <time>2019-08-16T14:09:13Z</time>
      </trkpt>
      <trkpt lat="41.9541150" lon="-8.7440880">
        <ele>15.6</ele>
        <time>2019-08-16T14:09:14Z</time>
      </trkpt>
      <trkpt lat="41.9541970" lon="-8.7440890">
        <ele>15.6</ele>
        <time>2019-08-16T14:09:15Z</time>
      </trkpt>
      <trkpt lat="41.9542800" lon="-8.7440900">
        <ele>15.2</ele>
        <time>2019-08-16T14:09:16Z</time>
      </trkpt>
      <trkpt lat="41.9543630" lon="-8.7440920">
        <ele>14.8</ele>
        <time>2019-08-16T14:09:17Z</time>
      </trkpt>
      <trkpt lat="41.9544330" lon="-8.7440920">
        <ele>14.2</ele>
        <time>2019-08-16T14:09:18Z</time>
      </trkpt>
      <trkpt lat="41.9545180" lon="-8.7440870">
        <ele>13.8</ele>
        <time>2019-08-16T14:09:19Z</time>
      </trkpt>
      <trkpt lat="41.9545930" lon="-8.7440840">
        <ele>13.4</ele>
        <time>2019-08-16T14:09:20Z</time>
      </trkpt>
      <trkpt lat="41.9546630" lon="-8.7440840">
        <ele>13.4</ele>
        <time>2019-08-16T14:09:21Z</time>
      </trkpt>
      <trkpt lat="41.9551860" lon="-8.7440950">
        <ele>13.4</ele>
        <time>2019-08-16T14:09:29Z</time>
      </trkpt>
      <trkpt lat="41.9556010" lon="-8.7440950">
        <ele>13.4</ele>
        <time>2019-08-16T14:09:35Z</time>
      </trkpt>
      <trkpt lat="41.9560490" lon="-8.7441140">
        <ele>13.4</ele>
        <time>2019-08-16T14:09:42Z</time>
      </trkpt>
      <trkpt lat="41.9561060" lon="-8.7441100">
        <ele>13.4</ele>
        <time>2019-08-16T14:09:43Z</time>
      </trkpt>
      <trkpt lat="41.9562720" lon="-8.7441530">
        <ele>13.4</ele>
        <time>2019-08-16T14:09:46Z</time>
      </trkpt>
      <trkpt lat="41.9563520" lon="-8.7443390">
        <ele>13.4</ele>
        <time>2019-08-16T14:09:49Z</time>
      </trkpt>
      <trkpt lat="41.9563510" lon="-8.7444940">
        <ele>13.4</ele>
        <time>2019-08-16T14:09:51Z</time>
      </trkpt>
      <trkpt lat="41.9563580" lon="-8.7447740">
        <ele>13.4</ele>
        <time>2019-08-16T14:09:55Z</time>
      </trkpt>
      <trkpt lat="41.9563650" lon="-8.7448330">
        <ele>13.4</ele>
        <time>2019-08-16T14:09:56Z</time>
      </trkpt>
      <trkpt lat="41.9564580" lon="-8.7449620">
        <ele>13.4</ele>
        <time>2019-08-16T14:09:59Z</time>
      </trkpt>
      <trkpt lat="41.9565650" lon="-8.7449550">
        <ele>13.4</ele>
        <time>2019-08-16T14:10:01Z</time>
      </trkpt>
      <trkpt lat="41.9566710" lon="-8.7449480">
        <ele>13.4</ele>
        <time>2019-08-16T14:10:03Z</time>
      </trkpt>
      <trkpt lat="41.9570120" lon="-8.7449470">
        <ele>13.4</ele>
        <time>2019-08-16T14:10:09Z</time>
      </trkpt>
      <trkpt lat="41.9574440" lon="-8.7449640">
        <ele>13.4</ele>
        <time>2019-08-16T14:10:17Z</time>
      </trkpt>
      <trkpt lat="41.9578460" lon="-8.7449600">
        <ele>13.4</ele>
        <time>2019-08-16T14:10:24Z</time>
      </trkpt>
      <trkpt lat="41.9580570" lon="-8.7449430">
        <ele>13.4</ele>
        <time>2019-08-16T14:10:28Z</time>
      </trkpt>
      <trkpt lat="41.9581460" lon="-8.7449660">
        <ele>13.4</ele>
        <time>2019-08-16T14:10:30Z</time>
      </trkpt>
      <trkpt lat="41.9582500" lon="-8.7450920">
        <ele>13.4</ele>
        <time>2019-08-16T14:10:33Z</time>
      </trkpt>
      <trkpt lat="41.9582890" lon="-8.7452080">
        <ele>13.4</ele>
        <time>2019-08-16T14:10:35Z</time>
      </trkpt>
      <trkpt lat="41.9583220" lon="-8.7453930">
        <ele>13.4</ele>
        <time>2019-08-16T14:10:38Z</time>
      </trkpt>
      <trkpt lat="41.9582970" lon="-8.7456480">
        <ele>13.4</ele>
        <time>2019-08-16T14:10:42Z</time>
      </trkpt>
      <trkpt lat="41.9582310" lon="-8.7459420">
        <ele>13.4</ele>
        <time>2019-08-16T14:10:48Z</time>
      </trkpt>
      <trkpt lat="41.9581490" lon="-8.7460660">
        <ele>13.4</ele>
        <time>2019-08-16T14:10:52Z</time>
      </trkpt>
      <trkpt lat="41.9581380" lon="-8.7461030">
        <ele>13.4</ele>
        <time>2019-08-16T14:10:53Z</time>
      </trkpt>
      <trkpt lat="41.9581250" lon="-8.7461250">
        <ele>13.4</ele>
        <time>2019-08-16T14:10:57Z</time>
      </trkpt>
      <trkpt lat="41.9581580" lon="-8.7461160">
        <ele>13.4</ele>
        <time>2019-08-16T14:11:05Z</time>
      </trkpt>
      <trkpt lat="41.9582620" lon="-8.7459340">
        <ele>13.4</ele>
        <time>2019-08-16T14:11:11Z</time>
      </trkpt>
      <trkpt lat="41.9584390" lon="-8.7457550">
        <ele>13.4</ele>
        <time>2019-08-16T14:11:17Z</time>
      </trkpt>
      <trkpt lat="41.9585570" lon="-8.7456080">
        <ele>13.4</ele>
        <time>2019-08-16T14:11:22Z</time>
      </trkpt>
      <trkpt lat="41.9587370" lon="-8.7454720">
        <ele>13.4</ele>
        <time>2019-08-16T14:11:29Z</time>
      </trkpt>
      <trkpt lat="41.9589620" lon="-8.7453390">
        <ele>13.4</ele>
        <time>2019-08-16T14:11:35Z</time>
      </trkpt>
      <trkpt lat="41.9591230" lon="-8.7453600">
        <ele>13.4</ele>
        <time>2019-08-16T14:11:40Z</time>
      </trkpt>
      <trkpt lat="41.9593440" lon="-8.7454090">
        <ele>13.4</ele>
        <time>2019-08-16T14:11:46Z</time>
      </trkpt>
      <trkpt lat="41.9594710" lon="-8.7454040">
        <ele>13.4</ele>
        <time>2019-08-16T14:11:49Z</time>
      </trkpt>
      <trkpt lat="41.9596020" lon="-8.7453510">
        <ele>13.4</ele>
        <time>2019-08-16T14:11:52Z</time>
      </trkpt>
      <trkpt lat="41.9596980" lon="-8.7452930">
        <ele>13.4</ele>
        <time>2019-08-16T14:11:54Z</time>
      </trkpt>
      <trkpt lat="41.9598060" lon="-8.7451690">
        <ele>13.4</ele>
        <time>2019-08-16T14:11:57Z</time>
      </trkpt>
      <trkpt lat="41.9598330" lon="-8.7451240">
        <ele>13.4</ele>
        <time>2019-08-16T14:11:58Z</time>
      </trkpt>
      <trkpt lat="41.9598940" lon="-8.7450320">
        <ele>13.4</ele>
        <time>2019-08-16T14:12:00Z</time>
      </trkpt>
      <trkpt lat="41.9600460" lon="-8.7449230">
        <ele>13.4</ele>
        <time>2019-08-16T14:12:03Z</time>
      </trkpt>
      <trkpt lat="41.9602250" lon="-8.7447910">
        <ele>13.0</ele>
        <time>2019-08-16T14:12:07Z</time>
      </trkpt>
      <trkpt lat="41.9602670" lon="-8.7447570">
        <ele>12.6</ele>
        <time>2019-08-16T14:12:08Z</time>
      </trkpt>
      <trkpt lat="41.9603140" lon="-8.7447270">
        <ele>12.2</ele>
        <time>2019-08-16T14:12:09Z</time>
      </trkpt>
      <trkpt lat="41.9603530" lon="-8.7446940">
        <ele>11.8</ele>
        <time>2019-08-16T14:12:10Z</time>
      </trkpt>
      <trkpt lat="41.9603930" lon="-8.7446610">
        <ele>11.4</ele>
        <time>2019-08-16T14:12:11Z</time>
      </trkpt>
      <trkpt lat="41.9606290" lon="-8.7445020">
        <ele>11.4</ele>
        <time>2019-08-16T14:12:16Z</time>
      </trkpt>
      <trkpt lat="41.9607600" lon="-8.7443920">
        <ele>11.4</ele>
        <time>2019-08-16T14:12:19Z</time>
      </trkpt>
      <trkpt lat="41.9611970" lon="-8.7439830">
        <ele>11.4</ele>
        <time>2019-08-16T14:12:29Z</time>
      </trkpt>
      <trkpt lat="41.9613070" lon="-8.7438460">
        <ele>11.4</ele>
        <time>2019-08-16T14:12:32Z</time>
      </trkpt>
      <trkpt lat="41.9615130" lon="-8.7435950">
        <ele>11.4</ele>
        <time>2019-08-16T14:12:38Z</time>
      </trkpt>
      <trkpt lat="41.9618850" lon="-8.7432400">
        <ele>11.4</ele>
        <time>2019-08-16T14:12:47Z</time>
      </trkpt>
      <trkpt lat="41.9623530" lon="-8.7427730">
        <ele>11.4</ele>
        <time>2019-08-16T14:12:58Z</time>
      </trkpt>
      <trkpt lat="41.9623900" lon="-8.7427270">
        <ele>11.4</ele>
        <time>2019-08-16T14:12:59Z</time>
      </trkpt>
      <trkpt lat="41.9626710" lon="-8.7424180">
        <ele>11.4</ele>
        <time>2019-08-16T14:13:06Z</time>
      </trkpt>
      <trkpt lat="41.9627080" lon="-8.7423750">
        <ele>11.4</ele>
        <time>2019-08-16T14:13:07Z</time>
      </trkpt>
      <trkpt lat="41.9629360" lon="-8.7420400">
        <ele>11.4</ele>
        <time>2019-08-16T14:13:14Z</time>
      </trkpt>
      <trkpt lat="41.9631330" lon="-8.7417270">
        <ele>11.4</ele>
        <time>2019-08-16T14:13:20Z</time>
      </trkpt>
      <trkpt lat="41.9631700" lon="-8.7416800">
        <ele>11.4</ele>
        <time>2019-08-16T14:13:21Z</time>
      </trkpt>
      <trkpt lat="41.9634480" lon="-8.7413810">
        <ele>11.4</ele>
        <time>2019-08-16T14:13:27Z</time>
      </trkpt>
      <trkpt lat="41.9637240" lon="-8.7411340">
        <ele>11.4</ele>
        <time>2019-08-16T14:13:33Z</time>
      </trkpt>
      <trkpt lat="41.9640860" lon="-8.7407360">
        <ele>11.4</ele>
        <time>2019-08-16T14:13:40Z</time>
      </trkpt>
      <trkpt lat="41.9645310" lon="-8.7402780">
        <ele>11.4</ele>
        <time>2019-08-16T14:13:49Z</time>
      </trkpt>
      <trkpt lat="41.9647930" lon="-8.7399220">
        <ele>11.4</ele>
        <time>2019-08-16T14:13:55Z</time>
      </trkpt>
      <trkpt lat="41.9648400" lon="-8.7398690">
        <ele>11.4</ele>
        <time>2019-08-16T14:13:56Z</time>
      </trkpt>
      <trkpt lat="41.9650590" lon="-8.7396540">
        <ele>11.4</ele>
        <time>2019-08-16T14:14:00Z</time>
      </trkpt>
      <trkpt lat="41.9652270" lon="-8.7394930">
        <ele>11.4</ele>
        <time>2019-08-16T14:14:03Z</time>
      </trkpt>
      <trkpt lat="41.9653260" lon="-8.7393720">
        <ele>11.4</ele>
        <time>2019-08-16T14:14:05Z</time>
      </trkpt>
      <trkpt lat="41.9654540" lon="-8.7391690">
        <ele>11.4</ele>
        <time>2019-08-16T14:14:08Z</time>
      </trkpt>
      <trkpt lat="41.9655200" lon="-8.7390230">
        <ele>11.4</ele>
        <time>2019-08-16T14:14:10Z</time>
      </trkpt>
      <trkpt lat="41.9656300" lon="-8.7388130">
        <ele>11.4</ele>
        <time>2019-08-16T14:14:13Z</time>
      </trkpt>
      <trkpt lat="41.9659200" lon="-8.7383820">
        <ele>11.4</ele>
        <time>2019-08-16T14:14:20Z</time>
      </trkpt>
      <trkpt lat="41.9663290" lon="-8.7378050">
        <ele>11.4</ele>
        <time>2019-08-16T14:14:29Z</time>
      </trkpt>
      <trkpt lat="41.9667650" lon="-8.7372570">
        <ele>11.4</ele>
        <time>2019-08-16T14:14:38Z</time>
      </trkpt>
      <trkpt lat="41.9669280" lon="-8.7370530">
        <ele>11.4</ele>
        <time>2019-08-16T14:14:41Z</time>
      </trkpt>
      <trkpt lat="41.9670740" lon="-8.7368480">
        <ele>11.4</ele>
        <time>2019-08-16T14:14:44Z</time>
      </trkpt>
      <trkpt lat="41.9674790" lon="-8.7363480">
        <ele>11.4</ele>
        <time>2019-08-16T14:14:52Z</time>
      </trkpt>
      <trkpt lat="41.9675290" lon="-8.7362890">
        <ele>11.4</ele>
        <time>2019-08-16T14:14:53Z</time>
      </trkpt>
      <trkpt lat="41.9679250" lon="-8.7357760">
        <ele>11.4</ele>
        <time>2019-08-16T14:15:01Z</time>
      </trkpt>
      <trkpt lat="41.9680250" lon="-8.7356480">
        <ele>11.4</ele>
        <time>2019-08-16T14:15:03Z</time>
      </trkpt>
      <trkpt lat="41.9684450" lon="-8.7350650">
        <ele>11.4</ele>
        <time>2019-08-16T14:15:12Z</time>
      </trkpt>
      <trkpt lat="41.9688180" lon="-8.7346090">
        <ele>11.4</ele>
        <time>2019-08-16T14:15:19Z</time>
      </trkpt>
      <trkpt lat="41.9690640" lon="-8.7341590">
        <ele>11.4</ele>
        <time>2019-08-16T14:15:25Z</time>
      </trkpt>
      <trkpt lat="41.9693460" lon="-8.7336290">
        <ele>11.4</ele>
        <time>2019-08-16T14:15:32Z</time>
      </trkpt>
      <trkpt lat="41.9693740" lon="-8.7335310">
        <ele>11.4</ele>
        <time>2019-08-16T14:15:33Z</time>
      </trkpt>
      <trkpt lat="41.9694590" lon="-8.7332720">
        <ele>11.4</ele>
        <time>2019-08-16T14:15:36Z</time>
      </trkpt>
      <trkpt lat="41.9696320" lon="-8.7328430">
        <ele>11.4</ele>
        <time>2019-08-16T14:15:42Z</time>
      </trkpt>
      <trkpt lat="41.9698360" lon="-8.7324070">
        <ele>11.4</ele>
        <time>2019-08-16T14:15:47Z</time>
      </trkpt>
      <trkpt lat="41.9700690" lon="-8.7318610">
        <ele>11.4</ele>
        <time>2019-08-16T14:15:54Z</time>
      </trkpt>
      <trkpt lat="41.9701130" lon="-8.7317930">
        <ele>11.4</ele>
        <time>2019-08-16T14:15:55Z</time>
      </trkpt>
      <trkpt lat="41.9702550" lon="-8.7315140">
        <ele>11.4</ele>
        <time>2019-08-16T14:15:59Z</time>
      </trkpt>
      <trkpt lat="41.9705590" lon="-8.7308360">
        <ele>11.4</ele>
        <time>2019-08-16T14:16:08Z</time>
      </trkpt>
      <trkpt lat="41.9707470" lon="-8.7304910">
        <ele>11.4</ele>
        <time>2019-08-16T14:16:13Z</time>
      </trkpt>
      <trkpt lat="41.9708420" lon="-8.7303690">
        <ele>11.4</ele>
        <time>2019-08-16T14:16:15Z</time>
      </trkpt>
      <trkpt lat="41.9711570" lon="-8.7299650">
        <ele>11.4</ele>
        <time>2019-08-16T14:16:22Z</time>
      </trkpt>
      <trkpt lat="41.9714990" lon="-8.7294840">
        <ele>11.4</ele>
        <time>2019-08-16T14:16:30Z</time>
      </trkpt>
      <trkpt lat="41.9717330" lon="-8.7290130">
        <ele>11.4</ele>
        <time>2019-08-16T14:16:37Z</time>
      </trkpt>
      <trkpt lat="41.9719520" lon="-8.7287670">
        <ele>11.4</ele>
        <time>2019-08-16T14:16:41Z</time>
      </trkpt>
      <trkpt lat="41.9720190" lon="-8.7287140">
        <ele>11.4</ele>
        <time>2019-08-16T14:16:42Z</time>
      </trkpt>
      <trkpt lat="41.9723580" lon="-8.7282820">
        <ele>11.4</ele>
        <time>2019-08-16T14:16:49Z</time>
      </trkpt>
      <trkpt lat="41.9724000" lon="-8.7282090">
        <ele>11.4</ele>
        <time>2019-08-16T14:16:50Z</time>
      </trkpt>
      <trkpt lat="41.9725240" lon="-8.7279330">
        <ele>11.4</ele>
        <time>2019-08-16T14:16:54Z</time>
      </trkpt>
      <trkpt lat="41.9727570" lon="-8.7274110">
        <ele>11.4</ele>
        <time>2019-08-16T14:17:01Z</time>
      </trkpt>
      <trkpt lat="41.9729720" lon="-8.7269110">
        <ele>11.4</ele>
        <time>2019-08-16T14:17:08Z</time>
      </trkpt>
      <trkpt lat="41.9731110" lon="-8.7266740">
        <ele>11.8</ele>
        <time>2019-08-16T14:17:12Z</time>
      </trkpt>
      <trkpt lat="41.9731510" lon="-8.7266220">
        <ele>12.2</ele>
        <time>2019-08-16T14:17:13Z</time>
      </trkpt>
      <trkpt lat="41.9731970" lon="-8.7265690">
        <ele>12.6</ele>
        <time>2019-08-16T14:17:14Z</time>
      </trkpt>
      <trkpt lat="41.9732460" lon="-8.7265110">
        <ele>13.2</ele>
        <time>2019-08-16T14:17:15Z</time>
      </trkpt>
      <trkpt lat="41.9733000" lon="-8.7264560">
        <ele>13.6</ele>
        <time>2019-08-16T14:17:16Z</time>
      </trkpt>
      <trkpt lat="41.9735380" lon="-8.7261970">
        <ele>13.6</ele>
        <time>2019-08-16T14:17:21Z</time>
      </trkpt>
      <trkpt lat="41.9738340" lon="-8.7258400">
        <ele>13.6</ele>
        <time>2019-08-16T14:17:27Z</time>
      </trkpt>
      <trkpt lat="41.9739400" lon="-8.7257180">
        <ele>13.6</ele>
        <time>2019-08-16T14:17:29Z</time>
      </trkpt>
      <trkpt lat="41.9741880" lon="-8.7252860">
        <ele>13.6</ele>
        <time>2019-08-16T14:17:35Z</time>
      </trkpt>
      <trkpt lat="41.9744430" lon="-8.7247600">
        <ele>13.6</ele>
        <time>2019-08-16T14:17:42Z</time>
      </trkpt>
      <trkpt lat="41.9747010" lon="-8.7242890">
        <ele>13.0</ele>
        <time>2019-08-16T14:17:48Z</time>
      </trkpt>
      <trkpt lat="41.9747470" lon="-8.7242140">
        <ele>12.6</ele>
        <time>2019-08-16T14:17:49Z</time>
      </trkpt>
      <trkpt lat="41.9747900" lon="-8.7241420">
        <ele>12.2</ele>
        <time>2019-08-16T14:17:50Z</time>
      </trkpt>
      <trkpt lat="41.9748370" lon="-8.7240740">
        <ele>11.8</ele>
        <time>2019-08-16T14:17:51Z</time>
      </trkpt>
      <trkpt lat="41.9748780" lon="-8.7239990">
        <ele>11.4</ele>
        <time>2019-08-16T14:17:52Z</time>
      </trkpt>
      <trkpt lat="41.9750450" lon="-8.7237170">
        <ele>11.4</ele>
        <time>2019-08-16T14:17:56Z</time>
      </trkpt>
      <trkpt lat="41.9751150" lon="-8.7235630">
        <ele>11.4</ele>
        <time>2019-08-16T14:17:58Z</time>
      </trkpt>
      <trkpt lat="41.9752530" lon="-8.7232630">
        <ele>11.4</ele>
        <time>2019-08-16T14:18:02Z</time>
      </trkpt>
      <trkpt lat="41.9753090" lon="-8.7229030">
        <ele>11.4</ele>
        <time>2019-08-16T14:18:06Z</time>
      </trkpt>
      <trkpt lat="41.9754220" lon="-8.7222350">
        <ele>11.4</ele>
        <time>2019-08-16T14:18:13Z</time>
      </trkpt>
      <trkpt lat="41.9754520" lon="-8.7221560">
        <ele>11.4</ele>
        <time>2019-08-16T14:18:14Z</time>
      </trkpt>
      <trkpt lat="41.9755680" lon="-8.7218450">
        <ele>11.4</ele>
        <time>2019-08-16T14:18:18Z</time>
      </trkpt>
      <trkpt lat="41.9755790" lon="-8.7217670">
        <ele>11.4</ele>
        <time>2019-08-16T14:18:19Z</time>
      </trkpt>
      <trkpt lat="41.9756050" lon="-8.7215390">
        <ele>11.4</ele>
        <time>2019-08-16T14:18:22Z</time>
      </trkpt>
      <trkpt lat="41.9756080" lon="-8.7214610">
        <ele>11.4</ele>
        <time>2019-08-16T14:18:23Z</time>
      </trkpt>
      <trkpt lat="41.9756460" lon="-8.7209550">
        <ele>11.4</ele>
        <time>2019-08-16T14:18:29Z</time>
      </trkpt>
      <trkpt lat="41.9757310" lon="-8.7205900">
        <ele>11.4</ele>
        <time>2019-08-16T14:18:34Z</time>
      </trkpt>
      <trkpt lat="41.9760100" lon="-8.7200100">
        <ele>11.4</ele>
        <time>2019-08-16T14:18:42Z</time>
      </trkpt>
      <trkpt lat="41.9762050" lon="-8.7196190">
        <ele>11.4</ele>
        <time>2019-08-16T14:18:48Z</time>
      </trkpt>
      <trkpt lat="41.9764990" lon="-8.7190030">
        <ele>11.4</ele>
        <time>2019-08-16T14:18:57Z</time>
      </trkpt>
      <trkpt lat="41.9767800" lon="-8.7184150">
        <ele>11.4</ele>
        <time>2019-08-16T14:19:06Z</time>
      </trkpt>
      <trkpt lat="41.9768570" lon="-8.7182080">
        <ele>11.4</ele>
        <time>2019-08-16T14:19:09Z</time>
      </trkpt>
      <trkpt lat="41.9769600" lon="-8.7179920">
        <ele>11.4</ele>
        <time>2019-08-16T14:19:12Z</time>
      </trkpt>
      <trkpt lat="41.9771840" lon="-8.7175430">
        <ele>11.4</ele>
        <time>2019-08-16T14:19:19Z</time>
      </trkpt>
      <trkpt lat="41.9773460" lon="-8.7172280">
        <ele>11.4</ele>
        <time>2019-08-16T14:19:24Z</time>
      </trkpt>
      <trkpt lat="41.9773900" lon="-8.7171710">
        <ele>11.4</ele>
        <time>2019-08-16T14:19:25Z</time>
      </trkpt>
      <trkpt lat="41.9776600" lon="-8.7167590">
        <ele>11.4</ele>
        <time>2019-08-16T14:19:32Z</time>
      </trkpt>
      <trkpt lat="41.9778410" lon="-8.7164680">
        <ele>11.4</ele>
        <time>2019-08-16T14:19:37Z</time>
      </trkpt>
      <trkpt lat="41.9778990" lon="-8.7164160">
        <ele>11.4</ele>
        <time>2019-08-16T14:19:38Z</time>
      </trkpt>
      <trkpt lat="41.9780740" lon="-8.7162350">
        <ele>11.4</ele>
        <time>2019-08-16T14:19:41Z</time>
      </trkpt>
      <trkpt lat="41.9781130" lon="-8.7161540">
        <ele>11.4</ele>
        <time>2019-08-16T14:19:42Z</time>
      </trkpt>
      <trkpt lat="41.9781540" lon="-8.7160810">
        <ele>11.4</ele>
        <time>2019-08-16T14:19:43Z</time>
      </trkpt>
      <trkpt lat="41.9782740" lon="-8.7158650">
        <ele>11.8</ele>
        <time>2019-08-16T14:19:46Z</time>
      </trkpt>
      <trkpt lat="41.9783070" lon="-8.7157960">
        <ele>12.2</ele>
        <time>2019-08-16T14:19:47Z</time>
      </trkpt>
      <trkpt lat="41.9783350" lon="-8.7157300">
        <ele>12.6</ele>
        <time>2019-08-16T14:19:48Z</time>
      </trkpt>
      <trkpt lat="41.9783590" lon="-8.7156610">
        <ele>13.0</ele>
        <time>2019-08-16T14:19:49Z</time>
      </trkpt>
      <trkpt lat="41.9783920" lon="-8.7155910">
        <ele>13.4</ele>
        <time>2019-08-16T14:19:50Z</time>
      </trkpt>
      <trkpt lat="41.9785670" lon="-8.7151660">
        <ele>13.4</ele>
        <time>2019-08-16T14:19:56Z</time>
      </trkpt>
      <trkpt lat="41.9786880" lon="-8.7148910">
        <ele>13.4</ele>
        <time>2019-08-16T14:20:01Z</time>
      </trkpt>
      <trkpt lat="41.9787300" lon="-8.7147730">
        <ele>13.4</ele>
        <time>2019-08-16T14:20:03Z</time>
      </trkpt>
      <trkpt lat="41.9789200" lon="-8.7144440">
        <ele>13.4</ele>
        <time>2019-08-16T14:20:09Z</time>
      </trkpt>
      <trkpt lat="41.9789640" lon="-8.7143670">
        <ele>13.4</ele>
        <time>2019-08-16T14:20:10Z</time>
      </trkpt>
      <trkpt lat="41.9790490" lon="-8.7140890">
        <ele>13.4</ele>
        <time>2019-08-16T14:20:14Z</time>
      </trkpt>
      <trkpt lat="41.9791900" lon="-8.7137420">
        <ele>13.4</ele>
        <time>2019-08-16T14:20:19Z</time>
      </trkpt>
      <trkpt lat="41.9793440" lon="-8.7133370">
        <ele>13.4</ele>
        <time>2019-08-16T14:20:25Z</time>
      </trkpt>
      <trkpt lat="41.9793860" lon="-8.7129390">
        <ele>13.4</ele>
        <time>2019-08-16T14:20:30Z</time>
      </trkpt>
      <trkpt lat="41.9793930" lon="-8.7125020">
        <ele>13.4</ele>
        <time>2019-08-16T14:20:36Z</time>
      </trkpt>
      <trkpt lat="41.9794520" lon="-8.7119230">
        <ele>13.4</ele>
        <time>2019-08-16T14:20:43Z</time>
      </trkpt>
      <trkpt lat="41.9794840" lon="-8.7114250">
        <ele>13.4</ele>
        <time>2019-08-16T14:20:50Z</time>
      </trkpt>
      <trkpt lat="41.9795840" lon="-8.7109480">
        <ele>13.4</ele>
        <time>2019-08-16T14:20:57Z</time>
      </trkpt>
      <trkpt lat="41.9796480" lon="-8.7105990">
        <ele>13.4</ele>
        <time>2019-08-16T14:21:03Z</time>
      </trkpt>
      <trkpt lat="41.9797400" lon="-8.7101500">
        <ele>13.4</ele>
        <time>2019-08-16T14:21:11Z</time>
      </trkpt>
      <trkpt lat="41.9798160" lon="-8.7097570">
        <ele>13.4</ele>
        <time>2019-08-16T14:21:17Z</time>
      </trkpt>
      <trkpt lat="41.9799100" lon="-8.7093870">
        <ele>13.4</ele>
        <time>2019-08-16T14:21:22Z</time>
      </trkpt>
      <trkpt lat="41.9800290" lon="-8.7088810">
        <ele>13.4</ele>
        <time>2019-08-16T14:21:29Z</time>
      </trkpt>
      <trkpt lat="41.9800560" lon="-8.7088150">
        <ele>13.4</ele>
        <time>2019-08-16T14:21:30Z</time>
      </trkpt>
      <trkpt lat="41.9801100" lon="-8.7086150">
        <ele>13.4</ele>
        <time>2019-08-16T14:21:33Z</time>
      </trkpt>
      <trkpt lat="41.9802120" lon="-8.7080650">
        <ele>13.4</ele>
        <time>2019-08-16T14:21:40Z</time>
      </trkpt>
      <trkpt lat="41.9802520" lon="-8.7076560">
        <ele>13.4</ele>
        <time>2019-08-16T14:21:45Z</time>
      </trkpt>
      <trkpt lat="41.9802740" lon="-8.7074890">
        <ele>13.4</ele>
        <time>2019-08-16T14:21:47Z</time>
      </trkpt>
      <trkpt lat="41.9803460" lon="-8.7070660">
        <ele>13.4</ele>
        <time>2019-08-16T14:21:53Z</time>
      </trkpt>
      <trkpt lat="41.9803930" lon="-8.7066680">
        <ele>13.4</ele>
        <time>2019-08-16T14:21:58Z</time>
      </trkpt>
      <trkpt lat="41.9803920" lon="-8.7065760">
        <ele>13.4</ele>
        <time>2019-08-16T14:21:59Z</time>
      </trkpt>
      <trkpt lat="41.9804300" lon="-8.7059930">
        <ele>13.4</ele>
        <time>2019-08-16T14:22:06Z</time>
      </trkpt>
      <trkpt lat="41.9805580" lon="-8.7055260">
        <ele>13.4</ele>
        <time>2019-08-16T14:22:13Z</time>
      </trkpt>
      <trkpt lat="41.9807190" lon="-8.7052300">
        <ele>13.8</ele>
        <time>2019-08-16T14:22:18Z</time>
      </trkpt>
      <trkpt lat="41.9807180" lon="-8.7051500">
        <ele>14.2</ele>
        <time>2019-08-16T14:22:19Z</time>
      </trkpt>
      <trkpt lat="41.9807340" lon="-8.7050860">
        <ele>14.6</ele>
        <time>2019-08-16T14:22:20Z</time>
      </trkpt>
      <trkpt lat="41.9807440" lon="-8.7050060">
        <ele>15.0</ele>
        <time>2019-08-16T14:22:21Z</time>
      </trkpt>
      <trkpt lat="41.9807920" lon="-8.7049350">
        <ele>15.4</ele>
        <time>2019-08-16T14:22:22Z</time>
      </trkpt>
      <trkpt lat="41.9808140" lon="-8.7047620">
        <ele>15.4</ele>
        <time>2019-08-16T14:22:24Z</time>
      </trkpt>
      <trkpt lat="41.9808920" lon="-8.7041420">
        <ele>15.4</ele>
        <time>2019-08-16T14:22:32Z</time>
      </trkpt>
      <trkpt lat="41.9809840" lon="-8.7037000">
        <ele>15.4</ele>
        <time>2019-08-16T14:22:38Z</time>
      </trkpt>
      <trkpt lat="41.9810090" lon="-8.7035630">
        <ele>15.4</ele>
        <time>2019-08-16T14:22:40Z</time>
      </trkpt>
      <trkpt lat="41.9810420" lon="-8.7033450">
        <ele>15.4</ele>
        <time>2019-08-16T14:22:43Z</time>
      </trkpt>
      <trkpt lat="41.9811060" lon="-8.7028320">
        <ele>15.4</ele>
        <time>2019-08-16T14:22:49Z</time>
      </trkpt>
      <trkpt lat="41.9812060" lon="-8.7023160">
        <ele>15.4</ele>
        <time>2019-08-16T14:22:56Z</time>
      </trkpt>
      <trkpt lat="41.9813400" lon="-8.7018590">
        <ele>15.4</ele>
        <time>2019-08-16T14:23:02Z</time>
      </trkpt>
      <trkpt lat="41.9815040" lon="-8.7010800">
        <ele>15.4</ele>
        <time>2019-08-16T14:23:11Z</time>
      </trkpt>
      <trkpt lat="41.9815990" lon="-8.7005400">
        <ele>15.4</ele>
        <time>2019-08-16T14:23:17Z</time>
      </trkpt>
      <trkpt lat="41.9817310" lon="-8.6999900">
        <ele>15.0</ele>
        <time>2019-08-16T14:23:22Z</time>
      </trkpt>
      <trkpt lat="41.9817570" lon="-8.6998950">
        <ele>14.6</ele>
        <time>2019-08-16T14:23:23Z</time>
      </trkpt>
      <trkpt lat="41.9817830" lon="-8.6998010">
        <ele>14.2</ele>
        <time>2019-08-16T14:23:24Z</time>
      </trkpt>
      <trkpt lat="41.9818040" lon="-8.6997110">
        <ele>13.8</ele>
        <time>2019-08-16T14:23:25Z</time>
      </trkpt>
      <trkpt lat="41.9818270" lon="-8.6996240">
        <ele>13.4</ele>
        <time>2019-08-16T14:23:26Z</time>
      </trkpt>
      <trkpt lat="41.9819440" lon="-8.6993010">
        <ele>13.4</ele>
        <time>2019-08-16T14:23:30Z</time>
      </trkpt>
      <trkpt lat="41.9821440" lon="-8.6987540">
        <ele>13.4</ele>
        <time>2019-08-16T14:23:37Z</time>
      </trkpt>
      <trkpt lat="41.9822920" lon="-8.6982000">
        <ele>13.4</ele>
        <time>2019-08-16T14:23:44Z</time>
      </trkpt>
      <trkpt lat="41.9823850" lon="-8.6978670">
        <ele>13.4</ele>
        <time>2019-08-16T14:23:48Z</time>
      </trkpt>
      <trkpt lat="41.9824470" lon="-8.6977150">
        <ele>13.4</ele>
        <time>2019-08-16T14:23:50Z</time>
      </trkpt>
      <trkpt lat="41.9826910" lon="-8.6971580">
        <ele>13.4</ele>
        <time>2019-08-16T14:23:57Z</time>
      </trkpt>
      <trkpt lat="41.9829850" lon="-8.6965190">
        <ele>13.4</ele>
        <time>2019-08-16T14:24:05Z</time>
      </trkpt>
      <trkpt lat="41.9832120" lon="-8.6960810">
        <ele>13.4</ele>
        <time>2019-08-16T14:24:11Z</time>
      </trkpt>
      <trkpt lat="41.9835650" lon="-8.6954590">
        <ele>13.4</ele>
        <time>2019-08-16T14:24:19Z</time>
      </trkpt>
      <trkpt lat="41.9838850" lon="-8.6948450">
        <ele>13.4</ele>
        <time>2019-08-16T14:24:27Z</time>
      </trkpt>
      <trkpt lat="41.9839710" lon="-8.6947130">
        <ele>13.4</ele>
        <time>2019-08-16T14:24:29Z</time>
      </trkpt>
      <trkpt lat="41.9841520" lon="-8.6943560">
        <ele>13.4</ele>
        <time>2019-08-16T14:24:34Z</time>
      </trkpt>
      <trkpt lat="41.9842230" lon="-8.6942140">
        <ele>13.4</ele>
        <time>2019-08-16T14:24:36Z</time>
      </trkpt>
      <trkpt lat="41.9845130" lon="-8.6937110">
        <ele>13.4</ele>
        <time>2019-08-16T14:24:43Z</time>
      </trkpt>
      <trkpt lat="41.9848070" lon="-8.6932480">
        <ele>13.4</ele>
        <time>2019-08-16T14:24:50Z</time>
      </trkpt>
      <trkpt lat="41.9852220" lon="-8.6927060">
        <ele>13.4</ele>
        <time>2019-08-16T14:24:59Z</time>
      </trkpt>
      <trkpt lat="41.9852580" lon="-8.6926440">
        <ele>13.4</ele>
        <time>2019-08-16T14:25:00Z</time>
      </trkpt>
      <trkpt lat="41.9854640" lon="-8.6923530">
        <ele>13.4</ele>
        <time>2019-08-16T14:25:06Z</time>
      </trkpt>
      <trkpt lat="41.9855610" lon="-8.6921660">
        <ele>13.4</ele>
        <time>2019-08-16T14:25:11Z</time>
      </trkpt>
      <trkpt lat="41.9855660" lon="-8.6918940">
        <ele>13.4</ele>
        <time>2019-08-16T14:25:17Z</time>
      </trkpt>
      <trkpt lat="41.9855090" lon="-8.6915920">
        <ele>13.4</ele>
        <time>2019-08-16T14:25:23Z</time>
      </trkpt>
      <trkpt lat="41.9856740" lon="-8.6914480">
        <ele>13.4</ele>
        <time>2019-08-16T14:25:27Z</time>
      </trkpt>
      <trkpt lat="41.9857390" lon="-8.6914820">
        <ele>13.4</ele>
        <time>2019-08-16T14:25:28Z</time>
      </trkpt>
      <trkpt lat="41.9858530" lon="-8.6915750">
        <ele>13.4</ele>
        <time>2019-08-16T14:25:31Z</time>
      </trkpt>
      <trkpt lat="41.9859770" lon="-8.6916010">
        <ele>13.4</ele>
        <time>2019-08-16T14:25:34Z</time>
      </trkpt>
      <trkpt lat="41.9860180" lon="-8.6915820">
        <ele>13.8</ele>
        <time>2019-08-16T14:25:35Z</time>
      </trkpt>
      <trkpt lat="41.9860510" lon="-8.6915450">
        <ele>14.2</ele>
        <time>2019-08-16T14:25:36Z</time>
      </trkpt>
      <trkpt lat="41.9860780" lon="-8.6915020">
        <ele>14.6</ele>
        <time>2019-08-16T14:25:37Z</time>
      </trkpt>
      <trkpt lat="41.9861140" lon="-8.6914640">
        <ele>15.0</ele>
        <time>2019-08-16T14:25:38Z</time>
      </trkpt>
      <trkpt lat="41.9861490" lon="-8.6914250">
        <ele>15.4</ele>
        <time>2019-08-16T14:25:39Z</time>
      </trkpt>
      <trkpt lat="41.9862380" lon="-8.6912860">
        <ele>15.4</ele>
        <time>2019-08-16T14:25:42Z</time>
      </trkpt>
      <trkpt lat="41.9863040" lon="-8.6911770">
        <ele>15.4</ele>
        <time>2019-08-16T14:25:44Z</time>
      </trkpt>
      <trkpt lat="41.9864200" lon="-8.6910340">
        <ele>15.4</ele>
        <time>2019-08-16T14:25:47Z</time>
      </trkpt>
      <trkpt lat="41.9865020" lon="-8.6909220">
        <ele>15.4</ele>
        <time>2019-08-16T14:25:49Z</time>
      </trkpt>
      <trkpt lat="41.9866510" lon="-8.6907490">
        <ele>15.4</ele>
        <time>2019-08-16T14:25:52Z</time>
      </trkpt>
      <trkpt lat="41.9868930" lon="-8.6902980">
        <ele>15.4</ele>
        <time>2019-08-16T14:26:00Z</time>
      </trkpt>
      <trkpt lat="41.9871460" lon="-8.6899060">
        <ele>15.4</ele>
        <time>2019-08-16T14:26:07Z</time>
      </trkpt>
      <trkpt lat="41.9873510" lon="-8.6895120">
        <ele>15.4</ele>
        <time>2019-08-16T14:26:14Z</time>
      </trkpt>
      <trkpt lat="41.9874420" lon="-8.6894160">
        <ele>15.4</ele>
        <time>2019-08-16T14:26:16Z</time>
      </trkpt>
      <trkpt lat="41.9875540" lon="-8.6892380">
        <ele>15.4</ele>
        <time>2019-08-16T14:26:19Z</time>
      </trkpt>
      <trkpt lat="41.9877570" lon="-8.6888610">
        <ele>15.4</ele>
        <time>2019-08-16T14:26:24Z</time>
      </trkpt>
      <trkpt lat="41.9880960" lon="-8.6883160">
        <ele>15.4</ele>
        <time>2019-08-16T14:26:32Z</time>
      </trkpt>
      <trkpt lat="41.9882380" lon="-8.6881140">
        <ele>15.0</ele>
        <time>2019-08-16T14:26:35Z</time>
      </trkpt>
      <trkpt lat="41.9882920" lon="-8.6880450">
        <ele>14.6</ele>
        <time>2019-08-16T14:26:36Z</time>
      </trkpt>
      <trkpt lat="41.9883340" lon="-8.6879750">
        <ele>14.2</ele>
        <time>2019-08-16T14:26:37Z</time>
      </trkpt>
      <trkpt lat="41.9883800" lon="-8.6879070">
        <ele>13.8</ele>
        <time>2019-08-16T14:26:38Z</time>
      </trkpt>
      <trkpt lat="41.9884240" lon="-8.6878390">
        <ele>13.4</ele>
        <time>2019-08-16T14:26:39Z</time>
      </trkpt>
      <trkpt lat="41.9884650" lon="-8.6877680">
        <ele>13.4</ele>
        <time>2019-08-16T14:26:40Z</time>
      </trkpt>
      <trkpt lat="41.9887830" lon="-8.6871180">
        <ele>13.4</ele>
        <time>2019-08-16T14:26:49Z</time>
      </trkpt>
      <trkpt lat="41.9888210" lon="-8.6870500">
        <ele>13.4</ele>
        <time>2019-08-16T14:26:50Z</time>
      </trkpt>
      <trkpt lat="41.9890090" lon="-8.6866720">
        <ele>13.4</ele>
        <time>2019-08-16T14:26:56Z</time>
      </trkpt>
      <trkpt lat="41.9891900" lon="-8.6862860">
        <ele>13.4</ele>
        <time>2019-08-16T14:27:02Z</time>
      </trkpt>
      <trkpt lat="41.9892220" lon="-8.6859620">
        <ele>13.4</ele>
        <time>2019-08-16T14:27:06Z</time>
      </trkpt>
      <trkpt lat="41.9892410" lon="-8.6858160">
        <ele>13.4</ele>
        <time>2019-08-16T14:27:08Z</time>
      </trkpt>
      <trkpt lat="41.9892960" lon="-8.6856920">
        <ele>13.4</ele>
        <time>2019-08-16T14:27:10Z</time>
      </trkpt>
      <trkpt lat="41.9893310" lon="-8.6856320">
        <ele>13.4</ele>
        <time>2019-08-16T14:27:11Z</time>
      </trkpt>
      <trkpt lat="41.9893650" lon="-8.6855710">
        <ele>13.4</ele>
        <time>2019-08-16T14:27:12Z</time>
      </trkpt>
      <trkpt lat="41.9894340" lon="-8.6854520">
        <ele>13.4</ele>
        <time>2019-08-16T14:27:14Z</time>
      </trkpt>
      <trkpt lat="41.9895210" lon="-8.6852470">
        <ele>13.4</ele>
        <time>2019-08-16T14:27:17Z</time>
      </trkpt>
      <trkpt lat="41.9896000" lon="-8.6848000">
        <ele>13.4</ele>
        <time>2019-08-16T14:27:23Z</time>
      </trkpt>
      <trkpt lat="41.9895720" lon="-8.6844580">
        <ele>13.4</ele>
        <time>2019-08-16T14:27:27Z</time>
      </trkpt>
      <trkpt lat="41.9895530" lon="-8.6841600">
        <ele>13.4</ele>
        <time>2019-08-16T14:27:31Z</time>
      </trkpt>
      <trkpt lat="41.9895570" lon="-8.6839830">
        <ele>13.4</ele>
        <time>2019-08-16T14:27:33Z</time>
      </trkpt>
      <trkpt lat="41.9895880" lon="-8.6834850">
        <ele>13.4</ele>
        <time>2019-08-16T14:27:39Z</time>
      </trkpt>
      <trkpt lat="41.9896210" lon="-8.6830440">
        <ele>13.4</ele>
        <time>2019-08-16T14:27:45Z</time>
      </trkpt>
      <trkpt lat="41.9896160" lon="-8.6828260">
        <ele>13.4</ele>
        <time>2019-08-16T14:27:48Z</time>
      </trkpt>
      <trkpt lat="41.9895890" lon="-8.6826420">
        <ele>13.4</ele>
        <time>2019-08-16T14:27:50Z</time>
      </trkpt>
      <trkpt lat="41.9895220" lon="-8.6824080">
        <ele>13.4</ele>
        <time>2019-08-16T14:27:53Z</time>
      </trkpt>
      <trkpt lat="41.9894800" lon="-8.6822270">
        <ele>13.4</ele>
        <time>2019-08-16T14:27:55Z</time>
      </trkpt>
      <trkpt lat="41.9893990" lon="-8.6818470">
        <ele>13.8</ele>
        <time>2019-08-16T14:27:59Z</time>
      </trkpt>
      <trkpt lat="41.9893720" lon="-8.6816890">
        <ele>14.2</ele>
        <time>2019-08-16T14:28:01Z</time>
      </trkpt>
      <trkpt lat="41.9893700" lon="-8.6816180">
        <ele>15.0</ele>
        <time>2019-08-16T14:28:02Z</time>
      </trkpt>
      <trkpt lat="41.9893660" lon="-8.6815470">
        <ele>15.4</ele>
        <time>2019-08-16T14:28:03Z</time>
      </trkpt>
      <trkpt lat="41.9893220" lon="-8.6813010">
        <ele>15.4</ele>
        <time>2019-08-16T14:28:06Z</time>
      </trkpt>
      <trkpt lat="41.9891920" lon="-8.6807810">
        <ele>15.4</ele>
        <time>2019-08-16T14:28:13Z</time>
      </trkpt>
      <trkpt lat="41.9891510" lon="-8.6806710">
        <ele>15.4</ele>
        <time>2019-08-16T14:28:15Z</time>
      </trkpt>
      <trkpt lat="41.9890900" lon="-8.6805630">
        <ele>15.4</ele>
        <time>2019-08-16T14:28:17Z</time>
      </trkpt>
      <trkpt lat="41.9890140" lon="-8.6801120">
        <ele>15.4</ele>
        <time>2019-08-16T14:28:23Z</time>
      </trkpt>
      <trkpt lat="41.9889040" lon="-8.6800530">
        <ele>15.4</ele>
        <time>2019-08-16T14:28:25Z</time>
      </trkpt>
      <trkpt lat="41.9887700" lon="-8.6800470">
        <ele>15.4</ele>
        <time>2019-08-16T14:28:27Z</time>
      </trkpt>
      <trkpt lat="41.9886560" lon="-8.6800610">
        <ele>15.4</ele>
        <time>2019-08-16T14:28:29Z</time>
      </trkpt>
      <trkpt lat="41.9882950" lon="-8.6801510">
        <ele>15.4</ele>
        <time>2019-08-16T14:28:36Z</time>
      </trkpt>
      <trkpt lat="41.9882520" lon="-8.6801040">
        <ele>15.4</ele>
        <time>2019-08-16T14:28:38Z</time>
      </trkpt>
      <trkpt lat="41.9882450" lon="-8.6800630">
        <ele>15.4</ele>
        <time>2019-08-16T14:28:39Z</time>
      </trkpt>
      <trkpt lat="41.9883170" lon="-8.6799550">
        <ele>15.4</ele>
        <time>2019-08-16T14:28:42Z</time>
      </trkpt>
      <trkpt lat="41.9884710" lon="-8.6798770">
        <ele>15.4</ele>
        <time>2019-08-16T14:28:45Z</time>
      </trkpt>
      <trkpt lat="41.9885350" lon="-8.6798500">
        <ele>15.4</ele>
        <time>2019-08-16T14:28:46Z</time>
      </trkpt>
      <trkpt lat="41.9888470" lon="-8.6797400">
        <ele>15.4</ele>
        <time>2019-08-16T14:28:51Z</time>
      </trkpt>
      <trkpt lat="41.9889660" lon="-8.6797240">
        <ele>15.4</ele>
        <time>2019-08-16T14:28:53Z</time>
      </trkpt>
      <trkpt lat="41.9891470" lon="-8.6796920">
        <ele>15.4</ele>
        <time>2019-08-16T14:28:56Z</time>
      </trkpt>
      <trkpt lat="41.9892210" lon="-8.6795890">
        <ele>15.4</ele>
        <time>2019-08-16T14:28:58Z</time>
      </trkpt>
      <trkpt lat="41.9892710" lon="-8.6793650">
        <ele>15.4</ele>
        <time>2019-08-16T14:29:01Z</time>
      </trkpt>
      <trkpt lat="41.9892980" lon="-8.6792870">
        <ele>15.4</ele>
        <time>2019-08-16T14:29:02Z</time>
      </trkpt>
      <trkpt lat="41.9894180" lon="-8.6789560">
        <ele>15.4</ele>
        <time>2019-08-16T14:29:06Z</time>
      </trkpt>
      <trkpt lat="41.9896290" lon="-8.6784180">
        <ele>15.4</ele>
        <time>2019-08-16T14:29:13Z</time>
      </trkpt>
      <trkpt lat="41.9898840" lon="-8.6778380">
        <ele>15.4</ele>
        <time>2019-08-16T14:29:20Z</time>
      </trkpt>
      <trkpt lat="41.9902430" lon="-8.6771990">
        <ele>15.4</ele>
        <time>2019-08-16T14:29:28Z</time>
      </trkpt>
      <trkpt lat="41.9906220" lon="-8.6766020">
        <ele>15.4</ele>
        <time>2019-08-16T14:29:36Z</time>
      </trkpt>
      <trkpt lat="41.9910150" lon="-8.6759890">
        <ele>15.4</ele>
        <time>2019-08-16T14:29:45Z</time>
      </trkpt>
      <trkpt lat="41.9911520" lon="-8.6758060">
        <ele>15.4</ele>
        <time>2019-08-16T14:29:48Z</time>
      </trkpt>
      <trkpt lat="41.9913080" lon="-8.6756570">
        <ele>15.4</ele>
        <time>2019-08-16T14:29:51Z</time>
      </trkpt>
      <trkpt lat="41.9915980" lon="-8.6754230">
        <ele>15.4</ele>
        <time>2019-08-16T14:29:57Z</time>
      </trkpt>
      <trkpt lat="41.9918410" lon="-8.6751820">
        <ele>15.4</ele>
        <time>2019-08-16T14:30:02Z</time>
      </trkpt>
      <trkpt lat="41.9919790" lon="-8.6750380">
        <ele>15.4</ele>
        <time>2019-08-16T14:30:05Z</time>
      </trkpt>
      <trkpt lat="41.9921090" lon="-8.6749170">
        <ele>15.4</ele>
        <time>2019-08-16T14:30:08Z</time>
      </trkpt>
      <trkpt lat="41.9923130" lon="-8.6746870">
        <ele>15.4</ele>
        <time>2019-08-16T14:30:13Z</time>
      </trkpt>
      <trkpt lat="41.9923670" lon="-8.6746650">
        <ele>15.4</ele>
        <time>2019-08-16T14:30:14Z</time>
      </trkpt>
      <trkpt lat="41.9926700" lon="-8.6744850">
        <ele>15.4</ele>
        <time>2019-08-16T14:30:19Z</time>
      </trkpt>
      <trkpt lat="41.9929800" lon="-8.6742090">
        <ele>15.4</ele>
        <time>2019-08-16T14:30:25Z</time>
      </trkpt>
      <trkpt lat="41.9934580" lon="-8.6737820">
        <ele>15.4</ele>
        <time>2019-08-16T14:30:34Z</time>
      </trkpt>
      <trkpt lat="41.9937440" lon="-8.6735640">
        <ele>15.4</ele>
        <time>2019-08-16T14:30:40Z</time>
      </trkpt>
      <trkpt lat="41.9939650" lon="-8.6734200">
        <ele>15.4</ele>
        <time>2019-08-16T14:30:45Z</time>
      </trkpt>
      <trkpt lat="41.9942540" lon="-8.6731920">
        <ele>15.4</ele>
        <time>2019-08-16T14:30:52Z</time>
      </trkpt>
      <trkpt lat="41.9943360" lon="-8.6731170">
        <ele>15.0</ele>
        <time>2019-08-16T14:30:54Z</time>
      </trkpt>
      <trkpt lat="41.9943770" lon="-8.6730820">
        <ele>14.6</ele>
        <time>2019-08-16T14:30:55Z</time>
      </trkpt>
      <trkpt lat="41.9944200" lon="-8.6730440">
        <ele>14.2</ele>
        <time>2019-08-16T14:30:56Z</time>
      </trkpt>
      <trkpt lat="41.9944570" lon="-8.6730030">
        <ele>13.6</ele>
        <time>2019-08-16T14:30:57Z</time>
      </trkpt>
      <trkpt lat="41.9945030" lon="-8.6729690">
        <ele>13.2</ele>
        <time>2019-08-16T14:30:58Z</time>
      </trkpt>
      <trkpt lat="41.9945700" lon="-8.6729010">
        <ele>13.2</ele>
        <time>2019-08-16T14:31:00Z</time>
      </trkpt>
      <trkpt lat="41.9946840" lon="-8.6728450">
        <ele>13.2</ele>
        <time>2019-08-16T14:31:02Z</time>
      </trkpt>
      <trkpt lat="41.9948670" lon="-8.6727210">
        <ele>13.2</ele>
        <time>2019-08-16T14:31:05Z</time>
      </trkpt>
      <trkpt lat="41.9952930" lon="-8.6724400">
        <ele>13.2</ele>
        <time>2019-08-16T14:31:13Z</time>
      </trkpt>
      <trkpt lat="41.9956210" lon="-8.6721400">
        <ele>13.2</ele>
        <time>2019-08-16T14:31:20Z</time>
      </trkpt>
      <trkpt lat="41.9956560" lon="-8.6721200">
        <ele>13.8</ele>
        <time>2019-08-16T14:31:21Z</time>
      </trkpt>
      <trkpt lat="41.9957130" lon="-8.6721060">
        <ele>14.2</ele>
        <time>2019-08-16T14:31:22Z</time>
      </trkpt>
      <trkpt lat="41.9957600" lon="-8.6720830">
        <ele>14.6</ele>
        <time>2019-08-16T14:31:23Z</time>
      </trkpt>
      <trkpt lat="41.9958050" lon="-8.6720620">
        <ele>15.2</ele>
        <time>2019-08-16T14:31:24Z</time>
      </trkpt>
      <trkpt lat="41.9958530" lon="-8.6720400">
        <ele>15.6</ele>
        <time>2019-08-16T14:31:25Z</time>
      </trkpt>
      <trkpt lat="41.9961650" lon="-8.6718060">
        <ele>15.6</ele>
        <time>2019-08-16T14:31:33Z</time>
      </trkpt>
      <trkpt lat="41.9963550" lon="-8.6716790">
        <ele>15.6</ele>
        <time>2019-08-16T14:31:38Z</time>
      </trkpt>
      <trkpt lat="41.9965140" lon="-8.6715260">
        <ele>15.6</ele>
        <time>2019-08-16T14:31:44Z</time>
      </trkpt>
      <trkpt lat="41.9966480" lon="-8.6712730">
        <ele>15.6</ele>
        <time>2019-08-16T14:31:51Z</time>
      </trkpt>
      <trkpt lat="41.9967830" lon="-8.6710140">
        <ele>15.6</ele>
        <time>2019-08-16T14:31:57Z</time>
      </trkpt>
      <trkpt lat="41.9970140" lon="-8.6708300">
        <ele>15.6</ele>
        <time>2019-08-16T14:32:03Z</time>
      </trkpt>
      <trkpt lat="41.9972360" lon="-8.6706720">
        <ele>15.6</ele>
        <time>2019-08-16T14:32:10Z</time>
      </trkpt>
      <trkpt lat="41.9973720" lon="-8.6706720">
        <ele>15.6</ele>
        <time>2019-08-16T14:32:14Z</time>
      </trkpt>
      <trkpt lat="41.9974790" lon="-8.6704460">
        <ele>15.6</ele>
        <time>2019-08-16T14:32:20Z</time>
      </trkpt>
      <trkpt lat="41.9974620" lon="-8.6702080">
        <ele>15.6</ele>
        <time>2019-08-16T14:32:25Z</time>
      </trkpt>
      <trkpt lat="41.9974590" lon="-8.6701660">
        <ele>15.6</ele>
        <time>2019-08-16T14:32:26Z</time>
      </trkpt>
      <trkpt lat="41.9974960" lon="-8.6700590">
        <ele>15.6</ele>
        <time>2019-08-16T14:32:29Z</time>
      </trkpt>
      <trkpt lat="41.9975320" lon="-8.6699860">
        <ele>15.6</ele>
        <time>2019-08-16T14:32:31Z</time>
      </trkpt>
      <trkpt lat="41.9975920" lon="-8.6698450">
        <ele>15.6</ele>
        <time>2019-08-16T14:32:35Z</time>
      </trkpt>
      <trkpt lat="41.9976850" lon="-8.6695370">
        <ele>15.6</ele>
        <time>2019-08-16T14:32:42Z</time>
      </trkpt>
      <trkpt lat="41.9978730" lon="-8.6693200">
        <ele>15.6</ele>
        <time>2019-08-16T14:32:47Z</time>
      </trkpt>
      <trkpt lat="41.9979090" lon="-8.6692440">
        <ele>15.2</ele>
        <time>2019-08-16T14:32:48Z</time>
      </trkpt>
      <trkpt lat="41.9979390" lon="-8.6691740">
        <ele>14.6</ele>
        <time>2019-08-16T14:32:49Z</time>
      </trkpt>
      <trkpt lat="41.9979710" lon="-8.6691070">
        <ele>14.2</ele>
        <time>2019-08-16T14:32:50Z</time>
      </trkpt>
      <trkpt lat="41.9979990" lon="-8.6690460">
        <ele>13.6</ele>
        <time>2019-08-16T14:32:51Z</time>
      </trkpt>
      <trkpt lat="41.9980150" lon="-8.6689830">
        <ele>13.2</ele>
        <time>2019-08-16T14:32:52Z</time>
      </trkpt>
      <trkpt lat="41.9981430" lon="-8.6686990">
        <ele>13.2</ele>
        <time>2019-08-16T14:32:58Z</time>
      </trkpt>
      <trkpt lat="41.9982560" lon="-8.6685390">
        <ele>13.2</ele>
        <time>2019-08-16T14:33:03Z</time>
      </trkpt>
      <trkpt lat="41.9983770" lon="-8.6681920">
        <ele>13.2</ele>
        <time>2019-08-16T14:33:10Z</time>
      </trkpt>
      <trkpt lat="41.9984770" lon="-8.6680390">
        <ele>13.2</ele>
        <time>2019-08-16T14:33:14Z</time>
      </trkpt>
      <trkpt lat="41.9986520" lon="-8.6679040">
        <ele>13.2</ele>
        <time>2019-08-16T14:33:18Z</time>
      </trkpt>
      <trkpt lat="41.9988420" lon="-8.6675880">
        <ele>13.2</ele>
        <time>2019-08-16T14:33:24Z</time>
      </trkpt>
      <trkpt lat="41.9988680" lon="-8.6675340">
        <ele>13.2</ele>
        <time>2019-08-16T14:33:25Z</time>
      </trkpt>
      <trkpt lat="41.9989180" lon="-8.6674310">
        <ele>13.2</ele>
        <time>2019-08-16T14:33:27Z</time>
      </trkpt>
      <trkpt lat="41.9990120" lon="-8.6670870">
        <ele>13.2</ele>
        <time>2019-08-16T14:33:33Z</time>
      </trkpt>
      <trkpt lat="41.9990150" lon="-8.6670190">
        <ele>13.2</ele>
        <time>2019-08-16T14:33:34Z</time>
      </trkpt>
      <trkpt lat="41.9991800" lon="-8.6666220">
        <ele>13.2</ele>
        <time>2019-08-16T14:33:41Z</time>
      </trkpt>
      <trkpt lat="41.9992460" lon="-8.6665290">
        <ele>13.6</ele>
        <time>2019-08-16T14:33:43Z</time>
      </trkpt>
      <trkpt lat="41.9992890" lon="-8.6664840">
        <ele>14.0</ele>
        <time>2019-08-16T14:33:44Z</time>
      </trkpt>
      <trkpt lat="41.9993190" lon="-8.6664320">
        <ele>14.4</ele>
        <time>2019-08-16T14:33:45Z</time>
      </trkpt>
      <trkpt lat="41.9993360" lon="-8.6663760">
        <ele>14.8</ele>
        <time>2019-08-16T14:33:46Z</time>
      </trkpt>
      <trkpt lat="41.9993420" lon="-8.6663050">
        <ele>15.2</ele>
        <time>2019-08-16T14:33:47Z</time>
      </trkpt>
      <trkpt lat="41.9993290" lon="-8.6660770">
        <ele>15.2</ele>
        <time>2019-08-16T14:33:50Z</time>
      </trkpt>
      <trkpt lat="41.9993480" lon="-8.6659310">
        <ele>15.2</ele>
        <time>2019-08-16T14:33:52Z</time>
      </trkpt>
      <trkpt lat="41.9994350" lon="-8.6654800">
        <ele>15.2</ele>
        <time>2019-08-16T14:33:58Z</time>
      </trkpt>
      <trkpt lat="41.9994590" lon="-8.6654140">
        <ele>14.8</ele>
        <time>2019-08-16T14:33:59Z</time>
      </trkpt>
      <trkpt lat="41.9994770" lon="-8.6653430">
        <ele>14.4</ele>
        <time>2019-08-16T14:34:00Z</time>
      </trkpt>
      <trkpt lat="41.9994940" lon="-8.6652690">
        <ele>14.0</ele>
        <time>2019-08-16T14:34:01Z</time>
      </trkpt>
      <trkpt lat="41.9995170" lon="-8.6651940">
        <ele>13.6</ele>
        <time>2019-08-16T14:34:02Z</time>
      </trkpt>
      <trkpt lat="41.9995350" lon="-8.6651210">
        <ele>13.2</ele>
        <time>2019-08-16T14:34:03Z</time>
      </trkpt>
      <trkpt lat="41.9995620" lon="-8.6649190">
        <ele>13.2</ele>
        <time>2019-08-16T14:34:06Z</time>
      </trkpt>
      <trkpt lat="41.9995580" lon="-8.6647760">
        <ele>13.2</ele>
        <time>2019-08-16T14:34:08Z</time>
      </trkpt>
      <trkpt lat="41.9995900" lon="-8.6645970">
        <ele>13.2</ele>
        <time>2019-08-16T14:34:11Z</time>
      </trkpt>
      <trkpt lat="41.9996270" lon="-8.6644540">
        <ele>13.2</ele>
        <time>2019-08-16T14:34:13Z</time>
      </trkpt>
      <trkpt lat="41.9998220" lon="-8.6637840">
        <ele>13.2</ele>
        <time>2019-08-16T14:34:21Z</time>
      </trkpt>
      <trkpt lat="41.9999110" lon="-8.6630760">
        <ele>13.8</ele>
        <time>2019-08-16T14:34:30Z</time>
      </trkpt>
      <trkpt lat="41.9999250" lon="-8.6629970">
        <ele>14.2</ele>
        <time>2019-08-16T14:34:31Z</time>
      </trkpt>
      <trkpt lat="41.9999430" lon="-8.6629130">
        <ele>14.6</ele>
        <time>2019-08-16T14:34:32Z</time>
      </trkpt>
      <trkpt lat="41.9999530" lon="-8.6628300">
        <ele>15.0</ele>
        <time>2019-08-16T14:34:33Z</time>
      </trkpt>
      <trkpt lat="41.9999640" lon="-8.6627480">
        <ele>15.6</ele>
        <time>2019-08-16T14:34:34Z</time>
      </trkpt>
      <trkpt lat="42.0000150" lon="-8.6625080">
        <ele>15.6</ele>
        <time>2019-08-16T14:34:37Z</time>
      </trkpt>
      <trkpt lat="42.0001440" lon="-8.6620320">
        <ele>15.6</ele>
        <time>2019-08-16T14:34:43Z</time>
      </trkpt>
      <trkpt lat="42.0002600" lon="-8.6614230">
        <ele>15.6</ele>
        <time>2019-08-16T14:34:52Z</time>
      </trkpt>
      <trkpt lat="42.0004450" lon="-8.6608850">
        <ele>15.6</ele>
        <time>2019-08-16T14:35:00Z</time>
      </trkpt>
      <trkpt lat="42.0006150" lon="-8.6604010">
        <ele>15.6</ele>
        <time>2019-08-16T14:35:08Z</time>
      </trkpt>
      <trkpt lat="42.0007630" lon="-8.6600490">
        <ele>15.6</ele>
        <time>2019-08-16T14:35:14Z</time>
      </trkpt>
      <trkpt lat="42.0010290" lon="-8.6596600">
        <ele>15.6</ele>
        <time>2019-08-16T14:35:21Z</time>
      </trkpt>
      <trkpt lat="42.0010760" lon="-8.6596150">
        <ele>15.6</ele>
        <time>2019-08-16T14:35:22Z</time>
      </trkpt>
      <trkpt lat="42.0011860" lon="-8.6595410">
        <ele>15.6</ele>
        <time>2019-08-16T14:35:24Z</time>
      </trkpt>
      <trkpt lat="42.0015280" lon="-8.6593510">
        <ele>15.6</ele>
        <time>2019-08-16T14:35:29Z</time>
      </trkpt>
      <trkpt lat="42.0018500" lon="-8.6591830">
        <ele>15.6</ele>
        <time>2019-08-16T14:35:34Z</time>
      </trkpt>
      <trkpt lat="42.0019710" lon="-8.6591430">
        <ele>15.6</ele>
        <time>2019-08-16T14:35:36Z</time>
      </trkpt>
      <trkpt lat="42.0021170" lon="-8.6589730">
        <ele>15.2</ele>
        <time>2019-08-16T14:35:39Z</time>
      </trkpt>
      <trkpt lat="42.0021430" lon="-8.6588880">
        <ele>14.8</ele>
        <time>2019-08-16T14:35:40Z</time>
      </trkpt>
      <trkpt lat="42.0021740" lon="-8.6588100">
        <ele>14.4</ele>
        <time>2019-08-16T14:35:41Z</time>
      </trkpt>
      <trkpt lat="42.0022140" lon="-8.6587290">
        <ele>14.0</ele>
        <time>2019-08-16T14:35:42Z</time>
      </trkpt>
      <trkpt lat="42.0022550" lon="-8.6586650">
        <ele>13.6</ele>
        <time>2019-08-16T14:35:43Z</time>
      </trkpt>
      <trkpt lat="42.0022880" lon="-8.6585230">
        <ele>13.6</ele>
        <time>2019-08-16T14:35:45Z</time>
      </trkpt>
      <trkpt lat="42.0022280" lon="-8.6583220">
        <ele>13.6</ele>
        <time>2019-08-16T14:35:48Z</time>
      </trkpt>
      <trkpt lat="42.0022170" lon="-8.6582550">
        <ele>13.6</ele>
        <time>2019-08-16T14:35:49Z</time>
      </trkpt>
      <trkpt lat="42.0021810" lon="-8.6579040">
        <ele>13.6</ele>
        <time>2019-08-16T14:35:54Z</time>
      </trkpt>
      <trkpt lat="42.0021520" lon="-8.6576340">
        <ele>13.6</ele>
        <time>2019-08-16T14:35:59Z</time>
      </trkpt>
      <trkpt lat="42.0020660" lon="-8.6575360">
        <ele>13.6</ele>
        <time>2019-08-16T14:36:03Z</time>
      </trkpt>
      <trkpt lat="42.0020840" lon="-8.6573120">
        <ele>13.6</ele>
        <time>2019-08-16T14:36:10Z</time>
      </trkpt>
      <trkpt lat="42.0021240" lon="-8.6572910">
        <ele>13.6</ele>
        <time>2019-08-16T14:36:11Z</time>
      </trkpt>
      <trkpt lat="42.0021650" lon="-8.6572710">
        <ele>13.6</ele>
        <time>2019-08-16T14:36:12Z</time>
      </trkpt>
      <trkpt lat="42.0023110" lon="-8.6572560">
        <ele>13.6</ele>
        <time>2019-08-16T14:36:15Z</time>
      </trkpt>
      <trkpt lat="42.0023490" lon="-8.6572470">
        <ele>14.0</ele>
        <time>2019-08-16T14:36:16Z</time>
      </trkpt>
      <trkpt lat="42.0023930" lon="-8.6572300">
        <ele>14.4</ele>
        <time>2019-08-16T14:36:17Z</time>
      </trkpt>
      <trkpt lat="42.0024340" lon="-8.6572090">
        <ele>14.8</ele>
        <time>2019-08-16T14:36:18Z</time>
      </trkpt>
      <trkpt lat="42.0024820" lon="-8.6571840">
        <ele>15.2</ele>
        <time>2019-08-16T14:36:19Z</time>
      </trkpt>
      <trkpt lat="42.0025310" lon="-8.6571600">
        <ele>15.6</ele>
        <time>2019-08-16T14:36:20Z</time>
      </trkpt>
      <trkpt lat="42.0026350" lon="-8.6571200">
        <ele>15.6</ele>
        <time>2019-08-16T14:36:22Z</time>
      </trkpt>
      <trkpt lat="42.0030630" lon="-8.6569480">
        <ele>15.6</ele>
        <time>2019-08-16T14:36:30Z</time>
      </trkpt>
      <trkpt lat="42.0036080" lon="-8.6567260">
        <ele>15.6</ele>
        <time>2019-08-16T14:36:40Z</time>
      </trkpt>
      <trkpt lat="42.0039330" lon="-8.6565940">
        <ele>15.6</ele>
        <time>2019-08-16T14:36:46Z</time>
      </trkpt>
      <trkpt lat="42.0044900" lon="-8.6564010">
        <ele>15.6</ele>
        <time>2019-08-16T14:36:57Z</time>
      </trkpt>
      <trkpt lat="42.0045460" lon="-8.6563810">
        <ele>15.6</ele>
        <time>2019-08-16T14:36:58Z</time>
      </trkpt>
      <trkpt lat="42.0051130" lon="-8.6562660">
        <ele>15.6</ele>
        <time>2019-08-16T14:37:08Z</time>
      </trkpt>
      <trkpt lat="42.0056360" lon="-8.6562030">
        <ele>15.6</ele>
        <time>2019-08-16T14:37:17Z</time>
      </trkpt>
      <trkpt lat="42.0056960" lon="-8.6561830">
        <ele>15.6</ele>
        <time>2019-08-16T14:37:18Z</time>
      </trkpt>
      <trkpt lat="42.0062330" lon="-8.6559740">
        <ele>15.6</ele>
        <time>2019-08-16T14:37:27Z</time>
      </trkpt>
      <trkpt lat="42.0066360" lon="-8.6558220">
        <ele>15.6</ele>
        <time>2019-08-16T14:37:34Z</time>
      </trkpt>
      <trkpt lat="42.0066600" lon="-8.6558240">
        <ele>15.6</ele>
        <time>2019-08-16T14:37:35Z</time>
      </trkpt>
      <trkpt lat="42.0066960" lon="-8.6558870">
        <ele>15.6</ele>
        <time>2019-08-16T14:37:39Z</time>
      </trkpt>
      <trkpt lat="42.0067000" lon="-8.6559110">
        <ele>15.6</ele>
        <time>2019-08-16T14:37:40Z</time>
      </trkpt>
      <trkpt lat="42.0067500" lon="-8.6560300">
        <ele>15.6</ele>
        <time>2019-08-16T14:37:43Z</time>
      </trkpt>
      <trkpt lat="42.0068350" lon="-8.6560210">
        <ele>15.6</ele>
        <time>2019-08-16T14:37:45Z</time>
      </trkpt>
      <trkpt lat="42.0068770" lon="-8.6560140">
        <ele>15.6</ele>
        <time>2019-08-16T14:37:46Z</time>
      </trkpt>
      <trkpt lat="42.0071850" lon="-8.6559730">
        <ele>15.6</ele>
        <time>2019-08-16T14:37:53Z</time>
      </trkpt>
      <trkpt lat="42.0076010" lon="-8.6558950">
        <ele>15.6</ele>
        <time>2019-08-16T14:38:01Z</time>
      </trkpt>
      <trkpt lat="42.0081230" lon="-8.6558400">
        <ele>15.6</ele>
        <time>2019-08-16T14:38:10Z</time>
      </trkpt>
      <trkpt lat="42.0086320" lon="-8.6557920">
        <ele>15.6</ele>
        <time>2019-08-16T14:38:18Z</time>
      </trkpt>
      <trkpt lat="42.0091290" lon="-8.6556950">
        <ele>15.6</ele>
        <time>2019-08-16T14:38:26Z</time>
      </trkpt>
      <trkpt lat="42.0095480" lon="-8.6555550">
        <ele>15.6</ele>
        <time>2019-08-16T14:38:33Z</time>
      </trkpt>
      <trkpt lat="42.0099880" lon="-8.6553040">
        <ele>15.6</ele>
        <time>2019-08-16T14:38:41Z</time>
      </trkpt>
      <trkpt lat="42.0102510" lon="-8.6551030">
        <ele>15.6</ele>
        <time>2019-08-16T14:38:47Z</time>
      </trkpt>
      <trkpt lat="42.0105930" lon="-8.6548310">
        <ele>15.6</ele>
        <time>2019-08-16T14:38:55Z</time>
      </trkpt>
      <trkpt lat="42.0109230" lon="-8.6546060">
        <ele>15.6</ele>
        <time>2019-08-16T14:39:02Z</time>
      </trkpt>
      <trkpt lat="42.0111870" lon="-8.6545000">
        <ele>15.6</ele>
        <time>2019-08-16T14:39:07Z</time>
      </trkpt>
      <trkpt lat="42.0115570" lon="-8.6543860">
        <ele>15.6</ele>
        <time>2019-08-16T14:39:14Z</time>
      </trkpt>
      <trkpt lat="42.0119170" lon="-8.6542490">
        <ele>15.6</ele>
        <time>2019-08-16T14:39:21Z</time>
      </trkpt>
      <trkpt lat="42.0122410" lon="-8.6540390">
        <ele>15.6</ele>
        <time>2019-08-16T14:39:28Z</time>
      </trkpt>
      <trkpt lat="42.0124410" lon="-8.6539270">
        <ele>16.2</ele>
        <time>2019-08-16T14:39:32Z</time>
      </trkpt>
      <trkpt lat="42.0124920" lon="-8.6538980">
        <ele>16.6</ele>
        <time>2019-08-16T14:39:33Z</time>
      </trkpt>
      <trkpt lat="42.0125460" lon="-8.6538700">
        <ele>17.2</ele>
        <time>2019-08-16T14:39:34Z</time>
      </trkpt>
      <trkpt lat="42.0126020" lon="-8.6538420">
        <ele>17.6</ele>
        <time>2019-08-16T14:39:35Z</time>
      </trkpt>
      <trkpt lat="42.0126560" lon="-8.6538140">
        <ele>18.2</ele>
        <time>2019-08-16T14:39:36Z</time>
      </trkpt>
      <trkpt lat="42.0127110" lon="-8.6537860">
        <ele>18.6</ele>
        <time>2019-08-16T14:39:37Z</time>
      </trkpt>
      <trkpt lat="42.0127670" lon="-8.6537590">
        <ele>19.2</ele>
        <time>2019-08-16T14:39:38Z</time>
      </trkpt>
      <trkpt lat="42.0128260" lon="-8.6537310">
        <ele>19.6</ele>
        <time>2019-08-16T14:39:39Z</time>
      </trkpt>
      <trkpt lat="42.0128830" lon="-8.6537040">
        <ele>20.2</ele>
        <time>2019-08-16T14:39:40Z</time>
      </trkpt>
      <trkpt lat="42.0130500" lon="-8.6536270">
        <ele>20.6</ele>
        <time>2019-08-16T14:39:43Z</time>
      </trkpt>
      <trkpt lat="42.0130990" lon="-8.6536020">
        <ele>21.0</ele>
        <time>2019-08-16T14:39:44Z</time>
      </trkpt>
      <trkpt lat="42.0131490" lon="-8.6535790">
        <ele>21.4</ele>
        <time>2019-08-16T14:39:45Z</time>
      </trkpt>
      <trkpt lat="42.0131940" lon="-8.6535600">
        <ele>21.8</ele>
        <time>2019-08-16T14:39:46Z</time>
      </trkpt>
      <trkpt lat="42.0132360" lon="-8.6535420">
        <ele>22.2</ele>
        <time>2019-08-16T14:39:47Z</time>
      </trkpt>
      <trkpt lat="42.0134830" lon="-8.6534330">
        <ele>22.2</ele>
        <time>2019-08-16T14:39:54Z</time>
      </trkpt>
      <trkpt lat="42.0137020" lon="-8.6534510">
        <ele>22.2</ele>
        <time>2019-08-16T14:40:01Z</time>
      </trkpt>
      <trkpt lat="42.0139580" lon="-8.6534850">
        <ele>22.2</ele>
        <time>2019-08-16T14:40:08Z</time>
      </trkpt>
      <trkpt lat="42.0142220" lon="-8.6534960">
        <ele>22.2</ele>
        <time>2019-08-16T14:40:15Z</time>
      </trkpt>
      <trkpt lat="42.0143050" lon="-8.6534930">
        <ele>22.6</ele>
        <time>2019-08-16T14:40:17Z</time>
      </trkpt>
      <trkpt lat="42.0143510" lon="-8.6534920">
        <ele>23.0</ele>
        <time>2019-08-16T14:40:18Z</time>
      </trkpt>
      <trkpt lat="42.0143920" lon="-8.6534920">
        <ele>23.0</ele>
        <time>2019-08-16T14:40:19Z</time>
      </trkpt>
      <trkpt lat="42.0144370" lon="-8.6534890">
        <ele>23.8</ele>
        <time>2019-08-16T14:40:20Z</time>
      </trkpt>
      <trkpt lat="42.0144800" lon="-8.6534910">
        <ele>24.2</ele>
        <time>2019-08-16T14:40:21Z</time>
      </trkpt>
      <trkpt lat="42.0146690" lon="-8.6535020">
        <ele>24.2</ele>
        <time>2019-08-16T14:40:25Z</time>
      </trkpt>
      <trkpt lat="42.0150200" lon="-8.6535220">
        <ele>24.2</ele>
        <time>2019-08-16T14:40:32Z</time>
      </trkpt>
      <trkpt lat="42.0154330" lon="-8.6535120">
        <ele>24.2</ele>
        <time>2019-08-16T14:40:40Z</time>
      </trkpt>
      <trkpt lat="42.0154860" lon="-8.6535080">
        <ele>24.2</ele>
        <time>2019-08-16T14:40:41Z</time>
      </trkpt>
      <trkpt lat="42.0158560" lon="-8.6534620">
        <ele>24.2</ele>
        <time>2019-08-16T14:40:48Z</time>
      </trkpt>
      <trkpt lat="42.0161410" lon="-8.6534960">
        <ele>24.2</ele>
        <time>2019-08-16T14:40:54Z</time>
      </trkpt>
      <trkpt lat="42.0161850" lon="-8.6534980">
        <ele>24.2</ele>
        <time>2019-08-16T14:40:55Z</time>
      </trkpt>
      <trkpt lat="42.0163280" lon="-8.6534850">
        <ele>24.2</ele>
        <time>2019-08-16T14:40:59Z</time>
      </trkpt>
      <trkpt lat="42.0164800" lon="-8.6534450">
        <ele>24.8</ele>
        <time>2019-08-16T14:41:05Z</time>
      </trkpt>
      <trkpt lat="42.0165120" lon="-8.6534340">
        <ele>25.2</ele>
        <time>2019-08-16T14:41:06Z</time>
      </trkpt>
      <trkpt lat="42.0165440" lon="-8.6534240">
        <ele>25.6</ele>
        <time>2019-08-16T14:41:07Z</time>
      </trkpt>
      <trkpt lat="42.0165770" lon="-8.6534140">
        <ele>26.2</ele>
        <time>2019-08-16T14:41:08Z</time>
      </trkpt>
      <trkpt lat="42.0166120" lon="-8.6534050">
        <ele>26.6</ele>
        <time>2019-08-16T14:41:09Z</time>
      </trkpt>
      <trkpt lat="42.0167290" lon="-8.6533690">
        <ele>26.6</ele>
        <time>2019-08-16T14:41:13Z</time>
      </trkpt>
      <trkpt lat="42.0170480" lon="-8.6532610">
        <ele>26.6</ele>
        <time>2019-08-16T14:41:22Z</time>
      </trkpt>
      <trkpt lat="42.0172520" lon="-8.6532560">
        <ele>26.6</ele>
        <time>2019-08-16T14:41:28Z</time>
      </trkpt>
      <trkpt lat="42.0174110" lon="-8.6532190">
        <ele>26.6</ele>
        <time>2019-08-16T14:41:33Z</time>
      </trkpt>
      <trkpt lat="42.0175040" lon="-8.6531480">
        <ele>26.6</ele>
        <time>2019-08-16T14:41:36Z</time>
      </trkpt>
      <trkpt lat="42.0175600" lon="-8.6530850">
        <ele>26.6</ele>
        <time>2019-08-16T14:41:38Z</time>
      </trkpt>
      <trkpt lat="42.0177290" lon="-8.6528690">
        <ele>26.6</ele>
        <time>2019-08-16T14:41:44Z</time>
      </trkpt>
      <trkpt lat="42.0179200" lon="-8.6527840">
        <ele>26.6</ele>
        <time>2019-08-16T14:41:49Z</time>
      </trkpt>
      <trkpt lat="42.0180030" lon="-8.6527420">
        <ele>26.6</ele>
        <time>2019-08-16T14:41:51Z</time>
      </trkpt>
      <trkpt lat="42.0181590" lon="-8.6526640">
        <ele>26.6</ele>
        <time>2019-08-16T14:41:55Z</time>
      </trkpt>
      <trkpt lat="42.0184400" lon="-8.6524900">
        <ele>26.6</ele>
        <time>2019-08-16T14:42:02Z</time>
      </trkpt>
      <trkpt lat="42.0186070" lon="-8.6523880">
        <ele>27.0</ele>
        <time>2019-08-16T14:42:06Z</time>
      </trkpt>
      <trkpt lat="42.0186480" lon="-8.6523670">
        <ele>27.4</ele>
        <time>2019-08-16T14:42:07Z</time>
      </trkpt>
      <trkpt lat="42.0186900" lon="-8.6523480">
        <ele>27.8</ele>
        <time>2019-08-16T14:42:08Z</time>
      </trkpt>
      <trkpt lat="42.0187290" lon="-8.6523260">
        <ele>28.2</ele>
        <time>2019-08-16T14:42:09Z</time>
      </trkpt>
      <trkpt lat="42.0187690" lon="-8.6523000">
        <ele>28.6</ele>
        <time>2019-08-16T14:42:10Z</time>
      </trkpt>
      <trkpt lat="42.0188090" lon="-8.6522750">
        <ele>28.6</ele>
        <time>2019-08-16T14:42:11Z</time>
      </trkpt>
      <trkpt lat="42.0190690" lon="-8.6520790">
        <ele>28.6</ele>
        <time>2019-08-16T14:42:18Z</time>
      </trkpt>
      <trkpt lat="42.0193800" lon="-8.6518450">
        <ele>28.6</ele>
        <time>2019-08-16T14:42:27Z</time>
      </trkpt>
      <trkpt lat="42.0194450" lon="-8.6517920">
        <ele>29.0</ele>
        <time>2019-08-16T14:42:29Z</time>
      </trkpt>
      <trkpt lat="42.0194730" lon="-8.6517690">
        <ele>29.4</ele>
        <time>2019-08-16T14:42:30Z</time>
      </trkpt>
      <trkpt lat="42.0195000" lon="-8.6517470">
        <ele>30.0</ele>
        <time>2019-08-16T14:42:31Z</time>
      </trkpt>
      <trkpt lat="42.0195250" lon="-8.6517250">
        <ele>30.4</ele>
        <time>2019-08-16T14:42:32Z</time>
      </trkpt>
      <trkpt lat="42.0195540" lon="-8.6517070">
        <ele>30.8</ele>
        <time>2019-08-16T14:42:33Z</time>
      </trkpt>
      <trkpt lat="42.0196180" lon="-8.6516760">
        <ele>30.8</ele>
        <time>2019-08-16T14:42:35Z</time>
      </trkpt>
      <trkpt lat="42.0198500" lon="-8.6515190">
        <ele>30.8</ele>
        <time>2019-08-16T14:42:44Z</time>
      </trkpt>
      <trkpt lat="42.0200980" lon="-8.6514030">
        <ele>31.2</ele>
        <time>2019-08-16T14:42:52Z</time>
      </trkpt>
      <trkpt lat="42.0201300" lon="-8.6513900">
        <ele>31.8</ele>
        <time>2019-08-16T14:42:53Z</time>
      </trkpt>
      <trkpt lat="42.0201610" lon="-8.6513760">
        <ele>32.2</ele>
        <time>2019-08-16T14:42:54Z</time>
      </trkpt>
      <trkpt lat="42.0201910" lon="-8.6513650">
        <ele>32.6</ele>
        <time>2019-08-16T14:42:55Z</time>
      </trkpt>
      <trkpt lat="42.0202240" lon="-8.6513520">
        <ele>33.2</ele>
        <time>2019-08-16T14:42:56Z</time>
      </trkpt>
      <trkpt lat="42.0204060" lon="-8.6512790">
        <ele>33.2</ele>
        <time>2019-08-16T14:43:02Z</time>
      </trkpt>
      <trkpt lat="42.0204640" lon="-8.6512560">
        <ele>33.2</ele>
        <time>2019-08-16T14:43:04Z</time>
      </trkpt>
      <trkpt lat="42.0207800" lon="-8.6511110">
        <ele>33.2</ele>
        <time>2019-08-16T14:43:14Z</time>
      </trkpt>
      <trkpt lat="42.0209870" lon="-8.6510060">
        <ele>33.6</ele>
        <time>2019-08-16T14:43:20Z</time>
      </trkpt>
      <trkpt lat="42.0210180" lon="-8.6509840">
        <ele>34.2</ele>
        <time>2019-08-16T14:43:21Z</time>
      </trkpt>
      <trkpt lat="42.0210530" lon="-8.6509620">
        <ele>34.6</ele>
        <time>2019-08-16T14:43:22Z</time>
      </trkpt>
      <trkpt lat="42.0210880" lon="-8.6509460">
        <ele>35.0</ele>
        <time>2019-08-16T14:43:23Z</time>
      </trkpt>
      <trkpt lat="42.0211260" lon="-8.6509280">
        <ele>35.6</ele>
        <time>2019-08-16T14:43:24Z</time>
      </trkpt>
      <trkpt lat="42.0211600" lon="-8.6509060">
        <ele>35.6</ele>
        <time>2019-08-16T14:43:25Z</time>
      </trkpt>
      <trkpt lat="42.0214140" lon="-8.6507790">
        <ele>36.0</ele>
        <time>2019-08-16T14:43:33Z</time>
      </trkpt>
      <trkpt lat="42.0214430" lon="-8.6507650">
        <ele>36.4</ele>
        <time>2019-08-16T14:43:34Z</time>
      </trkpt>
      <trkpt lat="42.0214580" lon="-8.6507520">
        <ele>36.8</ele>
        <time>2019-08-16T14:43:35Z</time>
      </trkpt>
      <trkpt lat="42.0214800" lon="-8.6507380">
        <ele>37.2</ele>
        <time>2019-08-16T14:43:36Z</time>
      </trkpt>
      <trkpt lat="42.0214990" lon="-8.6507210">
        <ele>37.8</ele>
        <time>2019-08-16T14:43:37Z</time>
      </trkpt>
      <trkpt lat="42.0215330" lon="-8.6506790">
        <ele>37.8</ele>
        <time>2019-08-16T14:43:39Z</time>
      </trkpt>
      <trkpt lat="42.0215700" lon="-8.6505180">
        <ele>37.8</ele>
        <time>2019-08-16T14:43:44Z</time>
      </trkpt>
      <trkpt lat="42.0215940" lon="-8.6502340">
        <ele>37.8</ele>
        <time>2019-08-16T14:43:52Z</time>
      </trkpt>
      <trkpt lat="42.0216000" lon="-8.6501170">
        <ele>38.2</ele>
        <time>2019-08-16T14:43:55Z</time>
      </trkpt>
      <trkpt lat="42.0215990" lon="-8.6500740">
        <ele>38.6</ele>
        <time>2019-08-16T14:43:56Z</time>
      </trkpt>
      <trkpt lat="42.0215940" lon="-8.6500330">
        <ele>39.0</ele>
        <time>2019-08-16T14:43:57Z</time>
      </trkpt>
      <trkpt lat="42.0215930" lon="-8.6499890">
        <ele>39.4</ele>
        <time>2019-08-16T14:43:58Z</time>
      </trkpt>
      <trkpt lat="42.0215980" lon="-8.6499400">
        <ele>39.8</ele>
        <time>2019-08-16T14:43:59Z</time>
      </trkpt>
      <trkpt lat="42.0216740" lon="-8.6494960">
        <ele>39.8</ele>
        <time>2019-08-16T14:44:08Z</time>
      </trkpt>
      <trkpt lat="42.0217820" lon="-8.6488910">
        <ele>39.8</ele>
        <time>2019-08-16T14:44:19Z</time>
      </trkpt>
      <trkpt lat="42.0219270" lon="-8.6484200">
        <ele>39.8</ele>
        <time>2019-08-16T14:44:28Z</time>
      </trkpt>
      <trkpt lat="42.0220140" lon="-8.6481440">
        <ele>39.8</ele>
        <time>2019-08-16T14:44:34Z</time>
      </trkpt>
      <trkpt lat="42.0220380" lon="-8.6479950">
        <ele>39.8</ele>
        <time>2019-08-16T14:44:39Z</time>
      </trkpt>
      <trkpt lat="42.0220290" lon="-8.6478010">
        <ele>39.8</ele>
        <time>2019-08-16T14:44:44Z</time>
      </trkpt>
      <trkpt lat="42.0221910" lon="-8.6477250">
        <ele>39.8</ele>
        <time>2019-08-16T14:44:49Z</time>
      </trkpt>
      <trkpt lat="42.0222250" lon="-8.6477320">
        <ele>40.2</ele>
        <time>2019-08-16T14:44:50Z</time>
      </trkpt>
      <trkpt lat="42.0222610" lon="-8.6477430">
        <ele>40.6</ele>
        <time>2019-08-16T14:44:51Z</time>
      </trkpt>
      <trkpt lat="42.0223000" lon="-8.6477600">
        <ele>41.0</ele>
        <time>2019-08-16T14:44:52Z</time>
      </trkpt>
      <trkpt lat="42.0223330" lon="-8.6477810">
        <ele>41.4</ele>
        <time>2019-08-16T14:44:53Z</time>
      </trkpt>
      <trkpt lat="42.0223680" lon="-8.6478000">
        <ele>42.0</ele>
        <time>2019-08-16T14:44:54Z</time>
      </trkpt>
      <trkpt lat="42.0224240" lon="-8.6478310">
        <ele>42.0</ele>
        <time>2019-08-16T14:44:56Z</time>
      </trkpt>
      <trkpt lat="42.0225450" lon="-8.6478410">
        <ele>42.0</ele>
        <time>2019-08-16T14:45:01Z</time>
      </trkpt>
      <trkpt lat="42.0225920" lon="-8.6478400">
        <ele>42.4</ele>
        <time>2019-08-16T14:45:03Z</time>
      </trkpt>
      <trkpt lat="42.0226130" lon="-8.6478400">
        <ele>42.8</ele>
        <time>2019-08-16T14:45:04Z</time>
      </trkpt>
      <trkpt lat="42.0226370" lon="-8.6478410">
        <ele>43.2</ele>
        <time>2019-08-16T14:45:05Z</time>
      </trkpt>
      <trkpt lat="42.0226610" lon="-8.6478380">
        <ele>43.6</ele>
        <time>2019-08-16T14:45:06Z</time>
      </trkpt>
      <trkpt lat="42.0226870" lon="-8.6478370">
        <ele>44.2</ele>
        <time>2019-08-16T14:45:07Z</time>
      </trkpt>
      <trkpt lat="42.0227360" lon="-8.6478360">
        <ele>44.6</ele>
        <time>2019-08-16T14:45:09Z</time>
      </trkpt>
      <trkpt lat="42.0227610" lon="-8.6478330">
        <ele>45.0</ele>
        <time>2019-08-16T14:45:10Z</time>
      </trkpt>
      <trkpt lat="42.0227810" lon="-8.6478280">
        <ele>45.4</ele>
        <time>2019-08-16T14:45:11Z</time>
      </trkpt>
      <trkpt lat="42.0228030" lon="-8.6478250">
        <ele>45.8</ele>
        <time>2019-08-16T14:45:12Z</time>
      </trkpt>
      <trkpt lat="42.0228280" lon="-8.6478270">
        <ele>46.2</ele>
        <time>2019-08-16T14:45:13Z</time>
      </trkpt>
      <trkpt lat="42.0228740" lon="-8.6478240">
        <ele>46.6</ele>
        <time>2019-08-16T14:45:15Z</time>
      </trkpt>
      <trkpt lat="42.0228950" lon="-8.6478240">
        <ele>47.0</ele>
        <time>2019-08-16T14:45:16Z</time>
      </trkpt>
      <trkpt lat="42.0229170" lon="-8.6478250">
        <ele>47.4</ele>
        <time>2019-08-16T14:45:17Z</time>
      </trkpt>
      <trkpt lat="42.0229410" lon="-8.6478290">
        <ele>47.8</ele>
        <time>2019-08-16T14:45:18Z</time>
      </trkpt>
      <trkpt lat="42.0229630" lon="-8.6478310">
        <ele>48.4</ele>
        <time>2019-08-16T14:45:19Z</time>
      </trkpt>
      <trkpt lat="42.0230480" lon="-8.6478320">
        <ele>48.8</ele>
        <time>2019-08-16T14:45:22Z</time>
      </trkpt>
      <trkpt lat="42.0230740" lon="-8.6478330">
        <ele>49.2</ele>
        <time>2019-08-16T14:45:23Z</time>
      </trkpt>
      <trkpt lat="42.0231000" lon="-8.6478340">
        <ele>49.8</ele>
        <time>2019-08-16T14:45:24Z</time>
      </trkpt>
      <trkpt lat="42.0231250" lon="-8.6478350">
        <ele>50.2</ele>
        <time>2019-08-16T14:45:25Z</time>
      </trkpt>
      <trkpt lat="42.0231490" lon="-8.6478360">
        <ele>50.6</ele>
        <time>2019-08-16T14:45:26Z</time>
      </trkpt>
      <trkpt lat="42.0232630" lon="-8.6478270">
        <ele>51.0</ele>
        <time>2019-08-16T14:45:30Z</time>
      </trkpt>
      <trkpt lat="42.0232800" lon="-8.6478310">
        <ele>51.6</ele>
        <time>2019-08-16T14:45:31Z</time>
      </trkpt>
      <trkpt lat="42.0233020" lon="-8.6478290">
        <ele>52.0</ele>
        <time>2019-08-16T14:45:32Z</time>
      </trkpt>
      <trkpt lat="42.0233240" lon="-8.6478200">
        <ele>52.6</ele>
        <time>2019-08-16T14:45:33Z</time>
      </trkpt>
      <trkpt lat="42.0233450" lon="-8.6478050">
        <ele>53.0</ele>
        <time>2019-08-16T14:45:34Z</time>
      </trkpt>
      <trkpt lat="42.0234540" lon="-8.6477250">
        <ele>53.0</ele>
        <time>2019-08-16T14:45:40Z</time>
      </trkpt>
      <trkpt lat="42.0234820" lon="-8.6477100">
        <ele>53.4</ele>
        <time>2019-08-16T14:45:42Z</time>
      </trkpt>
      <trkpt lat="42.0234980" lon="-8.6477010">
        <ele>53.8</ele>
        <time>2019-08-16T14:45:43Z</time>
      </trkpt>
      <trkpt lat="42.0235190" lon="-8.6476930">
        <ele>54.2</ele>
        <time>2019-08-16T14:45:44Z</time>
      </trkpt>
      <trkpt lat="42.0235380" lon="-8.6476820">
        <ele>54.6</ele>
        <time>2019-08-16T14:45:45Z</time>
      </trkpt>
      <trkpt lat="42.0235560" lon="-8.6476680">
        <ele>55.0</ele>
        <time>2019-08-16T14:45:46Z</time>
      </trkpt>
      <trkpt lat="42.0235720" lon="-8.6476550">
        <ele>55.0</ele>
        <time>2019-08-16T14:45:47Z</time>
      </trkpt>
      <trkpt lat="42.0236700" lon="-8.6475600">
        <ele>55.0</ele>
        <time>2019-08-16T14:45:53Z</time>
      </trkpt>
      <trkpt lat="42.0237100" lon="-8.6475490">
        <ele>55.4</ele>
        <time>2019-08-16T14:45:55Z</time>
      </trkpt>
      <trkpt lat="42.0237280" lon="-8.6475420">
        <ele>56.0</ele>
        <time>2019-08-16T14:45:56Z</time>
      </trkpt>
      <trkpt lat="42.0237640" lon="-8.6475130">
        <ele>56.4</ele>
        <time>2019-08-16T14:45:58Z</time>
      </trkpt>
      <trkpt lat="42.0237780" lon="-8.6474950">
        <ele>56.8</ele>
        <time>2019-08-16T14:45:59Z</time>
      </trkpt>
      <trkpt lat="42.0237950" lon="-8.6474780">
        <ele>57.2</ele>
        <time>2019-08-16T14:46:00Z</time>
      </trkpt>
      <trkpt lat="42.0240070" lon="-8.6473420">
        <ele>57.8</ele>
        <time>2019-08-16T14:46:11Z</time>
      </trkpt>
      <trkpt lat="42.0240280" lon="-8.6473310">
        <ele>58.2</ele>
        <time>2019-08-16T14:46:12Z</time>
      </trkpt>
      <trkpt lat="42.0240490" lon="-8.6473220">
        <ele>58.6</ele>
        <time>2019-08-16T14:46:13Z</time>
      </trkpt>
      <trkpt lat="42.0240710" lon="-8.6473120">
        <ele>59.0</ele>
        <time>2019-08-16T14:46:14Z</time>
      </trkpt>
      <trkpt lat="42.0240910" lon="-8.6473010">
        <ele>59.4</ele>
        <time>2019-08-16T14:46:15Z</time>
      </trkpt>
      <trkpt lat="42.0241860" lon="-8.6472340">
        <ele>59.4</ele>
        <time>2019-08-16T14:46:20Z</time>
      </trkpt>
      <trkpt lat="42.0243030" lon="-8.6471580">
        <ele>60.0</ele>
        <time>2019-08-16T14:46:26Z</time>
      </trkpt>
      <trkpt lat="42.0243220" lon="-8.6471440">
        <ele>60.4</ele>
        <time>2019-08-16T14:46:27Z</time>
      </trkpt>
      <trkpt lat="42.0243400" lon="-8.6471300">
        <ele>60.8</ele>
        <time>2019-08-16T14:46:28Z</time>
      </trkpt>
      <trkpt lat="42.0243610" lon="-8.6471160">
        <ele>61.2</ele>
        <time>2019-08-16T14:46:29Z</time>
      </trkpt>
      <trkpt lat="42.0243820" lon="-8.6471050">
        <ele>61.8</ele>
        <time>2019-08-16T14:46:30Z</time>
      </trkpt>
      <trkpt lat="42.0245270" lon="-8.6469940">
        <ele>61.8</ele>
        <time>2019-08-16T14:46:38Z</time>
      </trkpt>
      <trkpt lat="42.0246030" lon="-8.6468430">
        <ele>62.2</ele>
        <time>2019-08-16T14:46:44Z</time>
      </trkpt>
      <trkpt lat="42.0246060" lon="-8.6468140">
        <ele>62.6</ele>
        <time>2019-08-16T14:46:45Z</time>
      </trkpt>
      <trkpt lat="42.0246080" lon="-8.6467880">
        <ele>63.0</ele>
        <time>2019-08-16T14:46:46Z</time>
      </trkpt>
      <trkpt lat="42.0246020" lon="-8.6467680">
        <ele>63.4</ele>
        <time>2019-08-16T14:46:47Z</time>
      </trkpt>
      <trkpt lat="42.0246010" lon="-8.6467480">
        <ele>63.8</ele>
        <time>2019-08-16T14:46:48Z</time>
      </trkpt>
      <trkpt lat="42.0246060" lon="-8.6467260">
        <ele>63.8</ele>
        <time>2019-08-16T14:46:50Z</time>
      </trkpt>
      <trkpt lat="42.0246100" lon="-8.6467290">
        <ele>63.8</ele>
        <time>2019-08-16T14:46:51Z</time>
      </trkpt>
      <trkpt lat="42.0246160" lon="-8.6467190">
        <ele>63.8</ele>
        <time>2019-08-16T14:47:31Z</time>
      </trkpt>
      <trkpt lat="42.0246400" lon="-8.6467050">
        <ele>63.8</ele>
        <time>2019-08-16T14:47:32Z</time>
      </trkpt>
      <trkpt lat="42.0246600" lon="-8.6466950">
        <ele>63.8</ele>
        <time>2019-08-16T14:47:33Z</time>
      </trkpt>
      <trkpt lat="42.0247540" lon="-8.6466750">
        <ele>63.8</ele>
        <time>2019-08-16T14:47:37Z</time>
      </trkpt>
      <trkpt lat="42.0247790" lon="-8.6466620">
        <ele>63.8</ele>
        <time>2019-08-16T14:47:38Z</time>
      </trkpt>
      <trkpt lat="42.0248390" lon="-8.6466140">
        <ele>63.8</ele>
        <time>2019-08-16T14:47:40Z</time>
      </trkpt>
      <trkpt lat="42.0248910" lon="-8.6465350">
        <ele>63.8</ele>
        <time>2019-08-16T14:47:42Z</time>
      </trkpt>
      <trkpt lat="42.0249370" lon="-8.6464450">
        <ele>63.8</ele>
        <time>2019-08-16T14:47:44Z</time>
      </trkpt>
      <trkpt lat="42.0250490" lon="-8.6462140">
        <ele>63.8</ele>
        <time>2019-08-16T14:47:49Z</time>
      </trkpt>
      <trkpt lat="42.0252270" lon="-8.6458400">
        <ele>63.8</ele>
        <time>2019-08-16T14:47:57Z</time>
      </trkpt>
      <trkpt lat="42.0252960" lon="-8.6457680">
        <ele>63.8</ele>
        <time>2019-08-16T14:47:59Z</time>
      </trkpt>
      <trkpt lat="42.0253330" lon="-8.6457400">
        <ele>63.8</ele>
        <time>2019-08-16T14:48:00Z</time>
      </trkpt>
      <trkpt lat="42.0254610" lon="-8.6457030">
        <ele>63.8</ele>
        <time>2019-08-16T14:48:03Z</time>
      </trkpt>
      <trkpt lat="42.0255980" lon="-8.6456970">
        <ele>63.8</ele>
        <time>2019-08-16T14:48:06Z</time>
      </trkpt>
      <trkpt lat="42.0256810" lon="-8.6456800">
        <ele>63.8</ele>
        <time>2019-08-16T14:48:08Z</time>
      </trkpt>
      <trkpt lat="42.0258670" lon="-8.6455250">
        <ele>63.8</ele>
        <time>2019-08-16T14:48:13Z</time>
      </trkpt>
      <trkpt lat="42.0258980" lon="-8.6454860">
        <ele>63.8</ele>
        <time>2019-08-16T14:48:14Z</time>
      </trkpt>
      <trkpt lat="42.0259770" lon="-8.6452630">
        <ele>63.8</ele>
        <time>2019-08-16T14:48:18Z</time>
      </trkpt>
      <trkpt lat="42.0260510" lon="-8.6448290">
        <ele>63.8</ele>
        <time>2019-08-16T14:48:25Z</time>
      </trkpt>
      <trkpt lat="42.0261980" lon="-8.6441490">
        <ele>63.8</ele>
        <time>2019-08-16T14:48:36Z</time>
      </trkpt>
      <trkpt lat="42.0262710" lon="-8.6438600">
        <ele>63.2</ele>
        <time>2019-08-16T14:48:40Z</time>
      </trkpt>
      <trkpt lat="42.0262890" lon="-8.6437820">
        <ele>62.8</ele>
        <time>2019-08-16T14:48:41Z</time>
      </trkpt>
      <trkpt lat="42.0263080" lon="-8.6437030">
        <ele>62.2</ele>
        <time>2019-08-16T14:48:42Z</time>
      </trkpt>
      <trkpt lat="42.0263260" lon="-8.6436160">
        <ele>61.8</ele>
        <time>2019-08-16T14:48:43Z</time>
      </trkpt>
      <trkpt lat="42.0263430" lon="-8.6435260">
        <ele>61.2</ele>
        <time>2019-08-16T14:48:44Z</time>
      </trkpt>
      <trkpt lat="42.0263840" lon="-8.6433310">
        <ele>60.8</ele>
        <time>2019-08-16T14:48:46Z</time>
      </trkpt>
      <trkpt lat="42.0264090" lon="-8.6432350">
        <ele>60.4</ele>
        <time>2019-08-16T14:48:47Z</time>
      </trkpt>
      <trkpt lat="42.0264390" lon="-8.6431420">
        <ele>60.0</ele>
        <time>2019-08-16T14:48:48Z</time>
      </trkpt>
      <trkpt lat="42.0264730" lon="-8.6430550">
        <ele>59.6</ele>
        <time>2019-08-16T14:48:49Z</time>
      </trkpt>
      <trkpt lat="42.0265050" lon="-8.6429780">
        <ele>59.2</ele>
        <time>2019-08-16T14:48:50Z</time>
      </trkpt>
      <trkpt lat="42.0265650" lon="-8.6428470">
        <ele>58.8</ele>
        <time>2019-08-16T14:48:52Z</time>
      </trkpt>
      <trkpt lat="42.0265930" lon="-8.6427940">
        <ele>58.2</ele>
        <time>2019-08-16T14:48:53Z</time>
      </trkpt>
      <trkpt lat="42.0266190" lon="-8.6427430">
        <ele>57.8</ele>
        <time>2019-08-16T14:48:54Z</time>
      </trkpt>
      <trkpt lat="42.0266480" lon="-8.6426910">
        <ele>57.4</ele>
        <time>2019-08-16T14:48:55Z</time>
      </trkpt>
      <trkpt lat="42.0266740" lon="-8.6426490">
        <ele>57.0</ele>
        <time>2019-08-16T14:48:56Z</time>
      </trkpt>
      <trkpt lat="42.0267400" lon="-8.6425360">
        <ele>56.6</ele>
        <time>2019-08-16T14:49:00Z</time>
      </trkpt>
      <trkpt lat="42.0267450" lon="-8.6425160">
        <ele>56.2</ele>
        <time>2019-08-16T14:49:01Z</time>
      </trkpt>
      <trkpt lat="42.0267490" lon="-8.6424940">
        <ele>55.8</ele>
        <time>2019-08-16T14:49:02Z</time>
      </trkpt>
      <trkpt lat="42.0267490" lon="-8.6424710">
        <ele>55.2</ele>
        <time>2019-08-16T14:49:03Z</time>
      </trkpt>
      <trkpt lat="42.0267580" lon="-8.6424460">
        <ele>54.8</ele>
        <time>2019-08-16T14:49:04Z</time>
      </trkpt>
      <trkpt lat="42.0267570" lon="-8.6423540">
        <ele>54.8</ele>
        <time>2019-08-16T14:49:07Z</time>
      </trkpt>
      <trkpt lat="42.0267420" lon="-8.6421930">
        <ele>54.8</ele>
        <time>2019-08-16T14:49:10Z</time>
      </trkpt>
      <trkpt lat="42.0267400" lon="-8.6421350">
        <ele>54.8</ele>
        <time>2019-08-16T14:49:11Z</time>
      </trkpt>
      <trkpt lat="42.0268110" lon="-8.6420020">
        <ele>54.8</ele>
        <time>2019-08-16T14:49:14Z</time>
      </trkpt>
      <trkpt lat="42.0269390" lon="-8.6419940">
        <ele>54.8</ele>
        <time>2019-08-16T14:49:17Z</time>
      </trkpt>
      <trkpt lat="42.0269880" lon="-8.6420110">
        <ele>54.8</ele>
        <time>2019-08-16T14:49:18Z</time>
      </trkpt>
      <trkpt lat="42.0271240" lon="-8.6420700">
        <ele>54.8</ele>
        <time>2019-08-16T14:49:21Z</time>
      </trkpt>
      <trkpt lat="42.0271700" lon="-8.6420760">
        <ele>54.8</ele>
        <time>2019-08-16T14:49:22Z</time>
      </trkpt>
      <trkpt lat="42.0273100" lon="-8.6420570">
        <ele>54.8</ele>
        <time>2019-08-16T14:49:25Z</time>
      </trkpt>
      <trkpt lat="42.0274030" lon="-8.6420310">
        <ele>54.8</ele>
        <time>2019-08-16T14:49:27Z</time>
      </trkpt>
      <trkpt lat="42.0278070" lon="-8.6419430">
        <ele>54.8</ele>
        <time>2019-08-16T14:49:36Z</time>
      </trkpt>
      <trkpt lat="42.0282320" lon="-8.6419390">
        <ele>54.8</ele>
        <time>2019-08-16T14:49:45Z</time>
      </trkpt>
      <trkpt lat="42.0283310" lon="-8.6419430">
        <ele>54.4</ele>
        <time>2019-08-16T14:49:47Z</time>
      </trkpt>
      <trkpt lat="42.0283820" lon="-8.6419420">
        <ele>54.0</ele>
        <time>2019-08-16T14:49:48Z</time>
      </trkpt>
      <trkpt lat="42.0284330" lon="-8.6419440">
        <ele>53.6</ele>
        <time>2019-08-16T14:49:49Z</time>
      </trkpt>
      <trkpt lat="42.0284820" lon="-8.6419420">
        <ele>53.2</ele>
        <time>2019-08-16T14:49:50Z</time>
      </trkpt>
      <trkpt lat="42.0285340" lon="-8.6419470">
        <ele>52.8</ele>
        <time>2019-08-16T14:49:51Z</time>
      </trkpt>
      <trkpt lat="42.0286380" lon="-8.6419520">
        <ele>52.8</ele>
        <time>2019-08-16T14:49:53Z</time>
      </trkpt>
      <trkpt lat="42.0289820" lon="-8.6419580">
        <ele>52.2</ele>
        <time>2019-08-16T14:49:59Z</time>
      </trkpt>
      <trkpt lat="42.0290470" lon="-8.6419540">
        <ele>51.8</ele>
        <time>2019-08-16T14:50:00Z</time>
      </trkpt>
      <trkpt lat="42.0291130" lon="-8.6419550">
        <ele>51.4</ele>
        <time>2019-08-16T14:50:01Z</time>
      </trkpt>
      <trkpt lat="42.0291800" lon="-8.6419590">
        <ele>51.0</ele>
        <time>2019-08-16T14:50:02Z</time>
      </trkpt>
      <trkpt lat="42.0292450" lon="-8.6419650">
        <ele>50.6</ele>
        <time>2019-08-16T14:50:03Z</time>
      </trkpt>
      <trkpt lat="42.0293810" lon="-8.6419690">
        <ele>50.2</ele>
        <time>2019-08-16T14:50:05Z</time>
      </trkpt>
      <trkpt lat="42.0294620" lon="-8.6419760">
        <ele>49.8</ele>
        <time>2019-08-16T14:50:06Z</time>
      </trkpt>
      <trkpt lat="42.0295310" lon="-8.6419880">
        <ele>49.4</ele>
        <time>2019-08-16T14:50:07Z</time>
      </trkpt>
      <trkpt lat="42.0296120" lon="-8.6419900">
        <ele>49.0</ele>
        <time>2019-08-16T14:50:08Z</time>
      </trkpt>
      <trkpt lat="42.0296950" lon="-8.6419910">
        <ele>48.6</ele>
        <time>2019-08-16T14:50:09Z</time>
      </trkpt>
      <trkpt lat="42.0297750" lon="-8.6419900">
        <ele>48.0</ele>
        <time>2019-08-16T14:50:10Z</time>
      </trkpt>
      <trkpt lat="42.0298370" lon="-8.6420130">
        <ele>47.6</ele>
        <time>2019-08-16T14:50:11Z</time>
      </trkpt>
      <trkpt lat="42.0299290" lon="-8.6420000">
        <ele>47.2</ele>
        <time>2019-08-16T14:50:12Z</time>
      </trkpt>
      <trkpt lat="42.0300200" lon="-8.6419940">
        <ele>46.6</ele>
        <time>2019-08-16T14:50:13Z</time>
      </trkpt>
      <trkpt lat="42.0301170" lon="-8.6419870">
        <ele>46.2</ele>
        <time>2019-08-16T14:50:14Z</time>
      </trkpt>
      <trkpt lat="42.0302110" lon="-8.6419790">
        <ele>45.8</ele>
        <time>2019-08-16T14:50:15Z</time>
      </trkpt>
      <trkpt lat="42.0302980" lon="-8.6419740">
        <ele>45.2</ele>
        <time>2019-08-16T14:50:16Z</time>
      </trkpt>
      <trkpt lat="42.0303840" lon="-8.6419710">
        <ele>44.8</ele>
        <time>2019-08-16T14:50:17Z</time>
      </trkpt>
      <trkpt lat="42.0304730" lon="-8.6419680">
        <ele>44.2</ele>
        <time>2019-08-16T14:50:18Z</time>
      </trkpt>
      <trkpt lat="42.0305610" lon="-8.6419680">
        <ele>43.8</ele>
        <time>2019-08-16T14:50:19Z</time>
      </trkpt>
      <trkpt lat="42.0306510" lon="-8.6419670">
        <ele>43.2</ele>
        <time>2019-08-16T14:50:20Z</time>
      </trkpt>
      <trkpt lat="42.0307310" lon="-8.6419670">
        <ele>42.8</ele>
        <time>2019-08-16T14:50:21Z</time>
      </trkpt>
      <trkpt lat="42.0308150" lon="-8.6419640">
        <ele>42.4</ele>
        <time>2019-08-16T14:50:22Z</time>
      </trkpt>
      <trkpt lat="42.0309010" lon="-8.6419580">
        <ele>42.0</ele>
        <time>2019-08-16T14:50:23Z</time>
      </trkpt>
      <trkpt lat="42.0309800" lon="-8.6419570">
        <ele>41.4</ele>
        <time>2019-08-16T14:50:24Z</time>
      </trkpt>
      <trkpt lat="42.0310660" lon="-8.6419570">
        <ele>41.0</ele>
        <time>2019-08-16T14:50:25Z</time>
      </trkpt>
      <trkpt lat="42.0311530" lon="-8.6419590">
        <ele>40.6</ele>
        <time>2019-08-16T14:50:26Z</time>
      </trkpt>
      <trkpt lat="42.0312440" lon="-8.6419690">
        <ele>40.2</ele>
        <time>2019-08-16T14:50:27Z</time>
      </trkpt>
      <trkpt lat="42.0313320" lon="-8.6419830">
        <ele>39.8</ele>
        <time>2019-08-16T14:50:28Z</time>
      </trkpt>
      <trkpt lat="42.0314140" lon="-8.6420030">
        <ele>39.4</ele>
        <time>2019-08-16T14:50:29Z</time>
      </trkpt>
      <trkpt lat="42.0315770" lon="-8.6420550">
        <ele>39.4</ele>
        <time>2019-08-16T14:50:31Z</time>
      </trkpt>
      <trkpt lat="42.0316480" lon="-8.6420810">
        <ele>39.0</ele>
        <time>2019-08-16T14:50:32Z</time>
      </trkpt>
      <trkpt lat="42.0317150" lon="-8.6421060">
        <ele>38.4</ele>
        <time>2019-08-16T14:50:33Z</time>
      </trkpt>
      <trkpt lat="42.0317830" lon="-8.6421330">
        <ele>38.0</ele>
        <time>2019-08-16T14:50:34Z</time>
      </trkpt>
      <trkpt lat="42.0318450" lon="-8.6421600">
        <ele>37.6</ele>
        <time>2019-08-16T14:50:35Z</time>
      </trkpt>
      <trkpt lat="42.0319150" lon="-8.6421870">
        <ele>37.2</ele>
        <time>2019-08-16T14:50:36Z</time>
      </trkpt>
      <trkpt lat="42.0322280" lon="-8.6423050">
        <ele>37.2</ele>
        <time>2019-08-16T14:50:41Z</time>
      </trkpt>
      <trkpt lat="42.0326650" lon="-8.6425390">
        <ele>37.2</ele>
        <time>2019-08-16T14:50:48Z</time>
      </trkpt>
      <trkpt lat="42.0331030" lon="-8.6428100">
        <ele>37.2</ele>
        <time>2019-08-16T14:50:55Z</time>
      </trkpt>
      <trkpt lat="42.0334600" lon="-8.6431650">
        <ele>37.2</ele>
        <time>2019-08-16T14:51:02Z</time>
      </trkpt>
      <trkpt lat="42.0335870" lon="-8.6433260">
        <ele>36.8</ele>
        <time>2019-08-16T14:51:05Z</time>
      </trkpt>
      <trkpt lat="42.0336260" lon="-8.6433770">
        <ele>36.4</ele>
        <time>2019-08-16T14:51:06Z</time>
      </trkpt>
      <trkpt lat="42.0336690" lon="-8.6434300">
        <ele>36.0</ele>
        <time>2019-08-16T14:51:07Z</time>
      </trkpt>
      <trkpt lat="42.0337140" lon="-8.6434960">
        <ele>35.4</ele>
        <time>2019-08-16T14:51:08Z</time>
      </trkpt>
      <trkpt lat="42.0337580" lon="-8.6435490">
        <ele>35.0</ele>
        <time>2019-08-16T14:51:09Z</time>
      </trkpt>
      <trkpt lat="42.0340280" lon="-8.6440210">
        <ele>35.0</ele>
        <time>2019-08-16T14:51:17Z</time>
      </trkpt>
      <trkpt lat="42.0342110" lon="-8.6442800">
        <ele>35.0</ele>
        <time>2019-08-16T14:51:23Z</time>
      </trkpt>
      <trkpt lat="42.0342360" lon="-8.6443070">
        <ele>34.6</ele>
        <time>2019-08-16T14:51:26Z</time>
      </trkpt>
      <trkpt lat="42.0342440" lon="-8.6443140">
        <ele>33.0</ele>
        <time>2019-08-16T14:52:12Z</time>
      </trkpt>
      <trkpt lat="42.0342460" lon="-8.6443180">
        <ele>33.0</ele>
        <time>2019-08-16T14:52:13Z</time>
      </trkpt>
      <trkpt lat="42.0342370" lon="-8.6445330">
        <ele>33.0</ele>
        <time>2019-08-16T14:52:23Z</time>
      </trkpt>
      <trkpt lat="42.0342320" lon="-8.6445380">
        <ele>33.0</ele>
        <time>2019-08-16T14:52:24Z</time>
      </trkpt>
      <trkpt lat="42.0342280" lon="-8.6445440">
        <ele>33.0</ele>
        <time>2019-08-16T14:52:25Z</time>
      </trkpt>
      <trkpt lat="42.0342400" lon="-8.6445430">
        <ele>30.8</ele>
        <time>2019-08-16T15:00:40Z</time>
      </trkpt>
      <trkpt lat="42.0342550" lon="-8.6445540">
        <ele>30.8</ele>
        <time>2019-08-16T15:00:41Z</time>
      </trkpt>
      <trkpt lat="42.0342770" lon="-8.6445740">
        <ele>30.8</ele>
        <time>2019-08-16T15:00:42Z</time>
      </trkpt>
      <trkpt lat="42.0344340" lon="-8.6447710">
        <ele>30.8</ele>
        <time>2019-08-16T15:00:47Z</time>
      </trkpt>
      <trkpt lat="42.0345240" lon="-8.6449050">
        <ele>30.4</ele>
        <time>2019-08-16T15:00:50Z</time>
      </trkpt>
      <trkpt lat="42.0345500" lon="-8.6449380">
        <ele>30.0</ele>
        <time>2019-08-16T15:00:51Z</time>
      </trkpt>
      <trkpt lat="42.0345810" lon="-8.6449730">
        <ele>29.6</ele>
        <time>2019-08-16T15:00:52Z</time>
      </trkpt>
      <trkpt lat="42.0346100" lon="-8.6450100">
        <ele>29.2</ele>
        <time>2019-08-16T15:00:53Z</time>
      </trkpt>
      <trkpt lat="42.0346360" lon="-8.6450500">
        <ele>28.8</ele>
        <time>2019-08-16T15:00:54Z</time>
      </trkpt>
      <trkpt lat="42.0347190" lon="-8.6451540">
        <ele>28.2</ele>
        <time>2019-08-16T15:00:57Z</time>
      </trkpt>
      <trkpt lat="42.0347420" lon="-8.6451810">
        <ele>27.8</ele>
        <time>2019-08-16T15:00:58Z</time>
      </trkpt>
      <trkpt lat="42.0347630" lon="-8.6452080">
        <ele>27.4</ele>
        <time>2019-08-16T15:00:59Z</time>
      </trkpt>
      <trkpt lat="42.0347830" lon="-8.6452330">
        <ele>27.0</ele>
        <time>2019-08-16T15:01:00Z</time>
      </trkpt>
      <trkpt lat="42.0348040" lon="-8.6452560">
        <ele>26.6</ele>
        <time>2019-08-16T15:01:01Z</time>
      </trkpt>
      <trkpt lat="42.0349330" lon="-8.6453830">
        <ele>26.6</ele>
        <time>2019-08-16T15:01:08Z</time>
      </trkpt>
      <trkpt lat="42.0349470" lon="-8.6454070">
        <ele>26.6</ele>
        <time>2019-08-16T15:01:11Z</time>
      </trkpt>
      <trkpt lat="42.0349530" lon="-8.6454080">
        <ele>26.6</ele>
        <time>2019-08-16T15:02:23Z</time>
      </trkpt>
      <trkpt lat="42.0349570" lon="-8.6454010">
        <ele>26.6</ele>
        <time>2019-08-16T15:02:24Z</time>
      </trkpt>
      <trkpt lat="42.0349700" lon="-8.6453770">
        <ele>26.6</ele>
        <time>2019-08-16T15:02:25Z</time>
      </trkpt>
      <trkpt lat="42.0350450" lon="-8.6453440">
        <ele>26.6</ele>
        <time>2019-08-16T15:02:28Z</time>
      </trkpt>
      <trkpt lat="42.0351930" lon="-8.6454390">
        <ele>26.6</ele>
        <time>2019-08-16T15:02:33Z</time>
      </trkpt>
      <trkpt lat="42.0353330" lon="-8.6455990">
        <ele>26.2</ele>
        <time>2019-08-16T15:02:38Z</time>
      </trkpt>
      <trkpt lat="42.0353680" lon="-8.6456380">
        <ele>25.8</ele>
        <time>2019-08-16T15:02:39Z</time>
      </trkpt>
      <trkpt lat="42.0354020" lon="-8.6456760">
        <ele>25.4</ele>
        <time>2019-08-16T15:02:40Z</time>
      </trkpt>
      <trkpt lat="42.0354320" lon="-8.6457090">
        <ele>25.0</ele>
        <time>2019-08-16T15:02:41Z</time>
      </trkpt>
      <trkpt lat="42.0354650" lon="-8.6457460">
        <ele>24.6</ele>
        <time>2019-08-16T15:02:42Z</time>
      </trkpt>
      <trkpt lat="42.0355280" lon="-8.6458200">
        <ele>24.6</ele>
        <time>2019-08-16T15:02:44Z</time>
      </trkpt>
      <trkpt lat="42.0356130" lon="-8.6459140">
        <ele>24.6</ele>
        <time>2019-08-16T15:02:46Z</time>
      </trkpt>
      <trkpt lat="42.0357240" lon="-8.6460080">
        <ele>24.6</ele>
        <time>2019-08-16T15:02:48Z</time>
      </trkpt>
      <trkpt lat="42.0360460" lon="-8.6463890">
        <ele>24.6</ele>
        <time>2019-08-16T15:02:54Z</time>
      </trkpt>
      <trkpt lat="42.0364250" lon="-8.6468340">
        <ele>24.6</ele>
        <time>2019-08-16T15:03:00Z</time>
      </trkpt>
      <trkpt lat="42.0365340" lon="-8.6469530">
        <ele>24.6</ele>
        <time>2019-08-16T15:03:02Z</time>
      </trkpt>
      <trkpt lat="42.0366730" lon="-8.6471270">
        <ele>24.6</ele>
        <time>2019-08-16T15:03:05Z</time>
      </trkpt>
      <trkpt lat="42.0367730" lon="-8.6472530">
        <ele>24.6</ele>
        <time>2019-08-16T15:03:07Z</time>
      </trkpt>
      <trkpt lat="42.0369350" lon="-8.6474590">
        <ele>24.6</ele>
        <time>2019-08-16T15:03:10Z</time>
      </trkpt>
      <trkpt lat="42.0371740" lon="-8.6477370">
        <ele>24.6</ele>
        <time>2019-08-16T15:03:15Z</time>
      </trkpt>
      <trkpt lat="42.0372550" lon="-8.6478540">
        <ele>24.6</ele>
        <time>2019-08-16T15:03:17Z</time>
      </trkpt>
      <trkpt lat="42.0373530" lon="-8.6480040">
        <ele>24.6</ele>
        <time>2019-08-16T15:03:20Z</time>
      </trkpt>
      <trkpt lat="42.0374950" lon="-8.6481470">
        <ele>24.6</ele>
        <time>2019-08-16T15:03:25Z</time>
      </trkpt>
      <trkpt lat="42.0376720" lon="-8.6481760">
        <ele>24.6</ele>
        <time>2019-08-16T15:03:30Z</time>
      </trkpt>
      <trkpt lat="42.0379270" lon="-8.6481110">
        <ele>24.6</ele>
        <time>2019-08-16T15:03:39Z</time>
      </trkpt>
      <trkpt lat="42.0381280" lon="-8.6480060">
        <ele>24.6</ele>
        <time>2019-08-16T15:03:48Z</time>
      </trkpt>
      <trkpt lat="42.0381510" lon="-8.6479980">
        <ele>24.6</ele>
        <time>2019-08-16T15:03:51Z</time>
      </trkpt>
      <trkpt lat="42.0381510" lon="-8.6479990">
        <ele>24.6</ele>
        <time>2019-08-16T15:04:05Z</time>
      </trkpt>
      <trkpt lat="42.0381580" lon="-8.6479940">
        <ele>24.6</ele>
        <time>2019-08-16T15:04:06Z</time>
      </trkpt>
      <trkpt lat="42.0382940" lon="-8.6479190">
        <ele>24.6</ele>
        <time>2019-08-16T15:04:11Z</time>
      </trkpt>
      <trkpt lat="42.0384330" lon="-8.6479000">
        <ele>24.6</ele>
        <time>2019-08-16T15:04:17Z</time>
      </trkpt>
      <trkpt lat="42.0384750" lon="-8.6478870">
        <ele>24.2</ele>
        <time>2019-08-16T15:04:19Z</time>
      </trkpt>
      <trkpt lat="42.0384990" lon="-8.6478830">
        <ele>23.8</ele>
        <time>2019-08-16T15:04:20Z</time>
      </trkpt>
      <trkpt lat="42.0385230" lon="-8.6478810">
        <ele>23.4</ele>
        <time>2019-08-16T15:04:21Z</time>
      </trkpt>
      <trkpt lat="42.0385490" lon="-8.6478760">
        <ele>23.0</ele>
        <time>2019-08-16T15:04:22Z</time>
      </trkpt>
      <trkpt lat="42.0385680" lon="-8.6478800">
        <ele>22.6</ele>
        <time>2019-08-16T15:04:23Z</time>
      </trkpt>
      <trkpt lat="42.0386240" lon="-8.6478720">
        <ele>22.6</ele>
        <time>2019-08-16T15:04:25Z</time>
      </trkpt>
      <trkpt lat="42.0388630" lon="-8.6478750">
        <ele>22.6</ele>
        <time>2019-08-16T15:04:33Z</time>
      </trkpt>
      <trkpt lat="42.0391250" lon="-8.6478960">
        <ele>22.6</ele>
        <time>2019-08-16T15:04:39Z</time>
      </trkpt>
      <trkpt lat="42.0394300" lon="-8.6479040">
        <ele>22.6</ele>
        <time>2019-08-16T15:04:45Z</time>
      </trkpt>
      <trkpt lat="42.0399610" lon="-8.6479440">
        <ele>22.6</ele>
        <time>2019-08-16T15:04:55Z</time>
      </trkpt>
      <trkpt lat="42.0403720" lon="-8.6479460">
        <ele>22.6</ele>
        <time>2019-08-16T15:05:02Z</time>
      </trkpt>
      <trkpt lat="42.0407360" lon="-8.6479410">
        <ele>22.6</ele>
        <time>2019-08-16T15:05:09Z</time>
      </trkpt>
      <trkpt lat="42.0409470" lon="-8.6478790">
        <ele>23.0</ele>
        <time>2019-08-16T15:05:14Z</time>
      </trkpt>
      <trkpt lat="42.0409750" lon="-8.6478740">
        <ele>23.4</ele>
        <time>2019-08-16T15:05:15Z</time>
      </trkpt>
      <trkpt lat="42.0410000" lon="-8.6478710">
        <ele>23.8</ele>
        <time>2019-08-16T15:05:16Z</time>
      </trkpt>
      <trkpt lat="42.0410290" lon="-8.6478640">
        <ele>24.2</ele>
        <time>2019-08-16T15:05:17Z</time>
      </trkpt>
      <trkpt lat="42.0410800" lon="-8.6478440">
        <ele>24.6</ele>
        <time>2019-08-16T15:05:18Z</time>
      </trkpt>
      <trkpt lat="42.0411680" lon="-8.6478170">
        <ele>24.6</ele>
        <time>2019-08-16T15:05:21Z</time>
      </trkpt>
      <trkpt lat="42.0414000" lon="-8.6477510">
        <ele>24.6</ele>
        <time>2019-08-16T15:05:26Z</time>
      </trkpt>
      <trkpt lat="42.0416330" lon="-8.6476920">
        <ele>24.6</ele>
        <time>2019-08-16T15:05:31Z</time>
      </trkpt>
      <trkpt lat="42.0417290" lon="-8.6476630">
        <ele>24.6</ele>
        <time>2019-08-16T15:05:33Z</time>
      </trkpt>
      <trkpt lat="42.0420400" lon="-8.6475720">
        <ele>24.6</ele>
        <time>2019-08-16T15:05:39Z</time>
      </trkpt>
      <trkpt lat="42.0423630" lon="-8.6474640">
        <ele>24.6</ele>
        <time>2019-08-16T15:05:45Z</time>
      </trkpt>
      <trkpt lat="42.0424100" lon="-8.6474250">
        <ele>24.6</ele>
        <time>2019-08-16T15:05:46Z</time>
      </trkpt>
      <trkpt lat="42.0425500" lon="-8.6472860">
        <ele>24.6</ele>
        <time>2019-08-16T15:05:49Z</time>
      </trkpt>
      <trkpt lat="42.0428650" lon="-8.6469560">
        <ele>24.6</ele>
        <time>2019-08-16T15:05:56Z</time>
      </trkpt>
      <trkpt lat="42.0431420" lon="-8.6464980">
        <ele>24.2</ele>
        <time>2019-08-16T15:06:03Z</time>
      </trkpt>
      <trkpt lat="42.0431720" lon="-8.6464250">
        <ele>23.8</ele>
        <time>2019-08-16T15:06:04Z</time>
      </trkpt>
      <trkpt lat="42.0432050" lon="-8.6463510">
        <ele>23.4</ele>
        <time>2019-08-16T15:06:05Z</time>
      </trkpt>
      <trkpt lat="42.0432380" lon="-8.6462760">
        <ele>22.8</ele>
        <time>2019-08-16T15:06:06Z</time>
      </trkpt>
      <trkpt lat="42.0432760" lon="-8.6462010">
        <ele>22.4</ele>
        <time>2019-08-16T15:06:07Z</time>
      </trkpt>
      <trkpt lat="42.0434500" lon="-8.6459340">
        <ele>22.4</ele>
        <time>2019-08-16T15:06:11Z</time>
      </trkpt>
      <trkpt lat="42.0437020" lon="-8.6457680">
        <ele>22.4</ele>
        <time>2019-08-16T15:06:15Z</time>
      </trkpt>
      <trkpt lat="42.0439780" lon="-8.6457230">
        <ele>22.4</ele>
        <time>2019-08-16T15:06:19Z</time>
      </trkpt>
      <trkpt lat="42.0440420" lon="-8.6457180">
        <ele>22.4</ele>
        <time>2019-08-16T15:06:20Z</time>
      </trkpt>
      <trkpt lat="42.0444620" lon="-8.6457180">
        <ele>22.4</ele>
        <time>2019-08-16T15:06:27Z</time>
      </trkpt>
      <trkpt lat="42.0447330" lon="-8.6457920">
        <ele>22.8</ele>
        <time>2019-08-16T15:06:32Z</time>
      </trkpt>
      <trkpt lat="42.0447820" lon="-8.6458130">
        <ele>23.4</ele>
        <time>2019-08-16T15:06:33Z</time>
      </trkpt>
      <trkpt lat="42.0448360" lon="-8.6458400">
        <ele>23.8</ele>
        <time>2019-08-16T15:06:34Z</time>
      </trkpt>
      <trkpt lat="42.0448800" lon="-8.6458660">
        <ele>24.2</ele>
        <time>2019-08-16T15:06:35Z</time>
      </trkpt>
      <trkpt lat="42.0449210" lon="-8.6459030">
        <ele>24.8</ele>
        <time>2019-08-16T15:06:36Z</time>
      </trkpt>
      <trkpt lat="42.0450060" lon="-8.6459530">
        <ele>24.8</ele>
        <time>2019-08-16T15:06:38Z</time>
      </trkpt>
      <trkpt lat="42.0452150" lon="-8.6460630">
        <ele>25.2</ele>
        <time>2019-08-16T15:06:43Z</time>
      </trkpt>
      <trkpt lat="42.0452550" lon="-8.6460820">
        <ele>25.6</ele>
        <time>2019-08-16T15:06:44Z</time>
      </trkpt>
      <trkpt lat="42.0452970" lon="-8.6461000">
        <ele>26.2</ele>
        <time>2019-08-16T15:06:45Z</time>
      </trkpt>
      <trkpt lat="42.0453330" lon="-8.6461270">
        <ele>26.6</ele>
        <time>2019-08-16T15:06:46Z</time>
      </trkpt>
      <trkpt lat="42.0453750" lon="-8.6461440">
        <ele>27.2</ele>
        <time>2019-08-16T15:06:47Z</time>
      </trkpt>
      <trkpt lat="42.0454870" lon="-8.6461990">
        <ele>27.6</ele>
        <time>2019-08-16T15:06:50Z</time>
      </trkpt>
      <trkpt lat="42.0455230" lon="-8.6462150">
        <ele>28.0</ele>
        <time>2019-08-16T15:06:51Z</time>
      </trkpt>
      <trkpt lat="42.0455600" lon="-8.6462320">
        <ele>28.4</ele>
        <time>2019-08-16T15:06:52Z</time>
      </trkpt>
      <trkpt lat="42.0455960" lon="-8.6462500">
        <ele>28.8</ele>
        <time>2019-08-16T15:06:53Z</time>
      </trkpt>
      <trkpt lat="42.0456300" lon="-8.6462670">
        <ele>29.2</ele>
        <time>2019-08-16T15:06:54Z</time>
      </trkpt>
      <trkpt lat="42.0457260" lon="-8.6463170">
        <ele>29.2</ele>
        <time>2019-08-16T15:06:57Z</time>
      </trkpt>
      <trkpt lat="42.0460660" lon="-8.6465090">
        <ele>29.6</ele>
        <time>2019-08-16T15:07:07Z</time>
      </trkpt>
      <trkpt lat="42.0460990" lon="-8.6465260">
        <ele>30.0</ele>
        <time>2019-08-16T15:07:08Z</time>
      </trkpt>
      <trkpt lat="42.0461370" lon="-8.6465290">
        <ele>30.4</ele>
        <time>2019-08-16T15:07:09Z</time>
      </trkpt>
      <trkpt lat="42.0461740" lon="-8.6465250">
        <ele>30.8</ele>
        <time>2019-08-16T15:07:10Z</time>
      </trkpt>
      <trkpt lat="42.0462130" lon="-8.6465150">
        <ele>31.2</ele>
        <time>2019-08-16T15:07:11Z</time>
      </trkpt>
      <trkpt lat="42.0462410" lon="-8.6465110">
        <ele>31.2</ele>
        <time>2019-08-16T15:07:12Z</time>
      </trkpt>
      <trkpt lat="42.0464220" lon="-8.6464640">
        <ele>31.2</ele>
        <time>2019-08-16T15:07:19Z</time>
      </trkpt>
      <trkpt lat="42.0464480" lon="-8.6464590">
        <ele>31.6</ele>
        <time>2019-08-16T15:07:20Z</time>
      </trkpt>
      <trkpt lat="42.0464720" lon="-8.6464510">
        <ele>32.2</ele>
        <time>2019-08-16T15:07:21Z</time>
      </trkpt>
      <trkpt lat="42.0465060" lon="-8.6464410">
        <ele>32.6</ele>
        <time>2019-08-16T15:07:22Z</time>
      </trkpt>
      <trkpt lat="42.0465300" lon="-8.6464390">
        <ele>33.0</ele>
        <time>2019-08-16T15:07:23Z</time>
      </trkpt>
      <trkpt lat="42.0465560" lon="-8.6464370">
        <ele>33.4</ele>
        <time>2019-08-16T15:07:24Z</time>
      </trkpt>
      <trkpt lat="42.0466380" lon="-8.6464110">
        <ele>33.8</ele>
        <time>2019-08-16T15:07:27Z</time>
      </trkpt>
      <trkpt lat="42.0466580" lon="-8.6464020">
        <ele>34.2</ele>
        <time>2019-08-16T15:07:28Z</time>
      </trkpt>
      <trkpt lat="42.0466840" lon="-8.6463900">
        <ele>34.6</ele>
        <time>2019-08-16T15:07:29Z</time>
      </trkpt>
      <trkpt lat="42.0467100" lon="-8.6463800">
        <ele>35.0</ele>
        <time>2019-08-16T15:07:30Z</time>
      </trkpt>
      <trkpt lat="42.0467360" lon="-8.6463680">
        <ele>35.4</ele>
        <time>2019-08-16T15:07:31Z</time>
      </trkpt>
      <trkpt lat="42.0468080" lon="-8.6463500">
        <ele>35.4</ele>
        <time>2019-08-16T15:07:34Z</time>
      </trkpt>
      <trkpt lat="42.0469240" lon="-8.6462770">
        <ele>35.4</ele>
        <time>2019-08-16T15:07:39Z</time>
      </trkpt>
      <trkpt lat="42.0469630" lon="-8.6462600">
        <ele>35.4</ele>
        <time>2019-08-16T15:07:40Z</time>
      </trkpt>
      <trkpt lat="42.0470030" lon="-8.6462420">
        <ele>35.8</ele>
        <time>2019-08-16T15:07:51Z</time>
      </trkpt>
      <trkpt lat="42.0470420" lon="-8.6462250">
        <ele>36.2</ele>
        <time>2019-08-16T15:07:52Z</time>
      </trkpt>
      <trkpt lat="42.0470710" lon="-8.6462080">
        <ele>36.6</ele>
        <time>2019-08-16T15:07:53Z</time>
      </trkpt>
      <trkpt lat="42.0470980" lon="-8.6461950">
        <ele>37.2</ele>
        <time>2019-08-16T15:07:54Z</time>
      </trkpt>
      <trkpt lat="42.0471280" lon="-8.6461820">
        <ele>37.6</ele>
        <time>2019-08-16T15:07:55Z</time>
      </trkpt>
      <trkpt lat="42.0472490" lon="-8.6461570">
        <ele>37.6</ele>
        <time>2019-08-16T15:07:59Z</time>
      </trkpt>
      <trkpt lat="42.0475220" lon="-8.6461700">
        <ele>37.6</ele>
        <time>2019-08-16T15:08:06Z</time>
      </trkpt>
      <trkpt lat="42.0475840" lon="-8.6461980">
        <ele>38.0</ele>
        <time>2019-08-16T15:08:08Z</time>
      </trkpt>
      <trkpt lat="42.0476210" lon="-8.6462130">
        <ele>38.4</ele>
        <time>2019-08-16T15:08:09Z</time>
      </trkpt>
      <trkpt lat="42.0476550" lon="-8.6462290">
        <ele>38.8</ele>
        <time>2019-08-16T15:08:10Z</time>
      </trkpt>
      <trkpt lat="42.0476970" lon="-8.6462400">
        <ele>39.2</ele>
        <time>2019-08-16T15:08:11Z</time>
      </trkpt>
      <trkpt lat="42.0477350" lon="-8.6462510">
        <ele>39.6</ele>
        <time>2019-08-16T15:08:12Z</time>
      </trkpt>
      <trkpt lat="42.0480070" lon="-8.6463700">
        <ele>39.6</ele>
        <time>2019-08-16T15:08:19Z</time>
      </trkpt>
      <trkpt lat="42.0482550" lon="-8.6465200">
        <ele>40.0</ele>
        <time>2019-08-16T15:08:26Z</time>
      </trkpt>
      <trkpt lat="42.0482780" lon="-8.6465440">
        <ele>40.4</ele>
        <time>2019-08-16T15:08:27Z</time>
      </trkpt>
      <trkpt lat="42.0483060" lon="-8.6465650">
        <ele>40.8</ele>
        <time>2019-08-16T15:08:28Z</time>
      </trkpt>
      <trkpt lat="42.0483420" lon="-8.6465800">
        <ele>41.2</ele>
        <time>2019-08-16T15:08:29Z</time>
      </trkpt>
      <trkpt lat="42.0483790" lon="-8.6465910">
        <ele>41.6</ele>
        <time>2019-08-16T15:08:30Z</time>
      </trkpt>
      <trkpt lat="42.0484280" lon="-8.6465790">
        <ele>41.6</ele>
        <time>2019-08-16T15:08:31Z</time>
      </trkpt>
      <trkpt lat="42.0485340" lon="-8.6466340">
        <ele>41.6</ele>
        <time>2019-08-16T15:08:34Z</time>
      </trkpt>
      <trkpt lat="42.0486040" lon="-8.6466710">
        <ele>42.0</ele>
        <time>2019-08-16T15:08:36Z</time>
      </trkpt>
      <trkpt lat="42.0486350" lon="-8.6466910">
        <ele>42.4</ele>
        <time>2019-08-16T15:08:37Z</time>
      </trkpt>
      <trkpt lat="42.0486690" lon="-8.6467140">
        <ele>42.8</ele>
        <time>2019-08-16T15:08:38Z</time>
      </trkpt>
      <trkpt lat="42.0487010" lon="-8.6467350">
        <ele>43.2</ele>
        <time>2019-08-16T15:08:39Z</time>
      </trkpt>
      <trkpt lat="42.0487270" lon="-8.6467550">
        <ele>43.6</ele>
        <time>2019-08-16T15:08:40Z</time>
      </trkpt>
      <trkpt lat="42.0487810" lon="-8.6467710">
        <ele>43.6</ele>
        <time>2019-08-16T15:08:42Z</time>
      </trkpt>
      <trkpt lat="42.0488650" lon="-8.6467490">
        <ele>44.0</ele>
        <time>2019-08-16T15:08:46Z</time>
      </trkpt>
      <trkpt lat="42.0488890" lon="-8.6467340">
        <ele>44.4</ele>
        <time>2019-08-16T15:08:47Z</time>
      </trkpt>
      <trkpt lat="42.0489200" lon="-8.6467070">
        <ele>44.8</ele>
        <time>2019-08-16T15:08:48Z</time>
      </trkpt>
      <trkpt lat="42.0489520" lon="-8.6466780">
        <ele>45.2</ele>
        <time>2019-08-16T15:08:49Z</time>
      </trkpt>
      <trkpt lat="42.0489800" lon="-8.6466480">
        <ele>45.6</ele>
        <time>2019-08-16T15:08:50Z</time>
      </trkpt>
      <trkpt lat="42.0490040" lon="-8.6466140">
        <ele>45.6</ele>
        <time>2019-08-16T15:08:51Z</time>
      </trkpt>
      <trkpt lat="42.0490260" lon="-8.6465700">
        <ele>45.6</ele>
        <time>2019-08-16T15:08:52Z</time>
      </trkpt>
      <trkpt lat="42.0490520" lon="-8.6464200">
        <ele>45.6</ele>
        <time>2019-08-16T15:08:56Z</time>
      </trkpt>
      <trkpt lat="42.0490550" lon="-8.6464180">
        <ele>45.6</ele>
        <time>2019-08-16T15:08:57Z</time>
      </trkpt>
      <trkpt lat="42.0490680" lon="-8.6463520">
        <ele>45.6</ele>
        <time>2019-08-16T15:09:09Z</time>
      </trkpt>
      <trkpt lat="42.0490620" lon="-8.6463200">
        <ele>45.6</ele>
        <time>2019-08-16T15:09:10Z</time>
      </trkpt>
      <trkpt lat="42.0490250" lon="-8.6461090">
        <ele>46.0</ele>
        <time>2019-08-16T15:09:15Z</time>
      </trkpt>
      <trkpt lat="42.0490130" lon="-8.6460640">
        <ele>46.4</ele>
        <time>2019-08-16T15:09:16Z</time>
      </trkpt>
      <trkpt lat="42.0490010" lon="-8.6460180">
        <ele>46.8</ele>
        <time>2019-08-16T15:09:17Z</time>
      </trkpt>
      <trkpt lat="42.0489950" lon="-8.6459680">
        <ele>47.2</ele>
        <time>2019-08-16T15:09:18Z</time>
      </trkpt>
      <trkpt lat="42.0489810" lon="-8.6459170">
        <ele>47.6</ele>
        <time>2019-08-16T15:09:19Z</time>
      </trkpt>
      <trkpt lat="42.0489330" lon="-8.6457720">
        <ele>47.6</ele>
        <time>2019-08-16T15:09:22Z</time>
      </trkpt>
      <trkpt lat="42.0488790" lon="-8.6457390">
        <ele>47.6</ele>
        <time>2019-08-16T15:09:23Z</time>
      </trkpt>
      <trkpt lat="42.0487800" lon="-8.6454600">
        <ele>47.6</ele>
        <time>2019-08-16T15:09:28Z</time>
      </trkpt>
      <trkpt lat="42.0486710" lon="-8.6450440">
        <ele>47.6</ele>
        <time>2019-08-16T15:09:36Z</time>
      </trkpt>
      <trkpt lat="42.0485030" lon="-8.6445910">
        <ele>47.6</ele>
        <time>2019-08-16T15:09:45Z</time>
      </trkpt>
      <trkpt lat="42.0483400" lon="-8.6441650">
        <ele>47.6</ele>
        <time>2019-08-16T15:09:54Z</time>
      </trkpt>
      <trkpt lat="42.0484020" lon="-8.6440860">
        <ele>47.6</ele>
        <time>2019-08-16T15:09:57Z</time>
      </trkpt>
      <trkpt lat="42.0484710" lon="-8.6440520">
        <ele>47.6</ele>
        <time>2019-08-16T15:09:59Z</time>
      </trkpt>
      <trkpt lat="42.0486360" lon="-8.6439120">
        <ele>47.6</ele>
        <time>2019-08-16T15:10:04Z</time>
      </trkpt>
      <trkpt lat="42.0488240" lon="-8.6437730">
        <ele>47.6</ele>
        <time>2019-08-16T15:10:09Z</time>
      </trkpt>
      <trkpt lat="42.0489290" lon="-8.6436840">
        <ele>47.6</ele>
        <time>2019-08-16T15:10:12Z</time>
      </trkpt>
      <trkpt lat="42.0493040" lon="-8.6434080">
        <ele>47.6</ele>
        <time>2019-08-16T15:10:21Z</time>
      </trkpt>
      <trkpt lat="42.0493530" lon="-8.6433840">
        <ele>47.6</ele>
        <time>2019-08-16T15:10:22Z</time>
      </trkpt>
      <trkpt lat="42.0495210" lon="-8.6433310">
        <ele>47.6</ele>
        <time>2019-08-16T15:10:25Z</time>
      </trkpt>
      <trkpt lat="42.0495820" lon="-8.6433290">
        <ele>47.6</ele>
        <time>2019-08-16T15:10:26Z</time>
      </trkpt>
      <trkpt lat="42.0497140" lon="-8.6433430">
        <ele>47.2</ele>
        <time>2019-08-16T15:10:28Z</time>
      </trkpt>
      <trkpt lat="42.0497760" lon="-8.6433500">
        <ele>46.8</ele>
        <time>2019-08-16T15:10:29Z</time>
      </trkpt>
      <trkpt lat="42.0498400" lon="-8.6433660">
        <ele>46.2</ele>
        <time>2019-08-16T15:10:30Z</time>
      </trkpt>
      <trkpt lat="42.0498940" lon="-8.6433800">
        <ele>45.8</ele>
        <time>2019-08-16T15:10:31Z</time>
      </trkpt>
      <trkpt lat="42.0499500" lon="-8.6433960">
        <ele>45.4</ele>
        <time>2019-08-16T15:10:32Z</time>
      </trkpt>
      <trkpt lat="42.0500550" lon="-8.6434240">
        <ele>45.0</ele>
        <time>2019-08-16T15:10:34Z</time>
      </trkpt>
      <trkpt lat="42.0501110" lon="-8.6434310">
        <ele>44.4</ele>
        <time>2019-08-16T15:10:35Z</time>
      </trkpt>
      <trkpt lat="42.0501640" lon="-8.6434210">
        <ele>44.0</ele>
        <time>2019-08-16T15:10:36Z</time>
      </trkpt>
      <trkpt lat="42.0502230" lon="-8.6434040">
        <ele>43.6</ele>
        <time>2019-08-16T15:10:37Z</time>
      </trkpt>
      <trkpt lat="42.0502770" lon="-8.6433910">
        <ele>43.2</ele>
        <time>2019-08-16T15:10:38Z</time>
      </trkpt>
      <trkpt lat="42.0503330" lon="-8.6433790">
        <ele>42.8</ele>
        <time>2019-08-16T15:10:39Z</time>
      </trkpt>
      <trkpt lat="42.0503990" lon="-8.6433600">
        <ele>42.4</ele>
        <time>2019-08-16T15:10:40Z</time>
      </trkpt>
      <trkpt lat="42.0504580" lon="-8.6433480">
        <ele>42.0</ele>
        <time>2019-08-16T15:10:41Z</time>
      </trkpt>
      <trkpt lat="42.0505310" lon="-8.6433250">
        <ele>41.6</ele>
        <time>2019-08-16T15:10:42Z</time>
      </trkpt>
      <trkpt lat="42.0505960" lon="-8.6433140">
        <ele>41.2</ele>
        <time>2019-08-16T15:10:43Z</time>
      </trkpt>
      <trkpt lat="42.0507180" lon="-8.6432960">
        <ele>41.2</ele>
        <time>2019-08-16T15:10:45Z</time>
      </trkpt>
      <trkpt lat="42.0507870" lon="-8.6432810">
        <ele>40.6</ele>
        <time>2019-08-16T15:10:46Z</time>
      </trkpt>
      <trkpt lat="42.0508540" lon="-8.6432690">
        <ele>40.0</ele>
        <time>2019-08-16T15:10:47Z</time>
      </trkpt>
      <trkpt lat="42.0509120" lon="-8.6432650">
        <ele>39.6</ele>
        <time>2019-08-16T15:10:48Z</time>
      </trkpt>
      <trkpt lat="42.0509820" lon="-8.6432510">
        <ele>39.0</ele>
        <time>2019-08-16T15:10:49Z</time>
      </trkpt>
      <trkpt lat="42.0510520" lon="-8.6432380">
        <ele>38.4</ele>
        <time>2019-08-16T15:10:50Z</time>
      </trkpt>
      <trkpt lat="42.0511240" lon="-8.6432210">
        <ele>38.0</ele>
        <time>2019-08-16T15:10:51Z</time>
      </trkpt>
      <trkpt lat="42.0512010" lon="-8.6432030">
        <ele>37.4</ele>
        <time>2019-08-16T15:10:52Z</time>
      </trkpt>
      <trkpt lat="42.0512800" lon="-8.6431850">
        <ele>36.8</ele>
        <time>2019-08-16T15:10:53Z</time>
      </trkpt>
      <trkpt lat="42.0513650" lon="-8.6431680">
        <ele>36.2</ele>
        <time>2019-08-16T15:10:54Z</time>
      </trkpt>
      <trkpt lat="42.0516070" lon="-8.6431300">
        <ele>35.8</ele>
        <time>2019-08-16T15:10:57Z</time>
      </trkpt>
      <trkpt lat="42.0516930" lon="-8.6431210">
        <ele>35.2</ele>
        <time>2019-08-16T15:10:58Z</time>
      </trkpt>
      <trkpt lat="42.0517750" lon="-8.6431070">
        <ele>34.6</ele>
        <time>2019-08-16T15:10:59Z</time>
      </trkpt>
      <trkpt lat="42.0518540" lon="-8.6430960">
        <ele>34.2</ele>
        <time>2019-08-16T15:11:00Z</time>
      </trkpt>
      <trkpt lat="42.0519290" lon="-8.6430850">
        <ele>33.6</ele>
        <time>2019-08-16T15:11:01Z</time>
      </trkpt>
      <trkpt lat="42.0524210" lon="-8.6429830">
        <ele>33.6</ele>
        <time>2019-08-16T15:11:08Z</time>
      </trkpt>
      <trkpt lat="42.0525280" lon="-8.6429580">
        <ele>33.2</ele>
        <time>2019-08-16T15:11:10Z</time>
      </trkpt>
      <trkpt lat="42.0525750" lon="-8.6429420">
        <ele>32.8</ele>
        <time>2019-08-16T15:11:11Z</time>
      </trkpt>
      <trkpt lat="42.0526070" lon="-8.6429060">
        <ele>32.4</ele>
        <time>2019-08-16T15:11:12Z</time>
      </trkpt>
      <trkpt lat="42.0526060" lon="-8.6428490">
        <ele>32.0</ele>
        <time>2019-08-16T15:11:13Z</time>
      </trkpt>
      <trkpt lat="42.0525920" lon="-8.6427960">
        <ele>31.6</ele>
        <time>2019-08-16T15:11:14Z</time>
      </trkpt>
      <trkpt lat="42.0525580" lon="-8.6427140">
        <ele>31.6</ele>
        <time>2019-08-16T15:11:16Z</time>
      </trkpt>
      <trkpt lat="42.0526170" lon="-8.6425820">
        <ele>31.6</ele>
        <time>2019-08-16T15:11:21Z</time>
      </trkpt>
      <trkpt lat="42.0527280" lon="-8.6425040">
        <ele>31.2</ele>
        <time>2019-08-16T15:11:24Z</time>
      </trkpt>
      <trkpt lat="42.0527660" lon="-8.6424760">
        <ele>30.6</ele>
        <time>2019-08-16T15:11:25Z</time>
      </trkpt>
      <trkpt lat="42.0528040" lon="-8.6424440">
        <ele>30.2</ele>
        <time>2019-08-16T15:11:26Z</time>
      </trkpt>
      <trkpt lat="42.0528420" lon="-8.6424160">
        <ele>29.8</ele>
        <time>2019-08-16T15:11:27Z</time>
      </trkpt>
      <trkpt lat="42.0529390" lon="-8.6423360">
        <ele>29.2</ele>
        <time>2019-08-16T15:11:29Z</time>
      </trkpt>
      <trkpt lat="42.0530620" lon="-8.6422310">
        <ele>29.2</ele>
        <time>2019-08-16T15:11:32Z</time>
      </trkpt>
      <trkpt lat="42.0533540" lon="-8.6418750">
        <ele>29.2</ele>
        <time>2019-08-16T15:11:41Z</time>
      </trkpt>
      <trkpt lat="42.0533880" lon="-8.6418440">
        <ele>29.2</ele>
        <time>2019-08-16T15:11:42Z</time>
      </trkpt>
      <trkpt lat="42.0535630" lon="-8.6416940">
        <ele>29.2</ele>
        <time>2019-08-16T15:11:47Z</time>
      </trkpt>
      <trkpt lat="42.0537450" lon="-8.6415300">
        <ele>29.2</ele>
        <time>2019-08-16T15:11:53Z</time>
      </trkpt>
      <trkpt lat="42.0539510" lon="-8.6412590">
        <ele>29.2</ele>
        <time>2019-08-16T15:12:01Z</time>
      </trkpt>
      <trkpt lat="42.0540790" lon="-8.6411400">
        <ele>29.2</ele>
        <time>2019-08-16T15:12:07Z</time>
      </trkpt>
      <trkpt lat="42.0541520" lon="-8.6411350">
        <ele>29.2</ele>
        <time>2019-08-16T15:12:12Z</time>
      </trkpt>
      <trkpt lat="42.0541870" lon="-8.6411010">
        <ele>21.0</ele>
        <time>2019-08-17T05:56:55Z</time>
      </trkpt>
      <trkpt lat="42.0542410" lon="-8.6409890">
        <ele>20.9</ele>
        <time>2019-08-17T05:57:00Z</time>
      </trkpt>
      <trkpt lat="42.0542600" lon="-8.6409650">
        <ele>20.9</ele>
        <time>2019-08-17T05:57:01Z</time>
      </trkpt>
      <trkpt lat="42.0543760" lon="-8.6407660">
        <ele>20.6</ele>
        <time>2019-08-17T05:57:07Z</time>
      </trkpt>
      <trkpt lat="42.0541570" lon="-8.6404260">
        <ele>20.5</ele>
        <time>2019-08-17T05:57:17Z</time>
      </trkpt>
      <trkpt lat="42.0541050" lon="-8.6402740">
        <ele>20.4</ele>
        <time>2019-08-17T05:57:26Z</time>
      </trkpt>
      <trkpt lat="42.0541010" lon="-8.6402140">
        <ele>20.3</ele>
        <time>2019-08-17T05:57:32Z</time>
      </trkpt>
      <trkpt lat="42.0540500" lon="-8.6400850">
        <ele>20.2</ele>
        <time>2019-08-17T05:57:41Z</time>
      </trkpt>
      <trkpt lat="42.0540360" lon="-8.6400640">
        <ele>20.2</ele>
        <time>2019-08-17T05:57:42Z</time>
      </trkpt>
      <trkpt lat="42.0538940" lon="-8.6398970">
        <ele>20.0</ele>
        <time>2019-08-17T05:57:52Z</time>
      </trkpt>
      <trkpt lat="42.0537590" lon="-8.6397430">
        <ele>19.8</ele>
        <time>2019-08-17T05:57:59Z</time>
      </trkpt>
      <trkpt lat="42.0536530" lon="-8.6395180">
        <ele>19.4</ele>
        <time>2019-08-17T05:58:06Z</time>
      </trkpt>
      <trkpt lat="42.0537510" lon="-8.6393570">
        <ele>19.3</ele>
        <time>2019-08-17T05:58:11Z</time>
      </trkpt>
      <trkpt lat="42.0537770" lon="-8.6393380">
        <ele>19.2</ele>
        <time>2019-08-17T05:58:12Z</time>
      </trkpt>
      <trkpt lat="42.0538020" lon="-8.6393210">
        <ele>19.2</ele>
        <time>2019-08-17T05:58:13Z</time>
      </trkpt>
      <trkpt lat="42.0538270" lon="-8.6393090">
        <ele>19.2</ele>
        <time>2019-08-17T05:58:14Z</time>
      </trkpt>
      <trkpt lat="42.0538730" lon="-8.6392930">
        <ele>19.1</ele>
        <time>2019-08-17T05:58:15Z</time>
      </trkpt>
      <trkpt lat="42.0538970" lon="-8.6392740">
        <ele>19.0</ele>
        <time>2019-08-17T05:58:16Z</time>
      </trkpt>
      <trkpt lat="42.0539670" lon="-8.6392330">
        <ele>18.8</ele>
        <time>2019-08-17T05:58:19Z</time>
      </trkpt>
      <trkpt lat="42.0540790" lon="-8.6389380">
        <ele>18.4</ele>
        <time>2019-08-17T05:58:28Z</time>
      </trkpt>
      <trkpt lat="42.0541240" lon="-8.6388210">
        <ele>18.3</ele>
        <time>2019-08-17T05:58:33Z</time>
      </trkpt>
      <trkpt lat="42.0541240" lon="-8.6388570">
        <ele>18.3</ele>
        <time>2019-08-17T05:58:34Z</time>
      </trkpt>
      <trkpt lat="42.0541130" lon="-8.6388970">
        <ele>18.2</ele>
        <time>2019-08-17T05:58:40Z</time>
      </trkpt>
      <trkpt lat="42.0541030" lon="-8.6389380">
        <ele>18.2</ele>
        <time>2019-08-17T05:58:41Z</time>
      </trkpt>
      <trkpt lat="42.0539790" lon="-8.6392020">
        <ele>18.5</ele>
        <time>2019-08-17T05:58:47Z</time>
      </trkpt>
      <trkpt lat="42.0537690" lon="-8.6394330">
        <ele>19.3</ele>
        <time>2019-08-17T05:58:54Z</time>
      </trkpt>
      <trkpt lat="42.0535510" lon="-8.6395490">
        <ele>19.4</ele>
        <time>2019-08-17T05:59:01Z</time>
      </trkpt>
      <trkpt lat="42.0534680" lon="-8.6394820">
        <ele>19.3</ele>
        <time>2019-08-17T05:59:05Z</time>
      </trkpt>
      <trkpt lat="42.0533450" lon="-8.6393440">
        <ele>19.0</ele>
        <time>2019-08-17T05:59:11Z</time>
      </trkpt>
      <trkpt lat="42.0531910" lon="-8.6391500">
        <ele>18.7</ele>
        <time>2019-08-17T05:59:17Z</time>
      </trkpt>
      <trkpt lat="42.0531280" lon="-8.6390300">
        <ele>18.4</ele>
        <time>2019-08-17T05:59:20Z</time>
      </trkpt>
      <trkpt lat="42.0531080" lon="-8.6389780">
        <ele>18.3</ele>
        <time>2019-08-17T05:59:21Z</time>
      </trkpt>
      <trkpt lat="42.0530950" lon="-8.6389370">
        <ele>18.2</ele>
        <time>2019-08-17T05:59:22Z</time>
      </trkpt>
      <trkpt lat="42.0530790" lon="-8.6388920">
        <ele>17.9</ele>
        <time>2019-08-17T05:59:23Z</time>
      </trkpt>
      <trkpt lat="42.0530690" lon="-8.6388370">
        <ele>17.6</ele>
        <time>2019-08-17T05:59:24Z</time>
      </trkpt>
      <trkpt lat="42.0530590" lon="-8.6387770">
        <ele>17.1</ele>
        <time>2019-08-17T05:59:25Z</time>
      </trkpt>
      <trkpt lat="42.0530450" lon="-8.6387080">
        <ele>16.8</ele>
        <time>2019-08-17T05:59:26Z</time>
      </trkpt>
      <trkpt lat="42.0530310" lon="-8.6386220">
        <ele>16.3</ele>
        <time>2019-08-17T05:59:27Z</time>
      </trkpt>
      <trkpt lat="42.0530440" lon="-8.6385290">
        <ele>15.9</ele>
        <time>2019-08-17T05:59:28Z</time>
      </trkpt>
      <trkpt lat="42.0530500" lon="-8.6384380">
        <ele>15.6</ele>
        <time>2019-08-17T05:59:29Z</time>
      </trkpt>
      <trkpt lat="42.0530710" lon="-8.6383410">
        <ele>15.3</ele>
        <time>2019-08-17T05:59:30Z</time>
      </trkpt>
      <trkpt lat="42.0531030" lon="-8.6382480">
        <ele>15.0</ele>
        <time>2019-08-17T05:59:32Z</time>
      </trkpt>
      <trkpt lat="42.0531250" lon="-8.6381670">
        <ele>14.9</ele>
        <time>2019-08-17T05:59:33Z</time>
      </trkpt>
      <trkpt lat="42.0531480" lon="-8.6380850">
        <ele>14.7</ele>
        <time>2019-08-17T05:59:34Z</time>
      </trkpt>
      <trkpt lat="42.0531760" lon="-8.6380000">
        <ele>14.4</ele>
        <time>2019-08-17T05:59:35Z</time>
      </trkpt>
      <trkpt lat="42.0531970" lon="-8.6379200">
        <ele>14.2</ele>
        <time>2019-08-17T05:59:36Z</time>
      </trkpt>
      <trkpt lat="42.0532170" lon="-8.6378380">
        <ele>13.9</ele>
        <time>2019-08-17T05:59:37Z</time>
      </trkpt>
      <trkpt lat="42.0533000" lon="-8.6376440">
        <ele>13.2</ele>
        <time>2019-08-17T05:59:40Z</time>
      </trkpt>
      <trkpt lat="42.0533350" lon="-8.6375800">
        <ele>12.9</ele>
        <time>2019-08-17T05:59:41Z</time>
      </trkpt>
      <trkpt lat="42.0534950" lon="-8.6373080">
        <ele>12.4</ele>
        <time>2019-08-17T05:59:46Z</time>
      </trkpt>
      <trkpt lat="42.0535280" lon="-8.6372810">
        <ele>12.4</ele>
        <time>2019-08-17T05:59:47Z</time>
      </trkpt>
      <trkpt lat="42.0535630" lon="-8.6372510">
        <ele>12.3</ele>
        <time>2019-08-17T05:59:48Z</time>
      </trkpt>
      <trkpt lat="42.0535980" lon="-8.6372140">
        <ele>12.3</ele>
        <time>2019-08-17T05:59:49Z</time>
      </trkpt>
      <trkpt lat="42.0536210" lon="-8.6371680">
        <ele>12.3</ele>
        <time>2019-08-17T05:59:50Z</time>
      </trkpt>
      <trkpt lat="42.0536350" lon="-8.6371140">
        <ele>12.2</ele>
        <time>2019-08-17T05:59:51Z</time>
      </trkpt>
      <trkpt lat="42.0537480" lon="-8.6368220">
        <ele>12.4</ele>
        <time>2019-08-17T05:59:56Z</time>
      </trkpt>
      <trkpt lat="42.0539890" lon="-8.6366190">
        <ele>12.4</ele>
        <time>2019-08-17T06:00:01Z</time>
      </trkpt>
      <trkpt lat="42.0540920" lon="-8.6365570">
        <ele>12.4</ele>
        <time>2019-08-17T06:00:03Z</time>
      </trkpt>
      <trkpt lat="42.0541750" lon="-8.6364800">
        <ele>12.4</ele>
        <time>2019-08-17T06:00:05Z</time>
      </trkpt>
      <trkpt lat="42.0542950" lon="-8.6363680">
        <ele>12.4</ele>
        <time>2019-08-17T06:00:08Z</time>
      </trkpt>
      <trkpt lat="42.0544380" lon="-8.6362100">
        <ele>12.6</ele>
        <time>2019-08-17T06:00:12Z</time>
      </trkpt>
      <trkpt lat="42.0544810" lon="-8.6361800">
        <ele>12.6</ele>
        <time>2019-08-17T06:00:13Z</time>
      </trkpt>
      <trkpt lat="42.0546130" lon="-8.6360990">
        <ele>12.9</ele>
        <time>2019-08-17T06:00:16Z</time>
      </trkpt>
      <trkpt lat="42.0546580" lon="-8.6360900">
        <ele>13.0</ele>
        <time>2019-08-17T06:00:17Z</time>
      </trkpt>
      <trkpt lat="42.0547980" lon="-8.6360970">
        <ele>13.5</ele>
        <time>2019-08-17T06:00:20Z</time>
      </trkpt>
      <trkpt lat="42.0549060" lon="-8.6361010">
        <ele>14.0</ele>
        <time>2019-08-17T06:00:23Z</time>
      </trkpt>
      <trkpt lat="42.0550800" lon="-8.6361900">
        <ele>14.8</ele>
        <time>2019-08-17T06:00:28Z</time>
      </trkpt>
      <trkpt lat="42.0551340" lon="-8.6362480">
        <ele>15.1</ele>
        <time>2019-08-17T06:00:30Z</time>
      </trkpt>
      <trkpt lat="42.0551600" lon="-8.6362810">
        <ele>15.3</ele>
        <time>2019-08-17T06:00:31Z</time>
      </trkpt>
      <trkpt lat="42.0551790" lon="-8.6363060">
        <ele>15.4</ele>
        <time>2019-08-17T06:00:32Z</time>
      </trkpt>
      <trkpt lat="42.0552030" lon="-8.6363210">
        <ele>15.6</ele>
        <time>2019-08-17T06:00:33Z</time>
      </trkpt>
      <trkpt lat="42.0552450" lon="-8.6363280">
        <ele>15.8</ele>
        <time>2019-08-17T06:00:34Z</time>
      </trkpt>
      <trkpt lat="42.0553170" lon="-8.6362090">
        <ele>15.8</ele>
        <time>2019-08-17T06:00:37Z</time>
      </trkpt>
      <trkpt lat="42.0553340" lon="-8.6361540">
        <ele>15.8</ele>
        <time>2019-08-17T06:00:38Z</time>
      </trkpt>
      <trkpt lat="42.0554890" lon="-8.6358910">
        <ele>15.7</ele>
        <time>2019-08-17T06:00:43Z</time>
      </trkpt>
      <trkpt lat="42.0556750" lon="-8.6356260">
        <ele>14.5</ele>
        <time>2019-08-17T06:00:48Z</time>
      </trkpt>
      <trkpt lat="42.0557390" lon="-8.6355310">
        <ele>14.1</ele>
        <time>2019-08-17T06:00:50Z</time>
      </trkpt>
      <trkpt lat="42.0559410" lon="-8.6353260">
        <ele>13.4</ele>
        <time>2019-08-17T06:00:55Z</time>
      </trkpt>
      <trkpt lat="42.0560150" lon="-8.6352730">
        <ele>13.3</ele>
        <time>2019-08-17T06:00:57Z</time>
      </trkpt>
      <trkpt lat="42.0560770" lon="-8.6352420">
        <ele>13.5</ele>
        <time>2019-08-17T06:00:59Z</time>
      </trkpt>
      <trkpt lat="42.0561750" lon="-8.6351790">
        <ele>13.6</ele>
        <time>2019-08-17T06:01:03Z</time>
      </trkpt>
      <trkpt lat="42.0563390" lon="-8.6351020">
        <ele>13.8</ele>
        <time>2019-08-17T06:01:08Z</time>
      </trkpt>
      <trkpt lat="42.0563950" lon="-8.6350780">
        <ele>13.9</ele>
        <time>2019-08-17T06:01:09Z</time>
      </trkpt>
      <trkpt lat="42.0565010" lon="-8.6350310">
        <ele>14.0</ele>
        <time>2019-08-17T06:01:11Z</time>
      </trkpt>
      <trkpt lat="42.0565430" lon="-8.6350100">
        <ele>14.1</ele>
        <time>2019-08-17T06:01:12Z</time>
      </trkpt>
      <trkpt lat="42.0565790" lon="-8.6349940">
        <ele>14.1</ele>
        <time>2019-08-17T06:01:13Z</time>
      </trkpt>
      <trkpt lat="42.0566020" lon="-8.6349760">
        <ele>14.1</ele>
        <time>2019-08-17T06:01:14Z</time>
      </trkpt>
      <trkpt lat="42.0566340" lon="-8.6349540">
        <ele>14.2</ele>
        <time>2019-08-17T06:01:16Z</time>
      </trkpt>
      <trkpt lat="42.0566890" lon="-8.6349220">
        <ele>14.2</ele>
        <time>2019-08-17T06:01:19Z</time>
      </trkpt>
      <trkpt lat="42.0568520" lon="-8.6348570">
        <ele>14.2</ele>
        <time>2019-08-17T06:01:24Z</time>
      </trkpt>
      <trkpt lat="42.0571340" lon="-8.6348260">
        <ele>14.3</ele>
        <time>2019-08-17T06:01:31Z</time>
      </trkpt>
      <trkpt lat="42.0573090" lon="-8.6348570">
        <ele>14.2</ele>
        <time>2019-08-17T06:01:37Z</time>
      </trkpt>
      <trkpt lat="42.0575040" lon="-8.6348780">
        <ele>14.1</ele>
        <time>2019-08-17T06:01:43Z</time>
      </trkpt>
      <trkpt lat="42.0576180" lon="-8.6349720">
        <ele>14.1</ele>
        <time>2019-08-17T06:01:49Z</time>
      </trkpt>
      <trkpt lat="42.0578410" lon="-8.6350830">
        <ele>14.2</ele>
        <time>2019-08-17T06:01:55Z</time>
      </trkpt>
      <trkpt lat="42.0579350" lon="-8.6352670">
        <ele>14.3</ele>
        <time>2019-08-17T06:02:01Z</time>
      </trkpt>
      <trkpt lat="42.0579720" lon="-8.6353520">
        <ele>14.3</ele>
        <time>2019-08-17T06:02:03Z</time>
      </trkpt>
      <trkpt lat="42.0580630" lon="-8.6355850">
        <ele>14.3</ele>
        <time>2019-08-17T06:02:09Z</time>
      </trkpt>
      <trkpt lat="42.0582260" lon="-8.6358020">
        <ele>14.5</ele>
        <time>2019-08-17T06:02:14Z</time>
      </trkpt>
      <trkpt lat="42.0583440" lon="-8.6360780">
        <ele>14.6</ele>
        <time>2019-08-17T06:02:20Z</time>
      </trkpt>
      <trkpt lat="42.0584680" lon="-8.6362720">
        <ele>14.7</ele>
        <time>2019-08-17T06:02:24Z</time>
      </trkpt>
      <trkpt lat="42.0587140" lon="-8.6364770">
        <ele>14.9</ele>
        <time>2019-08-17T06:02:29Z</time>
      </trkpt>
      <trkpt lat="42.0589720" lon="-8.6367010">
        <ele>15.2</ele>
        <time>2019-08-17T06:02:36Z</time>
      </trkpt>
      <trkpt lat="42.0590170" lon="-8.6367920">
        <ele>15.3</ele>
        <time>2019-08-17T06:02:38Z</time>
      </trkpt>
      <trkpt lat="42.0590330" lon="-8.6368350">
        <ele>15.4</ele>
        <time>2019-08-17T06:02:39Z</time>
      </trkpt>
      <trkpt lat="42.0590410" lon="-8.6368790">
        <ele>15.4</ele>
        <time>2019-08-17T06:02:40Z</time>
      </trkpt>
      <trkpt lat="42.0590480" lon="-8.6369230">
        <ele>15.5</ele>
        <time>2019-08-17T06:02:41Z</time>
      </trkpt>
      <trkpt lat="42.0590490" lon="-8.6369660">
        <ele>15.5</ele>
        <time>2019-08-17T06:02:42Z</time>
      </trkpt>
      <trkpt lat="42.0590480" lon="-8.6370120">
        <ele>15.5</ele>
        <time>2019-08-17T06:02:43Z</time>
      </trkpt>
      <trkpt lat="42.0590460" lon="-8.6370560">
        <ele>15.6</ele>
        <time>2019-08-17T06:02:44Z</time>
      </trkpt>
      <trkpt lat="42.0590450" lon="-8.6370990">
        <ele>15.6</ele>
        <time>2019-08-17T06:02:45Z</time>
      </trkpt>
      <trkpt lat="42.0590410" lon="-8.6371440">
        <ele>15.6</ele>
        <time>2019-08-17T06:02:46Z</time>
      </trkpt>
      <trkpt lat="42.0590290" lon="-8.6372040">
        <ele>15.6</ele>
        <time>2019-08-17T06:02:47Z</time>
      </trkpt>
      <trkpt lat="42.0590300" lon="-8.6372560">
        <ele>15.6</ele>
        <time>2019-08-17T06:02:48Z</time>
      </trkpt>
      <trkpt lat="42.0590390" lon="-8.6374110">
        <ele>15.6</ele>
        <time>2019-08-17T06:02:51Z</time>
      </trkpt>
      <trkpt lat="42.0590590" lon="-8.6375020">
        <ele>15.6</ele>
        <time>2019-08-17T06:02:53Z</time>
      </trkpt>
      <trkpt lat="42.0590860" lon="-8.6375870">
        <ele>15.6</ele>
        <time>2019-08-17T06:02:55Z</time>
      </trkpt>
      <trkpt lat="42.0590990" lon="-8.6376310">
        <ele>15.6</ele>
        <time>2019-08-17T06:02:56Z</time>
      </trkpt>
      <trkpt lat="42.0591070" lon="-8.6376860">
        <ele>15.6</ele>
        <time>2019-08-17T06:02:57Z</time>
      </trkpt>
      <trkpt lat="42.0591180" lon="-8.6377410">
        <ele>15.6</ele>
        <time>2019-08-17T06:02:58Z</time>
      </trkpt>
      <trkpt lat="42.0591230" lon="-8.6377990">
        <ele>15.6</ele>
        <time>2019-08-17T06:02:59Z</time>
      </trkpt>
      <trkpt lat="42.0591270" lon="-8.6379050">
        <ele>15.6</ele>
        <time>2019-08-17T06:03:01Z</time>
      </trkpt>
      <trkpt lat="42.0592300" lon="-8.6381310">
        <ele>15.5</ele>
        <time>2019-08-17T06:03:08Z</time>
      </trkpt>
      <trkpt lat="42.0594740" lon="-8.6380590">
        <ele>14.7</ele>
        <time>2019-08-17T06:03:13Z</time>
      </trkpt>
      <trkpt lat="42.0598160" lon="-8.6379120">
        <ele>14.0</ele>
        <time>2019-08-17T06:03:19Z</time>
      </trkpt>
      <trkpt lat="42.0598730" lon="-8.6378750">
        <ele>14.0</ele>
        <time>2019-08-17T06:03:20Z</time>
      </trkpt>
      <trkpt lat="42.0599360" lon="-8.6378350">
        <ele>14.0</ele>
        <time>2019-08-17T06:03:21Z</time>
      </trkpt>
      <trkpt lat="42.0600010" lon="-8.6378020">
        <ele>14.0</ele>
        <time>2019-08-17T06:03:22Z</time>
      </trkpt>
      <trkpt lat="42.0600700" lon="-8.6377680">
        <ele>13.9</ele>
        <time>2019-08-17T06:03:23Z</time>
      </trkpt>
      <trkpt lat="42.0601400" lon="-8.6377370">
        <ele>13.9</ele>
        <time>2019-08-17T06:03:24Z</time>
      </trkpt>
      <trkpt lat="42.0602030" lon="-8.6376990">
        <ele>13.8</ele>
        <time>2019-08-17T06:03:25Z</time>
      </trkpt>
      <trkpt lat="42.0602720" lon="-8.6376660">
        <ele>13.7</ele>
        <time>2019-08-17T06:03:26Z</time>
      </trkpt>
      <trkpt lat="42.0603390" lon="-8.6376320">
        <ele>13.7</ele>
        <time>2019-08-17T06:03:27Z</time>
      </trkpt>
      <trkpt lat="42.0604070" lon="-8.6376020">
        <ele>13.6</ele>
        <time>2019-08-17T06:03:28Z</time>
      </trkpt>
      <trkpt lat="42.0606320" lon="-8.6375350">
        <ele>13.4</ele>
        <time>2019-08-17T06:03:31Z</time>
      </trkpt>
      <trkpt lat="42.0607110" lon="-8.6375120">
        <ele>13.2</ele>
        <time>2019-08-17T06:03:32Z</time>
      </trkpt>
      <trkpt lat="42.0607870" lon="-8.6374830">
        <ele>13.0</ele>
        <time>2019-08-17T06:03:33Z</time>
      </trkpt>
      <trkpt lat="42.0608600" lon="-8.6374530">
        <ele>12.7</ele>
        <time>2019-08-17T06:03:34Z</time>
      </trkpt>
      <trkpt lat="42.0609340" lon="-8.6374220">
        <ele>12.4</ele>
        <time>2019-08-17T06:03:35Z</time>
      </trkpt>
      <trkpt lat="42.0614010" lon="-8.6371950">
        <ele>10.9</ele>
        <time>2019-08-17T06:03:42Z</time>
      </trkpt>
      <trkpt lat="42.0617170" lon="-8.6370360">
        <ele>11.6</ele>
        <time>2019-08-17T06:03:48Z</time>
      </trkpt>
      <trkpt lat="42.0617680" lon="-8.6370320">
        <ele>11.6</ele>
        <time>2019-08-17T06:03:49Z</time>
      </trkpt>
      <trkpt lat="42.0619050" lon="-8.6371020">
        <ele>11.6</ele>
        <time>2019-08-17T06:03:52Z</time>
      </trkpt>
      <trkpt lat="42.0620810" lon="-8.6373080">
        <ele>11.6</ele>
        <time>2019-08-17T06:03:56Z</time>
      </trkpt>
      <trkpt lat="42.0621400" lon="-8.6376350">
        <ele>11.7</ele>
        <time>2019-08-17T06:04:01Z</time>
      </trkpt>
      <trkpt lat="42.0621410" lon="-8.6380230">
        <ele>11.7</ele>
        <time>2019-08-17T06:04:07Z</time>
      </trkpt>
      <trkpt lat="42.0621630" lon="-8.6384170">
        <ele>11.9</ele>
        <time>2019-08-17T06:04:13Z</time>
      </trkpt>
      <trkpt lat="42.0621760" lon="-8.6384810">
        <ele>12.0</ele>
        <time>2019-08-17T06:04:14Z</time>
      </trkpt>
      <trkpt lat="42.0622010" lon="-8.6385430">
        <ele>12.1</ele>
        <time>2019-08-17T06:04:15Z</time>
      </trkpt>
      <trkpt lat="42.0622760" lon="-8.6387050">
        <ele>12.4</ele>
        <time>2019-08-17T06:04:18Z</time>
      </trkpt>
      <trkpt lat="42.0623890" lon="-8.6388640">
        <ele>13.1</ele>
        <time>2019-08-17T06:04:22Z</time>
      </trkpt>
      <trkpt lat="42.0624440" lon="-8.6389570">
        <ele>13.4</ele>
        <time>2019-08-17T06:04:24Z</time>
      </trkpt>
      <trkpt lat="42.0624860" lon="-8.6389760">
        <ele>13.6</ele>
        <time>2019-08-17T06:04:25Z</time>
      </trkpt>
      <trkpt lat="42.0625260" lon="-8.6389870">
        <ele>13.7</ele>
        <time>2019-08-17T06:04:26Z</time>
      </trkpt>
      <trkpt lat="42.0625700" lon="-8.6389950">
        <ele>13.7</ele>
        <time>2019-08-17T06:04:27Z</time>
      </trkpt>
      <trkpt lat="42.0626200" lon="-8.6390030">
        <ele>13.8</ele>
        <time>2019-08-17T06:04:28Z</time>
      </trkpt>
      <trkpt lat="42.0629220" lon="-8.6390740">
        <ele>14.1</ele>
        <time>2019-08-17T06:04:35Z</time>
      </trkpt>
      <trkpt lat="42.0629670" lon="-8.6390710">
        <ele>14.2</ele>
        <time>2019-08-17T06:04:36Z</time>
      </trkpt>
      <trkpt lat="42.0631100" lon="-8.6390840">
        <ele>14.6</ele>
        <time>2019-08-17T06:04:39Z</time>
      </trkpt>
      <trkpt lat="42.0631760" lon="-8.6390930">
        <ele>14.8</ele>
        <time>2019-08-17T06:04:40Z</time>
      </trkpt>
      <trkpt lat="42.0632340" lon="-8.6390980">
        <ele>15.0</ele>
        <time>2019-08-17T06:04:41Z</time>
      </trkpt>
      <trkpt lat="42.0632910" lon="-8.6391020">
        <ele>15.1</ele>
        <time>2019-08-17T06:04:42Z</time>
      </trkpt>
      <trkpt lat="42.0633450" lon="-8.6391090">
        <ele>15.3</ele>
        <time>2019-08-17T06:04:43Z</time>
      </trkpt>
      <trkpt lat="42.0634630" lon="-8.6391290">
        <ele>15.6</ele>
        <time>2019-08-17T06:04:45Z</time>
      </trkpt>
      <trkpt lat="42.0635210" lon="-8.6391330">
        <ele>15.8</ele>
        <time>2019-08-17T06:04:46Z</time>
      </trkpt>
      <trkpt lat="42.0635800" lon="-8.6391430">
        <ele>15.9</ele>
        <time>2019-08-17T06:04:47Z</time>
      </trkpt>
      <trkpt lat="42.0636260" lon="-8.6391480">
        <ele>16.0</ele>
        <time>2019-08-17T06:04:48Z</time>
      </trkpt>
      <trkpt lat="42.0636760" lon="-8.6391550">
        <ele>16.1</ele>
        <time>2019-08-17T06:04:49Z</time>
      </trkpt>
      <trkpt lat="42.0637150" lon="-8.6391610">
        <ele>16.2</ele>
        <time>2019-08-17T06:04:50Z</time>
      </trkpt>
      <trkpt lat="42.0637450" lon="-8.6391630">
        <ele>16.3</ele>
        <time>2019-08-17T06:04:51Z</time>
      </trkpt>
      <trkpt lat="42.0637660" lon="-8.6391650">
        <ele>16.3</ele>
        <time>2019-08-17T06:04:52Z</time>
      </trkpt>
      <trkpt lat="42.0637850" lon="-8.6391700">
        <ele>16.4</ele>
        <time>2019-08-17T06:04:53Z</time>
      </trkpt>
      <trkpt lat="42.0638010" lon="-8.6391640">
        <ele>16.4</ele>
        <time>2019-08-17T06:04:54Z</time>
      </trkpt>
      <trkpt lat="42.0638610" lon="-8.6391790">
        <ele>16.6</ele>
        <time>2019-08-17T06:04:58Z</time>
      </trkpt>
      <trkpt lat="42.0638850" lon="-8.6391770">
        <ele>16.6</ele>
        <time>2019-08-17T06:04:59Z</time>
      </trkpt>
      <trkpt lat="42.0639700" lon="-8.6390930">
        <ele>16.9</ele>
        <time>2019-08-17T06:05:03Z</time>
      </trkpt>
      <trkpt lat="42.0640940" lon="-8.6388390">
        <ele>17.5</ele>
        <time>2019-08-17T06:05:10Z</time>
      </trkpt>
      <trkpt lat="42.0641140" lon="-8.6388010">
        <ele>17.5</ele>
        <time>2019-08-17T06:05:11Z</time>
      </trkpt>
      <trkpt lat="42.0641340" lon="-8.6387640">
        <ele>17.6</ele>
        <time>2019-08-17T06:05:12Z</time>
      </trkpt>
      <trkpt lat="42.0641530" lon="-8.6387310">
        <ele>17.7</ele>
        <time>2019-08-17T06:05:13Z</time>
      </trkpt>
      <trkpt lat="42.0641770" lon="-8.6386990">
        <ele>17.7</ele>
        <time>2019-08-17T06:05:14Z</time>
      </trkpt>
      <trkpt lat="42.0642360" lon="-8.6385900">
        <ele>18.0</ele>
        <time>2019-08-17T06:05:17Z</time>
      </trkpt>
      <trkpt lat="42.0644120" lon="-8.6382730">
        <ele>18.4</ele>
        <time>2019-08-17T06:05:25Z</time>
      </trkpt>
      <trkpt lat="42.0647190" lon="-8.6378610">
        <ele>18.6</ele>
        <time>2019-08-17T06:05:36Z</time>
      </trkpt>
      <trkpt lat="42.0648050" lon="-8.6377810">
        <ele>18.6</ele>
        <time>2019-08-17T06:05:39Z</time>
      </trkpt>
      <trkpt lat="42.0648370" lon="-8.6377590">
        <ele>18.6</ele>
        <time>2019-08-17T06:05:40Z</time>
      </trkpt>
      <trkpt lat="42.0648660" lon="-8.6377340">
        <ele>18.6</ele>
        <time>2019-08-17T06:05:41Z</time>
      </trkpt>
      <trkpt lat="42.0649010" lon="-8.6377240">
        <ele>18.7</ele>
        <time>2019-08-17T06:05:42Z</time>
      </trkpt>
      <trkpt lat="42.0649470" lon="-8.6377280">
        <ele>18.7</ele>
        <time>2019-08-17T06:05:43Z</time>
      </trkpt>
      <trkpt lat="42.0650790" lon="-8.6377880">
        <ele>18.8</ele>
        <time>2019-08-17T06:05:46Z</time>
      </trkpt>
      <trkpt lat="42.0651200" lon="-8.6378110">
        <ele>18.8</ele>
        <time>2019-08-17T06:05:47Z</time>
      </trkpt>
      <trkpt lat="42.0654180" lon="-8.6379900">
        <ele>19.0</ele>
        <time>2019-08-17T06:05:55Z</time>
      </trkpt>
      <trkpt lat="42.0657400" lon="-8.6382220">
        <ele>19.5</ele>
        <time>2019-08-17T06:06:04Z</time>
      </trkpt>
      <trkpt lat="42.0660730" lon="-8.6383930">
        <ele>20.6</ele>
        <time>2019-08-17T06:06:13Z</time>
      </trkpt>
      <trkpt lat="42.0663040" lon="-8.6384500">
        <ele>21.4</ele>
        <time>2019-08-17T06:06:19Z</time>
      </trkpt>
      <trkpt lat="42.0663440" lon="-8.6384610">
        <ele>21.5</ele>
        <time>2019-08-17T06:06:20Z</time>
      </trkpt>
      <trkpt lat="42.0663830" lon="-8.6384660">
        <ele>21.6</ele>
        <time>2019-08-17T06:06:21Z</time>
      </trkpt>
      <trkpt lat="42.0664190" lon="-8.6384700">
        <ele>21.6</ele>
        <time>2019-08-17T06:06:22Z</time>
      </trkpt>
      <trkpt lat="42.0666150" lon="-8.6384920">
        <ele>22.2</ele>
        <time>2019-08-17T06:06:27Z</time>
      </trkpt>
      <trkpt lat="42.0666610" lon="-8.6384940">
        <ele>22.4</ele>
        <time>2019-08-17T06:06:28Z</time>
      </trkpt>
      <trkpt lat="42.0666980" lon="-8.6384940">
        <ele>22.5</ele>
        <time>2019-08-17T06:06:29Z</time>
      </trkpt>
      <trkpt lat="42.0667730" lon="-8.6384980">
        <ele>22.8</ele>
        <time>2019-08-17T06:06:31Z</time>
      </trkpt>
      <trkpt lat="42.0669150" lon="-8.6385000">
        <ele>23.0</ele>
        <time>2019-08-17T06:06:35Z</time>
      </trkpt>
      <trkpt lat="42.0669480" lon="-8.6384950">
        <ele>23.0</ele>
        <time>2019-08-17T06:06:36Z</time>
      </trkpt>
      <trkpt lat="42.0669840" lon="-8.6384870">
        <ele>23.0</ele>
        <time>2019-08-17T06:06:37Z</time>
      </trkpt>
      <trkpt lat="42.0670190" lon="-8.6384850">
        <ele>23.0</ele>
        <time>2019-08-17T06:06:38Z</time>
      </trkpt>
      <trkpt lat="42.0670510" lon="-8.6384810">
        <ele>23.0</ele>
        <time>2019-08-17T06:06:39Z</time>
      </trkpt>
      <trkpt lat="42.0671780" lon="-8.6384750">
        <ele>23.0</ele>
        <time>2019-08-17T06:06:43Z</time>
      </trkpt>
      <trkpt lat="42.0673770" lon="-8.6384550">
        <ele>22.8</ele>
        <time>2019-08-17T06:06:49Z</time>
      </trkpt>
      <trkpt lat="42.0674080" lon="-8.6384490">
        <ele>22.7</ele>
        <time>2019-08-17T06:06:50Z</time>
      </trkpt>
      <trkpt lat="42.0674410" lon="-8.6384450">
        <ele>22.6</ele>
        <time>2019-08-17T06:06:51Z</time>
      </trkpt>
      <trkpt lat="42.0674760" lon="-8.6384420">
        <ele>22.4</ele>
        <time>2019-08-17T06:06:52Z</time>
      </trkpt>
      <trkpt lat="42.0675100" lon="-8.6384410">
        <ele>22.3</ele>
        <time>2019-08-17T06:06:53Z</time>
      </trkpt>
      <trkpt lat="42.0677770" lon="-8.6384350">
        <ele>20.9</ele>
        <time>2019-08-17T06:07:01Z</time>
      </trkpt>
      <trkpt lat="42.0680850" lon="-8.6385130">
        <ele>20.3</ele>
        <time>2019-08-17T06:07:09Z</time>
      </trkpt>
      <trkpt lat="42.0681920" lon="-8.6385560">
        <ele>20.1</ele>
        <time>2019-08-17T06:07:11Z</time>
      </trkpt>
      <trkpt lat="42.0682500" lon="-8.6385820">
        <ele>20.1</ele>
        <time>2019-08-17T06:07:12Z</time>
      </trkpt>
      <trkpt lat="42.0683150" lon="-8.6386070">
        <ele>20.0</ele>
        <time>2019-08-17T06:07:13Z</time>
      </trkpt>
      <trkpt lat="42.0683860" lon="-8.6386330">
        <ele>19.9</ele>
        <time>2019-08-17T06:07:14Z</time>
      </trkpt>
      <trkpt lat="42.0684600" lon="-8.6386630">
        <ele>19.8</ele>
        <time>2019-08-17T06:07:15Z</time>
      </trkpt>
      <trkpt lat="42.0685370" lon="-8.6386960">
        <ele>19.6</ele>
        <time>2019-08-17T06:07:16Z</time>
      </trkpt>
      <trkpt lat="42.0686160" lon="-8.6387320">
        <ele>19.5</ele>
        <time>2019-08-17T06:07:17Z</time>
      </trkpt>
      <trkpt lat="42.0687020" lon="-8.6387670">
        <ele>19.4</ele>
        <time>2019-08-17T06:07:18Z</time>
      </trkpt>
      <trkpt lat="42.0687930" lon="-8.6388010">
        <ele>19.3</ele>
        <time>2019-08-17T06:07:19Z</time>
      </trkpt>
      <trkpt lat="42.0688880" lon="-8.6388390">
        <ele>19.2</ele>
        <time>2019-08-17T06:07:20Z</time>
      </trkpt>
      <trkpt lat="42.0689890" lon="-8.6388790">
        <ele>19.1</ele>
        <time>2019-08-17T06:07:21Z</time>
      </trkpt>
      <trkpt lat="42.0690890" lon="-8.6389260">
        <ele>19.0</ele>
        <time>2019-08-17T06:07:22Z</time>
      </trkpt>
      <trkpt lat="42.0692000" lon="-8.6389630">
        <ele>18.8</ele>
        <time>2019-08-17T06:07:23Z</time>
      </trkpt>
      <trkpt lat="42.0693160" lon="-8.6389950">
        <ele>18.7</ele>
        <time>2019-08-17T06:07:24Z</time>
      </trkpt>
      <trkpt lat="42.0694360" lon="-8.6390230">
        <ele>18.6</ele>
        <time>2019-08-17T06:07:25Z</time>
      </trkpt>
      <trkpt lat="42.0695540" lon="-8.6390490">
        <ele>18.5</ele>
        <time>2019-08-17T06:07:26Z</time>
      </trkpt>
      <trkpt lat="42.0696800" lon="-8.6390670">
        <ele>18.5</ele>
        <time>2019-08-17T06:07:27Z</time>
      </trkpt>
      <trkpt lat="42.0698070" lon="-8.6390830">
        <ele>18.4</ele>
        <time>2019-08-17T06:07:28Z</time>
      </trkpt>
      <trkpt lat="42.0699340" lon="-8.6390910">
        <ele>18.3</ele>
        <time>2019-08-17T06:07:29Z</time>
      </trkpt>
      <trkpt lat="42.0700560" lon="-8.6390770">
        <ele>18.3</ele>
        <time>2019-08-17T06:07:30Z</time>
      </trkpt>
      <trkpt lat="42.0701770" lon="-8.6390480">
        <ele>18.3</ele>
        <time>2019-08-17T06:07:31Z</time>
      </trkpt>
      <trkpt lat="42.0702940" lon="-8.6390200">
        <ele>18.3</ele>
        <time>2019-08-17T06:07:32Z</time>
      </trkpt>
      <trkpt lat="42.0704040" lon="-8.6389900">
        <ele>18.3</ele>
        <time>2019-08-17T06:07:33Z</time>
      </trkpt>
      <trkpt lat="42.0707970" lon="-8.6388450">
        <ele>19.4</ele>
        <time>2019-08-17T06:07:37Z</time>
      </trkpt>
      <trkpt lat="42.0711330" lon="-8.6387280">
        <ele>21.8</ele>
        <time>2019-08-17T06:07:42Z</time>
      </trkpt>
      <trkpt lat="42.0711790" lon="-8.6387160">
        <ele>22.2</ele>
        <time>2019-08-17T06:07:43Z</time>
      </trkpt>
      <trkpt lat="42.0712170" lon="-8.6387100">
        <ele>22.6</ele>
        <time>2019-08-17T06:07:44Z</time>
      </trkpt>
      <trkpt lat="42.0712630" lon="-8.6387020">
        <ele>23.0</ele>
        <time>2019-08-17T06:07:45Z</time>
      </trkpt>
      <trkpt lat="42.0713030" lon="-8.6386990">
        <ele>23.4</ele>
        <time>2019-08-17T06:07:46Z</time>
      </trkpt>
      <trkpt lat="42.0713440" lon="-8.6386960">
        <ele>23.7</ele>
        <time>2019-08-17T06:07:47Z</time>
      </trkpt>
      <trkpt lat="42.0713860" lon="-8.6387000">
        <ele>24.0</ele>
        <time>2019-08-17T06:07:48Z</time>
      </trkpt>
      <trkpt lat="42.0715460" lon="-8.6387010">
        <ele>24.9</ele>
        <time>2019-08-17T06:07:53Z</time>
      </trkpt>
      <trkpt lat="42.0715690" lon="-8.6386970">
        <ele>25.0</ele>
        <time>2019-08-17T06:07:54Z</time>
      </trkpt>
      <trkpt lat="42.0715940" lon="-8.6386980">
        <ele>25.1</ele>
        <time>2019-08-17T06:07:55Z</time>
      </trkpt>
      <trkpt lat="42.0716190" lon="-8.6387010">
        <ele>25.2</ele>
        <time>2019-08-17T06:07:56Z</time>
      </trkpt>
      <trkpt lat="42.0716450" lon="-8.6387040">
        <ele>25.4</ele>
        <time>2019-08-17T06:07:57Z</time>
      </trkpt>
      <trkpt lat="42.0717980" lon="-8.6387350">
        <ele>26.1</ele>
        <time>2019-08-17T06:08:02Z</time>
      </trkpt>
      <trkpt lat="42.0719220" lon="-8.6387560">
        <ele>26.7</ele>
        <time>2019-08-17T06:08:06Z</time>
      </trkpt>
      <trkpt lat="42.0719590" lon="-8.6387580">
        <ele>26.9</ele>
        <time>2019-08-17T06:08:07Z</time>
      </trkpt>
      <trkpt lat="42.0719950" lon="-8.6387640">
        <ele>27.0</ele>
        <time>2019-08-17T06:08:08Z</time>
      </trkpt>
      <trkpt lat="42.0720380" lon="-8.6387730">
        <ele>27.1</ele>
        <time>2019-08-17T06:08:09Z</time>
      </trkpt>
      <trkpt lat="42.0720700" lon="-8.6387820">
        <ele>27.1</ele>
        <time>2019-08-17T06:08:10Z</time>
      </trkpt>
      <trkpt lat="42.0722560" lon="-8.6388060">
        <ele>27.3</ele>
        <time>2019-08-17T06:08:15Z</time>
      </trkpt>
      <trkpt lat="42.0724970" lon="-8.6388680">
        <ele>27.3</ele>
        <time>2019-08-17T06:08:23Z</time>
      </trkpt>
      <trkpt lat="42.0726820" lon="-8.6389610">
        <ele>27.3</ele>
        <time>2019-08-17T06:08:30Z</time>
      </trkpt>
      <trkpt lat="42.0729240" lon="-8.6390230">
        <ele>27.9</ele>
        <time>2019-08-17T06:08:35Z</time>
      </trkpt>
      <trkpt lat="42.0732520" lon="-8.6390720">
        <ele>28.2</ele>
        <time>2019-08-17T06:08:42Z</time>
      </trkpt>
      <trkpt lat="42.0736960" lon="-8.6391430">
        <ele>28.2</ele>
        <time>2019-08-17T06:08:51Z</time>
      </trkpt>
      <trkpt lat="42.0740000" lon="-8.6392310">
        <ele>28.2</ele>
        <time>2019-08-17T06:08:57Z</time>
      </trkpt>
      <trkpt lat="42.0744740" lon="-8.6393730">
        <ele>28.1</ele>
        <time>2019-08-17T06:09:05Z</time>
      </trkpt>
      <trkpt lat="42.0749380" lon="-8.6394940">
        <ele>25.6</ele>
        <time>2019-08-17T06:09:12Z</time>
      </trkpt>
      <trkpt lat="42.0750000" lon="-8.6395150">
        <ele>25.2</ele>
        <time>2019-08-17T06:09:13Z</time>
      </trkpt>
      <trkpt lat="42.0750620" lon="-8.6395330">
        <ele>24.9</ele>
        <time>2019-08-17T06:09:14Z</time>
      </trkpt>
      <trkpt lat="42.0751190" lon="-8.6395460">
        <ele>24.7</ele>
        <time>2019-08-17T06:09:15Z</time>
      </trkpt>
      <trkpt lat="42.0751880" lon="-8.6395630">
        <ele>24.5</ele>
        <time>2019-08-17T06:09:16Z</time>
      </trkpt>
      <trkpt lat="42.0754290" lon="-8.6396250">
        <ele>24.2</ele>
        <time>2019-08-17T06:09:20Z</time>
      </trkpt>
      <trkpt lat="42.0757690" lon="-8.6396600">
        <ele>23.7</ele>
        <time>2019-08-17T06:09:25Z</time>
      </trkpt>
      <trkpt lat="42.0758360" lon="-8.6396540">
        <ele>23.5</ele>
        <time>2019-08-17T06:09:26Z</time>
      </trkpt>
      <trkpt lat="42.0760810" lon="-8.6395770">
        <ele>23.2</ele>
        <time>2019-08-17T06:09:30Z</time>
      </trkpt>
      <trkpt lat="42.0761370" lon="-8.6395380">
        <ele>23.2</ele>
        <time>2019-08-17T06:09:31Z</time>
      </trkpt>
      <trkpt lat="42.0763530" lon="-8.6393190">
        <ele>23.9</ele>
        <time>2019-08-17T06:09:36Z</time>
      </trkpt>
      <trkpt lat="42.0766250" lon="-8.6390380">
        <ele>25.6</ele>
        <time>2019-08-17T06:09:43Z</time>
      </trkpt>
      <trkpt lat="42.0767380" lon="-8.6389290">
        <ele>26.2</ele>
        <time>2019-08-17T06:09:46Z</time>
      </trkpt>
      <trkpt lat="42.0767780" lon="-8.6388950">
        <ele>26.4</ele>
        <time>2019-08-17T06:09:47Z</time>
      </trkpt>
      <trkpt lat="42.0768140" lon="-8.6388580">
        <ele>26.6</ele>
        <time>2019-08-17T06:09:48Z</time>
      </trkpt>
      <trkpt lat="42.0768480" lon="-8.6388220">
        <ele>26.7</ele>
        <time>2019-08-17T06:09:49Z</time>
      </trkpt>
      <trkpt lat="42.0768800" lon="-8.6387850">
        <ele>26.9</ele>
        <time>2019-08-17T06:09:50Z</time>
      </trkpt>
      <trkpt lat="42.0770720" lon="-8.6386350">
        <ele>27.5</ele>
        <time>2019-08-17T06:09:55Z</time>
      </trkpt>
      <trkpt lat="42.0771710" lon="-8.6385480">
        <ele>27.9</ele>
        <time>2019-08-17T06:09:58Z</time>
      </trkpt>
      <trkpt lat="42.0773650" lon="-8.6383940">
        <ele>28.7</ele>
        <time>2019-08-17T06:10:04Z</time>
      </trkpt>
      <trkpt lat="42.0774060" lon="-8.6383780">
        <ele>28.9</ele>
        <time>2019-08-17T06:10:05Z</time>
      </trkpt>
      <trkpt lat="42.0774470" lon="-8.6383670">
        <ele>29.0</ele>
        <time>2019-08-17T06:10:06Z</time>
      </trkpt>
      <trkpt lat="42.0774870" lon="-8.6383550">
        <ele>29.1</ele>
        <time>2019-08-17T06:10:07Z</time>
      </trkpt>
      <trkpt lat="42.0775260" lon="-8.6383480">
        <ele>29.2</ele>
        <time>2019-08-17T06:10:08Z</time>
      </trkpt>
      <trkpt lat="42.0776890" lon="-8.6383490">
        <ele>29.6</ele>
        <time>2019-08-17T06:10:13Z</time>
      </trkpt>
      <trkpt lat="42.0779070" lon="-8.6384010">
        <ele>30.5</ele>
        <time>2019-08-17T06:10:19Z</time>
      </trkpt>
      <trkpt lat="42.0781720" lon="-8.6385150">
        <ele>31.1</ele>
        <time>2019-08-17T06:10:27Z</time>
      </trkpt>
      <trkpt lat="42.0784210" lon="-8.6385770">
        <ele>31.2</ele>
        <time>2019-08-17T06:10:35Z</time>
      </trkpt>
      <trkpt lat="42.0785940" lon="-8.6386230">
        <ele>32.7</ele>
        <time>2019-08-17T06:10:41Z</time>
      </trkpt>
      <trkpt lat="42.0788010" lon="-8.6386950">
        <ele>33.4</ele>
        <time>2019-08-17T06:10:46Z</time>
      </trkpt>
      <trkpt lat="42.0791360" lon="-8.6387850">
        <ele>32.5</ele>
        <time>2019-08-17T06:10:53Z</time>
      </trkpt>
      <trkpt lat="42.0793800" lon="-8.6388720">
        <ele>33.0</ele>
        <time>2019-08-17T06:10:59Z</time>
      </trkpt>
      <trkpt lat="42.0794180" lon="-8.6388840">
        <ele>33.1</ele>
        <time>2019-08-17T06:11:00Z</time>
      </trkpt>
      <trkpt lat="42.0794590" lon="-8.6389010">
        <ele>33.2</ele>
        <time>2019-08-17T06:11:01Z</time>
      </trkpt>
      <trkpt lat="42.0794950" lon="-8.6389170">
        <ele>33.4</ele>
        <time>2019-08-17T06:11:02Z</time>
      </trkpt>
      <trkpt lat="42.0795270" lon="-8.6389300">
        <ele>33.5</ele>
        <time>2019-08-17T06:11:03Z</time>
      </trkpt>
      <trkpt lat="42.0796840" lon="-8.6389740">
        <ele>34.1</ele>
        <time>2019-08-17T06:11:08Z</time>
      </trkpt>
      <trkpt lat="42.0798880" lon="-8.6389620">
        <ele>34.4</ele>
        <time>2019-08-17T06:11:14Z</time>
      </trkpt>
      <trkpt lat="42.0800670" lon="-8.6389350">
        <ele>34.3</ele>
        <time>2019-08-17T06:11:19Z</time>
      </trkpt>
      <trkpt lat="42.0803290" lon="-8.6389380">
        <ele>34.5</ele>
        <time>2019-08-17T06:11:26Z</time>
      </trkpt>
      <trkpt lat="42.0805830" lon="-8.6390510">
        <ele>34.0</ele>
        <time>2019-08-17T06:11:32Z</time>
      </trkpt>
      <trkpt lat="42.0807510" lon="-8.6391870">
        <ele>32.2</ele>
        <time>2019-08-17T06:11:35Z</time>
      </trkpt>
      <trkpt lat="42.0808490" lon="-8.6393240">
        <ele>30.9</ele>
        <time>2019-08-17T06:11:37Z</time>
      </trkpt>
      <trkpt lat="42.0809020" lon="-8.6393960">
        <ele>30.2</ele>
        <time>2019-08-17T06:11:38Z</time>
      </trkpt>
      <trkpt lat="42.0809440" lon="-8.6394590">
        <ele>29.6</ele>
        <time>2019-08-17T06:11:39Z</time>
      </trkpt>
      <trkpt lat="42.0809870" lon="-8.6395210">
        <ele>29.0</ele>
        <time>2019-08-17T06:11:40Z</time>
      </trkpt>
      <trkpt lat="42.0810390" lon="-8.6395980">
        <ele>28.2</ele>
        <time>2019-08-17T06:11:41Z</time>
      </trkpt>
      <trkpt lat="42.0810820" lon="-8.6396690">
        <ele>27.4</ele>
        <time>2019-08-17T06:11:42Z</time>
      </trkpt>
      <trkpt lat="42.0811750" lon="-8.6398230">
        <ele>25.8</ele>
        <time>2019-08-17T06:11:44Z</time>
      </trkpt>
      <trkpt lat="42.0812220" lon="-8.6399020">
        <ele>25.0</ele>
        <time>2019-08-17T06:11:45Z</time>
      </trkpt>
      <trkpt lat="42.0812700" lon="-8.6399780">
        <ele>24.1</ele>
        <time>2019-08-17T06:11:46Z</time>
      </trkpt>
      <trkpt lat="42.0813240" lon="-8.6400690">
        <ele>23.2</ele>
        <time>2019-08-17T06:11:47Z</time>
      </trkpt>
      <trkpt lat="42.0813860" lon="-8.6401520">
        <ele>22.0</ele>
        <time>2019-08-17T06:11:48Z</time>
      </trkpt>
      <trkpt lat="42.0814500" lon="-8.6402240">
        <ele>21.0</ele>
        <time>2019-08-17T06:11:49Z</time>
      </trkpt>
      <trkpt lat="42.0815550" lon="-8.6402650">
        <ele>20.9</ele>
        <time>2019-08-17T06:11:50Z</time>
      </trkpt>
      <trkpt lat="42.0816170" lon="-8.6403160">
        <ele>20.9</ele>
        <time>2019-08-17T06:11:51Z</time>
      </trkpt>
      <trkpt lat="42.0816800" lon="-8.6403790">
        <ele>20.9</ele>
        <time>2019-08-17T06:11:52Z</time>
      </trkpt>
      <trkpt lat="42.0817410" lon="-8.6404180">
        <ele>21.0</ele>
        <time>2019-08-17T06:11:53Z</time>
      </trkpt>
      <trkpt lat="42.0817980" lon="-8.6404560">
        <ele>21.0</ele>
        <time>2019-08-17T06:11:54Z</time>
      </trkpt>
      <trkpt lat="42.0818570" lon="-8.6405010">
        <ele>21.1</ele>
        <time>2019-08-17T06:11:55Z</time>
      </trkpt>
      <trkpt lat="42.0821830" lon="-8.6406800">
        <ele>22.8</ele>
        <time>2019-08-17T06:12:01Z</time>
      </trkpt>
      <trkpt lat="42.0823350" lon="-8.6407650">
        <ele>23.8</ele>
        <time>2019-08-17T06:12:04Z</time>
      </trkpt>
      <trkpt lat="42.0823750" lon="-8.6407860">
        <ele>24.0</ele>
        <time>2019-08-17T06:12:05Z</time>
      </trkpt>
      <trkpt lat="42.0824150" lon="-8.6408070">
        <ele>24.3</ele>
        <time>2019-08-17T06:12:06Z</time>
      </trkpt>
      <trkpt lat="42.0824520" lon="-8.6408270">
        <ele>24.7</ele>
        <time>2019-08-17T06:12:07Z</time>
      </trkpt>
      <trkpt lat="42.0824930" lon="-8.6408460">
        <ele>25.1</ele>
        <time>2019-08-17T06:12:08Z</time>
      </trkpt>
      <trkpt lat="42.0827050" lon="-8.6409480">
        <ele>26.8</ele>
        <time>2019-08-17T06:12:15Z</time>
      </trkpt>
      <trkpt lat="42.0828000" lon="-8.6408520">
        <ele>27.2</ele>
        <time>2019-08-17T06:12:19Z</time>
      </trkpt>
      <trkpt lat="42.0828110" lon="-8.6408280">
        <ele>27.2</ele>
        <time>2019-08-17T06:12:20Z</time>
      </trkpt>
      <trkpt lat="42.0828170" lon="-8.6408200">
        <ele>27.3</ele>
        <time>2019-08-17T06:12:21Z</time>
      </trkpt>
      <trkpt lat="42.0828180" lon="-8.6407970">
        <ele>27.3</ele>
        <time>2019-08-17T06:12:22Z</time>
      </trkpt>
      <trkpt lat="42.0828160" lon="-8.6407660">
        <ele>27.3</ele>
        <time>2019-08-17T06:12:23Z</time>
      </trkpt>
      <trkpt lat="42.0828170" lon="-8.6407370">
        <ele>27.4</ele>
        <time>2019-08-17T06:12:24Z</time>
      </trkpt>
      <trkpt lat="42.0828170" lon="-8.6406510">
        <ele>27.4</ele>
        <time>2019-08-17T06:12:27Z</time>
      </trkpt>
      <trkpt lat="42.0828170" lon="-8.6406190">
        <ele>27.4</ele>
        <time>2019-08-17T06:12:28Z</time>
      </trkpt>
      <trkpt lat="42.0828180" lon="-8.6405840">
        <ele>27.4</ele>
        <time>2019-08-17T06:12:29Z</time>
      </trkpt>
      <trkpt lat="42.0828140" lon="-8.6405470">
        <ele>27.5</ele>
        <time>2019-08-17T06:12:30Z</time>
      </trkpt>
      <trkpt lat="42.0828120" lon="-8.6405110">
        <ele>27.5</ele>
        <time>2019-08-17T06:12:31Z</time>
      </trkpt>
      <trkpt lat="42.0828550" lon="-8.6402810">
        <ele>27.9</ele>
        <time>2019-08-17T06:12:37Z</time>
      </trkpt>
      <trkpt lat="42.0828690" lon="-8.6402480">
        <ele>28.0</ele>
        <time>2019-08-17T06:12:38Z</time>
      </trkpt>
      <trkpt lat="42.0828790" lon="-8.6402140">
        <ele>28.2</ele>
        <time>2019-08-17T06:12:39Z</time>
      </trkpt>
      <trkpt lat="42.0828920" lon="-8.6401820">
        <ele>28.4</ele>
        <time>2019-08-17T06:12:40Z</time>
      </trkpt>
      <trkpt lat="42.0829020" lon="-8.6401470">
        <ele>28.5</ele>
        <time>2019-08-17T06:12:41Z</time>
      </trkpt>
      <trkpt lat="42.0829100" lon="-8.6401140">
        <ele>28.7</ele>
        <time>2019-08-17T06:12:42Z</time>
      </trkpt>
      <trkpt lat="42.0829370" lon="-8.6400100">
        <ele>29.2</ele>
        <time>2019-08-17T06:12:45Z</time>
      </trkpt>
      <trkpt lat="42.0829710" lon="-8.6399160">
        <ele>29.6</ele>
        <time>2019-08-17T06:12:48Z</time>
      </trkpt>
      <trkpt lat="42.0829760" lon="-8.6398870">
        <ele>29.7</ele>
        <time>2019-08-17T06:12:49Z</time>
      </trkpt>
      <trkpt lat="42.0829780" lon="-8.6398520">
        <ele>29.9</ele>
        <time>2019-08-17T06:12:50Z</time>
      </trkpt>
      <trkpt lat="42.0829860" lon="-8.6398210">
        <ele>30.0</ele>
        <time>2019-08-17T06:12:51Z</time>
      </trkpt>
      <trkpt lat="42.0829730" lon="-8.6397790">
        <ele>30.2</ele>
        <time>2019-08-17T06:12:52Z</time>
      </trkpt>
      <trkpt lat="42.0830040" lon="-8.6397570">
        <ele>30.4</ele>
        <time>2019-08-17T06:12:53Z</time>
      </trkpt>
      <trkpt lat="42.0830280" lon="-8.6396420">
        <ele>30.9</ele>
        <time>2019-08-17T06:12:57Z</time>
      </trkpt>
      <trkpt lat="42.0830420" lon="-8.6396130">
        <ele>31.0</ele>
        <time>2019-08-17T06:12:58Z</time>
      </trkpt>
      <trkpt lat="42.0830460" lon="-8.6395750">
        <ele>31.2</ele>
        <time>2019-08-17T06:12:59Z</time>
      </trkpt>
      <trkpt lat="42.0830500" lon="-8.6395380">
        <ele>31.3</ele>
        <time>2019-08-17T06:13:00Z</time>
      </trkpt>
      <trkpt lat="42.0830490" lon="-8.6395010">
        <ele>31.4</ele>
        <time>2019-08-17T06:13:01Z</time>
      </trkpt>
      <trkpt lat="42.0830580" lon="-8.6394430">
        <ele>31.6</ele>
        <time>2019-08-17T06:13:03Z</time>
      </trkpt>
      <trkpt lat="42.0831650" lon="-8.6391470">
        <ele>31.9</ele>
        <time>2019-08-17T06:13:14Z</time>
      </trkpt>
      <trkpt lat="42.0832680" lon="-8.6389440">
        <ele>31.4</ele>
        <time>2019-08-17T06:13:21Z</time>
      </trkpt>
      <trkpt lat="42.0834150" lon="-8.6387290">
        <ele>29.9</ele>
        <time>2019-08-17T06:13:26Z</time>
      </trkpt>
      <trkpt lat="42.0834580" lon="-8.6386860">
        <ele>29.6</ele>
        <time>2019-08-17T06:13:27Z</time>
      </trkpt>
      <trkpt lat="42.0835020" lon="-8.6386410">
        <ele>29.1</ele>
        <time>2019-08-17T06:13:28Z</time>
      </trkpt>
      <trkpt lat="42.0835530" lon="-8.6385930">
        <ele>28.6</ele>
        <time>2019-08-17T06:13:29Z</time>
      </trkpt>
      <trkpt lat="42.0836060" lon="-8.6385570">
        <ele>28.2</ele>
        <time>2019-08-17T06:13:30Z</time>
      </trkpt>
      <trkpt lat="42.0836550" lon="-8.6385250">
        <ele>27.9</ele>
        <time>2019-08-17T06:13:31Z</time>
      </trkpt>
      <trkpt lat="42.0838980" lon="-8.6383550">
        <ele>26.3</ele>
        <time>2019-08-17T06:13:36Z</time>
      </trkpt>
      <trkpt lat="42.0839470" lon="-8.6383190">
        <ele>26.1</ele>
        <time>2019-08-17T06:13:37Z</time>
      </trkpt>
      <trkpt lat="42.0840020" lon="-8.6382820">
        <ele>25.8</ele>
        <time>2019-08-17T06:13:38Z</time>
      </trkpt>
      <trkpt lat="42.0840600" lon="-8.6382430">
        <ele>25.5</ele>
        <time>2019-08-17T06:13:39Z</time>
      </trkpt>
      <trkpt lat="42.0841180" lon="-8.6382090">
        <ele>25.1</ele>
        <time>2019-08-17T06:13:40Z</time>
      </trkpt>
      <trkpt lat="42.0841770" lon="-8.6381730">
        <ele>24.6</ele>
        <time>2019-08-17T06:13:41Z</time>
      </trkpt>
      <trkpt lat="42.0842400" lon="-8.6381350">
        <ele>23.9</ele>
        <time>2019-08-17T06:13:42Z</time>
      </trkpt>
      <trkpt lat="42.0843100" lon="-8.6380950">
        <ele>23.2</ele>
        <time>2019-08-17T06:13:43Z</time>
      </trkpt>
      <trkpt lat="42.0843890" lon="-8.6380520">
        <ele>22.4</ele>
        <time>2019-08-17T06:13:44Z</time>
      </trkpt>
      <trkpt lat="42.0844680" lon="-8.6380080">
        <ele>21.6</ele>
        <time>2019-08-17T06:13:45Z</time>
      </trkpt>
      <trkpt lat="42.0845530" lon="-8.6379630">
        <ele>20.9</ele>
        <time>2019-08-17T06:13:46Z</time>
      </trkpt>
      <trkpt lat="42.0846390" lon="-8.6379160">
        <ele>20.3</ele>
        <time>2019-08-17T06:13:47Z</time>
      </trkpt>
      <trkpt lat="42.0847180" lon="-8.6378700">
        <ele>19.9</ele>
        <time>2019-08-17T06:13:48Z</time>
      </trkpt>
      <trkpt lat="42.0847920" lon="-8.6378210">
        <ele>19.6</ele>
        <time>2019-08-17T06:13:49Z</time>
      </trkpt>
      <trkpt lat="42.0848720" lon="-8.6377730">
        <ele>19.4</ele>
        <time>2019-08-17T06:13:50Z</time>
      </trkpt>
      <trkpt lat="42.0849430" lon="-8.6377080">
        <ele>19.2</ele>
        <time>2019-08-17T06:13:51Z</time>
      </trkpt>
      <trkpt lat="42.0850070" lon="-8.6376380">
        <ele>19.1</ele>
        <time>2019-08-17T06:13:52Z</time>
      </trkpt>
      <trkpt lat="42.0850560" lon="-8.6375660">
        <ele>19.0</ele>
        <time>2019-08-17T06:13:53Z</time>
      </trkpt>
      <trkpt lat="42.0851020" lon="-8.6374880">
        <ele>18.9</ele>
        <time>2019-08-17T06:13:54Z</time>
      </trkpt>
      <trkpt lat="42.0851530" lon="-8.6373930">
        <ele>18.8</ele>
        <time>2019-08-17T06:13:55Z</time>
      </trkpt>
      <trkpt lat="42.0852190" lon="-8.6373050">
        <ele>18.6</ele>
        <time>2019-08-17T06:13:56Z</time>
      </trkpt>
      <trkpt lat="42.0852770" lon="-8.6372370">
        <ele>18.5</ele>
        <time>2019-08-17T06:13:57Z</time>
      </trkpt>
      <trkpt lat="42.0853520" lon="-8.6371840">
        <ele>18.3</ele>
        <time>2019-08-17T06:13:58Z</time>
      </trkpt>
      <trkpt lat="42.0854220" lon="-8.6371440">
        <ele>18.1</ele>
        <time>2019-08-17T06:13:59Z</time>
      </trkpt>
      <trkpt lat="42.0855030" lon="-8.6371240">
        <ele>18.0</ele>
        <time>2019-08-17T06:14:00Z</time>
      </trkpt>
      <trkpt lat="42.0855860" lon="-8.6371020">
        <ele>17.7</ele>
        <time>2019-08-17T06:14:01Z</time>
      </trkpt>
      <trkpt lat="42.0856630" lon="-8.6370950">
        <ele>17.4</ele>
        <time>2019-08-17T06:14:02Z</time>
      </trkpt>
      <trkpt lat="42.0857340" lon="-8.6371030">
        <ele>17.1</ele>
        <time>2019-08-17T06:14:03Z</time>
      </trkpt>
      <trkpt lat="42.0857970" lon="-8.6371330">
        <ele>16.8</ele>
        <time>2019-08-17T06:14:04Z</time>
      </trkpt>
      <trkpt lat="42.0858620" lon="-8.6371690">
        <ele>16.5</ele>
        <time>2019-08-17T06:14:05Z</time>
      </trkpt>
      <trkpt lat="42.0859180" lon="-8.6372180">
        <ele>16.1</ele>
        <time>2019-08-17T06:14:06Z</time>
      </trkpt>
      <trkpt lat="42.0859690" lon="-8.6372600">
        <ele>15.9</ele>
        <time>2019-08-17T06:14:07Z</time>
      </trkpt>
      <trkpt lat="42.0860130" lon="-8.6372890">
        <ele>15.7</ele>
        <time>2019-08-17T06:14:08Z</time>
      </trkpt>
      <trkpt lat="42.0860450" lon="-8.6373230">
        <ele>15.5</ele>
        <time>2019-08-17T06:14:09Z</time>
      </trkpt>
      <trkpt lat="42.0860740" lon="-8.6373490">
        <ele>15.4</ele>
        <time>2019-08-17T06:14:10Z</time>
      </trkpt>
      <trkpt lat="42.0861070" lon="-8.6373700">
        <ele>15.3</ele>
        <time>2019-08-17T06:14:11Z</time>
      </trkpt>
      <trkpt lat="42.0861280" lon="-8.6374000">
        <ele>15.2</ele>
        <time>2019-08-17T06:14:12Z</time>
      </trkpt>
      <trkpt lat="42.0861430" lon="-8.6374140">
        <ele>15.2</ele>
        <time>2019-08-17T06:14:13Z</time>
      </trkpt>
      <trkpt lat="42.0861340" lon="-8.6374590">
        <ele>15.2</ele>
        <time>2019-08-17T06:14:15Z</time>
      </trkpt>
      <trkpt lat="42.0861470" lon="-8.6374900">
        <ele>15.2</ele>
        <time>2019-08-17T06:14:37Z</time>
      </trkpt>
      <trkpt lat="42.0861590" lon="-8.6374760">
        <ele>15.2</ele>
        <time>2019-08-17T06:14:40Z</time>
      </trkpt>
      <trkpt lat="42.0863250" lon="-8.6376590">
        <ele>14.0</ele>
        <time>2019-08-17T06:15:39Z</time>
      </trkpt>
      <trkpt lat="42.0864860" lon="-8.6379020">
        <ele>13.0</ele>
        <time>2019-08-17T06:15:45Z</time>
      </trkpt>
      <trkpt lat="42.0867410" lon="-8.6381890">
        <ele>12.1</ele>
        <time>2019-08-17T06:15:54Z</time>
      </trkpt>
      <trkpt lat="42.0868900" lon="-8.6383500">
        <ele>11.9</ele>
        <time>2019-08-17T06:15:59Z</time>
      </trkpt>
      <trkpt lat="42.0870710" lon="-8.6385660">
        <ele>12.0</ele>
        <time>2019-08-17T06:16:05Z</time>
      </trkpt>
      <trkpt lat="42.0873050" lon="-8.6387520">
        <ele>12.3</ele>
        <time>2019-08-17T06:16:12Z</time>
      </trkpt>
      <trkpt lat="42.0875680" lon="-8.6389530">
        <ele>12.6</ele>
        <time>2019-08-17T06:16:19Z</time>
      </trkpt>
      <trkpt lat="42.0878380" lon="-8.6390700">
        <ele>12.9</ele>
        <time>2019-08-17T06:16:25Z</time>
      </trkpt>
      <trkpt lat="42.0879240" lon="-8.6391000">
        <ele>13.0</ele>
        <time>2019-08-17T06:16:27Z</time>
      </trkpt>
      <trkpt lat="42.0881720" lon="-8.6391650">
        <ele>13.5</ele>
        <time>2019-08-17T06:16:33Z</time>
      </trkpt>
      <trkpt lat="42.0885090" lon="-8.6391720">
        <ele>14.0</ele>
        <time>2019-08-17T06:16:40Z</time>
      </trkpt>
      <trkpt lat="42.0888010" lon="-8.6392740">
        <ele>14.4</ele>
        <time>2019-08-17T06:16:46Z</time>
      </trkpt>
      <trkpt lat="42.0890530" lon="-8.6392840">
        <ele>14.9</ele>
        <time>2019-08-17T06:16:52Z</time>
      </trkpt>
      <trkpt lat="42.0892920" lon="-8.6392730">
        <ele>15.2</ele>
        <time>2019-08-17T06:16:58Z</time>
      </trkpt>
      <trkpt lat="42.0894430" lon="-8.6391690">
        <ele>15.3</ele>
        <time>2019-08-17T06:17:02Z</time>
      </trkpt>
      <trkpt lat="42.0897740" lon="-8.6391080">
        <ele>15.7</ele>
        <time>2019-08-17T06:17:08Z</time>
      </trkpt>
      <trkpt lat="42.0898590" lon="-8.6391270">
        <ele>15.8</ele>
        <time>2019-08-17T06:17:10Z</time>
      </trkpt>
      <trkpt lat="42.0900230" lon="-8.6391520">
        <ele>16.0</ele>
        <time>2019-08-17T06:17:14Z</time>
      </trkpt>
      <trkpt lat="42.0902560" lon="-8.6392560">
        <ele>16.3</ele>
        <time>2019-08-17T06:17:20Z</time>
      </trkpt>
      <trkpt lat="42.0903570" lon="-8.6392780">
        <ele>16.5</ele>
        <time>2019-08-17T06:17:23Z</time>
      </trkpt>
      <trkpt lat="42.0903940" lon="-8.6392710">
        <ele>16.6</ele>
        <time>2019-08-17T06:17:24Z</time>
      </trkpt>
      <trkpt lat="42.0904260" lon="-8.6392720">
        <ele>16.6</ele>
        <time>2019-08-17T06:17:25Z</time>
      </trkpt>
      <trkpt lat="42.0904610" lon="-8.6392720">
        <ele>16.7</ele>
        <time>2019-08-17T06:17:26Z</time>
      </trkpt>
      <trkpt lat="42.0904920" lon="-8.6392670">
        <ele>16.8</ele>
        <time>2019-08-17T06:17:27Z</time>
      </trkpt>
      <trkpt lat="42.0905790" lon="-8.6392640">
        <ele>17.0</ele>
        <time>2019-08-17T06:17:30Z</time>
      </trkpt>
      <trkpt lat="42.0906160" lon="-8.6392610">
        <ele>17.2</ele>
        <time>2019-08-17T06:17:31Z</time>
      </trkpt>
      <trkpt lat="42.0906410" lon="-8.6392540">
        <ele>17.3</ele>
        <time>2019-08-17T06:17:32Z</time>
      </trkpt>
      <trkpt lat="42.0906740" lon="-8.6392520">
        <ele>17.4</ele>
        <time>2019-08-17T06:17:33Z</time>
      </trkpt>
      <trkpt lat="42.0907020" lon="-8.6392500">
        <ele>17.4</ele>
        <time>2019-08-17T06:17:34Z</time>
      </trkpt>
      <trkpt lat="42.0907560" lon="-8.6392460">
        <ele>17.5</ele>
        <time>2019-08-17T06:17:36Z</time>
      </trkpt>
      <trkpt lat="42.0907820" lon="-8.6392410">
        <ele>17.6</ele>
        <time>2019-08-17T06:17:37Z</time>
      </trkpt>
      <trkpt lat="42.0908100" lon="-8.6392400">
        <ele>17.6</ele>
        <time>2019-08-17T06:17:38Z</time>
      </trkpt>
      <trkpt lat="42.0908330" lon="-8.6392350">
        <ele>17.7</ele>
        <time>2019-08-17T06:17:39Z</time>
      </trkpt>
      <trkpt lat="42.0908520" lon="-8.6392330">
        <ele>17.8</ele>
        <time>2019-08-17T06:17:40Z</time>
      </trkpt>
      <trkpt lat="42.0910200" lon="-8.6392300">
        <ele>18.1</ele>
        <time>2019-08-17T06:17:44Z</time>
      </trkpt>
      <trkpt lat="42.0910570" lon="-8.6392300">
        <ele>18.2</ele>
        <time>2019-08-17T06:17:45Z</time>
      </trkpt>
      <trkpt lat="42.0910830" lon="-8.6392340">
        <ele>18.3</ele>
        <time>2019-08-17T06:17:46Z</time>
      </trkpt>
      <trkpt lat="42.0911220" lon="-8.6392410">
        <ele>18.4</ele>
        <time>2019-08-17T06:17:47Z</time>
      </trkpt>
      <trkpt lat="42.0911530" lon="-8.6392450">
        <ele>18.5</ele>
        <time>2019-08-17T06:17:48Z</time>
      </trkpt>
      <trkpt lat="42.0912290" lon="-8.6392530">
        <ele>18.7</ele>
        <time>2019-08-17T06:17:50Z</time>
      </trkpt>
      <trkpt lat="42.0913660" lon="-8.6392620">
        <ele>19.0</ele>
        <time>2019-08-17T06:17:55Z</time>
      </trkpt>
      <trkpt lat="42.0914240" lon="-8.6392550">
        <ele>19.1</ele>
        <time>2019-08-17T06:17:57Z</time>
      </trkpt>
      <trkpt lat="42.0914710" lon="-8.6392390">
        <ele>19.2</ele>
        <time>2019-08-17T06:17:59Z</time>
      </trkpt>
      <trkpt lat="42.0914950" lon="-8.6392330">
        <ele>19.3</ele>
        <time>2019-08-17T06:18:00Z</time>
      </trkpt>
      <trkpt lat="42.0915210" lon="-8.6392330">
        <ele>19.3</ele>
        <time>2019-08-17T06:18:01Z</time>
      </trkpt>
      <trkpt lat="42.0915450" lon="-8.6392300">
        <ele>19.4</ele>
        <time>2019-08-17T06:18:02Z</time>
      </trkpt>
      <trkpt lat="42.0915680" lon="-8.6392250">
        <ele>19.4</ele>
        <time>2019-08-17T06:18:03Z</time>
      </trkpt>
      <trkpt lat="42.0916390" lon="-8.6392350">
        <ele>19.6</ele>
        <time>2019-08-17T06:18:06Z</time>
      </trkpt>
      <trkpt lat="42.0918660" lon="-8.6392300">
        <ele>20.0</ele>
        <time>2019-08-17T06:18:13Z</time>
      </trkpt>
      <trkpt lat="42.0921280" lon="-8.6391410">
        <ele>20.6</ele>
        <time>2019-08-17T06:18:21Z</time>
      </trkpt>
      <trkpt lat="42.0923490" lon="-8.6390400">
        <ele>21.0</ele>
        <time>2019-08-17T06:18:28Z</time>
      </trkpt>
      <trkpt lat="42.0925780" lon="-8.6389990">
        <ele>21.3</ele>
        <time>2019-08-17T06:18:34Z</time>
      </trkpt>
      <trkpt lat="42.0928260" lon="-8.6389460">
        <ele>21.6</ele>
        <time>2019-08-17T06:18:41Z</time>
      </trkpt>
      <trkpt lat="42.0930730" lon="-8.6388720">
        <ele>21.9</ele>
        <time>2019-08-17T06:18:47Z</time>
      </trkpt>
      <trkpt lat="42.0932090" lon="-8.6388420">
        <ele>22.0</ele>
        <time>2019-08-17T06:18:51Z</time>
      </trkpt>
      <trkpt lat="42.0932440" lon="-8.6388310">
        <ele>22.1</ele>
        <time>2019-08-17T06:18:52Z</time>
      </trkpt>
      <trkpt lat="42.0932790" lon="-8.6388220">
        <ele>22.1</ele>
        <time>2019-08-17T06:18:53Z</time>
      </trkpt>
      <trkpt lat="42.0933060" lon="-8.6388120">
        <ele>22.1</ele>
        <time>2019-08-17T06:18:54Z</time>
      </trkpt>
      <trkpt lat="42.0933320" lon="-8.6388030">
        <ele>22.1</ele>
        <time>2019-08-17T06:18:55Z</time>
      </trkpt>
      <trkpt lat="42.0933850" lon="-8.6387830">
        <ele>22.2</ele>
        <time>2019-08-17T06:18:57Z</time>
      </trkpt>
      <trkpt lat="42.0936010" lon="-8.6387200">
        <ele>22.3</ele>
        <time>2019-08-17T06:19:06Z</time>
      </trkpt>
      <trkpt lat="42.0937840" lon="-8.6387130">
        <ele>22.5</ele>
        <time>2019-08-17T06:19:13Z</time>
      </trkpt>
      <trkpt lat="42.0939850" lon="-8.6386420">
        <ele>22.9</ele>
        <time>2019-08-17T06:19:19Z</time>
      </trkpt>
      <trkpt lat="42.0941930" lon="-8.6385530">
        <ele>23.2</ele>
        <time>2019-08-17T06:19:25Z</time>
      </trkpt>
      <trkpt lat="42.0942250" lon="-8.6385320">
        <ele>23.3</ele>
        <time>2019-08-17T06:19:26Z</time>
      </trkpt>
      <trkpt lat="42.0942560" lon="-8.6385120">
        <ele>23.4</ele>
        <time>2019-08-17T06:19:27Z</time>
      </trkpt>
      <trkpt lat="42.0942880" lon="-8.6384910">
        <ele>23.5</ele>
        <time>2019-08-17T06:19:28Z</time>
      </trkpt>
      <trkpt lat="42.0943210" lon="-8.6384720">
        <ele>23.5</ele>
        <time>2019-08-17T06:19:29Z</time>
      </trkpt>
      <trkpt lat="42.0944560" lon="-8.6384190">
        <ele>23.8</ele>
        <time>2019-08-17T06:19:33Z</time>
      </trkpt>
      <trkpt lat="42.0947000" lon="-8.6383340">
        <ele>25.4</ele>
        <time>2019-08-17T06:19:41Z</time>
      </trkpt>
      <trkpt lat="42.0947570" lon="-8.6383230">
        <ele>25.8</ele>
        <time>2019-08-17T06:19:43Z</time>
      </trkpt>
      <trkpt lat="42.0947880" lon="-8.6383230">
        <ele>26.0</ele>
        <time>2019-08-17T06:19:44Z</time>
      </trkpt>
      <trkpt lat="42.0948180" lon="-8.6383260">
        <ele>26.3</ele>
        <time>2019-08-17T06:19:45Z</time>
      </trkpt>
      <trkpt lat="42.0948500" lon="-8.6383280">
        <ele>26.6</ele>
        <time>2019-08-17T06:19:46Z</time>
      </trkpt>
      <trkpt lat="42.0948710" lon="-8.6383270">
        <ele>27.2</ele>
        <time>2019-08-17T06:19:47Z</time>
      </trkpt>
      <trkpt lat="42.0949070" lon="-8.6383200">
        <ele>27.2</ele>
        <time>2019-08-17T06:19:50Z</time>
      </trkpt>
      <trkpt lat="42.0949200" lon="-8.6383260">
        <ele>27.2</ele>
        <time>2019-08-17T06:22:47Z</time>
      </trkpt>
      <trkpt lat="42.0950790" lon="-8.6383210">
        <ele>27.4</ele>
        <time>2019-08-17T06:22:54Z</time>
      </trkpt>
      <trkpt lat="42.0951410" lon="-8.6383250">
        <ele>27.4</ele>
        <time>2019-08-17T06:22:56Z</time>
      </trkpt>
      <trkpt lat="42.0951730" lon="-8.6383310">
        <ele>27.5</ele>
        <time>2019-08-17T06:22:57Z</time>
      </trkpt>
      <trkpt lat="42.0952040" lon="-8.6383390">
        <ele>27.6</ele>
        <time>2019-08-17T06:22:58Z</time>
      </trkpt>
      <trkpt lat="42.0952390" lon="-8.6383400">
        <ele>27.7</ele>
        <time>2019-08-17T06:22:59Z</time>
      </trkpt>
      <trkpt lat="42.0952670" lon="-8.6383500">
        <ele>27.8</ele>
        <time>2019-08-17T06:23:00Z</time>
      </trkpt>
      <trkpt lat="42.0952960" lon="-8.6383590">
        <ele>27.9</ele>
        <time>2019-08-17T06:23:01Z</time>
      </trkpt>
      <trkpt lat="42.0954430" lon="-8.6384860">
        <ele>28.8</ele>
        <time>2019-08-17T06:23:07Z</time>
      </trkpt>
      <trkpt lat="42.0954620" lon="-8.6385930">
        <ele>28.3</ele>
        <time>2019-08-17T06:23:10Z</time>
      </trkpt>
      <trkpt lat="42.0954620" lon="-8.6386290">
        <ele>28.2</ele>
        <time>2019-08-17T06:23:11Z</time>
      </trkpt>
      <trkpt lat="42.0954600" lon="-8.6386680">
        <ele>28.0</ele>
        <time>2019-08-17T06:23:12Z</time>
      </trkpt>
      <trkpt lat="42.0954580" lon="-8.6387040">
        <ele>27.9</ele>
        <time>2019-08-17T06:23:13Z</time>
      </trkpt>
      <trkpt lat="42.0954590" lon="-8.6387430">
        <ele>27.8</ele>
        <time>2019-08-17T06:23:14Z</time>
      </trkpt>
      <trkpt lat="42.0954610" lon="-8.6388600">
        <ele>27.5</ele>
        <time>2019-08-17T06:23:17Z</time>
      </trkpt>
      <trkpt lat="42.0954410" lon="-8.6389460">
        <ele>27.3</ele>
        <time>2019-08-17T06:23:19Z</time>
      </trkpt>
      <trkpt lat="42.0953720" lon="-8.6393490">
        <ele>27.5</ele>
        <time>2019-08-17T06:23:27Z</time>
      </trkpt>
      <trkpt lat="42.0953950" lon="-8.6396790">
        <ele>27.8</ele>
        <time>2019-08-17T06:23:33Z</time>
      </trkpt>
      <trkpt lat="42.0954050" lon="-8.6398790">
        <ele>27.6</ele>
        <time>2019-08-17T06:23:36Z</time>
      </trkpt>
      <trkpt lat="42.0954140" lon="-8.6400220">
        <ele>27.4</ele>
        <time>2019-08-17T06:23:38Z</time>
      </trkpt>
      <trkpt lat="42.0954500" lon="-8.6404020">
        <ele>26.8</ele>
        <time>2019-08-17T06:23:43Z</time>
      </trkpt>
      <trkpt lat="42.0954630" lon="-8.6404720">
        <ele>26.7</ele>
        <time>2019-08-17T06:23:44Z</time>
      </trkpt>
      <trkpt lat="42.0954760" lon="-8.6405350">
        <ele>26.7</ele>
        <time>2019-08-17T06:23:45Z</time>
      </trkpt>
      <trkpt lat="42.0954930" lon="-8.6405910">
        <ele>26.6</ele>
        <time>2019-08-17T06:23:46Z</time>
      </trkpt>
      <trkpt lat="42.0955100" lon="-8.6406480">
        <ele>26.6</ele>
        <time>2019-08-17T06:23:47Z</time>
      </trkpt>
      <trkpt lat="42.0955750" lon="-8.6408830">
        <ele>26.4</ele>
        <time>2019-08-17T06:23:51Z</time>
      </trkpt>
      <trkpt lat="42.0956030" lon="-8.6409300">
        <ele>26.3</ele>
        <time>2019-08-17T06:23:52Z</time>
      </trkpt>
      <trkpt lat="42.0956660" lon="-8.6410030">
        <ele>26.4</ele>
        <time>2019-08-17T06:23:54Z</time>
      </trkpt>
      <trkpt lat="42.0957300" lon="-8.6410030">
        <ele>26.6</ele>
        <time>2019-08-17T06:23:56Z</time>
      </trkpt>
      <trkpt lat="42.0957660" lon="-8.6409980">
        <ele>26.7</ele>
        <time>2019-08-17T06:23:57Z</time>
      </trkpt>
      <trkpt lat="42.0958000" lon="-8.6409990">
        <ele>26.8</ele>
        <time>2019-08-17T06:23:58Z</time>
      </trkpt>
      <trkpt lat="42.0958340" lon="-8.6410080">
        <ele>26.9</ele>
        <time>2019-08-17T06:23:59Z</time>
      </trkpt>
      <trkpt lat="42.0958640" lon="-8.6410280">
        <ele>27.0</ele>
        <time>2019-08-17T06:24:00Z</time>
      </trkpt>
      <trkpt lat="42.0960050" lon="-8.6411930">
        <ele>27.7</ele>
        <time>2019-08-17T06:24:05Z</time>
      </trkpt>
      <trkpt lat="42.0962100" lon="-8.6413510">
        <ele>28.4</ele>
        <time>2019-08-17T06:24:10Z</time>
      </trkpt>
      <trkpt lat="42.0964040" lon="-8.6414760">
        <ele>28.9</ele>
        <time>2019-08-17T06:24:14Z</time>
      </trkpt>
      <trkpt lat="42.0964790" lon="-8.6414890">
        <ele>29.0</ele>
        <time>2019-08-17T06:24:16Z</time>
      </trkpt>
      <trkpt lat="42.0965120" lon="-8.6414810">
        <ele>29.0</ele>
        <time>2019-08-17T06:24:18Z</time>
      </trkpt>
      <trkpt lat="42.0965670" lon="-8.6414750">
        <ele>29.1</ele>
        <time>2019-08-17T06:24:20Z</time>
      </trkpt>
      <trkpt lat="42.0967610" lon="-8.6414340">
        <ele>30.0</ele>
        <time>2019-08-17T06:24:26Z</time>
      </trkpt>
      <trkpt lat="42.0969860" lon="-8.6413770">
        <ele>31.6</ele>
        <time>2019-08-17T06:24:34Z</time>
      </trkpt>
      <trkpt lat="42.0970180" lon="-8.6413770">
        <ele>31.8</ele>
        <time>2019-08-17T06:24:35Z</time>
      </trkpt>
      <trkpt lat="42.0970480" lon="-8.6413740">
        <ele>32.0</ele>
        <time>2019-08-17T06:24:36Z</time>
      </trkpt>
      <trkpt lat="42.0970780" lon="-8.6413690">
        <ele>32.2</ele>
        <time>2019-08-17T06:24:37Z</time>
      </trkpt>
      <trkpt lat="42.0971120" lon="-8.6413680">
        <ele>32.5</ele>
        <time>2019-08-17T06:24:38Z</time>
      </trkpt>
      <trkpt lat="42.0973230" lon="-8.6413400">
        <ele>33.9</ele>
        <time>2019-08-17T06:24:44Z</time>
      </trkpt>
      <trkpt lat="42.0973520" lon="-8.6413210">
        <ele>34.0</ele>
        <time>2019-08-17T06:24:45Z</time>
      </trkpt>
      <trkpt lat="42.0973760" lon="-8.6412930">
        <ele>34.6</ele>
        <time>2019-08-17T06:24:46Z</time>
      </trkpt>
      <trkpt lat="42.0973940" lon="-8.6412580">
        <ele>34.7</ele>
        <time>2019-08-17T06:24:47Z</time>
      </trkpt>
      <trkpt lat="42.0974060" lon="-8.6412200">
        <ele>34.7</ele>
        <time>2019-08-17T06:24:48Z</time>
      </trkpt>
      <trkpt lat="42.0974180" lon="-8.6410010">
        <ele>34.9</ele>
        <time>2019-08-17T06:24:53Z</time>
      </trkpt>
      <trkpt lat="42.0973810" lon="-8.6408090">
        <ele>34.8</ele>
        <time>2019-08-17T06:24:58Z</time>
      </trkpt>
      <trkpt lat="42.0972700" lon="-8.6405310">
        <ele>34.7</ele>
        <time>2019-08-17T06:25:04Z</time>
      </trkpt>
      <trkpt lat="42.0972540" lon="-8.6404750">
        <ele>34.7</ele>
        <time>2019-08-17T06:25:05Z</time>
      </trkpt>
      <trkpt lat="42.0972380" lon="-8.6404200">
        <ele>34.7</ele>
        <time>2019-08-17T06:25:06Z</time>
      </trkpt>
      <trkpt lat="42.0972230" lon="-8.6403660">
        <ele>34.7</ele>
        <time>2019-08-17T06:25:07Z</time>
      </trkpt>
      <trkpt lat="42.0972080" lon="-8.6403060">
        <ele>34.8</ele>
        <time>2019-08-17T06:25:08Z</time>
      </trkpt>
      <trkpt lat="42.0971920" lon="-8.6402480">
        <ele>34.8</ele>
        <time>2019-08-17T06:25:09Z</time>
      </trkpt>
      <trkpt lat="42.0971710" lon="-8.6401300">
        <ele>34.8</ele>
        <time>2019-08-17T06:25:11Z</time>
      </trkpt>
      <trkpt lat="42.0971650" lon="-8.6400720">
        <ele>34.8</ele>
        <time>2019-08-17T06:25:12Z</time>
      </trkpt>
      <trkpt lat="42.0971710" lon="-8.6398910">
        <ele>34.8</ele>
        <time>2019-08-17T06:25:15Z</time>
      </trkpt>
      <trkpt lat="42.0972060" lon="-8.6397790">
        <ele>35.0</ele>
        <time>2019-08-17T06:25:17Z</time>
      </trkpt>
      <trkpt lat="42.0973620" lon="-8.6395840">
        <ele>35.1</ele>
        <time>2019-08-17T06:25:22Z</time>
      </trkpt>
      <trkpt lat="42.0974770" lon="-8.6395280">
        <ele>35.2</ele>
        <time>2019-08-17T06:25:25Z</time>
      </trkpt>
      <trkpt lat="42.0975670" lon="-8.6394700">
        <ele>35.2</ele>
        <time>2019-08-17T06:25:28Z</time>
      </trkpt>
      <trkpt lat="42.0976470" lon="-8.6394280">
        <ele>34.9</ele>
        <time>2019-08-17T06:25:30Z</time>
      </trkpt>
      <trkpt lat="42.0977380" lon="-8.6394430">
        <ele>35.1</ele>
        <time>2019-08-17T06:25:32Z</time>
      </trkpt>
      <trkpt lat="42.0978440" lon="-8.6395730">
        <ele>35.3</ele>
        <time>2019-08-17T06:25:35Z</time>
      </trkpt>
      <trkpt lat="42.0978900" lon="-8.6396190">
        <ele>35.4</ele>
        <time>2019-08-17T06:25:36Z</time>
      </trkpt>
      <trkpt lat="42.0981190" lon="-8.6399510">
        <ele>36.0</ele>
        <time>2019-08-17T06:25:42Z</time>
      </trkpt>
      <trkpt lat="42.0981470" lon="-8.6399790">
        <ele>36.0</ele>
        <time>2019-08-17T06:25:43Z</time>
      </trkpt>
      <trkpt lat="42.0981800" lon="-8.6399950">
        <ele>36.0</ele>
        <time>2019-08-17T06:25:44Z</time>
      </trkpt>
      <trkpt lat="42.0982290" lon="-8.6399650">
        <ele>35.7</ele>
        <time>2019-08-17T06:25:45Z</time>
      </trkpt>
      <trkpt lat="42.0982400" lon="-8.6399030">
        <ele>35.4</ele>
        <time>2019-08-17T06:25:46Z</time>
      </trkpt>
      <trkpt lat="42.0982630" lon="-8.6398260">
        <ele>34.7</ele>
        <time>2019-08-17T06:25:47Z</time>
      </trkpt>
      <trkpt lat="42.0982890" lon="-8.6397430">
        <ele>33.8</ele>
        <time>2019-08-17T06:25:48Z</time>
      </trkpt>
      <trkpt lat="42.0983110" lon="-8.6396470">
        <ele>32.8</ele>
        <time>2019-08-17T06:25:49Z</time>
      </trkpt>
      <trkpt lat="42.0983330" lon="-8.6395450">
        <ele>31.6</ele>
        <time>2019-08-17T06:25:50Z</time>
      </trkpt>
      <trkpt lat="42.0983660" lon="-8.6394310">
        <ele>30.5</ele>
        <time>2019-08-17T06:25:51Z</time>
      </trkpt>
      <trkpt lat="42.0983990" lon="-8.6393100">
        <ele>29.5</ele>
        <time>2019-08-17T06:25:52Z</time>
      </trkpt>
      <trkpt lat="42.0984260" lon="-8.6391840">
        <ele>28.6</ele>
        <time>2019-08-17T06:25:53Z</time>
      </trkpt>
      <trkpt lat="42.0984500" lon="-8.6390650">
        <ele>27.9</ele>
        <time>2019-08-17T06:25:54Z</time>
      </trkpt>
      <trkpt lat="42.0984890" lon="-8.6389490">
        <ele>27.1</ele>
        <time>2019-08-17T06:25:55Z</time>
      </trkpt>
      <trkpt lat="42.0985220" lon="-8.6388590">
        <ele>26.6</ele>
        <time>2019-08-17T06:25:56Z</time>
      </trkpt>
      <trkpt lat="42.0985710" lon="-8.6387770">
        <ele>26.2</ele>
        <time>2019-08-17T06:25:57Z</time>
      </trkpt>
      <trkpt lat="42.0986590" lon="-8.6386930">
        <ele>25.7</ele>
        <time>2019-08-17T06:25:58Z</time>
      </trkpt>
      <trkpt lat="42.0987110" lon="-8.6386070">
        <ele>25.2</ele>
        <time>2019-08-17T06:25:59Z</time>
      </trkpt>
      <trkpt lat="42.0987510" lon="-8.6385080">
        <ele>24.6</ele>
        <time>2019-08-17T06:26:00Z</time>
      </trkpt>
      <trkpt lat="42.0988000" lon="-8.6384080">
        <ele>23.8</ele>
        <time>2019-08-17T06:26:01Z</time>
      </trkpt>
      <trkpt lat="42.0988290" lon="-8.6383160">
        <ele>23.3</ele>
        <time>2019-08-17T06:26:02Z</time>
      </trkpt>
      <trkpt lat="42.0988460" lon="-8.6382450">
        <ele>22.9</ele>
        <time>2019-08-17T06:26:03Z</time>
      </trkpt>
      <trkpt lat="42.0988650" lon="-8.6381850">
        <ele>22.4</ele>
        <time>2019-08-17T06:26:04Z</time>
      </trkpt>
      <trkpt lat="42.0988900" lon="-8.6381450">
        <ele>22.0</ele>
        <time>2019-08-17T06:26:05Z</time>
      </trkpt>
      <trkpt lat="42.0989240" lon="-8.6381510">
        <ele>21.6</ele>
        <time>2019-08-17T06:26:06Z</time>
      </trkpt>
      <trkpt lat="42.0989690" lon="-8.6381540">
        <ele>21.1</ele>
        <time>2019-08-17T06:26:07Z</time>
      </trkpt>
      <trkpt lat="42.0990130" lon="-8.6381550">
        <ele>20.7</ele>
        <time>2019-08-17T06:26:08Z</time>
      </trkpt>
      <trkpt lat="42.0990590" lon="-8.6381650">
        <ele>20.3</ele>
        <time>2019-08-17T06:26:09Z</time>
      </trkpt>
      <trkpt lat="42.0991110" lon="-8.6381790">
        <ele>20.0</ele>
        <time>2019-08-17T06:26:10Z</time>
      </trkpt>
      <trkpt lat="42.0991560" lon="-8.6381890">
        <ele>19.8</ele>
        <time>2019-08-17T06:26:11Z</time>
      </trkpt>
      <trkpt lat="42.0991940" lon="-8.6381960">
        <ele>19.6</ele>
        <time>2019-08-17T06:26:12Z</time>
      </trkpt>
      <trkpt lat="42.0993180" lon="-8.6381850">
        <ele>18.5</ele>
        <time>2019-08-17T06:26:16Z</time>
      </trkpt>
      <trkpt lat="42.0994750" lon="-8.6381700">
        <ele>17.1</ele>
        <time>2019-08-17T06:26:22Z</time>
      </trkpt>
      <trkpt lat="42.0994960" lon="-8.6380900">
        <ele>17.0</ele>
        <time>2019-08-17T06:26:24Z</time>
      </trkpt>
      <trkpt lat="42.0994940" lon="-8.6380480">
        <ele>16.9</ele>
        <time>2019-08-17T06:26:25Z</time>
      </trkpt>
      <trkpt lat="42.0994850" lon="-8.6380000">
        <ele>16.9</ele>
        <time>2019-08-17T06:26:26Z</time>
      </trkpt>
      <trkpt lat="42.0994910" lon="-8.6379530">
        <ele>16.8</ele>
        <time>2019-08-17T06:26:27Z</time>
      </trkpt>
      <trkpt lat="42.0995060" lon="-8.6379060">
        <ele>16.7</ele>
        <time>2019-08-17T06:26:28Z</time>
      </trkpt>
      <trkpt lat="42.0995920" lon="-8.6377900">
        <ele>16.5</ele>
        <time>2019-08-17T06:26:31Z</time>
      </trkpt>
      <trkpt lat="42.0997680" lon="-8.6376940">
        <ele>16.4</ele>
        <time>2019-08-17T06:26:35Z</time>
      </trkpt>
      <trkpt lat="42.1001930" lon="-8.6374690">
        <ele>16.3</ele>
        <time>2019-08-17T06:26:43Z</time>
      </trkpt>
      <trkpt lat="42.1002990" lon="-8.6374170">
        <ele>16.2</ele>
        <time>2019-08-17T06:26:45Z</time>
      </trkpt>
      <trkpt lat="42.1004820" lon="-8.6373170">
        <ele>16.1</ele>
        <time>2019-08-17T06:26:48Z</time>
      </trkpt>
      <trkpt lat="42.1006940" lon="-8.6372660">
        <ele>16.1</ele>
        <time>2019-08-17T06:26:52Z</time>
      </trkpt>
      <trkpt lat="42.1007450" lon="-8.6372560">
        <ele>16.1</ele>
        <time>2019-08-17T06:26:53Z</time>
      </trkpt>
      <trkpt lat="42.1010580" lon="-8.6371460">
        <ele>16.0</ele>
        <time>2019-08-17T06:26:59Z</time>
      </trkpt>
      <trkpt lat="42.1011140" lon="-8.6371400">
        <ele>16.0</ele>
        <time>2019-08-17T06:27:00Z</time>
      </trkpt>
      <trkpt lat="42.1013600" lon="-8.6371400">
        <ele>15.9</ele>
        <time>2019-08-17T06:27:04Z</time>
      </trkpt>
      <trkpt lat="42.1017170" lon="-8.6371430">
        <ele>15.9</ele>
        <time>2019-08-17T06:27:10Z</time>
      </trkpt>
      <trkpt lat="42.1020270" lon="-8.6370870">
        <ele>16.0</ele>
        <time>2019-08-17T06:27:16Z</time>
      </trkpt>
      <trkpt lat="42.1020630" lon="-8.6370560">
        <ele>16.0</ele>
        <time>2019-08-17T06:27:17Z</time>
      </trkpt>
      <trkpt lat="42.1021160" lon="-8.6369340">
        <ele>16.0</ele>
        <time>2019-08-17T06:27:20Z</time>
      </trkpt>
      <trkpt lat="42.1021440" lon="-8.6368160">
        <ele>16.0</ele>
        <time>2019-08-17T06:27:22Z</time>
      </trkpt>
      <trkpt lat="42.1021750" lon="-8.6366980">
        <ele>16.1</ele>
        <time>2019-08-17T06:27:24Z</time>
      </trkpt>
      <trkpt lat="42.1021990" lon="-8.6366320">
        <ele>16.1</ele>
        <time>2019-08-17T06:27:25Z</time>
      </trkpt>
      <trkpt lat="42.1022250" lon="-8.6364840">
        <ele>16.2</ele>
        <time>2019-08-17T06:27:27Z</time>
      </trkpt>
      <trkpt lat="42.1022250" lon="-8.6363490">
        <ele>16.3</ele>
        <time>2019-08-17T06:27:29Z</time>
      </trkpt>
      <trkpt lat="42.1021790" lon="-8.6361580">
        <ele>16.5</ele>
        <time>2019-08-17T06:27:32Z</time>
      </trkpt>
      <trkpt lat="42.1021640" lon="-8.6360840">
        <ele>16.5</ele>
        <time>2019-08-17T06:27:33Z</time>
      </trkpt>
      <trkpt lat="42.1020650" lon="-8.6356510">
        <ele>17.4</ele>
        <time>2019-08-17T06:27:39Z</time>
      </trkpt>
      <trkpt lat="42.1020420" lon="-8.6355980">
        <ele>17.6</ele>
        <time>2019-08-17T06:27:40Z</time>
      </trkpt>
      <trkpt lat="42.1019660" lon="-8.6354910">
        <ele>18.0</ele>
        <time>2019-08-17T06:27:43Z</time>
      </trkpt>
      <trkpt lat="42.1019330" lon="-8.6354680">
        <ele>18.2</ele>
        <time>2019-08-17T06:27:44Z</time>
      </trkpt>
      <trkpt lat="42.1019100" lon="-8.6354560">
        <ele>18.4</ele>
        <time>2019-08-17T06:27:45Z</time>
      </trkpt>
      <trkpt lat="42.1018740" lon="-8.6354540">
        <ele>18.6</ele>
        <time>2019-08-17T06:27:46Z</time>
      </trkpt>
      <trkpt lat="42.1018300" lon="-8.6354470">
        <ele>18.9</ele>
        <time>2019-08-17T06:27:47Z</time>
      </trkpt>
      <trkpt lat="42.1017930" lon="-8.6354340">
        <ele>19.1</ele>
        <time>2019-08-17T06:27:48Z</time>
      </trkpt>
      <trkpt lat="42.1016230" lon="-8.6353360">
        <ele>20.7</ele>
        <time>2019-08-17T06:27:54Z</time>
      </trkpt>
      <trkpt lat="42.1015740" lon="-8.6352920">
        <ele>21.0</ele>
        <time>2019-08-17T06:27:57Z</time>
      </trkpt>
      <trkpt lat="42.1015610" lon="-8.6352760">
        <ele>21.1</ele>
        <time>2019-08-17T06:27:58Z</time>
      </trkpt>
      <trkpt lat="42.1015440" lon="-8.6352670">
        <ele>21.2</ele>
        <time>2019-08-17T06:27:59Z</time>
      </trkpt>
      <trkpt lat="42.1015290" lon="-8.6352520">
        <ele>21.3</ele>
        <time>2019-08-17T06:28:00Z</time>
      </trkpt>
      <trkpt lat="42.1015170" lon="-8.6352430">
        <ele>21.4</ele>
        <time>2019-08-17T06:28:01Z</time>
      </trkpt>
      <trkpt lat="42.1014960" lon="-8.6352270">
        <ele>21.5</ele>
        <time>2019-08-17T06:28:03Z</time>
      </trkpt>
      <trkpt lat="42.1014430" lon="-8.6351800">
        <ele>22.1</ele>
        <time>2019-08-17T06:28:07Z</time>
      </trkpt>
      <trkpt lat="42.1014320" lon="-8.6351680">
        <ele>22.3</ele>
        <time>2019-08-17T06:28:08Z</time>
      </trkpt>
      <trkpt lat="42.1014240" lon="-8.6351600">
        <ele>22.4</ele>
        <time>2019-08-17T06:28:09Z</time>
      </trkpt>
      <trkpt lat="42.1014120" lon="-8.6351460">
        <ele>22.6</ele>
        <time>2019-08-17T06:28:10Z</time>
      </trkpt>
      <trkpt lat="42.1013890" lon="-8.6351330">
        <ele>22.9</ele>
        <time>2019-08-17T06:28:11Z</time>
      </trkpt>
      <trkpt lat="42.1013620" lon="-8.6351050">
        <ele>23.2</ele>
        <time>2019-08-17T06:28:13Z</time>
      </trkpt>
      <trkpt lat="42.1013280" lon="-8.6350250">
        <ele>23.7</ele>
        <time>2019-08-17T06:28:17Z</time>
      </trkpt>
      <trkpt lat="42.1013210" lon="-8.6350000">
        <ele>23.9</ele>
        <time>2019-08-17T06:28:18Z</time>
      </trkpt>
      <trkpt lat="42.1013140" lon="-8.6349760">
        <ele>24.1</ele>
        <time>2019-08-17T06:28:19Z</time>
      </trkpt>
      <trkpt lat="42.1013090" lon="-8.6349540">
        <ele>24.2</ele>
        <time>2019-08-17T06:28:20Z</time>
      </trkpt>
      <trkpt lat="42.1013050" lon="-8.6349370">
        <ele>24.3</ele>
        <time>2019-08-17T06:28:21Z</time>
      </trkpt>
      <trkpt lat="42.1013060" lon="-8.6349220">
        <ele>24.4</ele>
        <time>2019-08-17T06:28:22Z</time>
      </trkpt>
      <trkpt lat="42.1013110" lon="-8.6349040">
        <ele>24.5</ele>
        <time>2019-08-17T06:28:23Z</time>
      </trkpt>
      <trkpt lat="42.1013160" lon="-8.6348880">
        <ele>24.6</ele>
        <time>2019-08-17T06:28:24Z</time>
      </trkpt>
      <trkpt lat="42.1013250" lon="-8.6348710">
        <ele>24.9</ele>
        <time>2019-08-17T06:28:25Z</time>
      </trkpt>
      <trkpt lat="42.1013360" lon="-8.6348500">
        <ele>25.2</ele>
        <time>2019-08-17T06:28:26Z</time>
      </trkpt>
      <trkpt lat="42.1013290" lon="-8.6348030">
        <ele>25.8</ele>
        <time>2019-08-17T06:28:27Z</time>
      </trkpt>
      <trkpt lat="42.1013430" lon="-8.6346990">
        <ele>27.3</ele>
        <time>2019-08-17T06:28:31Z</time>
      </trkpt>
      <trkpt lat="42.1013520" lon="-8.6346730">
        <ele>27.3</ele>
        <time>2019-08-17T06:28:32Z</time>
      </trkpt>
      <trkpt lat="42.1013610" lon="-8.6346370">
        <ele>27.3</ele>
        <time>2019-08-17T06:28:34Z</time>
      </trkpt>
      <trkpt lat="42.1013720" lon="-8.6346220">
        <ele>27.3</ele>
        <time>2019-08-17T06:28:35Z</time>
      </trkpt>
      <trkpt lat="42.1013800" lon="-8.6346090">
        <ele>27.3</ele>
        <time>2019-08-17T06:28:36Z</time>
      </trkpt>
      <trkpt lat="42.1013890" lon="-8.6345960">
        <ele>27.2</ele>
        <time>2019-08-17T06:28:37Z</time>
      </trkpt>
      <trkpt lat="42.1014040" lon="-8.6345800">
        <ele>27.3</ele>
        <time>2019-08-17T06:28:38Z</time>
      </trkpt>
      <trkpt lat="42.1014350" lon="-8.6345240">
        <ele>27.3</ele>
        <time>2019-08-17T06:28:42Z</time>
      </trkpt>
      <trkpt lat="42.1014350" lon="-8.6344910">
        <ele>27.4</ele>
        <time>2019-08-17T06:28:44Z</time>
      </trkpt>
      <trkpt lat="42.1014500" lon="-8.6344740">
        <ele>27.4</ele>
        <time>2019-08-17T06:28:45Z</time>
      </trkpt>
      <trkpt lat="42.1014580" lon="-8.6344520">
        <ele>27.5</ele>
        <time>2019-08-17T06:28:46Z</time>
      </trkpt>
      <trkpt lat="42.1014760" lon="-8.6344240">
        <ele>27.6</ele>
        <time>2019-08-17T06:28:47Z</time>
      </trkpt>
      <trkpt lat="42.1014830" lon="-8.6343940">
        <ele>27.7</ele>
        <time>2019-08-17T06:28:48Z</time>
      </trkpt>
      <trkpt lat="42.1014990" lon="-8.6343700">
        <ele>27.9</ele>
        <time>2019-08-17T06:28:49Z</time>
      </trkpt>
      <trkpt lat="42.1016760" lon="-8.6342430">
        <ele>28.8</ele>
        <time>2019-08-17T06:28:57Z</time>
      </trkpt>
      <trkpt lat="42.1017250" lon="-8.6341600">
        <ele>29.2</ele>
        <time>2019-08-17T06:29:00Z</time>
      </trkpt>
      <trkpt lat="42.1017750" lon="-8.6340610">
        <ele>29.7</ele>
        <time>2019-08-17T06:29:03Z</time>
      </trkpt>
      <trkpt lat="42.1017900" lon="-8.6340270">
        <ele>29.9</ele>
        <time>2019-08-17T06:29:04Z</time>
      </trkpt>
      <trkpt lat="42.1018060" lon="-8.6339960">
        <ele>30.0</ele>
        <time>2019-08-17T06:29:05Z</time>
      </trkpt>
      <trkpt lat="42.1018240" lon="-8.6339630">
        <ele>30.1</ele>
        <time>2019-08-17T06:29:06Z</time>
      </trkpt>
      <trkpt lat="42.1018400" lon="-8.6339330">
        <ele>30.2</ele>
        <time>2019-08-17T06:29:07Z</time>
      </trkpt>
      <trkpt lat="42.1018560" lon="-8.6339020">
        <ele>30.3</ele>
        <time>2019-08-17T06:29:08Z</time>
      </trkpt>
      <trkpt lat="42.1019250" lon="-8.6337700">
        <ele>30.7</ele>
        <time>2019-08-17T06:29:13Z</time>
      </trkpt>
      <trkpt lat="42.1020010" lon="-8.6336300">
        <ele>31.1</ele>
        <time>2019-08-17T06:29:19Z</time>
      </trkpt>
      <trkpt lat="42.1020140" lon="-8.6336140">
        <ele>31.2</ele>
        <time>2019-08-17T06:29:20Z</time>
      </trkpt>
      <trkpt lat="42.1020280" lon="-8.6335930">
        <ele>31.3</ele>
        <time>2019-08-17T06:29:21Z</time>
      </trkpt>
      <trkpt lat="42.1020470" lon="-8.6335740">
        <ele>31.4</ele>
        <time>2019-08-17T06:29:22Z</time>
      </trkpt>
      <trkpt lat="42.1020570" lon="-8.6335520">
        <ele>31.5</ele>
        <time>2019-08-17T06:29:23Z</time>
      </trkpt>
      <trkpt lat="42.1021150" lon="-8.6334740">
        <ele>32.0</ele>
        <time>2019-08-17T06:29:27Z</time>
      </trkpt>
      <trkpt lat="42.1021300" lon="-8.6334540">
        <ele>32.1</ele>
        <time>2019-08-17T06:29:28Z</time>
      </trkpt>
      <trkpt lat="42.1021430" lon="-8.6334370">
        <ele>32.3</ele>
        <time>2019-08-17T06:29:29Z</time>
      </trkpt>
      <trkpt lat="42.1021540" lon="-8.6334220">
        <ele>32.4</ele>
        <time>2019-08-17T06:29:30Z</time>
      </trkpt>
      <trkpt lat="42.1021640" lon="-8.6334060">
        <ele>32.6</ele>
        <time>2019-08-17T06:29:31Z</time>
      </trkpt>
      <trkpt lat="42.1022150" lon="-8.6333220">
        <ele>32.6</ele>
        <time>2019-08-17T06:29:36Z</time>
      </trkpt>
      <trkpt lat="42.1022920" lon="-8.6332200">
        <ele>32.1</ele>
        <time>2019-08-17T06:29:41Z</time>
      </trkpt>
      <trkpt lat="42.1023060" lon="-8.6331990">
        <ele>32.0</ele>
        <time>2019-08-17T06:29:42Z</time>
      </trkpt>
      <trkpt lat="42.1023200" lon="-8.6331760">
        <ele>32.0</ele>
        <time>2019-08-17T06:29:43Z</time>
      </trkpt>
      <trkpt lat="42.1023300" lon="-8.6331550">
        <ele>31.9</ele>
        <time>2019-08-17T06:29:44Z</time>
      </trkpt>
      <trkpt lat="42.1023430" lon="-8.6331330">
        <ele>31.8</ele>
        <time>2019-08-17T06:29:45Z</time>
      </trkpt>
      <trkpt lat="42.1023480" lon="-8.6331090">
        <ele>31.8</ele>
        <time>2019-08-17T06:29:46Z</time>
      </trkpt>
      <trkpt lat="42.1024570" lon="-8.6329380">
        <ele>31.6</ele>
        <time>2019-08-17T06:29:53Z</time>
      </trkpt>
      <trkpt lat="42.1024710" lon="-8.6329150">
        <ele>31.7</ele>
        <time>2019-08-17T06:29:54Z</time>
      </trkpt>
      <trkpt lat="42.1024900" lon="-8.6328900">
        <ele>31.7</ele>
        <time>2019-08-17T06:29:55Z</time>
      </trkpt>
      <trkpt lat="42.1025130" lon="-8.6328710">
        <ele>31.8</ele>
        <time>2019-08-17T06:29:56Z</time>
      </trkpt>
      <trkpt lat="42.1025350" lon="-8.6328520">
        <ele>31.9</ele>
        <time>2019-08-17T06:29:57Z</time>
      </trkpt>
      <trkpt lat="42.1025900" lon="-8.6328100">
        <ele>32.2</ele>
        <time>2019-08-17T06:30:00Z</time>
      </trkpt>
      <trkpt lat="42.1027300" lon="-8.6327650">
        <ele>33.0</ele>
        <time>2019-08-17T06:30:07Z</time>
      </trkpt>
      <trkpt lat="42.1028470" lon="-8.6326450">
        <ele>34.0</ele>
        <time>2019-08-17T06:30:13Z</time>
      </trkpt>
      <trkpt lat="42.1029970" lon="-8.6324340">
        <ele>34.8</ele>
        <time>2019-08-17T06:30:19Z</time>
      </trkpt>
      <trkpt lat="42.1031700" lon="-8.6322240">
        <ele>34.8</ele>
        <time>2019-08-17T06:30:24Z</time>
      </trkpt>
      <trkpt lat="42.1032160" lon="-8.6321910">
        <ele>34.7</ele>
        <time>2019-08-17T06:30:25Z</time>
      </trkpt>
      <trkpt lat="42.1032660" lon="-8.6321650">
        <ele>34.6</ele>
        <time>2019-08-17T06:30:26Z</time>
      </trkpt>
      <trkpt lat="42.1033230" lon="-8.6321410">
        <ele>34.4</ele>
        <time>2019-08-17T06:30:27Z</time>
      </trkpt>
      <trkpt lat="42.1033820" lon="-8.6321160">
        <ele>34.2</ele>
        <time>2019-08-17T06:30:28Z</time>
      </trkpt>
      <trkpt lat="42.1034990" lon="-8.6320710">
        <ele>33.9</ele>
        <time>2019-08-17T06:30:30Z</time>
      </trkpt>
      <trkpt lat="42.1035640" lon="-8.6320490">
        <ele>33.6</ele>
        <time>2019-08-17T06:30:31Z</time>
      </trkpt>
      <trkpt lat="42.1036250" lon="-8.6320270">
        <ele>33.6</ele>
        <time>2019-08-17T06:30:32Z</time>
      </trkpt>
      <trkpt lat="42.1036870" lon="-8.6320030">
        <ele>33.6</ele>
        <time>2019-08-17T06:30:33Z</time>
      </trkpt>
      <trkpt lat="42.1037470" lon="-8.6319820">
        <ele>33.6</ele>
        <time>2019-08-17T06:30:34Z</time>
      </trkpt>
      <trkpt lat="42.1037990" lon="-8.6319670">
        <ele>33.6</ele>
        <time>2019-08-17T06:30:35Z</time>
      </trkpt>
      <trkpt lat="42.1039410" lon="-8.6319450">
        <ele>34.1</ele>
        <time>2019-08-17T06:30:38Z</time>
      </trkpt>
      <trkpt lat="42.1039850" lon="-8.6319490">
        <ele>34.2</ele>
        <time>2019-08-17T06:30:39Z</time>
      </trkpt>
      <trkpt lat="42.1041490" lon="-8.6319380">
        <ele>35.0</ele>
        <time>2019-08-17T06:30:43Z</time>
      </trkpt>
      <trkpt lat="42.1042970" lon="-8.6319150">
        <ele>35.8</ele>
        <time>2019-08-17T06:30:47Z</time>
      </trkpt>
      <trkpt lat="42.1043300" lon="-8.6319000">
        <ele>36.0</ele>
        <time>2019-08-17T06:30:48Z</time>
      </trkpt>
      <trkpt lat="42.1043590" lon="-8.6318800">
        <ele>36.2</ele>
        <time>2019-08-17T06:30:49Z</time>
      </trkpt>
      <trkpt lat="42.1043840" lon="-8.6318560">
        <ele>36.1</ele>
        <time>2019-08-17T06:30:50Z</time>
      </trkpt>
      <trkpt lat="42.1044140" lon="-8.6318240">
        <ele>35.9</ele>
        <time>2019-08-17T06:30:51Z</time>
      </trkpt>
      <trkpt lat="42.1044500" lon="-8.6317940">
        <ele>35.6</ele>
        <time>2019-08-17T06:30:52Z</time>
      </trkpt>
      <trkpt lat="42.1045330" lon="-8.6317200">
        <ele>35.1</ele>
        <time>2019-08-17T06:30:54Z</time>
      </trkpt>
      <trkpt lat="42.1046130" lon="-8.6316240">
        <ele>34.0</ele>
        <time>2019-08-17T06:30:56Z</time>
      </trkpt>
      <trkpt lat="42.1046500" lon="-8.6315720">
        <ele>33.5</ele>
        <time>2019-08-17T06:30:57Z</time>
      </trkpt>
      <trkpt lat="42.1046840" lon="-8.6315180">
        <ele>32.9</ele>
        <time>2019-08-17T06:30:58Z</time>
      </trkpt>
      <trkpt lat="42.1047080" lon="-8.6314490">
        <ele>32.3</ele>
        <time>2019-08-17T06:30:59Z</time>
      </trkpt>
      <trkpt lat="42.1047290" lon="-8.6313760">
        <ele>31.5</ele>
        <time>2019-08-17T06:31:00Z</time>
      </trkpt>
      <trkpt lat="42.1047460" lon="-8.6313010">
        <ele>30.8</ele>
        <time>2019-08-17T06:31:01Z</time>
      </trkpt>
      <trkpt lat="42.1047660" lon="-8.6312330">
        <ele>30.3</ele>
        <time>2019-08-17T06:31:02Z</time>
      </trkpt>
      <trkpt lat="42.1047930" lon="-8.6311750">
        <ele>29.8</ele>
        <time>2019-08-17T06:31:03Z</time>
      </trkpt>
      <trkpt lat="42.1048300" lon="-8.6311270">
        <ele>29.0</ele>
        <time>2019-08-17T06:31:04Z</time>
      </trkpt>
      <trkpt lat="42.1048720" lon="-8.6310820">
        <ele>28.1</ele>
        <time>2019-08-17T06:31:05Z</time>
      </trkpt>
      <trkpt lat="42.1049260" lon="-8.6310510">
        <ele>27.4</ele>
        <time>2019-08-17T06:31:06Z</time>
      </trkpt>
      <trkpt lat="42.1049810" lon="-8.6310260">
        <ele>27.1</ele>
        <time>2019-08-17T06:31:07Z</time>
      </trkpt>
      <trkpt lat="42.1050960" lon="-8.6309770">
        <ele>26.6</ele>
        <time>2019-08-17T06:31:09Z</time>
      </trkpt>
      <trkpt lat="42.1051530" lon="-8.6309580">
        <ele>26.4</ele>
        <time>2019-08-17T06:31:10Z</time>
      </trkpt>
      <trkpt lat="42.1052070" lon="-8.6309420">
        <ele>26.4</ele>
        <time>2019-08-17T06:31:11Z</time>
      </trkpt>
      <trkpt lat="42.1052680" lon="-8.6309320">
        <ele>26.4</ele>
        <time>2019-08-17T06:31:12Z</time>
      </trkpt>
      <trkpt lat="42.1053320" lon="-8.6309350">
        <ele>26.4</ele>
        <time>2019-08-17T06:31:13Z</time>
      </trkpt>
      <trkpt lat="42.1054450" lon="-8.6309480">
        <ele>26.4</ele>
        <time>2019-08-17T06:31:15Z</time>
      </trkpt>
      <trkpt lat="42.1057950" lon="-8.6309560">
        <ele>26.4</ele>
        <time>2019-08-17T06:31:22Z</time>
      </trkpt>
      <trkpt lat="42.1062000" lon="-8.6308840">
        <ele>26.5</ele>
        <time>2019-08-17T06:31:30Z</time>
      </trkpt>
      <trkpt lat="42.1063360" lon="-8.6308560">
        <ele>26.7</ele>
        <time>2019-08-17T06:31:33Z</time>
      </trkpt>
      <trkpt lat="42.1064510" lon="-8.6307670">
        <ele>27.1</ele>
        <time>2019-08-17T06:31:36Z</time>
      </trkpt>
      <trkpt lat="42.1065810" lon="-8.6306480">
        <ele>27.9</ele>
        <time>2019-08-17T06:31:40Z</time>
      </trkpt>
      <trkpt lat="42.1066120" lon="-8.6306200">
        <ele>27.9</ele>
        <time>2019-08-17T06:31:41Z</time>
      </trkpt>
      <trkpt lat="42.1066430" lon="-8.6305900">
        <ele>27.8</ele>
        <time>2019-08-17T06:31:42Z</time>
      </trkpt>
      <trkpt lat="42.1066780" lon="-8.6305600">
        <ele>27.8</ele>
        <time>2019-08-17T06:31:43Z</time>
      </trkpt>
      <trkpt lat="42.1067120" lon="-8.6305330">
        <ele>27.7</ele>
        <time>2019-08-17T06:31:44Z</time>
      </trkpt>
      <trkpt lat="42.1067480" lon="-8.6305090">
        <ele>27.7</ele>
        <time>2019-08-17T06:31:45Z</time>
      </trkpt>
      <trkpt lat="42.1068180" lon="-8.6304700">
        <ele>27.7</ele>
        <time>2019-08-17T06:31:47Z</time>
      </trkpt>
      <trkpt lat="42.1070030" lon="-8.6303170">
        <ele>27.7</ele>
        <time>2019-08-17T06:31:53Z</time>
      </trkpt>
      <trkpt lat="42.1070280" lon="-8.6302760">
        <ele>27.8</ele>
        <time>2019-08-17T06:31:54Z</time>
      </trkpt>
      <trkpt lat="42.1070490" lon="-8.6302420">
        <ele>27.9</ele>
        <time>2019-08-17T06:31:55Z</time>
      </trkpt>
      <trkpt lat="42.1070710" lon="-8.6302090">
        <ele>27.9</ele>
        <time>2019-08-17T06:31:56Z</time>
      </trkpt>
      <trkpt lat="42.1070910" lon="-8.6301770">
        <ele>27.9</ele>
        <time>2019-08-17T06:31:57Z</time>
      </trkpt>
      <trkpt lat="42.1071220" lon="-8.6300580">
        <ele>27.9</ele>
        <time>2019-08-17T06:32:00Z</time>
      </trkpt>
      <trkpt lat="42.1071190" lon="-8.6298100">
        <ele>28.1</ele>
        <time>2019-08-17T06:32:06Z</time>
      </trkpt>
      <trkpt lat="42.1071420" lon="-8.6294230">
        <ele>28.6</ele>
        <time>2019-08-17T06:32:15Z</time>
      </trkpt>
      <trkpt lat="42.1072040" lon="-8.6291150">
        <ele>28.5</ele>
        <time>2019-08-17T06:32:22Z</time>
      </trkpt>
      <trkpt lat="42.1073610" lon="-8.6287680">
        <ele>27.3</ele>
        <time>2019-08-17T06:32:29Z</time>
      </trkpt>
      <trkpt lat="42.1076300" lon="-8.6283550">
        <ele>26.9</ele>
        <time>2019-08-17T06:32:37Z</time>
      </trkpt>
      <trkpt lat="42.1077050" lon="-8.6282590">
        <ele>26.8</ele>
        <time>2019-08-17T06:32:39Z</time>
      </trkpt>
      <trkpt lat="42.1078440" lon="-8.6281790">
        <ele>26.8</ele>
        <time>2019-08-17T06:32:42Z</time>
      </trkpt>
      <trkpt lat="42.1080490" lon="-8.6281780">
        <ele>26.6</ele>
        <time>2019-08-17T06:32:46Z</time>
      </trkpt>
      <trkpt lat="42.1081990" lon="-8.6281780">
        <ele>26.3</ele>
        <time>2019-08-17T06:32:49Z</time>
      </trkpt>
      <trkpt lat="42.1083010" lon="-8.6281840">
        <ele>25.9</ele>
        <time>2019-08-17T06:32:51Z</time>
      </trkpt>
      <trkpt lat="42.1083560" lon="-8.6281850">
        <ele>25.7</ele>
        <time>2019-08-17T06:32:52Z</time>
      </trkpt>
      <trkpt lat="42.1084040" lon="-8.6281850">
        <ele>25.5</ele>
        <time>2019-08-17T06:32:53Z</time>
      </trkpt>
      <trkpt lat="42.1084540" lon="-8.6281780">
        <ele>25.2</ele>
        <time>2019-08-17T06:32:54Z</time>
      </trkpt>
      <trkpt lat="42.1085110" lon="-8.6281680">
        <ele>24.9</ele>
        <time>2019-08-17T06:32:55Z</time>
      </trkpt>
      <trkpt lat="42.1086450" lon="-8.6280540">
        <ele>24.1</ele>
        <time>2019-08-17T06:32:58Z</time>
      </trkpt>
      <trkpt lat="42.1086850" lon="-8.6278190">
        <ele>23.3</ele>
        <time>2019-08-17T06:33:01Z</time>
      </trkpt>
      <trkpt lat="42.1086890" lon="-8.6277400">
        <ele>23.2</ele>
        <time>2019-08-17T06:33:02Z</time>
      </trkpt>
      <trkpt lat="42.1086910" lon="-8.6276620">
        <ele>23.1</ele>
        <time>2019-08-17T06:33:03Z</time>
      </trkpt>
      <trkpt lat="42.1086930" lon="-8.6275870">
        <ele>23.1</ele>
        <time>2019-08-17T06:33:04Z</time>
      </trkpt>
      <trkpt lat="42.1086970" lon="-8.6275140">
        <ele>23.0</ele>
        <time>2019-08-17T06:33:05Z</time>
      </trkpt>
      <trkpt lat="42.1087010" lon="-8.6273690">
        <ele>23.0</ele>
        <time>2019-08-17T06:33:07Z</time>
      </trkpt>
      <trkpt lat="42.1087110" lon="-8.6266000">
        <ele>22.3</ele>
        <time>2019-08-17T06:33:17Z</time>
      </trkpt>
      <trkpt lat="42.1087290" lon="-8.6258570">
        <ele>23.1</ele>
        <time>2019-08-17T06:33:27Z</time>
      </trkpt>
      <trkpt lat="42.1087460" lon="-8.6256660">
        <ele>23.5</ele>
        <time>2019-08-17T06:33:30Z</time>
      </trkpt>
      <trkpt lat="42.1088110" lon="-8.6255850">
        <ele>23.6</ele>
        <time>2019-08-17T06:33:32Z</time>
      </trkpt>
      <trkpt lat="42.1089690" lon="-8.6255810">
        <ele>22.7</ele>
        <time>2019-08-17T06:33:35Z</time>
      </trkpt>
      <trkpt lat="42.1090210" lon="-8.6255870">
        <ele>22.6</ele>
        <time>2019-08-17T06:33:36Z</time>
      </trkpt>
      <trkpt lat="42.1094230" lon="-8.6256290">
        <ele>20.9</ele>
        <time>2019-08-17T06:33:43Z</time>
      </trkpt>
      <trkpt lat="42.1094890" lon="-8.6256340">
        <ele>20.6</ele>
        <time>2019-08-17T06:33:44Z</time>
      </trkpt>
      <trkpt lat="42.1095510" lon="-8.6256400">
        <ele>20.4</ele>
        <time>2019-08-17T06:33:45Z</time>
      </trkpt>
      <trkpt lat="42.1096210" lon="-8.6256460">
        <ele>20.3</ele>
        <time>2019-08-17T06:33:46Z</time>
      </trkpt>
      <trkpt lat="42.1096880" lon="-8.6256530">
        <ele>20.1</ele>
        <time>2019-08-17T06:33:47Z</time>
      </trkpt>
      <trkpt lat="42.1097580" lon="-8.6256600">
        <ele>20.0</ele>
        <time>2019-08-17T06:33:48Z</time>
      </trkpt>
      <trkpt lat="42.1098930" lon="-8.6256710">
        <ele>19.5</ele>
        <time>2019-08-17T06:33:50Z</time>
      </trkpt>
      <trkpt lat="42.1103220" lon="-8.6257000">
        <ele>18.2</ele>
        <time>2019-08-17T06:33:56Z</time>
      </trkpt>
      <trkpt lat="42.1103950" lon="-8.6257030">
        <ele>18.1</ele>
        <time>2019-08-17T06:33:57Z</time>
      </trkpt>
      <trkpt lat="42.1104740" lon="-8.6257030">
        <ele>18.0</ele>
        <time>2019-08-17T06:33:58Z</time>
      </trkpt>
      <trkpt lat="42.1105540" lon="-8.6257070">
        <ele>17.9</ele>
        <time>2019-08-17T06:33:59Z</time>
      </trkpt>
      <trkpt lat="42.1109010" lon="-8.6257280">
        <ele>17.1</ele>
        <time>2019-08-17T06:34:03Z</time>
      </trkpt>
      <trkpt lat="42.1109910" lon="-8.6257350">
        <ele>17.0</ele>
        <time>2019-08-17T06:34:04Z</time>
      </trkpt>
      <trkpt lat="42.1110860" lon="-8.6257390">
        <ele>17.0</ele>
        <time>2019-08-17T06:34:05Z</time>
      </trkpt>
      <trkpt lat="42.1111740" lon="-8.6257440">
        <ele>17.0</ele>
        <time>2019-08-17T06:34:06Z</time>
      </trkpt>
      <trkpt lat="42.1112690" lon="-8.6257490">
        <ele>17.0</ele>
        <time>2019-08-17T06:34:07Z</time>
      </trkpt>
      <trkpt lat="42.1117190" lon="-8.6257630">
        <ele>16.9</ele>
        <time>2019-08-17T06:34:12Z</time>
      </trkpt>
      <trkpt lat="42.1120690" lon="-8.6257810">
        <ele>16.5</ele>
        <time>2019-08-17T06:34:16Z</time>
      </trkpt>
      <trkpt lat="42.1121530" lon="-8.6257790">
        <ele>16.4</ele>
        <time>2019-08-17T06:34:17Z</time>
      </trkpt>
      <trkpt lat="42.1122360" lon="-8.6257750">
        <ele>16.3</ele>
        <time>2019-08-17T06:34:18Z</time>
      </trkpt>
      <trkpt lat="42.1123190" lon="-8.6257760">
        <ele>16.2</ele>
        <time>2019-08-17T06:34:19Z</time>
      </trkpt>
      <trkpt lat="42.1123990" lon="-8.6257800">
        <ele>16.1</ele>
        <time>2019-08-17T06:34:20Z</time>
      </trkpt>
      <trkpt lat="42.1129520" lon="-8.6258150">
        <ele>15.7</ele>
        <time>2019-08-17T06:34:27Z</time>
      </trkpt>
      <trkpt lat="42.1134620" lon="-8.6258590">
        <ele>15.8</ele>
        <time>2019-08-17T06:34:34Z</time>
      </trkpt>
      <trkpt lat="42.1140230" lon="-8.6258830">
        <ele>15.9</ele>
        <time>2019-08-17T06:34:42Z</time>
      </trkpt>
      <trkpt lat="42.1146200" lon="-8.6259180">
        <ele>16.1</ele>
        <time>2019-08-17T06:34:50Z</time>
      </trkpt>
      <trkpt lat="42.1152310" lon="-8.6259510">
        <ele>16.4</ele>
        <time>2019-08-17T06:34:58Z</time>
      </trkpt>
      <trkpt lat="42.1158500" lon="-8.6259770">
        <ele>16.7</ele>
        <time>2019-08-17T06:35:06Z</time>
      </trkpt>
      <trkpt lat="42.1159270" lon="-8.6259770">
        <ele>16.7</ele>
        <time>2019-08-17T06:35:07Z</time>
      </trkpt>
      <trkpt lat="42.1165310" lon="-8.6260030">
        <ele>16.9</ele>
        <time>2019-08-17T06:35:15Z</time>
      </trkpt>
      <trkpt lat="42.1166100" lon="-8.6260070">
        <ele>16.9</ele>
        <time>2019-08-17T06:35:16Z</time>
      </trkpt>
      <trkpt lat="42.1172160" lon="-8.6260380">
        <ele>17.5</ele>
        <time>2019-08-17T06:35:24Z</time>
      </trkpt>
      <trkpt lat="42.1172910" lon="-8.6260420">
        <ele>17.5</ele>
        <time>2019-08-17T06:35:25Z</time>
      </trkpt>
      <trkpt lat="42.1178930" lon="-8.6260770">
        <ele>17.5</ele>
        <time>2019-08-17T06:35:33Z</time>
      </trkpt>
      <trkpt lat="42.1181220" lon="-8.6260870">
        <ele>17.5</ele>
        <time>2019-08-17T06:35:36Z</time>
      </trkpt>
      <trkpt lat="42.1187350" lon="-8.6261270">
        <ele>17.5</ele>
        <time>2019-08-17T06:35:44Z</time>
      </trkpt>
      <trkpt lat="42.1189600" lon="-8.6261370">
        <ele>17.4</ele>
        <time>2019-08-17T06:35:47Z</time>
      </trkpt>
      <trkpt lat="42.1195480" lon="-8.6261760">
        <ele>17.2</ele>
        <time>2019-08-17T06:35:55Z</time>
      </trkpt>
      <trkpt lat="42.1197730" lon="-8.6261910">
        <ele>17.0</ele>
        <time>2019-08-17T06:35:58Z</time>
      </trkpt>
      <trkpt lat="42.1202880" lon="-8.6262220">
        <ele>16.4</ele>
        <time>2019-08-17T06:36:05Z</time>
      </trkpt>
      <trkpt lat="42.1203600" lon="-8.6262240">
        <ele>16.4</ele>
        <time>2019-08-17T06:36:06Z</time>
      </trkpt>
      <trkpt lat="42.1209300" lon="-8.6262420">
        <ele>16.3</ele>
        <time>2019-08-17T06:36:14Z</time>
      </trkpt>
      <trkpt lat="42.1214870" lon="-8.6262790">
        <ele>16.4</ele>
        <time>2019-08-17T06:36:22Z</time>
      </trkpt>
      <trkpt lat="42.1216960" lon="-8.6262980">
        <ele>16.4</ele>
        <time>2019-08-17T06:36:25Z</time>
      </trkpt>
      <trkpt lat="42.1221920" lon="-8.6263180">
        <ele>16.3</ele>
        <time>2019-08-17T06:36:32Z</time>
      </trkpt>
      <trkpt lat="42.1226960" lon="-8.6263590">
        <ele>16.1</ele>
        <time>2019-08-17T06:36:40Z</time>
      </trkpt>
      <trkpt lat="42.1232110" lon="-8.6263820">
        <ele>16.3</ele>
        <time>2019-08-17T06:36:48Z</time>
      </trkpt>
      <trkpt lat="42.1237260" lon="-8.6263900">
        <ele>16.5</ele>
        <time>2019-08-17T06:36:56Z</time>
      </trkpt>
      <trkpt lat="42.1242380" lon="-8.6264190">
        <ele>16.7</ele>
        <time>2019-08-17T06:37:04Z</time>
      </trkpt>
      <trkpt lat="42.1248250" lon="-8.6264410">
        <ele>17.3</ele>
        <time>2019-08-17T06:37:13Z</time>
      </trkpt>
      <trkpt lat="42.1249510" lon="-8.6264450">
        <ele>17.4</ele>
        <time>2019-08-17T06:37:15Z</time>
      </trkpt>
      <trkpt lat="42.1254480" lon="-8.6264680">
        <ele>17.8</ele>
        <time>2019-08-17T06:37:23Z</time>
      </trkpt>
      <trkpt lat="42.1259210" lon="-8.6265030">
        <ele>18.0</ele>
        <time>2019-08-17T06:37:31Z</time>
      </trkpt>
      <trkpt lat="42.1265050" lon="-8.6265200">
        <ele>18.1</ele>
        <time>2019-08-17T06:37:41Z</time>
      </trkpt>
      <trkpt lat="42.1265650" lon="-8.6265230">
        <ele>18.1</ele>
        <time>2019-08-17T06:37:42Z</time>
      </trkpt>
      <trkpt lat="42.1271030" lon="-8.6265440">
        <ele>18.2</ele>
        <time>2019-08-17T06:37:51Z</time>
      </trkpt>
      <trkpt lat="42.1275860" lon="-8.6265690">
        <ele>18.6</ele>
        <time>2019-08-17T06:37:59Z</time>
      </trkpt>
      <trkpt lat="42.1276460" lon="-8.6265740">
        <ele>18.7</ele>
        <time>2019-08-17T06:38:00Z</time>
      </trkpt>
      <trkpt lat="42.1277080" lon="-8.6265760">
        <ele>18.8</ele>
        <time>2019-08-17T06:38:01Z</time>
      </trkpt>
      <trkpt lat="42.1277720" lon="-8.6265820">
        <ele>18.9</ele>
        <time>2019-08-17T06:38:02Z</time>
      </trkpt>
      <trkpt lat="42.1278360" lon="-8.6265840">
        <ele>19.0</ele>
        <time>2019-08-17T06:38:03Z</time>
      </trkpt>
      <trkpt lat="42.1278990" lon="-8.6265860">
        <ele>19.1</ele>
        <time>2019-08-17T06:38:04Z</time>
      </trkpt>
      <trkpt lat="42.1281590" lon="-8.6265990">
        <ele>19.5</ele>
        <time>2019-08-17T06:38:08Z</time>
      </trkpt>
      <trkpt lat="42.1286400" lon="-8.6266280">
        <ele>20.7</ele>
        <time>2019-08-17T06:38:16Z</time>
      </trkpt>
      <trkpt lat="42.1290090" lon="-8.6266540">
        <ele>21.8</ele>
        <time>2019-08-17T06:38:23Z</time>
      </trkpt>
      <trkpt lat="42.1290570" lon="-8.6266530">
        <ele>22.0</ele>
        <time>2019-08-17T06:38:24Z</time>
      </trkpt>
      <trkpt lat="42.1291060" lon="-8.6266570">
        <ele>22.1</ele>
        <time>2019-08-17T06:38:25Z</time>
      </trkpt>
      <trkpt lat="42.1291550" lon="-8.6266640">
        <ele>22.1</ele>
        <time>2019-08-17T06:38:26Z</time>
      </trkpt>
      <trkpt lat="42.1292040" lon="-8.6266700">
        <ele>22.1</ele>
        <time>2019-08-17T06:38:27Z</time>
      </trkpt>
      <trkpt lat="42.1294000" lon="-8.6266850">
        <ele>22.1</ele>
        <time>2019-08-17T06:38:31Z</time>
      </trkpt>
      <trkpt lat="42.1296300" lon="-8.6266870">
        <ele>22.1</ele>
        <time>2019-08-17T06:38:36Z</time>
      </trkpt>
      <trkpt lat="42.1296760" lon="-8.6266830">
        <ele>22.1</ele>
        <time>2019-08-17T06:38:37Z</time>
      </trkpt>
      <trkpt lat="42.1297130" lon="-8.6266850">
        <ele>22.1</ele>
        <time>2019-08-17T06:38:38Z</time>
      </trkpt>
      <trkpt lat="42.1297570" lon="-8.6266910">
        <ele>22.1</ele>
        <time>2019-08-17T06:38:39Z</time>
      </trkpt>
      <trkpt lat="42.1298010" lon="-8.6266940">
        <ele>22.2</ele>
        <time>2019-08-17T06:38:40Z</time>
      </trkpt>
      <trkpt lat="42.1300160" lon="-8.6267130">
        <ele>22.3</ele>
        <time>2019-08-17T06:38:45Z</time>
      </trkpt>
      <trkpt lat="42.1303360" lon="-8.6267350">
        <ele>22.6</ele>
        <time>2019-08-17T06:38:53Z</time>
      </trkpt>
      <trkpt lat="42.1303780" lon="-8.6267450">
        <ele>22.7</ele>
        <time>2019-08-17T06:38:54Z</time>
      </trkpt>
      <trkpt lat="42.1304190" lon="-8.6267510">
        <ele>22.8</ele>
        <time>2019-08-17T06:38:55Z</time>
      </trkpt>
      <trkpt lat="42.1304610" lon="-8.6267540">
        <ele>22.9</ele>
        <time>2019-08-17T06:38:56Z</time>
      </trkpt>
      <trkpt lat="42.1305050" lon="-8.6267530">
        <ele>23.0</ele>
        <time>2019-08-17T06:38:57Z</time>
      </trkpt>
      <trkpt lat="42.1308420" lon="-8.6267790">
        <ele>24.0</ele>
        <time>2019-08-17T06:39:05Z</time>
      </trkpt>
      <trkpt lat="42.1311640" lon="-8.6267990">
        <ele>25.1</ele>
        <time>2019-08-17T06:39:13Z</time>
      </trkpt>
      <trkpt lat="42.1312850" lon="-8.6268030">
        <ele>25.6</ele>
        <time>2019-08-17T06:39:16Z</time>
      </trkpt>
      <trkpt lat="42.1313260" lon="-8.6268060">
        <ele>25.7</ele>
        <time>2019-08-17T06:39:17Z</time>
      </trkpt>
      <trkpt lat="42.1313670" lon="-8.6268080">
        <ele>25.9</ele>
        <time>2019-08-17T06:39:18Z</time>
      </trkpt>
      <trkpt lat="42.1314080" lon="-8.6268090">
        <ele>26.0</ele>
        <time>2019-08-17T06:39:19Z</time>
      </trkpt>
      <trkpt lat="42.1314470" lon="-8.6268140">
        <ele>26.1</ele>
        <time>2019-08-17T06:39:20Z</time>
      </trkpt>
      <trkpt lat="42.1315700" lon="-8.6268160">
        <ele>26.5</ele>
        <time>2019-08-17T06:39:23Z</time>
      </trkpt>
      <trkpt lat="42.1318990" lon="-8.6268220">
        <ele>27.0</ele>
        <time>2019-08-17T06:39:31Z</time>
      </trkpt>
      <trkpt lat="42.1322320" lon="-8.6268100">
        <ele>28.1</ele>
        <time>2019-08-17T06:39:39Z</time>
      </trkpt>
      <trkpt lat="42.1322670" lon="-8.6267920">
        <ele>28.2</ele>
        <time>2019-08-17T06:39:40Z</time>
      </trkpt>
      <trkpt lat="42.1322950" lon="-8.6267680">
        <ele>28.3</ele>
        <time>2019-08-17T06:39:41Z</time>
      </trkpt>
      <trkpt lat="42.1323220" lon="-8.6267420">
        <ele>28.4</ele>
        <time>2019-08-17T06:39:42Z</time>
      </trkpt>
      <trkpt lat="42.1323470" lon="-8.6267110">
        <ele>28.6</ele>
        <time>2019-08-17T06:39:43Z</time>
      </trkpt>
      <trkpt lat="42.1323640" lon="-8.6266780">
        <ele>28.7</ele>
        <time>2019-08-17T06:39:44Z</time>
      </trkpt>
      <trkpt lat="42.1324470" lon="-8.6264590">
        <ele>28.7</ele>
        <time>2019-08-17T06:39:50Z</time>
      </trkpt>
      <trkpt lat="42.1324800" lon="-8.6261720">
        <ele>28.8</ele>
        <time>2019-08-17T06:39:58Z</time>
      </trkpt>
      <trkpt lat="42.1325420" lon="-8.6259840">
        <ele>28.8</ele>
        <time>2019-08-17T06:40:03Z</time>
      </trkpt>
      <trkpt lat="42.1327050" lon="-8.6257840">
        <ele>29.3</ele>
        <time>2019-08-17T06:40:09Z</time>
      </trkpt>
      <trkpt lat="42.1329180" lon="-8.6256470">
        <ele>30.0</ele>
        <time>2019-08-17T06:40:16Z</time>
      </trkpt>
      <trkpt lat="42.1331390" lon="-8.6255050">
        <ele>30.3</ele>
        <time>2019-08-17T06:40:24Z</time>
      </trkpt>
      <trkpt lat="42.1333550" lon="-8.6253050">
        <ele>30.5</ele>
        <time>2019-08-17T06:40:32Z</time>
      </trkpt>
      <trkpt lat="42.1334760" lon="-8.6252020">
        <ele>30.6</ele>
        <time>2019-08-17T06:40:36Z</time>
      </trkpt>
      <trkpt lat="42.1334980" lon="-8.6252030">
        <ele>30.6</ele>
        <time>2019-08-17T06:40:37Z</time>
      </trkpt>
      <trkpt lat="42.1337270" lon="-8.6251290">
        <ele>30.1</ele>
        <time>2019-08-17T06:40:43Z</time>
      </trkpt>
      <trkpt lat="42.1340100" lon="-8.6249740">
        <ele>30.1</ele>
        <time>2019-08-17T06:40:50Z</time>
      </trkpt>
      <trkpt lat="42.1343680" lon="-8.6247960">
        <ele>29.4</ele>
        <time>2019-08-17T06:40:58Z</time>
      </trkpt>
      <trkpt lat="42.1346240" lon="-8.6246680">
        <ele>29.2</ele>
        <time>2019-08-17T06:41:03Z</time>
      </trkpt>
      <trkpt lat="42.1346740" lon="-8.6246430">
        <ele>29.1</ele>
        <time>2019-08-17T06:41:04Z</time>
      </trkpt>
      <trkpt lat="42.1347290" lon="-8.6246210">
        <ele>29.1</ele>
        <time>2019-08-17T06:41:05Z</time>
      </trkpt>
      <trkpt lat="42.1347840" lon="-8.6245960">
        <ele>29.1</ele>
        <time>2019-08-17T06:41:06Z</time>
      </trkpt>
      <trkpt lat="42.1348380" lon="-8.6245670">
        <ele>29.0</ele>
        <time>2019-08-17T06:41:07Z</time>
      </trkpt>
      <trkpt lat="42.1353150" lon="-8.6243400">
        <ele>28.5</ele>
        <time>2019-08-17T06:41:15Z</time>
      </trkpt>
      <trkpt lat="42.1358330" lon="-8.6240960">
        <ele>27.7</ele>
        <time>2019-08-17T06:41:24Z</time>
      </trkpt>
      <trkpt lat="42.1358860" lon="-8.6240700">
        <ele>27.6</ele>
        <time>2019-08-17T06:41:25Z</time>
      </trkpt>
      <trkpt lat="42.1359370" lon="-8.6240400">
        <ele>27.5</ele>
        <time>2019-08-17T06:41:26Z</time>
      </trkpt>
      <trkpt lat="42.1359860" lon="-8.6240170">
        <ele>27.3</ele>
        <time>2019-08-17T06:41:27Z</time>
      </trkpt>
      <trkpt lat="42.1360290" lon="-8.6239850">
        <ele>27.2</ele>
        <time>2019-08-17T06:41:28Z</time>
      </trkpt>
      <trkpt lat="42.1362250" lon="-8.6238760">
        <ele>26.6</ele>
        <time>2019-08-17T06:41:32Z</time>
      </trkpt>
      <trkpt lat="42.1366100" lon="-8.6236940">
        <ele>25.8</ele>
        <time>2019-08-17T06:41:40Z</time>
      </trkpt>
      <trkpt lat="42.1366490" lon="-8.6236550">
        <ele>25.8</ele>
        <time>2019-08-17T06:41:41Z</time>
      </trkpt>
      <trkpt lat="42.1367020" lon="-8.6235650">
        <ele>25.3</ele>
        <time>2019-08-17T06:41:43Z</time>
      </trkpt>
      <trkpt lat="42.1368080" lon="-8.6234450">
        <ele>25.0</ele>
        <time>2019-08-17T06:41:47Z</time>
      </trkpt>
      <trkpt lat="42.1369320" lon="-8.6234330">
        <ele>24.9</ele>
        <time>2019-08-17T06:41:52Z</time>
      </trkpt>
      <trkpt lat="42.1369480" lon="-8.6234310">
        <ele>24.9</ele>
        <time>2019-08-17T06:41:53Z</time>
      </trkpt>
      <trkpt lat="42.1369590" lon="-8.6234290">
        <ele>24.9</ele>
        <time>2019-08-17T06:41:54Z</time>
      </trkpt>
      <trkpt lat="42.1369740" lon="-8.6234260">
        <ele>24.8</ele>
        <time>2019-08-17T06:41:55Z</time>
      </trkpt>
      <trkpt lat="42.1369880" lon="-8.6234240">
        <ele>24.8</ele>
        <time>2019-08-17T06:41:56Z</time>
      </trkpt>
      <trkpt lat="42.1370000" lon="-8.6234270">
        <ele>24.8</ele>
        <time>2019-08-17T06:41:57Z</time>
      </trkpt>
      <trkpt lat="42.1370240" lon="-8.6234320">
        <ele>24.8</ele>
        <time>2019-08-17T06:41:59Z</time>
      </trkpt>
      <trkpt lat="42.1370510" lon="-8.6234120">
        <ele>24.8</ele>
        <time>2019-08-17T06:42:01Z</time>
      </trkpt>
      <trkpt lat="42.1370520" lon="-8.6233930">
        <ele>24.7</ele>
        <time>2019-08-17T06:42:02Z</time>
      </trkpt>
      <trkpt lat="42.1370450" lon="-8.6233800">
        <ele>24.7</ele>
        <time>2019-08-17T06:42:03Z</time>
      </trkpt>
      <trkpt lat="42.1370250" lon="-8.6233730">
        <ele>24.7</ele>
        <time>2019-08-17T06:42:04Z</time>
      </trkpt>
      <trkpt lat="42.1370010" lon="-8.6233770">
        <ele>24.7</ele>
        <time>2019-08-17T06:42:05Z</time>
      </trkpt>
      <trkpt lat="42.1369760" lon="-8.6233810">
        <ele>24.7</ele>
        <time>2019-08-17T06:42:06Z</time>
      </trkpt>
      <trkpt lat="42.1369300" lon="-8.6233970">
        <ele>24.7</ele>
        <time>2019-08-17T06:42:08Z</time>
      </trkpt>
      <trkpt lat="42.1368370" lon="-8.6234300">
        <ele>25.0</ele>
        <time>2019-08-17T06:42:12Z</time>
      </trkpt>
      <trkpt lat="42.1368150" lon="-8.6234340">
        <ele>25.1</ele>
        <time>2019-08-17T06:42:13Z</time>
      </trkpt>
      <trkpt lat="42.1367940" lon="-8.6234310">
        <ele>25.3</ele>
        <time>2019-08-17T06:42:14Z</time>
      </trkpt>
      <trkpt lat="42.1367790" lon="-8.6234160">
        <ele>25.5</ele>
        <time>2019-08-17T06:42:15Z</time>
      </trkpt>
      <trkpt lat="42.1367700" lon="-8.6233840">
        <ele>25.4</ele>
        <time>2019-08-17T06:42:16Z</time>
      </trkpt>
      <trkpt lat="42.1367670" lon="-8.6233490">
        <ele>25.4</ele>
        <time>2019-08-17T06:42:17Z</time>
      </trkpt>
      <trkpt lat="42.1367670" lon="-8.6232750">
        <ele>25.3</ele>
        <time>2019-08-17T06:42:19Z</time>
      </trkpt>
      <trkpt lat="42.1366500" lon="-8.6231940">
        <ele>25.2</ele>
        <time>2019-08-17T06:42:25Z</time>
      </trkpt>
      <trkpt lat="42.1365480" lon="-8.6232170">
        <ele>25.2</ele>
        <time>2019-08-17T06:42:28Z</time>
      </trkpt>
      <trkpt lat="42.1365260" lon="-8.6232190">
        <ele>25.2</ele>
        <time>2019-08-17T06:42:29Z</time>
      </trkpt>
      <trkpt lat="42.1365170" lon="-8.6232050">
        <ele>25.2</ele>
        <time>2019-08-17T06:42:30Z</time>
      </trkpt>
      <trkpt lat="42.1365190" lon="-8.6231850">
        <ele>25.2</ele>
        <time>2019-08-17T06:42:31Z</time>
      </trkpt>
      <trkpt lat="42.1365290" lon="-8.6231760">
        <ele>25.2</ele>
        <time>2019-08-17T06:42:32Z</time>
      </trkpt>
      <trkpt lat="42.1365580" lon="-8.6231710">
        <ele>25.2</ele>
        <time>2019-08-17T06:42:33Z</time>
      </trkpt>
      <trkpt lat="42.1365780" lon="-8.6231650">
        <ele>25.2</ele>
        <time>2019-08-17T06:42:34Z</time>
      </trkpt>
      <trkpt lat="42.1367340" lon="-8.6231600">
        <ele>25.2</ele>
        <time>2019-08-17T06:42:38Z</time>
      </trkpt>
      <trkpt lat="42.1367850" lon="-8.6231570">
        <ele>25.2</ele>
        <time>2019-08-17T06:42:39Z</time>
      </trkpt>
      <trkpt lat="42.1368490" lon="-8.6231560">
        <ele>25.0</ele>
        <time>2019-08-17T06:42:40Z</time>
      </trkpt>
      <trkpt lat="42.1369120" lon="-8.6231680">
        <ele>25.0</ele>
        <time>2019-08-17T06:42:41Z</time>
      </trkpt>
      <trkpt lat="42.1369720" lon="-8.6231780">
        <ele>25.0</ele>
        <time>2019-08-17T06:42:42Z</time>
      </trkpt>
      <trkpt lat="42.1370390" lon="-8.6231760">
        <ele>24.9</ele>
        <time>2019-08-17T06:42:43Z</time>
      </trkpt>
      <trkpt lat="42.1371110" lon="-8.6231810">
        <ele>24.8</ele>
        <time>2019-08-17T06:42:44Z</time>
      </trkpt>
      <trkpt lat="42.1371880" lon="-8.6231930">
        <ele>24.8</ele>
        <time>2019-08-17T06:42:45Z</time>
      </trkpt>
      <trkpt lat="42.1372500" lon="-8.6231430">
        <ele>24.7</ele>
        <time>2019-08-17T06:42:46Z</time>
      </trkpt>
      <trkpt lat="42.1373070" lon="-8.6231030">
        <ele>24.7</ele>
        <time>2019-08-17T06:42:47Z</time>
      </trkpt>
      <trkpt lat="42.1374630" lon="-8.6230100">
        <ele>24.4</ele>
        <time>2019-08-17T06:42:50Z</time>
      </trkpt>
      <trkpt lat="42.1375710" lon="-8.6229900">
        <ele>24.2</ele>
        <time>2019-08-17T06:42:52Z</time>
      </trkpt>
      <trkpt lat="42.1380010" lon="-8.6229270">
        <ele>23.1</ele>
        <time>2019-08-17T06:43:00Z</time>
      </trkpt>
      <trkpt lat="42.1381820" lon="-8.6228120">
        <ele>22.7</ele>
        <time>2019-08-17T06:43:04Z</time>
      </trkpt>
      <trkpt lat="42.1383010" lon="-8.6228020">
        <ele>22.6</ele>
        <time>2019-08-17T06:43:06Z</time>
      </trkpt>
      <trkpt lat="42.1383600" lon="-8.6228010">
        <ele>22.5</ele>
        <time>2019-08-17T06:43:07Z</time>
      </trkpt>
      <trkpt lat="42.1384200" lon="-8.6227980">
        <ele>22.5</ele>
        <time>2019-08-17T06:43:08Z</time>
      </trkpt>
      <trkpt lat="42.1384830" lon="-8.6227970">
        <ele>22.4</ele>
        <time>2019-08-17T06:43:09Z</time>
      </trkpt>
      <trkpt lat="42.1385420" lon="-8.6227970">
        <ele>22.3</ele>
        <time>2019-08-17T06:43:10Z</time>
      </trkpt>
      <trkpt lat="42.1390020" lon="-8.6227730">
        <ele>22.0</ele>
        <time>2019-08-17T06:43:17Z</time>
      </trkpt>
      <trkpt lat="42.1390680" lon="-8.6227790">
        <ele>22.0</ele>
        <time>2019-08-17T06:43:18Z</time>
      </trkpt>
      <trkpt lat="42.1393290" lon="-8.6227730">
        <ele>21.4</ele>
        <time>2019-08-17T06:43:22Z</time>
      </trkpt>
      <trkpt lat="42.1399230" lon="-8.6227300">
        <ele>20.7</ele>
        <time>2019-08-17T06:43:31Z</time>
      </trkpt>
      <trkpt lat="42.1403050" lon="-8.6226910">
        <ele>20.7</ele>
        <time>2019-08-17T06:43:37Z</time>
      </trkpt>
      <trkpt lat="42.1404820" lon="-8.6226800">
        <ele>20.7</ele>
        <time>2019-08-17T06:43:40Z</time>
      </trkpt>
      <trkpt lat="42.1410370" lon="-8.6226590">
        <ele>20.7</ele>
        <time>2019-08-17T06:43:49Z</time>
      </trkpt>
      <trkpt lat="42.1415680" lon="-8.6226190">
        <ele>20.7</ele>
        <time>2019-08-17T06:43:57Z</time>
      </trkpt>
      <trkpt lat="42.1421000" lon="-8.6225790">
        <ele>21.0</ele>
        <time>2019-08-17T06:44:05Z</time>
      </trkpt>
      <trkpt lat="42.1426330" lon="-8.6225210">
        <ele>21.4</ele>
        <time>2019-08-17T06:44:13Z</time>
      </trkpt>
      <trkpt lat="42.1432380" lon="-8.6224600">
        <ele>22.1</ele>
        <time>2019-08-17T06:44:22Z</time>
      </trkpt>
      <trkpt lat="42.1438000" lon="-8.6224260">
        <ele>22.3</ele>
        <time>2019-08-17T06:44:31Z</time>
      </trkpt>
      <trkpt lat="42.1443750" lon="-8.6223660">
        <ele>22.5</ele>
        <time>2019-08-17T06:44:40Z</time>
      </trkpt>
      <trkpt lat="42.1444440" lon="-8.6223570">
        <ele>22.5</ele>
        <time>2019-08-17T06:44:41Z</time>
      </trkpt>
      <trkpt lat="42.1449060" lon="-8.6223360">
        <ele>23.0</ele>
        <time>2019-08-17T06:44:48Z</time>
      </trkpt>
      <trkpt lat="42.1451420" lon="-8.6223370">
        <ele>23.6</ele>
        <time>2019-08-17T06:44:52Z</time>
      </trkpt>
      <trkpt lat="42.1451990" lon="-8.6223250">
        <ele>23.8</ele>
        <time>2019-08-17T06:44:53Z</time>
      </trkpt>
      <trkpt lat="42.1452520" lon="-8.6223140">
        <ele>23.9</ele>
        <time>2019-08-17T06:44:54Z</time>
      </trkpt>
      <trkpt lat="42.1453050" lon="-8.6223080">
        <ele>24.1</ele>
        <time>2019-08-17T06:44:55Z</time>
      </trkpt>
      <trkpt lat="42.1453570" lon="-8.6223130">
        <ele>24.2</ele>
        <time>2019-08-17T06:44:56Z</time>
      </trkpt>
      <trkpt lat="42.1455730" lon="-8.6223100">
        <ele>24.8</ele>
        <time>2019-08-17T06:45:00Z</time>
      </trkpt>
      <trkpt lat="42.1458430" lon="-8.6223080">
        <ele>25.4</ele>
        <time>2019-08-17T06:45:05Z</time>
      </trkpt>
      <trkpt lat="42.1458970" lon="-8.6223090">
        <ele>25.6</ele>
        <time>2019-08-17T06:45:06Z</time>
      </trkpt>
      <trkpt lat="42.1459520" lon="-8.6223070">
        <ele>25.7</ele>
        <time>2019-08-17T06:45:07Z</time>
      </trkpt>
      <trkpt lat="42.1460030" lon="-8.6223050">
        <ele>25.9</ele>
        <time>2019-08-17T06:45:08Z</time>
      </trkpt>
      <trkpt lat="42.1460560" lon="-8.6223040">
        <ele>25.9</ele>
        <time>2019-08-17T06:45:09Z</time>
      </trkpt>
      <trkpt lat="42.1464670" lon="-8.6222640">
        <ele>25.5</ele>
        <time>2019-08-17T06:45:17Z</time>
      </trkpt>
      <trkpt lat="42.1469060" lon="-8.6222360">
        <ele>25.4</ele>
        <time>2019-08-17T06:45:25Z</time>
      </trkpt>
      <trkpt lat="42.1474160" lon="-8.6222330">
        <ele>24.6</ele>
        <time>2019-08-17T06:45:33Z</time>
      </trkpt>
      <trkpt lat="42.1478760" lon="-8.6222300">
        <ele>24.6</ele>
        <time>2019-08-17T06:45:40Z</time>
      </trkpt>
      <trkpt lat="42.1484150" lon="-8.6221840">
        <ele>25.1</ele>
        <time>2019-08-17T06:45:49Z</time>
      </trkpt>
      <trkpt lat="42.1489320" lon="-8.6220570">
        <ele>25.6</ele>
        <time>2019-08-17T06:45:58Z</time>
      </trkpt>
      <trkpt lat="42.1494410" lon="-8.6218780">
        <ele>25.9</ele>
        <time>2019-08-17T06:46:07Z</time>
      </trkpt>
      <trkpt lat="42.1500100" lon="-8.6216760">
        <ele>26.3</ele>
        <time>2019-08-17T06:46:18Z</time>
      </trkpt>
      <trkpt lat="42.1500640" lon="-8.6216660">
        <ele>26.3</ele>
        <time>2019-08-17T06:46:19Z</time>
      </trkpt>
      <trkpt lat="42.1501140" lon="-8.6216600">
        <ele>26.3</ele>
        <time>2019-08-17T06:46:20Z</time>
      </trkpt>
      <trkpt lat="42.1501630" lon="-8.6216510">
        <ele>26.3</ele>
        <time>2019-08-17T06:46:21Z</time>
      </trkpt>
      <trkpt lat="42.1502120" lon="-8.6216350">
        <ele>26.4</ele>
        <time>2019-08-17T06:46:22Z</time>
      </trkpt>
      <trkpt lat="42.1503180" lon="-8.6216070">
        <ele>26.4</ele>
        <time>2019-08-17T06:46:24Z</time>
      </trkpt>
      <trkpt lat="42.1507790" lon="-8.6214770">
        <ele>26.4</ele>
        <time>2019-08-17T06:46:33Z</time>
      </trkpt>
      <trkpt lat="42.1512920" lon="-8.6213240">
        <ele>26.2</ele>
        <time>2019-08-17T06:46:44Z</time>
      </trkpt>
      <trkpt lat="42.1517670" lon="-8.6211670">
        <ele>26.2</ele>
        <time>2019-08-17T06:46:53Z</time>
      </trkpt>
      <trkpt lat="42.1522150" lon="-8.6209940">
        <ele>25.9</ele>
        <time>2019-08-17T06:47:02Z</time>
      </trkpt>
      <trkpt lat="42.1527190" lon="-8.6208350">
        <ele>25.4</ele>
        <time>2019-08-17T06:47:11Z</time>
      </trkpt>
      <trkpt lat="42.1532120" lon="-8.6206740">
        <ele>26.0</ele>
        <time>2019-08-17T06:47:19Z</time>
      </trkpt>
      <trkpt lat="42.1532760" lon="-8.6206640">
        <ele>25.9</ele>
        <time>2019-08-17T06:47:20Z</time>
      </trkpt>
      <trkpt lat="42.1533360" lon="-8.6206440">
        <ele>25.9</ele>
        <time>2019-08-17T06:47:21Z</time>
      </trkpt>
      <trkpt lat="42.1533970" lon="-8.6206270">
        <ele>25.8</ele>
        <time>2019-08-17T06:47:22Z</time>
      </trkpt>
      <trkpt lat="42.1534560" lon="-8.6206070">
        <ele>25.7</ele>
        <time>2019-08-17T06:47:23Z</time>
      </trkpt>
      <trkpt lat="42.1535130" lon="-8.6205860">
        <ele>25.6</ele>
        <time>2019-08-17T06:47:24Z</time>
      </trkpt>
      <trkpt lat="42.1537390" lon="-8.6204880">
        <ele>25.3</ele>
        <time>2019-08-17T06:47:28Z</time>
      </trkpt>
      <trkpt lat="42.1540250" lon="-8.6203550">
        <ele>25.1</ele>
        <time>2019-08-17T06:47:34Z</time>
      </trkpt>
      <trkpt lat="42.1541480" lon="-8.6203250">
        <ele>25.0</ele>
        <time>2019-08-17T06:47:37Z</time>
      </trkpt>
      <trkpt lat="42.1542290" lon="-8.6203430">
        <ele>25.0</ele>
        <time>2019-08-17T06:47:39Z</time>
      </trkpt>
      <trkpt lat="42.1543740" lon="-8.6204770">
        <ele>25.4</ele>
        <time>2019-08-17T06:47:43Z</time>
      </trkpt>
      <trkpt lat="42.1544070" lon="-8.6205220">
        <ele>25.4</ele>
        <time>2019-08-17T06:47:44Z</time>
      </trkpt>
      <trkpt lat="42.1544450" lon="-8.6205610">
        <ele>25.5</ele>
        <time>2019-08-17T06:47:45Z</time>
      </trkpt>
      <trkpt lat="42.1545970" lon="-8.6206740">
        <ele>26.1</ele>
        <time>2019-08-17T06:47:49Z</time>
      </trkpt>
      <trkpt lat="42.1548700" lon="-8.6208050">
        <ele>26.7</ele>
        <time>2019-08-17T06:47:56Z</time>
      </trkpt>
      <trkpt lat="42.1552220" lon="-8.6208830">
        <ele>27.2</ele>
        <time>2019-08-17T06:48:03Z</time>
      </trkpt>
      <trkpt lat="42.1553610" lon="-8.6208830">
        <ele>27.2</ele>
        <time>2019-08-17T06:48:07Z</time>
      </trkpt>
      <trkpt lat="42.1553520" lon="-8.6208830">
        <ele>27.1</ele>
        <time>2019-08-17T06:48:11Z</time>
      </trkpt>
      <trkpt lat="42.1552900" lon="-8.6207540">
        <ele>27.1</ele>
        <time>2019-08-17T06:48:16Z</time>
      </trkpt>
      <trkpt lat="42.1553750" lon="-8.6206160">
        <ele>27.2</ele>
        <time>2019-08-17T06:48:20Z</time>
      </trkpt>
      <trkpt lat="42.1554050" lon="-8.6205840">
        <ele>27.3</ele>
        <time>2019-08-17T06:48:21Z</time>
      </trkpt>
      <trkpt lat="42.1554420" lon="-8.6205430">
        <ele>27.4</ele>
        <time>2019-08-17T06:48:22Z</time>
      </trkpt>
      <trkpt lat="42.1554760" lon="-8.6205130">
        <ele>27.5</ele>
        <time>2019-08-17T06:48:23Z</time>
      </trkpt>
      <trkpt lat="42.1555060" lon="-8.6204820">
        <ele>27.6</ele>
        <time>2019-08-17T06:48:24Z</time>
      </trkpt>
      <trkpt lat="42.1555640" lon="-8.6204420">
        <ele>27.9</ele>
        <time>2019-08-17T06:48:26Z</time>
      </trkpt>
      <trkpt lat="42.1557670" lon="-8.6202040">
        <ele>28.1</ele>
        <time>2019-08-17T06:48:32Z</time>
      </trkpt>
      <trkpt lat="42.1559700" lon="-8.6199690">
        <ele>28.2</ele>
        <time>2019-08-17T06:48:38Z</time>
      </trkpt>
      <trkpt lat="42.1560630" lon="-8.6198750">
        <ele>28.3</ele>
        <time>2019-08-17T06:48:41Z</time>
      </trkpt>
      <trkpt lat="42.1561680" lon="-8.6198420">
        <ele>28.4</ele>
        <time>2019-08-17T06:48:43Z</time>
      </trkpt>
      <trkpt lat="42.1563700" lon="-8.6198330">
        <ele>28.5</ele>
        <time>2019-08-17T06:48:47Z</time>
      </trkpt>
      <trkpt lat="42.1564110" lon="-8.6198210">
        <ele>28.5</ele>
        <time>2019-08-17T06:48:48Z</time>
      </trkpt>
      <trkpt lat="42.1566220" lon="-8.6198240">
        <ele>28.7</ele>
        <time>2019-08-17T06:48:52Z</time>
      </trkpt>
      <trkpt lat="42.1569100" lon="-8.6198060">
        <ele>28.7</ele>
        <time>2019-08-17T06:48:58Z</time>
      </trkpt>
      <trkpt lat="42.1570030" lon="-8.6198320">
        <ele>28.7</ele>
        <time>2019-08-17T06:49:00Z</time>
      </trkpt>
      <trkpt lat="42.1573060" lon="-8.6199660">
        <ele>28.6</ele>
        <time>2019-08-17T06:49:06Z</time>
      </trkpt>
      <trkpt lat="42.1574340" lon="-8.6200000">
        <ele>28.8</ele>
        <time>2019-08-17T06:49:09Z</time>
      </trkpt>
      <trkpt lat="42.1576430" lon="-8.6200040">
        <ele>29.2</ele>
        <time>2019-08-17T06:49:14Z</time>
      </trkpt>
      <trkpt lat="42.1579350" lon="-8.6200280">
        <ele>30.0</ele>
        <time>2019-08-17T06:49:21Z</time>
      </trkpt>
      <trkpt lat="42.1581710" lon="-8.6200890">
        <ele>30.7</ele>
        <time>2019-08-17T06:49:28Z</time>
      </trkpt>
      <trkpt lat="42.1583130" lon="-8.6201170">
        <ele>31.3</ele>
        <time>2019-08-17T06:49:32Z</time>
      </trkpt>
      <trkpt lat="42.1583480" lon="-8.6201260">
        <ele>31.3</ele>
        <time>2019-08-17T06:49:33Z</time>
      </trkpt>
      <trkpt lat="42.1583770" lon="-8.6201330">
        <ele>31.7</ele>
        <time>2019-08-17T06:49:34Z</time>
      </trkpt>
      <trkpt lat="42.1584150" lon="-8.6201490">
        <ele>32.1</ele>
        <time>2019-08-17T06:49:35Z</time>
      </trkpt>
      <trkpt lat="42.1584520" lon="-8.6201590">
        <ele>32.4</ele>
        <time>2019-08-17T06:49:36Z</time>
      </trkpt>
      <trkpt lat="42.1585850" lon="-8.6201720">
        <ele>33.3</ele>
        <time>2019-08-17T06:49:40Z</time>
      </trkpt>
      <trkpt lat="42.1586260" lon="-8.6201850">
        <ele>33.5</ele>
        <time>2019-08-17T06:49:41Z</time>
      </trkpt>
      <trkpt lat="42.1586610" lon="-8.6201830">
        <ele>33.7</ele>
        <time>2019-08-17T06:49:42Z</time>
      </trkpt>
      <trkpt lat="42.1586900" lon="-8.6201810">
        <ele>33.8</ele>
        <time>2019-08-17T06:49:43Z</time>
      </trkpt>
      <trkpt lat="42.1587160" lon="-8.6201780">
        <ele>33.9</ele>
        <time>2019-08-17T06:49:44Z</time>
      </trkpt>
      <trkpt lat="42.1588780" lon="-8.6201680">
        <ele>34.1</ele>
        <time>2019-08-17T06:49:49Z</time>
      </trkpt>
      <trkpt lat="42.1590630" lon="-8.6201630">
        <ele>34.7</ele>
        <time>2019-08-17T06:49:56Z</time>
      </trkpt>
      <trkpt lat="42.1590910" lon="-8.6201740">
        <ele>34.8</ele>
        <time>2019-08-17T06:49:57Z</time>
      </trkpt>
      <trkpt lat="42.1591320" lon="-8.6202000">
        <ele>34.8</ele>
        <time>2019-08-17T06:49:58Z</time>
      </trkpt>
      <trkpt lat="42.1591670" lon="-8.6202270">
        <ele>34.7</ele>
        <time>2019-08-17T06:49:59Z</time>
      </trkpt>
      <trkpt lat="42.1591820" lon="-8.6202670">
        <ele>34.6</ele>
        <time>2019-08-17T06:50:00Z</time>
      </trkpt>
      <trkpt lat="42.1592060" lon="-8.6203070">
        <ele>34.4</ele>
        <time>2019-08-17T06:50:01Z</time>
      </trkpt>
      <trkpt lat="42.1593030" lon="-8.6205200">
        <ele>33.7</ele>
        <time>2019-08-17T06:50:06Z</time>
      </trkpt>
      <trkpt lat="42.1593460" lon="-8.6205570">
        <ele>33.7</ele>
        <time>2019-08-17T06:50:08Z</time>
      </trkpt>
      <trkpt lat="42.1593800" lon="-8.6205570">
        <ele>33.6</ele>
        <time>2019-08-17T06:50:09Z</time>
      </trkpt>
      <trkpt lat="42.1594120" lon="-8.6205580">
        <ele>33.5</ele>
        <time>2019-08-17T06:50:10Z</time>
      </trkpt>
      <trkpt lat="42.1594410" lon="-8.6205700">
        <ele>33.4</ele>
        <time>2019-08-17T06:50:11Z</time>
      </trkpt>
      <trkpt lat="42.1594590" lon="-8.6205930">
        <ele>33.3</ele>
        <time>2019-08-17T06:50:12Z</time>
      </trkpt>
      <trkpt lat="42.1594760" lon="-8.6206240">
        <ele>33.3</ele>
        <time>2019-08-17T06:50:13Z</time>
      </trkpt>
      <trkpt lat="42.1595310" lon="-8.6207430">
        <ele>32.6</ele>
        <time>2019-08-17T06:50:17Z</time>
      </trkpt>
      <trkpt lat="42.1595440" lon="-8.6207690">
        <ele>32.5</ele>
        <time>2019-08-17T06:50:18Z</time>
      </trkpt>
      <trkpt lat="42.1595520" lon="-8.6207930">
        <ele>32.3</ele>
        <time>2019-08-17T06:50:19Z</time>
      </trkpt>
      <trkpt lat="42.1595630" lon="-8.6208270">
        <ele>32.1</ele>
        <time>2019-08-17T06:50:20Z</time>
      </trkpt>
      <trkpt lat="42.1595730" lon="-8.6208630">
        <ele>31.9</ele>
        <time>2019-08-17T06:50:21Z</time>
      </trkpt>
      <trkpt lat="42.1596530" lon="-8.6210120">
        <ele>30.8</ele>
        <time>2019-08-17T06:50:27Z</time>
      </trkpt>
      <trkpt lat="42.1597470" lon="-8.6210210">
        <ele>30.8</ele>
        <time>2019-08-17T06:50:32Z</time>
      </trkpt>
      <trkpt lat="42.1599270" lon="-8.6210140">
        <ele>30.8</ele>
        <time>2019-08-17T06:50:39Z</time>
      </trkpt>
      <trkpt lat="42.1600510" lon="-8.6210190">
        <ele>30.8</ele>
        <time>2019-08-17T06:50:43Z</time>
      </trkpt>
      <trkpt lat="42.1600830" lon="-8.6210150">
        <ele>30.8</ele>
        <time>2019-08-17T06:50:44Z</time>
      </trkpt>
      <trkpt lat="42.1601200" lon="-8.6210130">
        <ele>30.8</ele>
        <time>2019-08-17T06:50:45Z</time>
      </trkpt>
      <trkpt lat="42.1601560" lon="-8.6210100">
        <ele>30.8</ele>
        <time>2019-08-17T06:50:46Z</time>
      </trkpt>
      <trkpt lat="42.1601830" lon="-8.6210200">
        <ele>30.8</ele>
        <time>2019-08-17T06:50:47Z</time>
      </trkpt>
      <trkpt lat="42.1603930" lon="-8.6210360">
        <ele>30.6</ele>
        <time>2019-08-17T06:50:55Z</time>
      </trkpt>
      <trkpt lat="42.1605190" lon="-8.6210750">
        <ele>30.6</ele>
        <time>2019-08-17T06:50:59Z</time>
      </trkpt>
      <trkpt lat="42.1605670" lon="-8.6210800">
        <ele>30.7</ele>
        <time>2019-08-17T06:51:01Z</time>
      </trkpt>
      <trkpt lat="42.1607760" lon="-8.6210780">
        <ele>31.1</ele>
        <time>2019-08-17T06:51:09Z</time>
      </trkpt>
      <trkpt lat="42.1609190" lon="-8.6210560">
        <ele>31.3</ele>
        <time>2019-08-17T06:51:15Z</time>
      </trkpt>
      <trkpt lat="42.1611560" lon="-8.6210070">
        <ele>32.4</ele>
        <time>2019-08-17T06:51:23Z</time>
      </trkpt>
      <trkpt lat="42.1613850" lon="-8.6210370">
        <ele>33.4</ele>
        <time>2019-08-17T06:51:30Z</time>
      </trkpt>
      <trkpt lat="42.1616000" lon="-8.6210720">
        <ele>34.1</ele>
        <time>2019-08-17T06:51:36Z</time>
      </trkpt>
      <trkpt lat="42.1616260" lon="-8.6210840">
        <ele>34.1</ele>
        <time>2019-08-17T06:51:37Z</time>
      </trkpt>
      <trkpt lat="42.1616560" lon="-8.6210980">
        <ele>34.2</ele>
        <time>2019-08-17T06:51:38Z</time>
      </trkpt>
      <trkpt lat="42.1616720" lon="-8.6211080">
        <ele>34.2</ele>
        <time>2019-08-17T06:51:39Z</time>
      </trkpt>
      <trkpt lat="42.1616990" lon="-8.6211130">
        <ele>34.2</ele>
        <time>2019-08-17T06:51:40Z</time>
      </trkpt>
      <trkpt lat="42.1617610" lon="-8.6210880">
        <ele>34.2</ele>
        <time>2019-08-17T06:51:44Z</time>
      </trkpt>
      <trkpt lat="42.1617590" lon="-8.6210980">
        <ele>34.2</ele>
        <time>2019-08-17T06:53:58Z</time>
      </trkpt>
      <trkpt lat="42.1617580" lon="-8.6211310">
        <ele>34.2</ele>
        <time>2019-08-17T06:53:59Z</time>
      </trkpt>
      <trkpt lat="42.1617730" lon="-8.6211470">
        <ele>34.2</ele>
        <time>2019-08-17T06:54:00Z</time>
      </trkpt>
      <trkpt lat="42.1618810" lon="-8.6212070">
        <ele>34.1</ele>
        <time>2019-08-17T06:54:05Z</time>
      </trkpt>
      <trkpt lat="42.1619070" lon="-8.6212090">
        <ele>34.1</ele>
        <time>2019-08-17T06:54:06Z</time>
      </trkpt>
      <trkpt lat="42.1619710" lon="-8.6212440">
        <ele>34.1</ele>
        <time>2019-08-17T06:54:09Z</time>
      </trkpt>
      <trkpt lat="42.1621320" lon="-8.6212890">
        <ele>34.3</ele>
        <time>2019-08-17T06:54:16Z</time>
      </trkpt>
      <trkpt lat="42.1622830" lon="-8.6212630">
        <ele>34.5</ele>
        <time>2019-08-17T06:54:22Z</time>
      </trkpt>
      <trkpt lat="42.1624540" lon="-8.6212460">
        <ele>34.7</ele>
        <time>2019-08-17T06:54:28Z</time>
      </trkpt>
      <trkpt lat="42.1625970" lon="-8.6214300">
        <ele>34.7</ele>
        <time>2019-08-17T06:54:32Z</time>
      </trkpt>
      <trkpt lat="42.1626080" lon="-8.6214450">
        <ele>34.7</ele>
        <time>2019-08-17T06:54:33Z</time>
      </trkpt>
      <trkpt lat="42.1626160" lon="-8.6214420">
        <ele>34.7</ele>
        <time>2019-08-17T06:54:34Z</time>
      </trkpt>
      <trkpt lat="42.1626340" lon="-8.6214420">
        <ele>34.7</ele>
        <time>2019-08-17T06:54:35Z</time>
      </trkpt>
      <trkpt lat="42.1626370" lon="-8.6214520">
        <ele>34.7</ele>
        <time>2019-08-17T06:54:36Z</time>
      </trkpt>
      <trkpt lat="42.1626540" lon="-8.6214670">
        <ele>34.7</ele>
        <time>2019-08-17T06:54:37Z</time>
      </trkpt>
      <trkpt lat="42.1627330" lon="-8.6214960">
        <ele>34.8</ele>
        <time>2019-08-17T06:54:39Z</time>
      </trkpt>
      <trkpt lat="42.1629150" lon="-8.6214640">
        <ele>34.9</ele>
        <time>2019-08-17T06:54:44Z</time>
      </trkpt>
      <trkpt lat="42.1631690" lon="-8.6213660">
        <ele>34.7</ele>
        <time>2019-08-17T06:54:50Z</time>
      </trkpt>
      <trkpt lat="42.1635600" lon="-8.6211930">
        <ele>34.3</ele>
        <time>2019-08-17T06:54:59Z</time>
      </trkpt>
      <trkpt lat="42.1638840" lon="-8.6210570">
        <ele>33.6</ele>
        <time>2019-08-17T06:55:06Z</time>
      </trkpt>
      <trkpt lat="42.1640750" lon="-8.6210570">
        <ele>33.4</ele>
        <time>2019-08-17T06:55:11Z</time>
      </trkpt>
      <trkpt lat="42.1642620" lon="-8.6210450">
        <ele>33.4</ele>
        <time>2019-08-17T06:55:16Z</time>
      </trkpt>
      <trkpt lat="42.1643000" lon="-8.6210420">
        <ele>33.5</ele>
        <time>2019-08-17T06:55:17Z</time>
      </trkpt>
      <trkpt lat="42.1643290" lon="-8.6210440">
        <ele>33.5</ele>
        <time>2019-08-17T06:55:18Z</time>
      </trkpt>
      <trkpt lat="42.1643660" lon="-8.6210390">
        <ele>33.5</ele>
        <time>2019-08-17T06:55:19Z</time>
      </trkpt>
      <trkpt lat="42.1644040" lon="-8.6210380">
        <ele>33.6</ele>
        <time>2019-08-17T06:55:20Z</time>
      </trkpt>
      <trkpt lat="42.1646400" lon="-8.6209900">
        <ele>34.0</ele>
        <time>2019-08-17T06:55:26Z</time>
      </trkpt>
      <trkpt lat="42.1650020" lon="-8.6208350">
        <ele>34.8</ele>
        <time>2019-08-17T06:55:35Z</time>
      </trkpt>
      <trkpt lat="42.1654500" lon="-8.6207110">
        <ele>35.7</ele>
        <time>2019-08-17T06:55:44Z</time>
      </trkpt>
      <trkpt lat="42.1655680" lon="-8.6206610">
        <ele>36.1</ele>
        <time>2019-08-17T06:55:47Z</time>
      </trkpt>
      <trkpt lat="42.1656080" lon="-8.6206510">
        <ele>36.3</ele>
        <time>2019-08-17T06:55:48Z</time>
      </trkpt>
      <trkpt lat="42.1656420" lon="-8.6206390">
        <ele>36.4</ele>
        <time>2019-08-17T06:55:49Z</time>
      </trkpt>
      <trkpt lat="42.1656740" lon="-8.6206240">
        <ele>36.5</ele>
        <time>2019-08-17T06:55:50Z</time>
      </trkpt>
      <trkpt lat="42.1657020" lon="-8.6206020">
        <ele>36.7</ele>
        <time>2019-08-17T06:55:51Z</time>
      </trkpt>
      <trkpt lat="42.1658330" lon="-8.6204680">
        <ele>37.4</ele>
        <time>2019-08-17T06:55:56Z</time>
      </trkpt>
      <trkpt lat="42.1660220" lon="-8.6203330">
        <ele>38.6</ele>
        <time>2019-08-17T06:56:02Z</time>
      </trkpt>
      <trkpt lat="42.1661590" lon="-8.6203980">
        <ele>38.6</ele>
        <time>2019-08-17T06:56:06Z</time>
      </trkpt>
      <trkpt lat="42.1661960" lon="-8.6204230">
        <ele>38.6</ele>
        <time>2019-08-17T06:56:07Z</time>
      </trkpt>
      <trkpt lat="42.1662330" lon="-8.6204420">
        <ele>38.7</ele>
        <time>2019-08-17T06:56:08Z</time>
      </trkpt>
      <trkpt lat="42.1662750" lon="-8.6204510">
        <ele>38.7</ele>
        <time>2019-08-17T06:56:09Z</time>
      </trkpt>
      <trkpt lat="42.1663180" lon="-8.6204450">
        <ele>38.7</ele>
        <time>2019-08-17T06:56:10Z</time>
      </trkpt>
      <trkpt lat="42.1663910" lon="-8.6204300">
        <ele>38.8</ele>
        <time>2019-08-17T06:56:12Z</time>
      </trkpt>
      <trkpt lat="42.1666950" lon="-8.6203490">
        <ele>40.2</ele>
        <time>2019-08-17T06:56:20Z</time>
      </trkpt>
      <trkpt lat="42.1668100" lon="-8.6203170">
        <ele>40.6</ele>
        <time>2019-08-17T06:56:23Z</time>
      </trkpt>
      <trkpt lat="42.1668550" lon="-8.6203000">
        <ele>40.8</ele>
        <time>2019-08-17T06:56:24Z</time>
      </trkpt>
      <trkpt lat="42.1668960" lon="-8.6202820">
        <ele>40.9</ele>
        <time>2019-08-17T06:56:25Z</time>
      </trkpt>
      <trkpt lat="42.1669390" lon="-8.6202610">
        <ele>41.0</ele>
        <time>2019-08-17T06:56:26Z</time>
      </trkpt>
      <trkpt lat="42.1669790" lon="-8.6202400">
        <ele>41.1</ele>
        <time>2019-08-17T06:56:27Z</time>
      </trkpt>
      <trkpt lat="42.1670180" lon="-8.6202250">
        <ele>41.2</ele>
        <time>2019-08-17T06:56:28Z</time>
      </trkpt>
      <trkpt lat="42.1673200" lon="-8.6201670">
        <ele>41.8</ele>
        <time>2019-08-17T06:56:36Z</time>
      </trkpt>
      <trkpt lat="42.1676200" lon="-8.6200460">
        <ele>42.7</ele>
        <time>2019-08-17T06:56:43Z</time>
      </trkpt>
      <trkpt lat="42.1676610" lon="-8.6200360">
        <ele>42.8</ele>
        <time>2019-08-17T06:56:44Z</time>
      </trkpt>
      <trkpt lat="42.1677000" lon="-8.6200270">
        <ele>42.8</ele>
        <time>2019-08-17T06:56:45Z</time>
      </trkpt>
      <trkpt lat="42.1677400" lon="-8.6200170">
        <ele>42.9</ele>
        <time>2019-08-17T06:56:46Z</time>
      </trkpt>
      <trkpt lat="42.1677820" lon="-8.6200080">
        <ele>42.9</ele>
        <time>2019-08-17T06:56:47Z</time>
      </trkpt>
      <trkpt lat="42.1679180" lon="-8.6199750">
        <ele>43.1</ele>
        <time>2019-08-17T06:56:50Z</time>
      </trkpt>
      <trkpt lat="42.1680690" lon="-8.6199260">
        <ele>43.2</ele>
        <time>2019-08-17T06:56:53Z</time>
      </trkpt>
      <trkpt lat="42.1684860" lon="-8.6198010">
        <ele>43.9</ele>
        <time>2019-08-17T06:57:02Z</time>
      </trkpt>
      <trkpt lat="42.1688570" lon="-8.6196990">
        <ele>44.8</ele>
        <time>2019-08-17T06:57:11Z</time>
      </trkpt>
      <trkpt lat="42.1690810" lon="-8.6196190">
        <ele>45.8</ele>
        <time>2019-08-17T06:57:18Z</time>
      </trkpt>
      <trkpt lat="42.1693910" lon="-8.6195400">
        <ele>46.7</ele>
        <time>2019-08-17T06:57:26Z</time>
      </trkpt>
      <trkpt lat="42.1696300" lon="-8.6194990">
        <ele>46.6</ele>
        <time>2019-08-17T06:57:32Z</time>
      </trkpt>
      <trkpt lat="42.1696680" lon="-8.6194910">
        <ele>46.5</ele>
        <time>2019-08-17T06:57:33Z</time>
      </trkpt>
      <trkpt lat="42.1697000" lon="-8.6194820">
        <ele>46.5</ele>
        <time>2019-08-17T06:57:34Z</time>
      </trkpt>
      <trkpt lat="42.1697270" lon="-8.6194740">
        <ele>46.4</ele>
        <time>2019-08-17T06:57:35Z</time>
      </trkpt>
      <trkpt lat="42.1697400" lon="-8.6194750">
        <ele>46.4</ele>
        <time>2019-08-17T06:57:36Z</time>
      </trkpt>
      <trkpt lat="42.1697450" lon="-8.6194730">
        <ele>46.4</ele>
        <time>2019-08-17T06:57:38Z</time>
      </trkpt>
      <trkpt lat="42.1696400" lon="-8.6194920">
        <ele>46.6</ele>
        <time>2019-08-17T06:57:44Z</time>
      </trkpt>
      <trkpt lat="42.1695910" lon="-8.6195330">
        <ele>46.7</ele>
        <time>2019-08-17T06:57:46Z</time>
      </trkpt>
      <trkpt lat="42.1695710" lon="-8.6194490">
        <ele>47.2</ele>
        <time>2019-08-17T06:57:49Z</time>
      </trkpt>
      <trkpt lat="42.1695760" lon="-8.6194060">
        <ele>47.4</ele>
        <time>2019-08-17T06:57:50Z</time>
      </trkpt>
      <trkpt lat="42.1696330" lon="-8.6190590">
        <ele>48.3</ele>
        <time>2019-08-17T06:57:58Z</time>
      </trkpt>
      <trkpt lat="42.1696960" lon="-8.6188590">
        <ele>48.7</ele>
        <time>2019-08-17T06:58:03Z</time>
      </trkpt>
      <trkpt lat="42.1697120" lon="-8.6188220">
        <ele>48.8</ele>
        <time>2019-08-17T06:58:04Z</time>
      </trkpt>
      <trkpt lat="42.1697280" lon="-8.6187890">
        <ele>48.9</ele>
        <time>2019-08-17T06:58:05Z</time>
      </trkpt>
      <trkpt lat="42.1697530" lon="-8.6187680">
        <ele>48.9</ele>
        <time>2019-08-17T06:58:06Z</time>
      </trkpt>
      <trkpt lat="42.1697870" lon="-8.6187580">
        <ele>48.8</ele>
        <time>2019-08-17T06:58:07Z</time>
      </trkpt>
      <trkpt lat="42.1698700" lon="-8.6187820">
        <ele>48.8</ele>
        <time>2019-08-17T06:58:09Z</time>
      </trkpt>
      <trkpt lat="42.1699100" lon="-8.6187780">
        <ele>48.8</ele>
        <time>2019-08-17T06:58:10Z</time>
      </trkpt>
      <trkpt lat="42.1701520" lon="-8.6187060">
        <ele>48.3</ele>
        <time>2019-08-17T06:58:16Z</time>
      </trkpt>
      <trkpt lat="42.1704450" lon="-8.6185270">
        <ele>47.2</ele>
        <time>2019-08-17T06:58:24Z</time>
      </trkpt>
      <trkpt lat="42.1707410" lon="-8.6183800">
        <ele>46.3</ele>
        <time>2019-08-17T06:58:31Z</time>
      </trkpt>
      <trkpt lat="42.1710240" lon="-8.6183060">
        <ele>46.0</ele>
        <time>2019-08-17T06:58:38Z</time>
      </trkpt>
      <trkpt lat="42.1711150" lon="-8.6182780">
        <ele>46.0</ele>
        <time>2019-08-17T06:58:40Z</time>
      </trkpt>
      <trkpt lat="42.1712550" lon="-8.6182090">
        <ele>46.0</ele>
        <time>2019-08-17T06:58:43Z</time>
      </trkpt>
      <trkpt lat="42.1716910" lon="-8.6181250">
        <ele>46.2</ele>
        <time>2019-08-17T06:58:52Z</time>
      </trkpt>
      <trkpt lat="42.1719920" lon="-8.6180150">
        <ele>47.1</ele>
        <time>2019-08-17T06:59:00Z</time>
      </trkpt>
      <trkpt lat="42.1720310" lon="-8.6179980">
        <ele>47.3</ele>
        <time>2019-08-17T06:59:01Z</time>
      </trkpt>
      <trkpt lat="42.1720700" lon="-8.6179810">
        <ele>47.4</ele>
        <time>2019-08-17T06:59:02Z</time>
      </trkpt>
      <trkpt lat="42.1721070" lon="-8.6179620">
        <ele>47.5</ele>
        <time>2019-08-17T06:59:03Z</time>
      </trkpt>
      <trkpt lat="42.1721440" lon="-8.6179410">
        <ele>47.7</ele>
        <time>2019-08-17T06:59:04Z</time>
      </trkpt>
      <trkpt lat="42.1723170" lon="-8.6178080">
        <ele>48.6</ele>
        <time>2019-08-17T06:59:09Z</time>
      </trkpt>
      <trkpt lat="42.1724170" lon="-8.6177320">
        <ele>49.3</ele>
        <time>2019-08-17T06:59:12Z</time>
      </trkpt>
      <trkpt lat="42.1724490" lon="-8.6177030">
        <ele>49.6</ele>
        <time>2019-08-17T06:59:13Z</time>
      </trkpt>
      <trkpt lat="42.1724770" lon="-8.6176740">
        <ele>49.8</ele>
        <time>2019-08-17T06:59:14Z</time>
      </trkpt>
      <trkpt lat="42.1725060" lon="-8.6176470">
        <ele>50.0</ele>
        <time>2019-08-17T06:59:15Z</time>
      </trkpt>
      <trkpt lat="42.1725370" lon="-8.6176230">
        <ele>50.1</ele>
        <time>2019-08-17T06:59:16Z</time>
      </trkpt>
      <trkpt lat="42.1725920" lon="-8.6176010">
        <ele>50.4</ele>
        <time>2019-08-17T06:59:18Z</time>
      </trkpt>
      <trkpt lat="42.1726560" lon="-8.6175480">
        <ele>50.9</ele>
        <time>2019-08-17T06:59:21Z</time>
      </trkpt>
      <trkpt lat="42.1726770" lon="-8.6175340">
        <ele>51.1</ele>
        <time>2019-08-17T06:59:22Z</time>
      </trkpt>
      <trkpt lat="42.1726960" lon="-8.6175190">
        <ele>51.2</ele>
        <time>2019-08-17T06:59:23Z</time>
      </trkpt>
      <trkpt lat="42.1727160" lon="-8.6175080">
        <ele>51.3</ele>
        <time>2019-08-17T06:59:24Z</time>
      </trkpt>
      <trkpt lat="42.1727320" lon="-8.6174930">
        <ele>51.4</ele>
        <time>2019-08-17T06:59:25Z</time>
      </trkpt>
      <trkpt lat="42.1728660" lon="-8.6173950">
        <ele>52.0</ele>
        <time>2019-08-17T06:59:30Z</time>
      </trkpt>
      <trkpt lat="42.1730930" lon="-8.6171860">
        <ele>52.3</ele>
        <time>2019-08-17T06:59:37Z</time>
      </trkpt>
      <trkpt lat="42.1731260" lon="-8.6171470">
        <ele>52.3</ele>
        <time>2019-08-17T06:59:38Z</time>
      </trkpt>
      <trkpt lat="42.1731610" lon="-8.6171000">
        <ele>52.3</ele>
        <time>2019-08-17T06:59:39Z</time>
      </trkpt>
      <trkpt lat="42.1731920" lon="-8.6170500">
        <ele>52.3</ele>
        <time>2019-08-17T06:59:40Z</time>
      </trkpt>
      <trkpt lat="42.1732310" lon="-8.6170000">
        <ele>52.2</ele>
        <time>2019-08-17T06:59:41Z</time>
      </trkpt>
      <trkpt lat="42.1732990" lon="-8.6168850">
        <ele>52.1</ele>
        <time>2019-08-17T06:59:43Z</time>
      </trkpt>
      <trkpt lat="42.1733380" lon="-8.6168360">
        <ele>52.2</ele>
        <time>2019-08-17T06:59:44Z</time>
      </trkpt>
      <trkpt lat="42.1734720" lon="-8.6167300">
        <ele>52.2</ele>
        <time>2019-08-17T06:59:47Z</time>
      </trkpt>
      <trkpt lat="42.1736670" lon="-8.6166680">
        <ele>52.2</ele>
        <time>2019-08-17T06:59:51Z</time>
      </trkpt>
      <trkpt lat="42.1738270" lon="-8.6166080">
        <ele>52.1</ele>
        <time>2019-08-17T06:59:55Z</time>
      </trkpt>
      <trkpt lat="42.1739230" lon="-8.6165340">
        <ele>52.2</ele>
        <time>2019-08-17T06:59:58Z</time>
      </trkpt>
      <trkpt lat="42.1741700" lon="-8.6163770">
        <ele>53.0</ele>
        <time>2019-08-17T07:00:06Z</time>
      </trkpt>
      <trkpt lat="42.1743760" lon="-8.6162470">
        <ele>53.2</ele>
        <time>2019-08-17T07:00:12Z</time>
      </trkpt>
      <trkpt lat="42.1746790" lon="-8.6160590">
        <ele>52.2</ele>
        <time>2019-08-17T07:00:20Z</time>
      </trkpt>
      <trkpt lat="42.1750060" lon="-8.6158770">
        <ele>51.8</ele>
        <time>2019-08-17T07:00:29Z</time>
      </trkpt>
      <trkpt lat="42.1752200" lon="-8.6158230">
        <ele>51.3</ele>
        <time>2019-08-17T07:00:35Z</time>
      </trkpt>
      <trkpt lat="42.1754750" lon="-8.6157580">
        <ele>50.6</ele>
        <time>2019-08-17T07:00:42Z</time>
      </trkpt>
      <trkpt lat="42.1755060" lon="-8.6157990">
        <ele>50.5</ele>
        <time>2019-08-17T07:00:43Z</time>
      </trkpt>
      <trkpt lat="42.1755650" lon="-8.6159790">
        <ele>49.7</ele>
        <time>2019-08-17T07:00:46Z</time>
      </trkpt>
      <trkpt lat="42.1755920" lon="-8.6160450">
        <ele>49.3</ele>
        <time>2019-08-17T07:00:47Z</time>
      </trkpt>
      <trkpt lat="42.1756180" lon="-8.6161290">
        <ele>49.0</ele>
        <time>2019-08-17T07:00:48Z</time>
      </trkpt>
      <trkpt lat="42.1756420" lon="-8.6162180">
        <ele>48.6</ele>
        <time>2019-08-17T07:00:49Z</time>
      </trkpt>
      <trkpt lat="42.1756540" lon="-8.6163290">
        <ele>48.2</ele>
        <time>2019-08-17T07:00:50Z</time>
      </trkpt>
      <trkpt lat="42.1756710" lon="-8.6164200">
        <ele>47.8</ele>
        <time>2019-08-17T07:00:51Z</time>
      </trkpt>
      <trkpt lat="42.1756860" lon="-8.6165040">
        <ele>47.5</ele>
        <time>2019-08-17T07:00:52Z</time>
      </trkpt>
      <trkpt lat="42.1757000" lon="-8.6165740">
        <ele>47.2</ele>
        <time>2019-08-17T07:00:53Z</time>
      </trkpt>
      <trkpt lat="42.1757110" lon="-8.6166260">
        <ele>47.0</ele>
        <time>2019-08-17T07:00:54Z</time>
      </trkpt>
      <trkpt lat="42.1757270" lon="-8.6166610">
        <ele>46.8</ele>
        <time>2019-08-17T07:00:55Z</time>
      </trkpt>
      <trkpt lat="42.1757710" lon="-8.6167740">
        <ele>46.3</ele>
        <time>2019-08-17T07:01:00Z</time>
      </trkpt>
      <trkpt lat="42.1757620" lon="-8.6168790">
        <ele>46.1</ele>
        <time>2019-08-17T07:01:03Z</time>
      </trkpt>
      <trkpt lat="42.1757460" lon="-8.6169620">
        <ele>46.2</ele>
        <time>2019-08-17T07:01:05Z</time>
      </trkpt>
      <trkpt lat="42.1758090" lon="-8.6171430">
        <ele>46.0</ele>
        <time>2019-08-17T07:01:09Z</time>
      </trkpt>
      <trkpt lat="42.1758400" lon="-8.6171970">
        <ele>45.9</ele>
        <time>2019-08-17T07:01:10Z</time>
      </trkpt>
      <trkpt lat="42.1758740" lon="-8.6172630">
        <ele>45.8</ele>
        <time>2019-08-17T07:01:11Z</time>
      </trkpt>
      <trkpt lat="42.1759220" lon="-8.6173350">
        <ele>45.7</ele>
        <time>2019-08-17T07:01:12Z</time>
      </trkpt>
      <trkpt lat="42.1759530" lon="-8.6174260">
        <ele>45.4</ele>
        <time>2019-08-17T07:01:13Z</time>
      </trkpt>
      <trkpt lat="42.1759760" lon="-8.6175200">
        <ele>45.1</ele>
        <time>2019-08-17T07:01:14Z</time>
      </trkpt>
      <trkpt lat="42.1760070" lon="-8.6176090">
        <ele>44.9</ele>
        <time>2019-08-17T07:01:15Z</time>
      </trkpt>
      <trkpt lat="42.1760360" lon="-8.6176980">
        <ele>44.4</ele>
        <time>2019-08-17T07:01:16Z</time>
      </trkpt>
      <trkpt lat="42.1760640" lon="-8.6177980">
        <ele>43.7</ele>
        <time>2019-08-17T07:01:17Z</time>
      </trkpt>
      <trkpt lat="42.1760870" lon="-8.6178920">
        <ele>43.0</ele>
        <time>2019-08-17T07:01:18Z</time>
      </trkpt>
      <trkpt lat="42.1761260" lon="-8.6179580">
        <ele>41.6</ele>
        <time>2019-08-17T07:01:19Z</time>
      </trkpt>
      <trkpt lat="42.1761630" lon="-8.6180150">
        <ele>40.6</ele>
        <time>2019-08-17T07:01:20Z</time>
      </trkpt>
      <trkpt lat="42.1762010" lon="-8.6180660">
        <ele>39.9</ele>
        <time>2019-08-17T07:01:21Z</time>
      </trkpt>
      <trkpt lat="42.1762300" lon="-8.6181290">
        <ele>39.5</ele>
        <time>2019-08-17T07:01:22Z</time>
      </trkpt>
      <trkpt lat="42.1763230" lon="-8.6183040">
        <ele>39.0</ele>
        <time>2019-08-17T07:01:25Z</time>
      </trkpt>
      <trkpt lat="42.1763490" lon="-8.6184830">
        <ele>38.7</ele>
        <time>2019-08-17T07:01:28Z</time>
      </trkpt>
      <trkpt lat="42.1762860" lon="-8.6187620">
        <ele>37.9</ele>
        <time>2019-08-17T07:01:32Z</time>
      </trkpt>
      <trkpt lat="42.1762700" lon="-8.6188330">
        <ele>37.7</ele>
        <time>2019-08-17T07:01:33Z</time>
      </trkpt>
      <trkpt lat="42.1761800" lon="-8.6191320">
        <ele>37.1</ele>
        <time>2019-08-17T07:01:37Z</time>
      </trkpt>
      <trkpt lat="42.1761600" lon="-8.6192030">
        <ele>37.0</ele>
        <time>2019-08-17T07:01:38Z</time>
      </trkpt>
      <trkpt lat="42.1761410" lon="-8.6192830">
        <ele>36.8</ele>
        <time>2019-08-17T07:01:39Z</time>
      </trkpt>
      <trkpt lat="42.1761240" lon="-8.6193640">
        <ele>36.6</ele>
        <time>2019-08-17T07:01:40Z</time>
      </trkpt>
      <trkpt lat="42.1761110" lon="-8.6194420">
        <ele>36.4</ele>
        <time>2019-08-17T07:01:41Z</time>
      </trkpt>
      <trkpt lat="42.1761050" lon="-8.6196670">
        <ele>36.0</ele>
        <time>2019-08-17T07:01:44Z</time>
      </trkpt>
      <trkpt lat="42.1761110" lon="-8.6198140">
        <ele>35.7</ele>
        <time>2019-08-17T07:01:46Z</time>
      </trkpt>
      <trkpt lat="42.1761620" lon="-8.6203790">
        <ele>35.3</ele>
        <time>2019-08-17T07:01:54Z</time>
      </trkpt>
      <trkpt lat="42.1761820" lon="-8.6204360">
        <ele>35.4</ele>
        <time>2019-08-17T07:01:55Z</time>
      </trkpt>
      <trkpt lat="42.1762630" lon="-8.6206910">
        <ele>36.4</ele>
        <time>2019-08-17T07:01:59Z</time>
      </trkpt>
      <trkpt lat="42.1763430" lon="-8.6211760">
        <ele>37.6</ele>
        <time>2019-08-17T07:02:05Z</time>
      </trkpt>
      <trkpt lat="42.1763490" lon="-8.6216420">
        <ele>38.7</ele>
        <time>2019-08-17T07:02:11Z</time>
      </trkpt>
      <trkpt lat="42.1764150" lon="-8.6221420">
        <ele>40.3</ele>
        <time>2019-08-17T07:02:17Z</time>
      </trkpt>
      <trkpt lat="42.1765660" lon="-8.6225360">
        <ele>42.1</ele>
        <time>2019-08-17T07:02:23Z</time>
      </trkpt>
      <trkpt lat="42.1767170" lon="-8.6227300">
        <ele>43.8</ele>
        <time>2019-08-17T07:02:28Z</time>
      </trkpt>
      <trkpt lat="42.1767520" lon="-8.6227490">
        <ele>44.1</ele>
        <time>2019-08-17T07:02:29Z</time>
      </trkpt>
      <trkpt lat="42.1767850" lon="-8.6227600">
        <ele>44.4</ele>
        <time>2019-08-17T07:02:30Z</time>
      </trkpt>
      <trkpt lat="42.1768200" lon="-8.6227680">
        <ele>44.7</ele>
        <time>2019-08-17T07:02:31Z</time>
      </trkpt>
      <trkpt lat="42.1768520" lon="-8.6227380">
        <ele>45.0</ele>
        <time>2019-08-17T07:02:32Z</time>
      </trkpt>
      <trkpt lat="42.1768920" lon="-8.6226920">
        <ele>46.4</ele>
        <time>2019-08-17T07:02:34Z</time>
      </trkpt>
      <trkpt lat="42.1769090" lon="-8.6226670">
        <ele>46.7</ele>
        <time>2019-08-17T07:02:35Z</time>
      </trkpt>
      <trkpt lat="42.1769280" lon="-8.6226450">
        <ele>46.9</ele>
        <time>2019-08-17T07:02:36Z</time>
      </trkpt>
      <trkpt lat="42.1769440" lon="-8.6226290">
        <ele>47.0</ele>
        <time>2019-08-17T07:02:37Z</time>
      </trkpt>
      <trkpt lat="42.1769690" lon="-8.6226090">
        <ele>47.2</ele>
        <time>2019-08-17T07:02:38Z</time>
      </trkpt>
      <trkpt lat="42.1770730" lon="-8.6225120">
        <ele>47.9</ele>
        <time>2019-08-17T07:02:41Z</time>
      </trkpt>
      <trkpt lat="42.1772960" lon="-8.6223600">
        <ele>48.6</ele>
        <time>2019-08-17T07:02:48Z</time>
      </trkpt>
      <trkpt lat="42.1774710" lon="-8.6221510">
        <ele>49.1</ele>
        <time>2019-08-17T07:02:54Z</time>
      </trkpt>
      <trkpt lat="42.1777250" lon="-8.6218790">
        <ele>50.5</ele>
        <time>2019-08-17T07:03:01Z</time>
      </trkpt>
      <trkpt lat="42.1779360" lon="-8.6213960">
        <ele>51.0</ele>
        <time>2019-08-17T07:03:10Z</time>
      </trkpt>
      <trkpt lat="42.1781990" lon="-8.6209240">
        <ele>51.3</ele>
        <time>2019-08-17T07:03:18Z</time>
      </trkpt>
      <trkpt lat="42.1783820" lon="-8.6206910">
        <ele>51.5</ele>
        <time>2019-08-17T07:03:22Z</time>
      </trkpt>
      <trkpt lat="42.1784360" lon="-8.6206350">
        <ele>51.5</ele>
        <time>2019-08-17T07:03:23Z</time>
      </trkpt>
      <trkpt lat="42.1784870" lon="-8.6205820">
        <ele>51.3</ele>
        <time>2019-08-17T07:03:24Z</time>
      </trkpt>
      <trkpt lat="42.1785340" lon="-8.6205400">
        <ele>51.1</ele>
        <time>2019-08-17T07:03:25Z</time>
      </trkpt>
      <trkpt lat="42.1785920" lon="-8.6204870">
        <ele>50.8</ele>
        <time>2019-08-17T07:03:26Z</time>
      </trkpt>
      <trkpt lat="42.1786520" lon="-8.6204800">
        <ele>50.4</ele>
        <time>2019-08-17T07:03:27Z</time>
      </trkpt>
      <trkpt lat="42.1787170" lon="-8.6204660">
        <ele>49.9</ele>
        <time>2019-08-17T07:03:28Z</time>
      </trkpt>
      <trkpt lat="42.1789640" lon="-8.6205600">
        <ele>48.4</ele>
        <time>2019-08-17T07:03:32Z</time>
      </trkpt>
      <trkpt lat="42.1790150" lon="-8.6205880">
        <ele>48.2</ele>
        <time>2019-08-17T07:03:33Z</time>
      </trkpt>
      <trkpt lat="42.1792780" lon="-8.6206890">
        <ele>48.0</ele>
        <time>2019-08-17T07:03:37Z</time>
      </trkpt>
      <trkpt lat="42.1794190" lon="-8.6207010">
        <ele>48.3</ele>
        <time>2019-08-17T07:03:39Z</time>
      </trkpt>
      <trkpt lat="42.1795330" lon="-8.6206810">
        <ele>48.7</ele>
        <time>2019-08-17T07:03:41Z</time>
      </trkpt>
      <trkpt lat="42.1795740" lon="-8.6206670">
        <ele>48.9</ele>
        <time>2019-08-17T07:03:42Z</time>
      </trkpt>
      <trkpt lat="42.1796090" lon="-8.6206460">
        <ele>49.1</ele>
        <time>2019-08-17T07:03:43Z</time>
      </trkpt>
      <trkpt lat="42.1796400" lon="-8.6206280">
        <ele>49.2</ele>
        <time>2019-08-17T07:03:44Z</time>
      </trkpt>
      <trkpt lat="42.1796680" lon="-8.6206090">
        <ele>49.3</ele>
        <time>2019-08-17T07:03:45Z</time>
      </trkpt>
      <trkpt lat="42.1797000" lon="-8.6205910">
        <ele>49.5</ele>
        <time>2019-08-17T07:03:46Z</time>
      </trkpt>
      <trkpt lat="42.1797220" lon="-8.6205740">
        <ele>49.6</ele>
        <time>2019-08-17T07:03:47Z</time>
      </trkpt>
      <trkpt lat="42.1797410" lon="-8.6205590">
        <ele>49.7</ele>
        <time>2019-08-17T07:03:48Z</time>
      </trkpt>
      <trkpt lat="42.1797630" lon="-8.6205460">
        <ele>49.8</ele>
        <time>2019-08-17T07:03:49Z</time>
      </trkpt>
      <trkpt lat="42.1798270" lon="-8.6205000">
        <ele>50.1</ele>
        <time>2019-08-17T07:03:52Z</time>
      </trkpt>
      <trkpt lat="42.1798470" lon="-8.6204870">
        <ele>50.2</ele>
        <time>2019-08-17T07:03:53Z</time>
      </trkpt>
      <trkpt lat="42.1798710" lon="-8.6204770">
        <ele>50.3</ele>
        <time>2019-08-17T07:03:54Z</time>
      </trkpt>
      <trkpt lat="42.1798940" lon="-8.6204690">
        <ele>50.4</ele>
        <time>2019-08-17T07:03:55Z</time>
      </trkpt>
      <trkpt lat="42.1799140" lon="-8.6204520">
        <ele>50.5</ele>
        <time>2019-08-17T07:03:56Z</time>
      </trkpt>
      <trkpt lat="42.1799330" lon="-8.6204350">
        <ele>50.6</ele>
        <time>2019-08-17T07:03:57Z</time>
      </trkpt>
      <trkpt lat="42.1799770" lon="-8.6204070">
        <ele>50.9</ele>
        <time>2019-08-17T07:03:59Z</time>
      </trkpt>
      <trkpt lat="42.1800010" lon="-8.6203950">
        <ele>51.0</ele>
        <time>2019-08-17T07:04:00Z</time>
      </trkpt>
      <trkpt lat="42.1800260" lon="-8.6203890">
        <ele>51.1</ele>
        <time>2019-08-17T07:04:01Z</time>
      </trkpt>
      <trkpt lat="42.1800540" lon="-8.6203810">
        <ele>51.2</ele>
        <time>2019-08-17T07:04:02Z</time>
      </trkpt>
      <trkpt lat="42.1800810" lon="-8.6203760">
        <ele>51.3</ele>
        <time>2019-08-17T07:04:03Z</time>
      </trkpt>
      <trkpt lat="42.1801310" lon="-8.6203960">
        <ele>51.6</ele>
        <time>2019-08-17T07:04:05Z</time>
      </trkpt>
      <trkpt lat="42.1801540" lon="-8.6204060">
        <ele>51.7</ele>
        <time>2019-08-17T07:04:06Z</time>
      </trkpt>
      <trkpt lat="42.1801770" lon="-8.6204130">
        <ele>51.8</ele>
        <time>2019-08-17T07:04:07Z</time>
      </trkpt>
      <trkpt lat="42.1801990" lon="-8.6204170">
        <ele>51.9</ele>
        <time>2019-08-17T07:04:08Z</time>
      </trkpt>
      <trkpt lat="42.1802220" lon="-8.6204200">
        <ele>52.0</ele>
        <time>2019-08-17T07:04:09Z</time>
      </trkpt>
      <trkpt lat="42.1803550" lon="-8.6204460">
        <ele>52.9</ele>
        <time>2019-08-17T07:04:15Z</time>
      </trkpt>
      <trkpt lat="42.1803830" lon="-8.6204490">
        <ele>53.2</ele>
        <time>2019-08-17T07:04:16Z</time>
      </trkpt>
      <trkpt lat="42.1804060" lon="-8.6204510">
        <ele>53.4</ele>
        <time>2019-08-17T07:04:17Z</time>
      </trkpt>
      <trkpt lat="42.1804320" lon="-8.6204520">
        <ele>53.6</ele>
        <time>2019-08-17T07:04:18Z</time>
      </trkpt>
      <trkpt lat="42.1804580" lon="-8.6204510">
        <ele>53.8</ele>
        <time>2019-08-17T07:04:19Z</time>
      </trkpt>
      <trkpt lat="42.1805470" lon="-8.6204390">
        <ele>54.6</ele>
        <time>2019-08-17T07:04:23Z</time>
      </trkpt>
      <trkpt lat="42.1805700" lon="-8.6204330">
        <ele>54.9</ele>
        <time>2019-08-17T07:04:24Z</time>
      </trkpt>
      <trkpt lat="42.1805930" lon="-8.6204270">
        <ele>55.2</ele>
        <time>2019-08-17T07:04:25Z</time>
      </trkpt>
      <trkpt lat="42.1806180" lon="-8.6204200">
        <ele>55.5</ele>
        <time>2019-08-17T07:04:26Z</time>
      </trkpt>
      <trkpt lat="42.1806400" lon="-8.6204040">
        <ele>55.7</ele>
        <time>2019-08-17T07:04:27Z</time>
      </trkpt>
      <trkpt lat="42.1806660" lon="-8.6203960">
        <ele>56.0</ele>
        <time>2019-08-17T07:04:28Z</time>
      </trkpt>
      <trkpt lat="42.1807620" lon="-8.6203490">
        <ele>57.0</ele>
        <time>2019-08-17T07:04:32Z</time>
      </trkpt>
      <trkpt lat="42.1807870" lon="-8.6203470">
        <ele>57.3</ele>
        <time>2019-08-17T07:04:33Z</time>
      </trkpt>
      <trkpt lat="42.1808080" lon="-8.6203460">
        <ele>57.5</ele>
        <time>2019-08-17T07:04:34Z</time>
      </trkpt>
      <trkpt lat="42.1808310" lon="-8.6203450">
        <ele>57.7</ele>
        <time>2019-08-17T07:04:35Z</time>
      </trkpt>
      <trkpt lat="42.1809420" lon="-8.6203290">
        <ele>58.5</ele>
        <time>2019-08-17T07:04:40Z</time>
      </trkpt>
      <trkpt lat="42.1809770" lon="-8.6203100">
        <ele>58.8</ele>
        <time>2019-08-17T07:04:42Z</time>
      </trkpt>
      <trkpt lat="42.1809940" lon="-8.6202970">
        <ele>59.0</ele>
        <time>2019-08-17T07:04:43Z</time>
      </trkpt>
      <trkpt lat="42.1810110" lon="-8.6202810">
        <ele>59.2</ele>
        <time>2019-08-17T07:04:44Z</time>
      </trkpt>
      <trkpt lat="42.1810260" lon="-8.6202640">
        <ele>59.3</ele>
        <time>2019-08-17T07:04:45Z</time>
      </trkpt>
      <trkpt lat="42.1810390" lon="-8.6202420">
        <ele>59.5</ele>
        <time>2019-08-17T07:04:46Z</time>
      </trkpt>
      <trkpt lat="42.1810680" lon="-8.6201980">
        <ele>59.9</ele>
        <time>2019-08-17T07:04:48Z</time>
      </trkpt>
      <trkpt lat="42.1810960" lon="-8.6201790">
        <ele>60.1</ele>
        <time>2019-08-17T07:04:49Z</time>
      </trkpt>
      <trkpt lat="42.1811370" lon="-8.6201380">
        <ele>60.6</ele>
        <time>2019-08-17T07:04:51Z</time>
      </trkpt>
      <trkpt lat="42.1811510" lon="-8.6201170">
        <ele>60.8</ele>
        <time>2019-08-17T07:04:52Z</time>
      </trkpt>
      <trkpt lat="42.1811650" lon="-8.6200920">
        <ele>61.0</ele>
        <time>2019-08-17T07:04:53Z</time>
      </trkpt>
      <trkpt lat="42.1811790" lon="-8.6200700">
        <ele>61.2</ele>
        <time>2019-08-17T07:04:54Z</time>
      </trkpt>
      <trkpt lat="42.1811960" lon="-8.6200470">
        <ele>61.5</ele>
        <time>2019-08-17T07:04:55Z</time>
      </trkpt>
      <trkpt lat="42.1812590" lon="-8.6200300">
        <ele>62.0</ele>
        <time>2019-08-17T07:04:58Z</time>
      </trkpt>
      <trkpt lat="42.1812780" lon="-8.6200240">
        <ele>62.1</ele>
        <time>2019-08-17T07:04:59Z</time>
      </trkpt>
      <trkpt lat="42.1812930" lon="-8.6200180">
        <ele>62.2</ele>
        <time>2019-08-17T07:05:00Z</time>
      </trkpt>
      <trkpt lat="42.1813060" lon="-8.6200180">
        <ele>62.3</ele>
        <time>2019-08-17T07:05:01Z</time>
      </trkpt>
      <trkpt lat="42.1813110" lon="-8.6200130">
        <ele>62.4</ele>
        <time>2019-08-17T07:05:02Z</time>
      </trkpt>
      <trkpt lat="42.1813100" lon="-8.6200110">
        <ele>62.4</ele>
        <time>2019-08-17T07:05:03Z</time>
      </trkpt>
      <trkpt lat="42.1813130" lon="-8.6200000">
        <ele>62.5</ele>
        <time>2019-08-17T07:05:47Z</time>
      </trkpt>
      <trkpt lat="42.1813200" lon="-8.6199950">
        <ele>62.5</ele>
        <time>2019-08-17T07:05:48Z</time>
      </trkpt>
      <trkpt lat="42.1814410" lon="-8.6198960">
        <ele>63.7</ele>
        <time>2019-08-17T07:05:52Z</time>
      </trkpt>
      <trkpt lat="42.1815990" lon="-8.6197750">
        <ele>65.1</ele>
        <time>2019-08-17T07:05:55Z</time>
      </trkpt>
      <trkpt lat="42.1816580" lon="-8.6197370">
        <ele>65.5</ele>
        <time>2019-08-17T07:05:56Z</time>
      </trkpt>
      <trkpt lat="42.1817510" lon="-8.6197330">
        <ele>66.1</ele>
        <time>2019-08-17T07:05:57Z</time>
      </trkpt>
      <trkpt lat="42.1818380" lon="-8.6197040">
        <ele>66.6</ele>
        <time>2019-08-17T07:05:58Z</time>
      </trkpt>
      <trkpt lat="42.1819270" lon="-8.6196680">
        <ele>67.1</ele>
        <time>2019-08-17T07:05:59Z</time>
      </trkpt>
      <trkpt lat="42.1819780" lon="-8.6195630">
        <ele>67.5</ele>
        <time>2019-08-17T07:06:00Z</time>
      </trkpt>
      <trkpt lat="42.1820200" lon="-8.6194720">
        <ele>67.8</ele>
        <time>2019-08-17T07:06:01Z</time>
      </trkpt>
      <trkpt lat="42.1821900" lon="-8.6191720">
        <ele>68.3</ele>
        <time>2019-08-17T07:06:05Z</time>
      </trkpt>
      <trkpt lat="42.1823230" lon="-8.6191450">
        <ele>68.3</ele>
        <time>2019-08-17T07:06:07Z</time>
      </trkpt>
      <trkpt lat="42.1823800" lon="-8.6191460">
        <ele>68.4</ele>
        <time>2019-08-17T07:06:08Z</time>
      </trkpt>
      <trkpt lat="42.1824340" lon="-8.6191420">
        <ele>68.4</ele>
        <time>2019-08-17T07:06:09Z</time>
      </trkpt>
      <trkpt lat="42.1824830" lon="-8.6191350">
        <ele>68.4</ele>
        <time>2019-08-17T07:06:10Z</time>
      </trkpt>
      <trkpt lat="42.1825300" lon="-8.6191260">
        <ele>68.5</ele>
        <time>2019-08-17T07:06:11Z</time>
      </trkpt>
      <trkpt lat="42.1825750" lon="-8.6191040">
        <ele>68.6</ele>
        <time>2019-08-17T07:06:12Z</time>
      </trkpt>
      <trkpt lat="42.1826190" lon="-8.6190780">
        <ele>68.7</ele>
        <time>2019-08-17T07:06:13Z</time>
      </trkpt>
      <trkpt lat="42.1826580" lon="-8.6190460">
        <ele>68.9</ele>
        <time>2019-08-17T07:06:14Z</time>
      </trkpt>
      <trkpt lat="42.1826930" lon="-8.6190250">
        <ele>69.0</ele>
        <time>2019-08-17T07:06:15Z</time>
      </trkpt>
      <trkpt lat="42.1827240" lon="-8.6190010">
        <ele>69.1</ele>
        <time>2019-08-17T07:06:16Z</time>
      </trkpt>
      <trkpt lat="42.1827530" lon="-8.6189750">
        <ele>69.2</ele>
        <time>2019-08-17T07:06:17Z</time>
      </trkpt>
      <trkpt lat="42.1827770" lon="-8.6189430">
        <ele>69.3</ele>
        <time>2019-08-17T07:06:18Z</time>
      </trkpt>
      <trkpt lat="42.1829610" lon="-8.6187460">
        <ele>69.0</ele>
        <time>2019-08-17T07:06:26Z</time>
      </trkpt>
      <trkpt lat="42.1829790" lon="-8.6187210">
        <ele>68.8</ele>
        <time>2019-08-17T07:06:27Z</time>
      </trkpt>
      <trkpt lat="42.1829930" lon="-8.6186960">
        <ele>68.7</ele>
        <time>2019-08-17T07:06:28Z</time>
      </trkpt>
      <trkpt lat="42.1830110" lon="-8.6186740">
        <ele>68.5</ele>
        <time>2019-08-17T07:06:29Z</time>
      </trkpt>
      <trkpt lat="42.1830250" lon="-8.6186520">
        <ele>68.3</ele>
        <time>2019-08-17T07:06:30Z</time>
      </trkpt>
      <trkpt lat="42.1830960" lon="-8.6185670">
        <ele>67.5</ele>
        <time>2019-08-17T07:06:34Z</time>
      </trkpt>
      <trkpt lat="42.1832300" lon="-8.6183530">
        <ele>66.0</ele>
        <time>2019-08-17T07:06:40Z</time>
      </trkpt>
      <trkpt lat="42.1832560" lon="-8.6183230">
        <ele>65.9</ele>
        <time>2019-08-17T07:06:41Z</time>
      </trkpt>
      <trkpt lat="42.1832770" lon="-8.6182990">
        <ele>65.8</ele>
        <time>2019-08-17T07:06:42Z</time>
      </trkpt>
      <trkpt lat="42.1832940" lon="-8.6182810">
        <ele>65.7</ele>
        <time>2019-08-17T07:06:43Z</time>
      </trkpt>
      <trkpt lat="42.1833220" lon="-8.6182670">
        <ele>65.6</ele>
        <time>2019-08-17T07:06:44Z</time>
      </trkpt>
      <trkpt lat="42.1833530" lon="-8.6182530">
        <ele>65.5</ele>
        <time>2019-08-17T07:06:45Z</time>
      </trkpt>
      <trkpt lat="42.1835180" lon="-8.6182470">
        <ele>66.0</ele>
        <time>2019-08-17T07:06:51Z</time>
      </trkpt>
      <trkpt lat="42.1838300" lon="-8.6183450">
        <ele>67.2</ele>
        <time>2019-08-17T07:07:01Z</time>
      </trkpt>
      <trkpt lat="42.1840290" lon="-8.6183810">
        <ele>67.9</ele>
        <time>2019-08-17T07:07:06Z</time>
      </trkpt>
      <trkpt lat="42.1841740" lon="-8.6182710">
        <ele>67.9</ele>
        <time>2019-08-17T07:07:10Z</time>
      </trkpt>
      <trkpt lat="42.1842100" lon="-8.6182530">
        <ele>67.9</ele>
        <time>2019-08-17T07:07:11Z</time>
      </trkpt>
      <trkpt lat="42.1844340" lon="-8.6181950">
        <ele>67.9</ele>
        <time>2019-08-17T07:07:17Z</time>
      </trkpt>
      <trkpt lat="42.1846140" lon="-8.6180900">
        <ele>68.0</ele>
        <time>2019-08-17T07:07:22Z</time>
      </trkpt>
      <trkpt lat="42.1848260" lon="-8.6178390">
        <ele>68.2</ele>
        <time>2019-08-17T07:07:29Z</time>
      </trkpt>
      <trkpt lat="42.1850000" lon="-8.6175700">
        <ele>67.1</ele>
        <time>2019-08-17T07:07:33Z</time>
      </trkpt>
      <trkpt lat="42.1850490" lon="-8.6174800">
        <ele>65.8</ele>
        <time>2019-08-17T07:07:34Z</time>
      </trkpt>
      <trkpt lat="42.1851100" lon="-8.6173850">
        <ele>64.8</ele>
        <time>2019-08-17T07:07:35Z</time>
      </trkpt>
      <trkpt lat="42.1851780" lon="-8.6172900">
        <ele>64.1</ele>
        <time>2019-08-17T07:07:36Z</time>
      </trkpt>
      <trkpt lat="42.1852370" lon="-8.6171960">
        <ele>63.8</ele>
        <time>2019-08-17T07:07:37Z</time>
      </trkpt>
      <trkpt lat="42.1853010" lon="-8.6170970">
        <ele>63.7</ele>
        <time>2019-08-17T07:07:38Z</time>
      </trkpt>
      <trkpt lat="42.1853600" lon="-8.6170050">
        <ele>63.7</ele>
        <time>2019-08-17T07:07:39Z</time>
      </trkpt>
      <trkpt lat="42.1854110" lon="-8.6169190">
        <ele>63.7</ele>
        <time>2019-08-17T07:07:40Z</time>
      </trkpt>
      <trkpt lat="42.1855290" lon="-8.6166960">
        <ele>63.7</ele>
        <time>2019-08-17T07:07:43Z</time>
      </trkpt>
      <trkpt lat="42.1857000" lon="-8.6163820">
        <ele>63.4</ele>
        <time>2019-08-17T07:07:48Z</time>
      </trkpt>
      <trkpt lat="42.1858180" lon="-8.6161640">
        <ele>62.6</ele>
        <time>2019-08-17T07:07:51Z</time>
      </trkpt>
      <trkpt lat="42.1859160" lon="-8.6160610">
        <ele>62.3</ele>
        <time>2019-08-17T07:07:53Z</time>
      </trkpt>
      <trkpt lat="42.1860270" lon="-8.6159830">
        <ele>62.1</ele>
        <time>2019-08-17T07:07:55Z</time>
      </trkpt>
      <trkpt lat="42.1862710" lon="-8.6157470">
        <ele>61.4</ele>
        <time>2019-08-17T07:08:00Z</time>
      </trkpt>
      <trkpt lat="42.1863020" lon="-8.6156720">
        <ele>61.1</ele>
        <time>2019-08-17T07:08:01Z</time>
      </trkpt>
      <trkpt lat="42.1863300" lon="-8.6155920">
        <ele>60.8</ele>
        <time>2019-08-17T07:08:02Z</time>
      </trkpt>
      <trkpt lat="42.1863590" lon="-8.6155090">
        <ele>60.6</ele>
        <time>2019-08-17T07:08:03Z</time>
      </trkpt>
      <trkpt lat="42.1863720" lon="-8.6154290">
        <ele>60.3</ele>
        <time>2019-08-17T07:08:04Z</time>
      </trkpt>
      <trkpt lat="42.1863990" lon="-8.6153520">
        <ele>60.0</ele>
        <time>2019-08-17T07:08:05Z</time>
      </trkpt>
      <trkpt lat="42.1864410" lon="-8.6152830">
        <ele>59.6</ele>
        <time>2019-08-17T07:08:06Z</time>
      </trkpt>
      <trkpt lat="42.1866210" lon="-8.6151240">
        <ele>57.5</ele>
        <time>2019-08-17T07:08:09Z</time>
      </trkpt>
      <trkpt lat="42.1866900" lon="-8.6151040">
        <ele>57.0</ele>
        <time>2019-08-17T07:08:10Z</time>
      </trkpt>
      <trkpt lat="42.1867690" lon="-8.6150940">
        <ele>56.5</ele>
        <time>2019-08-17T07:08:11Z</time>
      </trkpt>
      <trkpt lat="42.1868560" lon="-8.6150920">
        <ele>55.9</ele>
        <time>2019-08-17T07:08:12Z</time>
      </trkpt>
      <trkpt lat="42.1869480" lon="-8.6150900">
        <ele>55.1</ele>
        <time>2019-08-17T07:08:13Z</time>
      </trkpt>
      <trkpt lat="42.1870500" lon="-8.6150750">
        <ele>54.3</ele>
        <time>2019-08-17T07:08:14Z</time>
      </trkpt>
      <trkpt lat="42.1871520" lon="-8.6150510">
        <ele>53.6</ele>
        <time>2019-08-17T07:08:15Z</time>
      </trkpt>
      <trkpt lat="42.1872540" lon="-8.6150400">
        <ele>52.8</ele>
        <time>2019-08-17T07:08:16Z</time>
      </trkpt>
      <trkpt lat="42.1873500" lon="-8.6149760">
        <ele>52.1</ele>
        <time>2019-08-17T07:08:17Z</time>
      </trkpt>
      <trkpt lat="42.1874410" lon="-8.6149190">
        <ele>51.5</ele>
        <time>2019-08-17T07:08:18Z</time>
      </trkpt>
      <trkpt lat="42.1875270" lon="-8.6148490">
        <ele>51.2</ele>
        <time>2019-08-17T07:08:19Z</time>
      </trkpt>
      <trkpt lat="42.1876010" lon="-8.6147980">
        <ele>51.1</ele>
        <time>2019-08-17T07:08:20Z</time>
      </trkpt>
      <trkpt lat="42.1877050" lon="-8.6147510">
        <ele>51.0</ele>
        <time>2019-08-17T07:08:21Z</time>
      </trkpt>
      <trkpt lat="42.1879090" lon="-8.6147030">
        <ele>51.0</ele>
        <time>2019-08-17T07:08:23Z</time>
      </trkpt>
      <trkpt lat="42.1880110" lon="-8.6147110">
        <ele>50.9</ele>
        <time>2019-08-17T07:08:24Z</time>
      </trkpt>
      <trkpt lat="42.1881000" lon="-8.6147280">
        <ele>50.8</ele>
        <time>2019-08-17T07:08:25Z</time>
      </trkpt>
      <trkpt lat="42.1881920" lon="-8.6147330">
        <ele>50.8</ele>
        <time>2019-08-17T07:08:26Z</time>
      </trkpt>
      <trkpt lat="42.1882780" lon="-8.6147260">
        <ele>51.0</ele>
        <time>2019-08-17T07:08:27Z</time>
      </trkpt>
      <trkpt lat="42.1883550" lon="-8.6147160">
        <ele>51.1</ele>
        <time>2019-08-17T07:08:28Z</time>
      </trkpt>
      <trkpt lat="42.1884510" lon="-8.6146970">
        <ele>51.3</ele>
        <time>2019-08-17T07:08:29Z</time>
      </trkpt>
      <trkpt lat="42.1885230" lon="-8.6146520">
        <ele>51.7</ele>
        <time>2019-08-17T07:08:30Z</time>
      </trkpt>
      <trkpt lat="42.1885880" lon="-8.6146110">
        <ele>52.1</ele>
        <time>2019-08-17T07:08:31Z</time>
      </trkpt>
      <trkpt lat="42.1886520" lon="-8.6145670">
        <ele>52.4</ele>
        <time>2019-08-17T07:08:32Z</time>
      </trkpt>
      <trkpt lat="42.1887170" lon="-8.6145210">
        <ele>52.7</ele>
        <time>2019-08-17T07:08:33Z</time>
      </trkpt>
      <trkpt lat="42.1887580" lon="-8.6144800">
        <ele>52.9</ele>
        <time>2019-08-17T07:08:34Z</time>
      </trkpt>
      <trkpt lat="42.1888180" lon="-8.6144280">
        <ele>53.1</ele>
        <time>2019-08-17T07:08:35Z</time>
      </trkpt>
      <trkpt lat="42.1888750" lon="-8.6143810">
        <ele>53.5</ele>
        <time>2019-08-17T07:08:36Z</time>
      </trkpt>
      <trkpt lat="42.1889850" lon="-8.6142730">
        <ele>54.3</ele>
        <time>2019-08-17T07:08:38Z</time>
      </trkpt>
      <trkpt lat="42.1890140" lon="-8.6142040">
        <ele>54.7</ele>
        <time>2019-08-17T07:08:39Z</time>
      </trkpt>
      <trkpt lat="42.1890360" lon="-8.6141420">
        <ele>55.0</ele>
        <time>2019-08-17T07:08:40Z</time>
      </trkpt>
      <trkpt lat="42.1890580" lon="-8.6140830">
        <ele>55.3</ele>
        <time>2019-08-17T07:08:41Z</time>
      </trkpt>
      <trkpt lat="42.1890780" lon="-8.6140310">
        <ele>55.5</ele>
        <time>2019-08-17T07:08:42Z</time>
      </trkpt>
      <trkpt lat="42.1891020" lon="-8.6139830">
        <ele>55.7</ele>
        <time>2019-08-17T07:08:43Z</time>
      </trkpt>
      <trkpt lat="42.1891750" lon="-8.6137980">
        <ele>56.6</ele>
        <time>2019-08-17T07:08:47Z</time>
      </trkpt>
      <trkpt lat="42.1891930" lon="-8.6137550">
        <ele>56.8</ele>
        <time>2019-08-17T07:08:48Z</time>
      </trkpt>
      <trkpt lat="42.1892200" lon="-8.6137180">
        <ele>56.9</ele>
        <time>2019-08-17T07:08:49Z</time>
      </trkpt>
      <trkpt lat="42.1892490" lon="-8.6136860">
        <ele>57.0</ele>
        <time>2019-08-17T07:08:50Z</time>
      </trkpt>
      <trkpt lat="42.1892750" lon="-8.6136440">
        <ele>57.0</ele>
        <time>2019-08-17T07:08:51Z</time>
      </trkpt>
      <trkpt lat="42.1894310" lon="-8.6133580">
        <ele>57.3</ele>
        <time>2019-08-17T07:08:58Z</time>
      </trkpt>
      <trkpt lat="42.1896390" lon="-8.6130890">
        <ele>57.7</ele>
        <time>2019-08-17T07:09:06Z</time>
      </trkpt>
      <trkpt lat="42.1898250" lon="-8.6129360">
        <ele>58.5</ele>
        <time>2019-08-17T07:09:12Z</time>
      </trkpt>
      <trkpt lat="42.1899130" lon="-8.6128610">
        <ele>58.8</ele>
        <time>2019-08-17T07:09:15Z</time>
      </trkpt>
      <trkpt lat="42.1899460" lon="-8.6128380">
        <ele>58.9</ele>
        <time>2019-08-17T07:09:16Z</time>
      </trkpt>
      <trkpt lat="42.1899860" lon="-8.6128160">
        <ele>59.0</ele>
        <time>2019-08-17T07:09:17Z</time>
      </trkpt>
      <trkpt lat="42.1900240" lon="-8.6127950">
        <ele>59.0</ele>
        <time>2019-08-17T07:09:18Z</time>
      </trkpt>
      <trkpt lat="42.1900580" lon="-8.6127730">
        <ele>59.1</ele>
        <time>2019-08-17T07:09:19Z</time>
      </trkpt>
      <trkpt lat="42.1901690" lon="-8.6127200">
        <ele>59.2</ele>
        <time>2019-08-17T07:09:22Z</time>
      </trkpt>
      <trkpt lat="42.1904630" lon="-8.6126000">
        <ele>59.7</ele>
        <time>2019-08-17T07:09:30Z</time>
      </trkpt>
      <trkpt lat="42.1906970" lon="-8.6125600">
        <ele>60.5</ele>
        <time>2019-08-17T07:09:36Z</time>
      </trkpt>
      <trkpt lat="42.1907360" lon="-8.6125550">
        <ele>60.6</ele>
        <time>2019-08-17T07:09:37Z</time>
      </trkpt>
      <trkpt lat="42.1907730" lon="-8.6125530">
        <ele>60.7</ele>
        <time>2019-08-17T07:09:38Z</time>
      </trkpt>
      <trkpt lat="42.1908120" lon="-8.6125550">
        <ele>60.7</ele>
        <time>2019-08-17T07:09:39Z</time>
      </trkpt>
      <trkpt lat="42.1908500" lon="-8.6125640">
        <ele>60.8</ele>
        <time>2019-08-17T07:09:40Z</time>
      </trkpt>
      <trkpt lat="42.1910270" lon="-8.6125780">
        <ele>61.0</ele>
        <time>2019-08-17T07:09:45Z</time>
      </trkpt>
      <trkpt lat="42.1913680" lon="-8.6124970">
        <ele>61.1</ele>
        <time>2019-08-17T07:09:53Z</time>
      </trkpt>
      <trkpt lat="42.1915690" lon="-8.6123600">
        <ele>61.1</ele>
        <time>2019-08-17T07:09:58Z</time>
      </trkpt>
      <trkpt lat="42.1918260" lon="-8.6121490">
        <ele>61.1</ele>
        <time>2019-08-17T07:10:05Z</time>
      </trkpt>
      <trkpt lat="42.1921190" lon="-8.6119710">
        <ele>60.9</ele>
        <time>2019-08-17T07:10:11Z</time>
      </trkpt>
      <trkpt lat="42.1921810" lon="-8.6119350">
        <ele>60.8</ele>
        <time>2019-08-17T07:10:12Z</time>
      </trkpt>
      <trkpt lat="42.1922490" lon="-8.6119010">
        <ele>60.7</ele>
        <time>2019-08-17T07:10:13Z</time>
      </trkpt>
      <trkpt lat="42.1923180" lon="-8.6118680">
        <ele>60.5</ele>
        <time>2019-08-17T07:10:14Z</time>
      </trkpt>
      <trkpt lat="42.1923870" lon="-8.6118370">
        <ele>60.2</ele>
        <time>2019-08-17T07:10:15Z</time>
      </trkpt>
      <trkpt lat="42.1925300" lon="-8.6117690">
        <ele>59.6</ele>
        <time>2019-08-17T07:10:17Z</time>
      </trkpt>
      <trkpt lat="42.1925950" lon="-8.6117370">
        <ele>59.3</ele>
        <time>2019-08-17T07:10:18Z</time>
      </trkpt>
      <trkpt lat="42.1926620" lon="-8.6117020">
        <ele>59.1</ele>
        <time>2019-08-17T07:10:19Z</time>
      </trkpt>
      <trkpt lat="42.1927250" lon="-8.6116680">
        <ele>59.0</ele>
        <time>2019-08-17T07:10:20Z</time>
      </trkpt>
      <trkpt lat="42.1927880" lon="-8.6116240">
        <ele>58.9</ele>
        <time>2019-08-17T07:10:21Z</time>
      </trkpt>
      <trkpt lat="42.1928880" lon="-8.6115050">
        <ele>58.6</ele>
        <time>2019-08-17T07:10:23Z</time>
      </trkpt>
      <trkpt lat="42.1929950" lon="-8.6113560">
        <ele>58.2</ele>
        <time>2019-08-17T07:10:25Z</time>
      </trkpt>
      <trkpt lat="42.1931070" lon="-8.6111800">
        <ele>57.2</ele>
        <time>2019-08-17T07:10:27Z</time>
      </trkpt>
      <trkpt lat="42.1931590" lon="-8.6110910">
        <ele>56.7</ele>
        <time>2019-08-17T07:10:28Z</time>
      </trkpt>
      <trkpt lat="42.1932070" lon="-8.6110000">
        <ele>56.2</ele>
        <time>2019-08-17T07:10:29Z</time>
      </trkpt>
      <trkpt lat="42.1932580" lon="-8.6109190">
        <ele>55.7</ele>
        <time>2019-08-17T07:10:30Z</time>
      </trkpt>
      <trkpt lat="42.1933200" lon="-8.6108400">
        <ele>55.0</ele>
        <time>2019-08-17T07:10:31Z</time>
      </trkpt>
      <trkpt lat="42.1934600" lon="-8.6107360">
        <ele>54.8</ele>
        <time>2019-08-17T07:10:33Z</time>
      </trkpt>
      <trkpt lat="42.1935320" lon="-8.6107040">
        <ele>54.8</ele>
        <time>2019-08-17T07:10:34Z</time>
      </trkpt>
      <trkpt lat="42.1936090" lon="-8.6106810">
        <ele>54.8</ele>
        <time>2019-08-17T07:10:35Z</time>
      </trkpt>
      <trkpt lat="42.1936850" lon="-8.6106660">
        <ele>54.8</ele>
        <time>2019-08-17T07:10:36Z</time>
      </trkpt>
      <trkpt lat="42.1937650" lon="-8.6106450">
        <ele>54.7</ele>
        <time>2019-08-17T07:10:37Z</time>
      </trkpt>
      <trkpt lat="42.1938450" lon="-8.6106180">
        <ele>54.7</ele>
        <time>2019-08-17T07:10:38Z</time>
      </trkpt>
      <trkpt lat="42.1940610" lon="-8.6105570">
        <ele>54.8</ele>
        <time>2019-08-17T07:10:41Z</time>
      </trkpt>
      <trkpt lat="42.1941230" lon="-8.6105230">
        <ele>54.9</ele>
        <time>2019-08-17T07:10:42Z</time>
      </trkpt>
      <trkpt lat="42.1941850" lon="-8.6104920">
        <ele>54.9</ele>
        <time>2019-08-17T07:10:43Z</time>
      </trkpt>
      <trkpt lat="42.1942530" lon="-8.6104610">
        <ele>55.0</ele>
        <time>2019-08-17T07:10:44Z</time>
      </trkpt>
      <trkpt lat="42.1943160" lon="-8.6104330">
        <ele>55.0</ele>
        <time>2019-08-17T07:10:45Z</time>
      </trkpt>
      <trkpt lat="42.1943790" lon="-8.6104060">
        <ele>55.0</ele>
        <time>2019-08-17T07:10:46Z</time>
      </trkpt>
      <trkpt lat="42.1946700" lon="-8.6102900">
        <ele>54.7</ele>
        <time>2019-08-17T07:10:51Z</time>
      </trkpt>
      <trkpt lat="42.1950860" lon="-8.6100220">
        <ele>54.5</ele>
        <time>2019-08-17T07:10:59Z</time>
      </trkpt>
      <trkpt lat="42.1953970" lon="-8.6099090">
        <ele>56.0</ele>
        <time>2019-08-17T07:11:06Z</time>
      </trkpt>
      <trkpt lat="42.1958150" lon="-8.6098420">
        <ele>56.7</ele>
        <time>2019-08-17T07:11:15Z</time>
      </trkpt>
      <trkpt lat="42.1962430" lon="-8.6097360">
        <ele>56.8</ele>
        <time>2019-08-17T07:11:23Z</time>
      </trkpt>
      <trkpt lat="42.1966720" lon="-8.6095940">
        <ele>56.8</ele>
        <time>2019-08-17T07:11:31Z</time>
      </trkpt>
      <trkpt lat="42.1970600" lon="-8.6094420">
        <ele>57.5</ele>
        <time>2019-08-17T07:11:38Z</time>
      </trkpt>
      <trkpt lat="42.1971070" lon="-8.6094160">
        <ele>57.5</ele>
        <time>2019-08-17T07:11:39Z</time>
      </trkpt>
      <trkpt lat="42.1971530" lon="-8.6093800">
        <ele>57.9</ele>
        <time>2019-08-17T07:11:40Z</time>
      </trkpt>
      <trkpt lat="42.1972070" lon="-8.6093370">
        <ele>58.1</ele>
        <time>2019-08-17T07:11:41Z</time>
      </trkpt>
      <trkpt lat="42.1972650" lon="-8.6093000">
        <ele>58.2</ele>
        <time>2019-08-17T07:11:42Z</time>
      </trkpt>
      <trkpt lat="42.1975560" lon="-8.6090130">
        <ele>58.4</ele>
        <time>2019-08-17T07:11:49Z</time>
      </trkpt>
      <trkpt lat="42.1979040" lon="-8.6086740">
        <ele>58.6</ele>
        <time>2019-08-17T07:11:57Z</time>
      </trkpt>
      <trkpt lat="42.1981660" lon="-8.6085560">
        <ele>59.2</ele>
        <time>2019-08-17T07:12:02Z</time>
      </trkpt>
      <trkpt lat="42.1982670" lon="-8.6085620">
        <ele>59.4</ele>
        <time>2019-08-17T07:12:04Z</time>
      </trkpt>
      <trkpt lat="42.1984290" lon="-8.6086460">
        <ele>59.6</ele>
        <time>2019-08-17T07:12:07Z</time>
      </trkpt>
      <trkpt lat="42.1984820" lon="-8.6086790">
        <ele>59.7</ele>
        <time>2019-08-17T07:12:08Z</time>
      </trkpt>
      <trkpt lat="42.1985360" lon="-8.6086990">
        <ele>59.8</ele>
        <time>2019-08-17T07:12:09Z</time>
      </trkpt>
      <trkpt lat="42.1987470" lon="-8.6087690">
        <ele>60.3</ele>
        <time>2019-08-17T07:12:13Z</time>
      </trkpt>
      <trkpt lat="42.1987970" lon="-8.6087840">
        <ele>60.5</ele>
        <time>2019-08-17T07:12:14Z</time>
      </trkpt>
      <trkpt lat="42.1988460" lon="-8.6088020">
        <ele>60.6</ele>
        <time>2019-08-17T07:12:15Z</time>
      </trkpt>
      <trkpt lat="42.1988920" lon="-8.6088170">
        <ele>60.7</ele>
        <time>2019-08-17T07:12:16Z</time>
      </trkpt>
      <trkpt lat="42.1989490" lon="-8.6088410">
        <ele>61.0</ele>
        <time>2019-08-17T07:12:17Z</time>
      </trkpt>
      <trkpt lat="42.1989990" lon="-8.6088580">
        <ele>61.2</ele>
        <time>2019-08-17T07:12:18Z</time>
      </trkpt>
      <trkpt lat="42.1991450" lon="-8.6088630">
        <ele>61.8</ele>
        <time>2019-08-17T07:12:21Z</time>
      </trkpt>
      <trkpt lat="42.1993950" lon="-8.6087860">
        <ele>63.1</ele>
        <time>2019-08-17T07:12:26Z</time>
      </trkpt>
      <trkpt lat="42.1994450" lon="-8.6087740">
        <ele>63.4</ele>
        <time>2019-08-17T07:12:27Z</time>
      </trkpt>
      <trkpt lat="42.1995790" lon="-8.6087630">
        <ele>64.2</ele>
        <time>2019-08-17T07:12:30Z</time>
      </trkpt>
      <trkpt lat="42.1996180" lon="-8.6087700">
        <ele>64.4</ele>
        <time>2019-08-17T07:12:31Z</time>
      </trkpt>
      <trkpt lat="42.1996460" lon="-8.6087790">
        <ele>64.6</ele>
        <time>2019-08-17T07:12:32Z</time>
      </trkpt>
      <trkpt lat="42.1996820" lon="-8.6087940">
        <ele>64.9</ele>
        <time>2019-08-17T07:12:33Z</time>
      </trkpt>
      <trkpt lat="42.1997260" lon="-8.6088210">
        <ele>65.2</ele>
        <time>2019-08-17T07:12:34Z</time>
      </trkpt>
      <trkpt lat="42.1997640" lon="-8.6088470">
        <ele>65.4</ele>
        <time>2019-08-17T07:12:35Z</time>
      </trkpt>
      <trkpt lat="42.1998360" lon="-8.6088880">
        <ele>65.9</ele>
        <time>2019-08-17T07:12:37Z</time>
      </trkpt>
      <trkpt lat="42.1999350" lon="-8.6089090">
        <ele>66.6</ele>
        <time>2019-08-17T07:12:40Z</time>
      </trkpt>
      <trkpt lat="42.1999640" lon="-8.6088970">
        <ele>66.8</ele>
        <time>2019-08-17T07:12:41Z</time>
      </trkpt>
      <trkpt lat="42.1999930" lon="-8.6088860">
        <ele>67.0</ele>
        <time>2019-08-17T07:12:42Z</time>
      </trkpt>
      <trkpt lat="42.2000230" lon="-8.6088680">
        <ele>67.2</ele>
        <time>2019-08-17T07:12:43Z</time>
      </trkpt>
      <trkpt lat="42.2000550" lon="-8.6088420">
        <ele>67.4</ele>
        <time>2019-08-17T07:12:44Z</time>
      </trkpt>
      <trkpt lat="42.2001820" lon="-8.6087480">
        <ele>68.2</ele>
        <time>2019-08-17T07:12:48Z</time>
      </trkpt>
      <trkpt lat="42.2004420" lon="-8.6086160">
        <ele>69.5</ele>
        <time>2019-08-17T07:12:55Z</time>
      </trkpt>
      <trkpt lat="42.2004790" lon="-8.6086130">
        <ele>69.6</ele>
        <time>2019-08-17T07:12:56Z</time>
      </trkpt>
      <trkpt lat="42.2005120" lon="-8.6086110">
        <ele>69.8</ele>
        <time>2019-08-17T07:12:57Z</time>
      </trkpt>
      <trkpt lat="42.2005460" lon="-8.6086130">
        <ele>69.9</ele>
        <time>2019-08-17T07:12:58Z</time>
      </trkpt>
      <trkpt lat="42.2005790" lon="-8.6086190">
        <ele>70.1</ele>
        <time>2019-08-17T07:12:59Z</time>
      </trkpt>
      <trkpt lat="42.2006110" lon="-8.6086280">
        <ele>70.2</ele>
        <time>2019-08-17T07:13:00Z</time>
      </trkpt>
      <trkpt lat="42.2008080" lon="-8.6087000">
        <ele>71.3</ele>
        <time>2019-08-17T07:13:07Z</time>
      </trkpt>
      <trkpt lat="42.2008370" lon="-8.6087030">
        <ele>71.5</ele>
        <time>2019-08-17T07:13:08Z</time>
      </trkpt>
      <trkpt lat="42.2008670" lon="-8.6086930">
        <ele>71.8</ele>
        <time>2019-08-17T07:13:09Z</time>
      </trkpt>
      <trkpt lat="42.2008950" lon="-8.6086780">
        <ele>72.1</ele>
        <time>2019-08-17T07:13:10Z</time>
      </trkpt>
      <trkpt lat="42.2009240" lon="-8.6086540">
        <ele>72.3</ele>
        <time>2019-08-17T07:13:11Z</time>
      </trkpt>
      <trkpt lat="42.2009570" lon="-8.6086230">
        <ele>72.6</ele>
        <time>2019-08-17T07:13:12Z</time>
      </trkpt>
      <trkpt lat="42.2011280" lon="-8.6084630">
        <ele>74.0</ele>
        <time>2019-08-17T07:13:18Z</time>
      </trkpt>
      <trkpt lat="42.2012240" lon="-8.6083660">
        <ele>74.9</ele>
        <time>2019-08-17T07:13:22Z</time>
      </trkpt>
      <trkpt lat="42.2012460" lon="-8.6083470">
        <ele>75.1</ele>
        <time>2019-08-17T07:13:23Z</time>
      </trkpt>
      <trkpt lat="42.2012640" lon="-8.6083250">
        <ele>75.3</ele>
        <time>2019-08-17T07:13:24Z</time>
      </trkpt>
      <trkpt lat="42.2012830" lon="-8.6083060">
        <ele>75.5</ele>
        <time>2019-08-17T07:13:25Z</time>
      </trkpt>
      <trkpt lat="42.2013000" lon="-8.6082850">
        <ele>75.6</ele>
        <time>2019-08-17T07:13:26Z</time>
      </trkpt>
      <trkpt lat="42.2013220" lon="-8.6082650">
        <ele>75.9</ele>
        <time>2019-08-17T07:13:27Z</time>
      </trkpt>
      <trkpt lat="42.2014040" lon="-8.6081950">
        <ele>76.9</ele>
        <time>2019-08-17T07:13:31Z</time>
      </trkpt>
      <trkpt lat="42.2014220" lon="-8.6081790">
        <ele>77.1</ele>
        <time>2019-08-17T07:13:32Z</time>
      </trkpt>
      <trkpt lat="42.2014400" lon="-8.6081610">
        <ele>77.3</ele>
        <time>2019-08-17T07:13:33Z</time>
      </trkpt>
      <trkpt lat="42.2014590" lon="-8.6081440">
        <ele>77.6</ele>
        <time>2019-08-17T07:13:34Z</time>
      </trkpt>
      <trkpt lat="42.2014780" lon="-8.6081280">
        <ele>77.8</ele>
        <time>2019-08-17T07:13:35Z</time>
      </trkpt>
      <trkpt lat="42.2015150" lon="-8.6081010">
        <ele>78.3</ele>
        <time>2019-08-17T07:13:37Z</time>
      </trkpt>
      <trkpt lat="42.2015330" lon="-8.6080830">
        <ele>78.6</ele>
        <time>2019-08-17T07:13:38Z</time>
      </trkpt>
      <trkpt lat="42.2015520" lon="-8.6080640">
        <ele>78.9</ele>
        <time>2019-08-17T07:13:39Z</time>
      </trkpt>
      <trkpt lat="42.2015680" lon="-8.6080450">
        <ele>79.2</ele>
        <time>2019-08-17T07:13:40Z</time>
      </trkpt>
      <trkpt lat="42.2015850" lon="-8.6080250">
        <ele>79.4</ele>
        <time>2019-08-17T07:13:41Z</time>
      </trkpt>
      <trkpt lat="42.2016030" lon="-8.6080060">
        <ele>79.6</ele>
        <time>2019-08-17T07:13:42Z</time>
      </trkpt>
      <trkpt lat="42.2016720" lon="-8.6079040">
        <ele>80.8</ele>
        <time>2019-08-17T07:13:46Z</time>
      </trkpt>
      <trkpt lat="42.2016860" lon="-8.6078790">
        <ele>81.0</ele>
        <time>2019-08-17T07:13:47Z</time>
      </trkpt>
      <trkpt lat="42.2017020" lon="-8.6078560">
        <ele>81.3</ele>
        <time>2019-08-17T07:13:48Z</time>
      </trkpt>
      <trkpt lat="42.2017170" lon="-8.6078330">
        <ele>81.5</ele>
        <time>2019-08-17T07:13:49Z</time>
      </trkpt>
      <trkpt lat="42.2017340" lon="-8.6078140">
        <ele>81.7</ele>
        <time>2019-08-17T07:13:50Z</time>
      </trkpt>
      <trkpt lat="42.2018010" lon="-8.6077170">
        <ele>82.7</ele>
        <time>2019-08-17T07:13:54Z</time>
      </trkpt>
      <trkpt lat="42.2018110" lon="-8.6076910">
        <ele>82.9</ele>
        <time>2019-08-17T07:13:55Z</time>
      </trkpt>
      <trkpt lat="42.2018270" lon="-8.6076620">
        <ele>83.2</ele>
        <time>2019-08-17T07:13:56Z</time>
      </trkpt>
      <trkpt lat="42.2018430" lon="-8.6076380">
        <ele>83.3</ele>
        <time>2019-08-17T07:13:57Z</time>
      </trkpt>
      <trkpt lat="42.2018640" lon="-8.6076150">
        <ele>83.5</ele>
        <time>2019-08-17T07:13:58Z</time>
      </trkpt>
      <trkpt lat="42.2019650" lon="-8.6074810">
        <ele>84.3</ele>
        <time>2019-08-17T07:14:04Z</time>
      </trkpt>
      <trkpt lat="42.2020730" lon="-8.6073860">
        <ele>84.7</ele>
        <time>2019-08-17T07:14:09Z</time>
      </trkpt>
      <trkpt lat="42.2021390" lon="-8.6072440">
        <ele>84.1</ele>
        <time>2019-08-17T07:14:13Z</time>
      </trkpt>
      <trkpt lat="42.2021610" lon="-8.6071660">
        <ele>83.9</ele>
        <time>2019-08-17T07:14:15Z</time>
      </trkpt>
      <trkpt lat="42.2023900" lon="-8.6067540">
        <ele>83.1</ele>
        <time>2019-08-17T07:14:27Z</time>
      </trkpt>
      <trkpt lat="42.2026050" lon="-8.6065100">
        <ele>83.0</ele>
        <time>2019-08-17T07:14:37Z</time>
      </trkpt>
      <trkpt lat="42.2027980" lon="-8.6063270">
        <ele>83.0</ele>
        <time>2019-08-17T07:14:45Z</time>
      </trkpt>
      <trkpt lat="42.2030570" lon="-8.6061170">
        <ele>83.0</ele>
        <time>2019-08-17T07:14:53Z</time>
      </trkpt>
      <trkpt lat="42.2030850" lon="-8.6060880">
        <ele>83.0</ele>
        <time>2019-08-17T07:14:54Z</time>
      </trkpt>
      <trkpt lat="42.2031160" lon="-8.6060730">
        <ele>83.2</ele>
        <time>2019-08-17T07:14:55Z</time>
      </trkpt>
      <trkpt lat="42.2031470" lon="-8.6060610">
        <ele>83.3</ele>
        <time>2019-08-17T07:14:56Z</time>
      </trkpt>
      <trkpt lat="42.2031800" lon="-8.6060470">
        <ele>83.4</ele>
        <time>2019-08-17T07:14:57Z</time>
      </trkpt>
      <trkpt lat="42.2032120" lon="-8.6060310">
        <ele>83.4</ele>
        <time>2019-08-17T07:14:58Z</time>
      </trkpt>
      <trkpt lat="42.2032410" lon="-8.6060160">
        <ele>83.5</ele>
        <time>2019-08-17T07:14:59Z</time>
      </trkpt>
      <trkpt lat="42.2034180" lon="-8.6059400">
        <ele>83.9</ele>
        <time>2019-08-17T07:15:06Z</time>
      </trkpt>
      <trkpt lat="42.2035570" lon="-8.6058560">
        <ele>84.3</ele>
        <time>2019-08-17T07:15:11Z</time>
      </trkpt>
      <trkpt lat="42.2035850" lon="-8.6058370">
        <ele>84.4</ele>
        <time>2019-08-17T07:15:12Z</time>
      </trkpt>
      <trkpt lat="42.2036190" lon="-8.6058140">
        <ele>84.5</ele>
        <time>2019-08-17T07:15:13Z</time>
      </trkpt>
      <trkpt lat="42.2036520" lon="-8.6057990">
        <ele>84.6</ele>
        <time>2019-08-17T07:15:14Z</time>
      </trkpt>
      <trkpt lat="42.2036870" lon="-8.6057840">
        <ele>84.8</ele>
        <time>2019-08-17T07:15:15Z</time>
      </trkpt>
      <trkpt lat="42.2037160" lon="-8.6057720">
        <ele>84.9</ele>
        <time>2019-08-17T07:15:16Z</time>
      </trkpt>
      <trkpt lat="42.2038960" lon="-8.6057450">
        <ele>86.5</ele>
        <time>2019-08-17T07:15:23Z</time>
      </trkpt>
      <trkpt lat="42.2039710" lon="-8.6058350">
        <ele>87.8</ele>
        <time>2019-08-17T07:15:28Z</time>
      </trkpt>
      <trkpt lat="42.2039800" lon="-8.6058540">
        <ele>88.0</ele>
        <time>2019-08-17T07:15:29Z</time>
      </trkpt>
      <trkpt lat="42.2039850" lon="-8.6058740">
        <ele>88.1</ele>
        <time>2019-08-17T07:15:30Z</time>
      </trkpt>
      <trkpt lat="42.2039890" lon="-8.6058850">
        <ele>88.2</ele>
        <time>2019-08-17T07:15:31Z</time>
      </trkpt>
      <trkpt lat="42.2039880" lon="-8.6058840">
        <ele>88.2</ele>
        <time>2019-08-17T07:15:32Z</time>
      </trkpt>
      <trkpt lat="42.2040020" lon="-8.6059160">
        <ele>88.6</ele>
        <time>2019-08-17T07:15:54Z</time>
      </trkpt>
      <trkpt lat="42.2040240" lon="-8.6059270">
        <ele>88.9</ele>
        <time>2019-08-17T07:15:55Z</time>
      </trkpt>
      <trkpt lat="42.2041360" lon="-8.6059840">
        <ele>90.2</ele>
        <time>2019-08-17T07:15:59Z</time>
      </trkpt>
      <trkpt lat="42.2041590" lon="-8.6059980">
        <ele>90.5</ele>
        <time>2019-08-17T07:16:00Z</time>
      </trkpt>
      <trkpt lat="42.2041860" lon="-8.6060100">
        <ele>90.8</ele>
        <time>2019-08-17T07:16:01Z</time>
      </trkpt>
      <trkpt lat="42.2042090" lon="-8.6060200">
        <ele>91.0</ele>
        <time>2019-08-17T07:16:02Z</time>
      </trkpt>
      <trkpt lat="42.2042340" lon="-8.6060360">
        <ele>91.3</ele>
        <time>2019-08-17T07:16:03Z</time>
      </trkpt>
      <trkpt lat="42.2042970" lon="-8.6060760">
        <ele>92.0</ele>
        <time>2019-08-17T07:16:06Z</time>
      </trkpt>
      <trkpt lat="42.2043330" lon="-8.6060960">
        <ele>92.5</ele>
        <time>2019-08-17T07:16:08Z</time>
      </trkpt>
      <trkpt lat="42.2043510" lon="-8.6061100">
        <ele>92.7</ele>
        <time>2019-08-17T07:16:09Z</time>
      </trkpt>
      <trkpt lat="42.2043690" lon="-8.6061270">
        <ele>93.0</ele>
        <time>2019-08-17T07:16:10Z</time>
      </trkpt>
      <trkpt lat="42.2043880" lon="-8.6061430">
        <ele>93.3</ele>
        <time>2019-08-17T07:16:11Z</time>
      </trkpt>
      <trkpt lat="42.2044060" lon="-8.6061550">
        <ele>93.5</ele>
        <time>2019-08-17T07:16:12Z</time>
      </trkpt>
      <trkpt lat="42.2044240" lon="-8.6061610">
        <ele>93.8</ele>
        <time>2019-08-17T07:16:13Z</time>
      </trkpt>
      <trkpt lat="42.2044740" lon="-8.6061800">
        <ele>94.6</ele>
        <time>2019-08-17T07:16:16Z</time>
      </trkpt>
      <trkpt lat="42.2044920" lon="-8.6061880">
        <ele>94.9</ele>
        <time>2019-08-17T07:16:17Z</time>
      </trkpt>
      <trkpt lat="42.2045070" lon="-8.6061930">
        <ele>95.1</ele>
        <time>2019-08-17T07:16:18Z</time>
      </trkpt>
      <trkpt lat="42.2045250" lon="-8.6061940">
        <ele>95.3</ele>
        <time>2019-08-17T07:16:19Z</time>
      </trkpt>
      <trkpt lat="42.2045450" lon="-8.6061880">
        <ele>95.6</ele>
        <time>2019-08-17T07:16:20Z</time>
      </trkpt>
      <trkpt lat="42.2046600" lon="-8.6062470">
        <ele>97.6</ele>
        <time>2019-08-17T07:16:27Z</time>
      </trkpt>
      <trkpt lat="42.2046810" lon="-8.6062520">
        <ele>97.9</ele>
        <time>2019-08-17T07:16:28Z</time>
      </trkpt>
      <trkpt lat="42.2047030" lon="-8.6062620">
        <ele>98.3</ele>
        <time>2019-08-17T07:16:29Z</time>
      </trkpt>
      <trkpt lat="42.2047260" lon="-8.6062820">
        <ele>98.7</ele>
        <time>2019-08-17T07:16:30Z</time>
      </trkpt>
      <trkpt lat="42.2047500" lon="-8.6062910">
        <ele>99.0</ele>
        <time>2019-08-17T07:16:31Z</time>
      </trkpt>
      <trkpt lat="42.2048120" lon="-8.6063160">
        <ele>99.8</ele>
        <time>2019-08-17T07:16:34Z</time>
      </trkpt>
      <trkpt lat="42.2049150" lon="-8.6063270">
        <ele>101.0</ele>
        <time>2019-08-17T07:16:39Z</time>
      </trkpt>
      <trkpt lat="42.2049350" lon="-8.6063200">
        <ele>101.2</ele>
        <time>2019-08-17T07:16:40Z</time>
      </trkpt>
      <trkpt lat="42.2049540" lon="-8.6063170">
        <ele>101.4</ele>
        <time>2019-08-17T07:16:41Z</time>
      </trkpt>
      <trkpt lat="42.2049710" lon="-8.6063120">
        <ele>101.6</ele>
        <time>2019-08-17T07:16:42Z</time>
      </trkpt>
      <trkpt lat="42.2049940" lon="-8.6063110">
        <ele>101.8</ele>
        <time>2019-08-17T07:16:43Z</time>
      </trkpt>
      <trkpt lat="42.2051420" lon="-8.6062930">
        <ele>103.3</ele>
        <time>2019-08-17T07:16:50Z</time>
      </trkpt>
      <trkpt lat="42.2051620" lon="-8.6062880">
        <ele>103.4</ele>
        <time>2019-08-17T07:16:51Z</time>
      </trkpt>
      <trkpt lat="42.2051850" lon="-8.6062830">
        <ele>103.6</ele>
        <time>2019-08-17T07:16:52Z</time>
      </trkpt>
      <trkpt lat="42.2052060" lon="-8.6062830">
        <ele>103.7</ele>
        <time>2019-08-17T07:16:53Z</time>
      </trkpt>
      <trkpt lat="42.2052260" lon="-8.6062800">
        <ele>103.9</ele>
        <time>2019-08-17T07:16:54Z</time>
      </trkpt>
      <trkpt lat="42.2053190" lon="-8.6062610">
        <ele>104.6</ele>
        <time>2019-08-17T07:16:58Z</time>
      </trkpt>
      <trkpt lat="42.2053390" lon="-8.6062570">
        <ele>104.8</ele>
        <time>2019-08-17T07:16:59Z</time>
      </trkpt>
      <trkpt lat="42.2053610" lon="-8.6062610">
        <ele>105.0</ele>
        <time>2019-08-17T07:17:00Z</time>
      </trkpt>
      <trkpt lat="42.2053800" lon="-8.6062620">
        <ele>105.2</ele>
        <time>2019-08-17T07:17:01Z</time>
      </trkpt>
      <trkpt lat="42.2053950" lon="-8.6062600">
        <ele>105.4</ele>
        <time>2019-08-17T07:17:02Z</time>
      </trkpt>
      <trkpt lat="42.2054740" lon="-8.6062610">
        <ele>106.2</ele>
        <time>2019-08-17T07:17:06Z</time>
      </trkpt>
      <trkpt lat="42.2054970" lon="-8.6062540">
        <ele>106.3</ele>
        <time>2019-08-17T07:17:07Z</time>
      </trkpt>
      <trkpt lat="42.2055170" lon="-8.6062500">
        <ele>106.5</ele>
        <time>2019-08-17T07:17:08Z</time>
      </trkpt>
      <trkpt lat="42.2055370" lon="-8.6062490">
        <ele>106.6</ele>
        <time>2019-08-17T07:17:09Z</time>
      </trkpt>
      <trkpt lat="42.2055610" lon="-8.6062580">
        <ele>106.8</ele>
        <time>2019-08-17T07:17:10Z</time>
      </trkpt>
      <trkpt lat="42.2056210" lon="-8.6062800">
        <ele>107.2</ele>
        <time>2019-08-17T07:17:14Z</time>
      </trkpt>
      <trkpt lat="42.2056290" lon="-8.6062770">
        <ele>107.3</ele>
        <time>2019-08-17T07:17:15Z</time>
      </trkpt>
      <trkpt lat="42.2056430" lon="-8.6062840">
        <ele>107.4</ele>
        <time>2019-08-17T07:17:16Z</time>
      </trkpt>
      <trkpt lat="42.2056580" lon="-8.6062890">
        <ele>107.5</ele>
        <time>2019-08-17T07:17:17Z</time>
      </trkpt>
      <trkpt lat="42.2056720" lon="-8.6062960">
        <ele>107.7</ele>
        <time>2019-08-17T07:17:18Z</time>
      </trkpt>
      <trkpt lat="42.2057300" lon="-8.6063090">
        <ele>108.1</ele>
        <time>2019-08-17T07:17:22Z</time>
      </trkpt>
      <trkpt lat="42.2057690" lon="-8.6063140">
        <ele>108.6</ele>
        <time>2019-08-17T07:17:24Z</time>
      </trkpt>
      <trkpt lat="42.2057870" lon="-8.6063140">
        <ele>108.8</ele>
        <time>2019-08-17T07:17:25Z</time>
      </trkpt>
      <trkpt lat="42.2058040" lon="-8.6063160">
        <ele>109.0</ele>
        <time>2019-08-17T07:17:26Z</time>
      </trkpt>
      <trkpt lat="42.2058170" lon="-8.6063170">
        <ele>109.2</ele>
        <time>2019-08-17T07:17:27Z</time>
      </trkpt>
      <trkpt lat="42.2058730" lon="-8.6063240">
        <ele>109.9</ele>
        <time>2019-08-17T07:17:30Z</time>
      </trkpt>
      <trkpt lat="42.2060170" lon="-8.6063800">
        <ele>112.2</ele>
        <time>2019-08-17T07:17:37Z</time>
      </trkpt>
      <trkpt lat="42.2060330" lon="-8.6063920">
        <ele>112.5</ele>
        <time>2019-08-17T07:17:38Z</time>
      </trkpt>
      <trkpt lat="42.2060440" lon="-8.6064030">
        <ele>112.8</ele>
        <time>2019-08-17T07:17:39Z</time>
      </trkpt>
      <trkpt lat="42.2060590" lon="-8.6064200">
        <ele>113.1</ele>
        <time>2019-08-17T07:17:40Z</time>
      </trkpt>
      <trkpt lat="42.2060680" lon="-8.6064370">
        <ele>113.4</ele>
        <time>2019-08-17T07:17:41Z</time>
      </trkpt>
      <trkpt lat="42.2061280" lon="-8.6064900">
        <ele>114.6</ele>
        <time>2019-08-17T07:17:46Z</time>
      </trkpt>
      <trkpt lat="42.2061710" lon="-8.6065210">
        <ele>115.1</ele>
        <time>2019-08-17T07:17:50Z</time>
      </trkpt>
      <trkpt lat="42.2061840" lon="-8.6065250">
        <ele>115.2</ele>
        <time>2019-08-17T07:17:51Z</time>
      </trkpt>
      <trkpt lat="42.2061950" lon="-8.6065290">
        <ele>115.4</ele>
        <time>2019-08-17T07:17:52Z</time>
      </trkpt>
      <trkpt lat="42.2062050" lon="-8.6065380">
        <ele>115.5</ele>
        <time>2019-08-17T07:17:53Z</time>
      </trkpt>
      <trkpt lat="42.2062150" lon="-8.6065470">
        <ele>115.7</ele>
        <time>2019-08-17T07:17:54Z</time>
      </trkpt>
      <trkpt lat="42.2062810" lon="-8.6066310">
        <ele>116.9</ele>
        <time>2019-08-17T07:18:01Z</time>
      </trkpt>
      <trkpt lat="42.2062910" lon="-8.6066310">
        <ele>117.0</ele>
        <time>2019-08-17T07:18:02Z</time>
      </trkpt>
      <trkpt lat="42.2063070" lon="-8.6066400">
        <ele>117.3</ele>
        <time>2019-08-17T07:18:03Z</time>
      </trkpt>
      <trkpt lat="42.2063220" lon="-8.6066500">
        <ele>117.5</ele>
        <time>2019-08-17T07:18:04Z</time>
      </trkpt>
      <trkpt lat="42.2063340" lon="-8.6066610">
        <ele>117.7</ele>
        <time>2019-08-17T07:18:05Z</time>
      </trkpt>
      <trkpt lat="42.2063930" lon="-8.6067340">
        <ele>118.6</ele>
        <time>2019-08-17T07:18:10Z</time>
      </trkpt>
      <trkpt lat="42.2064040" lon="-8.6067480">
        <ele>118.8</ele>
        <time>2019-08-17T07:18:11Z</time>
      </trkpt>
      <trkpt lat="42.2064170" lon="-8.6067620">
        <ele>119.1</ele>
        <time>2019-08-17T07:18:12Z</time>
      </trkpt>
      <trkpt lat="42.2064330" lon="-8.6067750">
        <ele>119.4</ele>
        <time>2019-08-17T07:18:13Z</time>
      </trkpt>
      <trkpt lat="42.2064520" lon="-8.6067820">
        <ele>119.6</ele>
        <time>2019-08-17T07:18:14Z</time>
      </trkpt>
      <trkpt lat="42.2065400" lon="-8.6068300">
        <ele>120.8</ele>
        <time>2019-08-17T07:18:20Z</time>
      </trkpt>
      <trkpt lat="42.2065540" lon="-8.6068430">
        <ele>121.0</ele>
        <time>2019-08-17T07:18:21Z</time>
      </trkpt>
      <trkpt lat="42.2065710" lon="-8.6068540">
        <ele>121.2</ele>
        <time>2019-08-17T07:18:22Z</time>
      </trkpt>
      <trkpt lat="42.2065860" lon="-8.6068650">
        <ele>121.5</ele>
        <time>2019-08-17T07:18:23Z</time>
      </trkpt>
      <trkpt lat="42.2066000" lon="-8.6068740">
        <ele>121.7</ele>
        <time>2019-08-17T07:18:24Z</time>
      </trkpt>
      <trkpt lat="42.2067260" lon="-8.6069500">
        <ele>123.2</ele>
        <time>2019-08-17T07:18:31Z</time>
      </trkpt>
      <trkpt lat="42.2067380" lon="-8.6069800">
        <ele>123.5</ele>
        <time>2019-08-17T07:18:32Z</time>
      </trkpt>
      <trkpt lat="42.2067480" lon="-8.6069910">
        <ele>123.7</ele>
        <time>2019-08-17T07:18:33Z</time>
      </trkpt>
      <trkpt lat="42.2067650" lon="-8.6070020">
        <ele>123.9</ele>
        <time>2019-08-17T07:18:34Z</time>
      </trkpt>
      <trkpt lat="42.2067790" lon="-8.6070070">
        <ele>124.1</ele>
        <time>2019-08-17T07:18:35Z</time>
      </trkpt>
      <trkpt lat="42.2068900" lon="-8.6070410">
        <ele>125.4</ele>
        <time>2019-08-17T07:18:42Z</time>
      </trkpt>
      <trkpt lat="42.2069070" lon="-8.6070530">
        <ele>125.6</ele>
        <time>2019-08-17T07:18:43Z</time>
      </trkpt>
      <trkpt lat="42.2069220" lon="-8.6070600">
        <ele>125.8</ele>
        <time>2019-08-17T07:18:44Z</time>
      </trkpt>
      <trkpt lat="42.2069380" lon="-8.6070680">
        <ele>125.9</ele>
        <time>2019-08-17T07:18:45Z</time>
      </trkpt>
      <trkpt lat="42.2069540" lon="-8.6070750">
        <ele>126.1</ele>
        <time>2019-08-17T07:18:46Z</time>
      </trkpt>
      <trkpt lat="42.2070710" lon="-8.6071870">
        <ele>127.6</ele>
        <time>2019-08-17T07:18:54Z</time>
      </trkpt>
      <trkpt lat="42.2070920" lon="-8.6072220">
        <ele>127.9</ele>
        <time>2019-08-17T07:18:56Z</time>
      </trkpt>
      <trkpt lat="42.2071050" lon="-8.6072370">
        <ele>128.1</ele>
        <time>2019-08-17T07:18:57Z</time>
      </trkpt>
      <trkpt lat="42.2071170" lon="-8.6072500">
        <ele>128.2</ele>
        <time>2019-08-17T07:18:58Z</time>
      </trkpt>
      <trkpt lat="42.2071280" lon="-8.6072600">
        <ele>128.3</ele>
        <time>2019-08-17T07:18:59Z</time>
      </trkpt>
      <trkpt lat="42.2071420" lon="-8.6072710">
        <ele>128.5</ele>
        <time>2019-08-17T07:19:00Z</time>
      </trkpt>
      <trkpt lat="42.2071730" lon="-8.6073150">
        <ele>129.0</ele>
        <time>2019-08-17T07:19:03Z</time>
      </trkpt>
      <trkpt lat="42.2072620" lon="-8.6074090">
        <ele>130.1</ele>
        <time>2019-08-17T07:19:09Z</time>
      </trkpt>
      <trkpt lat="42.2072720" lon="-8.6074250">
        <ele>130.3</ele>
        <time>2019-08-17T07:19:10Z</time>
      </trkpt>
      <trkpt lat="42.2072790" lon="-8.6074440">
        <ele>130.5</ele>
        <time>2019-08-17T07:19:11Z</time>
      </trkpt>
      <trkpt lat="42.2072880" lon="-8.6074590">
        <ele>130.6</ele>
        <time>2019-08-17T07:19:12Z</time>
      </trkpt>
      <trkpt lat="42.2072930" lon="-8.6074790">
        <ele>130.8</ele>
        <time>2019-08-17T07:19:13Z</time>
      </trkpt>
      <trkpt lat="42.2073720" lon="-8.6075740">
        <ele>131.9</ele>
        <time>2019-08-17T07:19:19Z</time>
      </trkpt>
      <trkpt lat="42.2073830" lon="-8.6075910">
        <ele>132.1</ele>
        <time>2019-08-17T07:19:20Z</time>
      </trkpt>
      <trkpt lat="42.2073920" lon="-8.6076090">
        <ele>132.3</ele>
        <time>2019-08-17T07:19:21Z</time>
      </trkpt>
      <trkpt lat="42.2074000" lon="-8.6076300">
        <ele>132.5</ele>
        <time>2019-08-17T07:19:22Z</time>
      </trkpt>
      <trkpt lat="42.2074090" lon="-8.6076490">
        <ele>132.7</ele>
        <time>2019-08-17T07:19:23Z</time>
      </trkpt>
      <trkpt lat="42.2074920" lon="-8.6077140">
        <ele>133.9</ele>
        <time>2019-08-17T07:19:29Z</time>
      </trkpt>
      <trkpt lat="42.2075100" lon="-8.6077230">
        <ele>134.2</ele>
        <time>2019-08-17T07:19:30Z</time>
      </trkpt>
      <trkpt lat="42.2075250" lon="-8.6077300">
        <ele>134.4</ele>
        <time>2019-08-17T07:19:31Z</time>
      </trkpt>
      <trkpt lat="42.2075360" lon="-8.6077380">
        <ele>134.6</ele>
        <time>2019-08-17T07:19:32Z</time>
      </trkpt>
      <trkpt lat="42.2075490" lon="-8.6077510">
        <ele>134.8</ele>
        <time>2019-08-17T07:19:33Z</time>
      </trkpt>
      <trkpt lat="42.2076190" lon="-8.6077850">
        <ele>135.6</ele>
        <time>2019-08-17T07:19:38Z</time>
      </trkpt>
      <trkpt lat="42.2076350" lon="-8.6077950">
        <ele>135.8</ele>
        <time>2019-08-17T07:19:39Z</time>
      </trkpt>
      <trkpt lat="42.2076450" lon="-8.6078070">
        <ele>136.0</ele>
        <time>2019-08-17T07:19:40Z</time>
      </trkpt>
      <trkpt lat="42.2076590" lon="-8.6078250">
        <ele>136.2</ele>
        <time>2019-08-17T07:19:41Z</time>
      </trkpt>
      <trkpt lat="42.2076750" lon="-8.6078460">
        <ele>136.4</ele>
        <time>2019-08-17T07:19:42Z</time>
      </trkpt>
      <trkpt lat="42.2077480" lon="-8.6079140">
        <ele>137.4</ele>
        <time>2019-08-17T07:19:47Z</time>
      </trkpt>
      <trkpt lat="42.2077790" lon="-8.6079330">
        <ele>137.7</ele>
        <time>2019-08-17T07:19:49Z</time>
      </trkpt>
      <trkpt lat="42.2077940" lon="-8.6079490">
        <ele>137.9</ele>
        <time>2019-08-17T07:19:50Z</time>
      </trkpt>
      <trkpt lat="42.2078070" lon="-8.6079640">
        <ele>138.1</ele>
        <time>2019-08-17T07:19:51Z</time>
      </trkpt>
      <trkpt lat="42.2078250" lon="-8.6079730">
        <ele>138.2</ele>
        <time>2019-08-17T07:19:52Z</time>
      </trkpt>
      <trkpt lat="42.2078430" lon="-8.6079820">
        <ele>138.4</ele>
        <time>2019-08-17T07:19:53Z</time>
      </trkpt>
      <trkpt lat="42.2078690" lon="-8.6080000">
        <ele>138.8</ele>
        <time>2019-08-17T07:19:55Z</time>
      </trkpt>
      <trkpt lat="42.2079370" lon="-8.6080560">
        <ele>139.7</ele>
        <time>2019-08-17T07:19:59Z</time>
      </trkpt>
      <trkpt lat="42.2079540" lon="-8.6080680">
        <ele>139.9</ele>
        <time>2019-08-17T07:20:00Z</time>
      </trkpt>
      <trkpt lat="42.2079700" lon="-8.6080810">
        <ele>140.1</ele>
        <time>2019-08-17T07:20:01Z</time>
      </trkpt>
      <trkpt lat="42.2079830" lon="-8.6080990">
        <ele>140.3</ele>
        <time>2019-08-17T07:20:02Z</time>
      </trkpt>
      <trkpt lat="42.2079950" lon="-8.6081090">
        <ele>140.5</ele>
        <time>2019-08-17T07:20:03Z</time>
      </trkpt>
      <trkpt lat="42.2081170" lon="-8.6081760">
        <ele>142.0</ele>
        <time>2019-08-17T07:20:10Z</time>
      </trkpt>
      <trkpt lat="42.2081380" lon="-8.6081940">
        <ele>142.3</ele>
        <time>2019-08-17T07:20:11Z</time>
      </trkpt>
      <trkpt lat="42.2081570" lon="-8.6082120">
        <ele>142.5</ele>
        <time>2019-08-17T07:20:12Z</time>
      </trkpt>
      <trkpt lat="42.2081770" lon="-8.6082280">
        <ele>142.7</ele>
        <time>2019-08-17T07:20:13Z</time>
      </trkpt>
      <trkpt lat="42.2081940" lon="-8.6082460">
        <ele>142.9</ele>
        <time>2019-08-17T07:20:14Z</time>
      </trkpt>
      <trkpt lat="42.2082720" lon="-8.6083200">
        <ele>143.8</ele>
        <time>2019-08-17T07:20:19Z</time>
      </trkpt>
      <trkpt lat="42.2082880" lon="-8.6083360">
        <ele>144.0</ele>
        <time>2019-08-17T07:20:20Z</time>
      </trkpt>
      <trkpt lat="42.2083050" lon="-8.6083490">
        <ele>144.2</ele>
        <time>2019-08-17T07:20:21Z</time>
      </trkpt>
      <trkpt lat="42.2083180" lon="-8.6083640">
        <ele>144.4</ele>
        <time>2019-08-17T07:20:22Z</time>
      </trkpt>
      <trkpt lat="42.2083300" lon="-8.6083790">
        <ele>144.5</ele>
        <time>2019-08-17T07:20:23Z</time>
      </trkpt>
      <trkpt lat="42.2084250" lon="-8.6084480">
        <ele>146.0</ele>
        <time>2019-08-17T07:20:29Z</time>
      </trkpt>
      <trkpt lat="42.2084410" lon="-8.6084570">
        <ele>146.2</ele>
        <time>2019-08-17T07:20:30Z</time>
      </trkpt>
      <trkpt lat="42.2084530" lon="-8.6084670">
        <ele>146.4</ele>
        <time>2019-08-17T07:20:31Z</time>
      </trkpt>
      <trkpt lat="42.2084620" lon="-8.6084810">
        <ele>146.5</ele>
        <time>2019-08-17T07:20:32Z</time>
      </trkpt>
      <trkpt lat="42.2084700" lon="-8.6085010">
        <ele>146.8</ele>
        <time>2019-08-17T07:20:33Z</time>
      </trkpt>
      <trkpt lat="42.2084960" lon="-8.6085550">
        <ele>147.5</ele>
        <time>2019-08-17T07:20:37Z</time>
      </trkpt>
      <trkpt lat="42.2085110" lon="-8.6085700">
        <ele>147.8</ele>
        <time>2019-08-17T07:20:38Z</time>
      </trkpt>
      <trkpt lat="42.2085250" lon="-8.6085860">
        <ele>148.1</ele>
        <time>2019-08-17T07:20:39Z</time>
      </trkpt>
      <trkpt lat="42.2085370" lon="-8.6086070">
        <ele>148.4</ele>
        <time>2019-08-17T07:20:40Z</time>
      </trkpt>
      <trkpt lat="42.2085510" lon="-8.6086230">
        <ele>148.7</ele>
        <time>2019-08-17T07:20:41Z</time>
      </trkpt>
      <trkpt lat="42.2086350" lon="-8.6087470">
        <ele>150.7</ele>
        <time>2019-08-17T07:20:49Z</time>
      </trkpt>
      <trkpt lat="42.2086390" lon="-8.6087630">
        <ele>150.8</ele>
        <time>2019-08-17T07:20:50Z</time>
      </trkpt>
      <trkpt lat="42.2086330" lon="-8.6087720">
        <ele>150.9</ele>
        <time>2019-08-17T07:20:51Z</time>
      </trkpt>
      <trkpt lat="42.2086330" lon="-8.6087720">
        <ele>150.9</ele>
        <time>2019-08-17T07:20:52Z</time>
      </trkpt>
      <trkpt lat="42.2086790" lon="-8.6087680">
        <ele>151.4</ele>
        <time>2019-08-17T07:22:18Z</time>
      </trkpt>
      <trkpt lat="42.2086990" lon="-8.6087760">
        <ele>151.6</ele>
        <time>2019-08-17T07:22:19Z</time>
      </trkpt>
      <trkpt lat="42.2088170" lon="-8.6088440">
        <ele>152.1</ele>
        <time>2019-08-17T07:22:24Z</time>
      </trkpt>
      <trkpt lat="42.2088380" lon="-8.6088590">
        <ele>152.1</ele>
        <time>2019-08-17T07:22:25Z</time>
      </trkpt>
      <trkpt lat="42.2088560" lon="-8.6088680">
        <ele>152.1</ele>
        <time>2019-08-17T07:22:26Z</time>
      </trkpt>
      <trkpt lat="42.2088700" lon="-8.6088740">
        <ele>152.1</ele>
        <time>2019-08-17T07:22:27Z</time>
      </trkpt>
      <trkpt lat="42.2088830" lon="-8.6088790">
        <ele>152.1</ele>
        <time>2019-08-17T07:22:28Z</time>
      </trkpt>
      <trkpt lat="42.2088940" lon="-8.6088860">
        <ele>152.1</ele>
        <time>2019-08-17T07:22:29Z</time>
      </trkpt>
      <trkpt lat="42.2089400" lon="-8.6089030">
        <ele>152.1</ele>
        <time>2019-08-17T07:22:32Z</time>
      </trkpt>
      <trkpt lat="42.2089530" lon="-8.6089100">
        <ele>152.0</ele>
        <time>2019-08-17T07:22:33Z</time>
      </trkpt>
      <trkpt lat="42.2089640" lon="-8.6089140">
        <ele>152.0</ele>
        <time>2019-08-17T07:22:34Z</time>
      </trkpt>
      <trkpt lat="42.2089790" lon="-8.6089180">
        <ele>152.0</ele>
        <time>2019-08-17T07:22:35Z</time>
      </trkpt>
      <trkpt lat="42.2089930" lon="-8.6089220">
        <ele>152.0</ele>
        <time>2019-08-17T07:22:36Z</time>
      </trkpt>
      <trkpt lat="42.2090560" lon="-8.6089460">
        <ele>151.8</ele>
        <time>2019-08-17T07:22:40Z</time>
      </trkpt>
      <trkpt lat="42.2092250" lon="-8.6089930">
        <ele>151.6</ele>
        <time>2019-08-17T07:22:49Z</time>
      </trkpt>
      <trkpt lat="42.2093170" lon="-8.6090300">
        <ele>151.3</ele>
        <time>2019-08-17T07:22:53Z</time>
      </trkpt>
      <trkpt lat="42.2093360" lon="-8.6090330">
        <ele>151.3</ele>
        <time>2019-08-17T07:22:54Z</time>
      </trkpt>
      <trkpt lat="42.2093550" lon="-8.6090340">
        <ele>151.2</ele>
        <time>2019-08-17T07:22:55Z</time>
      </trkpt>
      <trkpt lat="42.2093660" lon="-8.6090340">
        <ele>151.2</ele>
        <time>2019-08-17T07:22:56Z</time>
      </trkpt>
      <trkpt lat="42.2093870" lon="-8.6090310">
        <ele>151.2</ele>
        <time>2019-08-17T07:22:57Z</time>
      </trkpt>
      <trkpt lat="42.2094040" lon="-8.6090270">
        <ele>151.1</ele>
        <time>2019-08-17T07:22:58Z</time>
      </trkpt>
      <trkpt lat="42.2095340" lon="-8.6089980">
        <ele>150.9</ele>
        <time>2019-08-17T07:23:06Z</time>
      </trkpt>
      <trkpt lat="42.2096890" lon="-8.6090240">
        <ele>150.8</ele>
        <time>2019-08-17T07:23:12Z</time>
      </trkpt>
      <trkpt lat="42.2099000" lon="-8.6090090">
        <ele>150.7</ele>
        <time>2019-08-17T07:23:19Z</time>
      </trkpt>
      <trkpt lat="42.2100420" lon="-8.6090080">
        <ele>150.6</ele>
        <time>2019-08-17T07:23:23Z</time>
      </trkpt>
      <trkpt lat="42.2100780" lon="-8.6090050">
        <ele>150.6</ele>
        <time>2019-08-17T07:23:24Z</time>
      </trkpt>
      <trkpt lat="42.2101200" lon="-8.6090080">
        <ele>150.6</ele>
        <time>2019-08-17T07:23:25Z</time>
      </trkpt>
      <trkpt lat="42.2101670" lon="-8.6090140">
        <ele>150.4</ele>
        <time>2019-08-17T07:23:26Z</time>
      </trkpt>
      <trkpt lat="42.2102160" lon="-8.6090210">
        <ele>150.3</ele>
        <time>2019-08-17T07:23:27Z</time>
      </trkpt>
      <trkpt lat="42.2105360" lon="-8.6090800">
        <ele>149.6</ele>
        <time>2019-08-17T07:23:33Z</time>
      </trkpt>
      <trkpt lat="42.2105940" lon="-8.6090900">
        <ele>149.5</ele>
        <time>2019-08-17T07:23:34Z</time>
      </trkpt>
      <trkpt lat="42.2106530" lon="-8.6091040">
        <ele>149.3</ele>
        <time>2019-08-17T07:23:35Z</time>
      </trkpt>
      <trkpt lat="42.2107130" lon="-8.6091180">
        <ele>149.1</ele>
        <time>2019-08-17T07:23:36Z</time>
      </trkpt>
      <trkpt lat="42.2107730" lon="-8.6091330">
        <ele>149.0</ele>
        <time>2019-08-17T07:23:37Z</time>
      </trkpt>
      <trkpt lat="42.2111780" lon="-8.6092610">
        <ele>147.9</ele>
        <time>2019-08-17T07:23:44Z</time>
      </trkpt>
      <trkpt lat="42.2112970" lon="-8.6092970">
        <ele>147.7</ele>
        <time>2019-08-17T07:23:46Z</time>
      </trkpt>
      <trkpt lat="42.2113610" lon="-8.6093140">
        <ele>147.5</ele>
        <time>2019-08-17T07:23:47Z</time>
      </trkpt>
      <trkpt lat="42.2114300" lon="-8.6093350">
        <ele>147.4</ele>
        <time>2019-08-17T07:23:48Z</time>
      </trkpt>
      <trkpt lat="42.2114920" lon="-8.6093550">
        <ele>147.3</ele>
        <time>2019-08-17T07:23:49Z</time>
      </trkpt>
      <trkpt lat="42.2115540" lon="-8.6093710">
        <ele>147.2</ele>
        <time>2019-08-17T07:23:50Z</time>
      </trkpt>
      <trkpt lat="42.2117350" lon="-8.6094100">
        <ele>146.9</ele>
        <time>2019-08-17T07:23:53Z</time>
      </trkpt>
      <trkpt lat="42.2121100" lon="-8.6094260">
        <ele>146.5</ele>
        <time>2019-08-17T07:24:00Z</time>
      </trkpt>
      <trkpt lat="42.2124020" lon="-8.6094300">
        <ele>146.3</ele>
        <time>2019-08-17T07:24:07Z</time>
      </trkpt>
      <trkpt lat="42.2126320" lon="-8.6094260">
        <ele>146.0</ele>
        <time>2019-08-17T07:24:13Z</time>
      </trkpt>
      <trkpt lat="42.2128770" lon="-8.6094200">
        <ele>145.8</ele>
        <time>2019-08-17T07:24:19Z</time>
      </trkpt>
      <trkpt lat="42.2132310" lon="-8.6093750">
        <ele>145.3</ele>
        <time>2019-08-17T07:24:26Z</time>
      </trkpt>
      <trkpt lat="42.2133940" lon="-8.6093510">
        <ele>145.1</ele>
        <time>2019-08-17T07:24:29Z</time>
      </trkpt>
      <trkpt lat="42.2134410" lon="-8.6093410">
        <ele>145.0</ele>
        <time>2019-08-17T07:24:30Z</time>
      </trkpt>
      <trkpt lat="42.2134930" lon="-8.6093320">
        <ele>144.9</ele>
        <time>2019-08-17T07:24:31Z</time>
      </trkpt>
      <trkpt lat="42.2135470" lon="-8.6093240">
        <ele>144.8</ele>
        <time>2019-08-17T07:24:32Z</time>
      </trkpt>
      <trkpt lat="42.2136030" lon="-8.6093140">
        <ele>144.8</ele>
        <time>2019-08-17T07:24:33Z</time>
      </trkpt>
      <trkpt lat="42.2137120" lon="-8.6093060">
        <ele>144.6</ele>
        <time>2019-08-17T07:24:35Z</time>
      </trkpt>
      <trkpt lat="42.2141920" lon="-8.6091620">
        <ele>144.1</ele>
        <time>2019-08-17T07:24:44Z</time>
      </trkpt>
      <trkpt lat="42.2146520" lon="-8.6088680">
        <ele>143.4</ele>
        <time>2019-08-17T07:24:53Z</time>
      </trkpt>
      <trkpt lat="42.2150740" lon="-8.6084620">
        <ele>145.1</ele>
        <time>2019-08-17T07:25:01Z</time>
      </trkpt>
      <trkpt lat="42.2151750" lon="-8.6083550">
        <ele>145.5</ele>
        <time>2019-08-17T07:25:03Z</time>
      </trkpt>
      <trkpt lat="42.2152150" lon="-8.6083030">
        <ele>145.7</ele>
        <time>2019-08-17T07:25:04Z</time>
      </trkpt>
      <trkpt lat="42.2152650" lon="-8.6082570">
        <ele>145.8</ele>
        <time>2019-08-17T07:25:05Z</time>
      </trkpt>
      <trkpt lat="42.2153180" lon="-8.6082160">
        <ele>145.8</ele>
        <time>2019-08-17T07:25:06Z</time>
      </trkpt>
      <trkpt lat="42.2153760" lon="-8.6081770">
        <ele>145.9</ele>
        <time>2019-08-17T07:25:07Z</time>
      </trkpt>
      <trkpt lat="42.2155420" lon="-8.6080840">
        <ele>145.9</ele>
        <time>2019-08-17T07:25:10Z</time>
      </trkpt>
      <trkpt lat="42.2158300" lon="-8.6079810">
        <ele>144.5</ele>
        <time>2019-08-17T07:25:15Z</time>
      </trkpt>
      <trkpt lat="42.2159470" lon="-8.6079520">
        <ele>144.4</ele>
        <time>2019-08-17T07:25:17Z</time>
      </trkpt>
      <trkpt lat="42.2162900" lon="-8.6078140">
        <ele>144.3</ele>
        <time>2019-08-17T07:25:23Z</time>
      </trkpt>
      <trkpt lat="42.2168250" lon="-8.6076530">
        <ele>143.5</ele>
        <time>2019-08-17T07:25:32Z</time>
      </trkpt>
      <trkpt lat="42.2168940" lon="-8.6076340">
        <ele>143.1</ele>
        <time>2019-08-17T07:25:33Z</time>
      </trkpt>
      <trkpt lat="42.2169630" lon="-8.6076160">
        <ele>142.8</ele>
        <time>2019-08-17T07:25:34Z</time>
      </trkpt>
      <trkpt lat="42.2170320" lon="-8.6075950">
        <ele>142.8</ele>
        <time>2019-08-17T07:25:35Z</time>
      </trkpt>
      <trkpt lat="42.2170980" lon="-8.6075750">
        <ele>142.8</ele>
        <time>2019-08-17T07:25:36Z</time>
      </trkpt>
      <trkpt lat="42.2171580" lon="-8.6075560">
        <ele>142.8</ele>
        <time>2019-08-17T07:25:37Z</time>
      </trkpt>
      <trkpt lat="42.2173190" lon="-8.6075150">
        <ele>143.1</ele>
        <time>2019-08-17T07:25:40Z</time>
      </trkpt>
      <trkpt lat="42.2175660" lon="-8.6074870">
        <ele>144.1</ele>
        <time>2019-08-17T07:25:45Z</time>
      </trkpt>
      <trkpt lat="42.2176140" lon="-8.6074840">
        <ele>144.2</ele>
        <time>2019-08-17T07:25:46Z</time>
      </trkpt>
      <trkpt lat="42.2176600" lon="-8.6074880">
        <ele>144.4</ele>
        <time>2019-08-17T07:25:47Z</time>
      </trkpt>
      <trkpt lat="42.2177020" lon="-8.6074920">
        <ele>144.5</ele>
        <time>2019-08-17T07:25:48Z</time>
      </trkpt>
      <trkpt lat="42.2177430" lon="-8.6074910">
        <ele>144.6</ele>
        <time>2019-08-17T07:25:49Z</time>
      </trkpt>
      <trkpt lat="42.2180180" lon="-8.6075120">
        <ele>145.5</ele>
        <time>2019-08-17T07:25:56Z</time>
      </trkpt>
      <trkpt lat="42.2180600" lon="-8.6075160">
        <ele>145.7</ele>
        <time>2019-08-17T07:25:57Z</time>
      </trkpt>
      <trkpt lat="42.2181000" lon="-8.6075190">
        <ele>145.8</ele>
        <time>2019-08-17T07:25:58Z</time>
      </trkpt>
      <trkpt lat="42.2181360" lon="-8.6075240">
        <ele>145.9</ele>
        <time>2019-08-17T07:25:59Z</time>
      </trkpt>
      <trkpt lat="42.2181690" lon="-8.6075300">
        <ele>146.0</ele>
        <time>2019-08-17T07:26:00Z</time>
      </trkpt>
      <trkpt lat="42.2183460" lon="-8.6075360">
        <ele>146.5</ele>
        <time>2019-08-17T07:26:05Z</time>
      </trkpt>
      <trkpt lat="42.2185040" lon="-8.6075450">
        <ele>147.8</ele>
        <time>2019-08-17T07:26:10Z</time>
      </trkpt>
      <trkpt lat="42.2185300" lon="-8.6075540">
        <ele>148.0</ele>
        <time>2019-08-17T07:26:11Z</time>
      </trkpt>
      <trkpt lat="42.2185540" lon="-8.6075590">
        <ele>148.2</ele>
        <time>2019-08-17T07:26:12Z</time>
      </trkpt>
      <trkpt lat="42.2185800" lon="-8.6075650">
        <ele>148.5</ele>
        <time>2019-08-17T07:26:13Z</time>
      </trkpt>
      <trkpt lat="42.2186030" lon="-8.6075740">
        <ele>148.7</ele>
        <time>2019-08-17T07:26:14Z</time>
      </trkpt>
      <trkpt lat="42.2187570" lon="-8.6076060">
        <ele>150.0</ele>
        <time>2019-08-17T07:26:20Z</time>
      </trkpt>
      <trkpt lat="42.2187840" lon="-8.6076100">
        <ele>150.3</ele>
        <time>2019-08-17T07:26:21Z</time>
      </trkpt>
      <trkpt lat="42.2188060" lon="-8.6076150">
        <ele>150.5</ele>
        <time>2019-08-17T07:26:22Z</time>
      </trkpt>
      <trkpt lat="42.2188320" lon="-8.6076210">
        <ele>150.8</ele>
        <time>2019-08-17T07:26:23Z</time>
      </trkpt>
      <trkpt lat="42.2188570" lon="-8.6076240">
        <ele>151.1</ele>
        <time>2019-08-17T07:26:24Z</time>
      </trkpt>
      <trkpt lat="42.2188820" lon="-8.6076270">
        <ele>151.4</ele>
        <time>2019-08-17T07:26:25Z</time>
      </trkpt>
      <trkpt lat="42.2189590" lon="-8.6076300">
        <ele>152.2</ele>
        <time>2019-08-17T07:26:28Z</time>
      </trkpt>
      <trkpt lat="42.2190690" lon="-8.6076510">
        <ele>153.7</ele>
        <time>2019-08-17T07:26:33Z</time>
      </trkpt>
      <trkpt lat="42.2190920" lon="-8.6076520">
        <ele>154.0</ele>
        <time>2019-08-17T07:26:34Z</time>
      </trkpt>
      <trkpt lat="42.2191120" lon="-8.6076520">
        <ele>154.3</ele>
        <time>2019-08-17T07:26:35Z</time>
      </trkpt>
      <trkpt lat="42.2191350" lon="-8.6076550">
        <ele>154.6</ele>
        <time>2019-08-17T07:26:36Z</time>
      </trkpt>
      <trkpt lat="42.2191530" lon="-8.6076570">
        <ele>154.9</ele>
        <time>2019-08-17T07:26:37Z</time>
      </trkpt>
      <trkpt lat="42.2192880" lon="-8.6076420">
        <ele>157.1</ele>
        <time>2019-08-17T07:26:44Z</time>
      </trkpt>
      <trkpt lat="42.2193470" lon="-8.6076410">
        <ele>158.3</ele>
        <time>2019-08-17T07:26:47Z</time>
      </trkpt>
      <trkpt lat="42.2193570" lon="-8.6076410">
        <ele>158.4</ele>
        <time>2019-08-17T07:26:48Z</time>
      </trkpt>
      <trkpt lat="42.2193720" lon="-8.6076440">
        <ele>158.7</ele>
        <time>2019-08-17T07:26:49Z</time>
      </trkpt>
      <trkpt lat="42.2193920" lon="-8.6076460">
        <ele>159.0</ele>
        <time>2019-08-17T07:26:50Z</time>
      </trkpt>
      <trkpt lat="42.2194100" lon="-8.6076460">
        <ele>159.3</ele>
        <time>2019-08-17T07:26:51Z</time>
      </trkpt>
      <trkpt lat="42.2195880" lon="-8.6076320">
        <ele>162.4</ele>
        <time>2019-08-17T07:26:59Z</time>
      </trkpt>
      <trkpt lat="42.2196720" lon="-8.6076230">
        <ele>164.0</ele>
        <time>2019-08-17T07:27:02Z</time>
      </trkpt>
      <trkpt lat="42.2196910" lon="-8.6076270">
        <ele>164.3</ele>
        <time>2019-08-17T07:27:03Z</time>
      </trkpt>
      <trkpt lat="42.2197100" lon="-8.6076300">
        <ele>164.6</ele>
        <time>2019-08-17T07:27:04Z</time>
      </trkpt>
      <trkpt lat="42.2197330" lon="-8.6076300">
        <ele>164.9</ele>
        <time>2019-08-17T07:27:05Z</time>
      </trkpt>
      <trkpt lat="42.2197540" lon="-8.6076190">
        <ele>165.3</ele>
        <time>2019-08-17T07:27:06Z</time>
      </trkpt>
      <trkpt lat="42.2198480" lon="-8.6076140">
        <ele>166.5</ele>
        <time>2019-08-17T07:27:12Z</time>
      </trkpt>
      <trkpt lat="42.2199820" lon="-8.6076180">
        <ele>168.2</ele>
        <time>2019-08-17T07:27:19Z</time>
      </trkpt>
      <trkpt lat="42.2200010" lon="-8.6076190">
        <ele>168.4</ele>
        <time>2019-08-17T07:27:20Z</time>
      </trkpt>
      <trkpt lat="42.2200270" lon="-8.6076210">
        <ele>168.6</ele>
        <time>2019-08-17T07:27:21Z</time>
      </trkpt>
      <trkpt lat="42.2200510" lon="-8.6076240">
        <ele>168.8</ele>
        <time>2019-08-17T07:27:22Z</time>
      </trkpt>
      <trkpt lat="42.2200700" lon="-8.6076260">
        <ele>169.0</ele>
        <time>2019-08-17T07:27:23Z</time>
      </trkpt>
      <trkpt lat="42.2201490" lon="-8.6076320">
        <ele>169.8</ele>
        <time>2019-08-17T07:27:27Z</time>
      </trkpt>
      <trkpt lat="42.2203350" lon="-8.6076770">
        <ele>172.0</ele>
        <time>2019-08-17T07:27:34Z</time>
      </trkpt>
      <trkpt lat="42.2203570" lon="-8.6076840">
        <ele>172.3</ele>
        <time>2019-08-17T07:27:35Z</time>
      </trkpt>
      <trkpt lat="42.2203700" lon="-8.6076900">
        <ele>172.4</ele>
        <time>2019-08-17T07:27:36Z</time>
      </trkpt>
      <trkpt lat="42.2203810" lon="-8.6076930">
        <ele>172.5</ele>
        <time>2019-08-17T07:27:37Z</time>
      </trkpt>
      <trkpt lat="42.2203950" lon="-8.6076930">
        <ele>172.7</ele>
        <time>2019-08-17T07:27:38Z</time>
      </trkpt>
      <trkpt lat="42.2204430" lon="-8.6076850">
        <ele>173.4</ele>
        <time>2019-08-17T07:27:42Z</time>
      </trkpt>
      <trkpt lat="42.2205110" lon="-8.6077280">
        <ele>174.5</ele>
        <time>2019-08-17T07:27:49Z</time>
      </trkpt>
      <trkpt lat="42.2205260" lon="-8.6077440">
        <ele>174.8</ele>
        <time>2019-08-17T07:27:51Z</time>
      </trkpt>
      <trkpt lat="42.2205420" lon="-8.6077560">
        <ele>175.0</ele>
        <time>2019-08-17T07:27:52Z</time>
      </trkpt>
      <trkpt lat="42.2205500" lon="-8.6077670">
        <ele>175.2</ele>
        <time>2019-08-17T07:27:53Z</time>
      </trkpt>
      <trkpt lat="42.2205610" lon="-8.6077700">
        <ele>175.3</ele>
        <time>2019-08-17T07:27:54Z</time>
      </trkpt>
      <trkpt lat="42.2205840" lon="-8.6077740">
        <ele>175.7</ele>
        <time>2019-08-17T07:27:55Z</time>
      </trkpt>
      <trkpt lat="42.2206090" lon="-8.6077800">
        <ele>176.0</ele>
        <time>2019-08-17T07:27:57Z</time>
      </trkpt>
      <trkpt lat="42.2207220" lon="-8.6078400">
        <ele>177.4</ele>
        <time>2019-08-17T07:28:04Z</time>
      </trkpt>
      <trkpt lat="42.2207370" lon="-8.6078410">
        <ele>177.5</ele>
        <time>2019-08-17T07:28:05Z</time>
      </trkpt>
      <trkpt lat="42.2207510" lon="-8.6078380">
        <ele>177.6</ele>
        <time>2019-08-17T07:28:06Z</time>
      </trkpt>
      <trkpt lat="42.2207630" lon="-8.6078410">
        <ele>177.7</ele>
        <time>2019-08-17T07:28:07Z</time>
      </trkpt>
      <trkpt lat="42.2207740" lon="-8.6078420">
        <ele>177.8</ele>
        <time>2019-08-17T07:28:08Z</time>
      </trkpt>
      <trkpt lat="42.2208940" lon="-8.6078740">
        <ele>178.8</ele>
        <time>2019-08-17T07:28:15Z</time>
      </trkpt>
      <trkpt lat="42.2209170" lon="-8.6078810">
        <ele>178.9</ele>
        <time>2019-08-17T07:28:16Z</time>
      </trkpt>
      <trkpt lat="42.2209320" lon="-8.6078860">
        <ele>179.1</ele>
        <time>2019-08-17T07:28:17Z</time>
      </trkpt>
      <trkpt lat="42.2209440" lon="-8.6078910">
        <ele>179.2</ele>
        <time>2019-08-17T07:28:18Z</time>
      </trkpt>
      <trkpt lat="42.2209530" lon="-8.6078990">
        <ele>179.3</ele>
        <time>2019-08-17T07:28:19Z</time>
      </trkpt>
      <trkpt lat="42.2210460" lon="-8.6080550">
        <ele>180.7</ele>
        <time>2019-08-17T07:28:26Z</time>
      </trkpt>
      <trkpt lat="42.2210600" lon="-8.6080730">
        <ele>180.8</ele>
        <time>2019-08-17T07:28:27Z</time>
      </trkpt>
      <trkpt lat="42.2210740" lon="-8.6080870">
        <ele>180.9</ele>
        <time>2019-08-17T07:28:28Z</time>
      </trkpt>
      <trkpt lat="42.2210870" lon="-8.6080990">
        <ele>181.1</ele>
        <time>2019-08-17T07:28:29Z</time>
      </trkpt>
      <trkpt lat="42.2211030" lon="-8.6081080">
        <ele>181.2</ele>
        <time>2019-08-17T07:28:30Z</time>
      </trkpt>
      <trkpt lat="42.2212040" lon="-8.6081680">
        <ele>181.8</ele>
        <time>2019-08-17T07:28:36Z</time>
      </trkpt>
      <trkpt lat="42.2213090" lon="-8.6081730">
        <ele>182.2</ele>
        <time>2019-08-17T07:28:43Z</time>
      </trkpt>
      <trkpt lat="42.2213790" lon="-8.6081820">
        <ele>182.4</ele>
        <time>2019-08-17T07:28:48Z</time>
      </trkpt>
      <trkpt lat="42.2213890" lon="-8.6081800">
        <ele>182.5</ele>
        <time>2019-08-17T07:28:49Z</time>
      </trkpt>
      <trkpt lat="42.2214050" lon="-8.6081780">
        <ele>182.5</ele>
        <time>2019-08-17T07:28:50Z</time>
      </trkpt>
      <trkpt lat="42.2214180" lon="-8.6081780">
        <ele>182.6</ele>
        <time>2019-08-17T07:28:51Z</time>
      </trkpt>
      <trkpt lat="42.2214350" lon="-8.6081810">
        <ele>182.7</ele>
        <time>2019-08-17T07:28:52Z</time>
      </trkpt>
      <trkpt lat="42.2215380" lon="-8.6081880">
        <ele>183.1</ele>
        <time>2019-08-17T07:28:58Z</time>
      </trkpt>
      <trkpt lat="42.2216770" lon="-8.6082010">
        <ele>184.0</ele>
        <time>2019-08-17T07:29:07Z</time>
      </trkpt>
      <trkpt lat="42.2217020" lon="-8.6081970">
        <ele>184.1</ele>
        <time>2019-08-17T07:29:10Z</time>
      </trkpt>
      <trkpt lat="42.2218930" lon="-8.6082320">
        <ele>185.2</ele>
        <time>2019-08-17T07:29:23Z</time>
      </trkpt>
      <trkpt lat="42.2219340" lon="-8.6082550">
        <ele>185.5</ele>
        <time>2019-08-17T07:29:25Z</time>
      </trkpt>
      <trkpt lat="42.2219580" lon="-8.6082490">
        <ele>185.6</ele>
        <time>2019-08-17T07:29:26Z</time>
      </trkpt>
      <trkpt lat="42.2219750" lon="-8.6082400">
        <ele>185.7</ele>
        <time>2019-08-17T07:29:27Z</time>
      </trkpt>
      <trkpt lat="42.2219890" lon="-8.6082350">
        <ele>185.8</ele>
        <time>2019-08-17T07:29:28Z</time>
      </trkpt>
      <trkpt lat="42.2220060" lon="-8.6082410">
        <ele>186.0</ele>
        <time>2019-08-17T07:29:29Z</time>
      </trkpt>
      <trkpt lat="42.2220240" lon="-8.6082410">
        <ele>186.1</ele>
        <time>2019-08-17T07:29:30Z</time>
      </trkpt>
      <trkpt lat="42.2220620" lon="-8.6082440">
        <ele>186.4</ele>
        <time>2019-08-17T07:29:32Z</time>
      </trkpt>
      <trkpt lat="42.2221990" lon="-8.6082340">
        <ele>187.8</ele>
        <time>2019-08-17T07:29:39Z</time>
      </trkpt>
      <trkpt lat="42.2222140" lon="-8.6082310">
        <ele>188.0</ele>
        <time>2019-08-17T07:29:40Z</time>
      </trkpt>
      <trkpt lat="42.2222340" lon="-8.6082260">
        <ele>188.2</ele>
        <time>2019-08-17T07:29:41Z</time>
      </trkpt>
      <trkpt lat="42.2222560" lon="-8.6082190">
        <ele>188.4</ele>
        <time>2019-08-17T07:29:42Z</time>
      </trkpt>
      <trkpt lat="42.2222750" lon="-8.6082190">
        <ele>188.6</ele>
        <time>2019-08-17T07:29:43Z</time>
      </trkpt>
      <trkpt lat="42.2222900" lon="-8.6082160">
        <ele>188.7</ele>
        <time>2019-08-17T07:29:44Z</time>
      </trkpt>
      <trkpt lat="42.2223380" lon="-8.6082070">
        <ele>189.1</ele>
        <time>2019-08-17T07:29:47Z</time>
      </trkpt>
      <trkpt lat="42.2223700" lon="-8.6081930">
        <ele>189.4</ele>
        <time>2019-08-17T07:29:49Z</time>
      </trkpt>
      <trkpt lat="42.2223870" lon="-8.6081790">
        <ele>189.6</ele>
        <time>2019-08-17T07:29:50Z</time>
      </trkpt>
      <trkpt lat="42.2224020" lon="-8.6081700">
        <ele>189.8</ele>
        <time>2019-08-17T07:29:51Z</time>
      </trkpt>
      <trkpt lat="42.2224170" lon="-8.6081650">
        <ele>189.9</ele>
        <time>2019-08-17T07:29:52Z</time>
      </trkpt>
      <trkpt lat="42.2224310" lon="-8.6081600">
        <ele>190.1</ele>
        <time>2019-08-17T07:29:53Z</time>
      </trkpt>
      <trkpt lat="42.2225400" lon="-8.6081580">
        <ele>191.2</ele>
        <time>2019-08-17T07:29:58Z</time>
      </trkpt>
      <trkpt lat="42.2226450" lon="-8.6081150">
        <ele>192.3</ele>
        <time>2019-08-17T07:30:03Z</time>
      </trkpt>
      <trkpt lat="42.2226500" lon="-8.6081020">
        <ele>192.3</ele>
        <time>2019-08-17T07:30:04Z</time>
      </trkpt>
      <trkpt lat="42.2226630" lon="-8.6080990">
        <ele>192.4</ele>
        <time>2019-08-17T07:30:05Z</time>
      </trkpt>
      <trkpt lat="42.2226760" lon="-8.6080880">
        <ele>192.6</ele>
        <time>2019-08-17T07:30:06Z</time>
      </trkpt>
      <trkpt lat="42.2226900" lon="-8.6080830">
        <ele>192.7</ele>
        <time>2019-08-17T07:30:07Z</time>
      </trkpt>
      <trkpt lat="42.2227860" lon="-8.6080190">
        <ele>193.5</ele>
        <time>2019-08-17T07:30:12Z</time>
      </trkpt>
      <trkpt lat="42.2228010" lon="-8.6080020">
        <ele>193.6</ele>
        <time>2019-08-17T07:30:13Z</time>
      </trkpt>
      <trkpt lat="42.2228170" lon="-8.6079930">
        <ele>193.8</ele>
        <time>2019-08-17T07:30:14Z</time>
      </trkpt>
      <trkpt lat="42.2228290" lon="-8.6079830">
        <ele>193.9</ele>
        <time>2019-08-17T07:30:15Z</time>
      </trkpt>
      <trkpt lat="42.2228440" lon="-8.6079740">
        <ele>194.1</ele>
        <time>2019-08-17T07:30:16Z</time>
      </trkpt>
      <trkpt lat="42.2229260" lon="-8.6079190">
        <ele>194.9</ele>
        <time>2019-08-17T07:30:23Z</time>
      </trkpt>
      <trkpt lat="42.2229430" lon="-8.6079040">
        <ele>195.0</ele>
        <time>2019-08-17T07:30:24Z</time>
      </trkpt>
      <trkpt lat="42.2229570" lon="-8.6078850">
        <ele>195.2</ele>
        <time>2019-08-17T07:30:25Z</time>
      </trkpt>
      <trkpt lat="42.2229710" lon="-8.6078670">
        <ele>195.3</ele>
        <time>2019-08-17T07:30:26Z</time>
      </trkpt>
      <trkpt lat="42.2229820" lon="-8.6078530">
        <ele>195.4</ele>
        <time>2019-08-17T07:30:27Z</time>
      </trkpt>
      <trkpt lat="42.2229930" lon="-8.6078350">
        <ele>195.6</ele>
        <time>2019-08-17T07:30:28Z</time>
      </trkpt>
      <trkpt lat="42.2230660" lon="-8.6077650">
        <ele>195.8</ele>
        <time>2019-08-17T07:30:32Z</time>
      </trkpt>
      <trkpt lat="42.2230790" lon="-8.6077500">
        <ele>195.8</ele>
        <time>2019-08-17T07:30:33Z</time>
      </trkpt>
      <trkpt lat="42.2230830" lon="-8.6077310">
        <ele>195.8</ele>
        <time>2019-08-17T07:30:34Z</time>
      </trkpt>
      <trkpt lat="42.2230890" lon="-8.6077110">
        <ele>195.8</ele>
        <time>2019-08-17T07:30:35Z</time>
      </trkpt>
      <trkpt lat="42.2230920" lon="-8.6076900">
        <ele>195.8</ele>
        <time>2019-08-17T07:30:36Z</time>
      </trkpt>
      <trkpt lat="42.2231170" lon="-8.6076780">
        <ele>195.8</ele>
        <time>2019-08-17T07:30:37Z</time>
      </trkpt>
      <trkpt lat="42.2231590" lon="-8.6076270">
        <ele>195.8</ele>
        <time>2019-08-17T07:30:40Z</time>
      </trkpt>
      <trkpt lat="42.2231950" lon="-8.6074950">
        <ele>195.9</ele>
        <time>2019-08-17T07:30:47Z</time>
      </trkpt>
      <trkpt lat="42.2232020" lon="-8.6074740">
        <ele>195.9</ele>
        <time>2019-08-17T07:30:48Z</time>
      </trkpt>
      <trkpt lat="42.2232120" lon="-8.6074620">
        <ele>195.9</ele>
        <time>2019-08-17T07:30:49Z</time>
      </trkpt>
      <trkpt lat="42.2232220" lon="-8.6074540">
        <ele>195.9</ele>
        <time>2019-08-17T07:30:50Z</time>
      </trkpt>
      <trkpt lat="42.2232270" lon="-8.6074510">
        <ele>195.9</ele>
        <time>2019-08-17T07:30:51Z</time>
      </trkpt>
      <trkpt lat="42.2232260" lon="-8.6074540">
        <ele>195.9</ele>
        <time>2019-08-17T07:30:52Z</time>
      </trkpt>
      <trkpt lat="42.2232270" lon="-8.6074450">
        <ele>195.9</ele>
        <time>2019-08-17T07:31:25Z</time>
      </trkpt>
      <trkpt lat="42.2232400" lon="-8.6074340">
        <ele>195.9</ele>
        <time>2019-08-17T07:31:26Z</time>
      </trkpt>
      <trkpt lat="42.2234100" lon="-8.6073620">
        <ele>198.6</ele>
        <time>2019-08-17T07:31:36Z</time>
      </trkpt>
      <trkpt lat="42.2234750" lon="-8.6072930">
        <ele>199.3</ele>
        <time>2019-08-17T07:31:41Z</time>
      </trkpt>
      <trkpt lat="42.2234900" lon="-8.6072800">
        <ele>199.4</ele>
        <time>2019-08-17T07:31:42Z</time>
      </trkpt>
      <trkpt lat="42.2235100" lon="-8.6072670">
        <ele>199.5</ele>
        <time>2019-08-17T07:31:43Z</time>
      </trkpt>
      <trkpt lat="42.2235340" lon="-8.6072670">
        <ele>199.6</ele>
        <time>2019-08-17T07:31:44Z</time>
      </trkpt>
      <trkpt lat="42.2235470" lon="-8.6072580">
        <ele>199.7</ele>
        <time>2019-08-17T07:31:45Z</time>
      </trkpt>
      <trkpt lat="42.2236530" lon="-8.6071720">
        <ele>200.1</ele>
        <time>2019-08-17T07:31:53Z</time>
      </trkpt>
      <trkpt lat="42.2236660" lon="-8.6071560">
        <ele>200.1</ele>
        <time>2019-08-17T07:31:54Z</time>
      </trkpt>
      <trkpt lat="42.2236760" lon="-8.6071440">
        <ele>200.2</ele>
        <time>2019-08-17T07:31:55Z</time>
      </trkpt>
      <trkpt lat="42.2236840" lon="-8.6071360">
        <ele>200.2</ele>
        <time>2019-08-17T07:31:56Z</time>
      </trkpt>
      <trkpt lat="42.2237000" lon="-8.6071230">
        <ele>200.3</ele>
        <time>2019-08-17T07:31:57Z</time>
      </trkpt>
      <trkpt lat="42.2237210" lon="-8.6070960">
        <ele>200.3</ele>
        <time>2019-08-17T07:32:01Z</time>
      </trkpt>
      <trkpt lat="42.2237600" lon="-8.6070560">
        <ele>200.5</ele>
        <time>2019-08-17T07:32:05Z</time>
      </trkpt>
      <trkpt lat="42.2237780" lon="-8.6070430">
        <ele>200.5</ele>
        <time>2019-08-17T07:32:06Z</time>
      </trkpt>
      <trkpt lat="42.2237930" lon="-8.6070330">
        <ele>200.5</ele>
        <time>2019-08-17T07:32:07Z</time>
      </trkpt>
      <trkpt lat="42.2238060" lon="-8.6070270">
        <ele>200.6</ele>
        <time>2019-08-17T07:32:08Z</time>
      </trkpt>
      <trkpt lat="42.2238230" lon="-8.6070180">
        <ele>200.6</ele>
        <time>2019-08-17T07:32:09Z</time>
      </trkpt>
      <trkpt lat="42.2238520" lon="-8.6069960">
        <ele>200.7</ele>
        <time>2019-08-17T07:32:11Z</time>
      </trkpt>
      <trkpt lat="42.2239340" lon="-8.6069180">
        <ele>200.9</ele>
        <time>2019-08-17T07:32:17Z</time>
      </trkpt>
      <trkpt lat="42.2239490" lon="-8.6069120">
        <ele>201.0</ele>
        <time>2019-08-17T07:32:18Z</time>
      </trkpt>
      <trkpt lat="42.2239690" lon="-8.6068990">
        <ele>201.0</ele>
        <time>2019-08-17T07:32:19Z</time>
      </trkpt>
      <trkpt lat="42.2239850" lon="-8.6068910">
        <ele>201.0</ele>
        <time>2019-08-17T07:32:20Z</time>
      </trkpt>
      <trkpt lat="42.2240020" lon="-8.6068840">
        <ele>201.1</ele>
        <time>2019-08-17T07:32:21Z</time>
      </trkpt>
      <trkpt lat="42.2241210" lon="-8.6068310">
        <ele>201.3</ele>
        <time>2019-08-17T07:32:27Z</time>
      </trkpt>
      <trkpt lat="42.2241970" lon="-8.6067610">
        <ele>201.6</ele>
        <time>2019-08-17T07:32:32Z</time>
      </trkpt>
      <trkpt lat="42.2242100" lon="-8.6067460">
        <ele>201.6</ele>
        <time>2019-08-17T07:32:33Z</time>
      </trkpt>
      <trkpt lat="42.2242140" lon="-8.6067250">
        <ele>201.6</ele>
        <time>2019-08-17T07:32:34Z</time>
      </trkpt>
      <trkpt lat="42.2242310" lon="-8.6067130">
        <ele>201.7</ele>
        <time>2019-08-17T07:32:35Z</time>
      </trkpt>
      <trkpt lat="42.2242560" lon="-8.6067010">
        <ele>201.7</ele>
        <time>2019-08-17T07:32:36Z</time>
      </trkpt>
      <trkpt lat="42.2244010" lon="-8.6066300">
        <ele>202.3</ele>
        <time>2019-08-17T07:32:44Z</time>
      </trkpt>
      <trkpt lat="42.2246120" lon="-8.6065380">
        <ele>203.6</ele>
        <time>2019-08-17T07:32:54Z</time>
      </trkpt>
      <trkpt lat="42.2248400" lon="-8.6064740">
        <ele>205.1</ele>
        <time>2019-08-17T07:33:03Z</time>
      </trkpt>
      <trkpt lat="42.2249390" lon="-8.6063870">
        <ele>205.7</ele>
        <time>2019-08-17T07:33:09Z</time>
      </trkpt>
      <trkpt lat="42.2251420" lon="-8.6062190">
        <ele>206.1</ele>
        <time>2019-08-17T07:33:16Z</time>
      </trkpt>
      <trkpt lat="42.2254100" lon="-8.6060520">
        <ele>205.9</ele>
        <time>2019-08-17T07:33:22Z</time>
      </trkpt>
      <trkpt lat="42.2257470" lon="-8.6059810">
        <ele>205.3</ele>
        <time>2019-08-17T07:33:28Z</time>
      </trkpt>
      <trkpt lat="42.2258600" lon="-8.6059920">
        <ele>204.8</ele>
        <time>2019-08-17T07:33:30Z</time>
      </trkpt>
      <trkpt lat="42.2260480" lon="-8.6060900">
        <ele>205.4</ele>
        <time>2019-08-17T07:33:33Z</time>
      </trkpt>
      <trkpt lat="42.2260970" lon="-8.6061260">
        <ele>205.6</ele>
        <time>2019-08-17T07:33:34Z</time>
      </trkpt>
      <trkpt lat="42.2262460" lon="-8.6062800">
        <ele>206.4</ele>
        <time>2019-08-17T07:33:38Z</time>
      </trkpt>
      <trkpt lat="42.2262750" lon="-8.6063130">
        <ele>206.6</ele>
        <time>2019-08-17T07:33:39Z</time>
      </trkpt>
      <trkpt lat="42.2264600" lon="-8.6065020">
        <ele>207.6</ele>
        <time>2019-08-17T07:33:46Z</time>
      </trkpt>
      <trkpt lat="42.2266100" lon="-8.6066340">
        <ele>209.3</ele>
        <time>2019-08-17T07:33:52Z</time>
      </trkpt>
      <trkpt lat="42.2268420" lon="-8.6067890">
        <ele>212.5</ele>
        <time>2019-08-17T07:34:02Z</time>
      </trkpt>
      <trkpt lat="42.2268650" lon="-8.6067940">
        <ele>212.7</ele>
        <time>2019-08-17T07:34:03Z</time>
      </trkpt>
      <trkpt lat="42.2268830" lon="-8.6067930">
        <ele>212.9</ele>
        <time>2019-08-17T07:34:04Z</time>
      </trkpt>
      <trkpt lat="42.2269040" lon="-8.6067960">
        <ele>213.1</ele>
        <time>2019-08-17T07:34:05Z</time>
      </trkpt>
      <trkpt lat="42.2269290" lon="-8.6068080">
        <ele>213.3</ele>
        <time>2019-08-17T07:34:06Z</time>
      </trkpt>
      <trkpt lat="42.2269530" lon="-8.6068170">
        <ele>213.5</ele>
        <time>2019-08-17T07:34:07Z</time>
      </trkpt>
      <trkpt lat="42.2270260" lon="-8.6068520">
        <ele>214.1</ele>
        <time>2019-08-17T07:34:10Z</time>
      </trkpt>
      <trkpt lat="42.2271150" lon="-8.6068930">
        <ele>214.9</ele>
        <time>2019-08-17T07:34:14Z</time>
      </trkpt>
      <trkpt lat="42.2271340" lon="-8.6069100">
        <ele>215.1</ele>
        <time>2019-08-17T07:34:15Z</time>
      </trkpt>
      <trkpt lat="42.2271520" lon="-8.6069210">
        <ele>215.3</ele>
        <time>2019-08-17T07:34:16Z</time>
      </trkpt>
      <trkpt lat="42.2271760" lon="-8.6069320">
        <ele>215.6</ele>
        <time>2019-08-17T07:34:17Z</time>
      </trkpt>
      <trkpt lat="42.2271950" lon="-8.6069380">
        <ele>215.8</ele>
        <time>2019-08-17T07:34:18Z</time>
      </trkpt>
      <trkpt lat="42.2272690" lon="-8.6069870">
        <ele>217.0</ele>
        <time>2019-08-17T07:34:22Z</time>
      </trkpt>
      <trkpt lat="42.2272850" lon="-8.6069990">
        <ele>217.2</ele>
        <time>2019-08-17T07:34:23Z</time>
      </trkpt>
      <trkpt lat="42.2273030" lon="-8.6070100">
        <ele>217.4</ele>
        <time>2019-08-17T07:34:24Z</time>
      </trkpt>
      <trkpt lat="42.2273180" lon="-8.6070210">
        <ele>217.6</ele>
        <time>2019-08-17T07:34:25Z</time>
      </trkpt>
      <trkpt lat="42.2273270" lon="-8.6070340">
        <ele>217.8</ele>
        <time>2019-08-17T07:34:26Z</time>
      </trkpt>
      <trkpt lat="42.2273960" lon="-8.6071100">
        <ele>218.3</ele>
        <time>2019-08-17T07:34:32Z</time>
      </trkpt>
      <trkpt lat="42.2274140" lon="-8.6071690">
        <ele>218.5</ele>
        <time>2019-08-17T07:34:35Z</time>
      </trkpt>
      <trkpt lat="42.2274180" lon="-8.6071880">
        <ele>218.6</ele>
        <time>2019-08-17T07:34:36Z</time>
      </trkpt>
      <trkpt lat="42.2274210" lon="-8.6072100">
        <ele>218.7</ele>
        <time>2019-08-17T07:34:37Z</time>
      </trkpt>
      <trkpt lat="42.2274210" lon="-8.6072340">
        <ele>218.8</ele>
        <time>2019-08-17T07:34:38Z</time>
      </trkpt>
      <trkpt lat="42.2274230" lon="-8.6072600">
        <ele>218.9</ele>
        <time>2019-08-17T07:34:39Z</time>
      </trkpt>
      <trkpt lat="42.2274320" lon="-8.6073160">
        <ele>219.1</ele>
        <time>2019-08-17T07:34:42Z</time>
      </trkpt>
      <trkpt lat="42.2274410" lon="-8.6073540">
        <ele>219.3</ele>
        <time>2019-08-17T07:34:45Z</time>
      </trkpt>
      <trkpt lat="42.2274460" lon="-8.6073640">
        <ele>219.3</ele>
        <time>2019-08-17T07:34:46Z</time>
      </trkpt>
      <trkpt lat="42.2274490" lon="-8.6073810">
        <ele>219.4</ele>
        <time>2019-08-17T07:34:47Z</time>
      </trkpt>
      <trkpt lat="42.2274530" lon="-8.6074040">
        <ele>219.5</ele>
        <time>2019-08-17T07:34:48Z</time>
      </trkpt>
      <trkpt lat="42.2274600" lon="-8.6074150">
        <ele>219.6</ele>
        <time>2019-08-17T07:34:49Z</time>
      </trkpt>
      <trkpt lat="42.2274720" lon="-8.6074340">
        <ele>219.7</ele>
        <time>2019-08-17T07:34:50Z</time>
      </trkpt>
      <trkpt lat="42.2274960" lon="-8.6074750">
        <ele>219.9</ele>
        <time>2019-08-17T07:34:53Z</time>
      </trkpt>
      <trkpt lat="42.2275010" lon="-8.6074920">
        <ele>220.0</ele>
        <time>2019-08-17T07:34:54Z</time>
      </trkpt>
      <trkpt lat="42.2275060" lon="-8.6075090">
        <ele>220.1</ele>
        <time>2019-08-17T07:34:55Z</time>
      </trkpt>
      <trkpt lat="42.2275110" lon="-8.6075250">
        <ele>220.2</ele>
        <time>2019-08-17T07:34:56Z</time>
      </trkpt>
      <trkpt lat="42.2275180" lon="-8.6075470">
        <ele>220.4</ele>
        <time>2019-08-17T07:34:57Z</time>
      </trkpt>
      <trkpt lat="42.2275380" lon="-8.6075920">
        <ele>220.7</ele>
        <time>2019-08-17T07:34:59Z</time>
      </trkpt>
      <trkpt lat="42.2275450" lon="-8.6076130">
        <ele>220.8</ele>
        <time>2019-08-17T07:35:00Z</time>
      </trkpt>
      <trkpt lat="42.2275490" lon="-8.6076350">
        <ele>221.0</ele>
        <time>2019-08-17T07:35:01Z</time>
      </trkpt>
      <trkpt lat="42.2275540" lon="-8.6076580">
        <ele>221.1</ele>
        <time>2019-08-17T07:35:02Z</time>
      </trkpt>
      <trkpt lat="42.2275610" lon="-8.6076760">
        <ele>221.2</ele>
        <time>2019-08-17T07:35:03Z</time>
      </trkpt>
      <trkpt lat="42.2275670" lon="-8.6076920">
        <ele>221.4</ele>
        <time>2019-08-17T07:35:04Z</time>
      </trkpt>
      <trkpt lat="42.2275760" lon="-8.6077130">
        <ele>221.6</ele>
        <time>2019-08-17T07:35:05Z</time>
      </trkpt>
      <trkpt lat="42.2275830" lon="-8.6077420">
        <ele>221.8</ele>
        <time>2019-08-17T07:35:06Z</time>
      </trkpt>
      <trkpt lat="42.2275900" lon="-8.6077660">
        <ele>222.0</ele>
        <time>2019-08-17T07:35:07Z</time>
      </trkpt>
      <trkpt lat="42.2275980" lon="-8.6077890">
        <ele>222.2</ele>
        <time>2019-08-17T07:35:08Z</time>
      </trkpt>
      <trkpt lat="42.2276070" lon="-8.6078070">
        <ele>222.4</ele>
        <time>2019-08-17T07:35:09Z</time>
      </trkpt>
      <trkpt lat="42.2276150" lon="-8.6078230">
        <ele>222.6</ele>
        <time>2019-08-17T07:35:10Z</time>
      </trkpt>
      <trkpt lat="42.2276190" lon="-8.6078430">
        <ele>222.8</ele>
        <time>2019-08-17T07:35:11Z</time>
      </trkpt>
      <trkpt lat="42.2276290" lon="-8.6078760">
        <ele>223.1</ele>
        <time>2019-08-17T07:35:12Z</time>
      </trkpt>
      <trkpt lat="42.2276520" lon="-8.6079260">
        <ele>223.7</ele>
        <time>2019-08-17T07:35:14Z</time>
      </trkpt>
      <trkpt lat="42.2276640" lon="-8.6079440">
        <ele>223.9</ele>
        <time>2019-08-17T07:35:15Z</time>
      </trkpt>
      <trkpt lat="42.2276750" lon="-8.6079640">
        <ele>224.2</ele>
        <time>2019-08-17T07:35:16Z</time>
      </trkpt>
      <trkpt lat="42.2276860" lon="-8.6079840">
        <ele>224.4</ele>
        <time>2019-08-17T07:35:17Z</time>
      </trkpt>
      <trkpt lat="42.2276970" lon="-8.6080020">
        <ele>224.5</ele>
        <time>2019-08-17T07:35:18Z</time>
      </trkpt>
      <trkpt lat="42.2277200" lon="-8.6080350">
        <ele>224.8</ele>
        <time>2019-08-17T07:35:20Z</time>
      </trkpt>
      <trkpt lat="42.2278420" lon="-8.6082390">
        <ele>226.9</ele>
        <time>2019-08-17T07:35:30Z</time>
      </trkpt>
      <trkpt lat="42.2279280" lon="-8.6084750">
        <ele>228.7</ele>
        <time>2019-08-17T07:35:38Z</time>
      </trkpt>
      <trkpt lat="42.2280130" lon="-8.6086960">
        <ele>229.7</ele>
        <time>2019-08-17T07:35:47Z</time>
      </trkpt>
      <trkpt lat="42.2280750" lon="-8.6088150">
        <ele>230.1</ele>
        <time>2019-08-17T07:35:54Z</time>
      </trkpt>
      <trkpt lat="42.2281460" lon="-8.6089840">
        <ele>230.5</ele>
        <time>2019-08-17T07:36:01Z</time>
      </trkpt>
      <trkpt lat="42.2282910" lon="-8.6092190">
        <ele>231.0</ele>
        <time>2019-08-17T07:36:08Z</time>
      </trkpt>
      <trkpt lat="42.2283340" lon="-8.6093000">
        <ele>231.0</ele>
        <time>2019-08-17T07:36:09Z</time>
      </trkpt>
      <trkpt lat="42.2283480" lon="-8.6093540">
        <ele>230.9</ele>
        <time>2019-08-17T07:36:10Z</time>
      </trkpt>
      <trkpt lat="42.2283580" lon="-8.6093860">
        <ele>230.9</ele>
        <time>2019-08-17T07:36:11Z</time>
      </trkpt>
      <trkpt lat="42.2283790" lon="-8.6094200">
        <ele>230.9</ele>
        <time>2019-08-17T07:36:12Z</time>
      </trkpt>
      <trkpt lat="42.2284030" lon="-8.6095960">
        <ele>230.2</ele>
        <time>2019-08-17T07:36:17Z</time>
      </trkpt>
      <trkpt lat="42.2284020" lon="-8.6095900">
        <ele>230.2</ele>
        <time>2019-08-17T07:36:18Z</time>
      </trkpt>
      <trkpt lat="42.2283920" lon="-8.6096360">
        <ele>230.0</ele>
        <time>2019-08-17T07:36:47Z</time>
      </trkpt>
      <trkpt lat="42.2283930" lon="-8.6096360">
        <ele>230.0</ele>
        <time>2019-08-17T07:36:48Z</time>
      </trkpt>
      <trkpt lat="42.2284760" lon="-8.6097170">
        <ele>229.6</ele>
        <time>2019-08-17T07:36:53Z</time>
      </trkpt>
      <trkpt lat="42.2285060" lon="-8.6097780">
        <ele>229.5</ele>
        <time>2019-08-17T07:36:55Z</time>
      </trkpt>
      <trkpt lat="42.2286280" lon="-8.6099520">
        <ele>229.3</ele>
        <time>2019-08-17T07:37:02Z</time>
      </trkpt>
      <trkpt lat="42.2287230" lon="-8.6101340">
        <ele>229.3</ele>
        <time>2019-08-17T07:37:09Z</time>
      </trkpt>
      <trkpt lat="42.2288020" lon="-8.6103240">
        <ele>229.2</ele>
        <time>2019-08-17T07:37:16Z</time>
      </trkpt>
      <trkpt lat="42.2288950" lon="-8.6104540">
        <ele>229.2</ele>
        <time>2019-08-17T07:37:24Z</time>
      </trkpt>
      <trkpt lat="42.2288020" lon="-8.6105420">
        <ele>229.1</ele>
        <time>2019-08-17T07:39:54Z</time>
      </trkpt>
      <trkpt lat="42.2289090" lon="-8.6105970">
        <ele>229.1</ele>
        <time>2019-08-17T07:39:58Z</time>
      </trkpt>
      <trkpt lat="42.2289670" lon="-8.6106470">
        <ele>229.1</ele>
        <time>2019-08-17T07:40:00Z</time>
      </trkpt>
      <trkpt lat="42.2290250" lon="-8.6106930">
        <ele>229.1</ele>
        <time>2019-08-17T07:40:02Z</time>
      </trkpt>
      <trkpt lat="42.2292750" lon="-8.6108970">
        <ele>228.8</ele>
        <time>2019-08-17T07:40:12Z</time>
      </trkpt>
      <trkpt lat="42.2294590" lon="-8.6110250">
        <ele>227.8</ele>
        <time>2019-08-17T07:40:19Z</time>
      </trkpt>
      <trkpt lat="42.2296030" lon="-8.6110220">
        <ele>227.0</ele>
        <time>2019-08-17T07:40:23Z</time>
      </trkpt>
      <trkpt lat="42.2297330" lon="-8.6110300">
        <ele>226.7</ele>
        <time>2019-08-17T07:40:25Z</time>
      </trkpt>
      <trkpt lat="42.2298040" lon="-8.6110510">
        <ele>226.6</ele>
        <time>2019-08-17T07:40:26Z</time>
      </trkpt>
      <trkpt lat="42.2298690" lon="-8.6110890">
        <ele>226.5</ele>
        <time>2019-08-17T07:40:27Z</time>
      </trkpt>
      <trkpt lat="42.2299400" lon="-8.6111300">
        <ele>226.5</ele>
        <time>2019-08-17T07:40:28Z</time>
      </trkpt>
      <trkpt lat="42.2300000" lon="-8.6111680">
        <ele>226.5</ele>
        <time>2019-08-17T07:40:29Z</time>
      </trkpt>
      <trkpt lat="42.2300510" lon="-8.6112040">
        <ele>226.4</ele>
        <time>2019-08-17T07:40:30Z</time>
      </trkpt>
      <trkpt lat="42.2301740" lon="-8.6113150">
        <ele>226.4</ele>
        <time>2019-08-17T07:40:33Z</time>
      </trkpt>
      <trkpt lat="42.2302120" lon="-8.6114090">
        <ele>226.3</ele>
        <time>2019-08-17T07:40:35Z</time>
      </trkpt>
      <trkpt lat="42.2303400" lon="-8.6115550">
        <ele>226.2</ele>
        <time>2019-08-17T07:40:40Z</time>
      </trkpt>
      <trkpt lat="42.2305820" lon="-8.6116480">
        <ele>225.7</ele>
        <time>2019-08-17T07:40:46Z</time>
      </trkpt>
      <trkpt lat="42.2308520" lon="-8.6118250">
        <ele>225.0</ele>
        <time>2019-08-17T07:40:52Z</time>
      </trkpt>
      <trkpt lat="42.2311380" lon="-8.6121160">
        <ele>224.7</ele>
        <time>2019-08-17T07:40:59Z</time>
      </trkpt>
      <trkpt lat="42.2312120" lon="-8.6121740">
        <ele>224.3</ele>
        <time>2019-08-17T07:41:01Z</time>
      </trkpt>
      <trkpt lat="42.2312600" lon="-8.6122200">
        <ele>224.0</ele>
        <time>2019-08-17T07:41:02Z</time>
      </trkpt>
      <trkpt lat="42.2313140" lon="-8.6122620">
        <ele>223.6</ele>
        <time>2019-08-17T07:41:03Z</time>
      </trkpt>
      <trkpt lat="42.2313660" lon="-8.6123210">
        <ele>223.1</ele>
        <time>2019-08-17T07:41:04Z</time>
      </trkpt>
      <trkpt lat="42.2314170" lon="-8.6123830">
        <ele>222.5</ele>
        <time>2019-08-17T07:41:05Z</time>
      </trkpt>
      <trkpt lat="42.2314620" lon="-8.6124410">
        <ele>222.0</ele>
        <time>2019-08-17T07:41:06Z</time>
      </trkpt>
      <trkpt lat="42.2315030" lon="-8.6124880">
        <ele>221.6</ele>
        <time>2019-08-17T07:41:07Z</time>
      </trkpt>
      <trkpt lat="42.2315340" lon="-8.6125140">
        <ele>221.2</ele>
        <time>2019-08-17T07:41:08Z</time>
      </trkpt>
      <trkpt lat="42.2315720" lon="-8.6125270">
        <ele>220.9</ele>
        <time>2019-08-17T07:41:09Z</time>
      </trkpt>
      <trkpt lat="42.2316300" lon="-8.6124770">
        <ele>220.6</ele>
        <time>2019-08-17T07:41:10Z</time>
      </trkpt>
      <trkpt lat="42.2316720" lon="-8.6124380">
        <ele>220.4</ele>
        <time>2019-08-17T07:41:11Z</time>
      </trkpt>
      <trkpt lat="42.2317160" lon="-8.6123860">
        <ele>220.1</ele>
        <time>2019-08-17T07:41:12Z</time>
      </trkpt>
      <trkpt lat="42.2317710" lon="-8.6123480">
        <ele>219.8</ele>
        <time>2019-08-17T07:41:13Z</time>
      </trkpt>
      <trkpt lat="42.2318460" lon="-8.6123500">
        <ele>219.5</ele>
        <time>2019-08-17T07:41:14Z</time>
      </trkpt>
      <trkpt lat="42.2319200" lon="-8.6123620">
        <ele>219.3</ele>
        <time>2019-08-17T07:41:15Z</time>
      </trkpt>
      <trkpt lat="42.2319980" lon="-8.6123850">
        <ele>218.9</ele>
        <time>2019-08-17T07:41:16Z</time>
      </trkpt>
      <trkpt lat="42.2320730" lon="-8.6124070">
        <ele>218.7</ele>
        <time>2019-08-17T07:41:17Z</time>
      </trkpt>
      <trkpt lat="42.2323450" lon="-8.6124970">
        <ele>217.9</ele>
        <time>2019-08-17T07:41:21Z</time>
      </trkpt>
      <trkpt lat="42.2324210" lon="-8.6125210">
        <ele>217.5</ele>
        <time>2019-08-17T07:41:22Z</time>
      </trkpt>
      <trkpt lat="42.2325020" lon="-8.6125410">
        <ele>217.2</ele>
        <time>2019-08-17T07:41:23Z</time>
      </trkpt>
      <trkpt lat="42.2325800" lon="-8.6125700">
        <ele>217.0</ele>
        <time>2019-08-17T07:41:24Z</time>
      </trkpt>
      <trkpt lat="42.2326620" lon="-8.6125940">
        <ele>216.7</ele>
        <time>2019-08-17T07:41:25Z</time>
      </trkpt>
      <trkpt lat="42.2327450" lon="-8.6126200">
        <ele>216.5</ele>
        <time>2019-08-17T07:41:26Z</time>
      </trkpt>
      <trkpt lat="42.2328320" lon="-8.6126480">
        <ele>216.0</ele>
        <time>2019-08-17T07:41:27Z</time>
      </trkpt>
      <trkpt lat="42.2329200" lon="-8.6126770">
        <ele>215.5</ele>
        <time>2019-08-17T07:41:28Z</time>
      </trkpt>
      <trkpt lat="42.2330060" lon="-8.6127050">
        <ele>215.1</ele>
        <time>2019-08-17T07:41:29Z</time>
      </trkpt>
      <trkpt lat="42.2330950" lon="-8.6127350">
        <ele>214.7</ele>
        <time>2019-08-17T07:41:30Z</time>
      </trkpt>
      <trkpt lat="42.2331880" lon="-8.6127630">
        <ele>214.3</ele>
        <time>2019-08-17T07:41:31Z</time>
      </trkpt>
      <trkpt lat="42.2332810" lon="-8.6127900">
        <ele>213.9</ele>
        <time>2019-08-17T07:41:32Z</time>
      </trkpt>
      <trkpt lat="42.2333800" lon="-8.6128130">
        <ele>213.2</ele>
        <time>2019-08-17T07:41:33Z</time>
      </trkpt>
      <trkpt lat="42.2334680" lon="-8.6128280">
        <ele>212.6</ele>
        <time>2019-08-17T07:41:34Z</time>
      </trkpt>
      <trkpt lat="42.2335490" lon="-8.6128400">
        <ele>212.1</ele>
        <time>2019-08-17T07:41:35Z</time>
      </trkpt>
      <trkpt lat="42.2336250" lon="-8.6128510">
        <ele>211.6</ele>
        <time>2019-08-17T07:41:36Z</time>
      </trkpt>
      <trkpt lat="42.2337060" lon="-8.6128650">
        <ele>211.0</ele>
        <time>2019-08-17T07:41:37Z</time>
      </trkpt>
      <trkpt lat="42.2337930" lon="-8.6129010">
        <ele>210.4</ele>
        <time>2019-08-17T07:41:38Z</time>
      </trkpt>
      <trkpt lat="42.2339560" lon="-8.6130100">
        <ele>209.2</ele>
        <time>2019-08-17T07:41:40Z</time>
      </trkpt>
      <trkpt lat="42.2340410" lon="-8.6130600">
        <ele>208.8</ele>
        <time>2019-08-17T07:41:41Z</time>
      </trkpt>
      <trkpt lat="42.2341210" lon="-8.6131110">
        <ele>208.4</ele>
        <time>2019-08-17T07:41:42Z</time>
      </trkpt>
      <trkpt lat="42.2342080" lon="-8.6131650">
        <ele>208.0</ele>
        <time>2019-08-17T07:41:43Z</time>
      </trkpt>
      <trkpt lat="42.2342900" lon="-8.6132150">
        <ele>207.7</ele>
        <time>2019-08-17T07:41:44Z</time>
      </trkpt>
      <trkpt lat="42.2345930" lon="-8.6134000">
        <ele>206.1</ele>
        <time>2019-08-17T07:41:48Z</time>
      </trkpt>
      <trkpt lat="42.2346630" lon="-8.6134380">
        <ele>205.9</ele>
        <time>2019-08-17T07:41:49Z</time>
      </trkpt>
      <trkpt lat="42.2347340" lon="-8.6134780">
        <ele>205.7</ele>
        <time>2019-08-17T07:41:50Z</time>
      </trkpt>
      <trkpt lat="42.2347990" lon="-8.6135110">
        <ele>205.6</ele>
        <time>2019-08-17T07:41:51Z</time>
      </trkpt>
      <trkpt lat="42.2348600" lon="-8.6135460">
        <ele>205.6</ele>
        <time>2019-08-17T07:41:52Z</time>
      </trkpt>
      <trkpt lat="42.2349860" lon="-8.6136120">
        <ele>205.2</ele>
        <time>2019-08-17T07:41:54Z</time>
      </trkpt>
      <trkpt lat="42.2351020" lon="-8.6136510">
        <ele>204.6</ele>
        <time>2019-08-17T07:41:56Z</time>
      </trkpt>
      <trkpt lat="42.2352260" lon="-8.6136670">
        <ele>204.0</ele>
        <time>2019-08-17T07:41:58Z</time>
      </trkpt>
      <trkpt lat="42.2355290" lon="-8.6136780">
        <ele>203.1</ele>
        <time>2019-08-17T07:42:03Z</time>
      </trkpt>
      <trkpt lat="42.2355970" lon="-8.6136640">
        <ele>202.9</ele>
        <time>2019-08-17T07:42:04Z</time>
      </trkpt>
      <trkpt lat="42.2356690" lon="-8.6136480">
        <ele>202.7</ele>
        <time>2019-08-17T07:42:05Z</time>
      </trkpt>
      <trkpt lat="42.2357450" lon="-8.6136330">
        <ele>202.4</ele>
        <time>2019-08-17T07:42:06Z</time>
      </trkpt>
      <trkpt lat="42.2358210" lon="-8.6136180">
        <ele>202.2</ele>
        <time>2019-08-17T07:42:07Z</time>
      </trkpt>
      <trkpt lat="42.2361360" lon="-8.6135640">
        <ele>201.5</ele>
        <time>2019-08-17T07:42:11Z</time>
      </trkpt>
      <trkpt lat="42.2362100" lon="-8.6135520">
        <ele>201.3</ele>
        <time>2019-08-17T07:42:12Z</time>
      </trkpt>
      <trkpt lat="42.2362860" lon="-8.6135360">
        <ele>201.1</ele>
        <time>2019-08-17T07:42:13Z</time>
      </trkpt>
      <trkpt lat="42.2363710" lon="-8.6135150">
        <ele>200.9</ele>
        <time>2019-08-17T07:42:14Z</time>
      </trkpt>
      <trkpt lat="42.2364470" lon="-8.6134960">
        <ele>200.6</ele>
        <time>2019-08-17T07:42:15Z</time>
      </trkpt>
      <trkpt lat="42.2365240" lon="-8.6134790">
        <ele>200.4</ele>
        <time>2019-08-17T07:42:16Z</time>
      </trkpt>
      <trkpt lat="42.2367460" lon="-8.6134260">
        <ele>200.0</ele>
        <time>2019-08-17T07:42:19Z</time>
      </trkpt>
      <trkpt lat="42.2372800" lon="-8.6132880">
        <ele>199.0</ele>
        <time>2019-08-17T07:42:27Z</time>
      </trkpt>
      <trkpt lat="42.2377200" lon="-8.6131850">
        <ele>198.4</ele>
        <time>2019-08-17T07:42:34Z</time>
      </trkpt>
      <trkpt lat="42.2377820" lon="-8.6131710">
        <ele>198.3</ele>
        <time>2019-08-17T07:42:35Z</time>
      </trkpt>
      <trkpt lat="42.2378470" lon="-8.6131590">
        <ele>198.2</ele>
        <time>2019-08-17T07:42:36Z</time>
      </trkpt>
      <trkpt lat="42.2379090" lon="-8.6131470">
        <ele>198.2</ele>
        <time>2019-08-17T07:42:37Z</time>
      </trkpt>
      <trkpt lat="42.2379710" lon="-8.6131330">
        <ele>198.1</ele>
        <time>2019-08-17T07:42:38Z</time>
      </trkpt>
      <trkpt lat="42.2384470" lon="-8.6130290">
        <ele>197.3</ele>
        <time>2019-08-17T07:42:46Z</time>
      </trkpt>
      <trkpt lat="42.2388500" lon="-8.6129030">
        <ele>196.1</ele>
        <time>2019-08-17T07:42:52Z</time>
      </trkpt>
      <trkpt lat="42.2389160" lon="-8.6128680">
        <ele>196.0</ele>
        <time>2019-08-17T07:42:53Z</time>
      </trkpt>
      <trkpt lat="42.2389760" lon="-8.6128340">
        <ele>195.9</ele>
        <time>2019-08-17T07:42:54Z</time>
      </trkpt>
      <trkpt lat="42.2390400" lon="-8.6127980">
        <ele>195.8</ele>
        <time>2019-08-17T07:42:55Z</time>
      </trkpt>
      <trkpt lat="42.2391040" lon="-8.6127680">
        <ele>195.6</ele>
        <time>2019-08-17T07:42:56Z</time>
      </trkpt>
      <trkpt lat="42.2393400" lon="-8.6126420">
        <ele>195.1</ele>
        <time>2019-08-17T07:43:00Z</time>
      </trkpt>
      <trkpt lat="42.2398250" lon="-8.6122890">
        <ele>193.8</ele>
        <time>2019-08-17T07:43:08Z</time>
      </trkpt>
      <trkpt lat="42.2398920" lon="-8.6122320">
        <ele>193.5</ele>
        <time>2019-08-17T07:43:09Z</time>
      </trkpt>
      <trkpt lat="42.2399540" lon="-8.6121720">
        <ele>193.2</ele>
        <time>2019-08-17T07:43:10Z</time>
      </trkpt>
      <trkpt lat="42.2400250" lon="-8.6121060">
        <ele>193.0</ele>
        <time>2019-08-17T07:43:11Z</time>
      </trkpt>
      <trkpt lat="42.2401010" lon="-8.6120420">
        <ele>192.7</ele>
        <time>2019-08-17T07:43:12Z</time>
      </trkpt>
      <trkpt lat="42.2402970" lon="-8.6118480">
        <ele>192.0</ele>
        <time>2019-08-17T07:43:15Z</time>
      </trkpt>
      <trkpt lat="42.2403880" lon="-8.6117920">
        <ele>191.6</ele>
        <time>2019-08-17T07:43:16Z</time>
      </trkpt>
      <trkpt lat="42.2404520" lon="-8.6117080">
        <ele>191.2</ele>
        <time>2019-08-17T07:43:17Z</time>
      </trkpt>
      <trkpt lat="42.2405170" lon="-8.6116250">
        <ele>190.8</ele>
        <time>2019-08-17T07:43:18Z</time>
      </trkpt>
      <trkpt lat="42.2405760" lon="-8.6115380">
        <ele>190.4</ele>
        <time>2019-08-17T07:43:19Z</time>
      </trkpt>
      <trkpt lat="42.2406360" lon="-8.6114490">
        <ele>190.0</ele>
        <time>2019-08-17T07:43:20Z</time>
      </trkpt>
      <trkpt lat="42.2407020" lon="-8.6113610">
        <ele>189.6</ele>
        <time>2019-08-17T07:43:21Z</time>
      </trkpt>
      <trkpt lat="42.2407680" lon="-8.6112730">
        <ele>189.2</ele>
        <time>2019-08-17T07:43:22Z</time>
      </trkpt>
      <trkpt lat="42.2408390" lon="-8.6111720">
        <ele>188.8</ele>
        <time>2019-08-17T07:43:23Z</time>
      </trkpt>
      <trkpt lat="42.2409060" lon="-8.6110720">
        <ele>188.4</ele>
        <time>2019-08-17T07:43:24Z</time>
      </trkpt>
      <trkpt lat="42.2409730" lon="-8.6109770">
        <ele>188.0</ele>
        <time>2019-08-17T07:43:25Z</time>
      </trkpt>
      <trkpt lat="42.2410480" lon="-8.6108820">
        <ele>187.6</ele>
        <time>2019-08-17T07:43:26Z</time>
      </trkpt>
      <trkpt lat="42.2411280" lon="-8.6107820">
        <ele>187.1</ele>
        <time>2019-08-17T07:43:27Z</time>
      </trkpt>
      <trkpt lat="42.2412030" lon="-8.6106860">
        <ele>186.6</ele>
        <time>2019-08-17T07:43:28Z</time>
      </trkpt>
      <trkpt lat="42.2412800" lon="-8.6105910">
        <ele>186.2</ele>
        <time>2019-08-17T07:43:29Z</time>
      </trkpt>
      <trkpt lat="42.2413470" lon="-8.6104990">
        <ele>185.7</ele>
        <time>2019-08-17T07:43:30Z</time>
      </trkpt>
      <trkpt lat="42.2414090" lon="-8.6104150">
        <ele>185.2</ele>
        <time>2019-08-17T07:43:31Z</time>
      </trkpt>
      <trkpt lat="42.2414660" lon="-8.6103450">
        <ele>184.8</ele>
        <time>2019-08-17T07:43:32Z</time>
      </trkpt>
      <trkpt lat="42.2415070" lon="-8.6103040">
        <ele>184.5</ele>
        <time>2019-08-17T07:43:33Z</time>
      </trkpt>
      <trkpt lat="42.2415360" lon="-8.6102760">
        <ele>184.2</ele>
        <time>2019-08-17T07:43:34Z</time>
      </trkpt>
      <trkpt lat="42.2415760" lon="-8.6102580">
        <ele>184.3</ele>
        <time>2019-08-17T07:43:36Z</time>
      </trkpt>
      <trkpt lat="42.2415980" lon="-8.6102630">
        <ele>184.4</ele>
        <time>2019-08-17T07:43:37Z</time>
      </trkpt>
      <trkpt lat="42.2416180" lon="-8.6103460">
        <ele>184.5</ele>
        <time>2019-08-17T07:43:39Z</time>
      </trkpt>
      <trkpt lat="42.2415900" lon="-8.6105660">
        <ele>184.8</ele>
        <time>2019-08-17T07:43:42Z</time>
      </trkpt>
      <trkpt lat="42.2415870" lon="-8.6106460">
        <ele>185.0</ele>
        <time>2019-08-17T07:43:43Z</time>
      </trkpt>
      <trkpt lat="42.2415900" lon="-8.6107180">
        <ele>185.1</ele>
        <time>2019-08-17T07:43:44Z</time>
      </trkpt>
      <trkpt lat="42.2416020" lon="-8.6107780">
        <ele>185.1</ele>
        <time>2019-08-17T07:43:45Z</time>
      </trkpt>
      <trkpt lat="42.2416170" lon="-8.6108150">
        <ele>185.0</ele>
        <time>2019-08-17T07:43:46Z</time>
      </trkpt>
      <trkpt lat="42.2416380" lon="-8.6108440">
        <ele>184.8</ele>
        <time>2019-08-17T07:43:47Z</time>
      </trkpt>
      <trkpt lat="42.2417930" lon="-8.6107940">
        <ele>183.9</ele>
        <time>2019-08-17T07:43:50Z</time>
      </trkpt>
      <trkpt lat="42.2418540" lon="-8.6107740">
        <ele>183.6</ele>
        <time>2019-08-17T07:43:51Z</time>
      </trkpt>
      <trkpt lat="42.2420690" lon="-8.6107350">
        <ele>183.4</ele>
        <time>2019-08-17T07:43:55Z</time>
      </trkpt>
      <trkpt lat="42.2423410" lon="-8.6106980">
        <ele>183.4</ele>
        <time>2019-08-17T07:44:01Z</time>
      </trkpt>
      <trkpt lat="42.2423870" lon="-8.6106960">
        <ele>183.4</ele>
        <time>2019-08-17T07:44:02Z</time>
      </trkpt>
      <trkpt lat="42.2426500" lon="-8.6106720">
        <ele>183.4</ele>
        <time>2019-08-17T07:44:09Z</time>
      </trkpt>
      <trkpt lat="42.2428830" lon="-8.6106580">
        <ele>184.3</ele>
        <time>2019-08-17T07:44:15Z</time>
      </trkpt>
      <trkpt lat="42.2431160" lon="-8.6106470">
        <ele>185.0</ele>
        <time>2019-08-17T07:44:21Z</time>
      </trkpt>
      <trkpt lat="42.2432810" lon="-8.6106130">
        <ele>185.6</ele>
        <time>2019-08-17T07:44:25Z</time>
      </trkpt>
      <trkpt lat="42.2433150" lon="-8.6106080">
        <ele>185.8</ele>
        <time>2019-08-17T07:44:26Z</time>
      </trkpt>
      <trkpt lat="42.2433470" lon="-8.6106010">
        <ele>185.9</ele>
        <time>2019-08-17T07:44:27Z</time>
      </trkpt>
      <trkpt lat="42.2433890" lon="-8.6105910">
        <ele>186.1</ele>
        <time>2019-08-17T07:44:28Z</time>
      </trkpt>
      <trkpt lat="42.2434170" lon="-8.6105790">
        <ele>186.2</ele>
        <time>2019-08-17T07:44:29Z</time>
      </trkpt>
      <trkpt lat="42.2436760" lon="-8.6105460">
        <ele>186.5</ele>
        <time>2019-08-17T07:44:36Z</time>
      </trkpt>
      <trkpt lat="42.2440370" lon="-8.6104150">
        <ele>186.5</ele>
        <time>2019-08-17T07:44:44Z</time>
      </trkpt>
      <trkpt lat="42.2443880" lon="-8.6102830">
        <ele>186.5</ele>
        <time>2019-08-17T07:44:52Z</time>
      </trkpt>
      <trkpt lat="42.2446310" lon="-8.6102420">
        <ele>186.2</ele>
        <time>2019-08-17T07:44:58Z</time>
      </trkpt>
      <trkpt lat="42.2448800" lon="-8.6102090">
        <ele>184.5</ele>
        <time>2019-08-17T07:45:04Z</time>
      </trkpt>
      <trkpt lat="42.2450140" lon="-8.6101890">
        <ele>183.9</ele>
        <time>2019-08-17T07:45:09Z</time>
      </trkpt>
      <trkpt lat="42.2450590" lon="-8.6101730">
        <ele>183.8</ele>
        <time>2019-08-17T07:45:10Z</time>
      </trkpt>
      <trkpt lat="42.2451070" lon="-8.6101520">
        <ele>183.6</ele>
        <time>2019-08-17T07:45:11Z</time>
      </trkpt>
      <trkpt lat="42.2451700" lon="-8.6101260">
        <ele>183.4</ele>
        <time>2019-08-17T07:45:12Z</time>
      </trkpt>
      <trkpt lat="42.2452180" lon="-8.6100870">
        <ele>183.3</ele>
        <time>2019-08-17T07:45:13Z</time>
      </trkpt>
      <trkpt lat="42.2454920" lon="-8.6098870">
        <ele>182.4</ele>
        <time>2019-08-17T07:45:18Z</time>
      </trkpt>
      <trkpt lat="42.2456610" lon="-8.6098210">
        <ele>181.6</ele>
        <time>2019-08-17T07:45:20Z</time>
      </trkpt>
      <trkpt lat="42.2457480" lon="-8.6098090">
        <ele>181.1</ele>
        <time>2019-08-17T07:45:21Z</time>
      </trkpt>
      <trkpt lat="42.2458310" lon="-8.6098130">
        <ele>180.8</ele>
        <time>2019-08-17T07:45:22Z</time>
      </trkpt>
      <trkpt lat="42.2459060" lon="-8.6098180">
        <ele>180.5</ele>
        <time>2019-08-17T07:45:23Z</time>
      </trkpt>
      <trkpt lat="42.2459840" lon="-8.6098340">
        <ele>180.4</ele>
        <time>2019-08-17T07:45:24Z</time>
      </trkpt>
      <trkpt lat="42.2461340" lon="-8.6098950">
        <ele>180.2</ele>
        <time>2019-08-17T07:45:26Z</time>
      </trkpt>
      <trkpt lat="42.2465450" lon="-8.6101410">
        <ele>179.3</ele>
        <time>2019-08-17T07:45:32Z</time>
      </trkpt>
      <trkpt lat="42.2466150" lon="-8.6101790">
        <ele>179.0</ele>
        <time>2019-08-17T07:45:33Z</time>
      </trkpt>
      <trkpt lat="42.2466850" lon="-8.6102160">
        <ele>178.6</ele>
        <time>2019-08-17T07:45:34Z</time>
      </trkpt>
      <trkpt lat="42.2467600" lon="-8.6102540">
        <ele>178.4</ele>
        <time>2019-08-17T07:45:35Z</time>
      </trkpt>
      <trkpt lat="42.2468430" lon="-8.6102860">
        <ele>178.2</ele>
        <time>2019-08-17T07:45:36Z</time>
      </trkpt>
      <trkpt lat="42.2471490" lon="-8.6104150">
        <ele>176.5</ele>
        <time>2019-08-17T07:45:39Z</time>
      </trkpt>
      <trkpt lat="42.2472410" lon="-8.6104640">
        <ele>175.9</ele>
        <time>2019-08-17T07:45:40Z</time>
      </trkpt>
      <trkpt lat="42.2473780" lon="-8.6105380">
        <ele>175.4</ele>
        <time>2019-08-17T07:45:42Z</time>
      </trkpt>
      <trkpt lat="42.2474730" lon="-8.6105900">
        <ele>175.0</ele>
        <time>2019-08-17T07:45:43Z</time>
      </trkpt>
      <trkpt lat="42.2475720" lon="-8.6106310">
        <ele>174.6</ele>
        <time>2019-08-17T07:45:44Z</time>
      </trkpt>
      <trkpt lat="42.2476710" lon="-8.6106700">
        <ele>174.2</ele>
        <time>2019-08-17T07:45:45Z</time>
      </trkpt>
      <trkpt lat="42.2477730" lon="-8.6107010">
        <ele>174.0</ele>
        <time>2019-08-17T07:45:46Z</time>
      </trkpt>
      <trkpt lat="42.2478680" lon="-8.6107300">
        <ele>173.6</ele>
        <time>2019-08-17T07:45:47Z</time>
      </trkpt>
      <trkpt lat="42.2479550" lon="-8.6107560">
        <ele>173.3</ele>
        <time>2019-08-17T07:45:48Z</time>
      </trkpt>
      <trkpt lat="42.2481020" lon="-8.6108160">
        <ele>172.0</ele>
        <time>2019-08-17T07:45:50Z</time>
      </trkpt>
      <trkpt lat="42.2481700" lon="-8.6108500">
        <ele>171.4</ele>
        <time>2019-08-17T07:45:51Z</time>
      </trkpt>
      <trkpt lat="42.2482320" lon="-8.6108640">
        <ele>170.9</ele>
        <time>2019-08-17T07:45:52Z</time>
      </trkpt>
      <trkpt lat="42.2482930" lon="-8.6108820">
        <ele>170.5</ele>
        <time>2019-08-17T07:45:53Z</time>
      </trkpt>
      <trkpt lat="42.2483560" lon="-8.6109020">
        <ele>170.1</ele>
        <time>2019-08-17T07:45:54Z</time>
      </trkpt>
      <trkpt lat="42.2484910" lon="-8.6109550">
        <ele>169.6</ele>
        <time>2019-08-17T07:45:56Z</time>
      </trkpt>
      <trkpt lat="42.2488580" lon="-8.6110360">
        <ele>171.4</ele>
        <time>2019-08-17T07:46:02Z</time>
      </trkpt>
      <trkpt lat="42.2490820" lon="-8.6108930">
        <ele>169.7</ele>
        <time>2019-08-17T07:46:06Z</time>
      </trkpt>
      <trkpt lat="42.2491690" lon="-8.6108450">
        <ele>167.9</ele>
        <time>2019-08-17T07:46:07Z</time>
      </trkpt>
      <trkpt lat="42.2492340" lon="-8.6108180">
        <ele>166.6</ele>
        <time>2019-08-17T07:46:08Z</time>
      </trkpt>
      <trkpt lat="42.2492980" lon="-8.6108040">
        <ele>165.8</ele>
        <time>2019-08-17T07:46:09Z</time>
      </trkpt>
      <trkpt lat="42.2493680" lon="-8.6108340">
        <ele>164.9</ele>
        <time>2019-08-17T07:46:10Z</time>
      </trkpt>
      <trkpt lat="42.2494330" lon="-8.6108490">
        <ele>164.1</ele>
        <time>2019-08-17T07:46:11Z</time>
      </trkpt>
      <trkpt lat="42.2494950" lon="-8.6108750">
        <ele>163.5</ele>
        <time>2019-08-17T07:46:12Z</time>
      </trkpt>
      <trkpt lat="42.2495600" lon="-8.6109030">
        <ele>162.8</ele>
        <time>2019-08-17T07:46:13Z</time>
      </trkpt>
      <trkpt lat="42.2496630" lon="-8.6109480">
        <ele>161.6</ele>
        <time>2019-08-17T07:46:14Z</time>
      </trkpt>
      <trkpt lat="42.2497330" lon="-8.6109850">
        <ele>160.7</ele>
        <time>2019-08-17T07:46:15Z</time>
      </trkpt>
      <trkpt lat="42.2498080" lon="-8.6110110">
        <ele>159.8</ele>
        <time>2019-08-17T07:46:16Z</time>
      </trkpt>
      <trkpt lat="42.2498720" lon="-8.6110240">
        <ele>159.1</ele>
        <time>2019-08-17T07:46:17Z</time>
      </trkpt>
      <trkpt lat="42.2499480" lon="-8.6110510">
        <ele>158.1</ele>
        <time>2019-08-17T07:46:18Z</time>
      </trkpt>
      <trkpt lat="42.2500200" lon="-8.6110740">
        <ele>157.1</ele>
        <time>2019-08-17T07:46:19Z</time>
      </trkpt>
      <trkpt lat="42.2500970" lon="-8.6110920">
        <ele>156.1</ele>
        <time>2019-08-17T07:46:20Z</time>
      </trkpt>
      <trkpt lat="42.2502160" lon="-8.6111200">
        <ele>154.4</ele>
        <time>2019-08-17T07:46:21Z</time>
      </trkpt>
      <trkpt lat="42.2503110" lon="-8.6111470">
        <ele>152.8</ele>
        <time>2019-08-17T07:46:22Z</time>
      </trkpt>
      <trkpt lat="42.2504280" lon="-8.6111780">
        <ele>150.5</ele>
        <time>2019-08-17T07:46:23Z</time>
      </trkpt>
      <trkpt lat="42.2505130" lon="-8.6111950">
        <ele>148.8</ele>
        <time>2019-08-17T07:46:24Z</time>
      </trkpt>
      <trkpt lat="42.2505920" lon="-8.6112180">
        <ele>146.7</ele>
        <time>2019-08-17T07:46:25Z</time>
      </trkpt>
      <trkpt lat="42.2506520" lon="-8.6112300">
        <ele>145.0</ele>
        <time>2019-08-17T07:46:26Z</time>
      </trkpt>
      <trkpt lat="42.2507180" lon="-8.6112510">
        <ele>142.9</ele>
        <time>2019-08-17T07:46:27Z</time>
      </trkpt>
      <trkpt lat="42.2507790" lon="-8.6112670">
        <ele>141.5</ele>
        <time>2019-08-17T07:46:28Z</time>
      </trkpt>
      <trkpt lat="42.2508450" lon="-8.6112860">
        <ele>140.2</ele>
        <time>2019-08-17T07:46:29Z</time>
      </trkpt>
      <trkpt lat="42.2509080" lon="-8.6113020">
        <ele>139.1</ele>
        <time>2019-08-17T07:46:30Z</time>
      </trkpt>
      <trkpt lat="42.2509750" lon="-8.6113120">
        <ele>137.8</ele>
        <time>2019-08-17T07:46:31Z</time>
      </trkpt>
      <trkpt lat="42.2510280" lon="-8.6113280">
        <ele>136.6</ele>
        <time>2019-08-17T07:46:32Z</time>
      </trkpt>
      <trkpt lat="42.2510790" lon="-8.6113610">
        <ele>135.2</ele>
        <time>2019-08-17T07:46:33Z</time>
      </trkpt>
      <trkpt lat="42.2511210" lon="-8.6113930">
        <ele>133.9</ele>
        <time>2019-08-17T07:46:34Z</time>
      </trkpt>
      <trkpt lat="42.2511610" lon="-8.6114170">
        <ele>132.8</ele>
        <time>2019-08-17T07:46:35Z</time>
      </trkpt>
      <trkpt lat="42.2512090" lon="-8.6114370">
        <ele>131.6</ele>
        <time>2019-08-17T07:46:36Z</time>
      </trkpt>
      <trkpt lat="42.2512550" lon="-8.6114450">
        <ele>130.7</ele>
        <time>2019-08-17T07:46:37Z</time>
      </trkpt>
      <trkpt lat="42.2513110" lon="-8.6114350">
        <ele>129.5</ele>
        <time>2019-08-17T07:46:38Z</time>
      </trkpt>
      <trkpt lat="42.2513610" lon="-8.6114200">
        <ele>128.3</ele>
        <time>2019-08-17T07:46:39Z</time>
      </trkpt>
      <trkpt lat="42.2514120" lon="-8.6113950">
        <ele>126.9</ele>
        <time>2019-08-17T07:46:40Z</time>
      </trkpt>
      <trkpt lat="42.2514540" lon="-8.6113490">
        <ele>125.3</ele>
        <time>2019-08-17T07:46:41Z</time>
      </trkpt>
      <trkpt lat="42.2514960" lon="-8.6113050">
        <ele>123.6</ele>
        <time>2019-08-17T07:46:42Z</time>
      </trkpt>
      <trkpt lat="42.2515430" lon="-8.6112650">
        <ele>122.3</ele>
        <time>2019-08-17T07:46:43Z</time>
      </trkpt>
      <trkpt lat="42.2515940" lon="-8.6112300">
        <ele>121.3</ele>
        <time>2019-08-17T07:46:44Z</time>
      </trkpt>
      <trkpt lat="42.2516330" lon="-8.6112200">
        <ele>120.5</ele>
        <time>2019-08-17T07:46:45Z</time>
      </trkpt>
      <trkpt lat="42.2516780" lon="-8.6112110">
        <ele>119.6</ele>
        <time>2019-08-17T07:46:46Z</time>
      </trkpt>
      <trkpt lat="42.2517260" lon="-8.6112020">
        <ele>118.5</ele>
        <time>2019-08-17T07:46:47Z</time>
      </trkpt>
      <trkpt lat="42.2517720" lon="-8.6111940">
        <ele>117.5</ele>
        <time>2019-08-17T07:46:48Z</time>
      </trkpt>
      <trkpt lat="42.2518100" lon="-8.6112110">
        <ele>116.5</ele>
        <time>2019-08-17T07:46:49Z</time>
      </trkpt>
      <trkpt lat="42.2518510" lon="-8.6112180">
        <ele>115.5</ele>
        <time>2019-08-17T07:46:50Z</time>
      </trkpt>
      <trkpt lat="42.2518840" lon="-8.6112350">
        <ele>114.3</ele>
        <time>2019-08-17T07:46:51Z</time>
      </trkpt>
      <trkpt lat="42.2519070" lon="-8.6112610">
        <ele>113.5</ele>
        <time>2019-08-17T07:46:52Z</time>
      </trkpt>
      <trkpt lat="42.2519330" lon="-8.6112860">
        <ele>112.6</ele>
        <time>2019-08-17T07:46:53Z</time>
      </trkpt>
      <trkpt lat="42.2519600" lon="-8.6113120">
        <ele>111.7</ele>
        <time>2019-08-17T07:46:54Z</time>
      </trkpt>
      <trkpt lat="42.2519900" lon="-8.6113360">
        <ele>110.7</ele>
        <time>2019-08-17T07:46:55Z</time>
      </trkpt>
      <trkpt lat="42.2520240" lon="-8.6113500">
        <ele>109.6</ele>
        <time>2019-08-17T07:46:56Z</time>
      </trkpt>
      <trkpt lat="42.2520720" lon="-8.6113120">
        <ele>108.0</ele>
        <time>2019-08-17T07:46:57Z</time>
      </trkpt>
      <trkpt lat="42.2521210" lon="-8.6112650">
        <ele>106.9</ele>
        <time>2019-08-17T07:46:58Z</time>
      </trkpt>
      <trkpt lat="42.2521670" lon="-8.6112060">
        <ele>105.8</ele>
        <time>2019-08-17T07:46:59Z</time>
      </trkpt>
      <trkpt lat="42.2522080" lon="-8.6111340">
        <ele>105.0</ele>
        <time>2019-08-17T07:47:00Z</time>
      </trkpt>
      <trkpt lat="42.2522590" lon="-8.6110520">
        <ele>104.1</ele>
        <time>2019-08-17T07:47:01Z</time>
      </trkpt>
      <trkpt lat="42.2523040" lon="-8.6109660">
        <ele>103.1</ele>
        <time>2019-08-17T07:47:02Z</time>
      </trkpt>
      <trkpt lat="42.2523550" lon="-8.6108820">
        <ele>101.9</ele>
        <time>2019-08-17T07:47:03Z</time>
      </trkpt>
      <trkpt lat="42.2524090" lon="-8.6108020">
        <ele>100.7</ele>
        <time>2019-08-17T07:47:04Z</time>
      </trkpt>
      <trkpt lat="42.2524770" lon="-8.6107450">
        <ele>99.5</ele>
        <time>2019-08-17T07:47:05Z</time>
      </trkpt>
      <trkpt lat="42.2525350" lon="-8.6106900">
        <ele>98.4</ele>
        <time>2019-08-17T07:47:06Z</time>
      </trkpt>
      <trkpt lat="42.2525890" lon="-8.6106330">
        <ele>97.3</ele>
        <time>2019-08-17T07:47:07Z</time>
      </trkpt>
      <trkpt lat="42.2526420" lon="-8.6105720">
        <ele>96.2</ele>
        <time>2019-08-17T07:47:08Z</time>
      </trkpt>
      <trkpt lat="42.2526830" lon="-8.6105040">
        <ele>95.2</ele>
        <time>2019-08-17T07:47:09Z</time>
      </trkpt>
      <trkpt lat="42.2527130" lon="-8.6104280">
        <ele>94.2</ele>
        <time>2019-08-17T07:47:10Z</time>
      </trkpt>
      <trkpt lat="42.2527340" lon="-8.6103600">
        <ele>93.4</ele>
        <time>2019-08-17T07:47:11Z</time>
      </trkpt>
      <trkpt lat="42.2527510" lon="-8.6102990">
        <ele>92.6</ele>
        <time>2019-08-17T07:47:12Z</time>
      </trkpt>
      <trkpt lat="42.2527680" lon="-8.6102530">
        <ele>92.1</ele>
        <time>2019-08-17T07:47:13Z</time>
      </trkpt>
      <trkpt lat="42.2527980" lon="-8.6102210">
        <ele>91.3</ele>
        <time>2019-08-17T07:47:14Z</time>
      </trkpt>
      <trkpt lat="42.2528440" lon="-8.6101930">
        <ele>90.7</ele>
        <time>2019-08-17T07:47:15Z</time>
      </trkpt>
      <trkpt lat="42.2529170" lon="-8.6102280">
        <ele>89.7</ele>
        <time>2019-08-17T07:47:16Z</time>
      </trkpt>
      <trkpt lat="42.2529680" lon="-8.6102400">
        <ele>89.2</ele>
        <time>2019-08-17T07:47:17Z</time>
      </trkpt>
      <trkpt lat="42.2530310" lon="-8.6102560">
        <ele>88.5</ele>
        <time>2019-08-17T07:47:18Z</time>
      </trkpt>
      <trkpt lat="42.2530930" lon="-8.6102690">
        <ele>87.7</ele>
        <time>2019-08-17T07:47:19Z</time>
      </trkpt>
      <trkpt lat="42.2531580" lon="-8.6102900">
        <ele>86.9</ele>
        <time>2019-08-17T07:47:20Z</time>
      </trkpt>
      <trkpt lat="42.2532220" lon="-8.6103190">
        <ele>86.0</ele>
        <time>2019-08-17T07:47:21Z</time>
      </trkpt>
      <trkpt lat="42.2532890" lon="-8.6103510">
        <ele>85.0</ele>
        <time>2019-08-17T07:47:22Z</time>
      </trkpt>
      <trkpt lat="42.2533610" lon="-8.6103950">
        <ele>83.8</ele>
        <time>2019-08-17T07:47:23Z</time>
      </trkpt>
      <trkpt lat="42.2534240" lon="-8.6104370">
        <ele>82.6</ele>
        <time>2019-08-17T07:47:24Z</time>
      </trkpt>
      <trkpt lat="42.2534790" lon="-8.6104920">
        <ele>81.3</ele>
        <time>2019-08-17T07:47:25Z</time>
      </trkpt>
      <trkpt lat="42.2535140" lon="-8.6105530">
        <ele>80.2</ele>
        <time>2019-08-17T07:47:26Z</time>
      </trkpt>
      <trkpt lat="42.2535410" lon="-8.6105950">
        <ele>79.4</ele>
        <time>2019-08-17T07:47:27Z</time>
      </trkpt>
      <trkpt lat="42.2535760" lon="-8.6106440">
        <ele>78.4</ele>
        <time>2019-08-17T07:47:28Z</time>
      </trkpt>
      <trkpt lat="42.2536180" lon="-8.6106990">
        <ele>77.3</ele>
        <time>2019-08-17T07:47:29Z</time>
      </trkpt>
      <trkpt lat="42.2536610" lon="-8.6107300">
        <ele>76.4</ele>
        <time>2019-08-17T07:47:30Z</time>
      </trkpt>
      <trkpt lat="42.2537180" lon="-8.6107080">
        <ele>75.4</ele>
        <time>2019-08-17T07:47:31Z</time>
      </trkpt>
      <trkpt lat="42.2537690" lon="-8.6106620">
        <ele>75.0</ele>
        <time>2019-08-17T07:47:32Z</time>
      </trkpt>
      <trkpt lat="42.2538040" lon="-8.6105840">
        <ele>74.6</ele>
        <time>2019-08-17T07:47:33Z</time>
      </trkpt>
      <trkpt lat="42.2538280" lon="-8.6104920">
        <ele>74.2</ele>
        <time>2019-08-17T07:47:34Z</time>
      </trkpt>
      <trkpt lat="42.2538360" lon="-8.6103840">
        <ele>73.9</ele>
        <time>2019-08-17T07:47:35Z</time>
      </trkpt>
      <trkpt lat="42.2538460" lon="-8.6102810">
        <ele>73.6</ele>
        <time>2019-08-17T07:47:36Z</time>
      </trkpt>
      <trkpt lat="42.2538600" lon="-8.6101850">
        <ele>73.4</ele>
        <time>2019-08-17T07:47:37Z</time>
      </trkpt>
      <trkpt lat="42.2538830" lon="-8.6101030">
        <ele>73.2</ele>
        <time>2019-08-17T07:47:38Z</time>
      </trkpt>
      <trkpt lat="42.2539170" lon="-8.6100210">
        <ele>73.0</ele>
        <time>2019-08-17T07:47:39Z</time>
      </trkpt>
      <trkpt lat="42.2539410" lon="-8.6099400">
        <ele>72.9</ele>
        <time>2019-08-17T07:47:40Z</time>
      </trkpt>
      <trkpt lat="42.2539700" lon="-8.6098690">
        <ele>72.7</ele>
        <time>2019-08-17T07:47:41Z</time>
      </trkpt>
      <trkpt lat="42.2539970" lon="-8.6098050">
        <ele>72.6</ele>
        <time>2019-08-17T07:47:42Z</time>
      </trkpt>
      <trkpt lat="42.2540230" lon="-8.6097390">
        <ele>72.4</ele>
        <time>2019-08-17T07:47:43Z</time>
      </trkpt>
      <trkpt lat="42.2540480" lon="-8.6096750">
        <ele>72.2</ele>
        <time>2019-08-17T07:47:44Z</time>
      </trkpt>
      <trkpt lat="42.2540690" lon="-8.6096110">
        <ele>72.0</ele>
        <time>2019-08-17T07:47:45Z</time>
      </trkpt>
      <trkpt lat="42.2540850" lon="-8.6095400">
        <ele>71.8</ele>
        <time>2019-08-17T07:47:46Z</time>
      </trkpt>
      <trkpt lat="42.2540980" lon="-8.6094730">
        <ele>71.5</ele>
        <time>2019-08-17T07:47:47Z</time>
      </trkpt>
      <trkpt lat="42.2541200" lon="-8.6094180">
        <ele>71.0</ele>
        <time>2019-08-17T07:47:48Z</time>
      </trkpt>
      <trkpt lat="42.2541380" lon="-8.6093670">
        <ele>70.4</ele>
        <time>2019-08-17T07:47:49Z</time>
      </trkpt>
      <trkpt lat="42.2541550" lon="-8.6093240">
        <ele>69.8</ele>
        <time>2019-08-17T07:47:50Z</time>
      </trkpt>
      <trkpt lat="42.2541720" lon="-8.6092830">
        <ele>69.0</ele>
        <time>2019-08-17T07:47:51Z</time>
      </trkpt>
      <trkpt lat="42.2541910" lon="-8.6092520">
        <ele>68.3</ele>
        <time>2019-08-17T07:47:52Z</time>
      </trkpt>
      <trkpt lat="42.2542210" lon="-8.6092320">
        <ele>67.5</ele>
        <time>2019-08-17T07:47:53Z</time>
      </trkpt>
      <trkpt lat="42.2542760" lon="-8.6092670">
        <ele>66.1</ele>
        <time>2019-08-17T07:47:54Z</time>
      </trkpt>
      <trkpt lat="42.2543160" lon="-8.6093010">
        <ele>65.4</ele>
        <time>2019-08-17T07:47:55Z</time>
      </trkpt>
      <trkpt lat="42.2543360" lon="-8.6093460">
        <ele>65.0</ele>
        <time>2019-08-17T07:47:56Z</time>
      </trkpt>
      <trkpt lat="42.2543610" lon="-8.6093890">
        <ele>63.8</ele>
        <time>2019-08-17T07:47:57Z</time>
      </trkpt>
      <trkpt lat="42.2543970" lon="-8.6094480">
        <ele>62.3</ele>
        <time>2019-08-17T07:47:58Z</time>
      </trkpt>
      <trkpt lat="42.2544340" lon="-8.6094980">
        <ele>60.9</ele>
        <time>2019-08-17T07:47:59Z</time>
      </trkpt>
      <trkpt lat="42.2544850" lon="-8.6095730">
        <ele>59.0</ele>
        <time>2019-08-17T07:48:00Z</time>
      </trkpt>
      <trkpt lat="42.2545410" lon="-8.6096290">
        <ele>57.7</ele>
        <time>2019-08-17T07:48:01Z</time>
      </trkpt>
      <trkpt lat="42.2546050" lon="-8.6096910">
        <ele>56.5</ele>
        <time>2019-08-17T07:48:02Z</time>
      </trkpt>
      <trkpt lat="42.2546860" lon="-8.6097380">
        <ele>55.2</ele>
        <time>2019-08-17T07:48:03Z</time>
      </trkpt>
      <trkpt lat="42.2547700" lon="-8.6097920">
        <ele>54.2</ele>
        <time>2019-08-17T07:48:04Z</time>
      </trkpt>
      <trkpt lat="42.2548530" lon="-8.6098540">
        <ele>53.6</ele>
        <time>2019-08-17T07:48:05Z</time>
      </trkpt>
      <trkpt lat="42.2549250" lon="-8.6099220">
        <ele>53.3</ele>
        <time>2019-08-17T07:48:06Z</time>
      </trkpt>
      <trkpt lat="42.2549970" lon="-8.6099940">
        <ele>53.4</ele>
        <time>2019-08-17T07:48:07Z</time>
      </trkpt>
      <trkpt lat="42.2550680" lon="-8.6100530">
        <ele>53.8</ele>
        <time>2019-08-17T07:48:08Z</time>
      </trkpt>
      <trkpt lat="42.2551430" lon="-8.6100800">
        <ele>52.6</ele>
        <time>2019-08-17T07:48:09Z</time>
      </trkpt>
      <trkpt lat="42.2552240" lon="-8.6100810">
        <ele>51.5</ele>
        <time>2019-08-17T07:48:10Z</time>
      </trkpt>
      <trkpt lat="42.2553020" lon="-8.6100700">
        <ele>50.1</ele>
        <time>2019-08-17T07:48:11Z</time>
      </trkpt>
      <trkpt lat="42.2553820" lon="-8.6100440">
        <ele>49.0</ele>
        <time>2019-08-17T07:48:12Z</time>
      </trkpt>
      <trkpt lat="42.2554720" lon="-8.6100260">
        <ele>47.9</ele>
        <time>2019-08-17T07:48:13Z</time>
      </trkpt>
      <trkpt lat="42.2555700" lon="-8.6100000">
        <ele>46.9</ele>
        <time>2019-08-17T07:48:14Z</time>
      </trkpt>
      <trkpt lat="42.2556640" lon="-8.6099740">
        <ele>46.1</ele>
        <time>2019-08-17T07:48:15Z</time>
      </trkpt>
      <trkpt lat="42.2557560" lon="-8.6099320">
        <ele>45.2</ele>
        <time>2019-08-17T07:48:16Z</time>
      </trkpt>
      <trkpt lat="42.2558270" lon="-8.6098640">
        <ele>44.4</ele>
        <time>2019-08-17T07:48:17Z</time>
      </trkpt>
      <trkpt lat="42.2558950" lon="-8.6097770">
        <ele>43.5</ele>
        <time>2019-08-17T07:48:18Z</time>
      </trkpt>
      <trkpt lat="42.2559640" lon="-8.6096840">
        <ele>42.7</ele>
        <time>2019-08-17T07:48:19Z</time>
      </trkpt>
      <trkpt lat="42.2560380" lon="-8.6096020">
        <ele>42.0</ele>
        <time>2019-08-17T07:48:20Z</time>
      </trkpt>
      <trkpt lat="42.2561920" lon="-8.6094800">
        <ele>41.2</ele>
        <time>2019-08-17T07:48:22Z</time>
      </trkpt>
      <trkpt lat="42.2562810" lon="-8.6094290">
        <ele>40.8</ele>
        <time>2019-08-17T07:48:23Z</time>
      </trkpt>
      <trkpt lat="42.2563630" lon="-8.6093830">
        <ele>40.6</ele>
        <time>2019-08-17T07:48:24Z</time>
      </trkpt>
      <trkpt lat="42.2564510" lon="-8.6093360">
        <ele>40.3</ele>
        <time>2019-08-17T07:48:25Z</time>
      </trkpt>
      <trkpt lat="42.2565260" lon="-8.6092770">
        <ele>40.1</ele>
        <time>2019-08-17T07:48:26Z</time>
      </trkpt>
      <trkpt lat="42.2565990" lon="-8.6092160">
        <ele>39.8</ele>
        <time>2019-08-17T07:48:27Z</time>
      </trkpt>
      <trkpt lat="42.2570150" lon="-8.6089210">
        <ele>38.9</ele>
        <time>2019-08-17T07:48:33Z</time>
      </trkpt>
      <trkpt lat="42.2573470" lon="-8.6087720">
        <ele>38.3</ele>
        <time>2019-08-17T07:48:38Z</time>
      </trkpt>
      <trkpt lat="42.2574120" lon="-8.6087440">
        <ele>38.2</ele>
        <time>2019-08-17T07:48:39Z</time>
      </trkpt>
      <trkpt lat="42.2574740" lon="-8.6087230">
        <ele>38.1</ele>
        <time>2019-08-17T07:48:40Z</time>
      </trkpt>
      <trkpt lat="42.2575310" lon="-8.6087020">
        <ele>38.0</ele>
        <time>2019-08-17T07:48:41Z</time>
      </trkpt>
      <trkpt lat="42.2575890" lon="-8.6086820">
        <ele>38.0</ele>
        <time>2019-08-17T07:48:42Z</time>
      </trkpt>
      <trkpt lat="42.2577520" lon="-8.6086080">
        <ele>37.8</ele>
        <time>2019-08-17T07:48:45Z</time>
      </trkpt>
      <trkpt lat="42.2581120" lon="-8.6084530">
        <ele>37.6</ele>
        <time>2019-08-17T07:48:52Z</time>
      </trkpt>
      <trkpt lat="42.2586210" lon="-8.6082840">
        <ele>37.2</ele>
        <time>2019-08-17T07:49:01Z</time>
      </trkpt>
      <trkpt lat="42.2586780" lon="-8.6082660">
        <ele>37.0</ele>
        <time>2019-08-17T07:49:02Z</time>
      </trkpt>
      <trkpt lat="42.2587290" lon="-8.6082430">
        <ele>36.9</ele>
        <time>2019-08-17T07:49:03Z</time>
      </trkpt>
      <trkpt lat="42.2587780" lon="-8.6082240">
        <ele>36.8</ele>
        <time>2019-08-17T07:49:04Z</time>
      </trkpt>
      <trkpt lat="42.2588340" lon="-8.6082010">
        <ele>36.6</ele>
        <time>2019-08-17T07:49:05Z</time>
      </trkpt>
      <trkpt lat="42.2588850" lon="-8.6081780">
        <ele>36.4</ele>
        <time>2019-08-17T07:49:06Z</time>
      </trkpt>
      <trkpt lat="42.2589940" lon="-8.6081330">
        <ele>36.1</ele>
        <time>2019-08-17T07:49:08Z</time>
      </trkpt>
      <trkpt lat="42.2594350" lon="-8.6080240">
        <ele>35.5</ele>
        <time>2019-08-17T07:49:16Z</time>
      </trkpt>
      <trkpt lat="42.2595300" lon="-8.6079720">
        <ele>35.5</ele>
        <time>2019-08-17T07:49:18Z</time>
      </trkpt>
      <trkpt lat="42.2596160" lon="-8.6079090">
        <ele>35.4</ele>
        <time>2019-08-17T07:49:20Z</time>
      </trkpt>
      <trkpt lat="42.2597020" lon="-8.6078730">
        <ele>35.2</ele>
        <time>2019-08-17T07:49:22Z</time>
      </trkpt>
      <trkpt lat="42.2598570" lon="-8.6078840">
        <ele>34.4</ele>
        <time>2019-08-17T07:49:25Z</time>
      </trkpt>
      <trkpt lat="42.2599080" lon="-8.6078870">
        <ele>34.3</ele>
        <time>2019-08-17T07:49:26Z</time>
      </trkpt>
      <trkpt lat="42.2602360" lon="-8.6078930">
        <ele>33.2</ele>
        <time>2019-08-17T07:49:32Z</time>
      </trkpt>
      <trkpt lat="42.2606560" lon="-8.6079390">
        <ele>32.0</ele>
        <time>2019-08-17T07:49:40Z</time>
      </trkpt>
      <trkpt lat="42.2608210" lon="-8.6079350">
        <ele>31.6</ele>
        <time>2019-08-17T07:49:43Z</time>
      </trkpt>
      <trkpt lat="42.2610450" lon="-8.6079040">
        <ele>31.1</ele>
        <time>2019-08-17T07:49:47Z</time>
      </trkpt>
      <trkpt lat="42.2614060" lon="-8.6077440">
        <ele>30.7</ele>
        <time>2019-08-17T07:49:54Z</time>
      </trkpt>
      <trkpt lat="42.2615780" lon="-8.6076710">
        <ele>31.1</ele>
        <time>2019-08-17T07:49:57Z</time>
      </trkpt>
      <trkpt lat="42.2616360" lon="-8.6076510">
        <ele>31.2</ele>
        <time>2019-08-17T07:49:58Z</time>
      </trkpt>
      <trkpt lat="42.2616910" lon="-8.6076320">
        <ele>31.4</ele>
        <time>2019-08-17T07:49:59Z</time>
      </trkpt>
      <trkpt lat="42.2617470" lon="-8.6076140">
        <ele>31.5</ele>
        <time>2019-08-17T07:50:00Z</time>
      </trkpt>
      <trkpt lat="42.2618080" lon="-8.6075980">
        <ele>31.6</ele>
        <time>2019-08-17T07:50:01Z</time>
      </trkpt>
      <trkpt lat="42.2622210" lon="-8.6075430">
        <ele>32.5</ele>
        <time>2019-08-17T07:50:08Z</time>
      </trkpt>
      <trkpt lat="42.2626370" lon="-8.6076210">
        <ele>32.9</ele>
        <time>2019-08-17T07:50:15Z</time>
      </trkpt>
      <trkpt lat="42.2627430" lon="-8.6077030">
        <ele>32.9</ele>
        <time>2019-08-17T07:50:17Z</time>
      </trkpt>
      <trkpt lat="42.2628420" lon="-8.6077670">
        <ele>33.0</ele>
        <time>2019-08-17T07:50:19Z</time>
      </trkpt>
      <trkpt lat="42.2631810" lon="-8.6079480">
        <ele>32.6</ele>
        <time>2019-08-17T07:50:25Z</time>
      </trkpt>
      <trkpt lat="42.2632420" lon="-8.6079680">
        <ele>32.6</ele>
        <time>2019-08-17T07:50:26Z</time>
      </trkpt>
      <trkpt lat="42.2633060" lon="-8.6079810">
        <ele>32.5</ele>
        <time>2019-08-17T07:50:27Z</time>
      </trkpt>
      <trkpt lat="42.2633720" lon="-8.6079940">
        <ele>32.5</ele>
        <time>2019-08-17T07:50:28Z</time>
      </trkpt>
      <trkpt lat="42.2634360" lon="-8.6080080">
        <ele>32.5</ele>
        <time>2019-08-17T07:50:29Z</time>
      </trkpt>
      <trkpt lat="42.2637520" lon="-8.6080490">
        <ele>32.4</ele>
        <time>2019-08-17T07:50:34Z</time>
      </trkpt>
      <trkpt lat="42.2643080" lon="-8.6081640">
        <ele>31.3</ele>
        <time>2019-08-17T07:50:43Z</time>
      </trkpt>
      <trkpt lat="42.2647700" lon="-8.6082440">
        <ele>30.8</ele>
        <time>2019-08-17T07:50:51Z</time>
      </trkpt>
      <trkpt lat="42.2651350" lon="-8.6082860">
        <ele>30.7</ele>
        <time>2019-08-17T07:50:58Z</time>
      </trkpt>
      <trkpt lat="42.2653700" lon="-8.6083770">
        <ele>30.7</ele>
        <time>2019-08-17T07:51:03Z</time>
      </trkpt>
      <trkpt lat="42.2654180" lon="-8.6084040">
        <ele>30.7</ele>
        <time>2019-08-17T07:51:04Z</time>
      </trkpt>
      <trkpt lat="42.2657150" lon="-8.6086080">
        <ele>30.7</ele>
        <time>2019-08-17T07:51:10Z</time>
      </trkpt>
      <trkpt lat="42.2661570" lon="-8.6088000">
        <ele>29.6</ele>
        <time>2019-08-17T07:51:19Z</time>
      </trkpt>
      <trkpt lat="42.2662260" lon="-8.6088410">
        <ele>29.4</ele>
        <time>2019-08-17T07:51:23Z</time>
      </trkpt>
      <trkpt lat="42.2662200" lon="-8.6088480">
        <ele>29.4</ele>
        <time>2019-08-17T07:51:24Z</time>
      </trkpt>
      <trkpt lat="42.2661900" lon="-8.6088600">
        <ele>29.3</ele>
        <time>2019-08-17T07:51:25Z</time>
      </trkpt>
      <trkpt lat="42.2661770" lon="-8.6088750">
        <ele>29.3</ele>
        <time>2019-08-17T07:51:26Z</time>
      </trkpt>
      <trkpt lat="42.2661680" lon="-8.6088910">
        <ele>29.3</ele>
        <time>2019-08-17T07:51:27Z</time>
      </trkpt>
      <trkpt lat="42.2661700" lon="-8.6088990">
        <ele>29.3</ele>
        <time>2019-08-17T07:51:29Z</time>
      </trkpt>
      <trkpt lat="42.2661780" lon="-8.6088090">
        <ele>29.2</ele>
        <time>2019-08-17T07:55:46Z</time>
      </trkpt>
      <trkpt lat="42.2661850" lon="-8.6088000">
        <ele>29.2</ele>
        <time>2019-08-17T07:55:47Z</time>
      </trkpt>
      <trkpt lat="42.2662890" lon="-8.6087410">
        <ele>29.2</ele>
        <time>2019-08-17T07:55:58Z</time>
      </trkpt>
      <trkpt lat="42.2664390" lon="-8.6089060">
        <ele>29.2</ele>
        <time>2019-08-17T07:56:03Z</time>
      </trkpt>
      <trkpt lat="42.2667230" lon="-8.6090820">
        <ele>29.1</ele>
        <time>2019-08-17T07:56:10Z</time>
      </trkpt>
      <trkpt lat="42.2669620" lon="-8.6092710">
        <ele>29.1</ele>
        <time>2019-08-17T07:56:18Z</time>
      </trkpt>
      <trkpt lat="42.2672340" lon="-8.6094290">
        <ele>29.1</ele>
        <time>2019-08-17T07:56:27Z</time>
      </trkpt>
      <trkpt lat="42.2673470" lon="-8.6094880">
        <ele>29.0</ele>
        <time>2019-08-17T07:56:31Z</time>
      </trkpt>
      <trkpt lat="42.2673740" lon="-8.6094970">
        <ele>29.0</ele>
        <time>2019-08-17T07:56:32Z</time>
      </trkpt>
      <trkpt lat="42.2674050" lon="-8.6095250">
        <ele>29.0</ele>
        <time>2019-08-17T07:56:33Z</time>
      </trkpt>
      <trkpt lat="42.2674310" lon="-8.6095570">
        <ele>29.0</ele>
        <time>2019-08-17T07:56:34Z</time>
      </trkpt>
      <trkpt lat="42.2674640" lon="-8.6095820">
        <ele>28.9</ele>
        <time>2019-08-17T07:56:35Z</time>
      </trkpt>
      <trkpt lat="42.2676730" lon="-8.6097050">
        <ele>28.3</ele>
        <time>2019-08-17T07:56:41Z</time>
      </trkpt>
      <trkpt lat="42.2679700" lon="-8.6097950">
        <ele>27.6</ele>
        <time>2019-08-17T07:56:47Z</time>
      </trkpt>
      <trkpt lat="42.2682470" lon="-8.6098300">
        <ele>27.5</ele>
        <time>2019-08-17T07:56:54Z</time>
      </trkpt>
      <trkpt lat="42.2684870" lon="-8.6099310">
        <ele>27.5</ele>
        <time>2019-08-17T07:57:00Z</time>
      </trkpt>
      <trkpt lat="42.2688040" lon="-8.6100630">
        <ele>27.5</ele>
        <time>2019-08-17T07:57:08Z</time>
      </trkpt>
      <trkpt lat="42.2691090" lon="-8.6102580">
        <ele>27.5</ele>
        <time>2019-08-17T07:57:16Z</time>
      </trkpt>
      <trkpt lat="42.2692410" lon="-8.6103630">
        <ele>27.5</ele>
        <time>2019-08-17T07:57:19Z</time>
      </trkpt>
      <trkpt lat="42.2692840" lon="-8.6103980">
        <ele>27.5</ele>
        <time>2019-08-17T07:57:20Z</time>
      </trkpt>
      <trkpt lat="42.2693300" lon="-8.6104350">
        <ele>27.5</ele>
        <time>2019-08-17T07:57:21Z</time>
      </trkpt>
      <trkpt lat="42.2693760" lon="-8.6104710">
        <ele>27.5</ele>
        <time>2019-08-17T07:57:22Z</time>
      </trkpt>
      <trkpt lat="42.2694300" lon="-8.6105080">
        <ele>27.5</ele>
        <time>2019-08-17T07:57:23Z</time>
      </trkpt>
      <trkpt lat="42.2696780" lon="-8.6106210">
        <ele>27.4</ele>
        <time>2019-08-17T07:57:28Z</time>
      </trkpt>
      <trkpt lat="42.2700510" lon="-8.6107950">
        <ele>26.2</ele>
        <time>2019-08-17T07:57:35Z</time>
      </trkpt>
      <trkpt lat="42.2702760" lon="-8.6109210">
        <ele>25.4</ele>
        <time>2019-08-17T07:57:39Z</time>
      </trkpt>
      <trkpt lat="42.2703310" lon="-8.6109640">
        <ele>25.2</ele>
        <time>2019-08-17T07:57:40Z</time>
      </trkpt>
      <trkpt lat="42.2703930" lon="-8.6109910">
        <ele>25.0</ele>
        <time>2019-08-17T07:57:41Z</time>
      </trkpt>
      <trkpt lat="42.2704570" lon="-8.6110090">
        <ele>24.7</ele>
        <time>2019-08-17T07:57:42Z</time>
      </trkpt>
      <trkpt lat="42.2705210" lon="-8.6110220">
        <ele>24.5</ele>
        <time>2019-08-17T07:57:43Z</time>
      </trkpt>
      <trkpt lat="42.2707110" lon="-8.6109810">
        <ele>24.1</ele>
        <time>2019-08-17T07:57:46Z</time>
      </trkpt>
      <trkpt lat="42.2707740" lon="-8.6109590">
        <ele>24.0</ele>
        <time>2019-08-17T07:57:47Z</time>
      </trkpt>
      <trkpt lat="42.2710210" lon="-8.6108110">
        <ele>22.8</ele>
        <time>2019-08-17T07:57:51Z</time>
      </trkpt>
      <trkpt lat="42.2710830" lon="-8.6107660">
        <ele>22.7</ele>
        <time>2019-08-17T07:57:52Z</time>
      </trkpt>
      <trkpt lat="42.2711410" lon="-8.6107200">
        <ele>22.7</ele>
        <time>2019-08-17T07:57:53Z</time>
      </trkpt>
      <trkpt lat="42.2711920" lon="-8.6106690">
        <ele>22.7</ele>
        <time>2019-08-17T07:57:54Z</time>
      </trkpt>
      <trkpt lat="42.2712350" lon="-8.6106220">
        <ele>22.7</ele>
        <time>2019-08-17T07:57:55Z</time>
      </trkpt>
      <trkpt lat="42.2713200" lon="-8.6105420">
        <ele>22.7</ele>
        <time>2019-08-17T07:57:57Z</time>
      </trkpt>
      <trkpt lat="42.2715700" lon="-8.6103290">
        <ele>23.8</ele>
        <time>2019-08-17T07:58:03Z</time>
      </trkpt>
      <trkpt lat="42.2717440" lon="-8.6102880">
        <ele>24.1</ele>
        <time>2019-08-17T07:58:08Z</time>
      </trkpt>
      <trkpt lat="42.2720130" lon="-8.6102850">
        <ele>23.0</ele>
        <time>2019-08-17T07:58:14Z</time>
      </trkpt>
      <trkpt lat="42.2722450" lon="-8.6103150">
        <ele>22.0</ele>
        <time>2019-08-17T07:58:20Z</time>
      </trkpt>
      <trkpt lat="42.2723810" lon="-8.6102980">
        <ele>21.5</ele>
        <time>2019-08-17T07:58:26Z</time>
      </trkpt>
      <trkpt lat="42.2724030" lon="-8.6102940">
        <ele>21.4</ele>
        <time>2019-08-17T07:58:27Z</time>
      </trkpt>
      <trkpt lat="42.2724270" lon="-8.6102940">
        <ele>21.4</ele>
        <time>2019-08-17T07:58:28Z</time>
      </trkpt>
      <trkpt lat="42.2724580" lon="-8.6102930">
        <ele>21.3</ele>
        <time>2019-08-17T07:58:29Z</time>
      </trkpt>
      <trkpt lat="42.2724910" lon="-8.6103000">
        <ele>21.2</ele>
        <time>2019-08-17T07:58:30Z</time>
      </trkpt>
      <trkpt lat="42.2725220" lon="-8.6103010">
        <ele>21.2</ele>
        <time>2019-08-17T07:58:31Z</time>
      </trkpt>
      <trkpt lat="42.2725420" lon="-8.6103010">
        <ele>21.1</ele>
        <time>2019-08-17T07:58:32Z</time>
      </trkpt>
      <trkpt lat="42.2726920" lon="-8.6102420">
        <ele>20.9</ele>
        <time>2019-08-17T07:58:37Z</time>
      </trkpt>
      <trkpt lat="42.2727840" lon="-8.6102530">
        <ele>20.8</ele>
        <time>2019-08-17T07:58:39Z</time>
      </trkpt>
      <trkpt lat="42.2728840" lon="-8.6102590">
        <ele>20.7</ele>
        <time>2019-08-17T07:58:41Z</time>
      </trkpt>
      <trkpt lat="42.2729330" lon="-8.6102580">
        <ele>20.7</ele>
        <time>2019-08-17T07:58:42Z</time>
      </trkpt>
      <trkpt lat="42.2729880" lon="-8.6102540">
        <ele>20.6</ele>
        <time>2019-08-17T07:58:43Z</time>
      </trkpt>
      <trkpt lat="42.2730420" lon="-8.6102510">
        <ele>20.4</ele>
        <time>2019-08-17T07:58:44Z</time>
      </trkpt>
      <trkpt lat="42.2730940" lon="-8.6102490">
        <ele>20.3</ele>
        <time>2019-08-17T07:58:45Z</time>
      </trkpt>
      <trkpt lat="42.2733140" lon="-8.6102360">
        <ele>19.5</ele>
        <time>2019-08-17T07:58:49Z</time>
      </trkpt>
      <trkpt lat="42.2737660" lon="-8.6102460">
        <ele>17.9</ele>
        <time>2019-08-17T07:58:57Z</time>
      </trkpt>
      <trkpt lat="42.2739370" lon="-8.6102500">
        <ele>17.6</ele>
        <time>2019-08-17T07:59:00Z</time>
      </trkpt>
      <trkpt lat="42.2739920" lon="-8.6102570">
        <ele>17.5</ele>
        <time>2019-08-17T07:59:01Z</time>
      </trkpt>
      <trkpt lat="42.2740490" lon="-8.6102620">
        <ele>17.3</ele>
        <time>2019-08-17T07:59:02Z</time>
      </trkpt>
      <trkpt lat="42.2741090" lon="-8.6102630">
        <ele>17.1</ele>
        <time>2019-08-17T07:59:03Z</time>
      </trkpt>
      <trkpt lat="42.2741610" lon="-8.6102810">
        <ele>17.0</ele>
        <time>2019-08-17T07:59:04Z</time>
      </trkpt>
      <trkpt lat="42.2745180" lon="-8.6103340">
        <ele>15.6</ele>
        <time>2019-08-17T07:59:10Z</time>
      </trkpt>
      <trkpt lat="42.2748590" lon="-8.6103490">
        <ele>15.0</ele>
        <time>2019-08-17T07:59:15Z</time>
      </trkpt>
      <trkpt lat="42.2749320" lon="-8.6103480">
        <ele>15.1</ele>
        <time>2019-08-17T07:59:16Z</time>
      </trkpt>
      <trkpt lat="42.2750080" lon="-8.6103430">
        <ele>15.2</ele>
        <time>2019-08-17T07:59:17Z</time>
      </trkpt>
      <trkpt lat="42.2750850" lon="-8.6103430">
        <ele>15.4</ele>
        <time>2019-08-17T07:59:18Z</time>
      </trkpt>
      <trkpt lat="42.2751540" lon="-8.6103390">
        <ele>15.5</ele>
        <time>2019-08-17T07:59:19Z</time>
      </trkpt>
      <trkpt lat="42.2755100" lon="-8.6103420">
        <ele>15.6</ele>
        <time>2019-08-17T07:59:24Z</time>
      </trkpt>
      <trkpt lat="42.2759610" lon="-8.6103470">
        <ele>14.5</ele>
        <time>2019-08-17T07:59:30Z</time>
      </trkpt>
      <trkpt lat="42.2760340" lon="-8.6103410">
        <ele>14.3</ele>
        <time>2019-08-17T07:59:31Z</time>
      </trkpt>
      <trkpt lat="42.2761070" lon="-8.6103380">
        <ele>14.2</ele>
        <time>2019-08-17T07:59:32Z</time>
      </trkpt>
      <trkpt lat="42.2761820" lon="-8.6103180">
        <ele>14.1</ele>
        <time>2019-08-17T07:59:33Z</time>
      </trkpt>
      <trkpt lat="42.2762520" lon="-8.6103170">
        <ele>14.0</ele>
        <time>2019-08-17T07:59:34Z</time>
      </trkpt>
      <trkpt lat="42.2763220" lon="-8.6103170">
        <ele>14.0</ele>
        <time>2019-08-17T07:59:35Z</time>
      </trkpt>
      <trkpt lat="42.2767130" lon="-8.6103360">
        <ele>13.7</ele>
        <time>2019-08-17T07:59:40Z</time>
      </trkpt>
      <trkpt lat="42.2770770" lon="-8.6103860">
        <ele>13.4</ele>
        <time>2019-08-17T07:59:45Z</time>
      </trkpt>
      <trkpt lat="42.2771530" lon="-8.6103610">
        <ele>13.3</ele>
        <time>2019-08-17T07:59:46Z</time>
      </trkpt>
      <trkpt lat="42.2774590" lon="-8.6102920">
        <ele>12.3</ele>
        <time>2019-08-17T07:59:50Z</time>
      </trkpt>
      <trkpt lat="42.2775320" lon="-8.6102790">
        <ele>12.0</ele>
        <time>2019-08-17T07:59:51Z</time>
      </trkpt>
      <trkpt lat="42.2776040" lon="-8.6102610">
        <ele>12.5</ele>
        <time>2019-08-17T07:59:52Z</time>
      </trkpt>
      <trkpt lat="42.2776820" lon="-8.6102400">
        <ele>12.8</ele>
        <time>2019-08-17T07:59:53Z</time>
      </trkpt>
      <trkpt lat="42.2777570" lon="-8.6102140">
        <ele>13.2</ele>
        <time>2019-08-17T07:59:54Z</time>
      </trkpt>
      <trkpt lat="42.2781650" lon="-8.6100650">
        <ele>14.5</ele>
        <time>2019-08-17T08:00:00Z</time>
      </trkpt>
      <trkpt lat="42.2785030" lon="-8.6099910">
        <ele>15.2</ele>
        <time>2019-08-17T08:00:05Z</time>
      </trkpt>
      <trkpt lat="42.2786410" lon="-8.6100280">
        <ele>14.4</ele>
        <time>2019-08-17T08:00:07Z</time>
      </trkpt>
      <trkpt lat="42.2787010" lon="-8.6100790">
        <ele>14.0</ele>
        <time>2019-08-17T08:00:08Z</time>
      </trkpt>
      <trkpt lat="42.2787540" lon="-8.6101430">
        <ele>13.6</ele>
        <time>2019-08-17T08:00:09Z</time>
      </trkpt>
      <trkpt lat="42.2788040" lon="-8.6102120">
        <ele>13.1</ele>
        <time>2019-08-17T08:00:10Z</time>
      </trkpt>
      <trkpt lat="42.2788560" lon="-8.6102780">
        <ele>12.9</ele>
        <time>2019-08-17T08:00:11Z</time>
      </trkpt>
      <trkpt lat="42.2790560" lon="-8.6104530">
        <ele>12.3</ele>
        <time>2019-08-17T08:00:15Z</time>
      </trkpt>
      <trkpt lat="42.2791070" lon="-8.6104810">
        <ele>12.1</ele>
        <time>2019-08-17T08:00:16Z</time>
      </trkpt>
      <trkpt lat="42.2792040" lon="-8.6105100">
        <ele>12.2</ele>
        <time>2019-08-17T08:00:18Z</time>
      </trkpt>
      <trkpt lat="42.2792540" lon="-8.6105260">
        <ele>12.2</ele>
        <time>2019-08-17T08:00:19Z</time>
      </trkpt>
      <trkpt lat="42.2793000" lon="-8.6105490">
        <ele>12.3</ele>
        <time>2019-08-17T08:00:20Z</time>
      </trkpt>
      <trkpt lat="42.2793370" lon="-8.6105840">
        <ele>12.4</ele>
        <time>2019-08-17T08:00:21Z</time>
      </trkpt>
      <trkpt lat="42.2793850" lon="-8.6106020">
        <ele>12.4</ele>
        <time>2019-08-17T08:00:22Z</time>
      </trkpt>
      <trkpt lat="42.2794570" lon="-8.6105820">
        <ele>12.6</ele>
        <time>2019-08-17T08:00:23Z</time>
      </trkpt>
      <trkpt lat="42.2795170" lon="-8.6105820">
        <ele>12.8</ele>
        <time>2019-08-17T08:00:24Z</time>
      </trkpt>
      <trkpt lat="42.2800340" lon="-8.6105970">
        <ele>13.2</ele>
        <time>2019-08-17T08:00:33Z</time>
      </trkpt>
      <trkpt lat="42.2803900" lon="-8.6105370">
        <ele>12.4</ele>
        <time>2019-08-17T08:00:40Z</time>
      </trkpt>
      <trkpt lat="42.2804220" lon="-8.6105040">
        <ele>12.4</ele>
        <time>2019-08-17T08:00:41Z</time>
      </trkpt>
      <trkpt lat="42.2805220" lon="-8.6104840">
        <ele>12.4</ele>
        <time>2019-08-17T08:00:45Z</time>
      </trkpt>
      <trkpt lat="42.2806560" lon="-8.6104730">
        <ele>12.2</ele>
        <time>2019-08-17T08:00:49Z</time>
      </trkpt>
      <trkpt lat="42.2807740" lon="-8.6103010">
        <ele>11.9</ele>
        <time>2019-08-17T08:00:51Z</time>
      </trkpt>
      <trkpt lat="42.2808370" lon="-8.6102510">
        <ele>11.9</ele>
        <time>2019-08-17T08:00:53Z</time>
      </trkpt>
      <trkpt lat="42.2808980" lon="-8.6101860">
        <ele>11.9</ele>
        <time>2019-08-17T08:00:58Z</time>
      </trkpt>
      <trkpt lat="42.2809100" lon="-8.6101910">
        <ele>11.9</ele>
        <time>2019-08-17T08:01:01Z</time>
      </trkpt>
      <trkpt lat="42.2809570" lon="-8.6101280">
        <ele>11.8</ele>
        <time>2019-08-17T08:01:08Z</time>
      </trkpt>
      <trkpt lat="42.2811510" lon="-8.6098310">
        <ele>11.4</ele>
        <time>2019-08-17T08:01:15Z</time>
      </trkpt>
      <trkpt lat="42.2813790" lon="-8.6095700">
        <ele>11.4</ele>
        <time>2019-08-17T08:01:18Z</time>
      </trkpt>
      <trkpt lat="42.2815280" lon="-8.6094220">
        <ele>11.5</ele>
        <time>2019-08-17T08:01:20Z</time>
      </trkpt>
      <trkpt lat="42.2820190" lon="-8.6090370">
        <ele>11.8</ele>
        <time>2019-08-17T08:01:27Z</time>
      </trkpt>
      <trkpt lat="42.2820790" lon="-8.6088310">
        <ele>11.5</ele>
        <time>2019-08-17T08:01:33Z</time>
      </trkpt>
      <trkpt lat="42.2822160" lon="-8.6087030">
        <ele>11.4</ele>
        <time>2019-08-17T08:01:39Z</time>
      </trkpt>
      <trkpt lat="42.2823260" lon="-8.6085620">
        <ele>11.3</ele>
        <time>2019-08-17T08:01:42Z</time>
      </trkpt>
      <trkpt lat="42.2823660" lon="-8.6084760">
        <ele>11.3</ele>
        <time>2019-08-17T08:01:47Z</time>
      </trkpt>
      <trkpt lat="42.2823670" lon="-8.6084650">
        <ele>11.3</ele>
        <time>2019-08-17T08:01:49Z</time>
      </trkpt>
      <trkpt lat="42.2823610" lon="-8.6084690">
        <ele>11.3</ele>
        <time>2019-08-17T08:01:50Z</time>
      </trkpt>
      <trkpt lat="42.2824280" lon="-8.6083700">
        <ele>11.1</ele>
        <time>2019-08-17T08:01:55Z</time>
      </trkpt>
      <trkpt lat="42.2824550" lon="-8.6083430">
        <ele>11.1</ele>
        <time>2019-08-17T08:01:56Z</time>
      </trkpt>
      <trkpt lat="42.2824670" lon="-8.6083210">
        <ele>11.1</ele>
        <time>2019-08-17T08:01:57Z</time>
      </trkpt>
      <trkpt lat="42.2824920" lon="-8.6083070">
        <ele>11.1</ele>
        <time>2019-08-17T08:01:58Z</time>
      </trkpt>
      <trkpt lat="42.2825040" lon="-8.6083070">
        <ele>11.1</ele>
        <time>2019-08-17T08:01:59Z</time>
      </trkpt>
      <trkpt lat="42.2825150" lon="-8.6083080">
        <ele>11.1</ele>
        <time>2019-08-17T08:02:00Z</time>
      </trkpt>
      <trkpt lat="42.2825270" lon="-8.6083090">
        <ele>11.0</ele>
        <time>2019-08-17T08:02:01Z</time>
      </trkpt>
      <trkpt lat="42.2826590" lon="-8.6083650">
        <ele>10.9</ele>
        <time>2019-08-17T08:02:06Z</time>
      </trkpt>
      <trkpt lat="42.2828380" lon="-8.6083800">
        <ele>10.7</ele>
        <time>2019-08-17T08:02:12Z</time>
      </trkpt>
      <trkpt lat="42.2828800" lon="-8.6083520">
        <ele>10.7</ele>
        <time>2019-08-17T08:02:13Z</time>
      </trkpt>
      <trkpt lat="42.2830120" lon="-8.6083520">
        <ele>10.4</ele>
        <time>2019-08-17T08:02:16Z</time>
      </trkpt>
      <trkpt lat="42.2831190" lon="-8.6083580">
        <ele>10.2</ele>
        <time>2019-08-17T08:02:20Z</time>
      </trkpt>
      <trkpt lat="42.2831270" lon="-8.6083560">
        <ele>10.2</ele>
        <time>2019-08-17T08:02:21Z</time>
      </trkpt>
      <trkpt lat="42.2831490" lon="-8.6083550">
        <ele>10.1</ele>
        <time>2019-08-17T08:02:22Z</time>
      </trkpt>
      <trkpt lat="42.2831630" lon="-8.6083430">
        <ele>10.1</ele>
        <time>2019-08-17T08:02:23Z</time>
      </trkpt>
      <trkpt lat="42.2831670" lon="-8.6083370">
        <ele>10.1</ele>
        <time>2019-08-17T08:02:24Z</time>
      </trkpt>
      <trkpt lat="42.2832190" lon="-8.6083220">
        <ele>10.0</ele>
        <time>2019-08-17T08:02:26Z</time>
      </trkpt>
      <trkpt lat="42.2832450" lon="-8.6082920">
        <ele>9.9</ele>
        <time>2019-08-17T08:02:28Z</time>
      </trkpt>
      <trkpt lat="42.2832650" lon="-8.6082660">
        <ele>9.9</ele>
        <time>2019-08-17T08:02:29Z</time>
      </trkpt>
      <trkpt lat="42.2833180" lon="-8.6082680">
        <ele>9.9</ele>
        <time>2019-08-17T08:02:30Z</time>
      </trkpt>
      <trkpt lat="42.2833600" lon="-8.6082380">
        <ele>9.9</ele>
        <time>2019-08-17T08:02:31Z</time>
      </trkpt>
      <trkpt lat="42.2833970" lon="-8.6082060">
        <ele>9.9</ele>
        <time>2019-08-17T08:02:32Z</time>
      </trkpt>
      <trkpt lat="42.2834650" lon="-8.6082040">
        <ele>9.9</ele>
        <time>2019-08-17T08:02:33Z</time>
      </trkpt>
      <trkpt lat="42.2835430" lon="-8.6081630">
        <ele>10.1</ele>
        <time>2019-08-17T08:02:34Z</time>
      </trkpt>
      <trkpt lat="42.2836090" lon="-8.6081470">
        <ele>10.3</ele>
        <time>2019-08-17T08:02:35Z</time>
      </trkpt>
      <trkpt lat="42.2836710" lon="-8.6081390">
        <ele>10.2</ele>
        <time>2019-08-17T08:02:36Z</time>
      </trkpt>
      <trkpt lat="42.2838110" lon="-8.6081240">
        <ele>10.2</ele>
        <time>2019-08-17T08:02:39Z</time>
      </trkpt>
      <trkpt lat="42.2840310" lon="-8.6080210">
        <ele>12.7</ele>
        <time>2019-08-17T08:02:46Z</time>
      </trkpt>
      <trkpt lat="42.2840660" lon="-8.6080270">
        <ele>12.6</ele>
        <time>2019-08-17T08:02:47Z</time>
      </trkpt>
      <trkpt lat="42.2841020" lon="-8.6080150">
        <ele>12.5</ele>
        <time>2019-08-17T08:02:48Z</time>
      </trkpt>
      <trkpt lat="42.2841350" lon="-8.6080240">
        <ele>12.6</ele>
        <time>2019-08-17T08:02:49Z</time>
      </trkpt>
      <trkpt lat="42.2841640" lon="-8.6080370">
        <ele>12.6</ele>
        <time>2019-08-17T08:02:50Z</time>
      </trkpt>
      <trkpt lat="42.2842220" lon="-8.6080610">
        <ele>12.7</ele>
        <time>2019-08-17T08:02:52Z</time>
      </trkpt>
      <trkpt lat="42.2842620" lon="-8.6080660">
        <ele>12.7</ele>
        <time>2019-08-17T08:02:53Z</time>
      </trkpt>
      <trkpt lat="42.2843010" lon="-8.6080600">
        <ele>12.8</ele>
        <time>2019-08-17T08:02:54Z</time>
      </trkpt>
      <trkpt lat="42.2843390" lon="-8.6080550">
        <ele>12.9</ele>
        <time>2019-08-17T08:02:55Z</time>
      </trkpt>
      <trkpt lat="42.2843760" lon="-8.6080600">
        <ele>12.9</ele>
        <time>2019-08-17T08:02:56Z</time>
      </trkpt>
      <trkpt lat="42.2844440" lon="-8.6080560">
        <ele>13.0</ele>
        <time>2019-08-17T08:02:58Z</time>
      </trkpt>
      <trkpt lat="42.2844780" lon="-8.6080510">
        <ele>13.1</ele>
        <time>2019-08-17T08:02:59Z</time>
      </trkpt>
      <trkpt lat="42.2845190" lon="-8.6080480">
        <ele>13.1</ele>
        <time>2019-08-17T08:03:00Z</time>
      </trkpt>
      <trkpt lat="42.2845530" lon="-8.6080310">
        <ele>13.2</ele>
        <time>2019-08-17T08:03:01Z</time>
      </trkpt>
      <trkpt lat="42.2845940" lon="-8.6080250">
        <ele>13.3</ele>
        <time>2019-08-17T08:03:02Z</time>
      </trkpt>
      <trkpt lat="42.2846740" lon="-8.6080060">
        <ele>13.4</ele>
        <time>2019-08-17T08:03:04Z</time>
      </trkpt>
      <trkpt lat="42.2847120" lon="-8.6079570">
        <ele>13.5</ele>
        <time>2019-08-17T08:03:05Z</time>
      </trkpt>
      <trkpt lat="42.2847430" lon="-8.6079260">
        <ele>13.5</ele>
        <time>2019-08-17T08:03:06Z</time>
      </trkpt>
      <trkpt lat="42.2847680" lon="-8.6079110">
        <ele>13.6</ele>
        <time>2019-08-17T08:03:07Z</time>
      </trkpt>
      <trkpt lat="42.2847930" lon="-8.6079110">
        <ele>13.6</ele>
        <time>2019-08-17T08:03:08Z</time>
      </trkpt>
      <trkpt lat="42.2849740" lon="-8.6078570">
        <ele>13.9</ele>
        <time>2019-08-17T08:03:13Z</time>
      </trkpt>
      <trkpt lat="42.2851210" lon="-8.6077830">
        <ele>13.9</ele>
        <time>2019-08-17T08:03:18Z</time>
      </trkpt>
      <trkpt lat="42.2853330" lon="-8.6076750">
        <ele>15.7</ele>
        <time>2019-08-17T08:03:26Z</time>
      </trkpt>
      <trkpt lat="42.2853630" lon="-8.6076780">
        <ele>15.8</ele>
        <time>2019-08-17T08:03:27Z</time>
      </trkpt>
      <trkpt lat="42.2853850" lon="-8.6076840">
        <ele>16.0</ele>
        <time>2019-08-17T08:03:28Z</time>
      </trkpt>
      <trkpt lat="42.2854030" lon="-8.6076970">
        <ele>16.0</ele>
        <time>2019-08-17T08:03:29Z</time>
      </trkpt>
      <trkpt lat="42.2854200" lon="-8.6077110">
        <ele>16.1</ele>
        <time>2019-08-17T08:03:30Z</time>
      </trkpt>
      <trkpt lat="42.2854450" lon="-8.6077210">
        <ele>16.2</ele>
        <time>2019-08-17T08:03:31Z</time>
      </trkpt>
      <trkpt lat="42.2854730" lon="-8.6077260">
        <ele>16.3</ele>
        <time>2019-08-17T08:03:32Z</time>
      </trkpt>
      <trkpt lat="42.2856430" lon="-8.6077400">
        <ele>16.5</ele>
        <time>2019-08-17T08:03:37Z</time>
      </trkpt>
      <trkpt lat="42.2856760" lon="-8.6077480">
        <ele>16.6</ele>
        <time>2019-08-17T08:03:38Z</time>
      </trkpt>
      <trkpt lat="42.2857060" lon="-8.6077580">
        <ele>16.7</ele>
        <time>2019-08-17T08:03:39Z</time>
      </trkpt>
      <trkpt lat="42.2857260" lon="-8.6077790">
        <ele>16.8</ele>
        <time>2019-08-17T08:03:40Z</time>
      </trkpt>
      <trkpt lat="42.2857530" lon="-8.6077870">
        <ele>16.8</ele>
        <time>2019-08-17T08:03:41Z</time>
      </trkpt>
      <trkpt lat="42.2858700" lon="-8.6077440">
        <ele>17.2</ele>
        <time>2019-08-17T08:03:45Z</time>
      </trkpt>
      <trkpt lat="42.2859870" lon="-8.6077240">
        <ele>17.7</ele>
        <time>2019-08-17T08:03:50Z</time>
      </trkpt>
      <trkpt lat="42.2860360" lon="-8.6077630">
        <ele>17.9</ele>
        <time>2019-08-17T08:03:56Z</time>
      </trkpt>
      <trkpt lat="42.2861450" lon="-8.6078730">
        <ele>18.4</ele>
        <time>2019-08-17T08:04:02Z</time>
      </trkpt>
      <trkpt lat="42.2861570" lon="-8.6079040">
        <ele>18.5</ele>
        <time>2019-08-17T08:04:06Z</time>
      </trkpt>
      <trkpt lat="42.2861730" lon="-8.6079170">
        <ele>18.6</ele>
        <time>2019-08-17T08:04:25Z</time>
      </trkpt>
      <trkpt lat="42.2861850" lon="-8.6079270">
        <ele>18.7</ele>
        <time>2019-08-17T08:04:26Z</time>
      </trkpt>
      <trkpt lat="42.2863810" lon="-8.6079520">
        <ele>20.6</ele>
        <time>2019-08-17T08:04:32Z</time>
      </trkpt>
      <trkpt lat="42.2865610" lon="-8.6080200">
        <ele>22.0</ele>
        <time>2019-08-17T08:04:37Z</time>
      </trkpt>
      <trkpt lat="42.2867750" lon="-8.6081110">
        <ele>22.8</ele>
        <time>2019-08-17T08:04:43Z</time>
      </trkpt>
      <trkpt lat="42.2868230" lon="-8.6081230">
        <ele>22.5</ele>
        <time>2019-08-17T08:04:44Z</time>
      </trkpt>
      <trkpt lat="42.2868730" lon="-8.6081320">
        <ele>22.4</ele>
        <time>2019-08-17T08:04:45Z</time>
      </trkpt>
      <trkpt lat="42.2869260" lon="-8.6081460">
        <ele>22.3</ele>
        <time>2019-08-17T08:04:46Z</time>
      </trkpt>
      <trkpt lat="42.2869750" lon="-8.6081630">
        <ele>22.1</ele>
        <time>2019-08-17T08:04:47Z</time>
      </trkpt>
      <trkpt lat="42.2870280" lon="-8.6081810">
        <ele>22.0</ele>
        <time>2019-08-17T08:04:48Z</time>
      </trkpt>
      <trkpt lat="42.2870790" lon="-8.6081970">
        <ele>21.8</ele>
        <time>2019-08-17T08:04:49Z</time>
      </trkpt>
      <trkpt lat="42.2871700" lon="-8.6082420">
        <ele>21.5</ele>
        <time>2019-08-17T08:04:51Z</time>
      </trkpt>
      <trkpt lat="42.2872030" lon="-8.6082930">
        <ele>21.4</ele>
        <time>2019-08-17T08:04:52Z</time>
      </trkpt>
      <trkpt lat="42.2872390" lon="-8.6083060">
        <ele>21.2</ele>
        <time>2019-08-17T08:04:53Z</time>
      </trkpt>
      <trkpt lat="42.2872790" lon="-8.6083250">
        <ele>20.9</ele>
        <time>2019-08-17T08:04:54Z</time>
      </trkpt>
      <trkpt lat="42.2873140" lon="-8.6083660">
        <ele>20.6</ele>
        <time>2019-08-17T08:04:55Z</time>
      </trkpt>
      <trkpt lat="42.2873500" lon="-8.6084060">
        <ele>20.3</ele>
        <time>2019-08-17T08:04:56Z</time>
      </trkpt>
      <trkpt lat="42.2873900" lon="-8.6084360">
        <ele>20.1</ele>
        <time>2019-08-17T08:04:57Z</time>
      </trkpt>
      <trkpt lat="42.2874660" lon="-8.6084800">
        <ele>19.5</ele>
        <time>2019-08-17T08:04:59Z</time>
      </trkpt>
      <trkpt lat="42.2874990" lon="-8.6085130">
        <ele>19.4</ele>
        <time>2019-08-17T08:05:00Z</time>
      </trkpt>
      <trkpt lat="42.2875420" lon="-8.6085290">
        <ele>19.2</ele>
        <time>2019-08-17T08:05:01Z</time>
      </trkpt>
      <trkpt lat="42.2875980" lon="-8.6085230">
        <ele>19.1</ele>
        <time>2019-08-17T08:05:02Z</time>
      </trkpt>
      <trkpt lat="42.2876600" lon="-8.6085050">
        <ele>18.9</ele>
        <time>2019-08-17T08:05:03Z</time>
      </trkpt>
      <trkpt lat="42.2877110" lon="-8.6085000">
        <ele>18.9</ele>
        <time>2019-08-17T08:05:04Z</time>
      </trkpt>
      <trkpt lat="42.2877630" lon="-8.6084930">
        <ele>18.8</ele>
        <time>2019-08-17T08:05:05Z</time>
      </trkpt>
      <trkpt lat="42.2878160" lon="-8.6085020">
        <ele>18.7</ele>
        <time>2019-08-17T08:05:06Z</time>
      </trkpt>
      <trkpt lat="42.2878700" lon="-8.6084830">
        <ele>18.7</ele>
        <time>2019-08-17T08:05:07Z</time>
      </trkpt>
      <trkpt lat="42.2879170" lon="-8.6084760">
        <ele>18.6</ele>
        <time>2019-08-17T08:05:08Z</time>
      </trkpt>
      <trkpt lat="42.2879480" lon="-8.6084730">
        <ele>18.6</ele>
        <time>2019-08-17T08:05:09Z</time>
      </trkpt>
      <trkpt lat="42.2879820" lon="-8.6084650">
        <ele>17.6</ele>
        <time>2019-08-17T08:05:10Z</time>
      </trkpt>
      <trkpt lat="42.2880130" lon="-8.6084630">
        <ele>17.4</ele>
        <time>2019-08-17T08:05:11Z</time>
      </trkpt>
      <trkpt lat="42.2880250" lon="-8.6084850">
        <ele>17.3</ele>
        <time>2019-08-17T08:05:12Z</time>
      </trkpt>
      <trkpt lat="42.2880420" lon="-8.6085190">
        <ele>17.1</ele>
        <time>2019-08-17T08:05:13Z</time>
      </trkpt>
      <trkpt lat="42.2880800" lon="-8.6086180">
        <ele>13.9</ele>
        <time>2019-08-17T08:05:16Z</time>
      </trkpt>
      <trkpt lat="42.2880960" lon="-8.6086360">
        <ele>13.5</ele>
        <time>2019-08-17T08:05:17Z</time>
      </trkpt>
      <trkpt lat="42.2881380" lon="-8.6086750">
        <ele>12.4</ele>
        <time>2019-08-17T08:05:22Z</time>
      </trkpt>
      <trkpt lat="42.2882550" lon="-8.6087490">
        <ele>10.4</ele>
        <time>2019-08-17T08:05:28Z</time>
      </trkpt>
      <trkpt lat="42.2882890" lon="-8.6088070">
        <ele>10.4</ele>
        <time>2019-08-17T08:05:32Z</time>
      </trkpt>
      <trkpt lat="42.2883260" lon="-8.6087910">
        <ele>10.4</ele>
        <time>2019-08-17T08:05:34Z</time>
      </trkpt>
      <trkpt lat="42.2883990" lon="-8.6087450">
        <ele>10.4</ele>
        <time>2019-08-17T08:05:38Z</time>
      </trkpt>
      <trkpt lat="42.2885200" lon="-8.6086960">
        <ele>10.3</ele>
        <time>2019-08-17T08:05:44Z</time>
      </trkpt>
      <trkpt lat="42.2885270" lon="-8.6086950">
        <ele>10.3</ele>
        <time>2019-08-17T08:05:46Z</time>
      </trkpt>
      <trkpt lat="42.2885600" lon="-8.6087210">
        <ele>10.3</ele>
        <time>2019-08-17T08:05:55Z</time>
      </trkpt>
      <trkpt lat="42.2885930" lon="-8.6087380">
        <ele>10.3</ele>
        <time>2019-08-17T08:05:56Z</time>
      </trkpt>
      <trkpt lat="42.2886930" lon="-8.6087510">
        <ele>10.2</ele>
        <time>2019-08-17T08:05:59Z</time>
      </trkpt>
      <trkpt lat="42.2887890" lon="-8.6087360">
        <ele>10.2</ele>
        <time>2019-08-17T08:06:02Z</time>
      </trkpt>
      <trkpt lat="42.2890740" lon="-8.6086670">
        <ele>10.2</ele>
        <time>2019-08-17T08:06:12Z</time>
      </trkpt>
      <trkpt lat="42.2893680" lon="-8.6086050">
        <ele>10.2</ele>
        <time>2019-08-17T08:06:21Z</time>
      </trkpt>
      <trkpt lat="42.2896310" lon="-8.6085430">
        <ele>10.1</ele>
        <time>2019-08-17T08:06:28Z</time>
      </trkpt>
      <trkpt lat="42.2899450" lon="-8.6085000">
        <ele>9.7</ele>
        <time>2019-08-17T08:06:36Z</time>
      </trkpt>
      <trkpt lat="42.2902730" lon="-8.6084640">
        <ele>8.3</ele>
        <time>2019-08-17T08:06:45Z</time>
      </trkpt>
      <trkpt lat="42.2906120" lon="-8.6083280">
        <ele>7.9</ele>
        <time>2019-08-17T08:06:54Z</time>
      </trkpt>
      <trkpt lat="42.2906500" lon="-8.6083090">
        <ele>7.9</ele>
        <time>2019-08-17T08:06:55Z</time>
      </trkpt>
      <trkpt lat="42.2906950" lon="-8.6082930">
        <ele>7.9</ele>
        <time>2019-08-17T08:06:56Z</time>
      </trkpt>
      <trkpt lat="42.2907360" lon="-8.6082820">
        <ele>8.0</ele>
        <time>2019-08-17T08:06:57Z</time>
      </trkpt>
      <trkpt lat="42.2907900" lon="-8.6082560">
        <ele>8.0</ele>
        <time>2019-08-17T08:06:58Z</time>
      </trkpt>
      <trkpt lat="42.2910260" lon="-8.6081300">
        <ele>8.0</ele>
        <time>2019-08-17T08:07:04Z</time>
      </trkpt>
      <trkpt lat="42.2914840" lon="-8.6079710">
        <ele>8.3</ele>
        <time>2019-08-17T08:07:14Z</time>
      </trkpt>
      <trkpt lat="42.2917260" lon="-8.6079240">
        <ele>8.5</ele>
        <time>2019-08-17T08:07:19Z</time>
      </trkpt>
      <trkpt lat="42.2917750" lon="-8.6079150">
        <ele>8.6</ele>
        <time>2019-08-17T08:07:20Z</time>
      </trkpt>
      <trkpt lat="42.2918160" lon="-8.6079040">
        <ele>8.5</ele>
        <time>2019-08-17T08:07:21Z</time>
      </trkpt>
      <trkpt lat="42.2918590" lon="-8.6078970">
        <ele>8.5</ele>
        <time>2019-08-17T08:07:22Z</time>
      </trkpt>
      <trkpt lat="42.2919060" lon="-8.6078870">
        <ele>8.5</ele>
        <time>2019-08-17T08:07:23Z</time>
      </trkpt>
      <trkpt lat="42.2923550" lon="-8.6077970">
        <ele>8.5</ele>
        <time>2019-08-17T08:07:33Z</time>
      </trkpt>
      <trkpt lat="42.2928520" lon="-8.6076590">
        <ele>7.4</ele>
        <time>2019-08-17T08:07:43Z</time>
      </trkpt>
      <trkpt lat="42.2930030" lon="-8.6076280">
        <ele>6.9</ele>
        <time>2019-08-17T08:07:46Z</time>
      </trkpt>
      <trkpt lat="42.2930440" lon="-8.6076220">
        <ele>6.8</ele>
        <time>2019-08-17T08:07:47Z</time>
      </trkpt>
      <trkpt lat="42.2930980" lon="-8.6076130">
        <ele>6.3</ele>
        <time>2019-08-17T08:07:48Z</time>
      </trkpt>
      <trkpt lat="42.2931520" lon="-8.6076020">
        <ele>6.1</ele>
        <time>2019-08-17T08:07:49Z</time>
      </trkpt>
      <trkpt lat="42.2932060" lon="-8.6075910">
        <ele>6.1</ele>
        <time>2019-08-17T08:07:50Z</time>
      </trkpt>
      <trkpt lat="42.2933540" lon="-8.6075250">
        <ele>6.5</ele>
        <time>2019-08-17T08:07:53Z</time>
      </trkpt>
      <trkpt lat="42.2934690" lon="-8.6074280">
        <ele>6.6</ele>
        <time>2019-08-17T08:07:56Z</time>
      </trkpt>
      <trkpt lat="42.2937620" lon="-8.6073590">
        <ele>6.4</ele>
        <time>2019-08-17T08:08:02Z</time>
      </trkpt>
      <trkpt lat="42.2939220" lon="-8.6074200">
        <ele>7.0</ele>
        <time>2019-08-17T08:08:06Z</time>
      </trkpt>
      <trkpt lat="42.2939580" lon="-8.6074450">
        <ele>7.0</ele>
        <time>2019-08-17T08:08:07Z</time>
      </trkpt>
      <trkpt lat="42.2940530" lon="-8.6075930">
        <ele>7.5</ele>
        <time>2019-08-17T08:08:11Z</time>
      </trkpt>
      <trkpt lat="42.2940700" lon="-8.6076330">
        <ele>7.6</ele>
        <time>2019-08-17T08:08:12Z</time>
      </trkpt>
      <trkpt lat="42.2940840" lon="-8.6076730">
        <ele>7.7</ele>
        <time>2019-08-17T08:08:13Z</time>
      </trkpt>
      <trkpt lat="42.2940990" lon="-8.6077170">
        <ele>7.8</ele>
        <time>2019-08-17T08:08:14Z</time>
      </trkpt>
      <trkpt lat="42.2941130" lon="-8.6077580">
        <ele>8.0</ele>
        <time>2019-08-17T08:08:15Z</time>
      </trkpt>
      <trkpt lat="42.2941630" lon="-8.6078800">
        <ele>8.5</ele>
        <time>2019-08-17T08:08:18Z</time>
      </trkpt>
      <trkpt lat="42.2941800" lon="-8.6079200">
        <ele>8.6</ele>
        <time>2019-08-17T08:08:19Z</time>
      </trkpt>
      <trkpt lat="42.2941940" lon="-8.6079570">
        <ele>8.8</ele>
        <time>2019-08-17T08:08:20Z</time>
      </trkpt>
      <trkpt lat="42.2942100" lon="-8.6079970">
        <ele>9.0</ele>
        <time>2019-08-17T08:08:21Z</time>
      </trkpt>
      <trkpt lat="42.2942280" lon="-8.6080350">
        <ele>9.2</ele>
        <time>2019-08-17T08:08:22Z</time>
      </trkpt>
      <trkpt lat="42.2942820" lon="-8.6081570">
        <ele>9.9</ele>
        <time>2019-08-17T08:08:25Z</time>
      </trkpt>
      <trkpt lat="42.2942980" lon="-8.6081900">
        <ele>10.1</ele>
        <time>2019-08-17T08:08:26Z</time>
      </trkpt>
      <trkpt lat="42.2943180" lon="-8.6082250">
        <ele>10.4</ele>
        <time>2019-08-17T08:08:27Z</time>
      </trkpt>
      <trkpt lat="42.2943400" lon="-8.6082610">
        <ele>10.6</ele>
        <time>2019-08-17T08:08:28Z</time>
      </trkpt>
      <trkpt lat="42.2943680" lon="-8.6082940">
        <ele>10.9</ele>
        <time>2019-08-17T08:08:29Z</time>
      </trkpt>
      <trkpt lat="42.2944500" lon="-8.6083960">
        <ele>11.9</ele>
        <time>2019-08-17T08:08:32Z</time>
      </trkpt>
      <trkpt lat="42.2944770" lon="-8.6084360">
        <ele>12.2</ele>
        <time>2019-08-17T08:08:33Z</time>
      </trkpt>
      <trkpt lat="42.2944960" lon="-8.6084870">
        <ele>12.5</ele>
        <time>2019-08-17T08:08:34Z</time>
      </trkpt>
      <trkpt lat="42.2945150" lon="-8.6085310">
        <ele>12.9</ele>
        <time>2019-08-17T08:08:35Z</time>
      </trkpt>
      <trkpt lat="42.2945390" lon="-8.6085650">
        <ele>13.2</ele>
        <time>2019-08-17T08:08:36Z</time>
      </trkpt>
      <trkpt lat="42.2945610" lon="-8.6086020">
        <ele>13.5</ele>
        <time>2019-08-17T08:08:37Z</time>
      </trkpt>
      <trkpt lat="42.2945800" lon="-8.6086400">
        <ele>13.8</ele>
        <time>2019-08-17T08:08:38Z</time>
      </trkpt>
      <trkpt lat="42.2945970" lon="-8.6086710">
        <ele>14.0</ele>
        <time>2019-08-17T08:08:39Z</time>
      </trkpt>
      <trkpt lat="42.2946200" lon="-8.6087110">
        <ele>14.3</ele>
        <time>2019-08-17T08:08:40Z</time>
      </trkpt>
      <trkpt lat="42.2946390" lon="-8.6087490">
        <ele>14.5</ele>
        <time>2019-08-17T08:08:41Z</time>
      </trkpt>
      <trkpt lat="42.2946570" lon="-8.6087780">
        <ele>14.7</ele>
        <time>2019-08-17T08:08:42Z</time>
      </trkpt>
      <trkpt lat="42.2946810" lon="-8.6088070">
        <ele>14.9</ele>
        <time>2019-08-17T08:08:43Z</time>
      </trkpt>
      <trkpt lat="42.2947050" lon="-8.6088350">
        <ele>15.0</ele>
        <time>2019-08-17T08:08:44Z</time>
      </trkpt>
      <trkpt lat="42.2947290" lon="-8.6088580">
        <ele>15.1</ele>
        <time>2019-08-17T08:08:45Z</time>
      </trkpt>
      <trkpt lat="42.2947520" lon="-8.6088830">
        <ele>15.2</ele>
        <time>2019-08-17T08:08:46Z</time>
      </trkpt>
      <trkpt lat="42.2947770" lon="-8.6089030">
        <ele>15.3</ele>
        <time>2019-08-17T08:08:47Z</time>
      </trkpt>
      <trkpt lat="42.2948520" lon="-8.6089780">
        <ele>15.6</ele>
        <time>2019-08-17T08:08:50Z</time>
      </trkpt>
      <trkpt lat="42.2950630" lon="-8.6091640">
        <ele>16.0</ele>
        <time>2019-08-17T08:08:59Z</time>
      </trkpt>
      <trkpt lat="42.2950870" lon="-8.6091820">
        <ele>16.1</ele>
        <time>2019-08-17T08:09:00Z</time>
      </trkpt>
      <trkpt lat="42.2951130" lon="-8.6092030">
        <ele>16.2</ele>
        <time>2019-08-17T08:09:01Z</time>
      </trkpt>
      <trkpt lat="42.2951380" lon="-8.6092240">
        <ele>16.2</ele>
        <time>2019-08-17T08:09:02Z</time>
      </trkpt>
      <trkpt lat="42.2951570" lon="-8.6092660">
        <ele>16.3</ele>
        <time>2019-08-17T08:09:03Z</time>
      </trkpt>
      <trkpt lat="42.2953550" lon="-8.6094360">
        <ele>16.8</ele>
        <time>2019-08-17T08:09:10Z</time>
      </trkpt>
      <trkpt lat="42.2955630" lon="-8.6096030">
        <ele>17.6</ele>
        <time>2019-08-17T08:09:18Z</time>
      </trkpt>
      <trkpt lat="42.2955870" lon="-8.6096220">
        <ele>17.8</ele>
        <time>2019-08-17T08:09:19Z</time>
      </trkpt>
      <trkpt lat="42.2956050" lon="-8.6096440">
        <ele>17.9</ele>
        <time>2019-08-17T08:09:20Z</time>
      </trkpt>
      <trkpt lat="42.2956220" lon="-8.6096730">
        <ele>18.0</ele>
        <time>2019-08-17T08:09:21Z</time>
      </trkpt>
      <trkpt lat="42.2956380" lon="-8.6097100">
        <ele>18.1</ele>
        <time>2019-08-17T08:09:22Z</time>
      </trkpt>
      <trkpt lat="42.2956580" lon="-8.6097430">
        <ele>18.2</ele>
        <time>2019-08-17T08:09:23Z</time>
      </trkpt>
      <trkpt lat="42.2957290" lon="-8.6098250">
        <ele>18.5</ele>
        <time>2019-08-17T08:09:26Z</time>
      </trkpt>
      <trkpt lat="42.2958920" lon="-8.6100300">
        <ele>19.1</ele>
        <time>2019-08-17T08:09:34Z</time>
      </trkpt>
      <trkpt lat="42.2960760" lon="-8.6101980">
        <ele>19.7</ele>
        <time>2019-08-17T08:09:41Z</time>
      </trkpt>
      <trkpt lat="42.2962810" lon="-8.6103270">
        <ele>20.5</ele>
        <time>2019-08-17T08:09:48Z</time>
      </trkpt>
      <trkpt lat="42.2964510" lon="-8.6102850">
        <ele>20.8</ele>
        <time>2019-08-17T08:09:52Z</time>
      </trkpt>
      <trkpt lat="42.2966900" lon="-8.6102270">
        <ele>21.1</ele>
        <time>2019-08-17T08:09:59Z</time>
      </trkpt>
      <trkpt lat="42.2967440" lon="-8.6102190">
        <ele>21.4</ele>
        <time>2019-08-17T08:10:03Z</time>
      </trkpt>
      <trkpt lat="42.2967660" lon="-8.6102260">
        <ele>21.5</ele>
        <time>2019-08-17T08:10:14Z</time>
      </trkpt>
      <trkpt lat="42.2967870" lon="-8.6102320">
        <ele>21.6</ele>
        <time>2019-08-17T08:10:15Z</time>
      </trkpt>
      <trkpt lat="42.2968090" lon="-8.6102390">
        <ele>21.7</ele>
        <time>2019-08-17T08:10:19Z</time>
      </trkpt>
      <trkpt lat="42.2968310" lon="-8.6102460">
        <ele>21.7</ele>
        <time>2019-08-17T08:10:20Z</time>
      </trkpt>
      <trkpt lat="42.2969780" lon="-8.6102270">
        <ele>21.9</ele>
        <time>2019-08-17T08:10:24Z</time>
      </trkpt>
      <trkpt lat="42.2970120" lon="-8.6102240">
        <ele>22.0</ele>
        <time>2019-08-17T08:10:25Z</time>
      </trkpt>
      <trkpt lat="42.2970460" lon="-8.6102210">
        <ele>22.0</ele>
        <time>2019-08-17T08:10:26Z</time>
      </trkpt>
      <trkpt lat="42.2970840" lon="-8.6102040">
        <ele>22.0</ele>
        <time>2019-08-17T08:10:27Z</time>
      </trkpt>
      <trkpt lat="42.2971180" lon="-8.6101900">
        <ele>21.9</ele>
        <time>2019-08-17T08:10:28Z</time>
      </trkpt>
      <trkpt lat="42.2972830" lon="-8.6101150">
        <ele>21.9</ele>
        <time>2019-08-17T08:10:32Z</time>
      </trkpt>
      <trkpt lat="42.2975310" lon="-8.6100020">
        <ele>21.8</ele>
        <time>2019-08-17T08:10:37Z</time>
      </trkpt>
      <trkpt lat="42.2975790" lon="-8.6099830">
        <ele>21.8</ele>
        <time>2019-08-17T08:10:38Z</time>
      </trkpt>
      <trkpt lat="42.2976170" lon="-8.6099670">
        <ele>21.8</ele>
        <time>2019-08-17T08:10:39Z</time>
      </trkpt>
      <trkpt lat="42.2976690" lon="-8.6099470">
        <ele>21.8</ele>
        <time>2019-08-17T08:10:40Z</time>
      </trkpt>
      <trkpt lat="42.2977190" lon="-8.6099270">
        <ele>21.8</ele>
        <time>2019-08-17T08:10:41Z</time>
      </trkpt>
      <trkpt lat="42.2980380" lon="-8.6097940">
        <ele>21.7</ele>
        <time>2019-08-17T08:10:47Z</time>
      </trkpt>
      <trkpt lat="42.2984090" lon="-8.6096190">
        <ele>21.7</ele>
        <time>2019-08-17T08:10:54Z</time>
      </trkpt>
      <trkpt lat="42.2984670" lon="-8.6096000">
        <ele>21.7</ele>
        <time>2019-08-17T08:10:55Z</time>
      </trkpt>
      <trkpt lat="42.2985300" lon="-8.6095840">
        <ele>21.8</ele>
        <time>2019-08-17T08:10:56Z</time>
      </trkpt>
      <trkpt lat="42.2985860" lon="-8.6095710">
        <ele>21.8</ele>
        <time>2019-08-17T08:10:57Z</time>
      </trkpt>
      <trkpt lat="42.2986410" lon="-8.6095640">
        <ele>21.8</ele>
        <time>2019-08-17T08:10:58Z</time>
      </trkpt>
      <trkpt lat="42.2989160" lon="-8.6095620">
        <ele>22.0</ele>
        <time>2019-08-17T08:11:03Z</time>
      </trkpt>
      <trkpt lat="42.2991990" lon="-8.6095760">
        <ele>22.8</ele>
        <time>2019-08-17T08:11:09Z</time>
      </trkpt>
      <trkpt lat="42.2993930" lon="-8.6095410">
        <ele>23.2</ele>
        <time>2019-08-17T08:11:14Z</time>
      </trkpt>
      <trkpt lat="42.2994800" lon="-8.6094570">
        <ele>23.5</ele>
        <time>2019-08-17T08:11:18Z</time>
      </trkpt>
      <trkpt lat="42.2995030" lon="-8.6094140">
        <ele>23.7</ele>
        <time>2019-08-17T08:11:19Z</time>
      </trkpt>
      <trkpt lat="42.2995830" lon="-8.6092720">
        <ele>24.2</ele>
        <time>2019-08-17T08:11:23Z</time>
      </trkpt>
      <trkpt lat="42.2995920" lon="-8.6092320">
        <ele>24.3</ele>
        <time>2019-08-17T08:11:24Z</time>
      </trkpt>
      <trkpt lat="42.2996040" lon="-8.6091980">
        <ele>24.5</ele>
        <time>2019-08-17T08:11:25Z</time>
      </trkpt>
      <trkpt lat="42.2996200" lon="-8.6091620">
        <ele>24.7</ele>
        <time>2019-08-17T08:11:26Z</time>
      </trkpt>
      <trkpt lat="42.2996430" lon="-8.6091270">
        <ele>24.9</ele>
        <time>2019-08-17T08:11:27Z</time>
      </trkpt>
      <trkpt lat="42.2997290" lon="-8.6090320">
        <ele>25.8</ele>
        <time>2019-08-17T08:11:30Z</time>
      </trkpt>
      <trkpt lat="42.2997540" lon="-8.6090030">
        <ele>26.0</ele>
        <time>2019-08-17T08:11:31Z</time>
      </trkpt>
      <trkpt lat="42.2997780" lon="-8.6089750">
        <ele>26.3</ele>
        <time>2019-08-17T08:11:32Z</time>
      </trkpt>
      <trkpt lat="42.2997930" lon="-8.6089490">
        <ele>26.5</ele>
        <time>2019-08-17T08:11:33Z</time>
      </trkpt>
      <trkpt lat="42.2998140" lon="-8.6089250">
        <ele>26.7</ele>
        <time>2019-08-17T08:11:34Z</time>
      </trkpt>
      <trkpt lat="42.2999150" lon="-8.6088350">
        <ele>27.8</ele>
        <time>2019-08-17T08:11:38Z</time>
      </trkpt>
      <trkpt lat="42.2999450" lon="-8.6088140">
        <ele>28.1</ele>
        <time>2019-08-17T08:11:39Z</time>
      </trkpt>
      <trkpt lat="42.2999710" lon="-8.6087970">
        <ele>28.4</ele>
        <time>2019-08-17T08:11:40Z</time>
      </trkpt>
      <trkpt lat="42.3000000" lon="-8.6087750">
        <ele>28.7</ele>
        <time>2019-08-17T08:11:41Z</time>
      </trkpt>
      <trkpt lat="42.3000270" lon="-8.6087550">
        <ele>29.0</ele>
        <time>2019-08-17T08:11:42Z</time>
      </trkpt>
      <trkpt lat="42.3000470" lon="-8.6087400">
        <ele>29.2</ele>
        <time>2019-08-17T08:11:43Z</time>
      </trkpt>
      <trkpt lat="42.3000870" lon="-8.6087060">
        <ele>29.6</ele>
        <time>2019-08-17T08:11:45Z</time>
      </trkpt>
      <trkpt lat="42.3001070" lon="-8.6086830">
        <ele>29.8</ele>
        <time>2019-08-17T08:11:46Z</time>
      </trkpt>
      <trkpt lat="42.3001240" lon="-8.6086600">
        <ele>30.0</ele>
        <time>2019-08-17T08:11:47Z</time>
      </trkpt>
      <trkpt lat="42.3001430" lon="-8.6086430">
        <ele>30.2</ele>
        <time>2019-08-17T08:11:48Z</time>
      </trkpt>
      <trkpt lat="42.3001540" lon="-8.6086240">
        <ele>30.4</ele>
        <time>2019-08-17T08:11:49Z</time>
      </trkpt>
      <trkpt lat="42.3001640" lon="-8.6086010">
        <ele>30.5</ele>
        <time>2019-08-17T08:11:50Z</time>
      </trkpt>
      <trkpt lat="42.3001930" lon="-8.6085530">
        <ele>30.9</ele>
        <time>2019-08-17T08:11:52Z</time>
      </trkpt>
      <trkpt lat="42.3002100" lon="-8.6085290">
        <ele>31.1</ele>
        <time>2019-08-17T08:11:53Z</time>
      </trkpt>
      <trkpt lat="42.3002240" lon="-8.6085070">
        <ele>31.3</ele>
        <time>2019-08-17T08:11:54Z</time>
      </trkpt>
      <trkpt lat="42.3002480" lon="-8.6084940">
        <ele>31.5</ele>
        <time>2019-08-17T08:11:55Z</time>
      </trkpt>
      <trkpt lat="42.3002620" lon="-8.6084750">
        <ele>31.7</ele>
        <time>2019-08-17T08:11:56Z</time>
      </trkpt>
      <trkpt lat="42.3002750" lon="-8.6084190">
        <ele>32.0</ele>
        <time>2019-08-17T08:11:59Z</time>
      </trkpt>
      <trkpt lat="42.3002880" lon="-8.6083970">
        <ele>32.2</ele>
        <time>2019-08-17T08:12:00Z</time>
      </trkpt>
      <trkpt lat="42.3002970" lon="-8.6083710">
        <ele>32.3</ele>
        <time>2019-08-17T08:12:01Z</time>
      </trkpt>
      <trkpt lat="42.3003100" lon="-8.6083520">
        <ele>32.4</ele>
        <time>2019-08-17T08:12:02Z</time>
      </trkpt>
      <trkpt lat="42.3003230" lon="-8.6083290">
        <ele>32.6</ele>
        <time>2019-08-17T08:12:03Z</time>
      </trkpt>
      <trkpt lat="42.3003540" lon="-8.6082700">
        <ele>33.0</ele>
        <time>2019-08-17T08:12:06Z</time>
      </trkpt>
      <trkpt lat="42.3003670" lon="-8.6082470">
        <ele>33.2</ele>
        <time>2019-08-17T08:12:07Z</time>
      </trkpt>
      <trkpt lat="42.3003750" lon="-8.6082330">
        <ele>33.3</ele>
        <time>2019-08-17T08:12:08Z</time>
      </trkpt>
      <trkpt lat="42.3003890" lon="-8.6082130">
        <ele>33.4</ele>
        <time>2019-08-17T08:12:09Z</time>
      </trkpt>
      <trkpt lat="42.3004010" lon="-8.6081940">
        <ele>33.5</ele>
        <time>2019-08-17T08:12:10Z</time>
      </trkpt>
      <trkpt lat="42.3004830" lon="-8.6081430">
        <ele>34.6</ele>
        <time>2019-08-17T08:12:14Z</time>
      </trkpt>
      <trkpt lat="42.3005040" lon="-8.6081490">
        <ele>34.8</ele>
        <time>2019-08-17T08:12:15Z</time>
      </trkpt>
      <trkpt lat="42.3005180" lon="-8.6081520">
        <ele>34.9</ele>
        <time>2019-08-17T08:12:16Z</time>
      </trkpt>
      <trkpt lat="42.3005320" lon="-8.6081560">
        <ele>35.0</ele>
        <time>2019-08-17T08:12:17Z</time>
      </trkpt>
      <trkpt lat="42.3005460" lon="-8.6081590">
        <ele>35.1</ele>
        <time>2019-08-17T08:12:18Z</time>
      </trkpt>
      <trkpt lat="42.3006300" lon="-8.6082120">
        <ele>35.9</ele>
        <time>2019-08-17T08:12:22Z</time>
      </trkpt>
      <trkpt lat="42.3006850" lon="-8.6082760">
        <ele>36.7</ele>
        <time>2019-08-17T08:12:24Z</time>
      </trkpt>
      <trkpt lat="42.3007340" lon="-8.6083240">
        <ele>37.5</ele>
        <time>2019-08-17T08:12:25Z</time>
      </trkpt>
      <trkpt lat="42.3007810" lon="-8.6083780">
        <ele>38.5</ele>
        <time>2019-08-17T08:12:26Z</time>
      </trkpt>
      <trkpt lat="42.3008580" lon="-8.6083930">
        <ele>40.0</ele>
        <time>2019-08-17T08:12:27Z</time>
      </trkpt>
      <trkpt lat="42.3009250" lon="-8.6083720">
        <ele>41.3</ele>
        <time>2019-08-17T08:12:28Z</time>
      </trkpt>
      <trkpt lat="42.3009790" lon="-8.6083360">
        <ele>42.3</ele>
        <time>2019-08-17T08:12:29Z</time>
      </trkpt>
      <trkpt lat="42.3010270" lon="-8.6082950">
        <ele>43.0</ele>
        <time>2019-08-17T08:12:30Z</time>
      </trkpt>
      <trkpt lat="42.3010710" lon="-8.6082600">
        <ele>43.6</ele>
        <time>2019-08-17T08:12:31Z</time>
      </trkpt>
      <trkpt lat="42.3012420" lon="-8.6082380">
        <ele>44.1</ele>
        <time>2019-08-17T08:12:35Z</time>
      </trkpt>
      <trkpt lat="42.3014900" lon="-8.6082310">
        <ele>43.3</ele>
        <time>2019-08-17T08:12:41Z</time>
      </trkpt>
      <trkpt lat="42.3015690" lon="-8.6081420">
        <ele>42.8</ele>
        <time>2019-08-17T08:12:43Z</time>
      </trkpt>
      <trkpt lat="42.3016660" lon="-8.6080560">
        <ele>42.3</ele>
        <time>2019-08-17T08:12:46Z</time>
      </trkpt>
      <trkpt lat="42.3017820" lon="-8.6079760">
        <ele>41.9</ele>
        <time>2019-08-17T08:12:51Z</time>
      </trkpt>
      <trkpt lat="42.3018020" lon="-8.6079780">
        <ele>41.8</ele>
        <time>2019-08-17T08:12:52Z</time>
      </trkpt>
      <trkpt lat="42.3018270" lon="-8.6079740">
        <ele>41.8</ele>
        <time>2019-08-17T08:12:53Z</time>
      </trkpt>
      <trkpt lat="42.3018380" lon="-8.6079740">
        <ele>41.7</ele>
        <time>2019-08-17T08:12:54Z</time>
      </trkpt>
      <trkpt lat="42.3018620" lon="-8.6079530">
        <ele>41.7</ele>
        <time>2019-08-17T08:12:55Z</time>
      </trkpt>
      <trkpt lat="42.3019440" lon="-8.6079110">
        <ele>41.6</ele>
        <time>2019-08-17T08:12:58Z</time>
      </trkpt>
      <trkpt lat="42.3020690" lon="-8.6077920">
        <ele>41.7</ele>
        <time>2019-08-17T08:13:04Z</time>
      </trkpt>
      <trkpt lat="42.3020970" lon="-8.6077730">
        <ele>41.8</ele>
        <time>2019-08-17T08:13:05Z</time>
      </trkpt>
      <trkpt lat="42.3022120" lon="-8.6076030">
        <ele>42.7</ele>
        <time>2019-08-17T08:13:11Z</time>
      </trkpt>
      <trkpt lat="42.3022220" lon="-8.6075720">
        <ele>42.9</ele>
        <time>2019-08-17T08:13:12Z</time>
      </trkpt>
      <trkpt lat="42.3022360" lon="-8.6075450">
        <ele>43.2</ele>
        <time>2019-08-17T08:13:13Z</time>
      </trkpt>
      <trkpt lat="42.3022550" lon="-8.6075200">
        <ele>43.5</ele>
        <time>2019-08-17T08:13:14Z</time>
      </trkpt>
      <trkpt lat="42.3022770" lon="-8.6074850">
        <ele>44.0</ele>
        <time>2019-08-17T08:13:15Z</time>
      </trkpt>
      <trkpt lat="42.3024000" lon="-8.6073780">
        <ele>46.3</ele>
        <time>2019-08-17T08:13:20Z</time>
      </trkpt>
      <trkpt lat="42.3025120" lon="-8.6072780">
        <ele>48.2</ele>
        <time>2019-08-17T08:13:26Z</time>
      </trkpt>
      <trkpt lat="42.3025340" lon="-8.6072550">
        <ele>48.6</ele>
        <time>2019-08-17T08:13:27Z</time>
      </trkpt>
      <trkpt lat="42.3025670" lon="-8.6072330">
        <ele>48.9</ele>
        <time>2019-08-17T08:13:28Z</time>
      </trkpt>
      <trkpt lat="42.3025910" lon="-8.6072030">
        <ele>49.2</ele>
        <time>2019-08-17T08:13:29Z</time>
      </trkpt>
      <trkpt lat="42.3026110" lon="-8.6071680">
        <ele>49.3</ele>
        <time>2019-08-17T08:13:30Z</time>
      </trkpt>
      <trkpt lat="42.3026620" lon="-8.6070910">
        <ele>49.5</ele>
        <time>2019-08-17T08:13:33Z</time>
      </trkpt>
      <trkpt lat="42.3027920" lon="-8.6069890">
        <ele>49.2</ele>
        <time>2019-08-17T08:13:39Z</time>
      </trkpt>
      <trkpt lat="42.3029900" lon="-8.6068470">
        <ele>48.2</ele>
        <time>2019-08-17T08:13:46Z</time>
      </trkpt>
      <trkpt lat="42.3031420" lon="-8.6066890">
        <ele>47.6</ele>
        <time>2019-08-17T08:13:54Z</time>
      </trkpt>
      <trkpt lat="42.3031950" lon="-8.6065800">
        <ele>47.6</ele>
        <time>2019-08-17T08:13:58Z</time>
      </trkpt>
      <trkpt lat="42.3032120" lon="-8.6065570">
        <ele>47.6</ele>
        <time>2019-08-17T08:13:59Z</time>
      </trkpt>
      <trkpt lat="42.3032380" lon="-8.6065310">
        <ele>47.6</ele>
        <time>2019-08-17T08:14:00Z</time>
      </trkpt>
      <trkpt lat="42.3032520" lon="-8.6065100">
        <ele>47.6</ele>
        <time>2019-08-17T08:14:01Z</time>
      </trkpt>
      <trkpt lat="42.3032700" lon="-8.6064890">
        <ele>47.7</ele>
        <time>2019-08-17T08:14:02Z</time>
      </trkpt>
      <trkpt lat="42.3033940" lon="-8.6063340">
        <ele>47.9</ele>
        <time>2019-08-17T08:14:08Z</time>
      </trkpt>
      <trkpt lat="42.3035710" lon="-8.6062140">
        <ele>48.4</ele>
        <time>2019-08-17T08:14:15Z</time>
      </trkpt>
      <trkpt lat="42.3036150" lon="-8.6062050">
        <ele>48.6</ele>
        <time>2019-08-17T08:14:17Z</time>
      </trkpt>
      <trkpt lat="42.3036300" lon="-8.6062020">
        <ele>48.6</ele>
        <time>2019-08-17T08:14:18Z</time>
      </trkpt>
      <trkpt lat="42.3036510" lon="-8.6062050">
        <ele>48.6</ele>
        <time>2019-08-17T08:14:19Z</time>
      </trkpt>
      <trkpt lat="42.3036710" lon="-8.6061980">
        <ele>48.7</ele>
        <time>2019-08-17T08:14:20Z</time>
      </trkpt>
      <trkpt lat="42.3036890" lon="-8.6061880">
        <ele>48.7</ele>
        <time>2019-08-17T08:14:21Z</time>
      </trkpt>
      <trkpt lat="42.3038440" lon="-8.6061360">
        <ele>49.0</ele>
        <time>2019-08-17T08:14:28Z</time>
      </trkpt>
      <trkpt lat="42.3039520" lon="-8.6060010">
        <ele>49.5</ele>
        <time>2019-08-17T08:14:35Z</time>
      </trkpt>
      <trkpt lat="42.3039800" lon="-8.6059440">
        <ele>50.4</ele>
        <time>2019-08-17T08:14:38Z</time>
      </trkpt>
      <trkpt lat="42.3039940" lon="-8.6059090">
        <ele>50.6</ele>
        <time>2019-08-17T08:14:41Z</time>
      </trkpt>
      <trkpt lat="42.3039800" lon="-8.6058750">
        <ele>50.8</ele>
        <time>2019-08-17T08:14:44Z</time>
      </trkpt>
      <trkpt lat="42.3039990" lon="-8.6058700">
        <ele>50.9</ele>
        <time>2019-08-17T08:17:08Z</time>
      </trkpt>
      <trkpt lat="42.3040510" lon="-8.6058890">
        <ele>51.2</ele>
        <time>2019-08-17T08:17:10Z</time>
      </trkpt>
      <trkpt lat="42.3042320" lon="-8.6059070">
        <ele>52.0</ele>
        <time>2019-08-17T08:17:15Z</time>
      </trkpt>
      <trkpt lat="42.3044240" lon="-8.6059100">
        <ele>52.7</ele>
        <time>2019-08-17T08:17:23Z</time>
      </trkpt>
      <trkpt lat="42.3045470" lon="-8.6059550">
        <ele>53.5</ele>
        <time>2019-08-17T08:17:27Z</time>
      </trkpt>
      <trkpt lat="42.3045810" lon="-8.6059530">
        <ele>53.7</ele>
        <time>2019-08-17T08:17:28Z</time>
      </trkpt>
      <trkpt lat="42.3046250" lon="-8.6059420">
        <ele>54.4</ele>
        <time>2019-08-17T08:17:29Z</time>
      </trkpt>
      <trkpt lat="42.3046640" lon="-8.6059330">
        <ele>54.9</ele>
        <time>2019-08-17T08:17:30Z</time>
      </trkpt>
      <trkpt lat="42.3046970" lon="-8.6059250">
        <ele>55.3</ele>
        <time>2019-08-17T08:17:31Z</time>
      </trkpt>
      <trkpt lat="42.3048330" lon="-8.6059150">
        <ele>57.0</ele>
        <time>2019-08-17T08:17:36Z</time>
      </trkpt>
      <trkpt lat="42.3049080" lon="-8.6059220">
        <ele>57.9</ele>
        <time>2019-08-17T08:17:39Z</time>
      </trkpt>
      <trkpt lat="42.3049230" lon="-8.6059190">
        <ele>58.0</ele>
        <time>2019-08-17T08:17:40Z</time>
      </trkpt>
      <trkpt lat="42.3049480" lon="-8.6059040">
        <ele>58.4</ele>
        <time>2019-08-17T08:17:41Z</time>
      </trkpt>
      <trkpt lat="42.3049760" lon="-8.6059190">
        <ele>58.7</ele>
        <time>2019-08-17T08:17:42Z</time>
      </trkpt>
      <trkpt lat="42.3050080" lon="-8.6059220">
        <ele>59.0</ele>
        <time>2019-08-17T08:17:43Z</time>
      </trkpt>
      <trkpt lat="42.3051920" lon="-8.6058900">
        <ele>60.5</ele>
        <time>2019-08-17T08:17:49Z</time>
      </trkpt>
      <trkpt lat="42.3052400" lon="-8.6058860">
        <ele>60.8</ele>
        <time>2019-08-17T08:17:51Z</time>
      </trkpt>
      <trkpt lat="42.3052580" lon="-8.6058770">
        <ele>60.9</ele>
        <time>2019-08-17T08:17:52Z</time>
      </trkpt>
      <trkpt lat="42.3052840" lon="-8.6058590">
        <ele>61.1</ele>
        <time>2019-08-17T08:17:53Z</time>
      </trkpt>
      <trkpt lat="42.3053050" lon="-8.6058440">
        <ele>61.3</ele>
        <time>2019-08-17T08:17:54Z</time>
      </trkpt>
      <trkpt lat="42.3053270" lon="-8.6058320">
        <ele>61.4</ele>
        <time>2019-08-17T08:17:55Z</time>
      </trkpt>
      <trkpt lat="42.3053430" lon="-8.6058230">
        <ele>61.5</ele>
        <time>2019-08-17T08:17:56Z</time>
      </trkpt>
      <trkpt lat="42.3054160" lon="-8.6057830">
        <ele>61.8</ele>
        <time>2019-08-17T08:18:00Z</time>
      </trkpt>
      <trkpt lat="42.3054390" lon="-8.6057790">
        <ele>61.9</ele>
        <time>2019-08-17T08:18:01Z</time>
      </trkpt>
      <trkpt lat="42.3054600" lon="-8.6057780">
        <ele>62.0</ele>
        <time>2019-08-17T08:18:02Z</time>
      </trkpt>
      <trkpt lat="42.3054860" lon="-8.6057790">
        <ele>62.1</ele>
        <time>2019-08-17T08:18:03Z</time>
      </trkpt>
      <trkpt lat="42.3055090" lon="-8.6057770">
        <ele>62.2</ele>
        <time>2019-08-17T08:18:04Z</time>
      </trkpt>
      <trkpt lat="42.3056580" lon="-8.6057330">
        <ele>62.5</ele>
        <time>2019-08-17T08:18:10Z</time>
      </trkpt>
      <trkpt lat="42.3057320" lon="-8.6057170">
        <ele>62.6</ele>
        <time>2019-08-17T08:18:14Z</time>
      </trkpt>
      <trkpt lat="42.3057500" lon="-8.6057140">
        <ele>62.6</ele>
        <time>2019-08-17T08:18:15Z</time>
      </trkpt>
      <trkpt lat="42.3057610" lon="-8.6057120">
        <ele>62.7</ele>
        <time>2019-08-17T08:18:16Z</time>
      </trkpt>
      <trkpt lat="42.3057790" lon="-8.6057110">
        <ele>62.7</ele>
        <time>2019-08-17T08:18:17Z</time>
      </trkpt>
      <trkpt lat="42.3058050" lon="-8.6057090">
        <ele>62.7</ele>
        <time>2019-08-17T08:18:18Z</time>
      </trkpt>
      <trkpt lat="42.3059990" lon="-8.6056370">
        <ele>62.7</ele>
        <time>2019-08-17T08:18:24Z</time>
      </trkpt>
      <trkpt lat="42.3061730" lon="-8.6055730">
        <ele>62.5</ele>
        <time>2019-08-17T08:18:31Z</time>
      </trkpt>
      <trkpt lat="42.3062580" lon="-8.6055400">
        <ele>62.3</ele>
        <time>2019-08-17T08:18:34Z</time>
      </trkpt>
      <trkpt lat="42.3062850" lon="-8.6055290">
        <ele>62.2</ele>
        <time>2019-08-17T08:18:35Z</time>
      </trkpt>
      <trkpt lat="42.3063200" lon="-8.6055150">
        <ele>62.2</ele>
        <time>2019-08-17T08:18:36Z</time>
      </trkpt>
      <trkpt lat="42.3063450" lon="-8.6054960">
        <ele>62.1</ele>
        <time>2019-08-17T08:18:37Z</time>
      </trkpt>
      <trkpt lat="42.3063700" lon="-8.6054780">
        <ele>62.0</ele>
        <time>2019-08-17T08:18:38Z</time>
      </trkpt>
      <trkpt lat="42.3063840" lon="-8.6054630">
        <ele>62.0</ele>
        <time>2019-08-17T08:18:39Z</time>
      </trkpt>
      <trkpt lat="42.3064760" lon="-8.6052800">
        <ele>61.8</ele>
        <time>2019-08-17T08:18:45Z</time>
      </trkpt>
      <trkpt lat="42.3065970" lon="-8.6051050">
        <ele>62.4</ele>
        <time>2019-08-17T08:18:52Z</time>
      </trkpt>
      <trkpt lat="42.3066450" lon="-8.6050660">
        <ele>62.8</ele>
        <time>2019-08-17T08:18:54Z</time>
      </trkpt>
      <trkpt lat="42.3066620" lon="-8.6050450">
        <ele>63.0</ele>
        <time>2019-08-17T08:18:55Z</time>
      </trkpt>
      <trkpt lat="42.3066650" lon="-8.6050260">
        <ele>63.1</ele>
        <time>2019-08-17T08:18:56Z</time>
      </trkpt>
      <trkpt lat="42.3066690" lon="-8.6050090">
        <ele>63.3</ele>
        <time>2019-08-17T08:18:57Z</time>
      </trkpt>
      <trkpt lat="42.3066820" lon="-8.6049930">
        <ele>63.5</ele>
        <time>2019-08-17T08:18:58Z</time>
      </trkpt>
      <trkpt lat="42.3067110" lon="-8.6049580">
        <ele>63.9</ele>
        <time>2019-08-17T08:19:00Z</time>
      </trkpt>
      <trkpt lat="42.3067120" lon="-8.6049210">
        <ele>64.3</ele>
        <time>2019-08-17T08:19:03Z</time>
      </trkpt>
      <trkpt lat="42.3067180" lon="-8.6049080">
        <ele>64.5</ele>
        <time>2019-08-17T08:19:04Z</time>
      </trkpt>
      <trkpt lat="42.3067260" lon="-8.6048960">
        <ele>64.7</ele>
        <time>2019-08-17T08:19:05Z</time>
      </trkpt>
      <trkpt lat="42.3067360" lon="-8.6048760">
        <ele>65.0</ele>
        <time>2019-08-17T08:19:06Z</time>
      </trkpt>
      <trkpt lat="42.3067380" lon="-8.6048550">
        <ele>65.3</ele>
        <time>2019-08-17T08:19:07Z</time>
      </trkpt>
      <trkpt lat="42.3067360" lon="-8.6047520">
        <ele>67.2</ele>
        <time>2019-08-17T08:19:13Z</time>
      </trkpt>
      <trkpt lat="42.3068280" lon="-8.6047630">
        <ele>67.5</ele>
        <time>2019-08-17T08:19:16Z</time>
      </trkpt>
      <trkpt lat="42.3068620" lon="-8.6047730">
        <ele>67.6</ele>
        <time>2019-08-17T08:19:17Z</time>
      </trkpt>
      <trkpt lat="42.3068880" lon="-8.6047860">
        <ele>67.7</ele>
        <time>2019-08-17T08:19:18Z</time>
      </trkpt>
      <trkpt lat="42.3069200" lon="-8.6048030">
        <ele>67.8</ele>
        <time>2019-08-17T08:19:19Z</time>
      </trkpt>
      <trkpt lat="42.3069490" lon="-8.6048210">
        <ele>67.9</ele>
        <time>2019-08-17T08:19:20Z</time>
      </trkpt>
      <trkpt lat="42.3070640" lon="-8.6048900">
        <ele>69.7</ele>
        <time>2019-08-17T08:19:25Z</time>
      </trkpt>
      <trkpt lat="42.3071100" lon="-8.6048900">
        <ele>70.0</ele>
        <time>2019-08-17T08:19:30Z</time>
      </trkpt>
      <trkpt lat="42.3071730" lon="-8.6049930">
        <ele>70.5</ele>
        <time>2019-08-17T08:19:36Z</time>
      </trkpt>
      <trkpt lat="42.3072070" lon="-8.6050610">
        <ele>70.8</ele>
        <time>2019-08-17T08:19:41Z</time>
      </trkpt>
      <trkpt lat="42.3072370" lon="-8.6050090">
        <ele>71.0</ele>
        <time>2019-08-17T08:38:21Z</time>
      </trkpt>
      <trkpt lat="42.3071970" lon="-8.6049550">
        <ele>71.2</ele>
        <time>2019-08-17T08:38:25Z</time>
      </trkpt>
      <trkpt lat="42.3072210" lon="-8.6049160">
        <ele>71.4</ele>
        <time>2019-08-17T08:38:28Z</time>
      </trkpt>
      <trkpt lat="42.3072520" lon="-8.6048930">
        <ele>71.5</ele>
        <time>2019-08-17T08:38:30Z</time>
      </trkpt>
      <trkpt lat="42.3072680" lon="-8.6048780">
        <ele>71.6</ele>
        <time>2019-08-17T08:38:31Z</time>
      </trkpt>
      <trkpt lat="42.3072840" lon="-8.6048620">
        <ele>71.7</ele>
        <time>2019-08-17T08:38:32Z</time>
      </trkpt>
      <trkpt lat="42.3073020" lon="-8.6048480">
        <ele>71.8</ele>
        <time>2019-08-17T08:38:33Z</time>
      </trkpt>
      <trkpt lat="42.3073200" lon="-8.6048340">
        <ele>71.9</ele>
        <time>2019-08-17T08:38:34Z</time>
      </trkpt>
      <trkpt lat="42.3075000" lon="-8.6047290">
        <ele>72.8</ele>
        <time>2019-08-17T08:38:43Z</time>
      </trkpt>
      <trkpt lat="42.3075230" lon="-8.6047160">
        <ele>72.9</ele>
        <time>2019-08-17T08:38:44Z</time>
      </trkpt>
      <trkpt lat="42.3075420" lon="-8.6047070">
        <ele>73.0</ele>
        <time>2019-08-17T08:38:45Z</time>
      </trkpt>
      <trkpt lat="42.3075590" lon="-8.6046980">
        <ele>73.1</ele>
        <time>2019-08-17T08:38:46Z</time>
      </trkpt>
      <trkpt lat="42.3075780" lon="-8.6046830">
        <ele>73.2</ele>
        <time>2019-08-17T08:38:47Z</time>
      </trkpt>
      <trkpt lat="42.3076610" lon="-8.6045550">
        <ele>73.1</ele>
        <time>2019-08-17T08:38:52Z</time>
      </trkpt>
      <trkpt lat="42.3077690" lon="-8.6043590">
        <ele>73.2</ele>
        <time>2019-08-17T08:38:59Z</time>
      </trkpt>
      <trkpt lat="42.3077790" lon="-8.6043300">
        <ele>73.2</ele>
        <time>2019-08-17T08:39:00Z</time>
      </trkpt>
      <trkpt lat="42.3077860" lon="-8.6042980">
        <ele>73.3</ele>
        <time>2019-08-17T08:39:01Z</time>
      </trkpt>
      <trkpt lat="42.3077900" lon="-8.6042700">
        <ele>73.3</ele>
        <time>2019-08-17T08:39:02Z</time>
      </trkpt>
      <trkpt lat="42.3077990" lon="-8.6042450">
        <ele>73.3</ele>
        <time>2019-08-17T08:39:03Z</time>
      </trkpt>
      <trkpt lat="42.3078200" lon="-8.6041910">
        <ele>73.5</ele>
        <time>2019-08-17T08:39:05Z</time>
      </trkpt>
      <trkpt lat="42.3079010" lon="-8.6039620">
        <ele>74.0</ele>
        <time>2019-08-17T08:39:13Z</time>
      </trkpt>
      <trkpt lat="42.3079770" lon="-8.6038400">
        <ele>74.2</ele>
        <time>2019-08-17T08:39:18Z</time>
      </trkpt>
      <trkpt lat="42.3079940" lon="-8.6038170">
        <ele>74.2</ele>
        <time>2019-08-17T08:39:19Z</time>
      </trkpt>
      <trkpt lat="42.3080120" lon="-8.6037930">
        <ele>74.3</ele>
        <time>2019-08-17T08:39:20Z</time>
      </trkpt>
      <trkpt lat="42.3080310" lon="-8.6037670">
        <ele>74.3</ele>
        <time>2019-08-17T08:39:21Z</time>
      </trkpt>
      <trkpt lat="42.3080520" lon="-8.6037440">
        <ele>74.4</ele>
        <time>2019-08-17T08:39:22Z</time>
      </trkpt>
      <trkpt lat="42.3082220" lon="-8.6035670">
        <ele>74.5</ele>
        <time>2019-08-17T08:39:30Z</time>
      </trkpt>
      <trkpt lat="42.3084120" lon="-8.6033650">
        <ele>74.4</ele>
        <time>2019-08-17T08:39:39Z</time>
      </trkpt>
      <trkpt lat="42.3085960" lon="-8.6032040">
        <ele>74.2</ele>
        <time>2019-08-17T08:39:46Z</time>
      </trkpt>
      <trkpt lat="42.3087130" lon="-8.6031750">
        <ele>75.5</ele>
        <time>2019-08-17T08:39:50Z</time>
      </trkpt>
      <trkpt lat="42.3087390" lon="-8.6031720">
        <ele>75.8</ele>
        <time>2019-08-17T08:39:51Z</time>
      </trkpt>
      <trkpt lat="42.3087720" lon="-8.6031730">
        <ele>76.1</ele>
        <time>2019-08-17T08:39:52Z</time>
      </trkpt>
      <trkpt lat="42.3088020" lon="-8.6031760">
        <ele>76.3</ele>
        <time>2019-08-17T08:39:53Z</time>
      </trkpt>
      <trkpt lat="42.3088300" lon="-8.6031780">
        <ele>76.5</ele>
        <time>2019-08-17T08:39:54Z</time>
      </trkpt>
      <trkpt lat="42.3090200" lon="-8.6031610">
        <ele>78.5</ele>
        <time>2019-08-17T08:40:00Z</time>
      </trkpt>
      <trkpt lat="42.3090450" lon="-8.6031550">
        <ele>78.7</ele>
        <time>2019-08-17T08:40:01Z</time>
      </trkpt>
      <trkpt lat="42.3090730" lon="-8.6031500">
        <ele>79.0</ele>
        <time>2019-08-17T08:40:02Z</time>
      </trkpt>
      <trkpt lat="42.3091250" lon="-8.6031480">
        <ele>79.4</ele>
        <time>2019-08-17T08:40:04Z</time>
      </trkpt>
      <trkpt lat="42.3092360" lon="-8.6031190">
        <ele>80.2</ele>
        <time>2019-08-17T08:40:08Z</time>
      </trkpt>
      <trkpt lat="42.3094130" lon="-8.6031100">
        <ele>82.0</ele>
        <time>2019-08-17T08:40:14Z</time>
      </trkpt>
      <trkpt lat="42.3094440" lon="-8.6031080">
        <ele>82.3</ele>
        <time>2019-08-17T08:40:15Z</time>
      </trkpt>
      <trkpt lat="42.3094690" lon="-8.6031070">
        <ele>82.6</ele>
        <time>2019-08-17T08:40:16Z</time>
      </trkpt>
      <trkpt lat="42.3094950" lon="-8.6031060">
        <ele>82.9</ele>
        <time>2019-08-17T08:40:17Z</time>
      </trkpt>
      <trkpt lat="42.3095230" lon="-8.6031020">
        <ele>83.2</ele>
        <time>2019-08-17T08:40:18Z</time>
      </trkpt>
      <trkpt lat="42.3095520" lon="-8.6030950">
        <ele>83.5</ele>
        <time>2019-08-17T08:40:19Z</time>
      </trkpt>
      <trkpt lat="42.3096400" lon="-8.6030870">
        <ele>84.7</ele>
        <time>2019-08-17T08:40:22Z</time>
      </trkpt>
      <trkpt lat="42.3097530" lon="-8.6030780">
        <ele>85.6</ele>
        <time>2019-08-17T08:40:26Z</time>
      </trkpt>
      <trkpt lat="42.3097820" lon="-8.6030750">
        <ele>85.8</ele>
        <time>2019-08-17T08:40:27Z</time>
      </trkpt>
      <trkpt lat="42.3098190" lon="-8.6030710">
        <ele>86.2</ele>
        <time>2019-08-17T08:40:28Z</time>
      </trkpt>
      <trkpt lat="42.3098540" lon="-8.6030660">
        <ele>86.5</ele>
        <time>2019-08-17T08:40:29Z</time>
      </trkpt>
      <trkpt lat="42.3098850" lon="-8.6030610">
        <ele>87.0</ele>
        <time>2019-08-17T08:40:30Z</time>
      </trkpt>
      <trkpt lat="42.3099580" lon="-8.6030580">
        <ele>87.9</ele>
        <time>2019-08-17T08:40:33Z</time>
      </trkpt>
      <trkpt lat="42.3099850" lon="-8.6030540">
        <ele>88.2</ele>
        <time>2019-08-17T08:40:34Z</time>
      </trkpt>
      <trkpt lat="42.3099950" lon="-8.6030580">
        <ele>88.3</ele>
        <time>2019-08-17T08:40:35Z</time>
      </trkpt>
      <trkpt lat="42.3100160" lon="-8.6030630">
        <ele>88.5</ele>
        <time>2019-08-17T08:40:36Z</time>
      </trkpt>
      <trkpt lat="42.3100410" lon="-8.6030750">
        <ele>88.9</ele>
        <time>2019-08-17T08:40:37Z</time>
      </trkpt>
      <trkpt lat="42.3100920" lon="-8.6030800">
        <ele>89.6</ele>
        <time>2019-08-17T08:40:39Z</time>
      </trkpt>
      <trkpt lat="42.3101790" lon="-8.6030600">
        <ele>90.4</ele>
        <time>2019-08-17T08:40:43Z</time>
      </trkpt>
      <trkpt lat="42.3101940" lon="-8.6030620">
        <ele>90.6</ele>
        <time>2019-08-17T08:40:44Z</time>
      </trkpt>
      <trkpt lat="42.3102030" lon="-8.6030730">
        <ele>90.8</ele>
        <time>2019-08-17T08:40:45Z</time>
      </trkpt>
      <trkpt lat="42.3102100" lon="-8.6030870">
        <ele>91.0</ele>
        <time>2019-08-17T08:40:46Z</time>
      </trkpt>
      <trkpt lat="42.3102190" lon="-8.6030990">
        <ele>91.2</ele>
        <time>2019-08-17T08:40:47Z</time>
      </trkpt>
      <trkpt lat="42.3102300" lon="-8.6031100">
        <ele>91.4</ele>
        <time>2019-08-17T08:40:48Z</time>
      </trkpt>
      <trkpt lat="42.3102360" lon="-8.6031360">
        <ele>91.6</ele>
        <time>2019-08-17T08:40:49Z</time>
      </trkpt>
      <trkpt lat="42.3102980" lon="-8.6032730">
        <ele>93.4</ele>
        <time>2019-08-17T08:40:56Z</time>
      </trkpt>
      <trkpt lat="42.3103080" lon="-8.6032910">
        <ele>93.7</ele>
        <time>2019-08-17T08:40:57Z</time>
      </trkpt>
      <trkpt lat="42.3103130" lon="-8.6033110">
        <ele>93.9</ele>
        <time>2019-08-17T08:40:58Z</time>
      </trkpt>
      <trkpt lat="42.3103200" lon="-8.6033340">
        <ele>94.2</ele>
        <time>2019-08-17T08:40:59Z</time>
      </trkpt>
      <trkpt lat="42.3103260" lon="-8.6033530">
        <ele>94.4</ele>
        <time>2019-08-17T08:41:00Z</time>
      </trkpt>
      <trkpt lat="42.3103550" lon="-8.6034370">
        <ele>95.2</ele>
        <time>2019-08-17T08:41:04Z</time>
      </trkpt>
      <trkpt lat="42.3103790" lon="-8.6034850">
        <ele>95.7</ele>
        <time>2019-08-17T08:41:07Z</time>
      </trkpt>
      <trkpt lat="42.3103860" lon="-8.6035060">
        <ele>95.9</ele>
        <time>2019-08-17T08:41:08Z</time>
      </trkpt>
      <trkpt lat="42.3103910" lon="-8.6035300">
        <ele>96.2</ele>
        <time>2019-08-17T08:41:09Z</time>
      </trkpt>
      <trkpt lat="42.3103970" lon="-8.6035500">
        <ele>96.4</ele>
        <time>2019-08-17T08:41:10Z</time>
      </trkpt>
      <trkpt lat="42.3104030" lon="-8.6035700">
        <ele>96.6</ele>
        <time>2019-08-17T08:41:11Z</time>
      </trkpt>
      <trkpt lat="42.3104200" lon="-8.6036100">
        <ele>97.1</ele>
        <time>2019-08-17T08:41:13Z</time>
      </trkpt>
      <trkpt lat="42.3104730" lon="-8.6036920">
        <ele>98.3</ele>
        <time>2019-08-17T08:41:18Z</time>
      </trkpt>
      <trkpt lat="42.3104910" lon="-8.6037000">
        <ele>98.6</ele>
        <time>2019-08-17T08:41:19Z</time>
      </trkpt>
      <trkpt lat="42.3105100" lon="-8.6037060">
        <ele>98.9</ele>
        <time>2019-08-17T08:41:20Z</time>
      </trkpt>
      <trkpt lat="42.3105300" lon="-8.6037100">
        <ele>99.2</ele>
        <time>2019-08-17T08:41:21Z</time>
      </trkpt>
      <trkpt lat="42.3105500" lon="-8.6037140">
        <ele>99.5</ele>
        <time>2019-08-17T08:41:22Z</time>
      </trkpt>
      <trkpt lat="42.3106400" lon="-8.6037800">
        <ele>101.1</ele>
        <time>2019-08-17T08:41:30Z</time>
      </trkpt>
      <trkpt lat="42.3106330" lon="-8.6037960">
        <ele>101.4</ele>
        <time>2019-08-17T08:41:31Z</time>
      </trkpt>
      <trkpt lat="42.3106470" lon="-8.6038120">
        <ele>101.6</ele>
        <time>2019-08-17T08:41:32Z</time>
      </trkpt>
      <trkpt lat="42.3106640" lon="-8.6038190">
        <ele>101.9</ele>
        <time>2019-08-17T08:41:33Z</time>
      </trkpt>
      <trkpt lat="42.3106760" lon="-8.6038230">
        <ele>102.1</ele>
        <time>2019-08-17T08:41:34Z</time>
      </trkpt>
      <trkpt lat="42.3106870" lon="-8.6038290">
        <ele>102.3</ele>
        <time>2019-08-17T08:41:35Z</time>
      </trkpt>
      <trkpt lat="42.3107180" lon="-8.6038440">
        <ele>102.8</ele>
        <time>2019-08-17T08:41:38Z</time>
      </trkpt>
      <trkpt lat="42.3107300" lon="-8.6038540">
        <ele>103.1</ele>
        <time>2019-08-17T08:41:39Z</time>
      </trkpt>
      <trkpt lat="42.3107380" lon="-8.6038680">
        <ele>103.3</ele>
        <time>2019-08-17T08:41:40Z</time>
      </trkpt>
      <trkpt lat="42.3107470" lon="-8.6038790">
        <ele>103.5</ele>
        <time>2019-08-17T08:41:41Z</time>
      </trkpt>
      <trkpt lat="42.3107570" lon="-8.6038910">
        <ele>103.7</ele>
        <time>2019-08-17T08:41:42Z</time>
      </trkpt>
      <trkpt lat="42.3107910" lon="-8.6039440">
        <ele>104.6</ele>
        <time>2019-08-17T08:41:46Z</time>
      </trkpt>
      <trkpt lat="42.3108450" lon="-8.6039890">
        <ele>106.0</ele>
        <time>2019-08-17T08:41:51Z</time>
      </trkpt>
      <trkpt lat="42.3108550" lon="-8.6039990">
        <ele>106.2</ele>
        <time>2019-08-17T08:41:52Z</time>
      </trkpt>
      <trkpt lat="42.3108630" lon="-8.6040100">
        <ele>106.4</ele>
        <time>2019-08-17T08:41:53Z</time>
      </trkpt>
      <trkpt lat="42.3108750" lon="-8.6040210">
        <ele>106.7</ele>
        <time>2019-08-17T08:41:54Z</time>
      </trkpt>
      <trkpt lat="42.3108880" lon="-8.6040300">
        <ele>107.0</ele>
        <time>2019-08-17T08:41:55Z</time>
      </trkpt>
      <trkpt lat="42.3109390" lon="-8.6040690">
        <ele>108.2</ele>
        <time>2019-08-17T08:41:59Z</time>
      </trkpt>
      <trkpt lat="42.3109670" lon="-8.6040970">
        <ele>108.9</ele>
        <time>2019-08-17T08:42:01Z</time>
      </trkpt>
      <trkpt lat="42.3109860" lon="-8.6041150">
        <ele>109.3</ele>
        <time>2019-08-17T08:42:02Z</time>
      </trkpt>
      <trkpt lat="42.3109980" lon="-8.6041300">
        <ele>109.6</ele>
        <time>2019-08-17T08:42:03Z</time>
      </trkpt>
      <trkpt lat="42.3110120" lon="-8.6041410">
        <ele>109.9</ele>
        <time>2019-08-17T08:42:04Z</time>
      </trkpt>
      <trkpt lat="42.3110250" lon="-8.6041490">
        <ele>110.2</ele>
        <time>2019-08-17T08:42:05Z</time>
      </trkpt>
      <trkpt lat="42.3110630" lon="-8.6041950">
        <ele>111.2</ele>
        <time>2019-08-17T08:42:10Z</time>
      </trkpt>
      <trkpt lat="42.3110720" lon="-8.6042210">
        <ele>111.6</ele>
        <time>2019-08-17T08:42:12Z</time>
      </trkpt>
      <trkpt lat="42.3110800" lon="-8.6042360">
        <ele>111.8</ele>
        <time>2019-08-17T08:42:13Z</time>
      </trkpt>
      <trkpt lat="42.3110840" lon="-8.6042540">
        <ele>112.0</ele>
        <time>2019-08-17T08:42:14Z</time>
      </trkpt>
      <trkpt lat="42.3110910" lon="-8.6042680">
        <ele>112.1</ele>
        <time>2019-08-17T08:42:15Z</time>
      </trkpt>
      <trkpt lat="42.3110930" lon="-8.6042860">
        <ele>112.3</ele>
        <time>2019-08-17T08:42:16Z</time>
      </trkpt>
      <trkpt lat="42.3111110" lon="-8.6043390">
        <ele>112.9</ele>
        <time>2019-08-17T08:42:19Z</time>
      </trkpt>
      <trkpt lat="42.3111170" lon="-8.6043530">
        <ele>113.1</ele>
        <time>2019-08-17T08:42:20Z</time>
      </trkpt>
      <trkpt lat="42.3111220" lon="-8.6043650">
        <ele>113.3</ele>
        <time>2019-08-17T08:42:21Z</time>
      </trkpt>
      <trkpt lat="42.3111330" lon="-8.6043750">
        <ele>113.6</ele>
        <time>2019-08-17T08:42:22Z</time>
      </trkpt>
      <trkpt lat="42.3111420" lon="-8.6043880">
        <ele>113.8</ele>
        <time>2019-08-17T08:42:23Z</time>
      </trkpt>
      <trkpt lat="42.3112030" lon="-8.6044830">
        <ele>115.4</ele>
        <time>2019-08-17T08:42:30Z</time>
      </trkpt>
      <trkpt lat="42.3112110" lon="-8.6044980">
        <ele>115.7</ele>
        <time>2019-08-17T08:42:31Z</time>
      </trkpt>
      <trkpt lat="42.3112260" lon="-8.6045170">
        <ele>116.1</ele>
        <time>2019-08-17T08:42:32Z</time>
      </trkpt>
      <trkpt lat="42.3112450" lon="-8.6045280">
        <ele>116.5</ele>
        <time>2019-08-17T08:42:33Z</time>
      </trkpt>
      <trkpt lat="42.3112600" lon="-8.6045370">
        <ele>116.8</ele>
        <time>2019-08-17T08:42:34Z</time>
      </trkpt>
      <trkpt lat="42.3113230" lon="-8.6045830">
        <ele>118.2</ele>
        <time>2019-08-17T08:42:39Z</time>
      </trkpt>
      <trkpt lat="42.3113390" lon="-8.6045880">
        <ele>118.5</ele>
        <time>2019-08-17T08:42:40Z</time>
      </trkpt>
      <trkpt lat="42.3113500" lon="-8.6045950">
        <ele>118.7</ele>
        <time>2019-08-17T08:42:41Z</time>
      </trkpt>
      <trkpt lat="42.3113620" lon="-8.6046060">
        <ele>119.0</ele>
        <time>2019-08-17T08:42:42Z</time>
      </trkpt>
      <trkpt lat="42.3113730" lon="-8.6046150">
        <ele>119.2</ele>
        <time>2019-08-17T08:42:43Z</time>
      </trkpt>
      <trkpt lat="42.3114060" lon="-8.6046490">
        <ele>120.1</ele>
        <time>2019-08-17T08:42:46Z</time>
      </trkpt>
      <trkpt lat="42.3114210" lon="-8.6046580">
        <ele>120.4</ele>
        <time>2019-08-17T08:42:47Z</time>
      </trkpt>
      <trkpt lat="42.3114350" lon="-8.6046650">
        <ele>120.7</ele>
        <time>2019-08-17T08:42:48Z</time>
      </trkpt>
      <trkpt lat="42.3114490" lon="-8.6046710">
        <ele>121.0</ele>
        <time>2019-08-17T08:42:49Z</time>
      </trkpt>
      <trkpt lat="42.3114620" lon="-8.6046780">
        <ele>121.3</ele>
        <time>2019-08-17T08:42:50Z</time>
      </trkpt>
      <trkpt lat="42.3114820" lon="-8.6046910">
        <ele>121.6</ele>
        <time>2019-08-17T08:42:52Z</time>
      </trkpt>
      <trkpt lat="42.3115270" lon="-8.6047360">
        <ele>122.5</ele>
        <time>2019-08-17T08:42:57Z</time>
      </trkpt>
      <trkpt lat="42.3115390" lon="-8.6047410">
        <ele>122.8</ele>
        <time>2019-08-17T08:42:58Z</time>
      </trkpt>
      <trkpt lat="42.3115550" lon="-8.6047430">
        <ele>123.0</ele>
        <time>2019-08-17T08:42:59Z</time>
      </trkpt>
      <trkpt lat="42.3115720" lon="-8.6047450">
        <ele>123.3</ele>
        <time>2019-08-17T08:43:00Z</time>
      </trkpt>
      <trkpt lat="42.3115880" lon="-8.6047470">
        <ele>123.6</ele>
        <time>2019-08-17T08:43:01Z</time>
      </trkpt>
      <trkpt lat="42.3116050" lon="-8.6047520">
        <ele>123.8</ele>
        <time>2019-08-17T08:43:02Z</time>
      </trkpt>
      <trkpt lat="42.3116330" lon="-8.6047760">
        <ele>124.2</ele>
        <time>2019-08-17T08:43:04Z</time>
      </trkpt>
      <trkpt lat="42.3116390" lon="-8.6047920">
        <ele>124.4</ele>
        <time>2019-08-17T08:43:05Z</time>
      </trkpt>
      <trkpt lat="42.3116420" lon="-8.6048090">
        <ele>124.6</ele>
        <time>2019-08-17T08:43:06Z</time>
      </trkpt>
      <trkpt lat="42.3116500" lon="-8.6048210">
        <ele>124.7</ele>
        <time>2019-08-17T08:43:07Z</time>
      </trkpt>
      <trkpt lat="42.3116610" lon="-8.6048300">
        <ele>124.9</ele>
        <time>2019-08-17T08:43:08Z</time>
      </trkpt>
      <trkpt lat="42.3117130" lon="-8.6048740">
        <ele>126.0</ele>
        <time>2019-08-17T08:43:13Z</time>
      </trkpt>
      <trkpt lat="42.3117260" lon="-8.6048850">
        <ele>126.1</ele>
        <time>2019-08-17T08:43:14Z</time>
      </trkpt>
      <trkpt lat="42.3117360" lon="-8.6048980">
        <ele>126.3</ele>
        <time>2019-08-17T08:43:15Z</time>
      </trkpt>
      <trkpt lat="42.3117480" lon="-8.6049110">
        <ele>126.5</ele>
        <time>2019-08-17T08:43:16Z</time>
      </trkpt>
      <trkpt lat="42.3117610" lon="-8.6049220">
        <ele>127.3</ele>
        <time>2019-08-17T08:43:17Z</time>
      </trkpt>
      <trkpt lat="42.3117720" lon="-8.6049340">
        <ele>127.3</ele>
        <time>2019-08-17T08:43:18Z</time>
      </trkpt>
      <trkpt lat="42.3118230" lon="-8.6049810">
        <ele>127.5</ele>
        <time>2019-08-17T08:43:22Z</time>
      </trkpt>
      <trkpt lat="42.3118350" lon="-8.6050010">
        <ele>127.6</ele>
        <time>2019-08-17T08:43:23Z</time>
      </trkpt>
      <trkpt lat="42.3118470" lon="-8.6050170">
        <ele>127.6</ele>
        <time>2019-08-17T08:43:24Z</time>
      </trkpt>
      <trkpt lat="42.3118590" lon="-8.6050310">
        <ele>127.6</ele>
        <time>2019-08-17T08:43:25Z</time>
      </trkpt>
      <trkpt lat="42.3118650" lon="-8.6050380">
        <ele>127.7</ele>
        <time>2019-08-17T08:43:26Z</time>
      </trkpt>
      <trkpt lat="42.3119040" lon="-8.6050550">
        <ele>127.8</ele>
        <time>2019-08-17T08:43:31Z</time>
      </trkpt>
      <trkpt lat="42.3119110" lon="-8.6050580">
        <ele>127.8</ele>
        <time>2019-08-17T08:44:45Z</time>
      </trkpt>
      <trkpt lat="42.3120070" lon="-8.6051760">
        <ele>128.1</ele>
        <time>2019-08-17T08:44:51Z</time>
      </trkpt>
      <trkpt lat="42.3121200" lon="-8.6053430">
        <ele>128.4</ele>
        <time>2019-08-17T08:44:57Z</time>
      </trkpt>
      <trkpt lat="42.3123140" lon="-8.6055610">
        <ele>128.8</ele>
        <time>2019-08-17T08:45:05Z</time>
      </trkpt>
      <trkpt lat="42.3125200" lon="-8.6057130">
        <ele>129.4</ele>
        <time>2019-08-17T08:45:12Z</time>
      </trkpt>
      <trkpt lat="42.3126910" lon="-8.6057930">
        <ele>130.0</ele>
        <time>2019-08-17T08:45:17Z</time>
      </trkpt>
      <trkpt lat="42.3127200" lon="-8.6058060">
        <ele>130.2</ele>
        <time>2019-08-17T08:45:18Z</time>
      </trkpt>
      <trkpt lat="42.3127460" lon="-8.6058250">
        <ele>130.3</ele>
        <time>2019-08-17T08:45:19Z</time>
      </trkpt>
      <trkpt lat="42.3127830" lon="-8.6058410">
        <ele>130.6</ele>
        <time>2019-08-17T08:45:20Z</time>
      </trkpt>
      <trkpt lat="42.3128140" lon="-8.6058560">
        <ele>130.7</ele>
        <time>2019-08-17T08:45:21Z</time>
      </trkpt>
      <trkpt lat="42.3129620" lon="-8.6059240">
        <ele>131.7</ele>
        <time>2019-08-17T08:45:26Z</time>
      </trkpt>
      <trkpt lat="42.3131280" lon="-8.6059880">
        <ele>133.2</ele>
        <time>2019-08-17T08:45:31Z</time>
      </trkpt>
      <trkpt lat="42.3131570" lon="-8.6059980">
        <ele>133.4</ele>
        <time>2019-08-17T08:45:32Z</time>
      </trkpt>
      <trkpt lat="42.3131890" lon="-8.6060100">
        <ele>133.6</ele>
        <time>2019-08-17T08:45:33Z</time>
      </trkpt>
      <trkpt lat="42.3132180" lon="-8.6060200">
        <ele>133.8</ele>
        <time>2019-08-17T08:45:34Z</time>
      </trkpt>
      <trkpt lat="42.3132380" lon="-8.6060280">
        <ele>134.0</ele>
        <time>2019-08-17T08:45:35Z</time>
      </trkpt>
      <trkpt lat="42.3132920" lon="-8.6060560">
        <ele>134.4</ele>
        <time>2019-08-17T08:45:38Z</time>
      </trkpt>
      <trkpt lat="42.3133220" lon="-8.6060600">
        <ele>134.6</ele>
        <time>2019-08-17T08:45:39Z</time>
      </trkpt>
      <trkpt lat="42.3133560" lon="-8.6060640">
        <ele>134.8</ele>
        <time>2019-08-17T08:45:40Z</time>
      </trkpt>
      <trkpt lat="42.3133840" lon="-8.6060660">
        <ele>135.0</ele>
        <time>2019-08-17T08:45:41Z</time>
      </trkpt>
      <trkpt lat="42.3134050" lon="-8.6060700">
        <ele>135.2</ele>
        <time>2019-08-17T08:45:42Z</time>
      </trkpt>
      <trkpt lat="42.3134320" lon="-8.6060760">
        <ele>135.4</ele>
        <time>2019-08-17T08:45:43Z</time>
      </trkpt>
      <trkpt lat="42.3136150" lon="-8.6060820">
        <ele>137.2</ele>
        <time>2019-08-17T08:45:49Z</time>
      </trkpt>
      <trkpt lat="42.3136950" lon="-8.6060910">
        <ele>137.6</ele>
        <time>2019-08-17T08:45:51Z</time>
      </trkpt>
      <trkpt lat="42.3137240" lon="-8.6060940">
        <ele>137.7</ele>
        <time>2019-08-17T08:45:52Z</time>
      </trkpt>
      <trkpt lat="42.3137490" lon="-8.6060960">
        <ele>137.8</ele>
        <time>2019-08-17T08:45:53Z</time>
      </trkpt>
      <trkpt lat="42.3137750" lon="-8.6060950">
        <ele>138.0</ele>
        <time>2019-08-17T08:45:54Z</time>
      </trkpt>
      <trkpt lat="42.3138010" lon="-8.6060940">
        <ele>138.1</ele>
        <time>2019-08-17T08:45:55Z</time>
      </trkpt>
      <trkpt lat="42.3138940" lon="-8.6060940">
        <ele>138.6</ele>
        <time>2019-08-17T08:45:59Z</time>
      </trkpt>
      <trkpt lat="42.3140130" lon="-8.6061470">
        <ele>139.2</ele>
        <time>2019-08-17T08:46:04Z</time>
      </trkpt>
      <trkpt lat="42.3140390" lon="-8.6061550">
        <ele>139.4</ele>
        <time>2019-08-17T08:46:05Z</time>
      </trkpt>
      <trkpt lat="42.3140640" lon="-8.6061650">
        <ele>139.5</ele>
        <time>2019-08-17T08:46:06Z</time>
      </trkpt>
      <trkpt lat="42.3140960" lon="-8.6061800">
        <ele>139.7</ele>
        <time>2019-08-17T08:46:07Z</time>
      </trkpt>
      <trkpt lat="42.3141230" lon="-8.6061940">
        <ele>139.9</ele>
        <time>2019-08-17T08:46:08Z</time>
      </trkpt>
      <trkpt lat="42.3142630" lon="-8.6062640">
        <ele>140.7</ele>
        <time>2019-08-17T08:46:13Z</time>
      </trkpt>
      <trkpt lat="42.3143130" lon="-8.6062930">
        <ele>141.0</ele>
        <time>2019-08-17T08:46:15Z</time>
      </trkpt>
      <trkpt lat="42.3143360" lon="-8.6063040">
        <ele>141.1</ele>
        <time>2019-08-17T08:46:16Z</time>
      </trkpt>
      <trkpt lat="42.3143550" lon="-8.6063150">
        <ele>141.3</ele>
        <time>2019-08-17T08:46:17Z</time>
      </trkpt>
      <trkpt lat="42.3143740" lon="-8.6063260">
        <ele>141.4</ele>
        <time>2019-08-17T08:46:18Z</time>
      </trkpt>
      <trkpt lat="42.3143880" lon="-8.6063360">
        <ele>141.5</ele>
        <time>2019-08-17T08:46:19Z</time>
      </trkpt>
      <trkpt lat="42.3144180" lon="-8.6063650">
        <ele>141.7</ele>
        <time>2019-08-17T08:46:21Z</time>
      </trkpt>
      <trkpt lat="42.3146350" lon="-8.6065600">
        <ele>143.0</ele>
        <time>2019-08-17T08:46:30Z</time>
      </trkpt>
      <trkpt lat="42.3146550" lon="-8.6065780">
        <ele>143.1</ele>
        <time>2019-08-17T08:46:31Z</time>
      </trkpt>
      <trkpt lat="42.3146750" lon="-8.6065980">
        <ele>143.2</ele>
        <time>2019-08-17T08:46:32Z</time>
      </trkpt>
      <trkpt lat="42.3146990" lon="-8.6066140">
        <ele>143.3</ele>
        <time>2019-08-17T08:46:33Z</time>
      </trkpt>
      <trkpt lat="42.3147220" lon="-8.6066270">
        <ele>143.5</ele>
        <time>2019-08-17T08:46:34Z</time>
      </trkpt>
      <trkpt lat="42.3147440" lon="-8.6066380">
        <ele>143.6</ele>
        <time>2019-08-17T08:46:35Z</time>
      </trkpt>
      <trkpt lat="42.3147840" lon="-8.6066610">
        <ele>143.7</ele>
        <time>2019-08-17T08:46:37Z</time>
      </trkpt>
      <trkpt lat="42.3149040" lon="-8.6067070">
        <ele>144.3</ele>
        <time>2019-08-17T08:46:43Z</time>
      </trkpt>
      <trkpt lat="42.3149400" lon="-8.6067350">
        <ele>144.5</ele>
        <time>2019-08-17T08:46:45Z</time>
      </trkpt>
      <trkpt lat="42.3149560" lon="-8.6067540">
        <ele>144.6</ele>
        <time>2019-08-17T08:46:46Z</time>
      </trkpt>
      <trkpt lat="42.3149790" lon="-8.6067760">
        <ele>144.7</ele>
        <time>2019-08-17T08:46:47Z</time>
      </trkpt>
      <trkpt lat="42.3150100" lon="-8.6068010">
        <ele>144.9</ele>
        <time>2019-08-17T08:46:48Z</time>
      </trkpt>
      <trkpt lat="42.3150410" lon="-8.6068320">
        <ele>145.0</ele>
        <time>2019-08-17T08:46:49Z</time>
      </trkpt>
      <trkpt lat="42.3152750" lon="-8.6070050">
        <ele>145.5</ele>
        <time>2019-08-17T08:46:55Z</time>
      </trkpt>
      <trkpt lat="42.3154560" lon="-8.6070900">
        <ele>146.0</ele>
        <time>2019-08-17T08:47:01Z</time>
      </trkpt>
      <trkpt lat="42.3156030" lon="-8.6071800">
        <ele>146.3</ele>
        <time>2019-08-17T08:47:06Z</time>
      </trkpt>
      <trkpt lat="42.3157970" lon="-8.6073470">
        <ele>146.8</ele>
        <time>2019-08-17T08:47:13Z</time>
      </trkpt>
      <trkpt lat="42.3160160" lon="-8.6074350">
        <ele>147.7</ele>
        <time>2019-08-17T08:47:20Z</time>
      </trkpt>
      <trkpt lat="42.3160350" lon="-8.6074270">
        <ele>147.9</ele>
        <time>2019-08-17T08:47:21Z</time>
      </trkpt>
      <trkpt lat="42.3160670" lon="-8.6074200">
        <ele>148.1</ele>
        <time>2019-08-17T08:47:22Z</time>
      </trkpt>
      <trkpt lat="42.3160930" lon="-8.6074200">
        <ele>148.2</ele>
        <time>2019-08-17T08:47:23Z</time>
      </trkpt>
      <trkpt lat="42.3161210" lon="-8.6074220">
        <ele>148.4</ele>
        <time>2019-08-17T08:47:24Z</time>
      </trkpt>
      <trkpt lat="42.3161500" lon="-8.6074190">
        <ele>148.6</ele>
        <time>2019-08-17T08:47:25Z</time>
      </trkpt>
      <trkpt lat="42.3161870" lon="-8.6074170">
        <ele>148.8</ele>
        <time>2019-08-17T08:47:27Z</time>
      </trkpt>
      <trkpt lat="42.3162180" lon="-8.6074210">
        <ele>149.0</ele>
        <time>2019-08-17T08:47:28Z</time>
      </trkpt>
      <trkpt lat="42.3162410" lon="-8.6074260">
        <ele>149.2</ele>
        <time>2019-08-17T08:47:29Z</time>
      </trkpt>
      <trkpt lat="42.3162630" lon="-8.6074330">
        <ele>149.4</ele>
        <time>2019-08-17T08:47:30Z</time>
      </trkpt>
      <trkpt lat="42.3162810" lon="-8.6074350">
        <ele>149.5</ele>
        <time>2019-08-17T08:47:31Z</time>
      </trkpt>
      <trkpt lat="42.3162970" lon="-8.6074340">
        <ele>149.7</ele>
        <time>2019-08-17T08:47:32Z</time>
      </trkpt>
      <trkpt lat="42.3163190" lon="-8.6074420">
        <ele>149.8</ele>
        <time>2019-08-17T08:47:33Z</time>
      </trkpt>
      <trkpt lat="42.3163360" lon="-8.6074490">
        <ele>150.0</ele>
        <time>2019-08-17T08:47:34Z</time>
      </trkpt>
      <trkpt lat="42.3163520" lon="-8.6074550">
        <ele>150.1</ele>
        <time>2019-08-17T08:47:35Z</time>
      </trkpt>
      <trkpt lat="42.3163590" lon="-8.6074540">
        <ele>150.2</ele>
        <time>2019-08-17T08:47:36Z</time>
      </trkpt>
      <trkpt lat="42.3163650" lon="-8.6074630">
        <ele>150.3</ele>
        <time>2019-08-17T08:47:37Z</time>
      </trkpt>
      <trkpt lat="42.3163780" lon="-8.6074590">
        <ele>150.4</ele>
        <time>2019-08-17T08:48:55Z</time>
      </trkpt>
      <trkpt lat="42.3164010" lon="-8.6074620">
        <ele>150.5</ele>
        <time>2019-08-17T08:48:56Z</time>
      </trkpt>
      <trkpt lat="42.3165450" lon="-8.6074480">
        <ele>149.3</ele>
        <time>2019-08-17T08:48:59Z</time>
      </trkpt>
      <trkpt lat="42.3165960" lon="-8.6074210">
        <ele>148.5</ele>
        <time>2019-08-17T08:49:00Z</time>
      </trkpt>
      <trkpt lat="42.3166370" lon="-8.6073920">
        <ele>148.1</ele>
        <time>2019-08-17T08:49:01Z</time>
      </trkpt>
      <trkpt lat="42.3166910" lon="-8.6073520">
        <ele>147.6</ele>
        <time>2019-08-17T08:49:02Z</time>
      </trkpt>
      <trkpt lat="42.3167340" lon="-8.6073130">
        <ele>147.3</ele>
        <time>2019-08-17T08:49:03Z</time>
      </trkpt>
      <trkpt lat="42.3167770" lon="-8.6072810">
        <ele>147.2</ele>
        <time>2019-08-17T08:49:04Z</time>
      </trkpt>
      <trkpt lat="42.3168210" lon="-8.6072470">
        <ele>147.0</ele>
        <time>2019-08-17T08:49:05Z</time>
      </trkpt>
      <trkpt lat="42.3170680" lon="-8.6070530">
        <ele>146.7</ele>
        <time>2019-08-17T08:49:11Z</time>
      </trkpt>
      <trkpt lat="42.3173270" lon="-8.6069140">
        <ele>146.5</ele>
        <time>2019-08-17T08:49:17Z</time>
      </trkpt>
      <trkpt lat="42.3174540" lon="-8.6067760">
        <ele>146.3</ele>
        <time>2019-08-17T08:49:21Z</time>
      </trkpt>
      <trkpt lat="42.3174940" lon="-8.6067360">
        <ele>146.2</ele>
        <time>2019-08-17T08:49:22Z</time>
      </trkpt>
      <trkpt lat="42.3175250" lon="-8.6066850">
        <ele>146.1</ele>
        <time>2019-08-17T08:49:23Z</time>
      </trkpt>
      <trkpt lat="42.3175940" lon="-8.6066380">
        <ele>146.0</ele>
        <time>2019-08-17T08:49:24Z</time>
      </trkpt>
      <trkpt lat="42.3176830" lon="-8.6065840">
        <ele>145.7</ele>
        <time>2019-08-17T08:49:25Z</time>
      </trkpt>
      <trkpt lat="42.3178450" lon="-8.6064050">
        <ele>144.7</ele>
        <time>2019-08-17T08:49:28Z</time>
      </trkpt>
      <trkpt lat="42.3179090" lon="-8.6063420">
        <ele>144.4</ele>
        <time>2019-08-17T08:49:29Z</time>
      </trkpt>
      <trkpt lat="42.3179570" lon="-8.6062730">
        <ele>144.1</ele>
        <time>2019-08-17T08:49:30Z</time>
      </trkpt>
      <trkpt lat="42.3179970" lon="-8.6062040">
        <ele>143.9</ele>
        <time>2019-08-17T08:49:31Z</time>
      </trkpt>
      <trkpt lat="42.3180380" lon="-8.6061330">
        <ele>143.6</ele>
        <time>2019-08-17T08:49:32Z</time>
      </trkpt>
      <trkpt lat="42.3181220" lon="-8.6060090">
        <ele>142.7</ele>
        <time>2019-08-17T08:49:34Z</time>
      </trkpt>
      <trkpt lat="42.3181920" lon="-8.6059630">
        <ele>142.2</ele>
        <time>2019-08-17T08:49:35Z</time>
      </trkpt>
      <trkpt lat="42.3182560" lon="-8.6059260">
        <ele>141.7</ele>
        <time>2019-08-17T08:49:36Z</time>
      </trkpt>
      <trkpt lat="42.3183080" lon="-8.6059070">
        <ele>141.3</ele>
        <time>2019-08-17T08:49:37Z</time>
      </trkpt>
      <trkpt lat="42.3183570" lon="-8.6059060">
        <ele>141.1</ele>
        <time>2019-08-17T08:49:38Z</time>
      </trkpt>
      <trkpt lat="42.3186050" lon="-8.6060070">
        <ele>140.4</ele>
        <time>2019-08-17T08:49:41Z</time>
      </trkpt>
      <trkpt lat="42.3188440" lon="-8.6060800">
        <ele>140.1</ele>
        <time>2019-08-17T08:49:45Z</time>
      </trkpt>
      <trkpt lat="42.3188930" lon="-8.6060880">
        <ele>140.1</ele>
        <time>2019-08-17T08:49:46Z</time>
      </trkpt>
      <trkpt lat="42.3192110" lon="-8.6061380">
        <ele>139.7</ele>
        <time>2019-08-17T08:49:51Z</time>
      </trkpt>
      <trkpt lat="42.3193050" lon="-8.6061510">
        <ele>139.6</ele>
        <time>2019-08-17T08:49:52Z</time>
      </trkpt>
      <trkpt lat="42.3193560" lon="-8.6061660">
        <ele>139.4</ele>
        <time>2019-08-17T08:49:53Z</time>
      </trkpt>
      <trkpt lat="42.3194070" lon="-8.6061890">
        <ele>139.2</ele>
        <time>2019-08-17T08:49:54Z</time>
      </trkpt>
      <trkpt lat="42.3194870" lon="-8.6062230">
        <ele>138.8</ele>
        <time>2019-08-17T08:49:55Z</time>
      </trkpt>
      <trkpt lat="42.3195930" lon="-8.6062750">
        <ele>138.2</ele>
        <time>2019-08-17T08:49:56Z</time>
      </trkpt>
      <trkpt lat="42.3197070" lon="-8.6063330">
        <ele>137.5</ele>
        <time>2019-08-17T08:49:57Z</time>
      </trkpt>
      <trkpt lat="42.3197810" lon="-8.6063870">
        <ele>137.0</ele>
        <time>2019-08-17T08:49:58Z</time>
      </trkpt>
      <trkpt lat="42.3198420" lon="-8.6064370">
        <ele>136.5</ele>
        <time>2019-08-17T08:49:59Z</time>
      </trkpt>
      <trkpt lat="42.3198670" lon="-8.6064920">
        <ele>136.2</ele>
        <time>2019-08-17T08:50:00Z</time>
      </trkpt>
      <trkpt lat="42.3199130" lon="-8.6065310">
        <ele>135.7</ele>
        <time>2019-08-17T08:50:01Z</time>
      </trkpt>
      <trkpt lat="42.3199730" lon="-8.6065740">
        <ele>135.2</ele>
        <time>2019-08-17T08:50:02Z</time>
      </trkpt>
      <trkpt lat="42.3200360" lon="-8.6066370">
        <ele>134.5</ele>
        <time>2019-08-17T08:50:03Z</time>
      </trkpt>
      <trkpt lat="42.3200960" lon="-8.6067160">
        <ele>133.8</ele>
        <time>2019-08-17T08:50:04Z</time>
      </trkpt>
      <trkpt lat="42.3201590" lon="-8.6068140">
        <ele>133.0</ele>
        <time>2019-08-17T08:50:05Z</time>
      </trkpt>
      <trkpt lat="42.3202190" lon="-8.6069160">
        <ele>132.3</ele>
        <time>2019-08-17T08:50:06Z</time>
      </trkpt>
      <trkpt lat="42.3202740" lon="-8.6070170">
        <ele>131.7</ele>
        <time>2019-08-17T08:50:07Z</time>
      </trkpt>
      <trkpt lat="42.3203310" lon="-8.6071080">
        <ele>131.1</ele>
        <time>2019-08-17T08:50:08Z</time>
      </trkpt>
      <trkpt lat="42.3204120" lon="-8.6072060">
        <ele>130.3</ele>
        <time>2019-08-17T08:50:09Z</time>
      </trkpt>
      <trkpt lat="42.3204890" lon="-8.6072970">
        <ele>129.5</ele>
        <time>2019-08-17T08:50:10Z</time>
      </trkpt>
      <trkpt lat="42.3205750" lon="-8.6073800">
        <ele>128.6</ele>
        <time>2019-08-17T08:50:11Z</time>
      </trkpt>
      <trkpt lat="42.3206600" lon="-8.6074410">
        <ele>127.6</ele>
        <time>2019-08-17T08:50:12Z</time>
      </trkpt>
      <trkpt lat="42.3207530" lon="-8.6074820">
        <ele>126.6</ele>
        <time>2019-08-17T08:50:13Z</time>
      </trkpt>
      <trkpt lat="42.3208500" lon="-8.6075040">
        <ele>125.5</ele>
        <time>2019-08-17T08:50:14Z</time>
      </trkpt>
      <trkpt lat="42.3209500" lon="-8.6075180">
        <ele>124.4</ele>
        <time>2019-08-17T08:50:15Z</time>
      </trkpt>
      <trkpt lat="42.3210520" lon="-8.6075310">
        <ele>123.3</ele>
        <time>2019-08-17T08:50:16Z</time>
      </trkpt>
      <trkpt lat="42.3211510" lon="-8.6075370">
        <ele>122.2</ele>
        <time>2019-08-17T08:50:17Z</time>
      </trkpt>
      <trkpt lat="42.3212580" lon="-8.6075270">
        <ele>121.0</ele>
        <time>2019-08-17T08:50:18Z</time>
      </trkpt>
      <trkpt lat="42.3213570" lon="-8.6074950">
        <ele>120.0</ele>
        <time>2019-08-17T08:50:19Z</time>
      </trkpt>
      <trkpt lat="42.3214480" lon="-8.6074600">
        <ele>119.1</ele>
        <time>2019-08-17T08:50:20Z</time>
      </trkpt>
      <trkpt lat="42.3215400" lon="-8.6074280">
        <ele>118.3</ele>
        <time>2019-08-17T08:50:21Z</time>
      </trkpt>
      <trkpt lat="42.3216170" lon="-8.6074000">
        <ele>117.6</ele>
        <time>2019-08-17T08:50:22Z</time>
      </trkpt>
      <trkpt lat="42.3216980" lon="-8.6073730">
        <ele>116.9</ele>
        <time>2019-08-17T08:50:23Z</time>
      </trkpt>
      <trkpt lat="42.3217790" lon="-8.6073440">
        <ele>116.2</ele>
        <time>2019-08-17T08:50:24Z</time>
      </trkpt>
      <trkpt lat="42.3218650" lon="-8.6073160">
        <ele>115.4</ele>
        <time>2019-08-17T08:50:25Z</time>
      </trkpt>
      <trkpt lat="42.3219480" lon="-8.6072920">
        <ele>114.6</ele>
        <time>2019-08-17T08:50:26Z</time>
      </trkpt>
      <trkpt lat="42.3220320" lon="-8.6072650">
        <ele>113.7</ele>
        <time>2019-08-17T08:50:27Z</time>
      </trkpt>
      <trkpt lat="42.3221130" lon="-8.6072390">
        <ele>112.8</ele>
        <time>2019-08-17T08:50:28Z</time>
      </trkpt>
      <trkpt lat="42.3221920" lon="-8.6072210">
        <ele>112.0</ele>
        <time>2019-08-17T08:50:29Z</time>
      </trkpt>
      <trkpt lat="42.3222820" lon="-8.6072080">
        <ele>111.1</ele>
        <time>2019-08-17T08:50:30Z</time>
      </trkpt>
      <trkpt lat="42.3223560" lon="-8.6072000">
        <ele>110.4</ele>
        <time>2019-08-17T08:50:31Z</time>
      </trkpt>
      <trkpt lat="42.3224170" lon="-8.6071920">
        <ele>109.8</ele>
        <time>2019-08-17T08:50:32Z</time>
      </trkpt>
      <trkpt lat="42.3224700" lon="-8.6071840">
        <ele>109.3</ele>
        <time>2019-08-17T08:50:33Z</time>
      </trkpt>
      <trkpt lat="42.3225420" lon="-8.6071830">
        <ele>108.5</ele>
        <time>2019-08-17T08:50:34Z</time>
      </trkpt>
      <trkpt lat="42.3225960" lon="-8.6071800">
        <ele>107.9</ele>
        <time>2019-08-17T08:50:35Z</time>
      </trkpt>
      <trkpt lat="42.3226390" lon="-8.6071760">
        <ele>107.4</ele>
        <time>2019-08-17T08:50:36Z</time>
      </trkpt>
      <trkpt lat="42.3227050" lon="-8.6071780">
        <ele>106.5</ele>
        <time>2019-08-17T08:50:37Z</time>
      </trkpt>
      <trkpt lat="42.3227640" lon="-8.6071820">
        <ele>105.6</ele>
        <time>2019-08-17T08:50:38Z</time>
      </trkpt>
      <trkpt lat="42.3228030" lon="-8.6071830">
        <ele>105.0</ele>
        <time>2019-08-17T08:50:39Z</time>
      </trkpt>
      <trkpt lat="42.3228460" lon="-8.6071830">
        <ele>104.3</ele>
        <time>2019-08-17T08:50:40Z</time>
      </trkpt>
      <trkpt lat="42.3228940" lon="-8.6071830">
        <ele>103.5</ele>
        <time>2019-08-17T08:50:41Z</time>
      </trkpt>
      <trkpt lat="42.3229430" lon="-8.6071810">
        <ele>102.6</ele>
        <time>2019-08-17T08:50:42Z</time>
      </trkpt>
      <trkpt lat="42.3229940" lon="-8.6071790">
        <ele>101.5</ele>
        <time>2019-08-17T08:50:43Z</time>
      </trkpt>
      <trkpt lat="42.3230490" lon="-8.6071780">
        <ele>100.2</ele>
        <time>2019-08-17T08:50:44Z</time>
      </trkpt>
      <trkpt lat="42.3231080" lon="-8.6071750">
        <ele>98.6</ele>
        <time>2019-08-17T08:50:45Z</time>
      </trkpt>
      <trkpt lat="42.3231670" lon="-8.6071720">
        <ele>96.9</ele>
        <time>2019-08-17T08:50:46Z</time>
      </trkpt>
      <trkpt lat="42.3232300" lon="-8.6071690">
        <ele>94.8</ele>
        <time>2019-08-17T08:50:47Z</time>
      </trkpt>
      <trkpt lat="42.3232930" lon="-8.6071690">
        <ele>92.6</ele>
        <time>2019-08-17T08:50:48Z</time>
      </trkpt>
      <trkpt lat="42.3233790" lon="-8.6071810">
        <ele>89.9</ele>
        <time>2019-08-17T08:50:49Z</time>
      </trkpt>
      <trkpt lat="42.3234580" lon="-8.6071930">
        <ele>89.2</ele>
        <time>2019-08-17T08:50:50Z</time>
      </trkpt>
      <trkpt lat="42.3235270" lon="-8.6071980">
        <ele>88.5</ele>
        <time>2019-08-17T08:50:51Z</time>
      </trkpt>
      <trkpt lat="42.3236080" lon="-8.6072010">
        <ele>87.7</ele>
        <time>2019-08-17T08:50:52Z</time>
      </trkpt>
      <trkpt lat="42.3236780" lon="-8.6071920">
        <ele>87.0</ele>
        <time>2019-08-17T08:50:53Z</time>
      </trkpt>
      <trkpt lat="42.3238860" lon="-8.6071470">
        <ele>86.2</ele>
        <time>2019-08-17T08:50:56Z</time>
      </trkpt>
      <trkpt lat="42.3241630" lon="-8.6070250">
        <ele>84.8</ele>
        <time>2019-08-17T08:51:01Z</time>
      </trkpt>
      <trkpt lat="42.3242070" lon="-8.6070090">
        <ele>84.4</ele>
        <time>2019-08-17T08:51:02Z</time>
      </trkpt>
      <trkpt lat="42.3242530" lon="-8.6069890">
        <ele>83.9</ele>
        <time>2019-08-17T08:51:03Z</time>
      </trkpt>
      <trkpt lat="42.3243050" lon="-8.6069700">
        <ele>83.4</ele>
        <time>2019-08-17T08:51:04Z</time>
      </trkpt>
      <trkpt lat="42.3243650" lon="-8.6069450">
        <ele>82.7</ele>
        <time>2019-08-17T08:51:05Z</time>
      </trkpt>
      <trkpt lat="42.3244260" lon="-8.6069170">
        <ele>82.1</ele>
        <time>2019-08-17T08:51:06Z</time>
      </trkpt>
      <trkpt lat="42.3244790" lon="-8.6068820">
        <ele>81.4</ele>
        <time>2019-08-17T08:51:07Z</time>
      </trkpt>
      <trkpt lat="42.3245260" lon="-8.6068480">
        <ele>80.8</ele>
        <time>2019-08-17T08:51:08Z</time>
      </trkpt>
      <trkpt lat="42.3245740" lon="-8.6068140">
        <ele>80.2</ele>
        <time>2019-08-17T08:51:09Z</time>
      </trkpt>
      <trkpt lat="42.3246160" lon="-8.6067840">
        <ele>79.7</ele>
        <time>2019-08-17T08:51:10Z</time>
      </trkpt>
      <trkpt lat="42.3246460" lon="-8.6067550">
        <ele>79.3</ele>
        <time>2019-08-17T08:51:11Z</time>
      </trkpt>
      <trkpt lat="42.3246980" lon="-8.6067120">
        <ele>78.5</ele>
        <time>2019-08-17T08:51:12Z</time>
      </trkpt>
      <trkpt lat="42.3247330" lon="-8.6066690">
        <ele>77.9</ele>
        <time>2019-08-17T08:51:13Z</time>
      </trkpt>
      <trkpt lat="42.3247940" lon="-8.6066100">
        <ele>76.8</ele>
        <time>2019-08-17T08:51:14Z</time>
      </trkpt>
      <trkpt lat="42.3248520" lon="-8.6065410">
        <ele>75.7</ele>
        <time>2019-08-17T08:51:15Z</time>
      </trkpt>
      <trkpt lat="42.3249300" lon="-8.6064600">
        <ele>74.1</ele>
        <time>2019-08-17T08:51:16Z</time>
      </trkpt>
      <trkpt lat="42.3250120" lon="-8.6063880">
        <ele>72.6</ele>
        <time>2019-08-17T08:51:17Z</time>
      </trkpt>
      <trkpt lat="42.3250700" lon="-8.6063090">
        <ele>71.4</ele>
        <time>2019-08-17T08:51:18Z</time>
      </trkpt>
      <trkpt lat="42.3251250" lon="-8.6062320">
        <ele>70.4</ele>
        <time>2019-08-17T08:51:19Z</time>
      </trkpt>
      <trkpt lat="42.3251870" lon="-8.6061610">
        <ele>69.4</ele>
        <time>2019-08-17T08:51:20Z</time>
      </trkpt>
      <trkpt lat="42.3252470" lon="-8.6060980">
        <ele>68.6</ele>
        <time>2019-08-17T08:51:21Z</time>
      </trkpt>
      <trkpt lat="42.3253220" lon="-8.6060580">
        <ele>67.7</ele>
        <time>2019-08-17T08:51:22Z</time>
      </trkpt>
      <trkpt lat="42.3253940" lon="-8.6060290">
        <ele>66.9</ele>
        <time>2019-08-17T08:51:23Z</time>
      </trkpt>
      <trkpt lat="42.3254670" lon="-8.6060160">
        <ele>66.2</ele>
        <time>2019-08-17T08:51:24Z</time>
      </trkpt>
      <trkpt lat="42.3255540" lon="-8.6060420">
        <ele>65.4</ele>
        <time>2019-08-17T08:51:25Z</time>
      </trkpt>
      <trkpt lat="42.3256260" lon="-8.6060620">
        <ele>64.8</ele>
        <time>2019-08-17T08:51:26Z</time>
      </trkpt>
      <trkpt lat="42.3256920" lon="-8.6060570">
        <ele>64.2</ele>
        <time>2019-08-17T08:51:27Z</time>
      </trkpt>
      <trkpt lat="42.3257650" lon="-8.6060400">
        <ele>63.6</ele>
        <time>2019-08-17T08:51:28Z</time>
      </trkpt>
      <trkpt lat="42.3258310" lon="-8.6060050">
        <ele>63.1</ele>
        <time>2019-08-17T08:51:29Z</time>
      </trkpt>
      <trkpt lat="42.3259120" lon="-8.6059250">
        <ele>62.2</ele>
        <time>2019-08-17T08:51:30Z</time>
      </trkpt>
      <trkpt lat="42.3260460" lon="-8.6058330">
        <ele>60.9</ele>
        <time>2019-08-17T08:51:31Z</time>
      </trkpt>
      <trkpt lat="42.3261460" lon="-8.6057410">
        <ele>60.0</ele>
        <time>2019-08-17T08:51:32Z</time>
      </trkpt>
      <trkpt lat="42.3263310" lon="-8.6056550">
        <ele>58.4</ele>
        <time>2019-08-17T08:51:33Z</time>
      </trkpt>
      <trkpt lat="42.3264650" lon="-8.6055840">
        <ele>56.9</ele>
        <time>2019-08-17T08:51:34Z</time>
      </trkpt>
      <trkpt lat="42.3266230" lon="-8.6055300">
        <ele>54.8</ele>
        <time>2019-08-17T08:51:35Z</time>
      </trkpt>
      <trkpt lat="42.3267750" lon="-8.6055040">
        <ele>53.3</ele>
        <time>2019-08-17T08:51:36Z</time>
      </trkpt>
      <trkpt lat="42.3269260" lon="-8.6054970">
        <ele>52.4</ele>
        <time>2019-08-17T08:51:37Z</time>
      </trkpt>
      <trkpt lat="42.3270950" lon="-8.6055050">
        <ele>52.1</ele>
        <time>2019-08-17T08:51:38Z</time>
      </trkpt>
      <trkpt lat="42.3274030" lon="-8.6055530">
        <ele>52.9</ele>
        <time>2019-08-17T08:51:40Z</time>
      </trkpt>
      <trkpt lat="42.3275310" lon="-8.6055720">
        <ele>53.6</ele>
        <time>2019-08-17T08:51:41Z</time>
      </trkpt>
      <trkpt lat="42.3276230" lon="-8.6055940">
        <ele>54.2</ele>
        <time>2019-08-17T08:51:42Z</time>
      </trkpt>
      <trkpt lat="42.3276940" lon="-8.6056210">
        <ele>55.0</ele>
        <time>2019-08-17T08:51:43Z</time>
      </trkpt>
      <trkpt lat="42.3277870" lon="-8.6056450">
        <ele>56.0</ele>
        <time>2019-08-17T08:51:44Z</time>
      </trkpt>
      <trkpt lat="42.3279760" lon="-8.6056810">
        <ele>56.8</ele>
        <time>2019-08-17T08:51:45Z</time>
      </trkpt>
      <trkpt lat="42.3280590" lon="-8.6057000">
        <ele>57.1</ele>
        <time>2019-08-17T08:51:46Z</time>
      </trkpt>
      <trkpt lat="42.3281440" lon="-8.6057240">
        <ele>57.4</ele>
        <time>2019-08-17T08:51:47Z</time>
      </trkpt>
      <trkpt lat="42.3282510" lon="-8.6057570">
        <ele>57.8</ele>
        <time>2019-08-17T08:51:48Z</time>
      </trkpt>
      <trkpt lat="42.3283380" lon="-8.6057850">
        <ele>58.1</ele>
        <time>2019-08-17T08:51:49Z</time>
      </trkpt>
      <trkpt lat="42.3284240" lon="-8.6058110">
        <ele>58.4</ele>
        <time>2019-08-17T08:51:50Z</time>
      </trkpt>
      <trkpt lat="42.3284990" lon="-8.6058370">
        <ele>58.7</ele>
        <time>2019-08-17T08:51:51Z</time>
      </trkpt>
      <trkpt lat="42.3285640" lon="-8.6058690">
        <ele>59.0</ele>
        <time>2019-08-17T08:51:52Z</time>
      </trkpt>
      <trkpt lat="42.3286300" lon="-8.6059060">
        <ele>59.3</ele>
        <time>2019-08-17T08:51:53Z</time>
      </trkpt>
      <trkpt lat="42.3286890" lon="-8.6059450">
        <ele>59.6</ele>
        <time>2019-08-17T08:51:54Z</time>
      </trkpt>
      <trkpt lat="42.3287420" lon="-8.6059820">
        <ele>60.0</ele>
        <time>2019-08-17T08:51:55Z</time>
      </trkpt>
      <trkpt lat="42.3288920" lon="-8.6060880">
        <ele>61.0</ele>
        <time>2019-08-17T08:51:58Z</time>
      </trkpt>
      <trkpt lat="42.3289570" lon="-8.6061150">
        <ele>61.4</ele>
        <time>2019-08-17T08:51:59Z</time>
      </trkpt>
      <trkpt lat="42.3290160" lon="-8.6061470">
        <ele>61.8</ele>
        <time>2019-08-17T08:52:00Z</time>
      </trkpt>
      <trkpt lat="42.3290670" lon="-8.6061820">
        <ele>62.1</ele>
        <time>2019-08-17T08:52:01Z</time>
      </trkpt>
      <trkpt lat="42.3291160" lon="-8.6062160">
        <ele>62.4</ele>
        <time>2019-08-17T08:52:02Z</time>
      </trkpt>
      <trkpt lat="42.3292420" lon="-8.6063130">
        <ele>63.2</ele>
        <time>2019-08-17T08:52:05Z</time>
      </trkpt>
      <trkpt lat="42.3292790" lon="-8.6063370">
        <ele>63.4</ele>
        <time>2019-08-17T08:52:06Z</time>
      </trkpt>
      <trkpt lat="42.3293080" lon="-8.6063700">
        <ele>63.6</ele>
        <time>2019-08-17T08:52:07Z</time>
      </trkpt>
      <trkpt lat="42.3293470" lon="-8.6063990">
        <ele>63.8</ele>
        <time>2019-08-17T08:52:08Z</time>
      </trkpt>
      <trkpt lat="42.3293880" lon="-8.6064270">
        <ele>64.0</ele>
        <time>2019-08-17T08:52:09Z</time>
      </trkpt>
      <trkpt lat="42.3296550" lon="-8.6065560">
        <ele>65.2</ele>
        <time>2019-08-17T08:52:15Z</time>
      </trkpt>
      <trkpt lat="42.3297000" lon="-8.6065730">
        <ele>65.4</ele>
        <time>2019-08-17T08:52:16Z</time>
      </trkpt>
      <trkpt lat="42.3297440" lon="-8.6065890">
        <ele>65.5</ele>
        <time>2019-08-17T08:52:17Z</time>
      </trkpt>
      <trkpt lat="42.3297890" lon="-8.6066040">
        <ele>65.7</ele>
        <time>2019-08-17T08:52:18Z</time>
      </trkpt>
      <trkpt lat="42.3298350" lon="-8.6066140">
        <ele>65.9</ele>
        <time>2019-08-17T08:52:19Z</time>
      </trkpt>
      <trkpt lat="42.3300070" lon="-8.6066350">
        <ele>66.7</ele>
        <time>2019-08-17T08:52:23Z</time>
      </trkpt>
      <trkpt lat="42.3300430" lon="-8.6066390">
        <ele>66.8</ele>
        <time>2019-08-17T08:52:24Z</time>
      </trkpt>
      <trkpt lat="42.3300860" lon="-8.6066510">
        <ele>67.0</ele>
        <time>2019-08-17T08:52:25Z</time>
      </trkpt>
      <trkpt lat="42.3301250" lon="-8.6066540">
        <ele>67.1</ele>
        <time>2019-08-17T08:52:26Z</time>
      </trkpt>
      <trkpt lat="42.3301660" lon="-8.6066550">
        <ele>67.3</ele>
        <time>2019-08-17T08:52:27Z</time>
      </trkpt>
      <trkpt lat="42.3302550" lon="-8.6066600">
        <ele>67.6</ele>
        <time>2019-08-17T08:52:29Z</time>
      </trkpt>
      <trkpt lat="42.3304690" lon="-8.6066530">
        <ele>68.1</ele>
        <time>2019-08-17T08:52:34Z</time>
      </trkpt>
      <trkpt lat="42.3305080" lon="-8.6066510">
        <ele>68.2</ele>
        <time>2019-08-17T08:52:35Z</time>
      </trkpt>
      <trkpt lat="42.3305510" lon="-8.6066510">
        <ele>68.3</ele>
        <time>2019-08-17T08:52:36Z</time>
      </trkpt>
      <trkpt lat="42.3305830" lon="-8.6066830">
        <ele>68.4</ele>
        <time>2019-08-17T08:52:37Z</time>
      </trkpt>
      <trkpt lat="42.3306190" lon="-8.6066870">
        <ele>68.5</ele>
        <time>2019-08-17T08:52:38Z</time>
      </trkpt>
      <trkpt lat="42.3309270" lon="-8.6067360">
        <ele>69.4</ele>
        <time>2019-08-17T08:52:47Z</time>
      </trkpt>
      <trkpt lat="42.3309550" lon="-8.6067410">
        <ele>69.5</ele>
        <time>2019-08-17T08:52:48Z</time>
      </trkpt>
      <trkpt lat="42.3309860" lon="-8.6067450">
        <ele>69.6</ele>
        <time>2019-08-17T08:52:49Z</time>
      </trkpt>
      <trkpt lat="42.3310150" lon="-8.6067490">
        <ele>69.7</ele>
        <time>2019-08-17T08:52:50Z</time>
      </trkpt>
      <trkpt lat="42.3310440" lon="-8.6067500">
        <ele>69.7</ele>
        <time>2019-08-17T08:52:51Z</time>
      </trkpt>
      <trkpt lat="42.3311580" lon="-8.6067540">
        <ele>69.9</ele>
        <time>2019-08-17T08:52:55Z</time>
      </trkpt>
      <trkpt lat="42.3313820" lon="-8.6067650">
        <ele>69.7</ele>
        <time>2019-08-17T08:53:02Z</time>
      </trkpt>
      <trkpt lat="42.3316090" lon="-8.6068000">
        <ele>68.9</ele>
        <time>2019-08-17T08:53:09Z</time>
      </trkpt>
      <trkpt lat="42.3316360" lon="-8.6068020">
        <ele>68.8</ele>
        <time>2019-08-17T08:53:10Z</time>
      </trkpt>
      <trkpt lat="42.3316640" lon="-8.6068020">
        <ele>68.7</ele>
        <time>2019-08-17T08:53:11Z</time>
      </trkpt>
      <trkpt lat="42.3316930" lon="-8.6068040">
        <ele>68.7</ele>
        <time>2019-08-17T08:53:12Z</time>
      </trkpt>
      <trkpt lat="42.3317190" lon="-8.6068030">
        <ele>68.6</ele>
        <time>2019-08-17T08:53:13Z</time>
      </trkpt>
      <trkpt lat="42.3317930" lon="-8.6067920">
        <ele>68.6</ele>
        <time>2019-08-17T08:53:16Z</time>
      </trkpt>
      <trkpt lat="42.3320340" lon="-8.6067770">
        <ele>68.3</ele>
        <time>2019-08-17T08:53:23Z</time>
      </trkpt>
      <trkpt lat="42.3321190" lon="-8.6067730">
        <ele>68.2</ele>
        <time>2019-08-17T08:53:25Z</time>
      </trkpt>
      <trkpt lat="42.3321650" lon="-8.6067710">
        <ele>68.2</ele>
        <time>2019-08-17T08:53:26Z</time>
      </trkpt>
      <trkpt lat="42.3322140" lon="-8.6067700">
        <ele>68.2</ele>
        <time>2019-08-17T08:53:27Z</time>
      </trkpt>
      <trkpt lat="42.3322630" lon="-8.6067740">
        <ele>68.2</ele>
        <time>2019-08-17T08:53:28Z</time>
      </trkpt>
      <trkpt lat="42.3323130" lon="-8.6067810">
        <ele>68.3</ele>
        <time>2019-08-17T08:53:29Z</time>
      </trkpt>
      <trkpt lat="42.3324240" lon="-8.6067930">
        <ele>68.3</ele>
        <time>2019-08-17T08:53:31Z</time>
      </trkpt>
      <trkpt lat="42.3324770" lon="-8.6067890">
        <ele>68.3</ele>
        <time>2019-08-17T08:53:32Z</time>
      </trkpt>
      <trkpt lat="42.3325270" lon="-8.6067880">
        <ele>68.3</ele>
        <time>2019-08-17T08:53:33Z</time>
      </trkpt>
      <trkpt lat="42.3325800" lon="-8.6067870">
        <ele>68.3</ele>
        <time>2019-08-17T08:53:34Z</time>
      </trkpt>
      <trkpt lat="42.3326310" lon="-8.6067860">
        <ele>68.3</ele>
        <time>2019-08-17T08:53:35Z</time>
      </trkpt>
      <trkpt lat="42.3326860" lon="-8.6067850">
        <ele>68.3</ele>
        <time>2019-08-17T08:53:36Z</time>
      </trkpt>
      <trkpt lat="42.3328330" lon="-8.6067870">
        <ele>68.3</ele>
        <time>2019-08-17T08:53:39Z</time>
      </trkpt>
      <trkpt lat="42.3328720" lon="-8.6068360">
        <ele>68.2</ele>
        <time>2019-08-17T08:53:40Z</time>
      </trkpt>
      <trkpt lat="42.3329550" lon="-8.6070850">
        <ele>67.5</ele>
        <time>2019-08-17T08:53:46Z</time>
      </trkpt>
      <trkpt lat="42.3330630" lon="-8.6072470">
        <ele>67.2</ele>
        <time>2019-08-17T08:53:53Z</time>
      </trkpt>
      <trkpt lat="42.3331200" lon="-8.6072990">
        <ele>67.0</ele>
        <time>2019-08-17T08:53:56Z</time>
      </trkpt>
      <trkpt lat="42.3331880" lon="-8.6073480">
        <ele>66.7</ele>
        <time>2019-08-17T08:53:59Z</time>
      </trkpt>
      <trkpt lat="42.3332460" lon="-8.6073780">
        <ele>66.3</ele>
        <time>2019-08-17T08:54:01Z</time>
      </trkpt>
      <trkpt lat="42.3332740" lon="-8.6073900">
        <ele>66.1</ele>
        <time>2019-08-17T08:54:02Z</time>
      </trkpt>
      <trkpt lat="42.3332990" lon="-8.6073980">
        <ele>65.9</ele>
        <time>2019-08-17T08:54:03Z</time>
      </trkpt>
      <trkpt lat="42.3333240" lon="-8.6074040">
        <ele>65.7</ele>
        <time>2019-08-17T08:54:04Z</time>
      </trkpt>
      <trkpt lat="42.3333520" lon="-8.6074100">
        <ele>65.5</ele>
        <time>2019-08-17T08:54:05Z</time>
      </trkpt>
      <trkpt lat="42.3333790" lon="-8.6074070">
        <ele>65.3</ele>
        <time>2019-08-17T08:54:06Z</time>
      </trkpt>
      <trkpt lat="42.3335790" lon="-8.6074130">
        <ele>63.7</ele>
        <time>2019-08-17T08:54:13Z</time>
      </trkpt>
      <trkpt lat="42.3337020" lon="-8.6074040">
        <ele>62.8</ele>
        <time>2019-08-17T08:54:18Z</time>
      </trkpt>
      <trkpt lat="42.3337170" lon="-8.6074040">
        <ele>62.7</ele>
        <time>2019-08-17T08:54:19Z</time>
      </trkpt>
      <trkpt lat="42.3337300" lon="-8.6074060">
        <ele>62.6</ele>
        <time>2019-08-17T08:54:20Z</time>
      </trkpt>
      <trkpt lat="42.3337430" lon="-8.6074060">
        <ele>62.5</ele>
        <time>2019-08-17T08:54:21Z</time>
      </trkpt>
      <trkpt lat="42.3337570" lon="-8.6074080">
        <ele>62.4</ele>
        <time>2019-08-17T08:54:22Z</time>
      </trkpt>
      <trkpt lat="42.3338150" lon="-8.6074220">
        <ele>61.9</ele>
        <time>2019-08-17T08:54:27Z</time>
      </trkpt>
      <trkpt lat="42.3338450" lon="-8.6074180">
        <ele>61.6</ele>
        <time>2019-08-17T08:54:30Z</time>
      </trkpt>
      <trkpt lat="42.3338480" lon="-8.6074180">
        <ele>61.6</ele>
        <time>2019-08-17T08:54:44Z</time>
      </trkpt>
      <trkpt lat="42.3338610" lon="-8.6074220">
        <ele>61.4</ele>
        <time>2019-08-17T08:54:46Z</time>
      </trkpt>
      <trkpt lat="42.3339700" lon="-8.6074370">
        <ele>60.3</ele>
        <time>2019-08-17T08:54:51Z</time>
      </trkpt>
      <trkpt lat="42.3339880" lon="-8.6074430">
        <ele>60.0</ele>
        <time>2019-08-17T08:54:52Z</time>
      </trkpt>
      <trkpt lat="42.3340040" lon="-8.6074420">
        <ele>59.8</ele>
        <time>2019-08-17T08:54:53Z</time>
      </trkpt>
      <trkpt lat="42.3340160" lon="-8.6074390">
        <ele>59.7</ele>
        <time>2019-08-17T08:54:54Z</time>
      </trkpt>
      <trkpt lat="42.3340420" lon="-8.6074300">
        <ele>59.3</ele>
        <time>2019-08-17T08:54:56Z</time>
      </trkpt>
      <trkpt lat="42.3340870" lon="-8.6074290">
        <ele>58.8</ele>
        <time>2019-08-17T08:54:58Z</time>
      </trkpt>
      <trkpt lat="42.3342720" lon="-8.6074240">
        <ele>56.6</ele>
        <time>2019-08-17T08:55:03Z</time>
      </trkpt>
      <trkpt lat="42.3343180" lon="-8.6074250">
        <ele>56.1</ele>
        <time>2019-08-17T08:55:04Z</time>
      </trkpt>
      <trkpt lat="42.3343630" lon="-8.6074290">
        <ele>55.6</ele>
        <time>2019-08-17T08:55:05Z</time>
      </trkpt>
      <trkpt lat="42.3344040" lon="-8.6074290">
        <ele>55.1</ele>
        <time>2019-08-17T08:55:06Z</time>
      </trkpt>
      <trkpt lat="42.3344460" lon="-8.6074270">
        <ele>54.5</ele>
        <time>2019-08-17T08:55:07Z</time>
      </trkpt>
      <trkpt lat="42.3345320" lon="-8.6074250">
        <ele>53.5</ele>
        <time>2019-08-17T08:55:09Z</time>
      </trkpt>
      <trkpt lat="42.3345740" lon="-8.6074200">
        <ele>52.9</ele>
        <time>2019-08-17T08:55:10Z</time>
      </trkpt>
      <trkpt lat="42.3346260" lon="-8.6074150">
        <ele>52.2</ele>
        <time>2019-08-17T08:55:11Z</time>
      </trkpt>
      <trkpt lat="42.3346850" lon="-8.6074160">
        <ele>51.5</ele>
        <time>2019-08-17T08:55:12Z</time>
      </trkpt>
      <trkpt lat="42.3347390" lon="-8.6074250">
        <ele>50.8</ele>
        <time>2019-08-17T08:55:13Z</time>
      </trkpt>
      <trkpt lat="42.3347970" lon="-8.6074450">
        <ele>50.2</ele>
        <time>2019-08-17T08:55:14Z</time>
      </trkpt>
      <trkpt lat="42.3348560" lon="-8.6074780">
        <ele>49.7</ele>
        <time>2019-08-17T08:55:15Z</time>
      </trkpt>
      <trkpt lat="42.3349250" lon="-8.6075190">
        <ele>49.0</ele>
        <time>2019-08-17T08:55:16Z</time>
      </trkpt>
      <trkpt lat="42.3349850" lon="-8.6075650">
        <ele>48.5</ele>
        <time>2019-08-17T08:55:17Z</time>
      </trkpt>
      <trkpt lat="42.3350440" lon="-8.6076060">
        <ele>48.0</ele>
        <time>2019-08-17T08:55:18Z</time>
      </trkpt>
      <trkpt lat="42.3352250" lon="-8.6077080">
        <ele>45.9</ele>
        <time>2019-08-17T08:55:22Z</time>
      </trkpt>
      <trkpt lat="42.3352880" lon="-8.6077490">
        <ele>44.6</ele>
        <time>2019-08-17T08:55:24Z</time>
      </trkpt>
      <trkpt lat="42.3353170" lon="-8.6077750">
        <ele>44.0</ele>
        <time>2019-08-17T08:55:25Z</time>
      </trkpt>
      <trkpt lat="42.3353440" lon="-8.6078100">
        <ele>43.0</ele>
        <time>2019-08-17T08:55:26Z</time>
      </trkpt>
      <trkpt lat="42.3353700" lon="-8.6078390">
        <ele>42.1</ele>
        <time>2019-08-17T08:55:27Z</time>
      </trkpt>
      <trkpt lat="42.3353890" lon="-8.6078630">
        <ele>41.4</ele>
        <time>2019-08-17T08:55:28Z</time>
      </trkpt>
      <trkpt lat="42.3354070" lon="-8.6078860">
        <ele>40.7</ele>
        <time>2019-08-17T08:55:29Z</time>
      </trkpt>
      <trkpt lat="42.3354330" lon="-8.6079040">
        <ele>39.9</ele>
        <time>2019-08-17T08:55:30Z</time>
      </trkpt>
      <trkpt lat="42.3354680" lon="-8.6079120">
        <ele>36.2</ele>
        <time>2019-08-17T08:55:31Z</time>
      </trkpt>
      <trkpt lat="42.3355070" lon="-8.6079100">
        <ele>35.8</ele>
        <time>2019-08-17T08:55:32Z</time>
      </trkpt>
      <trkpt lat="42.3355530" lon="-8.6078900">
        <ele>35.3</ele>
        <time>2019-08-17T08:55:33Z</time>
      </trkpt>
      <trkpt lat="42.3355930" lon="-8.6078580">
        <ele>34.9</ele>
        <time>2019-08-17T08:55:34Z</time>
      </trkpt>
      <trkpt lat="42.3356430" lon="-8.6078280">
        <ele>34.5</ele>
        <time>2019-08-17T08:55:35Z</time>
      </trkpt>
      <trkpt lat="42.3357050" lon="-8.6078020">
        <ele>34.0</ele>
        <time>2019-08-17T08:55:36Z</time>
      </trkpt>
      <trkpt lat="42.3357700" lon="-8.6077830">
        <ele>33.6</ele>
        <time>2019-08-17T08:55:37Z</time>
      </trkpt>
      <trkpt lat="42.3358340" lon="-8.6077600">
        <ele>33.3</ele>
        <time>2019-08-17T08:55:38Z</time>
      </trkpt>
      <trkpt lat="42.3359490" lon="-8.6076750">
        <ele>33.5</ele>
        <time>2019-08-17T08:55:40Z</time>
      </trkpt>
      <trkpt lat="42.3359810" lon="-8.6076170">
        <ele>33.6</ele>
        <time>2019-08-17T08:55:41Z</time>
      </trkpt>
      <trkpt lat="42.3360070" lon="-8.6075540">
        <ele>33.7</ele>
        <time>2019-08-17T08:55:42Z</time>
      </trkpt>
      <trkpt lat="42.3360370" lon="-8.6074960">
        <ele>34.0</ele>
        <time>2019-08-17T08:55:43Z</time>
      </trkpt>
      <trkpt lat="42.3360700" lon="-8.6074470">
        <ele>34.2</ele>
        <time>2019-08-17T08:55:44Z</time>
      </trkpt>
      <trkpt lat="42.3360990" lon="-8.6074050">
        <ele>34.5</ele>
        <time>2019-08-17T08:55:45Z</time>
      </trkpt>
      <trkpt lat="42.3361230" lon="-8.6073660">
        <ele>34.7</ele>
        <time>2019-08-17T08:55:46Z</time>
      </trkpt>
      <trkpt lat="42.3361360" lon="-8.6073340">
        <ele>35.1</ele>
        <time>2019-08-17T08:55:47Z</time>
      </trkpt>
      <trkpt lat="42.3361430" lon="-8.6073140">
        <ele>35.3</ele>
        <time>2019-08-17T08:55:48Z</time>
      </trkpt>
      <trkpt lat="42.3361480" lon="-8.6073020">
        <ele>35.4</ele>
        <time>2019-08-17T08:55:49Z</time>
      </trkpt>
      <trkpt lat="42.3361280" lon="-8.6072960">
        <ele>35.7</ele>
        <time>2019-08-17T08:55:50Z</time>
      </trkpt>
      <trkpt lat="42.3361360" lon="-8.6072880">
        <ele>35.8</ele>
        <time>2019-08-17T08:55:54Z</time>
      </trkpt>
      <trkpt lat="42.3361520" lon="-8.6072690">
        <ele>36.2</ele>
        <time>2019-08-17T08:55:55Z</time>
      </trkpt>
      <trkpt lat="42.3362230" lon="-8.6072010">
        <ele>37.8</ele>
        <time>2019-08-17T08:55:58Z</time>
      </trkpt>
      <trkpt lat="42.3363440" lon="-8.6070150">
        <ele>41.9</ele>
        <time>2019-08-17T08:56:03Z</time>
      </trkpt>
      <trkpt lat="42.3363920" lon="-8.6069130">
        <ele>43.8</ele>
        <time>2019-08-17T08:56:06Z</time>
      </trkpt>
      <trkpt lat="42.3364080" lon="-8.6068790">
        <ele>44.4</ele>
        <time>2019-08-17T08:56:07Z</time>
      </trkpt>
      <trkpt lat="42.3364280" lon="-8.6068450">
        <ele>45.1</ele>
        <time>2019-08-17T08:56:08Z</time>
      </trkpt>
      <trkpt lat="42.3364470" lon="-8.6068130">
        <ele>45.7</ele>
        <time>2019-08-17T08:56:09Z</time>
      </trkpt>
      <trkpt lat="42.3364680" lon="-8.6067780">
        <ele>46.3</ele>
        <time>2019-08-17T08:56:10Z</time>
      </trkpt>
      <trkpt lat="42.3364880" lon="-8.6067490">
        <ele>46.9</ele>
        <time>2019-08-17T08:56:11Z</time>
      </trkpt>
      <trkpt lat="42.3365570" lon="-8.6066760">
        <ele>47.6</ele>
        <time>2019-08-17T08:56:14Z</time>
      </trkpt>
      <trkpt lat="42.3365780" lon="-8.6066620">
        <ele>47.7</ele>
        <time>2019-08-17T08:56:15Z</time>
      </trkpt>
      <trkpt lat="42.3365980" lon="-8.6066500">
        <ele>47.8</ele>
        <time>2019-08-17T08:56:16Z</time>
      </trkpt>
      <trkpt lat="42.3366140" lon="-8.6066390">
        <ele>47.8</ele>
        <time>2019-08-17T08:56:17Z</time>
      </trkpt>
      <trkpt lat="42.3366300" lon="-8.6066300">
        <ele>47.9</ele>
        <time>2019-08-17T08:56:18Z</time>
      </trkpt>
      <trkpt lat="42.3366990" lon="-8.6066220">
        <ele>48.1</ele>
        <time>2019-08-17T08:56:23Z</time>
      </trkpt>
      <trkpt lat="42.3368800" lon="-8.6065680">
        <ele>48.5</ele>
        <time>2019-08-17T08:56:32Z</time>
      </trkpt>
      <trkpt lat="42.3371050" lon="-8.6065460">
        <ele>48.5</ele>
        <time>2019-08-17T08:56:40Z</time>
      </trkpt>
      <trkpt lat="42.3373730" lon="-8.6065780">
        <ele>48.5</ele>
        <time>2019-08-17T08:56:45Z</time>
      </trkpt>
      <trkpt lat="42.3375140" lon="-8.6065630">
        <ele>48.2</ele>
        <time>2019-08-17T08:56:49Z</time>
      </trkpt>
      <trkpt lat="42.3376940" lon="-8.6064740">
        <ele>47.5</ele>
        <time>2019-08-17T08:56:55Z</time>
      </trkpt>
      <trkpt lat="42.3378310" lon="-8.6064400">
        <ele>46.8</ele>
        <time>2019-08-17T08:56:58Z</time>
      </trkpt>
      <trkpt lat="42.3379270" lon="-8.6064490">
        <ele>46.2</ele>
        <time>2019-08-17T08:57:00Z</time>
      </trkpt>
      <trkpt lat="42.3379660" lon="-8.6064480">
        <ele>45.9</ele>
        <time>2019-08-17T08:57:01Z</time>
      </trkpt>
      <trkpt lat="42.3380040" lon="-8.6064480">
        <ele>45.6</ele>
        <time>2019-08-17T08:57:02Z</time>
      </trkpt>
      <trkpt lat="42.3380440" lon="-8.6064480">
        <ele>45.2</ele>
        <time>2019-08-17T08:57:03Z</time>
      </trkpt>
      <trkpt lat="42.3380920" lon="-8.6064450">
        <ele>44.7</ele>
        <time>2019-08-17T08:57:04Z</time>
      </trkpt>
      <trkpt lat="42.3381430" lon="-8.6064400">
        <ele>44.2</ele>
        <time>2019-08-17T08:57:05Z</time>
      </trkpt>
      <trkpt lat="42.3381980" lon="-8.6064360">
        <ele>43.7</ele>
        <time>2019-08-17T08:57:06Z</time>
      </trkpt>
      <trkpt lat="42.3382620" lon="-8.6064450">
        <ele>43.1</ele>
        <time>2019-08-17T08:57:07Z</time>
      </trkpt>
      <trkpt lat="42.3383230" lon="-8.6064560">
        <ele>42.4</ele>
        <time>2019-08-17T08:57:08Z</time>
      </trkpt>
      <trkpt lat="42.3384560" lon="-8.6064610">
        <ele>41.0</ele>
        <time>2019-08-17T08:57:10Z</time>
      </trkpt>
      <trkpt lat="42.3385300" lon="-8.6064410">
        <ele>40.2</ele>
        <time>2019-08-17T08:57:11Z</time>
      </trkpt>
      <trkpt lat="42.3386100" lon="-8.6064100">
        <ele>39.5</ele>
        <time>2019-08-17T08:57:12Z</time>
      </trkpt>
      <trkpt lat="42.3386890" lon="-8.6063760">
        <ele>37.4</ele>
        <time>2019-08-17T08:57:13Z</time>
      </trkpt>
      <trkpt lat="42.3387600" lon="-8.6063460">
        <ele>36.4</ele>
        <time>2019-08-17T08:57:14Z</time>
      </trkpt>
      <trkpt lat="42.3388450" lon="-8.6063260">
        <ele>35.6</ele>
        <time>2019-08-17T08:57:15Z</time>
      </trkpt>
      <trkpt lat="42.3389920" lon="-8.6063340">
        <ele>34.7</ele>
        <time>2019-08-17T08:57:17Z</time>
      </trkpt>
      <trkpt lat="42.3391750" lon="-8.6064940">
        <ele>33.8</ele>
        <time>2019-08-17T08:57:20Z</time>
      </trkpt>
      <trkpt lat="42.3392330" lon="-8.6065400">
        <ele>33.7</ele>
        <time>2019-08-17T08:57:21Z</time>
      </trkpt>
      <trkpt lat="42.3392970" lon="-8.6065670">
        <ele>33.7</ele>
        <time>2019-08-17T08:57:22Z</time>
      </trkpt>
      <trkpt lat="42.3394200" lon="-8.6065910">
        <ele>33.7</ele>
        <time>2019-08-17T08:57:24Z</time>
      </trkpt>
      <trkpt lat="42.3396420" lon="-8.6066020">
        <ele>33.7</ele>
        <time>2019-08-17T08:57:28Z</time>
      </trkpt>
      <trkpt lat="42.3397420" lon="-8.6066150">
        <ele>33.8</ele>
        <time>2019-08-17T08:57:30Z</time>
      </trkpt>
      <trkpt lat="42.3397870" lon="-8.6066030">
        <ele>33.8</ele>
        <time>2019-08-17T08:57:31Z</time>
      </trkpt>
      <trkpt lat="42.3398340" lon="-8.6065830">
        <ele>33.9</ele>
        <time>2019-08-17T08:57:32Z</time>
      </trkpt>
      <trkpt lat="42.3398760" lon="-8.6065750">
        <ele>33.9</ele>
        <time>2019-08-17T08:57:33Z</time>
      </trkpt>
      <trkpt lat="42.3399220" lon="-8.6066030">
        <ele>33.5</ele>
        <time>2019-08-17T08:57:34Z</time>
      </trkpt>
      <trkpt lat="42.3399670" lon="-8.6066410">
        <ele>33.1</ele>
        <time>2019-08-17T08:57:35Z</time>
      </trkpt>
      <trkpt lat="42.3400090" lon="-8.6066910">
        <ele>32.7</ele>
        <time>2019-08-17T08:57:36Z</time>
      </trkpt>
      <trkpt lat="42.3401500" lon="-8.6068250">
        <ele>31.4</ele>
        <time>2019-08-17T08:57:39Z</time>
      </trkpt>
      <trkpt lat="42.3402010" lon="-8.6068550">
        <ele>31.1</ele>
        <time>2019-08-17T08:57:40Z</time>
      </trkpt>
      <trkpt lat="42.3403050" lon="-8.6069010">
        <ele>30.5</ele>
        <time>2019-08-17T08:57:42Z</time>
      </trkpt>
      <trkpt lat="42.3403440" lon="-8.6069250">
        <ele>30.3</ele>
        <time>2019-08-17T08:57:43Z</time>
      </trkpt>
      <trkpt lat="42.3403870" lon="-8.6069440">
        <ele>30.1</ele>
        <time>2019-08-17T08:57:44Z</time>
      </trkpt>
      <trkpt lat="42.3404340" lon="-8.6069680">
        <ele>29.8</ele>
        <time>2019-08-17T08:57:45Z</time>
      </trkpt>
      <trkpt lat="42.3404960" lon="-8.6070040">
        <ele>29.5</ele>
        <time>2019-08-17T08:57:46Z</time>
      </trkpt>
      <trkpt lat="42.3405450" lon="-8.6070310">
        <ele>28.9</ele>
        <time>2019-08-17T08:57:47Z</time>
      </trkpt>
      <trkpt lat="42.3406010" lon="-8.6070500">
        <ele>28.7</ele>
        <time>2019-08-17T08:57:48Z</time>
      </trkpt>
      <trkpt lat="42.3406560" lon="-8.6070550">
        <ele>28.4</ele>
        <time>2019-08-17T08:57:49Z</time>
      </trkpt>
      <trkpt lat="42.3407150" lon="-8.6070640">
        <ele>28.2</ele>
        <time>2019-08-17T08:57:50Z</time>
      </trkpt>
      <trkpt lat="42.3407550" lon="-8.6070670">
        <ele>28.2</ele>
        <time>2019-08-17T08:57:51Z</time>
      </trkpt>
      <trkpt lat="42.3407870" lon="-8.6070700">
        <ele>28.1</ele>
        <time>2019-08-17T08:57:52Z</time>
      </trkpt>
      <trkpt lat="42.3407930" lon="-8.6070760">
        <ele>28.1</ele>
        <time>2019-08-17T08:57:53Z</time>
      </trkpt>
      <trkpt lat="42.3408240" lon="-8.6070900">
        <ele>28.0</ele>
        <time>2019-08-17T08:57:54Z</time>
      </trkpt>
      <trkpt lat="42.3408450" lon="-8.6071310">
        <ele>28.0</ele>
        <time>2019-08-17T08:57:55Z</time>
      </trkpt>
      <trkpt lat="42.3408740" lon="-8.6071920">
        <ele>27.9</ele>
        <time>2019-08-17T08:57:56Z</time>
      </trkpt>
      <trkpt lat="42.3409350" lon="-8.6073410">
        <ele>27.6</ele>
        <time>2019-08-17T08:57:58Z</time>
      </trkpt>
      <trkpt lat="42.3409550" lon="-8.6074220">
        <ele>27.5</ele>
        <time>2019-08-17T08:57:59Z</time>
      </trkpt>
      <trkpt lat="42.3409640" lon="-8.6075050">
        <ele>27.4</ele>
        <time>2019-08-17T08:58:00Z</time>
      </trkpt>
      <trkpt lat="42.3409730" lon="-8.6075910">
        <ele>27.3</ele>
        <time>2019-08-17T08:58:01Z</time>
      </trkpt>
      <trkpt lat="42.3409840" lon="-8.6076750">
        <ele>27.2</ele>
        <time>2019-08-17T08:58:02Z</time>
      </trkpt>
      <trkpt lat="42.3409900" lon="-8.6077570">
        <ele>27.2</ele>
        <time>2019-08-17T08:58:03Z</time>
      </trkpt>
      <trkpt lat="42.3410720" lon="-8.6081390">
        <ele>26.8</ele>
        <time>2019-08-17T08:58:08Z</time>
      </trkpt>
      <trkpt lat="42.3411180" lon="-8.6081890">
        <ele>26.9</ele>
        <time>2019-08-17T08:58:09Z</time>
      </trkpt>
      <trkpt lat="42.3413070" lon="-8.6084120">
        <ele>27.0</ele>
        <time>2019-08-17T08:58:13Z</time>
      </trkpt>
      <trkpt lat="42.3413490" lon="-8.6084630">
        <ele>27.0</ele>
        <time>2019-08-17T08:58:14Z</time>
      </trkpt>
      <trkpt lat="42.3413950" lon="-8.6085140">
        <ele>27.1</ele>
        <time>2019-08-17T08:58:15Z</time>
      </trkpt>
      <trkpt lat="42.3414460" lon="-8.6085760">
        <ele>27.1</ele>
        <time>2019-08-17T08:58:16Z</time>
      </trkpt>
      <trkpt lat="42.3415420" lon="-8.6086530">
        <ele>27.0</ele>
        <time>2019-08-17T08:58:17Z</time>
      </trkpt>
      <trkpt lat="42.3416050" lon="-8.6087010">
        <ele>27.0</ele>
        <time>2019-08-17T08:58:18Z</time>
      </trkpt>
      <trkpt lat="42.3416790" lon="-8.6087140">
        <ele>27.0</ele>
        <time>2019-08-17T08:58:19Z</time>
      </trkpt>
      <trkpt lat="42.3418060" lon="-8.6086950">
        <ele>26.9</ele>
        <time>2019-08-17T08:58:21Z</time>
      </trkpt>
      <trkpt lat="42.3418670" lon="-8.6086940">
        <ele>26.9</ele>
        <time>2019-08-17T08:58:22Z</time>
      </trkpt>
      <trkpt lat="42.3418960" lon="-8.6087070">
        <ele>26.9</ele>
        <time>2019-08-17T08:58:23Z</time>
      </trkpt>
      <trkpt lat="42.3419440" lon="-8.6087180">
        <ele>26.9</ele>
        <time>2019-08-17T08:58:24Z</time>
      </trkpt>
      <trkpt lat="42.3420000" lon="-8.6087330">
        <ele>26.8</ele>
        <time>2019-08-17T08:58:25Z</time>
      </trkpt>
      <trkpt lat="42.3420490" lon="-8.6087420">
        <ele>26.8</ele>
        <time>2019-08-17T08:58:26Z</time>
      </trkpt>
      <trkpt lat="42.3421630" lon="-8.6087710">
        <ele>26.6</ele>
        <time>2019-08-17T08:58:30Z</time>
      </trkpt>
      <trkpt lat="42.3421870" lon="-8.6087840">
        <ele>26.4</ele>
        <time>2019-08-17T08:58:31Z</time>
      </trkpt>
      <trkpt lat="42.3422470" lon="-8.6088080">
        <ele>25.9</ele>
        <time>2019-08-17T08:58:32Z</time>
      </trkpt>
      <trkpt lat="42.3422980" lon="-8.6088350">
        <ele>25.5</ele>
        <time>2019-08-17T08:58:33Z</time>
      </trkpt>
      <trkpt lat="42.3423490" lon="-8.6088620">
        <ele>25.0</ele>
        <time>2019-08-17T08:58:34Z</time>
      </trkpt>
      <trkpt lat="42.3423900" lon="-8.6088840">
        <ele>24.7</ele>
        <time>2019-08-17T08:58:35Z</time>
      </trkpt>
      <trkpt lat="42.3425280" lon="-8.6089280">
        <ele>23.3</ele>
        <time>2019-08-17T08:58:38Z</time>
      </trkpt>
      <trkpt lat="42.3426640" lon="-8.6089520">
        <ele>22.2</ele>
        <time>2019-08-17T08:58:41Z</time>
      </trkpt>
      <trkpt lat="42.3427150" lon="-8.6089460">
        <ele>21.9</ele>
        <time>2019-08-17T08:58:42Z</time>
      </trkpt>
      <trkpt lat="42.3429210" lon="-8.6089090">
        <ele>20.9</ele>
        <time>2019-08-17T08:58:46Z</time>
      </trkpt>
      <trkpt lat="42.3433070" lon="-8.6088680">
        <ele>17.7</ele>
        <time>2019-08-17T08:58:53Z</time>
      </trkpt>
      <trkpt lat="42.3433620" lon="-8.6088600">
        <ele>17.2</ele>
        <time>2019-08-17T08:58:54Z</time>
      </trkpt>
      <trkpt lat="42.3434070" lon="-8.6088340">
        <ele>16.8</ele>
        <time>2019-08-17T08:58:55Z</time>
      </trkpt>
      <trkpt lat="42.3434570" lon="-8.6087880">
        <ele>16.3</ele>
        <time>2019-08-17T08:58:56Z</time>
      </trkpt>
      <trkpt lat="42.3434900" lon="-8.6087360">
        <ele>15.9</ele>
        <time>2019-08-17T08:58:57Z</time>
      </trkpt>
      <trkpt lat="42.3435310" lon="-8.6086800">
        <ele>15.3</ele>
        <time>2019-08-17T08:58:58Z</time>
      </trkpt>
      <trkpt lat="42.3435880" lon="-8.6086280">
        <ele>14.4</ele>
        <time>2019-08-17T08:58:59Z</time>
      </trkpt>
      <trkpt lat="42.3436340" lon="-8.6085740">
        <ele>13.7</ele>
        <time>2019-08-17T08:59:00Z</time>
      </trkpt>
      <trkpt lat="42.3436810" lon="-8.6085240">
        <ele>13.2</ele>
        <time>2019-08-17T08:59:01Z</time>
      </trkpt>
      <trkpt lat="42.3437300" lon="-8.6084700">
        <ele>12.7</ele>
        <time>2019-08-17T08:59:02Z</time>
      </trkpt>
      <trkpt lat="42.3437950" lon="-8.6084080">
        <ele>11.8</ele>
        <time>2019-08-17T08:59:03Z</time>
      </trkpt>
      <trkpt lat="42.3438630" lon="-8.6083430">
        <ele>11.0</ele>
        <time>2019-08-17T08:59:04Z</time>
      </trkpt>
      <trkpt lat="42.3439300" lon="-8.6082850">
        <ele>10.5</ele>
        <time>2019-08-17T08:59:05Z</time>
      </trkpt>
      <trkpt lat="42.3440010" lon="-8.6082240">
        <ele>9.8</ele>
        <time>2019-08-17T08:59:06Z</time>
      </trkpt>
      <trkpt lat="42.3440720" lon="-8.6081650">
        <ele>8.7</ele>
        <time>2019-08-17T08:59:07Z</time>
      </trkpt>
      <trkpt lat="42.3441390" lon="-8.6080970">
        <ele>7.8</ele>
        <time>2019-08-17T08:59:08Z</time>
      </trkpt>
      <trkpt lat="42.3442310" lon="-8.6079420">
        <ele>6.7</ele>
        <time>2019-08-17T08:59:10Z</time>
      </trkpt>
      <trkpt lat="42.3443010" lon="-8.6077870">
        <ele>6.7</ele>
        <time>2019-08-17T08:59:12Z</time>
      </trkpt>
      <trkpt lat="42.3444140" lon="-8.6075730">
        <ele>7.8</ele>
        <time>2019-08-17T08:59:15Z</time>
      </trkpt>
      <trkpt lat="42.3444420" lon="-8.6075060">
        <ele>8.3</ele>
        <time>2019-08-17T08:59:16Z</time>
      </trkpt>
      <trkpt lat="42.3444710" lon="-8.6074470">
        <ele>8.7</ele>
        <time>2019-08-17T08:59:17Z</time>
      </trkpt>
      <trkpt lat="42.3444750" lon="-8.6074200">
        <ele>8.8</ele>
        <time>2019-08-17T08:59:18Z</time>
      </trkpt>
      <trkpt lat="42.3444860" lon="-8.6074010">
        <ele>9.0</ele>
        <time>2019-08-17T08:59:19Z</time>
      </trkpt>
      <trkpt lat="42.3444950" lon="-8.6073950">
        <ele>9.0</ele>
        <time>2019-08-17T08:59:20Z</time>
      </trkpt>
      <trkpt lat="42.3444970" lon="-8.6073960">
        <ele>9.0</ele>
        <time>2019-08-17T08:59:21Z</time>
      </trkpt>
      <trkpt lat="42.3445560" lon="-8.6073900">
        <ele>7.5</ele>
        <time>2019-08-17T08:59:24Z</time>
      </trkpt>
      <trkpt lat="42.3447890" lon="-8.6074410">
        <ele>4.8</ele>
        <time>2019-08-17T08:59:28Z</time>
      </trkpt>
      <trkpt lat="42.3448490" lon="-8.6074370">
        <ele>4.2</ele>
        <time>2019-08-17T08:59:29Z</time>
      </trkpt>
      <trkpt lat="42.3448900" lon="-8.6073940">
        <ele>3.6</ele>
        <time>2019-08-17T08:59:30Z</time>
      </trkpt>
      <trkpt lat="42.3449430" lon="-8.6073350">
        <ele>2.8</ele>
        <time>2019-08-17T08:59:31Z</time>
      </trkpt>
      <trkpt lat="42.3450090" lon="-8.6072620">
        <ele>1.8</ele>
        <time>2019-08-17T08:59:32Z</time>
      </trkpt>
      <trkpt lat="42.3450630" lon="-8.6071870">
        <ele>0.8</ele>
        <time>2019-08-17T08:59:33Z</time>
      </trkpt>
      <trkpt lat="42.3451210" lon="-8.6071130">
        <ele>0.0</ele>
        <time>2019-08-17T08:59:34Z</time>
      </trkpt>
      <trkpt lat="42.3451740" lon="-8.6070450">
        <ele>0.1</ele>
        <time>2019-08-17T08:59:35Z</time>
      </trkpt>
      <trkpt lat="42.3452400" lon="-8.6069780">
        <ele>0.1</ele>
        <time>2019-08-17T08:59:36Z</time>
      </trkpt>
      <trkpt lat="42.3453090" lon="-8.6069190">
        <ele>0.2</ele>
        <time>2019-08-17T08:59:37Z</time>
      </trkpt>
      <trkpt lat="42.3453840" lon="-8.6068890">
        <ele>-0.1</ele>
        <time>2019-08-17T08:59:38Z</time>
      </trkpt>
      <trkpt lat="42.3456450" lon="-8.6068400">
        <ele>-0.6</ele>
        <time>2019-08-17T08:59:42Z</time>
      </trkpt>
      <trkpt lat="42.3457850" lon="-8.6068400">
        <ele>-0.9</ele>
        <time>2019-08-17T08:59:46Z</time>
      </trkpt>
      <trkpt lat="42.3458430" lon="-8.6068270">
        <ele>-1.0</ele>
        <time>2019-08-17T08:59:48Z</time>
      </trkpt>
      <trkpt lat="42.3458680" lon="-8.6068220">
        <ele>-1.0</ele>
        <time>2019-08-17T08:59:49Z</time>
      </trkpt>
      <trkpt lat="42.3458920" lon="-8.6068170">
        <ele>-1.0</ele>
        <time>2019-08-17T08:59:50Z</time>
      </trkpt>
      <trkpt lat="42.3459140" lon="-8.6068140">
        <ele>-1.0</ele>
        <time>2019-08-17T08:59:51Z</time>
      </trkpt>
      <trkpt lat="42.3459300" lon="-8.6068070">
        <ele>-1.0</ele>
        <time>2019-08-17T08:59:52Z</time>
      </trkpt>
      <trkpt lat="42.3459470" lon="-8.6068020">
        <ele>-1.1</ele>
        <time>2019-08-17T08:59:53Z</time>
      </trkpt>
      <trkpt lat="42.3459980" lon="-8.6067910">
        <ele>-1.1</ele>
        <time>2019-08-17T08:59:57Z</time>
      </trkpt>
      <trkpt lat="42.3460000" lon="-8.6068020">
        <ele>-1.1</ele>
        <time>2019-08-17T09:00:13Z</time>
      </trkpt>
      <trkpt lat="42.3460220" lon="-8.6068060">
        <ele>-1.1</ele>
        <time>2019-08-17T09:00:14Z</time>
      </trkpt>
      <trkpt lat="42.3461000" lon="-8.6068000">
        <ele>-1.0</ele>
        <time>2019-08-17T09:00:16Z</time>
      </trkpt>
      <trkpt lat="42.3463370" lon="-8.6067520">
        <ele>-0.4</ele>
        <time>2019-08-17T09:00:22Z</time>
      </trkpt>
      <trkpt lat="42.3465860" lon="-8.6067250">
        <ele>2.4</ele>
        <time>2019-08-17T09:00:29Z</time>
      </trkpt>
      <trkpt lat="42.3466400" lon="-8.6066770">
        <ele>3.2</ele>
        <time>2019-08-17T09:00:34Z</time>
      </trkpt>
      <trkpt lat="42.3466380" lon="-8.6066690">
        <ele>3.3</ele>
        <time>2019-08-17T09:00:36Z</time>
      </trkpt>
      <trkpt lat="42.3466440" lon="-8.6066640">
        <ele>3.4</ele>
        <time>2019-08-17T09:01:32Z</time>
      </trkpt>
      <trkpt lat="42.3466590" lon="-8.6067070">
        <ele>3.8</ele>
        <time>2019-08-17T09:01:34Z</time>
      </trkpt>
      <trkpt lat="42.3468020" lon="-8.6069180">
        <ele>7.4</ele>
        <time>2019-08-17T09:01:41Z</time>
      </trkpt>
      <trkpt lat="42.3469280" lon="-8.6070830">
        <ele>9.7</ele>
        <time>2019-08-17T09:01:48Z</time>
      </trkpt>
      <trkpt lat="42.3470090" lon="-8.6071450">
        <ele>11.1</ele>
        <time>2019-08-17T09:01:54Z</time>
      </trkpt>
      <trkpt lat="42.3470120" lon="-8.6071450">
        <ele>11.2</ele>
        <time>2019-08-17T09:01:56Z</time>
      </trkpt>
      <trkpt lat="42.3470320" lon="-8.6071550">
        <ele>11.5</ele>
        <time>2019-08-17T09:02:08Z</time>
      </trkpt>
      <trkpt lat="42.3470360" lon="-8.6072030">
        <ele>12.1</ele>
        <time>2019-08-17T09:02:10Z</time>
      </trkpt>
      <trkpt lat="42.3470420" lon="-8.6073320">
        <ele>15.1</ele>
        <time>2019-08-17T09:02:14Z</time>
      </trkpt>
      <trkpt lat="42.3470440" lon="-8.6073490">
        <ele>15.2</ele>
        <time>2019-08-17T09:02:15Z</time>
      </trkpt>
      <trkpt lat="42.3470360" lon="-8.6073780">
        <ele>15.3</ele>
        <time>2019-08-17T09:02:16Z</time>
      </trkpt>
      <trkpt lat="42.3470340" lon="-8.6073990">
        <ele>15.3</ele>
        <time>2019-08-17T09:02:17Z</time>
      </trkpt>
      <trkpt lat="42.3470300" lon="-8.6074220">
        <ele>15.4</ele>
        <time>2019-08-17T09:02:18Z</time>
      </trkpt>
      <trkpt lat="42.3470330" lon="-8.6074560">
        <ele>15.5</ele>
        <time>2019-08-17T09:02:20Z</time>
      </trkpt>
      <trkpt lat="42.3470300" lon="-8.6074660">
        <ele>15.6</ele>
        <time>2019-08-17T09:02:21Z</time>
      </trkpt>
      <trkpt lat="42.3470370" lon="-8.6074660">
        <ele>15.6</ele>
        <time>2019-08-17T09:02:22Z</time>
      </trkpt>
      <trkpt lat="42.3470400" lon="-8.6074510">
        <ele>15.7</ele>
        <time>2019-08-17T09:02:23Z</time>
      </trkpt>
      <trkpt lat="42.3470470" lon="-8.6074410">
        <ele>15.7</ele>
        <time>2019-08-17T09:02:24Z</time>
      </trkpt>
      <trkpt lat="42.3471010" lon="-8.6073550">
        <ele>16.1</ele>
        <time>2019-08-17T09:02:30Z</time>
      </trkpt>
      <trkpt lat="42.3471080" lon="-8.6073500">
        <ele>16.2</ele>
        <time>2019-08-17T09:02:31Z</time>
      </trkpt>
      <trkpt lat="42.3471170" lon="-8.6073480">
        <ele>16.2</ele>
        <time>2019-08-17T09:02:32Z</time>
      </trkpt>
      <trkpt lat="42.3471280" lon="-8.6073460">
        <ele>16.3</ele>
        <time>2019-08-17T09:02:33Z</time>
      </trkpt>
      <trkpt lat="42.3471350" lon="-8.6073460">
        <ele>16.3</ele>
        <time>2019-08-17T09:02:34Z</time>
      </trkpt>
      <trkpt lat="42.3471350" lon="-8.6073500">
        <ele>16.3</ele>
        <time>2019-08-17T09:02:35Z</time>
      </trkpt>
      <trkpt lat="42.3471460" lon="-8.6073600">
        <ele>16.4</ele>
        <time>2019-08-17T09:02:37Z</time>
      </trkpt>
      <trkpt lat="42.3471920" lon="-8.6073560">
        <ele>16.6</ele>
        <time>2019-08-17T09:02:40Z</time>
      </trkpt>
      <trkpt lat="42.3472500" lon="-8.6073300">
        <ele>16.8</ele>
        <time>2019-08-17T09:02:42Z</time>
      </trkpt>
      <trkpt lat="42.3472730" lon="-8.6073290">
        <ele>16.9</ele>
        <time>2019-08-17T09:02:43Z</time>
      </trkpt>
      <trkpt lat="42.3472940" lon="-8.6073190">
        <ele>17.0</ele>
        <time>2019-08-17T09:02:44Z</time>
      </trkpt>
      <trkpt lat="42.3473100" lon="-8.6073250">
        <ele>17.1</ele>
        <time>2019-08-17T09:02:45Z</time>
      </trkpt>
      <trkpt lat="42.3473240" lon="-8.6073290">
        <ele>17.2</ele>
        <time>2019-08-17T09:02:46Z</time>
      </trkpt>
      <trkpt lat="42.3473370" lon="-8.6073260">
        <ele>17.1</ele>
        <time>2019-08-17T09:02:47Z</time>
      </trkpt>
      <trkpt lat="42.3473390" lon="-8.6073290">
        <ele>17.1</ele>
        <time>2019-08-17T09:02:48Z</time>
      </trkpt>
      <trkpt lat="42.3473540" lon="-8.6073640">
        <ele>17.1</ele>
        <time>2019-08-17T09:02:51Z</time>
      </trkpt>
      <trkpt lat="42.3473500" lon="-8.6073820">
        <ele>17.0</ele>
        <time>2019-08-17T09:02:52Z</time>
      </trkpt>
      <trkpt lat="42.3473550" lon="-8.6073970">
        <ele>17.0</ele>
        <time>2019-08-17T09:02:53Z</time>
      </trkpt>
      <trkpt lat="42.3473540" lon="-8.6074250">
        <ele>16.9</ele>
        <time>2019-08-17T09:02:54Z</time>
      </trkpt>
      <trkpt lat="42.3473590" lon="-8.6074540">
        <ele>16.9</ele>
        <time>2019-08-17T09:02:55Z</time>
      </trkpt>
      <trkpt lat="42.3473620" lon="-8.6074750">
        <ele>16.8</ele>
        <time>2019-08-17T09:02:59Z</time>
      </trkpt>
      <trkpt lat="42.3473650" lon="-8.6074950">
        <ele>16.8</ele>
        <time>2019-08-17T09:03:01Z</time>
      </trkpt>
      <trkpt lat="42.3473680" lon="-8.6075160">
        <ele>16.8</ele>
        <time>2019-08-17T09:03:02Z</time>
      </trkpt>
      <trkpt lat="42.3473710" lon="-8.6075360">
        <ele>16.7</ele>
        <time>2019-08-17T09:03:03Z</time>
      </trkpt>
      <trkpt lat="42.3473740" lon="-8.6075570">
        <ele>16.7</ele>
        <time>2019-08-17T09:03:04Z</time>
      </trkpt>
      <trkpt lat="42.3473770" lon="-8.6075770">
        <ele>16.6</ele>
        <time>2019-08-17T09:03:05Z</time>
      </trkpt>
      <trkpt lat="42.3473800" lon="-8.6075980">
        <ele>16.6</ele>
        <time>2019-08-17T09:03:06Z</time>
      </trkpt>
      <trkpt lat="42.3473820" lon="-8.6076180">
        <ele>16.6</ele>
        <time>2019-08-17T09:03:07Z</time>
      </trkpt>
      <trkpt lat="42.3473850" lon="-8.6076390">
        <ele>16.5</ele>
        <time>2019-08-17T09:03:08Z</time>
      </trkpt>
      <trkpt lat="42.3473880" lon="-8.6076590">
        <ele>16.5</ele>
        <time>2019-08-17T09:03:09Z</time>
      </trkpt>
      <trkpt lat="42.3473910" lon="-8.6076800">
        <ele>16.4</ele>
        <time>2019-08-17T09:03:10Z</time>
      </trkpt>
      <trkpt lat="42.3473940" lon="-8.6077000">
        <ele>16.4</ele>
        <time>2019-08-17T09:03:13Z</time>
      </trkpt>
      <trkpt lat="42.3473970" lon="-8.6077210">
        <ele>16.4</ele>
        <time>2019-08-17T09:03:14Z</time>
      </trkpt>
      <trkpt lat="42.3474000" lon="-8.6077410">
        <ele>16.3</ele>
        <time>2019-08-17T09:03:15Z</time>
      </trkpt>
      <trkpt lat="42.3474030" lon="-8.6077620">
        <ele>16.3</ele>
        <time>2019-08-17T09:03:16Z</time>
      </trkpt>
      <trkpt lat="42.3474340" lon="-8.6077760">
        <ele>16.9</ele>
        <time>2019-08-17T09:03:17Z</time>
      </trkpt>
      <trkpt lat="42.3475400" lon="-8.6078090">
        <ele>17.3</ele>
        <time>2019-08-17T09:03:20Z</time>
      </trkpt>
      <trkpt lat="42.3475560" lon="-8.6077940">
        <ele>17.3</ele>
        <time>2019-08-17T09:03:21Z</time>
      </trkpt>
      <trkpt lat="42.3476150" lon="-8.6078150">
        <ele>17.5</ele>
        <time>2019-08-17T09:03:23Z</time>
      </trkpt>
      <trkpt lat="42.3477010" lon="-8.6078530">
        <ele>17.9</ele>
        <time>2019-08-17T09:03:30Z</time>
      </trkpt>
      <trkpt lat="42.3477280" lon="-8.6078540">
        <ele>18.0</ele>
        <time>2019-08-17T09:03:31Z</time>
      </trkpt>
      <trkpt lat="42.3478400" lon="-8.6078300">
        <ele>18.5</ele>
        <time>2019-08-17T09:03:35Z</time>
      </trkpt>
      <trkpt lat="42.3478740" lon="-8.6078220">
        <ele>18.5</ele>
        <time>2019-08-17T09:03:36Z</time>
      </trkpt>
      <trkpt lat="42.3479030" lon="-8.6078250">
        <ele>18.5</ele>
        <time>2019-08-17T09:03:37Z</time>
      </trkpt>
      <trkpt lat="42.3479380" lon="-8.6078200">
        <ele>18.4</ele>
        <time>2019-08-17T09:03:38Z</time>
      </trkpt>
      <trkpt lat="42.3479750" lon="-8.6078130">
        <ele>18.3</ele>
        <time>2019-08-17T09:03:39Z</time>
      </trkpt>
      <trkpt lat="42.3480110" lon="-8.6078040">
        <ele>18.0</ele>
        <time>2019-08-17T09:03:40Z</time>
      </trkpt>
      <trkpt lat="42.3480410" lon="-8.6077980">
        <ele>17.7</ele>
        <time>2019-08-17T09:03:41Z</time>
      </trkpt>
      <trkpt lat="42.3480830" lon="-8.6077940">
        <ele>17.3</ele>
        <time>2019-08-17T09:03:42Z</time>
      </trkpt>
      <trkpt lat="42.3481130" lon="-8.6077980">
        <ele>16.9</ele>
        <time>2019-08-17T09:03:43Z</time>
      </trkpt>
      <trkpt lat="42.3481330" lon="-8.6078010">
        <ele>16.7</ele>
        <time>2019-08-17T09:03:44Z</time>
      </trkpt>
      <trkpt lat="42.3481600" lon="-8.6078200">
        <ele>16.4</ele>
        <time>2019-08-17T09:03:45Z</time>
      </trkpt>
      <trkpt lat="42.3481860" lon="-8.6078550">
        <ele>16.0</ele>
        <time>2019-08-17T09:03:46Z</time>
      </trkpt>
      <trkpt lat="42.3482620" lon="-8.6080040">
        <ele>14.7</ele>
        <time>2019-08-17T09:03:49Z</time>
      </trkpt>
      <trkpt lat="42.3482920" lon="-8.6080720">
        <ele>14.4</ele>
        <time>2019-08-17T09:03:50Z</time>
      </trkpt>
      <trkpt lat="42.3483280" lon="-8.6081510">
        <ele>14.2</ele>
        <time>2019-08-17T09:03:51Z</time>
      </trkpt>
      <trkpt lat="42.3483700" lon="-8.6082390">
        <ele>13.8</ele>
        <time>2019-08-17T09:03:52Z</time>
      </trkpt>
      <trkpt lat="42.3484320" lon="-8.6083380">
        <ele>13.4</ele>
        <time>2019-08-17T09:03:53Z</time>
      </trkpt>
      <trkpt lat="42.3484870" lon="-8.6084360">
        <ele>13.2</ele>
        <time>2019-08-17T09:03:54Z</time>
      </trkpt>
      <trkpt lat="42.3485150" lon="-8.6085200">
        <ele>13.0</ele>
        <time>2019-08-17T09:03:55Z</time>
      </trkpt>
      <trkpt lat="42.3485500" lon="-8.6085880">
        <ele>12.8</ele>
        <time>2019-08-17T09:03:56Z</time>
      </trkpt>
      <trkpt lat="42.3485790" lon="-8.6086170">
        <ele>12.7</ele>
        <time>2019-08-17T09:03:57Z</time>
      </trkpt>
      <trkpt lat="42.3485980" lon="-8.6086400">
        <ele>12.6</ele>
        <time>2019-08-17T09:03:58Z</time>
      </trkpt>
      <trkpt lat="42.3486180" lon="-8.6086440">
        <ele>12.6</ele>
        <time>2019-08-17T09:03:59Z</time>
      </trkpt>
      <trkpt lat="42.3486090" lon="-8.6086530">
        <ele>12.5</ele>
        <time>2019-08-17T09:04:00Z</time>
      </trkpt>
      <trkpt lat="42.3485890" lon="-8.6086300">
        <ele>12.4</ele>
        <time>2019-08-17T09:04:01Z</time>
      </trkpt>
      <trkpt lat="42.3485910" lon="-8.6085780">
        <ele>12.2</ele>
        <time>2019-08-17T09:04:03Z</time>
      </trkpt>
      <trkpt lat="42.3486660" lon="-8.6084260">
        <ele>11.6</ele>
        <time>2019-08-17T09:04:09Z</time>
      </trkpt>
      <trkpt lat="42.3487130" lon="-8.6084100">
        <ele>11.3</ele>
        <time>2019-08-17T09:04:10Z</time>
      </trkpt>
      <trkpt lat="42.3487880" lon="-8.6083860">
        <ele>11.1</ele>
        <time>2019-08-17T09:04:11Z</time>
      </trkpt>
      <trkpt lat="42.3488590" lon="-8.6083820">
        <ele>10.9</ele>
        <time>2019-08-17T09:04:12Z</time>
      </trkpt>
      <trkpt lat="42.3489210" lon="-8.6083800">
        <ele>10.7</ele>
        <time>2019-08-17T09:04:13Z</time>
      </trkpt>
      <trkpt lat="42.3489830" lon="-8.6083770">
        <ele>10.6</ele>
        <time>2019-08-17T09:04:14Z</time>
      </trkpt>
      <trkpt lat="42.3491590" lon="-8.6083760">
        <ele>10.2</ele>
        <time>2019-08-17T09:04:16Z</time>
      </trkpt>
      <trkpt lat="42.3492440" lon="-8.6083720">
        <ele>10.1</ele>
        <time>2019-08-17T09:04:17Z</time>
      </trkpt>
      <trkpt lat="42.3493160" lon="-8.6083620">
        <ele>10.0</ele>
        <time>2019-08-17T09:04:18Z</time>
      </trkpt>
      <trkpt lat="42.3493780" lon="-8.6083490">
        <ele>10.0</ele>
        <time>2019-08-17T09:04:19Z</time>
      </trkpt>
      <trkpt lat="42.3494360" lon="-8.6083300">
        <ele>10.0</ele>
        <time>2019-08-17T09:04:20Z</time>
      </trkpt>
      <trkpt lat="42.3494910" lon="-8.6083060">
        <ele>10.0</ele>
        <time>2019-08-17T09:04:21Z</time>
      </trkpt>
      <trkpt lat="42.3497690" lon="-8.6081950">
        <ele>10.2</ele>
        <time>2019-08-17T09:04:26Z</time>
      </trkpt>
      <trkpt lat="42.3498110" lon="-8.6082010">
        <ele>10.4</ele>
        <time>2019-08-17T09:04:27Z</time>
      </trkpt>
      <trkpt lat="42.3498850" lon="-8.6082740">
        <ele>10.7</ele>
        <time>2019-08-17T09:04:30Z</time>
      </trkpt>
      <trkpt lat="42.3499010" lon="-8.6084490">
        <ele>11.6</ele>
        <time>2019-08-17T09:04:35Z</time>
      </trkpt>
      <trkpt lat="42.3499020" lon="-8.6084870">
        <ele>11.8</ele>
        <time>2019-08-17T09:04:36Z</time>
      </trkpt>
      <trkpt lat="42.3499050" lon="-8.6085200">
        <ele>11.9</ele>
        <time>2019-08-17T09:04:37Z</time>
      </trkpt>
      <trkpt lat="42.3499090" lon="-8.6085470">
        <ele>12.1</ele>
        <time>2019-08-17T09:04:38Z</time>
      </trkpt>
      <trkpt lat="42.3499110" lon="-8.6085730">
        <ele>12.2</ele>
        <time>2019-08-17T09:04:39Z</time>
      </trkpt>
      <trkpt lat="42.3499030" lon="-8.6086330">
        <ele>12.6</ele>
        <time>2019-08-17T09:04:42Z</time>
      </trkpt>
      <trkpt lat="42.3498860" lon="-8.6087380">
        <ele>13.2</ele>
        <time>2019-08-17T09:04:46Z</time>
      </trkpt>
      <trkpt lat="42.3498820" lon="-8.6087640">
        <ele>13.4</ele>
        <time>2019-08-17T09:04:47Z</time>
      </trkpt>
      <trkpt lat="42.3498750" lon="-8.6087920">
        <ele>13.5</ele>
        <time>2019-08-17T09:04:48Z</time>
      </trkpt>
      <trkpt lat="42.3498680" lon="-8.6088230">
        <ele>13.6</ele>
        <time>2019-08-17T09:04:49Z</time>
      </trkpt>
      <trkpt lat="42.3498510" lon="-8.6088570">
        <ele>13.8</ele>
        <time>2019-08-17T09:04:50Z</time>
      </trkpt>
      <trkpt lat="42.3498070" lon="-8.6089400">
        <ele>14.3</ele>
        <time>2019-08-17T09:04:53Z</time>
      </trkpt>
      <trkpt lat="42.3497020" lon="-8.6090930">
        <ele>15.4</ele>
        <time>2019-08-17T09:04:59Z</time>
      </trkpt>
      <trkpt lat="42.3496760" lon="-8.6091060">
        <ele>15.6</ele>
        <time>2019-08-17T09:05:00Z</time>
      </trkpt>
      <trkpt lat="42.3496580" lon="-8.6091100">
        <ele>15.8</ele>
        <time>2019-08-17T09:05:01Z</time>
      </trkpt>
      <trkpt lat="42.3496330" lon="-8.6091170">
        <ele>16.1</ele>
        <time>2019-08-17T09:05:02Z</time>
      </trkpt>
      <trkpt lat="42.3496070" lon="-8.6091170">
        <ele>16.3</ele>
        <time>2019-08-17T09:05:03Z</time>
      </trkpt>
      <trkpt lat="42.3495580" lon="-8.6091270">
        <ele>16.8</ele>
        <time>2019-08-17T09:05:05Z</time>
      </trkpt>
      <trkpt lat="42.3495350" lon="-8.6091350">
        <ele>17.0</ele>
        <time>2019-08-17T09:05:06Z</time>
      </trkpt>
      <trkpt lat="42.3495230" lon="-8.6091420">
        <ele>17.1</ele>
        <time>2019-08-17T09:05:07Z</time>
      </trkpt>
      <trkpt lat="42.3495140" lon="-8.6091550">
        <ele>17.2</ele>
        <time>2019-08-17T09:05:08Z</time>
      </trkpt>
      <trkpt lat="42.3495120" lon="-8.6091700">
        <ele>17.3</ele>
        <time>2019-08-17T09:05:09Z</time>
      </trkpt>
      <trkpt lat="42.3495550" lon="-8.6092260">
        <ele>17.9</ele>
        <time>2019-08-17T09:05:13Z</time>
      </trkpt>
      <trkpt lat="42.3495660" lon="-8.6092420">
        <ele>18.1</ele>
        <time>2019-08-17T09:05:14Z</time>
      </trkpt>
      <trkpt lat="42.3495720" lon="-8.6092640">
        <ele>20.8</ele>
        <time>2019-08-17T09:05:15Z</time>
      </trkpt>
      <trkpt lat="42.3495800" lon="-8.6092870">
        <ele>21.0</ele>
        <time>2019-08-17T09:05:16Z</time>
      </trkpt>
      <trkpt lat="42.3495830" lon="-8.6093100">
        <ele>21.2</ele>
        <time>2019-08-17T09:05:17Z</time>
      </trkpt>
      <trkpt lat="42.3495850" lon="-8.6093340">
        <ele>21.4</ele>
        <time>2019-08-17T09:05:18Z</time>
      </trkpt>
      <trkpt lat="42.3495850" lon="-8.6093580">
        <ele>21.6</ele>
        <time>2019-08-17T09:05:19Z</time>
      </trkpt>
      <trkpt lat="42.3495900" lon="-8.6093780">
        <ele>21.8</ele>
        <time>2019-08-17T09:05:20Z</time>
      </trkpt>
      <trkpt lat="42.3495930" lon="-8.6094050">
        <ele>22.0</ele>
        <time>2019-08-17T09:05:21Z</time>
      </trkpt>
      <trkpt lat="42.3495970" lon="-8.6094340">
        <ele>22.3</ele>
        <time>2019-08-17T09:05:22Z</time>
      </trkpt>
      <trkpt lat="42.3496020" lon="-8.6094610">
        <ele>22.5</ele>
        <time>2019-08-17T09:05:23Z</time>
      </trkpt>
      <trkpt lat="42.3496110" lon="-8.6094840">
        <ele>22.7</ele>
        <time>2019-08-17T09:05:24Z</time>
      </trkpt>
      <trkpt lat="42.3496190" lon="-8.6095050">
        <ele>22.9</ele>
        <time>2019-08-17T09:05:25Z</time>
      </trkpt>
      <trkpt lat="42.3496140" lon="-8.6095260">
        <ele>23.1</ele>
        <time>2019-08-17T09:05:26Z</time>
      </trkpt>
      <trkpt lat="42.3496210" lon="-8.6095410">
        <ele>23.3</ele>
        <time>2019-08-17T09:05:27Z</time>
      </trkpt>
      <trkpt lat="42.3496310" lon="-8.6095520">
        <ele>23.4</ele>
        <time>2019-08-17T09:05:28Z</time>
      </trkpt>
      <trkpt lat="42.3496590" lon="-8.6095730">
        <ele>24.0</ele>
        <time>2019-08-17T09:05:30Z</time>
      </trkpt>
      <trkpt lat="42.3496880" lon="-8.6095920">
        <ele>24.1</ele>
        <time>2019-08-17T09:05:32Z</time>
      </trkpt>
      <trkpt lat="42.3497380" lon="-8.6096470">
        <ele>24.4</ele>
        <time>2019-08-17T09:05:36Z</time>
      </trkpt>
      <trkpt lat="42.3497490" lon="-8.6096610">
        <ele>24.4</ele>
        <time>2019-08-17T09:05:37Z</time>
      </trkpt>
      <trkpt lat="42.3497600" lon="-8.6096750">
        <ele>24.5</ele>
        <time>2019-08-17T09:05:38Z</time>
      </trkpt>
      <trkpt lat="42.3497690" lon="-8.6096850">
        <ele>24.5</ele>
        <time>2019-08-17T09:05:39Z</time>
      </trkpt>
      <trkpt lat="42.3497790" lon="-8.6096970">
        <ele>24.6</ele>
        <time>2019-08-17T09:05:40Z</time>
      </trkpt>
      <trkpt lat="42.3497940" lon="-8.6097250">
        <ele>24.7</ele>
        <time>2019-08-17T09:05:43Z</time>
      </trkpt>
      <trkpt lat="42.3498810" lon="-8.6098230">
        <ele>25.2</ele>
        <time>2019-08-17T09:05:53Z</time>
      </trkpt>
      <trkpt lat="42.3498980" lon="-8.6098330">
        <ele>25.3</ele>
        <time>2019-08-17T09:05:54Z</time>
      </trkpt>
      <trkpt lat="42.3499360" lon="-8.6098400">
        <ele>25.4</ele>
        <time>2019-08-17T09:05:56Z</time>
      </trkpt>
      <trkpt lat="42.3499560" lon="-8.6098480">
        <ele>25.4</ele>
        <time>2019-08-17T09:05:57Z</time>
      </trkpt>
      <trkpt lat="42.3499680" lon="-8.6098570">
        <ele>25.4</ele>
        <time>2019-08-17T09:05:58Z</time>
      </trkpt>
      <trkpt lat="42.3499810" lon="-8.6098700">
        <ele>25.5</ele>
        <time>2019-08-17T09:05:59Z</time>
      </trkpt>
      <trkpt lat="42.3500070" lon="-8.6098880">
        <ele>25.5</ele>
        <time>2019-08-17T09:06:00Z</time>
      </trkpt>
      <trkpt lat="42.3500330" lon="-8.6099080">
        <ele>25.5</ele>
        <time>2019-08-17T09:06:01Z</time>
      </trkpt>
      <trkpt lat="42.3501020" lon="-8.6099780">
        <ele>25.6</ele>
        <time>2019-08-17T09:06:05Z</time>
      </trkpt>
      <trkpt lat="42.3501120" lon="-8.6100000">
        <ele>25.6</ele>
        <time>2019-08-17T09:06:06Z</time>
      </trkpt>
      <trkpt lat="42.3501240" lon="-8.6100160">
        <ele>25.5</ele>
        <time>2019-08-17T09:06:07Z</time>
      </trkpt>
      <trkpt lat="42.3501320" lon="-8.6100370">
        <ele>25.5</ele>
        <time>2019-08-17T09:06:08Z</time>
      </trkpt>
      <trkpt lat="42.3501420" lon="-8.6100600">
        <ele>25.5</ele>
        <time>2019-08-17T09:06:09Z</time>
      </trkpt>
      <trkpt lat="42.3501510" lon="-8.6101900">
        <ele>25.3</ele>
        <time>2019-08-17T09:06:15Z</time>
      </trkpt>
      <trkpt lat="42.3501330" lon="-8.6104200">
        <ele>24.2</ele>
        <time>2019-08-17T09:06:20Z</time>
      </trkpt>
      <trkpt lat="42.3501900" lon="-8.6108420">
        <ele>22.4</ele>
        <time>2019-08-17T09:06:27Z</time>
      </trkpt>
      <trkpt lat="42.3502280" lon="-8.6109110">
        <ele>22.0</ele>
        <time>2019-08-17T09:06:28Z</time>
      </trkpt>
      <trkpt lat="42.3502570" lon="-8.6109700">
        <ele>21.7</ele>
        <time>2019-08-17T09:06:29Z</time>
      </trkpt>
      <trkpt lat="42.3502890" lon="-8.6110260">
        <ele>21.4</ele>
        <time>2019-08-17T09:06:30Z</time>
      </trkpt>
      <trkpt lat="42.3503220" lon="-8.6110770">
        <ele>21.1</ele>
        <time>2019-08-17T09:06:31Z</time>
      </trkpt>
      <trkpt lat="42.3503560" lon="-8.6111190">
        <ele>20.7</ele>
        <time>2019-08-17T09:06:32Z</time>
      </trkpt>
      <trkpt lat="42.3504910" lon="-8.6112300">
        <ele>19.7</ele>
        <time>2019-08-17T09:06:36Z</time>
      </trkpt>
      <trkpt lat="42.3505340" lon="-8.6112440">
        <ele>19.5</ele>
        <time>2019-08-17T09:06:37Z</time>
      </trkpt>
      <trkpt lat="42.3508200" lon="-8.6113210">
        <ele>17.2</ele>
        <time>2019-08-17T09:06:43Z</time>
      </trkpt>
      <trkpt lat="42.3508650" lon="-8.6113400">
        <ele>16.9</ele>
        <time>2019-08-17T09:06:44Z</time>
      </trkpt>
      <trkpt lat="42.3509110" lon="-8.6113640">
        <ele>16.6</ele>
        <time>2019-08-17T09:06:45Z</time>
      </trkpt>
      <trkpt lat="42.3509560" lon="-8.6113880">
        <ele>16.3</ele>
        <time>2019-08-17T09:06:46Z</time>
      </trkpt>
      <trkpt lat="42.3510060" lon="-8.6114160">
        <ele>15.9</ele>
        <time>2019-08-17T09:06:47Z</time>
      </trkpt>
      <trkpt lat="42.3510590" lon="-8.6114500">
        <ele>15.5</ele>
        <time>2019-08-17T09:06:48Z</time>
      </trkpt>
      <trkpt lat="42.3511550" lon="-8.6115170">
        <ele>14.7</ele>
        <time>2019-08-17T09:06:50Z</time>
      </trkpt>
      <trkpt lat="42.3511950" lon="-8.6115480">
        <ele>14.3</ele>
        <time>2019-08-17T09:06:51Z</time>
      </trkpt>
      <trkpt lat="42.3512310" lon="-8.6115750">
        <ele>13.9</ele>
        <time>2019-08-17T09:06:52Z</time>
      </trkpt>
      <trkpt lat="42.3512560" lon="-8.6116020">
        <ele>13.6</ele>
        <time>2019-08-17T09:06:53Z</time>
      </trkpt>
      <trkpt lat="42.3512760" lon="-8.6116240">
        <ele>13.3</ele>
        <time>2019-08-17T09:06:54Z</time>
      </trkpt>
      <trkpt lat="42.3513050" lon="-8.6116470">
        <ele>12.9</ele>
        <time>2019-08-17T09:06:55Z</time>
      </trkpt>
      <trkpt lat="42.3513510" lon="-8.6116990">
        <ele>11.8</ele>
        <time>2019-08-17T09:06:57Z</time>
      </trkpt>
      <trkpt lat="42.3513630" lon="-8.6117280">
        <ele>11.3</ele>
        <time>2019-08-17T09:06:58Z</time>
      </trkpt>
      <trkpt lat="42.3513620" lon="-8.6117640">
        <ele>10.8</ele>
        <time>2019-08-17T09:06:59Z</time>
      </trkpt>
      <trkpt lat="42.3513740" lon="-8.6118020">
        <ele>10.2</ele>
        <time>2019-08-17T09:07:00Z</time>
      </trkpt>
      <trkpt lat="42.3513800" lon="-8.6118390">
        <ele>9.6</ele>
        <time>2019-08-17T09:07:01Z</time>
      </trkpt>
      <trkpt lat="42.3513930" lon="-8.6118730">
        <ele>9.0</ele>
        <time>2019-08-17T09:07:02Z</time>
      </trkpt>
      <trkpt lat="42.3514050" lon="-8.6119060">
        <ele>8.5</ele>
        <time>2019-08-17T09:07:03Z</time>
      </trkpt>
      <trkpt lat="42.3514210" lon="-8.6119380">
        <ele>7.9</ele>
        <time>2019-08-17T09:07:04Z</time>
      </trkpt>
      <trkpt lat="42.3514310" lon="-8.6119760">
        <ele>7.4</ele>
        <time>2019-08-17T09:07:05Z</time>
      </trkpt>
      <trkpt lat="42.3514510" lon="-8.6120050">
        <ele>7.0</ele>
        <time>2019-08-17T09:07:06Z</time>
      </trkpt>
      <trkpt lat="42.3514760" lon="-8.6120260">
        <ele>6.7</ele>
        <time>2019-08-17T09:07:07Z</time>
      </trkpt>
      <trkpt lat="42.3515010" lon="-8.6120470">
        <ele>6.4</ele>
        <time>2019-08-17T09:07:08Z</time>
      </trkpt>
      <trkpt lat="42.3515260" lon="-8.6120590">
        <ele>6.2</ele>
        <time>2019-08-17T09:07:09Z</time>
      </trkpt>
      <trkpt lat="42.3515420" lon="-8.6120710">
        <ele>6.1</ele>
        <time>2019-08-17T09:07:10Z</time>
      </trkpt>
      <trkpt lat="42.3515650" lon="-8.6120720">
        <ele>5.9</ele>
        <time>2019-08-17T09:07:11Z</time>
      </trkpt>
      <trkpt lat="42.3516000" lon="-8.6120590">
        <ele>5.7</ele>
        <time>2019-08-17T09:07:12Z</time>
      </trkpt>
      <trkpt lat="42.3516370" lon="-8.6120560">
        <ele>5.5</ele>
        <time>2019-08-17T09:07:13Z</time>
      </trkpt>
      <trkpt lat="42.3516760" lon="-8.6120540">
        <ele>5.4</ele>
        <time>2019-08-17T09:07:14Z</time>
      </trkpt>
      <trkpt lat="42.3517110" lon="-8.6120490">
        <ele>5.2</ele>
        <time>2019-08-17T09:07:15Z</time>
      </trkpt>
      <trkpt lat="42.3517410" lon="-8.6120390">
        <ele>5.2</ele>
        <time>2019-08-17T09:07:16Z</time>
      </trkpt>
      <trkpt lat="42.3518460" lon="-8.6119880">
        <ele>4.9</ele>
        <time>2019-08-17T09:07:19Z</time>
      </trkpt>
      <trkpt lat="42.3519540" lon="-8.6119410">
        <ele>4.8</ele>
        <time>2019-08-17T09:07:22Z</time>
      </trkpt>
      <trkpt lat="42.3519870" lon="-8.6119190">
        <ele>4.7</ele>
        <time>2019-08-17T09:07:23Z</time>
      </trkpt>
      <trkpt lat="42.3520160" lon="-8.6118950">
        <ele>4.7</ele>
        <time>2019-08-17T09:07:24Z</time>
      </trkpt>
      <trkpt lat="42.3520340" lon="-8.6118690">
        <ele>4.7</ele>
        <time>2019-08-17T09:07:25Z</time>
      </trkpt>
      <trkpt lat="42.3520610" lon="-8.6118340">
        <ele>4.7</ele>
        <time>2019-08-17T09:07:26Z</time>
      </trkpt>
      <trkpt lat="42.3521740" lon="-8.6117100">
        <ele>4.6</ele>
        <time>2019-08-17T09:07:31Z</time>
      </trkpt>
      <trkpt lat="42.3522040" lon="-8.6117290">
        <ele>4.6</ele>
        <time>2019-08-17T09:07:32Z</time>
      </trkpt>
      <trkpt lat="42.3524420" lon="-8.6118460">
        <ele>4.5</ele>
        <time>2019-08-17T09:07:38Z</time>
      </trkpt>
      <trkpt lat="42.3526560" lon="-8.6119420">
        <ele>4.6</ele>
        <time>2019-08-17T09:07:43Z</time>
      </trkpt>
      <trkpt lat="42.3527670" lon="-8.6121000">
        <ele>4.9</ele>
        <time>2019-08-17T09:07:48Z</time>
      </trkpt>
      <trkpt lat="42.3528760" lon="-8.6122600">
        <ele>5.7</ele>
        <time>2019-08-17T09:07:54Z</time>
      </trkpt>
      <trkpt lat="42.3528920" lon="-8.6122640">
        <ele>5.7</ele>
        <time>2019-08-17T09:07:55Z</time>
      </trkpt>
      <trkpt lat="42.3529540" lon="-8.6122870">
        <ele>6.1</ele>
        <time>2019-08-17T09:07:59Z</time>
      </trkpt>
      <trkpt lat="42.3530230" lon="-8.6123110">
        <ele>6.8</ele>
        <time>2019-08-17T09:08:05Z</time>
      </trkpt>
      <trkpt lat="42.3530500" lon="-8.6123190">
        <ele>7.1</ele>
        <time>2019-08-17T09:08:07Z</time>
      </trkpt>
      <trkpt lat="42.3530640" lon="-8.6123270">
        <ele>7.3</ele>
        <time>2019-08-17T09:08:08Z</time>
      </trkpt>
      <trkpt lat="42.3530850" lon="-8.6123400">
        <ele>7.6</ele>
        <time>2019-08-17T09:08:09Z</time>
      </trkpt>
      <trkpt lat="42.3530950" lon="-8.6123560">
        <ele>7.7</ele>
        <time>2019-08-17T09:08:10Z</time>
      </trkpt>
      <trkpt lat="42.3531130" lon="-8.6123710">
        <ele>8.0</ele>
        <time>2019-08-17T09:08:11Z</time>
      </trkpt>
      <trkpt lat="42.3531140" lon="-8.6124490">
        <ele>8.6</ele>
        <time>2019-08-17T09:08:16Z</time>
      </trkpt>
      <trkpt lat="42.3531010" lon="-8.6124860">
        <ele>8.9</ele>
        <time>2019-08-17T09:08:19Z</time>
      </trkpt>
      <trkpt lat="42.3531000" lon="-8.6125020">
        <ele>9.1</ele>
        <time>2019-08-17T09:08:20Z</time>
      </trkpt>
      <trkpt lat="42.3530980" lon="-8.6125180">
        <ele>9.2</ele>
        <time>2019-08-17T09:08:21Z</time>
      </trkpt>
      <trkpt lat="42.3531020" lon="-8.6125290">
        <ele>9.3</ele>
        <time>2019-08-17T09:08:22Z</time>
      </trkpt>
      <trkpt lat="42.3531030" lon="-8.6125440">
        <ele>9.4</ele>
        <time>2019-08-17T09:08:23Z</time>
      </trkpt>
      <trkpt lat="42.3531170" lon="-8.6125880">
        <ele>9.7</ele>
        <time>2019-08-17T09:08:26Z</time>
      </trkpt>
      <trkpt lat="42.3531040" lon="-8.6127530">
        <ele>10.6</ele>
        <time>2019-08-17T09:08:35Z</time>
      </trkpt>
      <trkpt lat="42.3531130" lon="-8.6127940">
        <ele>10.8</ele>
        <time>2019-08-17T09:08:38Z</time>
      </trkpt>
      <trkpt lat="42.3531200" lon="-8.6128060">
        <ele>10.9</ele>
        <time>2019-08-17T09:09:03Z</time>
      </trkpt>
      <trkpt lat="42.3531250" lon="-8.6128160">
        <ele>10.9</ele>
        <time>2019-08-17T09:09:04Z</time>
      </trkpt>
      <trkpt lat="42.3531220" lon="-8.6128500">
        <ele>10.9</ele>
        <time>2019-08-17T09:09:05Z</time>
      </trkpt>
      <trkpt lat="42.3531390" lon="-8.6129610">
        <ele>11.2</ele>
        <time>2019-08-17T09:09:08Z</time>
      </trkpt>
      <trkpt lat="42.3532140" lon="-8.6131640">
        <ele>11.5</ele>
        <time>2019-08-17T09:09:13Z</time>
      </trkpt>
      <trkpt lat="42.3532980" lon="-8.6132260">
        <ele>12.0</ele>
        <time>2019-08-17T09:09:17Z</time>
      </trkpt>
      <trkpt lat="42.3534520" lon="-8.6134210">
        <ele>13.3</ele>
        <time>2019-08-17T09:09:24Z</time>
      </trkpt>
      <trkpt lat="42.3535680" lon="-8.6135990">
        <ele>13.1</ele>
        <time>2019-08-17T09:09:29Z</time>
      </trkpt>
      <trkpt lat="42.3538020" lon="-8.6138210">
        <ele>11.6</ele>
        <time>2019-08-17T09:09:36Z</time>
      </trkpt>
      <trkpt lat="42.3538730" lon="-8.6138890">
        <ele>11.2</ele>
        <time>2019-08-17T09:09:38Z</time>
      </trkpt>
      <trkpt lat="42.3539180" lon="-8.6139280">
        <ele>11.0</ele>
        <time>2019-08-17T09:09:39Z</time>
      </trkpt>
      <trkpt lat="42.3539910" lon="-8.6139620">
        <ele>10.8</ele>
        <time>2019-08-17T09:09:40Z</time>
      </trkpt>
      <trkpt lat="42.3540490" lon="-8.6140020">
        <ele>10.7</ele>
        <time>2019-08-17T09:09:41Z</time>
      </trkpt>
      <trkpt lat="42.3541080" lon="-8.6140320">
        <ele>10.6</ele>
        <time>2019-08-17T09:09:42Z</time>
      </trkpt>
      <trkpt lat="42.3541660" lon="-8.6140500">
        <ele>10.5</ele>
        <time>2019-08-17T09:09:43Z</time>
      </trkpt>
      <trkpt lat="42.3542900" lon="-8.6141040">
        <ele>10.0</ele>
        <time>2019-08-17T09:09:45Z</time>
      </trkpt>
      <trkpt lat="42.3544260" lon="-8.6141580">
        <ele>9.3</ele>
        <time>2019-08-17T09:09:47Z</time>
      </trkpt>
      <trkpt lat="42.3544900" lon="-8.6141850">
        <ele>9.2</ele>
        <time>2019-08-17T09:09:48Z</time>
      </trkpt>
      <trkpt lat="42.3545470" lon="-8.6142140">
        <ele>9.2</ele>
        <time>2019-08-17T09:09:49Z</time>
      </trkpt>
      <trkpt lat="42.3546120" lon="-8.6142340">
        <ele>9.2</ele>
        <time>2019-08-17T09:09:50Z</time>
      </trkpt>
      <trkpt lat="42.3546620" lon="-8.6142500">
        <ele>9.3</ele>
        <time>2019-08-17T09:09:51Z</time>
      </trkpt>
      <trkpt lat="42.3547000" lon="-8.6142600">
        <ele>9.5</ele>
        <time>2019-08-17T09:09:52Z</time>
      </trkpt>
      <trkpt lat="42.3547900" lon="-8.6143420">
        <ele>10.1</ele>
        <time>2019-08-17T09:09:56Z</time>
      </trkpt>
      <trkpt lat="42.3548560" lon="-8.6145030">
        <ele>11.3</ele>
        <time>2019-08-17T09:10:03Z</time>
      </trkpt>
      <trkpt lat="42.3549310" lon="-8.6145780">
        <ele>12.1</ele>
        <time>2019-08-17T09:10:08Z</time>
      </trkpt>
      <trkpt lat="42.3549550" lon="-8.6145960">
        <ele>12.4</ele>
        <time>2019-08-17T09:10:09Z</time>
      </trkpt>
      <trkpt lat="42.3549690" lon="-8.6146090">
        <ele>12.6</ele>
        <time>2019-08-17T09:10:10Z</time>
      </trkpt>
      <trkpt lat="42.3549810" lon="-8.6146150">
        <ele>12.7</ele>
        <time>2019-08-17T09:10:11Z</time>
      </trkpt>
      <trkpt lat="42.3549920" lon="-8.6146250">
        <ele>12.9</ele>
        <time>2019-08-17T09:10:12Z</time>
      </trkpt>
      <trkpt lat="42.3550300" lon="-8.6146390">
        <ele>13.4</ele>
        <time>2019-08-17T09:10:17Z</time>
      </trkpt>
      <trkpt lat="42.3550930" lon="-8.6146570">
        <ele>14.4</ele>
        <time>2019-08-17T09:10:28Z</time>
      </trkpt>
      <trkpt lat="42.3551070" lon="-8.6146590">
        <ele>14.6</ele>
        <time>2019-08-17T09:10:29Z</time>
      </trkpt>
      <trkpt lat="42.3551810" lon="-8.6147060">
        <ele>16.0</ele>
        <time>2019-08-17T09:10:36Z</time>
      </trkpt>
      <trkpt lat="42.3552080" lon="-8.6147180">
        <ele>16.5</ele>
        <time>2019-08-17T09:10:38Z</time>
      </trkpt>
      <trkpt lat="42.3552220" lon="-8.6147220">
        <ele>16.7</ele>
        <time>2019-08-17T09:10:39Z</time>
      </trkpt>
      <trkpt lat="42.3552610" lon="-8.6147310">
        <ele>17.4</ele>
        <time>2019-08-17T09:10:40Z</time>
      </trkpt>
      <trkpt lat="42.3552760" lon="-8.6147370">
        <ele>17.6</ele>
        <time>2019-08-17T09:10:41Z</time>
      </trkpt>
      <trkpt lat="42.3552830" lon="-8.6147400">
        <ele>17.7</ele>
        <time>2019-08-17T09:10:42Z</time>
      </trkpt>
      <trkpt lat="42.3552910" lon="-8.6147470">
        <ele>17.8</ele>
        <time>2019-08-17T09:10:43Z</time>
      </trkpt>
      <trkpt lat="42.3553640" lon="-8.6147820">
        <ele>18.8</ele>
        <time>2019-08-17T09:10:51Z</time>
      </trkpt>
      <trkpt lat="42.3554040" lon="-8.6148270">
        <ele>19.7</ele>
        <time>2019-08-17T09:10:58Z</time>
      </trkpt>
      <trkpt lat="42.3554090" lon="-8.6148370">
        <ele>19.9</ele>
        <time>2019-08-17T09:10:59Z</time>
      </trkpt>
      <trkpt lat="42.3554090" lon="-8.6148430">
        <ele>20.0</ele>
        <time>2019-08-17T09:11:00Z</time>
      </trkpt>
      <trkpt lat="42.3554130" lon="-8.6148490">
        <ele>20.1</ele>
        <time>2019-08-17T09:11:01Z</time>
      </trkpt>
      <trkpt lat="42.3554240" lon="-8.6148650">
        <ele>20.4</ele>
        <time>2019-08-17T09:11:03Z</time>
      </trkpt>
      <trkpt lat="42.3555040" lon="-8.6150130">
        <ele>22.7</ele>
        <time>2019-08-17T09:11:14Z</time>
      </trkpt>
      <trkpt lat="42.3555080" lon="-8.6150220">
        <ele>22.8</ele>
        <time>2019-08-17T09:11:15Z</time>
      </trkpt>
      <trkpt lat="42.3555110" lon="-8.6150370">
        <ele>23.0</ele>
        <time>2019-08-17T09:11:16Z</time>
      </trkpt>
      <trkpt lat="42.3555230" lon="-8.6150500">
        <ele>23.2</ele>
        <time>2019-08-17T09:11:17Z</time>
      </trkpt>
      <trkpt lat="42.3555250" lon="-8.6150610">
        <ele>23.3</ele>
        <time>2019-08-17T09:11:18Z</time>
      </trkpt>
      <trkpt lat="42.3556450" lon="-8.6151580">
        <ele>24.9</ele>
        <time>2019-08-17T09:11:29Z</time>
      </trkpt>
      <trkpt lat="42.3556850" lon="-8.6151790">
        <ele>25.3</ele>
        <time>2019-08-17T09:11:32Z</time>
      </trkpt>
      <trkpt lat="42.3556970" lon="-8.6151880">
        <ele>25.4</ele>
        <time>2019-08-17T09:11:33Z</time>
      </trkpt>
      <trkpt lat="42.3557080" lon="-8.6151970">
        <ele>25.6</ele>
        <time>2019-08-17T09:11:34Z</time>
      </trkpt>
      <trkpt lat="42.3557210" lon="-8.6152070">
        <ele>25.7</ele>
        <time>2019-08-17T09:11:35Z</time>
      </trkpt>
      <trkpt lat="42.3557320" lon="-8.6152130">
        <ele>25.8</ele>
        <time>2019-08-17T09:11:36Z</time>
      </trkpt>
      <trkpt lat="42.3558310" lon="-8.6153100">
        <ele>27.5</ele>
        <time>2019-08-17T09:11:43Z</time>
      </trkpt>
      <trkpt lat="42.3558680" lon="-8.6153650">
        <ele>28.5</ele>
        <time>2019-08-17T09:11:46Z</time>
      </trkpt>
      <trkpt lat="42.3558710" lon="-8.6153860">
        <ele>28.7</ele>
        <time>2019-08-17T09:11:47Z</time>
      </trkpt>
      <trkpt lat="42.3558790" lon="-8.6154030">
        <ele>29.0</ele>
        <time>2019-08-17T09:11:48Z</time>
      </trkpt>
      <trkpt lat="42.3558860" lon="-8.6154160">
        <ele>29.2</ele>
        <time>2019-08-17T09:11:49Z</time>
      </trkpt>
      <trkpt lat="42.3558950" lon="-8.6154320">
        <ele>29.4</ele>
        <time>2019-08-17T09:11:50Z</time>
      </trkpt>
      <trkpt lat="42.3559500" lon="-8.6155120">
        <ele>30.6</ele>
        <time>2019-08-17T09:11:56Z</time>
      </trkpt>
      <trkpt lat="42.3559620" lon="-8.6155300">
        <ele>30.9</ele>
        <time>2019-08-17T09:11:57Z</time>
      </trkpt>
      <trkpt lat="42.3559740" lon="-8.6155460">
        <ele>31.1</ele>
        <time>2019-08-17T09:11:58Z</time>
      </trkpt>
      <trkpt lat="42.3559880" lon="-8.6155520">
        <ele>31.2</ele>
        <time>2019-08-17T09:11:59Z</time>
      </trkpt>
      <trkpt lat="42.3560050" lon="-8.6155620">
        <ele>31.5</ele>
        <time>2019-08-17T09:12:00Z</time>
      </trkpt>
      <trkpt lat="42.3560570" lon="-8.6156910">
        <ele>32.5</ele>
        <time>2019-08-17T09:12:08Z</time>
      </trkpt>
      <trkpt lat="42.3561010" lon="-8.6157300">
        <ele>32.9</ele>
        <time>2019-08-17T09:12:11Z</time>
      </trkpt>
      <trkpt lat="42.3561210" lon="-8.6157390">
        <ele>33.1</ele>
        <time>2019-08-17T09:12:12Z</time>
      </trkpt>
      <trkpt lat="42.3561470" lon="-8.6157620">
        <ele>33.4</ele>
        <time>2019-08-17T09:12:13Z</time>
      </trkpt>
      <trkpt lat="42.3561660" lon="-8.6157710">
        <ele>33.6</ele>
        <time>2019-08-17T09:12:14Z</time>
      </trkpt>
      <trkpt lat="42.3561640" lon="-8.6158000">
        <ele>33.8</ele>
        <time>2019-08-17T09:12:15Z</time>
      </trkpt>
      <trkpt lat="42.3562380" lon="-8.6158960">
        <ele>34.8</ele>
        <time>2019-08-17T09:12:22Z</time>
      </trkpt>
      <trkpt lat="42.3563310" lon="-8.6159300">
        <ele>36.1</ele>
        <time>2019-08-17T09:12:29Z</time>
      </trkpt>
      <trkpt lat="42.3563360" lon="-8.6159340">
        <ele>36.2</ele>
        <time>2019-08-17T09:12:30Z</time>
      </trkpt>
      <trkpt lat="42.3563480" lon="-8.6159500">
        <ele>36.5</ele>
        <time>2019-08-17T09:12:31Z</time>
      </trkpt>
      <trkpt lat="42.3563620" lon="-8.6159570">
        <ele>36.7</ele>
        <time>2019-08-17T09:12:32Z</time>
      </trkpt>
      <trkpt lat="42.3563740" lon="-8.6159660">
        <ele>36.9</ele>
        <time>2019-08-17T09:12:33Z</time>
      </trkpt>
      <trkpt lat="42.3563800" lon="-8.6159770">
        <ele>37.0</ele>
        <time>2019-08-17T09:12:34Z</time>
      </trkpt>
      <trkpt lat="42.3563870" lon="-8.6159860">
        <ele>37.2</ele>
        <time>2019-08-17T09:12:35Z</time>
      </trkpt>
      <trkpt lat="42.3564550" lon="-8.6160290">
        <ele>38.1</ele>
        <time>2019-08-17T09:12:39Z</time>
      </trkpt>
      <trkpt lat="42.3564700" lon="-8.6160360">
        <ele>38.3</ele>
        <time>2019-08-17T09:12:40Z</time>
      </trkpt>
      <trkpt lat="42.3564860" lon="-8.6160450">
        <ele>38.4</ele>
        <time>2019-08-17T09:12:41Z</time>
      </trkpt>
      <trkpt lat="42.3565020" lon="-8.6160570">
        <ele>38.7</ele>
        <time>2019-08-17T09:12:42Z</time>
      </trkpt>
      <trkpt lat="42.3565270" lon="-8.6160690">
        <ele>39.2</ele>
        <time>2019-08-17T09:12:43Z</time>
      </trkpt>
      <trkpt lat="42.3566550" lon="-8.6161620">
        <ele>41.6</ele>
        <time>2019-08-17T09:12:49Z</time>
      </trkpt>
      <trkpt lat="42.3566690" lon="-8.6161670">
        <ele>41.8</ele>
        <time>2019-08-17T09:12:50Z</time>
      </trkpt>
      <trkpt lat="42.3566880" lon="-8.6161730">
        <ele>42.1</ele>
        <time>2019-08-17T09:12:51Z</time>
      </trkpt>
      <trkpt lat="42.3567010" lon="-8.6161770">
        <ele>42.2</ele>
        <time>2019-08-17T09:12:52Z</time>
      </trkpt>
      <trkpt lat="42.3567130" lon="-8.6161820">
        <ele>42.4</ele>
        <time>2019-08-17T09:12:53Z</time>
      </trkpt>
      <trkpt lat="42.3567750" lon="-8.6162140">
        <ele>43.5</ele>
        <time>2019-08-17T09:12:57Z</time>
      </trkpt>
      <trkpt lat="42.3568390" lon="-8.6162220">
        <ele>44.2</ele>
        <time>2019-08-17T09:13:02Z</time>
      </trkpt>
      <trkpt lat="42.3568570" lon="-8.6162190">
        <ele>44.5</ele>
        <time>2019-08-17T09:13:03Z</time>
      </trkpt>
      <trkpt lat="42.3568750" lon="-8.6162160">
        <ele>44.7</ele>
        <time>2019-08-17T09:13:04Z</time>
      </trkpt>
      <trkpt lat="42.3568950" lon="-8.6162100">
        <ele>44.9</ele>
        <time>2019-08-17T09:13:05Z</time>
      </trkpt>
      <trkpt lat="42.3569120" lon="-8.6162050">
        <ele>45.2</ele>
        <time>2019-08-17T09:13:06Z</time>
      </trkpt>
      <trkpt lat="42.3569940" lon="-8.6162020">
        <ele>46.4</ele>
        <time>2019-08-17T09:13:12Z</time>
      </trkpt>
      <trkpt lat="42.3570200" lon="-8.6161970">
        <ele>46.8</ele>
        <time>2019-08-17T09:13:14Z</time>
      </trkpt>
      <trkpt lat="42.3570300" lon="-8.6161950">
        <ele>47.0</ele>
        <time>2019-08-17T09:13:15Z</time>
      </trkpt>
      <trkpt lat="42.3570480" lon="-8.6161890">
        <ele>47.3</ele>
        <time>2019-08-17T09:13:16Z</time>
      </trkpt>
      <trkpt lat="42.3570660" lon="-8.6161810">
        <ele>47.6</ele>
        <time>2019-08-17T09:13:17Z</time>
      </trkpt>
      <trkpt lat="42.3570850" lon="-8.6161730">
        <ele>47.9</ele>
        <time>2019-08-17T09:13:18Z</time>
      </trkpt>
      <trkpt lat="42.3570950" lon="-8.6161660">
        <ele>48.1</ele>
        <time>2019-08-17T09:13:19Z</time>
      </trkpt>
      <trkpt lat="42.3571310" lon="-8.6161450">
        <ele>48.6</ele>
        <time>2019-08-17T09:13:22Z</time>
      </trkpt>
      <trkpt lat="42.3571420" lon="-8.6161360">
        <ele>48.7</ele>
        <time>2019-08-17T09:13:23Z</time>
      </trkpt>
      <trkpt lat="42.3571490" lon="-8.6161360">
        <ele>48.7</ele>
        <time>2019-08-17T09:13:24Z</time>
      </trkpt>
      <trkpt lat="42.3571620" lon="-8.6161320">
        <ele>48.8</ele>
        <time>2019-08-17T09:13:25Z</time>
      </trkpt>
      <trkpt lat="42.3571680" lon="-8.6161350">
        <ele>48.9</ele>
        <time>2019-08-17T09:13:26Z</time>
      </trkpt>
      <trkpt lat="42.3572210" lon="-8.6161380">
        <ele>49.3</ele>
        <time>2019-08-17T09:13:30Z</time>
      </trkpt>
      <trkpt lat="42.3572350" lon="-8.6161470">
        <ele>49.4</ele>
        <time>2019-08-17T09:13:31Z</time>
      </trkpt>
      <trkpt lat="42.3573640" lon="-8.6162100">
        <ele>50.5</ele>
        <time>2019-08-17T09:13:39Z</time>
      </trkpt>
      <trkpt lat="42.3574710" lon="-8.6162710">
        <ele>51.0</ele>
        <time>2019-08-17T09:13:46Z</time>
      </trkpt>
      <trkpt lat="42.3574870" lon="-8.6162730">
        <ele>51.1</ele>
        <time>2019-08-17T09:13:47Z</time>
      </trkpt>
      <trkpt lat="42.3575200" lon="-8.6163210">
        <ele>51.2</ele>
        <time>2019-08-17T09:13:51Z</time>
      </trkpt>
      <trkpt lat="42.3576470" lon="-8.6161720">
        <ele>50.8</ele>
        <time>2019-08-17T09:15:01Z</time>
      </trkpt>
      <trkpt lat="42.3577210" lon="-8.6161790">
        <ele>50.8</ele>
        <time>2019-08-17T09:15:05Z</time>
      </trkpt>
      <trkpt lat="42.3578150" lon="-8.6161120">
        <ele>50.8</ele>
        <time>2019-08-17T09:15:11Z</time>
      </trkpt>
      <trkpt lat="42.3579300" lon="-8.6160220">
        <ele>50.9</ele>
        <time>2019-08-17T09:15:18Z</time>
      </trkpt>
      <trkpt lat="42.3580400" lon="-8.6158570">
        <ele>51.1</ele>
        <time>2019-08-17T09:15:26Z</time>
      </trkpt>
      <trkpt lat="42.3581830" lon="-8.6156820">
        <ele>51.8</ele>
        <time>2019-08-17T09:15:33Z</time>
      </trkpt>
      <trkpt lat="42.3582710" lon="-8.6155900">
        <ele>52.1</ele>
        <time>2019-08-17T09:15:40Z</time>
      </trkpt>
      <trkpt lat="42.3584140" lon="-8.6154650">
        <ele>52.8</ele>
        <time>2019-08-17T09:15:46Z</time>
      </trkpt>
      <trkpt lat="42.3584910" lon="-8.6154100">
        <ele>53.3</ele>
        <time>2019-08-17T09:15:50Z</time>
      </trkpt>
      <trkpt lat="42.3585110" lon="-8.6153940">
        <ele>53.5</ele>
        <time>2019-08-17T09:15:51Z</time>
      </trkpt>
      <trkpt lat="42.3585250" lon="-8.6153840">
        <ele>53.6</ele>
        <time>2019-08-17T09:15:52Z</time>
      </trkpt>
      <trkpt lat="42.3585440" lon="-8.6153770">
        <ele>53.8</ele>
        <time>2019-08-17T09:15:53Z</time>
      </trkpt>
      <trkpt lat="42.3585620" lon="-8.6153800">
        <ele>54.0</ele>
        <time>2019-08-17T09:15:54Z</time>
      </trkpt>
      <trkpt lat="42.3586180" lon="-8.6153690">
        <ele>54.6</ele>
        <time>2019-08-17T09:15:57Z</time>
      </trkpt>
      <trkpt lat="42.3587070" lon="-8.6153760">
        <ele>55.5</ele>
        <time>2019-08-17T09:16:03Z</time>
      </trkpt>
      <trkpt lat="42.3587170" lon="-8.6153730">
        <ele>55.6</ele>
        <time>2019-08-17T09:16:04Z</time>
      </trkpt>
      <trkpt lat="42.3587300" lon="-8.6153690">
        <ele>55.7</ele>
        <time>2019-08-17T09:16:05Z</time>
      </trkpt>
      <trkpt lat="42.3587500" lon="-8.6153620">
        <ele>55.9</ele>
        <time>2019-08-17T09:16:06Z</time>
      </trkpt>
      <trkpt lat="42.3587940" lon="-8.6153590">
        <ele>56.2</ele>
        <time>2019-08-17T09:16:07Z</time>
      </trkpt>
      <trkpt lat="42.3589260" lon="-8.6153240">
        <ele>57.3</ele>
        <time>2019-08-17T09:16:13Z</time>
      </trkpt>
      <trkpt lat="42.3589580" lon="-8.6153330">
        <ele>57.5</ele>
        <time>2019-08-17T09:16:15Z</time>
      </trkpt>
      <trkpt lat="42.3590070" lon="-8.6153470">
        <ele>57.9</ele>
        <time>2019-08-17T09:16:18Z</time>
      </trkpt>
      <trkpt lat="42.3590220" lon="-8.6153580">
        <ele>58.0</ele>
        <time>2019-08-17T09:16:19Z</time>
      </trkpt>
      <trkpt lat="42.3590390" lon="-8.6153680">
        <ele>58.1</ele>
        <time>2019-08-17T09:16:20Z</time>
      </trkpt>
      <trkpt lat="42.3590510" lon="-8.6153770">
        <ele>58.1</ele>
        <time>2019-08-17T09:16:21Z</time>
      </trkpt>
      <trkpt lat="42.3590650" lon="-8.6153860">
        <ele>58.2</ele>
        <time>2019-08-17T09:16:22Z</time>
      </trkpt>
      <trkpt lat="42.3591420" lon="-8.6154300">
        <ele>58.6</ele>
        <time>2019-08-17T09:16:26Z</time>
      </trkpt>
      <trkpt lat="42.3592170" lon="-8.6155050">
        <ele>59.1</ele>
        <time>2019-08-17T09:16:32Z</time>
      </trkpt>
      <trkpt lat="42.3593310" lon="-8.6155890">
        <ele>59.7</ele>
        <time>2019-08-17T09:16:39Z</time>
      </trkpt>
      <trkpt lat="42.3594320" lon="-8.6156230">
        <ele>60.1</ele>
        <time>2019-08-17T09:16:43Z</time>
      </trkpt>
      <trkpt lat="42.3594500" lon="-8.6156370">
        <ele>60.1</ele>
        <time>2019-08-17T09:16:44Z</time>
      </trkpt>
      <trkpt lat="42.3594660" lon="-8.6156520">
        <ele>60.2</ele>
        <time>2019-08-17T09:16:45Z</time>
      </trkpt>
      <trkpt lat="42.3594820" lon="-8.6156650">
        <ele>60.2</ele>
        <time>2019-08-17T09:16:46Z</time>
      </trkpt>
      <trkpt lat="42.3595020" lon="-8.6156800">
        <ele>60.3</ele>
        <time>2019-08-17T09:16:47Z</time>
      </trkpt>
      <trkpt lat="42.3596370" lon="-8.6157110">
        <ele>60.5</ele>
        <time>2019-08-17T09:16:53Z</time>
      </trkpt>
      <trkpt lat="42.3597950" lon="-8.6156520">
        <ele>60.7</ele>
        <time>2019-08-17T09:16:59Z</time>
      </trkpt>
      <trkpt lat="42.3599600" lon="-8.6156490">
        <ele>60.7</ele>
        <time>2019-08-17T09:17:05Z</time>
      </trkpt>
      <trkpt lat="42.3601220" lon="-8.6156300">
        <ele>60.9</ele>
        <time>2019-08-17T09:17:12Z</time>
      </trkpt>
      <trkpt lat="42.3602610" lon="-8.6156520">
        <ele>61.0</ele>
        <time>2019-08-17T09:17:19Z</time>
      </trkpt>
      <trkpt lat="42.3602930" lon="-8.6156770">
        <ele>61.0</ele>
        <time>2019-08-17T09:17:21Z</time>
      </trkpt>
      <trkpt lat="42.3603050" lon="-8.6156930">
        <ele>61.0</ele>
        <time>2019-08-17T09:17:22Z</time>
      </trkpt>
      <trkpt lat="42.3603200" lon="-8.6157080">
        <ele>61.0</ele>
        <time>2019-08-17T09:17:23Z</time>
      </trkpt>
      <trkpt lat="42.3603310" lon="-8.6157290">
        <ele>61.1</ele>
        <time>2019-08-17T09:17:24Z</time>
      </trkpt>
      <trkpt lat="42.3603460" lon="-8.6157500">
        <ele>61.1</ele>
        <time>2019-08-17T09:17:25Z</time>
      </trkpt>
      <trkpt lat="42.3603940" lon="-8.6158240">
        <ele>61.1</ele>
        <time>2019-08-17T09:17:29Z</time>
      </trkpt>
      <trkpt lat="42.3604050" lon="-8.6158420">
        <ele>61.1</ele>
        <time>2019-08-17T09:17:30Z</time>
      </trkpt>
      <trkpt lat="42.3604150" lon="-8.6158580">
        <ele>61.2</ele>
        <time>2019-08-17T09:17:31Z</time>
      </trkpt>
      <trkpt lat="42.3604260" lon="-8.6158740">
        <ele>61.2</ele>
        <time>2019-08-17T09:17:32Z</time>
      </trkpt>
      <trkpt lat="42.3604380" lon="-8.6158890">
        <ele>61.2</ele>
        <time>2019-08-17T09:17:33Z</time>
      </trkpt>
      <trkpt lat="42.3604590" lon="-8.6159200">
        <ele>61.2</ele>
        <time>2019-08-17T09:17:35Z</time>
      </trkpt>
      <trkpt lat="42.3604820" lon="-8.6159540">
        <ele>61.2</ele>
        <time>2019-08-17T09:17:37Z</time>
      </trkpt>
      <trkpt lat="42.3604960" lon="-8.6159680">
        <ele>61.3</ele>
        <time>2019-08-17T09:17:38Z</time>
      </trkpt>
      <trkpt lat="42.3605090" lon="-8.6159840">
        <ele>61.3</ele>
        <time>2019-08-17T09:17:39Z</time>
      </trkpt>
      <trkpt lat="42.3605270" lon="-8.6160000">
        <ele>61.3</ele>
        <time>2019-08-17T09:17:40Z</time>
      </trkpt>
      <trkpt lat="42.3605370" lon="-8.6160120">
        <ele>61.3</ele>
        <time>2019-08-17T09:17:41Z</time>
      </trkpt>
      <trkpt lat="42.3605810" lon="-8.6160510">
        <ele>61.3</ele>
        <time>2019-08-17T09:17:44Z</time>
      </trkpt>
      <trkpt lat="42.3607100" lon="-8.6161210">
        <ele>63.4</ele>
        <time>2019-08-17T09:17:51Z</time>
      </trkpt>
      <trkpt lat="42.3608130" lon="-8.6161440">
        <ele>63.9</ele>
        <time>2019-08-17T09:17:56Z</time>
      </trkpt>
      <trkpt lat="42.3608350" lon="-8.6161470">
        <ele>64.0</ele>
        <time>2019-08-17T09:17:57Z</time>
      </trkpt>
      <trkpt lat="42.3608550" lon="-8.6161530">
        <ele>64.1</ele>
        <time>2019-08-17T09:17:58Z</time>
      </trkpt>
      <trkpt lat="42.3608700" lon="-8.6161530">
        <ele>64.2</ele>
        <time>2019-08-17T09:17:59Z</time>
      </trkpt>
      <trkpt lat="42.3608870" lon="-8.6161520">
        <ele>64.3</ele>
        <time>2019-08-17T09:18:00Z</time>
      </trkpt>
      <trkpt lat="42.3609470" lon="-8.6161520">
        <ele>64.6</ele>
        <time>2019-08-17T09:18:03Z</time>
      </trkpt>
      <trkpt lat="42.3611160" lon="-8.6161310">
        <ele>65.3</ele>
        <time>2019-08-17T09:18:10Z</time>
      </trkpt>
      <trkpt lat="42.3613010" lon="-8.6161120">
        <ele>66.1</ele>
        <time>2019-08-17T09:18:18Z</time>
      </trkpt>
      <trkpt lat="42.3613770" lon="-8.6161260">
        <ele>66.5</ele>
        <time>2019-08-17T09:18:23Z</time>
      </trkpt>
      <trkpt lat="42.3613930" lon="-8.6161330">
        <ele>66.6</ele>
        <time>2019-08-17T09:18:24Z</time>
      </trkpt>
      <trkpt lat="42.3614070" lon="-8.6161420">
        <ele>66.7</ele>
        <time>2019-08-17T09:18:25Z</time>
      </trkpt>
      <trkpt lat="42.3614180" lon="-8.6161480">
        <ele>66.8</ele>
        <time>2019-08-17T09:18:26Z</time>
      </trkpt>
      <trkpt lat="42.3614190" lon="-8.6161580">
        <ele>66.8</ele>
        <time>2019-08-17T09:18:27Z</time>
      </trkpt>
      <trkpt lat="42.3614740" lon="-8.6161830">
        <ele>67.2</ele>
        <time>2019-08-17T09:18:31Z</time>
      </trkpt>
      <trkpt lat="42.3615520" lon="-8.6162030">
        <ele>67.7</ele>
        <time>2019-08-17T09:18:35Z</time>
      </trkpt>
      <trkpt lat="42.3615690" lon="-8.6162080">
        <ele>67.9</ele>
        <time>2019-08-17T09:18:36Z</time>
      </trkpt>
      <trkpt lat="42.3615840" lon="-8.6162130">
        <ele>68.0</ele>
        <time>2019-08-17T09:18:37Z</time>
      </trkpt>
      <trkpt lat="42.3616050" lon="-8.6162150">
        <ele>68.1</ele>
        <time>2019-08-17T09:18:38Z</time>
      </trkpt>
      <trkpt lat="42.3616270" lon="-8.6162200">
        <ele>68.3</ele>
        <time>2019-08-17T09:18:39Z</time>
      </trkpt>
      <trkpt lat="42.3617780" lon="-8.6162720">
        <ele>69.7</ele>
        <time>2019-08-17T09:18:46Z</time>
      </trkpt>
      <trkpt lat="42.3617970" lon="-8.6162790">
        <ele>69.9</ele>
        <time>2019-08-17T09:18:47Z</time>
      </trkpt>
      <trkpt lat="42.3618100" lon="-8.6162860">
        <ele>70.2</ele>
        <time>2019-08-17T09:18:48Z</time>
      </trkpt>
      <trkpt lat="42.3618270" lon="-8.6162890">
        <ele>70.8</ele>
        <time>2019-08-17T09:18:49Z</time>
      </trkpt>
      <trkpt lat="42.3618410" lon="-8.6162930">
        <ele>70.9</ele>
        <time>2019-08-17T09:18:50Z</time>
      </trkpt>
      <trkpt lat="42.3618820" lon="-8.6162800">
        <ele>71.2</ele>
        <time>2019-08-17T09:18:53Z</time>
      </trkpt>
      <trkpt lat="42.3620190" lon="-8.6162520">
        <ele>72.5</ele>
        <time>2019-08-17T09:19:00Z</time>
      </trkpt>
      <trkpt lat="42.3621460" lon="-8.6162450">
        <ele>73.5</ele>
        <time>2019-08-17T09:19:06Z</time>
      </trkpt>
      <trkpt lat="42.3622640" lon="-8.6162360">
        <ele>74.3</ele>
        <time>2019-08-17T09:19:12Z</time>
      </trkpt>
      <trkpt lat="42.3623480" lon="-8.6162140">
        <ele>74.9</ele>
        <time>2019-08-17T09:19:16Z</time>
      </trkpt>
      <trkpt lat="42.3623740" lon="-8.6162120">
        <ele>75.0</ele>
        <time>2019-08-17T09:19:17Z</time>
      </trkpt>
      <trkpt lat="42.3623980" lon="-8.6162100">
        <ele>75.2</ele>
        <time>2019-08-17T09:19:18Z</time>
      </trkpt>
      <trkpt lat="42.3624200" lon="-8.6162090">
        <ele>75.5</ele>
        <time>2019-08-17T09:19:19Z</time>
      </trkpt>
      <trkpt lat="42.3624410" lon="-8.6162080">
        <ele>75.8</ele>
        <time>2019-08-17T09:19:20Z</time>
      </trkpt>
      <trkpt lat="42.3626550" lon="-8.6162170">
        <ele>78.1</ele>
        <time>2019-08-17T09:19:30Z</time>
      </trkpt>
      <trkpt lat="42.3627500" lon="-8.6162440">
        <ele>79.5</ele>
        <time>2019-08-17T09:19:36Z</time>
      </trkpt>
      <trkpt lat="42.3627800" lon="-8.6162550">
        <ele>79.8</ele>
        <time>2019-08-17T09:19:38Z</time>
      </trkpt>
      <trkpt lat="42.3627910" lon="-8.6162660">
        <ele>80.0</ele>
        <time>2019-08-17T09:19:39Z</time>
      </trkpt>
      <trkpt lat="42.3628040" lon="-8.6162710">
        <ele>80.1</ele>
        <time>2019-08-17T09:19:40Z</time>
      </trkpt>
      <trkpt lat="42.3628140" lon="-8.6162920">
        <ele>80.3</ele>
        <time>2019-08-17T09:19:41Z</time>
      </trkpt>
      <trkpt lat="42.3628300" lon="-8.6162980">
        <ele>80.4</ele>
        <time>2019-08-17T09:19:42Z</time>
      </trkpt>
      <trkpt lat="42.3628410" lon="-8.6163130">
        <ele>80.6</ele>
        <time>2019-08-17T09:19:43Z</time>
      </trkpt>
      <trkpt lat="42.3629270" lon="-8.6163750">
        <ele>81.9</ele>
        <time>2019-08-17T09:19:47Z</time>
      </trkpt>
      <trkpt lat="42.3629370" lon="-8.6163800">
        <ele>82.1</ele>
        <time>2019-08-17T09:19:48Z</time>
      </trkpt>
      <trkpt lat="42.3629380" lon="-8.6163850">
        <ele>82.1</ele>
        <time>2019-08-17T09:19:49Z</time>
      </trkpt>
      <trkpt lat="42.3631310" lon="-8.6164350">
        <ele>85.2</ele>
        <time>2019-08-17T09:20:04Z</time>
      </trkpt>
      <trkpt lat="42.3631470" lon="-8.6164430">
        <ele>85.5</ele>
        <time>2019-08-17T09:20:05Z</time>
      </trkpt>
      <trkpt lat="42.3631650" lon="-8.6164510">
        <ele>85.7</ele>
        <time>2019-08-17T09:20:06Z</time>
      </trkpt>
      <trkpt lat="42.3632120" lon="-8.6164830">
        <ele>86.4</ele>
        <time>2019-08-17T09:20:10Z</time>
      </trkpt>
      <trkpt lat="42.3632210" lon="-8.6164850">
        <ele>86.5</ele>
        <time>2019-08-17T09:20:11Z</time>
      </trkpt>
      <trkpt lat="42.3632320" lon="-8.6164910">
        <ele>86.7</ele>
        <time>2019-08-17T09:20:12Z</time>
      </trkpt>
      <trkpt lat="42.3632630" lon="-8.6164990">
        <ele>87.3</ele>
        <time>2019-08-17T09:20:13Z</time>
      </trkpt>
      <trkpt lat="42.3632830" lon="-8.6165120">
        <ele>87.7</ele>
        <time>2019-08-17T09:20:14Z</time>
      </trkpt>
      <trkpt lat="42.3632910" lon="-8.6165240">
        <ele>87.8</ele>
        <time>2019-08-17T09:20:15Z</time>
      </trkpt>
      <trkpt lat="42.3633010" lon="-8.6165300">
        <ele>88.0</ele>
        <time>2019-08-17T09:20:16Z</time>
      </trkpt>
      <trkpt lat="42.3633110" lon="-8.6165410">
        <ele>88.1</ele>
        <time>2019-08-17T09:20:17Z</time>
      </trkpt>
      <trkpt lat="42.3633270" lon="-8.6165530">
        <ele>88.4</ele>
        <time>2019-08-17T09:20:18Z</time>
      </trkpt>
      <trkpt lat="42.3634520" lon="-8.6166310">
        <ele>90.5</ele>
        <time>2019-08-17T09:20:25Z</time>
      </trkpt>
      <trkpt lat="42.3634970" lon="-8.6166450">
        <ele>91.1</ele>
        <time>2019-08-17T09:20:30Z</time>
      </trkpt>
      <trkpt lat="42.3634950" lon="-8.6166560">
        <ele>91.3</ele>
        <time>2019-08-17T09:20:31Z</time>
      </trkpt>
      <trkpt lat="42.3635190" lon="-8.6166650">
        <ele>91.6</ele>
        <time>2019-08-17T09:20:34Z</time>
      </trkpt>
      <trkpt lat="42.3635310" lon="-8.6166670">
        <ele>91.8</ele>
        <time>2019-08-17T09:20:35Z</time>
      </trkpt>
      <trkpt lat="42.3636200" lon="-8.6166680">
        <ele>93.3</ele>
        <time>2019-08-17T09:20:37Z</time>
      </trkpt>
      <trkpt lat="42.3636400" lon="-8.6166860">
        <ele>93.7</ele>
        <time>2019-08-17T09:20:39Z</time>
      </trkpt>
      <trkpt lat="42.3636500" lon="-8.6166840">
        <ele>93.8</ele>
        <time>2019-08-17T09:20:40Z</time>
      </trkpt>
      <trkpt lat="42.3636590" lon="-8.6166840">
        <ele>94.0</ele>
        <time>2019-08-17T09:20:41Z</time>
      </trkpt>
      <trkpt lat="42.3636670" lon="-8.6166870">
        <ele>94.1</ele>
        <time>2019-08-17T09:20:42Z</time>
      </trkpt>
      <trkpt lat="42.3636840" lon="-8.6166870">
        <ele>94.3</ele>
        <time>2019-08-17T09:20:43Z</time>
      </trkpt>
      <trkpt lat="42.3636940" lon="-8.6166840">
        <ele>94.5</ele>
        <time>2019-08-17T09:20:44Z</time>
      </trkpt>
      <trkpt lat="42.3638650" lon="-8.6166730">
        <ele>96.6</ele>
        <time>2019-08-17T09:20:49Z</time>
      </trkpt>
      <trkpt lat="42.3639120" lon="-8.6166730">
        <ele>97.2</ele>
        <time>2019-08-17T09:20:50Z</time>
      </trkpt>
      <trkpt lat="42.3639420" lon="-8.6166790">
        <ele>97.6</ele>
        <time>2019-08-17T09:20:51Z</time>
      </trkpt>
      <trkpt lat="42.3639640" lon="-8.6166830">
        <ele>97.9</ele>
        <time>2019-08-17T09:20:52Z</time>
      </trkpt>
      <trkpt lat="42.3639770" lon="-8.6166850">
        <ele>98.0</ele>
        <time>2019-08-17T09:20:53Z</time>
      </trkpt>
      <trkpt lat="42.3640230" lon="-8.6166880">
        <ele>98.6</ele>
        <time>2019-08-17T09:20:57Z</time>
      </trkpt>
      <trkpt lat="42.3640980" lon="-8.6166500">
        <ele>99.5</ele>
        <time>2019-08-17T09:21:03Z</time>
      </trkpt>
      <trkpt lat="42.3641180" lon="-8.6166400">
        <ele>99.6</ele>
        <time>2019-08-17T09:21:04Z</time>
      </trkpt>
      <trkpt lat="42.3641290" lon="-8.6166260">
        <ele>99.7</ele>
        <time>2019-08-17T09:21:05Z</time>
      </trkpt>
      <trkpt lat="42.3641420" lon="-8.6166160">
        <ele>99.9</ele>
        <time>2019-08-17T09:21:06Z</time>
      </trkpt>
      <trkpt lat="42.3641550" lon="-8.6166050">
        <ele>100.0</ele>
        <time>2019-08-17T09:21:07Z</time>
      </trkpt>
      <trkpt lat="42.3641770" lon="-8.6165770">
        <ele>100.2</ele>
        <time>2019-08-17T09:21:09Z</time>
      </trkpt>
      <trkpt lat="42.3642280" lon="-8.6165160">
        <ele>101.0</ele>
        <time>2019-08-17T09:21:14Z</time>
      </trkpt>
      <trkpt lat="42.3642810" lon="-8.6164900">
        <ele>101.5</ele>
        <time>2019-08-17T09:21:18Z</time>
      </trkpt>
      <trkpt lat="42.3642940" lon="-8.6164910">
        <ele>101.6</ele>
        <time>2019-08-17T09:21:19Z</time>
      </trkpt>
      <trkpt lat="42.3643070" lon="-8.6164870">
        <ele>101.7</ele>
        <time>2019-08-17T09:21:20Z</time>
      </trkpt>
      <trkpt lat="42.3643290" lon="-8.6164810">
        <ele>101.9</ele>
        <time>2019-08-17T09:21:21Z</time>
      </trkpt>
      <trkpt lat="42.3643470" lon="-8.6164790">
        <ele>102.1</ele>
        <time>2019-08-17T09:21:22Z</time>
      </trkpt>
      <trkpt lat="42.3644070" lon="-8.6164740">
        <ele>102.6</ele>
        <time>2019-08-17T09:21:28Z</time>
      </trkpt>
      <trkpt lat="42.3644140" lon="-8.6164810">
        <ele>102.6</ele>
        <time>2019-08-17T09:21:29Z</time>
      </trkpt>
      <trkpt lat="42.3644570" lon="-8.6164870">
        <ele>103.0</ele>
        <time>2019-08-17T09:21:32Z</time>
      </trkpt>
      <trkpt lat="42.3644970" lon="-8.6164790">
        <ele>103.4</ele>
        <time>2019-08-17T09:21:34Z</time>
      </trkpt>
      <trkpt lat="42.3645540" lon="-8.6164820">
        <ele>103.9</ele>
        <time>2019-08-17T09:21:37Z</time>
      </trkpt>
      <trkpt lat="42.3646220" lon="-8.6164880">
        <ele>104.4</ele>
        <time>2019-08-17T09:21:41Z</time>
      </trkpt>
      <trkpt lat="42.3646470" lon="-8.6165040">
        <ele>104.6</ele>
        <time>2019-08-17T09:21:43Z</time>
      </trkpt>
      <trkpt lat="42.3646630" lon="-8.6165080">
        <ele>104.7</ele>
        <time>2019-08-17T09:21:44Z</time>
      </trkpt>
      <trkpt lat="42.3646760" lon="-8.6165090">
        <ele>104.8</ele>
        <time>2019-08-17T09:21:45Z</time>
      </trkpt>
      <trkpt lat="42.3646850" lon="-8.6165200">
        <ele>104.9</ele>
        <time>2019-08-17T09:21:46Z</time>
      </trkpt>
      <trkpt lat="42.3647090" lon="-8.6165100">
        <ele>105.1</ele>
        <time>2019-08-17T09:21:47Z</time>
      </trkpt>
      <trkpt lat="42.3648870" lon="-8.6165500">
        <ele>106.7</ele>
        <time>2019-08-17T09:21:55Z</time>
      </trkpt>
      <trkpt lat="42.3650170" lon="-8.6165980">
        <ele>108.2</ele>
        <time>2019-08-17T09:22:03Z</time>
      </trkpt>
      <trkpt lat="42.3650300" lon="-8.6166030">
        <ele>108.4</ele>
        <time>2019-08-17T09:22:04Z</time>
      </trkpt>
      <trkpt lat="42.3650440" lon="-8.6166060">
        <ele>108.5</ele>
        <time>2019-08-17T09:22:05Z</time>
      </trkpt>
      <trkpt lat="42.3650590" lon="-8.6166060">
        <ele>108.7</ele>
        <time>2019-08-17T09:22:06Z</time>
      </trkpt>
      <trkpt lat="42.3650690" lon="-8.6166110">
        <ele>108.8</ele>
        <time>2019-08-17T09:22:07Z</time>
      </trkpt>
      <trkpt lat="42.3651270" lon="-8.6166450">
        <ele>109.5</ele>
        <time>2019-08-17T09:22:12Z</time>
      </trkpt>
      <trkpt lat="42.3651380" lon="-8.6166500">
        <ele>109.7</ele>
        <time>2019-08-17T09:22:13Z</time>
      </trkpt>
      <trkpt lat="42.3651520" lon="-8.6166530">
        <ele>109.9</ele>
        <time>2019-08-17T09:22:14Z</time>
      </trkpt>
      <trkpt lat="42.3651660" lon="-8.6166600">
        <ele>110.2</ele>
        <time>2019-08-17T09:22:15Z</time>
      </trkpt>
      <trkpt lat="42.3651770" lon="-8.6166660">
        <ele>110.3</ele>
        <time>2019-08-17T09:22:16Z</time>
      </trkpt>
      <trkpt lat="42.3652260" lon="-8.6166980">
        <ele>111.1</ele>
        <time>2019-08-17T09:22:20Z</time>
      </trkpt>
      <trkpt lat="42.3652620" lon="-8.6167210">
        <ele>111.7</ele>
        <time>2019-08-17T09:22:22Z</time>
      </trkpt>
      <trkpt lat="42.3652770" lon="-8.6167280">
        <ele>112.0</ele>
        <time>2019-08-17T09:22:23Z</time>
      </trkpt>
      <trkpt lat="42.3652860" lon="-8.6167380">
        <ele>112.2</ele>
        <time>2019-08-17T09:22:24Z</time>
      </trkpt>
      <trkpt lat="42.3653000" lon="-8.6167450">
        <ele>112.4</ele>
        <time>2019-08-17T09:22:25Z</time>
      </trkpt>
      <trkpt lat="42.3653120" lon="-8.6167550">
        <ele>112.6</ele>
        <time>2019-08-17T09:22:26Z</time>
      </trkpt>
      <trkpt lat="42.3653650" lon="-8.6168050">
        <ele>113.5</ele>
        <time>2019-08-17T09:22:30Z</time>
      </trkpt>
      <trkpt lat="42.3653720" lon="-8.6168200">
        <ele>113.6</ele>
        <time>2019-08-17T09:22:31Z</time>
      </trkpt>
      <trkpt lat="42.3653750" lon="-8.6168390">
        <ele>113.9</ele>
        <time>2019-08-17T09:22:32Z</time>
      </trkpt>
      <trkpt lat="42.3653810" lon="-8.6168530">
        <ele>114.1</ele>
        <time>2019-08-17T09:22:33Z</time>
      </trkpt>
      <trkpt lat="42.3653830" lon="-8.6168680">
        <ele>114.3</ele>
        <time>2019-08-17T09:22:34Z</time>
      </trkpt>
      <trkpt lat="42.3653820" lon="-8.6168850">
        <ele>114.6</ele>
        <time>2019-08-17T09:22:35Z</time>
      </trkpt>
      <trkpt lat="42.3653620" lon="-8.6169280">
        <ele>115.1</ele>
        <time>2019-08-17T09:22:38Z</time>
      </trkpt>
      <trkpt lat="42.3653490" lon="-8.6169510">
        <ele>115.5</ele>
        <time>2019-08-17T09:22:39Z</time>
      </trkpt>
      <trkpt lat="42.3653330" lon="-8.6169750">
        <ele>115.8</ele>
        <time>2019-08-17T09:22:40Z</time>
      </trkpt>
      <trkpt lat="42.3653200" lon="-8.6169920">
        <ele>116.1</ele>
        <time>2019-08-17T09:22:41Z</time>
      </trkpt>
      <trkpt lat="42.3653100" lon="-8.6170050">
        <ele>116.3</ele>
        <time>2019-08-17T09:22:42Z</time>
      </trkpt>
      <trkpt lat="42.3652960" lon="-8.6170170">
        <ele>116.5</ele>
        <time>2019-08-17T09:22:43Z</time>
      </trkpt>
      <trkpt lat="42.3652700" lon="-8.6170290">
        <ele>116.9</ele>
        <time>2019-08-17T09:22:45Z</time>
      </trkpt>
      <trkpt lat="42.3652320" lon="-8.6170500">
        <ele>117.5</ele>
        <time>2019-08-17T09:22:48Z</time>
      </trkpt>
      <trkpt lat="42.3652230" lon="-8.6170600">
        <ele>117.7</ele>
        <time>2019-08-17T09:22:49Z</time>
      </trkpt>
      <trkpt lat="42.3652160" lon="-8.6170690">
        <ele>117.8</ele>
        <time>2019-08-17T09:22:50Z</time>
      </trkpt>
      <trkpt lat="42.3652100" lon="-8.6170710">
        <ele>117.9</ele>
        <time>2019-08-17T09:22:51Z</time>
      </trkpt>
      <trkpt lat="42.3652070" lon="-8.6170780">
        <ele>117.9</ele>
        <time>2019-08-17T09:22:52Z</time>
      </trkpt>
      <trkpt lat="42.3651950" lon="-8.6170960">
        <ele>118.2</ele>
        <time>2019-08-17T09:22:53Z</time>
      </trkpt>
      <trkpt lat="42.3651910" lon="-8.6171180">
        <ele>118.4</ele>
        <time>2019-08-17T09:22:55Z</time>
      </trkpt>
      <trkpt lat="42.3651860" lon="-8.6171670">
        <ele>118.9</ele>
        <time>2019-08-17T09:22:58Z</time>
      </trkpt>
      <trkpt lat="42.3651780" lon="-8.6171910">
        <ele>119.2</ele>
        <time>2019-08-17T09:22:59Z</time>
      </trkpt>
      <trkpt lat="42.3651700" lon="-8.6172140">
        <ele>119.6</ele>
        <time>2019-08-17T09:23:00Z</time>
      </trkpt>
      <trkpt lat="42.3651670" lon="-8.6172350">
        <ele>119.8</ele>
        <time>2019-08-17T09:23:01Z</time>
      </trkpt>
      <trkpt lat="42.3651640" lon="-8.6172530">
        <ele>120.0</ele>
        <time>2019-08-17T09:23:02Z</time>
      </trkpt>
      <trkpt lat="42.3651390" lon="-8.6173290">
        <ele>120.8</ele>
        <time>2019-08-17T09:23:06Z</time>
      </trkpt>
      <trkpt lat="42.3651120" lon="-8.6173810">
        <ele>121.4</ele>
        <time>2019-08-17T09:23:09Z</time>
      </trkpt>
      <trkpt lat="42.3651020" lon="-8.6173930">
        <ele>121.6</ele>
        <time>2019-08-17T09:23:10Z</time>
      </trkpt>
      <trkpt lat="42.3650890" lon="-8.6174040">
        <ele>121.8</ele>
        <time>2019-08-17T09:23:11Z</time>
      </trkpt>
      <trkpt lat="42.3650790" lon="-8.6174160">
        <ele>121.9</ele>
        <time>2019-08-17T09:23:12Z</time>
      </trkpt>
      <trkpt lat="42.3650680" lon="-8.6174310">
        <ele>122.1</ele>
        <time>2019-08-17T09:23:13Z</time>
      </trkpt>
      <trkpt lat="42.3650480" lon="-8.6174510">
        <ele>122.3</ele>
        <time>2019-08-17T09:23:15Z</time>
      </trkpt>
      <trkpt lat="42.3649880" lon="-8.6175140">
        <ele>122.9</ele>
        <time>2019-08-17T09:23:21Z</time>
      </trkpt>
      <trkpt lat="42.3648880" lon="-8.6176360">
        <ele>123.8</ele>
        <time>2019-08-17T09:23:29Z</time>
      </trkpt>
      <trkpt lat="42.3648070" lon="-8.6177120">
        <ele>124.7</ele>
        <time>2019-08-17T09:23:34Z</time>
      </trkpt>
      <trkpt lat="42.3647910" lon="-8.6177210">
        <ele>124.9</ele>
        <time>2019-08-17T09:23:35Z</time>
      </trkpt>
      <trkpt lat="42.3647700" lon="-8.6177310">
        <ele>125.0</ele>
        <time>2019-08-17T09:23:36Z</time>
      </trkpt>
      <trkpt lat="42.3647470" lon="-8.6177470">
        <ele>125.3</ele>
        <time>2019-08-17T09:23:37Z</time>
      </trkpt>
      <trkpt lat="42.3647220" lon="-8.6177690">
        <ele>125.5</ele>
        <time>2019-08-17T09:23:38Z</time>
      </trkpt>
      <trkpt lat="42.3645980" lon="-8.6177870">
        <ele>126.3</ele>
        <time>2019-08-17T09:23:45Z</time>
      </trkpt>
      <trkpt lat="42.3644800" lon="-8.6178050">
        <ele>126.9</ele>
        <time>2019-08-17T09:23:51Z</time>
      </trkpt>
      <trkpt lat="42.3644190" lon="-8.6177920">
        <ele>127.1</ele>
        <time>2019-08-17T09:23:54Z</time>
      </trkpt>
      <trkpt lat="42.3644070" lon="-8.6177880">
        <ele>127.2</ele>
        <time>2019-08-17T09:23:55Z</time>
      </trkpt>
      <trkpt lat="42.3643860" lon="-8.6177850">
        <ele>127.3</ele>
        <time>2019-08-17T09:23:56Z</time>
      </trkpt>
      <trkpt lat="42.3643660" lon="-8.6177880">
        <ele>127.4</ele>
        <time>2019-08-17T09:23:57Z</time>
      </trkpt>
      <trkpt lat="42.3643440" lon="-8.6177890">
        <ele>127.5</ele>
        <time>2019-08-17T09:23:58Z</time>
      </trkpt>
      <trkpt lat="42.3643150" lon="-8.6177990">
        <ele>127.7</ele>
        <time>2019-08-17T09:24:00Z</time>
      </trkpt>
      <trkpt lat="42.3643040" lon="-8.6178300">
        <ele>127.9</ele>
        <time>2019-08-17T09:24:02Z</time>
      </trkpt>
      <trkpt lat="42.3643070" lon="-8.6178740">
        <ele>129.0</ele>
        <time>2019-08-17T09:24:04Z</time>
      </trkpt>
      <trkpt lat="42.3643730" lon="-8.6179160">
        <ele>130.9</ele>
        <time>2019-08-17T09:24:10Z</time>
      </trkpt>
      <trkpt lat="42.3643860" lon="-8.6179250">
        <ele>131.3</ele>
        <time>2019-08-17T09:24:11Z</time>
      </trkpt>
      <trkpt lat="42.3643980" lon="-8.6179350">
        <ele>131.7</ele>
        <time>2019-08-17T09:24:12Z</time>
      </trkpt>
      <trkpt lat="42.3644100" lon="-8.6179460">
        <ele>132.1</ele>
        <time>2019-08-17T09:24:13Z</time>
      </trkpt>
      <trkpt lat="42.3644230" lon="-8.6179560">
        <ele>132.4</ele>
        <time>2019-08-17T09:24:14Z</time>
      </trkpt>
      <trkpt lat="42.3644940" lon="-8.6180280">
        <ele>134.8</ele>
        <time>2019-08-17T09:24:21Z</time>
      </trkpt>
      <trkpt lat="42.3645050" lon="-8.6180340">
        <ele>135.1</ele>
        <time>2019-08-17T09:24:22Z</time>
      </trkpt>
      <trkpt lat="42.3645170" lon="-8.6180420">
        <ele>135.4</ele>
        <time>2019-08-17T09:24:23Z</time>
      </trkpt>
      <trkpt lat="42.3645330" lon="-8.6180510">
        <ele>135.9</ele>
        <time>2019-08-17T09:24:24Z</time>
      </trkpt>
      <trkpt lat="42.3645570" lon="-8.6180760">
        <ele>136.1</ele>
        <time>2019-08-17T09:24:25Z</time>
      </trkpt>
      <trkpt lat="42.3646060" lon="-8.6181110">
        <ele>136.1</ele>
        <time>2019-08-17T09:24:28Z</time>
      </trkpt>
      <trkpt lat="42.3646230" lon="-8.6181200">
        <ele>136.1</ele>
        <time>2019-08-17T09:24:29Z</time>
      </trkpt>
      <trkpt lat="42.3646370" lon="-8.6181250">
        <ele>136.1</ele>
        <time>2019-08-17T09:24:30Z</time>
      </trkpt>
      <trkpt lat="42.3646520" lon="-8.6181270">
        <ele>136.1</ele>
        <time>2019-08-17T09:24:31Z</time>
      </trkpt>
      <trkpt lat="42.3646640" lon="-8.6181230">
        <ele>136.1</ele>
        <time>2019-08-17T09:24:32Z</time>
      </trkpt>
      <trkpt lat="42.3646770" lon="-8.6181230">
        <ele>136.1</ele>
        <time>2019-08-17T09:24:33Z</time>
      </trkpt>
      <trkpt lat="42.3647500" lon="-8.6181120">
        <ele>136.1</ele>
        <time>2019-08-17T09:24:40Z</time>
      </trkpt>
      <trkpt lat="42.3649440" lon="-8.6181210">
        <ele>136.3</ele>
        <time>2019-08-17T09:24:53Z</time>
      </trkpt>
      <trkpt lat="42.3649640" lon="-8.6181210">
        <ele>136.3</ele>
        <time>2019-08-17T09:24:54Z</time>
      </trkpt>
      <trkpt lat="42.3650000" lon="-8.6181250">
        <ele>136.4</ele>
        <time>2019-08-17T09:24:55Z</time>
      </trkpt>
      <trkpt lat="42.3650450" lon="-8.6181430">
        <ele>136.4</ele>
        <time>2019-08-17T09:24:56Z</time>
      </trkpt>
      <trkpt lat="42.3650570" lon="-8.6181520">
        <ele>136.5</ele>
        <time>2019-08-17T09:24:57Z</time>
      </trkpt>
      <trkpt lat="42.3650980" lon="-8.6181760">
        <ele>136.5</ele>
        <time>2019-08-17T09:25:00Z</time>
      </trkpt>
      <trkpt lat="42.3651350" lon="-8.6182220">
        <ele>136.7</ele>
        <time>2019-08-17T09:25:04Z</time>
      </trkpt>
      <trkpt lat="42.3651490" lon="-8.6182320">
        <ele>136.7</ele>
        <time>2019-08-17T09:25:05Z</time>
      </trkpt>
      <trkpt lat="42.3651620" lon="-8.6182390">
        <ele>136.8</ele>
        <time>2019-08-17T09:25:06Z</time>
      </trkpt>
      <trkpt lat="42.3651860" lon="-8.6182420">
        <ele>136.9</ele>
        <time>2019-08-17T09:25:07Z</time>
      </trkpt>
      <trkpt lat="42.3652070" lon="-8.6182530">
        <ele>136.9</ele>
        <time>2019-08-17T09:25:08Z</time>
      </trkpt>
      <trkpt lat="42.3652220" lon="-8.6182630">
        <ele>137.0</ele>
        <time>2019-08-17T09:25:09Z</time>
      </trkpt>
      <trkpt lat="42.3652410" lon="-8.6182740">
        <ele>137.0</ele>
        <time>2019-08-17T09:25:10Z</time>
      </trkpt>
      <trkpt lat="42.3653050" lon="-8.6183400">
        <ele>137.3</ele>
        <time>2019-08-17T09:25:14Z</time>
      </trkpt>
      <trkpt lat="42.3653680" lon="-8.6183760">
        <ele>137.5</ele>
        <time>2019-08-17T09:25:18Z</time>
      </trkpt>
      <trkpt lat="42.3653810" lon="-8.6183920">
        <ele>137.6</ele>
        <time>2019-08-17T09:25:19Z</time>
      </trkpt>
      <trkpt lat="42.3653970" lon="-8.6184070">
        <ele>137.7</ele>
        <time>2019-08-17T09:25:20Z</time>
      </trkpt>
      <trkpt lat="42.3654110" lon="-8.6184210">
        <ele>137.7</ele>
        <time>2019-08-17T09:25:21Z</time>
      </trkpt>
      <trkpt lat="42.3654250" lon="-8.6184340">
        <ele>137.8</ele>
        <time>2019-08-17T09:25:22Z</time>
      </trkpt>
      <trkpt lat="42.3654400" lon="-8.6184530">
        <ele>137.8</ele>
        <time>2019-08-17T09:25:23Z</time>
      </trkpt>
      <trkpt lat="42.3655690" lon="-8.6185140">
        <ele>138.3</ele>
        <time>2019-08-17T09:25:28Z</time>
      </trkpt>
      <trkpt lat="42.3655870" lon="-8.6185180">
        <ele>138.3</ele>
        <time>2019-08-17T09:25:29Z</time>
      </trkpt>
      <trkpt lat="42.3656080" lon="-8.6185250">
        <ele>138.4</ele>
        <time>2019-08-17T09:25:30Z</time>
      </trkpt>
      <trkpt lat="42.3656070" lon="-8.6185220">
        <ele>138.4</ele>
        <time>2019-08-17T09:25:31Z</time>
      </trkpt>
      <trkpt lat="42.3656060" lon="-8.6185210">
        <ele>138.4</ele>
        <time>2019-08-17T09:25:32Z</time>
      </trkpt>
      <trkpt lat="42.3656150" lon="-8.6185350">
        <ele>138.5</ele>
        <time>2019-08-17T09:25:34Z</time>
      </trkpt>
      <trkpt lat="42.3656760" lon="-8.6184950">
        <ele>138.6</ele>
        <time>2019-08-17T09:26:36Z</time>
      </trkpt>
      <trkpt lat="42.3656900" lon="-8.6185240">
        <ele>138.7</ele>
        <time>2019-08-17T09:26:38Z</time>
      </trkpt>
      <trkpt lat="42.3657780" lon="-8.6187050">
        <ele>139.1</ele>
        <time>2019-08-17T09:26:45Z</time>
      </trkpt>
      <trkpt lat="42.3658240" lon="-8.6187640">
        <ele>139.2</ele>
        <time>2019-08-17T09:26:48Z</time>
      </trkpt>
      <trkpt lat="42.3658300" lon="-8.6187930">
        <ele>139.3</ele>
        <time>2019-08-17T09:26:49Z</time>
      </trkpt>
      <trkpt lat="42.3658430" lon="-8.6188170">
        <ele>139.4</ele>
        <time>2019-08-17T09:26:50Z</time>
      </trkpt>
      <trkpt lat="42.3658590" lon="-8.6188380">
        <ele>139.4</ele>
        <time>2019-08-17T09:26:51Z</time>
      </trkpt>
      <trkpt lat="42.3658660" lon="-8.6188720">
        <ele>139.5</ele>
        <time>2019-08-17T09:26:52Z</time>
      </trkpt>
      <trkpt lat="42.3659600" lon="-8.6190630">
        <ele>140.0</ele>
        <time>2019-08-17T09:27:00Z</time>
      </trkpt>
      <trkpt lat="42.3660960" lon="-8.6192390">
        <ele>140.3</ele>
        <time>2019-08-17T09:27:09Z</time>
      </trkpt>
      <trkpt lat="42.3661210" lon="-8.6192520">
        <ele>140.3</ele>
        <time>2019-08-17T09:27:10Z</time>
      </trkpt>
      <trkpt lat="42.3661440" lon="-8.6192530">
        <ele>140.4</ele>
        <time>2019-08-17T09:27:11Z</time>
      </trkpt>
      <trkpt lat="42.3661700" lon="-8.6192590">
        <ele>140.4</ele>
        <time>2019-08-17T09:27:12Z</time>
      </trkpt>
      <trkpt lat="42.3661940" lon="-8.6192670">
        <ele>140.5</ele>
        <time>2019-08-17T09:27:13Z</time>
      </trkpt>
      <trkpt lat="42.3662450" lon="-8.6192930">
        <ele>140.6</ele>
        <time>2019-08-17T09:27:16Z</time>
      </trkpt>
      <trkpt lat="42.3663720" lon="-8.6193890">
        <ele>141.0</ele>
        <time>2019-08-17T09:27:24Z</time>
      </trkpt>
      <trkpt lat="42.3663910" lon="-8.6193990">
        <ele>141.0</ele>
        <time>2019-08-17T09:27:25Z</time>
      </trkpt>
      <trkpt lat="42.3664220" lon="-8.6194060">
        <ele>141.1</ele>
        <time>2019-08-17T09:27:26Z</time>
      </trkpt>
      <trkpt lat="42.3664420" lon="-8.6194110">
        <ele>141.2</ele>
        <time>2019-08-17T09:27:27Z</time>
      </trkpt>
      <trkpt lat="42.3664690" lon="-8.6194190">
        <ele>141.2</ele>
        <time>2019-08-17T09:27:28Z</time>
      </trkpt>
      <trkpt lat="42.3665260" lon="-8.6194550">
        <ele>141.3</ele>
        <time>2019-08-17T09:27:31Z</time>
      </trkpt>
      <trkpt lat="42.3665810" lon="-8.6195050">
        <ele>141.5</ele>
        <time>2019-08-17T09:27:34Z</time>
      </trkpt>
      <trkpt lat="42.3665930" lon="-8.6195180">
        <ele>141.5</ele>
        <time>2019-08-17T09:27:35Z</time>
      </trkpt>
      <trkpt lat="42.3666050" lon="-8.6195280">
        <ele>141.5</ele>
        <time>2019-08-17T09:27:36Z</time>
      </trkpt>
      <trkpt lat="42.3666210" lon="-8.6195440">
        <ele>141.6</ele>
        <time>2019-08-17T09:27:37Z</time>
      </trkpt>
      <trkpt lat="42.3666380" lon="-8.6195550">
        <ele>141.6</ele>
        <time>2019-08-17T09:27:38Z</time>
      </trkpt>
      <trkpt lat="42.3667340" lon="-8.6197760">
        <ele>142.3</ele>
        <time>2019-08-17T09:27:47Z</time>
      </trkpt>
      <trkpt lat="42.3667270" lon="-8.6197940">
        <ele>142.3</ele>
        <time>2019-08-17T09:27:48Z</time>
      </trkpt>
      <trkpt lat="42.3667140" lon="-8.6198170">
        <ele>142.3</ele>
        <time>2019-08-17T09:27:49Z</time>
      </trkpt>
      <trkpt lat="42.3667170" lon="-8.6198360">
        <ele>142.4</ele>
        <time>2019-08-17T09:27:50Z</time>
      </trkpt>
      <trkpt lat="42.3667180" lon="-8.6198530">
        <ele>142.4</ele>
        <time>2019-08-17T09:27:51Z</time>
      </trkpt>
      <trkpt lat="42.3667260" lon="-8.6198690">
        <ele>142.4</ele>
        <time>2019-08-17T09:27:52Z</time>
      </trkpt>
      <trkpt lat="42.3667530" lon="-8.6199110">
        <ele>142.5</ele>
        <time>2019-08-17T09:27:55Z</time>
      </trkpt>
      <trkpt lat="42.3667480" lon="-8.6200900">
        <ele>142.8</ele>
        <time>2019-08-17T09:28:03Z</time>
      </trkpt>
      <trkpt lat="42.3667850" lon="-8.6201950">
        <ele>143.0</ele>
        <time>2019-08-17T09:28:09Z</time>
      </trkpt>
      <trkpt lat="42.3669460" lon="-8.6202930">
        <ele>144.4</ele>
        <time>2019-08-17T09:28:17Z</time>
      </trkpt>
      <trkpt lat="42.3669540" lon="-8.6203230">
        <ele>144.5</ele>
        <time>2019-08-17T09:28:18Z</time>
      </trkpt>
      <trkpt lat="42.3669800" lon="-8.6203450">
        <ele>144.5</ele>
        <time>2019-08-17T09:28:19Z</time>
      </trkpt>
      <trkpt lat="42.3669950" lon="-8.6203640">
        <ele>144.6</ele>
        <time>2019-08-17T09:28:20Z</time>
      </trkpt>
      <trkpt lat="42.3670110" lon="-8.6203790">
        <ele>144.6</ele>
        <time>2019-08-17T09:28:21Z</time>
      </trkpt>
      <trkpt lat="42.3670910" lon="-8.6204300">
        <ele>144.7</ele>
        <time>2019-08-17T09:28:27Z</time>
      </trkpt>
      <trkpt lat="42.3671100" lon="-8.6204350">
        <ele>144.6</ele>
        <time>2019-08-17T09:28:28Z</time>
      </trkpt>
      <trkpt lat="42.3672260" lon="-8.6204420">
        <ele>144.4</ele>
        <time>2019-08-17T09:28:34Z</time>
      </trkpt>
      <trkpt lat="42.3674230" lon="-8.6204600">
        <ele>143.6</ele>
        <time>2019-08-17T09:28:38Z</time>
      </trkpt>
      <trkpt lat="42.3674570" lon="-8.6204730">
        <ele>143.4</ele>
        <time>2019-08-17T09:28:39Z</time>
      </trkpt>
      <trkpt lat="42.3674750" lon="-8.6204970">
        <ele>143.2</ele>
        <time>2019-08-17T09:28:40Z</time>
      </trkpt>
      <trkpt lat="42.3674760" lon="-8.6205430">
        <ele>143.0</ele>
        <time>2019-08-17T09:28:41Z</time>
      </trkpt>
      <trkpt lat="42.3675380" lon="-8.6205850">
        <ele>142.4</ele>
        <time>2019-08-17T09:28:42Z</time>
      </trkpt>
      <trkpt lat="42.3675730" lon="-8.6206320">
        <ele>142.0</ele>
        <time>2019-08-17T09:28:43Z</time>
      </trkpt>
      <trkpt lat="42.3676020" lon="-8.6206840">
        <ele>141.5</ele>
        <time>2019-08-17T09:28:44Z</time>
      </trkpt>
      <trkpt lat="42.3676420" lon="-8.6207350">
        <ele>141.0</ele>
        <time>2019-08-17T09:28:45Z</time>
      </trkpt>
      <trkpt lat="42.3676930" lon="-8.6207790">
        <ele>140.4</ele>
        <time>2019-08-17T09:28:46Z</time>
      </trkpt>
      <trkpt lat="42.3677280" lon="-8.6208210">
        <ele>139.9</ele>
        <time>2019-08-17T09:28:47Z</time>
      </trkpt>
      <trkpt lat="42.3677950" lon="-8.6208650">
        <ele>139.0</ele>
        <time>2019-08-17T09:28:48Z</time>
      </trkpt>
      <trkpt lat="42.3678370" lon="-8.6209200">
        <ele>138.2</ele>
        <time>2019-08-17T09:28:49Z</time>
      </trkpt>
      <trkpt lat="42.3678610" lon="-8.6209840">
        <ele>137.5</ele>
        <time>2019-08-17T09:28:50Z</time>
      </trkpt>
      <trkpt lat="42.3678890" lon="-8.6210460">
        <ele>136.9</ele>
        <time>2019-08-17T09:28:51Z</time>
      </trkpt>
      <trkpt lat="42.3679090" lon="-8.6211030">
        <ele>136.3</ele>
        <time>2019-08-17T09:28:52Z</time>
      </trkpt>
      <trkpt lat="42.3678990" lon="-8.6211970">
        <ele>135.5</ele>
        <time>2019-08-17T09:28:53Z</time>
      </trkpt>
      <trkpt lat="42.3679180" lon="-8.6212680">
        <ele>134.8</ele>
        <time>2019-08-17T09:28:54Z</time>
      </trkpt>
      <trkpt lat="42.3679530" lon="-8.6213530">
        <ele>133.9</ele>
        <time>2019-08-17T09:28:55Z</time>
      </trkpt>
      <trkpt lat="42.3680220" lon="-8.6214500">
        <ele>132.8</ele>
        <time>2019-08-17T09:28:56Z</time>
      </trkpt>
      <trkpt lat="42.3680760" lon="-8.6215420">
        <ele>131.9</ele>
        <time>2019-08-17T09:28:57Z</time>
      </trkpt>
      <trkpt lat="42.3681230" lon="-8.6216220">
        <ele>131.1</ele>
        <time>2019-08-17T09:28:58Z</time>
      </trkpt>
      <trkpt lat="42.3681640" lon="-8.6216910">
        <ele>130.5</ele>
        <time>2019-08-17T09:28:59Z</time>
      </trkpt>
      <trkpt lat="42.3681840" lon="-8.6217610">
        <ele>129.9</ele>
        <time>2019-08-17T09:29:00Z</time>
      </trkpt>
      <trkpt lat="42.3681970" lon="-8.6218420">
        <ele>129.3</ele>
        <time>2019-08-17T09:29:01Z</time>
      </trkpt>
      <trkpt lat="42.3682030" lon="-8.6219250">
        <ele>128.5</ele>
        <time>2019-08-17T09:29:02Z</time>
      </trkpt>
      <trkpt lat="42.3682110" lon="-8.6220090">
        <ele>127.6</ele>
        <time>2019-08-17T09:29:03Z</time>
      </trkpt>
      <trkpt lat="42.3682430" lon="-8.6220950">
        <ele>126.7</ele>
        <time>2019-08-17T09:29:04Z</time>
      </trkpt>
      <trkpt lat="42.3682550" lon="-8.6221790">
        <ele>125.8</ele>
        <time>2019-08-17T09:29:05Z</time>
      </trkpt>
      <trkpt lat="42.3682770" lon="-8.6222670">
        <ele>124.8</ele>
        <time>2019-08-17T09:29:06Z</time>
      </trkpt>
      <trkpt lat="42.3682830" lon="-8.6223480">
        <ele>123.9</ele>
        <time>2019-08-17T09:29:07Z</time>
      </trkpt>
      <trkpt lat="42.3682920" lon="-8.6224340">
        <ele>122.8</ele>
        <time>2019-08-17T09:29:08Z</time>
      </trkpt>
      <trkpt lat="42.3683310" lon="-8.6225160">
        <ele>121.6</ele>
        <time>2019-08-17T09:29:09Z</time>
      </trkpt>
      <trkpt lat="42.3683510" lon="-8.6225960">
        <ele>120.5</ele>
        <time>2019-08-17T09:29:10Z</time>
      </trkpt>
      <trkpt lat="42.3683910" lon="-8.6226750">
        <ele>119.3</ele>
        <time>2019-08-17T09:29:11Z</time>
      </trkpt>
      <trkpt lat="42.3684330" lon="-8.6227720">
        <ele>118.0</ele>
        <time>2019-08-17T09:29:12Z</time>
      </trkpt>
      <trkpt lat="42.3684750" lon="-8.6228770">
        <ele>116.6</ele>
        <time>2019-08-17T09:29:13Z</time>
      </trkpt>
      <trkpt lat="42.3685230" lon="-8.6229750">
        <ele>115.3</ele>
        <time>2019-08-17T09:29:14Z</time>
      </trkpt>
      <trkpt lat="42.3685830" lon="-8.6230630">
        <ele>114.1</ele>
        <time>2019-08-17T09:29:15Z</time>
      </trkpt>
      <trkpt lat="42.3686540" lon="-8.6231490">
        <ele>112.9</ele>
        <time>2019-08-17T09:29:16Z</time>
      </trkpt>
      <trkpt lat="42.3687290" lon="-8.6232300">
        <ele>111.8</ele>
        <time>2019-08-17T09:29:17Z</time>
      </trkpt>
      <trkpt lat="42.3687840" lon="-8.6233180">
        <ele>111.0</ele>
        <time>2019-08-17T09:29:18Z</time>
      </trkpt>
      <trkpt lat="42.3690210" lon="-8.6240400">
        <ele>110.0</ele>
        <time>2019-08-17T09:29:25Z</time>
      </trkpt>
      <trkpt lat="42.3690370" lon="-8.6241590">
        <ele>109.9</ele>
        <time>2019-08-17T09:29:26Z</time>
      </trkpt>
      <trkpt lat="42.3690530" lon="-8.6242640">
        <ele>109.9</ele>
        <time>2019-08-17T09:29:27Z</time>
      </trkpt>
      <trkpt lat="42.3690800" lon="-8.6243730">
        <ele>110.9</ele>
        <time>2019-08-17T09:29:28Z</time>
      </trkpt>
      <trkpt lat="42.3691170" lon="-8.6244670">
        <ele>112.0</ele>
        <time>2019-08-17T09:29:29Z</time>
      </trkpt>
      <trkpt lat="42.3691550" lon="-8.6245460">
        <ele>112.9</ele>
        <time>2019-08-17T09:29:30Z</time>
      </trkpt>
      <trkpt lat="42.3692010" lon="-8.6246070">
        <ele>113.7</ele>
        <time>2019-08-17T09:29:31Z</time>
      </trkpt>
      <trkpt lat="42.3692480" lon="-8.6246700">
        <ele>114.3</ele>
        <time>2019-08-17T09:29:32Z</time>
      </trkpt>
      <trkpt lat="42.3692950" lon="-8.6247300">
        <ele>114.9</ele>
        <time>2019-08-17T09:29:33Z</time>
      </trkpt>
      <trkpt lat="42.3693370" lon="-8.6247840">
        <ele>115.2</ele>
        <time>2019-08-17T09:29:34Z</time>
      </trkpt>
      <trkpt lat="42.3693790" lon="-8.6248420">
        <ele>115.4</ele>
        <time>2019-08-17T09:29:35Z</time>
      </trkpt>
      <trkpt lat="42.3694020" lon="-8.6249170">
        <ele>115.4</ele>
        <time>2019-08-17T09:29:36Z</time>
      </trkpt>
      <trkpt lat="42.3694310" lon="-8.6249920">
        <ele>115.3</ele>
        <time>2019-08-17T09:29:37Z</time>
      </trkpt>
      <trkpt lat="42.3694900" lon="-8.6251370">
        <ele>114.9</ele>
        <time>2019-08-17T09:29:39Z</time>
      </trkpt>
      <trkpt lat="42.3695330" lon="-8.6252030">
        <ele>114.7</ele>
        <time>2019-08-17T09:29:40Z</time>
      </trkpt>
      <trkpt lat="42.3696410" lon="-8.6253070">
        <ele>114.4</ele>
        <time>2019-08-17T09:29:42Z</time>
      </trkpt>
      <trkpt lat="42.3697630" lon="-8.6253930">
        <ele>114.0</ele>
        <time>2019-08-17T09:29:44Z</time>
      </trkpt>
      <trkpt lat="42.3699680" lon="-8.6255210">
        <ele>113.3</ele>
        <time>2019-08-17T09:29:47Z</time>
      </trkpt>
      <trkpt lat="42.3703540" lon="-8.6257460">
        <ele>112.4</ele>
        <time>2019-08-17T09:29:53Z</time>
      </trkpt>
      <trkpt lat="42.3704270" lon="-8.6257720">
        <ele>112.3</ele>
        <time>2019-08-17T09:29:54Z</time>
      </trkpt>
      <trkpt lat="42.3704960" lon="-8.6257980">
        <ele>112.2</ele>
        <time>2019-08-17T09:29:55Z</time>
      </trkpt>
      <trkpt lat="42.3705580" lon="-8.6258280">
        <ele>112.2</ele>
        <time>2019-08-17T09:29:56Z</time>
      </trkpt>
      <trkpt lat="42.3706100" lon="-8.6258740">
        <ele>112.1</ele>
        <time>2019-08-17T09:29:57Z</time>
      </trkpt>
      <trkpt lat="42.3708000" lon="-8.6260880">
        <ele>111.5</ele>
        <time>2019-08-17T09:30:01Z</time>
      </trkpt>
      <trkpt lat="42.3709650" lon="-8.6260460">
        <ele>111.3</ele>
        <time>2019-08-17T09:30:03Z</time>
      </trkpt>
      <trkpt lat="42.3710410" lon="-8.6260330">
        <ele>111.4</ele>
        <time>2019-08-17T09:30:04Z</time>
      </trkpt>
      <trkpt lat="42.3712850" lon="-8.6259810">
        <ele>112.1</ele>
        <time>2019-08-17T09:30:08Z</time>
      </trkpt>
      <trkpt lat="42.3714960" lon="-8.6258930">
        <ele>112.8</ele>
        <time>2019-08-17T09:30:12Z</time>
      </trkpt>
      <trkpt lat="42.3715440" lon="-8.6258600">
        <ele>112.9</ele>
        <time>2019-08-17T09:30:13Z</time>
      </trkpt>
      <trkpt lat="42.3718340" lon="-8.6256080">
        <ele>112.4</ele>
        <time>2019-08-17T09:30:19Z</time>
      </trkpt>
      <trkpt lat="42.3722410" lon="-8.6251810">
        <ele>112.5</ele>
        <time>2019-08-17T09:30:28Z</time>
      </trkpt>
      <trkpt lat="42.3726090" lon="-8.6248480">
        <ele>113.6</ele>
        <time>2019-08-17T09:30:37Z</time>
      </trkpt>
      <trkpt lat="42.3726550" lon="-8.6248210">
        <ele>113.7</ele>
        <time>2019-08-17T09:30:38Z</time>
      </trkpt>
      <trkpt lat="42.3726970" lon="-8.6247970">
        <ele>113.8</ele>
        <time>2019-08-17T09:30:39Z</time>
      </trkpt>
      <trkpt lat="42.3727440" lon="-8.6247790">
        <ele>113.8</ele>
        <time>2019-08-17T09:30:40Z</time>
      </trkpt>
      <trkpt lat="42.3727920" lon="-8.6247580">
        <ele>113.9</ele>
        <time>2019-08-17T09:30:41Z</time>
      </trkpt>
      <trkpt lat="42.3728390" lon="-8.6247460">
        <ele>113.9</ele>
        <time>2019-08-17T09:30:42Z</time>
      </trkpt>
      <trkpt lat="42.3728830" lon="-8.6247590">
        <ele>114.0</ele>
        <time>2019-08-17T09:30:43Z</time>
      </trkpt>
      <trkpt lat="42.3730780" lon="-8.6248880">
        <ele>114.2</ele>
        <time>2019-08-17T09:30:47Z</time>
      </trkpt>
      <trkpt lat="42.3734330" lon="-8.6250990">
        <ele>115.2</ele>
        <time>2019-08-17T09:30:54Z</time>
      </trkpt>
      <trkpt lat="42.3734790" lon="-8.6251390">
        <ele>115.4</ele>
        <time>2019-08-17T09:30:55Z</time>
      </trkpt>
      <trkpt lat="42.3737230" lon="-8.6253090">
        <ele>114.8</ele>
        <time>2019-08-17T09:31:00Z</time>
      </trkpt>
      <trkpt lat="42.3737730" lon="-8.6253350">
        <ele>114.7</ele>
        <time>2019-08-17T09:31:01Z</time>
      </trkpt>
      <trkpt lat="42.3738200" lon="-8.6253550">
        <ele>114.6</ele>
        <time>2019-08-17T09:31:02Z</time>
      </trkpt>
      <trkpt lat="42.3738670" lon="-8.6253690">
        <ele>114.4</ele>
        <time>2019-08-17T09:31:03Z</time>
      </trkpt>
      <trkpt lat="42.3739140" lon="-8.6253780">
        <ele>114.3</ele>
        <time>2019-08-17T09:31:04Z</time>
      </trkpt>
      <trkpt lat="42.3740270" lon="-8.6253830">
        <ele>113.9</ele>
        <time>2019-08-17T09:31:06Z</time>
      </trkpt>
      <trkpt lat="42.3741440" lon="-8.6253780">
        <ele>113.5</ele>
        <time>2019-08-17T09:31:08Z</time>
      </trkpt>
      <trkpt lat="42.3743960" lon="-8.6253340">
        <ele>112.0</ele>
        <time>2019-08-17T09:31:12Z</time>
      </trkpt>
      <trkpt lat="42.3744720" lon="-8.6253580">
        <ele>111.4</ele>
        <time>2019-08-17T09:31:13Z</time>
      </trkpt>
      <trkpt lat="42.3745340" lon="-8.6254100">
        <ele>110.8</ele>
        <time>2019-08-17T09:31:14Z</time>
      </trkpt>
      <trkpt lat="42.3745840" lon="-8.6254650">
        <ele>110.2</ele>
        <time>2019-08-17T09:31:15Z</time>
      </trkpt>
      <trkpt lat="42.3746250" lon="-8.6255270">
        <ele>109.6</ele>
        <time>2019-08-17T09:31:16Z</time>
      </trkpt>
      <trkpt lat="42.3746770" lon="-8.6255890">
        <ele>109.0</ele>
        <time>2019-08-17T09:31:17Z</time>
      </trkpt>
      <trkpt lat="42.3747410" lon="-8.6256430">
        <ele>108.4</ele>
        <time>2019-08-17T09:31:18Z</time>
      </trkpt>
      <trkpt lat="42.3748170" lon="-8.6256890">
        <ele>107.8</ele>
        <time>2019-08-17T09:31:19Z</time>
      </trkpt>
      <trkpt lat="42.3748990" lon="-8.6257250">
        <ele>107.2</ele>
        <time>2019-08-17T09:31:20Z</time>
      </trkpt>
      <trkpt lat="42.3749780" lon="-8.6257570">
        <ele>106.6</ele>
        <time>2019-08-17T09:31:21Z</time>
      </trkpt>
      <trkpt lat="42.3750520" lon="-8.6257860">
        <ele>106.0</ele>
        <time>2019-08-17T09:31:22Z</time>
      </trkpt>
      <trkpt lat="42.3751140" lon="-8.6258110">
        <ele>105.5</ele>
        <time>2019-08-17T09:31:23Z</time>
      </trkpt>
      <trkpt lat="42.3751640" lon="-8.6258320">
        <ele>105.0</ele>
        <time>2019-08-17T09:31:24Z</time>
      </trkpt>
      <trkpt lat="42.3752010" lon="-8.6258390">
        <ele>104.7</ele>
        <time>2019-08-17T09:31:25Z</time>
      </trkpt>
      <trkpt lat="42.3752330" lon="-8.6258500">
        <ele>104.4</ele>
        <time>2019-08-17T09:31:26Z</time>
      </trkpt>
      <trkpt lat="42.3752680" lon="-8.6258470">
        <ele>104.1</ele>
        <time>2019-08-17T09:31:27Z</time>
      </trkpt>
      <trkpt lat="42.3753040" lon="-8.6258430">
        <ele>103.8</ele>
        <time>2019-08-17T09:31:28Z</time>
      </trkpt>
      <trkpt lat="42.3753330" lon="-8.6258360">
        <ele>103.5</ele>
        <time>2019-08-17T09:31:29Z</time>
      </trkpt>
      <trkpt lat="42.3753600" lon="-8.6258280">
        <ele>103.3</ele>
        <time>2019-08-17T09:31:30Z</time>
      </trkpt>
      <trkpt lat="42.3753780" lon="-8.6258180">
        <ele>103.2</ele>
        <time>2019-08-17T09:31:31Z</time>
      </trkpt>
      <trkpt lat="42.3753760" lon="-8.6258080">
        <ele>103.1</ele>
        <time>2019-08-17T09:31:33Z</time>
      </trkpt>
      <trkpt lat="42.3753320" lon="-8.6257900">
        <ele>102.8</ele>
        <time>2019-08-17T09:31:36Z</time>
      </trkpt>
      <trkpt lat="42.3753200" lon="-8.6257870">
        <ele>102.7</ele>
        <time>2019-08-17T09:34:35Z</time>
      </trkpt>
      <trkpt lat="42.3753160" lon="-8.6257900">
        <ele>102.6</ele>
        <time>2019-08-17T09:34:36Z</time>
      </trkpt>
      <trkpt lat="42.3753050" lon="-8.6258070">
        <ele>102.5</ele>
        <time>2019-08-17T09:34:37Z</time>
      </trkpt>
      <trkpt lat="42.3752970" lon="-8.6258880">
        <ele>102.1</ele>
        <time>2019-08-17T09:34:39Z</time>
      </trkpt>
      <trkpt lat="42.3754050" lon="-8.6260260">
        <ele>101.0</ele>
        <time>2019-08-17T09:34:42Z</time>
      </trkpt>
      <trkpt lat="42.3754430" lon="-8.6260720">
        <ele>100.5</ele>
        <time>2019-08-17T09:34:43Z</time>
      </trkpt>
      <trkpt lat="42.3754850" lon="-8.6261150">
        <ele>100.1</ele>
        <time>2019-08-17T09:34:44Z</time>
      </trkpt>
      <trkpt lat="42.3755310" lon="-8.6261590">
        <ele>99.5</ele>
        <time>2019-08-17T09:34:45Z</time>
      </trkpt>
      <trkpt lat="42.3755770" lon="-8.6262030">
        <ele>99.0</ele>
        <time>2019-08-17T09:34:46Z</time>
      </trkpt>
      <trkpt lat="42.3756250" lon="-8.6262520">
        <ele>98.4</ele>
        <time>2019-08-17T09:34:47Z</time>
      </trkpt>
      <trkpt lat="42.3757360" lon="-8.6263660">
        <ele>96.8</ele>
        <time>2019-08-17T09:34:49Z</time>
      </trkpt>
      <trkpt lat="42.3757940" lon="-8.6264320">
        <ele>96.1</ele>
        <time>2019-08-17T09:34:50Z</time>
      </trkpt>
      <trkpt lat="42.3758590" lon="-8.6265040">
        <ele>95.3</ele>
        <time>2019-08-17T09:34:51Z</time>
      </trkpt>
      <trkpt lat="42.3759330" lon="-8.6265770">
        <ele>94.8</ele>
        <time>2019-08-17T09:34:52Z</time>
      </trkpt>
      <trkpt lat="42.3760100" lon="-8.6266490">
        <ele>94.4</ele>
        <time>2019-08-17T09:34:53Z</time>
      </trkpt>
      <trkpt lat="42.3760910" lon="-8.6267240">
        <ele>94.1</ele>
        <time>2019-08-17T09:34:54Z</time>
      </trkpt>
      <trkpt lat="42.3761820" lon="-8.6268010">
        <ele>94.0</ele>
        <time>2019-08-17T09:34:55Z</time>
      </trkpt>
      <trkpt lat="42.3762710" lon="-8.6268700">
        <ele>93.9</ele>
        <time>2019-08-17T09:34:56Z</time>
      </trkpt>
      <trkpt lat="42.3763670" lon="-8.6269250">
        <ele>94.2</ele>
        <time>2019-08-17T09:34:57Z</time>
      </trkpt>
      <trkpt lat="42.3764620" lon="-8.6269630">
        <ele>94.9</ele>
        <time>2019-08-17T09:34:58Z</time>
      </trkpt>
      <trkpt lat="42.3765590" lon="-8.6269800">
        <ele>95.5</ele>
        <time>2019-08-17T09:34:59Z</time>
      </trkpt>
      <trkpt lat="42.3767380" lon="-8.6269780">
        <ele>97.0</ele>
        <time>2019-08-17T09:35:01Z</time>
      </trkpt>
      <trkpt lat="42.3769920" lon="-8.6269500">
        <ele>98.7</ele>
        <time>2019-08-17T09:35:05Z</time>
      </trkpt>
      <trkpt lat="42.3770500" lon="-8.6269410">
        <ele>99.0</ele>
        <time>2019-08-17T09:35:06Z</time>
      </trkpt>
      <trkpt lat="42.3771040" lon="-8.6269350">
        <ele>99.3</ele>
        <time>2019-08-17T09:35:07Z</time>
      </trkpt>
      <trkpt lat="42.3771550" lon="-8.6269320">
        <ele>99.4</ele>
        <time>2019-08-17T09:35:08Z</time>
      </trkpt>
      <trkpt lat="42.3772040" lon="-8.6269370">
        <ele>99.5</ele>
        <time>2019-08-17T09:35:09Z</time>
      </trkpt>
      <trkpt lat="42.3772470" lon="-8.6269480">
        <ele>99.6</ele>
        <time>2019-08-17T09:35:10Z</time>
      </trkpt>
      <trkpt lat="42.3772900" lon="-8.6269700">
        <ele>99.7</ele>
        <time>2019-08-17T09:35:11Z</time>
      </trkpt>
      <trkpt lat="42.3773210" lon="-8.6269940">
        <ele>99.7</ele>
        <time>2019-08-17T09:35:12Z</time>
      </trkpt>
      <trkpt lat="42.3773460" lon="-8.6270200">
        <ele>99.7</ele>
        <time>2019-08-17T09:35:13Z</time>
      </trkpt>
      <trkpt lat="42.3773700" lon="-8.6270420">
        <ele>99.6</ele>
        <time>2019-08-17T09:35:14Z</time>
      </trkpt>
      <trkpt lat="42.3773840" lon="-8.6270740">
        <ele>99.6</ele>
        <time>2019-08-17T09:35:15Z</time>
      </trkpt>
      <trkpt lat="42.3773980" lon="-8.6271040">
        <ele>99.6</ele>
        <time>2019-08-17T09:35:16Z</time>
      </trkpt>
      <trkpt lat="42.3775960" lon="-8.6272540">
        <ele>99.1</ele>
        <time>2019-08-17T09:35:23Z</time>
      </trkpt>
      <trkpt lat="42.3776790" lon="-8.6272540">
        <ele>98.9</ele>
        <time>2019-08-17T09:35:25Z</time>
      </trkpt>
      <trkpt lat="42.3778280" lon="-8.6272330">
        <ele>98.2</ele>
        <time>2019-08-17T09:35:28Z</time>
      </trkpt>
      <trkpt lat="42.3780570" lon="-8.6272190">
        <ele>97.2</ele>
        <time>2019-08-17T09:35:32Z</time>
      </trkpt>
      <trkpt lat="42.3781190" lon="-8.6272220">
        <ele>96.9</ele>
        <time>2019-08-17T09:35:33Z</time>
      </trkpt>
      <trkpt lat="42.3781840" lon="-8.6272330">
        <ele>96.6</ele>
        <time>2019-08-17T09:35:34Z</time>
      </trkpt>
      <trkpt lat="42.3782460" lon="-8.6272430">
        <ele>96.2</ele>
        <time>2019-08-17T09:35:35Z</time>
      </trkpt>
      <trkpt lat="42.3783110" lon="-8.6272560">
        <ele>95.8</ele>
        <time>2019-08-17T09:35:36Z</time>
      </trkpt>
      <trkpt lat="42.3784270" lon="-8.6272850">
        <ele>94.9</ele>
        <time>2019-08-17T09:35:38Z</time>
      </trkpt>
      <trkpt lat="42.3784680" lon="-8.6273030">
        <ele>94.5</ele>
        <time>2019-08-17T09:35:39Z</time>
      </trkpt>
      <trkpt lat="42.3785120" lon="-8.6273200">
        <ele>94.0</ele>
        <time>2019-08-17T09:35:40Z</time>
      </trkpt>
      <trkpt lat="42.3785600" lon="-8.6273380">
        <ele>93.4</ele>
        <time>2019-08-17T09:35:41Z</time>
      </trkpt>
      <trkpt lat="42.3786050" lon="-8.6273650">
        <ele>92.9</ele>
        <time>2019-08-17T09:35:42Z</time>
      </trkpt>
      <trkpt lat="42.3786590" lon="-8.6273860">
        <ele>92.5</ele>
        <time>2019-08-17T09:35:43Z</time>
      </trkpt>
      <trkpt lat="42.3787040" lon="-8.6274130">
        <ele>92.0</ele>
        <time>2019-08-17T09:35:44Z</time>
      </trkpt>
      <trkpt lat="42.3787430" lon="-8.6274520">
        <ele>91.5</ele>
        <time>2019-08-17T09:35:45Z</time>
      </trkpt>
      <trkpt lat="42.3787810" lon="-8.6274840">
        <ele>91.0</ele>
        <time>2019-08-17T09:35:46Z</time>
      </trkpt>
      <trkpt lat="42.3788170" lon="-8.6275260">
        <ele>90.4</ele>
        <time>2019-08-17T09:35:47Z</time>
      </trkpt>
      <trkpt lat="42.3788530" lon="-8.6275670">
        <ele>90.0</ele>
        <time>2019-08-17T09:35:48Z</time>
      </trkpt>
      <trkpt lat="42.3788800" lon="-8.6276090">
        <ele>89.7</ele>
        <time>2019-08-17T09:35:49Z</time>
      </trkpt>
      <trkpt lat="42.3789010" lon="-8.6276450">
        <ele>89.4</ele>
        <time>2019-08-17T09:35:50Z</time>
      </trkpt>
      <trkpt lat="42.3789220" lon="-8.6276680">
        <ele>89.1</ele>
        <time>2019-08-17T09:35:51Z</time>
      </trkpt>
      <trkpt lat="42.3789430" lon="-8.6276900">
        <ele>88.8</ele>
        <time>2019-08-17T09:35:52Z</time>
      </trkpt>
      <trkpt lat="42.3789600" lon="-8.6277090">
        <ele>88.6</ele>
        <time>2019-08-17T09:35:53Z</time>
      </trkpt>
      <trkpt lat="42.3789770" lon="-8.6277250">
        <ele>88.4</ele>
        <time>2019-08-17T09:35:54Z</time>
      </trkpt>
      <trkpt lat="42.3790010" lon="-8.6277320">
        <ele>88.1</ele>
        <time>2019-08-17T09:35:55Z</time>
      </trkpt>
      <trkpt lat="42.3790240" lon="-8.6277410">
        <ele>87.8</ele>
        <time>2019-08-17T09:35:56Z</time>
      </trkpt>
      <trkpt lat="42.3790650" lon="-8.6277810">
        <ele>87.3</ele>
        <time>2019-08-17T09:35:58Z</time>
      </trkpt>
      <trkpt lat="42.3791490" lon="-8.6279170">
        <ele>86.4</ele>
        <time>2019-08-17T09:36:02Z</time>
      </trkpt>
      <trkpt lat="42.3791940" lon="-8.6280260">
        <ele>85.3</ele>
        <time>2019-08-17T09:36:04Z</time>
      </trkpt>
      <trkpt lat="42.3792230" lon="-8.6280880">
        <ele>84.7</ele>
        <time>2019-08-17T09:36:05Z</time>
      </trkpt>
      <trkpt lat="42.3792510" lon="-8.6281550">
        <ele>84.0</ele>
        <time>2019-08-17T09:36:06Z</time>
      </trkpt>
      <trkpt lat="42.3793040" lon="-8.6282790">
        <ele>82.6</ele>
        <time>2019-08-17T09:36:08Z</time>
      </trkpt>
      <trkpt lat="42.3793290" lon="-8.6283430">
        <ele>81.8</ele>
        <time>2019-08-17T09:36:09Z</time>
      </trkpt>
      <trkpt lat="42.3793530" lon="-8.6283990">
        <ele>81.0</ele>
        <time>2019-08-17T09:36:10Z</time>
      </trkpt>
      <trkpt lat="42.3793720" lon="-8.6284510">
        <ele>80.2</ele>
        <time>2019-08-17T09:36:11Z</time>
      </trkpt>
      <trkpt lat="42.3793930" lon="-8.6285010">
        <ele>79.4</ele>
        <time>2019-08-17T09:36:12Z</time>
      </trkpt>
      <trkpt lat="42.3794270" lon="-8.6286100">
        <ele>77.3</ele>
        <time>2019-08-17T09:36:15Z</time>
      </trkpt>
      <trkpt lat="42.3794350" lon="-8.6286470">
        <ele>76.5</ele>
        <time>2019-08-17T09:36:16Z</time>
      </trkpt>
      <trkpt lat="42.3794370" lon="-8.6286920">
        <ele>75.9</ele>
        <time>2019-08-17T09:36:17Z</time>
      </trkpt>
      <trkpt lat="42.3794520" lon="-8.6287310">
        <ele>75.9</ele>
        <time>2019-08-17T09:36:18Z</time>
      </trkpt>
      <trkpt lat="42.3794700" lon="-8.6287720">
        <ele>75.8</ele>
        <time>2019-08-17T09:36:19Z</time>
      </trkpt>
      <trkpt lat="42.3795000" lon="-8.6288120">
        <ele>75.8</ele>
        <time>2019-08-17T09:36:20Z</time>
      </trkpt>
      <trkpt lat="42.3795360" lon="-8.6288550">
        <ele>75.8</ele>
        <time>2019-08-17T09:36:21Z</time>
      </trkpt>
      <trkpt lat="42.3796500" lon="-8.6290040">
        <ele>75.8</ele>
        <time>2019-08-17T09:36:24Z</time>
      </trkpt>
      <trkpt lat="42.3796920" lon="-8.6290510">
        <ele>75.7</ele>
        <time>2019-08-17T09:36:25Z</time>
      </trkpt>
      <trkpt lat="42.3797440" lon="-8.6290990">
        <ele>75.7</ele>
        <time>2019-08-17T09:36:26Z</time>
      </trkpt>
      <trkpt lat="42.3798000" lon="-8.6291360">
        <ele>75.7</ele>
        <time>2019-08-17T09:36:27Z</time>
      </trkpt>
      <trkpt lat="42.3798580" lon="-8.6291660">
        <ele>75.6</ele>
        <time>2019-08-17T09:36:28Z</time>
      </trkpt>
      <trkpt lat="42.3800000" lon="-8.6292210">
        <ele>75.5</ele>
        <time>2019-08-17T09:36:31Z</time>
      </trkpt>
      <trkpt lat="42.3801610" lon="-8.6292970">
        <ele>75.0</ele>
        <time>2019-08-17T09:36:35Z</time>
      </trkpt>
      <trkpt lat="42.3802000" lon="-8.6293180">
        <ele>74.9</ele>
        <time>2019-08-17T09:36:36Z</time>
      </trkpt>
      <trkpt lat="42.3802440" lon="-8.6293360">
        <ele>74.8</ele>
        <time>2019-08-17T09:36:37Z</time>
      </trkpt>
      <trkpt lat="42.3802890" lon="-8.6293520">
        <ele>74.7</ele>
        <time>2019-08-17T09:36:38Z</time>
      </trkpt>
      <trkpt lat="42.3803310" lon="-8.6293670">
        <ele>74.6</ele>
        <time>2019-08-17T09:36:39Z</time>
      </trkpt>
      <trkpt lat="42.3805910" lon="-8.6295030">
        <ele>73.8</ele>
        <time>2019-08-17T09:36:44Z</time>
      </trkpt>
      <trkpt lat="42.3806490" lon="-8.6295250">
        <ele>73.6</ele>
        <time>2019-08-17T09:36:45Z</time>
      </trkpt>
      <trkpt lat="42.3807120" lon="-8.6295470">
        <ele>73.4</ele>
        <time>2019-08-17T09:36:46Z</time>
      </trkpt>
      <trkpt lat="42.3807790" lon="-8.6295680">
        <ele>73.2</ele>
        <time>2019-08-17T09:36:47Z</time>
      </trkpt>
      <trkpt lat="42.3808450" lon="-8.6295790">
        <ele>73.0</ele>
        <time>2019-08-17T09:36:48Z</time>
      </trkpt>
      <trkpt lat="42.3809730" lon="-8.6295630">
        <ele>72.6</ele>
        <time>2019-08-17T09:36:50Z</time>
      </trkpt>
      <trkpt lat="42.3810380" lon="-8.6295400">
        <ele>72.7</ele>
        <time>2019-08-17T09:36:51Z</time>
      </trkpt>
      <trkpt lat="42.3810930" lon="-8.6295220">
        <ele>72.8</ele>
        <time>2019-08-17T09:36:52Z</time>
      </trkpt>
      <trkpt lat="42.3811570" lon="-8.6295100">
        <ele>72.7</ele>
        <time>2019-08-17T09:36:53Z</time>
      </trkpt>
      <trkpt lat="42.3812110" lon="-8.6295020">
        <ele>72.3</ele>
        <time>2019-08-17T09:36:54Z</time>
      </trkpt>
      <trkpt lat="42.3812610" lon="-8.6294930">
        <ele>71.9</ele>
        <time>2019-08-17T09:36:55Z</time>
      </trkpt>
      <trkpt lat="42.3815840" lon="-8.6294620">
        <ele>69.7</ele>
        <time>2019-08-17T09:37:00Z</time>
      </trkpt>
      <trkpt lat="42.3816560" lon="-8.6294740">
        <ele>69.1</ele>
        <time>2019-08-17T09:37:01Z</time>
      </trkpt>
      <trkpt lat="42.3817300" lon="-8.6294830">
        <ele>68.6</ele>
        <time>2019-08-17T09:37:02Z</time>
      </trkpt>
      <trkpt lat="42.3818100" lon="-8.6294940">
        <ele>68.0</ele>
        <time>2019-08-17T09:37:03Z</time>
      </trkpt>
      <trkpt lat="42.3818900" lon="-8.6295060">
        <ele>67.5</ele>
        <time>2019-08-17T09:37:04Z</time>
      </trkpt>
      <trkpt lat="42.3819700" lon="-8.6295170">
        <ele>66.9</ele>
        <time>2019-08-17T09:37:05Z</time>
      </trkpt>
      <trkpt lat="42.3821200" lon="-8.6295400">
        <ele>65.7</ele>
        <time>2019-08-17T09:37:07Z</time>
      </trkpt>
      <trkpt lat="42.3821920" lon="-8.6295490">
        <ele>65.0</ele>
        <time>2019-08-17T09:37:08Z</time>
      </trkpt>
      <trkpt lat="42.3822690" lon="-8.6295620">
        <ele>64.4</ele>
        <time>2019-08-17T09:37:09Z</time>
      </trkpt>
      <trkpt lat="42.3823460" lon="-8.6295690">
        <ele>63.8</ele>
        <time>2019-08-17T09:37:10Z</time>
      </trkpt>
      <trkpt lat="42.3824300" lon="-8.6295780">
        <ele>63.3</ele>
        <time>2019-08-17T09:37:11Z</time>
      </trkpt>
      <trkpt lat="42.3825130" lon="-8.6295850">
        <ele>62.8</ele>
        <time>2019-08-17T09:37:12Z</time>
      </trkpt>
      <trkpt lat="42.3825910" lon="-8.6295850">
        <ele>62.3</ele>
        <time>2019-08-17T09:37:13Z</time>
      </trkpt>
      <trkpt lat="42.3826710" lon="-8.6295900">
        <ele>62.0</ele>
        <time>2019-08-17T09:37:14Z</time>
      </trkpt>
      <trkpt lat="42.3827700" lon="-8.6296030">
        <ele>61.5</ele>
        <time>2019-08-17T09:37:15Z</time>
      </trkpt>
      <trkpt lat="42.3828610" lon="-8.6296160">
        <ele>60.9</ele>
        <time>2019-08-17T09:37:16Z</time>
      </trkpt>
      <trkpt lat="42.3829390" lon="-8.6296270">
        <ele>60.4</ele>
        <time>2019-08-17T09:37:17Z</time>
      </trkpt>
      <trkpt lat="42.3830180" lon="-8.6296440">
        <ele>59.8</ele>
        <time>2019-08-17T09:37:18Z</time>
      </trkpt>
      <trkpt lat="42.3831020" lon="-8.6296700">
        <ele>59.3</ele>
        <time>2019-08-17T09:37:19Z</time>
      </trkpt>
      <trkpt lat="42.3831830" lon="-8.6297010">
        <ele>58.7</ele>
        <time>2019-08-17T09:37:20Z</time>
      </trkpt>
      <trkpt lat="42.3833040" lon="-8.6297890">
        <ele>57.7</ele>
        <time>2019-08-17T09:37:22Z</time>
      </trkpt>
      <trkpt lat="42.3833740" lon="-8.6298220">
        <ele>57.2</ele>
        <time>2019-08-17T09:37:23Z</time>
      </trkpt>
      <trkpt lat="42.3834400" lon="-8.6298610">
        <ele>56.6</ele>
        <time>2019-08-17T09:37:24Z</time>
      </trkpt>
      <trkpt lat="42.3834920" lon="-8.6299050">
        <ele>55.9</ele>
        <time>2019-08-17T09:37:25Z</time>
      </trkpt>
      <trkpt lat="42.3835430" lon="-8.6299470">
        <ele>55.2</ele>
        <time>2019-08-17T09:37:26Z</time>
      </trkpt>
      <trkpt lat="42.3836400" lon="-8.6300180">
        <ele>53.2</ele>
        <time>2019-08-17T09:37:28Z</time>
      </trkpt>
      <trkpt lat="42.3836790" lon="-8.6300320">
        <ele>52.4</ele>
        <time>2019-08-17T09:37:29Z</time>
      </trkpt>
      <trkpt lat="42.3837090" lon="-8.6300210">
        <ele>51.7</ele>
        <time>2019-08-17T09:37:30Z</time>
      </trkpt>
      <trkpt lat="42.3837400" lon="-8.6299950">
        <ele>51.2</ele>
        <time>2019-08-17T09:37:31Z</time>
      </trkpt>
      <trkpt lat="42.3837820" lon="-8.6299660">
        <ele>50.6</ele>
        <time>2019-08-17T09:37:32Z</time>
      </trkpt>
      <trkpt lat="42.3838260" lon="-8.6299370">
        <ele>49.9</ele>
        <time>2019-08-17T09:37:33Z</time>
      </trkpt>
      <trkpt lat="42.3838860" lon="-8.6299170">
        <ele>49.1</ele>
        <time>2019-08-17T09:37:34Z</time>
      </trkpt>
      <trkpt lat="42.3839690" lon="-8.6299350">
        <ele>47.8</ele>
        <time>2019-08-17T09:37:35Z</time>
      </trkpt>
      <trkpt lat="42.3840220" lon="-8.6299700">
        <ele>46.4</ele>
        <time>2019-08-17T09:37:36Z</time>
      </trkpt>
      <trkpt lat="42.3840820" lon="-8.6300270">
        <ele>45.1</ele>
        <time>2019-08-17T09:37:37Z</time>
      </trkpt>
      <trkpt lat="42.3841690" lon="-8.6300970">
        <ele>44.2</ele>
        <time>2019-08-17T09:37:38Z</time>
      </trkpt>
      <trkpt lat="42.3843250" lon="-8.6302430">
        <ele>42.5</ele>
        <time>2019-08-17T09:37:40Z</time>
      </trkpt>
      <trkpt lat="42.3843960" lon="-8.6303020">
        <ele>41.9</ele>
        <time>2019-08-17T09:37:41Z</time>
      </trkpt>
      <trkpt lat="42.3844570" lon="-8.6303550">
        <ele>41.6</ele>
        <time>2019-08-17T09:37:42Z</time>
      </trkpt>
      <trkpt lat="42.3845550" lon="-8.6304550">
        <ele>40.8</ele>
        <time>2019-08-17T09:37:44Z</time>
      </trkpt>
      <trkpt lat="42.3846290" lon="-8.6305400">
        <ele>39.9</ele>
        <time>2019-08-17T09:37:46Z</time>
      </trkpt>
      <trkpt lat="42.3847230" lon="-8.6305790">
        <ele>39.4</ele>
        <time>2019-08-17T09:37:48Z</time>
      </trkpt>
      <trkpt lat="42.3847780" lon="-8.6305750">
        <ele>39.3</ele>
        <time>2019-08-17T09:37:49Z</time>
      </trkpt>
      <trkpt lat="42.3848400" lon="-8.6305640">
        <ele>39.1</ele>
        <time>2019-08-17T09:37:50Z</time>
      </trkpt>
      <trkpt lat="42.3849000" lon="-8.6305510">
        <ele>39.0</ele>
        <time>2019-08-17T09:37:51Z</time>
      </trkpt>
      <trkpt lat="42.3849610" lon="-8.6305360">
        <ele>38.9</ele>
        <time>2019-08-17T09:37:52Z</time>
      </trkpt>
      <trkpt lat="42.3852760" lon="-8.6304780">
        <ele>38.9</ele>
        <time>2019-08-17T09:37:57Z</time>
      </trkpt>
      <trkpt lat="42.3854020" lon="-8.6304680">
        <ele>38.9</ele>
        <time>2019-08-17T09:37:59Z</time>
      </trkpt>
      <trkpt lat="42.3857860" lon="-8.6304080">
        <ele>39.2</ele>
        <time>2019-08-17T09:38:06Z</time>
      </trkpt>
      <trkpt lat="42.3858370" lon="-8.6304080">
        <ele>39.3</ele>
        <time>2019-08-17T09:38:07Z</time>
      </trkpt>
      <trkpt lat="42.3860020" lon="-8.6303860">
        <ele>39.4</ele>
        <time>2019-08-17T09:38:11Z</time>
      </trkpt>
      <trkpt lat="42.3860840" lon="-8.6303730">
        <ele>39.5</ele>
        <time>2019-08-17T09:38:15Z</time>
      </trkpt>
      <trkpt lat="42.3862240" lon="-8.6304130">
        <ele>39.2</ele>
        <time>2019-08-17T09:38:21Z</time>
      </trkpt>
      <trkpt lat="42.3863690" lon="-8.6303770">
        <ele>39.1</ele>
        <time>2019-08-17T09:38:25Z</time>
      </trkpt>
      <trkpt lat="42.3865030" lon="-8.6303020">
        <ele>38.9</ele>
        <time>2019-08-17T09:38:28Z</time>
      </trkpt>
      <trkpt lat="42.3865890" lon="-8.6302450">
        <ele>38.7</ele>
        <time>2019-08-17T09:38:30Z</time>
      </trkpt>
      <trkpt lat="42.3866680" lon="-8.6301720">
        <ele>38.4</ele>
        <time>2019-08-17T09:38:32Z</time>
      </trkpt>
      <trkpt lat="42.3868060" lon="-8.6300460">
        <ele>38.2</ele>
        <time>2019-08-17T09:38:35Z</time>
      </trkpt>
      <trkpt lat="42.3869130" lon="-8.6299750">
        <ele>38.1</ele>
        <time>2019-08-17T09:38:37Z</time>
      </trkpt>
      <trkpt lat="42.3870680" lon="-8.6298820">
        <ele>37.9</ele>
        <time>2019-08-17T09:38:40Z</time>
      </trkpt>
      <trkpt lat="42.3871230" lon="-8.6298550">
        <ele>37.8</ele>
        <time>2019-08-17T09:38:41Z</time>
      </trkpt>
      <trkpt lat="42.3871790" lon="-8.6298280">
        <ele>37.6</ele>
        <time>2019-08-17T09:38:42Z</time>
      </trkpt>
      <trkpt lat="42.3872230" lon="-8.6298070">
        <ele>37.5</ele>
        <time>2019-08-17T09:38:43Z</time>
      </trkpt>
      <trkpt lat="42.3872600" lon="-8.6297850">
        <ele>37.4</ele>
        <time>2019-08-17T09:38:44Z</time>
      </trkpt>
      <trkpt lat="42.3873030" lon="-8.6297580">
        <ele>37.3</ele>
        <time>2019-08-17T09:38:45Z</time>
      </trkpt>
      <trkpt lat="42.3875790" lon="-8.6295660">
        <ele>36.9</ele>
        <time>2019-08-17T09:38:50Z</time>
      </trkpt>
      <trkpt lat="42.3878110" lon="-8.6294320">
        <ele>36.9</ele>
        <time>2019-08-17T09:38:54Z</time>
      </trkpt>
      <trkpt lat="42.3879230" lon="-8.6294120">
        <ele>37.0</ele>
        <time>2019-08-17T09:38:56Z</time>
      </trkpt>
      <trkpt lat="42.3881540" lon="-8.6294750">
        <ele>37.1</ele>
        <time>2019-08-17T09:39:00Z</time>
      </trkpt>
      <trkpt lat="42.3885360" lon="-8.6296610">
        <ele>37.5</ele>
        <time>2019-08-17T09:39:07Z</time>
      </trkpt>
      <trkpt lat="42.3889240" lon="-8.6298260">
        <ele>37.5</ele>
        <time>2019-08-17T09:39:14Z</time>
      </trkpt>
      <trkpt lat="42.3889760" lon="-8.6298590">
        <ele>37.6</ele>
        <time>2019-08-17T09:39:15Z</time>
      </trkpt>
      <trkpt lat="42.3891890" lon="-8.6299310">
        <ele>37.9</ele>
        <time>2019-08-17T09:39:19Z</time>
      </trkpt>
      <trkpt lat="42.3894680" lon="-8.6299980">
        <ele>37.4</ele>
        <time>2019-08-17T09:39:25Z</time>
      </trkpt>
      <trkpt lat="42.3896130" lon="-8.6300070">
        <ele>36.6</ele>
        <time>2019-08-17T09:39:30Z</time>
      </trkpt>
      <trkpt lat="42.3898080" lon="-8.6299860">
        <ele>35.8</ele>
        <time>2019-08-17T09:39:35Z</time>
      </trkpt>
      <trkpt lat="42.3898580" lon="-8.6299750">
        <ele>35.6</ele>
        <time>2019-08-17T09:39:36Z</time>
      </trkpt>
      <trkpt lat="42.3899100" lon="-8.6299600">
        <ele>35.4</ele>
        <time>2019-08-17T09:39:37Z</time>
      </trkpt>
      <trkpt lat="42.3899650" lon="-8.6299450">
        <ele>35.2</ele>
        <time>2019-08-17T09:39:38Z</time>
      </trkpt>
      <trkpt lat="42.3900930" lon="-8.6299200">
        <ele>34.8</ele>
        <time>2019-08-17T09:39:40Z</time>
      </trkpt>
      <trkpt lat="42.3903120" lon="-8.6298540">
        <ele>34.3</ele>
        <time>2019-08-17T09:39:43Z</time>
      </trkpt>
      <trkpt lat="42.3904600" lon="-8.6297850">
        <ele>34.1</ele>
        <time>2019-08-17T09:39:45Z</time>
      </trkpt>
      <trkpt lat="42.3905330" lon="-8.6297510">
        <ele>34.1</ele>
        <time>2019-08-17T09:39:46Z</time>
      </trkpt>
      <trkpt lat="42.3906030" lon="-8.6297280">
        <ele>34.0</ele>
        <time>2019-08-17T09:39:47Z</time>
      </trkpt>
      <trkpt lat="42.3906820" lon="-8.6297070">
        <ele>33.9</ele>
        <time>2019-08-17T09:39:48Z</time>
      </trkpt>
      <trkpt lat="42.3908430" lon="-8.6296860">
        <ele>33.7</ele>
        <time>2019-08-17T09:39:50Z</time>
      </trkpt>
      <trkpt lat="42.3913160" lon="-8.6296360">
        <ele>33.1</ele>
        <time>2019-08-17T09:39:56Z</time>
      </trkpt>
      <trkpt lat="42.3918210" lon="-8.6297520">
        <ele>32.9</ele>
        <time>2019-08-17T09:40:03Z</time>
      </trkpt>
      <trkpt lat="42.3919600" lon="-8.6298120">
        <ele>32.8</ele>
        <time>2019-08-17T09:40:05Z</time>
      </trkpt>
      <trkpt lat="42.3920910" lon="-8.6298500">
        <ele>32.7</ele>
        <time>2019-08-17T09:40:07Z</time>
      </trkpt>
      <trkpt lat="42.3921590" lon="-8.6298460">
        <ele>32.6</ele>
        <time>2019-08-17T09:40:08Z</time>
      </trkpt>
      <trkpt lat="42.3922270" lon="-8.6298300">
        <ele>32.4</ele>
        <time>2019-08-17T09:40:09Z</time>
      </trkpt>
      <trkpt lat="42.3925840" lon="-8.6297050">
        <ele>31.9</ele>
        <time>2019-08-17T09:40:15Z</time>
      </trkpt>
      <trkpt lat="42.3930110" lon="-8.6295840">
        <ele>31.6</ele>
        <time>2019-08-17T09:40:22Z</time>
      </trkpt>
      <trkpt lat="42.3935000" lon="-8.6294910">
        <ele>31.1</ele>
        <time>2019-08-17T09:40:30Z</time>
      </trkpt>
      <trkpt lat="42.3939250" lon="-8.6294790">
        <ele>31.5</ele>
        <time>2019-08-17T09:40:37Z</time>
      </trkpt>
      <trkpt lat="42.3943430" lon="-8.6294000">
        <ele>31.3</ele>
        <time>2019-08-17T09:40:44Z</time>
      </trkpt>
      <trkpt lat="42.3946620" lon="-8.6291890">
        <ele>30.8</ele>
        <time>2019-08-17T09:40:50Z</time>
      </trkpt>
      <trkpt lat="42.3949500" lon="-8.6289950">
        <ele>30.4</ele>
        <time>2019-08-17T09:40:56Z</time>
      </trkpt>
      <trkpt lat="42.3950930" lon="-8.6289220">
        <ele>30.3</ele>
        <time>2019-08-17T09:40:59Z</time>
      </trkpt>
      <trkpt lat="42.3952450" lon="-8.6288610">
        <ele>30.3</ele>
        <time>2019-08-17T09:41:02Z</time>
      </trkpt>
      <trkpt lat="42.3956210" lon="-8.6287800">
        <ele>30.8</ele>
        <time>2019-08-17T09:41:09Z</time>
      </trkpt>
      <trkpt lat="42.3959480" lon="-8.6287230">
        <ele>31.6</ele>
        <time>2019-08-17T09:41:15Z</time>
      </trkpt>
      <trkpt lat="42.3959970" lon="-8.6287330">
        <ele>31.7</ele>
        <time>2019-08-17T09:41:16Z</time>
      </trkpt>
      <trkpt lat="42.3962180" lon="-8.6288800">
        <ele>32.0</ele>
        <time>2019-08-17T09:41:21Z</time>
      </trkpt>
      <trkpt lat="42.3963110" lon="-8.6290070">
        <ele>32.1</ele>
        <time>2019-08-17T09:41:24Z</time>
      </trkpt>
      <trkpt lat="42.3963720" lon="-8.6290890">
        <ele>32.2</ele>
        <time>2019-08-17T09:41:26Z</time>
      </trkpt>
      <trkpt lat="42.3964600" lon="-8.6292260">
        <ele>32.7</ele>
        <time>2019-08-17T09:41:29Z</time>
      </trkpt>
      <trkpt lat="42.3966240" lon="-8.6294590">
        <ele>33.6</ele>
        <time>2019-08-17T09:41:34Z</time>
      </trkpt>
      <trkpt lat="42.3967010" lon="-8.6295430">
        <ele>33.7</ele>
        <time>2019-08-17T09:41:36Z</time>
      </trkpt>
      <trkpt lat="42.3967380" lon="-8.6295870">
        <ele>33.8</ele>
        <time>2019-08-17T09:41:37Z</time>
      </trkpt>
      <trkpt lat="42.3967710" lon="-8.6296270">
        <ele>33.8</ele>
        <time>2019-08-17T09:41:38Z</time>
      </trkpt>
      <trkpt lat="42.3968040" lon="-8.6296620">
        <ele>33.8</ele>
        <time>2019-08-17T09:41:39Z</time>
      </trkpt>
      <trkpt lat="42.3968320" lon="-8.6296960">
        <ele>33.8</ele>
        <time>2019-08-17T09:41:40Z</time>
      </trkpt>
      <trkpt lat="42.3970010" lon="-8.6297960">
        <ele>34.1</ele>
        <time>2019-08-17T09:41:45Z</time>
      </trkpt>
      <trkpt lat="42.3973240" lon="-8.6298860">
        <ele>35.4</ele>
        <time>2019-08-17T09:41:53Z</time>
      </trkpt>
      <trkpt lat="42.3975090" lon="-8.6299110">
        <ele>35.8</ele>
        <time>2019-08-17T09:41:57Z</time>
      </trkpt>
      <trkpt lat="42.3975460" lon="-8.6299180">
        <ele>35.8</ele>
        <time>2019-08-17T09:41:58Z</time>
      </trkpt>
      <trkpt lat="42.3975830" lon="-8.6299240">
        <ele>35.9</ele>
        <time>2019-08-17T09:41:59Z</time>
      </trkpt>
      <trkpt lat="42.3976250" lon="-8.6299220">
        <ele>35.9</ele>
        <time>2019-08-17T09:42:00Z</time>
      </trkpt>
      <trkpt lat="42.3976640" lon="-8.6299190">
        <ele>36.0</ele>
        <time>2019-08-17T09:42:01Z</time>
      </trkpt>
      <trkpt lat="42.3977410" lon="-8.6299050">
        <ele>36.2</ele>
        <time>2019-08-17T09:42:03Z</time>
      </trkpt>
      <trkpt lat="42.3979080" lon="-8.6298400">
        <ele>36.7</ele>
        <time>2019-08-17T09:42:07Z</time>
      </trkpt>
      <trkpt lat="42.3980760" lon="-8.6297750">
        <ele>37.5</ele>
        <time>2019-08-17T09:42:11Z</time>
      </trkpt>
      <trkpt lat="42.3981150" lon="-8.6297570">
        <ele>37.6</ele>
        <time>2019-08-17T09:42:12Z</time>
      </trkpt>
      <trkpt lat="42.3981560" lon="-8.6297400">
        <ele>37.7</ele>
        <time>2019-08-17T09:42:13Z</time>
      </trkpt>
      <trkpt lat="42.3981960" lon="-8.6297240">
        <ele>37.8</ele>
        <time>2019-08-17T09:42:14Z</time>
      </trkpt>
      <trkpt lat="42.3982410" lon="-8.6297120">
        <ele>37.9</ele>
        <time>2019-08-17T09:42:15Z</time>
      </trkpt>
      <trkpt lat="42.3982830" lon="-8.6297000">
        <ele>38.0</ele>
        <time>2019-08-17T09:42:16Z</time>
      </trkpt>
      <trkpt lat="42.3984570" lon="-8.6296870">
        <ele>36.9</ele>
        <time>2019-08-17T09:42:20Z</time>
      </trkpt>
      <trkpt lat="42.3985390" lon="-8.6297030">
        <ele>36.6</ele>
        <time>2019-08-17T09:42:22Z</time>
      </trkpt>
      <trkpt lat="42.3988620" lon="-8.6297760">
        <ele>36.6</ele>
        <time>2019-08-17T09:42:29Z</time>
      </trkpt>
      <trkpt lat="42.3989460" lon="-8.6298050">
        <ele>36.9</ele>
        <time>2019-08-17T09:42:31Z</time>
      </trkpt>
      <trkpt lat="42.3989990" lon="-8.6298260">
        <ele>37.1</ele>
        <time>2019-08-17T09:42:32Z</time>
      </trkpt>
      <trkpt lat="42.3990400" lon="-8.6298450">
        <ele>37.3</ele>
        <time>2019-08-17T09:42:33Z</time>
      </trkpt>
      <trkpt lat="42.3990930" lon="-8.6298660">
        <ele>37.7</ele>
        <time>2019-08-17T09:42:34Z</time>
      </trkpt>
      <trkpt lat="42.3991360" lon="-8.6298900">
        <ele>38.0</ele>
        <time>2019-08-17T09:42:35Z</time>
      </trkpt>
      <trkpt lat="42.3991800" lon="-8.6299170">
        <ele>38.4</ele>
        <time>2019-08-17T09:42:36Z</time>
      </trkpt>
      <trkpt lat="42.3994990" lon="-8.6301100">
        <ele>39.7</ele>
        <time>2019-08-17T09:42:43Z</time>
      </trkpt>
      <trkpt lat="42.3998920" lon="-8.6303040">
        <ele>39.7</ele>
        <time>2019-08-17T09:42:52Z</time>
      </trkpt>
      <trkpt lat="42.4002560" lon="-8.6304430">
        <ele>39.6</ele>
        <time>2019-08-17T09:42:59Z</time>
      </trkpt>
      <trkpt lat="42.4003040" lon="-8.6304680">
        <ele>39.8</ele>
        <time>2019-08-17T09:43:00Z</time>
      </trkpt>
      <trkpt lat="42.4003460" lon="-8.6304950">
        <ele>40.0</ele>
        <time>2019-08-17T09:43:01Z</time>
      </trkpt>
      <trkpt lat="42.4003900" lon="-8.6305270">
        <ele>40.1</ele>
        <time>2019-08-17T09:43:02Z</time>
      </trkpt>
      <trkpt lat="42.4004330" lon="-8.6305570">
        <ele>40.3</ele>
        <time>2019-08-17T09:43:03Z</time>
      </trkpt>
      <trkpt lat="42.4006350" lon="-8.6307220">
        <ele>41.0</ele>
        <time>2019-08-17T09:43:08Z</time>
      </trkpt>
      <trkpt lat="42.4009360" lon="-8.6310420">
        <ele>42.1</ele>
        <time>2019-08-17T09:43:16Z</time>
      </trkpt>
      <trkpt lat="42.4013070" lon="-8.6314650">
        <ele>40.6</ele>
        <time>2019-08-17T09:43:25Z</time>
      </trkpt>
      <trkpt lat="42.4013480" lon="-8.6315150">
        <ele>40.5</ele>
        <time>2019-08-17T09:43:26Z</time>
      </trkpt>
      <trkpt lat="42.4013860" lon="-8.6315710">
        <ele>40.4</ele>
        <time>2019-08-17T09:43:27Z</time>
      </trkpt>
      <trkpt lat="42.4014340" lon="-8.6316210">
        <ele>40.2</ele>
        <time>2019-08-17T09:43:28Z</time>
      </trkpt>
      <trkpt lat="42.4014810" lon="-8.6316700">
        <ele>40.0</ele>
        <time>2019-08-17T09:43:29Z</time>
      </trkpt>
      <trkpt lat="42.4016390" lon="-8.6318420">
        <ele>39.2</ele>
        <time>2019-08-17T09:43:32Z</time>
      </trkpt>
      <trkpt lat="42.4018080" lon="-8.6320230">
        <ele>38.2</ele>
        <time>2019-08-17T09:43:35Z</time>
      </trkpt>
      <trkpt lat="42.4018760" lon="-8.6320670">
        <ele>37.8</ele>
        <time>2019-08-17T09:43:36Z</time>
      </trkpt>
      <trkpt lat="42.4019380" lon="-8.6321130">
        <ele>37.8</ele>
        <time>2019-08-17T09:43:37Z</time>
      </trkpt>
      <trkpt lat="42.4020030" lon="-8.6321500">
        <ele>37.8</ele>
        <time>2019-08-17T09:43:38Z</time>
      </trkpt>
      <trkpt lat="42.4020900" lon="-8.6321160">
        <ele>37.8</ele>
        <time>2019-08-17T09:43:39Z</time>
      </trkpt>
      <trkpt lat="42.4021800" lon="-8.6321010">
        <ele>37.8</ele>
        <time>2019-08-17T09:43:40Z</time>
      </trkpt>
      <trkpt lat="42.4022620" lon="-8.6320910">
        <ele>37.9</ele>
        <time>2019-08-17T09:43:41Z</time>
      </trkpt>
      <trkpt lat="42.4024130" lon="-8.6320960">
        <ele>38.2</ele>
        <time>2019-08-17T09:43:43Z</time>
      </trkpt>
      <trkpt lat="42.4024840" lon="-8.6320960">
        <ele>38.4</ele>
        <time>2019-08-17T09:43:44Z</time>
      </trkpt>
      <trkpt lat="42.4026380" lon="-8.6320870">
        <ele>38.9</ele>
        <time>2019-08-17T09:43:46Z</time>
      </trkpt>
      <trkpt lat="42.4030940" lon="-8.6320870">
        <ele>39.8</ele>
        <time>2019-08-17T09:43:52Z</time>
      </trkpt>
      <trkpt lat="42.4035510" lon="-8.6321440">
        <ele>39.6</ele>
        <time>2019-08-17T09:43:59Z</time>
      </trkpt>
      <trkpt lat="42.4039700" lon="-8.6322180">
        <ele>37.4</ele>
        <time>2019-08-17T09:44:06Z</time>
      </trkpt>
      <trkpt lat="42.4042470" lon="-8.6322610">
        <ele>35.8</ele>
        <time>2019-08-17T09:44:10Z</time>
      </trkpt>
      <trkpt lat="42.4043190" lon="-8.6322730">
        <ele>35.6</ele>
        <time>2019-08-17T09:44:11Z</time>
      </trkpt>
      <trkpt lat="42.4043970" lon="-8.6322850">
        <ele>35.3</ele>
        <time>2019-08-17T09:44:12Z</time>
      </trkpt>
      <trkpt lat="42.4044730" lon="-8.6322930">
        <ele>34.9</ele>
        <time>2019-08-17T09:44:13Z</time>
      </trkpt>
      <trkpt lat="42.4045470" lon="-8.6323070">
        <ele>34.5</ele>
        <time>2019-08-17T09:44:14Z</time>
      </trkpt>
      <trkpt lat="42.4049470" lon="-8.6324050">
        <ele>32.6</ele>
        <time>2019-08-17T09:44:19Z</time>
      </trkpt>
      <trkpt lat="42.4050290" lon="-8.6324280">
        <ele>32.3</ele>
        <time>2019-08-17T09:44:20Z</time>
      </trkpt>
      <trkpt lat="42.4051140" lon="-8.6324460">
        <ele>32.0</ele>
        <time>2019-08-17T09:44:21Z</time>
      </trkpt>
      <trkpt lat="42.4052020" lon="-8.6324520">
        <ele>31.8</ele>
        <time>2019-08-17T09:44:22Z</time>
      </trkpt>
      <trkpt lat="42.4052910" lon="-8.6324550">
        <ele>31.7</ele>
        <time>2019-08-17T09:44:23Z</time>
      </trkpt>
      <trkpt lat="42.4053820" lon="-8.6324560">
        <ele>31.5</ele>
        <time>2019-08-17T09:44:24Z</time>
      </trkpt>
      <trkpt lat="42.4057630" lon="-8.6325040">
        <ele>30.5</ele>
        <time>2019-08-17T09:44:29Z</time>
      </trkpt>
      <trkpt lat="42.4058390" lon="-8.6325200">
        <ele>30.2</ele>
        <time>2019-08-17T09:44:30Z</time>
      </trkpt>
      <trkpt lat="42.4059130" lon="-8.6325360">
        <ele>29.9</ele>
        <time>2019-08-17T09:44:31Z</time>
      </trkpt>
      <trkpt lat="42.4059870" lon="-8.6325590">
        <ele>29.6</ele>
        <time>2019-08-17T09:44:32Z</time>
      </trkpt>
      <trkpt lat="42.4060600" lon="-8.6325820">
        <ele>29.3</ele>
        <time>2019-08-17T09:44:33Z</time>
      </trkpt>
      <trkpt lat="42.4064120" lon="-8.6327470">
        <ele>28.3</ele>
        <time>2019-08-17T09:44:38Z</time>
      </trkpt>
      <trkpt lat="42.4066250" lon="-8.6328600">
        <ele>27.9</ele>
        <time>2019-08-17T09:44:41Z</time>
      </trkpt>
      <trkpt lat="42.4069730" lon="-8.6330320">
        <ele>27.5</ele>
        <time>2019-08-17T09:44:46Z</time>
      </trkpt>
      <trkpt lat="42.4074390" lon="-8.6331600">
        <ele>27.9</ele>
        <time>2019-08-17T09:44:53Z</time>
      </trkpt>
      <trkpt lat="42.4078960" lon="-8.6332150">
        <ele>28.5</ele>
        <time>2019-08-17T09:45:00Z</time>
      </trkpt>
      <trkpt lat="42.4084660" lon="-8.6333160">
        <ele>28.5</ele>
        <time>2019-08-17T09:45:09Z</time>
      </trkpt>
      <trkpt lat="42.4086930" lon="-8.6333250">
        <ele>28.8</ele>
        <time>2019-08-17T09:45:13Z</time>
      </trkpt>
      <trkpt lat="42.4088080" lon="-8.6333150">
        <ele>28.6</ele>
        <time>2019-08-17T09:45:15Z</time>
      </trkpt>
      <trkpt lat="42.4090160" lon="-8.6332880">
        <ele>28.1</ele>
        <time>2019-08-17T09:45:19Z</time>
      </trkpt>
      <trkpt lat="42.4091140" lon="-8.6332740">
        <ele>27.8</ele>
        <time>2019-08-17T09:45:21Z</time>
      </trkpt>
      <trkpt lat="42.4091910" lon="-8.6332600">
        <ele>27.7</ele>
        <time>2019-08-17T09:45:23Z</time>
      </trkpt>
      <trkpt lat="42.4092390" lon="-8.6332480">
        <ele>27.5</ele>
        <time>2019-08-17T09:45:24Z</time>
      </trkpt>
      <trkpt lat="42.4092850" lon="-8.6332320">
        <ele>27.5</ele>
        <time>2019-08-17T09:45:25Z</time>
      </trkpt>
      <trkpt lat="42.4093300" lon="-8.6332150">
        <ele>27.5</ele>
        <time>2019-08-17T09:45:26Z</time>
      </trkpt>
      <trkpt lat="42.4093740" lon="-8.6331980">
        <ele>27.5</ele>
        <time>2019-08-17T09:45:27Z</time>
      </trkpt>
      <trkpt lat="42.4094810" lon="-8.6331590">
        <ele>27.0</ele>
        <time>2019-08-17T09:45:30Z</time>
      </trkpt>
      <trkpt lat="42.4097270" lon="-8.6330960">
        <ele>26.5</ele>
        <time>2019-08-17T09:45:36Z</time>
      </trkpt>
      <trkpt lat="42.4100360" lon="-8.6330540">
        <ele>25.5</ele>
        <time>2019-08-17T09:45:44Z</time>
      </trkpt>
      <trkpt lat="42.4103570" lon="-8.6330060">
        <ele>25.5</ele>
        <time>2019-08-17T09:45:52Z</time>
      </trkpt>
      <trkpt lat="42.4105550" lon="-8.6329680">
        <ele>26.3</ele>
        <time>2019-08-17T09:45:57Z</time>
      </trkpt>
      <trkpt lat="42.4106600" lon="-8.6329850">
        <ele>26.5</ele>
        <time>2019-08-17T09:45:59Z</time>
      </trkpt>
      <trkpt lat="42.4108490" lon="-8.6330330">
        <ele>26.2</ele>
        <time>2019-08-17T09:46:02Z</time>
      </trkpt>
      <trkpt lat="42.4109180" lon="-8.6330460">
        <ele>26.1</ele>
        <time>2019-08-17T09:46:03Z</time>
      </trkpt>
      <trkpt lat="42.4109910" lon="-8.6330560">
        <ele>25.9</ele>
        <time>2019-08-17T09:46:04Z</time>
      </trkpt>
      <trkpt lat="42.4110710" lon="-8.6330660">
        <ele>25.7</ele>
        <time>2019-08-17T09:46:05Z</time>
      </trkpt>
      <trkpt lat="42.4111440" lon="-8.6330730">
        <ele>25.5</ele>
        <time>2019-08-17T09:46:06Z</time>
      </trkpt>
      <trkpt lat="42.4114600" lon="-8.6330740">
        <ele>24.4</ele>
        <time>2019-08-17T09:46:10Z</time>
      </trkpt>
      <trkpt lat="42.4115380" lon="-8.6330680">
        <ele>24.1</ele>
        <time>2019-08-17T09:46:11Z</time>
      </trkpt>
      <trkpt lat="42.4116180" lon="-8.6330610">
        <ele>23.8</ele>
        <time>2019-08-17T09:46:12Z</time>
      </trkpt>
      <trkpt lat="42.4116990" lon="-8.6330480">
        <ele>23.5</ele>
        <time>2019-08-17T09:46:13Z</time>
      </trkpt>
      <trkpt lat="42.4117760" lon="-8.6330350">
        <ele>23.2</ele>
        <time>2019-08-17T09:46:14Z</time>
      </trkpt>
      <trkpt lat="42.4121040" lon="-8.6330150">
        <ele>22.2</ele>
        <time>2019-08-17T09:46:18Z</time>
      </trkpt>
      <trkpt lat="42.4121830" lon="-8.6330150">
        <ele>22.0</ele>
        <time>2019-08-17T09:46:19Z</time>
      </trkpt>
      <trkpt lat="42.4122680" lon="-8.6330050">
        <ele>21.8</ele>
        <time>2019-08-17T09:46:20Z</time>
      </trkpt>
      <trkpt lat="42.4123510" lon="-8.6330030">
        <ele>21.6</ele>
        <time>2019-08-17T09:46:21Z</time>
      </trkpt>
      <trkpt lat="42.4124360" lon="-8.6330100">
        <ele>21.4</ele>
        <time>2019-08-17T09:46:22Z</time>
      </trkpt>
      <trkpt lat="42.4126750" lon="-8.6330540">
        <ele>21.0</ele>
        <time>2019-08-17T09:46:25Z</time>
      </trkpt>
      <trkpt lat="42.4129220" lon="-8.6331130">
        <ele>20.5</ele>
        <time>2019-08-17T09:46:28Z</time>
      </trkpt>
      <trkpt lat="42.4129990" lon="-8.6331280">
        <ele>20.4</ele>
        <time>2019-08-17T09:46:29Z</time>
      </trkpt>
      <trkpt lat="42.4130820" lon="-8.6331300">
        <ele>20.2</ele>
        <time>2019-08-17T09:46:30Z</time>
      </trkpt>
      <trkpt lat="42.4131630" lon="-8.6331280">
        <ele>20.1</ele>
        <time>2019-08-17T09:46:31Z</time>
      </trkpt>
      <trkpt lat="42.4132430" lon="-8.6331180">
        <ele>19.7</ele>
        <time>2019-08-17T09:46:32Z</time>
      </trkpt>
      <trkpt lat="42.4136260" lon="-8.6330190">
        <ele>19.0</ele>
        <time>2019-08-17T09:46:37Z</time>
      </trkpt>
      <trkpt lat="42.4139240" lon="-8.6329640">
        <ele>18.6</ele>
        <time>2019-08-17T09:46:41Z</time>
      </trkpt>
      <trkpt lat="42.4139990" lon="-8.6329660">
        <ele>18.5</ele>
        <time>2019-08-17T09:46:42Z</time>
      </trkpt>
      <trkpt lat="42.4140760" lon="-8.6329760">
        <ele>18.5</ele>
        <time>2019-08-17T09:46:43Z</time>
      </trkpt>
      <trkpt lat="42.4141460" lon="-8.6329900">
        <ele>18.4</ele>
        <time>2019-08-17T09:46:44Z</time>
      </trkpt>
      <trkpt lat="42.4142120" lon="-8.6330080">
        <ele>18.4</ele>
        <time>2019-08-17T09:46:45Z</time>
      </trkpt>
      <trkpt lat="42.4145430" lon="-8.6331070">
        <ele>18.3</ele>
        <time>2019-08-17T09:46:50Z</time>
      </trkpt>
      <trkpt lat="42.4149760" lon="-8.6332820">
        <ele>18.4</ele>
        <time>2019-08-17T09:46:57Z</time>
      </trkpt>
      <trkpt lat="42.4150720" lon="-8.6333040">
        <ele>18.5</ele>
        <time>2019-08-17T09:47:00Z</time>
      </trkpt>
      <trkpt lat="42.4150910" lon="-8.6333090">
        <ele>18.5</ele>
        <time>2019-08-17T09:47:02Z</time>
      </trkpt>
      <trkpt lat="42.4150910" lon="-8.6333160">
        <ele>18.6</ele>
        <time>2019-08-17T09:47:47Z</time>
      </trkpt>
      <trkpt lat="42.4150920" lon="-8.6333210">
        <ele>18.6</ele>
        <time>2019-08-17T09:47:48Z</time>
      </trkpt>
      <trkpt lat="42.4151400" lon="-8.6333090">
        <ele>18.6</ele>
        <time>2019-08-17T09:56:24Z</time>
      </trkpt>
      <trkpt lat="42.4152020" lon="-8.6332080">
        <ele>18.7</ele>
        <time>2019-08-17T09:56:27Z</time>
      </trkpt>
      <trkpt lat="42.4152760" lon="-8.6331520">
        <ele>18.8</ele>
        <time>2019-08-17T09:56:29Z</time>
      </trkpt>
      <trkpt lat="42.4153700" lon="-8.6331060">
        <ele>18.8</ele>
        <time>2019-08-17T09:56:31Z</time>
      </trkpt>
      <trkpt lat="42.4154990" lon="-8.6330590">
        <ele>18.7</ele>
        <time>2019-08-17T09:56:34Z</time>
      </trkpt>
      <trkpt lat="42.4155920" lon="-8.6330540">
        <ele>18.7</ele>
        <time>2019-08-17T09:56:36Z</time>
      </trkpt>
      <trkpt lat="42.4156750" lon="-8.6330730">
        <ele>18.7</ele>
        <time>2019-08-17T09:56:38Z</time>
      </trkpt>
      <trkpt lat="42.4158450" lon="-8.6331340">
        <ele>18.6</ele>
        <time>2019-08-17T09:56:42Z</time>
      </trkpt>
      <trkpt lat="42.4158850" lon="-8.6331590">
        <ele>18.6</ele>
        <time>2019-08-17T09:56:43Z</time>
      </trkpt>
      <trkpt lat="42.4161000" lon="-8.6332790">
        <ele>18.5</ele>
        <time>2019-08-17T09:56:48Z</time>
      </trkpt>
      <trkpt lat="42.4162330" lon="-8.6333300">
        <ele>18.5</ele>
        <time>2019-08-17T09:56:51Z</time>
      </trkpt>
      <trkpt lat="42.4163640" lon="-8.6333740">
        <ele>18.3</ele>
        <time>2019-08-17T09:56:54Z</time>
      </trkpt>
      <trkpt lat="42.4165910" lon="-8.6334960">
        <ele>19.1</ele>
        <time>2019-08-17T09:57:01Z</time>
      </trkpt>
      <trkpt lat="42.4166780" lon="-8.6335030">
        <ele>19.1</ele>
        <time>2019-08-17T09:57:06Z</time>
      </trkpt>
      <trkpt lat="42.4168210" lon="-8.6335050">
        <ele>19.1</ele>
        <time>2019-08-17T09:57:11Z</time>
      </trkpt>
      <trkpt lat="42.4170410" lon="-8.6335070">
        <ele>19.0</ele>
        <time>2019-08-17T09:57:17Z</time>
      </trkpt>
      <trkpt lat="42.4172320" lon="-8.6335080">
        <ele>18.9</ele>
        <time>2019-08-17T09:57:22Z</time>
      </trkpt>
      <trkpt lat="42.4176540" lon="-8.6335540">
        <ele>18.9</ele>
        <time>2019-08-17T09:57:32Z</time>
      </trkpt>
      <trkpt lat="42.4179270" lon="-8.6336210">
        <ele>19.1</ele>
        <time>2019-08-17T09:57:39Z</time>
      </trkpt>
      <trkpt lat="42.4179970" lon="-8.6336560">
        <ele>19.1</ele>
        <time>2019-08-17T09:57:43Z</time>
      </trkpt>
      <trkpt lat="42.4180270" lon="-8.6336850">
        <ele>19.1</ele>
        <time>2019-08-17T09:57:49Z</time>
      </trkpt>
      <trkpt lat="42.4180580" lon="-8.6337140">
        <ele>19.1</ele>
        <time>2019-08-17T09:57:50Z</time>
      </trkpt>
      <trkpt lat="42.4182090" lon="-8.6340390">
        <ele>19.1</ele>
        <time>2019-08-17T09:57:55Z</time>
      </trkpt>
      <trkpt lat="42.4183330" lon="-8.6343570">
        <ele>19.1</ele>
        <time>2019-08-17T09:57:59Z</time>
      </trkpt>
      <trkpt lat="42.4183490" lon="-8.6344440">
        <ele>19.0</ele>
        <time>2019-08-17T09:58:00Z</time>
      </trkpt>
      <trkpt lat="42.4184220" lon="-8.6350330">
        <ele>18.8</ele>
        <time>2019-08-17T09:58:06Z</time>
      </trkpt>
      <trkpt lat="42.4185240" lon="-8.6354260">
        <ele>18.9</ele>
        <time>2019-08-17T09:58:10Z</time>
      </trkpt>
      <trkpt lat="42.4185480" lon="-8.6355260">
        <ele>19.0</ele>
        <time>2019-08-17T09:58:11Z</time>
      </trkpt>
      <trkpt lat="42.4185740" lon="-8.6356210">
        <ele>19.1</ele>
        <time>2019-08-17T09:58:12Z</time>
      </trkpt>
      <trkpt lat="42.4186010" lon="-8.6357180">
        <ele>19.1</ele>
        <time>2019-08-17T09:58:13Z</time>
      </trkpt>
      <trkpt lat="42.4186300" lon="-8.6358160">
        <ele>19.1</ele>
        <time>2019-08-17T09:58:14Z</time>
      </trkpt>
      <trkpt lat="42.4187620" lon="-8.6361850">
        <ele>18.9</ele>
        <time>2019-08-17T09:58:18Z</time>
      </trkpt>
      <trkpt lat="42.4188220" lon="-8.6362500">
        <ele>18.9</ele>
        <time>2019-08-17T09:58:19Z</time>
      </trkpt>
      <trkpt lat="42.4189650" lon="-8.6362580">
        <ele>19.4</ele>
        <time>2019-08-17T09:58:21Z</time>
      </trkpt>
      <trkpt lat="42.4191160" lon="-8.6362760">
        <ele>19.7</ele>
        <time>2019-08-17T09:58:23Z</time>
      </trkpt>
      <trkpt lat="42.4193320" lon="-8.6363770">
        <ele>20.3</ele>
        <time>2019-08-17T09:58:26Z</time>
      </trkpt>
      <trkpt lat="42.4198960" lon="-8.6365380">
        <ele>22.0</ele>
        <time>2019-08-17T09:58:34Z</time>
      </trkpt>
      <trkpt lat="42.4199690" lon="-8.6365330">
        <ele>22.1</ele>
        <time>2019-08-17T09:58:35Z</time>
      </trkpt>
      <trkpt lat="42.4200350" lon="-8.6365340">
        <ele>22.2</ele>
        <time>2019-08-17T09:58:36Z</time>
      </trkpt>
      <trkpt lat="42.4200980" lon="-8.6365320">
        <ele>22.3</ele>
        <time>2019-08-17T09:58:37Z</time>
      </trkpt>
      <trkpt lat="42.4201640" lon="-8.6365280">
        <ele>22.4</ele>
        <time>2019-08-17T09:58:38Z</time>
      </trkpt>
      <trkpt lat="42.4202220" lon="-8.6365330">
        <ele>22.5</ele>
        <time>2019-08-17T09:58:39Z</time>
      </trkpt>
      <trkpt lat="42.4205550" lon="-8.6365170">
        <ele>22.5</ele>
        <time>2019-08-17T09:58:44Z</time>
      </trkpt>
      <trkpt lat="42.4206180" lon="-8.6365050">
        <ele>22.5</ele>
        <time>2019-08-17T09:58:45Z</time>
      </trkpt>
      <trkpt lat="42.4206830" lon="-8.6364900">
        <ele>22.5</ele>
        <time>2019-08-17T09:58:46Z</time>
      </trkpt>
      <trkpt lat="42.4207410" lon="-8.6364820">
        <ele>22.4</ele>
        <time>2019-08-17T09:58:47Z</time>
      </trkpt>
      <trkpt lat="42.4207910" lon="-8.6364750">
        <ele>22.4</ele>
        <time>2019-08-17T09:58:48Z</time>
      </trkpt>
      <trkpt lat="42.4209180" lon="-8.6364590">
        <ele>22.3</ele>
        <time>2019-08-17T09:58:51Z</time>
      </trkpt>
      <trkpt lat="42.4211570" lon="-8.6364470">
        <ele>21.8</ele>
        <time>2019-08-17T09:58:57Z</time>
      </trkpt>
      <trkpt lat="42.4214220" lon="-8.6364370">
        <ele>21.2</ele>
        <time>2019-08-17T09:59:04Z</time>
      </trkpt>
      <trkpt lat="42.4216530" lon="-8.6363910">
        <ele>21.0</ele>
        <time>2019-08-17T09:59:10Z</time>
      </trkpt>
      <trkpt lat="42.4217980" lon="-8.6364830">
        <ele>21.4</ele>
        <time>2019-08-17T09:59:15Z</time>
      </trkpt>
      <trkpt lat="42.4218140" lon="-8.6367040">
        <ele>21.5</ele>
        <time>2019-08-17T09:59:19Z</time>
      </trkpt>
      <trkpt lat="42.4218340" lon="-8.6367420">
        <ele>21.7</ele>
        <time>2019-08-17T09:59:20Z</time>
      </trkpt>
      <trkpt lat="42.4219300" lon="-8.6367730">
        <ele>22.0</ele>
        <time>2019-08-17T09:59:23Z</time>
      </trkpt>
      <trkpt lat="42.4219600" lon="-8.6367760">
        <ele>22.1</ele>
        <time>2019-08-17T09:59:24Z</time>
      </trkpt>
      <trkpt lat="42.4221590" lon="-8.6367410">
        <ele>22.4</ele>
        <time>2019-08-17T09:59:29Z</time>
      </trkpt>
      <trkpt lat="42.4222010" lon="-8.6367450">
        <ele>22.5</ele>
        <time>2019-08-17T09:59:30Z</time>
      </trkpt>
      <trkpt lat="42.4223360" lon="-8.6367850">
        <ele>22.5</ele>
        <time>2019-08-17T09:59:33Z</time>
      </trkpt>
      <trkpt lat="42.4225150" lon="-8.6368770">
        <ele>22.7</ele>
        <time>2019-08-17T09:59:37Z</time>
      </trkpt>
      <trkpt lat="42.4225900" lon="-8.6368710">
        <ele>22.7</ele>
        <time>2019-08-17T09:59:39Z</time>
      </trkpt>
      <trkpt lat="42.4227260" lon="-8.6369010">
        <ele>22.8</ele>
        <time>2019-08-17T09:59:42Z</time>
      </trkpt>
      <trkpt lat="42.4227720" lon="-8.6369160">
        <ele>22.9</ele>
        <time>2019-08-17T09:59:43Z</time>
      </trkpt>
      <trkpt lat="42.4228180" lon="-8.6369300">
        <ele>22.9</ele>
        <time>2019-08-17T09:59:44Z</time>
      </trkpt>
      <trkpt lat="42.4228610" lon="-8.6369440">
        <ele>22.9</ele>
        <time>2019-08-17T09:59:45Z</time>
      </trkpt>
      <trkpt lat="42.4229130" lon="-8.6369550">
        <ele>22.9</ele>
        <time>2019-08-17T09:59:46Z</time>
      </trkpt>
      <trkpt lat="42.4230180" lon="-8.6369460">
        <ele>22.9</ele>
        <time>2019-08-17T09:59:48Z</time>
      </trkpt>
      <trkpt lat="42.4231260" lon="-8.6369530">
        <ele>22.9</ele>
        <time>2019-08-17T09:59:50Z</time>
      </trkpt>
      <trkpt lat="42.4232430" lon="-8.6369870">
        <ele>22.9</ele>
        <time>2019-08-17T09:59:52Z</time>
      </trkpt>
      <trkpt lat="42.4232990" lon="-8.6370070">
        <ele>22.9</ele>
        <time>2019-08-17T09:59:53Z</time>
      </trkpt>
      <trkpt lat="42.4234030" lon="-8.6370420">
        <ele>23.0</ele>
        <time>2019-08-17T09:59:55Z</time>
      </trkpt>
      <trkpt lat="42.4234610" lon="-8.6370590">
        <ele>22.9</ele>
        <time>2019-08-17T09:59:56Z</time>
      </trkpt>
      <trkpt lat="42.4236050" lon="-8.6370820">
        <ele>22.8</ele>
        <time>2019-08-17T09:59:58Z</time>
      </trkpt>
      <trkpt lat="42.4238200" lon="-8.6370920">
        <ele>22.6</ele>
        <time>2019-08-17T10:00:02Z</time>
      </trkpt>
      <trkpt lat="42.4240080" lon="-8.6370860">
        <ele>22.4</ele>
        <time>2019-08-17T10:00:05Z</time>
      </trkpt>
      <trkpt lat="42.4241930" lon="-8.6370630">
        <ele>22.1</ele>
        <time>2019-08-17T10:00:08Z</time>
      </trkpt>
      <trkpt lat="42.4242380" lon="-8.6370630">
        <ele>22.1</ele>
        <time>2019-08-17T10:00:09Z</time>
      </trkpt>
      <trkpt lat="42.4244560" lon="-8.6370450">
        <ele>22.0</ele>
        <time>2019-08-17T10:00:14Z</time>
      </trkpt>
      <trkpt lat="42.4245060" lon="-8.6370670">
        <ele>22.1</ele>
        <time>2019-08-17T10:00:15Z</time>
      </trkpt>
      <trkpt lat="42.4245560" lon="-8.6370860">
        <ele>22.1</ele>
        <time>2019-08-17T10:00:16Z</time>
      </trkpt>
      <trkpt lat="42.4246110" lon="-8.6371000">
        <ele>22.2</ele>
        <time>2019-08-17T10:00:17Z</time>
      </trkpt>
      <trkpt lat="42.4247290" lon="-8.6371090">
        <ele>22.3</ele>
        <time>2019-08-17T10:00:19Z</time>
      </trkpt>
      <trkpt lat="42.4247880" lon="-8.6371290">
        <ele>22.3</ele>
        <time>2019-08-17T10:00:20Z</time>
      </trkpt>
      <trkpt lat="42.4250240" lon="-8.6372800">
        <ele>22.6</ele>
        <time>2019-08-17T10:00:25Z</time>
      </trkpt>
      <trkpt lat="42.4250500" lon="-8.6373400">
        <ele>22.6</ele>
        <time>2019-08-17T10:00:26Z</time>
      </trkpt>
      <trkpt lat="42.4253160" lon="-8.6375260">
        <ele>23.4</ele>
        <time>2019-08-17T10:00:32Z</time>
      </trkpt>
      <trkpt lat="42.4254160" lon="-8.6375490">
        <ele>23.7</ele>
        <time>2019-08-17T10:00:34Z</time>
      </trkpt>
      <trkpt lat="42.4257240" lon="-8.6375970">
        <ele>23.9</ele>
        <time>2019-08-17T10:00:40Z</time>
      </trkpt>
      <trkpt lat="42.4257730" lon="-8.6376200">
        <ele>23.7</ele>
        <time>2019-08-17T10:00:41Z</time>
      </trkpt>
      <trkpt lat="42.4258720" lon="-8.6376640">
        <ele>23.5</ele>
        <time>2019-08-17T10:00:43Z</time>
      </trkpt>
      <trkpt lat="42.4259080" lon="-8.6377070">
        <ele>23.5</ele>
        <time>2019-08-17T10:00:44Z</time>
      </trkpt>
      <trkpt lat="42.4259530" lon="-8.6377290">
        <ele>23.6</ele>
        <time>2019-08-17T10:00:45Z</time>
      </trkpt>
      <trkpt lat="42.4260030" lon="-8.6377480">
        <ele>23.7</ele>
        <time>2019-08-17T10:00:46Z</time>
      </trkpt>
      <trkpt lat="42.4260530" lon="-8.6377690">
        <ele>23.8</ele>
        <time>2019-08-17T10:00:47Z</time>
      </trkpt>
      <trkpt lat="42.4262250" lon="-8.6379080">
        <ele>24.2</ele>
        <time>2019-08-17T10:00:51Z</time>
      </trkpt>
      <trkpt lat="42.4263000" lon="-8.6379860">
        <ele>24.2</ele>
        <time>2019-08-17T10:00:53Z</time>
      </trkpt>
      <trkpt lat="42.4263260" lon="-8.6380640">
        <ele>24.2</ele>
        <time>2019-08-17T10:00:54Z</time>
      </trkpt>
      <trkpt lat="42.4264090" lon="-8.6383090">
        <ele>24.2</ele>
        <time>2019-08-17T10:00:57Z</time>
      </trkpt>
      <trkpt lat="42.4264390" lon="-8.6383600">
        <ele>24.2</ele>
        <time>2019-08-17T10:00:58Z</time>
      </trkpt>
      <trkpt lat="42.4265060" lon="-8.6384630">
        <ele>24.2</ele>
        <time>2019-08-17T10:01:00Z</time>
      </trkpt>
      <trkpt lat="42.4265770" lon="-8.6385820">
        <ele>24.4</ele>
        <time>2019-08-17T10:01:02Z</time>
      </trkpt>
      <trkpt lat="42.4267360" lon="-8.6387690">
        <ele>24.9</ele>
        <time>2019-08-17T10:01:06Z</time>
      </trkpt>
      <trkpt lat="42.4267730" lon="-8.6388140">
        <ele>25.0</ele>
        <time>2019-08-17T10:01:07Z</time>
      </trkpt>
      <trkpt lat="42.4269780" lon="-8.6390980">
        <ele>25.8</ele>
        <time>2019-08-17T10:01:14Z</time>
      </trkpt>
      <trkpt lat="42.4269880" lon="-8.6391270">
        <ele>25.8</ele>
        <time>2019-08-17T10:01:15Z</time>
      </trkpt>
      <trkpt lat="42.4269920" lon="-8.6391530">
        <ele>25.9</ele>
        <time>2019-08-17T10:01:16Z</time>
      </trkpt>
      <trkpt lat="42.4270000" lon="-8.6391680">
        <ele>25.9</ele>
        <time>2019-08-17T10:01:17Z</time>
      </trkpt>
      <trkpt lat="42.4270010" lon="-8.6391930">
        <ele>25.9</ele>
        <time>2019-08-17T10:01:18Z</time>
      </trkpt>
      <trkpt lat="42.4270120" lon="-8.6392240">
        <ele>26.0</ele>
        <time>2019-08-17T10:01:19Z</time>
      </trkpt>
      <trkpt lat="42.4270670" lon="-8.6393350">
        <ele>26.1</ele>
        <time>2019-08-17T10:01:25Z</time>
      </trkpt>
      <trkpt lat="42.4270750" lon="-8.6393450">
        <ele>26.1</ele>
        <time>2019-08-17T10:01:26Z</time>
      </trkpt>
      <trkpt lat="42.4270880" lon="-8.6393530">
        <ele>26.2</ele>
        <time>2019-08-17T10:01:27Z</time>
      </trkpt>
      <trkpt lat="42.4271000" lon="-8.6393600">
        <ele>26.2</ele>
        <time>2019-08-17T10:01:28Z</time>
      </trkpt>
      <trkpt lat="42.4271050" lon="-8.6393720">
        <ele>26.2</ele>
        <time>2019-08-17T10:01:29Z</time>
      </trkpt>
      <trkpt lat="42.4271200" lon="-8.6394180">
        <ele>26.5</ele>
        <time>2019-08-17T10:01:32Z</time>
      </trkpt>
      <trkpt lat="42.4271380" lon="-8.6394940">
        <ele>26.6</ele>
        <time>2019-08-17T10:01:37Z</time>
      </trkpt>
      <trkpt lat="42.4272110" lon="-8.6396070">
        <ele>26.6</ele>
        <time>2019-08-17T10:01:53Z</time>
      </trkpt>
      <trkpt lat="42.4272330" lon="-8.6398600">
        <ele>27.1</ele>
        <time>2019-08-17T10:01:58Z</time>
      </trkpt>
      <trkpt lat="42.4272880" lon="-8.6401890">
        <ele>27.7</ele>
        <time>2019-08-17T10:02:05Z</time>
      </trkpt>
      <trkpt lat="42.4273330" lon="-8.6403180">
        <ele>27.9</ele>
        <time>2019-08-17T10:02:08Z</time>
      </trkpt>
      <trkpt lat="42.4273420" lon="-8.6403740">
        <ele>28.0</ele>
        <time>2019-08-17T10:02:09Z</time>
      </trkpt>
      <trkpt lat="42.4273590" lon="-8.6404270">
        <ele>28.1</ele>
        <time>2019-08-17T10:02:10Z</time>
      </trkpt>
      <trkpt lat="42.4273760" lon="-8.6404790">
        <ele>28.1</ele>
        <time>2019-08-17T10:02:11Z</time>
      </trkpt>
      <trkpt lat="42.4273990" lon="-8.6405320">
        <ele>28.2</ele>
        <time>2019-08-17T10:02:12Z</time>
      </trkpt>
      <trkpt lat="42.4274730" lon="-8.6408210">
        <ele>28.1</ele>
        <time>2019-08-17T10:02:17Z</time>
      </trkpt>
      <trkpt lat="42.4274890" lon="-8.6408770">
        <ele>28.1</ele>
        <time>2019-08-17T10:02:18Z</time>
      </trkpt>
      <trkpt lat="42.4275120" lon="-8.6409270">
        <ele>28.1</ele>
        <time>2019-08-17T10:02:19Z</time>
      </trkpt>
      <trkpt lat="42.4275320" lon="-8.6409850">
        <ele>28.0</ele>
        <time>2019-08-17T10:02:20Z</time>
      </trkpt>
      <trkpt lat="42.4275300" lon="-8.6410600">
        <ele>28.0</ele>
        <time>2019-08-17T10:02:21Z</time>
      </trkpt>
      <trkpt lat="42.4276000" lon="-8.6413200">
        <ele>28.0</ele>
        <time>2019-08-17T10:02:25Z</time>
      </trkpt>
      <trkpt lat="42.4276800" lon="-8.6416280">
        <ele>27.3</ele>
        <time>2019-08-17T10:02:31Z</time>
      </trkpt>
      <trkpt lat="42.4277950" lon="-8.6420010">
        <ele>26.6</ele>
        <time>2019-08-17T10:02:37Z</time>
      </trkpt>
      <trkpt lat="42.4278060" lon="-8.6420650">
        <ele>26.5</ele>
        <time>2019-08-17T10:02:38Z</time>
      </trkpt>
      <trkpt lat="42.4278210" lon="-8.6421090">
        <ele>26.1</ele>
        <time>2019-08-17T10:02:39Z</time>
      </trkpt>
      <trkpt lat="42.4278170" lon="-8.6421690">
        <ele>25.9</ele>
        <time>2019-08-17T10:02:40Z</time>
      </trkpt>
      <trkpt lat="42.4278250" lon="-8.6422080">
        <ele>25.8</ele>
        <time>2019-08-17T10:02:41Z</time>
      </trkpt>
      <trkpt lat="42.4278310" lon="-8.6422420">
        <ele>25.7</ele>
        <time>2019-08-17T10:02:42Z</time>
      </trkpt>
      <trkpt lat="42.4278360" lon="-8.6422650">
        <ele>25.6</ele>
        <time>2019-08-17T10:02:43Z</time>
      </trkpt>
      <trkpt lat="42.4278630" lon="-8.6424060">
        <ele>24.9</ele>
        <time>2019-08-17T10:02:49Z</time>
      </trkpt>
      <trkpt lat="42.4278890" lon="-8.6426390">
        <ele>24.4</ele>
        <time>2019-08-17T10:02:56Z</time>
      </trkpt>
      <trkpt lat="42.4279880" lon="-8.6429950">
        <ele>24.0</ele>
        <time>2019-08-17T10:03:05Z</time>
      </trkpt>
      <trkpt lat="42.4280670" lon="-8.6433300">
        <ele>22.8</ele>
        <time>2019-08-17T10:03:12Z</time>
      </trkpt>
      <trkpt lat="42.4281420" lon="-8.6436710">
        <ele>22.6</ele>
        <time>2019-08-17T10:03:19Z</time>
      </trkpt>
      <trkpt lat="42.4282750" lon="-8.6439630">
        <ele>23.7</ele>
        <time>2019-08-17T10:03:27Z</time>
      </trkpt>
      <trkpt lat="42.4283130" lon="-8.6439320">
        <ele>24.0</ele>
        <time>2019-08-17T10:03:28Z</time>
      </trkpt>
      <trkpt lat="42.4283360" lon="-8.6439270">
        <ele>24.2</ele>
        <time>2019-08-17T10:03:29Z</time>
      </trkpt>
      <trkpt lat="42.4284890" lon="-8.6438700">
        <ele>25.4</ele>
        <time>2019-08-17T10:03:35Z</time>
      </trkpt>
      <trkpt lat="42.4286560" lon="-8.6439190">
        <ele>26.6</ele>
        <time>2019-08-17T10:03:40Z</time>
      </trkpt>
      <trkpt lat="42.4287030" lon="-8.6439190">
        <ele>26.7</ele>
        <time>2019-08-17T10:03:41Z</time>
      </trkpt>
      <trkpt lat="42.4288040" lon="-8.6438920">
        <ele>27.5</ele>
        <time>2019-08-17T10:03:44Z</time>
      </trkpt>
      <trkpt lat="42.4289840" lon="-8.6438470">
        <ele>28.2</ele>
        <time>2019-08-17T10:03:50Z</time>
      </trkpt>
      <trkpt lat="42.4290130" lon="-8.6438430">
        <ele>28.4</ele>
        <time>2019-08-17T10:03:51Z</time>
      </trkpt>
      <trkpt lat="42.4290420" lon="-8.6438390">
        <ele>28.5</ele>
        <time>2019-08-17T10:03:52Z</time>
      </trkpt>
      <trkpt lat="42.4290720" lon="-8.6438350">
        <ele>28.6</ele>
        <time>2019-08-17T10:03:53Z</time>
      </trkpt>
      <trkpt lat="42.4290950" lon="-8.6438310">
        <ele>28.7</ele>
        <time>2019-08-17T10:03:54Z</time>
      </trkpt>
      <trkpt lat="42.4292450" lon="-8.6437960">
        <ele>29.3</ele>
        <time>2019-08-17T10:03:59Z</time>
      </trkpt>
      <trkpt lat="42.4293960" lon="-8.6437560">
        <ele>29.9</ele>
        <time>2019-08-17T10:04:03Z</time>
      </trkpt>
      <trkpt lat="42.4294180" lon="-8.6437540">
        <ele>30.0</ele>
        <time>2019-08-17T10:04:04Z</time>
      </trkpt>
      <trkpt lat="42.4294430" lon="-8.6437260">
        <ele>30.2</ele>
        <time>2019-08-17T10:04:05Z</time>
      </trkpt>
      <trkpt lat="42.4294800" lon="-8.6436950">
        <ele>30.3</ele>
        <time>2019-08-17T10:04:06Z</time>
      </trkpt>
      <trkpt lat="42.4295210" lon="-8.6436330">
        <ele>30.6</ele>
        <time>2019-08-17T10:04:07Z</time>
      </trkpt>
      <trkpt lat="42.4295480" lon="-8.6435990">
        <ele>30.7</ele>
        <time>2019-08-17T10:04:08Z</time>
      </trkpt>
      <trkpt lat="42.4296160" lon="-8.6436860">
        <ele>31.2</ele>
        <time>2019-08-17T10:04:11Z</time>
      </trkpt>
      <trkpt lat="42.4296750" lon="-8.6437510">
        <ele>31.2</ele>
        <time>2019-08-17T10:04:15Z</time>
      </trkpt>
      <trkpt lat="42.4296910" lon="-8.6437440">
        <ele>31.2</ele>
        <time>2019-08-17T10:04:16Z</time>
      </trkpt>
      <trkpt lat="42.4298720" lon="-8.6437070">
        <ele>31.3</ele>
        <time>2019-08-17T10:04:35Z</time>
      </trkpt>
      <trkpt lat="42.4298960" lon="-8.6436900">
        <ele>31.2</ele>
        <time>2019-08-17T10:04:36Z</time>
      </trkpt>
      <trkpt lat="42.4299390" lon="-8.6436850">
        <ele>31.1</ele>
        <time>2019-08-17T10:04:37Z</time>
      </trkpt>
      <trkpt lat="42.4299930" lon="-8.6436960">
        <ele>30.9</ele>
        <time>2019-08-17T10:04:41Z</time>
      </trkpt>
      <trkpt lat="42.4300290" lon="-8.6437080">
        <ele>30.8</ele>
        <time>2019-08-17T10:04:44Z</time>
      </trkpt>
      <trkpt lat="42.4301100" lon="-8.6436890">
        <ele>30.5</ele>
        <time>2019-08-17T10:04:48Z</time>
      </trkpt>
      <trkpt lat="42.4301530" lon="-8.6436880">
        <ele>30.3</ele>
        <time>2019-08-17T10:04:50Z</time>
      </trkpt>
      <trkpt lat="42.4303510" lon="-8.6437230">
        <ele>29.3</ele>
        <time>2019-08-17T10:04:56Z</time>
      </trkpt>
      <trkpt lat="42.4304920" lon="-8.6438060">
        <ele>28.4</ele>
        <time>2019-08-17T10:05:02Z</time>
      </trkpt>
      <trkpt lat="42.4306790" lon="-8.6441370">
        <ele>27.3</ele>
        <time>2019-08-17T10:05:09Z</time>
      </trkpt>
      <trkpt lat="42.4307030" lon="-8.6441310">
        <ele>27.2</ele>
        <time>2019-08-17T10:05:10Z</time>
      </trkpt>
      <trkpt lat="42.4307570" lon="-8.6440420">
        <ele>25.8</ele>
        <time>2019-08-17T10:05:14Z</time>
      </trkpt>
      <trkpt lat="42.4307560" lon="-8.6440330">
        <ele>25.8</ele>
        <time>2019-08-17T10:05:16Z</time>
      </trkpt>
      <trkpt lat="42.4307620" lon="-8.6439670">
        <ele>25.8</ele>
        <time>2019-08-17T10:05:26Z</time>
      </trkpt>
      <trkpt lat="42.4307620" lon="-8.6439610">
        <ele>25.8</ele>
        <time>2019-08-17T10:05:27Z</time>
      </trkpt>
      <trkpt lat="42.4307640" lon="-8.6439510">
        <ele>25.8</ele>
        <time>2019-08-17T10:05:29Z</time>
      </trkpt>
      <trkpt lat="42.4307060" lon="-8.6440690">
        <ele>25.9</ele>
        <time>2019-08-17T10:10:13Z</time>
      </trkpt>
      <trkpt lat="42.4307490" lon="-8.6441260">
        <ele>25.9</ele>
        <time>2019-08-17T10:10:16Z</time>
      </trkpt>
      <trkpt lat="42.4308150" lon="-8.6442380">
        <ele>25.6</ele>
        <time>2019-08-17T10:10:24Z</time>
      </trkpt>
      <trkpt lat="42.4308640" lon="-8.6442430">
        <ele>24.9</ele>
        <time>2019-08-17T10:10:29Z</time>
      </trkpt>
      <trkpt lat="42.4308840" lon="-8.6442460">
        <ele>24.6</ele>
        <time>2019-08-17T10:10:31Z</time>
      </trkpt>
      <trkpt lat="42.4309170" lon="-8.6442480">
        <ele>24.3</ele>
        <time>2019-08-17T10:10:34Z</time>
      </trkpt>
      <trkpt lat="42.4310690" lon="-8.6443800">
        <ele>23.1</ele>
        <time>2019-08-17T10:10:40Z</time>
      </trkpt>
      <trkpt lat="42.4311080" lon="-8.6444080">
        <ele>23.0</ele>
        <time>2019-08-17T10:10:41Z</time>
      </trkpt>
      <trkpt lat="42.4311410" lon="-8.6444360">
        <ele>22.9</ele>
        <time>2019-08-17T10:10:42Z</time>
      </trkpt>
      <trkpt lat="42.4311720" lon="-8.6444650">
        <ele>22.8</ele>
        <time>2019-08-17T10:10:43Z</time>
      </trkpt>
      <trkpt lat="42.4312030" lon="-8.6444950">
        <ele>22.7</ele>
        <time>2019-08-17T10:10:44Z</time>
      </trkpt>
      <trkpt lat="42.4313510" lon="-8.6446550">
        <ele>22.3</ele>
        <time>2019-08-17T10:10:49Z</time>
      </trkpt>
      <trkpt lat="42.4313900" lon="-8.6447230">
        <ele>22.3</ele>
        <time>2019-08-17T10:10:54Z</time>
      </trkpt>
      <trkpt lat="42.4313970" lon="-8.6447950">
        <ele>22.3</ele>
        <time>2019-08-17T10:10:58Z</time>
      </trkpt>
      <trkpt lat="42.4314020" lon="-8.6448210">
        <ele>22.3</ele>
        <time>2019-08-17T10:10:59Z</time>
      </trkpt>
      <trkpt lat="42.4314070" lon="-8.6448500">
        <ele>22.3</ele>
        <time>2019-08-17T10:11:00Z</time>
      </trkpt>
      <trkpt lat="42.4314210" lon="-8.6448670">
        <ele>22.3</ele>
        <time>2019-08-17T10:11:01Z</time>
      </trkpt>
      <trkpt lat="42.4314320" lon="-8.6449010">
        <ele>22.2</ele>
        <time>2019-08-17T10:11:02Z</time>
      </trkpt>
      <trkpt lat="42.4314790" lon="-8.6449460">
        <ele>22.0</ele>
        <time>2019-08-17T10:11:05Z</time>
      </trkpt>
      <trkpt lat="42.4315770" lon="-8.6450010">
        <ele>21.5</ele>
        <time>2019-08-17T10:11:09Z</time>
      </trkpt>
      <trkpt lat="42.4316750" lon="-8.6450340">
        <ele>21.0</ele>
        <time>2019-08-17T10:11:15Z</time>
      </trkpt>
      <trkpt lat="42.4317300" lon="-8.6449930">
        <ele>20.6</ele>
        <time>2019-08-17T10:11:17Z</time>
      </trkpt>
      <trkpt lat="42.4317860" lon="-8.6450000">
        <ele>20.2</ele>
        <time>2019-08-17T10:11:20Z</time>
      </trkpt>
      <trkpt lat="42.4318040" lon="-8.6450060">
        <ele>20.1</ele>
        <time>2019-08-17T10:11:21Z</time>
      </trkpt>
      <trkpt lat="42.4319940" lon="-8.6450660">
        <ele>19.4</ele>
        <time>2019-08-17T10:11:26Z</time>
      </trkpt>
      <trkpt lat="42.4321190" lon="-8.6451120">
        <ele>18.8</ele>
        <time>2019-08-17T10:11:30Z</time>
      </trkpt>
      <trkpt lat="42.4321390" lon="-8.6451230">
        <ele>18.7</ele>
        <time>2019-08-17T10:11:31Z</time>
      </trkpt>
      <trkpt lat="42.4321560" lon="-8.6451280">
        <ele>18.6</ele>
        <time>2019-08-17T10:11:32Z</time>
      </trkpt>
      <trkpt lat="42.4321730" lon="-8.6451300">
        <ele>18.5</ele>
        <time>2019-08-17T10:11:33Z</time>
      </trkpt>
      <trkpt lat="42.4321930" lon="-8.6451350">
        <ele>18.4</ele>
        <time>2019-08-17T10:11:34Z</time>
      </trkpt>
      <trkpt lat="42.4322560" lon="-8.6451690">
        <ele>17.9</ele>
        <time>2019-08-17T10:11:37Z</time>
      </trkpt>
      <trkpt lat="42.4324210" lon="-8.6452060">
        <ele>17.2</ele>
        <time>2019-08-17T10:11:44Z</time>
      </trkpt>
      <trkpt lat="42.4324430" lon="-8.6452320">
        <ele>17.1</ele>
        <time>2019-08-17T10:11:45Z</time>
      </trkpt>
      <trkpt lat="42.4324750" lon="-8.6452720">
        <ele>17.0</ele>
        <time>2019-08-17T10:11:46Z</time>
      </trkpt>
      <trkpt lat="42.4325080" lon="-8.6453020">
        <ele>16.9</ele>
        <time>2019-08-17T10:11:47Z</time>
      </trkpt>
      <trkpt lat="42.4325290" lon="-8.6453050">
        <ele>16.8</ele>
        <time>2019-08-17T10:11:48Z</time>
      </trkpt>
      <trkpt lat="42.4325410" lon="-8.6453110">
        <ele>16.8</ele>
        <time>2019-08-17T10:11:49Z</time>
      </trkpt>
      <trkpt lat="42.4327600" lon="-8.6451570">
        <ele>16.4</ele>
        <time>2019-08-17T10:11:54Z</time>
      </trkpt>
      <trkpt lat="42.4329700" lon="-8.6451670">
        <ele>15.9</ele>
        <time>2019-08-17T10:12:00Z</time>
      </trkpt>
      <trkpt lat="42.4331060" lon="-8.6451690">
        <ele>15.4</ele>
        <time>2019-08-17T10:12:04Z</time>
      </trkpt>
      <trkpt lat="42.4331290" lon="-8.6451590">
        <ele>15.3</ele>
        <time>2019-08-17T10:12:05Z</time>
      </trkpt>
      <trkpt lat="42.4331560" lon="-8.6451650">
        <ele>15.1</ele>
        <time>2019-08-17T10:12:06Z</time>
      </trkpt>
      <trkpt lat="42.4331800" lon="-8.6451710">
        <ele>15.0</ele>
        <time>2019-08-17T10:12:07Z</time>
      </trkpt>
      <trkpt lat="42.4332020" lon="-8.6451580">
        <ele>14.9</ele>
        <time>2019-08-17T10:12:08Z</time>
      </trkpt>
      <trkpt lat="42.4333660" lon="-8.6451290">
        <ele>14.1</ele>
        <time>2019-08-17T10:12:13Z</time>
      </trkpt>
      <trkpt lat="42.4335030" lon="-8.6451120">
        <ele>13.4</ele>
        <time>2019-08-17T10:12:17Z</time>
      </trkpt>
      <trkpt lat="42.4335390" lon="-8.6451000">
        <ele>13.3</ele>
        <time>2019-08-17T10:12:18Z</time>
      </trkpt>
      <trkpt lat="42.4335660" lon="-8.6450960">
        <ele>13.2</ele>
        <time>2019-08-17T10:12:19Z</time>
      </trkpt>
      <trkpt lat="42.4335940" lon="-8.6450720">
        <ele>13.1</ele>
        <time>2019-08-17T10:12:20Z</time>
      </trkpt>
      <trkpt lat="42.4336120" lon="-8.6450610">
        <ele>13.0</ele>
        <time>2019-08-17T10:12:21Z</time>
      </trkpt>
      <trkpt lat="42.4337210" lon="-8.6450040">
        <ele>12.5</ele>
        <time>2019-08-17T10:12:27Z</time>
      </trkpt>
      <trkpt lat="42.4337520" lon="-8.6450060">
        <ele>12.3</ele>
        <time>2019-08-17T10:12:28Z</time>
      </trkpt>
      <trkpt lat="42.4339320" lon="-8.6450140">
        <ele>10.8</ele>
        <time>2019-08-17T10:12:32Z</time>
      </trkpt>
      <trkpt lat="42.4342590" lon="-8.6452140">
        <ele>7.8</ele>
        <time>2019-08-17T10:12:39Z</time>
      </trkpt>
      <trkpt lat="42.4342630" lon="-8.6452550">
        <ele>7.2</ele>
        <time>2019-08-17T10:12:40Z</time>
      </trkpt>
      <trkpt lat="42.4343300" lon="-8.6452630">
        <ele>7.2</ele>
        <time>2019-08-17T10:12:43Z</time>
      </trkpt>
      <trkpt lat="42.4344100" lon="-8.6451470">
        <ele>7.2</ele>
        <time>2019-08-17T10:12:48Z</time>
      </trkpt>
      <trkpt lat="42.4344280" lon="-8.6450790">
        <ele>7.2</ele>
        <time>2019-08-17T10:12:50Z</time>
      </trkpt>
      <trkpt lat="42.4344640" lon="-8.6449720">
        <ele>7.2</ele>
        <time>2019-08-17T10:12:52Z</time>
      </trkpt>
      <trkpt lat="42.4348400" lon="-8.6447890">
        <ele>4.3</ele>
        <time>2019-08-17T10:12:57Z</time>
      </trkpt>
      <trkpt lat="42.4349640" lon="-8.6446900">
        <ele>2.6</ele>
        <time>2019-08-17T10:13:03Z</time>
      </trkpt>
      <trkpt lat="42.4349990" lon="-8.6446440">
        <ele>2.8</ele>
        <time>2019-08-17T10:13:08Z</time>
      </trkpt>
      <trkpt lat="42.4350370" lon="-8.6446890">
        <ele>2.9</ele>
        <time>2019-08-17T10:13:20Z</time>
      </trkpt>
      <trkpt lat="42.4350920" lon="-8.6449810">
        <ele>3.6</ele>
        <time>2019-08-17T10:13:26Z</time>
      </trkpt>
      <trkpt lat="42.4351450" lon="-8.6452760">
        <ele>4.2</ele>
        <time>2019-08-17T10:13:32Z</time>
      </trkpt>
      <trkpt lat="42.4353120" lon="-8.6456140">
        <ele>4.9</ele>
        <time>2019-08-17T10:13:41Z</time>
      </trkpt>
      <trkpt lat="42.4353280" lon="-8.6456460">
        <ele>5.1</ele>
        <time>2019-08-17T10:13:42Z</time>
      </trkpt>
      <trkpt lat="42.4353460" lon="-8.6456640">
        <ele>5.1</ele>
        <time>2019-08-17T10:13:43Z</time>
      </trkpt>
      <trkpt lat="42.4353810" lon="-8.6456440">
        <ele>5.0</ele>
        <time>2019-08-17T10:13:44Z</time>
      </trkpt>
      <trkpt lat="42.4354100" lon="-8.6456300">
        <ele>5.0</ele>
        <time>2019-08-17T10:13:45Z</time>
      </trkpt>
      <trkpt lat="42.4356010" lon="-8.6456430">
        <ele>4.8</ele>
        <time>2019-08-17T10:13:53Z</time>
      </trkpt>
      <trkpt lat="42.4357050" lon="-8.6458530">
        <ele>4.6</ele>
        <time>2019-08-17T10:14:00Z</time>
      </trkpt>
      <trkpt lat="42.4357740" lon="-8.6460440">
        <ele>4.5</ele>
        <time>2019-08-17T10:14:05Z</time>
      </trkpt>
      <trkpt lat="42.4358650" lon="-8.6463450">
        <ele>4.4</ele>
        <time>2019-08-17T10:14:12Z</time>
      </trkpt>
      <trkpt lat="42.4359840" lon="-8.6467190">
        <ele>3.8</ele>
        <time>2019-08-17T10:14:21Z</time>
      </trkpt>
      <trkpt lat="42.4360490" lon="-8.6471520">
        <ele>4.3</ele>
        <time>2019-08-17T10:14:30Z</time>
      </trkpt>
      <trkpt lat="42.4360340" lon="-8.6475270">
        <ele>3.7</ele>
        <time>2019-08-17T10:14:38Z</time>
      </trkpt>
      <trkpt lat="42.4360380" lon="-8.6478750">
        <ele>2.8</ele>
        <time>2019-08-17T10:14:46Z</time>
      </trkpt>
      <trkpt lat="42.4360830" lon="-8.6479400">
        <ele>1.9</ele>
        <time>2019-08-17T10:14:48Z</time>
      </trkpt>
      <trkpt lat="42.4361070" lon="-8.6479670">
        <ele>1.6</ele>
        <time>2019-08-17T10:14:49Z</time>
      </trkpt>
      <trkpt lat="42.4361330" lon="-8.6479920">
        <ele>1.3</ele>
        <time>2019-08-17T10:14:50Z</time>
      </trkpt>
      <trkpt lat="42.4361600" lon="-8.6480120">
        <ele>1.0</ele>
        <time>2019-08-17T10:14:51Z</time>
      </trkpt>
      <trkpt lat="42.4361840" lon="-8.6480260">
        <ele>1.3</ele>
        <time>2019-08-17T10:14:52Z</time>
      </trkpt>
      <trkpt lat="42.4362850" lon="-8.6480760">
        <ele>1.6</ele>
        <time>2019-08-17T10:14:56Z</time>
      </trkpt>
      <trkpt lat="42.4364500" lon="-8.6481720">
        <ele>2.2</ele>
        <time>2019-08-17T10:15:02Z</time>
      </trkpt>
      <trkpt lat="42.4366280" lon="-8.6482240">
        <ele>2.7</ele>
        <time>2019-08-17T10:15:07Z</time>
      </trkpt>
      <trkpt lat="42.4367880" lon="-8.6482920">
        <ele>3.0</ele>
        <time>2019-08-17T10:15:12Z</time>
      </trkpt>
      <trkpt lat="42.4370800" lon="-8.6482830">
        <ele>3.9</ele>
        <time>2019-08-17T10:15:19Z</time>
      </trkpt>
      <trkpt lat="42.4371780" lon="-8.6480110">
        <ele>3.7</ele>
        <time>2019-08-17T10:15:25Z</time>
      </trkpt>
      <trkpt lat="42.4371690" lon="-8.6476440">
        <ele>2.0</ele>
        <time>2019-08-17T10:15:30Z</time>
      </trkpt>
      <trkpt lat="42.4371710" lon="-8.6474550">
        <ele>1.1</ele>
        <time>2019-08-17T10:15:33Z</time>
      </trkpt>
      <trkpt lat="42.4371760" lon="-8.6473430">
        <ele>1.1</ele>
        <time>2019-08-17T10:15:35Z</time>
      </trkpt>
      <trkpt lat="42.4372130" lon="-8.6470020">
        <ele>2.2</ele>
        <time>2019-08-17T10:15:42Z</time>
      </trkpt>
      <trkpt lat="42.4373290" lon="-8.6469260">
        <ele>2.6</ele>
        <time>2019-08-17T10:15:45Z</time>
      </trkpt>
      <trkpt lat="42.4375410" lon="-8.6467850">
        <ele>1.9</ele>
        <time>2019-08-17T10:15:50Z</time>
      </trkpt>
      <trkpt lat="42.4375830" lon="-8.6467700">
        <ele>1.8</ele>
        <time>2019-08-17T10:15:51Z</time>
      </trkpt>
      <trkpt lat="42.4377100" lon="-8.6467550">
        <ele>1.7</ele>
        <time>2019-08-17T10:15:54Z</time>
      </trkpt>
      <trkpt lat="42.4377540" lon="-8.6467520">
        <ele>1.7</ele>
        <time>2019-08-17T10:15:55Z</time>
      </trkpt>
      <trkpt lat="42.4377940" lon="-8.6467430">
        <ele>1.7</ele>
        <time>2019-08-17T10:15:56Z</time>
      </trkpt>
      <trkpt lat="42.4378310" lon="-8.6467400">
        <ele>1.7</ele>
        <time>2019-08-17T10:15:57Z</time>
      </trkpt>
      <trkpt lat="42.4378690" lon="-8.6467400">
        <ele>1.7</ele>
        <time>2019-08-17T10:15:58Z</time>
      </trkpt>
      <trkpt lat="42.4379190" lon="-8.6467280">
        <ele>1.7</ele>
        <time>2019-08-17T10:15:59Z</time>
      </trkpt>
      <trkpt lat="42.4381070" lon="-8.6467010">
        <ele>1.8</ele>
        <time>2019-08-17T10:16:03Z</time>
      </trkpt>
      <trkpt lat="42.4384360" lon="-8.6466950">
        <ele>1.8</ele>
        <time>2019-08-17T10:16:10Z</time>
      </trkpt>
      <trkpt lat="42.4388420" lon="-8.6467280">
        <ele>1.6</ele>
        <time>2019-08-17T10:16:19Z</time>
      </trkpt>
      <trkpt lat="42.4389570" lon="-8.6468030">
        <ele>1.6</ele>
        <time>2019-08-17T10:16:22Z</time>
      </trkpt>
      <trkpt lat="42.4390660" lon="-8.6468760">
        <ele>1.7</ele>
        <time>2019-08-17T10:16:25Z</time>
      </trkpt>
      <trkpt lat="42.4391110" lon="-8.6468940">
        <ele>1.7</ele>
        <time>2019-08-17T10:16:26Z</time>
      </trkpt>
      <trkpt lat="42.4393100" lon="-8.6469410">
        <ele>1.8</ele>
        <time>2019-08-17T10:16:30Z</time>
      </trkpt>
      <trkpt lat="42.4396840" lon="-8.6469050">
        <ele>1.9</ele>
        <time>2019-08-17T10:16:37Z</time>
      </trkpt>
      <trkpt lat="42.4401130" lon="-8.6468690">
        <ele>2.1</ele>
        <time>2019-08-17T10:16:45Z</time>
      </trkpt>
      <trkpt lat="42.4406180" lon="-8.6468300">
        <ele>2.2</ele>
        <time>2019-08-17T10:16:54Z</time>
      </trkpt>
      <trkpt lat="42.4410410" lon="-8.6467760">
        <ele>2.6</ele>
        <time>2019-08-17T10:17:02Z</time>
      </trkpt>
      <trkpt lat="42.4415650" lon="-8.6467390">
        <ele>2.6</ele>
        <time>2019-08-17T10:17:12Z</time>
      </trkpt>
      <trkpt lat="42.4418610" lon="-8.6467080">
        <ele>2.6</ele>
        <time>2019-08-17T10:17:18Z</time>
      </trkpt>
      <trkpt lat="42.4423000" lon="-8.6466820">
        <ele>2.6</ele>
        <time>2019-08-17T10:17:26Z</time>
      </trkpt>
      <trkpt lat="42.4426860" lon="-8.6466480">
        <ele>2.6</ele>
        <time>2019-08-17T10:17:33Z</time>
      </trkpt>
      <trkpt lat="42.4432100" lon="-8.6466070">
        <ele>2.7</ele>
        <time>2019-08-17T10:17:42Z</time>
      </trkpt>
      <trkpt lat="42.4436350" lon="-8.6465590">
        <ele>2.7</ele>
        <time>2019-08-17T10:17:50Z</time>
      </trkpt>
      <trkpt lat="42.4440840" lon="-8.6465120">
        <ele>2.6</ele>
        <time>2019-08-17T10:17:58Z</time>
      </trkpt>
      <trkpt lat="42.4445520" lon="-8.6464440">
        <ele>2.2</ele>
        <time>2019-08-17T10:18:07Z</time>
      </trkpt>
      <trkpt lat="42.4446950" lon="-8.6463690">
        <ele>2.0</ele>
        <time>2019-08-17T10:18:10Z</time>
      </trkpt>
      <trkpt lat="42.4448100" lon="-8.6462930">
        <ele>1.8</ele>
        <time>2019-08-17T10:18:13Z</time>
      </trkpt>
      <trkpt lat="42.4451250" lon="-8.6462340">
        <ele>1.0</ele>
        <time>2019-08-17T10:18:20Z</time>
      </trkpt>
      <trkpt lat="42.4454690" lon="-8.6461980">
        <ele>1.2</ele>
        <time>2019-08-17T10:18:28Z</time>
      </trkpt>
      <trkpt lat="42.4457080" lon="-8.6460710">
        <ele>1.5</ele>
        <time>2019-08-17T10:18:35Z</time>
      </trkpt>
      <trkpt lat="42.4457290" lon="-8.6458930">
        <ele>1.9</ele>
        <time>2019-08-17T10:18:38Z</time>
      </trkpt>
      <trkpt lat="42.4457300" lon="-8.6457760">
        <ele>2.2</ele>
        <time>2019-08-17T10:18:40Z</time>
      </trkpt>
      <trkpt lat="42.4457520" lon="-8.6456040">
        <ele>2.6</ele>
        <time>2019-08-17T10:18:43Z</time>
      </trkpt>
      <trkpt lat="42.4457770" lon="-8.6455470">
        <ele>2.6</ele>
        <time>2019-08-17T10:18:44Z</time>
      </trkpt>
      <trkpt lat="42.4459790" lon="-8.6453310">
        <ele>2.8</ele>
        <time>2019-08-17T10:18:49Z</time>
      </trkpt>
      <trkpt lat="42.4462040" lon="-8.6452610">
        <ele>3.0</ele>
        <time>2019-08-17T10:18:53Z</time>
      </trkpt>
      <trkpt lat="42.4462610" lon="-8.6452460">
        <ele>3.0</ele>
        <time>2019-08-17T10:18:54Z</time>
      </trkpt>
      <trkpt lat="42.4466990" lon="-8.6451310">
        <ele>3.2</ele>
        <time>2019-08-17T10:19:02Z</time>
      </trkpt>
      <trkpt lat="42.4471730" lon="-8.6449930">
        <ele>3.5</ele>
        <time>2019-08-17T10:19:11Z</time>
      </trkpt>
      <trkpt lat="42.4473220" lon="-8.6449540">
        <ele>3.6</ele>
        <time>2019-08-17T10:19:14Z</time>
      </trkpt>
      <trkpt lat="42.4473710" lon="-8.6449440">
        <ele>3.6</ele>
        <time>2019-08-17T10:19:15Z</time>
      </trkpt>
      <trkpt lat="42.4474170" lon="-8.6449330">
        <ele>3.6</ele>
        <time>2019-08-17T10:19:16Z</time>
      </trkpt>
      <trkpt lat="42.4474600" lon="-8.6449250">
        <ele>3.6</ele>
        <time>2019-08-17T10:19:17Z</time>
      </trkpt>
      <trkpt lat="42.4475120" lon="-8.6449190">
        <ele>3.7</ele>
        <time>2019-08-17T10:19:18Z</time>
      </trkpt>
      <trkpt lat="42.4476150" lon="-8.6449160">
        <ele>3.7</ele>
        <time>2019-08-17T10:19:20Z</time>
      </trkpt>
      <trkpt lat="42.4480700" lon="-8.6449030">
        <ele>3.6</ele>
        <time>2019-08-17T10:19:29Z</time>
      </trkpt>
      <trkpt lat="42.4484610" lon="-8.6448820">
        <ele>3.4</ele>
        <time>2019-08-17T10:19:37Z</time>
      </trkpt>
      <trkpt lat="42.4488340" lon="-8.6446990">
        <ele>3.2</ele>
        <time>2019-08-17T10:19:45Z</time>
      </trkpt>
      <trkpt lat="42.4488630" lon="-8.6446530">
        <ele>3.2</ele>
        <time>2019-08-17T10:19:46Z</time>
      </trkpt>
      <trkpt lat="42.4489280" lon="-8.6445810">
        <ele>3.1</ele>
        <time>2019-08-17T10:19:48Z</time>
      </trkpt>
      <trkpt lat="42.4489600" lon="-8.6445440">
        <ele>3.1</ele>
        <time>2019-08-17T10:19:49Z</time>
      </trkpt>
      <trkpt lat="42.4491450" lon="-8.6442870">
        <ele>2.9</ele>
        <time>2019-08-17T10:19:55Z</time>
      </trkpt>
      <trkpt lat="42.4492290" lon="-8.6441540">
        <ele>2.8</ele>
        <time>2019-08-17T10:19:58Z</time>
      </trkpt>
      <trkpt lat="42.4492800" lon="-8.6440300">
        <ele>2.8</ele>
        <time>2019-08-17T10:20:00Z</time>
      </trkpt>
      <trkpt lat="42.4493310" lon="-8.6438150">
        <ele>2.7</ele>
        <time>2019-08-17T10:20:03Z</time>
      </trkpt>
      <trkpt lat="42.4493530" lon="-8.6436690">
        <ele>2.6</ele>
        <time>2019-08-17T10:20:05Z</time>
      </trkpt>
      <trkpt lat="42.4494410" lon="-8.6432330">
        <ele>2.5</ele>
        <time>2019-08-17T10:20:12Z</time>
      </trkpt>
      <trkpt lat="42.4494850" lon="-8.6431540">
        <ele>2.4</ele>
        <time>2019-08-17T10:20:14Z</time>
      </trkpt>
      <trkpt lat="42.4495140" lon="-8.6431050">
        <ele>2.4</ele>
        <time>2019-08-17T10:20:15Z</time>
      </trkpt>
      <trkpt lat="42.4495330" lon="-8.6430440">
        <ele>2.3</ele>
        <time>2019-08-17T10:20:16Z</time>
      </trkpt>
      <trkpt lat="42.4495450" lon="-8.6429760">
        <ele>2.3</ele>
        <time>2019-08-17T10:20:17Z</time>
      </trkpt>
      <trkpt lat="42.4495550" lon="-8.6429080">
        <ele>2.3</ele>
        <time>2019-08-17T10:20:18Z</time>
      </trkpt>
      <trkpt lat="42.4496420" lon="-8.6425240">
        <ele>2.3</ele>
        <time>2019-08-17T10:20:24Z</time>
      </trkpt>
      <trkpt lat="42.4497070" lon="-8.6420920">
        <ele>2.2</ele>
        <time>2019-08-17T10:20:32Z</time>
      </trkpt>
      <trkpt lat="42.4499180" lon="-8.6418490">
        <ele>2.2</ele>
        <time>2019-08-17T10:20:39Z</time>
      </trkpt>
      <trkpt lat="42.4501260" lon="-8.6418230">
        <ele>2.2</ele>
        <time>2019-08-17T10:20:43Z</time>
      </trkpt>
      <trkpt lat="42.4501650" lon="-8.6418100">
        <ele>2.2</ele>
        <time>2019-08-17T10:20:44Z</time>
      </trkpt>
      <trkpt lat="42.4505600" lon="-8.6417080">
        <ele>2.2</ele>
        <time>2019-08-17T10:20:52Z</time>
      </trkpt>
      <trkpt lat="42.4507910" lon="-8.6416180">
        <ele>2.1</ele>
        <time>2019-08-17T10:20:58Z</time>
      </trkpt>
      <trkpt lat="42.4511700" lon="-8.6414930">
        <ele>2.5</ele>
        <time>2019-08-17T10:21:05Z</time>
      </trkpt>
      <trkpt lat="42.4513440" lon="-8.6414940">
        <ele>2.9</ele>
        <time>2019-08-17T10:21:08Z</time>
      </trkpt>
      <trkpt lat="42.4515020" lon="-8.6414840">
        <ele>3.4</ele>
        <time>2019-08-17T10:21:11Z</time>
      </trkpt>
      <trkpt lat="42.4517270" lon="-8.6414340">
        <ele>4.4</ele>
        <time>2019-08-17T10:21:15Z</time>
      </trkpt>
      <trkpt lat="42.4518280" lon="-8.6414530">
        <ele>4.7</ele>
        <time>2019-08-17T10:21:17Z</time>
      </trkpt>
      <trkpt lat="42.4519230" lon="-8.6414890">
        <ele>5.0</ele>
        <time>2019-08-17T10:21:19Z</time>
      </trkpt>
      <trkpt lat="42.4521870" lon="-8.6415930">
        <ele>5.3</ele>
        <time>2019-08-17T10:21:24Z</time>
      </trkpt>
      <trkpt lat="42.4525900" lon="-8.6417540">
        <ele>5.5</ele>
        <time>2019-08-17T10:21:32Z</time>
      </trkpt>
      <trkpt lat="42.4529300" lon="-8.6419100">
        <ele>6.1</ele>
        <time>2019-08-17T10:21:39Z</time>
      </trkpt>
      <trkpt lat="42.4529780" lon="-8.6419370">
        <ele>6.1</ele>
        <time>2019-08-17T10:21:40Z</time>
      </trkpt>
      <trkpt lat="42.4533960" lon="-8.6422280">
        <ele>6.9</ele>
        <time>2019-08-17T10:21:49Z</time>
      </trkpt>
      <trkpt lat="42.4534470" lon="-8.6422590">
        <ele>7.0</ele>
        <time>2019-08-17T10:21:50Z</time>
      </trkpt>
      <trkpt lat="42.4534970" lon="-8.6422820">
        <ele>7.1</ele>
        <time>2019-08-17T10:21:51Z</time>
      </trkpt>
      <trkpt lat="42.4535590" lon="-8.6423100">
        <ele>7.2</ele>
        <time>2019-08-17T10:21:52Z</time>
      </trkpt>
      <trkpt lat="42.4536160" lon="-8.6423360">
        <ele>7.2</ele>
        <time>2019-08-17T10:21:53Z</time>
      </trkpt>
      <trkpt lat="42.4537470" lon="-8.6424350">
        <ele>7.0</ele>
        <time>2019-08-17T10:21:56Z</time>
      </trkpt>
      <trkpt lat="42.4538830" lon="-8.6425360">
        <ele>6.6</ele>
        <time>2019-08-17T10:21:59Z</time>
      </trkpt>
      <trkpt lat="42.4540360" lon="-8.6426500">
        <ele>6.6</ele>
        <time>2019-08-17T10:22:02Z</time>
      </trkpt>
      <trkpt lat="42.4545400" lon="-8.6429690">
        <ele>7.2</ele>
        <time>2019-08-17T10:22:11Z</time>
      </trkpt>
      <trkpt lat="42.4550670" lon="-8.6433820">
        <ele>6.3</ele>
        <time>2019-08-17T10:22:20Z</time>
      </trkpt>
      <trkpt lat="42.4555710" lon="-8.6436720">
        <ele>5.7</ele>
        <time>2019-08-17T10:22:28Z</time>
      </trkpt>
      <trkpt lat="42.4560640" lon="-8.6439190">
        <ele>5.2</ele>
        <time>2019-08-17T10:22:36Z</time>
      </trkpt>
      <trkpt lat="42.4561920" lon="-8.6439930">
        <ele>5.4</ele>
        <time>2019-08-17T10:22:38Z</time>
      </trkpt>
      <trkpt lat="42.4563730" lon="-8.6441140">
        <ele>5.9</ele>
        <time>2019-08-17T10:22:41Z</time>
      </trkpt>
      <trkpt lat="42.4567430" lon="-8.6443470">
        <ele>7.2</ele>
        <time>2019-08-17T10:22:48Z</time>
      </trkpt>
      <trkpt lat="42.4568280" lon="-8.6443360">
        <ele>7.7</ele>
        <time>2019-08-17T10:22:50Z</time>
      </trkpt>
      <trkpt lat="42.4568640" lon="-8.6443190">
        <ele>7.9</ele>
        <time>2019-08-17T10:22:51Z</time>
      </trkpt>
      <trkpt lat="42.4570610" lon="-8.6441760">
        <ele>8.9</ele>
        <time>2019-08-17T10:22:56Z</time>
      </trkpt>
      <trkpt lat="42.4572290" lon="-8.6441750">
        <ele>9.6</ele>
        <time>2019-08-17T10:23:00Z</time>
      </trkpt>
      <trkpt lat="42.4572760" lon="-8.6441700">
        <ele>9.8</ele>
        <time>2019-08-17T10:23:01Z</time>
      </trkpt>
      <trkpt lat="42.4573490" lon="-8.6441540">
        <ele>10.4</ele>
        <time>2019-08-17T10:23:03Z</time>
      </trkpt>
      <trkpt lat="42.4573820" lon="-8.6441470">
        <ele>10.5</ele>
        <time>2019-08-17T10:23:04Z</time>
      </trkpt>
      <trkpt lat="42.4574120" lon="-8.6441460">
        <ele>10.6</ele>
        <time>2019-08-17T10:23:05Z</time>
      </trkpt>
      <trkpt lat="42.4574370" lon="-8.6441440">
        <ele>10.8</ele>
        <time>2019-08-17T10:23:06Z</time>
      </trkpt>
      <trkpt lat="42.4574580" lon="-8.6441380">
        <ele>10.9</ele>
        <time>2019-08-17T10:23:07Z</time>
      </trkpt>
      <trkpt lat="42.4575780" lon="-8.6441380">
        <ele>11.8</ele>
        <time>2019-08-17T10:23:11Z</time>
      </trkpt>
      <trkpt lat="42.4576140" lon="-8.6441360">
        <ele>12.1</ele>
        <time>2019-08-17T10:23:12Z</time>
      </trkpt>
      <trkpt lat="42.4576510" lon="-8.6441350">
        <ele>12.4</ele>
        <time>2019-08-17T10:23:13Z</time>
      </trkpt>
      <trkpt lat="42.4576810" lon="-8.6441350">
        <ele>12.7</ele>
        <time>2019-08-17T10:23:14Z</time>
      </trkpt>
      <trkpt lat="42.4577080" lon="-8.6441450">
        <ele>12.9</ele>
        <time>2019-08-17T10:23:15Z</time>
      </trkpt>
      <trkpt lat="42.4577780" lon="-8.6441500">
        <ele>13.6</ele>
        <time>2019-08-17T10:23:17Z</time>
      </trkpt>
      <trkpt lat="42.4578450" lon="-8.6441480">
        <ele>13.8</ele>
        <time>2019-08-17T10:23:19Z</time>
      </trkpt>
      <trkpt lat="42.4578690" lon="-8.6441550">
        <ele>13.9</ele>
        <time>2019-08-17T10:23:20Z</time>
      </trkpt>
      <trkpt lat="42.4578990" lon="-8.6441650">
        <ele>14.0</ele>
        <time>2019-08-17T10:23:21Z</time>
      </trkpt>
      <trkpt lat="42.4579230" lon="-8.6441740">
        <ele>14.1</ele>
        <time>2019-08-17T10:23:22Z</time>
      </trkpt>
      <trkpt lat="42.4579540" lon="-8.6441840">
        <ele>14.2</ele>
        <time>2019-08-17T10:23:23Z</time>
      </trkpt>
      <trkpt lat="42.4579850" lon="-8.6442050">
        <ele>14.3</ele>
        <time>2019-08-17T10:23:25Z</time>
      </trkpt>
      <trkpt lat="42.4581620" lon="-8.6442590">
        <ele>14.9</ele>
        <time>2019-08-17T10:23:32Z</time>
      </trkpt>
      <trkpt lat="42.4583700" lon="-8.6442900">
        <ele>15.7</ele>
        <time>2019-08-17T10:23:39Z</time>
      </trkpt>
      <trkpt lat="42.4583980" lon="-8.6442880">
        <ele>15.8</ele>
        <time>2019-08-17T10:23:40Z</time>
      </trkpt>
      <trkpt lat="42.4584260" lon="-8.6442860">
        <ele>15.9</ele>
        <time>2019-08-17T10:23:41Z</time>
      </trkpt>
      <trkpt lat="42.4584530" lon="-8.6442870">
        <ele>16.0</ele>
        <time>2019-08-17T10:23:42Z</time>
      </trkpt>
      <trkpt lat="42.4584790" lon="-8.6442920">
        <ele>16.1</ele>
        <time>2019-08-17T10:23:43Z</time>
      </trkpt>
      <trkpt lat="42.4585020" lon="-8.6442940">
        <ele>16.2</ele>
        <time>2019-08-17T10:23:44Z</time>
      </trkpt>
      <trkpt lat="42.4585780" lon="-8.6442890">
        <ele>16.5</ele>
        <time>2019-08-17T10:23:47Z</time>
      </trkpt>
      <trkpt lat="42.4587690" lon="-8.6443050">
        <ele>17.4</ele>
        <time>2019-08-17T10:23:54Z</time>
      </trkpt>
      <trkpt lat="42.4587970" lon="-8.6443090">
        <ele>17.5</ele>
        <time>2019-08-17T10:23:55Z</time>
      </trkpt>
      <trkpt lat="42.4588240" lon="-8.6443200">
        <ele>17.6</ele>
        <time>2019-08-17T10:23:56Z</time>
      </trkpt>
      <trkpt lat="42.4588490" lon="-8.6443250">
        <ele>17.7</ele>
        <time>2019-08-17T10:23:57Z</time>
      </trkpt>
      <trkpt lat="42.4588740" lon="-8.6443290">
        <ele>17.8</ele>
        <time>2019-08-17T10:23:58Z</time>
      </trkpt>
      <trkpt lat="42.4589560" lon="-8.6443430">
        <ele>18.1</ele>
        <time>2019-08-17T10:24:01Z</time>
      </trkpt>
      <trkpt lat="42.4589810" lon="-8.6443540">
        <ele>18.2</ele>
        <time>2019-08-17T10:24:02Z</time>
      </trkpt>
      <trkpt lat="42.4590120" lon="-8.6443650">
        <ele>18.3</ele>
        <time>2019-08-17T10:24:03Z</time>
      </trkpt>
      <trkpt lat="42.4590610" lon="-8.6443830">
        <ele>18.5</ele>
        <time>2019-08-17T10:24:05Z</time>
      </trkpt>
      <trkpt lat="42.4590870" lon="-8.6443880">
        <ele>18.5</ele>
        <time>2019-08-17T10:24:06Z</time>
      </trkpt>
      <trkpt lat="42.4591140" lon="-8.6443910">
        <ele>18.6</ele>
        <time>2019-08-17T10:24:07Z</time>
      </trkpt>
      <trkpt lat="42.4591400" lon="-8.6443940">
        <ele>18.6</ele>
        <time>2019-08-17T10:24:08Z</time>
      </trkpt>
      <trkpt lat="42.4593110" lon="-8.6444430">
        <ele>18.9</ele>
        <time>2019-08-17T10:24:15Z</time>
      </trkpt>
      <trkpt lat="42.4595490" lon="-8.6445100">
        <ele>18.6</ele>
        <time>2019-08-17T10:24:22Z</time>
      </trkpt>
      <trkpt lat="42.4596850" lon="-8.6445560">
        <ele>18.2</ele>
        <time>2019-08-17T10:24:25Z</time>
      </trkpt>
      <trkpt lat="42.4598060" lon="-8.6446030">
        <ele>17.7</ele>
        <time>2019-08-17T10:24:27Z</time>
      </trkpt>
      <trkpt lat="42.4599360" lon="-8.6446530">
        <ele>17.1</ele>
        <time>2019-08-17T10:24:29Z</time>
      </trkpt>
      <trkpt lat="42.4600780" lon="-8.6446840">
        <ele>16.5</ele>
        <time>2019-08-17T10:24:31Z</time>
      </trkpt>
      <trkpt lat="42.4601590" lon="-8.6446760">
        <ele>16.2</ele>
        <time>2019-08-17T10:24:32Z</time>
      </trkpt>
      <trkpt lat="42.4603230" lon="-8.6446530">
        <ele>15.5</ele>
        <time>2019-08-17T10:24:34Z</time>
      </trkpt>
      <trkpt lat="42.4604780" lon="-8.6446470">
        <ele>14.9</ele>
        <time>2019-08-17T10:24:36Z</time>
      </trkpt>
      <trkpt lat="42.4605410" lon="-8.6446450">
        <ele>14.7</ele>
        <time>2019-08-17T10:24:37Z</time>
      </trkpt>
      <trkpt lat="42.4606090" lon="-8.6446410">
        <ele>14.4</ele>
        <time>2019-08-17T10:24:38Z</time>
      </trkpt>
      <trkpt lat="42.4606800" lon="-8.6446330">
        <ele>14.2</ele>
        <time>2019-08-17T10:24:39Z</time>
      </trkpt>
      <trkpt lat="42.4607390" lon="-8.6445960">
        <ele>14.0</ele>
        <time>2019-08-17T10:24:40Z</time>
      </trkpt>
      <trkpt lat="42.4608520" lon="-8.6444890">
        <ele>13.6</ele>
        <time>2019-08-17T10:24:42Z</time>
      </trkpt>
      <trkpt lat="42.4611410" lon="-8.6442330">
        <ele>13.0</ele>
        <time>2019-08-17T10:24:48Z</time>
      </trkpt>
      <trkpt lat="42.4611920" lon="-8.6442120">
        <ele>13.0</ele>
        <time>2019-08-17T10:24:49Z</time>
      </trkpt>
      <trkpt lat="42.4613220" lon="-8.6441580">
        <ele>13.1</ele>
        <time>2019-08-17T10:24:52Z</time>
      </trkpt>
      <trkpt lat="42.4615440" lon="-8.6440600">
        <ele>13.5</ele>
        <time>2019-08-17T10:24:59Z</time>
      </trkpt>
      <trkpt lat="42.4616680" lon="-8.6439790">
        <ele>14.0</ele>
        <time>2019-08-17T10:25:05Z</time>
      </trkpt>
      <trkpt lat="42.4616860" lon="-8.6439740">
        <ele>14.1</ele>
        <time>2019-08-17T10:25:06Z</time>
      </trkpt>
      <trkpt lat="42.4617110" lon="-8.6439710">
        <ele>14.2</ele>
        <time>2019-08-17T10:25:07Z</time>
      </trkpt>
      <trkpt lat="42.4617350" lon="-8.6439670">
        <ele>14.4</ele>
        <time>2019-08-17T10:25:08Z</time>
      </trkpt>
      <trkpt lat="42.4617570" lon="-8.6439700">
        <ele>14.5</ele>
        <time>2019-08-17T10:25:09Z</time>
      </trkpt>
      <trkpt lat="42.4617790" lon="-8.6439890">
        <ele>14.7</ele>
        <time>2019-08-17T10:25:10Z</time>
      </trkpt>
      <trkpt lat="42.4618160" lon="-8.6440290">
        <ele>15.0</ele>
        <time>2019-08-17T10:25:12Z</time>
      </trkpt>
      <trkpt lat="42.4619280" lon="-8.6441220">
        <ele>15.8</ele>
        <time>2019-08-17T10:25:17Z</time>
      </trkpt>
      <trkpt lat="42.4619550" lon="-8.6441410">
        <ele>16.0</ele>
        <time>2019-08-17T10:25:18Z</time>
      </trkpt>
      <trkpt lat="42.4619850" lon="-8.6441610">
        <ele>16.3</ele>
        <time>2019-08-17T10:25:19Z</time>
      </trkpt>
      <trkpt lat="42.4620110" lon="-8.6441740">
        <ele>16.5</ele>
        <time>2019-08-17T10:25:20Z</time>
      </trkpt>
      <trkpt lat="42.4620470" lon="-8.6442140">
        <ele>16.9</ele>
        <time>2019-08-17T10:25:21Z</time>
      </trkpt>
      <trkpt lat="42.4621980" lon="-8.6442810">
        <ele>18.1</ele>
        <time>2019-08-17T10:25:27Z</time>
      </trkpt>
      <trkpt lat="42.4622170" lon="-8.6442890">
        <ele>18.3</ele>
        <time>2019-08-17T10:25:28Z</time>
      </trkpt>
      <trkpt lat="42.4622390" lon="-8.6442980">
        <ele>18.5</ele>
        <time>2019-08-17T10:25:29Z</time>
      </trkpt>
      <trkpt lat="42.4622580" lon="-8.6443070">
        <ele>18.6</ele>
        <time>2019-08-17T10:25:30Z</time>
      </trkpt>
      <trkpt lat="42.4622740" lon="-8.6443120">
        <ele>18.8</ele>
        <time>2019-08-17T10:25:31Z</time>
      </trkpt>
      <trkpt lat="42.4623580" lon="-8.6443340">
        <ele>19.5</ele>
        <time>2019-08-17T10:25:35Z</time>
      </trkpt>
      <trkpt lat="42.4623830" lon="-8.6443360">
        <ele>19.7</ele>
        <time>2019-08-17T10:25:36Z</time>
      </trkpt>
      <trkpt lat="42.4624060" lon="-8.6443400">
        <ele>19.8</ele>
        <time>2019-08-17T10:25:37Z</time>
      </trkpt>
      <trkpt lat="42.4624310" lon="-8.6443410">
        <ele>20.0</ele>
        <time>2019-08-17T10:25:38Z</time>
      </trkpt>
      <trkpt lat="42.4624520" lon="-8.6443440">
        <ele>20.2</ele>
        <time>2019-08-17T10:25:39Z</time>
      </trkpt>
      <trkpt lat="42.4625760" lon="-8.6443430">
        <ele>21.2</ele>
        <time>2019-08-17T10:25:44Z</time>
      </trkpt>
      <trkpt lat="42.4626450" lon="-8.6443320">
        <ele>21.7</ele>
        <time>2019-08-17T10:25:47Z</time>
      </trkpt>
      <trkpt lat="42.4626690" lon="-8.6443280">
        <ele>21.9</ele>
        <time>2019-08-17T10:25:48Z</time>
      </trkpt>
      <trkpt lat="42.4626920" lon="-8.6443250">
        <ele>22.0</ele>
        <time>2019-08-17T10:25:49Z</time>
      </trkpt>
      <trkpt lat="42.4627130" lon="-8.6443250">
        <ele>22.2</ele>
        <time>2019-08-17T10:25:50Z</time>
      </trkpt>
      <trkpt lat="42.4627340" lon="-8.6443300">
        <ele>22.3</ele>
        <time>2019-08-17T10:25:51Z</time>
      </trkpt>
      <trkpt lat="42.4627960" lon="-8.6443340">
        <ele>22.8</ele>
        <time>2019-08-17T10:25:53Z</time>
      </trkpt>
      <trkpt lat="42.4629730" lon="-8.6443280">
        <ele>24.0</ele>
        <time>2019-08-17T10:26:00Z</time>
      </trkpt>
      <trkpt lat="42.4630500" lon="-8.6443270">
        <ele>24.5</ele>
        <time>2019-08-17T10:26:03Z</time>
      </trkpt>
      <trkpt lat="42.4630760" lon="-8.6443280">
        <ele>24.7</ele>
        <time>2019-08-17T10:26:04Z</time>
      </trkpt>
      <trkpt lat="42.4631050" lon="-8.6443260">
        <ele>24.9</ele>
        <time>2019-08-17T10:26:05Z</time>
      </trkpt>
      <trkpt lat="42.4631320" lon="-8.6443240">
        <ele>25.1</ele>
        <time>2019-08-17T10:26:06Z</time>
      </trkpt>
      <trkpt lat="42.4631590" lon="-8.6443240">
        <ele>25.3</ele>
        <time>2019-08-17T10:26:07Z</time>
      </trkpt>
      <trkpt lat="42.4632120" lon="-8.6443210">
        <ele>25.6</ele>
        <time>2019-08-17T10:26:09Z</time>
      </trkpt>
      <trkpt lat="42.4632900" lon="-8.6443230">
        <ele>26.2</ele>
        <time>2019-08-17T10:26:12Z</time>
      </trkpt>
      <trkpt lat="42.4633170" lon="-8.6443190">
        <ele>26.4</ele>
        <time>2019-08-17T10:26:13Z</time>
      </trkpt>
      <trkpt lat="42.4633440" lon="-8.6443130">
        <ele>26.6</ele>
        <time>2019-08-17T10:26:14Z</time>
      </trkpt>
      <trkpt lat="42.4633690" lon="-8.6443080">
        <ele>26.8</ele>
        <time>2019-08-17T10:26:15Z</time>
      </trkpt>
      <trkpt lat="42.4633920" lon="-8.6443050">
        <ele>26.9</ele>
        <time>2019-08-17T10:26:16Z</time>
      </trkpt>
      <trkpt lat="42.4635470" lon="-8.6442880">
        <ele>28.1</ele>
        <time>2019-08-17T10:26:23Z</time>
      </trkpt>
      <trkpt lat="42.4635630" lon="-8.6442790">
        <ele>28.3</ele>
        <time>2019-08-17T10:26:24Z</time>
      </trkpt>
      <trkpt lat="42.4635890" lon="-8.6442710">
        <ele>28.5</ele>
        <time>2019-08-17T10:26:25Z</time>
      </trkpt>
      <trkpt lat="42.4636150" lon="-8.6442780">
        <ele>28.7</ele>
        <time>2019-08-17T10:26:26Z</time>
      </trkpt>
      <trkpt lat="42.4636430" lon="-8.6442840">
        <ele>28.9</ele>
        <time>2019-08-17T10:26:27Z</time>
      </trkpt>
      <trkpt lat="42.4637120" lon="-8.6443270">
        <ele>29.4</ele>
        <time>2019-08-17T10:26:30Z</time>
      </trkpt>
      <trkpt lat="42.4638150" lon="-8.6444170">
        <ele>30.1</ele>
        <time>2019-08-17T10:26:35Z</time>
      </trkpt>
      <trkpt lat="42.4638340" lon="-8.6444360">
        <ele>30.2</ele>
        <time>2019-08-17T10:26:36Z</time>
      </trkpt>
      <trkpt lat="42.4638510" lon="-8.6444560">
        <ele>30.3</ele>
        <time>2019-08-17T10:26:37Z</time>
      </trkpt>
      <trkpt lat="42.4638630" lon="-8.6444770">
        <ele>30.5</ele>
        <time>2019-08-17T10:26:38Z</time>
      </trkpt>
      <trkpt lat="42.4638770" lon="-8.6444980">
        <ele>30.6</ele>
        <time>2019-08-17T10:26:39Z</time>
      </trkpt>
      <trkpt lat="42.4639410" lon="-8.6446050">
        <ele>31.1</ele>
        <time>2019-08-17T10:26:45Z</time>
      </trkpt>
      <trkpt lat="42.4639480" lon="-8.6446200">
        <ele>31.1</ele>
        <time>2019-08-17T10:26:46Z</time>
      </trkpt>
      <trkpt lat="42.4639580" lon="-8.6446370">
        <ele>31.2</ele>
        <time>2019-08-17T10:26:47Z</time>
      </trkpt>
      <trkpt lat="42.4639640" lon="-8.6446520">
        <ele>31.2</ele>
        <time>2019-08-17T10:26:48Z</time>
      </trkpt>
      <trkpt lat="42.4639730" lon="-8.6446640">
        <ele>31.3</ele>
        <time>2019-08-17T10:26:49Z</time>
      </trkpt>
      <trkpt lat="42.4639810" lon="-8.6446770">
        <ele>31.3</ele>
        <time>2019-08-17T10:26:50Z</time>
      </trkpt>
      <trkpt lat="42.4640140" lon="-8.6447710">
        <ele>31.4</ele>
        <time>2019-08-17T10:26:55Z</time>
      </trkpt>
      <trkpt lat="42.4640280" lon="-8.6448420">
        <ele>31.4</ele>
        <time>2019-08-17T10:26:58Z</time>
      </trkpt>
      <trkpt lat="42.4640320" lon="-8.6448690">
        <ele>31.4</ele>
        <time>2019-08-17T10:26:59Z</time>
      </trkpt>
      <trkpt lat="42.4640370" lon="-8.6449040">
        <ele>31.4</ele>
        <time>2019-08-17T10:27:00Z</time>
      </trkpt>
      <trkpt lat="42.4640420" lon="-8.6449380">
        <ele>31.4</ele>
        <time>2019-08-17T10:27:01Z</time>
      </trkpt>
      <trkpt lat="42.4640520" lon="-8.6449710">
        <ele>31.4</ele>
        <time>2019-08-17T10:27:02Z</time>
      </trkpt>
      <trkpt lat="42.4640690" lon="-8.6450570">
        <ele>31.4</ele>
        <time>2019-08-17T10:27:04Z</time>
      </trkpt>
      <trkpt lat="42.4640760" lon="-8.6451080">
        <ele>31.4</ele>
        <time>2019-08-17T10:27:05Z</time>
      </trkpt>
      <trkpt lat="42.4640860" lon="-8.6451550">
        <ele>31.4</ele>
        <time>2019-08-17T10:27:06Z</time>
      </trkpt>
      <trkpt lat="42.4640950" lon="-8.6451980">
        <ele>31.3</ele>
        <time>2019-08-17T10:27:07Z</time>
      </trkpt>
      <trkpt lat="42.4641100" lon="-8.6452460">
        <ele>31.3</ele>
        <time>2019-08-17T10:27:08Z</time>
      </trkpt>
      <trkpt lat="42.4641240" lon="-8.6452980">
        <ele>31.3</ele>
        <time>2019-08-17T10:27:09Z</time>
      </trkpt>
      <trkpt lat="42.4641390" lon="-8.6453510">
        <ele>31.3</ele>
        <time>2019-08-17T10:27:10Z</time>
      </trkpt>
      <trkpt lat="42.4641550" lon="-8.6454070">
        <ele>31.2</ele>
        <time>2019-08-17T10:27:11Z</time>
      </trkpt>
      <trkpt lat="42.4641720" lon="-8.6454620">
        <ele>31.1</ele>
        <time>2019-08-17T10:27:12Z</time>
      </trkpt>
      <trkpt lat="42.4641890" lon="-8.6455170">
        <ele>31.0</ele>
        <time>2019-08-17T10:27:13Z</time>
      </trkpt>
      <trkpt lat="42.4642020" lon="-8.6455710">
        <ele>31.0</ele>
        <time>2019-08-17T10:27:14Z</time>
      </trkpt>
      <trkpt lat="42.4642190" lon="-8.6456260">
        <ele>30.8</ele>
        <time>2019-08-17T10:27:15Z</time>
      </trkpt>
      <trkpt lat="42.4642390" lon="-8.6456790">
        <ele>30.5</ele>
        <time>2019-08-17T10:27:16Z</time>
      </trkpt>
      <trkpt lat="42.4642620" lon="-8.6457320">
        <ele>30.2</ele>
        <time>2019-08-17T10:27:17Z</time>
      </trkpt>
      <trkpt lat="42.4642940" lon="-8.6457800">
        <ele>29.9</ele>
        <time>2019-08-17T10:27:18Z</time>
      </trkpt>
      <trkpt lat="42.4643240" lon="-8.6458190">
        <ele>29.6</ele>
        <time>2019-08-17T10:27:19Z</time>
      </trkpt>
      <trkpt lat="42.4643600" lon="-8.6458530">
        <ele>29.3</ele>
        <time>2019-08-17T10:27:20Z</time>
      </trkpt>
      <trkpt lat="42.4643970" lon="-8.6458880">
        <ele>29.0</ele>
        <time>2019-08-17T10:27:21Z</time>
      </trkpt>
      <trkpt lat="42.4644380" lon="-8.6459130">
        <ele>28.6</ele>
        <time>2019-08-17T10:27:22Z</time>
      </trkpt>
      <trkpt lat="42.4644760" lon="-8.6459420">
        <ele>28.3</ele>
        <time>2019-08-17T10:27:23Z</time>
      </trkpt>
      <trkpt lat="42.4645130" lon="-8.6459670">
        <ele>27.9</ele>
        <time>2019-08-17T10:27:24Z</time>
      </trkpt>
      <trkpt lat="42.4645610" lon="-8.6459990">
        <ele>27.3</ele>
        <time>2019-08-17T10:27:25Z</time>
      </trkpt>
      <trkpt lat="42.4646010" lon="-8.6460240">
        <ele>26.7</ele>
        <time>2019-08-17T10:27:26Z</time>
      </trkpt>
      <trkpt lat="42.4646380" lon="-8.6460450">
        <ele>26.1</ele>
        <time>2019-08-17T10:27:27Z</time>
      </trkpt>
      <trkpt lat="42.4646700" lon="-8.6460590">
        <ele>25.6</ele>
        <time>2019-08-17T10:27:28Z</time>
      </trkpt>
      <trkpt lat="42.4647070" lon="-8.6460640">
        <ele>24.9</ele>
        <time>2019-08-17T10:27:29Z</time>
      </trkpt>
      <trkpt lat="42.4647360" lon="-8.6460610">
        <ele>24.3</ele>
        <time>2019-08-17T10:27:30Z</time>
      </trkpt>
      <trkpt lat="42.4647640" lon="-8.6460570">
        <ele>23.7</ele>
        <time>2019-08-17T10:27:31Z</time>
      </trkpt>
      <trkpt lat="42.4647900" lon="-8.6460600">
        <ele>23.0</ele>
        <time>2019-08-17T10:27:32Z</time>
      </trkpt>
      <trkpt lat="42.4648110" lon="-8.6460640">
        <ele>22.5</ele>
        <time>2019-08-17T10:27:33Z</time>
      </trkpt>
      <trkpt lat="42.4648220" lon="-8.6460690">
        <ele>22.2</ele>
        <time>2019-08-17T10:27:34Z</time>
      </trkpt>
      <trkpt lat="42.4648220" lon="-8.6460720">
        <ele>22.1</ele>
        <time>2019-08-17T10:27:35Z</time>
      </trkpt>
      <trkpt lat="42.4648700" lon="-8.6461160">
        <ele>20.8</ele>
        <time>2019-08-17T10:27:41Z</time>
      </trkpt>
      <trkpt lat="42.4649710" lon="-8.6462770">
        <ele>19.1</ele>
        <time>2019-08-17T10:27:46Z</time>
      </trkpt>
      <trkpt lat="42.4649860" lon="-8.6465490">
        <ele>18.2</ele>
        <time>2019-08-17T10:27:51Z</time>
      </trkpt>
      <trkpt lat="42.4649960" lon="-8.6466020">
        <ele>18.1</ele>
        <time>2019-08-17T10:27:52Z</time>
      </trkpt>
      <trkpt lat="42.4650040" lon="-8.6466550">
        <ele>18.0</ele>
        <time>2019-08-17T10:27:53Z</time>
      </trkpt>
      <trkpt lat="42.4650240" lon="-8.6467080">
        <ele>17.9</ele>
        <time>2019-08-17T10:27:54Z</time>
      </trkpt>
      <trkpt lat="42.4650420" lon="-8.6467560">
        <ele>17.8</ele>
        <time>2019-08-17T10:27:55Z</time>
      </trkpt>
      <trkpt lat="42.4651470" lon="-8.6469960">
        <ele>17.3</ele>
        <time>2019-08-17T10:28:00Z</time>
      </trkpt>
      <trkpt lat="42.4653570" lon="-8.6473040">
        <ele>16.8</ele>
        <time>2019-08-17T10:28:08Z</time>
      </trkpt>
      <trkpt lat="42.4656250" lon="-8.6475320">
        <ele>16.4</ele>
        <time>2019-08-17T10:28:15Z</time>
      </trkpt>
      <trkpt lat="42.4659200" lon="-8.6477720">
        <ele>16.1</ele>
        <time>2019-08-17T10:28:23Z</time>
      </trkpt>
      <trkpt lat="42.4661060" lon="-8.6479440">
        <ele>16.1</ele>
        <time>2019-08-17T10:28:28Z</time>
      </trkpt>
      <trkpt lat="42.4662400" lon="-8.6480260">
        <ele>16.1</ele>
        <time>2019-08-17T10:28:31Z</time>
      </trkpt>
      <trkpt lat="42.4665710" lon="-8.6481790">
        <ele>16.1</ele>
        <time>2019-08-17T10:28:38Z</time>
      </trkpt>
      <trkpt lat="42.4670320" lon="-8.6483510">
        <ele>16.2</ele>
        <time>2019-08-17T10:28:47Z</time>
      </trkpt>
      <trkpt lat="42.4672030" lon="-8.6483540">
        <ele>16.2</ele>
        <time>2019-08-17T10:28:50Z</time>
      </trkpt>
      <trkpt lat="42.4673240" lon="-8.6483320">
        <ele>16.2</ele>
        <time>2019-08-17T10:28:52Z</time>
      </trkpt>
      <trkpt lat="42.4677510" lon="-8.6482000">
        <ele>16.5</ele>
        <time>2019-08-17T10:28:59Z</time>
      </trkpt>
      <trkpt lat="42.4678800" lon="-8.6481920">
        <ele>16.6</ele>
        <time>2019-08-17T10:29:01Z</time>
      </trkpt>
      <trkpt lat="42.4680750" lon="-8.6482070">
        <ele>16.8</ele>
        <time>2019-08-17T10:29:04Z</time>
      </trkpt>
      <trkpt lat="42.4684000" lon="-8.6482420">
        <ele>17.1</ele>
        <time>2019-08-17T10:29:10Z</time>
      </trkpt>
      <trkpt lat="42.4688070" lon="-8.6482420">
        <ele>17.5</ele>
        <time>2019-08-17T10:29:18Z</time>
      </trkpt>
      <trkpt lat="42.4689580" lon="-8.6482660">
        <ele>17.6</ele>
        <time>2019-08-17T10:29:21Z</time>
      </trkpt>
      <trkpt lat="42.4691090" lon="-8.6483160">
        <ele>18.0</ele>
        <time>2019-08-17T10:29:24Z</time>
      </trkpt>
      <trkpt lat="42.4693240" lon="-8.6483870">
        <ele>20.2</ele>
        <time>2019-08-17T10:29:28Z</time>
      </trkpt>
      <trkpt lat="42.4694270" lon="-8.6483580">
        <ele>21.0</ele>
        <time>2019-08-17T10:29:30Z</time>
      </trkpt>
      <trkpt lat="42.4695050" lon="-8.6483620">
        <ele>21.4</ele>
        <time>2019-08-17T10:29:32Z</time>
      </trkpt>
      <trkpt lat="42.4696120" lon="-8.6483680">
        <ele>22.0</ele>
        <time>2019-08-17T10:29:35Z</time>
      </trkpt>
      <trkpt lat="42.4698150" lon="-8.6484210">
        <ele>23.4</ele>
        <time>2019-08-17T10:29:41Z</time>
      </trkpt>
      <trkpt lat="42.4698900" lon="-8.6484430">
        <ele>23.8</ele>
        <time>2019-08-17T10:29:43Z</time>
      </trkpt>
      <trkpt lat="42.4699290" lon="-8.6484310">
        <ele>23.9</ele>
        <time>2019-08-17T10:29:44Z</time>
      </trkpt>
      <trkpt lat="42.4699690" lon="-8.6484280">
        <ele>24.1</ele>
        <time>2019-08-17T10:29:45Z</time>
      </trkpt>
      <trkpt lat="42.4700080" lon="-8.6484270">
        <ele>24.3</ele>
        <time>2019-08-17T10:29:46Z</time>
      </trkpt>
      <trkpt lat="42.4700460" lon="-8.6484340">
        <ele>24.5</ele>
        <time>2019-08-17T10:29:47Z</time>
      </trkpt>
      <trkpt lat="42.4703420" lon="-8.6484440">
        <ele>26.0</ele>
        <time>2019-08-17T10:29:55Z</time>
      </trkpt>
      <trkpt lat="42.4703780" lon="-8.6484430">
        <ele>26.2</ele>
        <time>2019-08-17T10:29:56Z</time>
      </trkpt>
      <trkpt lat="42.4704130" lon="-8.6484450">
        <ele>26.3</ele>
        <time>2019-08-17T10:29:57Z</time>
      </trkpt>
      <trkpt lat="42.4704470" lon="-8.6484450">
        <ele>26.4</ele>
        <time>2019-08-17T10:29:58Z</time>
      </trkpt>
      <trkpt lat="42.4704820" lon="-8.6484430">
        <ele>26.5</ele>
        <time>2019-08-17T10:29:59Z</time>
      </trkpt>
      <trkpt lat="42.4705200" lon="-8.6484430">
        <ele>26.6</ele>
        <time>2019-08-17T10:30:00Z</time>
      </trkpt>
      <trkpt lat="42.4706560" lon="-8.6484400">
        <ele>27.0</ele>
        <time>2019-08-17T10:30:04Z</time>
      </trkpt>
      <trkpt lat="42.4708580" lon="-8.6484410">
        <ele>27.6</ele>
        <time>2019-08-17T10:30:10Z</time>
      </trkpt>
      <trkpt lat="42.4708890" lon="-8.6484380">
        <ele>27.6</ele>
        <time>2019-08-17T10:30:11Z</time>
      </trkpt>
      <trkpt lat="42.4709210" lon="-8.6484310">
        <ele>27.6</ele>
        <time>2019-08-17T10:30:12Z</time>
      </trkpt>
      <trkpt lat="42.4709530" lon="-8.6484190">
        <ele>27.7</ele>
        <time>2019-08-17T10:30:13Z</time>
      </trkpt>
      <trkpt lat="42.4709850" lon="-8.6484090">
        <ele>27.7</ele>
        <time>2019-08-17T10:30:14Z</time>
      </trkpt>
      <trkpt lat="42.4711160" lon="-8.6483850">
        <ele>27.8</ele>
        <time>2019-08-17T10:30:18Z</time>
      </trkpt>
      <trkpt lat="42.4711430" lon="-8.6483790">
        <ele>27.9</ele>
        <time>2019-08-17T10:30:19Z</time>
      </trkpt>
      <trkpt lat="42.4711710" lon="-8.6483710">
        <ele>27.9</ele>
        <time>2019-08-17T10:30:20Z</time>
      </trkpt>
      <trkpt lat="42.4711930" lon="-8.6483630">
        <ele>27.9</ele>
        <time>2019-08-17T10:30:21Z</time>
      </trkpt>
      <trkpt lat="42.4712140" lon="-8.6483550">
        <ele>27.9</ele>
        <time>2019-08-17T10:30:22Z</time>
      </trkpt>
      <trkpt lat="42.4713050" lon="-8.6483250">
        <ele>28.1</ele>
        <time>2019-08-17T10:30:26Z</time>
      </trkpt>
      <trkpt lat="42.4713240" lon="-8.6483360">
        <ele>28.3</ele>
        <time>2019-08-17T10:30:27Z</time>
      </trkpt>
      <trkpt lat="42.4713420" lon="-8.6483500">
        <ele>28.4</ele>
        <time>2019-08-17T10:30:28Z</time>
      </trkpt>
      <trkpt lat="42.4713570" lon="-8.6483650">
        <ele>28.6</ele>
        <time>2019-08-17T10:30:29Z</time>
      </trkpt>
      <trkpt lat="42.4713760" lon="-8.6483780">
        <ele>28.7</ele>
        <time>2019-08-17T10:30:30Z</time>
      </trkpt>
      <trkpt lat="42.4714940" lon="-8.6485170">
        <ele>29.9</ele>
        <time>2019-08-17T10:30:36Z</time>
      </trkpt>
      <trkpt lat="42.4715610" lon="-8.6486020">
        <ele>30.5</ele>
        <time>2019-08-17T10:30:39Z</time>
      </trkpt>
      <trkpt lat="42.4715870" lon="-8.6486320">
        <ele>30.7</ele>
        <time>2019-08-17T10:30:40Z</time>
      </trkpt>
      <trkpt lat="42.4716140" lon="-8.6486580">
        <ele>30.9</ele>
        <time>2019-08-17T10:30:41Z</time>
      </trkpt>
      <trkpt lat="42.4716440" lon="-8.6486840">
        <ele>31.2</ele>
        <time>2019-08-17T10:30:42Z</time>
      </trkpt>
      <trkpt lat="42.4716750" lon="-8.6486940">
        <ele>31.4</ele>
        <time>2019-08-17T10:30:43Z</time>
      </trkpt>
      <trkpt lat="42.4717000" lon="-8.6487170">
        <ele>31.5</ele>
        <time>2019-08-17T10:30:44Z</time>
      </trkpt>
      <trkpt lat="42.4718970" lon="-8.6488300">
        <ele>32.3</ele>
        <time>2019-08-17T10:30:49Z</time>
      </trkpt>
      <trkpt lat="42.4722440" lon="-8.6490350">
        <ele>33.3</ele>
        <time>2019-08-17T10:30:57Z</time>
      </trkpt>
      <trkpt lat="42.4727010" lon="-8.6492190">
        <ele>34.1</ele>
        <time>2019-08-17T10:31:07Z</time>
      </trkpt>
      <trkpt lat="42.4730940" lon="-8.6493530">
        <ele>34.9</ele>
        <time>2019-08-17T10:31:16Z</time>
      </trkpt>
      <trkpt lat="42.4733720" lon="-8.6494840">
        <ele>35.1</ele>
        <time>2019-08-17T10:31:23Z</time>
      </trkpt>
      <trkpt lat="42.4736690" lon="-8.6496220">
        <ele>35.3</ele>
        <time>2019-08-17T10:31:31Z</time>
      </trkpt>
      <trkpt lat="42.4739980" lon="-8.6495670">
        <ele>35.7</ele>
        <time>2019-08-17T10:31:39Z</time>
      </trkpt>
      <trkpt lat="42.4741070" lon="-8.6495530">
        <ele>35.9</ele>
        <time>2019-08-17T10:31:42Z</time>
      </trkpt>
      <trkpt lat="42.4741420" lon="-8.6495560">
        <ele>36.0</ele>
        <time>2019-08-17T10:31:43Z</time>
      </trkpt>
      <trkpt lat="42.4741750" lon="-8.6495610">
        <ele>36.1</ele>
        <time>2019-08-17T10:31:44Z</time>
      </trkpt>
      <trkpt lat="42.4742050" lon="-8.6495640">
        <ele>36.2</ele>
        <time>2019-08-17T10:31:45Z</time>
      </trkpt>
      <trkpt lat="42.4742340" lon="-8.6495720">
        <ele>36.2</ele>
        <time>2019-08-17T10:31:46Z</time>
      </trkpt>
      <trkpt lat="42.4744220" lon="-8.6496240">
        <ele>36.8</ele>
        <time>2019-08-17T10:31:51Z</time>
      </trkpt>
      <trkpt lat="42.4744600" lon="-8.6496450">
        <ele>36.9</ele>
        <time>2019-08-17T10:31:52Z</time>
      </trkpt>
      <trkpt lat="42.4746730" lon="-8.6497710">
        <ele>37.6</ele>
        <time>2019-08-17T10:31:57Z</time>
      </trkpt>
      <trkpt lat="42.4748840" lon="-8.6498440">
        <ele>37.8</ele>
        <time>2019-08-17T10:32:02Z</time>
      </trkpt>
      <trkpt lat="42.4750640" lon="-8.6499100">
        <ele>37.7</ele>
        <time>2019-08-17T10:32:08Z</time>
      </trkpt>
      <trkpt lat="42.4752040" lon="-8.6499630">
        <ele>37.6</ele>
        <time>2019-08-17T10:32:14Z</time>
      </trkpt>
      <trkpt lat="42.4754030" lon="-8.6499910">
        <ele>37.5</ele>
        <time>2019-08-17T10:32:20Z</time>
      </trkpt>
      <trkpt lat="42.4755920" lon="-8.6500210">
        <ele>37.6</ele>
        <time>2019-08-17T10:32:26Z</time>
      </trkpt>
      <trkpt lat="42.4757870" lon="-8.6500180">
        <ele>38.0</ele>
        <time>2019-08-17T10:32:32Z</time>
      </trkpt>
      <trkpt lat="42.4760480" lon="-8.6500430">
        <ele>38.5</ele>
        <time>2019-08-17T10:32:39Z</time>
      </trkpt>
      <trkpt lat="42.4763260" lon="-8.6500890">
        <ele>38.9</ele>
        <time>2019-08-17T10:32:46Z</time>
      </trkpt>
      <trkpt lat="42.4764840" lon="-8.6501770">
        <ele>38.9</ele>
        <time>2019-08-17T10:32:52Z</time>
      </trkpt>
      <trkpt lat="42.4767410" lon="-8.6503120">
        <ele>38.8</ele>
        <time>2019-08-17T10:32:59Z</time>
      </trkpt>
      <trkpt lat="42.4769670" lon="-8.6504420">
        <ele>39.0</ele>
        <time>2019-08-17T10:33:06Z</time>
      </trkpt>
      <trkpt lat="42.4771780" lon="-8.6505390">
        <ele>39.3</ele>
        <time>2019-08-17T10:33:14Z</time>
      </trkpt>
      <trkpt lat="42.4773150" lon="-8.6505760">
        <ele>39.4</ele>
        <time>2019-08-17T10:33:19Z</time>
      </trkpt>
      <trkpt lat="42.4773780" lon="-8.6505870">
        <ele>39.5</ele>
        <time>2019-08-17T10:33:28Z</time>
      </trkpt>
      <trkpt lat="42.4774410" lon="-8.6505990">
        <ele>39.6</ele>
        <time>2019-08-17T10:33:34Z</time>
      </trkpt>
      <trkpt lat="42.4775030" lon="-8.6506110">
        <ele>39.6</ele>
        <time>2019-08-17T10:33:35Z</time>
      </trkpt>
      <trkpt lat="42.4775660" lon="-8.6506220">
        <ele>39.7</ele>
        <time>2019-08-17T10:33:49Z</time>
      </trkpt>
      <trkpt lat="42.4776290" lon="-8.6506340">
        <ele>39.7</ele>
        <time>2019-08-17T10:33:50Z</time>
      </trkpt>
      <trkpt lat="42.4779490" lon="-8.6506590">
        <ele>40.0</ele>
        <time>2019-08-17T10:33:55Z</time>
      </trkpt>
      <trkpt lat="42.4781330" lon="-8.6507050">
        <ele>40.3</ele>
        <time>2019-08-17T10:34:00Z</time>
      </trkpt>
      <trkpt lat="42.4784150" lon="-8.6508060">
        <ele>40.6</ele>
        <time>2019-08-17T10:34:07Z</time>
      </trkpt>
      <trkpt lat="42.4784580" lon="-8.6508130">
        <ele>40.6</ele>
        <time>2019-08-17T10:34:08Z</time>
      </trkpt>
      <trkpt lat="42.4784980" lon="-8.6508210">
        <ele>40.6</ele>
        <time>2019-08-17T10:34:09Z</time>
      </trkpt>
      <trkpt lat="42.4785390" lon="-8.6508260">
        <ele>40.7</ele>
        <time>2019-08-17T10:34:10Z</time>
      </trkpt>
      <trkpt lat="42.4785800" lon="-8.6508310">
        <ele>40.7</ele>
        <time>2019-08-17T10:34:11Z</time>
      </trkpt>
      <trkpt lat="42.4789590" lon="-8.6508580">
        <ele>40.5</ele>
        <time>2019-08-17T10:34:19Z</time>
      </trkpt>
      <trkpt lat="42.4793710" lon="-8.6509670">
        <ele>40.5</ele>
        <time>2019-08-17T10:34:28Z</time>
      </trkpt>
      <trkpt lat="42.4797280" lon="-8.6510940">
        <ele>40.8</ele>
        <time>2019-08-17T10:34:36Z</time>
      </trkpt>
      <trkpt lat="42.4799650" lon="-8.6511260">
        <ele>40.5</ele>
        <time>2019-08-17T10:34:42Z</time>
      </trkpt>
      <trkpt lat="42.4800080" lon="-8.6511130">
        <ele>40.4</ele>
        <time>2019-08-17T10:34:43Z</time>
      </trkpt>
      <trkpt lat="42.4801260" lon="-8.6510860">
        <ele>39.9</ele>
        <time>2019-08-17T10:34:47Z</time>
      </trkpt>
      <trkpt lat="42.4801560" lon="-8.6510850">
        <ele>39.8</ele>
        <time>2019-08-17T10:34:48Z</time>
      </trkpt>
      <trkpt lat="42.4801890" lon="-8.6510810">
        <ele>39.7</ele>
        <time>2019-08-17T10:34:49Z</time>
      </trkpt>
      <trkpt lat="42.4802220" lon="-8.6510700">
        <ele>39.6</ele>
        <time>2019-08-17T10:34:50Z</time>
      </trkpt>
      <trkpt lat="42.4802510" lon="-8.6510580">
        <ele>39.4</ele>
        <time>2019-08-17T10:34:51Z</time>
      </trkpt>
      <trkpt lat="42.4803780" lon="-8.6509810">
        <ele>39.1</ele>
        <time>2019-08-17T10:34:54Z</time>
      </trkpt>
      <trkpt lat="42.4805710" lon="-8.6508550">
        <ele>38.9</ele>
        <time>2019-08-17T10:34:58Z</time>
      </trkpt>
      <trkpt lat="42.4806160" lon="-8.6508280">
        <ele>38.8</ele>
        <time>2019-08-17T10:34:59Z</time>
      </trkpt>
      <trkpt lat="42.4806560" lon="-8.6507980">
        <ele>38.8</ele>
        <time>2019-08-17T10:35:00Z</time>
      </trkpt>
      <trkpt lat="42.4807000" lon="-8.6507660">
        <ele>38.8</ele>
        <time>2019-08-17T10:35:01Z</time>
      </trkpt>
      <trkpt lat="42.4807350" lon="-8.6507390">
        <ele>38.7</ele>
        <time>2019-08-17T10:35:02Z</time>
      </trkpt>
      <trkpt lat="42.4808550" lon="-8.6506670">
        <ele>38.7</ele>
        <time>2019-08-17T10:35:06Z</time>
      </trkpt>
      <trkpt lat="42.4810450" lon="-8.6506930">
        <ele>38.8</ele>
        <time>2019-08-17T10:35:11Z</time>
      </trkpt>
      <trkpt lat="42.4813350" lon="-8.6508120">
        <ele>37.5</ele>
        <time>2019-08-17T10:35:18Z</time>
      </trkpt>
      <trkpt lat="42.4816200" lon="-8.6508610">
        <ele>37.3</ele>
        <time>2019-08-17T10:35:25Z</time>
      </trkpt>
      <trkpt lat="42.4818270" lon="-8.6508740">
        <ele>37.0</ele>
        <time>2019-08-17T10:35:30Z</time>
      </trkpt>
      <trkpt lat="42.4818640" lon="-8.6508890">
        <ele>36.9</ele>
        <time>2019-08-17T10:35:31Z</time>
      </trkpt>
      <trkpt lat="42.4818950" lon="-8.6509050">
        <ele>36.8</ele>
        <time>2019-08-17T10:35:32Z</time>
      </trkpt>
      <trkpt lat="42.4819260" lon="-8.6509270">
        <ele>36.8</ele>
        <time>2019-08-17T10:35:33Z</time>
      </trkpt>
      <trkpt lat="42.4819620" lon="-8.6509370">
        <ele>36.6</ele>
        <time>2019-08-17T10:35:34Z</time>
      </trkpt>
      <trkpt lat="42.4821970" lon="-8.6509170">
        <ele>35.8</ele>
        <time>2019-08-17T10:35:39Z</time>
      </trkpt>
      <trkpt lat="42.4824200" lon="-8.6508670">
        <ele>35.0</ele>
        <time>2019-08-17T10:35:47Z</time>
      </trkpt>
      <trkpt lat="42.4824910" lon="-8.6508760">
        <ele>34.8</ele>
        <time>2019-08-17T10:35:50Z</time>
      </trkpt>
      <trkpt lat="42.4825180" lon="-8.6508740">
        <ele>34.7</ele>
        <time>2019-08-17T10:35:51Z</time>
      </trkpt>
      <trkpt lat="42.4825450" lon="-8.6508730">
        <ele>34.7</ele>
        <time>2019-08-17T10:35:52Z</time>
      </trkpt>
      <trkpt lat="42.4825740" lon="-8.6508760">
        <ele>34.6</ele>
        <time>2019-08-17T10:35:53Z</time>
      </trkpt>
      <trkpt lat="42.4826180" lon="-8.6508870">
        <ele>34.5</ele>
        <time>2019-08-17T10:35:54Z</time>
      </trkpt>
      <trkpt lat="42.4829160" lon="-8.6508500">
        <ele>34.4</ele>
        <time>2019-08-17T10:36:02Z</time>
      </trkpt>
      <trkpt lat="42.4830550" lon="-8.6508330">
        <ele>34.8</ele>
        <time>2019-08-17T10:36:06Z</time>
      </trkpt>
      <trkpt lat="42.4830880" lon="-8.6508310">
        <ele>34.9</ele>
        <time>2019-08-17T10:36:07Z</time>
      </trkpt>
      <trkpt lat="42.4831230" lon="-8.6508290">
        <ele>35.0</ele>
        <time>2019-08-17T10:36:08Z</time>
      </trkpt>
      <trkpt lat="42.4831540" lon="-8.6508320">
        <ele>35.2</ele>
        <time>2019-08-17T10:36:09Z</time>
      </trkpt>
      <trkpt lat="42.4831880" lon="-8.6508330">
        <ele>35.4</ele>
        <time>2019-08-17T10:36:10Z</time>
      </trkpt>
      <trkpt lat="42.4832230" lon="-8.6508360">
        <ele>35.6</ele>
        <time>2019-08-17T10:36:11Z</time>
      </trkpt>
      <trkpt lat="42.4834910" lon="-8.6508190">
        <ele>37.8</ele>
        <time>2019-08-17T10:36:20Z</time>
      </trkpt>
      <trkpt lat="42.4836430" lon="-8.6507910">
        <ele>39.6</ele>
        <time>2019-08-17T10:36:25Z</time>
      </trkpt>
      <trkpt lat="42.4836760" lon="-8.6507820">
        <ele>39.9</ele>
        <time>2019-08-17T10:36:26Z</time>
      </trkpt>
      <trkpt lat="42.4837100" lon="-8.6507690">
        <ele>40.3</ele>
        <time>2019-08-17T10:36:27Z</time>
      </trkpt>
      <trkpt lat="42.4837430" lon="-8.6507620">
        <ele>40.7</ele>
        <time>2019-08-17T10:36:28Z</time>
      </trkpt>
      <trkpt lat="42.4837830" lon="-8.6507480">
        <ele>41.1</ele>
        <time>2019-08-17T10:36:29Z</time>
      </trkpt>
      <trkpt lat="42.4838100" lon="-8.6507310">
        <ele>41.4</ele>
        <time>2019-08-17T10:36:30Z</time>
      </trkpt>
      <trkpt lat="42.4838260" lon="-8.6507190">
        <ele>41.6</ele>
        <time>2019-08-17T10:36:31Z</time>
      </trkpt>
      <trkpt lat="42.4839600" lon="-8.6507140">
        <ele>42.8</ele>
        <time>2019-08-17T10:36:36Z</time>
      </trkpt>
      <trkpt lat="42.4840280" lon="-8.6507270">
        <ele>43.3</ele>
        <time>2019-08-17T10:36:38Z</time>
      </trkpt>
      <trkpt lat="42.4841960" lon="-8.6507130">
        <ele>44.0</ele>
        <time>2019-08-17T10:36:44Z</time>
      </trkpt>
      <trkpt lat="42.4844720" lon="-8.6507010">
        <ele>44.4</ele>
        <time>2019-08-17T10:36:52Z</time>
      </trkpt>
      <trkpt lat="42.4847890" lon="-8.6507350">
        <ele>44.7</ele>
        <time>2019-08-17T10:36:59Z</time>
      </trkpt>
      <trkpt lat="42.4848820" lon="-8.6507280">
        <ele>44.9</ele>
        <time>2019-08-17T10:37:01Z</time>
      </trkpt>
      <trkpt lat="42.4850530" lon="-8.6506910">
        <ele>45.3</ele>
        <time>2019-08-17T10:37:05Z</time>
      </trkpt>
      <trkpt lat="42.4850980" lon="-8.6506690">
        <ele>45.5</ele>
        <time>2019-08-17T10:37:06Z</time>
      </trkpt>
      <trkpt lat="42.4851430" lon="-8.6506500">
        <ele>45.7</ele>
        <time>2019-08-17T10:37:07Z</time>
      </trkpt>
      <trkpt lat="42.4851880" lon="-8.6506340">
        <ele>45.9</ele>
        <time>2019-08-17T10:37:08Z</time>
      </trkpt>
      <trkpt lat="42.4852280" lon="-8.6506180">
        <ele>46.0</ele>
        <time>2019-08-17T10:37:09Z</time>
      </trkpt>
      <trkpt lat="42.4852670" lon="-8.6506090">
        <ele>46.1</ele>
        <time>2019-08-17T10:37:10Z</time>
      </trkpt>
      <trkpt lat="42.4853470" lon="-8.6505910">
        <ele>46.5</ele>
        <time>2019-08-17T10:37:12Z</time>
      </trkpt>
      <trkpt lat="42.4856270" lon="-8.6505540">
        <ele>48.0</ele>
        <time>2019-08-17T10:37:19Z</time>
      </trkpt>
      <trkpt lat="42.4859750" lon="-8.6505270">
        <ele>49.0</ele>
        <time>2019-08-17T10:37:27Z</time>
      </trkpt>
      <trkpt lat="42.4860740" lon="-8.6504820">
        <ele>49.1</ele>
        <time>2019-08-17T10:37:29Z</time>
      </trkpt>
      <trkpt lat="42.4862160" lon="-8.6504340">
        <ele>49.2</ele>
        <time>2019-08-17T10:37:32Z</time>
      </trkpt>
      <trkpt lat="42.4864490" lon="-8.6503180">
        <ele>49.5</ele>
        <time>2019-08-17T10:37:39Z</time>
      </trkpt>
      <trkpt lat="42.4864860" lon="-8.6502970">
        <ele>49.5</ele>
        <time>2019-08-17T10:37:41Z</time>
      </trkpt>
      <trkpt lat="42.4865010" lon="-8.6502930">
        <ele>49.6</ele>
        <time>2019-08-17T10:37:42Z</time>
      </trkpt>
      <trkpt lat="42.4865140" lon="-8.6502870">
        <ele>49.6</ele>
        <time>2019-08-17T10:37:43Z</time>
      </trkpt>
      <trkpt lat="42.4865210" lon="-8.6502790">
        <ele>49.6</ele>
        <time>2019-08-17T10:37:44Z</time>
      </trkpt>
      <trkpt lat="42.4865300" lon="-8.6502640">
        <ele>49.6</ele>
        <time>2019-08-17T10:37:45Z</time>
      </trkpt>
      <trkpt lat="42.4865300" lon="-8.6502600">
        <ele>49.6</ele>
        <time>2019-08-17T10:37:47Z</time>
      </trkpt>
      <trkpt lat="42.4866950" lon="-8.6501610">
        <ele>49.9</ele>
        <time>2019-08-17T10:37:56Z</time>
      </trkpt>
      <trkpt lat="42.4867090" lon="-8.6501550">
        <ele>49.9</ele>
        <time>2019-08-17T10:37:57Z</time>
      </trkpt>
      <trkpt lat="42.4868480" lon="-8.6501320">
        <ele>49.9</ele>
        <time>2019-08-17T10:38:04Z</time>
      </trkpt>
      <trkpt lat="42.4870810" lon="-8.6500200">
        <ele>49.5</ele>
        <time>2019-08-17T10:38:11Z</time>
      </trkpt>
      <trkpt lat="42.4873080" lon="-8.6499450">
        <ele>48.7</ele>
        <time>2019-08-17T10:38:17Z</time>
      </trkpt>
      <trkpt lat="42.4874960" lon="-8.6499410">
        <ele>47.7</ele>
        <time>2019-08-17T10:38:23Z</time>
      </trkpt>
      <trkpt lat="42.4876490" lon="-8.6499440">
        <ele>46.8</ele>
        <time>2019-08-17T10:38:28Z</time>
      </trkpt>
      <trkpt lat="42.4878170" lon="-8.6499820">
        <ele>45.6</ele>
        <time>2019-08-17T10:38:35Z</time>
      </trkpt>
      <trkpt lat="42.4880100" lon="-8.6499980">
        <ele>44.3</ele>
        <time>2019-08-17T10:38:42Z</time>
      </trkpt>
      <trkpt lat="42.4880830" lon="-8.6499870">
        <ele>43.8</ele>
        <time>2019-08-17T10:38:44Z</time>
      </trkpt>
      <trkpt lat="42.4881770" lon="-8.6499970">
        <ele>43.3</ele>
        <time>2019-08-17T10:38:47Z</time>
      </trkpt>
      <trkpt lat="42.4882920" lon="-8.6499850">
        <ele>42.8</ele>
        <time>2019-08-17T10:38:52Z</time>
      </trkpt>
      <trkpt lat="42.4884060" lon="-8.6499230">
        <ele>42.6</ele>
        <time>2019-08-17T10:38:59Z</time>
      </trkpt>
      <trkpt lat="42.4885260" lon="-8.6499070">
        <ele>42.5</ele>
        <time>2019-08-17T10:39:04Z</time>
      </trkpt>
      <trkpt lat="42.4885690" lon="-8.6498870">
        <ele>42.5</ele>
        <time>2019-08-17T10:39:05Z</time>
      </trkpt>
      <trkpt lat="42.4886010" lon="-8.6498780">
        <ele>42.5</ele>
        <time>2019-08-17T10:39:06Z</time>
      </trkpt>
      <trkpt lat="42.4886230" lon="-8.6498770">
        <ele>42.6</ele>
        <time>2019-08-17T10:39:07Z</time>
      </trkpt>
      <trkpt lat="42.4886520" lon="-8.6498720">
        <ele>42.6</ele>
        <time>2019-08-17T10:39:08Z</time>
      </trkpt>
      <trkpt lat="42.4888680" lon="-8.6498120">
        <ele>43.2</ele>
        <time>2019-08-17T10:39:16Z</time>
      </trkpt>
      <trkpt lat="42.4889770" lon="-8.6497810">
        <ele>43.5</ele>
        <time>2019-08-17T10:39:22Z</time>
      </trkpt>
      <trkpt lat="42.4890810" lon="-8.6497170">
        <ele>43.9</ele>
        <time>2019-08-17T10:39:27Z</time>
      </trkpt>
      <trkpt lat="42.4891110" lon="-8.6497000">
        <ele>44.1</ele>
        <time>2019-08-17T10:39:28Z</time>
      </trkpt>
      <trkpt lat="42.4891470" lon="-8.6496830">
        <ele>44.3</ele>
        <time>2019-08-17T10:39:29Z</time>
      </trkpt>
      <trkpt lat="42.4891750" lon="-8.6496700">
        <ele>44.5</ele>
        <time>2019-08-17T10:39:30Z</time>
      </trkpt>
      <trkpt lat="42.4892060" lon="-8.6496590">
        <ele>44.7</ele>
        <time>2019-08-17T10:39:31Z</time>
      </trkpt>
      <trkpt lat="42.4892970" lon="-8.6496170">
        <ele>45.3</ele>
        <time>2019-08-17T10:39:35Z</time>
      </trkpt>
      <trkpt lat="42.4894010" lon="-8.6495410">
        <ele>46.0</ele>
        <time>2019-08-17T10:39:41Z</time>
      </trkpt>
      <trkpt lat="42.4896070" lon="-8.6494190">
        <ele>47.0</ele>
        <time>2019-08-17T10:39:49Z</time>
      </trkpt>
      <trkpt lat="42.4896380" lon="-8.6494030">
        <ele>47.1</ele>
        <time>2019-08-17T10:39:50Z</time>
      </trkpt>
      <trkpt lat="42.4896660" lon="-8.6493920">
        <ele>47.2</ele>
        <time>2019-08-17T10:39:51Z</time>
      </trkpt>
      <trkpt lat="42.4896900" lon="-8.6493830">
        <ele>47.3</ele>
        <time>2019-08-17T10:39:52Z</time>
      </trkpt>
      <trkpt lat="42.4897150" lon="-8.6493750">
        <ele>47.4</ele>
        <time>2019-08-17T10:39:53Z</time>
      </trkpt>
      <trkpt lat="42.4897370" lon="-8.6493720">
        <ele>47.5</ele>
        <time>2019-08-17T10:39:54Z</time>
      </trkpt>
      <trkpt lat="42.4898040" lon="-8.6493790">
        <ele>47.7</ele>
        <time>2019-08-17T10:39:57Z</time>
      </trkpt>
      <trkpt lat="42.4899290" lon="-8.6493690">
        <ele>48.1</ele>
        <time>2019-08-17T10:40:04Z</time>
      </trkpt>
      <trkpt lat="42.4901180" lon="-8.6493520">
        <ele>48.0</ele>
        <time>2019-08-17T10:40:12Z</time>
      </trkpt>
      <trkpt lat="42.4901840" lon="-8.6493320">
        <ele>47.9</ele>
        <time>2019-08-17T10:40:14Z</time>
      </trkpt>
      <trkpt lat="42.4902250" lon="-8.6493270">
        <ele>47.9</ele>
        <time>2019-08-17T10:40:15Z</time>
      </trkpt>
      <trkpt lat="42.4902580" lon="-8.6493260">
        <ele>47.8</ele>
        <time>2019-08-17T10:40:16Z</time>
      </trkpt>
      <trkpt lat="42.4902870" lon="-8.6493120">
        <ele>47.8</ele>
        <time>2019-08-17T10:40:17Z</time>
      </trkpt>
      <trkpt lat="42.4903130" lon="-8.6493020">
        <ele>47.8</ele>
        <time>2019-08-17T10:40:18Z</time>
      </trkpt>
      <trkpt lat="42.4905120" lon="-8.6492350">
        <ele>47.9</ele>
        <time>2019-08-17T10:40:25Z</time>
      </trkpt>
      <trkpt lat="42.4906840" lon="-8.6491940">
        <ele>48.4</ele>
        <time>2019-08-17T10:40:33Z</time>
      </trkpt>
      <trkpt lat="42.4908530" lon="-8.6491580">
        <ele>49.1</ele>
        <time>2019-08-17T10:40:40Z</time>
      </trkpt>
      <trkpt lat="42.4908680" lon="-8.6491490">
        <ele>49.2</ele>
        <time>2019-08-17T10:40:41Z</time>
      </trkpt>
      <trkpt lat="42.4908810" lon="-8.6491400">
        <ele>49.3</ele>
        <time>2019-08-17T10:40:42Z</time>
      </trkpt>
      <trkpt lat="42.4908960" lon="-8.6491280">
        <ele>49.3</ele>
        <time>2019-08-17T10:40:43Z</time>
      </trkpt>
      <trkpt lat="42.4909130" lon="-8.6491200">
        <ele>49.4</ele>
        <time>2019-08-17T10:40:44Z</time>
      </trkpt>
      <trkpt lat="42.4910650" lon="-8.6490310">
        <ele>50.1</ele>
        <time>2019-08-17T10:40:50Z</time>
      </trkpt>
      <trkpt lat="42.4911910" lon="-8.6489540">
        <ele>50.7</ele>
        <time>2019-08-17T10:40:55Z</time>
      </trkpt>
      <trkpt lat="42.4912100" lon="-8.6489390">
        <ele>50.7</ele>
        <time>2019-08-17T10:40:56Z</time>
      </trkpt>
      <trkpt lat="42.4912290" lon="-8.6489220">
        <ele>50.8</ele>
        <time>2019-08-17T10:40:57Z</time>
      </trkpt>
      <trkpt lat="42.4912430" lon="-8.6489140">
        <ele>50.9</ele>
        <time>2019-08-17T10:40:58Z</time>
      </trkpt>
      <trkpt lat="42.4912530" lon="-8.6489060">
        <ele>50.9</ele>
        <time>2019-08-17T10:40:59Z</time>
      </trkpt>
      <trkpt lat="42.4913370" lon="-8.6488290">
        <ele>51.3</ele>
        <time>2019-08-17T10:41:04Z</time>
      </trkpt>
      <trkpt lat="42.4913690" lon="-8.6488050">
        <ele>51.4</ele>
        <time>2019-08-17T10:41:05Z</time>
      </trkpt>
      <trkpt lat="42.4913890" lon="-8.6487890">
        <ele>51.5</ele>
        <time>2019-08-17T10:41:06Z</time>
      </trkpt>
      <trkpt lat="42.4914140" lon="-8.6487760">
        <ele>51.6</ele>
        <time>2019-08-17T10:41:07Z</time>
      </trkpt>
      <trkpt lat="42.4914420" lon="-8.6487580">
        <ele>51.8</ele>
        <time>2019-08-17T10:41:08Z</time>
      </trkpt>
      <trkpt lat="42.4915150" lon="-8.6487330">
        <ele>52.1</ele>
        <time>2019-08-17T10:41:10Z</time>
      </trkpt>
      <trkpt lat="42.4917190" lon="-8.6486750">
        <ele>53.1</ele>
        <time>2019-08-17T10:41:17Z</time>
      </trkpt>
      <trkpt lat="42.4917500" lon="-8.6486590">
        <ele>53.3</ele>
        <time>2019-08-17T10:41:18Z</time>
      </trkpt>
      <trkpt lat="42.4917700" lon="-8.6486490">
        <ele>53.4</ele>
        <time>2019-08-17T10:41:19Z</time>
      </trkpt>
      <trkpt lat="42.4917830" lon="-8.6486430">
        <ele>53.5</ele>
        <time>2019-08-17T10:41:20Z</time>
      </trkpt>
      <trkpt lat="42.4918100" lon="-8.6486330">
        <ele>53.7</ele>
        <time>2019-08-17T10:41:21Z</time>
      </trkpt>
      <trkpt lat="42.4918300" lon="-8.6486260">
        <ele>53.8</ele>
        <time>2019-08-17T10:41:22Z</time>
      </trkpt>
      <trkpt lat="42.4918630" lon="-8.6486160">
        <ele>53.9</ele>
        <time>2019-08-17T10:41:24Z</time>
      </trkpt>
      <trkpt lat="42.4919260" lon="-8.6485970">
        <ele>54.2</ele>
        <time>2019-08-17T10:41:27Z</time>
      </trkpt>
      <trkpt lat="42.4919520" lon="-8.6485870">
        <ele>54.3</ele>
        <time>2019-08-17T10:41:28Z</time>
      </trkpt>
      <trkpt lat="42.4919650" lon="-8.6485820">
        <ele>54.4</ele>
        <time>2019-08-17T10:41:29Z</time>
      </trkpt>
      <trkpt lat="42.4919870" lon="-8.6485770">
        <ele>54.4</ele>
        <time>2019-08-17T10:41:30Z</time>
      </trkpt>
      <trkpt lat="42.4920070" lon="-8.6485720">
        <ele>54.5</ele>
        <time>2019-08-17T10:41:31Z</time>
      </trkpt>
      <trkpt lat="42.4920840" lon="-8.6485310">
        <ele>54.7</ele>
        <time>2019-08-17T10:41:35Z</time>
      </trkpt>
      <trkpt lat="42.4921110" lon="-8.6485130">
        <ele>54.8</ele>
        <time>2019-08-17T10:41:36Z</time>
      </trkpt>
      <trkpt lat="42.4921330" lon="-8.6484990">
        <ele>54.9</ele>
        <time>2019-08-17T10:41:37Z</time>
      </trkpt>
      <trkpt lat="42.4921500" lon="-8.6484950">
        <ele>54.9</ele>
        <time>2019-08-17T10:41:38Z</time>
      </trkpt>
      <trkpt lat="42.4921940" lon="-8.6484740">
        <ele>55.0</ele>
        <time>2019-08-17T10:41:39Z</time>
      </trkpt>
      <trkpt lat="42.4923740" lon="-8.6484420">
        <ele>55.5</ele>
        <time>2019-08-17T10:41:46Z</time>
      </trkpt>
      <trkpt lat="42.4925810" lon="-8.6484510">
        <ele>56.6</ele>
        <time>2019-08-17T10:41:52Z</time>
      </trkpt>
      <trkpt lat="42.4927600" lon="-8.6484370">
        <ele>58.3</ele>
        <time>2019-08-17T10:42:00Z</time>
      </trkpt>
      <trkpt lat="42.4927740" lon="-8.6484380">
        <ele>58.5</ele>
        <time>2019-08-17T10:42:01Z</time>
      </trkpt>
      <trkpt lat="42.4927810" lon="-8.6484390">
        <ele>58.6</ele>
        <time>2019-08-17T10:42:02Z</time>
      </trkpt>
      <trkpt lat="42.4927940" lon="-8.6484450">
        <ele>58.8</ele>
        <time>2019-08-17T10:42:03Z</time>
      </trkpt>
      <trkpt lat="42.4928080" lon="-8.6484480">
        <ele>59.0</ele>
        <time>2019-08-17T10:42:04Z</time>
      </trkpt>
      <trkpt lat="42.4928470" lon="-8.6484420">
        <ele>59.5</ele>
        <time>2019-08-17T10:42:06Z</time>
      </trkpt>
      <trkpt lat="42.4930140" lon="-8.6484200">
        <ele>61.7</ele>
        <time>2019-08-17T10:42:12Z</time>
      </trkpt>
      <trkpt lat="42.4931250" lon="-8.6483930">
        <ele>63.3</ele>
        <time>2019-08-17T10:42:18Z</time>
      </trkpt>
      <trkpt lat="42.4932900" lon="-8.6483940">
        <ele>65.5</ele>
        <time>2019-08-17T10:42:26Z</time>
      </trkpt>
      <trkpt lat="42.4933370" lon="-8.6484160">
        <ele>66.1</ele>
        <time>2019-08-17T10:42:28Z</time>
      </trkpt>
      <trkpt lat="42.4933650" lon="-8.6484070">
        <ele>66.5</ele>
        <time>2019-08-17T10:42:29Z</time>
      </trkpt>
      <trkpt lat="42.4933980" lon="-8.6484130">
        <ele>67.0</ele>
        <time>2019-08-17T10:42:30Z</time>
      </trkpt>
      <trkpt lat="42.4934180" lon="-8.6484230">
        <ele>67.2</ele>
        <time>2019-08-17T10:42:31Z</time>
      </trkpt>
      <trkpt lat="42.4934620" lon="-8.6484070">
        <ele>67.9</ele>
        <time>2019-08-17T10:42:32Z</time>
      </trkpt>
      <trkpt lat="42.4935930" lon="-8.6483780">
        <ele>69.7</ele>
        <time>2019-08-17T10:42:36Z</time>
      </trkpt>
      <trkpt lat="42.4938420" lon="-8.6483500">
        <ele>72.2</ele>
        <time>2019-08-17T10:42:43Z</time>
      </trkpt>
      <trkpt lat="42.4940640" lon="-8.6482920">
        <ele>73.7</ele>
        <time>2019-08-17T10:42:48Z</time>
      </trkpt>
      <trkpt lat="42.4941460" lon="-8.6482910">
        <ele>74.0</ele>
        <time>2019-08-17T10:42:50Z</time>
      </trkpt>
      <trkpt lat="42.4941850" lon="-8.6482960">
        <ele>74.2</ele>
        <time>2019-08-17T10:42:51Z</time>
      </trkpt>
      <trkpt lat="42.4942200" lon="-8.6483030">
        <ele>74.3</ele>
        <time>2019-08-17T10:42:52Z</time>
      </trkpt>
      <trkpt lat="42.4942630" lon="-8.6483140">
        <ele>74.4</ele>
        <time>2019-08-17T10:42:53Z</time>
      </trkpt>
      <trkpt lat="42.4943100" lon="-8.6483140">
        <ele>74.5</ele>
        <time>2019-08-17T10:42:54Z</time>
      </trkpt>
      <trkpt lat="42.4945730" lon="-8.6483640">
        <ele>74.9</ele>
        <time>2019-08-17T10:42:59Z</time>
      </trkpt>
      <trkpt lat="42.4946280" lon="-8.6483800">
        <ele>74.9</ele>
        <time>2019-08-17T10:43:00Z</time>
      </trkpt>
      <trkpt lat="42.4946810" lon="-8.6484020">
        <ele>74.9</ele>
        <time>2019-08-17T10:43:01Z</time>
      </trkpt>
      <trkpt lat="42.4947290" lon="-8.6484220">
        <ele>74.9</ele>
        <time>2019-08-17T10:43:02Z</time>
      </trkpt>
      <trkpt lat="42.4947740" lon="-8.6484380">
        <ele>74.9</ele>
        <time>2019-08-17T10:43:03Z</time>
      </trkpt>
      <trkpt lat="42.4949520" lon="-8.6485150">
        <ele>74.8</ele>
        <time>2019-08-17T10:43:07Z</time>
      </trkpt>
      <trkpt lat="42.4951690" lon="-8.6485660">
        <ele>74.3</ele>
        <time>2019-08-17T10:43:12Z</time>
      </trkpt>
      <trkpt lat="42.4954150" lon="-8.6485990">
        <ele>73.6</ele>
        <time>2019-08-17T10:43:18Z</time>
      </trkpt>
      <trkpt lat="42.4954570" lon="-8.6486220">
        <ele>73.4</ele>
        <time>2019-08-17T10:43:19Z</time>
      </trkpt>
      <trkpt lat="42.4955020" lon="-8.6486340">
        <ele>73.2</ele>
        <time>2019-08-17T10:43:20Z</time>
      </trkpt>
      <trkpt lat="42.4955400" lon="-8.6486560">
        <ele>73.0</ele>
        <time>2019-08-17T10:43:21Z</time>
      </trkpt>
      <trkpt lat="42.4955840" lon="-8.6486760">
        <ele>72.8</ele>
        <time>2019-08-17T10:43:22Z</time>
      </trkpt>
      <trkpt lat="42.4956250" lon="-8.6486950">
        <ele>72.5</ele>
        <time>2019-08-17T10:43:23Z</time>
      </trkpt>
      <trkpt lat="42.4957650" lon="-8.6488270">
        <ele>70.9</ele>
        <time>2019-08-17T10:43:29Z</time>
      </trkpt>
      <trkpt lat="42.4957820" lon="-8.6488520">
        <ele>70.6</ele>
        <time>2019-08-17T10:43:31Z</time>
      </trkpt>
      <trkpt lat="42.4958800" lon="-8.6488780">
        <ele>69.1</ele>
        <time>2019-08-17T10:43:36Z</time>
      </trkpt>
      <trkpt lat="42.4960540" lon="-8.6489100">
        <ele>66.2</ele>
        <time>2019-08-17T10:43:42Z</time>
      </trkpt>
      <trkpt lat="42.4961840" lon="-8.6489510">
        <ele>64.0</ele>
        <time>2019-08-17T10:43:47Z</time>
      </trkpt>
      <trkpt lat="42.4962540" lon="-8.6489720">
        <ele>62.8</ele>
        <time>2019-08-17T10:43:50Z</time>
      </trkpt>
      <trkpt lat="42.4962730" lon="-8.6489790">
        <ele>62.5</ele>
        <time>2019-08-17T10:43:51Z</time>
      </trkpt>
      <trkpt lat="42.4962900" lon="-8.6489820">
        <ele>62.2</ele>
        <time>2019-08-17T10:43:52Z</time>
      </trkpt>
      <trkpt lat="42.4963040" lon="-8.6489890">
        <ele>62.0</ele>
        <time>2019-08-17T10:43:53Z</time>
      </trkpt>
      <trkpt lat="42.4963250" lon="-8.6489920">
        <ele>61.7</ele>
        <time>2019-08-17T10:43:54Z</time>
      </trkpt>
      <trkpt lat="42.4964150" lon="-8.6490590">
        <ele>60.2</ele>
        <time>2019-08-17T10:44:00Z</time>
      </trkpt>
      <trkpt lat="42.4965380" lon="-8.6491420">
        <ele>58.4</ele>
        <time>2019-08-17T10:44:08Z</time>
      </trkpt>
      <trkpt lat="42.4965550" lon="-8.6491440">
        <ele>58.2</ele>
        <time>2019-08-17T10:44:09Z</time>
      </trkpt>
      <trkpt lat="42.4965870" lon="-8.6491600">
        <ele>57.8</ele>
        <time>2019-08-17T10:44:10Z</time>
      </trkpt>
      <trkpt lat="42.4966100" lon="-8.6491730">
        <ele>57.5</ele>
        <time>2019-08-17T10:44:11Z</time>
      </trkpt>
      <trkpt lat="42.4966400" lon="-8.6491740">
        <ele>57.2</ele>
        <time>2019-08-17T10:44:12Z</time>
      </trkpt>
      <trkpt lat="42.4966760" lon="-8.6491610">
        <ele>56.8</ele>
        <time>2019-08-17T10:44:13Z</time>
      </trkpt>
      <trkpt lat="42.4966950" lon="-8.6491510">
        <ele>56.7</ele>
        <time>2019-08-17T10:44:14Z</time>
      </trkpt>
      <trkpt lat="42.4967090" lon="-8.6491450">
        <ele>56.5</ele>
        <time>2019-08-17T10:44:15Z</time>
      </trkpt>
      <trkpt lat="42.4967360" lon="-8.6491290">
        <ele>56.3</ele>
        <time>2019-08-17T10:44:16Z</time>
      </trkpt>
      <trkpt lat="42.4967550" lon="-8.6491280">
        <ele>56.1</ele>
        <time>2019-08-17T10:44:17Z</time>
      </trkpt>
      <trkpt lat="42.4967760" lon="-8.6491190">
        <ele>55.9</ele>
        <time>2019-08-17T10:44:18Z</time>
      </trkpt>
      <trkpt lat="42.4968860" lon="-8.6490530">
        <ele>54.9</ele>
        <time>2019-08-17T10:44:24Z</time>
      </trkpt>
      <trkpt lat="42.4969110" lon="-8.6490480">
        <ele>54.8</ele>
        <time>2019-08-17T10:44:26Z</time>
      </trkpt>
      <trkpt lat="42.4969190" lon="-8.6490410">
        <ele>54.7</ele>
        <time>2019-08-17T10:44:27Z</time>
      </trkpt>
      <trkpt lat="42.4969380" lon="-8.6490370">
        <ele>54.6</ele>
        <time>2019-08-17T10:44:28Z</time>
      </trkpt>
      <trkpt lat="42.4969540" lon="-8.6490280">
        <ele>54.5</ele>
        <time>2019-08-17T10:44:29Z</time>
      </trkpt>
      <trkpt lat="42.4969760" lon="-8.6490190">
        <ele>54.4</ele>
        <time>2019-08-17T10:44:30Z</time>
      </trkpt>
      <trkpt lat="42.4969970" lon="-8.6490110">
        <ele>54.4</ele>
        <time>2019-08-17T10:44:31Z</time>
      </trkpt>
      <trkpt lat="42.4971370" lon="-8.6489520">
        <ele>54.3</ele>
        <time>2019-08-17T10:44:39Z</time>
      </trkpt>
      <trkpt lat="42.4971830" lon="-8.6489170">
        <ele>54.4</ele>
        <time>2019-08-17T10:44:42Z</time>
      </trkpt>
      <trkpt lat="42.4972030" lon="-8.6489030">
        <ele>54.5</ele>
        <time>2019-08-17T10:44:43Z</time>
      </trkpt>
      <trkpt lat="42.4972180" lon="-8.6488960">
        <ele>54.6</ele>
        <time>2019-08-17T10:44:44Z</time>
      </trkpt>
      <trkpt lat="42.4972350" lon="-8.6488930">
        <ele>54.7</ele>
        <time>2019-08-17T10:44:45Z</time>
      </trkpt>
      <trkpt lat="42.4972640" lon="-8.6488900">
        <ele>54.9</ele>
        <time>2019-08-17T10:44:46Z</time>
      </trkpt>
      <trkpt lat="42.4974090" lon="-8.6488600">
        <ele>56.1</ele>
        <time>2019-08-17T10:44:53Z</time>
      </trkpt>
      <trkpt lat="42.4974330" lon="-8.6488630">
        <ele>56.3</ele>
        <time>2019-08-17T10:44:54Z</time>
      </trkpt>
      <trkpt lat="42.4975280" lon="-8.6488570">
        <ele>57.4</ele>
        <time>2019-08-17T10:44:59Z</time>
      </trkpt>
      <trkpt lat="42.4975610" lon="-8.6488650">
        <ele>57.9</ele>
        <time>2019-08-17T10:45:01Z</time>
      </trkpt>
      <trkpt lat="42.4975760" lon="-8.6488710">
        <ele>58.2</ele>
        <time>2019-08-17T10:45:02Z</time>
      </trkpt>
      <trkpt lat="42.4975890" lon="-8.6488730">
        <ele>58.4</ele>
        <time>2019-08-17T10:45:03Z</time>
      </trkpt>
      <trkpt lat="42.4976040" lon="-8.6488740">
        <ele>58.7</ele>
        <time>2019-08-17T10:45:04Z</time>
      </trkpt>
      <trkpt lat="42.4976220" lon="-8.6488810">
        <ele>59.0</ele>
        <time>2019-08-17T10:45:05Z</time>
      </trkpt>
      <trkpt lat="42.4977020" lon="-8.6489230">
        <ele>60.7</ele>
        <time>2019-08-17T10:45:11Z</time>
      </trkpt>
      <trkpt lat="42.4977330" lon="-8.6489410">
        <ele>61.5</ele>
        <time>2019-08-17T10:45:13Z</time>
      </trkpt>
      <trkpt lat="42.4977420" lon="-8.6489600">
        <ele>61.9</ele>
        <time>2019-08-17T10:45:14Z</time>
      </trkpt>
      <trkpt lat="42.4977570" lon="-8.6489700">
        <ele>62.3</ele>
        <time>2019-08-17T10:45:15Z</time>
      </trkpt>
      <trkpt lat="42.4977740" lon="-8.6489820">
        <ele>62.7</ele>
        <time>2019-08-17T10:45:16Z</time>
      </trkpt>
      <trkpt lat="42.4977940" lon="-8.6489900">
        <ele>63.2</ele>
        <time>2019-08-17T10:45:17Z</time>
      </trkpt>
      <trkpt lat="42.4978040" lon="-8.6490040">
        <ele>63.5</ele>
        <time>2019-08-17T10:45:18Z</time>
      </trkpt>
      <trkpt lat="42.4978460" lon="-8.6490360">
        <ele>64.7</ele>
        <time>2019-08-17T10:45:22Z</time>
      </trkpt>
      <trkpt lat="42.4978610" lon="-8.6490460">
        <ele>65.1</ele>
        <time>2019-08-17T10:45:23Z</time>
      </trkpt>
      <trkpt lat="42.4978690" lon="-8.6490560">
        <ele>65.4</ele>
        <time>2019-08-17T10:45:24Z</time>
      </trkpt>
      <trkpt lat="42.4978750" lon="-8.6490580">
        <ele>65.6</ele>
        <time>2019-08-17T10:45:25Z</time>
      </trkpt>
      <trkpt lat="42.4978930" lon="-8.6490670">
        <ele>66.2</ele>
        <time>2019-08-17T10:45:26Z</time>
      </trkpt>
      <trkpt lat="42.4980160" lon="-8.6491030">
        <ele>70.1</ele>
        <time>2019-08-17T10:45:33Z</time>
      </trkpt>
      <trkpt lat="42.4980360" lon="-8.6490960">
        <ele>70.8</ele>
        <time>2019-08-17T10:45:35Z</time>
      </trkpt>
      <trkpt lat="42.4980500" lon="-8.6490950">
        <ele>71.2</ele>
        <time>2019-08-17T10:45:36Z</time>
      </trkpt>
      <trkpt lat="42.4980660" lon="-8.6490990">
        <ele>71.7</ele>
        <time>2019-08-17T10:45:37Z</time>
      </trkpt>
      <trkpt lat="42.4980810" lon="-8.6491040">
        <ele>72.2</ele>
        <time>2019-08-17T10:45:38Z</time>
      </trkpt>
      <trkpt lat="42.4980980" lon="-8.6491010">
        <ele>72.7</ele>
        <time>2019-08-17T10:45:39Z</time>
      </trkpt>
      <trkpt lat="42.4981200" lon="-8.6491030">
        <ele>73.3</ele>
        <time>2019-08-17T10:45:41Z</time>
      </trkpt>
      <trkpt lat="42.4982240" lon="-8.6491100">
        <ele>76.1</ele>
        <time>2019-08-17T10:45:45Z</time>
      </trkpt>
      <trkpt lat="42.4982410" lon="-8.6491090">
        <ele>76.5</ele>
        <time>2019-08-17T10:45:46Z</time>
      </trkpt>
      <trkpt lat="42.4982580" lon="-8.6491120">
        <ele>76.9</ele>
        <time>2019-08-17T10:45:47Z</time>
      </trkpt>
      <trkpt lat="42.4982810" lon="-8.6491150">
        <ele>77.4</ele>
        <time>2019-08-17T10:45:48Z</time>
      </trkpt>
      <trkpt lat="42.4982980" lon="-8.6491180">
        <ele>77.8</ele>
        <time>2019-08-17T10:45:49Z</time>
      </trkpt>
      <trkpt lat="42.4983660" lon="-8.6491310">
        <ele>79.4</ele>
        <time>2019-08-17T10:45:53Z</time>
      </trkpt>
      <trkpt lat="42.4983780" lon="-8.6491310">
        <ele>79.7</ele>
        <time>2019-08-17T10:45:54Z</time>
      </trkpt>
      <trkpt lat="42.4983900" lon="-8.6491310">
        <ele>80.0</ele>
        <time>2019-08-17T10:45:55Z</time>
      </trkpt>
      <trkpt lat="42.4984030" lon="-8.6491350">
        <ele>80.3</ele>
        <time>2019-08-17T10:45:56Z</time>
      </trkpt>
      <trkpt lat="42.4984100" lon="-8.6491380">
        <ele>80.5</ele>
        <time>2019-08-17T10:45:57Z</time>
      </trkpt>
      <trkpt lat="42.4984780" lon="-8.6491400">
        <ele>82.0</ele>
        <time>2019-08-17T10:46:04Z</time>
      </trkpt>
      <trkpt lat="42.4985510" lon="-8.6491430">
        <ele>83.9</ele>
        <time>2019-08-17T10:48:14Z</time>
      </trkpt>
      <trkpt lat="42.4987710" lon="-8.6492430">
        <ele>88.8</ele>
        <time>2019-08-17T10:48:24Z</time>
      </trkpt>
      <trkpt lat="42.4989010" lon="-8.6493170">
        <ele>91.0</ele>
        <time>2019-08-17T10:48:30Z</time>
      </trkpt>
      <trkpt lat="42.4990840" lon="-8.6494230">
        <ele>93.9</ele>
        <time>2019-08-17T10:48:38Z</time>
      </trkpt>
      <trkpt lat="42.4993260" lon="-8.6495540">
        <ele>97.8</ele>
        <time>2019-08-17T10:48:47Z</time>
      </trkpt>
      <trkpt lat="42.4995060" lon="-8.6495840">
        <ele>100.2</ele>
        <time>2019-08-17T10:48:53Z</time>
      </trkpt>
      <trkpt lat="42.4995130" lon="-8.6495600">
        <ele>100.5</ele>
        <time>2019-08-17T10:48:54Z</time>
      </trkpt>
      <trkpt lat="42.4995160" lon="-8.6495380">
        <ele>100.6</ele>
        <time>2019-08-17T10:48:55Z</time>
      </trkpt>
      <trkpt lat="42.4995230" lon="-8.6495040">
        <ele>100.9</ele>
        <time>2019-08-17T10:48:56Z</time>
      </trkpt>
      <trkpt lat="42.4995320" lon="-8.6494690">
        <ele>101.2</ele>
        <time>2019-08-17T10:48:57Z</time>
      </trkpt>
      <trkpt lat="42.4997100" lon="-8.6494090">
        <ele>103.5</ele>
        <time>2019-08-17T10:49:04Z</time>
      </trkpt>
      <trkpt lat="42.4998840" lon="-8.6494130">
        <ele>106.0</ele>
        <time>2019-08-17T10:49:11Z</time>
      </trkpt>
      <trkpt lat="42.4999180" lon="-8.6494120">
        <ele>106.4</ele>
        <time>2019-08-17T10:49:13Z</time>
      </trkpt>
      <trkpt lat="42.4999330" lon="-8.6494090">
        <ele>106.6</ele>
        <time>2019-08-17T10:49:14Z</time>
      </trkpt>
      <trkpt lat="42.4999500" lon="-8.6494090">
        <ele>106.9</ele>
        <time>2019-08-17T10:49:15Z</time>
      </trkpt>
      <trkpt lat="42.4999620" lon="-8.6494150">
        <ele>107.0</ele>
        <time>2019-08-17T10:49:16Z</time>
      </trkpt>
      <trkpt lat="42.4999760" lon="-8.6494120">
        <ele>107.2</ele>
        <time>2019-08-17T10:49:17Z</time>
      </trkpt>
      <trkpt lat="42.5000040" lon="-8.6494130">
        <ele>107.5</ele>
        <time>2019-08-17T10:49:18Z</time>
      </trkpt>
      <trkpt lat="42.5000270" lon="-8.6494200">
        <ele>107.8</ele>
        <time>2019-08-17T10:49:19Z</time>
      </trkpt>
      <trkpt lat="42.5000400" lon="-8.6494210">
        <ele>108.0</ele>
        <time>2019-08-17T10:49:20Z</time>
      </trkpt>
      <trkpt lat="42.5000630" lon="-8.6494060">
        <ele>108.3</ele>
        <time>2019-08-17T10:49:21Z</time>
      </trkpt>
      <trkpt lat="42.5000760" lon="-8.6494060">
        <ele>108.4</ele>
        <time>2019-08-17T10:49:22Z</time>
      </trkpt>
      <trkpt lat="42.5001060" lon="-8.6494220">
        <ele>108.9</ele>
        <time>2019-08-17T10:49:24Z</time>
      </trkpt>
      <trkpt lat="42.5001430" lon="-8.6494460">
        <ele>109.4</ele>
        <time>2019-08-17T10:49:26Z</time>
      </trkpt>
      <trkpt lat="42.5001590" lon="-8.6494570">
        <ele>109.7</ele>
        <time>2019-08-17T10:49:27Z</time>
      </trkpt>
      <trkpt lat="42.5001870" lon="-8.6494670">
        <ele>110.1</ele>
        <time>2019-08-17T10:49:28Z</time>
      </trkpt>
      <trkpt lat="42.5002060" lon="-8.6494730">
        <ele>110.3</ele>
        <time>2019-08-17T10:49:29Z</time>
      </trkpt>
      <trkpt lat="42.5002180" lon="-8.6494770">
        <ele>110.5</ele>
        <time>2019-08-17T10:49:30Z</time>
      </trkpt>
      <trkpt lat="42.5002560" lon="-8.6494940">
        <ele>111.0</ele>
        <time>2019-08-17T10:49:32Z</time>
      </trkpt>
      <trkpt lat="42.5003440" lon="-8.6495420">
        <ele>112.4</ele>
        <time>2019-08-17T10:49:36Z</time>
      </trkpt>
      <trkpt lat="42.5003680" lon="-8.6495570">
        <ele>112.7</ele>
        <time>2019-08-17T10:49:37Z</time>
      </trkpt>
      <trkpt lat="42.5003810" lon="-8.6495680">
        <ele>113.0</ele>
        <time>2019-08-17T10:49:38Z</time>
      </trkpt>
      <trkpt lat="42.5003970" lon="-8.6495800">
        <ele>113.2</ele>
        <time>2019-08-17T10:49:39Z</time>
      </trkpt>
      <trkpt lat="42.5004110" lon="-8.6496010">
        <ele>113.5</ele>
        <time>2019-08-17T10:49:40Z</time>
      </trkpt>
      <trkpt lat="42.5005010" lon="-8.6496850">
        <ele>115.3</ele>
        <time>2019-08-17T10:49:46Z</time>
      </trkpt>
      <trkpt lat="42.5005230" lon="-8.6496900">
        <ele>115.7</ele>
        <time>2019-08-17T10:49:47Z</time>
      </trkpt>
      <trkpt lat="42.5005390" lon="-8.6496950">
        <ele>115.9</ele>
        <time>2019-08-17T10:49:48Z</time>
      </trkpt>
      <trkpt lat="42.5005690" lon="-8.6497030">
        <ele>116.5</ele>
        <time>2019-08-17T10:49:49Z</time>
      </trkpt>
      <trkpt lat="42.5005990" lon="-8.6497100">
        <ele>117.0</ele>
        <time>2019-08-17T10:49:50Z</time>
      </trkpt>
      <trkpt lat="42.5006720" lon="-8.6497290">
        <ele>118.2</ele>
        <time>2019-08-17T10:49:52Z</time>
      </trkpt>
      <trkpt lat="42.5007470" lon="-8.6497430">
        <ele>119.5</ele>
        <time>2019-08-17T10:49:55Z</time>
      </trkpt>
      <trkpt lat="42.5007660" lon="-8.6497440">
        <ele>119.8</ele>
        <time>2019-08-17T10:49:56Z</time>
      </trkpt>
      <trkpt lat="42.5007850" lon="-8.6497460">
        <ele>120.2</ele>
        <time>2019-08-17T10:49:57Z</time>
      </trkpt>
      <trkpt lat="42.5008060" lon="-8.6497480">
        <ele>120.6</ele>
        <time>2019-08-17T10:49:58Z</time>
      </trkpt>
      <trkpt lat="42.5008230" lon="-8.6497480">
        <ele>120.9</ele>
        <time>2019-08-17T10:49:59Z</time>
      </trkpt>
      <trkpt lat="42.5008660" lon="-8.6497450">
        <ele>121.6</ele>
        <time>2019-08-17T10:50:01Z</time>
      </trkpt>
      <trkpt lat="42.5010000" lon="-8.6497360">
        <ele>123.6</ele>
        <time>2019-08-17T10:50:07Z</time>
      </trkpt>
      <trkpt lat="42.5010280" lon="-8.6497450">
        <ele>124.0</ele>
        <time>2019-08-17T10:50:08Z</time>
      </trkpt>
      <trkpt lat="42.5011620" lon="-8.6497390">
        <ele>125.6</ele>
        <time>2019-08-17T10:50:13Z</time>
      </trkpt>
      <trkpt lat="42.5013040" lon="-8.6498160">
        <ele>124.7</ele>
        <time>2019-08-17T10:50:18Z</time>
      </trkpt>
      <trkpt lat="42.5013380" lon="-8.6498330">
        <ele>124.4</ele>
        <time>2019-08-17T10:50:19Z</time>
      </trkpt>
      <trkpt lat="42.5013590" lon="-8.6498480">
        <ele>124.3</ele>
        <time>2019-08-17T10:50:20Z</time>
      </trkpt>
      <trkpt lat="42.5013800" lon="-8.6498630">
        <ele>124.2</ele>
        <time>2019-08-17T10:50:21Z</time>
      </trkpt>
      <trkpt lat="42.5014030" lon="-8.6498860">
        <ele>124.0</ele>
        <time>2019-08-17T10:50:22Z</time>
      </trkpt>
      <trkpt lat="42.5014450" lon="-8.6499300">
        <ele>123.8</ele>
        <time>2019-08-17T10:50:24Z</time>
      </trkpt>
      <trkpt lat="42.5015110" lon="-8.6500010">
        <ele>123.6</ele>
        <time>2019-08-17T10:50:26Z</time>
      </trkpt>
      <trkpt lat="42.5015680" lon="-8.6500450">
        <ele>123.7</ele>
        <time>2019-08-17T10:50:27Z</time>
      </trkpt>
      <trkpt lat="42.5016100" lon="-8.6500790">
        <ele>123.9</ele>
        <time>2019-08-17T10:50:28Z</time>
      </trkpt>
      <trkpt lat="42.5016630" lon="-8.6501150">
        <ele>124.2</ele>
        <time>2019-08-17T10:50:29Z</time>
      </trkpt>
      <trkpt lat="42.5017110" lon="-8.6501440">
        <ele>124.7</ele>
        <time>2019-08-17T10:50:30Z</time>
      </trkpt>
      <trkpt lat="42.5017530" lon="-8.6501760">
        <ele>125.2</ele>
        <time>2019-08-17T10:50:31Z</time>
      </trkpt>
      <trkpt lat="42.5017950" lon="-8.6502050">
        <ele>125.6</ele>
        <time>2019-08-17T10:50:32Z</time>
      </trkpt>
      <trkpt lat="42.5018460" lon="-8.6502170">
        <ele>126.1</ele>
        <time>2019-08-17T10:50:33Z</time>
      </trkpt>
      <trkpt lat="42.5018870" lon="-8.6502440">
        <ele>126.6</ele>
        <time>2019-08-17T10:50:34Z</time>
      </trkpt>
      <trkpt lat="42.5020770" lon="-8.6503520">
        <ele>128.3</ele>
        <time>2019-08-17T10:50:39Z</time>
      </trkpt>
      <trkpt lat="42.5023220" lon="-8.6504320">
        <ele>129.2</ele>
        <time>2019-08-17T10:50:45Z</time>
      </trkpt>
      <trkpt lat="42.5025550" lon="-8.6505390">
        <ele>129.1</ele>
        <time>2019-08-17T10:50:51Z</time>
      </trkpt>
      <trkpt lat="42.5027760" lon="-8.6506660">
        <ele>128.2</ele>
        <time>2019-08-17T10:50:57Z</time>
      </trkpt>
      <trkpt lat="42.5030150" lon="-8.6507540">
        <ele>126.6</ele>
        <time>2019-08-17T10:51:04Z</time>
      </trkpt>
      <trkpt lat="42.5031920" lon="-8.6508060">
        <ele>125.3</ele>
        <time>2019-08-17T10:51:10Z</time>
      </trkpt>
      <trkpt lat="42.5032490" lon="-8.6507980">
        <ele>124.8</ele>
        <time>2019-08-17T10:51:12Z</time>
      </trkpt>
      <trkpt lat="42.5032690" lon="-8.6507960">
        <ele>124.7</ele>
        <time>2019-08-17T10:51:13Z</time>
      </trkpt>
      <trkpt lat="42.5032870" lon="-8.6507930">
        <ele>124.6</ele>
        <time>2019-08-17T10:51:14Z</time>
      </trkpt>
      <trkpt lat="42.5033090" lon="-8.6507940">
        <ele>124.4</ele>
        <time>2019-08-17T10:51:15Z</time>
      </trkpt>
      <trkpt lat="42.5033570" lon="-8.6507980">
        <ele>124.1</ele>
        <time>2019-08-17T10:51:17Z</time>
      </trkpt>
      <trkpt lat="42.5035390" lon="-8.6508000">
        <ele>122.8</ele>
        <time>2019-08-17T10:51:24Z</time>
      </trkpt>
      <trkpt lat="42.5037460" lon="-8.6508200">
        <ele>121.9</ele>
        <time>2019-08-17T10:51:31Z</time>
      </trkpt>
      <trkpt lat="42.5037750" lon="-8.6508190">
        <ele>121.8</ele>
        <time>2019-08-17T10:51:32Z</time>
      </trkpt>
      <trkpt lat="42.5038130" lon="-8.6508170">
        <ele>121.7</ele>
        <time>2019-08-17T10:51:33Z</time>
      </trkpt>
      <trkpt lat="42.5038430" lon="-8.6508180">
        <ele>121.7</ele>
        <time>2019-08-17T10:51:34Z</time>
      </trkpt>
      <trkpt lat="42.5038680" lon="-8.6508180">
        <ele>121.7</ele>
        <time>2019-08-17T10:51:35Z</time>
      </trkpt>
      <trkpt lat="42.5040100" lon="-8.6507810">
        <ele>121.8</ele>
        <time>2019-08-17T10:51:41Z</time>
      </trkpt>
      <trkpt lat="42.5041210" lon="-8.6506970">
        <ele>122.2</ele>
        <time>2019-08-17T10:51:46Z</time>
      </trkpt>
      <trkpt lat="42.5041400" lon="-8.6506720">
        <ele>122.4</ele>
        <time>2019-08-17T10:51:47Z</time>
      </trkpt>
      <trkpt lat="42.5041630" lon="-8.6506490">
        <ele>122.5</ele>
        <time>2019-08-17T10:51:48Z</time>
      </trkpt>
      <trkpt lat="42.5041860" lon="-8.6506250">
        <ele>122.7</ele>
        <time>2019-08-17T10:51:49Z</time>
      </trkpt>
      <trkpt lat="42.5042060" lon="-8.6505930">
        <ele>122.9</ele>
        <time>2019-08-17T10:51:50Z</time>
      </trkpt>
      <trkpt lat="42.5043180" lon="-8.6504580">
        <ele>124.0</ele>
        <time>2019-08-17T10:51:55Z</time>
      </trkpt>
      <trkpt lat="42.5043970" lon="-8.6503820">
        <ele>124.3</ele>
        <time>2019-08-17T10:52:00Z</time>
      </trkpt>
      <trkpt lat="42.5045000" lon="-8.6502690">
        <ele>124.3</ele>
        <time>2019-08-17T10:52:06Z</time>
      </trkpt>
      <trkpt lat="42.5046740" lon="-8.6500410">
        <ele>123.9</ele>
        <time>2019-08-17T10:52:14Z</time>
      </trkpt>
      <trkpt lat="42.5047590" lon="-8.6497220">
        <ele>123.3</ele>
        <time>2019-08-17T10:52:19Z</time>
      </trkpt>
      <trkpt lat="42.5048260" lon="-8.6496620">
        <ele>122.8</ele>
        <time>2019-08-17T10:52:22Z</time>
      </trkpt>
      <trkpt lat="42.5048490" lon="-8.6496650">
        <ele>122.6</ele>
        <time>2019-08-17T10:52:23Z</time>
      </trkpt>
      <trkpt lat="42.5048740" lon="-8.6496810">
        <ele>122.5</ele>
        <time>2019-08-17T10:52:26Z</time>
      </trkpt>
      <trkpt lat="42.5048890" lon="-8.6496720">
        <ele>122.4</ele>
        <time>2019-08-17T10:53:06Z</time>
      </trkpt>
      <trkpt lat="42.5048980" lon="-8.6496990">
        <ele>122.3</ele>
        <time>2019-08-17T10:53:07Z</time>
      </trkpt>
      <trkpt lat="42.5049630" lon="-8.6497050">
        <ele>121.9</ele>
        <time>2019-08-17T10:53:09Z</time>
      </trkpt>
      <trkpt lat="42.5050570" lon="-8.6496330">
        <ele>121.2</ele>
        <time>2019-08-17T10:53:11Z</time>
      </trkpt>
      <trkpt lat="42.5050990" lon="-8.6496050">
        <ele>121.0</ele>
        <time>2019-08-17T10:53:12Z</time>
      </trkpt>
      <trkpt lat="42.5051420" lon="-8.6495870">
        <ele>120.7</ele>
        <time>2019-08-17T10:53:13Z</time>
      </trkpt>
      <trkpt lat="42.5051800" lon="-8.6495710">
        <ele>120.4</ele>
        <time>2019-08-17T10:53:14Z</time>
      </trkpt>
      <trkpt lat="42.5052230" lon="-8.6495520">
        <ele>120.1</ele>
        <time>2019-08-17T10:53:15Z</time>
      </trkpt>
      <trkpt lat="42.5052650" lon="-8.6495270">
        <ele>119.8</ele>
        <time>2019-08-17T10:53:16Z</time>
      </trkpt>
      <trkpt lat="42.5053010" lon="-8.6495000">
        <ele>119.5</ele>
        <time>2019-08-17T10:53:17Z</time>
      </trkpt>
      <trkpt lat="42.5053480" lon="-8.6494680">
        <ele>119.2</ele>
        <time>2019-08-17T10:53:18Z</time>
      </trkpt>
      <trkpt lat="42.5053910" lon="-8.6494410">
        <ele>118.9</ele>
        <time>2019-08-17T10:53:19Z</time>
      </trkpt>
      <trkpt lat="42.5054310" lon="-8.6494140">
        <ele>118.7</ele>
        <time>2019-08-17T10:53:20Z</time>
      </trkpt>
      <trkpt lat="42.5055950" lon="-8.6493080">
        <ele>118.0</ele>
        <time>2019-08-17T10:53:24Z</time>
      </trkpt>
      <trkpt lat="42.5056330" lon="-8.6492950">
        <ele>117.9</ele>
        <time>2019-08-17T10:53:25Z</time>
      </trkpt>
      <trkpt lat="42.5056640" lon="-8.6492820">
        <ele>117.8</ele>
        <time>2019-08-17T10:53:26Z</time>
      </trkpt>
      <trkpt lat="42.5057280" lon="-8.6492650">
        <ele>117.6</ele>
        <time>2019-08-17T10:53:28Z</time>
      </trkpt>
      <trkpt lat="42.5057950" lon="-8.6492530">
        <ele>117.4</ele>
        <time>2019-08-17T10:53:30Z</time>
      </trkpt>
      <trkpt lat="42.5060350" lon="-8.6492230">
        <ele>116.9</ele>
        <time>2019-08-17T10:53:37Z</time>
      </trkpt>
      <trkpt lat="42.5060580" lon="-8.6492190">
        <ele>116.9</ele>
        <time>2019-08-17T10:53:38Z</time>
      </trkpt>
      <trkpt lat="42.5060810" lon="-8.6492070">
        <ele>116.8</ele>
        <time>2019-08-17T10:53:39Z</time>
      </trkpt>
      <trkpt lat="42.5060980" lon="-8.6492000">
        <ele>116.8</ele>
        <time>2019-08-17T10:53:40Z</time>
      </trkpt>
      <trkpt lat="42.5061060" lon="-8.6491830">
        <ele>116.7</ele>
        <time>2019-08-17T10:53:41Z</time>
      </trkpt>
      <trkpt lat="42.5061390" lon="-8.6491390">
        <ele>116.7</ele>
        <time>2019-08-17T10:53:44Z</time>
      </trkpt>
      <trkpt lat="42.5061260" lon="-8.6490830">
        <ele>116.6</ele>
        <time>2019-08-17T10:53:48Z</time>
      </trkpt>
      <trkpt lat="42.5061410" lon="-8.6490710">
        <ele>116.6</ele>
        <time>2019-08-17T10:56:05Z</time>
      </trkpt>
      <trkpt lat="42.5063110" lon="-8.6488570">
        <ele>116.1</ele>
        <time>2019-08-17T10:56:10Z</time>
      </trkpt>
      <trkpt lat="42.5064890" lon="-8.6487350">
        <ele>115.6</ele>
        <time>2019-08-17T10:56:15Z</time>
      </trkpt>
      <trkpt lat="42.5065420" lon="-8.6487360">
        <ele>115.5</ele>
        <time>2019-08-17T10:56:16Z</time>
      </trkpt>
      <trkpt lat="42.5066700" lon="-8.6487700">
        <ele>115.1</ele>
        <time>2019-08-17T10:56:19Z</time>
      </trkpt>
      <trkpt lat="42.5067630" lon="-8.6487920">
        <ele>114.8</ele>
        <time>2019-08-17T10:56:21Z</time>
      </trkpt>
      <trkpt lat="42.5068310" lon="-8.6488130">
        <ele>114.6</ele>
        <time>2019-08-17T10:56:23Z</time>
      </trkpt>
      <trkpt lat="42.5068620" lon="-8.6488260">
        <ele>114.5</ele>
        <time>2019-08-17T10:56:24Z</time>
      </trkpt>
      <trkpt lat="42.5068850" lon="-8.6488340">
        <ele>114.4</ele>
        <time>2019-08-17T10:56:25Z</time>
      </trkpt>
      <trkpt lat="42.5069090" lon="-8.6488430">
        <ele>114.3</ele>
        <time>2019-08-17T10:56:26Z</time>
      </trkpt>
      <trkpt lat="42.5069400" lon="-8.6488540">
        <ele>114.2</ele>
        <time>2019-08-17T10:56:27Z</time>
      </trkpt>
      <trkpt lat="42.5070290" lon="-8.6488740">
        <ele>113.9</ele>
        <time>2019-08-17T10:56:29Z</time>
      </trkpt>
      <trkpt lat="42.5071280" lon="-8.6488620">
        <ele>113.6</ele>
        <time>2019-08-17T10:56:31Z</time>
      </trkpt>
      <trkpt lat="42.5071750" lon="-8.6488660">
        <ele>113.4</ele>
        <time>2019-08-17T10:56:32Z</time>
      </trkpt>
      <trkpt lat="42.5072160" lon="-8.6488630">
        <ele>113.3</ele>
        <time>2019-08-17T10:56:33Z</time>
      </trkpt>
      <trkpt lat="42.5072610" lon="-8.6488550">
        <ele>113.1</ele>
        <time>2019-08-17T10:56:34Z</time>
      </trkpt>
      <trkpt lat="42.5073050" lon="-8.6488530">
        <ele>113.0</ele>
        <time>2019-08-17T10:56:35Z</time>
      </trkpt>
      <trkpt lat="42.5073450" lon="-8.6488470">
        <ele>112.8</ele>
        <time>2019-08-17T10:56:36Z</time>
      </trkpt>
      <trkpt lat="42.5074230" lon="-8.6488400">
        <ele>112.5</ele>
        <time>2019-08-17T10:56:38Z</time>
      </trkpt>
      <trkpt lat="42.5074720" lon="-8.6488210">
        <ele>112.3</ele>
        <time>2019-08-17T10:56:39Z</time>
      </trkpt>
      <trkpt lat="42.5075190" lon="-8.6488050">
        <ele>112.1</ele>
        <time>2019-08-17T10:56:40Z</time>
      </trkpt>
      <trkpt lat="42.5075720" lon="-8.6487930">
        <ele>111.9</ele>
        <time>2019-08-17T10:56:41Z</time>
      </trkpt>
      <trkpt lat="42.5076170" lon="-8.6487890">
        <ele>111.8</ele>
        <time>2019-08-17T10:56:42Z</time>
      </trkpt>
      <trkpt lat="42.5077490" lon="-8.6488730">
        <ele>111.5</ele>
        <time>2019-08-17T10:56:46Z</time>
      </trkpt>
      <trkpt lat="42.5077840" lon="-8.6489230">
        <ele>111.3</ele>
        <time>2019-08-17T10:56:48Z</time>
      </trkpt>
      <trkpt lat="42.5078240" lon="-8.6489540">
        <ele>111.2</ele>
        <time>2019-08-17T10:56:49Z</time>
      </trkpt>
      <trkpt lat="42.5078730" lon="-8.6489790">
        <ele>111.1</ele>
        <time>2019-08-17T10:56:50Z</time>
      </trkpt>
      <trkpt lat="42.5079190" lon="-8.6489910">
        <ele>111.0</ele>
        <time>2019-08-17T10:56:51Z</time>
      </trkpt>
      <trkpt lat="42.5079680" lon="-8.6490040">
        <ele>111.0</ele>
        <time>2019-08-17T10:56:52Z</time>
      </trkpt>
      <trkpt lat="42.5080130" lon="-8.6490150">
        <ele>111.1</ele>
        <time>2019-08-17T10:56:53Z</time>
      </trkpt>
      <trkpt lat="42.5080970" lon="-8.6490290">
        <ele>111.5</ele>
        <time>2019-08-17T10:56:55Z</time>
      </trkpt>
      <trkpt lat="42.5081380" lon="-8.6490360">
        <ele>111.8</ele>
        <time>2019-08-17T10:56:56Z</time>
      </trkpt>
      <trkpt lat="42.5081760" lon="-8.6490410">
        <ele>112.0</ele>
        <time>2019-08-17T10:56:57Z</time>
      </trkpt>
      <trkpt lat="42.5082150" lon="-8.6490480">
        <ele>112.4</ele>
        <time>2019-08-17T10:56:58Z</time>
      </trkpt>
      <trkpt lat="42.5082520" lon="-8.6490540">
        <ele>112.7</ele>
        <time>2019-08-17T10:56:59Z</time>
      </trkpt>
      <trkpt lat="42.5082880" lon="-8.6490610">
        <ele>113.1</ele>
        <time>2019-08-17T10:57:00Z</time>
      </trkpt>
      <trkpt lat="42.5083280" lon="-8.6490690">
        <ele>113.4</ele>
        <time>2019-08-17T10:57:01Z</time>
      </trkpt>
      <trkpt lat="42.5083650" lon="-8.6490660">
        <ele>113.8</ele>
        <time>2019-08-17T10:57:02Z</time>
      </trkpt>
      <trkpt lat="42.5083950" lon="-8.6490690">
        <ele>114.0</ele>
        <time>2019-08-17T10:57:03Z</time>
      </trkpt>
      <trkpt lat="42.5084210" lon="-8.6490700">
        <ele>114.2</ele>
        <time>2019-08-17T10:57:04Z</time>
      </trkpt>
      <trkpt lat="42.5084800" lon="-8.6490660">
        <ele>114.6</ele>
        <time>2019-08-17T10:57:06Z</time>
      </trkpt>
      <trkpt lat="42.5085090" lon="-8.6490650">
        <ele>114.7</ele>
        <time>2019-08-17T10:57:07Z</time>
      </trkpt>
      <trkpt lat="42.5085370" lon="-8.6490620">
        <ele>114.8</ele>
        <time>2019-08-17T10:57:08Z</time>
      </trkpt>
      <trkpt lat="42.5085730" lon="-8.6490400">
        <ele>114.9</ele>
        <time>2019-08-17T10:57:09Z</time>
      </trkpt>
      <trkpt lat="42.5085960" lon="-8.6490520">
        <ele>114.9</ele>
        <time>2019-08-17T10:57:10Z</time>
      </trkpt>
      <trkpt lat="42.5087690" lon="-8.6490760">
        <ele>115.0</ele>
        <time>2019-08-17T10:57:15Z</time>
      </trkpt>
      <trkpt lat="42.5090080" lon="-8.6491330">
        <ele>115.0</ele>
        <time>2019-08-17T10:57:22Z</time>
      </trkpt>
      <trkpt lat="42.5091790" lon="-8.6491260">
        <ele>114.9</ele>
        <time>2019-08-17T10:57:25Z</time>
      </trkpt>
      <trkpt lat="42.5092490" lon="-8.6491270">
        <ele>114.7</ele>
        <time>2019-08-17T10:57:26Z</time>
      </trkpt>
      <trkpt lat="42.5093200" lon="-8.6491290">
        <ele>114.5</ele>
        <time>2019-08-17T10:57:27Z</time>
      </trkpt>
      <trkpt lat="42.5093960" lon="-8.6491490">
        <ele>114.1</ele>
        <time>2019-08-17T10:57:28Z</time>
      </trkpt>
      <trkpt lat="42.5094810" lon="-8.6491640">
        <ele>113.7</ele>
        <time>2019-08-17T10:57:29Z</time>
      </trkpt>
      <trkpt lat="42.5095630" lon="-8.6491710">
        <ele>113.1</ele>
        <time>2019-08-17T10:57:30Z</time>
      </trkpt>
      <trkpt lat="42.5096560" lon="-8.6491780">
        <ele>112.4</ele>
        <time>2019-08-17T10:57:31Z</time>
      </trkpt>
      <trkpt lat="42.5097630" lon="-8.6491690">
        <ele>111.6</ele>
        <time>2019-08-17T10:57:32Z</time>
      </trkpt>
      <trkpt lat="42.5098900" lon="-8.6491390">
        <ele>110.5</ele>
        <time>2019-08-17T10:57:33Z</time>
      </trkpt>
      <trkpt lat="42.5100130" lon="-8.6490990">
        <ele>109.4</ele>
        <time>2019-08-17T10:57:34Z</time>
      </trkpt>
      <trkpt lat="42.5101260" lon="-8.6490390">
        <ele>108.4</ele>
        <time>2019-08-17T10:57:35Z</time>
      </trkpt>
      <trkpt lat="42.5102330" lon="-8.6489700">
        <ele>107.3</ele>
        <time>2019-08-17T10:57:36Z</time>
      </trkpt>
      <trkpt lat="42.5103310" lon="-8.6488990">
        <ele>106.3</ele>
        <time>2019-08-17T10:57:37Z</time>
      </trkpt>
      <trkpt lat="42.5103990" lon="-8.6488040">
        <ele>105.5</ele>
        <time>2019-08-17T10:57:38Z</time>
      </trkpt>
      <trkpt lat="42.5105070" lon="-8.6487030">
        <ele>104.9</ele>
        <time>2019-08-17T10:57:40Z</time>
      </trkpt>
      <trkpt lat="42.5105460" lon="-8.6486900">
        <ele>104.9</ele>
        <time>2019-08-17T10:57:41Z</time>
      </trkpt>
      <trkpt lat="42.5105980" lon="-8.6487220">
        <ele>104.1</ele>
        <time>2019-08-17T10:57:42Z</time>
      </trkpt>
      <trkpt lat="42.5106390" lon="-8.6487530">
        <ele>102.8</ele>
        <time>2019-08-17T10:57:43Z</time>
      </trkpt>
      <trkpt lat="42.5106790" lon="-8.6488130">
        <ele>101.1</ele>
        <time>2019-08-17T10:57:44Z</time>
      </trkpt>
      <trkpt lat="42.5107420" lon="-8.6489660">
        <ele>97.9</ele>
        <time>2019-08-17T10:57:46Z</time>
      </trkpt>
      <trkpt lat="42.5107670" lon="-8.6490480">
        <ele>96.1</ele>
        <time>2019-08-17T10:57:47Z</time>
      </trkpt>
      <trkpt lat="42.5107830" lon="-8.6491480">
        <ele>94.5</ele>
        <time>2019-08-17T10:57:48Z</time>
      </trkpt>
      <trkpt lat="42.5108090" lon="-8.6492180">
        <ele>92.6</ele>
        <time>2019-08-17T10:57:49Z</time>
      </trkpt>
      <trkpt lat="42.5108330" lon="-8.6492840">
        <ele>91.6</ele>
        <time>2019-08-17T10:57:50Z</time>
      </trkpt>
      <trkpt lat="42.5108540" lon="-8.6493490">
        <ele>90.2</ele>
        <time>2019-08-17T10:57:51Z</time>
      </trkpt>
      <trkpt lat="42.5108800" lon="-8.6494210">
        <ele>88.7</ele>
        <time>2019-08-17T10:57:52Z</time>
      </trkpt>
      <trkpt lat="42.5108990" lon="-8.6494910">
        <ele>87.8</ele>
        <time>2019-08-17T10:57:53Z</time>
      </trkpt>
      <trkpt lat="42.5109210" lon="-8.6495650">
        <ele>86.6</ele>
        <time>2019-08-17T10:57:54Z</time>
      </trkpt>
      <trkpt lat="42.5109390" lon="-8.6496340">
        <ele>85.3</ele>
        <time>2019-08-17T10:57:55Z</time>
      </trkpt>
      <trkpt lat="42.5109690" lon="-8.6496930">
        <ele>84.5</ele>
        <time>2019-08-17T10:57:56Z</time>
      </trkpt>
      <trkpt lat="42.5110100" lon="-8.6497440">
        <ele>83.8</ele>
        <time>2019-08-17T10:57:57Z</time>
      </trkpt>
      <trkpt lat="42.5110560" lon="-8.6497900">
        <ele>83.0</ele>
        <time>2019-08-17T10:57:58Z</time>
      </trkpt>
      <trkpt lat="42.5111050" lon="-8.6498370">
        <ele>82.2</ele>
        <time>2019-08-17T10:57:59Z</time>
      </trkpt>
      <trkpt lat="42.5111510" lon="-8.6498860">
        <ele>81.4</ele>
        <time>2019-08-17T10:58:00Z</time>
      </trkpt>
      <trkpt lat="42.5111930" lon="-8.6499430">
        <ele>80.2</ele>
        <time>2019-08-17T10:58:01Z</time>
      </trkpt>
      <trkpt lat="42.5112340" lon="-8.6500050">
        <ele>79.5</ele>
        <time>2019-08-17T10:58:02Z</time>
      </trkpt>
      <trkpt lat="42.5112730" lon="-8.6500620">
        <ele>79.0</ele>
        <time>2019-08-17T10:58:03Z</time>
      </trkpt>
      <trkpt lat="42.5113250" lon="-8.6501230">
        <ele>78.3</ele>
        <time>2019-08-17T10:58:04Z</time>
      </trkpt>
      <trkpt lat="42.5113990" lon="-8.6501670">
        <ele>77.6</ele>
        <time>2019-08-17T10:58:05Z</time>
      </trkpt>
      <trkpt lat="42.5114890" lon="-8.6501900">
        <ele>76.6</ele>
        <time>2019-08-17T10:58:06Z</time>
      </trkpt>
      <trkpt lat="42.5115710" lon="-8.6502050">
        <ele>75.8</ele>
        <time>2019-08-17T10:58:07Z</time>
      </trkpt>
      <trkpt lat="42.5116750" lon="-8.6501780">
        <ele>74.8</ele>
        <time>2019-08-17T10:58:08Z</time>
      </trkpt>
      <trkpt lat="42.5117740" lon="-8.6501460">
        <ele>73.4</ele>
        <time>2019-08-17T10:58:09Z</time>
      </trkpt>
      <trkpt lat="42.5118760" lon="-8.6501150">
        <ele>72.1</ele>
        <time>2019-08-17T10:58:10Z</time>
      </trkpt>
      <trkpt lat="42.5119830" lon="-8.6500890">
        <ele>71.3</ele>
        <time>2019-08-17T10:58:11Z</time>
      </trkpt>
      <trkpt lat="42.5120960" lon="-8.6500640">
        <ele>70.4</ele>
        <time>2019-08-17T10:58:12Z</time>
      </trkpt>
      <trkpt lat="42.5122040" lon="-8.6500340">
        <ele>69.6</ele>
        <time>2019-08-17T10:58:13Z</time>
      </trkpt>
      <trkpt lat="42.5123110" lon="-8.6500150">
        <ele>68.8</ele>
        <time>2019-08-17T10:58:14Z</time>
      </trkpt>
      <trkpt lat="42.5124060" lon="-8.6500080">
        <ele>68.1</ele>
        <time>2019-08-17T10:58:15Z</time>
      </trkpt>
      <trkpt lat="42.5125030" lon="-8.6500200">
        <ele>67.5</ele>
        <time>2019-08-17T10:58:16Z</time>
      </trkpt>
      <trkpt lat="42.5126660" lon="-8.6500310">
        <ele>66.5</ele>
        <time>2019-08-17T10:58:18Z</time>
      </trkpt>
      <trkpt lat="42.5127620" lon="-8.6500030">
        <ele>66.1</ele>
        <time>2019-08-17T10:58:19Z</time>
      </trkpt>
      <trkpt lat="42.5128490" lon="-8.6499730">
        <ele>65.9</ele>
        <time>2019-08-17T10:58:20Z</time>
      </trkpt>
      <trkpt lat="42.5129430" lon="-8.6499330">
        <ele>65.8</ele>
        <time>2019-08-17T10:58:21Z</time>
      </trkpt>
      <trkpt lat="42.5130300" lon="-8.6498950">
        <ele>65.6</ele>
        <time>2019-08-17T10:58:22Z</time>
      </trkpt>
      <trkpt lat="42.5130990" lon="-8.6498620">
        <ele>65.6</ele>
        <time>2019-08-17T10:58:23Z</time>
      </trkpt>
      <trkpt lat="42.5132010" lon="-8.6497940">
        <ele>65.5</ele>
        <time>2019-08-17T10:58:25Z</time>
      </trkpt>
      <trkpt lat="42.5132350" lon="-8.6497510">
        <ele>65.5</ele>
        <time>2019-08-17T10:58:26Z</time>
      </trkpt>
      <trkpt lat="42.5132670" lon="-8.6496770">
        <ele>65.4</ele>
        <time>2019-08-17T10:58:28Z</time>
      </trkpt>
      <trkpt lat="42.5133260" lon="-8.6495980">
        <ele>65.4</ele>
        <time>2019-08-17T10:58:31Z</time>
      </trkpt>
      <trkpt lat="42.5133500" lon="-8.6495640">
        <ele>65.4</ele>
        <time>2019-08-17T10:58:32Z</time>
      </trkpt>
      <trkpt lat="42.5133760" lon="-8.6495320">
        <ele>65.4</ele>
        <time>2019-08-17T10:58:33Z</time>
      </trkpt>
      <trkpt lat="42.5134030" lon="-8.6494920">
        <ele>65.4</ele>
        <time>2019-08-17T10:58:34Z</time>
      </trkpt>
      <trkpt lat="42.5134310" lon="-8.6494500">
        <ele>65.4</ele>
        <time>2019-08-17T10:58:35Z</time>
      </trkpt>
      <trkpt lat="42.5136520" lon="-8.6491890">
        <ele>65.4</ele>
        <time>2019-08-17T10:58:42Z</time>
      </trkpt>
      <trkpt lat="42.5138480" lon="-8.6490510">
        <ele>65.4</ele>
        <time>2019-08-17T10:58:47Z</time>
      </trkpt>
      <trkpt lat="42.5139450" lon="-8.6490110">
        <ele>65.4</ele>
        <time>2019-08-17T10:58:49Z</time>
      </trkpt>
      <trkpt lat="42.5143790" lon="-8.6487820">
        <ele>65.4</ele>
        <time>2019-08-17T10:58:58Z</time>
      </trkpt>
      <trkpt lat="42.5145890" lon="-8.6486650">
        <ele>65.7</ele>
        <time>2019-08-17T10:59:02Z</time>
      </trkpt>
      <trkpt lat="42.5146400" lon="-8.6486420">
        <ele>65.7</ele>
        <time>2019-08-17T10:59:03Z</time>
      </trkpt>
      <trkpt lat="42.5146850" lon="-8.6486240">
        <ele>65.8</ele>
        <time>2019-08-17T10:59:04Z</time>
      </trkpt>
      <trkpt lat="42.5147380" lon="-8.6486150">
        <ele>65.9</ele>
        <time>2019-08-17T10:59:05Z</time>
      </trkpt>
      <trkpt lat="42.5147850" lon="-8.6486020">
        <ele>66.0</ele>
        <time>2019-08-17T10:59:06Z</time>
      </trkpt>
      <trkpt lat="42.5148220" lon="-8.6485860">
        <ele>66.1</ele>
        <time>2019-08-17T10:59:07Z</time>
      </trkpt>
      <trkpt lat="42.5148910" lon="-8.6485550">
        <ele>66.3</ele>
        <time>2019-08-17T10:59:09Z</time>
      </trkpt>
      <trkpt lat="42.5150560" lon="-8.6484800">
        <ele>67.2</ele>
        <time>2019-08-17T10:59:13Z</time>
      </trkpt>
      <trkpt lat="42.5154210" lon="-8.6482930">
        <ele>66.1</ele>
        <time>2019-08-17T10:59:20Z</time>
      </trkpt>
      <trkpt lat="42.5158000" lon="-8.6480640">
        <ele>65.8</ele>
        <time>2019-08-17T10:59:26Z</time>
      </trkpt>
      <trkpt lat="42.5158640" lon="-8.6480140">
        <ele>65.8</ele>
        <time>2019-08-17T10:59:27Z</time>
      </trkpt>
      <trkpt lat="42.5159310" lon="-8.6479580">
        <ele>65.8</ele>
        <time>2019-08-17T10:59:28Z</time>
      </trkpt>
      <trkpt lat="42.5160090" lon="-8.6479010">
        <ele>65.8</ele>
        <time>2019-08-17T10:59:29Z</time>
      </trkpt>
      <trkpt lat="42.5160830" lon="-8.6478620">
        <ele>65.8</ele>
        <time>2019-08-17T10:59:30Z</time>
      </trkpt>
      <trkpt lat="42.5162300" lon="-8.6477770">
        <ele>65.8</ele>
        <time>2019-08-17T10:59:32Z</time>
      </trkpt>
      <trkpt lat="42.5164510" lon="-8.6476280">
        <ele>65.8</ele>
        <time>2019-08-17T10:59:35Z</time>
      </trkpt>
      <trkpt lat="42.5165380" lon="-8.6475850">
        <ele>65.8</ele>
        <time>2019-08-17T10:59:36Z</time>
      </trkpt>
      <trkpt lat="42.5166210" lon="-8.6475530">
        <ele>65.8</ele>
        <time>2019-08-17T10:59:37Z</time>
      </trkpt>
      <trkpt lat="42.5166960" lon="-8.6475320">
        <ele>65.8</ele>
        <time>2019-08-17T10:59:38Z</time>
      </trkpt>
      <trkpt lat="42.5167550" lon="-8.6475100">
        <ele>65.8</ele>
        <time>2019-08-17T10:59:39Z</time>
      </trkpt>
      <trkpt lat="42.5168170" lon="-8.6474850">
        <ele>65.8</ele>
        <time>2019-08-17T10:59:40Z</time>
      </trkpt>
      <trkpt lat="42.5168820" lon="-8.6474570">
        <ele>65.8</ele>
        <time>2019-08-17T10:59:41Z</time>
      </trkpt>
      <trkpt lat="42.5169190" lon="-8.6474290">
        <ele>65.8</ele>
        <time>2019-08-17T10:59:43Z</time>
      </trkpt>
      <trkpt lat="42.5169560" lon="-8.6474000">
        <ele>65.8</ele>
        <time>2019-08-17T10:59:44Z</time>
      </trkpt>
      <trkpt lat="42.5174010" lon="-8.6470550">
        <ele>65.3</ele>
        <time>2019-08-17T10:59:50Z</time>
      </trkpt>
      <trkpt lat="42.5176780" lon="-8.6467880">
        <ele>64.8</ele>
        <time>2019-08-17T10:59:55Z</time>
      </trkpt>
      <trkpt lat="42.5177170" lon="-8.6467180">
        <ele>64.6</ele>
        <time>2019-08-17T10:59:56Z</time>
      </trkpt>
      <trkpt lat="42.5179310" lon="-8.6463850">
        <ele>63.5</ele>
        <time>2019-08-17T11:00:01Z</time>
      </trkpt>
      <trkpt lat="42.5179820" lon="-8.6463230">
        <ele>63.2</ele>
        <time>2019-08-17T11:00:02Z</time>
      </trkpt>
      <trkpt lat="42.5180360" lon="-8.6462610">
        <ele>62.9</ele>
        <time>2019-08-17T11:00:03Z</time>
      </trkpt>
      <trkpt lat="42.5180830" lon="-8.6461920">
        <ele>62.6</ele>
        <time>2019-08-17T11:00:04Z</time>
      </trkpt>
      <trkpt lat="42.5181250" lon="-8.6461050">
        <ele>62.3</ele>
        <time>2019-08-17T11:00:05Z</time>
      </trkpt>
      <trkpt lat="42.5181970" lon="-8.6459170">
        <ele>62.0</ele>
        <time>2019-08-17T11:00:07Z</time>
      </trkpt>
      <trkpt lat="42.5183420" lon="-8.6455590">
        <ele>62.0</ele>
        <time>2019-08-17T11:00:11Z</time>
      </trkpt>
      <trkpt lat="42.5184410" lon="-8.6454450">
        <ele>62.0</ele>
        <time>2019-08-17T11:00:13Z</time>
      </trkpt>
      <trkpt lat="42.5186150" lon="-8.6453630">
        <ele>62.3</ele>
        <time>2019-08-17T11:00:16Z</time>
      </trkpt>
      <trkpt lat="42.5186530" lon="-8.6453490">
        <ele>62.4</ele>
        <time>2019-08-17T11:00:17Z</time>
      </trkpt>
      <trkpt lat="42.5186810" lon="-8.6453420">
        <ele>62.4</ele>
        <time>2019-08-17T11:00:18Z</time>
      </trkpt>
      <trkpt lat="42.5187000" lon="-8.6453410">
        <ele>62.4</ele>
        <time>2019-08-17T11:00:19Z</time>
      </trkpt>
      <trkpt lat="42.5187170" lon="-8.6453450">
        <ele>62.5</ele>
        <time>2019-08-17T11:00:20Z</time>
      </trkpt>
      <trkpt lat="42.5187370" lon="-8.6453530">
        <ele>62.5</ele>
        <time>2019-08-17T11:00:21Z</time>
      </trkpt>
      <trkpt lat="42.5188740" lon="-8.6453370">
        <ele>62.7</ele>
        <time>2019-08-17T11:00:27Z</time>
      </trkpt>
      <trkpt lat="42.5190540" lon="-8.6453700">
        <ele>62.9</ele>
        <time>2019-08-17T11:00:32Z</time>
      </trkpt>
      <trkpt lat="42.5190990" lon="-8.6453770">
        <ele>62.9</ele>
        <time>2019-08-17T11:00:33Z</time>
      </trkpt>
      <trkpt lat="42.5191460" lon="-8.6453800">
        <ele>62.9</ele>
        <time>2019-08-17T11:00:34Z</time>
      </trkpt>
      <trkpt lat="42.5191950" lon="-8.6453830">
        <ele>62.9</ele>
        <time>2019-08-17T11:00:35Z</time>
      </trkpt>
      <trkpt lat="42.5192450" lon="-8.6453810">
        <ele>63.0</ele>
        <time>2019-08-17T11:00:36Z</time>
      </trkpt>
      <trkpt lat="42.5192980" lon="-8.6453780">
        <ele>63.0</ele>
        <time>2019-08-17T11:00:37Z</time>
      </trkpt>
      <trkpt lat="42.5193530" lon="-8.6453800">
        <ele>63.0</ele>
        <time>2019-08-17T11:00:38Z</time>
      </trkpt>
      <trkpt lat="42.5194110" lon="-8.6453840">
        <ele>63.0</ele>
        <time>2019-08-17T11:00:39Z</time>
      </trkpt>
      <trkpt lat="42.5195920" lon="-8.6454030">
        <ele>63.1</ele>
        <time>2019-08-17T11:00:42Z</time>
      </trkpt>
      <trkpt lat="42.5196550" lon="-8.6453990">
        <ele>63.1</ele>
        <time>2019-08-17T11:00:43Z</time>
      </trkpt>
      <trkpt lat="42.5197210" lon="-8.6453890">
        <ele>63.2</ele>
        <time>2019-08-17T11:00:44Z</time>
      </trkpt>
      <trkpt lat="42.5197840" lon="-8.6453630">
        <ele>63.2</ele>
        <time>2019-08-17T11:00:45Z</time>
      </trkpt>
      <trkpt lat="42.5198430" lon="-8.6453280">
        <ele>63.3</ele>
        <time>2019-08-17T11:00:46Z</time>
      </trkpt>
      <trkpt lat="42.5198970" lon="-8.6452880">
        <ele>63.4</ele>
        <time>2019-08-17T11:00:47Z</time>
      </trkpt>
      <trkpt lat="42.5200900" lon="-8.6450730">
        <ele>63.7</ele>
        <time>2019-08-17T11:00:51Z</time>
      </trkpt>
      <trkpt lat="42.5201310" lon="-8.6450090">
        <ele>63.8</ele>
        <time>2019-08-17T11:00:52Z</time>
      </trkpt>
      <trkpt lat="42.5202220" lon="-8.6448820">
        <ele>64.0</ele>
        <time>2019-08-17T11:00:54Z</time>
      </trkpt>
      <trkpt lat="42.5202760" lon="-8.6448220">
        <ele>64.1</ele>
        <time>2019-08-17T11:00:55Z</time>
      </trkpt>
      <trkpt lat="42.5203350" lon="-8.6447640">
        <ele>64.1</ele>
        <time>2019-08-17T11:00:56Z</time>
      </trkpt>
      <trkpt lat="42.5204030" lon="-8.6447120">
        <ele>64.2</ele>
        <time>2019-08-17T11:00:57Z</time>
      </trkpt>
      <trkpt lat="42.5204730" lon="-8.6446720">
        <ele>64.3</ele>
        <time>2019-08-17T11:00:58Z</time>
      </trkpt>
      <trkpt lat="42.5206300" lon="-8.6446080">
        <ele>64.5</ele>
        <time>2019-08-17T11:01:00Z</time>
      </trkpt>
      <trkpt lat="42.5207070" lon="-8.6445950">
        <ele>64.6</ele>
        <time>2019-08-17T11:01:01Z</time>
      </trkpt>
      <trkpt lat="42.5207860" lon="-8.6445890">
        <ele>64.6</ele>
        <time>2019-08-17T11:01:02Z</time>
      </trkpt>
      <trkpt lat="42.5208590" lon="-8.6445960">
        <ele>64.7</ele>
        <time>2019-08-17T11:01:03Z</time>
      </trkpt>
      <trkpt lat="42.5209340" lon="-8.6446200">
        <ele>64.8</ele>
        <time>2019-08-17T11:01:04Z</time>
      </trkpt>
      <trkpt lat="42.5209930" lon="-8.6446650">
        <ele>64.9</ele>
        <time>2019-08-17T11:01:05Z</time>
      </trkpt>
      <trkpt lat="42.5211020" lon="-8.6447820">
        <ele>65.1</ele>
        <time>2019-08-17T11:01:07Z</time>
      </trkpt>
      <trkpt lat="42.5212620" lon="-8.6449400">
        <ele>65.4</ele>
        <time>2019-08-17T11:01:10Z</time>
      </trkpt>
      <trkpt lat="42.5214770" lon="-8.6450580">
        <ele>65.8</ele>
        <time>2019-08-17T11:01:14Z</time>
      </trkpt>
      <trkpt lat="42.5215350" lon="-8.6450700">
        <ele>66.0</ele>
        <time>2019-08-17T11:01:15Z</time>
      </trkpt>
      <trkpt lat="42.5219480" lon="-8.6451170">
        <ele>67.7</ele>
        <time>2019-08-17T11:01:22Z</time>
      </trkpt>
      <trkpt lat="42.5220180" lon="-8.6451350">
        <ele>68.1</ele>
        <time>2019-08-17T11:01:23Z</time>
      </trkpt>
      <trkpt lat="42.5220910" lon="-8.6451540">
        <ele>68.4</ele>
        <time>2019-08-17T11:01:24Z</time>
      </trkpt>
      <trkpt lat="42.5221620" lon="-8.6451730">
        <ele>68.8</ele>
        <time>2019-08-17T11:01:25Z</time>
      </trkpt>
      <trkpt lat="42.5222350" lon="-8.6451970">
        <ele>69.1</ele>
        <time>2019-08-17T11:01:26Z</time>
      </trkpt>
      <trkpt lat="42.5223100" lon="-8.6452240">
        <ele>69.4</ele>
        <time>2019-08-17T11:01:27Z</time>
      </trkpt>
      <trkpt lat="42.5223830" lon="-8.6452600">
        <ele>69.7</ele>
        <time>2019-08-17T11:01:28Z</time>
      </trkpt>
      <trkpt lat="42.5224550" lon="-8.6453010">
        <ele>70.1</ele>
        <time>2019-08-17T11:01:29Z</time>
      </trkpt>
      <trkpt lat="42.5225270" lon="-8.6453490">
        <ele>70.4</ele>
        <time>2019-08-17T11:01:30Z</time>
      </trkpt>
      <trkpt lat="42.5225970" lon="-8.6454020">
        <ele>70.7</ele>
        <time>2019-08-17T11:01:31Z</time>
      </trkpt>
      <trkpt lat="42.5226610" lon="-8.6454540">
        <ele>71.0</ele>
        <time>2019-08-17T11:01:32Z</time>
      </trkpt>
      <trkpt lat="42.5227210" lon="-8.6455090">
        <ele>71.3</ele>
        <time>2019-08-17T11:01:33Z</time>
      </trkpt>
      <trkpt lat="42.5227800" lon="-8.6455510">
        <ele>71.6</ele>
        <time>2019-08-17T11:01:34Z</time>
      </trkpt>
      <trkpt lat="42.5228380" lon="-8.6455880">
        <ele>71.8</ele>
        <time>2019-08-17T11:01:35Z</time>
      </trkpt>
      <trkpt lat="42.5228980" lon="-8.6456200">
        <ele>72.0</ele>
        <time>2019-08-17T11:01:36Z</time>
      </trkpt>
      <trkpt lat="42.5230360" lon="-8.6456560">
        <ele>72.5</ele>
        <time>2019-08-17T11:01:38Z</time>
      </trkpt>
      <trkpt lat="42.5231120" lon="-8.6456670">
        <ele>72.7</ele>
        <time>2019-08-17T11:01:39Z</time>
      </trkpt>
      <trkpt lat="42.5231870" lon="-8.6456840">
        <ele>72.9</ele>
        <time>2019-08-17T11:01:40Z</time>
      </trkpt>
      <trkpt lat="42.5232540" lon="-8.6457160">
        <ele>73.0</ele>
        <time>2019-08-17T11:01:41Z</time>
      </trkpt>
      <trkpt lat="42.5233050" lon="-8.6457570">
        <ele>73.1</ele>
        <time>2019-08-17T11:01:42Z</time>
      </trkpt>
      <trkpt lat="42.5233500" lon="-8.6458120">
        <ele>73.2</ele>
        <time>2019-08-17T11:01:43Z</time>
      </trkpt>
      <trkpt lat="42.5233810" lon="-8.6458740">
        <ele>73.3</ele>
        <time>2019-08-17T11:01:44Z</time>
      </trkpt>
      <trkpt lat="42.5234090" lon="-8.6459360">
        <ele>73.3</ele>
        <time>2019-08-17T11:01:45Z</time>
      </trkpt>
      <trkpt lat="42.5234320" lon="-8.6459920">
        <ele>73.4</ele>
        <time>2019-08-17T11:01:46Z</time>
      </trkpt>
      <trkpt lat="42.5234510" lon="-8.6460500">
        <ele>73.4</ele>
        <time>2019-08-17T11:01:47Z</time>
      </trkpt>
      <trkpt lat="42.5234620" lon="-8.6461100">
        <ele>73.4</ele>
        <time>2019-08-17T11:01:48Z</time>
      </trkpt>
      <trkpt lat="42.5234660" lon="-8.6461640">
        <ele>73.4</ele>
        <time>2019-08-17T11:01:49Z</time>
      </trkpt>
      <trkpt lat="42.5234610" lon="-8.6462180">
        <ele>73.4</ele>
        <time>2019-08-17T11:01:50Z</time>
      </trkpt>
      <trkpt lat="42.5234480" lon="-8.6462690">
        <ele>73.5</ele>
        <time>2019-08-17T11:01:51Z</time>
      </trkpt>
      <trkpt lat="42.5234300" lon="-8.6463200">
        <ele>73.5</ele>
        <time>2019-08-17T11:01:52Z</time>
      </trkpt>
      <trkpt lat="42.5234130" lon="-8.6463660">
        <ele>73.5</ele>
        <time>2019-08-17T11:01:53Z</time>
      </trkpt>
      <trkpt lat="42.5233950" lon="-8.6464150">
        <ele>73.5</ele>
        <time>2019-08-17T11:01:54Z</time>
      </trkpt>
      <trkpt lat="42.5233750" lon="-8.6465110">
        <ele>73.5</ele>
        <time>2019-08-17T11:01:56Z</time>
      </trkpt>
      <trkpt lat="42.5233720" lon="-8.6465520">
        <ele>73.5</ele>
        <time>2019-08-17T11:01:57Z</time>
      </trkpt>
      <trkpt lat="42.5233810" lon="-8.6465910">
        <ele>73.5</ele>
        <time>2019-08-17T11:01:58Z</time>
      </trkpt>
      <trkpt lat="42.5234520" lon="-8.6466480">
        <ele>73.2</ele>
        <time>2019-08-17T11:02:02Z</time>
      </trkpt>
      <trkpt lat="42.5235050" lon="-8.6466130">
        <ele>72.9</ele>
        <time>2019-08-17T11:02:04Z</time>
      </trkpt>
      <trkpt lat="42.5236150" lon="-8.6465340">
        <ele>72.4</ele>
        <time>2019-08-17T11:02:08Z</time>
      </trkpt>
      <trkpt lat="42.5238570" lon="-8.6464100">
        <ele>71.1</ele>
        <time>2019-08-17T11:02:16Z</time>
      </trkpt>
      <trkpt lat="42.5240230" lon="-8.6464220">
        <ele>70.1</ele>
        <time>2019-08-17T11:02:21Z</time>
      </trkpt>
      <trkpt lat="42.5241050" lon="-8.6464360">
        <ele>69.4</ele>
        <time>2019-08-17T11:02:23Z</time>
      </trkpt>
      <trkpt lat="42.5241510" lon="-8.6464460">
        <ele>69.0</ele>
        <time>2019-08-17T11:02:24Z</time>
      </trkpt>
      <trkpt lat="42.5241980" lon="-8.6464590">
        <ele>68.7</ele>
        <time>2019-08-17T11:02:25Z</time>
      </trkpt>
      <trkpt lat="42.5242480" lon="-8.6464750">
        <ele>68.4</ele>
        <time>2019-08-17T11:02:26Z</time>
      </trkpt>
      <trkpt lat="42.5242990" lon="-8.6464910">
        <ele>68.0</ele>
        <time>2019-08-17T11:02:27Z</time>
      </trkpt>
      <trkpt lat="42.5244050" lon="-8.6465210">
        <ele>67.4</ele>
        <time>2019-08-17T11:02:29Z</time>
      </trkpt>
      <trkpt lat="42.5244490" lon="-8.6465200">
        <ele>67.2</ele>
        <time>2019-08-17T11:02:30Z</time>
      </trkpt>
      <trkpt lat="42.5244890" lon="-8.6464940">
        <ele>66.7</ele>
        <time>2019-08-17T11:02:31Z</time>
      </trkpt>
      <trkpt lat="42.5245190" lon="-8.6464450">
        <ele>66.4</ele>
        <time>2019-08-17T11:02:32Z</time>
      </trkpt>
      <trkpt lat="42.5245260" lon="-8.6463770">
        <ele>66.1</ele>
        <time>2019-08-17T11:02:33Z</time>
      </trkpt>
      <trkpt lat="42.5245340" lon="-8.6462290">
        <ele>65.5</ele>
        <time>2019-08-17T11:02:35Z</time>
      </trkpt>
      <trkpt lat="42.5245420" lon="-8.6461560">
        <ele>65.2</ele>
        <time>2019-08-17T11:02:36Z</time>
      </trkpt>
      <trkpt lat="42.5245580" lon="-8.6460870">
        <ele>65.0</ele>
        <time>2019-08-17T11:02:37Z</time>
      </trkpt>
      <trkpt lat="42.5245860" lon="-8.6460260">
        <ele>64.9</ele>
        <time>2019-08-17T11:02:38Z</time>
      </trkpt>
      <trkpt lat="42.5246260" lon="-8.6459720">
        <ele>64.7</ele>
        <time>2019-08-17T11:02:39Z</time>
      </trkpt>
      <trkpt lat="42.5247920" lon="-8.6458650">
        <ele>64.2</ele>
        <time>2019-08-17T11:02:42Z</time>
      </trkpt>
      <trkpt lat="42.5248510" lon="-8.6458360">
        <ele>64.0</ele>
        <time>2019-08-17T11:02:43Z</time>
      </trkpt>
      <trkpt lat="42.5249080" lon="-8.6458050">
        <ele>63.9</ele>
        <time>2019-08-17T11:02:44Z</time>
      </trkpt>
      <trkpt lat="42.5249660" lon="-8.6457710">
        <ele>63.8</ele>
        <time>2019-08-17T11:02:45Z</time>
      </trkpt>
      <trkpt lat="42.5250230" lon="-8.6457380">
        <ele>63.7</ele>
        <time>2019-08-17T11:02:46Z</time>
      </trkpt>
      <trkpt lat="42.5251940" lon="-8.6456400">
        <ele>63.5</ele>
        <time>2019-08-17T11:02:49Z</time>
      </trkpt>
      <trkpt lat="42.5255840" lon="-8.6453430">
        <ele>63.2</ele>
        <time>2019-08-17T11:02:57Z</time>
      </trkpt>
      <trkpt lat="42.5257910" lon="-8.6451040">
        <ele>63.5</ele>
        <time>2019-08-17T11:03:02Z</time>
      </trkpt>
      <trkpt lat="42.5258730" lon="-8.6450050">
        <ele>63.7</ele>
        <time>2019-08-17T11:03:04Z</time>
      </trkpt>
      <trkpt lat="42.5260990" lon="-8.6448130">
        <ele>64.4</ele>
        <time>2019-08-17T11:03:10Z</time>
      </trkpt>
      <trkpt lat="42.5261670" lon="-8.6447650">
        <ele>64.6</ele>
        <time>2019-08-17T11:03:15Z</time>
      </trkpt>
      <trkpt lat="42.5261650" lon="-8.6447670">
        <ele>64.6</ele>
        <time>2019-08-17T11:03:50Z</time>
      </trkpt>
      <trkpt lat="42.5262350" lon="-8.6447540">
        <ele>64.7</ele>
        <time>2019-08-17T11:03:53Z</time>
      </trkpt>
      <trkpt lat="42.5264580" lon="-8.6447000">
        <ele>64.8</ele>
        <time>2019-08-17T11:03:59Z</time>
      </trkpt>
      <trkpt lat="42.5265160" lon="-8.6447300">
        <ele>64.7</ele>
        <time>2019-08-17T11:04:01Z</time>
      </trkpt>
      <trkpt lat="42.5265400" lon="-8.6447700">
        <ele>64.6</ele>
        <time>2019-08-17T11:04:02Z</time>
      </trkpt>
      <trkpt lat="42.5265930" lon="-8.6449470">
        <ele>63.9</ele>
        <time>2019-08-17T11:04:05Z</time>
      </trkpt>
      <trkpt lat="42.5266250" lon="-8.6450010">
        <ele>63.6</ele>
        <time>2019-08-17T11:04:06Z</time>
      </trkpt>
      <trkpt lat="42.5268040" lon="-8.6450300">
        <ele>62.2</ele>
        <time>2019-08-17T11:04:09Z</time>
      </trkpt>
      <trkpt lat="42.5268680" lon="-8.6450210">
        <ele>61.6</ele>
        <time>2019-08-17T11:04:10Z</time>
      </trkpt>
      <trkpt lat="42.5269330" lon="-8.6450130">
        <ele>61.0</ele>
        <time>2019-08-17T11:04:11Z</time>
      </trkpt>
      <trkpt lat="42.5269970" lon="-8.6450100">
        <ele>60.6</ele>
        <time>2019-08-17T11:04:12Z</time>
      </trkpt>
      <trkpt lat="42.5270680" lon="-8.6450090">
        <ele>60.2</ele>
        <time>2019-08-17T11:04:13Z</time>
      </trkpt>
      <trkpt lat="42.5271420" lon="-8.6450130">
        <ele>59.7</ele>
        <time>2019-08-17T11:04:14Z</time>
      </trkpt>
      <trkpt lat="42.5272200" lon="-8.6450230">
        <ele>59.1</ele>
        <time>2019-08-17T11:04:15Z</time>
      </trkpt>
      <trkpt lat="42.5273000" lon="-8.6450400">
        <ele>58.4</ele>
        <time>2019-08-17T11:04:16Z</time>
      </trkpt>
      <trkpt lat="42.5273860" lon="-8.6450590">
        <ele>57.8</ele>
        <time>2019-08-17T11:04:17Z</time>
      </trkpt>
      <trkpt lat="42.5274720" lon="-8.6450750">
        <ele>57.3</ele>
        <time>2019-08-17T11:04:18Z</time>
      </trkpt>
      <trkpt lat="42.5275620" lon="-8.6450980">
        <ele>56.8</ele>
        <time>2019-08-17T11:04:19Z</time>
      </trkpt>
      <trkpt lat="42.5276540" lon="-8.6451260">
        <ele>56.2</ele>
        <time>2019-08-17T11:04:20Z</time>
      </trkpt>
      <trkpt lat="42.5277450" lon="-8.6451460">
        <ele>55.8</ele>
        <time>2019-08-17T11:04:21Z</time>
      </trkpt>
      <trkpt lat="42.5278380" lon="-8.6451630">
        <ele>55.3</ele>
        <time>2019-08-17T11:04:22Z</time>
      </trkpt>
      <trkpt lat="42.5279300" lon="-8.6451810">
        <ele>54.9</ele>
        <time>2019-08-17T11:04:23Z</time>
      </trkpt>
      <trkpt lat="42.5280240" lon="-8.6451980">
        <ele>54.5</ele>
        <time>2019-08-17T11:04:24Z</time>
      </trkpt>
      <trkpt lat="42.5281120" lon="-8.6452150">
        <ele>54.2</ele>
        <time>2019-08-17T11:04:25Z</time>
      </trkpt>
      <trkpt lat="42.5281900" lon="-8.6452400">
        <ele>53.9</ele>
        <time>2019-08-17T11:04:26Z</time>
      </trkpt>
      <trkpt lat="42.5282520" lon="-8.6452770">
        <ele>53.7</ele>
        <time>2019-08-17T11:04:27Z</time>
      </trkpt>
      <trkpt lat="42.5283080" lon="-8.6453150">
        <ele>53.5</ele>
        <time>2019-08-17T11:04:28Z</time>
      </trkpt>
      <trkpt lat="42.5283480" lon="-8.6453660">
        <ele>53.3</ele>
        <time>2019-08-17T11:04:29Z</time>
      </trkpt>
      <trkpt lat="42.5283770" lon="-8.6454240">
        <ele>53.1</ele>
        <time>2019-08-17T11:04:30Z</time>
      </trkpt>
      <trkpt lat="42.5284070" lon="-8.6454870">
        <ele>53.0</ele>
        <time>2019-08-17T11:04:31Z</time>
      </trkpt>
      <trkpt lat="42.5284360" lon="-8.6455440">
        <ele>52.9</ele>
        <time>2019-08-17T11:04:32Z</time>
      </trkpt>
      <trkpt lat="42.5284560" lon="-8.6456070">
        <ele>52.7</ele>
        <time>2019-08-17T11:04:33Z</time>
      </trkpt>
      <trkpt lat="42.5284790" lon="-8.6457500">
        <ele>52.5</ele>
        <time>2019-08-17T11:04:35Z</time>
      </trkpt>
      <trkpt lat="42.5285070" lon="-8.6460670">
        <ele>51.8</ele>
        <time>2019-08-17T11:04:39Z</time>
      </trkpt>
      <trkpt lat="42.5286060" lon="-8.6462710">
        <ele>51.2</ele>
        <time>2019-08-17T11:04:42Z</time>
      </trkpt>
      <trkpt lat="42.5286580" lon="-8.6463230">
        <ele>51.0</ele>
        <time>2019-08-17T11:04:43Z</time>
      </trkpt>
      <trkpt lat="42.5287180" lon="-8.6463620">
        <ele>50.8</ele>
        <time>2019-08-17T11:04:44Z</time>
      </trkpt>
      <trkpt lat="42.5287790" lon="-8.6463890">
        <ele>50.7</ele>
        <time>2019-08-17T11:04:45Z</time>
      </trkpt>
      <trkpt lat="42.5288390" lon="-8.6464110">
        <ele>50.6</ele>
        <time>2019-08-17T11:04:46Z</time>
      </trkpt>
      <trkpt lat="42.5289080" lon="-8.6464230">
        <ele>50.5</ele>
        <time>2019-08-17T11:04:47Z</time>
      </trkpt>
      <trkpt lat="42.5292120" lon="-8.6465050">
        <ele>50.3</ele>
        <time>2019-08-17T11:04:52Z</time>
      </trkpt>
      <trkpt lat="42.5295360" lon="-8.6465830">
        <ele>49.8</ele>
        <time>2019-08-17T11:04:56Z</time>
      </trkpt>
      <trkpt lat="42.5297390" lon="-8.6465860">
        <ele>49.3</ele>
        <time>2019-08-17T11:04:58Z</time>
      </trkpt>
      <trkpt lat="42.5298510" lon="-8.6465970">
        <ele>49.1</ele>
        <time>2019-08-17T11:04:59Z</time>
      </trkpt>
      <trkpt lat="42.5299630" lon="-8.6466120">
        <ele>48.8</ele>
        <time>2019-08-17T11:05:00Z</time>
      </trkpt>
      <trkpt lat="42.5300750" lon="-8.6466380">
        <ele>48.6</ele>
        <time>2019-08-17T11:05:01Z</time>
      </trkpt>
      <trkpt lat="42.5301900" lon="-8.6466650">
        <ele>48.1</ele>
        <time>2019-08-17T11:05:02Z</time>
      </trkpt>
      <trkpt lat="42.5305440" lon="-8.6466840">
        <ele>47.2</ele>
        <time>2019-08-17T11:05:05Z</time>
      </trkpt>
      <trkpt lat="42.5308710" lon="-8.6465710">
        <ele>46.5</ele>
        <time>2019-08-17T11:05:08Z</time>
      </trkpt>
      <trkpt lat="42.5309750" lon="-8.6465270">
        <ele>46.2</ele>
        <time>2019-08-17T11:05:09Z</time>
      </trkpt>
      <trkpt lat="42.5310750" lon="-8.6464830">
        <ele>46.0</ele>
        <time>2019-08-17T11:05:10Z</time>
      </trkpt>
      <trkpt lat="42.5311780" lon="-8.6464410">
        <ele>45.9</ele>
        <time>2019-08-17T11:05:11Z</time>
      </trkpt>
      <trkpt lat="42.5312850" lon="-8.6463970">
        <ele>45.8</ele>
        <time>2019-08-17T11:05:12Z</time>
      </trkpt>
      <trkpt lat="42.5313890" lon="-8.6463550">
        <ele>45.6</ele>
        <time>2019-08-17T11:05:13Z</time>
      </trkpt>
      <trkpt lat="42.5314950" lon="-8.6463160">
        <ele>45.5</ele>
        <time>2019-08-17T11:05:14Z</time>
      </trkpt>
      <trkpt lat="42.5316000" lon="-8.6462890">
        <ele>45.4</ele>
        <time>2019-08-17T11:05:15Z</time>
      </trkpt>
      <trkpt lat="42.5317030" lon="-8.6462670">
        <ele>45.3</ele>
        <time>2019-08-17T11:05:16Z</time>
      </trkpt>
      <trkpt lat="42.5318090" lon="-8.6462460">
        <ele>45.1</ele>
        <time>2019-08-17T11:05:17Z</time>
      </trkpt>
      <trkpt lat="42.5319080" lon="-8.6462370">
        <ele>45.0</ele>
        <time>2019-08-17T11:05:18Z</time>
      </trkpt>
      <trkpt lat="42.5321090" lon="-8.6462350">
        <ele>44.7</ele>
        <time>2019-08-17T11:05:20Z</time>
      </trkpt>
      <trkpt lat="42.5324360" lon="-8.6462230">
        <ele>44.3</ele>
        <time>2019-08-17T11:05:24Z</time>
      </trkpt>
      <trkpt lat="42.5325460" lon="-8.6462010">
        <ele>44.0</ele>
        <time>2019-08-17T11:05:26Z</time>
      </trkpt>
      <trkpt lat="42.5325840" lon="-8.6461840">
        <ele>43.9</ele>
        <time>2019-08-17T11:05:27Z</time>
      </trkpt>
      <trkpt lat="42.5328270" lon="-8.6460740">
        <ele>43.6</ele>
        <time>2019-08-17T11:05:34Z</time>
      </trkpt>
      <trkpt lat="42.5328650" lon="-8.6460410">
        <ele>43.5</ele>
        <time>2019-08-17T11:05:35Z</time>
      </trkpt>
      <trkpt lat="42.5329100" lon="-8.6460050">
        <ele>43.5</ele>
        <time>2019-08-17T11:05:36Z</time>
      </trkpt>
      <trkpt lat="42.5329580" lon="-8.6459670">
        <ele>43.4</ele>
        <time>2019-08-17T11:05:37Z</time>
      </trkpt>
      <trkpt lat="42.5330120" lon="-8.6459240">
        <ele>43.3</ele>
        <time>2019-08-17T11:05:38Z</time>
      </trkpt>
      <trkpt lat="42.5330720" lon="-8.6458810">
        <ele>43.2</ele>
        <time>2019-08-17T11:05:39Z</time>
      </trkpt>
      <trkpt lat="42.5331270" lon="-8.6458370">
        <ele>43.1</ele>
        <time>2019-08-17T11:05:40Z</time>
      </trkpt>
      <trkpt lat="42.5333680" lon="-8.6456780">
        <ele>42.7</ele>
        <time>2019-08-17T11:05:44Z</time>
      </trkpt>
      <trkpt lat="42.5338170" lon="-8.6455160">
        <ele>42.3</ele>
        <time>2019-08-17T11:05:50Z</time>
      </trkpt>
      <trkpt lat="42.5342630" lon="-8.6454450">
        <ele>41.6</ele>
        <time>2019-08-17T11:05:55Z</time>
      </trkpt>
      <trkpt lat="42.5347060" lon="-8.6454320">
        <ele>40.9</ele>
        <time>2019-08-17T11:06:00Z</time>
      </trkpt>
      <trkpt lat="42.5347940" lon="-8.6454370">
        <ele>41.0</ele>
        <time>2019-08-17T11:06:01Z</time>
      </trkpt>
      <trkpt lat="42.5348800" lon="-8.6454450">
        <ele>41.2</ele>
        <time>2019-08-17T11:06:02Z</time>
      </trkpt>
      <trkpt lat="42.5349610" lon="-8.6454550">
        <ele>41.3</ele>
        <time>2019-08-17T11:06:03Z</time>
      </trkpt>
      <trkpt lat="42.5350460" lon="-8.6454700">
        <ele>41.4</ele>
        <time>2019-08-17T11:06:04Z</time>
      </trkpt>
      <trkpt lat="42.5351240" lon="-8.6454980">
        <ele>41.5</ele>
        <time>2019-08-17T11:06:05Z</time>
      </trkpt>
      <trkpt lat="42.5352740" lon="-8.6455600">
        <ele>42.2</ele>
        <time>2019-08-17T11:06:07Z</time>
      </trkpt>
      <trkpt lat="42.5353540" lon="-8.6455680">
        <ele>42.5</ele>
        <time>2019-08-17T11:06:08Z</time>
      </trkpt>
      <trkpt lat="42.5355080" lon="-8.6455460">
        <ele>42.6</ele>
        <time>2019-08-17T11:06:10Z</time>
      </trkpt>
      <trkpt lat="42.5359470" lon="-8.6454610">
        <ele>42.0</ele>
        <time>2019-08-17T11:06:16Z</time>
      </trkpt>
      <trkpt lat="42.5361740" lon="-8.6454150">
        <ele>42.0</ele>
        <time>2019-08-17T11:06:19Z</time>
      </trkpt>
      <trkpt lat="42.5364080" lon="-8.6453070">
        <ele>42.1</ele>
        <time>2019-08-17T11:06:22Z</time>
      </trkpt>
      <trkpt lat="42.5367260" lon="-8.6451890">
        <ele>42.2</ele>
        <time>2019-08-17T11:06:26Z</time>
      </trkpt>
      <trkpt lat="42.5368090" lon="-8.6451800">
        <ele>42.3</ele>
        <time>2019-08-17T11:06:27Z</time>
      </trkpt>
      <trkpt lat="42.5370510" lon="-8.6452670">
        <ele>42.4</ele>
        <time>2019-08-17T11:06:30Z</time>
      </trkpt>
      <trkpt lat="42.5371170" lon="-8.6453260">
        <ele>42.4</ele>
        <time>2019-08-17T11:06:31Z</time>
      </trkpt>
      <trkpt lat="42.5371750" lon="-8.6453740">
        <ele>42.2</ele>
        <time>2019-08-17T11:06:32Z</time>
      </trkpt>
      <trkpt lat="42.5372340" lon="-8.6454100">
        <ele>41.8</ele>
        <time>2019-08-17T11:06:33Z</time>
      </trkpt>
      <trkpt lat="42.5372980" lon="-8.6454290">
        <ele>41.3</ele>
        <time>2019-08-17T11:06:34Z</time>
      </trkpt>
      <trkpt lat="42.5373630" lon="-8.6454300">
        <ele>40.7</ele>
        <time>2019-08-17T11:06:35Z</time>
      </trkpt>
      <trkpt lat="42.5374360" lon="-8.6454220">
        <ele>40.1</ele>
        <time>2019-08-17T11:06:36Z</time>
      </trkpt>
      <trkpt lat="42.5378520" lon="-8.6453190">
        <ele>35.7</ele>
        <time>2019-08-17T11:06:41Z</time>
      </trkpt>
      <trkpt lat="42.5379380" lon="-8.6452780">
        <ele>34.9</ele>
        <time>2019-08-17T11:06:42Z</time>
      </trkpt>
      <trkpt lat="42.5380210" lon="-8.6452290">
        <ele>34.3</ele>
        <time>2019-08-17T11:06:43Z</time>
      </trkpt>
      <trkpt lat="42.5381040" lon="-8.6451790">
        <ele>33.8</ele>
        <time>2019-08-17T11:06:44Z</time>
      </trkpt>
      <trkpt lat="42.5381810" lon="-8.6451290">
        <ele>33.6</ele>
        <time>2019-08-17T11:06:45Z</time>
      </trkpt>
      <trkpt lat="42.5382640" lon="-8.6450750">
        <ele>33.4</ele>
        <time>2019-08-17T11:06:46Z</time>
      </trkpt>
      <trkpt lat="42.5383560" lon="-8.6450260">
        <ele>33.5</ele>
        <time>2019-08-17T11:06:47Z</time>
      </trkpt>
      <trkpt lat="42.5388110" lon="-8.6446900">
        <ele>34.7</ele>
        <time>2019-08-17T11:06:53Z</time>
      </trkpt>
      <trkpt lat="42.5389070" lon="-8.6444790">
        <ele>34.8</ele>
        <time>2019-08-17T11:06:56Z</time>
      </trkpt>
      <trkpt lat="42.5389340" lon="-8.6444090">
        <ele>34.9</ele>
        <time>2019-08-17T11:06:57Z</time>
      </trkpt>
      <trkpt lat="42.5389770" lon="-8.6443600">
        <ele>35.0</ele>
        <time>2019-08-17T11:06:58Z</time>
      </trkpt>
      <trkpt lat="42.5390180" lon="-8.6443120">
        <ele>35.1</ele>
        <time>2019-08-17T11:06:59Z</time>
      </trkpt>
      <trkpt lat="42.5392210" lon="-8.6440710">
        <ele>35.5</ele>
        <time>2019-08-17T11:07:03Z</time>
      </trkpt>
      <trkpt lat="42.5392950" lon="-8.6440220">
        <ele>35.5</ele>
        <time>2019-08-17T11:07:04Z</time>
      </trkpt>
      <trkpt lat="42.5395590" lon="-8.6439250">
        <ele>35.2</ele>
        <time>2019-08-17T11:07:07Z</time>
      </trkpt>
      <trkpt lat="42.5397380" lon="-8.6438710">
        <ele>34.8</ele>
        <time>2019-08-17T11:07:09Z</time>
      </trkpt>
      <trkpt lat="42.5402620" lon="-8.6436760">
        <ele>34.6</ele>
        <time>2019-08-17T11:07:15Z</time>
      </trkpt>
      <trkpt lat="42.5404310" lon="-8.6436210">
        <ele>34.7</ele>
        <time>2019-08-17T11:07:17Z</time>
      </trkpt>
      <trkpt lat="42.5406300" lon="-8.6435420">
        <ele>35.1</ele>
        <time>2019-08-17T11:07:20Z</time>
      </trkpt>
      <trkpt lat="42.5406630" lon="-8.6435100">
        <ele>35.2</ele>
        <time>2019-08-17T11:07:21Z</time>
      </trkpt>
      <trkpt lat="42.5407470" lon="-8.6434430">
        <ele>35.8</ele>
        <time>2019-08-17T11:07:25Z</time>
      </trkpt>
      <trkpt lat="42.5409140" lon="-8.6433960">
        <ele>36.6</ele>
        <time>2019-08-17T11:07:29Z</time>
      </trkpt>
      <trkpt lat="42.5413220" lon="-8.6432580">
        <ele>37.5</ele>
        <time>2019-08-17T11:07:37Z</time>
      </trkpt>
      <trkpt lat="42.5414190" lon="-8.6432030">
        <ele>37.5</ele>
        <time>2019-08-17T11:07:39Z</time>
      </trkpt>
      <trkpt lat="42.5415930" lon="-8.6430430">
        <ele>37.6</ele>
        <time>2019-08-17T11:07:43Z</time>
      </trkpt>
      <trkpt lat="42.5416370" lon="-8.6430050">
        <ele>37.6</ele>
        <time>2019-08-17T11:07:44Z</time>
      </trkpt>
      <trkpt lat="42.5416810" lon="-8.6429750">
        <ele>37.6</ele>
        <time>2019-08-17T11:07:45Z</time>
      </trkpt>
      <trkpt lat="42.5417250" lon="-8.6429530">
        <ele>37.6</ele>
        <time>2019-08-17T11:07:46Z</time>
      </trkpt>
      <trkpt lat="42.5417720" lon="-8.6429320">
        <ele>37.6</ele>
        <time>2019-08-17T11:07:47Z</time>
      </trkpt>
      <trkpt lat="42.5418210" lon="-8.6429130">
        <ele>37.6</ele>
        <time>2019-08-17T11:07:48Z</time>
      </trkpt>
      <trkpt lat="42.5421690" lon="-8.6427700">
        <ele>37.8</ele>
        <time>2019-08-17T11:07:54Z</time>
      </trkpt>
      <trkpt lat="42.5425320" lon="-8.6426110">
        <ele>37.9</ele>
        <time>2019-08-17T11:07:59Z</time>
      </trkpt>
      <trkpt lat="42.5426970" lon="-8.6425760">
        <ele>37.9</ele>
        <time>2019-08-17T11:08:01Z</time>
      </trkpt>
      <trkpt lat="42.5427770" lon="-8.6425720">
        <ele>37.9</ele>
        <time>2019-08-17T11:08:02Z</time>
      </trkpt>
      <trkpt lat="42.5428750" lon="-8.6425900">
        <ele>37.9</ele>
        <time>2019-08-17T11:08:03Z</time>
      </trkpt>
      <trkpt lat="42.5429430" lon="-8.6426270">
        <ele>37.8</ele>
        <time>2019-08-17T11:08:04Z</time>
      </trkpt>
      <trkpt lat="42.5430150" lon="-8.6426750">
        <ele>37.7</ele>
        <time>2019-08-17T11:08:05Z</time>
      </trkpt>
      <trkpt lat="42.5430940" lon="-8.6427210">
        <ele>37.6</ele>
        <time>2019-08-17T11:08:06Z</time>
      </trkpt>
      <trkpt lat="42.5432480" lon="-8.6428060">
        <ele>37.4</ele>
        <time>2019-08-17T11:08:08Z</time>
      </trkpt>
      <trkpt lat="42.5433270" lon="-8.6428430">
        <ele>37.2</ele>
        <time>2019-08-17T11:08:09Z</time>
      </trkpt>
      <trkpt lat="42.5434000" lon="-8.6428730">
        <ele>37.0</ele>
        <time>2019-08-17T11:08:10Z</time>
      </trkpt>
      <trkpt lat="42.5434660" lon="-8.6429100">
        <ele>36.8</ele>
        <time>2019-08-17T11:08:11Z</time>
      </trkpt>
      <trkpt lat="42.5435290" lon="-8.6429410">
        <ele>36.5</ele>
        <time>2019-08-17T11:08:12Z</time>
      </trkpt>
      <trkpt lat="42.5435960" lon="-8.6429660">
        <ele>36.3</ele>
        <time>2019-08-17T11:08:13Z</time>
      </trkpt>
      <trkpt lat="42.5436610" lon="-8.6429780">
        <ele>36.1</ele>
        <time>2019-08-17T11:08:14Z</time>
      </trkpt>
      <trkpt lat="42.5437250" lon="-8.6429790">
        <ele>35.8</ele>
        <time>2019-08-17T11:08:15Z</time>
      </trkpt>
      <trkpt lat="42.5437920" lon="-8.6429670">
        <ele>35.7</ele>
        <time>2019-08-17T11:08:16Z</time>
      </trkpt>
      <trkpt lat="42.5438210" lon="-8.6429340">
        <ele>35.6</ele>
        <time>2019-08-17T11:08:17Z</time>
      </trkpt>
      <trkpt lat="42.5438790" lon="-8.6428650">
        <ele>35.4</ele>
        <time>2019-08-17T11:08:18Z</time>
      </trkpt>
      <trkpt lat="42.5439420" lon="-8.6427770">
        <ele>35.2</ele>
        <time>2019-08-17T11:08:19Z</time>
      </trkpt>
      <trkpt lat="42.5440140" lon="-8.6426780">
        <ele>35.1</ele>
        <time>2019-08-17T11:08:20Z</time>
      </trkpt>
      <trkpt lat="42.5440840" lon="-8.6425840">
        <ele>35.0</ele>
        <time>2019-08-17T11:08:21Z</time>
      </trkpt>
      <trkpt lat="42.5443680" lon="-8.6424050">
        <ele>34.8</ele>
        <time>2019-08-17T11:08:24Z</time>
      </trkpt>
      <trkpt lat="42.5445480" lon="-8.6423320">
        <ele>34.8</ele>
        <time>2019-08-17T11:08:26Z</time>
      </trkpt>
      <trkpt lat="42.5447230" lon="-8.6422550">
        <ele>34.9</ele>
        <time>2019-08-17T11:08:28Z</time>
      </trkpt>
      <trkpt lat="42.5448100" lon="-8.6422330">
        <ele>34.9</ele>
        <time>2019-08-17T11:08:29Z</time>
      </trkpt>
      <trkpt lat="42.5451130" lon="-8.6422100">
        <ele>34.5</ele>
        <time>2019-08-17T11:08:34Z</time>
      </trkpt>
      <trkpt lat="42.5452380" lon="-8.6422280">
        <ele>34.1</ele>
        <time>2019-08-17T11:08:36Z</time>
      </trkpt>
      <trkpt lat="42.5453050" lon="-8.6422560">
        <ele>34.0</ele>
        <time>2019-08-17T11:08:37Z</time>
      </trkpt>
      <trkpt lat="42.5455070" lon="-8.6424190">
        <ele>33.8</ele>
        <time>2019-08-17T11:08:40Z</time>
      </trkpt>
      <trkpt lat="42.5455700" lon="-8.6424720">
        <ele>33.9</ele>
        <time>2019-08-17T11:08:41Z</time>
      </trkpt>
      <trkpt lat="42.5456350" lon="-8.6425220">
        <ele>33.9</ele>
        <time>2019-08-17T11:08:42Z</time>
      </trkpt>
      <trkpt lat="42.5457020" lon="-8.6425640">
        <ele>34.0</ele>
        <time>2019-08-17T11:08:43Z</time>
      </trkpt>
      <trkpt lat="42.5457690" lon="-8.6425990">
        <ele>34.1</ele>
        <time>2019-08-17T11:08:44Z</time>
      </trkpt>
      <trkpt lat="42.5458390" lon="-8.6426240">
        <ele>34.2</ele>
        <time>2019-08-17T11:08:45Z</time>
      </trkpt>
      <trkpt lat="42.5459070" lon="-8.6426410">
        <ele>34.3</ele>
        <time>2019-08-17T11:08:46Z</time>
      </trkpt>
      <trkpt lat="42.5461370" lon="-8.6426270">
        <ele>34.5</ele>
        <time>2019-08-17T11:08:49Z</time>
      </trkpt>
      <trkpt lat="42.5462170" lon="-8.6426050">
        <ele>34.5</ele>
        <time>2019-08-17T11:08:50Z</time>
      </trkpt>
      <trkpt lat="42.5463000" lon="-8.6425820">
        <ele>34.6</ele>
        <time>2019-08-17T11:08:51Z</time>
      </trkpt>
      <trkpt lat="42.5463920" lon="-8.6425640">
        <ele>34.6</ele>
        <time>2019-08-17T11:08:52Z</time>
      </trkpt>
      <trkpt lat="42.5464800" lon="-8.6425410">
        <ele>34.6</ele>
        <time>2019-08-17T11:08:53Z</time>
      </trkpt>
      <trkpt lat="42.5468140" lon="-8.6424930">
        <ele>34.7</ele>
        <time>2019-08-17T11:08:57Z</time>
      </trkpt>
      <trkpt lat="42.5472620" lon="-8.6424400">
        <ele>34.5</ele>
        <time>2019-08-17T11:09:03Z</time>
      </trkpt>
      <trkpt lat="42.5475510" lon="-8.6424120">
        <ele>34.3</ele>
        <time>2019-08-17T11:09:07Z</time>
      </trkpt>
      <trkpt lat="42.5476400" lon="-8.6424310">
        <ele>34.3</ele>
        <time>2019-08-17T11:09:08Z</time>
      </trkpt>
      <trkpt lat="42.5478480" lon="-8.6424950">
        <ele>34.4</ele>
        <time>2019-08-17T11:09:11Z</time>
      </trkpt>
      <trkpt lat="42.5478920" lon="-8.6424980">
        <ele>34.4</ele>
        <time>2019-08-17T11:09:12Z</time>
      </trkpt>
      <trkpt lat="42.5479210" lon="-8.6424990">
        <ele>34.3</ele>
        <time>2019-08-17T11:09:13Z</time>
      </trkpt>
      <trkpt lat="42.5479400" lon="-8.6424920">
        <ele>34.3</ele>
        <time>2019-08-17T11:09:14Z</time>
      </trkpt>
      <trkpt lat="42.5479420" lon="-8.6424910">
        <ele>34.3</ele>
        <time>2019-08-17T11:09:15Z</time>
      </trkpt>
      <trkpt lat="42.5479150" lon="-8.6424680">
        <ele>34.3</ele>
        <time>2019-08-17T11:09:17Z</time>
      </trkpt>
      <trkpt lat="42.5479000" lon="-8.6424170">
        <ele>34.3</ele>
        <time>2019-08-17T11:09:19Z</time>
      </trkpt>
      <trkpt lat="42.5479650" lon="-8.6422380">
        <ele>33.7</ele>
        <time>2019-08-17T11:09:24Z</time>
      </trkpt>
      <trkpt lat="42.5479920" lon="-8.6422010">
        <ele>33.5</ele>
        <time>2019-08-17T11:09:25Z</time>
      </trkpt>
      <trkpt lat="42.5480160" lon="-8.6421620">
        <ele>33.4</ele>
        <time>2019-08-17T11:09:26Z</time>
      </trkpt>
      <trkpt lat="42.5481310" lon="-8.6419970">
        <ele>33.1</ele>
        <time>2019-08-17T11:09:31Z</time>
      </trkpt>
      <trkpt lat="42.5481530" lon="-8.6419620">
        <ele>33.1</ele>
        <time>2019-08-17T11:09:32Z</time>
      </trkpt>
      <trkpt lat="42.5481730" lon="-8.6419280">
        <ele>33.1</ele>
        <time>2019-08-17T11:09:33Z</time>
      </trkpt>
      <trkpt lat="42.5481940" lon="-8.6418940">
        <ele>33.1</ele>
        <time>2019-08-17T11:09:34Z</time>
      </trkpt>
      <trkpt lat="42.5482160" lon="-8.6418580">
        <ele>33.1</ele>
        <time>2019-08-17T11:09:35Z</time>
      </trkpt>
      <trkpt lat="42.5483430" lon="-8.6416590">
        <ele>33.3</ele>
        <time>2019-08-17T11:09:40Z</time>
      </trkpt>
      <trkpt lat="42.5486210" lon="-8.6412860">
        <ele>33.6</ele>
        <time>2019-08-17T11:09:49Z</time>
      </trkpt>
      <trkpt lat="42.5488750" lon="-8.6409860">
        <ele>33.6</ele>
        <time>2019-08-17T11:09:57Z</time>
      </trkpt>
      <trkpt lat="42.5492310" lon="-8.6406280">
        <ele>33.6</ele>
        <time>2019-08-17T11:10:06Z</time>
      </trkpt>
      <trkpt lat="42.5494800" lon="-8.6403090">
        <ele>33.6</ele>
        <time>2019-08-17T11:10:14Z</time>
      </trkpt>
      <trkpt lat="42.5494930" lon="-8.6401200">
        <ele>33.5</ele>
        <time>2019-08-17T11:10:18Z</time>
      </trkpt>
      <trkpt lat="42.5494260" lon="-8.6396990">
        <ele>33.2</ele>
        <time>2019-08-17T11:10:26Z</time>
      </trkpt>
      <trkpt lat="42.5495110" lon="-8.6394830">
        <ele>33.1</ele>
        <time>2019-08-17T11:10:31Z</time>
      </trkpt>
      <trkpt lat="42.5495980" lon="-8.6394420">
        <ele>32.9</ele>
        <time>2019-08-17T11:10:33Z</time>
      </trkpt>
      <trkpt lat="42.5498200" lon="-8.6393560">
        <ele>32.6</ele>
        <time>2019-08-17T11:10:38Z</time>
      </trkpt>
      <trkpt lat="42.5499960" lon="-8.6393090">
        <ele>32.4</ele>
        <time>2019-08-17T11:10:42Z</time>
      </trkpt>
      <trkpt lat="42.5503570" lon="-8.6391980">
        <ele>31.8</ele>
        <time>2019-08-17T11:10:49Z</time>
      </trkpt>
      <trkpt lat="42.5508680" lon="-8.6390550">
        <ele>31.0</ele>
        <time>2019-08-17T11:10:58Z</time>
      </trkpt>
      <trkpt lat="42.5513360" lon="-8.6389150">
        <ele>29.8</ele>
        <time>2019-08-17T11:11:06Z</time>
      </trkpt>
      <trkpt lat="42.5515220" lon="-8.6388600">
        <ele>29.7</ele>
        <time>2019-08-17T11:11:09Z</time>
      </trkpt>
      <trkpt lat="42.5515830" lon="-8.6388510">
        <ele>29.7</ele>
        <time>2019-08-17T11:11:10Z</time>
      </trkpt>
      <trkpt lat="42.5516450" lon="-8.6388430">
        <ele>29.7</ele>
        <time>2019-08-17T11:11:11Z</time>
      </trkpt>
      <trkpt lat="42.5517080" lon="-8.6388330">
        <ele>29.7</ele>
        <time>2019-08-17T11:11:12Z</time>
      </trkpt>
      <trkpt lat="42.5517690" lon="-8.6388200">
        <ele>29.7</ele>
        <time>2019-08-17T11:11:13Z</time>
      </trkpt>
      <trkpt lat="42.5518810" lon="-8.6387960">
        <ele>29.7</ele>
        <time>2019-08-17T11:11:15Z</time>
      </trkpt>
      <trkpt lat="42.5522940" lon="-8.6387340">
        <ele>29.7</ele>
        <time>2019-08-17T11:11:23Z</time>
      </trkpt>
      <trkpt lat="42.5527630" lon="-8.6386730">
        <ele>29.6</ele>
        <time>2019-08-17T11:11:32Z</time>
      </trkpt>
      <trkpt lat="42.5531040" lon="-8.6385970">
        <ele>29.7</ele>
        <time>2019-08-17T11:11:39Z</time>
      </trkpt>
      <trkpt lat="42.5534610" lon="-8.6385400">
        <ele>29.8</ele>
        <time>2019-08-17T11:11:45Z</time>
      </trkpt>
      <trkpt lat="42.5535280" lon="-8.6385220">
        <ele>29.8</ele>
        <time>2019-08-17T11:11:46Z</time>
      </trkpt>
      <trkpt lat="42.5535950" lon="-8.6385090">
        <ele>29.8</ele>
        <time>2019-08-17T11:11:47Z</time>
      </trkpt>
      <trkpt lat="42.5536630" lon="-8.6384990">
        <ele>29.8</ele>
        <time>2019-08-17T11:11:48Z</time>
      </trkpt>
      <trkpt lat="42.5537290" lon="-8.6384860">
        <ele>29.8</ele>
        <time>2019-08-17T11:11:49Z</time>
      </trkpt>
      <trkpt lat="42.5537940" lon="-8.6384720">
        <ele>29.8</ele>
        <time>2019-08-17T11:11:50Z</time>
      </trkpt>
      <trkpt lat="42.5538590" lon="-8.6384480">
        <ele>29.8</ele>
        <time>2019-08-17T11:11:51Z</time>
      </trkpt>
      <trkpt lat="42.5539250" lon="-8.6384220">
        <ele>29.7</ele>
        <time>2019-08-17T11:11:52Z</time>
      </trkpt>
      <trkpt lat="42.5542740" lon="-8.6382650">
        <ele>29.2</ele>
        <time>2019-08-17T11:11:58Z</time>
      </trkpt>
      <trkpt lat="42.5547750" lon="-8.6380130">
        <ele>28.4</ele>
        <time>2019-08-17T11:12:07Z</time>
      </trkpt>
      <trkpt lat="42.5551210" lon="-8.6377750">
        <ele>27.8</ele>
        <time>2019-08-17T11:12:15Z</time>
      </trkpt>
      <trkpt lat="42.5552390" lon="-8.6377440">
        <ele>27.5</ele>
        <time>2019-08-17T11:12:18Z</time>
      </trkpt>
      <trkpt lat="42.5552860" lon="-8.6377410">
        <ele>27.4</ele>
        <time>2019-08-17T11:12:19Z</time>
      </trkpt>
      <trkpt lat="42.5553890" lon="-8.6377320">
        <ele>27.2</ele>
        <time>2019-08-17T11:12:21Z</time>
      </trkpt>
      <trkpt lat="42.5554410" lon="-8.6377330">
        <ele>27.2</ele>
        <time>2019-08-17T11:12:22Z</time>
      </trkpt>
      <trkpt lat="42.5554910" lon="-8.6377300">
        <ele>27.1</ele>
        <time>2019-08-17T11:12:23Z</time>
      </trkpt>
      <trkpt lat="42.5555390" lon="-8.6377250">
        <ele>27.0</ele>
        <time>2019-08-17T11:12:24Z</time>
      </trkpt>
      <trkpt lat="42.5555900" lon="-8.6377190">
        <ele>27.0</ele>
        <time>2019-08-17T11:12:25Z</time>
      </trkpt>
      <trkpt lat="42.5556390" lon="-8.6377150">
        <ele>27.0</ele>
        <time>2019-08-17T11:12:26Z</time>
      </trkpt>
      <trkpt lat="42.5560000" lon="-8.6376900">
        <ele>27.2</ele>
        <time>2019-08-17T11:12:33Z</time>
      </trkpt>
      <trkpt lat="42.5563610" lon="-8.6376680">
        <ele>28.1</ele>
        <time>2019-08-17T11:12:40Z</time>
      </trkpt>
      <trkpt lat="42.5567710" lon="-8.6376290">
        <ele>28.8</ele>
        <time>2019-08-17T11:12:48Z</time>
      </trkpt>
      <trkpt lat="42.5571700" lon="-8.6376000">
        <ele>30.1</ele>
        <time>2019-08-17T11:12:56Z</time>
      </trkpt>
      <trkpt lat="42.5576610" lon="-8.6375750">
        <ele>32.5</ele>
        <time>2019-08-17T11:13:05Z</time>
      </trkpt>
      <trkpt lat="42.5577130" lon="-8.6375690">
        <ele>32.8</ele>
        <time>2019-08-17T11:13:06Z</time>
      </trkpt>
      <trkpt lat="42.5577670" lon="-8.6375640">
        <ele>33.3</ele>
        <time>2019-08-17T11:13:07Z</time>
      </trkpt>
      <trkpt lat="42.5578240" lon="-8.6375510">
        <ele>33.9</ele>
        <time>2019-08-17T11:13:08Z</time>
      </trkpt>
      <trkpt lat="42.5578690" lon="-8.6375410">
        <ele>34.3</ele>
        <time>2019-08-17T11:13:09Z</time>
      </trkpt>
      <trkpt lat="42.5579700" lon="-8.6375350">
        <ele>35.3</ele>
        <time>2019-08-17T11:13:11Z</time>
      </trkpt>
      <trkpt lat="42.5580150" lon="-8.6375340">
        <ele>35.7</ele>
        <time>2019-08-17T11:13:12Z</time>
      </trkpt>
      <trkpt lat="42.5580610" lon="-8.6375340">
        <ele>36.2</ele>
        <time>2019-08-17T11:13:13Z</time>
      </trkpt>
      <trkpt lat="42.5581050" lon="-8.6375360">
        <ele>36.5</ele>
        <time>2019-08-17T11:13:14Z</time>
      </trkpt>
      <trkpt lat="42.5581410" lon="-8.6375410">
        <ele>36.8</ele>
        <time>2019-08-17T11:13:15Z</time>
      </trkpt>
      <trkpt lat="42.5582250" lon="-8.6375890">
        <ele>37.2</ele>
        <time>2019-08-17T11:13:18Z</time>
      </trkpt>
      <trkpt lat="42.5582890" lon="-8.6376500">
        <ele>37.1</ele>
        <time>2019-08-17T11:13:20Z</time>
      </trkpt>
      <trkpt lat="42.5583270" lon="-8.6376990">
        <ele>37.1</ele>
        <time>2019-08-17T11:13:21Z</time>
      </trkpt>
      <trkpt lat="42.5583710" lon="-8.6377410">
        <ele>37.1</ele>
        <time>2019-08-17T11:13:22Z</time>
      </trkpt>
      <trkpt lat="42.5584220" lon="-8.6377730">
        <ele>37.0</ele>
        <time>2019-08-17T11:13:23Z</time>
      </trkpt>
      <trkpt lat="42.5584750" lon="-8.6377930">
        <ele>37.0</ele>
        <time>2019-08-17T11:13:24Z</time>
      </trkpt>
      <trkpt lat="42.5585340" lon="-8.6378090">
        <ele>36.9</ele>
        <time>2019-08-17T11:13:25Z</time>
      </trkpt>
      <trkpt lat="42.5586800" lon="-8.6378460">
        <ele>36.8</ele>
        <time>2019-08-17T11:13:28Z</time>
      </trkpt>
      <trkpt lat="42.5588360" lon="-8.6379260">
        <ele>36.7</ele>
        <time>2019-08-17T11:13:32Z</time>
      </trkpt>
      <trkpt lat="42.5589140" lon="-8.6379890">
        <ele>36.6</ele>
        <time>2019-08-17T11:13:34Z</time>
      </trkpt>
      <trkpt lat="42.5592360" lon="-8.6382910">
        <ele>37.0</ele>
        <time>2019-08-17T11:13:42Z</time>
      </trkpt>
      <trkpt lat="42.5595480" lon="-8.6385960">
        <ele>37.2</ele>
        <time>2019-08-17T11:13:50Z</time>
      </trkpt>
      <trkpt lat="42.5595940" lon="-8.6386330">
        <ele>37.3</ele>
        <time>2019-08-17T11:13:51Z</time>
      </trkpt>
      <trkpt lat="42.5597910" lon="-8.6387530">
        <ele>37.6</ele>
        <time>2019-08-17T11:13:55Z</time>
      </trkpt>
      <trkpt lat="42.5598420" lon="-8.6387750">
        <ele>37.6</ele>
        <time>2019-08-17T11:13:56Z</time>
      </trkpt>
      <trkpt lat="42.5598960" lon="-8.6388010">
        <ele>37.6</ele>
        <time>2019-08-17T11:13:57Z</time>
      </trkpt>
      <trkpt lat="42.5599410" lon="-8.6388270">
        <ele>37.6</ele>
        <time>2019-08-17T11:13:58Z</time>
      </trkpt>
      <trkpt lat="42.5599850" lon="-8.6388560">
        <ele>37.6</ele>
        <time>2019-08-17T11:13:59Z</time>
      </trkpt>
      <trkpt lat="42.5600280" lon="-8.6388890">
        <ele>37.5</ele>
        <time>2019-08-17T11:14:00Z</time>
      </trkpt>
      <trkpt lat="42.5600690" lon="-8.6389180">
        <ele>37.4</ele>
        <time>2019-08-17T11:14:01Z</time>
      </trkpt>
      <trkpt lat="42.5601060" lon="-8.6389410">
        <ele>37.4</ele>
        <time>2019-08-17T11:14:02Z</time>
      </trkpt>
      <trkpt lat="42.5601870" lon="-8.6390480">
        <ele>37.0</ele>
        <time>2019-08-17T11:14:06Z</time>
      </trkpt>
      <trkpt lat="42.5601780" lon="-8.6393140">
        <ele>36.0</ele>
        <time>2019-08-17T11:14:12Z</time>
      </trkpt>
      <trkpt lat="42.5601790" lon="-8.6395820">
        <ele>35.0</ele>
        <time>2019-08-17T11:14:18Z</time>
      </trkpt>
      <trkpt lat="42.5601920" lon="-8.6395970">
        <ele>34.9</ele>
        <time>2019-08-17T11:14:19Z</time>
      </trkpt>
      <trkpt lat="42.5602670" lon="-8.6396140">
        <ele>34.5</ele>
        <time>2019-08-17T11:14:23Z</time>
      </trkpt>
      <trkpt lat="42.5604550" lon="-8.6396090">
        <ele>33.7</ele>
        <time>2019-08-17T11:14:28Z</time>
      </trkpt>
      <trkpt lat="42.5605020" lon="-8.6396060">
        <ele>33.5</ele>
        <time>2019-08-17T11:14:29Z</time>
      </trkpt>
      <trkpt lat="42.5605460" lon="-8.6396020">
        <ele>33.3</ele>
        <time>2019-08-17T11:14:30Z</time>
      </trkpt>
      <trkpt lat="42.5605910" lon="-8.6395970">
        <ele>33.2</ele>
        <time>2019-08-17T11:14:31Z</time>
      </trkpt>
      <trkpt lat="42.5606370" lon="-8.6395930">
        <ele>33.0</ele>
        <time>2019-08-17T11:14:32Z</time>
      </trkpt>
      <trkpt lat="42.5607940" lon="-8.6395810">
        <ele>32.7</ele>
        <time>2019-08-17T11:14:36Z</time>
      </trkpt>
      <trkpt lat="42.5609590" lon="-8.6395770">
        <ele>32.6</ele>
        <time>2019-08-17T11:14:41Z</time>
      </trkpt>
      <trkpt lat="42.5610950" lon="-8.6395720">
        <ele>32.5</ele>
        <time>2019-08-17T11:14:45Z</time>
      </trkpt>
      <trkpt lat="42.5611220" lon="-8.6395420">
        <ele>32.4</ele>
        <time>2019-08-17T11:14:46Z</time>
      </trkpt>
      <trkpt lat="42.5611880" lon="-8.6394130">
        <ele>32.4</ele>
        <time>2019-08-17T11:14:49Z</time>
      </trkpt>
      <trkpt lat="42.5612380" lon="-8.6393130">
        <ele>32.3</ele>
        <time>2019-08-17T11:14:51Z</time>
      </trkpt>
      <trkpt lat="42.5613730" lon="-8.6391730">
        <ele>32.1</ele>
        <time>2019-08-17T11:14:56Z</time>
      </trkpt>
      <trkpt lat="42.5615060" lon="-8.6392220">
        <ele>32.0</ele>
        <time>2019-08-17T11:15:00Z</time>
      </trkpt>
      <trkpt lat="42.5615420" lon="-8.6392480">
        <ele>32.0</ele>
        <time>2019-08-17T11:15:01Z</time>
      </trkpt>
      <trkpt lat="42.5618600" lon="-8.6394660">
        <ele>31.7</ele>
        <time>2019-08-17T11:15:09Z</time>
      </trkpt>
      <trkpt lat="42.5621750" lon="-8.6396720">
        <ele>31.5</ele>
        <time>2019-08-17T11:15:18Z</time>
      </trkpt>
      <trkpt lat="42.5623090" lon="-8.6397800">
        <ele>31.1</ele>
        <time>2019-08-17T11:15:24Z</time>
      </trkpt>
      <trkpt lat="42.5622990" lon="-8.6399770">
        <ele>30.2</ele>
        <time>2019-08-17T11:15:28Z</time>
      </trkpt>
      <trkpt lat="42.5623070" lon="-8.6400340">
        <ele>29.9</ele>
        <time>2019-08-17T11:15:29Z</time>
      </trkpt>
      <trkpt lat="42.5623550" lon="-8.6402190">
        <ele>29.0</ele>
        <time>2019-08-17T11:15:32Z</time>
      </trkpt>
      <trkpt lat="42.5623480" lon="-8.6402900">
        <ele>28.7</ele>
        <time>2019-08-17T11:15:33Z</time>
      </trkpt>
      <trkpt lat="42.5623320" lon="-8.6404120">
        <ele>28.2</ele>
        <time>2019-08-17T11:15:35Z</time>
      </trkpt>
      <trkpt lat="42.5623400" lon="-8.6404540">
        <ele>28.1</ele>
        <time>2019-08-17T11:15:36Z</time>
      </trkpt>
      <trkpt lat="42.5623650" lon="-8.6404800">
        <ele>28.0</ele>
        <time>2019-08-17T11:15:37Z</time>
      </trkpt>
      <trkpt lat="42.5624010" lon="-8.6405010">
        <ele>27.8</ele>
        <time>2019-08-17T11:15:38Z</time>
      </trkpt>
      <trkpt lat="42.5624430" lon="-8.6405230">
        <ele>27.7</ele>
        <time>2019-08-17T11:15:39Z</time>
      </trkpt>
      <trkpt lat="42.5625190" lon="-8.6405670">
        <ele>27.7</ele>
        <time>2019-08-17T11:15:41Z</time>
      </trkpt>
      <trkpt lat="42.5627170" lon="-8.6407410">
        <ele>27.8</ele>
        <time>2019-08-17T11:15:47Z</time>
      </trkpt>
      <trkpt lat="42.5627520" lon="-8.6407720">
        <ele>27.8</ele>
        <time>2019-08-17T11:15:48Z</time>
      </trkpt>
      <trkpt lat="42.5630000" lon="-8.6409000">
        <ele>28.5</ele>
        <time>2019-08-17T11:15:54Z</time>
      </trkpt>
      <trkpt lat="42.5631400" lon="-8.6410870">
        <ele>29.1</ele>
        <time>2019-08-17T11:15:59Z</time>
      </trkpt>
      <trkpt lat="42.5633010" lon="-8.6412880">
        <ele>29.7</ele>
        <time>2019-08-17T11:16:05Z</time>
      </trkpt>
      <trkpt lat="42.5634160" lon="-8.6413790">
        <ele>30.0</ele>
        <time>2019-08-17T11:16:10Z</time>
      </trkpt>
      <trkpt lat="42.5634260" lon="-8.6413880">
        <ele>30.0</ele>
        <time>2019-08-17T11:16:11Z</time>
      </trkpt>
      <trkpt lat="42.5634300" lon="-8.6413910">
        <ele>30.0</ele>
        <time>2019-08-17T11:16:12Z</time>
      </trkpt>
      <trkpt lat="42.5634930" lon="-8.6414290">
        <ele>30.1</ele>
        <time>2019-08-17T11:16:18Z</time>
      </trkpt>
      <trkpt lat="42.5635560" lon="-8.6414630">
        <ele>30.2</ele>
        <time>2019-08-17T11:16:20Z</time>
      </trkpt>
      <trkpt lat="42.5638350" lon="-8.6416000">
        <ele>30.2</ele>
        <time>2019-08-17T11:16:27Z</time>
      </trkpt>
      <trkpt lat="42.5639150" lon="-8.6416310">
        <ele>30.2</ele>
        <time>2019-08-17T11:16:29Z</time>
      </trkpt>
      <trkpt lat="42.5641440" lon="-8.6416870">
        <ele>30.1</ele>
        <time>2019-08-17T11:16:34Z</time>
      </trkpt>
      <trkpt lat="42.5644670" lon="-8.6417090">
        <ele>30.1</ele>
        <time>2019-08-17T11:16:41Z</time>
      </trkpt>
      <trkpt lat="42.5646380" lon="-8.6417210">
        <ele>30.1</ele>
        <time>2019-08-17T11:16:46Z</time>
      </trkpt>
      <trkpt lat="42.5647540" lon="-8.6417880">
        <ele>29.4</ele>
        <time>2019-08-17T11:16:49Z</time>
      </trkpt>
      <trkpt lat="42.5648010" lon="-8.6417940">
        <ele>29.5</ele>
        <time>2019-08-17T11:16:50Z</time>
      </trkpt>
      <trkpt lat="42.5648450" lon="-8.6417940">
        <ele>29.5</ele>
        <time>2019-08-17T11:16:51Z</time>
      </trkpt>
      <trkpt lat="42.5648870" lon="-8.6417920">
        <ele>29.5</ele>
        <time>2019-08-17T11:16:52Z</time>
      </trkpt>
      <trkpt lat="42.5649300" lon="-8.6417910">
        <ele>29.4</ele>
        <time>2019-08-17T11:16:53Z</time>
      </trkpt>
      <trkpt lat="42.5652200" lon="-8.6417750">
        <ele>29.1</ele>
        <time>2019-08-17T11:16:59Z</time>
      </trkpt>
      <trkpt lat="42.5655450" lon="-8.6416990">
        <ele>29.1</ele>
        <time>2019-08-17T11:17:06Z</time>
      </trkpt>
      <trkpt lat="42.5659180" lon="-8.6415650">
        <ele>29.6</ele>
        <time>2019-08-17T11:17:16Z</time>
      </trkpt>
      <trkpt lat="42.5660730" lon="-8.6415870">
        <ele>28.6</ele>
        <time>2019-08-17T11:17:21Z</time>
      </trkpt>
      <trkpt lat="42.5662770" lon="-8.6416300">
        <ele>27.9</ele>
        <time>2019-08-17T11:17:25Z</time>
      </trkpt>
      <trkpt lat="42.5663360" lon="-8.6416380">
        <ele>27.8</ele>
        <time>2019-08-17T11:17:26Z</time>
      </trkpt>
      <trkpt lat="42.5663950" lon="-8.6416460">
        <ele>27.6</ele>
        <time>2019-08-17T11:17:27Z</time>
      </trkpt>
      <trkpt lat="42.5664460" lon="-8.6416620">
        <ele>27.5</ele>
        <time>2019-08-17T11:17:28Z</time>
      </trkpt>
      <trkpt lat="42.5664910" lon="-8.6416850">
        <ele>27.5</ele>
        <time>2019-08-17T11:17:29Z</time>
      </trkpt>
      <trkpt lat="42.5665300" lon="-8.6416950">
        <ele>27.4</ele>
        <time>2019-08-17T11:17:30Z</time>
      </trkpt>
      <trkpt lat="42.5665670" lon="-8.6416820">
        <ele>27.4</ele>
        <time>2019-08-17T11:17:31Z</time>
      </trkpt>
      <trkpt lat="42.5666360" lon="-8.6416460">
        <ele>27.4</ele>
        <time>2019-08-17T11:17:33Z</time>
      </trkpt>
      <trkpt lat="42.5668390" lon="-8.6416110">
        <ele>27.3</ele>
        <time>2019-08-17T11:17:39Z</time>
      </trkpt>
      <trkpt lat="42.5669930" lon="-8.6417310">
        <ele>27.3</ele>
        <time>2019-08-17T11:17:44Z</time>
      </trkpt>
      <trkpt lat="42.5671720" lon="-8.6418950">
        <ele>27.3</ele>
        <time>2019-08-17T11:17:50Z</time>
      </trkpt>
      <trkpt lat="42.5673050" lon="-8.6419670">
        <ele>27.4</ele>
        <time>2019-08-17T11:17:53Z</time>
      </trkpt>
      <trkpt lat="42.5675020" lon="-8.6420210">
        <ele>27.6</ele>
        <time>2019-08-17T11:17:56Z</time>
      </trkpt>
      <trkpt lat="42.5678680" lon="-8.6421350">
        <ele>28.6</ele>
        <time>2019-08-17T11:18:04Z</time>
      </trkpt>
      <trkpt lat="42.5679500" lon="-8.6421520">
        <ele>28.8</ele>
        <time>2019-08-17T11:18:06Z</time>
      </trkpt>
      <trkpt lat="42.5680890" lon="-8.6421470">
        <ele>29.1</ele>
        <time>2019-08-17T11:18:09Z</time>
      </trkpt>
      <trkpt lat="42.5683140" lon="-8.6421360">
        <ele>29.5</ele>
        <time>2019-08-17T11:18:14Z</time>
      </trkpt>
      <trkpt lat="42.5683560" lon="-8.6421230">
        <ele>29.6</ele>
        <time>2019-08-17T11:18:15Z</time>
      </trkpt>
      <trkpt lat="42.5683920" lon="-8.6421000">
        <ele>29.7</ele>
        <time>2019-08-17T11:18:16Z</time>
      </trkpt>
      <trkpt lat="42.5684220" lon="-8.6420730">
        <ele>29.8</ele>
        <time>2019-08-17T11:18:17Z</time>
      </trkpt>
      <trkpt lat="42.5684530" lon="-8.6420500">
        <ele>29.9</ele>
        <time>2019-08-17T11:18:18Z</time>
      </trkpt>
      <trkpt lat="42.5684990" lon="-8.6420550">
        <ele>30.0</ele>
        <time>2019-08-17T11:18:20Z</time>
      </trkpt>
      <trkpt lat="42.5685650" lon="-8.6422340">
        <ele>29.3</ele>
        <time>2019-08-17T11:18:24Z</time>
      </trkpt>
      <trkpt lat="42.5686920" lon="-8.6425110">
        <ele>28.2</ele>
        <time>2019-08-17T11:18:29Z</time>
      </trkpt>
      <trkpt lat="42.5687750" lon="-8.6426080">
        <ele>28.1</ele>
        <time>2019-08-17T11:18:31Z</time>
      </trkpt>
      <trkpt lat="42.5689230" lon="-8.6427240">
        <ele>27.9</ele>
        <time>2019-08-17T11:18:34Z</time>
      </trkpt>
      <trkpt lat="42.5690950" lon="-8.6427810">
        <ele>27.3</ele>
        <time>2019-08-17T11:18:37Z</time>
      </trkpt>
      <trkpt lat="42.5691510" lon="-8.6427950">
        <ele>27.0</ele>
        <time>2019-08-17T11:18:38Z</time>
      </trkpt>
      <trkpt lat="42.5692070" lon="-8.6428080">
        <ele>26.7</ele>
        <time>2019-08-17T11:18:39Z</time>
      </trkpt>
      <trkpt lat="42.5692650" lon="-8.6428250">
        <ele>26.4</ele>
        <time>2019-08-17T11:18:40Z</time>
      </trkpt>
      <trkpt lat="42.5693230" lon="-8.6428460">
        <ele>26.1</ele>
        <time>2019-08-17T11:18:41Z</time>
      </trkpt>
      <trkpt lat="42.5693780" lon="-8.6428730">
        <ele>25.9</ele>
        <time>2019-08-17T11:18:42Z</time>
      </trkpt>
      <trkpt lat="42.5694800" lon="-8.6429610">
        <ele>25.5</ele>
        <time>2019-08-17T11:18:44Z</time>
      </trkpt>
      <trkpt lat="42.5695660" lon="-8.6430900">
        <ele>25.2</ele>
        <time>2019-08-17T11:18:46Z</time>
      </trkpt>
      <trkpt lat="42.5696850" lon="-8.6432950">
        <ele>24.8</ele>
        <time>2019-08-17T11:18:49Z</time>
      </trkpt>
      <trkpt lat="42.5699660" lon="-8.6437300">
        <ele>24.0</ele>
        <time>2019-08-17T11:18:56Z</time>
      </trkpt>
      <trkpt lat="42.5700180" lon="-8.6440260">
        <ele>23.5</ele>
        <time>2019-08-17T11:19:00Z</time>
      </trkpt>
      <trkpt lat="42.5700490" lon="-8.6441910">
        <ele>23.2</ele>
        <time>2019-08-17T11:19:02Z</time>
      </trkpt>
      <trkpt lat="42.5701150" lon="-8.6443390">
        <ele>23.3</ele>
        <time>2019-08-17T11:19:04Z</time>
      </trkpt>
      <trkpt lat="42.5701600" lon="-8.6444090">
        <ele>23.5</ele>
        <time>2019-08-17T11:19:05Z</time>
      </trkpt>
      <trkpt lat="42.5702070" lon="-8.6444710">
        <ele>23.8</ele>
        <time>2019-08-17T11:19:06Z</time>
      </trkpt>
      <trkpt lat="42.5702610" lon="-8.6445220">
        <ele>24.4</ele>
        <time>2019-08-17T11:19:07Z</time>
      </trkpt>
      <trkpt lat="42.5703220" lon="-8.6445610">
        <ele>25.0</ele>
        <time>2019-08-17T11:19:08Z</time>
      </trkpt>
      <trkpt lat="42.5703810" lon="-8.6445880">
        <ele>25.7</ele>
        <time>2019-08-17T11:19:09Z</time>
      </trkpt>
      <trkpt lat="42.5705820" lon="-8.6446060">
        <ele>28.0</ele>
        <time>2019-08-17T11:19:12Z</time>
      </trkpt>
      <trkpt lat="42.5707660" lon="-8.6445330">
        <ele>28.3</ele>
        <time>2019-08-17T11:19:15Z</time>
      </trkpt>
      <trkpt lat="42.5708240" lon="-8.6445050">
        <ele>28.4</ele>
        <time>2019-08-17T11:19:16Z</time>
      </trkpt>
      <trkpt lat="42.5711100" lon="-8.6444090">
        <ele>29.3</ele>
        <time>2019-08-17T11:19:21Z</time>
      </trkpt>
      <trkpt lat="42.5711590" lon="-8.6443790">
        <ele>29.5</ele>
        <time>2019-08-17T11:19:22Z</time>
      </trkpt>
      <trkpt lat="42.5712970" lon="-8.6442580">
        <ele>30.1</ele>
        <time>2019-08-17T11:19:25Z</time>
      </trkpt>
      <trkpt lat="42.5713890" lon="-8.6441230">
        <ele>30.4</ele>
        <time>2019-08-17T11:19:28Z</time>
      </trkpt>
      <trkpt lat="42.5714140" lon="-8.6440790">
        <ele>30.6</ele>
        <time>2019-08-17T11:19:29Z</time>
      </trkpt>
      <trkpt lat="42.5714650" lon="-8.6439270">
        <ele>30.9</ele>
        <time>2019-08-17T11:19:33Z</time>
      </trkpt>
      <trkpt lat="42.5714840" lon="-8.6438560">
        <ele>31.2</ele>
        <time>2019-08-17T11:19:35Z</time>
      </trkpt>
      <trkpt lat="42.5714960" lon="-8.6438220">
        <ele>31.3</ele>
        <time>2019-08-17T11:19:36Z</time>
      </trkpt>
      <trkpt lat="42.5715010" lon="-8.6437910">
        <ele>31.4</ele>
        <time>2019-08-17T11:19:37Z</time>
      </trkpt>
      <trkpt lat="42.5715000" lon="-8.6437570">
        <ele>31.5</ele>
        <time>2019-08-17T11:19:38Z</time>
      </trkpt>
      <trkpt lat="42.5714970" lon="-8.6437170">
        <ele>31.6</ele>
        <time>2019-08-17T11:19:39Z</time>
      </trkpt>
      <trkpt lat="42.5715060" lon="-8.6436710">
        <ele>31.7</ele>
        <time>2019-08-17T11:19:40Z</time>
      </trkpt>
      <trkpt lat="42.5715720" lon="-8.6433240">
        <ele>32.1</ele>
        <time>2019-08-17T11:19:47Z</time>
      </trkpt>
      <trkpt lat="42.5716360" lon="-8.6431550">
        <ele>32.2</ele>
        <time>2019-08-17T11:19:50Z</time>
      </trkpt>
      <trkpt lat="42.5717170" lon="-8.6430830">
        <ele>32.2</ele>
        <time>2019-08-17T11:19:52Z</time>
      </trkpt>
      <trkpt lat="42.5718580" lon="-8.6430740">
        <ele>31.7</ele>
        <time>2019-08-17T11:19:55Z</time>
      </trkpt>
      <trkpt lat="42.5718900" lon="-8.6430580">
        <ele>31.5</ele>
        <time>2019-08-17T11:19:56Z</time>
      </trkpt>
      <trkpt lat="42.5722630" lon="-8.6431010">
        <ele>30.3</ele>
        <time>2019-08-17T11:20:02Z</time>
      </trkpt>
      <trkpt lat="42.5724480" lon="-8.6430850">
        <ele>29.7</ele>
        <time>2019-08-17T11:20:07Z</time>
      </trkpt>
      <trkpt lat="42.5724770" lon="-8.6430780">
        <ele>29.6</ele>
        <time>2019-08-17T11:20:08Z</time>
      </trkpt>
      <trkpt lat="42.5724970" lon="-8.6430730">
        <ele>29.6</ele>
        <time>2019-08-17T11:20:09Z</time>
      </trkpt>
      <trkpt lat="42.5725090" lon="-8.6430720">
        <ele>29.6</ele>
        <time>2019-08-17T11:20:10Z</time>
      </trkpt>
      <trkpt lat="42.5725080" lon="-8.6430710">
        <ele>29.6</ele>
        <time>2019-08-17T11:20:11Z</time>
      </trkpt>
      <trkpt lat="42.5725250" lon="-8.6430720">
        <ele>29.5</ele>
        <time>2019-08-17T11:21:12Z</time>
      </trkpt>
      <trkpt lat="42.5726750" lon="-8.6430880">
        <ele>29.2</ele>
        <time>2019-08-17T11:21:16Z</time>
      </trkpt>
      <trkpt lat="42.5727210" lon="-8.6430910">
        <ele>29.2</ele>
        <time>2019-08-17T11:21:17Z</time>
      </trkpt>
      <trkpt lat="42.5728180" lon="-8.6431020">
        <ele>29.0</ele>
        <time>2019-08-17T11:21:19Z</time>
      </trkpt>
      <trkpt lat="42.5729240" lon="-8.6431170">
        <ele>28.8</ele>
        <time>2019-08-17T11:21:21Z</time>
      </trkpt>
      <trkpt lat="42.5733760" lon="-8.6431860">
        <ele>28.2</ele>
        <time>2019-08-17T11:21:29Z</time>
      </trkpt>
      <trkpt lat="42.5735280" lon="-8.6432080">
        <ele>28.2</ele>
        <time>2019-08-17T11:21:32Z</time>
      </trkpt>
      <trkpt lat="42.5735860" lon="-8.6432160">
        <ele>28.2</ele>
        <time>2019-08-17T11:21:33Z</time>
      </trkpt>
      <trkpt lat="42.5736360" lon="-8.6432210">
        <ele>28.2</ele>
        <time>2019-08-17T11:21:34Z</time>
      </trkpt>
      <trkpt lat="42.5736850" lon="-8.6432270">
        <ele>28.2</ele>
        <time>2019-08-17T11:21:35Z</time>
      </trkpt>
      <trkpt lat="42.5737340" lon="-8.6432330">
        <ele>28.2</ele>
        <time>2019-08-17T11:21:36Z</time>
      </trkpt>
      <trkpt lat="42.5737840" lon="-8.6432470">
        <ele>28.2</ele>
        <time>2019-08-17T11:21:37Z</time>
      </trkpt>
      <trkpt lat="42.5739730" lon="-8.6433260">
        <ele>28.2</ele>
        <time>2019-08-17T11:21:41Z</time>
      </trkpt>
      <trkpt lat="42.5741630" lon="-8.6434030">
        <ele>28.2</ele>
        <time>2019-08-17T11:21:45Z</time>
      </trkpt>
      <trkpt lat="42.5743250" lon="-8.6434350">
        <ele>28.2</ele>
        <time>2019-08-17T11:21:48Z</time>
      </trkpt>
      <trkpt lat="42.5745360" lon="-8.6434040">
        <ele>28.2</ele>
        <time>2019-08-17T11:21:52Z</time>
      </trkpt>
      <trkpt lat="42.5745880" lon="-8.6433900">
        <ele>28.2</ele>
        <time>2019-08-17T11:21:53Z</time>
      </trkpt>
      <trkpt lat="42.5748990" lon="-8.6433090">
        <ele>28.2</ele>
        <time>2019-08-17T11:22:00Z</time>
      </trkpt>
      <trkpt lat="42.5751330" lon="-8.6432650">
        <ele>28.2</ele>
        <time>2019-08-17T11:22:06Z</time>
      </trkpt>
      <trkpt lat="42.5752130" lon="-8.6432340">
        <ele>28.2</ele>
        <time>2019-08-17T11:22:08Z</time>
      </trkpt>
      <trkpt lat="42.5753080" lon="-8.6431870">
        <ele>28.2</ele>
        <time>2019-08-17T11:22:10Z</time>
      </trkpt>
      <trkpt lat="42.5754530" lon="-8.6431620">
        <ele>28.2</ele>
        <time>2019-08-17T11:22:13Z</time>
      </trkpt>
      <trkpt lat="42.5755580" lon="-8.6431690">
        <ele>28.2</ele>
        <time>2019-08-17T11:22:15Z</time>
      </trkpt>
      <trkpt lat="42.5757340" lon="-8.6431890">
        <ele>28.2</ele>
        <time>2019-08-17T11:22:18Z</time>
      </trkpt>
      <trkpt lat="42.5759440" lon="-8.6432490">
        <ele>28.2</ele>
        <time>2019-08-17T11:22:22Z</time>
      </trkpt>
      <trkpt lat="42.5763000" lon="-8.6432780">
        <ele>28.2</ele>
        <time>2019-08-17T11:22:29Z</time>
      </trkpt>
      <trkpt lat="42.5763490" lon="-8.6432670">
        <ele>28.2</ele>
        <time>2019-08-17T11:22:30Z</time>
      </trkpt>
      <trkpt lat="42.5765590" lon="-8.6432070">
        <ele>28.3</ele>
        <time>2019-08-17T11:22:34Z</time>
      </trkpt>
      <trkpt lat="42.5768610" lon="-8.6431510">
        <ele>28.8</ele>
        <time>2019-08-17T11:22:40Z</time>
      </trkpt>
      <trkpt lat="42.5769110" lon="-8.6431520">
        <ele>28.9</ele>
        <time>2019-08-17T11:22:41Z</time>
      </trkpt>
      <trkpt lat="42.5769620" lon="-8.6431600">
        <ele>29.0</ele>
        <time>2019-08-17T11:22:42Z</time>
      </trkpt>
      <trkpt lat="42.5770140" lon="-8.6431780">
        <ele>29.0</ele>
        <time>2019-08-17T11:22:43Z</time>
      </trkpt>
      <trkpt lat="42.5770660" lon="-8.6432000">
        <ele>29.1</ele>
        <time>2019-08-17T11:22:44Z</time>
      </trkpt>
      <trkpt lat="42.5771700" lon="-8.6432460">
        <ele>29.1</ele>
        <time>2019-08-17T11:22:46Z</time>
      </trkpt>
      <trkpt lat="42.5776720" lon="-8.6433490">
        <ele>28.8</ele>
        <time>2019-08-17T11:22:54Z</time>
      </trkpt>
      <trkpt lat="42.5782000" lon="-8.6433870">
        <ele>27.6</ele>
        <time>2019-08-17T11:23:02Z</time>
      </trkpt>
      <trkpt lat="42.5784070" lon="-8.6433770">
        <ele>27.3</ele>
        <time>2019-08-17T11:23:05Z</time>
      </trkpt>
      <trkpt lat="42.5784780" lon="-8.6433760">
        <ele>27.2</ele>
        <time>2019-08-17T11:23:06Z</time>
      </trkpt>
      <trkpt lat="42.5785480" lon="-8.6433750">
        <ele>27.2</ele>
        <time>2019-08-17T11:23:07Z</time>
      </trkpt>
      <trkpt lat="42.5786170" lon="-8.6433740">
        <ele>27.2</ele>
        <time>2019-08-17T11:23:08Z</time>
      </trkpt>
      <trkpt lat="42.5786850" lon="-8.6433720">
        <ele>27.2</ele>
        <time>2019-08-17T11:23:09Z</time>
      </trkpt>
      <trkpt lat="42.5787540" lon="-8.6433660">
        <ele>27.2</ele>
        <time>2019-08-17T11:23:10Z</time>
      </trkpt>
      <trkpt lat="42.5792250" lon="-8.6433500">
        <ele>27.2</ele>
        <time>2019-08-17T11:23:17Z</time>
      </trkpt>
      <trkpt lat="42.5795860" lon="-8.6433440">
        <ele>27.2</ele>
        <time>2019-08-17T11:23:23Z</time>
      </trkpt>
      <trkpt lat="42.5799400" lon="-8.6433310">
        <ele>27.6</ele>
        <time>2019-08-17T11:23:29Z</time>
      </trkpt>
      <trkpt lat="42.5800640" lon="-8.6433450">
        <ele>27.8</ele>
        <time>2019-08-17T11:23:31Z</time>
      </trkpt>
      <trkpt lat="42.5802310" lon="-8.6434000">
        <ele>28.0</ele>
        <time>2019-08-17T11:23:34Z</time>
      </trkpt>
      <trkpt lat="42.5803370" lon="-8.6434570">
        <ele>28.1</ele>
        <time>2019-08-17T11:23:36Z</time>
      </trkpt>
      <trkpt lat="42.5804320" lon="-8.6435620">
        <ele>28.1</ele>
        <time>2019-08-17T11:23:38Z</time>
      </trkpt>
      <trkpt lat="42.5807630" lon="-8.6440670">
        <ele>28.1</ele>
        <time>2019-08-17T11:23:46Z</time>
      </trkpt>
      <trkpt lat="42.5811130" lon="-8.6443780">
        <ele>27.5</ele>
        <time>2019-08-17T11:23:52Z</time>
      </trkpt>
      <trkpt lat="42.5814790" lon="-8.6445950">
        <ele>27.1</ele>
        <time>2019-08-17T11:23:58Z</time>
      </trkpt>
      <trkpt lat="42.5819300" lon="-8.6447860">
        <ele>26.5</ele>
        <time>2019-08-17T11:24:04Z</time>
      </trkpt>
      <trkpt lat="42.5820870" lon="-8.6448160">
        <ele>26.1</ele>
        <time>2019-08-17T11:24:06Z</time>
      </trkpt>
      <trkpt lat="42.5821660" lon="-8.6448070">
        <ele>25.9</ele>
        <time>2019-08-17T11:24:07Z</time>
      </trkpt>
      <trkpt lat="42.5822380" lon="-8.6447870">
        <ele>25.7</ele>
        <time>2019-08-17T11:24:08Z</time>
      </trkpt>
      <trkpt lat="42.5823050" lon="-8.6447640">
        <ele>25.5</ele>
        <time>2019-08-17T11:24:09Z</time>
      </trkpt>
      <trkpt lat="42.5823660" lon="-8.6447320">
        <ele>25.3</ele>
        <time>2019-08-17T11:24:10Z</time>
      </trkpt>
      <trkpt lat="42.5824230" lon="-8.6446910">
        <ele>25.1</ele>
        <time>2019-08-17T11:24:11Z</time>
      </trkpt>
      <trkpt lat="42.5824750" lon="-8.6446500">
        <ele>24.9</ele>
        <time>2019-08-17T11:24:12Z</time>
      </trkpt>
      <trkpt lat="42.5826270" lon="-8.6445670">
        <ele>24.5</ele>
        <time>2019-08-17T11:24:15Z</time>
      </trkpt>
      <trkpt lat="42.5826820" lon="-8.6445690">
        <ele>24.4</ele>
        <time>2019-08-17T11:24:16Z</time>
      </trkpt>
      <trkpt lat="42.5828460" lon="-8.6446530">
        <ele>24.3</ele>
        <time>2019-08-17T11:24:19Z</time>
      </trkpt>
      <trkpt lat="42.5829840" lon="-8.6447110">
        <ele>24.3</ele>
        <time>2019-08-17T11:24:21Z</time>
      </trkpt>
      <trkpt lat="42.5831290" lon="-8.6447200">
        <ele>24.6</ele>
        <time>2019-08-17T11:24:23Z</time>
      </trkpt>
      <trkpt lat="42.5834590" lon="-8.6446890">
        <ele>25.2</ele>
        <time>2019-08-17T11:24:27Z</time>
      </trkpt>
      <trkpt lat="42.5835390" lon="-8.6447150">
        <ele>25.4</ele>
        <time>2019-08-17T11:24:28Z</time>
      </trkpt>
      <trkpt lat="42.5838870" lon="-8.6449400">
        <ele>26.2</ele>
        <time>2019-08-17T11:24:32Z</time>
      </trkpt>
      <trkpt lat="42.5839590" lon="-8.6450030">
        <ele>26.4</ele>
        <time>2019-08-17T11:24:33Z</time>
      </trkpt>
      <trkpt lat="42.5840300" lon="-8.6450760">
        <ele>26.6</ele>
        <time>2019-08-17T11:24:34Z</time>
      </trkpt>
      <trkpt lat="42.5840960" lon="-8.6451460">
        <ele>26.7</ele>
        <time>2019-08-17T11:24:35Z</time>
      </trkpt>
      <trkpt lat="42.5841630" lon="-8.6452180">
        <ele>26.9</ele>
        <time>2019-08-17T11:24:36Z</time>
      </trkpt>
      <trkpt lat="42.5842340" lon="-8.6452900">
        <ele>27.0</ele>
        <time>2019-08-17T11:24:37Z</time>
      </trkpt>
      <trkpt lat="42.5846040" lon="-8.6457000">
        <ele>26.4</ele>
        <time>2019-08-17T11:24:43Z</time>
      </trkpt>
      <trkpt lat="42.5848630" lon="-8.6458230">
        <ele>25.6</ele>
        <time>2019-08-17T11:24:46Z</time>
      </trkpt>
      <trkpt lat="42.5851260" lon="-8.6458350">
        <ele>25.2</ele>
        <time>2019-08-17T11:24:49Z</time>
      </trkpt>
      <trkpt lat="42.5852190" lon="-8.6458370">
        <ele>25.2</ele>
        <time>2019-08-17T11:24:50Z</time>
      </trkpt>
      <trkpt lat="42.5857710" lon="-8.6458000">
        <ele>25.1</ele>
        <time>2019-08-17T11:24:56Z</time>
      </trkpt>
      <trkpt lat="42.5861280" lon="-8.6458770">
        <ele>25.1</ele>
        <time>2019-08-17T11:25:00Z</time>
      </trkpt>
      <trkpt lat="42.5864030" lon="-8.6459060">
        <ele>25.1</ele>
        <time>2019-08-17T11:25:03Z</time>
      </trkpt>
      <trkpt lat="42.5864880" lon="-8.6458960">
        <ele>25.1</ele>
        <time>2019-08-17T11:25:04Z</time>
      </trkpt>
      <trkpt lat="42.5867150" lon="-8.6457850">
        <ele>25.1</ele>
        <time>2019-08-17T11:25:07Z</time>
      </trkpt>
      <trkpt lat="42.5868400" lon="-8.6456620">
        <ele>25.3</ele>
        <time>2019-08-17T11:25:09Z</time>
      </trkpt>
      <trkpt lat="42.5870690" lon="-8.6455350">
        <ele>25.8</ele>
        <time>2019-08-17T11:25:12Z</time>
      </trkpt>
      <trkpt lat="42.5874210" lon="-8.6454060">
        <ele>26.4</ele>
        <time>2019-08-17T11:25:17Z</time>
      </trkpt>
      <trkpt lat="42.5875230" lon="-8.6453900">
        <ele>26.8</ele>
        <time>2019-08-17T11:25:20Z</time>
      </trkpt>
      <trkpt lat="42.5876190" lon="-8.6454080">
        <ele>27.2</ele>
        <time>2019-08-17T11:25:23Z</time>
      </trkpt>
      <trkpt lat="42.5876540" lon="-8.6454030">
        <ele>27.3</ele>
        <time>2019-08-17T11:25:24Z</time>
      </trkpt>
      <trkpt lat="42.5876940" lon="-8.6453900">
        <ele>27.3</ele>
        <time>2019-08-17T11:25:25Z</time>
      </trkpt>
      <trkpt lat="42.5877320" lon="-8.6453730">
        <ele>27.2</ele>
        <time>2019-08-17T11:25:26Z</time>
      </trkpt>
      <trkpt lat="42.5877720" lon="-8.6453570">
        <ele>27.1</ele>
        <time>2019-08-17T11:25:27Z</time>
      </trkpt>
      <trkpt lat="42.5879200" lon="-8.6452820">
        <ele>26.7</ele>
        <time>2019-08-17T11:25:31Z</time>
      </trkpt>
      <trkpt lat="42.5879970" lon="-8.6452510">
        <ele>26.6</ele>
        <time>2019-08-17T11:25:33Z</time>
      </trkpt>
      <trkpt lat="42.5881140" lon="-8.6452410">
        <ele>26.5</ele>
        <time>2019-08-17T11:25:36Z</time>
      </trkpt>
      <trkpt lat="42.5882860" lon="-8.6453050">
        <ele>26.4</ele>
        <time>2019-08-17T11:25:41Z</time>
      </trkpt>
      <trkpt lat="42.5883120" lon="-8.6453090">
        <ele>26.4</ele>
        <time>2019-08-17T11:25:42Z</time>
      </trkpt>
      <trkpt lat="42.5883340" lon="-8.6453020">
        <ele>26.4</ele>
        <time>2019-08-17T11:25:43Z</time>
      </trkpt>
      <trkpt lat="42.5883480" lon="-8.6453020">
        <ele>26.3</ele>
        <time>2019-08-17T11:25:45Z</time>
      </trkpt>
      <trkpt lat="42.5884020" lon="-8.6453490">
        <ele>26.2</ele>
        <time>2019-08-17T11:25:50Z</time>
      </trkpt>
      <trkpt lat="42.5884640" lon="-8.6453600">
        <ele>26.1</ele>
        <time>2019-08-17T11:25:52Z</time>
      </trkpt>
      <trkpt lat="42.5885860" lon="-8.6453750">
        <ele>25.9</ele>
        <time>2019-08-17T11:25:55Z</time>
      </trkpt>
      <trkpt lat="42.5886700" lon="-8.6453790">
        <ele>25.8</ele>
        <time>2019-08-17T11:25:57Z</time>
      </trkpt>
      <trkpt lat="42.5888990" lon="-8.6453680">
        <ele>25.5</ele>
        <time>2019-08-17T11:26:03Z</time>
      </trkpt>
      <trkpt lat="42.5891130" lon="-8.6454250">
        <ele>25.4</ele>
        <time>2019-08-17T11:26:10Z</time>
      </trkpt>
      <trkpt lat="42.5893340" lon="-8.6454780">
        <ele>25.3</ele>
        <time>2019-08-17T11:26:18Z</time>
      </trkpt>
      <trkpt lat="42.5894090" lon="-8.6455340">
        <ele>25.3</ele>
        <time>2019-08-17T11:26:22Z</time>
      </trkpt>
      <trkpt lat="42.5894150" lon="-8.6455290">
        <ele>25.3</ele>
        <time>2019-08-17T11:29:45Z</time>
      </trkpt>
      <trkpt lat="42.5894350" lon="-8.6455030">
        <ele>25.3</ele>
        <time>2019-08-17T11:29:47Z</time>
      </trkpt>
      <trkpt lat="42.5894700" lon="-8.6454870">
        <ele>25.3</ele>
        <time>2019-08-17T11:29:48Z</time>
      </trkpt>
      <trkpt lat="42.5897110" lon="-8.6453530">
        <ele>25.7</ele>
        <time>2019-08-17T11:29:55Z</time>
      </trkpt>
      <trkpt lat="42.5900180" lon="-8.6451560">
        <ele>26.1</ele>
        <time>2019-08-17T11:30:04Z</time>
      </trkpt>
      <trkpt lat="42.5902730" lon="-8.6449780">
        <ele>26.6</ele>
        <time>2019-08-17T11:30:11Z</time>
      </trkpt>
      <trkpt lat="42.5907350" lon="-8.6446140">
        <ele>27.7</ele>
        <time>2019-08-17T11:30:23Z</time>
      </trkpt>
      <trkpt lat="42.5911430" lon="-8.6442220">
        <ele>28.9</ele>
        <time>2019-08-17T11:30:34Z</time>
      </trkpt>
      <trkpt lat="42.5913590" lon="-8.6440110">
        <ele>29.9</ele>
        <time>2019-08-17T11:30:40Z</time>
      </trkpt>
      <trkpt lat="42.5913980" lon="-8.6439880">
        <ele>30.1</ele>
        <time>2019-08-17T11:30:41Z</time>
      </trkpt>
      <trkpt lat="42.5914370" lon="-8.6439780">
        <ele>30.3</ele>
        <time>2019-08-17T11:30:42Z</time>
      </trkpt>
      <trkpt lat="42.5914800" lon="-8.6439740">
        <ele>30.5</ele>
        <time>2019-08-17T11:30:43Z</time>
      </trkpt>
      <trkpt lat="42.5915240" lon="-8.6439690">
        <ele>30.7</ele>
        <time>2019-08-17T11:30:44Z</time>
      </trkpt>
      <trkpt lat="42.5917410" lon="-8.6439760">
        <ele>31.6</ele>
        <time>2019-08-17T11:30:49Z</time>
      </trkpt>
      <trkpt lat="42.5918320" lon="-8.6440190">
        <ele>32.1</ele>
        <time>2019-08-17T11:30:51Z</time>
      </trkpt>
      <trkpt lat="42.5921390" lon="-8.6441480">
        <ele>33.7</ele>
        <time>2019-08-17T11:30:58Z</time>
      </trkpt>
      <trkpt lat="42.5923010" lon="-8.6441950">
        <ele>34.4</ele>
        <time>2019-08-17T11:31:02Z</time>
      </trkpt>
      <trkpt lat="42.5923420" lon="-8.6442060">
        <ele>34.6</ele>
        <time>2019-08-17T11:31:03Z</time>
      </trkpt>
      <trkpt lat="42.5923780" lon="-8.6442130">
        <ele>34.8</ele>
        <time>2019-08-17T11:31:04Z</time>
      </trkpt>
      <trkpt lat="42.5924180" lon="-8.6442210">
        <ele>34.9</ele>
        <time>2019-08-17T11:31:05Z</time>
      </trkpt>
      <trkpt lat="42.5924570" lon="-8.6442280">
        <ele>35.1</ele>
        <time>2019-08-17T11:31:06Z</time>
      </trkpt>
      <trkpt lat="42.5926260" lon="-8.6442450">
        <ele>35.7</ele>
        <time>2019-08-17T11:31:10Z</time>
      </trkpt>
      <trkpt lat="42.5927070" lon="-8.6442310">
        <ele>36.0</ele>
        <time>2019-08-17T11:31:12Z</time>
      </trkpt>
      <trkpt lat="42.5927460" lon="-8.6442170">
        <ele>36.1</ele>
        <time>2019-08-17T11:31:13Z</time>
      </trkpt>
      <trkpt lat="42.5927840" lon="-8.6441980">
        <ele>36.3</ele>
        <time>2019-08-17T11:31:14Z</time>
      </trkpt>
      <trkpt lat="42.5928230" lon="-8.6441800">
        <ele>36.4</ele>
        <time>2019-08-17T11:31:15Z</time>
      </trkpt>
      <trkpt lat="42.5928630" lon="-8.6441630">
        <ele>36.6</ele>
        <time>2019-08-17T11:31:16Z</time>
      </trkpt>
      <trkpt lat="42.5929510" lon="-8.6441310">
        <ele>36.9</ele>
        <time>2019-08-17T11:31:18Z</time>
      </trkpt>
      <trkpt lat="42.5931700" lon="-8.6440500">
        <ele>37.5</ele>
        <time>2019-08-17T11:31:23Z</time>
      </trkpt>
      <trkpt lat="42.5932180" lon="-8.6440290">
        <ele>37.7</ele>
        <time>2019-08-17T11:31:24Z</time>
      </trkpt>
      <trkpt lat="42.5932620" lon="-8.6440070">
        <ele>37.8</ele>
        <time>2019-08-17T11:31:25Z</time>
      </trkpt>
      <trkpt lat="42.5933080" lon="-8.6439860">
        <ele>38.0</ele>
        <time>2019-08-17T11:31:26Z</time>
      </trkpt>
      <trkpt lat="42.5933530" lon="-8.6439670">
        <ele>38.1</ele>
        <time>2019-08-17T11:31:27Z</time>
      </trkpt>
      <trkpt lat="42.5934000" lon="-8.6439460">
        <ele>38.2</ele>
        <time>2019-08-17T11:31:28Z</time>
      </trkpt>
      <trkpt lat="42.5938140" lon="-8.6437670">
        <ele>39.6</ele>
        <time>2019-08-17T11:31:37Z</time>
      </trkpt>
      <trkpt lat="42.5938600" lon="-8.6437480">
        <ele>39.7</ele>
        <time>2019-08-17T11:31:38Z</time>
      </trkpt>
      <trkpt lat="42.5939030" lon="-8.6437340">
        <ele>39.9</ele>
        <time>2019-08-17T11:31:39Z</time>
      </trkpt>
      <trkpt lat="42.5939480" lon="-8.6437220">
        <ele>40.0</ele>
        <time>2019-08-17T11:31:40Z</time>
      </trkpt>
      <trkpt lat="42.5939950" lon="-8.6437110">
        <ele>40.2</ele>
        <time>2019-08-17T11:31:41Z</time>
      </trkpt>
      <trkpt lat="42.5942780" lon="-8.6436110">
        <ele>41.4</ele>
        <time>2019-08-17T11:31:47Z</time>
      </trkpt>
      <trkpt lat="42.5943760" lon="-8.6435790">
        <ele>41.9</ele>
        <time>2019-08-17T11:31:49Z</time>
      </trkpt>
      <trkpt lat="42.5944240" lon="-8.6435650">
        <ele>42.1</ele>
        <time>2019-08-17T11:31:50Z</time>
      </trkpt>
      <trkpt lat="42.5944700" lon="-8.6435540">
        <ele>42.3</ele>
        <time>2019-08-17T11:31:51Z</time>
      </trkpt>
      <trkpt lat="42.5945680" lon="-8.6435370">
        <ele>42.6</ele>
        <time>2019-08-17T11:31:53Z</time>
      </trkpt>
      <trkpt lat="42.5946600" lon="-8.6435280">
        <ele>42.9</ele>
        <time>2019-08-17T11:31:55Z</time>
      </trkpt>
      <trkpt lat="42.5947000" lon="-8.6435330">
        <ele>42.9</ele>
        <time>2019-08-17T11:31:56Z</time>
      </trkpt>
      <trkpt lat="42.5947440" lon="-8.6435380">
        <ele>43.0</ele>
        <time>2019-08-17T11:31:57Z</time>
      </trkpt>
      <trkpt lat="42.5947860" lon="-8.6435440">
        <ele>43.1</ele>
        <time>2019-08-17T11:31:58Z</time>
      </trkpt>
      <trkpt lat="42.5948310" lon="-8.6435550">
        <ele>43.1</ele>
        <time>2019-08-17T11:31:59Z</time>
      </trkpt>
      <trkpt lat="42.5948780" lon="-8.6435680">
        <ele>43.1</ele>
        <time>2019-08-17T11:32:00Z</time>
      </trkpt>
      <trkpt lat="42.5949240" lon="-8.6435830">
        <ele>43.2</ele>
        <time>2019-08-17T11:32:01Z</time>
      </trkpt>
      <trkpt lat="42.5951020" lon="-8.6436380">
        <ele>43.1</ele>
        <time>2019-08-17T11:32:05Z</time>
      </trkpt>
      <trkpt lat="42.5953430" lon="-8.6436620">
        <ele>42.8</ele>
        <time>2019-08-17T11:32:10Z</time>
      </trkpt>
      <trkpt lat="42.5954440" lon="-8.6436570">
        <ele>42.6</ele>
        <time>2019-08-17T11:32:12Z</time>
      </trkpt>
      <trkpt lat="42.5956530" lon="-8.6436540">
        <ele>42.4</ele>
        <time>2019-08-17T11:32:16Z</time>
      </trkpt>
      <trkpt lat="42.5959280" lon="-8.6436490">
        <ele>42.3</ele>
        <time>2019-08-17T11:32:21Z</time>
      </trkpt>
      <trkpt lat="42.5959790" lon="-8.6436440">
        <ele>42.2</ele>
        <time>2019-08-17T11:32:22Z</time>
      </trkpt>
      <trkpt lat="42.5962910" lon="-8.6435950">
        <ele>41.2</ele>
        <time>2019-08-17T11:32:29Z</time>
      </trkpt>
      <trkpt lat="42.5964170" lon="-8.6436020">
        <ele>40.4</ele>
        <time>2019-08-17T11:32:32Z</time>
      </trkpt>
      <trkpt lat="42.5965280" lon="-8.6436010">
        <ele>39.6</ele>
        <time>2019-08-17T11:32:34Z</time>
      </trkpt>
      <trkpt lat="42.5968030" lon="-8.6435920">
        <ele>37.6</ele>
        <time>2019-08-17T11:32:38Z</time>
      </trkpt>
      <trkpt lat="42.5968820" lon="-8.6435870">
        <ele>37.1</ele>
        <time>2019-08-17T11:32:39Z</time>
      </trkpt>
      <trkpt lat="42.5969610" lon="-8.6435840">
        <ele>36.7</ele>
        <time>2019-08-17T11:32:40Z</time>
      </trkpt>
      <trkpt lat="42.5970400" lon="-8.6435810">
        <ele>36.2</ele>
        <time>2019-08-17T11:32:41Z</time>
      </trkpt>
      <trkpt lat="42.5971220" lon="-8.6435770">
        <ele>35.7</ele>
        <time>2019-08-17T11:32:42Z</time>
      </trkpt>
      <trkpt lat="42.5972000" lon="-8.6435750">
        <ele>35.2</ele>
        <time>2019-08-17T11:32:43Z</time>
      </trkpt>
      <trkpt lat="42.5972610" lon="-8.6435720">
        <ele>34.9</ele>
        <time>2019-08-17T11:32:44Z</time>
      </trkpt>
      <trkpt lat="42.5973350" lon="-8.6435720">
        <ele>34.3</ele>
        <time>2019-08-17T11:32:45Z</time>
      </trkpt>
      <trkpt lat="42.5974070" lon="-8.6435700">
        <ele>34.0</ele>
        <time>2019-08-17T11:32:46Z</time>
      </trkpt>
      <trkpt lat="42.5974770" lon="-8.6435650">
        <ele>33.8</ele>
        <time>2019-08-17T11:32:47Z</time>
      </trkpt>
      <trkpt lat="42.5975470" lon="-8.6435590">
        <ele>33.6</ele>
        <time>2019-08-17T11:32:48Z</time>
      </trkpt>
      <trkpt lat="42.5976150" lon="-8.6435600">
        <ele>33.4</ele>
        <time>2019-08-17T11:32:49Z</time>
      </trkpt>
      <trkpt lat="42.5976840" lon="-8.6435600">
        <ele>33.2</ele>
        <time>2019-08-17T11:32:50Z</time>
      </trkpt>
      <trkpt lat="42.5977560" lon="-8.6435560">
        <ele>33.0</ele>
        <time>2019-08-17T11:32:51Z</time>
      </trkpt>
      <trkpt lat="42.5978900" lon="-8.6435340">
        <ele>32.7</ele>
        <time>2019-08-17T11:32:53Z</time>
      </trkpt>
      <trkpt lat="42.5980670" lon="-8.6434990">
        <ele>32.4</ele>
        <time>2019-08-17T11:32:57Z</time>
      </trkpt>
      <trkpt lat="42.5981230" lon="-8.6434480">
        <ele>32.3</ele>
        <time>2019-08-17T11:32:59Z</time>
      </trkpt>
      <trkpt lat="42.5981490" lon="-8.6434140">
        <ele>32.3</ele>
        <time>2019-08-17T11:33:00Z</time>
      </trkpt>
      <trkpt lat="42.5981760" lon="-8.6433800">
        <ele>32.3</ele>
        <time>2019-08-17T11:33:01Z</time>
      </trkpt>
      <trkpt lat="42.5982050" lon="-8.6433530">
        <ele>32.2</ele>
        <time>2019-08-17T11:33:02Z</time>
      </trkpt>
      <trkpt lat="42.5982410" lon="-8.6433310">
        <ele>32.2</ele>
        <time>2019-08-17T11:33:03Z</time>
      </trkpt>
      <trkpt lat="42.5984190" lon="-8.6432950">
        <ele>31.9</ele>
        <time>2019-08-17T11:33:08Z</time>
      </trkpt>
      <trkpt lat="42.5986370" lon="-8.6432890">
        <ele>31.1</ele>
        <time>2019-08-17T11:33:13Z</time>
      </trkpt>
      <trkpt lat="42.5986810" lon="-8.6432910">
        <ele>31.0</ele>
        <time>2019-08-17T11:33:14Z</time>
      </trkpt>
      <trkpt lat="42.5987760" lon="-8.6433040">
        <ele>30.7</ele>
        <time>2019-08-17T11:33:16Z</time>
      </trkpt>
      <trkpt lat="42.5988250" lon="-8.6433120">
        <ele>30.5</ele>
        <time>2019-08-17T11:33:17Z</time>
      </trkpt>
      <trkpt lat="42.5988720" lon="-8.6433160">
        <ele>30.4</ele>
        <time>2019-08-17T11:33:18Z</time>
      </trkpt>
      <trkpt lat="42.5989210" lon="-8.6433220">
        <ele>30.3</ele>
        <time>2019-08-17T11:33:19Z</time>
      </trkpt>
      <trkpt lat="42.5989730" lon="-8.6433260">
        <ele>30.1</ele>
        <time>2019-08-17T11:33:20Z</time>
      </trkpt>
      <trkpt lat="42.5990260" lon="-8.6433250">
        <ele>30.0</ele>
        <time>2019-08-17T11:33:21Z</time>
      </trkpt>
      <trkpt lat="42.5990780" lon="-8.6433180">
        <ele>29.8</ele>
        <time>2019-08-17T11:33:22Z</time>
      </trkpt>
      <trkpt lat="42.5993350" lon="-8.6432480">
        <ele>29.3</ele>
        <time>2019-08-17T11:33:27Z</time>
      </trkpt>
      <trkpt lat="42.5995400" lon="-8.6432180">
        <ele>28.9</ele>
        <time>2019-08-17T11:33:31Z</time>
      </trkpt>
      <trkpt lat="42.5996270" lon="-8.6431700">
        <ele>28.7</ele>
        <time>2019-08-17T11:33:33Z</time>
      </trkpt>
      <trkpt lat="42.5997260" lon="-8.6430660">
        <ele>28.5</ele>
        <time>2019-08-17T11:33:37Z</time>
      </trkpt>
      <trkpt lat="42.5997170" lon="-8.6430130">
        <ele>28.5</ele>
        <time>2019-08-17T11:33:40Z</time>
      </trkpt>
      <trkpt lat="42.5997000" lon="-8.6430050">
        <ele>28.5</ele>
        <time>2019-08-17T11:33:41Z</time>
      </trkpt>
      <trkpt lat="42.5996850" lon="-8.6430010">
        <ele>28.5</ele>
        <time>2019-08-17T11:33:42Z</time>
      </trkpt>
      <trkpt lat="42.5996630" lon="-8.6430000">
        <ele>28.4</ele>
        <time>2019-08-17T11:33:43Z</time>
      </trkpt>
      <trkpt lat="42.5996400" lon="-8.6429990">
        <ele>29.0</ele>
        <time>2019-08-17T11:33:44Z</time>
      </trkpt>
      <trkpt lat="42.5995280" lon="-8.6429940">
        <ele>29.2</ele>
        <time>2019-08-17T11:33:48Z</time>
      </trkpt>
      <trkpt lat="42.5992590" lon="-8.6429890">
        <ele>29.8</ele>
        <time>2019-08-17T11:33:55Z</time>
      </trkpt>
      <trkpt lat="42.5990020" lon="-8.6429620">
        <ele>30.1</ele>
        <time>2019-08-17T11:34:02Z</time>
      </trkpt>
      <trkpt lat="42.5989520" lon="-8.6429240">
        <ele>30.2</ele>
        <time>2019-08-17T11:34:05Z</time>
      </trkpt>
      <trkpt lat="42.5989470" lon="-8.6429160">
        <ele>30.2</ele>
        <time>2019-08-17T11:34:06Z</time>
      </trkpt>
      <trkpt lat="42.5989470" lon="-8.6429030">
        <ele>30.2</ele>
        <time>2019-08-17T11:35:35Z</time>
      </trkpt>
      <trkpt lat="42.5989580" lon="-8.6429000">
        <ele>30.2</ele>
        <time>2019-08-17T11:35:36Z</time>
      </trkpt>
      <trkpt lat="42.5989840" lon="-8.6428940">
        <ele>30.3</ele>
        <time>2019-08-17T11:35:37Z</time>
      </trkpt>
      <trkpt lat="42.5992180" lon="-8.6428830">
        <ele>29.9</ele>
        <time>2019-08-17T11:35:42Z</time>
      </trkpt>
      <trkpt lat="42.5995010" lon="-8.6428560">
        <ele>29.3</ele>
        <time>2019-08-17T11:35:49Z</time>
      </trkpt>
      <trkpt lat="42.5997460" lon="-8.6428280">
        <ele>28.7</ele>
        <time>2019-08-17T11:35:55Z</time>
      </trkpt>
      <trkpt lat="42.5999530" lon="-8.6428030">
        <ele>27.8</ele>
        <time>2019-08-17T11:35:59Z</time>
      </trkpt>
      <trkpt lat="42.6000060" lon="-8.6427960">
        <ele>27.8</ele>
        <time>2019-08-17T11:36:00Z</time>
      </trkpt>
      <trkpt lat="42.6000600" lon="-8.6427850">
        <ele>27.5</ele>
        <time>2019-08-17T11:36:01Z</time>
      </trkpt>
      <trkpt lat="42.6001190" lon="-8.6427750">
        <ele>27.3</ele>
        <time>2019-08-17T11:36:02Z</time>
      </trkpt>
      <trkpt lat="42.6001730" lon="-8.6427660">
        <ele>27.2</ele>
        <time>2019-08-17T11:36:03Z</time>
      </trkpt>
      <trkpt lat="42.6004130" lon="-8.6427360">
        <ele>26.5</ele>
        <time>2019-08-17T11:36:07Z</time>
      </trkpt>
      <trkpt lat="42.6004770" lon="-8.6427290">
        <ele>26.3</ele>
        <time>2019-08-17T11:36:08Z</time>
      </trkpt>
      <trkpt lat="42.6005440" lon="-8.6427210">
        <ele>26.1</ele>
        <time>2019-08-17T11:36:09Z</time>
      </trkpt>
      <trkpt lat="42.6006080" lon="-8.6427120">
        <ele>25.9</ele>
        <time>2019-08-17T11:36:10Z</time>
      </trkpt>
      <trkpt lat="42.6007420" lon="-8.6426970">
        <ele>25.5</ele>
        <time>2019-08-17T11:36:12Z</time>
      </trkpt>
      <trkpt lat="42.6011950" lon="-8.6426400">
        <ele>24.0</ele>
        <time>2019-08-17T11:36:18Z</time>
      </trkpt>
      <trkpt lat="42.6012750" lon="-8.6426280">
        <ele>23.8</ele>
        <time>2019-08-17T11:36:19Z</time>
      </trkpt>
      <trkpt lat="42.6013520" lon="-8.6426170">
        <ele>23.7</ele>
        <time>2019-08-17T11:36:20Z</time>
      </trkpt>
      <trkpt lat="42.6014380" lon="-8.6426110">
        <ele>23.5</ele>
        <time>2019-08-17T11:36:21Z</time>
      </trkpt>
      <trkpt lat="42.6015170" lon="-8.6426080">
        <ele>23.3</ele>
        <time>2019-08-17T11:36:22Z</time>
      </trkpt>
      <trkpt lat="42.6017450" lon="-8.6425960">
        <ele>22.8</ele>
        <time>2019-08-17T11:36:25Z</time>
      </trkpt>
      <trkpt lat="42.6018100" lon="-8.6425880">
        <ele>22.6</ele>
        <time>2019-08-17T11:36:26Z</time>
      </trkpt>
      <trkpt lat="42.6018760" lon="-8.6425770">
        <ele>22.5</ele>
        <time>2019-08-17T11:36:27Z</time>
      </trkpt>
      <trkpt lat="42.6019390" lon="-8.6425610">
        <ele>22.4</ele>
        <time>2019-08-17T11:36:28Z</time>
      </trkpt>
      <trkpt lat="42.6020080" lon="-8.6425410">
        <ele>22.2</ele>
        <time>2019-08-17T11:36:29Z</time>
      </trkpt>
      <trkpt lat="42.6021490" lon="-8.6424950">
        <ele>22.1</ele>
        <time>2019-08-17T11:36:31Z</time>
      </trkpt>
      <trkpt lat="42.6026210" lon="-8.6424410">
        <ele>22.3</ele>
        <time>2019-08-17T11:36:38Z</time>
      </trkpt>
      <trkpt lat="42.6028320" lon="-8.6424120">
        <ele>23.1</ele>
        <time>2019-08-17T11:36:43Z</time>
      </trkpt>
      <trkpt lat="42.6031080" lon="-8.6423790">
        <ele>24.0</ele>
        <time>2019-08-17T11:36:49Z</time>
      </trkpt>
      <trkpt lat="42.6033490" lon="-8.6423070">
        <ele>24.7</ele>
        <time>2019-08-17T11:36:55Z</time>
      </trkpt>
      <trkpt lat="42.6036590" lon="-8.6422030">
        <ele>27.3</ele>
        <time>2019-08-17T11:37:01Z</time>
      </trkpt>
      <trkpt lat="42.6038800" lon="-8.6420650">
        <ele>29.3</ele>
        <time>2019-08-17T11:37:07Z</time>
      </trkpt>
      <trkpt lat="42.6040150" lon="-8.6420110">
        <ele>30.2</ele>
        <time>2019-08-17T11:37:12Z</time>
      </trkpt>
      <trkpt lat="42.6040900" lon="-8.6419050">
        <ele>30.5</ele>
        <time>2019-08-17T11:37:19Z</time>
      </trkpt>
      <trkpt lat="42.6041060" lon="-8.6418890">
        <ele>30.5</ele>
        <time>2019-08-17T11:37:20Z</time>
      </trkpt>
      <trkpt lat="42.6041480" lon="-8.6418130">
        <ele>30.6</ele>
        <time>2019-08-17T11:37:29Z</time>
      </trkpt>
      <trkpt lat="42.6041720" lon="-8.6417800">
        <ele>30.7</ele>
        <time>2019-08-17T11:37:30Z</time>
      </trkpt>
      <trkpt lat="42.6042750" lon="-8.6415610">
        <ele>31.2</ele>
        <time>2019-08-17T11:37:35Z</time>
      </trkpt>
      <trkpt lat="42.6043160" lon="-8.6415300">
        <ele>31.3</ele>
        <time>2019-08-17T11:37:36Z</time>
      </trkpt>
      <trkpt lat="42.6043490" lon="-8.6414930">
        <ele>31.4</ele>
        <time>2019-08-17T11:37:37Z</time>
      </trkpt>
      <trkpt lat="42.6043740" lon="-8.6414550">
        <ele>31.4</ele>
        <time>2019-08-17T11:37:38Z</time>
      </trkpt>
      <trkpt lat="42.6044000" lon="-8.6414150">
        <ele>31.5</ele>
        <time>2019-08-17T11:37:39Z</time>
      </trkpt>
      <trkpt lat="42.6044210" lon="-8.6413140">
        <ele>31.5</ele>
        <time>2019-08-17T11:37:41Z</time>
      </trkpt>
      <trkpt lat="42.6043540" lon="-8.6411000">
        <ele>32.2</ele>
        <time>2019-08-17T11:37:45Z</time>
      </trkpt>
      <trkpt lat="42.6043060" lon="-8.6409740">
        <ele>32.3</ele>
        <time>2019-08-17T11:37:47Z</time>
      </trkpt>
      <trkpt lat="42.6042580" lon="-8.6408860">
        <ele>32.4</ele>
        <time>2019-08-17T11:37:49Z</time>
      </trkpt>
      <trkpt lat="42.6042500" lon="-8.6408570">
        <ele>32.4</ele>
        <time>2019-08-17T11:37:50Z</time>
      </trkpt>
      <trkpt lat="42.6042370" lon="-8.6408440">
        <ele>32.4</ele>
        <time>2019-08-17T11:37:51Z</time>
      </trkpt>
      <trkpt lat="42.6042450" lon="-8.6408430">
        <ele>32.5</ele>
        <time>2019-08-17T11:37:52Z</time>
      </trkpt>
      <trkpt lat="42.6042380" lon="-8.6407600">
        <ele>32.5</ele>
        <time>2019-08-17T11:42:36Z</time>
      </trkpt>
      <trkpt lat="42.6042350" lon="-8.6407530">
        <ele>32.5</ele>
        <time>2019-08-17T11:42:38Z</time>
      </trkpt>
      <trkpt lat="42.6042200" lon="-8.6407180">
        <ele>32.5</ele>
        <time>2019-08-17T11:42:46Z</time>
      </trkpt>
      <trkpt lat="42.6042080" lon="-8.6406910">
        <ele>32.6</ele>
        <time>2019-08-17T11:42:49Z</time>
      </trkpt>
      <trkpt lat="42.6041970" lon="-8.6406780">
        <ele>32.6</ele>
        <time>2019-08-17T11:42:52Z</time>
      </trkpt>
      <trkpt lat="42.6040230" lon="-8.6406990">
        <ele>32.8</ele>
        <time>2019-08-17T11:54:05Z</time>
      </trkpt>
      <trkpt lat="42.6040040" lon="-8.6406980">
        <ele>32.8</ele>
        <time>2019-08-17T11:54:07Z</time>
      </trkpt>
      <trkpt lat="42.6039750" lon="-8.6406990">
        <ele>32.8</ele>
        <time>2019-08-17T11:54:12Z</time>
      </trkpt>
      <trkpt lat="42.6041400" lon="-8.6406550">
        <ele>32.9</ele>
        <time>2019-08-17T11:59:14Z</time>
      </trkpt>
      <trkpt lat="42.6040520" lon="-8.6406520">
        <ele>33.0</ele>
        <time>2019-08-17T11:59:17Z</time>
      </trkpt>
      <trkpt lat="42.6039840" lon="-8.6406620">
        <ele>33.1</ele>
        <time>2019-08-17T11:59:23Z</time>
      </trkpt>
      <trkpt lat="42.6040340" lon="-8.6406850">
        <ele>33.1</ele>
        <time>2019-08-17T12:02:32Z</time>
      </trkpt>
      <trkpt lat="42.6040060" lon="-8.6406900">
        <ele>33.1</ele>
        <time>2019-08-17T12:02:34Z</time>
      </trkpt>
      <trkpt lat="42.6039090" lon="-8.6406780">
        <ele>33.2</ele>
        <time>2019-08-17T12:02:48Z</time>
      </trkpt>
      <trkpt lat="42.6040310" lon="-8.6407970">
        <ele>33.0</ele>
        <time>2019-08-17T12:20:31Z</time>
      </trkpt>
      <trkpt lat="42.6040290" lon="-8.6407990">
        <ele>33.0</ele>
        <time>2019-08-17T12:20:32Z</time>
      </trkpt>
      <trkpt lat="42.6040640" lon="-8.6407390">
        <ele>32.9</ele>
        <time>2019-08-17T12:21:07Z</time>
      </trkpt>
      <trkpt lat="42.6040480" lon="-8.6407420">
        <ele>32.9</ele>
        <time>2019-08-17T12:21:09Z</time>
      </trkpt>
      <trkpt lat="42.6039860" lon="-8.6407560">
        <ele>32.8</ele>
        <time>2019-08-17T12:21:19Z</time>
      </trkpt>
      <trkpt lat="42.6039710" lon="-8.6407610">
        <ele>32.8</ele>
        <time>2019-08-17T12:21:26Z</time>
      </trkpt>
      <trkpt lat="42.6039840" lon="-8.6407860">
        <ele>32.8</ele>
        <time>2019-08-17T12:21:27Z</time>
      </trkpt>
      <trkpt lat="42.6040230" lon="-8.6408010">
        <ele>32.7</ele>
        <time>2019-08-17T12:21:31Z</time>
      </trkpt>
      <trkpt lat="42.6041040" lon="-8.6407870">
        <ele>32.6</ele>
        <time>2019-08-17T12:21:40Z</time>
      </trkpt>
      <trkpt lat="42.6042050" lon="-8.6407670">
        <ele>32.5</ele>
        <time>2019-08-17T12:21:52Z</time>
      </trkpt>
      <trkpt lat="42.6042080" lon="-8.6407670">
        <ele>32.5</ele>
        <time>2019-08-17T12:21:54Z</time>
      </trkpt>
      <trkpt lat="42.6042520" lon="-8.6407850">
        <ele>32.4</ele>
        <time>2019-08-17T12:22:47Z</time>
      </trkpt>
      <trkpt lat="42.6043320" lon="-8.6408420">
        <ele>32.3</ele>
        <time>2019-08-17T12:22:50Z</time>
      </trkpt>
      <trkpt lat="42.6044610" lon="-8.6410410">
        <ele>32.0</ele>
        <time>2019-08-17T12:22:56Z</time>
      </trkpt>
      <trkpt lat="42.6045900" lon="-8.6413890">
        <ele>31.5</ele>
        <time>2019-08-17T12:23:05Z</time>
      </trkpt>
      <trkpt lat="42.6045010" lon="-8.6415500">
        <ele>31.5</ele>
        <time>2019-08-17T12:23:10Z</time>
      </trkpt>
      <trkpt lat="42.6044580" lon="-8.6416000">
        <ele>31.4</ele>
        <time>2019-08-17T12:23:12Z</time>
      </trkpt>
      <trkpt lat="42.6044370" lon="-8.6416230">
        <ele>31.3</ele>
        <time>2019-08-17T12:23:13Z</time>
      </trkpt>
      <trkpt lat="42.6044030" lon="-8.6416570">
        <ele>31.3</ele>
        <time>2019-08-17T12:23:14Z</time>
      </trkpt>
      <trkpt lat="42.6043670" lon="-8.6416990">
        <ele>31.1</ele>
        <time>2019-08-17T12:23:15Z</time>
      </trkpt>
      <trkpt lat="42.6043350" lon="-8.6417370">
        <ele>31.0</ele>
        <time>2019-08-17T12:23:16Z</time>
      </trkpt>
      <trkpt lat="42.6043020" lon="-8.6417680">
        <ele>30.9</ele>
        <time>2019-08-17T12:23:17Z</time>
      </trkpt>
      <trkpt lat="42.6042280" lon="-8.6418480">
        <ele>30.7</ele>
        <time>2019-08-17T12:23:20Z</time>
      </trkpt>
      <trkpt lat="42.6042730" lon="-8.6420550">
        <ele>29.8</ele>
        <time>2019-08-17T12:23:28Z</time>
      </trkpt>
      <trkpt lat="42.6043040" lon="-8.6420680">
        <ele>29.6</ele>
        <time>2019-08-17T12:23:29Z</time>
      </trkpt>
      <trkpt lat="42.6043620" lon="-8.6421110">
        <ele>29.4</ele>
        <time>2019-08-17T12:23:31Z</time>
      </trkpt>
      <trkpt lat="42.6046260" lon="-8.6423480">
        <ele>28.1</ele>
        <time>2019-08-17T12:23:40Z</time>
      </trkpt>
      <trkpt lat="42.6047070" lon="-8.6425210">
        <ele>27.6</ele>
        <time>2019-08-17T12:23:44Z</time>
      </trkpt>
      <trkpt lat="42.6047390" lon="-8.6425540">
        <ele>27.5</ele>
        <time>2019-08-17T12:23:45Z</time>
      </trkpt>
      <trkpt lat="42.6047680" lon="-8.6425860">
        <ele>27.5</ele>
        <time>2019-08-17T12:23:46Z</time>
      </trkpt>
      <trkpt lat="42.6047970" lon="-8.6426130">
        <ele>27.4</ele>
        <time>2019-08-17T12:23:47Z</time>
      </trkpt>
      <trkpt lat="42.6048130" lon="-8.6426400">
        <ele>27.4</ele>
        <time>2019-08-17T12:23:48Z</time>
      </trkpt>
      <trkpt lat="42.6049580" lon="-8.6427650">
        <ele>27.4</ele>
        <time>2019-08-17T12:23:52Z</time>
      </trkpt>
      <trkpt lat="42.6052590" lon="-8.6429700">
        <ele>27.4</ele>
        <time>2019-08-17T12:24:00Z</time>
      </trkpt>
      <trkpt lat="42.6054350" lon="-8.6431060">
        <ele>27.3</ele>
        <time>2019-08-17T12:24:06Z</time>
      </trkpt>
      <trkpt lat="42.6055890" lon="-8.6432680">
        <ele>27.3</ele>
        <time>2019-08-17T12:24:12Z</time>
      </trkpt>
      <trkpt lat="42.6057760" lon="-8.6435530">
        <ele>27.6</ele>
        <time>2019-08-17T12:24:19Z</time>
      </trkpt>
      <trkpt lat="42.6061110" lon="-8.6439410">
        <ele>28.1</ele>
        <time>2019-08-17T12:24:28Z</time>
      </trkpt>
      <trkpt lat="42.6061540" lon="-8.6439680">
        <ele>28.1</ele>
        <time>2019-08-17T12:24:29Z</time>
      </trkpt>
      <trkpt lat="42.6063300" lon="-8.6441240">
        <ele>28.6</ele>
        <time>2019-08-17T12:24:34Z</time>
      </trkpt>
      <trkpt lat="42.6065470" lon="-8.6443000">
        <ele>29.3</ele>
        <time>2019-08-17T12:24:41Z</time>
      </trkpt>
      <trkpt lat="42.6067010" lon="-8.6444450">
        <ele>29.2</ele>
        <time>2019-08-17T12:24:47Z</time>
      </trkpt>
      <trkpt lat="42.6069070" lon="-8.6446320">
        <ele>29.2</ele>
        <time>2019-08-17T12:24:54Z</time>
      </trkpt>
      <trkpt lat="42.6071360" lon="-8.6448780">
        <ele>29.4</ele>
        <time>2019-08-17T12:25:03Z</time>
      </trkpt>
      <trkpt lat="42.6073230" lon="-8.6449900">
        <ele>29.4</ele>
        <time>2019-08-17T12:25:10Z</time>
      </trkpt>
      <trkpt lat="42.6075620" lon="-8.6450810">
        <ele>29.8</ele>
        <time>2019-08-17T12:25:18Z</time>
      </trkpt>
      <trkpt lat="42.6075930" lon="-8.6450920">
        <ele>29.9</ele>
        <time>2019-08-17T12:25:19Z</time>
      </trkpt>
      <trkpt lat="42.6076210" lon="-8.6451080">
        <ele>30.0</ele>
        <time>2019-08-17T12:25:20Z</time>
      </trkpt>
      <trkpt lat="42.6076450" lon="-8.6451190">
        <ele>30.1</ele>
        <time>2019-08-17T12:25:21Z</time>
      </trkpt>
      <trkpt lat="42.6076710" lon="-8.6451330">
        <ele>30.2</ele>
        <time>2019-08-17T12:25:22Z</time>
      </trkpt>
      <trkpt lat="42.6076980" lon="-8.6451590">
        <ele>30.3</ele>
        <time>2019-08-17T12:25:23Z</time>
      </trkpt>
      <trkpt lat="42.6077290" lon="-8.6451740">
        <ele>30.5</ele>
        <time>2019-08-17T12:25:24Z</time>
      </trkpt>
      <trkpt lat="42.6078940" lon="-8.6452780">
        <ele>31.3</ele>
        <time>2019-08-17T12:25:30Z</time>
      </trkpt>
      <trkpt lat="42.6081360" lon="-8.6452510">
        <ele>32.9</ele>
        <time>2019-08-17T12:25:37Z</time>
      </trkpt>
      <trkpt lat="42.6083520" lon="-8.6451780">
        <ele>34.1</ele>
        <time>2019-08-17T12:25:44Z</time>
      </trkpt>
      <trkpt lat="42.6084030" lon="-8.6451580">
        <ele>34.4</ele>
        <time>2019-08-17T12:25:46Z</time>
      </trkpt>
      <trkpt lat="42.6084340" lon="-8.6451490">
        <ele>34.6</ele>
        <time>2019-08-17T12:25:47Z</time>
      </trkpt>
      <trkpt lat="42.6084650" lon="-8.6451390">
        <ele>34.8</ele>
        <time>2019-08-17T12:25:48Z</time>
      </trkpt>
      <trkpt lat="42.6085030" lon="-8.6451350">
        <ele>34.9</ele>
        <time>2019-08-17T12:25:49Z</time>
      </trkpt>
      <trkpt lat="42.6085540" lon="-8.6451190">
        <ele>35.2</ele>
        <time>2019-08-17T12:25:50Z</time>
      </trkpt>
      <trkpt lat="42.6086210" lon="-8.6450970">
        <ele>35.5</ele>
        <time>2019-08-17T12:25:52Z</time>
      </trkpt>
      <trkpt lat="42.6088550" lon="-8.6450780">
        <ele>36.4</ele>
        <time>2019-08-17T12:25:59Z</time>
      </trkpt>
      <trkpt lat="42.6088820" lon="-8.6450680">
        <ele>36.5</ele>
        <time>2019-08-17T12:26:00Z</time>
      </trkpt>
      <trkpt lat="42.6089060" lon="-8.6450640">
        <ele>36.6</ele>
        <time>2019-08-17T12:26:01Z</time>
      </trkpt>
      <trkpt lat="42.6089340" lon="-8.6450550">
        <ele>36.7</ele>
        <time>2019-08-17T12:26:02Z</time>
      </trkpt>
      <trkpt lat="42.6089640" lon="-8.6450450">
        <ele>36.8</ele>
        <time>2019-08-17T12:26:03Z</time>
      </trkpt>
      <trkpt lat="42.6089910" lon="-8.6450410">
        <ele>36.9</ele>
        <time>2019-08-17T12:26:04Z</time>
      </trkpt>
      <trkpt lat="42.6090490" lon="-8.6450300">
        <ele>37.1</ele>
        <time>2019-08-17T12:26:06Z</time>
      </trkpt>
      <trkpt lat="42.6090790" lon="-8.6450230">
        <ele>37.2</ele>
        <time>2019-08-17T12:26:07Z</time>
      </trkpt>
      <trkpt lat="42.6091110" lon="-8.6450120">
        <ele>37.3</ele>
        <time>2019-08-17T12:26:08Z</time>
      </trkpt>
      <trkpt lat="42.6091410" lon="-8.6449990">
        <ele>37.4</ele>
        <time>2019-08-17T12:26:09Z</time>
      </trkpt>
      <trkpt lat="42.6091730" lon="-8.6449840">
        <ele>37.6</ele>
        <time>2019-08-17T12:26:10Z</time>
      </trkpt>
      <trkpt lat="42.6092030" lon="-8.6449710">
        <ele>37.7</ele>
        <time>2019-08-17T12:26:11Z</time>
      </trkpt>
      <trkpt lat="42.6093360" lon="-8.6449120">
        <ele>38.1</ele>
        <time>2019-08-17T12:26:15Z</time>
      </trkpt>
      <trkpt lat="42.6095420" lon="-8.6448160">
        <ele>38.4</ele>
        <time>2019-08-17T12:26:21Z</time>
      </trkpt>
      <trkpt lat="42.6095680" lon="-8.6447920">
        <ele>38.2</ele>
        <time>2019-08-17T12:26:22Z</time>
      </trkpt>
      <trkpt lat="42.6095930" lon="-8.6447660">
        <ele>38.1</ele>
        <time>2019-08-17T12:26:23Z</time>
      </trkpt>
      <trkpt lat="42.6096260" lon="-8.6447390">
        <ele>37.9</ele>
        <time>2019-08-17T12:26:24Z</time>
      </trkpt>
      <trkpt lat="42.6096610" lon="-8.6447130">
        <ele>37.7</ele>
        <time>2019-08-17T12:26:25Z</time>
      </trkpt>
      <trkpt lat="42.6097020" lon="-8.6446880">
        <ele>37.4</ele>
        <time>2019-08-17T12:26:26Z</time>
      </trkpt>
      <trkpt lat="42.6097540" lon="-8.6446620">
        <ele>37.2</ele>
        <time>2019-08-17T12:26:27Z</time>
      </trkpt>
      <trkpt lat="42.6101070" lon="-8.6443760">
        <ele>35.9</ele>
        <time>2019-08-17T12:26:35Z</time>
      </trkpt>
      <trkpt lat="42.6101640" lon="-8.6443630">
        <ele>35.7</ele>
        <time>2019-08-17T12:26:36Z</time>
      </trkpt>
      <trkpt lat="42.6102200" lon="-8.6443590">
        <ele>35.5</ele>
        <time>2019-08-17T12:26:37Z</time>
      </trkpt>
      <trkpt lat="42.6102750" lon="-8.6443630">
        <ele>35.3</ele>
        <time>2019-08-17T12:26:38Z</time>
      </trkpt>
      <trkpt lat="42.6103310" lon="-8.6443700">
        <ele>35.2</ele>
        <time>2019-08-17T12:26:39Z</time>
      </trkpt>
      <trkpt lat="42.6103850" lon="-8.6443790">
        <ele>35.1</ele>
        <time>2019-08-17T12:26:40Z</time>
      </trkpt>
      <trkpt lat="42.6104470" lon="-8.6443940">
        <ele>35.0</ele>
        <time>2019-08-17T12:26:41Z</time>
      </trkpt>
      <trkpt lat="42.6106200" lon="-8.6444430">
        <ele>34.7</ele>
        <time>2019-08-17T12:26:44Z</time>
      </trkpt>
      <trkpt lat="42.6107380" lon="-8.6444480">
        <ele>34.5</ele>
        <time>2019-08-17T12:26:46Z</time>
      </trkpt>
      <trkpt lat="42.6109950" lon="-8.6444410">
        <ele>34.3</ele>
        <time>2019-08-17T12:26:51Z</time>
      </trkpt>
      <trkpt lat="42.6110830" lon="-8.6444020">
        <ele>34.2</ele>
        <time>2019-08-17T12:26:53Z</time>
      </trkpt>
      <trkpt lat="42.6114490" lon="-8.6442150">
        <ele>33.9</ele>
        <time>2019-08-17T12:27:01Z</time>
      </trkpt>
      <trkpt lat="42.6116640" lon="-8.6441220">
        <ele>33.7</ele>
        <time>2019-08-17T12:27:06Z</time>
      </trkpt>
      <trkpt lat="42.6117420" lon="-8.6441070">
        <ele>33.6</ele>
        <time>2019-08-17T12:27:08Z</time>
      </trkpt>
      <trkpt lat="42.6120190" lon="-8.6440870">
        <ele>33.7</ele>
        <time>2019-08-17T12:27:15Z</time>
      </trkpt>
      <trkpt lat="42.6122340" lon="-8.6441540">
        <ele>34.0</ele>
        <time>2019-08-17T12:27:21Z</time>
      </trkpt>
      <trkpt lat="42.6125260" lon="-8.6442930">
        <ele>34.4</ele>
        <time>2019-08-17T12:27:30Z</time>
      </trkpt>
      <trkpt lat="42.6128850" lon="-8.6444330">
        <ele>35.1</ele>
        <time>2019-08-17T12:27:40Z</time>
      </trkpt>
      <trkpt lat="42.6131540" lon="-8.6445370">
        <ele>36.0</ele>
        <time>2019-08-17T12:27:48Z</time>
      </trkpt>
      <trkpt lat="42.6132070" lon="-8.6445670">
        <ele>36.2</ele>
        <time>2019-08-17T12:27:50Z</time>
      </trkpt>
      <trkpt lat="42.6132390" lon="-8.6445870">
        <ele>36.3</ele>
        <time>2019-08-17T12:27:51Z</time>
      </trkpt>
      <trkpt lat="42.6132700" lon="-8.6446100">
        <ele>36.5</ele>
        <time>2019-08-17T12:27:52Z</time>
      </trkpt>
      <trkpt lat="42.6132970" lon="-8.6446290">
        <ele>36.7</ele>
        <time>2019-08-17T12:27:53Z</time>
      </trkpt>
      <trkpt lat="42.6133220" lon="-8.6446410">
        <ele>36.8</ele>
        <time>2019-08-17T12:27:54Z</time>
      </trkpt>
      <trkpt lat="42.6134520" lon="-8.6447240">
        <ele>37.4</ele>
        <time>2019-08-17T12:27:59Z</time>
      </trkpt>
      <trkpt lat="42.6134900" lon="-8.6447560">
        <ele>37.6</ele>
        <time>2019-08-17T12:28:00Z</time>
      </trkpt>
      <trkpt lat="42.6135210" lon="-8.6447800">
        <ele>37.8</ele>
        <time>2019-08-17T12:28:01Z</time>
      </trkpt>
      <trkpt lat="42.6135420" lon="-8.6447960">
        <ele>38.0</ele>
        <time>2019-08-17T12:28:02Z</time>
      </trkpt>
      <trkpt lat="42.6135640" lon="-8.6448060">
        <ele>38.2</ele>
        <time>2019-08-17T12:28:03Z</time>
      </trkpt>
      <trkpt lat="42.6136660" lon="-8.6448340">
        <ele>38.9</ele>
        <time>2019-08-17T12:28:06Z</time>
      </trkpt>
      <trkpt lat="42.6137650" lon="-8.6448270">
        <ele>39.8</ele>
        <time>2019-08-17T12:28:09Z</time>
      </trkpt>
      <trkpt lat="42.6137990" lon="-8.6448220">
        <ele>40.1</ele>
        <time>2019-08-17T12:28:10Z</time>
      </trkpt>
      <trkpt lat="42.6138280" lon="-8.6448180">
        <ele>40.4</ele>
        <time>2019-08-17T12:28:11Z</time>
      </trkpt>
      <trkpt lat="42.6138560" lon="-8.6448170">
        <ele>40.7</ele>
        <time>2019-08-17T12:28:12Z</time>
      </trkpt>
      <trkpt lat="42.6138800" lon="-8.6448090">
        <ele>41.0</ele>
        <time>2019-08-17T12:28:13Z</time>
      </trkpt>
      <trkpt lat="42.6139050" lon="-8.6448060">
        <ele>41.4</ele>
        <time>2019-08-17T12:28:14Z</time>
      </trkpt>
      <trkpt lat="42.6139300" lon="-8.6447990">
        <ele>41.7</ele>
        <time>2019-08-17T12:28:15Z</time>
      </trkpt>
      <trkpt lat="42.6139620" lon="-8.6447880">
        <ele>42.1</ele>
        <time>2019-08-17T12:28:16Z</time>
      </trkpt>
      <trkpt lat="42.6139960" lon="-8.6447800">
        <ele>42.5</ele>
        <time>2019-08-17T12:28:17Z</time>
      </trkpt>
      <trkpt lat="42.6140460" lon="-8.6447830">
        <ele>43.0</ele>
        <time>2019-08-17T12:28:18Z</time>
      </trkpt>
      <trkpt lat="42.6142820" lon="-8.6447230">
        <ele>42.7</ele>
        <time>2019-08-17T12:28:25Z</time>
      </trkpt>
      <trkpt lat="42.6144740" lon="-8.6447080">
        <ele>42.8</ele>
        <time>2019-08-17T12:28:32Z</time>
      </trkpt>
      <trkpt lat="42.6146800" lon="-8.6446740">
        <ele>42.7</ele>
        <time>2019-08-17T12:28:41Z</time>
      </trkpt>
      <trkpt lat="42.6149150" lon="-8.6446470">
        <ele>42.6</ele>
        <time>2019-08-17T12:28:49Z</time>
      </trkpt>
      <trkpt lat="42.6152590" lon="-8.6445940">
        <ele>41.9</ele>
        <time>2019-08-17T12:28:57Z</time>
      </trkpt>
      <trkpt lat="42.6156760" lon="-8.6444810">
        <ele>40.6</ele>
        <time>2019-08-17T12:29:08Z</time>
      </trkpt>
      <trkpt lat="42.6158880" lon="-8.6444760">
        <ele>40.0</ele>
        <time>2019-08-17T12:29:15Z</time>
      </trkpt>
      <trkpt lat="42.6160910" lon="-8.6445090">
        <ele>39.7</ele>
        <time>2019-08-17T12:29:21Z</time>
      </trkpt>
      <trkpt lat="42.6162490" lon="-8.6445940">
        <ele>39.5</ele>
        <time>2019-08-17T12:29:27Z</time>
      </trkpt>
      <trkpt lat="42.6164750" lon="-8.6446120">
        <ele>39.5</ele>
        <time>2019-08-17T12:29:35Z</time>
      </trkpt>
      <trkpt lat="42.6166780" lon="-8.6446810">
        <ele>39.9</ele>
        <time>2019-08-17T12:29:42Z</time>
      </trkpt>
      <trkpt lat="42.6168400" lon="-8.6447370">
        <ele>40.4</ele>
        <time>2019-08-17T12:29:49Z</time>
      </trkpt>
      <trkpt lat="42.6169950" lon="-8.6447820">
        <ele>41.0</ele>
        <time>2019-08-17T12:29:55Z</time>
      </trkpt>
      <trkpt lat="42.6171480" lon="-8.6447660">
        <ele>41.7</ele>
        <time>2019-08-17T12:30:01Z</time>
      </trkpt>
      <trkpt lat="42.6173950" lon="-8.6447440">
        <ele>42.9</ele>
        <time>2019-08-17T12:30:08Z</time>
      </trkpt>
      <trkpt lat="42.6175320" lon="-8.6447150">
        <ele>43.7</ele>
        <time>2019-08-17T12:30:15Z</time>
      </trkpt>
      <trkpt lat="42.6176960" lon="-8.6446560">
        <ele>45.1</ele>
        <time>2019-08-17T12:30:22Z</time>
      </trkpt>
      <trkpt lat="42.6179120" lon="-8.6446100">
        <ele>46.8</ele>
        <time>2019-08-17T12:30:30Z</time>
      </trkpt>
      <trkpt lat="42.6180420" lon="-8.6445910">
        <ele>47.7</ele>
        <time>2019-08-17T12:30:35Z</time>
      </trkpt>
      <trkpt lat="42.6180660" lon="-8.6445870">
        <ele>47.9</ele>
        <time>2019-08-17T12:30:36Z</time>
      </trkpt>
      <trkpt lat="42.6180890" lon="-8.6445800">
        <ele>48.0</ele>
        <time>2019-08-17T12:30:37Z</time>
      </trkpt>
      <trkpt lat="42.6181160" lon="-8.6445790">
        <ele>48.2</ele>
        <time>2019-08-17T12:30:38Z</time>
      </trkpt>
      <trkpt lat="42.6181390" lon="-8.6445750">
        <ele>48.3</ele>
        <time>2019-08-17T12:30:39Z</time>
      </trkpt>
      <trkpt lat="42.6183070" lon="-8.6445750">
        <ele>49.0</ele>
        <time>2019-08-17T12:30:46Z</time>
      </trkpt>
      <trkpt lat="42.6183680" lon="-8.6445860">
        <ele>49.2</ele>
        <time>2019-08-17T12:30:48Z</time>
      </trkpt>
      <trkpt lat="42.6184700" lon="-8.6446060">
        <ele>49.2</ele>
        <time>2019-08-17T12:30:52Z</time>
      </trkpt>
      <trkpt lat="42.6185940" lon="-8.6446000">
        <ele>49.2</ele>
        <time>2019-08-17T12:30:57Z</time>
      </trkpt>
      <trkpt lat="42.6186150" lon="-8.6445990">
        <ele>49.2</ele>
        <time>2019-08-17T12:30:58Z</time>
      </trkpt>
      <trkpt lat="42.6186370" lon="-8.6445930">
        <ele>49.2</ele>
        <time>2019-08-17T12:30:59Z</time>
      </trkpt>
      <trkpt lat="42.6186530" lon="-8.6445900">
        <ele>49.2</ele>
        <time>2019-08-17T12:31:00Z</time>
      </trkpt>
      <trkpt lat="42.6186690" lon="-8.6445870">
        <ele>49.2</ele>
        <time>2019-08-17T12:31:01Z</time>
      </trkpt>
      <trkpt lat="42.6188590" lon="-8.6445790">
        <ele>49.3</ele>
        <time>2019-08-17T12:31:08Z</time>
      </trkpt>
      <trkpt lat="42.6190130" lon="-8.6446540">
        <ele>49.5</ele>
        <time>2019-08-17T12:31:14Z</time>
      </trkpt>
      <trkpt lat="42.6191830" lon="-8.6446900">
        <ele>49.8</ele>
        <time>2019-08-17T12:31:20Z</time>
      </trkpt>
      <trkpt lat="42.6194620" lon="-8.6446550">
        <ele>50.1</ele>
        <time>2019-08-17T12:31:28Z</time>
      </trkpt>
      <trkpt lat="42.6196540" lon="-8.6445470">
        <ele>50.0</ele>
        <time>2019-08-17T12:31:35Z</time>
      </trkpt>
      <trkpt lat="42.6198690" lon="-8.6444340">
        <ele>49.6</ele>
        <time>2019-08-17T12:31:42Z</time>
      </trkpt>
      <trkpt lat="42.6200450" lon="-8.6443510">
        <ele>49.4</ele>
        <time>2019-08-17T12:31:48Z</time>
      </trkpt>
      <trkpt lat="42.6200980" lon="-8.6443380">
        <ele>49.4</ele>
        <time>2019-08-17T12:31:50Z</time>
      </trkpt>
      <trkpt lat="42.6201260" lon="-8.6443310">
        <ele>49.3</ele>
        <time>2019-08-17T12:31:51Z</time>
      </trkpt>
      <trkpt lat="42.6201480" lon="-8.6443240">
        <ele>49.3</ele>
        <time>2019-08-17T12:31:52Z</time>
      </trkpt>
      <trkpt lat="42.6201740" lon="-8.6443160">
        <ele>49.3</ele>
        <time>2019-08-17T12:31:53Z</time>
      </trkpt>
      <trkpt lat="42.6201980" lon="-8.6443050">
        <ele>49.3</ele>
        <time>2019-08-17T12:31:54Z</time>
      </trkpt>
      <trkpt lat="42.6202510" lon="-8.6442770">
        <ele>49.4</ele>
        <time>2019-08-17T12:31:56Z</time>
      </trkpt>
      <trkpt lat="42.6204510" lon="-8.6442160">
        <ele>49.7</ele>
        <time>2019-08-17T12:32:04Z</time>
      </trkpt>
      <trkpt lat="42.6206500" lon="-8.6441730">
        <ele>50.1</ele>
        <time>2019-08-17T12:32:10Z</time>
      </trkpt>
      <trkpt lat="42.6208760" lon="-8.6440370">
        <ele>50.6</ele>
        <time>2019-08-17T12:32:18Z</time>
      </trkpt>
      <trkpt lat="42.6211060" lon="-8.6438790">
        <ele>51.0</ele>
        <time>2019-08-17T12:32:24Z</time>
      </trkpt>
      <trkpt lat="42.6213300" lon="-8.6438150">
        <ele>51.1</ele>
        <time>2019-08-17T12:32:29Z</time>
      </trkpt>
      <trkpt lat="42.6216560" lon="-8.6436690">
        <ele>51.2</ele>
        <time>2019-08-17T12:32:37Z</time>
      </trkpt>
      <trkpt lat="42.6218770" lon="-8.6436380">
        <ele>51.5</ele>
        <time>2019-08-17T12:32:43Z</time>
      </trkpt>
      <trkpt lat="42.6219060" lon="-8.6436170">
        <ele>51.5</ele>
        <time>2019-08-17T12:32:44Z</time>
      </trkpt>
      <trkpt lat="42.6219290" lon="-8.6435900">
        <ele>51.6</ele>
        <time>2019-08-17T12:32:45Z</time>
      </trkpt>
      <trkpt lat="42.6219570" lon="-8.6435700">
        <ele>51.6</ele>
        <time>2019-08-17T12:32:46Z</time>
      </trkpt>
      <trkpt lat="42.6219820" lon="-8.6435520">
        <ele>51.7</ele>
        <time>2019-08-17T12:32:47Z</time>
      </trkpt>
      <trkpt lat="42.6221160" lon="-8.6434880">
        <ele>51.8</ele>
        <time>2019-08-17T12:32:52Z</time>
      </trkpt>
      <trkpt lat="42.6222800" lon="-8.6434470">
        <ele>52.0</ele>
        <time>2019-08-17T12:32:59Z</time>
      </trkpt>
      <trkpt lat="42.6224720" lon="-8.6434560">
        <ele>52.0</ele>
        <time>2019-08-17T12:33:07Z</time>
      </trkpt>
      <trkpt lat="42.6226920" lon="-8.6433700">
        <ele>52.1</ele>
        <time>2019-08-17T12:33:14Z</time>
      </trkpt>
      <trkpt lat="42.6228100" lon="-8.6433770">
        <ele>52.1</ele>
        <time>2019-08-17T12:33:17Z</time>
      </trkpt>
      <trkpt lat="42.6228860" lon="-8.6433930">
        <ele>52.1</ele>
        <time>2019-08-17T12:33:19Z</time>
      </trkpt>
      <trkpt lat="42.6231590" lon="-8.6434680">
        <ele>52.4</ele>
        <time>2019-08-17T12:33:27Z</time>
      </trkpt>
      <trkpt lat="42.6233590" lon="-8.6435600">
        <ele>52.7</ele>
        <time>2019-08-17T12:33:33Z</time>
      </trkpt>
      <trkpt lat="42.6237110" lon="-8.6436600">
        <ele>53.0</ele>
        <time>2019-08-17T12:33:41Z</time>
      </trkpt>
      <trkpt lat="42.6238530" lon="-8.6436880">
        <ele>53.1</ele>
        <time>2019-08-17T12:33:44Z</time>
      </trkpt>
      <trkpt lat="42.6238930" lon="-8.6436890">
        <ele>53.2</ele>
        <time>2019-08-17T12:33:45Z</time>
      </trkpt>
      <trkpt lat="42.6239300" lon="-8.6436890">
        <ele>53.2</ele>
        <time>2019-08-17T12:33:46Z</time>
      </trkpt>
      <trkpt lat="42.6239740" lon="-8.6436860">
        <ele>53.3</ele>
        <time>2019-08-17T12:33:47Z</time>
      </trkpt>
      <trkpt lat="42.6240090" lon="-8.6436910">
        <ele>53.3</ele>
        <time>2019-08-17T12:33:48Z</time>
      </trkpt>
      <trkpt lat="42.6242130" lon="-8.6437230">
        <ele>53.7</ele>
        <time>2019-08-17T12:33:53Z</time>
      </trkpt>
      <trkpt lat="42.6245370" lon="-8.6437780">
        <ele>54.7</ele>
        <time>2019-08-17T12:34:02Z</time>
      </trkpt>
      <trkpt lat="42.6247470" lon="-8.6438150">
        <ele>55.2</ele>
        <time>2019-08-17T12:34:07Z</time>
      </trkpt>
      <trkpt lat="42.6248760" lon="-8.6438540">
        <ele>55.5</ele>
        <time>2019-08-17T12:34:10Z</time>
      </trkpt>
      <trkpt lat="42.6249150" lon="-8.6438620">
        <ele>55.6</ele>
        <time>2019-08-17T12:34:11Z</time>
      </trkpt>
      <trkpt lat="42.6249550" lon="-8.6438770">
        <ele>55.7</ele>
        <time>2019-08-17T12:34:12Z</time>
      </trkpt>
      <trkpt lat="42.6250070" lon="-8.6438870">
        <ele>55.9</ele>
        <time>2019-08-17T12:34:13Z</time>
      </trkpt>
      <trkpt lat="42.6250530" lon="-8.6438850">
        <ele>56.0</ele>
        <time>2019-08-17T12:34:14Z</time>
      </trkpt>
      <trkpt lat="42.6250990" lon="-8.6438810">
        <ele>56.1</ele>
        <time>2019-08-17T12:34:15Z</time>
      </trkpt>
      <trkpt lat="42.6251870" lon="-8.6438730">
        <ele>56.3</ele>
        <time>2019-08-17T12:34:17Z</time>
      </trkpt>
      <trkpt lat="42.6254270" lon="-8.6438550">
        <ele>57.0</ele>
        <time>2019-08-17T12:34:23Z</time>
      </trkpt>
      <trkpt lat="42.6256790" lon="-8.6438900">
        <ele>57.8</ele>
        <time>2019-08-17T12:34:30Z</time>
      </trkpt>
      <trkpt lat="42.6257700" lon="-8.6439330">
        <ele>58.1</ele>
        <time>2019-08-17T12:34:33Z</time>
      </trkpt>
      <trkpt lat="42.6257970" lon="-8.6439490">
        <ele>58.1</ele>
        <time>2019-08-17T12:34:34Z</time>
      </trkpt>
      <trkpt lat="42.6258210" lon="-8.6439670">
        <ele>58.2</ele>
        <time>2019-08-17T12:34:35Z</time>
      </trkpt>
      <trkpt lat="42.6258390" lon="-8.6439910">
        <ele>58.3</ele>
        <time>2019-08-17T12:34:36Z</time>
      </trkpt>
      <trkpt lat="42.6258580" lon="-8.6440180">
        <ele>58.3</ele>
        <time>2019-08-17T12:34:37Z</time>
      </trkpt>
      <trkpt lat="42.6259370" lon="-8.6441160">
        <ele>58.6</ele>
        <time>2019-08-17T12:34:41Z</time>
      </trkpt>
      <trkpt lat="42.6259520" lon="-8.6441430">
        <ele>58.7</ele>
        <time>2019-08-17T12:34:42Z</time>
      </trkpt>
      <trkpt lat="42.6259640" lon="-8.6441730">
        <ele>58.8</ele>
        <time>2019-08-17T12:34:43Z</time>
      </trkpt>
      <trkpt lat="42.6259730" lon="-8.6441950">
        <ele>58.9</ele>
        <time>2019-08-17T12:34:44Z</time>
      </trkpt>
      <trkpt lat="42.6259900" lon="-8.6442470">
        <ele>59.1</ele>
        <time>2019-08-17T12:34:46Z</time>
      </trkpt>
      <trkpt lat="42.6260860" lon="-8.6443700">
        <ele>59.7</ele>
        <time>2019-08-17T12:34:51Z</time>
      </trkpt>
      <trkpt lat="42.6263170" lon="-8.6445750">
        <ele>60.9</ele>
        <time>2019-08-17T12:34:58Z</time>
      </trkpt>
      <trkpt lat="42.6266070" lon="-8.6447620">
        <ele>62.4</ele>
        <time>2019-08-17T12:35:06Z</time>
      </trkpt>
      <trkpt lat="42.6267640" lon="-8.6448380">
        <ele>63.3</ele>
        <time>2019-08-17T12:35:12Z</time>
      </trkpt>
      <trkpt lat="42.6269520" lon="-8.6448820">
        <ele>64.5</ele>
        <time>2019-08-17T12:35:19Z</time>
      </trkpt>
      <trkpt lat="42.6271720" lon="-8.6449240">
        <ele>65.8</ele>
        <time>2019-08-17T12:35:25Z</time>
      </trkpt>
      <trkpt lat="42.6273730" lon="-8.6449970">
        <ele>66.9</ele>
        <time>2019-08-17T12:35:31Z</time>
      </trkpt>
      <trkpt lat="42.6275810" lon="-8.6450540">
        <ele>68.1</ele>
        <time>2019-08-17T12:35:37Z</time>
      </trkpt>
      <trkpt lat="42.6276960" lon="-8.6450730">
        <ele>68.7</ele>
        <time>2019-08-17T12:35:40Z</time>
      </trkpt>
      <trkpt lat="42.6277390" lon="-8.6450740">
        <ele>68.9</ele>
        <time>2019-08-17T12:35:41Z</time>
      </trkpt>
      <trkpt lat="42.6277800" lon="-8.6450720">
        <ele>69.1</ele>
        <time>2019-08-17T12:35:42Z</time>
      </trkpt>
      <trkpt lat="42.6278250" lon="-8.6450640">
        <ele>69.3</ele>
        <time>2019-08-17T12:35:43Z</time>
      </trkpt>
      <trkpt lat="42.6278660" lon="-8.6450580">
        <ele>69.6</ele>
        <time>2019-08-17T12:35:44Z</time>
      </trkpt>
      <trkpt lat="42.6279270" lon="-8.6450650">
        <ele>69.9</ele>
        <time>2019-08-17T12:35:45Z</time>
      </trkpt>
      <trkpt lat="42.6281780" lon="-8.6450670">
        <ele>71.2</ele>
        <time>2019-08-17T12:35:51Z</time>
      </trkpt>
      <trkpt lat="42.6283520" lon="-8.6450530">
        <ele>72.1</ele>
        <time>2019-08-17T12:35:57Z</time>
      </trkpt>
      <trkpt lat="42.6285940" lon="-8.6450680">
        <ele>73.4</ele>
        <time>2019-08-17T12:36:05Z</time>
      </trkpt>
      <trkpt lat="42.6288390" lon="-8.6450270">
        <ele>74.8</ele>
        <time>2019-08-17T12:36:12Z</time>
      </trkpt>
      <trkpt lat="42.6288770" lon="-8.6450080">
        <ele>75.1</ele>
        <time>2019-08-17T12:36:13Z</time>
      </trkpt>
      <trkpt lat="42.6289080" lon="-8.6449980">
        <ele>75.3</ele>
        <time>2019-08-17T12:36:14Z</time>
      </trkpt>
      <trkpt lat="42.6289430" lon="-8.6449950">
        <ele>75.5</ele>
        <time>2019-08-17T12:36:15Z</time>
      </trkpt>
      <trkpt lat="42.6289950" lon="-8.6449880">
        <ele>75.9</ele>
        <time>2019-08-17T12:36:16Z</time>
      </trkpt>
      <trkpt lat="42.6291730" lon="-8.6449970">
        <ele>77.0</ele>
        <time>2019-08-17T12:36:20Z</time>
      </trkpt>
      <trkpt lat="42.6294060" lon="-8.6449670">
        <ele>78.4</ele>
        <time>2019-08-17T12:36:26Z</time>
      </trkpt>
      <trkpt lat="42.6295990" lon="-8.6449310">
        <ele>79.7</ele>
        <time>2019-08-17T12:36:32Z</time>
      </trkpt>
      <trkpt lat="42.6298200" lon="-8.6448620">
        <ele>80.5</ele>
        <time>2019-08-17T12:36:37Z</time>
      </trkpt>
      <trkpt lat="42.6300290" lon="-8.6448260">
        <ele>79.8</ele>
        <time>2019-08-17T12:36:43Z</time>
      </trkpt>
      <trkpt lat="42.6303430" lon="-8.6447970">
        <ele>78.9</ele>
        <time>2019-08-17T12:36:48Z</time>
      </trkpt>
      <trkpt lat="42.6304240" lon="-8.6447840">
        <ele>78.7</ele>
        <time>2019-08-17T12:36:50Z</time>
      </trkpt>
      <trkpt lat="42.6304480" lon="-8.6447760">
        <ele>78.6</ele>
        <time>2019-08-17T12:36:51Z</time>
      </trkpt>
      <trkpt lat="42.6304700" lon="-8.6447650">
        <ele>78.5</ele>
        <time>2019-08-17T12:36:52Z</time>
      </trkpt>
      <trkpt lat="42.6305020" lon="-8.6447560">
        <ele>78.5</ele>
        <time>2019-08-17T12:36:53Z</time>
      </trkpt>
      <trkpt lat="42.6305310" lon="-8.6447520">
        <ele>78.4</ele>
        <time>2019-08-17T12:36:54Z</time>
      </trkpt>
      <trkpt lat="42.6308020" lon="-8.6446550">
        <ele>78.2</ele>
        <time>2019-08-17T12:37:01Z</time>
      </trkpt>
      <trkpt lat="42.6310860" lon="-8.6445750">
        <ele>78.2</ele>
        <time>2019-08-17T12:37:09Z</time>
      </trkpt>
      <trkpt lat="42.6313200" lon="-8.6445660">
        <ele>78.1</ele>
        <time>2019-08-17T12:37:16Z</time>
      </trkpt>
      <trkpt lat="42.6313480" lon="-8.6445570">
        <ele>78.2</ele>
        <time>2019-08-17T12:37:17Z</time>
      </trkpt>
      <trkpt lat="42.6313880" lon="-8.6445360">
        <ele>78.2</ele>
        <time>2019-08-17T12:37:18Z</time>
      </trkpt>
      <trkpt lat="42.6314280" lon="-8.6445310">
        <ele>78.2</ele>
        <time>2019-08-17T12:37:19Z</time>
      </trkpt>
      <trkpt lat="42.6314650" lon="-8.6445260">
        <ele>78.2</ele>
        <time>2019-08-17T12:37:20Z</time>
      </trkpt>
      <trkpt lat="42.6314960" lon="-8.6445220">
        <ele>78.2</ele>
        <time>2019-08-17T12:37:21Z</time>
      </trkpt>
      <trkpt lat="42.6315740" lon="-8.6444970">
        <ele>78.4</ele>
        <time>2019-08-17T12:37:24Z</time>
      </trkpt>
      <trkpt lat="42.6317640" lon="-8.6444650">
        <ele>78.8</ele>
        <time>2019-08-17T12:37:30Z</time>
      </trkpt>
      <trkpt lat="42.6318980" lon="-8.6445140">
        <ele>79.3</ele>
        <time>2019-08-17T12:37:35Z</time>
      </trkpt>
      <trkpt lat="42.6319240" lon="-8.6445320">
        <ele>79.5</ele>
        <time>2019-08-17T12:37:36Z</time>
      </trkpt>
      <trkpt lat="42.6319470" lon="-8.6445490">
        <ele>79.6</ele>
        <time>2019-08-17T12:37:37Z</time>
      </trkpt>
      <trkpt lat="42.6319670" lon="-8.6445750">
        <ele>79.7</ele>
        <time>2019-08-17T12:37:38Z</time>
      </trkpt>
      <trkpt lat="42.6319880" lon="-8.6445980">
        <ele>79.8</ele>
        <time>2019-08-17T12:37:39Z</time>
      </trkpt>
      <trkpt lat="42.6320790" lon="-8.6447050">
        <ele>80.3</ele>
        <time>2019-08-17T12:37:43Z</time>
      </trkpt>
      <trkpt lat="42.6321880" lon="-8.6448700">
        <ele>80.9</ele>
        <time>2019-08-17T12:37:49Z</time>
      </trkpt>
      <trkpt lat="42.6321970" lon="-8.6448930">
        <ele>81.0</ele>
        <time>2019-08-17T12:37:50Z</time>
      </trkpt>
      <trkpt lat="42.6322290" lon="-8.6449880">
        <ele>81.4</ele>
        <time>2019-08-17T12:37:54Z</time>
      </trkpt>
      <trkpt lat="42.6322470" lon="-8.6450200">
        <ele>81.5</ele>
        <time>2019-08-17T12:37:55Z</time>
      </trkpt>
      <trkpt lat="42.6322620" lon="-8.6450590">
        <ele>81.7</ele>
        <time>2019-08-17T12:37:56Z</time>
      </trkpt>
      <trkpt lat="42.6322700" lon="-8.6450840">
        <ele>81.9</ele>
        <time>2019-08-17T12:37:57Z</time>
      </trkpt>
      <trkpt lat="42.6322790" lon="-8.6451120">
        <ele>82.0</ele>
        <time>2019-08-17T12:37:58Z</time>
      </trkpt>
      <trkpt lat="42.6323430" lon="-8.6451760">
        <ele>82.6</ele>
        <time>2019-08-17T12:38:02Z</time>
      </trkpt>
      <trkpt lat="42.6324230" lon="-8.6452090">
        <ele>83.1</ele>
        <time>2019-08-17T12:38:05Z</time>
      </trkpt>
      <trkpt lat="42.6324570" lon="-8.6452020">
        <ele>83.3</ele>
        <time>2019-08-17T12:38:07Z</time>
      </trkpt>
      <trkpt lat="42.6325280" lon="-8.6452130">
        <ele>83.8</ele>
        <time>2019-08-17T12:38:10Z</time>
      </trkpt>
      <trkpt lat="42.6325450" lon="-8.6452130">
        <ele>83.8</ele>
        <time>2019-08-17T12:38:11Z</time>
      </trkpt>
      <trkpt lat="42.6325570" lon="-8.6452080">
        <ele>83.9</ele>
        <time>2019-08-17T12:38:12Z</time>
      </trkpt>
      <trkpt lat="42.6325760" lon="-8.6452090">
        <ele>84.0</ele>
        <time>2019-08-17T12:38:13Z</time>
      </trkpt>
      <trkpt lat="42.6325940" lon="-8.6452090">
        <ele>84.1</ele>
        <time>2019-08-17T12:38:14Z</time>
      </trkpt>
      <trkpt lat="42.6326850" lon="-8.6452240">
        <ele>84.5</ele>
        <time>2019-08-17T12:38:19Z</time>
      </trkpt>
      <trkpt lat="42.6328980" lon="-8.6452800">
        <ele>85.2</ele>
        <time>2019-08-17T12:38:28Z</time>
      </trkpt>
      <trkpt lat="42.6329230" lon="-8.6452720">
        <ele>85.2</ele>
        <time>2019-08-17T12:38:29Z</time>
      </trkpt>
      <trkpt lat="42.6329430" lon="-8.6452670">
        <ele>85.3</ele>
        <time>2019-08-17T12:38:30Z</time>
      </trkpt>
      <trkpt lat="42.6329700" lon="-8.6452710">
        <ele>85.4</ele>
        <time>2019-08-17T12:38:31Z</time>
      </trkpt>
      <trkpt lat="42.6329880" lon="-8.6452650">
        <ele>85.4</ele>
        <time>2019-08-17T12:38:32Z</time>
      </trkpt>
      <trkpt lat="42.6330230" lon="-8.6452630">
        <ele>85.6</ele>
        <time>2019-08-17T12:38:33Z</time>
      </trkpt>
      <trkpt lat="42.6330420" lon="-8.6452600">
        <ele>85.6</ele>
        <time>2019-08-17T12:38:34Z</time>
      </trkpt>
      <trkpt lat="42.6332410" lon="-8.6451850">
        <ele>86.2</ele>
        <time>2019-08-17T12:38:41Z</time>
      </trkpt>
      <trkpt lat="42.6333520" lon="-8.6451470">
        <ele>86.3</ele>
        <time>2019-08-17T12:38:47Z</time>
      </trkpt>
      <trkpt lat="42.6335560" lon="-8.6450950">
        <ele>86.3</ele>
        <time>2019-08-17T12:38:53Z</time>
      </trkpt>
      <trkpt lat="42.6337130" lon="-8.6451020">
        <ele>86.3</ele>
        <time>2019-08-17T12:38:59Z</time>
      </trkpt>
      <trkpt lat="42.6338580" lon="-8.6451010">
        <ele>86.3</ele>
        <time>2019-08-17T12:39:05Z</time>
      </trkpt>
      <trkpt lat="42.6340530" lon="-8.6450140">
        <ele>86.3</ele>
        <time>2019-08-17T12:39:13Z</time>
      </trkpt>
      <trkpt lat="42.6341730" lon="-8.6449440">
        <ele>86.3</ele>
        <time>2019-08-17T12:39:17Z</time>
      </trkpt>
      <trkpt lat="42.6342000" lon="-8.6449340">
        <ele>86.3</ele>
        <time>2019-08-17T12:39:18Z</time>
      </trkpt>
      <trkpt lat="42.6342230" lon="-8.6449200">
        <ele>86.3</ele>
        <time>2019-08-17T12:39:19Z</time>
      </trkpt>
      <trkpt lat="42.6342470" lon="-8.6449080">
        <ele>86.3</ele>
        <time>2019-08-17T12:39:20Z</time>
      </trkpt>
      <trkpt lat="42.6342680" lon="-8.6448980">
        <ele>86.2</ele>
        <time>2019-08-17T12:39:21Z</time>
      </trkpt>
      <trkpt lat="42.6344230" lon="-8.6448760">
        <ele>86.2</ele>
        <time>2019-08-17T12:39:25Z</time>
      </trkpt>
      <trkpt lat="42.6347140" lon="-8.6448040">
        <ele>86.0</ele>
        <time>2019-08-17T12:39:33Z</time>
      </trkpt>
      <trkpt lat="42.6350210" lon="-8.6447870">
        <ele>85.6</ele>
        <time>2019-08-17T12:39:41Z</time>
      </trkpt>
      <trkpt lat="42.6352450" lon="-8.6448230">
        <ele>85.1</ele>
        <time>2019-08-17T12:39:47Z</time>
      </trkpt>
      <trkpt lat="42.6354590" lon="-8.6448220">
        <ele>84.8</ele>
        <time>2019-08-17T12:39:53Z</time>
      </trkpt>
      <trkpt lat="42.6357320" lon="-8.6448750">
        <ele>84.9</ele>
        <time>2019-08-17T12:39:59Z</time>
      </trkpt>
      <trkpt lat="42.6359510" lon="-8.6449000">
        <ele>85.2</ele>
        <time>2019-08-17T12:40:05Z</time>
      </trkpt>
      <trkpt lat="42.6362200" lon="-8.6449330">
        <ele>84.9</ele>
        <time>2019-08-17T12:40:12Z</time>
      </trkpt>
      <trkpt lat="42.6363130" lon="-8.6449250">
        <ele>84.7</ele>
        <time>2019-08-17T12:40:14Z</time>
      </trkpt>
      <trkpt lat="42.6364490" lon="-8.6449080">
        <ele>84.5</ele>
        <time>2019-08-17T12:40:17Z</time>
      </trkpt>
      <trkpt lat="42.6367490" lon="-8.6448550">
        <ele>84.1</ele>
        <time>2019-08-17T12:40:24Z</time>
      </trkpt>
      <trkpt lat="42.6369380" lon="-8.6448280">
        <ele>84.0</ele>
        <time>2019-08-17T12:40:31Z</time>
      </trkpt>
      <trkpt lat="42.6370490" lon="-8.6447790">
        <ele>83.9</ele>
        <time>2019-08-17T12:40:36Z</time>
      </trkpt>
      <trkpt lat="42.6372460" lon="-8.6446640">
        <ele>83.9</ele>
        <time>2019-08-17T12:40:42Z</time>
      </trkpt>
      <trkpt lat="42.6374460" lon="-8.6446270">
        <ele>84.1</ele>
        <time>2019-08-17T12:40:49Z</time>
      </trkpt>
      <trkpt lat="42.6376200" lon="-8.6446900">
        <ele>84.6</ele>
        <time>2019-08-17T12:40:54Z</time>
      </trkpt>
      <trkpt lat="42.6377760" lon="-8.6447140">
        <ele>85.1</ele>
        <time>2019-08-17T12:41:00Z</time>
      </trkpt>
      <trkpt lat="42.6378040" lon="-8.6447180">
        <ele>85.1</ele>
        <time>2019-08-17T12:41:01Z</time>
      </trkpt>
      <trkpt lat="42.6378340" lon="-8.6447090">
        <ele>85.2</ele>
        <time>2019-08-17T12:41:02Z</time>
      </trkpt>
      <trkpt lat="42.6378580" lon="-8.6447080">
        <ele>85.3</ele>
        <time>2019-08-17T12:41:03Z</time>
      </trkpt>
      <trkpt lat="42.6378830" lon="-8.6447050">
        <ele>85.4</ele>
        <time>2019-08-17T12:41:04Z</time>
      </trkpt>
      <trkpt lat="42.6379420" lon="-8.6446710">
        <ele>85.6</ele>
        <time>2019-08-17T12:41:08Z</time>
      </trkpt>
      <trkpt lat="42.6381380" lon="-8.6446000">
        <ele>86.3</ele>
        <time>2019-08-17T12:41:16Z</time>
      </trkpt>
      <trkpt lat="42.6383090" lon="-8.6445280">
        <ele>86.6</ele>
        <time>2019-08-17T12:41:22Z</time>
      </trkpt>
      <trkpt lat="42.6383400" lon="-8.6445200">
        <ele>86.7</ele>
        <time>2019-08-17T12:41:23Z</time>
      </trkpt>
      <trkpt lat="42.6383880" lon="-8.6445020">
        <ele>86.8</ele>
        <time>2019-08-17T12:41:24Z</time>
      </trkpt>
      <trkpt lat="42.6384230" lon="-8.6444900">
        <ele>86.9</ele>
        <time>2019-08-17T12:41:25Z</time>
      </trkpt>
      <trkpt lat="42.6384730" lon="-8.6445000">
        <ele>87.0</ele>
        <time>2019-08-17T12:41:26Z</time>
      </trkpt>
      <trkpt lat="42.6386840" lon="-8.6444460">
        <ele>87.4</ele>
        <time>2019-08-17T12:41:32Z</time>
      </trkpt>
      <trkpt lat="42.6388240" lon="-8.6444510">
        <ele>87.9</ele>
        <time>2019-08-17T12:41:37Z</time>
      </trkpt>
      <trkpt lat="42.6388430" lon="-8.6444560">
        <ele>88.0</ele>
        <time>2019-08-17T12:41:38Z</time>
      </trkpt>
      <trkpt lat="42.6388640" lon="-8.6444610">
        <ele>88.1</ele>
        <time>2019-08-17T12:41:39Z</time>
      </trkpt>
      <trkpt lat="42.6388880" lon="-8.6444630">
        <ele>88.2</ele>
        <time>2019-08-17T12:41:40Z</time>
      </trkpt>
      <trkpt lat="42.6389140" lon="-8.6444560">
        <ele>88.3</ele>
        <time>2019-08-17T12:41:41Z</time>
      </trkpt>
      <trkpt lat="42.6390510" lon="-8.6444230">
        <ele>88.9</ele>
        <time>2019-08-17T12:41:45Z</time>
      </trkpt>
      <trkpt lat="42.6392550" lon="-8.6443040">
        <ele>89.5</ele>
        <time>2019-08-17T12:41:52Z</time>
      </trkpt>
      <trkpt lat="42.6393210" lon="-8.6442580">
        <ele>89.7</ele>
        <time>2019-08-17T12:41:55Z</time>
      </trkpt>
      <trkpt lat="42.6393430" lon="-8.6442490">
        <ele>89.8</ele>
        <time>2019-08-17T12:41:56Z</time>
      </trkpt>
      <trkpt lat="42.6393920" lon="-8.6442230">
        <ele>90.0</ele>
        <time>2019-08-17T12:41:57Z</time>
      </trkpt>
      <trkpt lat="42.6394230" lon="-8.6442020">
        <ele>90.1</ele>
        <time>2019-08-17T12:41:58Z</time>
      </trkpt>
      <trkpt lat="42.6394530" lon="-8.6441860">
        <ele>90.2</ele>
        <time>2019-08-17T12:41:59Z</time>
      </trkpt>
      <trkpt lat="42.6396710" lon="-8.6440480">
        <ele>91.0</ele>
        <time>2019-08-17T12:42:07Z</time>
      </trkpt>
      <trkpt lat="42.6398630" lon="-8.6437760">
        <ele>91.4</ele>
        <time>2019-08-17T12:42:13Z</time>
      </trkpt>
      <trkpt lat="42.6399700" lon="-8.6436760">
        <ele>91.2</ele>
        <time>2019-08-17T12:42:15Z</time>
      </trkpt>
      <trkpt lat="42.6401010" lon="-8.6435760">
        <ele>90.9</ele>
        <time>2019-08-17T12:42:18Z</time>
      </trkpt>
      <trkpt lat="42.6403710" lon="-8.6433960">
        <ele>90.4</ele>
        <time>2019-08-17T12:42:25Z</time>
      </trkpt>
      <trkpt lat="42.6406520" lon="-8.6432750">
        <ele>90.6</ele>
        <time>2019-08-17T12:42:33Z</time>
      </trkpt>
      <trkpt lat="42.6408450" lon="-8.6431910">
        <ele>91.1</ele>
        <time>2019-08-17T12:42:40Z</time>
      </trkpt>
      <trkpt lat="42.6409400" lon="-8.6431580">
        <ele>91.4</ele>
        <time>2019-08-17T12:42:44Z</time>
      </trkpt>
      <trkpt lat="42.6409610" lon="-8.6431520">
        <ele>91.5</ele>
        <time>2019-08-17T12:42:45Z</time>
      </trkpt>
      <trkpt lat="42.6409760" lon="-8.6431490">
        <ele>91.6</ele>
        <time>2019-08-17T12:42:46Z</time>
      </trkpt>
      <trkpt lat="42.6409950" lon="-8.6431470">
        <ele>91.8</ele>
        <time>2019-08-17T12:42:47Z</time>
      </trkpt>
      <trkpt lat="42.6410110" lon="-8.6431420">
        <ele>91.8</ele>
        <time>2019-08-17T12:42:48Z</time>
      </trkpt>
      <trkpt lat="42.6411250" lon="-8.6431120">
        <ele>92.5</ele>
        <time>2019-08-17T12:42:54Z</time>
      </trkpt>
      <trkpt lat="42.6411460" lon="-8.6431090">
        <ele>92.6</ele>
        <time>2019-08-17T12:42:55Z</time>
      </trkpt>
      <trkpt lat="42.6411680" lon="-8.6431040">
        <ele>92.8</ele>
        <time>2019-08-17T12:42:56Z</time>
      </trkpt>
      <trkpt lat="42.6411840" lon="-8.6431000">
        <ele>92.9</ele>
        <time>2019-08-17T12:42:57Z</time>
      </trkpt>
      <trkpt lat="42.6412020" lon="-8.6430950">
        <ele>93.0</ele>
        <time>2019-08-17T12:42:58Z</time>
      </trkpt>
      <trkpt lat="42.6413250" lon="-8.6430710">
        <ele>93.9</ele>
        <time>2019-08-17T12:43:05Z</time>
      </trkpt>
      <trkpt lat="42.6414380" lon="-8.6430390">
        <ele>94.8</ele>
        <time>2019-08-17T12:43:09Z</time>
      </trkpt>
      <trkpt lat="42.6414650" lon="-8.6430330">
        <ele>95.1</ele>
        <time>2019-08-17T12:43:10Z</time>
      </trkpt>
      <trkpt lat="42.6414860" lon="-8.6430270">
        <ele>95.3</ele>
        <time>2019-08-17T12:43:11Z</time>
      </trkpt>
      <trkpt lat="42.6415040" lon="-8.6430220">
        <ele>95.4</ele>
        <time>2019-08-17T12:43:12Z</time>
      </trkpt>
      <trkpt lat="42.6415190" lon="-8.6430230">
        <ele>95.5</ele>
        <time>2019-08-17T12:43:13Z</time>
      </trkpt>
      <trkpt lat="42.6416320" lon="-8.6430010">
        <ele>96.7</ele>
        <time>2019-08-17T12:43:19Z</time>
      </trkpt>
      <trkpt lat="42.6416490" lon="-8.6429970">
        <ele>96.8</ele>
        <time>2019-08-17T12:43:20Z</time>
      </trkpt>
      <trkpt lat="42.6416670" lon="-8.6429900">
        <ele>97.0</ele>
        <time>2019-08-17T12:43:21Z</time>
      </trkpt>
      <trkpt lat="42.6416880" lon="-8.6429870">
        <ele>97.2</ele>
        <time>2019-08-17T12:43:22Z</time>
      </trkpt>
      <trkpt lat="42.6417040" lon="-8.6429840">
        <ele>97.4</ele>
        <time>2019-08-17T12:43:23Z</time>
      </trkpt>
      <trkpt lat="42.6417750" lon="-8.6429740">
        <ele>98.1</ele>
        <time>2019-08-17T12:43:27Z</time>
      </trkpt>
      <trkpt lat="42.6417940" lon="-8.6429700">
        <ele>98.3</ele>
        <time>2019-08-17T12:43:28Z</time>
      </trkpt>
      <trkpt lat="42.6418100" lon="-8.6429700">
        <ele>98.4</ele>
        <time>2019-08-17T12:43:29Z</time>
      </trkpt>
      <trkpt lat="42.6418270" lon="-8.6429700">
        <ele>98.6</ele>
        <time>2019-08-17T12:43:30Z</time>
      </trkpt>
      <trkpt lat="42.6418410" lon="-8.6429640">
        <ele>98.8</ele>
        <time>2019-08-17T12:43:31Z</time>
      </trkpt>
      <trkpt lat="42.6418600" lon="-8.6429600">
        <ele>98.9</ele>
        <time>2019-08-17T12:43:32Z</time>
      </trkpt>
      <trkpt lat="42.6419530" lon="-8.6429730">
        <ele>100.2</ele>
        <time>2019-08-17T12:43:37Z</time>
      </trkpt>
      <trkpt lat="42.6419720" lon="-8.6429760">
        <ele>100.5</ele>
        <time>2019-08-17T12:43:38Z</time>
      </trkpt>
      <trkpt lat="42.6419910" lon="-8.6429770">
        <ele>100.8</ele>
        <time>2019-08-17T12:43:39Z</time>
      </trkpt>
      <trkpt lat="42.6420100" lon="-8.6429790">
        <ele>101.0</ele>
        <time>2019-08-17T12:43:40Z</time>
      </trkpt>
      <trkpt lat="42.6420270" lon="-8.6429790">
        <ele>101.2</ele>
        <time>2019-08-17T12:43:41Z</time>
      </trkpt>
      <trkpt lat="42.6420420" lon="-8.6429810">
        <ele>101.5</ele>
        <time>2019-08-17T12:43:42Z</time>
      </trkpt>
      <trkpt lat="42.6420580" lon="-8.6429810">
        <ele>101.7</ele>
        <time>2019-08-17T12:43:43Z</time>
      </trkpt>
      <trkpt lat="42.6420750" lon="-8.6429850">
        <ele>102.0</ele>
        <time>2019-08-17T12:43:44Z</time>
      </trkpt>
      <trkpt lat="42.6420880" lon="-8.6429910">
        <ele>102.2</ele>
        <time>2019-08-17T12:43:45Z</time>
      </trkpt>
      <trkpt lat="42.6421030" lon="-8.6429960">
        <ele>102.4</ele>
        <time>2019-08-17T12:43:46Z</time>
      </trkpt>
      <trkpt lat="42.6421180" lon="-8.6430000">
        <ele>102.7</ele>
        <time>2019-08-17T12:43:47Z</time>
      </trkpt>
      <trkpt lat="42.6421700" lon="-8.6430060">
        <ele>103.7</ele>
        <time>2019-08-17T12:43:50Z</time>
      </trkpt>
      <trkpt lat="42.6421830" lon="-8.6430070">
        <ele>103.9</ele>
        <time>2019-08-17T12:43:51Z</time>
      </trkpt>
      <trkpt lat="42.6421980" lon="-8.6430030">
        <ele>104.1</ele>
        <time>2019-08-17T12:43:52Z</time>
      </trkpt>
      <trkpt lat="42.6422140" lon="-8.6429940">
        <ele>104.4</ele>
        <time>2019-08-17T12:43:53Z</time>
      </trkpt>
      <trkpt lat="42.6422310" lon="-8.6429880">
        <ele>104.6</ele>
        <time>2019-08-17T12:43:54Z</time>
      </trkpt>
      <trkpt lat="42.6422940" lon="-8.6429540">
        <ele>105.8</ele>
        <time>2019-08-17T12:44:00Z</time>
      </trkpt>
      <trkpt lat="42.6423280" lon="-8.6429670">
        <ele>106.4</ele>
        <time>2019-08-17T12:44:05Z</time>
      </trkpt>
      <trkpt lat="42.6423350" lon="-8.6429810">
        <ele>106.6</ele>
        <time>2019-08-17T12:44:06Z</time>
      </trkpt>
      <trkpt lat="42.6423420" lon="-8.6429910">
        <ele>106.7</ele>
        <time>2019-08-17T12:44:07Z</time>
      </trkpt>
      <trkpt lat="42.6423470" lon="-8.6429990">
        <ele>106.9</ele>
        <time>2019-08-17T12:44:08Z</time>
      </trkpt>
      <trkpt lat="42.6423530" lon="-8.6430010">
        <ele>106.9</ele>
        <time>2019-08-17T12:44:09Z</time>
      </trkpt>
      <trkpt lat="42.6424070" lon="-8.6430080">
        <ele>107.7</ele>
        <time>2019-08-17T12:44:15Z</time>
      </trkpt>
      <trkpt lat="42.6424190" lon="-8.6430000">
        <ele>107.9</ele>
        <time>2019-08-17T12:44:17Z</time>
      </trkpt>
      <trkpt lat="42.6424670" lon="-8.6429640">
        <ele>108.6</ele>
        <time>2019-08-17T12:47:34Z</time>
      </trkpt>
      <trkpt lat="42.6424850" lon="-8.6429770">
        <ele>108.8</ele>
        <time>2019-08-17T12:47:36Z</time>
      </trkpt>
      <trkpt lat="42.6426600" lon="-8.6430330">
        <ele>110.1</ele>
        <time>2019-08-17T12:47:43Z</time>
      </trkpt>
      <trkpt lat="42.6426900" lon="-8.6430670">
        <ele>110.3</ele>
        <time>2019-08-17T12:47:44Z</time>
      </trkpt>
      <trkpt lat="42.6427190" lon="-8.6431050">
        <ele>110.5</ele>
        <time>2019-08-17T12:47:45Z</time>
      </trkpt>
      <trkpt lat="42.6427530" lon="-8.6431500">
        <ele>110.8</ele>
        <time>2019-08-17T12:47:46Z</time>
      </trkpt>
      <trkpt lat="42.6427830" lon="-8.6431890">
        <ele>110.9</ele>
        <time>2019-08-17T12:47:47Z</time>
      </trkpt>
      <trkpt lat="42.6428940" lon="-8.6432530">
        <ele>111.6</ele>
        <time>2019-08-17T12:47:50Z</time>
      </trkpt>
      <trkpt lat="42.6430130" lon="-8.6432580">
        <ele>112.0</ele>
        <time>2019-08-17T12:47:53Z</time>
      </trkpt>
      <trkpt lat="42.6430740" lon="-8.6432560">
        <ele>112.3</ele>
        <time>2019-08-17T12:47:55Z</time>
      </trkpt>
      <trkpt lat="42.6430970" lon="-8.6432490">
        <ele>112.4</ele>
        <time>2019-08-17T12:47:56Z</time>
      </trkpt>
      <trkpt lat="42.6431180" lon="-8.6432470">
        <ele>112.5</ele>
        <time>2019-08-17T12:47:57Z</time>
      </trkpt>
      <trkpt lat="42.6431400" lon="-8.6432480">
        <ele>112.7</ele>
        <time>2019-08-17T12:47:58Z</time>
      </trkpt>
      <trkpt lat="42.6431560" lon="-8.6432450">
        <ele>112.8</ele>
        <time>2019-08-17T12:47:59Z</time>
      </trkpt>
      <trkpt lat="42.6431730" lon="-8.6432430">
        <ele>113.0</ele>
        <time>2019-08-17T12:48:00Z</time>
      </trkpt>
      <trkpt lat="42.6432510" lon="-8.6432450">
        <ele>113.7</ele>
        <time>2019-08-17T12:48:04Z</time>
      </trkpt>
      <trkpt lat="42.6432760" lon="-8.6432410">
        <ele>113.9</ele>
        <time>2019-08-17T12:48:05Z</time>
      </trkpt>
      <trkpt lat="42.6432970" lon="-8.6432470">
        <ele>114.1</ele>
        <time>2019-08-17T12:48:06Z</time>
      </trkpt>
      <trkpt lat="42.6433210" lon="-8.6432500">
        <ele>114.3</ele>
        <time>2019-08-17T12:48:07Z</time>
      </trkpt>
      <trkpt lat="42.6433450" lon="-8.6432520">
        <ele>114.6</ele>
        <time>2019-08-17T12:48:08Z</time>
      </trkpt>
      <trkpt lat="42.6434240" lon="-8.6432450">
        <ele>115.5</ele>
        <time>2019-08-17T12:48:12Z</time>
      </trkpt>
      <trkpt lat="42.6434440" lon="-8.6432560">
        <ele>115.7</ele>
        <time>2019-08-17T12:48:13Z</time>
      </trkpt>
      <trkpt lat="42.6434620" lon="-8.6432650">
        <ele>115.9</ele>
        <time>2019-08-17T12:48:14Z</time>
      </trkpt>
      <trkpt lat="42.6434830" lon="-8.6432700">
        <ele>116.2</ele>
        <time>2019-08-17T12:48:15Z</time>
      </trkpt>
      <trkpt lat="42.6435050" lon="-8.6432790">
        <ele>116.4</ele>
        <time>2019-08-17T12:48:16Z</time>
      </trkpt>
      <trkpt lat="42.6435530" lon="-8.6432720">
        <ele>117.0</ele>
        <time>2019-08-17T12:48:18Z</time>
      </trkpt>
      <trkpt lat="42.6436690" lon="-8.6432750">
        <ele>118.0</ele>
        <time>2019-08-17T12:48:23Z</time>
      </trkpt>
      <trkpt lat="42.6436960" lon="-8.6432700">
        <ele>118.1</ele>
        <time>2019-08-17T12:48:24Z</time>
      </trkpt>
      <trkpt lat="42.6437200" lon="-8.6432660">
        <ele>118.3</ele>
        <time>2019-08-17T12:48:25Z</time>
      </trkpt>
      <trkpt lat="42.6437450" lon="-8.6432640">
        <ele>118.4</ele>
        <time>2019-08-17T12:48:26Z</time>
      </trkpt>
      <trkpt lat="42.6437680" lon="-8.6432630">
        <ele>118.5</ele>
        <time>2019-08-17T12:48:27Z</time>
      </trkpt>
      <trkpt lat="42.6439460" lon="-8.6432190">
        <ele>119.5</ele>
        <time>2019-08-17T12:48:35Z</time>
      </trkpt>
      <trkpt lat="42.6441540" lon="-8.6431760">
        <ele>120.3</ele>
        <time>2019-08-17T12:48:43Z</time>
      </trkpt>
      <trkpt lat="42.6442030" lon="-8.6431710">
        <ele>120.5</ele>
        <time>2019-08-17T12:48:45Z</time>
      </trkpt>
      <trkpt lat="42.6442260" lon="-8.6431540">
        <ele>120.5</ele>
        <time>2019-08-17T12:48:46Z</time>
      </trkpt>
      <trkpt lat="42.6442480" lon="-8.6431400">
        <ele>120.6</ele>
        <time>2019-08-17T12:48:47Z</time>
      </trkpt>
      <trkpt lat="42.6442730" lon="-8.6431340">
        <ele>120.7</ele>
        <time>2019-08-17T12:48:48Z</time>
      </trkpt>
      <trkpt lat="42.6442950" lon="-8.6431300">
        <ele>120.8</ele>
        <time>2019-08-17T12:48:49Z</time>
      </trkpt>
      <trkpt lat="42.6443590" lon="-8.6431150">
        <ele>121.2</ele>
        <time>2019-08-17T12:48:52Z</time>
      </trkpt>
      <trkpt lat="42.6445350" lon="-8.6430610">
        <ele>121.9</ele>
        <time>2019-08-17T12:48:59Z</time>
      </trkpt>
      <trkpt lat="42.6445990" lon="-8.6430470">
        <ele>122.3</ele>
        <time>2019-08-17T12:49:01Z</time>
      </trkpt>
      <trkpt lat="42.6446270" lon="-8.6430420">
        <ele>122.5</ele>
        <time>2019-08-17T12:49:02Z</time>
      </trkpt>
      <trkpt lat="42.6446550" lon="-8.6430390">
        <ele>122.7</ele>
        <time>2019-08-17T12:49:03Z</time>
      </trkpt>
      <trkpt lat="42.6446790" lon="-8.6430490">
        <ele>122.9</ele>
        <time>2019-08-17T12:49:04Z</time>
      </trkpt>
      <trkpt lat="42.6446960" lon="-8.6430520">
        <ele>123.0</ele>
        <time>2019-08-17T12:49:05Z</time>
      </trkpt>
      <trkpt lat="42.6447160" lon="-8.6430560">
        <ele>123.2</ele>
        <time>2019-08-17T12:49:06Z</time>
      </trkpt>
      <trkpt lat="42.6448380" lon="-8.6430980">
        <ele>124.4</ele>
        <time>2019-08-17T12:49:12Z</time>
      </trkpt>
      <trkpt lat="42.6448500" lon="-8.6431110">
        <ele>124.5</ele>
        <time>2019-08-17T12:49:13Z</time>
      </trkpt>
      <trkpt lat="42.6448670" lon="-8.6431250">
        <ele>124.6</ele>
        <time>2019-08-17T12:49:14Z</time>
      </trkpt>
      <trkpt lat="42.6448850" lon="-8.6431340">
        <ele>124.8</ele>
        <time>2019-08-17T12:49:15Z</time>
      </trkpt>
      <trkpt lat="42.6449020" lon="-8.6431480">
        <ele>124.9</ele>
        <time>2019-08-17T12:49:16Z</time>
      </trkpt>
      <trkpt lat="42.6449650" lon="-8.6432130">
        <ele>125.6</ele>
        <time>2019-08-17T12:49:21Z</time>
      </trkpt>
      <trkpt lat="42.6449780" lon="-8.6432210">
        <ele>125.7</ele>
        <time>2019-08-17T12:49:22Z</time>
      </trkpt>
      <trkpt lat="42.6449930" lon="-8.6432240">
        <ele>125.9</ele>
        <time>2019-08-17T12:49:23Z</time>
      </trkpt>
      <trkpt lat="42.6450060" lon="-8.6432330">
        <ele>126.0</ele>
        <time>2019-08-17T12:49:24Z</time>
      </trkpt>
      <trkpt lat="42.6450210" lon="-8.6432400">
        <ele>126.2</ele>
        <time>2019-08-17T12:49:25Z</time>
      </trkpt>
      <trkpt lat="42.6450380" lon="-8.6432470">
        <ele>126.5</ele>
        <time>2019-08-17T12:49:26Z</time>
      </trkpt>
      <trkpt lat="42.6450980" lon="-8.6432800">
        <ele>127.4</ele>
        <time>2019-08-17T12:49:30Z</time>
      </trkpt>
      <trkpt lat="42.6451150" lon="-8.6432860">
        <ele>127.7</ele>
        <time>2019-08-17T12:49:31Z</time>
      </trkpt>
      <trkpt lat="42.6451330" lon="-8.6432920">
        <ele>128.0</ele>
        <time>2019-08-17T12:49:32Z</time>
      </trkpt>
      <trkpt lat="42.6451500" lon="-8.6433000">
        <ele>128.2</ele>
        <time>2019-08-17T12:49:33Z</time>
      </trkpt>
      <trkpt lat="42.6451650" lon="-8.6433000">
        <ele>128.4</ele>
        <time>2019-08-17T12:49:34Z</time>
      </trkpt>
      <trkpt lat="42.6452220" lon="-8.6433170">
        <ele>129.2</ele>
        <time>2019-08-17T12:49:39Z</time>
      </trkpt>
      <trkpt lat="42.6452990" lon="-8.6433260">
        <ele>130.0</ele>
        <time>2019-08-17T12:49:46Z</time>
      </trkpt>
      <trkpt lat="42.6453090" lon="-8.6433350">
        <ele>130.1</ele>
        <time>2019-08-17T12:49:47Z</time>
      </trkpt>
      <trkpt lat="42.6453340" lon="-8.6433420">
        <ele>130.3</ele>
        <time>2019-08-17T12:49:48Z</time>
      </trkpt>
      <trkpt lat="42.6453560" lon="-8.6433410">
        <ele>130.5</ele>
        <time>2019-08-17T12:49:49Z</time>
      </trkpt>
      <trkpt lat="42.6453830" lon="-8.6433360">
        <ele>130.7</ele>
        <time>2019-08-17T12:49:50Z</time>
      </trkpt>
      <trkpt lat="42.6454910" lon="-8.6433350">
        <ele>131.5</ele>
        <time>2019-08-17T12:49:55Z</time>
      </trkpt>
      <trkpt lat="42.6455170" lon="-8.6433440">
        <ele>131.7</ele>
        <time>2019-08-17T12:49:56Z</time>
      </trkpt>
      <trkpt lat="42.6457230" lon="-8.6434510">
        <ele>132.6</ele>
        <time>2019-08-17T12:50:04Z</time>
      </trkpt>
      <trkpt lat="42.6457520" lon="-8.6434600">
        <ele>132.6</ele>
        <time>2019-08-17T12:50:05Z</time>
      </trkpt>
      <trkpt lat="42.6457800" lon="-8.6434690">
        <ele>132.7</ele>
        <time>2019-08-17T12:50:06Z</time>
      </trkpt>
      <trkpt lat="42.6458110" lon="-8.6434800">
        <ele>132.7</ele>
        <time>2019-08-17T12:50:07Z</time>
      </trkpt>
      <trkpt lat="42.6458430" lon="-8.6434900">
        <ele>132.7</ele>
        <time>2019-08-17T12:50:08Z</time>
      </trkpt>
      <trkpt lat="42.6459490" lon="-8.6435040">
        <ele>132.7</ele>
        <time>2019-08-17T12:50:11Z</time>
      </trkpt>
      <trkpt lat="42.6462350" lon="-8.6435520">
        <ele>132.8</ele>
        <time>2019-08-17T12:50:18Z</time>
      </trkpt>
      <trkpt lat="42.6466070" lon="-8.6436290">
        <ele>133.3</ele>
        <time>2019-08-17T12:50:27Z</time>
      </trkpt>
      <trkpt lat="42.6470100" lon="-8.6437430">
        <ele>133.4</ele>
        <time>2019-08-17T12:50:37Z</time>
      </trkpt>
      <trkpt lat="42.6470500" lon="-8.6437660">
        <ele>133.4</ele>
        <time>2019-08-17T12:50:38Z</time>
      </trkpt>
      <trkpt lat="42.6472510" lon="-8.6439400">
        <ele>133.5</ele>
        <time>2019-08-17T12:50:44Z</time>
      </trkpt>
      <trkpt lat="42.6474520" lon="-8.6442840">
        <ele>134.0</ele>
        <time>2019-08-17T12:50:51Z</time>
      </trkpt>
      <trkpt lat="42.6474870" lon="-8.6443180">
        <ele>134.0</ele>
        <time>2019-08-17T12:50:52Z</time>
      </trkpt>
      <trkpt lat="42.6475910" lon="-8.6444150">
        <ele>134.3</ele>
        <time>2019-08-17T12:50:55Z</time>
      </trkpt>
      <trkpt lat="42.6476220" lon="-8.6444390">
        <ele>134.3</ele>
        <time>2019-08-17T12:50:56Z</time>
      </trkpt>
      <trkpt lat="42.6477790" lon="-8.6445490">
        <ele>134.7</ele>
        <time>2019-08-17T12:51:01Z</time>
      </trkpt>
      <trkpt lat="42.6478070" lon="-8.6445690">
        <ele>134.8</ele>
        <time>2019-08-17T12:51:02Z</time>
      </trkpt>
      <trkpt lat="42.6478360" lon="-8.6445890">
        <ele>134.9</ele>
        <time>2019-08-17T12:51:03Z</time>
      </trkpt>
      <trkpt lat="42.6478670" lon="-8.6446040">
        <ele>135.0</ele>
        <time>2019-08-17T12:51:04Z</time>
      </trkpt>
      <trkpt lat="42.6478980" lon="-8.6446190">
        <ele>135.0</ele>
        <time>2019-08-17T12:51:05Z</time>
      </trkpt>
      <trkpt lat="42.6481270" lon="-8.6446760">
        <ele>135.5</ele>
        <time>2019-08-17T12:51:12Z</time>
      </trkpt>
      <trkpt lat="42.6483890" lon="-8.6447390">
        <ele>136.4</ele>
        <time>2019-08-17T12:51:20Z</time>
      </trkpt>
      <trkpt lat="42.6484230" lon="-8.6447520">
        <ele>136.4</ele>
        <time>2019-08-17T12:51:21Z</time>
      </trkpt>
      <trkpt lat="42.6484540" lon="-8.6447650">
        <ele>136.5</ele>
        <time>2019-08-17T12:51:22Z</time>
      </trkpt>
      <trkpt lat="42.6484830" lon="-8.6447820">
        <ele>136.6</ele>
        <time>2019-08-17T12:51:23Z</time>
      </trkpt>
      <trkpt lat="42.6485150" lon="-8.6447990">
        <ele>136.7</ele>
        <time>2019-08-17T12:51:24Z</time>
      </trkpt>
      <trkpt lat="42.6485440" lon="-8.6448140">
        <ele>136.8</ele>
        <time>2019-08-17T12:51:25Z</time>
      </trkpt>
      <trkpt lat="42.6486350" lon="-8.6448650">
        <ele>137.1</ele>
        <time>2019-08-17T12:51:28Z</time>
      </trkpt>
      <trkpt lat="42.6488200" lon="-8.6449240">
        <ele>137.8</ele>
        <time>2019-08-17T12:51:34Z</time>
      </trkpt>
      <trkpt lat="42.6488510" lon="-8.6449280">
        <ele>137.9</ele>
        <time>2019-08-17T12:51:35Z</time>
      </trkpt>
      <trkpt lat="42.6488830" lon="-8.6449320">
        <ele>138.0</ele>
        <time>2019-08-17T12:51:36Z</time>
      </trkpt>
      <trkpt lat="42.6489150" lon="-8.6449340">
        <ele>138.1</ele>
        <time>2019-08-17T12:51:37Z</time>
      </trkpt>
      <trkpt lat="42.6489460" lon="-8.6449350">
        <ele>138.2</ele>
        <time>2019-08-17T12:51:38Z</time>
      </trkpt>
      <trkpt lat="42.6489750" lon="-8.6449360">
        <ele>138.3</ele>
        <time>2019-08-17T12:51:39Z</time>
      </trkpt>
      <trkpt lat="42.6490650" lon="-8.6449570">
        <ele>138.2</ele>
        <time>2019-08-17T12:51:42Z</time>
      </trkpt>
      <trkpt lat="42.6491530" lon="-8.6449950">
        <ele>138.1</ele>
        <time>2019-08-17T12:51:45Z</time>
      </trkpt>
      <trkpt lat="42.6491820" lon="-8.6450040">
        <ele>138.1</ele>
        <time>2019-08-17T12:51:46Z</time>
      </trkpt>
      <trkpt lat="42.6492040" lon="-8.6450080">
        <ele>138.1</ele>
        <time>2019-08-17T12:51:47Z</time>
      </trkpt>
      <trkpt lat="42.6492250" lon="-8.6450040">
        <ele>138.0</ele>
        <time>2019-08-17T12:51:48Z</time>
      </trkpt>
      <trkpt lat="42.6492460" lon="-8.6450020">
        <ele>138.0</ele>
        <time>2019-08-17T12:51:49Z</time>
      </trkpt>
      <trkpt lat="42.6493990" lon="-8.6450760">
        <ele>138.0</ele>
        <time>2019-08-17T12:51:56Z</time>
      </trkpt>
      <trkpt lat="42.6494310" lon="-8.6451760">
        <ele>138.0</ele>
        <time>2019-08-17T12:52:01Z</time>
      </trkpt>
      <trkpt lat="42.6493720" lon="-8.6453190">
        <ele>138.0</ele>
        <time>2019-08-17T12:52:07Z</time>
      </trkpt>
      <trkpt lat="42.6493440" lon="-8.6454080">
        <ele>138.0</ele>
        <time>2019-08-17T12:52:13Z</time>
      </trkpt>
      <trkpt lat="42.6492750" lon="-8.6454480">
        <ele>137.9</ele>
        <time>2019-08-17T12:52:22Z</time>
      </trkpt>
      <trkpt lat="42.6491270" lon="-8.6455040">
        <ele>137.9</ele>
        <time>2019-08-17T12:52:29Z</time>
      </trkpt>
      <trkpt lat="42.6490930" lon="-8.6455100">
        <ele>137.9</ele>
        <time>2019-08-17T12:52:31Z</time>
      </trkpt>
      <trkpt lat="42.6490500" lon="-8.6455260">
        <ele>137.9</ele>
        <time>2019-08-17T12:52:35Z</time>
      </trkpt>
      <trkpt lat="42.6490520" lon="-8.6455270">
        <ele>137.9</ele>
        <time>2019-08-17T12:52:37Z</time>
      </trkpt>
      <trkpt lat="42.6491160" lon="-8.6454500">
        <ele>137.9</ele>
        <time>2019-08-17T12:58:56Z</time>
      </trkpt>
      <trkpt lat="42.6491630" lon="-8.6454580">
        <ele>138.0</ele>
        <time>2019-08-17T12:58:59Z</time>
      </trkpt>
      <trkpt lat="42.6493230" lon="-8.6453930">
        <ele>137.9</ele>
        <time>2019-08-17T12:59:07Z</time>
      </trkpt>
      <trkpt lat="42.6493720" lon="-8.6455570">
        <ele>138.7</ele>
        <time>2019-08-17T12:59:13Z</time>
      </trkpt>
      <trkpt lat="42.6494070" lon="-8.6456540">
        <ele>138.9</ele>
        <time>2019-08-17T12:59:16Z</time>
      </trkpt>
      <trkpt lat="42.6494250" lon="-8.6456770">
        <ele>139.0</ele>
        <time>2019-08-17T12:59:17Z</time>
      </trkpt>
      <trkpt lat="42.6494440" lon="-8.6457010">
        <ele>139.0</ele>
        <time>2019-08-17T12:59:18Z</time>
      </trkpt>
      <trkpt lat="42.6494610" lon="-8.6457210">
        <ele>139.1</ele>
        <time>2019-08-17T12:59:19Z</time>
      </trkpt>
      <trkpt lat="42.6494840" lon="-8.6457430">
        <ele>139.2</ele>
        <time>2019-08-17T12:59:20Z</time>
      </trkpt>
      <trkpt lat="42.6494980" lon="-8.6457640">
        <ele>139.2</ele>
        <time>2019-08-17T12:59:21Z</time>
      </trkpt>
      <trkpt lat="42.6495810" lon="-8.6459940">
        <ele>139.7</ele>
        <time>2019-08-17T12:59:29Z</time>
      </trkpt>
      <trkpt lat="42.6497590" lon="-8.6461070">
        <ele>140.2</ele>
        <time>2019-08-17T12:59:36Z</time>
      </trkpt>
      <trkpt lat="42.6498140" lon="-8.6461640">
        <ele>140.4</ele>
        <time>2019-08-17T12:59:38Z</time>
      </trkpt>
      <trkpt lat="42.6498440" lon="-8.6462010">
        <ele>140.5</ele>
        <time>2019-08-17T12:59:39Z</time>
      </trkpt>
      <trkpt lat="42.6498600" lon="-8.6462420">
        <ele>140.6</ele>
        <time>2019-08-17T12:59:40Z</time>
      </trkpt>
      <trkpt lat="42.6498790" lon="-8.6462790">
        <ele>140.7</ele>
        <time>2019-08-17T12:59:41Z</time>
      </trkpt>
      <trkpt lat="42.6499010" lon="-8.6463100">
        <ele>140.8</ele>
        <time>2019-08-17T12:59:42Z</time>
      </trkpt>
      <trkpt lat="42.6500530" lon="-8.6464570">
        <ele>141.3</ele>
        <time>2019-08-17T12:59:48Z</time>
      </trkpt>
      <trkpt lat="42.6502390" lon="-8.6467390">
        <ele>142.0</ele>
        <time>2019-08-17T12:59:57Z</time>
      </trkpt>
      <trkpt lat="42.6503470" lon="-8.6468310">
        <ele>142.4</ele>
        <time>2019-08-17T13:00:01Z</time>
      </trkpt>
      <trkpt lat="42.6504180" lon="-8.6468210">
        <ele>142.7</ele>
        <time>2019-08-17T13:00:03Z</time>
      </trkpt>
      <trkpt lat="42.6504790" lon="-8.6468130">
        <ele>143.1</ele>
        <time>2019-08-17T13:00:05Z</time>
      </trkpt>
      <trkpt lat="42.6505960" lon="-8.6468640">
        <ele>143.9</ele>
        <time>2019-08-17T13:00:09Z</time>
      </trkpt>
      <trkpt lat="42.6506630" lon="-8.6469460">
        <ele>144.5</ele>
        <time>2019-08-17T13:00:12Z</time>
      </trkpt>
      <trkpt lat="42.6506920" lon="-8.6469490">
        <ele>144.4</ele>
        <time>2019-08-17T13:00:13Z</time>
      </trkpt>
      <trkpt lat="42.6507280" lon="-8.6469210">
        <ele>144.1</ele>
        <time>2019-08-17T13:00:14Z</time>
      </trkpt>
      <trkpt lat="42.6507640" lon="-8.6469000">
        <ele>143.9</ele>
        <time>2019-08-17T13:00:15Z</time>
      </trkpt>
      <trkpt lat="42.6507960" lon="-8.6468740">
        <ele>143.7</ele>
        <time>2019-08-17T13:00:16Z</time>
      </trkpt>
      <trkpt lat="42.6508160" lon="-8.6468390">
        <ele>143.5</ele>
        <time>2019-08-17T13:00:17Z</time>
      </trkpt>
      <trkpt lat="42.6508840" lon="-8.6466170">
        <ele>142.5</ele>
        <time>2019-08-17T13:00:22Z</time>
      </trkpt>
      <trkpt lat="42.6509540" lon="-8.6463690">
        <ele>141.3</ele>
        <time>2019-08-17T13:00:28Z</time>
      </trkpt>
      <trkpt lat="42.6509680" lon="-8.6463670">
        <ele>141.2</ele>
        <time>2019-08-17T13:00:29Z</time>
      </trkpt>
      <trkpt lat="42.6510290" lon="-8.6463570">
        <ele>140.8</ele>
        <time>2019-08-17T13:00:31Z</time>
      </trkpt>
      <trkpt lat="42.6512010" lon="-8.6463710">
        <ele>142.6</ele>
        <time>2019-08-17T13:00:35Z</time>
      </trkpt>
      <trkpt lat="42.6512830" lon="-8.6463800">
        <ele>143.5</ele>
        <time>2019-08-17T13:00:37Z</time>
      </trkpt>
      <trkpt lat="42.6514750" lon="-8.6464410">
        <ele>146.3</ele>
        <time>2019-08-17T13:00:43Z</time>
      </trkpt>
      <trkpt lat="42.6516130" lon="-8.6463850">
        <ele>146.6</ele>
        <time>2019-08-17T13:00:47Z</time>
      </trkpt>
      <trkpt lat="42.6517820" lon="-8.6461830">
        <ele>147.7</ele>
        <time>2019-08-17T13:00:53Z</time>
      </trkpt>
      <trkpt lat="42.6518960" lon="-8.6459530">
        <ele>148.9</ele>
        <time>2019-08-17T13:00:59Z</time>
      </trkpt>
      <trkpt lat="42.6519680" lon="-8.6458130">
        <ele>149.7</ele>
        <time>2019-08-17T13:01:03Z</time>
      </trkpt>
      <trkpt lat="42.6519860" lon="-8.6457770">
        <ele>150.0</ele>
        <time>2019-08-17T13:01:04Z</time>
      </trkpt>
      <trkpt lat="42.6520070" lon="-8.6457460">
        <ele>150.2</ele>
        <time>2019-08-17T13:01:05Z</time>
      </trkpt>
      <trkpt lat="42.6520290" lon="-8.6457070">
        <ele>150.5</ele>
        <time>2019-08-17T13:01:06Z</time>
      </trkpt>
      <trkpt lat="42.6520450" lon="-8.6456780">
        <ele>150.7</ele>
        <time>2019-08-17T13:01:07Z</time>
      </trkpt>
      <trkpt lat="42.6521660" lon="-8.6455490">
        <ele>152.3</ele>
        <time>2019-08-17T13:01:12Z</time>
      </trkpt>
      <trkpt lat="42.6523630" lon="-8.6454540">
        <ele>153.9</ele>
        <time>2019-08-17T13:01:19Z</time>
      </trkpt>
      <trkpt lat="42.6523980" lon="-8.6454480">
        <ele>154.0</ele>
        <time>2019-08-17T13:01:20Z</time>
      </trkpt>
      <trkpt lat="42.6524350" lon="-8.6454430">
        <ele>154.2</ele>
        <time>2019-08-17T13:01:21Z</time>
      </trkpt>
      <trkpt lat="42.6524750" lon="-8.6454370">
        <ele>154.4</ele>
        <time>2019-08-17T13:01:22Z</time>
      </trkpt>
      <trkpt lat="42.6525220" lon="-8.6454070">
        <ele>154.7</ele>
        <time>2019-08-17T13:01:23Z</time>
      </trkpt>
      <trkpt lat="42.6525630" lon="-8.6453770">
        <ele>155.0</ele>
        <time>2019-08-17T13:01:24Z</time>
      </trkpt>
      <trkpt lat="42.6526020" lon="-8.6453460">
        <ele>155.3</ele>
        <time>2019-08-17T13:01:25Z</time>
      </trkpt>
      <trkpt lat="42.6526350" lon="-8.6453160">
        <ele>155.6</ele>
        <time>2019-08-17T13:01:26Z</time>
      </trkpt>
      <trkpt lat="42.6526690" lon="-8.6452860">
        <ele>155.9</ele>
        <time>2019-08-17T13:01:27Z</time>
      </trkpt>
      <trkpt lat="42.6526970" lon="-8.6452620">
        <ele>156.1</ele>
        <time>2019-08-17T13:01:28Z</time>
      </trkpt>
      <trkpt lat="42.6527200" lon="-8.6452450">
        <ele>156.3</ele>
        <time>2019-08-17T13:01:29Z</time>
      </trkpt>
      <trkpt lat="42.6527380" lon="-8.6452310">
        <ele>156.4</ele>
        <time>2019-08-17T13:01:30Z</time>
      </trkpt>
      <trkpt lat="42.6527610" lon="-8.6452160">
        <ele>156.6</ele>
        <time>2019-08-17T13:01:31Z</time>
      </trkpt>
      <trkpt lat="42.6527840" lon="-8.6451990">
        <ele>156.7</ele>
        <time>2019-08-17T13:01:32Z</time>
      </trkpt>
      <trkpt lat="42.6529360" lon="-8.6450820">
        <ele>157.9</ele>
        <time>2019-08-17T13:01:38Z</time>
      </trkpt>
      <trkpt lat="42.6529580" lon="-8.6450620">
        <ele>158.2</ele>
        <time>2019-08-17T13:01:39Z</time>
      </trkpt>
      <trkpt lat="42.6529850" lon="-8.6450380">
        <ele>158.5</ele>
        <time>2019-08-17T13:01:40Z</time>
      </trkpt>
      <trkpt lat="42.6530050" lon="-8.6450150">
        <ele>158.7</ele>
        <time>2019-08-17T13:01:41Z</time>
      </trkpt>
      <trkpt lat="42.6530280" lon="-8.6449810">
        <ele>159.0</ele>
        <time>2019-08-17T13:01:42Z</time>
      </trkpt>
      <trkpt lat="42.6530450" lon="-8.6449570">
        <ele>159.2</ele>
        <time>2019-08-17T13:01:43Z</time>
      </trkpt>
      <trkpt lat="42.6530640" lon="-8.6449340">
        <ele>159.5</ele>
        <time>2019-08-17T13:01:44Z</time>
      </trkpt>
      <trkpt lat="42.6531820" lon="-8.6448120">
        <ele>160.7</ele>
        <time>2019-08-17T13:01:49Z</time>
      </trkpt>
      <trkpt lat="42.6532050" lon="-8.6447910">
        <ele>160.8</ele>
        <time>2019-08-17T13:01:50Z</time>
      </trkpt>
      <trkpt lat="42.6532300" lon="-8.6447740">
        <ele>160.9</ele>
        <time>2019-08-17T13:01:51Z</time>
      </trkpt>
      <trkpt lat="42.6532550" lon="-8.6447560">
        <ele>161.1</ele>
        <time>2019-08-17T13:01:52Z</time>
      </trkpt>
      <trkpt lat="42.6532800" lon="-8.6447380">
        <ele>161.2</ele>
        <time>2019-08-17T13:01:53Z</time>
      </trkpt>
      <trkpt lat="42.6533030" lon="-8.6447150">
        <ele>161.3</ele>
        <time>2019-08-17T13:01:54Z</time>
      </trkpt>
      <trkpt lat="42.6535310" lon="-8.6445150">
        <ele>161.3</ele>
        <time>2019-08-17T13:02:03Z</time>
      </trkpt>
      <trkpt lat="42.6535570" lon="-8.6444860">
        <ele>161.3</ele>
        <time>2019-08-17T13:02:04Z</time>
      </trkpt>
      <trkpt lat="42.6535810" lon="-8.6444580">
        <ele>161.2</ele>
        <time>2019-08-17T13:02:05Z</time>
      </trkpt>
      <trkpt lat="42.6536040" lon="-8.6444250">
        <ele>161.1</ele>
        <time>2019-08-17T13:02:06Z</time>
      </trkpt>
      <trkpt lat="42.6536250" lon="-8.6443920">
        <ele>161.1</ele>
        <time>2019-08-17T13:02:07Z</time>
      </trkpt>
      <trkpt lat="42.6536900" lon="-8.6443150">
        <ele>160.9</ele>
        <time>2019-08-17T13:02:10Z</time>
      </trkpt>
      <trkpt lat="42.6538320" lon="-8.6441700">
        <ele>160.4</ele>
        <time>2019-08-17T13:02:18Z</time>
      </trkpt>
      <trkpt lat="42.6538830" lon="-8.6441890">
        <ele>160.3</ele>
        <time>2019-08-17T13:02:20Z</time>
      </trkpt>
      <trkpt lat="42.6539030" lon="-8.6441940">
        <ele>160.3</ele>
        <time>2019-08-17T13:02:21Z</time>
      </trkpt>
      <trkpt lat="42.6539270" lon="-8.6442010">
        <ele>160.2</ele>
        <time>2019-08-17T13:02:22Z</time>
      </trkpt>
      <trkpt lat="42.6539510" lon="-8.6442060">
        <ele>160.2</ele>
        <time>2019-08-17T13:02:23Z</time>
      </trkpt>
      <trkpt lat="42.6539710" lon="-8.6442090">
        <ele>160.1</ele>
        <time>2019-08-17T13:02:24Z</time>
      </trkpt>
      <trkpt lat="42.6541350" lon="-8.6442660">
        <ele>160.4</ele>
        <time>2019-08-17T13:02:31Z</time>
      </trkpt>
      <trkpt lat="42.6542460" lon="-8.6442270">
        <ele>161.0</ele>
        <time>2019-08-17T13:02:36Z</time>
      </trkpt>
      <trkpt lat="42.6544120" lon="-8.6441160">
        <ele>161.6</ele>
        <time>2019-08-17T13:02:43Z</time>
      </trkpt>
      <trkpt lat="42.6545180" lon="-8.6440340">
        <ele>161.9</ele>
        <time>2019-08-17T13:02:48Z</time>
      </trkpt>
      <trkpt lat="42.6545390" lon="-8.6440180">
        <ele>162.0</ele>
        <time>2019-08-17T13:02:49Z</time>
      </trkpt>
      <trkpt lat="42.6545580" lon="-8.6440060">
        <ele>162.0</ele>
        <time>2019-08-17T13:02:50Z</time>
      </trkpt>
      <trkpt lat="42.6545740" lon="-8.6439960">
        <ele>162.1</ele>
        <time>2019-08-17T13:02:51Z</time>
      </trkpt>
      <trkpt lat="42.6545970" lon="-8.6439870">
        <ele>162.2</ele>
        <time>2019-08-17T13:02:52Z</time>
      </trkpt>
      <trkpt lat="42.6546680" lon="-8.6439300">
        <ele>162.3</ele>
        <time>2019-08-17T13:02:55Z</time>
      </trkpt>
      <trkpt lat="42.6547670" lon="-8.6436720">
        <ele>162.5</ele>
        <time>2019-08-17T13:03:00Z</time>
      </trkpt>
      <trkpt lat="42.6547770" lon="-8.6435310">
        <ele>162.5</ele>
        <time>2019-08-17T13:03:02Z</time>
      </trkpt>
      <trkpt lat="42.6547820" lon="-8.6434630">
        <ele>162.5</ele>
        <time>2019-08-17T13:03:03Z</time>
      </trkpt>
      <trkpt lat="42.6547760" lon="-8.6433930">
        <ele>162.5</ele>
        <time>2019-08-17T13:03:04Z</time>
      </trkpt>
      <trkpt lat="42.6547860" lon="-8.6433390">
        <ele>162.5</ele>
        <time>2019-08-17T13:03:05Z</time>
      </trkpt>
      <trkpt lat="42.6548000" lon="-8.6432860">
        <ele>162.5</ele>
        <time>2019-08-17T13:03:06Z</time>
      </trkpt>
      <trkpt lat="42.6548850" lon="-8.6431310">
        <ele>162.2</ele>
        <time>2019-08-17T13:03:10Z</time>
      </trkpt>
      <trkpt lat="42.6549970" lon="-8.6430240">
        <ele>162.0</ele>
        <time>2019-08-17T13:03:15Z</time>
      </trkpt>
      <trkpt lat="42.6551460" lon="-8.6430380">
        <ele>162.1</ele>
        <time>2019-08-17T13:03:20Z</time>
      </trkpt>
      <trkpt lat="42.6552260" lon="-8.6430910">
        <ele>162.3</ele>
        <time>2019-08-17T13:03:23Z</time>
      </trkpt>
      <trkpt lat="42.6552540" lon="-8.6431090">
        <ele>162.3</ele>
        <time>2019-08-17T13:03:24Z</time>
      </trkpt>
      <trkpt lat="42.6552800" lon="-8.6431230">
        <ele>162.4</ele>
        <time>2019-08-17T13:03:25Z</time>
      </trkpt>
      <trkpt lat="42.6553010" lon="-8.6431310">
        <ele>162.4</ele>
        <time>2019-08-17T13:03:26Z</time>
      </trkpt>
      <trkpt lat="42.6553230" lon="-8.6431360">
        <ele>162.5</ele>
        <time>2019-08-17T13:03:27Z</time>
      </trkpt>
      <trkpt lat="42.6554430" lon="-8.6430680">
        <ele>162.7</ele>
        <time>2019-08-17T13:03:33Z</time>
      </trkpt>
      <trkpt lat="42.6554910" lon="-8.6428790">
        <ele>162.8</ele>
        <time>2019-08-17T13:03:38Z</time>
      </trkpt>
      <trkpt lat="42.6555380" lon="-8.6425250">
        <ele>162.7</ele>
        <time>2019-08-17T13:03:45Z</time>
      </trkpt>
      <trkpt lat="42.6556030" lon="-8.6422910">
        <ele>162.8</ele>
        <time>2019-08-17T13:03:50Z</time>
      </trkpt>
      <trkpt lat="42.6557860" lon="-8.6421080">
        <ele>162.8</ele>
        <time>2019-08-17T13:03:55Z</time>
      </trkpt>
      <trkpt lat="42.6558560" lon="-8.6420840">
        <ele>162.8</ele>
        <time>2019-08-17T13:03:57Z</time>
      </trkpt>
      <trkpt lat="42.6559180" lon="-8.6421400">
        <ele>162.6</ele>
        <time>2019-08-17T13:03:59Z</time>
      </trkpt>
      <trkpt lat="42.6559820" lon="-8.6422110">
        <ele>162.5</ele>
        <time>2019-08-17T13:04:01Z</time>
      </trkpt>
      <trkpt lat="42.6561450" lon="-8.6423180">
        <ele>162.2</ele>
        <time>2019-08-17T13:04:05Z</time>
      </trkpt>
      <trkpt lat="42.6562890" lon="-8.6423630">
        <ele>162.1</ele>
        <time>2019-08-17T13:04:08Z</time>
      </trkpt>
      <trkpt lat="42.6563840" lon="-8.6423830">
        <ele>162.1</ele>
        <time>2019-08-17T13:04:10Z</time>
      </trkpt>
      <trkpt lat="42.6567670" lon="-8.6425550">
        <ele>162.1</ele>
        <time>2019-08-17T13:04:18Z</time>
      </trkpt>
      <trkpt lat="42.6570520" lon="-8.6426790">
        <ele>162.0</ele>
        <time>2019-08-17T13:04:24Z</time>
      </trkpt>
      <trkpt lat="42.6571390" lon="-8.6427470">
        <ele>161.9</ele>
        <time>2019-08-17T13:04:26Z</time>
      </trkpt>
      <trkpt lat="42.6573100" lon="-8.6428330">
        <ele>161.8</ele>
        <time>2019-08-17T13:04:30Z</time>
      </trkpt>
      <trkpt lat="42.6573560" lon="-8.6428070">
        <ele>161.7</ele>
        <time>2019-08-17T13:04:31Z</time>
      </trkpt>
      <trkpt lat="42.6574340" lon="-8.6426470">
        <ele>161.6</ele>
        <time>2019-08-17T13:04:34Z</time>
      </trkpt>
      <trkpt lat="42.6575840" lon="-8.6423520">
        <ele>161.4</ele>
        <time>2019-08-17T13:04:40Z</time>
      </trkpt>
      <trkpt lat="42.6576150" lon="-8.6422310">
        <ele>161.4</ele>
        <time>2019-08-17T13:04:42Z</time>
      </trkpt>
      <trkpt lat="42.6576600" lon="-8.6421180">
        <ele>161.4</ele>
        <time>2019-08-17T13:04:44Z</time>
      </trkpt>
      <trkpt lat="42.6577390" lon="-8.6419820">
        <ele>161.3</ele>
        <time>2019-08-17T13:04:47Z</time>
      </trkpt>
      <trkpt lat="42.6578510" lon="-8.6417600">
        <ele>160.9</ele>
        <time>2019-08-17T13:04:51Z</time>
      </trkpt>
      <trkpt lat="42.6578790" lon="-8.6417010">
        <ele>160.8</ele>
        <time>2019-08-17T13:04:52Z</time>
      </trkpt>
      <trkpt lat="42.6579080" lon="-8.6416370">
        <ele>160.6</ele>
        <time>2019-08-17T13:04:53Z</time>
      </trkpt>
      <trkpt lat="42.6579350" lon="-8.6415750">
        <ele>160.4</ele>
        <time>2019-08-17T13:04:54Z</time>
      </trkpt>
      <trkpt lat="42.6579600" lon="-8.6415060">
        <ele>160.3</ele>
        <time>2019-08-17T13:04:55Z</time>
      </trkpt>
      <trkpt lat="42.6580170" lon="-8.6412140">
        <ele>159.7</ele>
        <time>2019-08-17T13:04:59Z</time>
      </trkpt>
      <trkpt lat="42.6580220" lon="-8.6411390">
        <ele>159.6</ele>
        <time>2019-08-17T13:05:00Z</time>
      </trkpt>
      <trkpt lat="42.6581030" lon="-8.6405090">
        <ele>158.8</ele>
        <time>2019-08-17T13:05:09Z</time>
      </trkpt>
      <trkpt lat="42.6581790" lon="-8.6400830">
        <ele>158.0</ele>
        <time>2019-08-17T13:05:16Z</time>
      </trkpt>
      <trkpt lat="42.6582170" lon="-8.6400330">
        <ele>157.8</ele>
        <time>2019-08-17T13:05:17Z</time>
      </trkpt>
      <trkpt lat="42.6582600" lon="-8.6400060">
        <ele>157.7</ele>
        <time>2019-08-17T13:05:18Z</time>
      </trkpt>
      <trkpt lat="42.6583030" lon="-8.6399850">
        <ele>157.4</ele>
        <time>2019-08-17T13:05:19Z</time>
      </trkpt>
      <trkpt lat="42.6583430" lon="-8.6399670">
        <ele>157.2</ele>
        <time>2019-08-17T13:05:20Z</time>
      </trkpt>
      <trkpt lat="42.6585140" lon="-8.6398310">
        <ele>155.8</ele>
        <time>2019-08-17T13:05:24Z</time>
      </trkpt>
      <trkpt lat="42.6585480" lon="-8.6397490">
        <ele>155.3</ele>
        <time>2019-08-17T13:05:25Z</time>
      </trkpt>
      <trkpt lat="42.6585780" lon="-8.6396640">
        <ele>154.9</ele>
        <time>2019-08-17T13:05:26Z</time>
      </trkpt>
      <trkpt lat="42.6585930" lon="-8.6395670">
        <ele>154.5</ele>
        <time>2019-08-17T13:05:27Z</time>
      </trkpt>
      <trkpt lat="42.6586020" lon="-8.6394620">
        <ele>153.8</ele>
        <time>2019-08-17T13:05:28Z</time>
      </trkpt>
      <trkpt lat="42.6585890" lon="-8.6393650">
        <ele>153.2</ele>
        <time>2019-08-17T13:05:29Z</time>
      </trkpt>
      <trkpt lat="42.6585680" lon="-8.6392650">
        <ele>152.4</ele>
        <time>2019-08-17T13:05:30Z</time>
      </trkpt>
      <trkpt lat="42.6585230" lon="-8.6391930">
        <ele>151.7</ele>
        <time>2019-08-17T13:05:31Z</time>
      </trkpt>
      <trkpt lat="42.6584530" lon="-8.6391770">
        <ele>151.1</ele>
        <time>2019-08-17T13:05:32Z</time>
      </trkpt>
      <trkpt lat="42.6583970" lon="-8.6391350">
        <ele>150.8</ele>
        <time>2019-08-17T13:05:33Z</time>
      </trkpt>
      <trkpt lat="42.6583440" lon="-8.6390860">
        <ele>150.5</ele>
        <time>2019-08-17T13:05:34Z</time>
      </trkpt>
      <trkpt lat="42.6582950" lon="-8.6390230">
        <ele>150.2</ele>
        <time>2019-08-17T13:05:35Z</time>
      </trkpt>
      <trkpt lat="42.6582220" lon="-8.6388730">
        <ele>149.8</ele>
        <time>2019-08-17T13:05:37Z</time>
      </trkpt>
      <trkpt lat="42.6581260" lon="-8.6385290">
        <ele>149.0</ele>
        <time>2019-08-17T13:05:41Z</time>
      </trkpt>
      <trkpt lat="42.6581120" lon="-8.6384610">
        <ele>148.8</ele>
        <time>2019-08-17T13:05:42Z</time>
      </trkpt>
      <trkpt lat="42.6580940" lon="-8.6384040">
        <ele>148.6</ele>
        <time>2019-08-17T13:05:43Z</time>
      </trkpt>
      <trkpt lat="42.6580840" lon="-8.6383470">
        <ele>148.4</ele>
        <time>2019-08-17T13:05:44Z</time>
      </trkpt>
      <trkpt lat="42.6580730" lon="-8.6382860">
        <ele>148.2</ele>
        <time>2019-08-17T13:05:45Z</time>
      </trkpt>
      <trkpt lat="42.6580620" lon="-8.6382380">
        <ele>148.1</ele>
        <time>2019-08-17T13:05:46Z</time>
      </trkpt>
      <trkpt lat="42.6580640" lon="-8.6380840">
        <ele>147.8</ele>
        <time>2019-08-17T13:05:50Z</time>
      </trkpt>
      <trkpt lat="42.6581470" lon="-8.6379280">
        <ele>147.2</ele>
        <time>2019-08-17T13:05:54Z</time>
      </trkpt>
      <trkpt lat="42.6582190" lon="-8.6378660">
        <ele>147.0</ele>
        <time>2019-08-17T13:05:56Z</time>
      </trkpt>
      <trkpt lat="42.6583500" lon="-8.6377970">
        <ele>146.4</ele>
        <time>2019-08-17T13:05:59Z</time>
      </trkpt>
      <trkpt lat="42.6583810" lon="-8.6377460">
        <ele>146.5</ele>
        <time>2019-08-17T13:06:00Z</time>
      </trkpt>
      <trkpt lat="42.6584190" lon="-8.6376320">
        <ele>146.7</ele>
        <time>2019-08-17T13:06:02Z</time>
      </trkpt>
      <trkpt lat="42.6584610" lon="-8.6374570">
        <ele>147.2</ele>
        <time>2019-08-17T13:06:05Z</time>
      </trkpt>
      <trkpt lat="42.6584750" lon="-8.6373410">
        <ele>147.2</ele>
        <time>2019-08-17T13:06:07Z</time>
      </trkpt>
      <trkpt lat="42.6584720" lon="-8.6372810">
        <ele>147.3</ele>
        <time>2019-08-17T13:06:08Z</time>
      </trkpt>
      <trkpt lat="42.6584810" lon="-8.6369790">
        <ele>147.7</ele>
        <time>2019-08-17T13:06:13Z</time>
      </trkpt>
      <trkpt lat="42.6584920" lon="-8.6369250">
        <ele>147.9</ele>
        <time>2019-08-17T13:06:14Z</time>
      </trkpt>
      <trkpt lat="42.6585910" lon="-8.6367700">
        <ele>148.5</ele>
        <time>2019-08-17T13:06:18Z</time>
      </trkpt>
      <trkpt lat="42.6587680" lon="-8.6365170">
        <ele>149.4</ele>
        <time>2019-08-17T13:06:25Z</time>
      </trkpt>
      <trkpt lat="42.6587930" lon="-8.6364040">
        <ele>149.6</ele>
        <time>2019-08-17T13:06:27Z</time>
      </trkpt>
      <trkpt lat="42.6588280" lon="-8.6362310">
        <ele>149.8</ele>
        <time>2019-08-17T13:06:30Z</time>
      </trkpt>
      <trkpt lat="42.6589490" lon="-8.6354710">
        <ele>150.6</ele>
        <time>2019-08-17T13:06:43Z</time>
      </trkpt>
      <trkpt lat="42.6589710" lon="-8.6353770">
        <ele>150.7</ele>
        <time>2019-08-17T13:06:45Z</time>
      </trkpt>
      <trkpt lat="42.6589970" lon="-8.6353370">
        <ele>150.7</ele>
        <time>2019-08-17T13:06:46Z</time>
      </trkpt>
      <trkpt lat="42.6590630" lon="-8.6353170">
        <ele>150.8</ele>
        <time>2019-08-17T13:06:48Z</time>
      </trkpt>
      <trkpt lat="42.6590990" lon="-8.6353270">
        <ele>150.8</ele>
        <time>2019-08-17T13:06:49Z</time>
      </trkpt>
      <trkpt lat="42.6591370" lon="-8.6353320">
        <ele>150.9</ele>
        <time>2019-08-17T13:06:50Z</time>
      </trkpt>
      <trkpt lat="42.6591730" lon="-8.6353330">
        <ele>150.9</ele>
        <time>2019-08-17T13:06:51Z</time>
      </trkpt>
      <trkpt lat="42.6592140" lon="-8.6353340">
        <ele>151.1</ele>
        <time>2019-08-17T13:06:52Z</time>
      </trkpt>
      <trkpt lat="42.6592540" lon="-8.6353350">
        <ele>151.2</ele>
        <time>2019-08-17T13:06:53Z</time>
      </trkpt>
      <trkpt lat="42.6593800" lon="-8.6352660">
        <ele>151.9</ele>
        <time>2019-08-17T13:06:57Z</time>
      </trkpt>
      <trkpt lat="42.6595370" lon="-8.6352280">
        <ele>152.2</ele>
        <time>2019-08-17T13:07:01Z</time>
      </trkpt>
      <trkpt lat="42.6595780" lon="-8.6352480">
        <ele>152.2</ele>
        <time>2019-08-17T13:07:02Z</time>
      </trkpt>
      <trkpt lat="42.6596970" lon="-8.6353320">
        <ele>152.2</ele>
        <time>2019-08-17T13:07:05Z</time>
      </trkpt>
      <trkpt lat="42.6597730" lon="-8.6353980">
        <ele>152.2</ele>
        <time>2019-08-17T13:07:07Z</time>
      </trkpt>
      <trkpt lat="42.6598130" lon="-8.6354180">
        <ele>152.2</ele>
        <time>2019-08-17T13:07:08Z</time>
      </trkpt>
      <trkpt lat="42.6598550" lon="-8.6354430">
        <ele>152.2</ele>
        <time>2019-08-17T13:07:09Z</time>
      </trkpt>
      <trkpt lat="42.6598940" lon="-8.6354700">
        <ele>152.2</ele>
        <time>2019-08-17T13:07:10Z</time>
      </trkpt>
      <trkpt lat="42.6599320" lon="-8.6355010">
        <ele>152.2</ele>
        <time>2019-08-17T13:07:11Z</time>
      </trkpt>
      <trkpt lat="42.6599670" lon="-8.6355290">
        <ele>152.2</ele>
        <time>2019-08-17T13:07:12Z</time>
      </trkpt>
      <trkpt lat="42.6603510" lon="-8.6358070">
        <ele>152.9</ele>
        <time>2019-08-17T13:07:22Z</time>
      </trkpt>
      <trkpt lat="42.6603860" lon="-8.6358440">
        <ele>153.2</ele>
        <time>2019-08-17T13:07:23Z</time>
      </trkpt>
      <trkpt lat="42.6605430" lon="-8.6359850">
        <ele>154.4</ele>
        <time>2019-08-17T13:07:28Z</time>
      </trkpt>
      <trkpt lat="42.6608090" lon="-8.6361120">
        <ele>155.3</ele>
        <time>2019-08-17T13:07:36Z</time>
      </trkpt>
      <trkpt lat="42.6610690" lon="-8.6362460">
        <ele>155.3</ele>
        <time>2019-08-17T13:07:43Z</time>
      </trkpt>
      <trkpt lat="42.6611080" lon="-8.6362520">
        <ele>155.3</ele>
        <time>2019-08-17T13:07:44Z</time>
      </trkpt>
      <trkpt lat="42.6612790" lon="-8.6363460">
        <ele>155.3</ele>
        <time>2019-08-17T13:07:49Z</time>
      </trkpt>
      <trkpt lat="42.6613790" lon="-8.6363360">
        <ele>155.3</ele>
        <time>2019-08-17T13:07:52Z</time>
      </trkpt>
      <trkpt lat="42.6614480" lon="-8.6363240">
        <ele>155.3</ele>
        <time>2019-08-17T13:07:54Z</time>
      </trkpt>
      <trkpt lat="42.6615930" lon="-8.6361890">
        <ele>155.3</ele>
        <time>2019-08-17T13:07:59Z</time>
      </trkpt>
      <trkpt lat="42.6617350" lon="-8.6359060">
        <ele>155.0</ele>
        <time>2019-08-17T13:08:05Z</time>
      </trkpt>
      <trkpt lat="42.6619050" lon="-8.6355900">
        <ele>153.4</ele>
        <time>2019-08-17T13:08:10Z</time>
      </trkpt>
      <trkpt lat="42.6619520" lon="-8.6355290">
        <ele>152.9</ele>
        <time>2019-08-17T13:08:11Z</time>
      </trkpt>
      <trkpt lat="42.6620520" lon="-8.6354850">
        <ele>151.6</ele>
        <time>2019-08-17T13:08:12Z</time>
      </trkpt>
      <trkpt lat="42.6621260" lon="-8.6354380">
        <ele>150.4</ele>
        <time>2019-08-17T13:08:13Z</time>
      </trkpt>
      <trkpt lat="42.6622160" lon="-8.6353840">
        <ele>148.8</ele>
        <time>2019-08-17T13:08:14Z</time>
      </trkpt>
      <trkpt lat="42.6622820" lon="-8.6353390">
        <ele>147.9</ele>
        <time>2019-08-17T13:08:15Z</time>
      </trkpt>
      <trkpt lat="42.6623430" lon="-8.6352950">
        <ele>146.6</ele>
        <time>2019-08-17T13:08:16Z</time>
      </trkpt>
      <trkpt lat="42.6624060" lon="-8.6352600">
        <ele>145.3</ele>
        <time>2019-08-17T13:08:17Z</time>
      </trkpt>
      <trkpt lat="42.6624610" lon="-8.6352300">
        <ele>144.1</ele>
        <time>2019-08-17T13:08:18Z</time>
      </trkpt>
      <trkpt lat="42.6625580" lon="-8.6351720">
        <ele>142.0</ele>
        <time>2019-08-17T13:08:19Z</time>
      </trkpt>
      <trkpt lat="42.6626040" lon="-8.6351070">
        <ele>140.8</ele>
        <time>2019-08-17T13:08:20Z</time>
      </trkpt>
      <trkpt lat="42.6626630" lon="-8.6350340">
        <ele>139.4</ele>
        <time>2019-08-17T13:08:21Z</time>
      </trkpt>
      <trkpt lat="42.6627100" lon="-8.6349690">
        <ele>138.4</ele>
        <time>2019-08-17T13:08:22Z</time>
      </trkpt>
      <trkpt lat="42.6627540" lon="-8.6349150">
        <ele>137.7</ele>
        <time>2019-08-17T13:08:23Z</time>
      </trkpt>
      <trkpt lat="42.6628110" lon="-8.6348540">
        <ele>136.5</ele>
        <time>2019-08-17T13:08:24Z</time>
      </trkpt>
      <trkpt lat="42.6628650" lon="-8.6347910">
        <ele>135.5</ele>
        <time>2019-08-17T13:08:25Z</time>
      </trkpt>
      <trkpt lat="42.6629190" lon="-8.6347180">
        <ele>134.7</ele>
        <time>2019-08-17T13:08:26Z</time>
      </trkpt>
      <trkpt lat="42.6629760" lon="-8.6346480">
        <ele>134.1</ele>
        <time>2019-08-17T13:08:27Z</time>
      </trkpt>
      <trkpt lat="42.6630500" lon="-8.6345860">
        <ele>133.7</ele>
        <time>2019-08-17T13:08:28Z</time>
      </trkpt>
      <trkpt lat="42.6631130" lon="-8.6345390">
        <ele>133.4</ele>
        <time>2019-08-17T13:08:29Z</time>
      </trkpt>
      <trkpt lat="42.6631730" lon="-8.6345030">
        <ele>133.2</ele>
        <time>2019-08-17T13:08:30Z</time>
      </trkpt>
      <trkpt lat="42.6632270" lon="-8.6344650">
        <ele>133.1</ele>
        <time>2019-08-17T13:08:31Z</time>
      </trkpt>
      <trkpt lat="42.6632700" lon="-8.6344230">
        <ele>133.1</ele>
        <time>2019-08-17T13:08:32Z</time>
      </trkpt>
      <trkpt lat="42.6633170" lon="-8.6343700">
        <ele>133.0</ele>
        <time>2019-08-17T13:08:33Z</time>
      </trkpt>
      <trkpt lat="42.6633640" lon="-8.6343190">
        <ele>133.0</ele>
        <time>2019-08-17T13:08:34Z</time>
      </trkpt>
      <trkpt lat="42.6636950" lon="-8.6340580">
        <ele>133.1</ele>
        <time>2019-08-17T13:08:40Z</time>
      </trkpt>
      <trkpt lat="42.6638770" lon="-8.6339050">
        <ele>133.7</ele>
        <time>2019-08-17T13:08:44Z</time>
      </trkpt>
      <trkpt lat="42.6639160" lon="-8.6338760">
        <ele>133.9</ele>
        <time>2019-08-17T13:08:45Z</time>
      </trkpt>
      <trkpt lat="42.6639530" lon="-8.6338550">
        <ele>134.1</ele>
        <time>2019-08-17T13:08:46Z</time>
      </trkpt>
      <trkpt lat="42.6639930" lon="-8.6338350">
        <ele>134.3</ele>
        <time>2019-08-17T13:08:47Z</time>
      </trkpt>
      <trkpt lat="42.6640370" lon="-8.6338180">
        <ele>134.4</ele>
        <time>2019-08-17T13:08:48Z</time>
      </trkpt>
      <trkpt lat="42.6643430" lon="-8.6336880">
        <ele>134.7</ele>
        <time>2019-08-17T13:08:55Z</time>
      </trkpt>
      <trkpt lat="42.6644760" lon="-8.6336130">
        <ele>134.9</ele>
        <time>2019-08-17T13:08:58Z</time>
      </trkpt>
      <trkpt lat="42.6645220" lon="-8.6335960">
        <ele>135.1</ele>
        <time>2019-08-17T13:08:59Z</time>
      </trkpt>
      <trkpt lat="42.6645720" lon="-8.6335740">
        <ele>135.2</ele>
        <time>2019-08-17T13:09:00Z</time>
      </trkpt>
      <trkpt lat="42.6646160" lon="-8.6335490">
        <ele>135.4</ele>
        <time>2019-08-17T13:09:01Z</time>
      </trkpt>
      <trkpt lat="42.6646590" lon="-8.6335220">
        <ele>135.6</ele>
        <time>2019-08-17T13:09:02Z</time>
      </trkpt>
      <trkpt lat="42.6650900" lon="-8.6333770">
        <ele>136.1</ele>
        <time>2019-08-17T13:09:11Z</time>
      </trkpt>
      <trkpt lat="42.6656360" lon="-8.6332340">
        <ele>136.0</ele>
        <time>2019-08-17T13:09:21Z</time>
      </trkpt>
      <trkpt lat="42.6658170" lon="-8.6332110">
        <ele>135.4</ele>
        <time>2019-08-17T13:09:24Z</time>
      </trkpt>
      <trkpt lat="42.6658780" lon="-8.6332040">
        <ele>135.0</ele>
        <time>2019-08-17T13:09:25Z</time>
      </trkpt>
      <trkpt lat="42.6659380" lon="-8.6331970">
        <ele>134.8</ele>
        <time>2019-08-17T13:09:26Z</time>
      </trkpt>
      <trkpt lat="42.6659950" lon="-8.6331880">
        <ele>134.7</ele>
        <time>2019-08-17T13:09:27Z</time>
      </trkpt>
      <trkpt lat="42.6660520" lon="-8.6331790">
        <ele>134.6</ele>
        <time>2019-08-17T13:09:28Z</time>
      </trkpt>
      <trkpt lat="42.6661070" lon="-8.6331740">
        <ele>134.6</ele>
        <time>2019-08-17T13:09:29Z</time>
      </trkpt>
      <trkpt lat="42.6665470" lon="-8.6331200">
        <ele>134.5</ele>
        <time>2019-08-17T13:09:37Z</time>
      </trkpt>
      <trkpt lat="42.6667500" lon="-8.6331160">
        <ele>134.6</ele>
        <time>2019-08-17T13:09:41Z</time>
      </trkpt>
      <trkpt lat="42.6668400" lon="-8.6331230">
        <ele>134.7</ele>
        <time>2019-08-17T13:09:43Z</time>
      </trkpt>
      <trkpt lat="42.6668850" lon="-8.6331220">
        <ele>134.8</ele>
        <time>2019-08-17T13:09:44Z</time>
      </trkpt>
      <trkpt lat="42.6669260" lon="-8.6331230">
        <ele>135.0</ele>
        <time>2019-08-17T13:09:45Z</time>
      </trkpt>
      <trkpt lat="42.6669670" lon="-8.6331250">
        <ele>135.1</ele>
        <time>2019-08-17T13:09:46Z</time>
      </trkpt>
      <trkpt lat="42.6670100" lon="-8.6331280">
        <ele>135.4</ele>
        <time>2019-08-17T13:09:47Z</time>
      </trkpt>
      <trkpt lat="42.6670500" lon="-8.6331330">
        <ele>135.5</ele>
        <time>2019-08-17T13:09:48Z</time>
      </trkpt>
      <trkpt lat="42.6671210" lon="-8.6331340">
        <ele>135.8</ele>
        <time>2019-08-17T13:09:50Z</time>
      </trkpt>
      <trkpt lat="42.6672540" lon="-8.6331350">
        <ele>136.1</ele>
        <time>2019-08-17T13:09:56Z</time>
      </trkpt>
      <trkpt lat="42.6672710" lon="-8.6333580">
        <ele>135.9</ele>
        <time>2019-08-17T13:10:01Z</time>
      </trkpt>
      <trkpt lat="42.6672640" lon="-8.6334180">
        <ele>135.8</ele>
        <time>2019-08-17T13:10:02Z</time>
      </trkpt>
      <trkpt lat="42.6672310" lon="-8.6336600">
        <ele>135.5</ele>
        <time>2019-08-17T13:10:06Z</time>
      </trkpt>
      <trkpt lat="42.6672210" lon="-8.6338260">
        <ele>134.9</ele>
        <time>2019-08-17T13:10:10Z</time>
      </trkpt>
      <trkpt lat="42.6672940" lon="-8.6338250">
        <ele>134.4</ele>
        <time>2019-08-17T13:10:13Z</time>
      </trkpt>
      <trkpt lat="42.6673270" lon="-8.6338140">
        <ele>134.2</ele>
        <time>2019-08-17T13:10:14Z</time>
      </trkpt>
      <trkpt lat="42.6674670" lon="-8.6338000">
        <ele>133.6</ele>
        <time>2019-08-17T13:10:17Z</time>
      </trkpt>
      <trkpt lat="42.6676850" lon="-8.6338270">
        <ele>132.5</ele>
        <time>2019-08-17T13:10:21Z</time>
      </trkpt>
      <trkpt lat="42.6677510" lon="-8.6338300">
        <ele>132.1</ele>
        <time>2019-08-17T13:10:22Z</time>
      </trkpt>
      <trkpt lat="42.6678250" lon="-8.6338280">
        <ele>131.8</ele>
        <time>2019-08-17T13:10:23Z</time>
      </trkpt>
      <trkpt lat="42.6679800" lon="-8.6338220">
        <ele>131.1</ele>
        <time>2019-08-17T13:10:25Z</time>
      </trkpt>
      <trkpt lat="42.6680580" lon="-8.6338240">
        <ele>130.6</ele>
        <time>2019-08-17T13:10:26Z</time>
      </trkpt>
      <trkpt lat="42.6681390" lon="-8.6338290">
        <ele>130.2</ele>
        <time>2019-08-17T13:10:27Z</time>
      </trkpt>
      <trkpt lat="42.6682210" lon="-8.6338310">
        <ele>129.8</ele>
        <time>2019-08-17T13:10:28Z</time>
      </trkpt>
      <trkpt lat="42.6683050" lon="-8.6338380">
        <ele>129.5</ele>
        <time>2019-08-17T13:10:29Z</time>
      </trkpt>
      <trkpt lat="42.6683930" lon="-8.6338410">
        <ele>129.1</ele>
        <time>2019-08-17T13:10:30Z</time>
      </trkpt>
      <trkpt lat="42.6685530" lon="-8.6338540">
        <ele>128.2</ele>
        <time>2019-08-17T13:10:32Z</time>
      </trkpt>
      <trkpt lat="42.6686250" lon="-8.6338580">
        <ele>127.8</ele>
        <time>2019-08-17T13:10:33Z</time>
      </trkpt>
      <trkpt lat="42.6687020" lon="-8.6338580">
        <ele>127.4</ele>
        <time>2019-08-17T13:10:34Z</time>
      </trkpt>
      <trkpt lat="42.6687870" lon="-8.6338520">
        <ele>127.0</ele>
        <time>2019-08-17T13:10:35Z</time>
      </trkpt>
      <trkpt lat="42.6688720" lon="-8.6338570">
        <ele>126.7</ele>
        <time>2019-08-17T13:10:36Z</time>
      </trkpt>
      <trkpt lat="42.6689580" lon="-8.6338620">
        <ele>126.3</ele>
        <time>2019-08-17T13:10:37Z</time>
      </trkpt>
      <trkpt lat="42.6690440" lon="-8.6338610">
        <ele>125.9</ele>
        <time>2019-08-17T13:10:38Z</time>
      </trkpt>
      <trkpt lat="42.6691230" lon="-8.6338670">
        <ele>125.4</ele>
        <time>2019-08-17T13:10:39Z</time>
      </trkpt>
      <trkpt lat="42.6692090" lon="-8.6338690">
        <ele>125.1</ele>
        <time>2019-08-17T13:10:40Z</time>
      </trkpt>
      <trkpt lat="42.6692950" lon="-8.6338700">
        <ele>124.7</ele>
        <time>2019-08-17T13:10:41Z</time>
      </trkpt>
      <trkpt lat="42.6693830" lon="-8.6338640">
        <ele>124.3</ele>
        <time>2019-08-17T13:10:42Z</time>
      </trkpt>
      <trkpt lat="42.6694710" lon="-8.6338530">
        <ele>123.8</ele>
        <time>2019-08-17T13:10:43Z</time>
      </trkpt>
      <trkpt lat="42.6695610" lon="-8.6338420">
        <ele>123.4</ele>
        <time>2019-08-17T13:10:44Z</time>
      </trkpt>
      <trkpt lat="42.6696570" lon="-8.6338330">
        <ele>123.0</ele>
        <time>2019-08-17T13:10:45Z</time>
      </trkpt>
      <trkpt lat="42.6697510" lon="-8.6338200">
        <ele>122.6</ele>
        <time>2019-08-17T13:10:46Z</time>
      </trkpt>
      <trkpt lat="42.6698500" lon="-8.6338070">
        <ele>122.2</ele>
        <time>2019-08-17T13:10:47Z</time>
      </trkpt>
      <trkpt lat="42.6699470" lon="-8.6337970">
        <ele>121.7</ele>
        <time>2019-08-17T13:10:48Z</time>
      </trkpt>
      <trkpt lat="42.6700470" lon="-8.6337860">
        <ele>121.1</ele>
        <time>2019-08-17T13:10:49Z</time>
      </trkpt>
      <trkpt lat="42.6701420" lon="-8.6337680">
        <ele>120.8</ele>
        <time>2019-08-17T13:10:50Z</time>
      </trkpt>
      <trkpt lat="42.6702360" lon="-8.6337440">
        <ele>120.5</ele>
        <time>2019-08-17T13:10:51Z</time>
      </trkpt>
      <trkpt lat="42.6703290" lon="-8.6337120">
        <ele>120.1</ele>
        <time>2019-08-17T13:10:52Z</time>
      </trkpt>
      <trkpt lat="42.6704220" lon="-8.6336790">
        <ele>119.7</ele>
        <time>2019-08-17T13:10:53Z</time>
      </trkpt>
      <trkpt lat="42.6705130" lon="-8.6336400">
        <ele>119.4</ele>
        <time>2019-08-17T13:10:54Z</time>
      </trkpt>
      <trkpt lat="42.6707660" lon="-8.6335300">
        <ele>118.6</ele>
        <time>2019-08-17T13:10:57Z</time>
      </trkpt>
      <trkpt lat="42.6710070" lon="-8.6334470">
        <ele>117.5</ele>
        <time>2019-08-17T13:11:00Z</time>
      </trkpt>
      <trkpt lat="42.6711140" lon="-8.6334440">
        <ele>117.0</ele>
        <time>2019-08-17T13:11:01Z</time>
      </trkpt>
      <trkpt lat="42.6712160" lon="-8.6334320">
        <ele>116.6</ele>
        <time>2019-08-17T13:11:02Z</time>
      </trkpt>
      <trkpt lat="42.6713120" lon="-8.6334130">
        <ele>116.1</ele>
        <time>2019-08-17T13:11:03Z</time>
      </trkpt>
      <trkpt lat="42.6714200" lon="-8.6333900">
        <ele>115.6</ele>
        <time>2019-08-17T13:11:04Z</time>
      </trkpt>
      <trkpt lat="42.6715160" lon="-8.6333550">
        <ele>115.1</ele>
        <time>2019-08-17T13:11:05Z</time>
      </trkpt>
      <trkpt lat="42.6716100" lon="-8.6333160">
        <ele>114.8</ele>
        <time>2019-08-17T13:11:06Z</time>
      </trkpt>
      <trkpt lat="42.6717060" lon="-8.6332750">
        <ele>114.3</ele>
        <time>2019-08-17T13:11:07Z</time>
      </trkpt>
      <trkpt lat="42.6718020" lon="-8.6332350">
        <ele>114.0</ele>
        <time>2019-08-17T13:11:08Z</time>
      </trkpt>
      <trkpt lat="42.6718990" lon="-8.6332050">
        <ele>113.7</ele>
        <time>2019-08-17T13:11:09Z</time>
      </trkpt>
      <trkpt lat="42.6719950" lon="-8.6331820">
        <ele>113.5</ele>
        <time>2019-08-17T13:11:10Z</time>
      </trkpt>
      <trkpt lat="42.6720910" lon="-8.6331620">
        <ele>113.4</ele>
        <time>2019-08-17T13:11:11Z</time>
      </trkpt>
      <trkpt lat="42.6721840" lon="-8.6331330">
        <ele>113.5</ele>
        <time>2019-08-17T13:11:12Z</time>
      </trkpt>
      <trkpt lat="42.6722650" lon="-8.6330990">
        <ele>113.7</ele>
        <time>2019-08-17T13:11:13Z</time>
      </trkpt>
      <trkpt lat="42.6723380" lon="-8.6330610">
        <ele>114.0</ele>
        <time>2019-08-17T13:11:14Z</time>
      </trkpt>
      <trkpt lat="42.6724940" lon="-8.6330230">
        <ele>114.9</ele>
        <time>2019-08-17T13:11:16Z</time>
      </trkpt>
      <trkpt lat="42.6725670" lon="-8.6330220">
        <ele>115.4</ele>
        <time>2019-08-17T13:11:17Z</time>
      </trkpt>
      <trkpt lat="42.6726310" lon="-8.6330240">
        <ele>116.0</ele>
        <time>2019-08-17T13:11:18Z</time>
      </trkpt>
      <trkpt lat="42.6726940" lon="-8.6330200">
        <ele>116.5</ele>
        <time>2019-08-17T13:11:19Z</time>
      </trkpt>
      <trkpt lat="42.6727550" lon="-8.6330150">
        <ele>117.0</ele>
        <time>2019-08-17T13:11:20Z</time>
      </trkpt>
      <trkpt lat="42.6728200" lon="-8.6330180">
        <ele>117.6</ele>
        <time>2019-08-17T13:11:21Z</time>
      </trkpt>
      <trkpt lat="42.6728960" lon="-8.6330270">
        <ele>118.3</ele>
        <time>2019-08-17T13:11:22Z</time>
      </trkpt>
      <trkpt lat="42.6729680" lon="-8.6330490">
        <ele>118.9</ele>
        <time>2019-08-17T13:11:23Z</time>
      </trkpt>
      <trkpt lat="42.6730310" lon="-8.6330770">
        <ele>119.3</ele>
        <time>2019-08-17T13:11:24Z</time>
      </trkpt>
      <trkpt lat="42.6730900" lon="-8.6331080">
        <ele>119.7</ele>
        <time>2019-08-17T13:11:25Z</time>
      </trkpt>
      <trkpt lat="42.6733180" lon="-8.6332120">
        <ele>120.6</ele>
        <time>2019-08-17T13:11:30Z</time>
      </trkpt>
      <trkpt lat="42.6735290" lon="-8.6332200">
        <ele>121.1</ele>
        <time>2019-08-17T13:11:36Z</time>
      </trkpt>
      <trkpt lat="42.6736570" lon="-8.6332280">
        <ele>121.4</ele>
        <time>2019-08-17T13:11:40Z</time>
      </trkpt>
      <trkpt lat="42.6736920" lon="-8.6332270">
        <ele>121.5</ele>
        <time>2019-08-17T13:11:41Z</time>
      </trkpt>
      <trkpt lat="42.6737250" lon="-8.6332300">
        <ele>121.6</ele>
        <time>2019-08-17T13:11:42Z</time>
      </trkpt>
      <trkpt lat="42.6737530" lon="-8.6332290">
        <ele>121.7</ele>
        <time>2019-08-17T13:11:43Z</time>
      </trkpt>
      <trkpt lat="42.6737800" lon="-8.6332310">
        <ele>121.8</ele>
        <time>2019-08-17T13:11:44Z</time>
      </trkpt>
      <trkpt lat="42.6739190" lon="-8.6332460">
        <ele>122.2</ele>
        <time>2019-08-17T13:11:49Z</time>
      </trkpt>
      <trkpt lat="42.6740960" lon="-8.6332580">
        <ele>122.8</ele>
        <time>2019-08-17T13:11:56Z</time>
      </trkpt>
      <trkpt lat="42.6742080" lon="-8.6332700">
        <ele>123.3</ele>
        <time>2019-08-17T13:12:00Z</time>
      </trkpt>
      <trkpt lat="42.6743110" lon="-8.6332930">
        <ele>123.9</ele>
        <time>2019-08-17T13:12:03Z</time>
      </trkpt>
      <trkpt lat="42.6744610" lon="-8.6332960">
        <ele>124.5</ele>
        <time>2019-08-17T13:12:09Z</time>
      </trkpt>
      <trkpt lat="42.6744850" lon="-8.6333010">
        <ele>124.6</ele>
        <time>2019-08-17T13:12:10Z</time>
      </trkpt>
      <trkpt lat="42.6745160" lon="-8.6333110">
        <ele>124.7</ele>
        <time>2019-08-17T13:12:11Z</time>
      </trkpt>
      <trkpt lat="42.6745420" lon="-8.6333240">
        <ele>124.8</ele>
        <time>2019-08-17T13:12:12Z</time>
      </trkpt>
      <trkpt lat="42.6745630" lon="-8.6333420">
        <ele>124.9</ele>
        <time>2019-08-17T13:12:13Z</time>
      </trkpt>
      <trkpt lat="42.6745890" lon="-8.6333550">
        <ele>125.1</ele>
        <time>2019-08-17T13:12:14Z</time>
      </trkpt>
      <trkpt lat="42.6746390" lon="-8.6334030">
        <ele>125.4</ele>
        <time>2019-08-17T13:12:16Z</time>
      </trkpt>
      <trkpt lat="42.6747310" lon="-8.6335140">
        <ele>126.3</ele>
        <time>2019-08-17T13:12:21Z</time>
      </trkpt>
      <trkpt lat="42.6747450" lon="-8.6335350">
        <ele>126.3</ele>
        <time>2019-08-17T13:12:22Z</time>
      </trkpt>
      <trkpt lat="42.6747560" lon="-8.6335610">
        <ele>126.4</ele>
        <time>2019-08-17T13:12:23Z</time>
      </trkpt>
      <trkpt lat="42.6747670" lon="-8.6335970">
        <ele>126.5</ele>
        <time>2019-08-17T13:12:24Z</time>
      </trkpt>
      <trkpt lat="42.6747720" lon="-8.6336270">
        <ele>126.6</ele>
        <time>2019-08-17T13:12:25Z</time>
      </trkpt>
      <trkpt lat="42.6748050" lon="-8.6338080">
        <ele>127.1</ele>
        <time>2019-08-17T13:12:30Z</time>
      </trkpt>
      <trkpt lat="42.6748140" lon="-8.6340650">
        <ele>127.8</ele>
        <time>2019-08-17T13:12:35Z</time>
      </trkpt>
      <trkpt lat="42.6748180" lon="-8.6341130">
        <ele>128.0</ele>
        <time>2019-08-17T13:12:36Z</time>
      </trkpt>
      <trkpt lat="42.6748220" lon="-8.6341610">
        <ele>128.1</ele>
        <time>2019-08-17T13:12:37Z</time>
      </trkpt>
      <trkpt lat="42.6748340" lon="-8.6341980">
        <ele>128.2</ele>
        <time>2019-08-17T13:12:38Z</time>
      </trkpt>
      <trkpt lat="42.6748410" lon="-8.6342230">
        <ele>128.3</ele>
        <time>2019-08-17T13:12:39Z</time>
      </trkpt>
      <trkpt lat="42.6748570" lon="-8.6344540">
        <ele>129.2</ele>
        <time>2019-08-17T13:12:45Z</time>
      </trkpt>
      <trkpt lat="42.6748870" lon="-8.6346480">
        <ele>130.0</ele>
        <time>2019-08-17T13:12:51Z</time>
      </trkpt>
      <trkpt lat="42.6749120" lon="-8.6348100">
        <ele>130.5</ele>
        <time>2019-08-17T13:12:57Z</time>
      </trkpt>
      <trkpt lat="42.6749280" lon="-8.6349060">
        <ele>130.7</ele>
        <time>2019-08-17T13:13:02Z</time>
      </trkpt>
      <trkpt lat="42.6749300" lon="-8.6349310">
        <ele>130.8</ele>
        <time>2019-08-17T13:13:03Z</time>
      </trkpt>
      <trkpt lat="42.6749360" lon="-8.6349470">
        <ele>130.9</ele>
        <time>2019-08-17T13:13:04Z</time>
      </trkpt>
      <trkpt lat="42.6749420" lon="-8.6349730">
        <ele>130.9</ele>
        <time>2019-08-17T13:13:05Z</time>
      </trkpt>
      <trkpt lat="42.6749430" lon="-8.6350030">
        <ele>131.0</ele>
        <time>2019-08-17T13:13:06Z</time>
      </trkpt>
      <trkpt lat="42.6749610" lon="-8.6350780">
        <ele>131.2</ele>
        <time>2019-08-17T13:13:11Z</time>
      </trkpt>
      <trkpt lat="42.6749770" lon="-8.6351750">
        <ele>131.5</ele>
        <time>2019-08-17T13:13:18Z</time>
      </trkpt>
      <trkpt lat="42.6749770" lon="-8.6352290">
        <ele>131.7</ele>
        <time>2019-08-17T13:13:21Z</time>
      </trkpt>
      <trkpt lat="42.6750370" lon="-8.6353430">
        <ele>132.0</ele>
        <time>2019-08-17T13:13:26Z</time>
      </trkpt>
      <trkpt lat="42.6750690" lon="-8.6355850">
        <ele>132.5</ele>
        <time>2019-08-17T13:13:32Z</time>
      </trkpt>
      <trkpt lat="42.6751920" lon="-8.6358410">
        <ele>133.2</ele>
        <time>2019-08-17T13:13:39Z</time>
      </trkpt>
      <trkpt lat="42.6752210" lon="-8.6362110">
        <ele>133.8</ele>
        <time>2019-08-17T13:13:45Z</time>
      </trkpt>
      <trkpt lat="42.6752310" lon="-8.6362680">
        <ele>133.9</ele>
        <time>2019-08-17T13:13:46Z</time>
      </trkpt>
      <trkpt lat="42.6752390" lon="-8.6363260">
        <ele>134.0</ele>
        <time>2019-08-17T13:13:47Z</time>
      </trkpt>
      <trkpt lat="42.6752600" lon="-8.6363670">
        <ele>134.1</ele>
        <time>2019-08-17T13:13:48Z</time>
      </trkpt>
      <trkpt lat="42.6752750" lon="-8.6364100">
        <ele>134.2</ele>
        <time>2019-08-17T13:13:49Z</time>
      </trkpt>
      <trkpt lat="42.6752900" lon="-8.6364480">
        <ele>134.3</ele>
        <time>2019-08-17T13:13:50Z</time>
      </trkpt>
      <trkpt lat="42.6753990" lon="-8.6367650">
        <ele>134.8</ele>
        <time>2019-08-17T13:13:58Z</time>
      </trkpt>
      <trkpt lat="42.6754950" lon="-8.6370680">
        <ele>135.4</ele>
        <time>2019-08-17T13:14:06Z</time>
      </trkpt>
      <trkpt lat="42.6756870" lon="-8.6373530">
        <ele>135.8</ele>
        <time>2019-08-17T13:14:13Z</time>
      </trkpt>
      <trkpt lat="42.6759090" lon="-8.6375750">
        <ele>136.2</ele>
        <time>2019-08-17T13:14:21Z</time>
      </trkpt>
      <trkpt lat="42.6760840" lon="-8.6378070">
        <ele>136.4</ele>
        <time>2019-08-17T13:14:28Z</time>
      </trkpt>
      <trkpt lat="42.6761380" lon="-8.6379810">
        <ele>136.6</ele>
        <time>2019-08-17T13:14:30Z</time>
      </trkpt>
      <trkpt lat="42.6762080" lon="-8.6381760">
        <ele>136.7</ele>
        <time>2019-08-17T13:14:33Z</time>
      </trkpt>
      <trkpt lat="42.6763200" lon="-8.6384970">
        <ele>137.0</ele>
        <time>2019-08-17T13:14:40Z</time>
      </trkpt>
      <trkpt lat="42.6764660" lon="-8.6386550">
        <ele>136.7</ele>
        <time>2019-08-17T13:14:47Z</time>
      </trkpt>
      <trkpt lat="42.6765100" lon="-8.6386260">
        <ele>136.7</ele>
        <time>2019-08-17T13:14:48Z</time>
      </trkpt>
      <trkpt lat="42.6765470" lon="-8.6386280">
        <ele>136.7</ele>
        <time>2019-08-17T13:14:49Z</time>
      </trkpt>
      <trkpt lat="42.6768010" lon="-8.6384440">
        <ele>136.8</ele>
        <time>2019-08-17T13:14:56Z</time>
      </trkpt>
      <trkpt lat="42.6768590" lon="-8.6383320">
        <ele>136.8</ele>
        <time>2019-08-17T13:14:58Z</time>
      </trkpt>
      <trkpt lat="42.6769150" lon="-8.6382370">
        <ele>136.7</ele>
        <time>2019-08-17T13:15:00Z</time>
      </trkpt>
      <trkpt lat="42.6769350" lon="-8.6381820">
        <ele>136.7</ele>
        <time>2019-08-17T13:15:01Z</time>
      </trkpt>
      <trkpt lat="42.6769760" lon="-8.6379840">
        <ele>136.4</ele>
        <time>2019-08-17T13:15:04Z</time>
      </trkpt>
      <trkpt lat="42.6769940" lon="-8.6378370">
        <ele>135.9</ele>
        <time>2019-08-17T13:15:06Z</time>
      </trkpt>
      <trkpt lat="42.6770060" lon="-8.6377600">
        <ele>135.6</ele>
        <time>2019-08-17T13:15:07Z</time>
      </trkpt>
      <trkpt lat="42.6770310" lon="-8.6376860">
        <ele>135.2</ele>
        <time>2019-08-17T13:15:08Z</time>
      </trkpt>
      <trkpt lat="42.6770550" lon="-8.6376130">
        <ele>134.7</ele>
        <time>2019-08-17T13:15:09Z</time>
      </trkpt>
      <trkpt lat="42.6770800" lon="-8.6375510">
        <ele>134.2</ele>
        <time>2019-08-17T13:15:10Z</time>
      </trkpt>
      <trkpt lat="42.6771060" lon="-8.6374880">
        <ele>133.6</ele>
        <time>2019-08-17T13:15:11Z</time>
      </trkpt>
      <trkpt lat="42.6771260" lon="-8.6374280">
        <ele>133.0</ele>
        <time>2019-08-17T13:15:12Z</time>
      </trkpt>
      <trkpt lat="42.6771550" lon="-8.6373690">
        <ele>132.4</ele>
        <time>2019-08-17T13:15:13Z</time>
      </trkpt>
      <trkpt lat="42.6771840" lon="-8.6373150">
        <ele>131.9</ele>
        <time>2019-08-17T13:15:14Z</time>
      </trkpt>
      <trkpt lat="42.6772050" lon="-8.6372580">
        <ele>131.2</ele>
        <time>2019-08-17T13:15:15Z</time>
      </trkpt>
      <trkpt lat="42.6772400" lon="-8.6372100">
        <ele>130.4</ele>
        <time>2019-08-17T13:15:16Z</time>
      </trkpt>
      <trkpt lat="42.6772880" lon="-8.6371620">
        <ele>129.2</ele>
        <time>2019-08-17T13:15:17Z</time>
      </trkpt>
      <trkpt lat="42.6773400" lon="-8.6371250">
        <ele>128.2</ele>
        <time>2019-08-17T13:15:18Z</time>
      </trkpt>
      <trkpt lat="42.6773900" lon="-8.6371020">
        <ele>127.3</ele>
        <time>2019-08-17T13:15:19Z</time>
      </trkpt>
      <trkpt lat="42.6774420" lon="-8.6370860">
        <ele>126.5</ele>
        <time>2019-08-17T13:15:20Z</time>
      </trkpt>
      <trkpt lat="42.6774940" lon="-8.6370790">
        <ele>125.6</ele>
        <time>2019-08-17T13:15:21Z</time>
      </trkpt>
      <trkpt lat="42.6775470" lon="-8.6370810">
        <ele>124.7</ele>
        <time>2019-08-17T13:15:22Z</time>
      </trkpt>
      <trkpt lat="42.6776090" lon="-8.6370920">
        <ele>123.6</ele>
        <time>2019-08-17T13:15:23Z</time>
      </trkpt>
      <trkpt lat="42.6776690" lon="-8.6371000">
        <ele>122.6</ele>
        <time>2019-08-17T13:15:24Z</time>
      </trkpt>
      <trkpt lat="42.6777240" lon="-8.6370980">
        <ele>121.8</ele>
        <time>2019-08-17T13:15:25Z</time>
      </trkpt>
      <trkpt lat="42.6778020" lon="-8.6370950">
        <ele>120.7</ele>
        <time>2019-08-17T13:15:26Z</time>
      </trkpt>
      <trkpt lat="42.6778670" lon="-8.6370840">
        <ele>119.8</ele>
        <time>2019-08-17T13:15:27Z</time>
      </trkpt>
      <trkpt lat="42.6779240" lon="-8.6370690">
        <ele>119.2</ele>
        <time>2019-08-17T13:15:28Z</time>
      </trkpt>
      <trkpt lat="42.6779800" lon="-8.6370400">
        <ele>118.7</ele>
        <time>2019-08-17T13:15:29Z</time>
      </trkpt>
      <trkpt lat="42.6780440" lon="-8.6370130">
        <ele>118.2</ele>
        <time>2019-08-17T13:15:30Z</time>
      </trkpt>
      <trkpt lat="42.6781090" lon="-8.6369880">
        <ele>117.5</ele>
        <time>2019-08-17T13:15:31Z</time>
      </trkpt>
      <trkpt lat="42.6781810" lon="-8.6369610">
        <ele>116.9</ele>
        <time>2019-08-17T13:15:32Z</time>
      </trkpt>
      <trkpt lat="42.6782540" lon="-8.6369420">
        <ele>116.1</ele>
        <time>2019-08-17T13:15:33Z</time>
      </trkpt>
      <trkpt lat="42.6783240" lon="-8.6369280">
        <ele>115.2</ele>
        <time>2019-08-17T13:15:34Z</time>
      </trkpt>
      <trkpt lat="42.6783880" lon="-8.6369190">
        <ele>114.6</ele>
        <time>2019-08-17T13:15:35Z</time>
      </trkpt>
      <trkpt lat="42.6784610" lon="-8.6369340">
        <ele>113.6</ele>
        <time>2019-08-17T13:15:36Z</time>
      </trkpt>
      <trkpt lat="42.6785270" lon="-8.6369570">
        <ele>112.8</ele>
        <time>2019-08-17T13:15:37Z</time>
      </trkpt>
      <trkpt lat="42.6785910" lon="-8.6369830">
        <ele>112.1</ele>
        <time>2019-08-17T13:15:38Z</time>
      </trkpt>
      <trkpt lat="42.6786520" lon="-8.6370250">
        <ele>111.4</ele>
        <time>2019-08-17T13:15:39Z</time>
      </trkpt>
      <trkpt lat="42.6787140" lon="-8.6370880">
        <ele>110.7</ele>
        <time>2019-08-17T13:15:40Z</time>
      </trkpt>
      <trkpt lat="42.6787650" lon="-8.6371490">
        <ele>110.0</ele>
        <time>2019-08-17T13:15:41Z</time>
      </trkpt>
      <trkpt lat="42.6788140" lon="-8.6372080">
        <ele>109.3</ele>
        <time>2019-08-17T13:15:42Z</time>
      </trkpt>
      <trkpt lat="42.6788420" lon="-8.6372800">
        <ele>108.6</ele>
        <time>2019-08-17T13:15:43Z</time>
      </trkpt>
      <trkpt lat="42.6788730" lon="-8.6373380">
        <ele>108.1</ele>
        <time>2019-08-17T13:15:44Z</time>
      </trkpt>
      <trkpt lat="42.6789000" lon="-8.6373790">
        <ele>107.8</ele>
        <time>2019-08-17T13:15:45Z</time>
      </trkpt>
      <trkpt lat="42.6789240" lon="-8.6374080">
        <ele>107.4</ele>
        <time>2019-08-17T13:15:46Z</time>
      </trkpt>
      <trkpt lat="42.6789670" lon="-8.6373910">
        <ele>107.1</ele>
        <time>2019-08-17T13:15:47Z</time>
      </trkpt>
      <trkpt lat="42.6789980" lon="-8.6373780">
        <ele>106.9</ele>
        <time>2019-08-17T13:15:48Z</time>
      </trkpt>
      <trkpt lat="42.6790250" lon="-8.6373410">
        <ele>106.7</ele>
        <time>2019-08-17T13:15:49Z</time>
      </trkpt>
      <trkpt lat="42.6790380" lon="-8.6372980">
        <ele>106.5</ele>
        <time>2019-08-17T13:15:50Z</time>
      </trkpt>
      <trkpt lat="42.6790440" lon="-8.6372580">
        <ele>106.4</ele>
        <time>2019-08-17T13:15:51Z</time>
      </trkpt>
      <trkpt lat="42.6790560" lon="-8.6372170">
        <ele>106.2</ele>
        <time>2019-08-17T13:15:52Z</time>
      </trkpt>
      <trkpt lat="42.6790590" lon="-8.6371740">
        <ele>105.9</ele>
        <time>2019-08-17T13:15:53Z</time>
      </trkpt>
      <trkpt lat="42.6790840" lon="-8.6371590">
        <ele>105.6</ele>
        <time>2019-08-17T13:15:54Z</time>
      </trkpt>
      <trkpt lat="42.6791090" lon="-8.6371590">
        <ele>105.4</ele>
        <time>2019-08-17T13:15:55Z</time>
      </trkpt>
      <trkpt lat="42.6791280" lon="-8.6371680">
        <ele>105.1</ele>
        <time>2019-08-17T13:15:56Z</time>
      </trkpt>
      <trkpt lat="42.6791490" lon="-8.6371990">
        <ele>104.6</ele>
        <time>2019-08-17T13:15:57Z</time>
      </trkpt>
      <trkpt lat="42.6791640" lon="-8.6372360">
        <ele>104.1</ele>
        <time>2019-08-17T13:15:58Z</time>
      </trkpt>
      <trkpt lat="42.6791790" lon="-8.6372740">
        <ele>103.5</ele>
        <time>2019-08-17T13:15:59Z</time>
      </trkpt>
      <trkpt lat="42.6791960" lon="-8.6373150">
        <ele>102.9</ele>
        <time>2019-08-17T13:16:00Z</time>
      </trkpt>
      <trkpt lat="42.6792200" lon="-8.6373370">
        <ele>102.4</ele>
        <time>2019-08-17T13:16:01Z</time>
      </trkpt>
      <trkpt lat="42.6792530" lon="-8.6373100">
        <ele>101.8</ele>
        <time>2019-08-17T13:16:02Z</time>
      </trkpt>
      <trkpt lat="42.6792870" lon="-8.6372860">
        <ele>101.1</ele>
        <time>2019-08-17T13:16:03Z</time>
      </trkpt>
      <trkpt lat="42.6793230" lon="-8.6372520">
        <ele>100.4</ele>
        <time>2019-08-17T13:16:04Z</time>
      </trkpt>
      <trkpt lat="42.6793580" lon="-8.6372090">
        <ele>99.8</ele>
        <time>2019-08-17T13:16:05Z</time>
      </trkpt>
      <trkpt lat="42.6793990" lon="-8.6371600">
        <ele>99.0</ele>
        <time>2019-08-17T13:16:06Z</time>
      </trkpt>
      <trkpt lat="42.6794330" lon="-8.6371110">
        <ele>98.1</ele>
        <time>2019-08-17T13:16:07Z</time>
      </trkpt>
      <trkpt lat="42.6794690" lon="-8.6370610">
        <ele>97.3</ele>
        <time>2019-08-17T13:16:08Z</time>
      </trkpt>
      <trkpt lat="42.6795090" lon="-8.6370090">
        <ele>96.3</ele>
        <time>2019-08-17T13:16:09Z</time>
      </trkpt>
      <trkpt lat="42.6795600" lon="-8.6369770">
        <ele>95.3</ele>
        <time>2019-08-17T13:16:10Z</time>
      </trkpt>
      <trkpt lat="42.6796300" lon="-8.6369490">
        <ele>94.1</ele>
        <time>2019-08-17T13:16:11Z</time>
      </trkpt>
      <trkpt lat="42.6796860" lon="-8.6369200">
        <ele>93.2</ele>
        <time>2019-08-17T13:16:12Z</time>
      </trkpt>
      <trkpt lat="42.6797440" lon="-8.6368960">
        <ele>92.4</ele>
        <time>2019-08-17T13:16:13Z</time>
      </trkpt>
      <trkpt lat="42.6797990" lon="-8.6368640">
        <ele>91.8</ele>
        <time>2019-08-17T13:16:14Z</time>
      </trkpt>
      <trkpt lat="42.6798550" lon="-8.6368310">
        <ele>91.3</ele>
        <time>2019-08-17T13:16:15Z</time>
      </trkpt>
      <trkpt lat="42.6799110" lon="-8.6367960">
        <ele>90.9</ele>
        <time>2019-08-17T13:16:16Z</time>
      </trkpt>
      <trkpt lat="42.6799620" lon="-8.6367560">
        <ele>90.7</ele>
        <time>2019-08-17T13:16:17Z</time>
      </trkpt>
      <trkpt lat="42.6800170" lon="-8.6367130">
        <ele>90.4</ele>
        <time>2019-08-17T13:16:18Z</time>
      </trkpt>
      <trkpt lat="42.6800680" lon="-8.6366630">
        <ele>90.1</ele>
        <time>2019-08-17T13:16:19Z</time>
      </trkpt>
      <trkpt lat="42.6801170" lon="-8.6366010">
        <ele>89.9</ele>
        <time>2019-08-17T13:16:20Z</time>
      </trkpt>
      <trkpt lat="42.6801690" lon="-8.6365410">
        <ele>89.6</ele>
        <time>2019-08-17T13:16:21Z</time>
      </trkpt>
      <trkpt lat="42.6802210" lon="-8.6364820">
        <ele>89.4</ele>
        <time>2019-08-17T13:16:22Z</time>
      </trkpt>
      <trkpt lat="42.6802620" lon="-8.6364240">
        <ele>89.1</ele>
        <time>2019-08-17T13:16:23Z</time>
      </trkpt>
      <trkpt lat="42.6803100" lon="-8.6363690">
        <ele>88.8</ele>
        <time>2019-08-17T13:16:24Z</time>
      </trkpt>
      <trkpt lat="42.6803940" lon="-8.6362740">
        <ele>88.2</ele>
        <time>2019-08-17T13:16:26Z</time>
      </trkpt>
      <trkpt lat="42.6804450" lon="-8.6362300">
        <ele>87.8</ele>
        <time>2019-08-17T13:16:27Z</time>
      </trkpt>
      <trkpt lat="42.6804930" lon="-8.6361960">
        <ele>87.3</ele>
        <time>2019-08-17T13:16:28Z</time>
      </trkpt>
      <trkpt lat="42.6805410" lon="-8.6361530">
        <ele>86.6</ele>
        <time>2019-08-17T13:16:29Z</time>
      </trkpt>
      <trkpt lat="42.6806040" lon="-8.6361070">
        <ele>85.6</ele>
        <time>2019-08-17T13:16:30Z</time>
      </trkpt>
      <trkpt lat="42.6806660" lon="-8.6360790">
        <ele>84.7</ele>
        <time>2019-08-17T13:16:31Z</time>
      </trkpt>
      <trkpt lat="42.6807270" lon="-8.6360710">
        <ele>84.0</ele>
        <time>2019-08-17T13:16:32Z</time>
      </trkpt>
      <trkpt lat="42.6808000" lon="-8.6360780">
        <ele>83.4</ele>
        <time>2019-08-17T13:16:33Z</time>
      </trkpt>
      <trkpt lat="42.6808870" lon="-8.6361130">
        <ele>83.2</ele>
        <time>2019-08-17T13:16:34Z</time>
      </trkpt>
      <trkpt lat="42.6809670" lon="-8.6361400">
        <ele>83.3</ele>
        <time>2019-08-17T13:16:35Z</time>
      </trkpt>
      <trkpt lat="42.6810420" lon="-8.6361580">
        <ele>83.7</ele>
        <time>2019-08-17T13:16:36Z</time>
      </trkpt>
      <trkpt lat="42.6812160" lon="-8.6362540">
        <ele>85.4</ele>
        <time>2019-08-17T13:16:40Z</time>
      </trkpt>
      <trkpt lat="42.6813600" lon="-8.6363670">
        <ele>87.0</ele>
        <time>2019-08-17T13:16:45Z</time>
      </trkpt>
      <trkpt lat="42.6814180" lon="-8.6364040">
        <ele>87.5</ele>
        <time>2019-08-17T13:16:47Z</time>
      </trkpt>
      <trkpt lat="42.6814430" lon="-8.6364270">
        <ele>87.7</ele>
        <time>2019-08-17T13:16:48Z</time>
      </trkpt>
      <trkpt lat="42.6814640" lon="-8.6364560">
        <ele>88.0</ele>
        <time>2019-08-17T13:16:49Z</time>
      </trkpt>
      <trkpt lat="42.6814870" lon="-8.6364780">
        <ele>88.2</ele>
        <time>2019-08-17T13:16:50Z</time>
      </trkpt>
      <trkpt lat="42.6815110" lon="-8.6364930">
        <ele>88.4</ele>
        <time>2019-08-17T13:16:51Z</time>
      </trkpt>
      <trkpt lat="42.6815340" lon="-8.6365110">
        <ele>88.7</ele>
        <time>2019-08-17T13:16:52Z</time>
      </trkpt>
      <trkpt lat="42.6815530" lon="-8.6365230">
        <ele>88.8</ele>
        <time>2019-08-17T13:16:53Z</time>
      </trkpt>
      <trkpt lat="42.6815730" lon="-8.6365430">
        <ele>89.0</ele>
        <time>2019-08-17T13:16:54Z</time>
      </trkpt>
      <trkpt lat="42.6816130" lon="-8.6365520">
        <ele>89.4</ele>
        <time>2019-08-17T13:16:55Z</time>
      </trkpt>
      <trkpt lat="42.6816320" lon="-8.6365540">
        <ele>89.5</ele>
        <time>2019-08-17T13:16:56Z</time>
      </trkpt>
      <trkpt lat="42.6816990" lon="-8.6365690">
        <ele>89.8</ele>
        <time>2019-08-17T13:16:58Z</time>
      </trkpt>
      <trkpt lat="42.6819060" lon="-8.6365710">
        <ele>90.3</ele>
        <time>2019-08-17T13:17:02Z</time>
      </trkpt>
      <trkpt lat="42.6820280" lon="-8.6366850">
        <ele>90.8</ele>
        <time>2019-08-17T13:17:06Z</time>
      </trkpt>
      <trkpt lat="42.6821110" lon="-8.6367830">
        <ele>91.5</ele>
        <time>2019-08-17T13:17:10Z</time>
      </trkpt>
      <trkpt lat="42.6821350" lon="-8.6368080">
        <ele>91.9</ele>
        <time>2019-08-17T13:17:11Z</time>
      </trkpt>
      <trkpt lat="42.6821590" lon="-8.6368280">
        <ele>92.2</ele>
        <time>2019-08-17T13:17:12Z</time>
      </trkpt>
      <trkpt lat="42.6821990" lon="-8.6368670">
        <ele>92.9</ele>
        <time>2019-08-17T13:17:13Z</time>
      </trkpt>
      <trkpt lat="42.6822380" lon="-8.6368990">
        <ele>93.6</ele>
        <time>2019-08-17T13:17:14Z</time>
      </trkpt>
      <trkpt lat="42.6822780" lon="-8.6369350">
        <ele>94.3</ele>
        <time>2019-08-17T13:17:15Z</time>
      </trkpt>
      <trkpt lat="42.6823140" lon="-8.6369640">
        <ele>95.0</ele>
        <time>2019-08-17T13:17:16Z</time>
      </trkpt>
      <trkpt lat="42.6823500" lon="-8.6370010">
        <ele>95.7</ele>
        <time>2019-08-17T13:17:17Z</time>
      </trkpt>
      <trkpt lat="42.6823910" lon="-8.6370170">
        <ele>96.3</ele>
        <time>2019-08-17T13:17:18Z</time>
      </trkpt>
      <trkpt lat="42.6824280" lon="-8.6370320">
        <ele>96.8</ele>
        <time>2019-08-17T13:17:19Z</time>
      </trkpt>
      <trkpt lat="42.6824540" lon="-8.6370560">
        <ele>97.2</ele>
        <time>2019-08-17T13:17:20Z</time>
      </trkpt>
      <trkpt lat="42.6824600" lon="-8.6370610">
        <ele>97.3</ele>
        <time>2019-08-17T13:17:21Z</time>
      </trkpt>
      <trkpt lat="42.6824850" lon="-8.6370700">
        <ele>97.6</ele>
        <time>2019-08-17T13:17:22Z</time>
      </trkpt>
      <trkpt lat="42.6825040" lon="-8.6370730">
        <ele>97.9</ele>
        <time>2019-08-17T13:17:23Z</time>
      </trkpt>
      <trkpt lat="42.6825190" lon="-8.6370630">
        <ele>98.1</ele>
        <time>2019-08-17T13:17:24Z</time>
      </trkpt>
      <trkpt lat="42.6826030" lon="-8.6370450">
        <ele>97.4</ele>
        <time>2019-08-17T13:17:26Z</time>
      </trkpt>
      <trkpt lat="42.6826960" lon="-8.6370590">
        <ele>96.2</ele>
        <time>2019-08-17T13:17:28Z</time>
      </trkpt>
      <trkpt lat="42.6828250" lon="-8.6370830">
        <ele>94.9</ele>
        <time>2019-08-17T13:17:30Z</time>
      </trkpt>
      <trkpt lat="42.6828790" lon="-8.6370960">
        <ele>94.3</ele>
        <time>2019-08-17T13:17:31Z</time>
      </trkpt>
      <trkpt lat="42.6829240" lon="-8.6371050">
        <ele>93.8</ele>
        <time>2019-08-17T13:17:32Z</time>
      </trkpt>
      <trkpt lat="42.6829670" lon="-8.6370940">
        <ele>93.2</ele>
        <time>2019-08-17T13:17:33Z</time>
      </trkpt>
      <trkpt lat="42.6830160" lon="-8.6370710">
        <ele>92.6</ele>
        <time>2019-08-17T13:17:34Z</time>
      </trkpt>
      <trkpt lat="42.6830520" lon="-8.6370540">
        <ele>92.1</ele>
        <time>2019-08-17T13:17:35Z</time>
      </trkpt>
      <trkpt lat="42.6830880" lon="-8.6370300">
        <ele>91.5</ele>
        <time>2019-08-17T13:17:36Z</time>
      </trkpt>
      <trkpt lat="42.6831220" lon="-8.6369910">
        <ele>90.7</ele>
        <time>2019-08-17T13:17:37Z</time>
      </trkpt>
      <trkpt lat="42.6831650" lon="-8.6369460">
        <ele>89.8</ele>
        <time>2019-08-17T13:17:38Z</time>
      </trkpt>
      <trkpt lat="42.6831980" lon="-8.6369040">
        <ele>89.1</ele>
        <time>2019-08-17T13:17:39Z</time>
      </trkpt>
      <trkpt lat="42.6832450" lon="-8.6368540">
        <ele>88.1</ele>
        <time>2019-08-17T13:17:40Z</time>
      </trkpt>
      <trkpt lat="42.6832990" lon="-8.6367970">
        <ele>86.9</ele>
        <time>2019-08-17T13:17:41Z</time>
      </trkpt>
      <trkpt lat="42.6833620" lon="-8.6367570">
        <ele>85.8</ele>
        <time>2019-08-17T13:17:42Z</time>
      </trkpt>
      <trkpt lat="42.6834190" lon="-8.6367300">
        <ele>84.7</ele>
        <time>2019-08-17T13:17:43Z</time>
      </trkpt>
      <trkpt lat="42.6834730" lon="-8.6367030">
        <ele>83.9</ele>
        <time>2019-08-17T13:17:44Z</time>
      </trkpt>
      <trkpt lat="42.6835330" lon="-8.6366780">
        <ele>83.1</ele>
        <time>2019-08-17T13:17:45Z</time>
      </trkpt>
      <trkpt lat="42.6835960" lon="-8.6366490">
        <ele>82.1</ele>
        <time>2019-08-17T13:17:46Z</time>
      </trkpt>
      <trkpt lat="42.6836620" lon="-8.6366260">
        <ele>81.0</ele>
        <time>2019-08-17T13:17:47Z</time>
      </trkpt>
      <trkpt lat="42.6837410" lon="-8.6366160">
        <ele>79.8</ele>
        <time>2019-08-17T13:17:48Z</time>
      </trkpt>
      <trkpt lat="42.6838290" lon="-8.6366140">
        <ele>78.6</ele>
        <time>2019-08-17T13:17:49Z</time>
      </trkpt>
      <trkpt lat="42.6838920" lon="-8.6366090">
        <ele>77.6</ele>
        <time>2019-08-17T13:17:50Z</time>
      </trkpt>
      <trkpt lat="42.6839650" lon="-8.6366070">
        <ele>76.6</ele>
        <time>2019-08-17T13:17:51Z</time>
      </trkpt>
      <trkpt lat="42.6840300" lon="-8.6366050">
        <ele>75.7</ele>
        <time>2019-08-17T13:17:52Z</time>
      </trkpt>
      <trkpt lat="42.6840920" lon="-8.6365880">
        <ele>74.9</ele>
        <time>2019-08-17T13:17:53Z</time>
      </trkpt>
      <trkpt lat="42.6841480" lon="-8.6365710">
        <ele>74.1</ele>
        <time>2019-08-17T13:17:54Z</time>
      </trkpt>
      <trkpt lat="42.6842170" lon="-8.6365570">
        <ele>73.4</ele>
        <time>2019-08-17T13:17:55Z</time>
      </trkpt>
      <trkpt lat="42.6842740" lon="-8.6365650">
        <ele>73.1</ele>
        <time>2019-08-17T13:17:56Z</time>
      </trkpt>
      <trkpt lat="42.6843560" lon="-8.6365860">
        <ele>73.3</ele>
        <time>2019-08-17T13:17:57Z</time>
      </trkpt>
      <trkpt lat="42.6844190" lon="-8.6365990">
        <ele>73.8</ele>
        <time>2019-08-17T13:17:58Z</time>
      </trkpt>
      <trkpt lat="42.6844540" lon="-8.6366140">
        <ele>74.2</ele>
        <time>2019-08-17T13:18:00Z</time>
      </trkpt>
      <trkpt lat="42.6845160" lon="-8.6366360">
        <ele>74.9</ele>
        <time>2019-08-17T13:18:02Z</time>
      </trkpt>
      <trkpt lat="42.6845490" lon="-8.6366400">
        <ele>75.3</ele>
        <time>2019-08-17T13:18:03Z</time>
      </trkpt>
      <trkpt lat="42.6845840" lon="-8.6366570">
        <ele>75.7</ele>
        <time>2019-08-17T13:18:04Z</time>
      </trkpt>
      <trkpt lat="42.6846080" lon="-8.6366790">
        <ele>76.0</ele>
        <time>2019-08-17T13:18:05Z</time>
      </trkpt>
      <trkpt lat="42.6846330" lon="-8.6366930">
        <ele>76.3</ele>
        <time>2019-08-17T13:18:06Z</time>
      </trkpt>
      <trkpt lat="42.6846640" lon="-8.6367090">
        <ele>76.7</ele>
        <time>2019-08-17T13:18:07Z</time>
      </trkpt>
      <trkpt lat="42.6846900" lon="-8.6367190">
        <ele>77.0</ele>
        <time>2019-08-17T13:18:08Z</time>
      </trkpt>
      <trkpt lat="42.6847200" lon="-8.6367350">
        <ele>77.3</ele>
        <time>2019-08-17T13:18:09Z</time>
      </trkpt>
      <trkpt lat="42.6847460" lon="-8.6367320">
        <ele>77.5</ele>
        <time>2019-08-17T13:18:10Z</time>
      </trkpt>
      <trkpt lat="42.6847720" lon="-8.6367470">
        <ele>77.7</ele>
        <time>2019-08-17T13:18:11Z</time>
      </trkpt>
      <trkpt lat="42.6847940" lon="-8.6367620">
        <ele>78.0</ele>
        <time>2019-08-17T13:18:12Z</time>
      </trkpt>
      <trkpt lat="42.6849600" lon="-8.6368300">
        <ele>79.3</ele>
        <time>2019-08-17T13:18:18Z</time>
      </trkpt>
      <trkpt lat="42.6849830" lon="-8.6368570">
        <ele>79.5</ele>
        <time>2019-08-17T13:18:19Z</time>
      </trkpt>
      <trkpt lat="42.6850050" lon="-8.6368640">
        <ele>79.6</ele>
        <time>2019-08-17T13:18:20Z</time>
      </trkpt>
      <trkpt lat="42.6850230" lon="-8.6368750">
        <ele>79.7</ele>
        <time>2019-08-17T13:18:21Z</time>
      </trkpt>
      <trkpt lat="42.6850520" lon="-8.6368930">
        <ele>79.8</ele>
        <time>2019-08-17T13:18:22Z</time>
      </trkpt>
      <trkpt lat="42.6851180" lon="-8.6369170">
        <ele>79.9</ele>
        <time>2019-08-17T13:18:25Z</time>
      </trkpt>
      <trkpt lat="42.6852310" lon="-8.6369150">
        <ele>80.0</ele>
        <time>2019-08-17T13:18:29Z</time>
      </trkpt>
      <trkpt lat="42.6853520" lon="-8.6370560">
        <ele>79.9</ele>
        <time>2019-08-17T13:18:35Z</time>
      </trkpt>
      <trkpt lat="42.6854390" lon="-8.6371550">
        <ele>79.9</ele>
        <time>2019-08-17T13:18:39Z</time>
      </trkpt>
      <trkpt lat="42.6854690" lon="-8.6371590">
        <ele>79.8</ele>
        <time>2019-08-17T13:18:40Z</time>
      </trkpt>
      <trkpt lat="42.6854940" lon="-8.6371410">
        <ele>79.8</ele>
        <time>2019-08-17T13:18:41Z</time>
      </trkpt>
      <trkpt lat="42.6855170" lon="-8.6370910">
        <ele>79.8</ele>
        <time>2019-08-17T13:18:43Z</time>
      </trkpt>
      <trkpt lat="42.6856610" lon="-8.6370850">
        <ele>80.1</ele>
        <time>2019-08-17T13:18:49Z</time>
      </trkpt>
      <trkpt lat="42.6858510" lon="-8.6371680">
        <ele>81.2</ele>
        <time>2019-08-17T13:18:56Z</time>
      </trkpt>
      <trkpt lat="42.6859080" lon="-8.6371800">
        <ele>81.6</ele>
        <time>2019-08-17T13:18:58Z</time>
      </trkpt>
      <trkpt lat="42.6859350" lon="-8.6371940">
        <ele>81.9</ele>
        <time>2019-08-17T13:18:59Z</time>
      </trkpt>
      <trkpt lat="42.6859600" lon="-8.6372150">
        <ele>82.1</ele>
        <time>2019-08-17T13:19:00Z</time>
      </trkpt>
      <trkpt lat="42.6859860" lon="-8.6372250">
        <ele>82.3</ele>
        <time>2019-08-17T13:19:01Z</time>
      </trkpt>
      <trkpt lat="42.6860090" lon="-8.6372360">
        <ele>82.5</ele>
        <time>2019-08-17T13:19:02Z</time>
      </trkpt>
      <trkpt lat="42.6860490" lon="-8.6372510">
        <ele>82.8</ele>
        <time>2019-08-17T13:19:04Z</time>
      </trkpt>
      <trkpt lat="42.6860580" lon="-8.6372660">
        <ele>83.0</ele>
        <time>2019-08-17T13:19:05Z</time>
      </trkpt>
      <trkpt lat="42.6860710" lon="-8.6372800">
        <ele>83.1</ele>
        <time>2019-08-17T13:19:06Z</time>
      </trkpt>
      <trkpt lat="42.6860880" lon="-8.6372850">
        <ele>83.3</ele>
        <time>2019-08-17T13:19:07Z</time>
      </trkpt>
      <trkpt lat="42.6861080" lon="-8.6372900">
        <ele>83.4</ele>
        <time>2019-08-17T13:19:08Z</time>
      </trkpt>
      <trkpt lat="42.6862060" lon="-8.6373490">
        <ele>84.4</ele>
        <time>2019-08-17T13:19:14Z</time>
      </trkpt>
      <trkpt lat="42.6862600" lon="-8.6373680">
        <ele>84.8</ele>
        <time>2019-08-17T13:19:17Z</time>
      </trkpt>
      <trkpt lat="42.6862870" lon="-8.6373910">
        <ele>85.0</ele>
        <time>2019-08-17T13:19:18Z</time>
      </trkpt>
      <trkpt lat="42.6863180" lon="-8.6374190">
        <ele>85.1</ele>
        <time>2019-08-17T13:19:19Z</time>
      </trkpt>
      <trkpt lat="42.6863480" lon="-8.6374390">
        <ele>85.2</ele>
        <time>2019-08-17T13:19:20Z</time>
      </trkpt>
      <trkpt lat="42.6863770" lon="-8.6374650">
        <ele>85.2</ele>
        <time>2019-08-17T13:19:21Z</time>
      </trkpt>
      <trkpt lat="42.6864030" lon="-8.6375160">
        <ele>85.1</ele>
        <time>2019-08-17T13:19:23Z</time>
      </trkpt>
      <trkpt lat="42.6864070" lon="-8.6375230">
        <ele>85.1</ele>
        <time>2019-08-17T13:19:24Z</time>
      </trkpt>
      <trkpt lat="42.6864290" lon="-8.6375590">
        <ele>85.0</ele>
        <time>2019-08-17T13:20:22Z</time>
      </trkpt>
      <trkpt lat="42.6864570" lon="-8.6375860">
        <ele>84.9</ele>
        <time>2019-08-17T13:20:23Z</time>
      </trkpt>
      <trkpt lat="42.6866180" lon="-8.6377480">
        <ele>83.4</ele>
        <time>2019-08-17T13:20:26Z</time>
      </trkpt>
      <trkpt lat="42.6866560" lon="-8.6377740">
        <ele>83.1</ele>
        <time>2019-08-17T13:20:27Z</time>
      </trkpt>
      <trkpt lat="42.6866960" lon="-8.6378020">
        <ele>82.7</ele>
        <time>2019-08-17T13:20:28Z</time>
      </trkpt>
      <trkpt lat="42.6867360" lon="-8.6377850">
        <ele>82.3</ele>
        <time>2019-08-17T13:20:29Z</time>
      </trkpt>
      <trkpt lat="42.6867630" lon="-8.6377750">
        <ele>82.0</ele>
        <time>2019-08-17T13:20:30Z</time>
      </trkpt>
      <trkpt lat="42.6868710" lon="-8.6376620">
        <ele>80.3</ele>
        <time>2019-08-17T13:20:35Z</time>
      </trkpt>
      <trkpt lat="42.6868970" lon="-8.6376230">
        <ele>79.9</ele>
        <time>2019-08-17T13:20:36Z</time>
      </trkpt>
      <trkpt lat="42.6869340" lon="-8.6375980">
        <ele>79.3</ele>
        <time>2019-08-17T13:20:37Z</time>
      </trkpt>
      <trkpt lat="42.6869770" lon="-8.6375860">
        <ele>78.7</ele>
        <time>2019-08-17T13:20:38Z</time>
      </trkpt>
      <trkpt lat="42.6870290" lon="-8.6375830">
        <ele>78.0</ele>
        <time>2019-08-17T13:20:39Z</time>
      </trkpt>
      <trkpt lat="42.6870940" lon="-8.6376060">
        <ele>77.3</ele>
        <time>2019-08-17T13:20:40Z</time>
      </trkpt>
      <trkpt lat="42.6871640" lon="-8.6376210">
        <ele>76.5</ele>
        <time>2019-08-17T13:20:41Z</time>
      </trkpt>
      <trkpt lat="42.6872300" lon="-8.6376360">
        <ele>76.0</ele>
        <time>2019-08-17T13:20:42Z</time>
      </trkpt>
      <trkpt lat="42.6873010" lon="-8.6376370">
        <ele>75.5</ele>
        <time>2019-08-17T13:20:43Z</time>
      </trkpt>
      <trkpt lat="42.6873700" lon="-8.6376300">
        <ele>75.0</ele>
        <time>2019-08-17T13:20:44Z</time>
      </trkpt>
      <trkpt lat="42.6874660" lon="-8.6376190">
        <ele>74.5</ele>
        <time>2019-08-17T13:20:45Z</time>
      </trkpt>
      <trkpt lat="42.6875470" lon="-8.6376210">
        <ele>74.0</ele>
        <time>2019-08-17T13:20:46Z</time>
      </trkpt>
      <trkpt lat="42.6876230" lon="-8.6376200">
        <ele>73.8</ele>
        <time>2019-08-17T13:20:47Z</time>
      </trkpt>
      <trkpt lat="42.6877420" lon="-8.6376340">
        <ele>73.5</ele>
        <time>2019-08-17T13:20:49Z</time>
      </trkpt>
      <trkpt lat="42.6878810" lon="-8.6376840">
        <ele>73.2</ele>
        <time>2019-08-17T13:20:51Z</time>
      </trkpt>
      <trkpt lat="42.6879490" lon="-8.6377130">
        <ele>72.9</ele>
        <time>2019-08-17T13:20:52Z</time>
      </trkpt>
      <trkpt lat="42.6880060" lon="-8.6377560">
        <ele>72.5</ele>
        <time>2019-08-17T13:20:53Z</time>
      </trkpt>
      <trkpt lat="42.6880470" lon="-8.6378040">
        <ele>72.3</ele>
        <time>2019-08-17T13:20:54Z</time>
      </trkpt>
      <trkpt lat="42.6880900" lon="-8.6378380">
        <ele>72.1</ele>
        <time>2019-08-17T13:20:55Z</time>
      </trkpt>
      <trkpt lat="42.6881630" lon="-8.6380470">
        <ele>71.3</ele>
        <time>2019-08-17T13:20:57Z</time>
      </trkpt>
      <trkpt lat="42.6881870" lon="-8.6381140">
        <ele>70.9</ele>
        <time>2019-08-17T13:20:58Z</time>
      </trkpt>
      <trkpt lat="42.6883020" lon="-8.6383840">
        <ele>69.8</ele>
        <time>2019-08-17T13:21:03Z</time>
      </trkpt>
      <trkpt lat="42.6883260" lon="-8.6383690">
        <ele>69.6</ele>
        <time>2019-08-17T13:21:04Z</time>
      </trkpt>
      <trkpt lat="42.6883560" lon="-8.6383480">
        <ele>69.4</ele>
        <time>2019-08-17T13:21:05Z</time>
      </trkpt>
      <trkpt lat="42.6884050" lon="-8.6383190">
        <ele>69.1</ele>
        <time>2019-08-17T13:21:06Z</time>
      </trkpt>
      <trkpt lat="42.6884440" lon="-8.6382960">
        <ele>68.7</ele>
        <time>2019-08-17T13:21:07Z</time>
      </trkpt>
      <trkpt lat="42.6886030" lon="-8.6382090">
        <ele>66.9</ele>
        <time>2019-08-17T13:21:12Z</time>
      </trkpt>
      <trkpt lat="42.6887130" lon="-8.6381930">
        <ele>65.7</ele>
        <time>2019-08-17T13:21:15Z</time>
      </trkpt>
      <trkpt lat="42.6887530" lon="-8.6381670">
        <ele>65.2</ele>
        <time>2019-08-17T13:21:16Z</time>
      </trkpt>
      <trkpt lat="42.6888010" lon="-8.6381330">
        <ele>64.4</ele>
        <time>2019-08-17T13:21:17Z</time>
      </trkpt>
      <trkpt lat="42.6888320" lon="-8.6380970">
        <ele>63.9</ele>
        <time>2019-08-17T13:21:18Z</time>
      </trkpt>
      <trkpt lat="42.6888620" lon="-8.6380710">
        <ele>63.4</ele>
        <time>2019-08-17T13:21:19Z</time>
      </trkpt>
      <trkpt lat="42.6889050" lon="-8.6380430">
        <ele>62.8</ele>
        <time>2019-08-17T13:21:20Z</time>
      </trkpt>
      <trkpt lat="42.6889500" lon="-8.6380300">
        <ele>62.1</ele>
        <time>2019-08-17T13:21:21Z</time>
      </trkpt>
      <trkpt lat="42.6890020" lon="-8.6380480">
        <ele>61.5</ele>
        <time>2019-08-17T13:21:22Z</time>
      </trkpt>
      <trkpt lat="42.6890490" lon="-8.6380570">
        <ele>61.0</ele>
        <time>2019-08-17T13:21:23Z</time>
      </trkpt>
      <trkpt lat="42.6891080" lon="-8.6380870">
        <ele>60.4</ele>
        <time>2019-08-17T13:21:24Z</time>
      </trkpt>
      <trkpt lat="42.6891990" lon="-8.6381200">
        <ele>59.8</ele>
        <time>2019-08-17T13:21:25Z</time>
      </trkpt>
      <trkpt lat="42.6893030" lon="-8.6381820">
        <ele>59.1</ele>
        <time>2019-08-17T13:21:26Z</time>
      </trkpt>
      <trkpt lat="42.6893480" lon="-8.6382100">
        <ele>58.6</ele>
        <time>2019-08-17T13:21:27Z</time>
      </trkpt>
      <trkpt lat="42.6894600" lon="-8.6382940">
        <ele>57.3</ele>
        <time>2019-08-17T13:21:29Z</time>
      </trkpt>
      <trkpt lat="42.6895380" lon="-8.6383240">
        <ele>56.4</ele>
        <time>2019-08-17T13:21:31Z</time>
      </trkpt>
      <trkpt lat="42.6895850" lon="-8.6383440">
        <ele>56.0</ele>
        <time>2019-08-17T13:21:32Z</time>
      </trkpt>
      <trkpt lat="42.6896440" lon="-8.6383650">
        <ele>55.4</ele>
        <time>2019-08-17T13:21:33Z</time>
      </trkpt>
      <trkpt lat="42.6897130" lon="-8.6383810">
        <ele>54.6</ele>
        <time>2019-08-17T13:21:34Z</time>
      </trkpt>
      <trkpt lat="42.6897820" lon="-8.6383940">
        <ele>54.0</ele>
        <time>2019-08-17T13:21:35Z</time>
      </trkpt>
      <trkpt lat="42.6898500" lon="-8.6384060">
        <ele>53.5</ele>
        <time>2019-08-17T13:21:36Z</time>
      </trkpt>
      <trkpt lat="42.6899310" lon="-8.6384370">
        <ele>52.9</ele>
        <time>2019-08-17T13:21:37Z</time>
      </trkpt>
      <trkpt lat="42.6900020" lon="-8.6384990">
        <ele>52.5</ele>
        <time>2019-08-17T13:21:38Z</time>
      </trkpt>
      <trkpt lat="42.6900800" lon="-8.6385580">
        <ele>52.1</ele>
        <time>2019-08-17T13:21:39Z</time>
      </trkpt>
      <trkpt lat="42.6901390" lon="-8.6385990">
        <ele>51.8</ele>
        <time>2019-08-17T13:21:40Z</time>
      </trkpt>
      <trkpt lat="42.6901930" lon="-8.6386140">
        <ele>51.6</ele>
        <time>2019-08-17T13:21:41Z</time>
      </trkpt>
      <trkpt lat="42.6902350" lon="-8.6385980">
        <ele>51.4</ele>
        <time>2019-08-17T13:21:42Z</time>
      </trkpt>
      <trkpt lat="42.6904120" lon="-8.6385260">
        <ele>51.0</ele>
        <time>2019-08-17T13:21:45Z</time>
      </trkpt>
      <trkpt lat="42.6904860" lon="-8.6384030">
        <ele>50.8</ele>
        <time>2019-08-17T13:21:48Z</time>
      </trkpt>
      <trkpt lat="42.6905260" lon="-8.6382840">
        <ele>50.7</ele>
        <time>2019-08-17T13:21:50Z</time>
      </trkpt>
      <trkpt lat="42.6907810" lon="-8.6378490">
        <ele>50.4</ele>
        <time>2019-08-17T13:21:57Z</time>
      </trkpt>
      <trkpt lat="42.6909220" lon="-8.6376320">
        <ele>50.4</ele>
        <time>2019-08-17T13:22:01Z</time>
      </trkpt>
      <trkpt lat="42.6909960" lon="-8.6375580">
        <ele>50.6</ele>
        <time>2019-08-17T13:22:03Z</time>
      </trkpt>
      <trkpt lat="42.6911440" lon="-8.6375410">
        <ele>51.1</ele>
        <time>2019-08-17T13:22:06Z</time>
      </trkpt>
      <trkpt lat="42.6911940" lon="-8.6375440">
        <ele>51.3</ele>
        <time>2019-08-17T13:22:07Z</time>
      </trkpt>
      <trkpt lat="42.6912430" lon="-8.6375530">
        <ele>51.5</ele>
        <time>2019-08-17T13:22:08Z</time>
      </trkpt>
      <trkpt lat="42.6912900" lon="-8.6375580">
        <ele>51.6</ele>
        <time>2019-08-17T13:22:09Z</time>
      </trkpt>
      <trkpt lat="42.6913350" lon="-8.6375610">
        <ele>51.8</ele>
        <time>2019-08-17T13:22:10Z</time>
      </trkpt>
      <trkpt lat="42.6913730" lon="-8.6375640">
        <ele>51.9</ele>
        <time>2019-08-17T13:22:11Z</time>
      </trkpt>
      <trkpt lat="42.6914240" lon="-8.6375600">
        <ele>52.2</ele>
        <time>2019-08-17T13:22:12Z</time>
      </trkpt>
      <trkpt lat="42.6915890" lon="-8.6375300">
        <ele>52.9</ele>
        <time>2019-08-17T13:22:16Z</time>
      </trkpt>
      <trkpt lat="42.6916230" lon="-8.6375290">
        <ele>53.1</ele>
        <time>2019-08-17T13:22:17Z</time>
      </trkpt>
      <trkpt lat="42.6916580" lon="-8.6375290">
        <ele>53.2</ele>
        <time>2019-08-17T13:22:18Z</time>
      </trkpt>
      <trkpt lat="42.6916960" lon="-8.6375300">
        <ele>53.4</ele>
        <time>2019-08-17T13:22:19Z</time>
      </trkpt>
      <trkpt lat="42.6917340" lon="-8.6375220">
        <ele>53.6</ele>
        <time>2019-08-17T13:22:20Z</time>
      </trkpt>
      <trkpt lat="42.6919410" lon="-8.6374530">
        <ele>55.3</ele>
        <time>2019-08-17T13:22:26Z</time>
      </trkpt>
      <trkpt lat="42.6919680" lon="-8.6374450">
        <ele>55.5</ele>
        <time>2019-08-17T13:22:27Z</time>
      </trkpt>
      <trkpt lat="42.6919940" lon="-8.6374360">
        <ele>55.8</ele>
        <time>2019-08-17T13:22:28Z</time>
      </trkpt>
      <trkpt lat="42.6920190" lon="-8.6374230">
        <ele>55.8</ele>
        <time>2019-08-17T13:22:29Z</time>
      </trkpt>
      <trkpt lat="42.6920400" lon="-8.6374100">
        <ele>55.8</ele>
        <time>2019-08-17T13:22:30Z</time>
      </trkpt>
      <trkpt lat="42.6921320" lon="-8.6374170">
        <ele>55.6</ele>
        <time>2019-08-17T13:22:33Z</time>
      </trkpt>
      <trkpt lat="42.6923420" lon="-8.6374840">
        <ele>55.2</ele>
        <time>2019-08-17T13:22:39Z</time>
      </trkpt>
      <trkpt lat="42.6925830" lon="-8.6374540">
        <ele>54.7</ele>
        <time>2019-08-17T13:22:46Z</time>
      </trkpt>
      <trkpt lat="42.6927370" lon="-8.6375050">
        <ele>54.6</ele>
        <time>2019-08-17T13:22:50Z</time>
      </trkpt>
      <trkpt lat="42.6927720" lon="-8.6375500">
        <ele>54.7</ele>
        <time>2019-08-17T13:22:51Z</time>
      </trkpt>
      <trkpt lat="42.6928680" lon="-8.6376700">
        <ele>54.7</ele>
        <time>2019-08-17T13:22:54Z</time>
      </trkpt>
      <trkpt lat="42.6929930" lon="-8.6377360">
        <ele>54.9</ele>
        <time>2019-08-17T13:22:57Z</time>
      </trkpt>
      <trkpt lat="42.6931280" lon="-8.6377590">
        <ele>55.0</ele>
        <time>2019-08-17T13:23:00Z</time>
      </trkpt>
      <trkpt lat="42.6932140" lon="-8.6377900">
        <ele>55.2</ele>
        <time>2019-08-17T13:23:02Z</time>
      </trkpt>
      <trkpt lat="42.6933990" lon="-8.6378570">
        <ele>55.8</ele>
        <time>2019-08-17T13:23:07Z</time>
      </trkpt>
      <trkpt lat="42.6934340" lon="-8.6378670">
        <ele>56.0</ele>
        <time>2019-08-17T13:23:08Z</time>
      </trkpt>
      <trkpt lat="42.6934860" lon="-8.6378750">
        <ele>56.1</ele>
        <time>2019-08-17T13:23:10Z</time>
      </trkpt>
      <trkpt lat="42.6935190" lon="-8.6378650">
        <ele>56.2</ele>
        <time>2019-08-17T13:23:11Z</time>
      </trkpt>
      <trkpt lat="42.6935600" lon="-8.6378730">
        <ele>56.3</ele>
        <time>2019-08-17T13:23:12Z</time>
      </trkpt>
      <trkpt lat="42.6936050" lon="-8.6378850">
        <ele>56.4</ele>
        <time>2019-08-17T13:23:13Z</time>
      </trkpt>
      <trkpt lat="42.6936500" lon="-8.6378990">
        <ele>56.5</ele>
        <time>2019-08-17T13:23:14Z</time>
      </trkpt>
      <trkpt lat="42.6940040" lon="-8.6380580">
        <ele>57.7</ele>
        <time>2019-08-17T13:23:23Z</time>
      </trkpt>
      <trkpt lat="42.6940370" lon="-8.6380740">
        <ele>57.8</ele>
        <time>2019-08-17T13:23:24Z</time>
      </trkpt>
      <trkpt lat="42.6940720" lon="-8.6380780">
        <ele>57.9</ele>
        <time>2019-08-17T13:23:25Z</time>
      </trkpt>
      <trkpt lat="42.6941070" lon="-8.6380800">
        <ele>58.1</ele>
        <time>2019-08-17T13:23:26Z</time>
      </trkpt>
      <trkpt lat="42.6941430" lon="-8.6380850">
        <ele>58.1</ele>
        <time>2019-08-17T13:23:27Z</time>
      </trkpt>
      <trkpt lat="42.6942670" lon="-8.6381130">
        <ele>58.3</ele>
        <time>2019-08-17T13:23:30Z</time>
      </trkpt>
      <trkpt lat="42.6944120" lon="-8.6381390">
        <ele>58.5</ele>
        <time>2019-08-17T13:23:33Z</time>
      </trkpt>
      <trkpt lat="42.6946710" lon="-8.6381800">
        <ele>59.0</ele>
        <time>2019-08-17T13:23:38Z</time>
      </trkpt>
      <trkpt lat="42.6947170" lon="-8.6381790">
        <ele>59.1</ele>
        <time>2019-08-17T13:23:39Z</time>
      </trkpt>
      <trkpt lat="42.6948220" lon="-8.6381790">
        <ele>59.3</ele>
        <time>2019-08-17T13:23:42Z</time>
      </trkpt>
      <trkpt lat="42.6950890" lon="-8.6382050">
        <ele>60.2</ele>
        <time>2019-08-17T13:23:49Z</time>
      </trkpt>
      <trkpt lat="42.6954880" lon="-8.6382660">
        <ele>62.5</ele>
        <time>2019-08-17T13:23:58Z</time>
      </trkpt>
      <trkpt lat="42.6958030" lon="-8.6383990">
        <ele>67.4</ele>
        <time>2019-08-17T13:24:05Z</time>
      </trkpt>
      <trkpt lat="42.6959550" lon="-8.6386170">
        <ele>67.5</ele>
        <time>2019-08-17T13:24:10Z</time>
      </trkpt>
      <trkpt lat="42.6959760" lon="-8.6386640">
        <ele>67.6</ele>
        <time>2019-08-17T13:24:11Z</time>
      </trkpt>
      <trkpt lat="42.6960210" lon="-8.6387530">
        <ele>67.7</ele>
        <time>2019-08-17T13:24:13Z</time>
      </trkpt>
      <trkpt lat="42.6960470" lon="-8.6388030">
        <ele>67.9</ele>
        <time>2019-08-17T13:24:14Z</time>
      </trkpt>
      <trkpt lat="42.6960740" lon="-8.6388470">
        <ele>68.0</ele>
        <time>2019-08-17T13:24:15Z</time>
      </trkpt>
      <trkpt lat="42.6961000" lon="-8.6388870">
        <ele>68.1</ele>
        <time>2019-08-17T13:24:16Z</time>
      </trkpt>
      <trkpt lat="42.6961260" lon="-8.6389260">
        <ele>68.3</ele>
        <time>2019-08-17T13:24:17Z</time>
      </trkpt>
      <trkpt lat="42.6961860" lon="-8.6389940">
        <ele>68.6</ele>
        <time>2019-08-17T13:24:19Z</time>
      </trkpt>
      <trkpt lat="42.6963700" lon="-8.6391610">
        <ele>69.3</ele>
        <time>2019-08-17T13:24:25Z</time>
      </trkpt>
      <trkpt lat="42.6963990" lon="-8.6391890">
        <ele>69.5</ele>
        <time>2019-08-17T13:24:26Z</time>
      </trkpt>
      <trkpt lat="42.6964290" lon="-8.6392160">
        <ele>69.7</ele>
        <time>2019-08-17T13:24:27Z</time>
      </trkpt>
      <trkpt lat="42.6964600" lon="-8.6392430">
        <ele>70.0</ele>
        <time>2019-08-17T13:24:28Z</time>
      </trkpt>
      <trkpt lat="42.6964900" lon="-8.6392710">
        <ele>70.3</ele>
        <time>2019-08-17T13:24:29Z</time>
      </trkpt>
      <trkpt lat="42.6965930" lon="-8.6393590">
        <ele>70.9</ele>
        <time>2019-08-17T13:24:33Z</time>
      </trkpt>
      <trkpt lat="42.6966090" lon="-8.6393760">
        <ele>70.6</ele>
        <time>2019-08-17T13:24:34Z</time>
      </trkpt>
      <trkpt lat="42.6966140" lon="-8.6393870">
        <ele>70.5</ele>
        <time>2019-08-17T13:24:35Z</time>
      </trkpt>
      <trkpt lat="42.6966220" lon="-8.6394070">
        <ele>70.3</ele>
        <time>2019-08-17T13:24:36Z</time>
      </trkpt>
      <trkpt lat="42.6966370" lon="-8.6394500">
        <ele>69.8</ele>
        <time>2019-08-17T13:24:37Z</time>
      </trkpt>
      <trkpt lat="42.6966410" lon="-8.6395620">
        <ele>68.9</ele>
        <time>2019-08-17T13:24:39Z</time>
      </trkpt>
      <trkpt lat="42.6966290" lon="-8.6396250">
        <ele>68.5</ele>
        <time>2019-08-17T13:24:40Z</time>
      </trkpt>
      <trkpt lat="42.6965620" lon="-8.6398750">
        <ele>66.9</ele>
        <time>2019-08-17T13:24:44Z</time>
      </trkpt>
      <trkpt lat="42.6965880" lon="-8.6400950">
        <ele>65.6</ele>
        <time>2019-08-17T13:24:47Z</time>
      </trkpt>
      <trkpt lat="42.6966080" lon="-8.6401970">
        <ele>64.9</ele>
        <time>2019-08-17T13:24:48Z</time>
      </trkpt>
      <trkpt lat="42.6966340" lon="-8.6402920">
        <ele>64.2</ele>
        <time>2019-08-17T13:24:49Z</time>
      </trkpt>
      <trkpt lat="42.6966780" lon="-8.6403760">
        <ele>63.4</ele>
        <time>2019-08-17T13:24:50Z</time>
      </trkpt>
      <trkpt lat="42.6967290" lon="-8.6404560">
        <ele>62.8</ele>
        <time>2019-08-17T13:24:51Z</time>
      </trkpt>
      <trkpt lat="42.6967790" lon="-8.6405330">
        <ele>62.1</ele>
        <time>2019-08-17T13:24:52Z</time>
      </trkpt>
      <trkpt lat="42.6968340" lon="-8.6406020">
        <ele>61.5</ele>
        <time>2019-08-17T13:24:53Z</time>
      </trkpt>
      <trkpt lat="42.6969070" lon="-8.6406460">
        <ele>60.7</ele>
        <time>2019-08-17T13:24:54Z</time>
      </trkpt>
      <trkpt lat="42.6969800" lon="-8.6406820">
        <ele>60.4</ele>
        <time>2019-08-17T13:24:55Z</time>
      </trkpt>
      <trkpt lat="42.6970490" lon="-8.6407200">
        <ele>60.1</ele>
        <time>2019-08-17T13:24:56Z</time>
      </trkpt>
      <trkpt lat="42.6971190" lon="-8.6407570">
        <ele>59.9</ele>
        <time>2019-08-17T13:24:57Z</time>
      </trkpt>
      <trkpt lat="42.6971850" lon="-8.6407840">
        <ele>59.7</ele>
        <time>2019-08-17T13:24:58Z</time>
      </trkpt>
      <trkpt lat="42.6973500" lon="-8.6408460">
        <ele>59.6</ele>
        <time>2019-08-17T13:25:01Z</time>
      </trkpt>
      <trkpt lat="42.6973980" lon="-8.6408510">
        <ele>59.7</ele>
        <time>2019-08-17T13:25:02Z</time>
      </trkpt>
      <trkpt lat="42.6975860" lon="-8.6409240">
        <ele>60.8</ele>
        <time>2019-08-17T13:25:06Z</time>
      </trkpt>
      <trkpt lat="42.6976240" lon="-8.6409360">
        <ele>61.1</ele>
        <time>2019-08-17T13:25:07Z</time>
      </trkpt>
      <trkpt lat="42.6976560" lon="-8.6409350">
        <ele>61.3</ele>
        <time>2019-08-17T13:25:08Z</time>
      </trkpt>
      <trkpt lat="42.6976790" lon="-8.6409340">
        <ele>61.5</ele>
        <time>2019-08-17T13:25:09Z</time>
      </trkpt>
      <trkpt lat="42.6977050" lon="-8.6409340">
        <ele>61.8</ele>
        <time>2019-08-17T13:25:10Z</time>
      </trkpt>
      <trkpt lat="42.6977250" lon="-8.6409390">
        <ele>62.0</ele>
        <time>2019-08-17T13:25:11Z</time>
      </trkpt>
      <trkpt lat="42.6977520" lon="-8.6409380">
        <ele>62.2</ele>
        <time>2019-08-17T13:25:12Z</time>
      </trkpt>
      <trkpt lat="42.6977830" lon="-8.6409350">
        <ele>62.5</ele>
        <time>2019-08-17T13:25:13Z</time>
      </trkpt>
      <trkpt lat="42.6979530" lon="-8.6409400">
        <ele>63.4</ele>
        <time>2019-08-17T13:25:18Z</time>
      </trkpt>
      <trkpt lat="42.6981000" lon="-8.6409230">
        <ele>64.1</ele>
        <time>2019-08-17T13:25:22Z</time>
      </trkpt>
      <trkpt lat="42.6981240" lon="-8.6409420">
        <ele>64.2</ele>
        <time>2019-08-17T13:25:23Z</time>
      </trkpt>
      <trkpt lat="42.6981650" lon="-8.6409500">
        <ele>64.4</ele>
        <time>2019-08-17T13:25:24Z</time>
      </trkpt>
      <trkpt lat="42.6982080" lon="-8.6409440">
        <ele>64.6</ele>
        <time>2019-08-17T13:25:25Z</time>
      </trkpt>
      <trkpt lat="42.6982440" lon="-8.6409430">
        <ele>64.7</ele>
        <time>2019-08-17T13:25:26Z</time>
      </trkpt>
      <trkpt lat="42.6983200" lon="-8.6409450">
        <ele>64.9</ele>
        <time>2019-08-17T13:25:28Z</time>
      </trkpt>
      <trkpt lat="42.6985120" lon="-8.6408990">
        <ele>65.5</ele>
        <time>2019-08-17T13:25:34Z</time>
      </trkpt>
      <trkpt lat="42.6986770" lon="-8.6408150">
        <ele>65.9</ele>
        <time>2019-08-17T13:25:40Z</time>
      </trkpt>
      <trkpt lat="42.6987050" lon="-8.6407940">
        <ele>66.0</ele>
        <time>2019-08-17T13:25:41Z</time>
      </trkpt>
      <trkpt lat="42.6987530" lon="-8.6407770">
        <ele>66.1</ele>
        <time>2019-08-17T13:25:42Z</time>
      </trkpt>
      <trkpt lat="42.6987860" lon="-8.6407530">
        <ele>66.2</ele>
        <time>2019-08-17T13:25:43Z</time>
      </trkpt>
      <trkpt lat="42.6988160" lon="-8.6407210">
        <ele>66.3</ele>
        <time>2019-08-17T13:25:44Z</time>
      </trkpt>
      <trkpt lat="42.6990080" lon="-8.6405960">
        <ele>66.5</ele>
        <time>2019-08-17T13:25:47Z</time>
      </trkpt>
      <trkpt lat="42.6990850" lon="-8.6405120">
        <ele>66.7</ele>
        <time>2019-08-17T13:25:49Z</time>
      </trkpt>
      <trkpt lat="42.6992280" lon="-8.6403470">
        <ele>66.9</ele>
        <time>2019-08-17T13:25:53Z</time>
      </trkpt>
      <trkpt lat="42.6993900" lon="-8.6400920">
        <ele>67.2</ele>
        <time>2019-08-17T13:25:58Z</time>
      </trkpt>
      <trkpt lat="42.6995260" lon="-8.6400970">
        <ele>67.3</ele>
        <time>2019-08-17T13:26:01Z</time>
      </trkpt>
      <trkpt lat="42.6995680" lon="-8.6401040">
        <ele>67.4</ele>
        <time>2019-08-17T13:26:02Z</time>
      </trkpt>
      <trkpt lat="42.6997930" lon="-8.6401800">
        <ele>67.6</ele>
        <time>2019-08-17T13:26:09Z</time>
      </trkpt>
      <trkpt lat="42.6999740" lon="-8.6401840">
        <ele>67.9</ele>
        <time>2019-08-17T13:26:15Z</time>
      </trkpt>
      <trkpt lat="42.7001150" lon="-8.6401500">
        <ele>68.2</ele>
        <time>2019-08-17T13:26:20Z</time>
      </trkpt>
      <trkpt lat="42.7001450" lon="-8.6401480">
        <ele>68.2</ele>
        <time>2019-08-17T13:26:21Z</time>
      </trkpt>
      <trkpt lat="42.7001750" lon="-8.6401480">
        <ele>68.3</ele>
        <time>2019-08-17T13:26:22Z</time>
      </trkpt>
      <trkpt lat="42.7002050" lon="-8.6401570">
        <ele>68.3</ele>
        <time>2019-08-17T13:26:23Z</time>
      </trkpt>
      <trkpt lat="42.7002330" lon="-8.6401520">
        <ele>68.3</ele>
        <time>2019-08-17T13:26:24Z</time>
      </trkpt>
      <trkpt lat="42.7002640" lon="-8.6401520">
        <ele>68.3</ele>
        <time>2019-08-17T13:26:25Z</time>
      </trkpt>
      <trkpt lat="42.7003210" lon="-8.6401560">
        <ele>68.3</ele>
        <time>2019-08-17T13:26:27Z</time>
      </trkpt>
      <trkpt lat="42.7006060" lon="-8.6401550">
        <ele>67.9</ele>
        <time>2019-08-17T13:26:36Z</time>
      </trkpt>
      <trkpt lat="42.7009120" lon="-8.6400870">
        <ele>67.3</ele>
        <time>2019-08-17T13:26:44Z</time>
      </trkpt>
      <trkpt lat="42.7010440" lon="-8.6400740">
        <ele>66.9</ele>
        <time>2019-08-17T13:26:47Z</time>
      </trkpt>
      <trkpt lat="42.7011420" lon="-8.6401130">
        <ele>66.5</ele>
        <time>2019-08-17T13:26:49Z</time>
      </trkpt>
      <trkpt lat="42.7012510" lon="-8.6401990">
        <ele>65.8</ele>
        <time>2019-08-17T13:26:51Z</time>
      </trkpt>
      <trkpt lat="42.7013080" lon="-8.6402550">
        <ele>65.4</ele>
        <time>2019-08-17T13:26:52Z</time>
      </trkpt>
      <trkpt lat="42.7013650" lon="-8.6403220">
        <ele>65.1</ele>
        <time>2019-08-17T13:26:53Z</time>
      </trkpt>
      <trkpt lat="42.7014050" lon="-8.6403940">
        <ele>64.8</ele>
        <time>2019-08-17T13:26:54Z</time>
      </trkpt>
      <trkpt lat="42.7014100" lon="-8.6404970">
        <ele>64.5</ele>
        <time>2019-08-17T13:26:55Z</time>
      </trkpt>
      <trkpt lat="42.7014080" lon="-8.6405870">
        <ele>64.3</ele>
        <time>2019-08-17T13:26:56Z</time>
      </trkpt>
      <trkpt lat="42.7014110" lon="-8.6406680">
        <ele>64.1</ele>
        <time>2019-08-17T13:26:57Z</time>
      </trkpt>
      <trkpt lat="42.7014460" lon="-8.6407330">
        <ele>64.0</ele>
        <time>2019-08-17T13:26:58Z</time>
      </trkpt>
      <trkpt lat="42.7014830" lon="-8.6407940">
        <ele>63.8</ele>
        <time>2019-08-17T13:26:59Z</time>
      </trkpt>
      <trkpt lat="42.7016120" lon="-8.6409050">
        <ele>63.5</ele>
        <time>2019-08-17T13:27:02Z</time>
      </trkpt>
      <trkpt lat="42.7016490" lon="-8.6409490">
        <ele>63.4</ele>
        <time>2019-08-17T13:27:03Z</time>
      </trkpt>
      <trkpt lat="42.7016450" lon="-8.6410220">
        <ele>63.3</ele>
        <time>2019-08-17T13:27:04Z</time>
      </trkpt>
      <trkpt lat="42.7016550" lon="-8.6410760">
        <ele>63.3</ele>
        <time>2019-08-17T13:27:05Z</time>
      </trkpt>
      <trkpt lat="42.7016280" lon="-8.6413170">
        <ele>63.2</ele>
        <time>2019-08-17T13:27:09Z</time>
      </trkpt>
      <trkpt lat="42.7015740" lon="-8.6416020">
        <ele>63.3</ele>
        <time>2019-08-17T13:27:14Z</time>
      </trkpt>
      <trkpt lat="42.7015620" lon="-8.6416430">
        <ele>63.3</ele>
        <time>2019-08-17T13:27:15Z</time>
      </trkpt>
      <trkpt lat="42.7015560" lon="-8.6416850">
        <ele>63.3</ele>
        <time>2019-08-17T13:27:16Z</time>
      </trkpt>
      <trkpt lat="42.7015480" lon="-8.6417400">
        <ele>63.4</ele>
        <time>2019-08-17T13:27:17Z</time>
      </trkpt>
      <trkpt lat="42.7015400" lon="-8.6417850">
        <ele>63.4</ele>
        <time>2019-08-17T13:27:18Z</time>
      </trkpt>
      <trkpt lat="42.7015200" lon="-8.6419230">
        <ele>63.5</ele>
        <time>2019-08-17T13:27:21Z</time>
      </trkpt>
      <trkpt lat="42.7015830" lon="-8.6420960">
        <ele>63.6</ele>
        <time>2019-08-17T13:27:25Z</time>
      </trkpt>
      <trkpt lat="42.7017320" lon="-8.6421550">
        <ele>64.1</ele>
        <time>2019-08-17T13:27:29Z</time>
      </trkpt>
      <trkpt lat="42.7017930" lon="-8.6421910">
        <ele>64.4</ele>
        <time>2019-08-17T13:27:31Z</time>
      </trkpt>
      <trkpt lat="42.7018200" lon="-8.6422100">
        <ele>64.6</ele>
        <time>2019-08-17T13:27:32Z</time>
      </trkpt>
      <trkpt lat="42.7018470" lon="-8.6422230">
        <ele>64.7</ele>
        <time>2019-08-17T13:27:33Z</time>
      </trkpt>
      <trkpt lat="42.7018770" lon="-8.6422360">
        <ele>64.8</ele>
        <time>2019-08-17T13:27:34Z</time>
      </trkpt>
      <trkpt lat="42.7019040" lon="-8.6422480">
        <ele>65.0</ele>
        <time>2019-08-17T13:27:35Z</time>
      </trkpt>
      <trkpt lat="42.7020450" lon="-8.6422370">
        <ele>65.6</ele>
        <time>2019-08-17T13:27:40Z</time>
      </trkpt>
      <trkpt lat="42.7020860" lon="-8.6422240">
        <ele>65.8</ele>
        <time>2019-08-17T13:27:42Z</time>
      </trkpt>
      <trkpt lat="42.7021060" lon="-8.6422120">
        <ele>65.9</ele>
        <time>2019-08-17T13:27:43Z</time>
      </trkpt>
      <trkpt lat="42.7021240" lon="-8.6421980">
        <ele>66.0</ele>
        <time>2019-08-17T13:27:44Z</time>
      </trkpt>
      <trkpt lat="42.7021390" lon="-8.6421870">
        <ele>66.1</ele>
        <time>2019-08-17T13:27:45Z</time>
      </trkpt>
      <trkpt lat="42.7021570" lon="-8.6421800">
        <ele>66.2</ele>
        <time>2019-08-17T13:27:46Z</time>
      </trkpt>
      <trkpt lat="42.7021790" lon="-8.6421780">
        <ele>66.3</ele>
        <time>2019-08-17T13:27:47Z</time>
      </trkpt>
      <trkpt lat="42.7023460" lon="-8.6421330">
        <ele>67.2</ele>
        <time>2019-08-17T13:27:54Z</time>
      </trkpt>
      <trkpt lat="42.7025270" lon="-8.6421140">
        <ele>68.4</ele>
        <time>2019-08-17T13:28:00Z</time>
      </trkpt>
      <trkpt lat="42.7025950" lon="-8.6421010">
        <ele>68.8</ele>
        <time>2019-08-17T13:28:02Z</time>
      </trkpt>
      <trkpt lat="42.7026230" lon="-8.6421000">
        <ele>68.9</ele>
        <time>2019-08-17T13:28:03Z</time>
      </trkpt>
      <trkpt lat="42.7026520" lon="-8.6421070">
        <ele>69.1</ele>
        <time>2019-08-17T13:28:04Z</time>
      </trkpt>
      <trkpt lat="42.7026800" lon="-8.6421080">
        <ele>69.1</ele>
        <time>2019-08-17T13:28:05Z</time>
      </trkpt>
      <trkpt lat="42.7027130" lon="-8.6421070">
        <ele>69.2</ele>
        <time>2019-08-17T13:28:06Z</time>
      </trkpt>
      <trkpt lat="42.7027420" lon="-8.6421070">
        <ele>69.2</ele>
        <time>2019-08-17T13:28:07Z</time>
      </trkpt>
      <trkpt lat="42.7029610" lon="-8.6421280">
        <ele>68.9</ele>
        <time>2019-08-17T13:28:13Z</time>
      </trkpt>
      <trkpt lat="42.7032440" lon="-8.6421660">
        <ele>68.3</ele>
        <time>2019-08-17T13:28:21Z</time>
      </trkpt>
      <trkpt lat="42.7035020" lon="-8.6421960">
        <ele>68.7</ele>
        <time>2019-08-17T13:28:28Z</time>
      </trkpt>
      <trkpt lat="42.7037300" lon="-8.6422160">
        <ele>69.6</ele>
        <time>2019-08-17T13:28:35Z</time>
      </trkpt>
      <trkpt lat="42.7039360" lon="-8.6422540">
        <ele>69.6</ele>
        <time>2019-08-17T13:28:41Z</time>
      </trkpt>
      <trkpt lat="42.7041630" lon="-8.6423210">
        <ele>69.1</ele>
        <time>2019-08-17T13:28:48Z</time>
      </trkpt>
      <trkpt lat="42.7043740" lon="-8.6422950">
        <ele>68.6</ele>
        <time>2019-08-17T13:28:53Z</time>
      </trkpt>
      <trkpt lat="42.7044140" lon="-8.6423040">
        <ele>68.5</ele>
        <time>2019-08-17T13:28:54Z</time>
      </trkpt>
      <trkpt lat="42.7044740" lon="-8.6423240">
        <ele>68.4</ele>
        <time>2019-08-17T13:28:55Z</time>
      </trkpt>
      <trkpt lat="42.7045220" lon="-8.6423350">
        <ele>68.2</ele>
        <time>2019-08-17T13:28:56Z</time>
      </trkpt>
      <trkpt lat="42.7045720" lon="-8.6423550">
        <ele>68.0</ele>
        <time>2019-08-17T13:28:57Z</time>
      </trkpt>
      <trkpt lat="42.7046320" lon="-8.6423610">
        <ele>67.7</ele>
        <time>2019-08-17T13:28:58Z</time>
      </trkpt>
      <trkpt lat="42.7046920" lon="-8.6423630">
        <ele>67.2</ele>
        <time>2019-08-17T13:28:59Z</time>
      </trkpt>
      <trkpt lat="42.7047480" lon="-8.6423590">
        <ele>66.6</ele>
        <time>2019-08-17T13:29:00Z</time>
      </trkpt>
      <trkpt lat="42.7048060" lon="-8.6423500">
        <ele>66.1</ele>
        <time>2019-08-17T13:29:01Z</time>
      </trkpt>
      <trkpt lat="42.7048760" lon="-8.6423490">
        <ele>65.5</ele>
        <time>2019-08-17T13:29:02Z</time>
      </trkpt>
      <trkpt lat="42.7049490" lon="-8.6423340">
        <ele>64.8</ele>
        <time>2019-08-17T13:29:03Z</time>
      </trkpt>
      <trkpt lat="42.7050380" lon="-8.6423490">
        <ele>63.9</ele>
        <time>2019-08-17T13:29:04Z</time>
      </trkpt>
      <trkpt lat="42.7051450" lon="-8.6423510">
        <ele>63.1</ele>
        <time>2019-08-17T13:29:05Z</time>
      </trkpt>
      <trkpt lat="42.7052450" lon="-8.6423620">
        <ele>62.6</ele>
        <time>2019-08-17T13:29:06Z</time>
      </trkpt>
      <trkpt lat="42.7053430" lon="-8.6423640">
        <ele>62.1</ele>
        <time>2019-08-17T13:29:07Z</time>
      </trkpt>
      <trkpt lat="42.7055350" lon="-8.6424150">
        <ele>60.9</ele>
        <time>2019-08-17T13:29:10Z</time>
      </trkpt>
      <trkpt lat="42.7055770" lon="-8.6424760">
        <ele>60.6</ele>
        <time>2019-08-17T13:29:11Z</time>
      </trkpt>
      <trkpt lat="42.7056190" lon="-8.6425220">
        <ele>60.4</ele>
        <time>2019-08-17T13:29:12Z</time>
      </trkpt>
      <trkpt lat="42.7056650" lon="-8.6425780">
        <ele>60.0</ele>
        <time>2019-08-17T13:29:13Z</time>
      </trkpt>
      <trkpt lat="42.7057110" lon="-8.6426230">
        <ele>59.7</ele>
        <time>2019-08-17T13:29:14Z</time>
      </trkpt>
      <trkpt lat="42.7057570" lon="-8.6426660">
        <ele>59.4</ele>
        <time>2019-08-17T13:29:15Z</time>
      </trkpt>
      <trkpt lat="42.7058380" lon="-8.6427690">
        <ele>58.9</ele>
        <time>2019-08-17T13:29:17Z</time>
      </trkpt>
      <trkpt lat="42.7059250" lon="-8.6429450">
        <ele>58.4</ele>
        <time>2019-08-17T13:29:19Z</time>
      </trkpt>
      <trkpt lat="42.7059370" lon="-8.6430390">
        <ele>58.1</ele>
        <time>2019-08-17T13:29:20Z</time>
      </trkpt>
      <trkpt lat="42.7059500" lon="-8.6431170">
        <ele>57.9</ele>
        <time>2019-08-17T13:29:21Z</time>
      </trkpt>
      <trkpt lat="42.7059520" lon="-8.6432020">
        <ele>57.4</ele>
        <time>2019-08-17T13:29:22Z</time>
      </trkpt>
      <trkpt lat="42.7059610" lon="-8.6433030">
        <ele>57.1</ele>
        <time>2019-08-17T13:29:23Z</time>
      </trkpt>
      <trkpt lat="42.7059740" lon="-8.6434120">
        <ele>56.7</ele>
        <time>2019-08-17T13:29:24Z</time>
      </trkpt>
      <trkpt lat="42.7059950" lon="-8.6435460">
        <ele>56.2</ele>
        <time>2019-08-17T13:29:25Z</time>
      </trkpt>
      <trkpt lat="42.7060250" lon="-8.6437370">
        <ele>55.5</ele>
        <time>2019-08-17T13:29:26Z</time>
      </trkpt>
      <trkpt lat="42.7060570" lon="-8.6438680">
        <ele>54.9</ele>
        <time>2019-08-17T13:29:27Z</time>
      </trkpt>
      <trkpt lat="42.7061000" lon="-8.6439740">
        <ele>54.5</ele>
        <time>2019-08-17T13:29:28Z</time>
      </trkpt>
      <trkpt lat="42.7061330" lon="-8.6440720">
        <ele>54.2</ele>
        <time>2019-08-17T13:29:29Z</time>
      </trkpt>
      <trkpt lat="42.7061740" lon="-8.6441810">
        <ele>53.8</ele>
        <time>2019-08-17T13:29:30Z</time>
      </trkpt>
      <trkpt lat="42.7062170" lon="-8.6442870">
        <ele>53.4</ele>
        <time>2019-08-17T13:29:31Z</time>
      </trkpt>
      <trkpt lat="42.7062600" lon="-8.6443820">
        <ele>53.1</ele>
        <time>2019-08-17T13:29:32Z</time>
      </trkpt>
      <trkpt lat="42.7063180" lon="-8.6444440">
        <ele>52.6</ele>
        <time>2019-08-17T13:29:33Z</time>
      </trkpt>
      <trkpt lat="42.7063510" lon="-8.6444930">
        <ele>52.2</ele>
        <time>2019-08-17T13:29:34Z</time>
      </trkpt>
      <trkpt lat="42.7064000" lon="-8.6445170">
        <ele>51.8</ele>
        <time>2019-08-17T13:29:35Z</time>
      </trkpt>
      <trkpt lat="42.7064480" lon="-8.6445500">
        <ele>51.4</ele>
        <time>2019-08-17T13:29:36Z</time>
      </trkpt>
      <trkpt lat="42.7064860" lon="-8.6445930">
        <ele>51.0</ele>
        <time>2019-08-17T13:29:37Z</time>
      </trkpt>
      <trkpt lat="42.7065180" lon="-8.6446510">
        <ele>50.6</ele>
        <time>2019-08-17T13:29:38Z</time>
      </trkpt>
      <trkpt lat="42.7065050" lon="-8.6447410">
        <ele>50.0</ele>
        <time>2019-08-17T13:29:39Z</time>
      </trkpt>
      <trkpt lat="42.7065110" lon="-8.6448070">
        <ele>49.5</ele>
        <time>2019-08-17T13:29:40Z</time>
      </trkpt>
      <trkpt lat="42.7065110" lon="-8.6448770">
        <ele>48.8</ele>
        <time>2019-08-17T13:29:41Z</time>
      </trkpt>
      <trkpt lat="42.7065060" lon="-8.6449620">
        <ele>47.9</ele>
        <time>2019-08-17T13:29:42Z</time>
      </trkpt>
      <trkpt lat="42.7064930" lon="-8.6450490">
        <ele>47.1</ele>
        <time>2019-08-17T13:29:43Z</time>
      </trkpt>
      <trkpt lat="42.7064830" lon="-8.6451320">
        <ele>46.5</ele>
        <time>2019-08-17T13:29:44Z</time>
      </trkpt>
      <trkpt lat="42.7064710" lon="-8.6452280">
        <ele>45.6</ele>
        <time>2019-08-17T13:29:45Z</time>
      </trkpt>
      <trkpt lat="42.7064900" lon="-8.6453530">
        <ele>44.3</ele>
        <time>2019-08-17T13:29:46Z</time>
      </trkpt>
      <trkpt lat="42.7065180" lon="-8.6454660">
        <ele>43.1</ele>
        <time>2019-08-17T13:29:47Z</time>
      </trkpt>
      <trkpt lat="42.7065430" lon="-8.6455830">
        <ele>42.2</ele>
        <time>2019-08-17T13:29:48Z</time>
      </trkpt>
      <trkpt lat="42.7065620" lon="-8.6456800">
        <ele>41.5</ele>
        <time>2019-08-17T13:29:49Z</time>
      </trkpt>
      <trkpt lat="42.7065840" lon="-8.6457620">
        <ele>41.0</ele>
        <time>2019-08-17T13:29:50Z</time>
      </trkpt>
      <trkpt lat="42.7066140" lon="-8.6458600">
        <ele>40.2</ele>
        <time>2019-08-17T13:29:51Z</time>
      </trkpt>
      <trkpt lat="42.7066520" lon="-8.6459570">
        <ele>39.1</ele>
        <time>2019-08-17T13:29:52Z</time>
      </trkpt>
      <trkpt lat="42.7066760" lon="-8.6460710">
        <ele>38.0</ele>
        <time>2019-08-17T13:29:53Z</time>
      </trkpt>
      <trkpt lat="42.7066970" lon="-8.6461750">
        <ele>37.1</ele>
        <time>2019-08-17T13:29:54Z</time>
      </trkpt>
      <trkpt lat="42.7067180" lon="-8.6462840">
        <ele>36.1</ele>
        <time>2019-08-17T13:29:55Z</time>
      </trkpt>
      <trkpt lat="42.7067270" lon="-8.6463910">
        <ele>35.3</ele>
        <time>2019-08-17T13:29:56Z</time>
      </trkpt>
      <trkpt lat="42.7067420" lon="-8.6464880">
        <ele>34.6</ele>
        <time>2019-08-17T13:29:57Z</time>
      </trkpt>
      <trkpt lat="42.7067530" lon="-8.6465750">
        <ele>33.9</ele>
        <time>2019-08-17T13:29:58Z</time>
      </trkpt>
      <trkpt lat="42.7067830" lon="-8.6466760">
        <ele>33.3</ele>
        <time>2019-08-17T13:29:59Z</time>
      </trkpt>
      <trkpt lat="42.7068080" lon="-8.6467950">
        <ele>32.6</ele>
        <time>2019-08-17T13:30:00Z</time>
      </trkpt>
      <trkpt lat="42.7068220" lon="-8.6469100">
        <ele>32.0</ele>
        <time>2019-08-17T13:30:01Z</time>
      </trkpt>
      <trkpt lat="42.7068250" lon="-8.6470260">
        <ele>31.5</ele>
        <time>2019-08-17T13:30:02Z</time>
      </trkpt>
      <trkpt lat="42.7068200" lon="-8.6471430">
        <ele>30.7</ele>
        <time>2019-08-17T13:30:03Z</time>
      </trkpt>
      <trkpt lat="42.7068100" lon="-8.6472560">
        <ele>30.0</ele>
        <time>2019-08-17T13:30:04Z</time>
      </trkpt>
      <trkpt lat="42.7067970" lon="-8.6473420">
        <ele>29.6</ele>
        <time>2019-08-17T13:30:05Z</time>
      </trkpt>
      <trkpt lat="42.7067880" lon="-8.6474000">
        <ele>29.3</ele>
        <time>2019-08-17T13:30:06Z</time>
      </trkpt>
      <trkpt lat="42.7068620" lon="-8.6475070">
        <ele>28.7</ele>
        <time>2019-08-17T13:30:10Z</time>
      </trkpt>
      <trkpt lat="42.7069420" lon="-8.6474860">
        <ele>28.6</ele>
        <time>2019-08-17T13:30:12Z</time>
      </trkpt>
      <trkpt lat="42.7069750" lon="-8.6474940">
        <ele>28.6</ele>
        <time>2019-08-17T13:30:13Z</time>
      </trkpt>
      <trkpt lat="42.7072060" lon="-8.6474720">
        <ele>28.2</ele>
        <time>2019-08-17T13:30:20Z</time>
      </trkpt>
      <trkpt lat="42.7073150" lon="-8.6475170">
        <ele>27.8</ele>
        <time>2019-08-17T13:30:24Z</time>
      </trkpt>
      <trkpt lat="42.7073500" lon="-8.6475470">
        <ele>27.6</ele>
        <time>2019-08-17T13:30:25Z</time>
      </trkpt>
      <trkpt lat="42.7073850" lon="-8.6475700">
        <ele>27.5</ele>
        <time>2019-08-17T13:30:26Z</time>
      </trkpt>
      <trkpt lat="42.7074230" lon="-8.6475800">
        <ele>27.4</ele>
        <time>2019-08-17T13:30:27Z</time>
      </trkpt>
      <trkpt lat="42.7074630" lon="-8.6475590">
        <ele>27.4</ele>
        <time>2019-08-17T13:30:28Z</time>
      </trkpt>
      <trkpt lat="42.7074940" lon="-8.6475550">
        <ele>27.4</ele>
        <time>2019-08-17T13:30:29Z</time>
      </trkpt>
      <trkpt lat="42.7077070" lon="-8.6475010">
        <ele>27.5</ele>
        <time>2019-08-17T13:30:35Z</time>
      </trkpt>
      <trkpt lat="42.7080640" lon="-8.6474030">
        <ele>27.6</ele>
        <time>2019-08-17T13:30:44Z</time>
      </trkpt>
      <trkpt lat="42.7084750" lon="-8.6473010">
        <ele>27.6</ele>
        <time>2019-08-17T13:30:53Z</time>
      </trkpt>
      <trkpt lat="42.7090210" lon="-8.6471690">
        <ele>27.9</ele>
        <time>2019-08-17T13:31:04Z</time>
      </trkpt>
      <trkpt lat="42.7092100" lon="-8.6471510">
        <ele>27.8</ele>
        <time>2019-08-17T13:31:08Z</time>
      </trkpt>
      <trkpt lat="42.7093890" lon="-8.6471930">
        <ele>27.5</ele>
        <time>2019-08-17T13:31:12Z</time>
      </trkpt>
      <trkpt lat="42.7096530" lon="-8.6472770">
        <ele>27.2</ele>
        <time>2019-08-17T13:31:18Z</time>
      </trkpt>
      <trkpt lat="42.7097430" lon="-8.6472880">
        <ele>27.1</ele>
        <time>2019-08-17T13:31:20Z</time>
      </trkpt>
      <trkpt lat="42.7100890" lon="-8.6472740">
        <ele>27.1</ele>
        <time>2019-08-17T13:31:27Z</time>
      </trkpt>
      <trkpt lat="42.7104170" lon="-8.6472500">
        <ele>27.0</ele>
        <time>2019-08-17T13:31:34Z</time>
      </trkpt>
      <trkpt lat="42.7107140" lon="-8.6471880">
        <ele>27.1</ele>
        <time>2019-08-17T13:31:40Z</time>
      </trkpt>
      <trkpt lat="42.7110570" lon="-8.6471340">
        <ele>27.7</ele>
        <time>2019-08-17T13:31:47Z</time>
      </trkpt>
      <trkpt lat="42.7113120" lon="-8.6470960">
        <ele>30.4</ele>
        <time>2019-08-17T13:31:54Z</time>
      </trkpt>
      <trkpt lat="42.7115410" lon="-8.6470650">
        <ele>30.4</ele>
        <time>2019-08-17T13:32:01Z</time>
      </trkpt>
      <trkpt lat="42.7117740" lon="-8.6470660">
        <ele>29.9</ele>
        <time>2019-08-17T13:32:06Z</time>
      </trkpt>
      <trkpt lat="42.7121590" lon="-8.6471150">
        <ele>29.2</ele>
        <time>2019-08-17T13:32:13Z</time>
      </trkpt>
      <trkpt lat="42.7125410" lon="-8.6471770">
        <ele>28.7</ele>
        <time>2019-08-17T13:32:20Z</time>
      </trkpt>
      <trkpt lat="42.7128000" lon="-8.6472160">
        <ele>28.6</ele>
        <time>2019-08-17T13:32:26Z</time>
      </trkpt>
      <trkpt lat="42.7128440" lon="-8.6472200">
        <ele>28.6</ele>
        <time>2019-08-17T13:32:27Z</time>
      </trkpt>
      <trkpt lat="42.7131620" lon="-8.6473160">
        <ele>28.8</ele>
        <time>2019-08-17T13:32:34Z</time>
      </trkpt>
      <trkpt lat="42.7133780" lon="-8.6473850">
        <ele>29.2</ele>
        <time>2019-08-17T13:32:38Z</time>
      </trkpt>
      <trkpt lat="42.7134720" lon="-8.6474390">
        <ele>29.3</ele>
        <time>2019-08-17T13:32:40Z</time>
      </trkpt>
      <trkpt lat="42.7136950" lon="-8.6475650">
        <ele>29.2</ele>
        <time>2019-08-17T13:32:45Z</time>
      </trkpt>
      <trkpt lat="42.7137400" lon="-8.6475970">
        <ele>29.1</ele>
        <time>2019-08-17T13:32:46Z</time>
      </trkpt>
      <trkpt lat="42.7137890" lon="-8.6476320">
        <ele>29.0</ele>
        <time>2019-08-17T13:32:47Z</time>
      </trkpt>
      <trkpt lat="42.7138460" lon="-8.6476700">
        <ele>28.9</ele>
        <time>2019-08-17T13:32:48Z</time>
      </trkpt>
      <trkpt lat="42.7138860" lon="-8.6476920">
        <ele>28.8</ele>
        <time>2019-08-17T13:32:49Z</time>
      </trkpt>
      <trkpt lat="42.7140910" lon="-8.6477980">
        <ele>28.3</ele>
        <time>2019-08-17T13:32:53Z</time>
      </trkpt>
      <trkpt lat="42.7146010" lon="-8.6480430">
        <ele>27.6</ele>
        <time>2019-08-17T13:33:03Z</time>
      </trkpt>
      <trkpt lat="42.7151270" lon="-8.6482040">
        <ele>27.3</ele>
        <time>2019-08-17T13:33:13Z</time>
      </trkpt>
      <trkpt lat="42.7154040" lon="-8.6482710">
        <ele>27.2</ele>
        <time>2019-08-17T13:33:19Z</time>
      </trkpt>
      <trkpt lat="42.7157090" lon="-8.6483420">
        <ele>26.9</ele>
        <time>2019-08-17T13:33:27Z</time>
      </trkpt>
      <trkpt lat="42.7160010" lon="-8.6483980">
        <ele>26.8</ele>
        <time>2019-08-17T13:33:34Z</time>
      </trkpt>
      <trkpt lat="42.7162970" lon="-8.6484800">
        <ele>26.9</ele>
        <time>2019-08-17T13:33:40Z</time>
      </trkpt>
      <trkpt lat="42.7165650" lon="-8.6485420">
        <ele>27.1</ele>
        <time>2019-08-17T13:33:46Z</time>
      </trkpt>
      <trkpt lat="42.7166100" lon="-8.6485560">
        <ele>27.2</ele>
        <time>2019-08-17T13:33:47Z</time>
      </trkpt>
      <trkpt lat="42.7166570" lon="-8.6485690">
        <ele>27.3</ele>
        <time>2019-08-17T13:33:48Z</time>
      </trkpt>
      <trkpt lat="42.7166990" lon="-8.6485780">
        <ele>27.4</ele>
        <time>2019-08-17T13:33:49Z</time>
      </trkpt>
      <trkpt lat="42.7167410" lon="-8.6485890">
        <ele>27.4</ele>
        <time>2019-08-17T13:33:50Z</time>
      </trkpt>
      <trkpt lat="42.7169590" lon="-8.6486490">
        <ele>27.6</ele>
        <time>2019-08-17T13:33:55Z</time>
      </trkpt>
      <trkpt lat="42.7171090" lon="-8.6486520">
        <ele>27.7</ele>
        <time>2019-08-17T13:33:58Z</time>
      </trkpt>
      <trkpt lat="42.7172570" lon="-8.6486240">
        <ele>27.8</ele>
        <time>2019-08-17T13:34:01Z</time>
      </trkpt>
      <trkpt lat="42.7174040" lon="-8.6486130">
        <ele>27.8</ele>
        <time>2019-08-17T13:34:04Z</time>
      </trkpt>
      <trkpt lat="42.7175940" lon="-8.6485840">
        <ele>27.8</ele>
        <time>2019-08-17T13:34:08Z</time>
      </trkpt>
      <trkpt lat="42.7178280" lon="-8.6486070">
        <ele>27.8</ele>
        <time>2019-08-17T13:34:14Z</time>
      </trkpt>
      <trkpt lat="42.7179710" lon="-8.6486950">
        <ele>27.8</ele>
        <time>2019-08-17T13:34:18Z</time>
      </trkpt>
      <trkpt lat="42.7180630" lon="-8.6487490">
        <ele>27.9</ele>
        <time>2019-08-17T13:34:20Z</time>
      </trkpt>
      <trkpt lat="42.7183270" lon="-8.6488630">
        <ele>27.2</ele>
        <time>2019-08-17T13:34:27Z</time>
      </trkpt>
      <trkpt lat="42.7184490" lon="-8.6490010">
        <ele>25.1</ele>
        <time>2019-08-17T13:34:32Z</time>
      </trkpt>
      <trkpt lat="42.7184910" lon="-8.6490880">
        <ele>24.5</ele>
        <time>2019-08-17T13:34:34Z</time>
      </trkpt>
      <trkpt lat="42.7185080" lon="-8.6491190">
        <ele>24.3</ele>
        <time>2019-08-17T13:34:35Z</time>
      </trkpt>
      <trkpt lat="42.7185380" lon="-8.6491490">
        <ele>24.1</ele>
        <time>2019-08-17T13:34:36Z</time>
      </trkpt>
      <trkpt lat="42.7185820" lon="-8.6491780">
        <ele>23.9</ele>
        <time>2019-08-17T13:34:37Z</time>
      </trkpt>
      <trkpt lat="42.7186380" lon="-8.6491790">
        <ele>23.6</ele>
        <time>2019-08-17T13:34:38Z</time>
      </trkpt>
      <trkpt lat="42.7186950" lon="-8.6491670">
        <ele>23.5</ele>
        <time>2019-08-17T13:34:39Z</time>
      </trkpt>
      <trkpt lat="42.7187420" lon="-8.6491610">
        <ele>23.4</ele>
        <time>2019-08-17T13:34:40Z</time>
      </trkpt>
      <trkpt lat="42.7187850" lon="-8.6491720">
        <ele>23.4</ele>
        <time>2019-08-17T13:34:41Z</time>
      </trkpt>
      <trkpt lat="42.7188170" lon="-8.6491800">
        <ele>23.3</ele>
        <time>2019-08-17T13:34:42Z</time>
      </trkpt>
      <trkpt lat="42.7188480" lon="-8.6491970">
        <ele>23.3</ele>
        <time>2019-08-17T13:34:43Z</time>
      </trkpt>
      <trkpt lat="42.7188740" lon="-8.6492130">
        <ele>23.3</ele>
        <time>2019-08-17T13:34:44Z</time>
      </trkpt>
      <trkpt lat="42.7189060" lon="-8.6492290">
        <ele>23.3</ele>
        <time>2019-08-17T13:34:45Z</time>
      </trkpt>
      <trkpt lat="42.7190310" lon="-8.6492030">
        <ele>24.9</ele>
        <time>2019-08-17T13:34:49Z</time>
      </trkpt>
      <trkpt lat="42.7192710" lon="-8.6490990">
        <ele>26.5</ele>
        <time>2019-08-17T13:34:56Z</time>
      </trkpt>
      <trkpt lat="42.7193130" lon="-8.6490730">
        <ele>26.7</ele>
        <time>2019-08-17T13:34:57Z</time>
      </trkpt>
      <trkpt lat="42.7193680" lon="-8.6490390">
        <ele>26.9</ele>
        <time>2019-08-17T13:34:59Z</time>
      </trkpt>
      <trkpt lat="42.7193970" lon="-8.6490170">
        <ele>27.1</ele>
        <time>2019-08-17T13:35:00Z</time>
      </trkpt>
      <trkpt lat="42.7194250" lon="-8.6490100">
        <ele>27.2</ele>
        <time>2019-08-17T13:35:01Z</time>
      </trkpt>
      <trkpt lat="42.7194610" lon="-8.6489970">
        <ele>27.3</ele>
        <time>2019-08-17T13:35:02Z</time>
      </trkpt>
      <trkpt lat="42.7195080" lon="-8.6489930">
        <ele>27.6</ele>
        <time>2019-08-17T13:35:03Z</time>
      </trkpt>
      <trkpt lat="42.7196160" lon="-8.6489680">
        <ele>28.1</ele>
        <time>2019-08-17T13:35:07Z</time>
      </trkpt>
      <trkpt lat="42.7196770" lon="-8.6490120">
        <ele>28.2</ele>
        <time>2019-08-17T13:35:12Z</time>
      </trkpt>
      <trkpt lat="42.7196930" lon="-8.6490280">
        <ele>28.1</ele>
        <time>2019-08-17T13:36:52Z</time>
      </trkpt>
      <trkpt lat="42.7196930" lon="-8.6490920">
        <ele>27.9</ele>
        <time>2019-08-17T13:36:54Z</time>
      </trkpt>
      <trkpt lat="42.7196900" lon="-8.6491400">
        <ele>27.8</ele>
        <time>2019-08-17T13:36:55Z</time>
      </trkpt>
      <trkpt lat="42.7196570" lon="-8.6493010">
        <ele>27.2</ele>
        <time>2019-08-17T13:36:58Z</time>
      </trkpt>
      <trkpt lat="42.7196170" lon="-8.6494240">
        <ele>26.8</ele>
        <time>2019-08-17T13:37:00Z</time>
      </trkpt>
      <trkpt lat="42.7195960" lon="-8.6494940">
        <ele>26.6</ele>
        <time>2019-08-17T13:37:01Z</time>
      </trkpt>
      <trkpt lat="42.7195760" lon="-8.6495610">
        <ele>26.2</ele>
        <time>2019-08-17T13:37:02Z</time>
      </trkpt>
      <trkpt lat="42.7195560" lon="-8.6496290">
        <ele>25.7</ele>
        <time>2019-08-17T13:37:03Z</time>
      </trkpt>
      <trkpt lat="42.7195370" lon="-8.6497040">
        <ele>25.2</ele>
        <time>2019-08-17T13:37:04Z</time>
      </trkpt>
      <trkpt lat="42.7194820" lon="-8.6500090">
        <ele>22.7</ele>
        <time>2019-08-17T13:37:08Z</time>
      </trkpt>
      <trkpt lat="42.7194750" lon="-8.6500840">
        <ele>22.2</ele>
        <time>2019-08-17T13:37:09Z</time>
      </trkpt>
      <trkpt lat="42.7194680" lon="-8.6501700">
        <ele>21.5</ele>
        <time>2019-08-17T13:37:10Z</time>
      </trkpt>
      <trkpt lat="42.7194660" lon="-8.6502600">
        <ele>20.8</ele>
        <time>2019-08-17T13:37:11Z</time>
      </trkpt>
      <trkpt lat="42.7194690" lon="-8.6503560">
        <ele>19.9</ele>
        <time>2019-08-17T13:37:12Z</time>
      </trkpt>
      <trkpt lat="42.7194650" lon="-8.6504400">
        <ele>18.9</ele>
        <time>2019-08-17T13:37:13Z</time>
      </trkpt>
      <trkpt lat="42.7194610" lon="-8.6505160">
        <ele>18.4</ele>
        <time>2019-08-17T13:37:14Z</time>
      </trkpt>
      <trkpt lat="42.7194520" lon="-8.6505920">
        <ele>18.0</ele>
        <time>2019-08-17T13:37:15Z</time>
      </trkpt>
      <trkpt lat="42.7194500" lon="-8.6506480">
        <ele>17.7</ele>
        <time>2019-08-17T13:37:16Z</time>
      </trkpt>
      <trkpt lat="42.7194550" lon="-8.6506980">
        <ele>17.5</ele>
        <time>2019-08-17T13:37:17Z</time>
      </trkpt>
      <trkpt lat="42.7194520" lon="-8.6507220">
        <ele>17.3</ele>
        <time>2019-08-17T13:37:18Z</time>
      </trkpt>
      <trkpt lat="42.7194510" lon="-8.6507410">
        <ele>17.2</ele>
        <time>2019-08-17T13:37:19Z</time>
      </trkpt>
      <trkpt lat="42.7194500" lon="-8.6507560">
        <ele>17.1</ele>
        <time>2019-08-17T13:37:20Z</time>
      </trkpt>
      <trkpt lat="42.7194490" lon="-8.6507540">
        <ele>17.1</ele>
        <time>2019-08-17T13:37:21Z</time>
      </trkpt>
      <trkpt lat="42.7194410" lon="-8.6507670">
        <ele>17.0</ele>
        <time>2019-08-17T13:37:37Z</time>
      </trkpt>
      <trkpt lat="42.7194420" lon="-8.6507790">
        <ele>17.0</ele>
        <time>2019-08-17T13:37:38Z</time>
      </trkpt>
      <trkpt lat="42.7194610" lon="-8.6509650">
        <ele>15.9</ele>
        <time>2019-08-17T13:37:43Z</time>
      </trkpt>
      <trkpt lat="42.7195410" lon="-8.6509960">
        <ele>16.0</ele>
        <time>2019-08-17T13:37:47Z</time>
      </trkpt>
      <trkpt lat="42.7195660" lon="-8.6510000">
        <ele>15.9</ele>
        <time>2019-08-17T13:37:48Z</time>
      </trkpt>
      <trkpt lat="42.7195130" lon="-8.6510980">
        <ele>15.6</ele>
        <time>2019-08-17T13:37:53Z</time>
      </trkpt>
      <trkpt lat="42.7192770" lon="-8.6510830">
        <ele>15.1</ele>
        <time>2019-08-17T13:37:58Z</time>
      </trkpt>
      <trkpt lat="42.7188800" lon="-8.6511120">
        <ele>13.6</ele>
        <time>2019-08-17T13:38:05Z</time>
      </trkpt>
      <trkpt lat="42.7187560" lon="-8.6511140">
        <ele>13.3</ele>
        <time>2019-08-17T13:38:07Z</time>
      </trkpt>
      <trkpt lat="42.7186940" lon="-8.6511170">
        <ele>13.2</ele>
        <time>2019-08-17T13:38:08Z</time>
      </trkpt>
      <trkpt lat="42.7186340" lon="-8.6511220">
        <ele>13.0</ele>
        <time>2019-08-17T13:38:09Z</time>
      </trkpt>
      <trkpt lat="42.7185730" lon="-8.6511280">
        <ele>12.9</ele>
        <time>2019-08-17T13:38:10Z</time>
      </trkpt>
      <trkpt lat="42.7185040" lon="-8.6511430">
        <ele>12.7</ele>
        <time>2019-08-17T13:38:11Z</time>
      </trkpt>
      <trkpt lat="42.7183170" lon="-8.6511700">
        <ele>12.3</ele>
        <time>2019-08-17T13:38:14Z</time>
      </trkpt>
      <trkpt lat="42.7177370" lon="-8.6512040">
        <ele>14.0</ele>
        <time>2019-08-17T13:38:23Z</time>
      </trkpt>
      <trkpt lat="42.7175720" lon="-8.6512090">
        <ele>14.4</ele>
        <time>2019-08-17T13:38:26Z</time>
      </trkpt>
      <trkpt lat="42.7171150" lon="-8.6512380">
        <ele>16.3</ele>
        <time>2019-08-17T13:38:35Z</time>
      </trkpt>
      <trkpt lat="42.7169280" lon="-8.6512710">
        <ele>17.0</ele>
        <time>2019-08-17T13:38:39Z</time>
      </trkpt>
      <trkpt lat="42.7168040" lon="-8.6513210">
        <ele>17.1</ele>
        <time>2019-08-17T13:38:42Z</time>
      </trkpt>
      <trkpt lat="42.7165590" lon="-8.6515040">
        <ele>17.3</ele>
        <time>2019-08-17T13:38:49Z</time>
      </trkpt>
      <trkpt lat="42.7164490" lon="-8.6516060">
        <ele>17.0</ele>
        <time>2019-08-17T13:38:53Z</time>
      </trkpt>
      <trkpt lat="42.7164350" lon="-8.6516280">
        <ele>17.0</ele>
        <time>2019-08-17T13:38:54Z</time>
      </trkpt>
      <trkpt lat="42.7164290" lon="-8.6516410">
        <ele>17.0</ele>
        <time>2019-08-17T13:38:55Z</time>
      </trkpt>
      <trkpt lat="42.7164340" lon="-8.6516440">
        <ele>17.0</ele>
        <time>2019-08-17T13:38:56Z</time>
      </trkpt>
      <trkpt lat="42.7164300" lon="-8.6516540">
        <ele>17.0</ele>
        <time>2019-08-17T13:39:24Z</time>
      </trkpt>
      <trkpt lat="42.7163880" lon="-8.6517940">
        <ele>16.4</ele>
        <time>2019-08-17T13:39:27Z</time>
      </trkpt>
      <trkpt lat="42.7161820" lon="-8.6520780">
        <ele>15.5</ele>
        <time>2019-08-17T13:39:35Z</time>
      </trkpt>
      <trkpt lat="42.7160300" lon="-8.6522090">
        <ele>15.5</ele>
        <time>2019-08-17T13:39:41Z</time>
      </trkpt>
      <trkpt lat="42.7159930" lon="-8.6521840">
        <ele>15.5</ele>
        <time>2019-08-17T13:39:42Z</time>
      </trkpt>
      <trkpt lat="42.7159190" lon="-8.6521200">
        <ele>15.7</ele>
        <time>2019-08-17T13:39:46Z</time>
      </trkpt>
      <trkpt lat="42.7159130" lon="-8.6521230">
        <ele>15.7</ele>
        <time>2019-08-17T13:39:48Z</time>
      </trkpt>
      <trkpt lat="42.7159080" lon="-8.6521170">
        <ele>15.7</ele>
        <time>2019-08-17T13:40:20Z</time>
      </trkpt>
      <trkpt lat="42.7159180" lon="-8.6521150">
        <ele>15.7</ele>
        <time>2019-08-17T13:40:21Z</time>
      </trkpt>
      <trkpt lat="42.7160970" lon="-8.6519280">
        <ele>15.4</ele>
        <time>2019-08-18T05:47:10Z</time>
      </trkpt>
      <trkpt lat="42.7158670" lon="-8.6518370">
        <ele>15.9</ele>
        <time>2019-08-18T05:47:16Z</time>
      </trkpt>
      <trkpt lat="42.7159390" lon="-8.6516780">
        <ele>16.3</ele>
        <time>2019-08-18T05:47:23Z</time>
      </trkpt>
      <trkpt lat="42.7161360" lon="-8.6515740">
        <ele>16.7</ele>
        <time>2019-08-18T05:47:31Z</time>
      </trkpt>
      <trkpt lat="42.7163070" lon="-8.6515020">
        <ele>17.0</ele>
        <time>2019-08-18T05:47:38Z</time>
      </trkpt>
      <trkpt lat="42.7164900" lon="-8.6513600">
        <ele>17.3</ele>
        <time>2019-08-18T05:47:44Z</time>
      </trkpt>
      <trkpt lat="42.7166310" lon="-8.6512690">
        <ele>17.4</ele>
        <time>2019-08-18T05:47:49Z</time>
      </trkpt>
      <trkpt lat="42.7169090" lon="-8.6512050">
        <ele>17.0</ele>
        <time>2019-08-18T05:47:58Z</time>
      </trkpt>
      <trkpt lat="42.7171750" lon="-8.6511250">
        <ele>15.8</ele>
        <time>2019-08-18T05:48:06Z</time>
      </trkpt>
      <trkpt lat="42.7175230" lon="-8.6511180">
        <ele>14.5</ele>
        <time>2019-08-18T05:48:15Z</time>
      </trkpt>
      <trkpt lat="42.7175640" lon="-8.6511210">
        <ele>14.4</ele>
        <time>2019-08-18T05:48:16Z</time>
      </trkpt>
      <trkpt lat="42.7176050" lon="-8.6511240">
        <ele>14.3</ele>
        <time>2019-08-18T05:48:17Z</time>
      </trkpt>
      <trkpt lat="42.7176480" lon="-8.6511230">
        <ele>14.3</ele>
        <time>2019-08-18T05:48:18Z</time>
      </trkpt>
      <trkpt lat="42.7176950" lon="-8.6511280">
        <ele>14.2</ele>
        <time>2019-08-18T05:48:19Z</time>
      </trkpt>
      <trkpt lat="42.7178990" lon="-8.6511390">
        <ele>13.1</ele>
        <time>2019-08-18T05:48:24Z</time>
      </trkpt>
      <trkpt lat="42.7181820" lon="-8.6511020">
        <ele>11.9</ele>
        <time>2019-08-18T05:48:32Z</time>
      </trkpt>
      <trkpt lat="42.7184460" lon="-8.6510460">
        <ele>12.6</ele>
        <time>2019-08-18T05:48:39Z</time>
      </trkpt>
      <trkpt lat="42.7187200" lon="-8.6510070">
        <ele>13.5</ele>
        <time>2019-08-18T05:48:46Z</time>
      </trkpt>
      <trkpt lat="42.7189640" lon="-8.6509970">
        <ele>14.0</ele>
        <time>2019-08-18T05:48:53Z</time>
      </trkpt>
      <trkpt lat="42.7190380" lon="-8.6509890">
        <ele>14.3</ele>
        <time>2019-08-18T05:48:55Z</time>
      </trkpt>
      <trkpt lat="42.7192390" lon="-8.6509230">
        <ele>15.5</ele>
        <time>2019-08-18T05:49:02Z</time>
      </trkpt>
      <trkpt lat="42.7192760" lon="-8.6507530">
        <ele>17.0</ele>
        <time>2019-08-18T05:49:07Z</time>
      </trkpt>
      <trkpt lat="42.7192770" lon="-8.6507180">
        <ele>17.2</ele>
        <time>2019-08-18T05:49:08Z</time>
      </trkpt>
      <trkpt lat="42.7192760" lon="-8.6506580">
        <ele>17.5</ele>
        <time>2019-08-18T05:49:10Z</time>
      </trkpt>
      <trkpt lat="42.7192740" lon="-8.6506310">
        <ele>17.7</ele>
        <time>2019-08-18T05:49:11Z</time>
      </trkpt>
      <trkpt lat="42.7192820" lon="-8.6506040">
        <ele>17.9</ele>
        <time>2019-08-18T05:49:12Z</time>
      </trkpt>
      <trkpt lat="42.7192890" lon="-8.6505760">
        <ele>18.0</ele>
        <time>2019-08-18T05:49:13Z</time>
      </trkpt>
      <trkpt lat="42.7192940" lon="-8.6505460">
        <ele>18.2</ele>
        <time>2019-08-18T05:49:14Z</time>
      </trkpt>
      <trkpt lat="42.7193750" lon="-8.6502220">
        <ele>21.0</ele>
        <time>2019-08-18T05:49:24Z</time>
      </trkpt>
      <trkpt lat="42.7194060" lon="-8.6501920">
        <ele>21.4</ele>
        <time>2019-08-18T05:49:25Z</time>
      </trkpt>
      <trkpt lat="42.7194110" lon="-8.6501580">
        <ele>21.7</ele>
        <time>2019-08-18T05:49:26Z</time>
      </trkpt>
      <trkpt lat="42.7194230" lon="-8.6501310">
        <ele>21.9</ele>
        <time>2019-08-18T05:49:27Z</time>
      </trkpt>
      <trkpt lat="42.7194330" lon="-8.6501030">
        <ele>22.1</ele>
        <time>2019-08-18T05:49:28Z</time>
      </trkpt>
      <trkpt lat="42.7194460" lon="-8.6500020">
        <ele>22.8</ele>
        <time>2019-08-18T05:49:31Z</time>
      </trkpt>
      <trkpt lat="42.7194520" lon="-8.6499100">
        <ele>23.6</ele>
        <time>2019-08-18T05:49:34Z</time>
      </trkpt>
      <trkpt lat="42.7194590" lon="-8.6498790">
        <ele>23.8</ele>
        <time>2019-08-18T05:49:35Z</time>
      </trkpt>
      <trkpt lat="42.7194630" lon="-8.6498460">
        <ele>24.1</ele>
        <time>2019-08-18T05:49:36Z</time>
      </trkpt>
      <trkpt lat="42.7194640" lon="-8.6498110">
        <ele>24.4</ele>
        <time>2019-08-18T05:49:37Z</time>
      </trkpt>
      <trkpt lat="42.7194620" lon="-8.6497760">
        <ele>24.6</ele>
        <time>2019-08-18T05:49:38Z</time>
      </trkpt>
      <trkpt lat="42.7194550" lon="-8.6497110">
        <ele>25.1</ele>
        <time>2019-08-18T05:49:40Z</time>
      </trkpt>
      <trkpt lat="42.7194750" lon="-8.6495370">
        <ele>26.3</ele>
        <time>2019-08-18T05:49:46Z</time>
      </trkpt>
      <trkpt lat="42.7194800" lon="-8.6495070">
        <ele>26.5</ele>
        <time>2019-08-18T05:49:47Z</time>
      </trkpt>
      <trkpt lat="42.7194910" lon="-8.6494810">
        <ele>26.6</ele>
        <time>2019-08-18T05:49:48Z</time>
      </trkpt>
      <trkpt lat="42.7194960" lon="-8.6494520">
        <ele>26.7</ele>
        <time>2019-08-18T05:49:49Z</time>
      </trkpt>
      <trkpt lat="42.7195070" lon="-8.6494240">
        <ele>26.8</ele>
        <time>2019-08-18T05:49:50Z</time>
      </trkpt>
      <trkpt lat="42.7196140" lon="-8.6491620">
        <ele>27.7</ele>
        <time>2019-08-18T05:49:59Z</time>
      </trkpt>
      <trkpt lat="42.7196170" lon="-8.6491360">
        <ele>27.8</ele>
        <time>2019-08-18T05:50:00Z</time>
      </trkpt>
      <trkpt lat="42.7196320" lon="-8.6491190">
        <ele>27.9</ele>
        <time>2019-08-18T05:50:01Z</time>
      </trkpt>
      <trkpt lat="42.7196570" lon="-8.6491040">
        <ele>28.0</ele>
        <time>2019-08-18T05:50:02Z</time>
      </trkpt>
      <trkpt lat="42.7196860" lon="-8.6491140">
        <ele>28.4</ele>
        <time>2019-08-18T05:50:03Z</time>
      </trkpt>
      <trkpt lat="42.7197070" lon="-8.6491260">
        <ele>28.5</ele>
        <time>2019-08-18T05:50:04Z</time>
      </trkpt>
      <trkpt lat="42.7197700" lon="-8.6493530">
        <ele>29.6</ele>
        <time>2019-08-18T05:50:11Z</time>
      </trkpt>
      <trkpt lat="42.7197760" lon="-8.6493890">
        <ele>29.8</ele>
        <time>2019-08-18T05:50:12Z</time>
      </trkpt>
      <trkpt lat="42.7197850" lon="-8.6494190">
        <ele>30.0</ele>
        <time>2019-08-18T05:50:13Z</time>
      </trkpt>
      <trkpt lat="42.7197970" lon="-8.6494490">
        <ele>30.1</ele>
        <time>2019-08-18T05:50:14Z</time>
      </trkpt>
      <trkpt lat="42.7198080" lon="-8.6494710">
        <ele>30.2</ele>
        <time>2019-08-18T05:50:15Z</time>
      </trkpt>
      <trkpt lat="42.7198210" lon="-8.6494950">
        <ele>30.3</ele>
        <time>2019-08-18T05:50:16Z</time>
      </trkpt>
      <trkpt lat="42.7198730" lon="-8.6495540">
        <ele>30.6</ele>
        <time>2019-08-18T05:50:19Z</time>
      </trkpt>
      <trkpt lat="42.7199990" lon="-8.6495910">
        <ele>31.4</ele>
        <time>2019-08-18T05:50:26Z</time>
      </trkpt>
      <trkpt lat="42.7200110" lon="-8.6495810">
        <ele>31.5</ele>
        <time>2019-08-18T05:50:27Z</time>
      </trkpt>
      <trkpt lat="42.7200250" lon="-8.6495740">
        <ele>31.5</ele>
        <time>2019-08-18T05:50:28Z</time>
      </trkpt>
      <trkpt lat="42.7200490" lon="-8.6495620">
        <ele>31.6</ele>
        <time>2019-08-18T05:50:29Z</time>
      </trkpt>
      <trkpt lat="42.7200640" lon="-8.6495540">
        <ele>31.7</ele>
        <time>2019-08-18T05:50:30Z</time>
      </trkpt>
      <trkpt lat="42.7201560" lon="-8.6495160">
        <ele>32.0</ele>
        <time>2019-08-18T05:50:35Z</time>
      </trkpt>
      <trkpt lat="42.7201950" lon="-8.6495410">
        <ele>32.2</ele>
        <time>2019-08-18T05:50:37Z</time>
      </trkpt>
      <trkpt lat="42.7201920" lon="-8.6495480">
        <ele>32.2</ele>
        <time>2019-08-18T05:50:38Z</time>
      </trkpt>
      <trkpt lat="42.7202000" lon="-8.6495660">
        <ele>32.3</ele>
        <time>2019-08-18T05:50:39Z</time>
      </trkpt>
      <trkpt lat="42.7202120" lon="-8.6495850">
        <ele>32.4</ele>
        <time>2019-08-18T05:50:40Z</time>
      </trkpt>
      <trkpt lat="42.7202250" lon="-8.6496030">
        <ele>32.5</ele>
        <time>2019-08-18T05:50:41Z</time>
      </trkpt>
      <trkpt lat="42.7202190" lon="-8.6496870">
        <ele>32.7</ele>
        <time>2019-08-18T05:50:46Z</time>
      </trkpt>
      <trkpt lat="42.7202240" lon="-8.6496970">
        <ele>32.7</ele>
        <time>2019-08-18T05:50:47Z</time>
      </trkpt>
      <trkpt lat="42.7203050" lon="-8.6497300">
        <ele>32.9</ele>
        <time>2019-08-18T05:50:50Z</time>
      </trkpt>
      <trkpt lat="42.7203250" lon="-8.6497430">
        <ele>32.9</ele>
        <time>2019-08-18T05:50:51Z</time>
      </trkpt>
      <trkpt lat="42.7203390" lon="-8.6497630">
        <ele>32.9</ele>
        <time>2019-08-18T05:50:52Z</time>
      </trkpt>
      <trkpt lat="42.7203670" lon="-8.6497900">
        <ele>32.9</ele>
        <time>2019-08-18T05:50:53Z</time>
      </trkpt>
      <trkpt lat="42.7203910" lon="-8.6498120">
        <ele>33.0</ele>
        <time>2019-08-18T05:50:54Z</time>
      </trkpt>
      <trkpt lat="42.7205270" lon="-8.6498980">
        <ele>33.0</ele>
        <time>2019-08-18T05:51:01Z</time>
      </trkpt>
      <trkpt lat="42.7205350" lon="-8.6498910">
        <ele>33.0</ele>
        <time>2019-08-18T05:51:04Z</time>
      </trkpt>
      <trkpt lat="42.7205440" lon="-8.6499030">
        <ele>33.0</ele>
        <time>2019-08-18T05:51:16Z</time>
      </trkpt>
      <trkpt lat="42.7205590" lon="-8.6499300">
        <ele>33.0</ele>
        <time>2019-08-18T05:51:18Z</time>
      </trkpt>
      <trkpt lat="42.7206930" lon="-8.6500410">
        <ele>33.1</ele>
        <time>2019-08-18T05:51:24Z</time>
      </trkpt>
      <trkpt lat="42.7208630" lon="-8.6501420">
        <ele>33.4</ele>
        <time>2019-08-18T05:51:29Z</time>
      </trkpt>
      <trkpt lat="42.7209360" lon="-8.6501820">
        <ele>33.7</ele>
        <time>2019-08-18T05:51:31Z</time>
      </trkpt>
      <trkpt lat="42.7209800" lon="-8.6501740">
        <ele>33.8</ele>
        <time>2019-08-18T05:51:32Z</time>
      </trkpt>
      <trkpt lat="42.7210170" lon="-8.6501740">
        <ele>33.9</ele>
        <time>2019-08-18T05:51:33Z</time>
      </trkpt>
      <trkpt lat="42.7210550" lon="-8.6501700">
        <ele>34.0</ele>
        <time>2019-08-18T05:51:34Z</time>
      </trkpt>
      <trkpt lat="42.7210950" lon="-8.6501650">
        <ele>34.1</ele>
        <time>2019-08-18T05:51:35Z</time>
      </trkpt>
      <trkpt lat="42.7212620" lon="-8.6501030">
        <ele>34.4</ele>
        <time>2019-08-18T05:51:39Z</time>
      </trkpt>
      <trkpt lat="42.7215270" lon="-8.6500280">
        <ele>34.6</ele>
        <time>2019-08-18T05:51:46Z</time>
      </trkpt>
      <trkpt lat="42.7215470" lon="-8.6500110">
        <ele>34.7</ele>
        <time>2019-08-18T05:51:47Z</time>
      </trkpt>
      <trkpt lat="42.7215730" lon="-8.6499960">
        <ele>34.7</ele>
        <time>2019-08-18T05:51:48Z</time>
      </trkpt>
      <trkpt lat="42.7215980" lon="-8.6499790">
        <ele>34.7</ele>
        <time>2019-08-18T05:51:49Z</time>
      </trkpt>
      <trkpt lat="42.7216200" lon="-8.6499640">
        <ele>34.7</ele>
        <time>2019-08-18T05:51:50Z</time>
      </trkpt>
      <trkpt lat="42.7216450" lon="-8.6499520">
        <ele>34.8</ele>
        <time>2019-08-18T05:51:51Z</time>
      </trkpt>
      <trkpt lat="42.7216730" lon="-8.6499410">
        <ele>34.8</ele>
        <time>2019-08-18T05:51:52Z</time>
      </trkpt>
      <trkpt lat="42.7218880" lon="-8.6498240">
        <ele>34.9</ele>
        <time>2019-08-18T05:52:01Z</time>
      </trkpt>
      <trkpt lat="42.7220990" lon="-8.6498100">
        <ele>34.8</ele>
        <time>2019-08-18T05:52:09Z</time>
      </trkpt>
      <trkpt lat="42.7222370" lon="-8.6499430">
        <ele>34.7</ele>
        <time>2019-08-18T05:52:15Z</time>
      </trkpt>
      <trkpt lat="42.7224210" lon="-8.6500450">
        <ele>34.1</ele>
        <time>2019-08-18T05:52:21Z</time>
      </trkpt>
      <trkpt lat="42.7225980" lon="-8.6501480">
        <ele>32.6</ele>
        <time>2019-08-18T05:52:28Z</time>
      </trkpt>
      <trkpt lat="42.7227060" lon="-8.6501810">
        <ele>31.0</ele>
        <time>2019-08-18T05:52:30Z</time>
      </trkpt>
      <trkpt lat="42.7228340" lon="-8.6501840">
        <ele>29.3</ele>
        <time>2019-08-18T05:52:32Z</time>
      </trkpt>
      <trkpt lat="42.7228930" lon="-8.6501920">
        <ele>28.6</ele>
        <time>2019-08-18T05:52:33Z</time>
      </trkpt>
      <trkpt lat="42.7229490" lon="-8.6502020">
        <ele>28.0</ele>
        <time>2019-08-18T05:52:34Z</time>
      </trkpt>
      <trkpt lat="42.7230110" lon="-8.6502310">
        <ele>27.3</ele>
        <time>2019-08-18T05:52:35Z</time>
      </trkpt>
      <trkpt lat="42.7230570" lon="-8.6502580">
        <ele>26.8</ele>
        <time>2019-08-18T05:52:36Z</time>
      </trkpt>
      <trkpt lat="42.7230970" lon="-8.6502950">
        <ele>26.4</ele>
        <time>2019-08-18T05:52:37Z</time>
      </trkpt>
      <trkpt lat="42.7231320" lon="-8.6503300">
        <ele>26.0</ele>
        <time>2019-08-18T05:52:38Z</time>
      </trkpt>
      <trkpt lat="42.7231690" lon="-8.6503680">
        <ele>25.5</ele>
        <time>2019-08-18T05:52:39Z</time>
      </trkpt>
      <trkpt lat="42.7232140" lon="-8.6504160">
        <ele>25.0</ele>
        <time>2019-08-18T05:52:40Z</time>
      </trkpt>
      <trkpt lat="42.7232610" lon="-8.6504610">
        <ele>24.5</ele>
        <time>2019-08-18T05:52:41Z</time>
      </trkpt>
      <trkpt lat="42.7233080" lon="-8.6505010">
        <ele>24.0</ele>
        <time>2019-08-18T05:52:42Z</time>
      </trkpt>
      <trkpt lat="42.7233650" lon="-8.6505390">
        <ele>23.3</ele>
        <time>2019-08-18T05:52:43Z</time>
      </trkpt>
      <trkpt lat="42.7234230" lon="-8.6505480">
        <ele>22.8</ele>
        <time>2019-08-18T05:52:44Z</time>
      </trkpt>
      <trkpt lat="42.7234760" lon="-8.6505590">
        <ele>22.4</ele>
        <time>2019-08-18T05:52:45Z</time>
      </trkpt>
      <trkpt lat="42.7235310" lon="-8.6505730">
        <ele>21.9</ele>
        <time>2019-08-18T05:52:46Z</time>
      </trkpt>
      <trkpt lat="42.7235840" lon="-8.6505830">
        <ele>21.5</ele>
        <time>2019-08-18T05:52:47Z</time>
      </trkpt>
      <trkpt lat="42.7236330" lon="-8.6505840">
        <ele>21.1</ele>
        <time>2019-08-18T05:52:48Z</time>
      </trkpt>
      <trkpt lat="42.7236840" lon="-8.6505820">
        <ele>20.6</ele>
        <time>2019-08-18T05:52:49Z</time>
      </trkpt>
      <trkpt lat="42.7237270" lon="-8.6505770">
        <ele>20.3</ele>
        <time>2019-08-18T05:52:50Z</time>
      </trkpt>
      <trkpt lat="42.7237640" lon="-8.6505650">
        <ele>20.0</ele>
        <time>2019-08-18T05:52:51Z</time>
      </trkpt>
      <trkpt lat="42.7237980" lon="-8.6505490">
        <ele>19.7</ele>
        <time>2019-08-18T05:52:52Z</time>
      </trkpt>
      <trkpt lat="42.7238340" lon="-8.6505340">
        <ele>19.4</ele>
        <time>2019-08-18T05:52:53Z</time>
      </trkpt>
      <trkpt lat="42.7238640" lon="-8.6505240">
        <ele>19.2</ele>
        <time>2019-08-18T05:52:54Z</time>
      </trkpt>
      <trkpt lat="42.7238950" lon="-8.6505090">
        <ele>18.9</ele>
        <time>2019-08-18T05:52:55Z</time>
      </trkpt>
      <trkpt lat="42.7239310" lon="-8.6505080">
        <ele>18.6</ele>
        <time>2019-08-18T05:52:56Z</time>
      </trkpt>
      <trkpt lat="42.7239620" lon="-8.6505200">
        <ele>18.3</ele>
        <time>2019-08-18T05:52:57Z</time>
      </trkpt>
      <trkpt lat="42.7240160" lon="-8.6505400">
        <ele>17.3</ele>
        <time>2019-08-18T05:52:58Z</time>
      </trkpt>
      <trkpt lat="42.7240650" lon="-8.6505480">
        <ele>17.5</ele>
        <time>2019-08-18T05:52:59Z</time>
      </trkpt>
      <trkpt lat="42.7241080" lon="-8.6505410">
        <ele>17.7</ele>
        <time>2019-08-18T05:53:00Z</time>
      </trkpt>
      <trkpt lat="42.7241390" lon="-8.6505270">
        <ele>17.9</ele>
        <time>2019-08-18T05:53:01Z</time>
      </trkpt>
      <trkpt lat="42.7241820" lon="-8.6505240">
        <ele>18.1</ele>
        <time>2019-08-18T05:53:02Z</time>
      </trkpt>
      <trkpt lat="42.7243480" lon="-8.6505160">
        <ele>18.6</ele>
        <time>2019-08-18T05:53:07Z</time>
      </trkpt>
      <trkpt lat="42.7245740" lon="-8.6504800">
        <ele>19.2</ele>
        <time>2019-08-18T05:53:13Z</time>
      </trkpt>
      <trkpt lat="42.7248040" lon="-8.6504050">
        <ele>19.1</ele>
        <time>2019-08-18T05:53:18Z</time>
      </trkpt>
      <trkpt lat="42.7248620" lon="-8.6503920">
        <ele>19.1</ele>
        <time>2019-08-18T05:53:19Z</time>
      </trkpt>
      <trkpt lat="42.7249170" lon="-8.6504050">
        <ele>19.0</ele>
        <time>2019-08-18T05:53:20Z</time>
      </trkpt>
      <trkpt lat="42.7249710" lon="-8.6504170">
        <ele>18.9</ele>
        <time>2019-08-18T05:53:21Z</time>
      </trkpt>
      <trkpt lat="42.7250220" lon="-8.6504330">
        <ele>18.7</ele>
        <time>2019-08-18T05:53:22Z</time>
      </trkpt>
      <trkpt lat="42.7250720" lon="-8.6504200">
        <ele>18.4</ele>
        <time>2019-08-18T05:53:23Z</time>
      </trkpt>
      <trkpt lat="42.7251660" lon="-8.6503860">
        <ele>17.9</ele>
        <time>2019-08-18T05:53:25Z</time>
      </trkpt>
      <trkpt lat="42.7252050" lon="-8.6503980">
        <ele>17.7</ele>
        <time>2019-08-18T05:53:26Z</time>
      </trkpt>
      <trkpt lat="42.7252490" lon="-8.6504100">
        <ele>17.5</ele>
        <time>2019-08-18T05:53:27Z</time>
      </trkpt>
      <trkpt lat="42.7252920" lon="-8.6504360">
        <ele>17.3</ele>
        <time>2019-08-18T05:53:28Z</time>
      </trkpt>
      <trkpt lat="42.7253320" lon="-8.6504660">
        <ele>17.1</ele>
        <time>2019-08-18T05:53:29Z</time>
      </trkpt>
      <trkpt lat="42.7254540" lon="-8.6505150">
        <ele>16.4</ele>
        <time>2019-08-18T05:53:31Z</time>
      </trkpt>
      <trkpt lat="42.7255060" lon="-8.6505290">
        <ele>16.2</ele>
        <time>2019-08-18T05:53:32Z</time>
      </trkpt>
      <trkpt lat="42.7255580" lon="-8.6505320">
        <ele>15.9</ele>
        <time>2019-08-18T05:53:33Z</time>
      </trkpt>
      <trkpt lat="42.7256080" lon="-8.6505370">
        <ele>15.8</ele>
        <time>2019-08-18T05:53:34Z</time>
      </trkpt>
      <trkpt lat="42.7256620" lon="-8.6505580">
        <ele>15.7</ele>
        <time>2019-08-18T05:53:35Z</time>
      </trkpt>
      <trkpt lat="42.7257650" lon="-8.6506500">
        <ele>14.4</ele>
        <time>2019-08-18T05:53:38Z</time>
      </trkpt>
      <trkpt lat="42.7257910" lon="-8.6506810">
        <ele>14.0</ele>
        <time>2019-08-18T05:53:39Z</time>
      </trkpt>
      <trkpt lat="42.7258150" lon="-8.6507000">
        <ele>13.7</ele>
        <time>2019-08-18T05:53:40Z</time>
      </trkpt>
      <trkpt lat="42.7258390" lon="-8.6507190">
        <ele>13.5</ele>
        <time>2019-08-18T05:53:41Z</time>
      </trkpt>
      <trkpt lat="42.7258710" lon="-8.6507440">
        <ele>13.2</ele>
        <time>2019-08-18T05:53:42Z</time>
      </trkpt>
      <trkpt lat="42.7259620" lon="-8.6508030">
        <ele>12.3</ele>
        <time>2019-08-18T05:53:44Z</time>
      </trkpt>
      <trkpt lat="42.7260640" lon="-8.6508190">
        <ele>11.5</ele>
        <time>2019-08-18T05:53:45Z</time>
      </trkpt>
      <trkpt lat="42.7260810" lon="-8.6509050">
        <ele>10.9</ele>
        <time>2019-08-18T05:53:47Z</time>
      </trkpt>
      <trkpt lat="42.7260370" lon="-8.6509970">
        <ele>10.2</ele>
        <time>2019-08-18T05:53:48Z</time>
      </trkpt>
      <trkpt lat="42.7260150" lon="-8.6510390">
        <ele>10.0</ele>
        <time>2019-08-18T05:53:49Z</time>
      </trkpt>
      <trkpt lat="42.7259930" lon="-8.6510820">
        <ele>9.8</ele>
        <time>2019-08-18T05:53:50Z</time>
      </trkpt>
      <trkpt lat="42.7259710" lon="-8.6511240">
        <ele>9.6</ele>
        <time>2019-08-18T05:53:51Z</time>
      </trkpt>
      <trkpt lat="42.7259590" lon="-8.6511790">
        <ele>9.3</ele>
        <time>2019-08-18T05:53:52Z</time>
      </trkpt>
      <trkpt lat="42.7259030" lon="-8.6514680">
        <ele>8.2</ele>
        <time>2019-08-18T05:53:58Z</time>
      </trkpt>
      <trkpt lat="42.7258190" lon="-8.6517120">
        <ele>7.4</ele>
        <time>2019-08-18T05:54:02Z</time>
      </trkpt>
      <trkpt lat="42.7257050" lon="-8.6522110">
        <ele>6.8</ele>
        <time>2019-08-18T05:54:09Z</time>
      </trkpt>
      <trkpt lat="42.7256750" lon="-8.6523830">
        <ele>6.7</ele>
        <time>2019-08-18T05:54:12Z</time>
      </trkpt>
      <trkpt lat="42.7256360" lon="-8.6524500">
        <ele>6.6</ele>
        <time>2019-08-18T05:54:14Z</time>
      </trkpt>
      <trkpt lat="42.7255790" lon="-8.6525080">
        <ele>6.6</ele>
        <time>2019-08-18T05:54:16Z</time>
      </trkpt>
      <trkpt lat="42.7255380" lon="-8.6525220">
        <ele>6.6</ele>
        <time>2019-08-18T05:54:17Z</time>
      </trkpt>
      <trkpt lat="42.7254770" lon="-8.6524750">
        <ele>6.6</ele>
        <time>2019-08-18T05:54:18Z</time>
      </trkpt>
      <trkpt lat="42.7254400" lon="-8.6524560">
        <ele>6.5</ele>
        <time>2019-08-18T05:54:19Z</time>
      </trkpt>
      <trkpt lat="42.7254020" lon="-8.6524560">
        <ele>6.4</ele>
        <time>2019-08-18T05:54:20Z</time>
      </trkpt>
      <trkpt lat="42.7254020" lon="-8.6525470">
        <ele>6.3</ele>
        <time>2019-08-18T05:54:22Z</time>
      </trkpt>
      <trkpt lat="42.7254020" lon="-8.6525910">
        <ele>6.3</ele>
        <time>2019-08-18T05:54:23Z</time>
      </trkpt>
      <trkpt lat="42.7254420" lon="-8.6528600">
        <ele>5.8</ele>
        <time>2019-08-18T05:54:28Z</time>
      </trkpt>
      <trkpt lat="42.7254550" lon="-8.6529130">
        <ele>5.7</ele>
        <time>2019-08-18T05:54:29Z</time>
      </trkpt>
      <trkpt lat="42.7255040" lon="-8.6530590">
        <ele>5.5</ele>
        <time>2019-08-18T05:54:34Z</time>
      </trkpt>
      <trkpt lat="42.7255090" lon="-8.6530790">
        <ele>5.5</ele>
        <time>2019-08-18T05:54:35Z</time>
      </trkpt>
      <trkpt lat="42.7255010" lon="-8.6531470">
        <ele>5.4</ele>
        <time>2019-08-18T05:54:37Z</time>
      </trkpt>
      <trkpt lat="42.7255050" lon="-8.6531870">
        <ele>5.4</ele>
        <time>2019-08-18T05:54:38Z</time>
      </trkpt>
      <trkpt lat="42.7255260" lon="-8.6532740">
        <ele>5.4</ele>
        <time>2019-08-18T05:54:40Z</time>
      </trkpt>
      <trkpt lat="42.7255570" lon="-8.6535340">
        <ele>5.0</ele>
        <time>2019-08-18T05:54:45Z</time>
      </trkpt>
      <trkpt lat="42.7255970" lon="-8.6537540">
        <ele>5.1</ele>
        <time>2019-08-18T05:54:49Z</time>
      </trkpt>
      <trkpt lat="42.7255950" lon="-8.6538820">
        <ele>5.3</ele>
        <time>2019-08-18T05:54:51Z</time>
      </trkpt>
      <trkpt lat="42.7255170" lon="-8.6544810">
        <ele>5.4</ele>
        <time>2019-08-18T05:55:00Z</time>
      </trkpt>
      <trkpt lat="42.7254540" lon="-8.6552200">
        <ele>4.7</ele>
        <time>2019-08-18T05:55:11Z</time>
      </trkpt>
      <trkpt lat="42.7254220" lon="-8.6556890">
        <ele>5.2</ele>
        <time>2019-08-18T05:55:19Z</time>
      </trkpt>
      <trkpt lat="42.7254420" lon="-8.6557490">
        <ele>5.2</ele>
        <time>2019-08-18T05:55:20Z</time>
      </trkpt>
      <trkpt lat="42.7255180" lon="-8.6558830">
        <ele>5.7</ele>
        <time>2019-08-18T05:55:23Z</time>
      </trkpt>
      <trkpt lat="42.7255570" lon="-8.6559110">
        <ele>5.8</ele>
        <time>2019-08-18T05:55:24Z</time>
      </trkpt>
      <trkpt lat="42.7257000" lon="-8.6559650">
        <ele>5.9</ele>
        <time>2019-08-18T05:55:27Z</time>
      </trkpt>
      <trkpt lat="42.7257450" lon="-8.6559840">
        <ele>5.9</ele>
        <time>2019-08-18T05:55:28Z</time>
      </trkpt>
      <trkpt lat="42.7261440" lon="-8.6561210">
        <ele>6.1</ele>
        <time>2019-08-18T05:55:36Z</time>
      </trkpt>
      <trkpt lat="42.7266380" lon="-8.6563160">
        <ele>6.3</ele>
        <time>2019-08-18T05:55:46Z</time>
      </trkpt>
      <trkpt lat="42.7271340" lon="-8.6565030">
        <ele>6.4</ele>
        <time>2019-08-18T05:55:57Z</time>
      </trkpt>
      <trkpt lat="42.7275080" lon="-8.6566860">
        <ele>6.5</ele>
        <time>2019-08-18T05:56:06Z</time>
      </trkpt>
      <trkpt lat="42.7279580" lon="-8.6568800">
        <ele>6.3</ele>
        <time>2019-08-18T05:56:16Z</time>
      </trkpt>
      <trkpt lat="42.7283560" lon="-8.6570210">
        <ele>6.3</ele>
        <time>2019-08-18T05:56:24Z</time>
      </trkpt>
      <trkpt lat="42.7287410" lon="-8.6571790">
        <ele>6.2</ele>
        <time>2019-08-18T05:56:32Z</time>
      </trkpt>
      <trkpt lat="42.7291720" lon="-8.6573540">
        <ele>6.2</ele>
        <time>2019-08-18T05:56:41Z</time>
      </trkpt>
      <trkpt lat="42.7294130" lon="-8.6574570">
        <ele>6.2</ele>
        <time>2019-08-18T05:56:46Z</time>
      </trkpt>
      <trkpt lat="42.7296020" lon="-8.6575390">
        <ele>6.2</ele>
        <time>2019-08-18T05:56:50Z</time>
      </trkpt>
      <trkpt lat="42.7300510" lon="-8.6577540">
        <ele>5.9</ele>
        <time>2019-08-18T05:57:00Z</time>
      </trkpt>
      <trkpt lat="42.7303980" lon="-8.6579260">
        <ele>5.2</ele>
        <time>2019-08-18T05:57:08Z</time>
      </trkpt>
      <trkpt lat="42.7307760" lon="-8.6580860">
        <ele>5.2</ele>
        <time>2019-08-18T05:57:18Z</time>
      </trkpt>
      <trkpt lat="42.7310570" lon="-8.6581650">
        <ele>5.4</ele>
        <time>2019-08-18T05:57:26Z</time>
      </trkpt>
      <trkpt lat="42.7312470" lon="-8.6582070">
        <ele>5.6</ele>
        <time>2019-08-18T05:57:32Z</time>
      </trkpt>
      <trkpt lat="42.7315020" lon="-8.6583170">
        <ele>5.6</ele>
        <time>2019-08-18T05:57:39Z</time>
      </trkpt>
      <trkpt lat="42.7317170" lon="-8.6583910">
        <ele>5.6</ele>
        <time>2019-08-18T05:57:46Z</time>
      </trkpt>
      <trkpt lat="42.7319970" lon="-8.6585270">
        <ele>5.7</ele>
        <time>2019-08-18T05:57:55Z</time>
      </trkpt>
      <trkpt lat="42.7322630" lon="-8.6586670">
        <ele>6.1</ele>
        <time>2019-08-18T05:58:03Z</time>
      </trkpt>
      <trkpt lat="42.7324830" lon="-8.6587380">
        <ele>6.6</ele>
        <time>2019-08-18T05:58:10Z</time>
      </trkpt>
      <trkpt lat="42.7327640" lon="-8.6588560">
        <ele>6.7</ele>
        <time>2019-08-18T05:58:19Z</time>
      </trkpt>
      <trkpt lat="42.7330240" lon="-8.6589690">
        <ele>6.7</ele>
        <time>2019-08-18T05:58:28Z</time>
      </trkpt>
      <trkpt lat="42.7331950" lon="-8.6590480">
        <ele>6.8</ele>
        <time>2019-08-18T05:58:35Z</time>
      </trkpt>
      <trkpt lat="42.7334920" lon="-8.6591860">
        <ele>7.4</ele>
        <time>2019-08-18T05:58:44Z</time>
      </trkpt>
      <trkpt lat="42.7338210" lon="-8.6593400">
        <ele>7.8</ele>
        <time>2019-08-18T05:58:52Z</time>
      </trkpt>
      <trkpt lat="42.7341130" lon="-8.6594180">
        <ele>8.3</ele>
        <time>2019-08-18T05:58:59Z</time>
      </trkpt>
      <trkpt lat="42.7343920" lon="-8.6595140">
        <ele>8.3</ele>
        <time>2019-08-18T05:59:06Z</time>
      </trkpt>
      <trkpt lat="42.7347640" lon="-8.6596520">
        <ele>8.4</ele>
        <time>2019-08-18T05:59:15Z</time>
      </trkpt>
      <trkpt lat="42.7350510" lon="-8.6597770">
        <ele>8.7</ele>
        <time>2019-08-18T05:59:23Z</time>
      </trkpt>
      <trkpt lat="42.7353530" lon="-8.6598550">
        <ele>8.7</ele>
        <time>2019-08-18T05:59:31Z</time>
      </trkpt>
      <trkpt lat="42.7354480" lon="-8.6598760">
        <ele>8.7</ele>
        <time>2019-08-18T05:59:33Z</time>
      </trkpt>
      <trkpt lat="42.7354980" lon="-8.6598910">
        <ele>8.7</ele>
        <time>2019-08-18T05:59:34Z</time>
      </trkpt>
      <trkpt lat="42.7355430" lon="-8.6598990">
        <ele>8.7</ele>
        <time>2019-08-18T05:59:35Z</time>
      </trkpt>
      <trkpt lat="42.7356420" lon="-8.6599250">
        <ele>8.7</ele>
        <time>2019-08-18T05:59:37Z</time>
      </trkpt>
      <trkpt lat="42.7357300" lon="-8.6599430">
        <ele>8.7</ele>
        <time>2019-08-18T05:59:39Z</time>
      </trkpt>
      <trkpt lat="42.7358250" lon="-8.6599550">
        <ele>8.9</ele>
        <time>2019-08-18T05:59:41Z</time>
      </trkpt>
      <trkpt lat="42.7360270" lon="-8.6599600">
        <ele>9.2</ele>
        <time>2019-08-18T05:59:45Z</time>
      </trkpt>
      <trkpt lat="42.7362220" lon="-8.6599660">
        <ele>9.4</ele>
        <time>2019-08-18T05:59:49Z</time>
      </trkpt>
      <trkpt lat="42.7363710" lon="-8.6600370">
        <ele>9.6</ele>
        <time>2019-08-18T05:59:52Z</time>
      </trkpt>
      <trkpt lat="42.7365540" lon="-8.6601930">
        <ele>9.8</ele>
        <time>2019-08-18T05:59:56Z</time>
      </trkpt>
      <trkpt lat="42.7365890" lon="-8.6602430">
        <ele>9.9</ele>
        <time>2019-08-18T05:59:57Z</time>
      </trkpt>
      <trkpt lat="42.7366560" lon="-8.6604950">
        <ele>9.9</ele>
        <time>2019-08-18T06:00:01Z</time>
      </trkpt>
      <trkpt lat="42.7366610" lon="-8.6605610">
        <ele>9.9</ele>
        <time>2019-08-18T06:00:02Z</time>
      </trkpt>
      <trkpt lat="42.7366630" lon="-8.6608500">
        <ele>9.6</ele>
        <time>2019-08-18T06:00:07Z</time>
      </trkpt>
      <trkpt lat="42.7366650" lon="-8.6612790">
        <ele>9.5</ele>
        <time>2019-08-18T06:00:15Z</time>
      </trkpt>
      <trkpt lat="42.7367780" lon="-8.6614120">
        <ele>9.6</ele>
        <time>2019-08-18T06:00:20Z</time>
      </trkpt>
      <trkpt lat="42.7368570" lon="-8.6613840">
        <ele>9.7</ele>
        <time>2019-08-18T06:00:22Z</time>
      </trkpt>
      <trkpt lat="42.7368910" lon="-8.6613810">
        <ele>9.7</ele>
        <time>2019-08-18T06:00:23Z</time>
      </trkpt>
      <trkpt lat="42.7371040" lon="-8.6613710">
        <ele>9.9</ele>
        <time>2019-08-18T06:00:30Z</time>
      </trkpt>
      <trkpt lat="42.7373470" lon="-8.6614140">
        <ele>10.1</ele>
        <time>2019-08-18T06:00:39Z</time>
      </trkpt>
      <trkpt lat="42.7375400" lon="-8.6614210">
        <ele>10.3</ele>
        <time>2019-08-18T06:00:47Z</time>
      </trkpt>
      <trkpt lat="42.7377830" lon="-8.6614320">
        <ele>10.4</ele>
        <time>2019-08-18T06:00:53Z</time>
      </trkpt>
      <trkpt lat="42.7381120" lon="-8.6614240">
        <ele>10.3</ele>
        <time>2019-08-18T06:01:01Z</time>
      </trkpt>
      <trkpt lat="42.7384540" lon="-8.6614410">
        <ele>10.4</ele>
        <time>2019-08-18T06:01:08Z</time>
      </trkpt>
      <trkpt lat="42.7385190" lon="-8.6614310">
        <ele>10.4</ele>
        <time>2019-08-18T06:01:09Z</time>
      </trkpt>
      <trkpt lat="42.7389440" lon="-8.6614210">
        <ele>10.0</ele>
        <time>2019-08-18T06:01:16Z</time>
      </trkpt>
      <trkpt lat="42.7392220" lon="-8.6613190">
        <ele>9.8</ele>
        <time>2019-08-18T06:01:22Z</time>
      </trkpt>
      <trkpt lat="42.7392600" lon="-8.6613040">
        <ele>9.8</ele>
        <time>2019-08-18T06:01:27Z</time>
      </trkpt>
      <trkpt lat="42.7392480" lon="-8.6612970">
        <ele>9.8</ele>
        <time>2019-08-18T06:01:42Z</time>
      </trkpt>
      <trkpt lat="42.7392310" lon="-8.6612980">
        <ele>9.8</ele>
        <time>2019-08-18T06:01:44Z</time>
      </trkpt>
      <trkpt lat="42.7392240" lon="-8.6612950">
        <ele>9.8</ele>
        <time>2019-08-18T06:02:13Z</time>
      </trkpt>
      <trkpt lat="42.7392160" lon="-8.6613000">
        <ele>9.8</ele>
        <time>2019-08-18T06:02:14Z</time>
      </trkpt>
      <trkpt lat="42.7393180" lon="-8.6612840">
        <ele>9.3</ele>
        <time>2019-08-18T06:04:47Z</time>
      </trkpt>
      <trkpt lat="42.7394250" lon="-8.6612400">
        <ele>8.9</ele>
        <time>2019-08-18T06:04:49Z</time>
      </trkpt>
      <trkpt lat="42.7395370" lon="-8.6611930">
        <ele>8.5</ele>
        <time>2019-08-18T06:04:51Z</time>
      </trkpt>
      <trkpt lat="42.7395640" lon="-8.6611580">
        <ele>8.3</ele>
        <time>2019-08-18T06:04:52Z</time>
      </trkpt>
      <trkpt lat="42.7395860" lon="-8.6610720">
        <ele>8.1</ele>
        <time>2019-08-18T06:04:55Z</time>
      </trkpt>
      <trkpt lat="42.7396020" lon="-8.6610390">
        <ele>8.0</ele>
        <time>2019-08-18T06:04:56Z</time>
      </trkpt>
      <trkpt lat="42.7397360" lon="-8.6608220">
        <ele>8.8</ele>
        <time>2019-08-18T06:05:02Z</time>
      </trkpt>
      <trkpt lat="42.7398670" lon="-8.6606400">
        <ele>8.9</ele>
        <time>2019-08-18T06:05:08Z</time>
      </trkpt>
      <trkpt lat="42.7400050" lon="-8.6605290">
        <ele>8.8</ele>
        <time>2019-08-18T06:05:12Z</time>
      </trkpt>
      <trkpt lat="42.7400790" lon="-8.6603570">
        <ele>7.7</ele>
        <time>2019-08-18T06:05:17Z</time>
      </trkpt>
      <trkpt lat="42.7401300" lon="-8.6602560">
        <ele>7.4</ele>
        <time>2019-08-18T06:05:23Z</time>
      </trkpt>
      <trkpt lat="42.7402710" lon="-8.6601590">
        <ele>6.8</ele>
        <time>2019-08-18T06:05:28Z</time>
      </trkpt>
      <trkpt lat="42.7404650" lon="-8.6600230">
        <ele>6.0</ele>
        <time>2019-08-18T06:05:35Z</time>
      </trkpt>
      <trkpt lat="42.7406760" lon="-8.6598720">
        <ele>5.8</ele>
        <time>2019-08-18T06:05:40Z</time>
      </trkpt>
      <trkpt lat="42.7407870" lon="-8.6597800">
        <ele>5.8</ele>
        <time>2019-08-18T06:05:43Z</time>
      </trkpt>
      <trkpt lat="42.7408170" lon="-8.6597430">
        <ele>5.8</ele>
        <time>2019-08-18T06:05:44Z</time>
      </trkpt>
      <trkpt lat="42.7408460" lon="-8.6597110">
        <ele>5.9</ele>
        <time>2019-08-18T06:05:45Z</time>
      </trkpt>
      <trkpt lat="42.7408770" lon="-8.6596860">
        <ele>5.9</ele>
        <time>2019-08-18T06:05:46Z</time>
      </trkpt>
      <trkpt lat="42.7409100" lon="-8.6596620">
        <ele>5.9</ele>
        <time>2019-08-18T06:05:47Z</time>
      </trkpt>
      <trkpt lat="42.7411260" lon="-8.6595210">
        <ele>6.4</ele>
        <time>2019-08-18T06:05:53Z</time>
      </trkpt>
      <trkpt lat="42.7414920" lon="-8.6593610">
        <ele>7.3</ele>
        <time>2019-08-18T06:06:02Z</time>
      </trkpt>
      <trkpt lat="42.7418270" lon="-8.6592100">
        <ele>7.3</ele>
        <time>2019-08-18T06:06:09Z</time>
      </trkpt>
      <trkpt lat="42.7421480" lon="-8.6588740">
        <ele>7.1</ele>
        <time>2019-08-18T06:06:17Z</time>
      </trkpt>
      <trkpt lat="42.7425230" lon="-8.6585450">
        <ele>7.0</ele>
        <time>2019-08-18T06:06:26Z</time>
      </trkpt>
      <trkpt lat="42.7428280" lon="-8.6582890">
        <ele>6.5</ele>
        <time>2019-08-18T06:06:34Z</time>
      </trkpt>
      <trkpt lat="42.7428680" lon="-8.6582560">
        <ele>6.4</ele>
        <time>2019-08-18T06:06:35Z</time>
      </trkpt>
      <trkpt lat="42.7431630" lon="-8.6579040">
        <ele>5.3</ele>
        <time>2019-08-18T06:06:44Z</time>
      </trkpt>
      <trkpt lat="42.7434120" lon="-8.6575570">
        <ele>5.0</ele>
        <time>2019-08-18T06:06:52Z</time>
      </trkpt>
      <trkpt lat="42.7434520" lon="-8.6575240">
        <ele>5.0</ele>
        <time>2019-08-18T06:06:53Z</time>
      </trkpt>
      <trkpt lat="42.7436210" lon="-8.6574360">
        <ele>5.0</ele>
        <time>2019-08-18T06:06:57Z</time>
      </trkpt>
      <trkpt lat="42.7439970" lon="-8.6572620">
        <ele>5.2</ele>
        <time>2019-08-18T06:07:06Z</time>
      </trkpt>
      <trkpt lat="42.7442680" lon="-8.6571130">
        <ele>5.5</ele>
        <time>2019-08-18T06:07:12Z</time>
      </trkpt>
      <trkpt lat="42.7443920" lon="-8.6569020">
        <ele>5.8</ele>
        <time>2019-08-18T06:07:16Z</time>
      </trkpt>
      <trkpt lat="42.7445680" lon="-8.6566000">
        <ele>6.5</ele>
        <time>2019-08-18T06:07:23Z</time>
      </trkpt>
      <trkpt lat="42.7445780" lon="-8.6565710">
        <ele>6.6</ele>
        <time>2019-08-18T06:07:24Z</time>
      </trkpt>
      <trkpt lat="42.7445750" lon="-8.6565430">
        <ele>6.7</ele>
        <time>2019-08-18T06:07:25Z</time>
      </trkpt>
      <trkpt lat="42.7445830" lon="-8.6565280">
        <ele>6.7</ele>
        <time>2019-08-18T06:07:26Z</time>
      </trkpt>
      <trkpt lat="42.7445880" lon="-8.6565120">
        <ele>6.8</ele>
        <time>2019-08-18T06:07:27Z</time>
      </trkpt>
      <trkpt lat="42.7446050" lon="-8.6564720">
        <ele>7.0</ele>
        <time>2019-08-18T06:07:29Z</time>
      </trkpt>
      <trkpt lat="42.7446630" lon="-8.6563810">
        <ele>7.3</ele>
        <time>2019-08-18T06:07:32Z</time>
      </trkpt>
      <trkpt lat="42.7448040" lon="-8.6561130">
        <ele>8.3</ele>
        <time>2019-08-18T06:07:39Z</time>
      </trkpt>
      <trkpt lat="42.7449500" lon="-8.6558430">
        <ele>9.1</ele>
        <time>2019-08-18T06:07:45Z</time>
      </trkpt>
      <trkpt lat="42.7451140" lon="-8.6555480">
        <ele>9.7</ele>
        <time>2019-08-18T06:07:52Z</time>
      </trkpt>
      <trkpt lat="42.7451460" lon="-8.6554640">
        <ele>9.8</ele>
        <time>2019-08-18T06:07:54Z</time>
      </trkpt>
      <trkpt lat="42.7451600" lon="-8.6554210">
        <ele>9.9</ele>
        <time>2019-08-18T06:07:55Z</time>
      </trkpt>
      <trkpt lat="42.7451810" lon="-8.6553850">
        <ele>9.9</ele>
        <time>2019-08-18T06:07:56Z</time>
      </trkpt>
      <trkpt lat="42.7452000" lon="-8.6553500">
        <ele>10.1</ele>
        <time>2019-08-18T06:07:57Z</time>
      </trkpt>
      <trkpt lat="42.7452230" lon="-8.6553190">
        <ele>10.2</ele>
        <time>2019-08-18T06:07:58Z</time>
      </trkpt>
      <trkpt lat="42.7452430" lon="-8.6552900">
        <ele>10.3</ele>
        <time>2019-08-18T06:07:59Z</time>
      </trkpt>
      <trkpt lat="42.7453970" lon="-8.6550180">
        <ele>10.5</ele>
        <time>2019-08-18T06:08:07Z</time>
      </trkpt>
      <trkpt lat="42.7454670" lon="-8.6547510">
        <ele>10.9</ele>
        <time>2019-08-18T06:08:13Z</time>
      </trkpt>
      <trkpt lat="42.7455340" lon="-8.6545420">
        <ele>11.6</ele>
        <time>2019-08-18T06:08:19Z</time>
      </trkpt>
      <trkpt lat="42.7455610" lon="-8.6541780">
        <ele>12.1</ele>
        <time>2019-08-18T06:08:25Z</time>
      </trkpt>
      <trkpt lat="42.7456130" lon="-8.6538930">
        <ele>12.7</ele>
        <time>2019-08-18T06:08:28Z</time>
      </trkpt>
      <trkpt lat="42.7456380" lon="-8.6538220">
        <ele>12.9</ele>
        <time>2019-08-18T06:08:29Z</time>
      </trkpt>
      <trkpt lat="42.7457110" lon="-8.6536430">
        <ele>11.8</ele>
        <time>2019-08-18T06:08:32Z</time>
      </trkpt>
      <trkpt lat="42.7457330" lon="-8.6536010">
        <ele>11.8</ele>
        <time>2019-08-18T06:08:33Z</time>
      </trkpt>
      <trkpt lat="42.7458370" lon="-8.6535070">
        <ele>12.5</ele>
        <time>2019-08-18T06:08:36Z</time>
      </trkpt>
      <trkpt lat="42.7458650" lon="-8.6534700">
        <ele>12.9</ele>
        <time>2019-08-18T06:08:37Z</time>
      </trkpt>
      <trkpt lat="42.7458930" lon="-8.6534330">
        <ele>13.2</ele>
        <time>2019-08-18T06:08:38Z</time>
      </trkpt>
      <trkpt lat="42.7459190" lon="-8.6534010">
        <ele>13.5</ele>
        <time>2019-08-18T06:08:39Z</time>
      </trkpt>
      <trkpt lat="42.7459450" lon="-8.6533710">
        <ele>13.9</ele>
        <time>2019-08-18T06:08:40Z</time>
      </trkpt>
      <trkpt lat="42.7459790" lon="-8.6533440">
        <ele>14.2</ele>
        <time>2019-08-18T06:08:41Z</time>
      </trkpt>
      <trkpt lat="42.7460100" lon="-8.6533220">
        <ele>14.4</ele>
        <time>2019-08-18T06:08:42Z</time>
      </trkpt>
      <trkpt lat="42.7460440" lon="-8.6532970">
        <ele>14.7</ele>
        <time>2019-08-18T06:08:43Z</time>
      </trkpt>
      <trkpt lat="42.7460780" lon="-8.6532730">
        <ele>14.9</ele>
        <time>2019-08-18T06:08:44Z</time>
      </trkpt>
      <trkpt lat="42.7461140" lon="-8.6532430">
        <ele>15.1</ele>
        <time>2019-08-18T06:08:45Z</time>
      </trkpt>
      <trkpt lat="42.7463790" lon="-8.6530410">
        <ele>15.9</ele>
        <time>2019-08-18T06:08:54Z</time>
      </trkpt>
      <trkpt lat="42.7465460" lon="-8.6529120">
        <ele>16.4</ele>
        <time>2019-08-18T06:09:01Z</time>
      </trkpt>
      <trkpt lat="42.7465760" lon="-8.6529010">
        <ele>16.5</ele>
        <time>2019-08-18T06:09:02Z</time>
      </trkpt>
      <trkpt lat="42.7466000" lon="-8.6528900">
        <ele>16.7</ele>
        <time>2019-08-18T06:09:03Z</time>
      </trkpt>
      <trkpt lat="42.7466210" lon="-8.6528730">
        <ele>16.8</ele>
        <time>2019-08-18T06:09:04Z</time>
      </trkpt>
      <trkpt lat="42.7466460" lon="-8.6528490">
        <ele>16.8</ele>
        <time>2019-08-18T06:09:05Z</time>
      </trkpt>
      <trkpt lat="42.7467090" lon="-8.6527940">
        <ele>17.0</ele>
        <time>2019-08-18T06:09:07Z</time>
      </trkpt>
      <trkpt lat="42.7469950" lon="-8.6527480">
        <ele>17.3</ele>
        <time>2019-08-18T06:09:14Z</time>
      </trkpt>
      <trkpt lat="42.7470400" lon="-8.6527620">
        <ele>17.3</ele>
        <time>2019-08-18T06:09:15Z</time>
      </trkpt>
      <trkpt lat="42.7471700" lon="-8.6527730">
        <ele>17.4</ele>
        <time>2019-08-18T06:09:18Z</time>
      </trkpt>
      <trkpt lat="42.7474070" lon="-8.6527670">
        <ele>17.1</ele>
        <time>2019-08-18T06:09:24Z</time>
      </trkpt>
      <trkpt lat="42.7474460" lon="-8.6527480">
        <ele>17.0</ele>
        <time>2019-08-18T06:09:25Z</time>
      </trkpt>
      <trkpt lat="42.7475750" lon="-8.6526750">
        <ele>16.9</ele>
        <time>2019-08-18T06:09:28Z</time>
      </trkpt>
      <trkpt lat="42.7476850" lon="-8.6526270">
        <ele>16.9</ele>
        <time>2019-08-18T06:09:30Z</time>
      </trkpt>
      <trkpt lat="42.7479680" lon="-8.6524710">
        <ele>17.7</ele>
        <time>2019-08-18T06:09:37Z</time>
      </trkpt>
      <trkpt lat="42.7480850" lon="-8.6523900">
        <ele>18.3</ele>
        <time>2019-08-18T06:09:41Z</time>
      </trkpt>
      <trkpt lat="42.7481190" lon="-8.6523660">
        <ele>18.5</ele>
        <time>2019-08-18T06:09:42Z</time>
      </trkpt>
      <trkpt lat="42.7481560" lon="-8.6523440">
        <ele>18.8</ele>
        <time>2019-08-18T06:09:43Z</time>
      </trkpt>
      <trkpt lat="42.7481930" lon="-8.6523210">
        <ele>19.1</ele>
        <time>2019-08-18T06:09:44Z</time>
      </trkpt>
      <trkpt lat="42.7482250" lon="-8.6523030">
        <ele>19.3</ele>
        <time>2019-08-18T06:09:45Z</time>
      </trkpt>
      <trkpt lat="42.7483820" lon="-8.6522570">
        <ele>20.4</ele>
        <time>2019-08-18T06:09:49Z</time>
      </trkpt>
      <trkpt lat="42.7484160" lon="-8.6522590">
        <ele>20.6</ele>
        <time>2019-08-18T06:09:50Z</time>
      </trkpt>
      <trkpt lat="42.7484510" lon="-8.6522610">
        <ele>20.8</ele>
        <time>2019-08-18T06:09:51Z</time>
      </trkpt>
      <trkpt lat="42.7484780" lon="-8.6522640">
        <ele>21.1</ele>
        <time>2019-08-18T06:09:52Z</time>
      </trkpt>
      <trkpt lat="42.7485050" lon="-8.6522680">
        <ele>21.3</ele>
        <time>2019-08-18T06:09:53Z</time>
      </trkpt>
      <trkpt lat="42.7486080" lon="-8.6522750">
        <ele>22.1</ele>
        <time>2019-08-18T06:09:57Z</time>
      </trkpt>
      <trkpt lat="42.7486380" lon="-8.6522740">
        <ele>22.3</ele>
        <time>2019-08-18T06:09:58Z</time>
      </trkpt>
      <trkpt lat="42.7486630" lon="-8.6522800">
        <ele>22.5</ele>
        <time>2019-08-18T06:09:59Z</time>
      </trkpt>
      <trkpt lat="42.7486930" lon="-8.6522880">
        <ele>22.7</ele>
        <time>2019-08-18T06:10:00Z</time>
      </trkpt>
      <trkpt lat="42.7487240" lon="-8.6522990">
        <ele>22.9</ele>
        <time>2019-08-18T06:10:01Z</time>
      </trkpt>
      <trkpt lat="42.7487760" lon="-8.6523310">
        <ele>23.3</ele>
        <time>2019-08-18T06:10:03Z</time>
      </trkpt>
      <trkpt lat="42.7488100" lon="-8.6524150">
        <ele>22.9</ele>
        <time>2019-08-18T06:10:06Z</time>
      </trkpt>
      <trkpt lat="42.7488170" lon="-8.6524580">
        <ele>22.6</ele>
        <time>2019-08-18T06:10:07Z</time>
      </trkpt>
      <trkpt lat="42.7488210" lon="-8.6526260">
        <ele>21.3</ele>
        <time>2019-08-18T06:10:10Z</time>
      </trkpt>
      <trkpt lat="42.7488210" lon="-8.6526910">
        <ele>20.9</ele>
        <time>2019-08-18T06:10:11Z</time>
      </trkpt>
      <trkpt lat="42.7488240" lon="-8.6527620">
        <ele>20.6</ele>
        <time>2019-08-18T06:10:12Z</time>
      </trkpt>
      <trkpt lat="42.7488270" lon="-8.6528350">
        <ele>20.2</ele>
        <time>2019-08-18T06:10:13Z</time>
      </trkpt>
      <trkpt lat="42.7488260" lon="-8.6529120">
        <ele>19.8</ele>
        <time>2019-08-18T06:10:14Z</time>
      </trkpt>
      <trkpt lat="42.7488270" lon="-8.6529800">
        <ele>19.4</ele>
        <time>2019-08-18T06:10:15Z</time>
      </trkpt>
      <trkpt lat="42.7488300" lon="-8.6530480">
        <ele>19.0</ele>
        <time>2019-08-18T06:10:16Z</time>
      </trkpt>
      <trkpt lat="42.7488280" lon="-8.6531120">
        <ele>18.6</ele>
        <time>2019-08-18T06:10:17Z</time>
      </trkpt>
      <trkpt lat="42.7488380" lon="-8.6531960">
        <ele>18.1</ele>
        <time>2019-08-18T06:10:18Z</time>
      </trkpt>
      <trkpt lat="42.7488370" lon="-8.6532610">
        <ele>17.7</ele>
        <time>2019-08-18T06:10:19Z</time>
      </trkpt>
      <trkpt lat="42.7488360" lon="-8.6533150">
        <ele>17.3</ele>
        <time>2019-08-18T06:10:20Z</time>
      </trkpt>
      <trkpt lat="42.7488380" lon="-8.6533660">
        <ele>17.0</ele>
        <time>2019-08-18T06:10:21Z</time>
      </trkpt>
      <trkpt lat="42.7488420" lon="-8.6534180">
        <ele>16.8</ele>
        <time>2019-08-18T06:10:22Z</time>
      </trkpt>
      <trkpt lat="42.7488480" lon="-8.6534720">
        <ele>16.5</ele>
        <time>2019-08-18T06:10:23Z</time>
      </trkpt>
      <trkpt lat="42.7488830" lon="-8.6535840">
        <ele>15.9</ele>
        <time>2019-08-18T06:10:25Z</time>
      </trkpt>
      <trkpt lat="42.7489210" lon="-8.6538810">
        <ele>14.7</ele>
        <time>2019-08-18T06:10:30Z</time>
      </trkpt>
      <trkpt lat="42.7489350" lon="-8.6540920">
        <ele>14.1</ele>
        <time>2019-08-18T06:10:33Z</time>
      </trkpt>
      <trkpt lat="42.7489370" lon="-8.6541700">
        <ele>13.9</ele>
        <time>2019-08-18T06:10:34Z</time>
      </trkpt>
      <trkpt lat="42.7489300" lon="-8.6542510">
        <ele>13.8</ele>
        <time>2019-08-18T06:10:35Z</time>
      </trkpt>
      <trkpt lat="42.7489260" lon="-8.6543390">
        <ele>13.7</ele>
        <time>2019-08-18T06:10:36Z</time>
      </trkpt>
      <trkpt lat="42.7489230" lon="-8.6544130">
        <ele>13.6</ele>
        <time>2019-08-18T06:10:37Z</time>
      </trkpt>
      <trkpt lat="42.7489490" lon="-8.6545490">
        <ele>13.5</ele>
        <time>2019-08-18T06:10:40Z</time>
      </trkpt>
      <trkpt lat="42.7489890" lon="-8.6545370">
        <ele>13.5</ele>
        <time>2019-08-18T06:10:41Z</time>
      </trkpt>
      <trkpt lat="42.7490310" lon="-8.6545240">
        <ele>13.5</ele>
        <time>2019-08-18T06:10:42Z</time>
      </trkpt>
      <trkpt lat="42.7491480" lon="-8.6544660">
        <ele>14.1</ele>
        <time>2019-08-18T06:10:45Z</time>
      </trkpt>
      <trkpt lat="42.7492300" lon="-8.6544320">
        <ele>14.2</ele>
        <time>2019-08-18T06:10:47Z</time>
      </trkpt>
      <trkpt lat="42.7496390" lon="-8.6542540">
        <ele>15.3</ele>
        <time>2019-08-18T06:10:57Z</time>
      </trkpt>
      <trkpt lat="42.7499850" lon="-8.6541370">
        <ele>15.3</ele>
        <time>2019-08-18T06:11:06Z</time>
      </trkpt>
      <trkpt lat="42.7502530" lon="-8.6540260">
        <ele>15.3</ele>
        <time>2019-08-18T06:11:13Z</time>
      </trkpt>
      <trkpt lat="42.7506090" lon="-8.6539020">
        <ele>15.9</ele>
        <time>2019-08-18T06:11:21Z</time>
      </trkpt>
      <trkpt lat="42.7507970" lon="-8.6538490">
        <ele>16.1</ele>
        <time>2019-08-18T06:11:25Z</time>
      </trkpt>
      <trkpt lat="42.7508800" lon="-8.6538110">
        <ele>16.2</ele>
        <time>2019-08-18T06:11:27Z</time>
      </trkpt>
      <trkpt lat="42.7511430" lon="-8.6537020">
        <ele>16.7</ele>
        <time>2019-08-18T06:11:33Z</time>
      </trkpt>
      <trkpt lat="42.7514800" lon="-8.6535530">
        <ele>16.9</ele>
        <time>2019-08-18T06:11:41Z</time>
      </trkpt>
      <trkpt lat="42.7516300" lon="-8.6535120">
        <ele>16.6</ele>
        <time>2019-08-18T06:11:45Z</time>
      </trkpt>
      <trkpt lat="42.7516650" lon="-8.6535030">
        <ele>16.5</ele>
        <time>2019-08-18T06:11:46Z</time>
      </trkpt>
      <trkpt lat="42.7516970" lon="-8.6534950">
        <ele>16.4</ele>
        <time>2019-08-18T06:11:47Z</time>
      </trkpt>
      <trkpt lat="42.7517360" lon="-8.6534800">
        <ele>16.3</ele>
        <time>2019-08-18T06:11:48Z</time>
      </trkpt>
      <trkpt lat="42.7517740" lon="-8.6534710">
        <ele>16.1</ele>
        <time>2019-08-18T06:11:49Z</time>
      </trkpt>
      <trkpt lat="42.7521160" lon="-8.6532910">
        <ele>15.7</ele>
        <time>2019-08-18T06:11:58Z</time>
      </trkpt>
      <trkpt lat="42.7526290" lon="-8.6530340">
        <ele>15.0</ele>
        <time>2019-08-18T06:12:09Z</time>
      </trkpt>
      <trkpt lat="42.7526750" lon="-8.6530160">
        <ele>15.0</ele>
        <time>2019-08-18T06:12:10Z</time>
      </trkpt>
      <trkpt lat="42.7527190" lon="-8.6529980">
        <ele>15.0</ele>
        <time>2019-08-18T06:12:11Z</time>
      </trkpt>
      <trkpt lat="42.7527660" lon="-8.6529800">
        <ele>14.9</ele>
        <time>2019-08-18T06:12:12Z</time>
      </trkpt>
      <trkpt lat="42.7528200" lon="-8.6529600">
        <ele>14.9</ele>
        <time>2019-08-18T06:12:13Z</time>
      </trkpt>
      <trkpt lat="42.7528700" lon="-8.6529420">
        <ele>14.9</ele>
        <time>2019-08-18T06:12:14Z</time>
      </trkpt>
      <trkpt lat="42.7530240" lon="-8.6528880">
        <ele>14.7</ele>
        <time>2019-08-18T06:12:17Z</time>
      </trkpt>
      <trkpt lat="42.7534150" lon="-8.6527460">
        <ele>14.9</ele>
        <time>2019-08-18T06:12:25Z</time>
      </trkpt>
      <trkpt lat="42.7539340" lon="-8.6525470">
        <ele>15.6</ele>
        <time>2019-08-18T06:12:36Z</time>
      </trkpt>
      <trkpt lat="42.7543530" lon="-8.6523850">
        <ele>16.5</ele>
        <time>2019-08-18T06:12:45Z</time>
      </trkpt>
      <trkpt lat="42.7547750" lon="-8.6522530">
        <ele>17.8</ele>
        <time>2019-08-18T06:12:54Z</time>
      </trkpt>
      <trkpt lat="42.7551280" lon="-8.6521190">
        <ele>18.5</ele>
        <time>2019-08-18T06:13:02Z</time>
      </trkpt>
      <trkpt lat="42.7554710" lon="-8.6519960">
        <ele>19.9</ele>
        <time>2019-08-18T06:13:10Z</time>
      </trkpt>
      <trkpt lat="42.7555130" lon="-8.6519790">
        <ele>20.1</ele>
        <time>2019-08-18T06:13:11Z</time>
      </trkpt>
      <trkpt lat="42.7555570" lon="-8.6519590">
        <ele>20.3</ele>
        <time>2019-08-18T06:13:12Z</time>
      </trkpt>
      <trkpt lat="42.7556010" lon="-8.6519380">
        <ele>20.6</ele>
        <time>2019-08-18T06:13:13Z</time>
      </trkpt>
      <trkpt lat="42.7556410" lon="-8.6519090">
        <ele>20.8</ele>
        <time>2019-08-18T06:13:14Z</time>
      </trkpt>
      <trkpt lat="42.7557840" lon="-8.6517650">
        <ele>21.7</ele>
        <time>2019-08-18T06:13:18Z</time>
      </trkpt>
      <trkpt lat="42.7558790" lon="-8.6516630">
        <ele>22.2</ele>
        <time>2019-08-18T06:13:21Z</time>
      </trkpt>
      <trkpt lat="42.7559160" lon="-8.6516390">
        <ele>22.2</ele>
        <time>2019-08-18T06:13:22Z</time>
      </trkpt>
      <trkpt lat="42.7559580" lon="-8.6516230">
        <ele>22.2</ele>
        <time>2019-08-18T06:13:23Z</time>
      </trkpt>
      <trkpt lat="42.7560050" lon="-8.6516130">
        <ele>22.2</ele>
        <time>2019-08-18T06:13:24Z</time>
      </trkpt>
      <trkpt lat="42.7560500" lon="-8.6516140">
        <ele>22.2</ele>
        <time>2019-08-18T06:13:25Z</time>
      </trkpt>
      <trkpt lat="42.7561830" lon="-8.6516540">
        <ele>22.1</ele>
        <time>2019-08-18T06:13:28Z</time>
      </trkpt>
      <trkpt lat="42.7563600" lon="-8.6516630">
        <ele>22.1</ele>
        <time>2019-08-18T06:13:32Z</time>
      </trkpt>
      <trkpt lat="42.7564400" lon="-8.6516450">
        <ele>22.1</ele>
        <time>2019-08-18T06:13:34Z</time>
      </trkpt>
      <trkpt lat="42.7569160" lon="-8.6514820">
        <ele>22.2</ele>
        <time>2019-08-18T06:13:45Z</time>
      </trkpt>
      <trkpt lat="42.7572960" lon="-8.6513790">
        <ele>22.2</ele>
        <time>2019-08-18T06:13:53Z</time>
      </trkpt>
      <trkpt lat="42.7576860" lon="-8.6512820">
        <ele>22.5</ele>
        <time>2019-08-18T06:14:02Z</time>
      </trkpt>
      <trkpt lat="42.7578130" lon="-8.6512570">
        <ele>22.5</ele>
        <time>2019-08-18T06:14:05Z</time>
      </trkpt>
      <trkpt lat="42.7578560" lon="-8.6512510">
        <ele>22.5</ele>
        <time>2019-08-18T06:14:06Z</time>
      </trkpt>
      <trkpt lat="42.7578950" lon="-8.6512460">
        <ele>22.5</ele>
        <time>2019-08-18T06:14:07Z</time>
      </trkpt>
      <trkpt lat="42.7579380" lon="-8.6512380">
        <ele>22.5</ele>
        <time>2019-08-18T06:14:08Z</time>
      </trkpt>
      <trkpt lat="42.7579810" lon="-8.6512320">
        <ele>22.5</ele>
        <time>2019-08-18T06:14:09Z</time>
      </trkpt>
      <trkpt lat="42.7581070" lon="-8.6512110">
        <ele>22.6</ele>
        <time>2019-08-18T06:14:12Z</time>
      </trkpt>
      <trkpt lat="42.7585070" lon="-8.6511480">
        <ele>24.1</ele>
        <time>2019-08-18T06:14:22Z</time>
      </trkpt>
      <trkpt lat="42.7587010" lon="-8.6511190">
        <ele>25.0</ele>
        <time>2019-08-18T06:14:27Z</time>
      </trkpt>
      <trkpt lat="42.7587450" lon="-8.6511120">
        <ele>25.3</ele>
        <time>2019-08-18T06:14:28Z</time>
      </trkpt>
      <trkpt lat="42.7587870" lon="-8.6511100">
        <ele>25.6</ele>
        <time>2019-08-18T06:14:29Z</time>
      </trkpt>
      <trkpt lat="42.7588300" lon="-8.6511080">
        <ele>25.9</ele>
        <time>2019-08-18T06:14:30Z</time>
      </trkpt>
      <trkpt lat="42.7588720" lon="-8.6511090">
        <ele>26.2</ele>
        <time>2019-08-18T06:14:31Z</time>
      </trkpt>
      <trkpt lat="42.7592190" lon="-8.6511000">
        <ele>27.3</ele>
        <time>2019-08-18T06:14:39Z</time>
      </trkpt>
      <trkpt lat="42.7596380" lon="-8.6510980">
        <ele>28.3</ele>
        <time>2019-08-18T06:14:48Z</time>
      </trkpt>
      <trkpt lat="42.7598890" lon="-8.6511330">
        <ele>29.0</ele>
        <time>2019-08-18T06:14:54Z</time>
      </trkpt>
      <trkpt lat="42.7599150" lon="-8.6511740">
        <ele>29.1</ele>
        <time>2019-08-18T06:14:55Z</time>
      </trkpt>
      <trkpt lat="42.7599360" lon="-8.6512920">
        <ele>26.9</ele>
        <time>2019-08-18T06:14:57Z</time>
      </trkpt>
      <trkpt lat="42.7599580" lon="-8.6517010">
        <ele>24.5</ele>
        <time>2019-08-18T06:15:02Z</time>
      </trkpt>
      <trkpt lat="42.7599650" lon="-8.6518020">
        <ele>24.0</ele>
        <time>2019-08-18T06:15:03Z</time>
      </trkpt>
      <trkpt lat="42.7599740" lon="-8.6519050">
        <ele>23.2</ele>
        <time>2019-08-18T06:15:04Z</time>
      </trkpt>
      <trkpt lat="42.7599820" lon="-8.6520180">
        <ele>22.3</ele>
        <time>2019-08-18T06:15:05Z</time>
      </trkpt>
      <trkpt lat="42.7599910" lon="-8.6521290">
        <ele>21.5</ele>
        <time>2019-08-18T06:15:06Z</time>
      </trkpt>
      <trkpt lat="42.7599980" lon="-8.6522360">
        <ele>20.7</ele>
        <time>2019-08-18T06:15:07Z</time>
      </trkpt>
      <trkpt lat="42.7600030" lon="-8.6523260">
        <ele>20.0</ele>
        <time>2019-08-18T06:15:08Z</time>
      </trkpt>
      <trkpt lat="42.7600060" lon="-8.6524150">
        <ele>19.3</ele>
        <time>2019-08-18T06:15:09Z</time>
      </trkpt>
      <trkpt lat="42.7600080" lon="-8.6525020">
        <ele>18.4</ele>
        <time>2019-08-18T06:15:10Z</time>
      </trkpt>
      <trkpt lat="42.7600100" lon="-8.6525900">
        <ele>17.7</ele>
        <time>2019-08-18T06:15:11Z</time>
      </trkpt>
      <trkpt lat="42.7600090" lon="-8.6526870">
        <ele>17.0</ele>
        <time>2019-08-18T06:15:12Z</time>
      </trkpt>
      <trkpt lat="42.7600140" lon="-8.6527800">
        <ele>16.3</ele>
        <time>2019-08-18T06:15:13Z</time>
      </trkpt>
      <trkpt lat="42.7600220" lon="-8.6528850">
        <ele>15.6</ele>
        <time>2019-08-18T06:15:14Z</time>
      </trkpt>
      <trkpt lat="42.7600330" lon="-8.6529890">
        <ele>14.8</ele>
        <time>2019-08-18T06:15:15Z</time>
      </trkpt>
      <trkpt lat="42.7600450" lon="-8.6530920">
        <ele>14.1</ele>
        <time>2019-08-18T06:15:16Z</time>
      </trkpt>
      <trkpt lat="42.7600550" lon="-8.6531950">
        <ele>13.5</ele>
        <time>2019-08-18T06:15:17Z</time>
      </trkpt>
      <trkpt lat="42.7600630" lon="-8.6532910">
        <ele>12.8</ele>
        <time>2019-08-18T06:15:18Z</time>
      </trkpt>
      <trkpt lat="42.7600710" lon="-8.6533680">
        <ele>12.3</ele>
        <time>2019-08-18T06:15:19Z</time>
      </trkpt>
      <trkpt lat="42.7600750" lon="-8.6534280">
        <ele>11.8</ele>
        <time>2019-08-18T06:15:20Z</time>
      </trkpt>
      <trkpt lat="42.7600750" lon="-8.6534750">
        <ele>11.5</ele>
        <time>2019-08-18T06:15:21Z</time>
      </trkpt>
      <trkpt lat="42.7601510" lon="-8.6535700">
        <ele>11.5</ele>
        <time>2019-08-18T06:15:25Z</time>
      </trkpt>
      <trkpt lat="42.7601990" lon="-8.6535720">
        <ele>11.5</ele>
        <time>2019-08-18T06:15:26Z</time>
      </trkpt>
      <trkpt lat="42.7602450" lon="-8.6535650">
        <ele>11.4</ele>
        <time>2019-08-18T06:15:27Z</time>
      </trkpt>
      <trkpt lat="42.7603370" lon="-8.6535320">
        <ele>11.4</ele>
        <time>2019-08-18T06:15:28Z</time>
      </trkpt>
      <trkpt lat="42.7603860" lon="-8.6535310">
        <ele>11.4</ele>
        <time>2019-08-18T06:15:29Z</time>
      </trkpt>
      <trkpt lat="42.7606350" lon="-8.6535320">
        <ele>11.4</ele>
        <time>2019-08-18T06:15:36Z</time>
      </trkpt>
      <trkpt lat="42.7610120" lon="-8.6535710">
        <ele>11.5</ele>
        <time>2019-08-18T06:15:44Z</time>
      </trkpt>
      <trkpt lat="42.7614520" lon="-8.6536480">
        <ele>11.7</ele>
        <time>2019-08-18T06:15:53Z</time>
      </trkpt>
      <trkpt lat="42.7618260" lon="-8.6537490">
        <ele>12.0</ele>
        <time>2019-08-18T06:16:01Z</time>
      </trkpt>
      <trkpt lat="42.7621480" lon="-8.6537910">
        <ele>12.3</ele>
        <time>2019-08-18T06:16:08Z</time>
      </trkpt>
      <trkpt lat="42.7621870" lon="-8.6537790">
        <ele>12.4</ele>
        <time>2019-08-18T06:16:09Z</time>
      </trkpt>
      <trkpt lat="42.7623020" lon="-8.6537420">
        <ele>12.6</ele>
        <time>2019-08-18T06:16:12Z</time>
      </trkpt>
      <trkpt lat="42.7624420" lon="-8.6537340">
        <ele>12.8</ele>
        <time>2019-08-18T06:16:15Z</time>
      </trkpt>
      <trkpt lat="42.7627070" lon="-8.6536800">
        <ele>13.4</ele>
        <time>2019-08-18T06:16:21Z</time>
      </trkpt>
      <trkpt lat="42.7627430" lon="-8.6536620">
        <ele>13.5</ele>
        <time>2019-08-18T06:16:22Z</time>
      </trkpt>
      <trkpt lat="42.7628430" lon="-8.6536470">
        <ele>13.7</ele>
        <time>2019-08-18T06:16:25Z</time>
      </trkpt>
      <trkpt lat="42.7629130" lon="-8.6536950">
        <ele>13.9</ele>
        <time>2019-08-18T06:16:27Z</time>
      </trkpt>
      <trkpt lat="42.7631080" lon="-8.6539600">
        <ele>12.0</ele>
        <time>2019-08-18T06:16:32Z</time>
      </trkpt>
      <trkpt lat="42.7632100" lon="-8.6541490">
        <ele>11.8</ele>
        <time>2019-08-18T06:16:35Z</time>
      </trkpt>
      <trkpt lat="42.7632340" lon="-8.6541980">
        <ele>11.7</ele>
        <time>2019-08-18T06:16:36Z</time>
      </trkpt>
      <trkpt lat="42.7632680" lon="-8.6542120">
        <ele>11.7</ele>
        <time>2019-08-18T06:16:37Z</time>
      </trkpt>
      <trkpt lat="42.7632980" lon="-8.6542470">
        <ele>11.7</ele>
        <time>2019-08-18T06:16:38Z</time>
      </trkpt>
      <trkpt lat="42.7633240" lon="-8.6542830">
        <ele>11.6</ele>
        <time>2019-08-18T06:16:39Z</time>
      </trkpt>
      <trkpt lat="42.7635440" lon="-8.6544070">
        <ele>11.6</ele>
        <time>2019-08-18T06:16:45Z</time>
      </trkpt>
      <trkpt lat="42.7637270" lon="-8.6544440">
        <ele>11.6</ele>
        <time>2019-08-18T06:16:51Z</time>
      </trkpt>
      <trkpt lat="42.7639280" lon="-8.6545420">
        <ele>11.6</ele>
        <time>2019-08-18T06:16:57Z</time>
      </trkpt>
      <trkpt lat="42.7641340" lon="-8.6546780">
        <ele>11.5</ele>
        <time>2019-08-18T06:17:03Z</time>
      </trkpt>
      <trkpt lat="42.7642070" lon="-8.6547490">
        <ele>11.4</ele>
        <time>2019-08-18T06:17:08Z</time>
      </trkpt>
      <trkpt lat="42.7643560" lon="-8.6548060">
        <ele>11.5</ele>
        <time>2019-08-18T06:17:13Z</time>
      </trkpt>
      <trkpt lat="42.7645260" lon="-8.6549220">
        <ele>11.5</ele>
        <time>2019-08-18T06:17:19Z</time>
      </trkpt>
      <trkpt lat="42.7646250" lon="-8.6550400">
        <ele>11.5</ele>
        <time>2019-08-18T06:17:22Z</time>
      </trkpt>
      <trkpt lat="42.7646550" lon="-8.6550820">
        <ele>11.5</ele>
        <time>2019-08-18T06:17:23Z</time>
      </trkpt>
      <trkpt lat="42.7647760" lon="-8.6552250">
        <ele>11.5</ele>
        <time>2019-08-18T06:17:26Z</time>
      </trkpt>
      <trkpt lat="42.7648480" lon="-8.6553040">
        <ele>11.5</ele>
        <time>2019-08-18T06:17:28Z</time>
      </trkpt>
      <trkpt lat="42.7649040" lon="-8.6553250">
        <ele>11.5</ele>
        <time>2019-08-18T06:17:29Z</time>
      </trkpt>
      <trkpt lat="42.7650070" lon="-8.6553420">
        <ele>11.5</ele>
        <time>2019-08-18T06:17:32Z</time>
      </trkpt>
      <trkpt lat="42.7650230" lon="-8.6553410">
        <ele>11.5</ele>
        <time>2019-08-18T06:17:33Z</time>
      </trkpt>
      <trkpt lat="42.7652660" lon="-8.6553160">
        <ele>11.5</ele>
        <time>2019-08-18T06:17:40Z</time>
      </trkpt>
      <trkpt lat="42.7653080" lon="-8.6552470">
        <ele>11.5</ele>
        <time>2019-08-18T06:17:42Z</time>
      </trkpt>
      <trkpt lat="42.7653110" lon="-8.6552020">
        <ele>11.5</ele>
        <time>2019-08-18T06:17:43Z</time>
      </trkpt>
      <trkpt lat="42.7654120" lon="-8.6550420">
        <ele>11.5</ele>
        <time>2019-08-18T06:17:48Z</time>
      </trkpt>
      <trkpt lat="42.7655940" lon="-8.6550300">
        <ele>11.5</ele>
        <time>2019-08-18T06:17:52Z</time>
      </trkpt>
      <trkpt lat="42.7656190" lon="-8.6549810">
        <ele>11.5</ele>
        <time>2019-08-18T06:17:53Z</time>
      </trkpt>
      <trkpt lat="42.7656330" lon="-8.6548240">
        <ele>11.5</ele>
        <time>2019-08-18T06:17:56Z</time>
      </trkpt>
      <trkpt lat="42.7656370" lon="-8.6547750">
        <ele>11.5</ele>
        <time>2019-08-18T06:17:57Z</time>
      </trkpt>
      <trkpt lat="42.7657870" lon="-8.6543560">
        <ele>11.5</ele>
        <time>2019-08-18T06:18:06Z</time>
      </trkpt>
      <trkpt lat="42.7658710" lon="-8.6541550">
        <ele>11.6</ele>
        <time>2019-08-18T06:18:12Z</time>
      </trkpt>
      <trkpt lat="42.7659900" lon="-8.6541210">
        <ele>11.7</ele>
        <time>2019-08-18T06:18:16Z</time>
      </trkpt>
      <trkpt lat="42.7660200" lon="-8.6541140">
        <ele>11.7</ele>
        <time>2019-08-18T06:18:17Z</time>
      </trkpt>
      <trkpt lat="42.7660510" lon="-8.6541090">
        <ele>11.8</ele>
        <time>2019-08-18T06:18:18Z</time>
      </trkpt>
      <trkpt lat="42.7660790" lon="-8.6541030">
        <ele>11.8</ele>
        <time>2019-08-18T06:18:19Z</time>
      </trkpt>
      <trkpt lat="42.7661070" lon="-8.6541020">
        <ele>11.9</ele>
        <time>2019-08-18T06:18:20Z</time>
      </trkpt>
      <trkpt lat="42.7663080" lon="-8.6541330">
        <ele>13.0</ele>
        <time>2019-08-18T06:18:26Z</time>
      </trkpt>
      <trkpt lat="42.7663360" lon="-8.6541360">
        <ele>13.3</ele>
        <time>2019-08-18T06:18:27Z</time>
      </trkpt>
      <trkpt lat="42.7663660" lon="-8.6541490">
        <ele>13.5</ele>
        <time>2019-08-18T06:18:28Z</time>
      </trkpt>
      <trkpt lat="42.7664080" lon="-8.6541760">
        <ele>13.9</ele>
        <time>2019-08-18T06:18:29Z</time>
      </trkpt>
      <trkpt lat="42.7664400" lon="-8.6541940">
        <ele>14.2</ele>
        <time>2019-08-18T06:18:30Z</time>
      </trkpt>
      <trkpt lat="42.7664640" lon="-8.6542120">
        <ele>14.5</ele>
        <time>2019-08-18T06:18:31Z</time>
      </trkpt>
      <trkpt lat="42.7665190" lon="-8.6543520">
        <ele>15.4</ele>
        <time>2019-08-18T06:18:37Z</time>
      </trkpt>
      <trkpt lat="42.7665510" lon="-8.6545620">
        <ele>14.5</ele>
        <time>2019-08-18T06:18:42Z</time>
      </trkpt>
      <trkpt lat="42.7666300" lon="-8.6548080">
        <ele>14.0</ele>
        <time>2019-08-18T06:18:48Z</time>
      </trkpt>
      <trkpt lat="42.7667800" lon="-8.6550850">
        <ele>12.9</ele>
        <time>2019-08-18T06:18:54Z</time>
      </trkpt>
      <trkpt lat="42.7668160" lon="-8.6551440">
        <ele>12.4</ele>
        <time>2019-08-18T06:18:55Z</time>
      </trkpt>
      <trkpt lat="42.7668520" lon="-8.6552010">
        <ele>12.0</ele>
        <time>2019-08-18T06:18:56Z</time>
      </trkpt>
      <trkpt lat="42.7668910" lon="-8.6552560">
        <ele>11.5</ele>
        <time>2019-08-18T06:18:57Z</time>
      </trkpt>
      <trkpt lat="42.7669230" lon="-8.6553220">
        <ele>11.1</ele>
        <time>2019-08-18T06:18:58Z</time>
      </trkpt>
      <trkpt lat="42.7669540" lon="-8.6553660">
        <ele>10.7</ele>
        <time>2019-08-18T06:18:59Z</time>
      </trkpt>
      <trkpt lat="42.7669950" lon="-8.6553870">
        <ele>10.4</ele>
        <time>2019-08-18T06:19:00Z</time>
      </trkpt>
      <trkpt lat="42.7671030" lon="-8.6553540">
        <ele>10.6</ele>
        <time>2019-08-18T06:19:03Z</time>
      </trkpt>
      <trkpt lat="42.7674140" lon="-8.6551330">
        <ele>11.0</ele>
        <time>2019-08-18T06:19:10Z</time>
      </trkpt>
      <trkpt lat="42.7677560" lon="-8.6548800">
        <ele>11.4</ele>
        <time>2019-08-18T06:19:18Z</time>
      </trkpt>
      <trkpt lat="42.7681150" lon="-8.6546010">
        <ele>13.1</ele>
        <time>2019-08-18T06:19:27Z</time>
      </trkpt>
      <trkpt lat="42.7684600" lon="-8.6543170">
        <ele>14.0</ele>
        <time>2019-08-18T06:19:36Z</time>
      </trkpt>
      <trkpt lat="42.7687030" lon="-8.6541340">
        <ele>15.2</ele>
        <time>2019-08-18T06:19:42Z</time>
      </trkpt>
      <trkpt lat="42.7687420" lon="-8.6541020">
        <ele>15.3</ele>
        <time>2019-08-18T06:19:43Z</time>
      </trkpt>
      <trkpt lat="42.7687820" lon="-8.6540720">
        <ele>15.5</ele>
        <time>2019-08-18T06:19:44Z</time>
      </trkpt>
      <trkpt lat="42.7688200" lon="-8.6540450">
        <ele>15.6</ele>
        <time>2019-08-18T06:19:45Z</time>
      </trkpt>
      <trkpt lat="42.7688610" lon="-8.6540180">
        <ele>15.7</ele>
        <time>2019-08-18T06:19:46Z</time>
      </trkpt>
      <trkpt lat="42.7689000" lon="-8.6539910">
        <ele>15.8</ele>
        <time>2019-08-18T06:19:47Z</time>
      </trkpt>
      <trkpt lat="42.7692470" lon="-8.6537330">
        <ele>16.5</ele>
        <time>2019-08-18T06:19:56Z</time>
      </trkpt>
      <trkpt lat="42.7695450" lon="-8.6534890">
        <ele>17.5</ele>
        <time>2019-08-18T06:20:04Z</time>
      </trkpt>
      <trkpt lat="42.7696130" lon="-8.6534010">
        <ele>17.5</ele>
        <time>2019-08-18T06:20:06Z</time>
      </trkpt>
      <trkpt lat="42.7697330" lon="-8.6532250">
        <ele>17.1</ele>
        <time>2019-08-18T06:20:10Z</time>
      </trkpt>
      <trkpt lat="42.7697970" lon="-8.6531540">
        <ele>17.0</ele>
        <time>2019-08-18T06:20:12Z</time>
      </trkpt>
      <trkpt lat="42.7698630" lon="-8.6531310">
        <ele>17.1</ele>
        <time>2019-08-18T06:20:14Z</time>
      </trkpt>
      <trkpt lat="42.7698940" lon="-8.6531470">
        <ele>17.1</ele>
        <time>2019-08-18T06:20:15Z</time>
      </trkpt>
      <trkpt lat="42.7699270" lon="-8.6531830">
        <ele>17.1</ele>
        <time>2019-08-18T06:20:16Z</time>
      </trkpt>
      <trkpt lat="42.7699590" lon="-8.6532220">
        <ele>17.2</ele>
        <time>2019-08-18T06:20:17Z</time>
      </trkpt>
      <trkpt lat="42.7699880" lon="-8.6532670">
        <ele>17.4</ele>
        <time>2019-08-18T06:20:18Z</time>
      </trkpt>
      <trkpt lat="42.7700150" lon="-8.6533170">
        <ele>17.7</ele>
        <time>2019-08-18T06:20:19Z</time>
      </trkpt>
      <trkpt lat="42.7700390" lon="-8.6533620">
        <ele>17.9</ele>
        <time>2019-08-18T06:20:20Z</time>
      </trkpt>
      <trkpt lat="42.7702180" lon="-8.6536120">
        <ele>19.8</ele>
        <time>2019-08-18T06:20:27Z</time>
      </trkpt>
      <trkpt lat="42.7703360" lon="-8.6536540">
        <ele>20.2</ele>
        <time>2019-08-18T06:20:31Z</time>
      </trkpt>
      <trkpt lat="42.7704180" lon="-8.6538250">
        <ele>20.7</ele>
        <time>2019-08-18T06:20:37Z</time>
      </trkpt>
      <trkpt lat="42.7703500" lon="-8.6540440">
        <ele>21.2</ele>
        <time>2019-08-18T06:20:42Z</time>
      </trkpt>
      <trkpt lat="42.7703590" lon="-8.6541880">
        <ele>21.6</ele>
        <time>2019-08-18T06:20:45Z</time>
      </trkpt>
      <trkpt lat="42.7703690" lon="-8.6542180">
        <ele>21.8</ele>
        <time>2019-08-18T06:20:46Z</time>
      </trkpt>
      <trkpt lat="42.7703830" lon="-8.6542440">
        <ele>21.9</ele>
        <time>2019-08-18T06:20:47Z</time>
      </trkpt>
      <trkpt lat="42.7704070" lon="-8.6542640">
        <ele>22.0</ele>
        <time>2019-08-18T06:20:48Z</time>
      </trkpt>
      <trkpt lat="42.7704390" lon="-8.6542740">
        <ele>22.2</ele>
        <time>2019-08-18T06:20:49Z</time>
      </trkpt>
      <trkpt lat="42.7705320" lon="-8.6543090">
        <ele>22.6</ele>
        <time>2019-08-18T06:20:52Z</time>
      </trkpt>
      <trkpt lat="42.7706290" lon="-8.6543600">
        <ele>23.1</ele>
        <time>2019-08-18T06:20:55Z</time>
      </trkpt>
      <trkpt lat="42.7706620" lon="-8.6543790">
        <ele>23.2</ele>
        <time>2019-08-18T06:20:56Z</time>
      </trkpt>
      <trkpt lat="42.7706910" lon="-8.6543980">
        <ele>23.3</ele>
        <time>2019-08-18T06:20:57Z</time>
      </trkpt>
      <trkpt lat="42.7707170" lon="-8.6544200">
        <ele>23.4</ele>
        <time>2019-08-18T06:20:58Z</time>
      </trkpt>
      <trkpt lat="42.7707450" lon="-8.6544420">
        <ele>23.5</ele>
        <time>2019-08-18T06:20:59Z</time>
      </trkpt>
      <trkpt lat="42.7709930" lon="-8.6545320">
        <ele>24.1</ele>
        <time>2019-08-18T06:21:06Z</time>
      </trkpt>
      <trkpt lat="42.7710640" lon="-8.6545590">
        <ele>24.1</ele>
        <time>2019-08-18T06:21:08Z</time>
      </trkpt>
      <trkpt lat="42.7710970" lon="-8.6545670">
        <ele>24.1</ele>
        <time>2019-08-18T06:21:09Z</time>
      </trkpt>
      <trkpt lat="42.7711290" lon="-8.6545820">
        <ele>24.2</ele>
        <time>2019-08-18T06:21:10Z</time>
      </trkpt>
      <trkpt lat="42.7711620" lon="-8.6545860">
        <ele>24.2</ele>
        <time>2019-08-18T06:21:11Z</time>
      </trkpt>
      <trkpt lat="42.7711930" lon="-8.6545840">
        <ele>24.2</ele>
        <time>2019-08-18T06:21:12Z</time>
      </trkpt>
      <trkpt lat="42.7712300" lon="-8.6545200">
        <ele>24.1</ele>
        <time>2019-08-18T06:21:14Z</time>
      </trkpt>
      <trkpt lat="42.7712310" lon="-8.6544660">
        <ele>24.1</ele>
        <time>2019-08-18T06:21:15Z</time>
      </trkpt>
      <trkpt lat="42.7712280" lon="-8.6541610">
        <ele>23.8</ele>
        <time>2019-08-18T06:21:20Z</time>
      </trkpt>
      <trkpt lat="42.7713040" lon="-8.6540940">
        <ele>23.7</ele>
        <time>2019-08-18T06:21:22Z</time>
      </trkpt>
      <trkpt lat="42.7713490" lon="-8.6540890">
        <ele>23.7</ele>
        <time>2019-08-18T06:21:23Z</time>
      </trkpt>
      <trkpt lat="42.7716040" lon="-8.6540280">
        <ele>23.9</ele>
        <time>2019-08-18T06:21:29Z</time>
      </trkpt>
      <trkpt lat="42.7720160" lon="-8.6539560">
        <ele>24.5</ele>
        <time>2019-08-18T06:21:39Z</time>
      </trkpt>
      <trkpt lat="42.7723260" lon="-8.6538860">
        <ele>25.2</ele>
        <time>2019-08-18T06:21:47Z</time>
      </trkpt>
      <trkpt lat="42.7724850" lon="-8.6538590">
        <ele>25.7</ele>
        <time>2019-08-18T06:21:51Z</time>
      </trkpt>
      <trkpt lat="42.7725240" lon="-8.6538510">
        <ele>25.8</ele>
        <time>2019-08-18T06:21:52Z</time>
      </trkpt>
      <trkpt lat="42.7725650" lon="-8.6538420">
        <ele>25.9</ele>
        <time>2019-08-18T06:21:53Z</time>
      </trkpt>
      <trkpt lat="42.7726060" lon="-8.6538350">
        <ele>26.0</ele>
        <time>2019-08-18T06:21:54Z</time>
      </trkpt>
      <trkpt lat="42.7726460" lon="-8.6538300">
        <ele>26.1</ele>
        <time>2019-08-18T06:21:55Z</time>
      </trkpt>
      <trkpt lat="42.7726850" lon="-8.6538250">
        <ele>26.2</ele>
        <time>2019-08-18T06:21:56Z</time>
      </trkpt>
      <trkpt lat="42.7730380" lon="-8.6537400">
        <ele>27.1</ele>
        <time>2019-08-18T06:22:05Z</time>
      </trkpt>
      <trkpt lat="42.7731560" lon="-8.6537130">
        <ele>27.4</ele>
        <time>2019-08-18T06:22:08Z</time>
      </trkpt>
      <trkpt lat="42.7731940" lon="-8.6537030">
        <ele>27.4</ele>
        <time>2019-08-18T06:22:09Z</time>
      </trkpt>
      <trkpt lat="42.7732350" lon="-8.6536950">
        <ele>27.5</ele>
        <time>2019-08-18T06:22:10Z</time>
      </trkpt>
      <trkpt lat="42.7732780" lon="-8.6536880">
        <ele>27.6</ele>
        <time>2019-08-18T06:22:11Z</time>
      </trkpt>
      <trkpt lat="42.7733200" lon="-8.6536780">
        <ele>27.7</ele>
        <time>2019-08-18T06:22:12Z</time>
      </trkpt>
      <trkpt lat="42.7734030" lon="-8.6536590">
        <ele>27.8</ele>
        <time>2019-08-18T06:22:14Z</time>
      </trkpt>
      <trkpt lat="42.7737070" lon="-8.6535900">
        <ele>28.4</ele>
        <time>2019-08-18T06:22:22Z</time>
      </trkpt>
      <trkpt lat="42.7737740" lon="-8.6536000">
        <ele>28.5</ele>
        <time>2019-08-18T06:22:24Z</time>
      </trkpt>
      <trkpt lat="42.7738270" lon="-8.6536810">
        <ele>28.6</ele>
        <time>2019-08-18T06:22:26Z</time>
      </trkpt>
      <trkpt lat="42.7738960" lon="-8.6538940">
        <ele>28.7</ele>
        <time>2019-08-18T06:22:30Z</time>
      </trkpt>
      <trkpt lat="42.7740170" lon="-8.6540860">
        <ele>29.0</ele>
        <time>2019-08-18T06:22:35Z</time>
      </trkpt>
      <trkpt lat="42.7740620" lon="-8.6540810">
        <ele>29.3</ele>
        <time>2019-08-18T06:22:36Z</time>
      </trkpt>
      <trkpt lat="42.7741090" lon="-8.6540760">
        <ele>29.6</ele>
        <time>2019-08-18T06:22:37Z</time>
      </trkpt>
      <trkpt lat="42.7741580" lon="-8.6540720">
        <ele>29.9</ele>
        <time>2019-08-18T06:22:38Z</time>
      </trkpt>
      <trkpt lat="42.7742070" lon="-8.6540660">
        <ele>30.1</ele>
        <time>2019-08-18T06:22:39Z</time>
      </trkpt>
      <trkpt lat="42.7742560" lon="-8.6540610">
        <ele>30.2</ele>
        <time>2019-08-18T06:22:40Z</time>
      </trkpt>
      <trkpt lat="42.7746250" lon="-8.6539990">
        <ele>30.4</ele>
        <time>2019-08-18T06:22:48Z</time>
      </trkpt>
      <trkpt lat="42.7749720" lon="-8.6539470">
        <ele>30.4</ele>
        <time>2019-08-18T06:22:57Z</time>
      </trkpt>
      <trkpt lat="42.7752820" lon="-8.6538990">
        <ele>30.4</ele>
        <time>2019-08-18T06:23:04Z</time>
      </trkpt>
      <trkpt lat="42.7756100" lon="-8.6538390">
        <ele>30.3</ele>
        <time>2019-08-18T06:23:11Z</time>
      </trkpt>
      <trkpt lat="42.7760060" lon="-8.6537860">
        <ele>30.3</ele>
        <time>2019-08-18T06:23:20Z</time>
      </trkpt>
      <trkpt lat="42.7761450" lon="-8.6537920">
        <ele>30.3</ele>
        <time>2019-08-18T06:23:23Z</time>
      </trkpt>
      <trkpt lat="42.7762390" lon="-8.6537730">
        <ele>30.2</ele>
        <time>2019-08-18T06:23:25Z</time>
      </trkpt>
      <trkpt lat="42.7763710" lon="-8.6537100">
        <ele>29.9</ele>
        <time>2019-08-18T06:23:28Z</time>
      </trkpt>
      <trkpt lat="42.7764530" lon="-8.6536780">
        <ele>29.7</ele>
        <time>2019-08-18T06:23:30Z</time>
      </trkpt>
      <trkpt lat="42.7766510" lon="-8.6536010">
        <ele>29.0</ele>
        <time>2019-08-18T06:23:35Z</time>
      </trkpt>
      <trkpt lat="42.7767000" lon="-8.6535960">
        <ele>28.6</ele>
        <time>2019-08-18T06:23:36Z</time>
      </trkpt>
      <trkpt lat="42.7767500" lon="-8.6535990">
        <ele>28.3</ele>
        <time>2019-08-18T06:23:37Z</time>
      </trkpt>
      <trkpt lat="42.7767910" lon="-8.6536070">
        <ele>28.1</ele>
        <time>2019-08-18T06:23:38Z</time>
      </trkpt>
      <trkpt lat="42.7768300" lon="-8.6536220">
        <ele>27.9</ele>
        <time>2019-08-18T06:23:39Z</time>
      </trkpt>
      <trkpt lat="42.7768690" lon="-8.6536400">
        <ele>27.5</ele>
        <time>2019-08-18T06:23:40Z</time>
      </trkpt>
      <trkpt lat="42.7769150" lon="-8.6536560">
        <ele>27.1</ele>
        <time>2019-08-18T06:23:41Z</time>
      </trkpt>
      <trkpt lat="42.7770090" lon="-8.6536900">
        <ele>26.4</ele>
        <time>2019-08-18T06:23:43Z</time>
      </trkpt>
      <trkpt lat="42.7770620" lon="-8.6536990">
        <ele>26.1</ele>
        <time>2019-08-18T06:23:44Z</time>
      </trkpt>
      <trkpt lat="42.7771060" lon="-8.6537120">
        <ele>25.8</ele>
        <time>2019-08-18T06:23:45Z</time>
      </trkpt>
      <trkpt lat="42.7771480" lon="-8.6537390">
        <ele>25.5</ele>
        <time>2019-08-18T06:23:46Z</time>
      </trkpt>
      <trkpt lat="42.7771820" lon="-8.6537800">
        <ele>25.2</ele>
        <time>2019-08-18T06:23:47Z</time>
      </trkpt>
      <trkpt lat="42.7772580" lon="-8.6538690">
        <ele>24.0</ele>
        <time>2019-08-18T06:23:49Z</time>
      </trkpt>
      <trkpt lat="42.7773150" lon="-8.6539400">
        <ele>23.5</ele>
        <time>2019-08-18T06:23:51Z</time>
      </trkpt>
      <trkpt lat="42.7773550" lon="-8.6539500">
        <ele>23.3</ele>
        <time>2019-08-18T06:23:52Z</time>
      </trkpt>
      <trkpt lat="42.7773900" lon="-8.6539420">
        <ele>23.1</ele>
        <time>2019-08-18T06:23:53Z</time>
      </trkpt>
      <trkpt lat="42.7774210" lon="-8.6539150">
        <ele>23.0</ele>
        <time>2019-08-18T06:23:54Z</time>
      </trkpt>
      <trkpt lat="42.7774460" lon="-8.6538790">
        <ele>23.0</ele>
        <time>2019-08-18T06:23:55Z</time>
      </trkpt>
      <trkpt lat="42.7774750" lon="-8.6538450">
        <ele>23.0</ele>
        <time>2019-08-18T06:23:56Z</time>
      </trkpt>
      <trkpt lat="42.7775050" lon="-8.6538110">
        <ele>23.0</ele>
        <time>2019-08-18T06:23:57Z</time>
      </trkpt>
      <trkpt lat="42.7778080" lon="-8.6535300">
        <ele>22.7</ele>
        <time>2019-08-18T06:24:06Z</time>
      </trkpt>
      <trkpt lat="42.7779190" lon="-8.6534530">
        <ele>22.6</ele>
        <time>2019-08-18T06:24:09Z</time>
      </trkpt>
      <trkpt lat="42.7780450" lon="-8.6534280">
        <ele>22.3</ele>
        <time>2019-08-18T06:24:12Z</time>
      </trkpt>
      <trkpt lat="42.7782640" lon="-8.6535040">
        <ele>21.8</ele>
        <time>2019-08-18T06:24:16Z</time>
      </trkpt>
      <trkpt lat="42.7785020" lon="-8.6535520">
        <ele>22.2</ele>
        <time>2019-08-18T06:24:20Z</time>
      </trkpt>
      <trkpt lat="42.7786010" lon="-8.6535390">
        <ele>22.6</ele>
        <time>2019-08-18T06:24:22Z</time>
      </trkpt>
      <trkpt lat="42.7786880" lon="-8.6535120">
        <ele>23.1</ele>
        <time>2019-08-18T06:24:24Z</time>
      </trkpt>
      <trkpt lat="42.7787840" lon="-8.6534290">
        <ele>23.9</ele>
        <time>2019-08-18T06:24:27Z</time>
      </trkpt>
      <trkpt lat="42.7788070" lon="-8.6533920">
        <ele>24.1</ele>
        <time>2019-08-18T06:24:28Z</time>
      </trkpt>
      <trkpt lat="42.7788290" lon="-8.6533480">
        <ele>24.3</ele>
        <time>2019-08-18T06:24:29Z</time>
      </trkpt>
      <trkpt lat="42.7788510" lon="-8.6533040">
        <ele>24.5</ele>
        <time>2019-08-18T06:24:30Z</time>
      </trkpt>
      <trkpt lat="42.7788760" lon="-8.6532570">
        <ele>24.8</ele>
        <time>2019-08-18T06:24:31Z</time>
      </trkpt>
      <trkpt lat="42.7789000" lon="-8.6532110">
        <ele>24.9</ele>
        <time>2019-08-18T06:24:32Z</time>
      </trkpt>
      <trkpt lat="42.7791290" lon="-8.6528570">
        <ele>25.7</ele>
        <time>2019-08-18T06:24:40Z</time>
      </trkpt>
      <trkpt lat="42.7794210" lon="-8.6524840">
        <ele>26.3</ele>
        <time>2019-08-18T06:24:49Z</time>
      </trkpt>
      <trkpt lat="42.7794610" lon="-8.6524550">
        <ele>26.4</ele>
        <time>2019-08-18T06:24:50Z</time>
      </trkpt>
      <trkpt lat="42.7794960" lon="-8.6524240">
        <ele>26.5</ele>
        <time>2019-08-18T06:24:51Z</time>
      </trkpt>
      <trkpt lat="42.7795290" lon="-8.6523820">
        <ele>26.5</ele>
        <time>2019-08-18T06:24:52Z</time>
      </trkpt>
      <trkpt lat="42.7795690" lon="-8.6523420">
        <ele>26.6</ele>
        <time>2019-08-18T06:24:53Z</time>
      </trkpt>
      <trkpt lat="42.7796040" lon="-8.6523040">
        <ele>26.7</ele>
        <time>2019-08-18T06:24:54Z</time>
      </trkpt>
      <trkpt lat="42.7796690" lon="-8.6522190">
        <ele>26.9</ele>
        <time>2019-08-18T06:24:56Z</time>
      </trkpt>
      <trkpt lat="42.7797590" lon="-8.6520930">
        <ele>27.3</ele>
        <time>2019-08-18T06:24:59Z</time>
      </trkpt>
      <trkpt lat="42.7798730" lon="-8.6519910">
        <ele>27.5</ele>
        <time>2019-08-18T06:25:02Z</time>
      </trkpt>
      <trkpt lat="42.7799100" lon="-8.6519540">
        <ele>27.6</ele>
        <time>2019-08-18T06:25:03Z</time>
      </trkpt>
      <trkpt lat="42.7799950" lon="-8.6518060">
        <ele>28.0</ele>
        <time>2019-08-18T06:25:06Z</time>
      </trkpt>
      <trkpt lat="42.7800280" lon="-8.6515840">
        <ele>28.5</ele>
        <time>2019-08-18T06:25:10Z</time>
      </trkpt>
      <trkpt lat="42.7800310" lon="-8.6515270">
        <ele>28.7</ele>
        <time>2019-08-18T06:25:11Z</time>
      </trkpt>
      <trkpt lat="42.7800360" lon="-8.6514710">
        <ele>28.8</ele>
        <time>2019-08-18T06:25:12Z</time>
      </trkpt>
      <trkpt lat="42.7800480" lon="-8.6514200">
        <ele>28.9</ele>
        <time>2019-08-18T06:25:13Z</time>
      </trkpt>
      <trkpt lat="42.7800610" lon="-8.6513720">
        <ele>29.1</ele>
        <time>2019-08-18T06:25:14Z</time>
      </trkpt>
      <trkpt lat="42.7800890" lon="-8.6512680">
        <ele>29.3</ele>
        <time>2019-08-18T06:25:16Z</time>
      </trkpt>
      <trkpt lat="42.7801580" lon="-8.6510900">
        <ele>29.9</ele>
        <time>2019-08-18T06:25:21Z</time>
      </trkpt>
      <trkpt lat="42.7803190" lon="-8.6509240">
        <ele>30.1</ele>
        <time>2019-08-18T06:25:26Z</time>
      </trkpt>
      <trkpt lat="42.7805830" lon="-8.6508830">
        <ele>29.9</ele>
        <time>2019-08-18T06:25:32Z</time>
      </trkpt>
      <trkpt lat="42.7809220" lon="-8.6507960">
        <ele>28.7</ele>
        <time>2019-08-18T06:25:39Z</time>
      </trkpt>
      <trkpt lat="42.7812960" lon="-8.6507010">
        <ele>28.2</ele>
        <time>2019-08-18T06:25:46Z</time>
      </trkpt>
      <trkpt lat="42.7816010" lon="-8.6506400">
        <ele>28.3</ele>
        <time>2019-08-18T06:25:52Z</time>
      </trkpt>
      <trkpt lat="42.7821280" lon="-8.6505250">
        <ele>29.1</ele>
        <time>2019-08-18T06:26:02Z</time>
      </trkpt>
      <trkpt lat="42.7826520" lon="-8.6503860">
        <ele>30.4</ele>
        <time>2019-08-18T06:26:12Z</time>
      </trkpt>
      <trkpt lat="42.7830720" lon="-8.6503150">
        <ele>31.4</ele>
        <time>2019-08-18T06:26:20Z</time>
      </trkpt>
      <trkpt lat="42.7834840" lon="-8.6502390">
        <ele>32.6</ele>
        <time>2019-08-18T06:26:28Z</time>
      </trkpt>
      <trkpt lat="42.7835270" lon="-8.6502310">
        <ele>32.7</ele>
        <time>2019-08-18T06:26:29Z</time>
      </trkpt>
      <trkpt lat="42.7835720" lon="-8.6502200">
        <ele>32.8</ele>
        <time>2019-08-18T06:26:30Z</time>
      </trkpt>
      <trkpt lat="42.7836230" lon="-8.6502100">
        <ele>33.0</ele>
        <time>2019-08-18T06:26:31Z</time>
      </trkpt>
      <trkpt lat="42.7837170" lon="-8.6501850">
        <ele>33.2</ele>
        <time>2019-08-18T06:26:33Z</time>
      </trkpt>
      <trkpt lat="42.7839130" lon="-8.6501350">
        <ele>33.8</ele>
        <time>2019-08-18T06:26:37Z</time>
      </trkpt>
      <trkpt lat="42.7843380" lon="-8.6499650">
        <ele>35.6</ele>
        <time>2019-08-18T06:26:46Z</time>
      </trkpt>
      <trkpt lat="42.7844200" lon="-8.6499230">
        <ele>35.9</ele>
        <time>2019-08-18T06:26:48Z</time>
      </trkpt>
      <trkpt lat="42.7844560" lon="-8.6498960">
        <ele>36.0</ele>
        <time>2019-08-18T06:26:49Z</time>
      </trkpt>
      <trkpt lat="42.7844850" lon="-8.6498690">
        <ele>36.1</ele>
        <time>2019-08-18T06:26:50Z</time>
      </trkpt>
      <trkpt lat="42.7845200" lon="-8.6498460">
        <ele>36.2</ele>
        <time>2019-08-18T06:26:51Z</time>
      </trkpt>
      <trkpt lat="42.7845550" lon="-8.6498240">
        <ele>36.2</ele>
        <time>2019-08-18T06:26:52Z</time>
      </trkpt>
      <trkpt lat="42.7846100" lon="-8.6497930">
        <ele>36.3</ele>
        <time>2019-08-18T06:26:54Z</time>
      </trkpt>
      <trkpt lat="42.7845900" lon="-8.6496560">
        <ele>37.3</ele>
        <time>2019-08-18T06:26:57Z</time>
      </trkpt>
      <trkpt lat="42.7845800" lon="-8.6496180">
        <ele>37.4</ele>
        <time>2019-08-18T06:26:58Z</time>
      </trkpt>
      <trkpt lat="42.7845680" lon="-8.6495340">
        <ele>37.9</ele>
        <time>2019-08-18T06:27:00Z</time>
      </trkpt>
      <trkpt lat="42.7845710" lon="-8.6495000">
        <ele>38.0</ele>
        <time>2019-08-18T06:27:01Z</time>
      </trkpt>
      <trkpt lat="42.7845880" lon="-8.6494310">
        <ele>38.4</ele>
        <time>2019-08-18T06:27:03Z</time>
      </trkpt>
      <trkpt lat="42.7846050" lon="-8.6494010">
        <ele>38.7</ele>
        <time>2019-08-18T06:27:04Z</time>
      </trkpt>
      <trkpt lat="42.7846530" lon="-8.6493100">
        <ele>39.3</ele>
        <time>2019-08-18T06:27:07Z</time>
      </trkpt>
      <trkpt lat="42.7846730" lon="-8.6492800">
        <ele>39.5</ele>
        <time>2019-08-18T06:27:08Z</time>
      </trkpt>
      <trkpt lat="42.7846900" lon="-8.6492520">
        <ele>39.7</ele>
        <time>2019-08-18T06:27:09Z</time>
      </trkpt>
      <trkpt lat="42.7847090" lon="-8.6492280">
        <ele>39.9</ele>
        <time>2019-08-18T06:27:10Z</time>
      </trkpt>
      <trkpt lat="42.7847290" lon="-8.6492020">
        <ele>40.1</ele>
        <time>2019-08-18T06:27:11Z</time>
      </trkpt>
      <trkpt lat="42.7848090" lon="-8.6490890">
        <ele>40.9</ele>
        <time>2019-08-18T06:27:15Z</time>
      </trkpt>
      <trkpt lat="42.7848290" lon="-8.6490620">
        <ele>41.1</ele>
        <time>2019-08-18T06:27:16Z</time>
      </trkpt>
      <trkpt lat="42.7848490" lon="-8.6490360">
        <ele>41.3</ele>
        <time>2019-08-18T06:27:17Z</time>
      </trkpt>
      <trkpt lat="42.7848690" lon="-8.6490090">
        <ele>41.5</ele>
        <time>2019-08-18T06:27:18Z</time>
      </trkpt>
      <trkpt lat="42.7848890" lon="-8.6489790">
        <ele>41.7</ele>
        <time>2019-08-18T06:27:19Z</time>
      </trkpt>
      <trkpt lat="42.7849960" lon="-8.6488950">
        <ele>42.7</ele>
        <time>2019-08-18T06:27:24Z</time>
      </trkpt>
      <trkpt lat="42.7850230" lon="-8.6488730">
        <ele>42.9</ele>
        <time>2019-08-18T06:27:25Z</time>
      </trkpt>
      <trkpt lat="42.7850520" lon="-8.6488580">
        <ele>43.1</ele>
        <time>2019-08-18T06:27:26Z</time>
      </trkpt>
      <trkpt lat="42.7850790" lon="-8.6488400">
        <ele>43.3</ele>
        <time>2019-08-18T06:27:27Z</time>
      </trkpt>
      <trkpt lat="42.7851050" lon="-8.6488220">
        <ele>43.5</ele>
        <time>2019-08-18T06:27:28Z</time>
      </trkpt>
      <trkpt lat="42.7851300" lon="-8.6488020">
        <ele>43.7</ele>
        <time>2019-08-18T06:27:29Z</time>
      </trkpt>
      <trkpt lat="42.7851930" lon="-8.6487490">
        <ele>44.2</ele>
        <time>2019-08-18T06:27:32Z</time>
      </trkpt>
      <trkpt lat="42.7852980" lon="-8.6486380">
        <ele>45.1</ele>
        <time>2019-08-18T06:27:38Z</time>
      </trkpt>
      <trkpt lat="42.7853110" lon="-8.6486230">
        <ele>45.2</ele>
        <time>2019-08-18T06:27:39Z</time>
      </trkpt>
      <trkpt lat="42.7853260" lon="-8.6486040">
        <ele>45.3</ele>
        <time>2019-08-18T06:27:40Z</time>
      </trkpt>
      <trkpt lat="42.7853430" lon="-8.6485850">
        <ele>45.4</ele>
        <time>2019-08-18T06:27:41Z</time>
      </trkpt>
      <trkpt lat="42.7853640" lon="-8.6485690">
        <ele>45.5</ele>
        <time>2019-08-18T06:27:42Z</time>
      </trkpt>
      <trkpt lat="42.7854190" lon="-8.6484960">
        <ele>46.0</ele>
        <time>2019-08-18T06:27:46Z</time>
      </trkpt>
      <trkpt lat="42.7856010" lon="-8.6483030">
        <ele>47.1</ele>
        <time>2019-08-18T06:27:53Z</time>
      </trkpt>
      <trkpt lat="42.7856220" lon="-8.6482690">
        <ele>47.2</ele>
        <time>2019-08-18T06:27:54Z</time>
      </trkpt>
      <trkpt lat="42.7857310" lon="-8.6481050">
        <ele>47.9</ele>
        <time>2019-08-18T06:28:00Z</time>
      </trkpt>
      <trkpt lat="42.7858940" lon="-8.6478860">
        <ele>49.0</ele>
        <time>2019-08-18T06:28:08Z</time>
      </trkpt>
      <trkpt lat="42.7859180" lon="-8.6478660">
        <ele>49.1</ele>
        <time>2019-08-18T06:28:09Z</time>
      </trkpt>
      <trkpt lat="42.7859450" lon="-8.6478530">
        <ele>49.2</ele>
        <time>2019-08-18T06:28:10Z</time>
      </trkpt>
      <trkpt lat="42.7859720" lon="-8.6478400">
        <ele>49.4</ele>
        <time>2019-08-18T06:28:11Z</time>
      </trkpt>
      <trkpt lat="42.7859950" lon="-8.6478280">
        <ele>49.4</ele>
        <time>2019-08-18T06:28:12Z</time>
      </trkpt>
      <trkpt lat="42.7860490" lon="-8.6478050">
        <ele>49.3</ele>
        <time>2019-08-18T06:28:14Z</time>
      </trkpt>
      <trkpt lat="42.7862260" lon="-8.6477790">
        <ele>49.0</ele>
        <time>2019-08-18T06:28:20Z</time>
      </trkpt>
      <trkpt lat="42.7863890" lon="-8.6478630">
        <ele>48.8</ele>
        <time>2019-08-18T06:28:26Z</time>
      </trkpt>
      <trkpt lat="42.7864100" lon="-8.6478880">
        <ele>48.7</ele>
        <time>2019-08-18T06:28:27Z</time>
      </trkpt>
      <trkpt lat="42.7864240" lon="-8.6479150">
        <ele>48.6</ele>
        <time>2019-08-18T06:28:28Z</time>
      </trkpt>
      <trkpt lat="42.7864400" lon="-8.6479380">
        <ele>48.6</ele>
        <time>2019-08-18T06:28:29Z</time>
      </trkpt>
      <trkpt lat="42.7864580" lon="-8.6479520">
        <ele>48.6</ele>
        <time>2019-08-18T06:28:30Z</time>
      </trkpt>
      <trkpt lat="42.7864830" lon="-8.6479570">
        <ele>48.5</ele>
        <time>2019-08-18T06:28:31Z</time>
      </trkpt>
      <trkpt lat="42.7865030" lon="-8.6479590">
        <ele>48.5</ele>
        <time>2019-08-18T06:28:32Z</time>
      </trkpt>
      <trkpt lat="42.7867000" lon="-8.6479630">
        <ele>48.0</ele>
        <time>2019-08-18T06:28:38Z</time>
      </trkpt>
      <trkpt lat="42.7868630" lon="-8.6480700">
        <ele>47.5</ele>
        <time>2019-08-18T06:28:43Z</time>
      </trkpt>
      <trkpt lat="42.7869270" lon="-8.6480770">
        <ele>47.4</ele>
        <time>2019-08-18T06:28:45Z</time>
      </trkpt>
      <trkpt lat="42.7869900" lon="-8.6480410">
        <ele>47.4</ele>
        <time>2019-08-18T06:28:47Z</time>
      </trkpt>
      <trkpt lat="42.7871430" lon="-8.6479280">
        <ele>48.0</ele>
        <time>2019-08-18T06:28:52Z</time>
      </trkpt>
      <trkpt lat="42.7873850" lon="-8.6477870">
        <ele>48.3</ele>
        <time>2019-08-18T06:29:00Z</time>
      </trkpt>
      <trkpt lat="42.7874390" lon="-8.6477470">
        <ele>48.4</ele>
        <time>2019-08-18T06:29:02Z</time>
      </trkpt>
      <trkpt lat="42.7875360" lon="-8.6477310">
        <ele>48.2</ele>
        <time>2019-08-18T06:29:05Z</time>
      </trkpt>
      <trkpt lat="42.7875720" lon="-8.6477310">
        <ele>48.1</ele>
        <time>2019-08-18T06:29:06Z</time>
      </trkpt>
      <trkpt lat="42.7878310" lon="-8.6477110">
        <ele>47.7</ele>
        <time>2019-08-18T06:29:13Z</time>
      </trkpt>
      <trkpt lat="42.7880560" lon="-8.6476870">
        <ele>47.3</ele>
        <time>2019-08-18T06:29:20Z</time>
      </trkpt>
      <trkpt lat="42.7880780" lon="-8.6475630">
        <ele>47.8</ele>
        <time>2019-08-18T06:29:23Z</time>
      </trkpt>
      <trkpt lat="42.7880700" lon="-8.6475170">
        <ele>47.9</ele>
        <time>2019-08-18T06:29:24Z</time>
      </trkpt>
      <trkpt lat="42.7880160" lon="-8.6472520">
        <ele>48.8</ele>
        <time>2019-08-18T06:29:30Z</time>
      </trkpt>
      <trkpt lat="42.7880260" lon="-8.6472140">
        <ele>49.0</ele>
        <time>2019-08-18T06:29:31Z</time>
      </trkpt>
      <trkpt lat="42.7880570" lon="-8.6471840">
        <ele>49.0</ele>
        <time>2019-08-18T06:29:32Z</time>
      </trkpt>
      <trkpt lat="42.7880950" lon="-8.6471660">
        <ele>49.0</ele>
        <time>2019-08-18T06:29:33Z</time>
      </trkpt>
      <trkpt lat="42.7881370" lon="-8.6471530">
        <ele>49.0</ele>
        <time>2019-08-18T06:29:34Z</time>
      </trkpt>
      <trkpt lat="42.7882730" lon="-8.6471140">
        <ele>49.0</ele>
        <time>2019-08-18T06:29:37Z</time>
      </trkpt>
      <trkpt lat="42.7885020" lon="-8.6470510">
        <ele>49.0</ele>
        <time>2019-08-18T06:29:42Z</time>
      </trkpt>
      <trkpt lat="42.7885970" lon="-8.6470200">
        <ele>49.0</ele>
        <time>2019-08-18T06:29:44Z</time>
      </trkpt>
      <trkpt lat="42.7888490" lon="-8.6469400">
        <ele>48.9</ele>
        <time>2019-08-18T06:29:49Z</time>
      </trkpt>
      <trkpt lat="42.7892420" lon="-8.6468480">
        <ele>48.6</ele>
        <time>2019-08-18T06:29:57Z</time>
      </trkpt>
      <trkpt lat="42.7896510" lon="-8.6467030">
        <ele>48.2</ele>
        <time>2019-08-18T06:30:06Z</time>
      </trkpt>
      <trkpt lat="42.7897010" lon="-8.6466900">
        <ele>48.3</ele>
        <time>2019-08-18T06:30:07Z</time>
      </trkpt>
      <trkpt lat="42.7897490" lon="-8.6466740">
        <ele>48.5</ele>
        <time>2019-08-18T06:30:08Z</time>
      </trkpt>
      <trkpt lat="42.7897920" lon="-8.6466640">
        <ele>48.7</ele>
        <time>2019-08-18T06:30:09Z</time>
      </trkpt>
      <trkpt lat="42.7898310" lon="-8.6466540">
        <ele>48.9</ele>
        <time>2019-08-18T06:30:10Z</time>
      </trkpt>
      <trkpt lat="42.7898680" lon="-8.6466390">
        <ele>49.1</ele>
        <time>2019-08-18T06:30:11Z</time>
      </trkpt>
      <trkpt lat="42.7899020" lon="-8.6466130">
        <ele>49.4</ele>
        <time>2019-08-18T06:30:12Z</time>
      </trkpt>
      <trkpt lat="42.7899200" lon="-8.6464690">
        <ele>50.3</ele>
        <time>2019-08-18T06:30:15Z</time>
      </trkpt>
      <trkpt lat="42.7898980" lon="-8.6463710">
        <ele>50.9</ele>
        <time>2019-08-18T06:30:17Z</time>
      </trkpt>
      <trkpt lat="42.7898680" lon="-8.6461810">
        <ele>52.3</ele>
        <time>2019-08-18T06:30:21Z</time>
      </trkpt>
      <trkpt lat="42.7898610" lon="-8.6459880">
        <ele>53.8</ele>
        <time>2019-08-18T06:30:25Z</time>
      </trkpt>
      <trkpt lat="42.7898660" lon="-8.6459390">
        <ele>54.1</ele>
        <time>2019-08-18T06:30:26Z</time>
      </trkpt>
      <trkpt lat="42.7898730" lon="-8.6458940">
        <ele>54.3</ele>
        <time>2019-08-18T06:30:27Z</time>
      </trkpt>
      <trkpt lat="42.7898830" lon="-8.6458460">
        <ele>54.6</ele>
        <time>2019-08-18T06:30:28Z</time>
      </trkpt>
      <trkpt lat="42.7898930" lon="-8.6458000">
        <ele>54.9</ele>
        <time>2019-08-18T06:30:29Z</time>
      </trkpt>
      <trkpt lat="42.7899300" lon="-8.6456740">
        <ele>55.6</ele>
        <time>2019-08-18T06:30:32Z</time>
      </trkpt>
      <trkpt lat="42.7899400" lon="-8.6456330">
        <ele>55.8</ele>
        <time>2019-08-18T06:30:33Z</time>
      </trkpt>
      <trkpt lat="42.7899550" lon="-8.6455920">
        <ele>56.0</ele>
        <time>2019-08-18T06:30:34Z</time>
      </trkpt>
      <trkpt lat="42.7899680" lon="-8.6455500">
        <ele>56.2</ele>
        <time>2019-08-18T06:30:35Z</time>
      </trkpt>
      <trkpt lat="42.7899820" lon="-8.6455060">
        <ele>56.5</ele>
        <time>2019-08-18T06:30:36Z</time>
      </trkpt>
      <trkpt lat="42.7900070" lon="-8.6454200">
        <ele>57.0</ele>
        <time>2019-08-18T06:30:38Z</time>
      </trkpt>
      <trkpt lat="42.7900160" lon="-8.6453750">
        <ele>57.4</ele>
        <time>2019-08-18T06:30:39Z</time>
      </trkpt>
      <trkpt lat="42.7900220" lon="-8.6453300">
        <ele>57.6</ele>
        <time>2019-08-18T06:30:40Z</time>
      </trkpt>
      <trkpt lat="42.7900270" lon="-8.6452860">
        <ele>57.9</ele>
        <time>2019-08-18T06:30:41Z</time>
      </trkpt>
      <trkpt lat="42.7900310" lon="-8.6452420">
        <ele>58.1</ele>
        <time>2019-08-18T06:30:42Z</time>
      </trkpt>
      <trkpt lat="42.7900340" lon="-8.6451990">
        <ele>58.3</ele>
        <time>2019-08-18T06:30:43Z</time>
      </trkpt>
      <trkpt lat="42.7900320" lon="-8.6451170">
        <ele>58.8</ele>
        <time>2019-08-18T06:30:45Z</time>
      </trkpt>
      <trkpt lat="42.7900330" lon="-8.6450780">
        <ele>59.0</ele>
        <time>2019-08-18T06:30:46Z</time>
      </trkpt>
      <trkpt lat="42.7900350" lon="-8.6450420">
        <ele>59.2</ele>
        <time>2019-08-18T06:30:47Z</time>
      </trkpt>
      <trkpt lat="42.7900420" lon="-8.6449770">
        <ele>59.5</ele>
        <time>2019-08-18T06:30:49Z</time>
      </trkpt>
      <trkpt lat="42.7900620" lon="-8.6449210">
        <ele>59.8</ele>
        <time>2019-08-18T06:30:51Z</time>
      </trkpt>
      <trkpt lat="42.7900790" lon="-8.6449080">
        <ele>60.4</ele>
        <time>2019-08-18T06:30:52Z</time>
      </trkpt>
      <trkpt lat="42.7900980" lon="-8.6449050">
        <ele>60.7</ele>
        <time>2019-08-18T06:30:53Z</time>
      </trkpt>
      <trkpt lat="42.7901190" lon="-8.6449070">
        <ele>61.1</ele>
        <time>2019-08-18T06:30:54Z</time>
      </trkpt>
      <trkpt lat="42.7901390" lon="-8.6449090">
        <ele>61.4</ele>
        <time>2019-08-18T06:30:55Z</time>
      </trkpt>
      <trkpt lat="42.7902950" lon="-8.6449480">
        <ele>63.5</ele>
        <time>2019-08-18T06:31:01Z</time>
      </trkpt>
      <trkpt lat="42.7904150" lon="-8.6449010">
        <ele>64.6</ele>
        <time>2019-08-18T06:31:06Z</time>
      </trkpt>
      <trkpt lat="42.7905720" lon="-8.6448300">
        <ele>65.6</ele>
        <time>2019-08-18T06:31:12Z</time>
      </trkpt>
      <trkpt lat="42.7907980" lon="-8.6448400">
        <ele>66.0</ele>
        <time>2019-08-18T06:31:19Z</time>
      </trkpt>
      <trkpt lat="42.7911010" lon="-8.6448510">
        <ele>66.0</ele>
        <time>2019-08-18T06:31:27Z</time>
      </trkpt>
      <trkpt lat="42.7911510" lon="-8.6448460">
        <ele>66.0</ele>
        <time>2019-08-18T06:31:28Z</time>
      </trkpt>
      <trkpt lat="42.7913570" lon="-8.6448400">
        <ele>65.9</ele>
        <time>2019-08-18T06:31:32Z</time>
      </trkpt>
      <trkpt lat="42.7914100" lon="-8.6448330">
        <ele>65.8</ele>
        <time>2019-08-18T06:31:33Z</time>
      </trkpt>
      <trkpt lat="42.7917020" lon="-8.6447590">
        <ele>64.5</ele>
        <time>2019-08-18T06:31:39Z</time>
      </trkpt>
      <trkpt lat="42.7917890" lon="-8.6447120">
        <ele>63.9</ele>
        <time>2019-08-18T06:31:41Z</time>
      </trkpt>
      <trkpt lat="42.7919420" lon="-8.6446020">
        <ele>62.6</ele>
        <time>2019-08-18T06:31:45Z</time>
      </trkpt>
      <trkpt lat="42.7921240" lon="-8.6443890">
        <ele>61.1</ele>
        <time>2019-08-18T06:31:51Z</time>
      </trkpt>
      <trkpt lat="42.7921810" lon="-8.6442950">
        <ele>60.8</ele>
        <time>2019-08-18T06:31:53Z</time>
      </trkpt>
      <trkpt lat="42.7922820" lon="-8.6441470">
        <ele>60.4</ele>
        <time>2019-08-18T06:31:56Z</time>
      </trkpt>
      <trkpt lat="42.7925740" lon="-8.6437150">
        <ele>60.5</ele>
        <time>2019-08-18T06:32:04Z</time>
      </trkpt>
      <trkpt lat="42.7928140" lon="-8.6434630">
        <ele>60.7</ele>
        <time>2019-08-18T06:32:10Z</time>
      </trkpt>
      <trkpt lat="42.7929910" lon="-8.6433030">
        <ele>61.6</ele>
        <time>2019-08-18T06:32:16Z</time>
      </trkpt>
      <trkpt lat="42.7930160" lon="-8.6432750">
        <ele>61.7</ele>
        <time>2019-08-18T06:32:17Z</time>
      </trkpt>
      <trkpt lat="42.7930380" lon="-8.6432460">
        <ele>61.9</ele>
        <time>2019-08-18T06:32:18Z</time>
      </trkpt>
      <trkpt lat="42.7930590" lon="-8.6432170">
        <ele>62.0</ele>
        <time>2019-08-18T06:32:19Z</time>
      </trkpt>
      <trkpt lat="42.7930800" lon="-8.6431880">
        <ele>62.1</ele>
        <time>2019-08-18T06:32:20Z</time>
      </trkpt>
      <trkpt lat="42.7932130" lon="-8.6429950">
        <ele>62.4</ele>
        <time>2019-08-18T06:32:26Z</time>
      </trkpt>
      <trkpt lat="42.7932810" lon="-8.6428980">
        <ele>62.3</ele>
        <time>2019-08-18T06:32:29Z</time>
      </trkpt>
      <trkpt lat="42.7933160" lon="-8.6428540">
        <ele>62.2</ele>
        <time>2019-08-18T06:32:30Z</time>
      </trkpt>
      <trkpt lat="42.7933450" lon="-8.6428070">
        <ele>62.2</ele>
        <time>2019-08-18T06:32:31Z</time>
      </trkpt>
      <trkpt lat="42.7933860" lon="-8.6427830">
        <ele>62.1</ele>
        <time>2019-08-18T06:32:32Z</time>
      </trkpt>
      <trkpt lat="42.7934240" lon="-8.6427610">
        <ele>62.1</ele>
        <time>2019-08-18T06:32:33Z</time>
      </trkpt>
      <trkpt lat="42.7936200" lon="-8.6426270">
        <ele>61.9</ele>
        <time>2019-08-18T06:32:38Z</time>
      </trkpt>
      <trkpt lat="42.7936670" lon="-8.6425760">
        <ele>61.8</ele>
        <time>2019-08-18T06:32:39Z</time>
      </trkpt>
      <trkpt lat="42.7937170" lon="-8.6425170">
        <ele>61.7</ele>
        <time>2019-08-18T06:32:40Z</time>
      </trkpt>
      <trkpt lat="42.7937650" lon="-8.6424550">
        <ele>61.6</ele>
        <time>2019-08-18T06:32:41Z</time>
      </trkpt>
      <trkpt lat="42.7938640" lon="-8.6423530">
        <ele>61.5</ele>
        <time>2019-08-18T06:32:43Z</time>
      </trkpt>
      <trkpt lat="42.7939580" lon="-8.6422580">
        <ele>61.2</ele>
        <time>2019-08-18T06:32:45Z</time>
      </trkpt>
      <trkpt lat="42.7940060" lon="-8.6422040">
        <ele>61.1</ele>
        <time>2019-08-18T06:32:46Z</time>
      </trkpt>
      <trkpt lat="42.7940580" lon="-8.6421390">
        <ele>60.9</ele>
        <time>2019-08-18T06:32:47Z</time>
      </trkpt>
      <trkpt lat="42.7941160" lon="-8.6420620">
        <ele>60.6</ele>
        <time>2019-08-18T06:32:48Z</time>
      </trkpt>
      <trkpt lat="42.7941730" lon="-8.6419770">
        <ele>60.3</ele>
        <time>2019-08-18T06:32:49Z</time>
      </trkpt>
      <trkpt lat="42.7942310" lon="-8.6418890">
        <ele>59.9</ele>
        <time>2019-08-18T06:32:50Z</time>
      </trkpt>
      <trkpt lat="42.7942890" lon="-8.6418080">
        <ele>59.6</ele>
        <time>2019-08-18T06:32:51Z</time>
      </trkpt>
      <trkpt lat="42.7943500" lon="-8.6417360">
        <ele>59.2</ele>
        <time>2019-08-18T06:32:52Z</time>
      </trkpt>
      <trkpt lat="42.7944110" lon="-8.6416780">
        <ele>58.7</ele>
        <time>2019-08-18T06:32:53Z</time>
      </trkpt>
      <trkpt lat="42.7945580" lon="-8.6416380">
        <ele>57.6</ele>
        <time>2019-08-18T06:32:55Z</time>
      </trkpt>
      <trkpt lat="42.7946320" lon="-8.6416430">
        <ele>57.1</ele>
        <time>2019-08-18T06:32:56Z</time>
      </trkpt>
      <trkpt lat="42.7947090" lon="-8.6416560">
        <ele>56.3</ele>
        <time>2019-08-18T06:32:57Z</time>
      </trkpt>
      <trkpt lat="42.7947870" lon="-8.6416670">
        <ele>55.5</ele>
        <time>2019-08-18T06:32:58Z</time>
      </trkpt>
      <trkpt lat="42.7948660" lon="-8.6416770">
        <ele>54.7</ele>
        <time>2019-08-18T06:32:59Z</time>
      </trkpt>
      <trkpt lat="42.7949550" lon="-8.6417520">
        <ele>53.6</ele>
        <time>2019-08-18T06:33:00Z</time>
      </trkpt>
      <trkpt lat="42.7950040" lon="-8.6418300">
        <ele>52.8</ele>
        <time>2019-08-18T06:33:01Z</time>
      </trkpt>
      <trkpt lat="42.7950660" lon="-8.6419090">
        <ele>51.4</ele>
        <time>2019-08-18T06:33:02Z</time>
      </trkpt>
      <trkpt lat="42.7951270" lon="-8.6419830">
        <ele>49.9</ele>
        <time>2019-08-18T06:33:03Z</time>
      </trkpt>
      <trkpt lat="42.7951900" lon="-8.6420870">
        <ele>48.1</ele>
        <time>2019-08-18T06:33:04Z</time>
      </trkpt>
      <trkpt lat="42.7953150" lon="-8.6422120">
        <ele>45.3</ele>
        <time>2019-08-18T06:33:06Z</time>
      </trkpt>
      <trkpt lat="42.7953810" lon="-8.6422470">
        <ele>44.2</ele>
        <time>2019-08-18T06:33:07Z</time>
      </trkpt>
      <trkpt lat="42.7955180" lon="-8.6422620">
        <ele>42.3</ele>
        <time>2019-08-18T06:33:09Z</time>
      </trkpt>
      <trkpt lat="42.7956790" lon="-8.6421720">
        <ele>40.9</ele>
        <time>2019-08-18T06:33:12Z</time>
      </trkpt>
      <trkpt lat="42.7957200" lon="-8.6421050">
        <ele>40.5</ele>
        <time>2019-08-18T06:33:13Z</time>
      </trkpt>
      <trkpt lat="42.7957620" lon="-8.6420350">
        <ele>40.2</ele>
        <time>2019-08-18T06:33:14Z</time>
      </trkpt>
      <trkpt lat="42.7958020" lon="-8.6419700">
        <ele>40.0</ele>
        <time>2019-08-18T06:33:15Z</time>
      </trkpt>
      <trkpt lat="42.7958460" lon="-8.6419080">
        <ele>39.9</ele>
        <time>2019-08-18T06:33:16Z</time>
      </trkpt>
      <trkpt lat="42.7958940" lon="-8.6418430">
        <ele>39.9</ele>
        <time>2019-08-18T06:33:17Z</time>
      </trkpt>
      <trkpt lat="42.7961550" lon="-8.6414140">
        <ele>39.9</ele>
        <time>2019-08-18T06:33:23Z</time>
      </trkpt>
      <trkpt lat="42.7961720" lon="-8.6413270">
        <ele>39.9</ele>
        <time>2019-08-18T06:33:24Z</time>
      </trkpt>
      <trkpt lat="42.7961790" lon="-8.6412320">
        <ele>39.8</ele>
        <time>2019-08-18T06:33:25Z</time>
      </trkpt>
      <trkpt lat="42.7961830" lon="-8.6411470">
        <ele>39.7</ele>
        <time>2019-08-18T06:33:26Z</time>
      </trkpt>
      <trkpt lat="42.7961890" lon="-8.6410620">
        <ele>39.7</ele>
        <time>2019-08-18T06:33:27Z</time>
      </trkpt>
      <trkpt lat="42.7962030" lon="-8.6409830">
        <ele>39.8</ele>
        <time>2019-08-18T06:33:28Z</time>
      </trkpt>
      <trkpt lat="42.7962540" lon="-8.6407520">
        <ele>40.0</ele>
        <time>2019-08-18T06:33:31Z</time>
      </trkpt>
      <trkpt lat="42.7963040" lon="-8.6405470">
        <ele>40.2</ele>
        <time>2019-08-18T06:33:34Z</time>
      </trkpt>
      <trkpt lat="42.7963320" lon="-8.6404550">
        <ele>40.3</ele>
        <time>2019-08-18T06:33:36Z</time>
      </trkpt>
      <trkpt lat="42.7963460" lon="-8.6404350">
        <ele>40.3</ele>
        <time>2019-08-18T06:33:39Z</time>
      </trkpt>
      <trkpt lat="42.7963480" lon="-8.6404380">
        <ele>40.3</ele>
        <time>2019-08-18T06:33:57Z</time>
      </trkpt>
      <trkpt lat="42.7963770" lon="-8.6403870">
        <ele>40.3</ele>
        <time>2019-08-18T06:33:59Z</time>
      </trkpt>
      <trkpt lat="42.7964850" lon="-8.6401460">
        <ele>40.6</ele>
        <time>2019-08-18T06:34:06Z</time>
      </trkpt>
      <trkpt lat="42.7964780" lon="-8.6399350">
        <ele>41.2</ele>
        <time>2019-08-18T06:34:10Z</time>
      </trkpt>
      <trkpt lat="42.7963930" lon="-8.6396690">
        <ele>41.9</ele>
        <time>2019-08-18T06:34:16Z</time>
      </trkpt>
      <trkpt lat="42.7963880" lon="-8.6394320">
        <ele>42.6</ele>
        <time>2019-08-18T06:34:21Z</time>
      </trkpt>
      <trkpt lat="42.7964810" lon="-8.6391310">
        <ele>43.7</ele>
        <time>2019-08-18T06:34:28Z</time>
      </trkpt>
      <trkpt lat="42.7965100" lon="-8.6391040">
        <ele>43.8</ele>
        <time>2019-08-18T06:34:29Z</time>
      </trkpt>
      <trkpt lat="42.7965800" lon="-8.6390760">
        <ele>43.9</ele>
        <time>2019-08-18T06:34:31Z</time>
      </trkpt>
      <trkpt lat="42.7967080" lon="-8.6390840">
        <ele>43.6</ele>
        <time>2019-08-18T06:34:34Z</time>
      </trkpt>
      <trkpt lat="42.7967500" lon="-8.6390680">
        <ele>43.4</ele>
        <time>2019-08-18T06:34:35Z</time>
      </trkpt>
      <trkpt lat="42.7968260" lon="-8.6389970">
        <ele>42.8</ele>
        <time>2019-08-18T06:34:37Z</time>
      </trkpt>
      <trkpt lat="42.7968660" lon="-8.6389610">
        <ele>42.4</ele>
        <time>2019-08-18T06:34:38Z</time>
      </trkpt>
      <trkpt lat="42.7969030" lon="-8.6389270">
        <ele>42.1</ele>
        <time>2019-08-18T06:34:39Z</time>
      </trkpt>
      <trkpt lat="42.7969360" lon="-8.6388970">
        <ele>41.7</ele>
        <time>2019-08-18T06:34:40Z</time>
      </trkpt>
      <trkpt lat="42.7969610" lon="-8.6388510">
        <ele>41.3</ele>
        <time>2019-08-18T06:34:41Z</time>
      </trkpt>
      <trkpt lat="42.7970510" lon="-8.6387770">
        <ele>40.3</ele>
        <time>2019-08-18T06:34:44Z</time>
      </trkpt>
      <trkpt lat="42.7972690" lon="-8.6386730">
        <ele>38.6</ele>
        <time>2019-08-18T06:34:50Z</time>
      </trkpt>
      <trkpt lat="42.7974820" lon="-8.6384550">
        <ele>38.3</ele>
        <time>2019-08-18T06:34:56Z</time>
      </trkpt>
      <trkpt lat="42.7975480" lon="-8.6383740">
        <ele>38.5</ele>
        <time>2019-08-18T06:34:58Z</time>
      </trkpt>
      <trkpt lat="42.7976120" lon="-8.6382870">
        <ele>38.6</ele>
        <time>2019-08-18T06:35:00Z</time>
      </trkpt>
      <trkpt lat="42.7976450" lon="-8.6382500">
        <ele>38.6</ele>
        <time>2019-08-18T06:35:01Z</time>
      </trkpt>
      <trkpt lat="42.7976820" lon="-8.6382120">
        <ele>38.8</ele>
        <time>2019-08-18T06:35:02Z</time>
      </trkpt>
      <trkpt lat="42.7977320" lon="-8.6381280">
        <ele>39.0</ele>
        <time>2019-08-18T06:35:04Z</time>
      </trkpt>
      <trkpt lat="42.7978180" lon="-8.6379910">
        <ele>39.4</ele>
        <time>2019-08-18T06:35:07Z</time>
      </trkpt>
      <trkpt lat="42.7978430" lon="-8.6380060">
        <ele>39.5</ele>
        <time>2019-08-18T06:35:08Z</time>
      </trkpt>
      <trkpt lat="42.7978630" lon="-8.6380370">
        <ele>39.2</ele>
        <time>2019-08-18T06:35:09Z</time>
      </trkpt>
      <trkpt lat="42.7979290" lon="-8.6380710">
        <ele>39.0</ele>
        <time>2019-08-18T06:35:11Z</time>
      </trkpt>
      <trkpt lat="42.7979910" lon="-8.6380150">
        <ele>39.0</ele>
        <time>2019-08-18T06:35:13Z</time>
      </trkpt>
      <trkpt lat="42.7980610" lon="-8.6378960">
        <ele>39.0</ele>
        <time>2019-08-18T06:35:16Z</time>
      </trkpt>
      <trkpt lat="42.7980790" lon="-8.6378580">
        <ele>39.0</ele>
        <time>2019-08-18T06:35:17Z</time>
      </trkpt>
      <trkpt lat="42.7982280" lon="-8.6374440">
        <ele>40.7</ele>
        <time>2019-08-18T06:35:27Z</time>
      </trkpt>
      <trkpt lat="42.7983800" lon="-8.6370920">
        <ele>41.8</ele>
        <time>2019-08-18T06:35:35Z</time>
      </trkpt>
      <trkpt lat="42.7984790" lon="-8.6369940">
        <ele>42.4</ele>
        <time>2019-08-18T06:35:39Z</time>
      </trkpt>
      <trkpt lat="42.7986800" lon="-8.6368760">
        <ele>43.2</ele>
        <time>2019-08-18T06:35:45Z</time>
      </trkpt>
      <trkpt lat="42.7987460" lon="-8.6368340">
        <ele>43.3</ele>
        <time>2019-08-18T06:35:47Z</time>
      </trkpt>
      <trkpt lat="42.7987830" lon="-8.6368010">
        <ele>43.4</ele>
        <time>2019-08-18T06:35:48Z</time>
      </trkpt>
      <trkpt lat="42.7988120" lon="-8.6367680">
        <ele>43.4</ele>
        <time>2019-08-18T06:35:49Z</time>
      </trkpt>
      <trkpt lat="42.7988430" lon="-8.6367330">
        <ele>43.4</ele>
        <time>2019-08-18T06:35:50Z</time>
      </trkpt>
      <trkpt lat="42.7988760" lon="-8.6367020">
        <ele>43.4</ele>
        <time>2019-08-18T06:35:51Z</time>
      </trkpt>
      <trkpt lat="42.7989320" lon="-8.6366360">
        <ele>43.5</ele>
        <time>2019-08-18T06:35:53Z</time>
      </trkpt>
      <trkpt lat="42.7990290" lon="-8.6365600">
        <ele>43.5</ele>
        <time>2019-08-18T06:35:56Z</time>
      </trkpt>
      <trkpt lat="42.7990560" lon="-8.6365410">
        <ele>43.5</ele>
        <time>2019-08-18T06:35:57Z</time>
      </trkpt>
      <trkpt lat="42.7990840" lon="-8.6365200">
        <ele>43.5</ele>
        <time>2019-08-18T06:35:58Z</time>
      </trkpt>
      <trkpt lat="42.7991170" lon="-8.6364960">
        <ele>43.5</ele>
        <time>2019-08-18T06:35:59Z</time>
      </trkpt>
      <trkpt lat="42.7991440" lon="-8.6364670">
        <ele>43.5</ele>
        <time>2019-08-18T06:36:00Z</time>
      </trkpt>
      <trkpt lat="42.7991630" lon="-8.6364310">
        <ele>43.5</ele>
        <time>2019-08-18T06:36:01Z</time>
      </trkpt>
      <trkpt lat="42.7991500" lon="-8.6363000">
        <ele>44.5</ele>
        <time>2019-08-18T06:36:04Z</time>
      </trkpt>
      <trkpt lat="42.7990830" lon="-8.6361200">
        <ele>45.5</ele>
        <time>2019-08-18T06:36:09Z</time>
      </trkpt>
      <trkpt lat="42.7990730" lon="-8.6360870">
        <ele>45.7</ele>
        <time>2019-08-18T06:36:10Z</time>
      </trkpt>
      <trkpt lat="42.7990620" lon="-8.6360510">
        <ele>45.9</ele>
        <time>2019-08-18T06:36:11Z</time>
      </trkpt>
      <trkpt lat="42.7990480" lon="-8.6360160">
        <ele>46.2</ele>
        <time>2019-08-18T06:36:12Z</time>
      </trkpt>
      <trkpt lat="42.7990340" lon="-8.6359790">
        <ele>46.4</ele>
        <time>2019-08-18T06:36:13Z</time>
      </trkpt>
      <trkpt lat="42.7989170" lon="-8.6356800">
        <ele>48.1</ele>
        <time>2019-08-18T06:36:21Z</time>
      </trkpt>
      <trkpt lat="42.7989410" lon="-8.6354920">
        <ele>48.9</ele>
        <time>2019-08-18T06:36:25Z</time>
      </trkpt>
      <trkpt lat="42.7989620" lon="-8.6354500">
        <ele>49.2</ele>
        <time>2019-08-18T06:36:26Z</time>
      </trkpt>
      <trkpt lat="42.7989860" lon="-8.6354140">
        <ele>49.5</ele>
        <time>2019-08-18T06:36:27Z</time>
      </trkpt>
      <trkpt lat="42.7990330" lon="-8.6353470">
        <ele>50.0</ele>
        <time>2019-08-18T06:36:29Z</time>
      </trkpt>
      <trkpt lat="42.7990560" lon="-8.6353100">
        <ele>50.2</ele>
        <time>2019-08-18T06:36:30Z</time>
      </trkpt>
      <trkpt lat="42.7992250" lon="-8.6350530">
        <ele>52.8</ele>
        <time>2019-08-18T06:36:38Z</time>
      </trkpt>
      <trkpt lat="42.7992470" lon="-8.6350230">
        <ele>53.1</ele>
        <time>2019-08-18T06:36:39Z</time>
      </trkpt>
      <trkpt lat="42.7992680" lon="-8.6349910">
        <ele>53.4</ele>
        <time>2019-08-18T06:36:40Z</time>
      </trkpt>
      <trkpt lat="42.7992840" lon="-8.6349570">
        <ele>53.7</ele>
        <time>2019-08-18T06:36:41Z</time>
      </trkpt>
      <trkpt lat="42.7993140" lon="-8.6348950">
        <ele>54.2</ele>
        <time>2019-08-18T06:36:43Z</time>
      </trkpt>
      <trkpt lat="42.7993500" lon="-8.6348190">
        <ele>54.8</ele>
        <time>2019-08-18T06:36:46Z</time>
      </trkpt>
      <trkpt lat="42.7993760" lon="-8.6347120">
        <ele>55.4</ele>
        <time>2019-08-18T06:36:49Z</time>
      </trkpt>
      <trkpt lat="42.7993870" lon="-8.6346770">
        <ele>55.6</ele>
        <time>2019-08-18T06:36:50Z</time>
      </trkpt>
      <trkpt lat="42.7994070" lon="-8.6346560">
        <ele>55.8</ele>
        <time>2019-08-18T06:36:51Z</time>
      </trkpt>
      <trkpt lat="42.7994260" lon="-8.6346320">
        <ele>55.9</ele>
        <time>2019-08-18T06:36:52Z</time>
      </trkpt>
      <trkpt lat="42.7994430" lon="-8.6346010">
        <ele>56.1</ele>
        <time>2019-08-18T06:36:53Z</time>
      </trkpt>
      <trkpt lat="42.7995920" lon="-8.6344890">
        <ele>57.1</ele>
        <time>2019-08-18T06:36:59Z</time>
      </trkpt>
      <trkpt lat="42.7996210" lon="-8.6344910">
        <ele>57.3</ele>
        <time>2019-08-18T06:37:01Z</time>
      </trkpt>
      <trkpt lat="42.7996360" lon="-8.6345210">
        <ele>57.5</ele>
        <time>2019-08-18T06:37:02Z</time>
      </trkpt>
      <trkpt lat="42.7996250" lon="-8.6346320">
        <ele>57.0</ele>
        <time>2019-08-18T06:37:06Z</time>
      </trkpt>
      <trkpt lat="42.7996170" lon="-8.6346570">
        <ele>56.9</ele>
        <time>2019-08-18T06:37:07Z</time>
      </trkpt>
      <trkpt lat="42.7996310" lon="-8.6346860">
        <ele>56.8</ele>
        <time>2019-08-18T06:37:08Z</time>
      </trkpt>
      <trkpt lat="42.7996580" lon="-8.6347150">
        <ele>56.6</ele>
        <time>2019-08-18T06:37:09Z</time>
      </trkpt>
      <trkpt lat="42.7996940" lon="-8.6347390">
        <ele>56.4</ele>
        <time>2019-08-18T06:37:10Z</time>
      </trkpt>
      <trkpt lat="42.7998120" lon="-8.6349420">
        <ele>55.4</ele>
        <time>2019-08-18T06:37:14Z</time>
      </trkpt>
      <trkpt lat="42.7998690" lon="-8.6350370">
        <ele>55.0</ele>
        <time>2019-08-18T06:37:16Z</time>
      </trkpt>
      <trkpt lat="42.7999690" lon="-8.6352370">
        <ele>54.2</ele>
        <time>2019-08-18T06:37:20Z</time>
      </trkpt>
      <trkpt lat="42.8000880" lon="-8.6355150">
        <ele>53.0</ele>
        <time>2019-08-18T06:37:26Z</time>
      </trkpt>
      <trkpt lat="42.8001110" lon="-8.6356260">
        <ele>52.5</ele>
        <time>2019-08-18T06:37:28Z</time>
      </trkpt>
      <trkpt lat="42.8001880" lon="-8.6358820">
        <ele>51.7</ele>
        <time>2019-08-18T06:37:33Z</time>
      </trkpt>
      <trkpt lat="42.8003270" lon="-8.6361280">
        <ele>50.8</ele>
        <time>2019-08-18T06:37:39Z</time>
      </trkpt>
      <trkpt lat="42.8004340" lon="-8.6362350">
        <ele>50.6</ele>
        <time>2019-08-18T06:37:42Z</time>
      </trkpt>
      <trkpt lat="42.8005730" lon="-8.6363130">
        <ele>50.3</ele>
        <time>2019-08-18T06:37:45Z</time>
      </trkpt>
      <trkpt lat="42.8006200" lon="-8.6363350">
        <ele>50.2</ele>
        <time>2019-08-18T06:37:46Z</time>
      </trkpt>
      <trkpt lat="42.8006690" lon="-8.6363550">
        <ele>50.1</ele>
        <time>2019-08-18T06:37:47Z</time>
      </trkpt>
      <trkpt lat="42.8007180" lon="-8.6363790">
        <ele>50.0</ele>
        <time>2019-08-18T06:37:48Z</time>
      </trkpt>
      <trkpt lat="42.8007700" lon="-8.6364070">
        <ele>49.9</ele>
        <time>2019-08-18T06:37:49Z</time>
      </trkpt>
      <trkpt lat="42.8008790" lon="-8.6364810">
        <ele>49.6</ele>
        <time>2019-08-18T06:37:51Z</time>
      </trkpt>
      <trkpt lat="42.8009920" lon="-8.6366830">
        <ele>49.2</ele>
        <time>2019-08-18T06:37:54Z</time>
      </trkpt>
      <trkpt lat="42.8010160" lon="-8.6367680">
        <ele>49.0</ele>
        <time>2019-08-18T06:37:55Z</time>
      </trkpt>
      <trkpt lat="42.8010360" lon="-8.6368570">
        <ele>48.8</ele>
        <time>2019-08-18T06:37:56Z</time>
      </trkpt>
      <trkpt lat="42.8010570" lon="-8.6369470">
        <ele>48.7</ele>
        <time>2019-08-18T06:37:57Z</time>
      </trkpt>
      <trkpt lat="42.8010830" lon="-8.6370330">
        <ele>48.5</ele>
        <time>2019-08-18T06:37:58Z</time>
      </trkpt>
      <trkpt lat="42.8011150" lon="-8.6371130">
        <ele>48.3</ele>
        <time>2019-08-18T06:37:59Z</time>
      </trkpt>
      <trkpt lat="42.8013150" lon="-8.6373550">
        <ele>47.1</ele>
        <time>2019-08-18T06:38:03Z</time>
      </trkpt>
      <trkpt lat="42.8013780" lon="-8.6373990">
        <ele>46.6</ele>
        <time>2019-08-18T06:38:04Z</time>
      </trkpt>
      <trkpt lat="42.8014370" lon="-8.6374430">
        <ele>46.2</ele>
        <time>2019-08-18T06:38:05Z</time>
      </trkpt>
      <trkpt lat="42.8014990" lon="-8.6374890">
        <ele>45.8</ele>
        <time>2019-08-18T06:38:06Z</time>
      </trkpt>
      <trkpt lat="42.8015630" lon="-8.6375450">
        <ele>45.4</ele>
        <time>2019-08-18T06:38:07Z</time>
      </trkpt>
      <trkpt lat="42.8016870" lon="-8.6376600">
        <ele>44.9</ele>
        <time>2019-08-18T06:38:09Z</time>
      </trkpt>
      <trkpt lat="42.8017510" lon="-8.6377250">
        <ele>44.7</ele>
        <time>2019-08-18T06:38:10Z</time>
      </trkpt>
      <trkpt lat="42.8018100" lon="-8.6377870">
        <ele>44.5</ele>
        <time>2019-08-18T06:38:11Z</time>
      </trkpt>
      <trkpt lat="42.8018610" lon="-8.6378470">
        <ele>44.2</ele>
        <time>2019-08-18T06:38:12Z</time>
      </trkpt>
      <trkpt lat="42.8019070" lon="-8.6379030">
        <ele>43.9</ele>
        <time>2019-08-18T06:38:13Z</time>
      </trkpt>
      <trkpt lat="42.8019560" lon="-8.6379470">
        <ele>43.6</ele>
        <time>2019-08-18T06:38:14Z</time>
      </trkpt>
      <trkpt lat="42.8021480" lon="-8.6379380">
        <ele>42.9</ele>
        <time>2019-08-18T06:38:17Z</time>
      </trkpt>
      <trkpt lat="42.8022090" lon="-8.6379000">
        <ele>43.0</ele>
        <time>2019-08-18T06:38:18Z</time>
      </trkpt>
      <trkpt lat="42.8022640" lon="-8.6378600">
        <ele>43.0</ele>
        <time>2019-08-18T06:38:19Z</time>
      </trkpt>
      <trkpt lat="42.8023030" lon="-8.6378260">
        <ele>43.0</ele>
        <time>2019-08-18T06:38:20Z</time>
      </trkpt>
      <trkpt lat="42.8023380" lon="-8.6377970">
        <ele>43.0</ele>
        <time>2019-08-18T06:38:21Z</time>
      </trkpt>
      <trkpt lat="42.8024790" lon="-8.6376990">
        <ele>43.0</ele>
        <time>2019-08-18T06:38:26Z</time>
      </trkpt>
      <trkpt lat="42.8025310" lon="-8.6376980">
        <ele>43.0</ele>
        <time>2019-08-18T06:38:28Z</time>
      </trkpt>
      <trkpt lat="42.8025490" lon="-8.6377190">
        <ele>43.0</ele>
        <time>2019-08-18T06:38:29Z</time>
      </trkpt>
      <trkpt lat="42.8026050" lon="-8.6377570">
        <ele>43.0</ele>
        <time>2019-08-18T06:38:32Z</time>
      </trkpt>
      <trkpt lat="42.8026300" lon="-8.6377450">
        <ele>42.9</ele>
        <time>2019-08-18T06:38:33Z</time>
      </trkpt>
      <trkpt lat="42.8027710" lon="-8.6376090">
        <ele>42.9</ele>
        <time>2019-08-18T06:38:38Z</time>
      </trkpt>
      <trkpt lat="42.8029850" lon="-8.6373620">
        <ele>42.8</ele>
        <time>2019-08-18T06:38:46Z</time>
      </trkpt>
      <trkpt lat="42.8032010" lon="-8.6371510">
        <ele>42.8</ele>
        <time>2019-08-18T06:38:53Z</time>
      </trkpt>
      <trkpt lat="42.8034660" lon="-8.6368870">
        <ele>42.6</ele>
        <time>2019-08-18T06:39:03Z</time>
      </trkpt>
      <trkpt lat="42.8036290" lon="-8.6367500">
        <ele>42.4</ele>
        <time>2019-08-18T06:39:09Z</time>
      </trkpt>
      <trkpt lat="42.8037890" lon="-8.6365850">
        <ele>42.3</ele>
        <time>2019-08-18T06:39:15Z</time>
      </trkpt>
      <trkpt lat="42.8039660" lon="-8.6364270">
        <ele>42.5</ele>
        <time>2019-08-18T06:39:23Z</time>
      </trkpt>
      <trkpt lat="42.8040070" lon="-8.6364050">
        <ele>42.6</ele>
        <time>2019-08-18T06:39:27Z</time>
      </trkpt>
      <trkpt lat="42.8040090" lon="-8.6364270">
        <ele>42.6</ele>
        <time>2019-08-18T06:45:41Z</time>
      </trkpt>
      <trkpt lat="42.8039380" lon="-8.6365880">
        <ele>42.5</ele>
        <time>2019-08-18T06:45:46Z</time>
      </trkpt>
      <trkpt lat="42.8038560" lon="-8.6367690">
        <ele>41.5</ele>
        <time>2019-08-18T06:45:51Z</time>
      </trkpt>
      <trkpt lat="42.8038690" lon="-8.6368250">
        <ele>41.3</ele>
        <time>2019-08-18T06:45:52Z</time>
      </trkpt>
      <trkpt lat="42.8038920" lon="-8.6368870">
        <ele>41.1</ele>
        <time>2019-08-18T06:45:53Z</time>
      </trkpt>
      <trkpt lat="42.8039120" lon="-8.6369570">
        <ele>40.9</ele>
        <time>2019-08-18T06:45:54Z</time>
      </trkpt>
      <trkpt lat="42.8039330" lon="-8.6370270">
        <ele>40.7</ele>
        <time>2019-08-18T06:45:55Z</time>
      </trkpt>
      <trkpt lat="42.8039580" lon="-8.6370970">
        <ele>40.5</ele>
        <time>2019-08-18T06:45:56Z</time>
      </trkpt>
      <trkpt lat="42.8039880" lon="-8.6371690">
        <ele>40.2</ele>
        <time>2019-08-18T06:45:57Z</time>
      </trkpt>
      <trkpt lat="42.8040450" lon="-8.6373080">
        <ele>39.7</ele>
        <time>2019-08-18T06:45:59Z</time>
      </trkpt>
      <trkpt lat="42.8040760" lon="-8.6373830">
        <ele>39.4</ele>
        <time>2019-08-18T06:46:00Z</time>
      </trkpt>
      <trkpt lat="42.8041070" lon="-8.6374610">
        <ele>39.1</ele>
        <time>2019-08-18T06:46:01Z</time>
      </trkpt>
      <trkpt lat="42.8041420" lon="-8.6375360">
        <ele>38.9</ele>
        <time>2019-08-18T06:46:02Z</time>
      </trkpt>
      <trkpt lat="42.8041800" lon="-8.6376150">
        <ele>38.7</ele>
        <time>2019-08-18T06:46:03Z</time>
      </trkpt>
      <trkpt lat="42.8042460" lon="-8.6377750">
        <ele>38.3</ele>
        <time>2019-08-18T06:46:05Z</time>
      </trkpt>
      <trkpt lat="42.8043410" lon="-8.6380070">
        <ele>37.8</ele>
        <time>2019-08-18T06:46:08Z</time>
      </trkpt>
      <trkpt lat="42.8043730" lon="-8.6380730">
        <ele>37.7</ele>
        <time>2019-08-18T06:46:09Z</time>
      </trkpt>
      <trkpt lat="42.8044040" lon="-8.6381270">
        <ele>37.6</ele>
        <time>2019-08-18T06:46:10Z</time>
      </trkpt>
      <trkpt lat="42.8044410" lon="-8.6381420">
        <ele>37.5</ele>
        <time>2019-08-18T06:46:11Z</time>
      </trkpt>
      <trkpt lat="42.8044720" lon="-8.6381340">
        <ele>37.4</ele>
        <time>2019-08-18T06:46:12Z</time>
      </trkpt>
      <trkpt lat="42.8045030" lon="-8.6381130">
        <ele>37.2</ele>
        <time>2019-08-18T06:46:13Z</time>
      </trkpt>
      <trkpt lat="42.8046030" lon="-8.6379690">
        <ele>36.8</ele>
        <time>2019-08-18T06:46:18Z</time>
      </trkpt>
      <trkpt lat="42.8048160" lon="-8.6378540">
        <ele>36.4</ele>
        <time>2019-08-18T06:46:25Z</time>
      </trkpt>
      <trkpt lat="42.8049380" lon="-8.6377750">
        <ele>36.5</ele>
        <time>2019-08-18T06:46:28Z</time>
      </trkpt>
      <trkpt lat="42.8050740" lon="-8.6376780">
        <ele>36.8</ele>
        <time>2019-08-18T06:46:31Z</time>
      </trkpt>
      <trkpt lat="42.8051270" lon="-8.6376500">
        <ele>36.9</ele>
        <time>2019-08-18T06:46:32Z</time>
      </trkpt>
      <trkpt lat="42.8053340" lon="-8.6375470">
        <ele>37.8</ele>
        <time>2019-08-18T06:46:36Z</time>
      </trkpt>
      <trkpt lat="42.8054770" lon="-8.6374440">
        <ele>38.7</ele>
        <time>2019-08-18T06:46:40Z</time>
      </trkpt>
      <trkpt lat="42.8056040" lon="-8.6373750">
        <ele>39.5</ele>
        <time>2019-08-18T06:46:43Z</time>
      </trkpt>
      <trkpt lat="42.8057290" lon="-8.6373060">
        <ele>40.1</ele>
        <time>2019-08-18T06:46:46Z</time>
      </trkpt>
      <trkpt lat="42.8059530" lon="-8.6372830">
        <ele>41.0</ele>
        <time>2019-08-18T06:46:50Z</time>
      </trkpt>
      <trkpt lat="42.8059930" lon="-8.6373060">
        <ele>41.1</ele>
        <time>2019-08-18T06:46:51Z</time>
      </trkpt>
      <trkpt lat="42.8061480" lon="-8.6374270">
        <ele>41.2</ele>
        <time>2019-08-18T06:46:56Z</time>
      </trkpt>
      <trkpt lat="42.8063270" lon="-8.6374140">
        <ele>41.6</ele>
        <time>2019-08-18T06:47:01Z</time>
      </trkpt>
      <trkpt lat="42.8065090" lon="-8.6373770">
        <ele>41.7</ele>
        <time>2019-08-18T06:47:07Z</time>
      </trkpt>
      <trkpt lat="42.8065950" lon="-8.6372380">
        <ele>41.8</ele>
        <time>2019-08-18T06:47:11Z</time>
      </trkpt>
      <trkpt lat="42.8067220" lon="-8.6369440">
        <ele>41.8</ele>
        <time>2019-08-18T06:47:18Z</time>
      </trkpt>
      <trkpt lat="42.8067980" lon="-8.6366620">
        <ele>41.8</ele>
        <time>2019-08-18T06:47:25Z</time>
      </trkpt>
      <trkpt lat="42.8068760" lon="-8.6364780">
        <ele>41.0</ele>
        <time>2019-08-18T06:47:30Z</time>
      </trkpt>
      <trkpt lat="42.8069000" lon="-8.6364540">
        <ele>40.7</ele>
        <time>2019-08-18T06:47:31Z</time>
      </trkpt>
      <trkpt lat="42.8069740" lon="-8.6364220">
        <ele>40.0</ele>
        <time>2019-08-18T06:47:33Z</time>
      </trkpt>
      <trkpt lat="42.8071910" lon="-8.6362450">
        <ele>38.1</ele>
        <time>2019-08-18T06:47:39Z</time>
      </trkpt>
      <trkpt lat="42.8072160" lon="-8.6362020">
        <ele>38.0</ele>
        <time>2019-08-18T06:47:40Z</time>
      </trkpt>
      <trkpt lat="42.8072570" lon="-8.6361400">
        <ele>38.0</ele>
        <time>2019-08-18T06:47:42Z</time>
      </trkpt>
      <trkpt lat="42.8073100" lon="-8.6359400">
        <ele>38.4</ele>
        <time>2019-08-18T06:47:47Z</time>
      </trkpt>
      <trkpt lat="42.8074110" lon="-8.6356380">
        <ele>39.0</ele>
        <time>2019-08-18T06:47:53Z</time>
      </trkpt>
      <trkpt lat="42.8074490" lon="-8.6354500">
        <ele>39.4</ele>
        <time>2019-08-18T06:47:57Z</time>
      </trkpt>
      <trkpt lat="42.8074820" lon="-8.6353880">
        <ele>39.4</ele>
        <time>2019-08-18T06:47:59Z</time>
      </trkpt>
      <trkpt lat="42.8075180" lon="-8.6353100">
        <ele>39.4</ele>
        <time>2019-08-18T06:48:01Z</time>
      </trkpt>
      <trkpt lat="42.8075410" lon="-8.6352680">
        <ele>39.4</ele>
        <time>2019-08-18T06:48:02Z</time>
      </trkpt>
      <trkpt lat="42.8075630" lon="-8.6352260">
        <ele>39.4</ele>
        <time>2019-08-18T06:48:03Z</time>
      </trkpt>
      <trkpt lat="42.8075890" lon="-8.6351800">
        <ele>39.4</ele>
        <time>2019-08-18T06:48:04Z</time>
      </trkpt>
      <trkpt lat="42.8076130" lon="-8.6351400">
        <ele>39.6</ele>
        <time>2019-08-18T06:48:05Z</time>
      </trkpt>
      <trkpt lat="42.8076360" lon="-8.6350940">
        <ele>39.6</ele>
        <time>2019-08-18T06:48:06Z</time>
      </trkpt>
      <trkpt lat="42.8076880" lon="-8.6350180">
        <ele>39.5</ele>
        <time>2019-08-18T06:48:08Z</time>
      </trkpt>
      <trkpt lat="42.8077960" lon="-8.6347650">
        <ele>40.4</ele>
        <time>2019-08-18T06:48:14Z</time>
      </trkpt>
      <trkpt lat="42.8078610" lon="-8.6345590">
        <ele>41.7</ele>
        <time>2019-08-18T06:48:18Z</time>
      </trkpt>
      <trkpt lat="42.8079200" lon="-8.6344230">
        <ele>42.3</ele>
        <time>2019-08-18T06:48:20Z</time>
      </trkpt>
      <trkpt lat="42.8080290" lon="-8.6340460">
        <ele>43.8</ele>
        <time>2019-08-18T06:48:27Z</time>
      </trkpt>
      <trkpt lat="42.8081280" lon="-8.6338070">
        <ele>43.7</ele>
        <time>2019-08-18T06:48:33Z</time>
      </trkpt>
      <trkpt lat="42.8082150" lon="-8.6336090">
        <ele>43.6</ele>
        <time>2019-08-18T06:48:38Z</time>
      </trkpt>
      <trkpt lat="42.8083440" lon="-8.6334140">
        <ele>42.6</ele>
        <time>2019-08-18T06:48:43Z</time>
      </trkpt>
      <trkpt lat="42.8084460" lon="-8.6333050">
        <ele>42.2</ele>
        <time>2019-08-18T06:48:49Z</time>
      </trkpt>
      <trkpt lat="42.8084940" lon="-8.6332000">
        <ele>42.4</ele>
        <time>2019-08-18T06:48:52Z</time>
      </trkpt>
      <trkpt lat="42.8085380" lon="-8.6331130">
        <ele>42.4</ele>
        <time>2019-08-18T06:49:02Z</time>
      </trkpt>
      <trkpt lat="42.8086350" lon="-8.6329330">
        <ele>43.2</ele>
        <time>2019-08-18T06:49:08Z</time>
      </trkpt>
      <trkpt lat="42.8086880" lon="-8.6328020">
        <ele>44.0</ele>
        <time>2019-08-18T06:49:13Z</time>
      </trkpt>
      <trkpt lat="42.8086930" lon="-8.6327890">
        <ele>43.6</ele>
        <time>2019-08-18T06:49:14Z</time>
      </trkpt>
      <trkpt lat="42.8087000" lon="-8.6327730">
        <ele>43.6</ele>
        <time>2019-08-18T06:49:15Z</time>
      </trkpt>
      <trkpt lat="42.8087080" lon="-8.6327560">
        <ele>44.0</ele>
        <time>2019-08-18T06:49:16Z</time>
      </trkpt>
      <trkpt lat="42.8087180" lon="-8.6327350">
        <ele>44.0</ele>
        <time>2019-08-18T06:49:17Z</time>
      </trkpt>
      <trkpt lat="42.8087710" lon="-8.6326490">
        <ele>44.1</ele>
        <time>2019-08-18T06:49:21Z</time>
      </trkpt>
      <trkpt lat="42.8088080" lon="-8.6325960">
        <ele>44.1</ele>
        <time>2019-08-18T06:49:24Z</time>
      </trkpt>
      <trkpt lat="42.8088250" lon="-8.6325720">
        <ele>44.2</ele>
        <time>2019-08-18T06:49:25Z</time>
      </trkpt>
      <trkpt lat="42.8088340" lon="-8.6325480">
        <ele>44.7</ele>
        <time>2019-08-18T06:49:26Z</time>
      </trkpt>
      <trkpt lat="42.8088440" lon="-8.6325280">
        <ele>44.7</ele>
        <time>2019-08-18T06:49:27Z</time>
      </trkpt>
      <trkpt lat="42.8088590" lon="-8.6325040">
        <ele>44.9</ele>
        <time>2019-08-18T06:49:28Z</time>
      </trkpt>
      <trkpt lat="42.8089050" lon="-8.6324180">
        <ele>45.6</ele>
        <time>2019-08-18T06:49:32Z</time>
      </trkpt>
      <trkpt lat="42.8089180" lon="-8.6323980">
        <ele>45.3</ele>
        <time>2019-08-18T06:49:33Z</time>
      </trkpt>
      <trkpt lat="42.8089320" lon="-8.6323740">
        <ele>45.8</ele>
        <time>2019-08-18T06:49:34Z</time>
      </trkpt>
      <trkpt lat="42.8089440" lon="-8.6323480">
        <ele>45.6</ele>
        <time>2019-08-18T06:49:35Z</time>
      </trkpt>
      <trkpt lat="42.8089510" lon="-8.6323090">
        <ele>46.1</ele>
        <time>2019-08-18T06:49:36Z</time>
      </trkpt>
      <trkpt lat="42.8090680" lon="-8.6321130">
        <ele>48.7</ele>
        <time>2019-08-18T06:49:43Z</time>
      </trkpt>
      <trkpt lat="42.8091600" lon="-8.6320060">
        <ele>49.9</ele>
        <time>2019-08-18T06:49:50Z</time>
      </trkpt>
      <trkpt lat="42.8091680" lon="-8.6319930">
        <ele>49.8</ele>
        <time>2019-08-18T06:49:51Z</time>
      </trkpt>
      <trkpt lat="42.8091710" lon="-8.6319790">
        <ele>50.5</ele>
        <time>2019-08-18T06:49:52Z</time>
      </trkpt>
      <trkpt lat="42.8091710" lon="-8.6319700">
        <ele>50.5</ele>
        <time>2019-08-18T06:49:53Z</time>
      </trkpt>
      <trkpt lat="42.8091740" lon="-8.6319650">
        <ele>50.5</ele>
        <time>2019-08-18T06:49:54Z</time>
      </trkpt>
      <trkpt lat="42.8091760" lon="-8.6319570">
        <ele>50.5</ele>
        <time>2019-08-18T06:49:55Z</time>
      </trkpt>
      <trkpt lat="42.8091770" lon="-8.6319470">
        <ele>51.2</ele>
        <time>2019-08-18T06:49:56Z</time>
      </trkpt>
      <trkpt lat="42.8091770" lon="-8.6319240">
        <ele>51.2</ele>
        <time>2019-08-18T06:49:59Z</time>
      </trkpt>
      <trkpt lat="42.8091860" lon="-8.6319020">
        <ele>51.9</ele>
        <time>2019-08-18T06:50:01Z</time>
      </trkpt>
      <trkpt lat="42.8091910" lon="-8.6318780">
        <ele>51.9</ele>
        <time>2019-08-18T06:50:03Z</time>
      </trkpt>
      <trkpt lat="42.8092180" lon="-8.6317830">
        <ele>53.0</ele>
        <time>2019-08-18T06:50:09Z</time>
      </trkpt>
      <trkpt lat="42.8092230" lon="-8.6317680">
        <ele>53.7</ele>
        <time>2019-08-18T06:50:10Z</time>
      </trkpt>
      <trkpt lat="42.8092580" lon="-8.6317700">
        <ele>53.3</ele>
        <time>2019-08-18T06:50:11Z</time>
      </trkpt>
      <trkpt lat="42.8092630" lon="-8.6317580">
        <ele>53.3</ele>
        <time>2019-08-18T06:50:12Z</time>
      </trkpt>
      <trkpt lat="42.8092680" lon="-8.6317430">
        <ele>53.3</ele>
        <time>2019-08-18T06:50:13Z</time>
      </trkpt>
      <trkpt lat="42.8092840" lon="-8.6316910">
        <ele>54.5</ele>
        <time>2019-08-18T06:50:16Z</time>
      </trkpt>
      <trkpt lat="42.8092840" lon="-8.6316720">
        <ele>54.5</ele>
        <time>2019-08-18T06:50:17Z</time>
      </trkpt>
      <trkpt lat="42.8092900" lon="-8.6316570">
        <ele>54.3</ele>
        <time>2019-08-18T06:50:18Z</time>
      </trkpt>
      <trkpt lat="42.8092880" lon="-8.6316390">
        <ele>54.9</ele>
        <time>2019-08-18T06:50:19Z</time>
      </trkpt>
      <trkpt lat="42.8092900" lon="-8.6316190">
        <ele>54.9</ele>
        <time>2019-08-18T06:50:20Z</time>
      </trkpt>
      <trkpt lat="42.8092920" lon="-8.6315780">
        <ele>55.5</ele>
        <time>2019-08-18T06:50:22Z</time>
      </trkpt>
      <trkpt lat="42.8093110" lon="-8.6315190">
        <ele>56.5</ele>
        <time>2019-08-18T06:50:26Z</time>
      </trkpt>
      <trkpt lat="42.8093170" lon="-8.6315000">
        <ele>56.5</ele>
        <time>2019-08-18T06:50:27Z</time>
      </trkpt>
      <trkpt lat="42.8093190" lon="-8.6314810">
        <ele>56.2</ele>
        <time>2019-08-18T06:50:28Z</time>
      </trkpt>
      <trkpt lat="42.8093210" lon="-8.6314610">
        <ele>56.7</ele>
        <time>2019-08-18T06:50:29Z</time>
      </trkpt>
      <trkpt lat="42.8093250" lon="-8.6314370">
        <ele>56.7</ele>
        <time>2019-08-18T06:50:30Z</time>
      </trkpt>
      <trkpt lat="42.8093240" lon="-8.6314180">
        <ele>57.1</ele>
        <time>2019-08-18T06:50:31Z</time>
      </trkpt>
      <trkpt lat="42.8093310" lon="-8.6313720">
        <ele>57.5</ele>
        <time>2019-08-18T06:50:33Z</time>
      </trkpt>
      <trkpt lat="42.8093330" lon="-8.6313470">
        <ele>58.0</ele>
        <time>2019-08-18T06:50:34Z</time>
      </trkpt>
      <trkpt lat="42.8093360" lon="-8.6313230">
        <ele>58.0</ele>
        <time>2019-08-18T06:50:35Z</time>
      </trkpt>
      <trkpt lat="42.8093330" lon="-8.6313010">
        <ele>58.4</ele>
        <time>2019-08-18T06:50:36Z</time>
      </trkpt>
      <trkpt lat="42.8093340" lon="-8.6312880">
        <ele>58.4</ele>
        <time>2019-08-18T06:50:37Z</time>
      </trkpt>
      <trkpt lat="42.8093600" lon="-8.6312450">
        <ele>58.4</ele>
        <time>2019-08-18T06:50:40Z</time>
      </trkpt>
      <trkpt lat="42.8094040" lon="-8.6311610">
        <ele>58.9</ele>
        <time>2019-08-18T06:50:46Z</time>
      </trkpt>
      <trkpt lat="42.8094110" lon="-8.6311430">
        <ele>58.9</ele>
        <time>2019-08-18T06:50:47Z</time>
      </trkpt>
      <trkpt lat="42.8094130" lon="-8.6311210">
        <ele>58.9</ele>
        <time>2019-08-18T06:50:48Z</time>
      </trkpt>
      <trkpt lat="42.8094200" lon="-8.6310960">
        <ele>58.9</ele>
        <time>2019-08-18T06:50:49Z</time>
      </trkpt>
      <trkpt lat="42.8094250" lon="-8.6310780">
        <ele>59.3</ele>
        <time>2019-08-18T06:50:50Z</time>
      </trkpt>
      <trkpt lat="42.8094500" lon="-8.6309880">
        <ele>59.6</ele>
        <time>2019-08-18T06:50:55Z</time>
      </trkpt>
      <trkpt lat="42.8094750" lon="-8.6309370">
        <ele>59.9</ele>
        <time>2019-08-18T06:50:58Z</time>
      </trkpt>
      <trkpt lat="42.8094880" lon="-8.6309200">
        <ele>59.5</ele>
        <time>2019-08-18T06:50:59Z</time>
      </trkpt>
      <trkpt lat="42.8095020" lon="-8.6309000">
        <ele>59.8</ele>
        <time>2019-08-18T06:51:00Z</time>
      </trkpt>
      <trkpt lat="42.8095120" lon="-8.6308760">
        <ele>59.7</ele>
        <time>2019-08-18T06:51:01Z</time>
      </trkpt>
      <trkpt lat="42.8095200" lon="-8.6308540">
        <ele>59.7</ele>
        <time>2019-08-18T06:51:02Z</time>
      </trkpt>
      <trkpt lat="42.8095300" lon="-8.6307830">
        <ele>60.5</ele>
        <time>2019-08-18T06:51:07Z</time>
      </trkpt>
      <trkpt lat="42.8095220" lon="-8.6307860">
        <ele>60.5</ele>
        <time>2019-08-18T06:51:08Z</time>
      </trkpt>
      <trkpt lat="42.8094850" lon="-8.6308210">
        <ele>60.6</ele>
        <time>2019-08-18T06:51:12Z</time>
      </trkpt>
      <trkpt lat="42.8094820" lon="-8.6308210">
        <ele>60.6</ele>
        <time>2019-08-18T06:51:13Z</time>
      </trkpt>
      <trkpt lat="42.8094690" lon="-8.6308200">
        <ele>61.1</ele>
        <time>2019-08-18T06:51:16Z</time>
      </trkpt>
      <trkpt lat="42.8094400" lon="-8.6308440">
        <ele>61.1</ele>
        <time>2019-08-18T06:52:15Z</time>
      </trkpt>
      <trkpt lat="42.8094170" lon="-8.6308640">
        <ele>61.2</ele>
        <time>2019-08-18T06:52:17Z</time>
      </trkpt>
      <trkpt lat="42.8093270" lon="-8.6309490">
        <ele>61.5</ele>
        <time>2019-08-18T06:52:24Z</time>
      </trkpt>
      <trkpt lat="42.8093140" lon="-8.6309670">
        <ele>61.7</ele>
        <time>2019-08-18T06:52:25Z</time>
      </trkpt>
      <trkpt lat="42.8093020" lon="-8.6309830">
        <ele>61.9</ele>
        <time>2019-08-18T06:52:26Z</time>
      </trkpt>
      <trkpt lat="42.8092890" lon="-8.6309910">
        <ele>62.0</ele>
        <time>2019-08-18T06:52:27Z</time>
      </trkpt>
      <trkpt lat="42.8092820" lon="-8.6309980">
        <ele>62.1</ele>
        <time>2019-08-18T06:52:28Z</time>
      </trkpt>
      <trkpt lat="42.8092460" lon="-8.6309930">
        <ele>62.3</ele>
        <time>2019-08-18T06:52:31Z</time>
      </trkpt>
      <trkpt lat="42.8092700" lon="-8.6308850">
        <ele>63.3</ele>
        <time>2019-08-18T06:52:35Z</time>
      </trkpt>
      <trkpt lat="42.8092820" lon="-8.6308500">
        <ele>63.3</ele>
        <time>2019-08-18T06:52:36Z</time>
      </trkpt>
      <trkpt lat="42.8092970" lon="-8.6308160">
        <ele>63.4</ele>
        <time>2019-08-18T06:52:37Z</time>
      </trkpt>
      <trkpt lat="42.8093140" lon="-8.6307840">
        <ele>63.5</ele>
        <time>2019-08-18T06:52:38Z</time>
      </trkpt>
      <trkpt lat="42.8093320" lon="-8.6307500">
        <ele>63.6</ele>
        <time>2019-08-18T06:52:39Z</time>
      </trkpt>
      <trkpt lat="42.8093510" lon="-8.6307130">
        <ele>63.6</ele>
        <time>2019-08-18T06:52:40Z</time>
      </trkpt>
      <trkpt lat="42.8093880" lon="-8.6306350">
        <ele>63.8</ele>
        <time>2019-08-18T06:52:42Z</time>
      </trkpt>
      <trkpt lat="42.8094980" lon="-8.6303620">
        <ele>64.1</ele>
        <time>2019-08-18T06:52:49Z</time>
      </trkpt>
      <trkpt lat="42.8095880" lon="-8.6300510">
        <ele>64.6</ele>
        <time>2019-08-18T06:52:57Z</time>
      </trkpt>
      <trkpt lat="42.8096700" lon="-8.6296470">
        <ele>65.4</ele>
        <time>2019-08-18T06:53:06Z</time>
      </trkpt>
      <trkpt lat="42.8096930" lon="-8.6295530">
        <ele>65.8</ele>
        <time>2019-08-18T06:53:08Z</time>
      </trkpt>
      <trkpt lat="42.8097060" lon="-8.6295090">
        <ele>66.0</ele>
        <time>2019-08-18T06:53:09Z</time>
      </trkpt>
      <trkpt lat="42.8097170" lon="-8.6294630">
        <ele>66.2</ele>
        <time>2019-08-18T06:53:10Z</time>
      </trkpt>
      <trkpt lat="42.8097330" lon="-8.6294200">
        <ele>66.5</ele>
        <time>2019-08-18T06:53:11Z</time>
      </trkpt>
      <trkpt lat="42.8097460" lon="-8.6293770">
        <ele>66.7</ele>
        <time>2019-08-18T06:53:12Z</time>
      </trkpt>
      <trkpt lat="42.8097700" lon="-8.6292380">
        <ele>67.4</ele>
        <time>2019-08-18T06:53:15Z</time>
      </trkpt>
      <trkpt lat="42.8098380" lon="-8.6289480">
        <ele>69.3</ele>
        <time>2019-08-18T06:53:21Z</time>
      </trkpt>
      <trkpt lat="42.8098770" lon="-8.6284980">
        <ele>70.0</ele>
        <time>2019-08-18T06:53:29Z</time>
      </trkpt>
      <trkpt lat="42.8098680" lon="-8.6281740">
        <ele>69.0</ele>
        <time>2019-08-18T06:53:35Z</time>
      </trkpt>
      <trkpt lat="42.8097800" lon="-8.6278420">
        <ele>67.1</ele>
        <time>2019-08-18T06:53:40Z</time>
      </trkpt>
      <trkpt lat="42.8097540" lon="-8.6277630">
        <ele>66.7</ele>
        <time>2019-08-18T06:53:41Z</time>
      </trkpt>
      <trkpt lat="42.8097230" lon="-8.6276820">
        <ele>66.3</ele>
        <time>2019-08-18T06:53:42Z</time>
      </trkpt>
      <trkpt lat="42.8096860" lon="-8.6275930">
        <ele>65.8</ele>
        <time>2019-08-18T06:53:43Z</time>
      </trkpt>
      <trkpt lat="42.8096490" lon="-8.6275020">
        <ele>65.2</ele>
        <time>2019-08-18T06:53:44Z</time>
      </trkpt>
      <trkpt lat="42.8096130" lon="-8.6274020">
        <ele>64.7</ele>
        <time>2019-08-18T06:53:45Z</time>
      </trkpt>
      <trkpt lat="42.8095760" lon="-8.6272980">
        <ele>64.3</ele>
        <time>2019-08-18T06:53:46Z</time>
      </trkpt>
      <trkpt lat="42.8095430" lon="-8.6271930">
        <ele>64.0</ele>
        <time>2019-08-18T06:53:47Z</time>
      </trkpt>
      <trkpt lat="42.8095090" lon="-8.6270820">
        <ele>63.7</ele>
        <time>2019-08-18T06:53:48Z</time>
      </trkpt>
      <trkpt lat="42.8094800" lon="-8.6269730">
        <ele>63.6</ele>
        <time>2019-08-18T06:53:49Z</time>
      </trkpt>
      <trkpt lat="42.8094530" lon="-8.6268600">
        <ele>63.4</ele>
        <time>2019-08-18T06:53:50Z</time>
      </trkpt>
      <trkpt lat="42.8094240" lon="-8.6266620">
        <ele>63.3</ele>
        <time>2019-08-18T06:53:52Z</time>
      </trkpt>
      <trkpt lat="42.8094200" lon="-8.6265600">
        <ele>63.2</ele>
        <time>2019-08-18T06:53:53Z</time>
      </trkpt>
      <trkpt lat="42.8094210" lon="-8.6264630">
        <ele>63.2</ele>
        <time>2019-08-18T06:53:54Z</time>
      </trkpt>
      <trkpt lat="42.8094240" lon="-8.6263620">
        <ele>63.2</ele>
        <time>2019-08-18T06:53:55Z</time>
      </trkpt>
      <trkpt lat="42.8094320" lon="-8.6262660">
        <ele>63.1</ele>
        <time>2019-08-18T06:53:56Z</time>
      </trkpt>
      <trkpt lat="42.8094450" lon="-8.6261740">
        <ele>63.1</ele>
        <time>2019-08-18T06:53:57Z</time>
      </trkpt>
      <trkpt lat="42.8094600" lon="-8.6260830">
        <ele>63.1</ele>
        <time>2019-08-18T06:53:58Z</time>
      </trkpt>
      <trkpt lat="42.8094820" lon="-8.6259950">
        <ele>63.1</ele>
        <time>2019-08-18T06:53:59Z</time>
      </trkpt>
      <trkpt lat="42.8096300" lon="-8.6255680">
        <ele>63.3</ele>
        <time>2019-08-18T06:54:04Z</time>
      </trkpt>
      <trkpt lat="42.8097780" lon="-8.6251630">
        <ele>64.1</ele>
        <time>2019-08-18T06:54:10Z</time>
      </trkpt>
      <trkpt lat="42.8099370" lon="-8.6247870">
        <ele>65.9</ele>
        <time>2019-08-18T06:54:17Z</time>
      </trkpt>
      <trkpt lat="42.8099670" lon="-8.6247460">
        <ele>66.2</ele>
        <time>2019-08-18T06:54:18Z</time>
      </trkpt>
      <trkpt lat="42.8099980" lon="-8.6247100">
        <ele>66.5</ele>
        <time>2019-08-18T06:54:19Z</time>
      </trkpt>
      <trkpt lat="42.8100280" lon="-8.6246750">
        <ele>66.9</ele>
        <time>2019-08-18T06:54:20Z</time>
      </trkpt>
      <trkpt lat="42.8100560" lon="-8.6246450">
        <ele>67.2</ele>
        <time>2019-08-18T06:54:21Z</time>
      </trkpt>
      <trkpt lat="42.8100830" lon="-8.6246090">
        <ele>67.4</ele>
        <time>2019-08-18T06:54:22Z</time>
      </trkpt>
      <trkpt lat="42.8101100" lon="-8.6245690">
        <ele>67.5</ele>
        <time>2019-08-18T06:54:23Z</time>
      </trkpt>
      <trkpt lat="42.8101330" lon="-8.6245330">
        <ele>67.5</ele>
        <time>2019-08-18T06:54:24Z</time>
      </trkpt>
      <trkpt lat="42.8102030" lon="-8.6244220">
        <ele>68.1</ele>
        <time>2019-08-18T06:54:27Z</time>
      </trkpt>
      <trkpt lat="42.8102270" lon="-8.6243890">
        <ele>68.3</ele>
        <time>2019-08-18T06:54:28Z</time>
      </trkpt>
      <trkpt lat="42.8102550" lon="-8.6243640">
        <ele>68.5</ele>
        <time>2019-08-18T06:54:29Z</time>
      </trkpt>
      <trkpt lat="42.8102840" lon="-8.6243440">
        <ele>68.7</ele>
        <time>2019-08-18T06:54:30Z</time>
      </trkpt>
      <trkpt lat="42.8103130" lon="-8.6243210">
        <ele>68.9</ele>
        <time>2019-08-18T06:54:31Z</time>
      </trkpt>
      <trkpt lat="42.8103910" lon="-8.6242600">
        <ele>69.3</ele>
        <time>2019-08-18T06:54:33Z</time>
      </trkpt>
      <trkpt lat="42.8106280" lon="-8.6240860">
        <ele>69.4</ele>
        <time>2019-08-18T06:54:37Z</time>
      </trkpt>
      <trkpt lat="42.8106950" lon="-8.6240480">
        <ele>69.3</ele>
        <time>2019-08-18T06:54:38Z</time>
      </trkpt>
      <trkpt lat="42.8107640" lon="-8.6240100">
        <ele>69.0</ele>
        <time>2019-08-18T06:54:39Z</time>
      </trkpt>
      <trkpt lat="42.8108300" lon="-8.6239720">
        <ele>68.7</ele>
        <time>2019-08-18T06:54:40Z</time>
      </trkpt>
      <trkpt lat="42.8108950" lon="-8.6239360">
        <ele>68.4</ele>
        <time>2019-08-18T06:54:41Z</time>
      </trkpt>
      <trkpt lat="42.8110590" lon="-8.6238360">
        <ele>67.7</ele>
        <time>2019-08-18T06:54:44Z</time>
      </trkpt>
      <trkpt lat="42.8113750" lon="-8.6236350">
        <ele>68.5</ele>
        <time>2019-08-18T06:54:51Z</time>
      </trkpt>
      <trkpt lat="42.8114120" lon="-8.6236120">
        <ele>68.7</ele>
        <time>2019-08-18T06:54:52Z</time>
      </trkpt>
      <trkpt lat="42.8114440" lon="-8.6235840">
        <ele>68.9</ele>
        <time>2019-08-18T06:54:53Z</time>
      </trkpt>
      <trkpt lat="42.8114710" lon="-8.6235520">
        <ele>69.1</ele>
        <time>2019-08-18T06:54:54Z</time>
      </trkpt>
      <trkpt lat="42.8114890" lon="-8.6235240">
        <ele>69.3</ele>
        <time>2019-08-18T06:54:55Z</time>
      </trkpt>
      <trkpt lat="42.8114930" lon="-8.6235000">
        <ele>69.4</ele>
        <time>2019-08-18T06:54:56Z</time>
      </trkpt>
      <trkpt lat="42.8114990" lon="-8.6234760">
        <ele>69.5</ele>
        <time>2019-08-18T06:54:57Z</time>
      </trkpt>
      <trkpt lat="42.8115070" lon="-8.6234560">
        <ele>69.6</ele>
        <time>2019-08-18T06:54:58Z</time>
      </trkpt>
      <trkpt lat="42.8115140" lon="-8.6234330">
        <ele>69.7</ele>
        <time>2019-08-18T06:54:59Z</time>
      </trkpt>
      <trkpt lat="42.8115210" lon="-8.6234020">
        <ele>69.9</ele>
        <time>2019-08-18T06:55:00Z</time>
      </trkpt>
      <trkpt lat="42.8115310" lon="-8.6233700">
        <ele>70.0</ele>
        <time>2019-08-18T06:55:01Z</time>
      </trkpt>
      <trkpt lat="42.8115390" lon="-8.6233380">
        <ele>70.2</ele>
        <time>2019-08-18T06:55:02Z</time>
      </trkpt>
      <trkpt lat="42.8115470" lon="-8.6233070">
        <ele>70.4</ele>
        <time>2019-08-18T06:55:03Z</time>
      </trkpt>
      <trkpt lat="42.8115580" lon="-8.6232740">
        <ele>70.5</ele>
        <time>2019-08-18T06:55:04Z</time>
      </trkpt>
      <trkpt lat="42.8115590" lon="-8.6232410">
        <ele>70.7</ele>
        <time>2019-08-18T06:55:05Z</time>
      </trkpt>
      <trkpt lat="42.8116050" lon="-8.6231480">
        <ele>71.2</ele>
        <time>2019-08-18T06:55:09Z</time>
      </trkpt>
      <trkpt lat="42.8116230" lon="-8.6231260">
        <ele>71.3</ele>
        <time>2019-08-18T06:55:10Z</time>
      </trkpt>
      <trkpt lat="42.8116360" lon="-8.6231030">
        <ele>71.5</ele>
        <time>2019-08-18T06:55:11Z</time>
      </trkpt>
      <trkpt lat="42.8116470" lon="-8.6230790">
        <ele>71.6</ele>
        <time>2019-08-18T06:55:12Z</time>
      </trkpt>
      <trkpt lat="42.8116610" lon="-8.6230570">
        <ele>71.8</ele>
        <time>2019-08-18T06:55:13Z</time>
      </trkpt>
      <trkpt lat="42.8117150" lon="-8.6230000">
        <ele>72.6</ele>
        <time>2019-08-18T06:55:16Z</time>
      </trkpt>
      <trkpt lat="42.8117330" lon="-8.6229830">
        <ele>72.9</ele>
        <time>2019-08-18T06:55:17Z</time>
      </trkpt>
      <trkpt lat="42.8117500" lon="-8.6229680">
        <ele>73.1</ele>
        <time>2019-08-18T06:55:18Z</time>
      </trkpt>
      <trkpt lat="42.8117630" lon="-8.6229370">
        <ele>73.5</ele>
        <time>2019-08-18T06:55:19Z</time>
      </trkpt>
      <trkpt lat="42.8117800" lon="-8.6229160">
        <ele>73.8</ele>
        <time>2019-08-18T06:55:20Z</time>
      </trkpt>
      <trkpt lat="42.8118640" lon="-8.6228240">
        <ele>75.7</ele>
        <time>2019-08-18T06:55:25Z</time>
      </trkpt>
      <trkpt lat="42.8118820" lon="-8.6228070">
        <ele>76.1</ele>
        <time>2019-08-18T06:55:26Z</time>
      </trkpt>
      <trkpt lat="42.8119030" lon="-8.6227710">
        <ele>76.8</ele>
        <time>2019-08-18T06:55:27Z</time>
      </trkpt>
      <trkpt lat="42.8119240" lon="-8.6227630">
        <ele>77.2</ele>
        <time>2019-08-18T06:55:28Z</time>
      </trkpt>
      <trkpt lat="42.8119420" lon="-8.6227490">
        <ele>77.6</ele>
        <time>2019-08-18T06:55:29Z</time>
      </trkpt>
      <trkpt lat="42.8119620" lon="-8.6227430">
        <ele>77.9</ele>
        <time>2019-08-18T06:55:30Z</time>
      </trkpt>
      <trkpt lat="42.8120010" lon="-8.6227310">
        <ele>78.6</ele>
        <time>2019-08-18T06:55:32Z</time>
      </trkpt>
      <trkpt lat="42.8120480" lon="-8.6226840">
        <ele>79.7</ele>
        <time>2019-08-18T06:55:35Z</time>
      </trkpt>
      <trkpt lat="42.8120640" lon="-8.6226650">
        <ele>80.1</ele>
        <time>2019-08-18T06:55:36Z</time>
      </trkpt>
      <trkpt lat="42.8120810" lon="-8.6226540">
        <ele>80.4</ele>
        <time>2019-08-18T06:55:37Z</time>
      </trkpt>
      <trkpt lat="42.8120970" lon="-8.6226450">
        <ele>80.7</ele>
        <time>2019-08-18T06:55:38Z</time>
      </trkpt>
      <trkpt lat="42.8121150" lon="-8.6226390">
        <ele>81.1</ele>
        <time>2019-08-18T06:55:39Z</time>
      </trkpt>
      <trkpt lat="42.8121710" lon="-8.6225950">
        <ele>82.3</ele>
        <time>2019-08-18T06:55:42Z</time>
      </trkpt>
      <trkpt lat="42.8121900" lon="-8.6225810">
        <ele>82.7</ele>
        <time>2019-08-18T06:55:43Z</time>
      </trkpt>
      <trkpt lat="42.8122080" lon="-8.6225680">
        <ele>83.1</ele>
        <time>2019-08-18T06:55:44Z</time>
      </trkpt>
      <trkpt lat="42.8122270" lon="-8.6225570">
        <ele>83.5</ele>
        <time>2019-08-18T06:55:45Z</time>
      </trkpt>
      <trkpt lat="42.8122460" lon="-8.6225470">
        <ele>83.8</ele>
        <time>2019-08-18T06:55:46Z</time>
      </trkpt>
      <trkpt lat="42.8122660" lon="-8.6225460">
        <ele>84.2</ele>
        <time>2019-08-18T06:55:47Z</time>
      </trkpt>
      <trkpt lat="42.8122860" lon="-8.6225510">
        <ele>84.5</ele>
        <time>2019-08-18T06:55:48Z</time>
      </trkpt>
      <trkpt lat="42.8123080" lon="-8.6225500">
        <ele>84.9</ele>
        <time>2019-08-18T06:55:49Z</time>
      </trkpt>
      <trkpt lat="42.8123500" lon="-8.6225300">
        <ele>85.7</ele>
        <time>2019-08-18T06:55:51Z</time>
      </trkpt>
      <trkpt lat="42.8123700" lon="-8.6225140">
        <ele>86.0</ele>
        <time>2019-08-18T06:55:52Z</time>
      </trkpt>
      <trkpt lat="42.8123880" lon="-8.6224900">
        <ele>86.5</ele>
        <time>2019-08-18T06:55:53Z</time>
      </trkpt>
      <trkpt lat="42.8124070" lon="-8.6224630">
        <ele>86.9</ele>
        <time>2019-08-18T06:55:54Z</time>
      </trkpt>
      <trkpt lat="42.8124270" lon="-8.6224450">
        <ele>87.3</ele>
        <time>2019-08-18T06:55:55Z</time>
      </trkpt>
      <trkpt lat="42.8126270" lon="-8.6222990">
        <ele>89.8</ele>
        <time>2019-08-18T06:56:03Z</time>
      </trkpt>
      <trkpt lat="42.8129150" lon="-8.6221080">
        <ele>91.0</ele>
        <time>2019-08-18T06:56:13Z</time>
      </trkpt>
      <trkpt lat="42.8130500" lon="-8.6220180">
        <ele>91.3</ele>
        <time>2019-08-18T06:56:19Z</time>
      </trkpt>
      <trkpt lat="42.8130960" lon="-8.6219550">
        <ele>91.4</ele>
        <time>2019-08-18T06:56:21Z</time>
      </trkpt>
      <trkpt lat="42.8131220" lon="-8.6219220">
        <ele>91.4</ele>
        <time>2019-08-18T06:56:22Z</time>
      </trkpt>
      <trkpt lat="42.8131470" lon="-8.6218920">
        <ele>91.5</ele>
        <time>2019-08-18T06:56:23Z</time>
      </trkpt>
      <trkpt lat="42.8131740" lon="-8.6218620">
        <ele>91.5</ele>
        <time>2019-08-18T06:56:24Z</time>
      </trkpt>
      <trkpt lat="42.8132020" lon="-8.6218390">
        <ele>91.6</ele>
        <time>2019-08-18T06:56:25Z</time>
      </trkpt>
      <trkpt lat="42.8132580" lon="-8.6217860">
        <ele>91.7</ele>
        <time>2019-08-18T06:56:27Z</time>
      </trkpt>
      <trkpt lat="42.8134360" lon="-8.6216020">
        <ele>92.6</ele>
        <time>2019-08-18T06:56:34Z</time>
      </trkpt>
      <trkpt lat="42.8134520" lon="-8.6215740">
        <ele>92.7</ele>
        <time>2019-08-18T06:56:35Z</time>
      </trkpt>
      <trkpt lat="42.8134700" lon="-8.6215430">
        <ele>92.8</ele>
        <time>2019-08-18T06:56:36Z</time>
      </trkpt>
      <trkpt lat="42.8134870" lon="-8.6215120">
        <ele>92.9</ele>
        <time>2019-08-18T06:56:37Z</time>
      </trkpt>
      <trkpt lat="42.8134990" lon="-8.6214780">
        <ele>93.0</ele>
        <time>2019-08-18T06:56:38Z</time>
      </trkpt>
      <trkpt lat="42.8135090" lon="-8.6214430">
        <ele>93.1</ele>
        <time>2019-08-18T06:56:39Z</time>
      </trkpt>
      <trkpt lat="42.8135340" lon="-8.6213720">
        <ele>93.4</ele>
        <time>2019-08-18T06:56:41Z</time>
      </trkpt>
      <trkpt lat="42.8136590" lon="-8.6211130">
        <ele>94.5</ele>
        <time>2019-08-18T06:56:49Z</time>
      </trkpt>
      <trkpt lat="42.8137540" lon="-8.6208970">
        <ele>95.2</ele>
        <time>2019-08-18T06:56:56Z</time>
      </trkpt>
      <trkpt lat="42.8137640" lon="-8.6208690">
        <ele>95.3</ele>
        <time>2019-08-18T06:56:57Z</time>
      </trkpt>
      <trkpt lat="42.8137750" lon="-8.6208400">
        <ele>95.4</ele>
        <time>2019-08-18T06:56:58Z</time>
      </trkpt>
      <trkpt lat="42.8137850" lon="-8.6208130">
        <ele>95.5</ele>
        <time>2019-08-18T06:56:59Z</time>
      </trkpt>
      <trkpt lat="42.8137930" lon="-8.6207870">
        <ele>95.6</ele>
        <time>2019-08-18T06:57:00Z</time>
      </trkpt>
      <trkpt lat="42.8138420" lon="-8.6206520">
        <ele>96.2</ele>
        <time>2019-08-18T06:57:05Z</time>
      </trkpt>
      <trkpt lat="42.8138520" lon="-8.6206250">
        <ele>96.4</ele>
        <time>2019-08-18T06:57:06Z</time>
      </trkpt>
      <trkpt lat="42.8138630" lon="-8.6206000">
        <ele>96.5</ele>
        <time>2019-08-18T06:57:07Z</time>
      </trkpt>
      <trkpt lat="42.8138750" lon="-8.6205740">
        <ele>96.6</ele>
        <time>2019-08-18T06:57:08Z</time>
      </trkpt>
      <trkpt lat="42.8138870" lon="-8.6205500">
        <ele>96.8</ele>
        <time>2019-08-18T06:57:09Z</time>
      </trkpt>
      <trkpt lat="42.8139360" lon="-8.6204530">
        <ele>97.4</ele>
        <time>2019-08-18T06:57:13Z</time>
      </trkpt>
      <trkpt lat="42.8139480" lon="-8.6204280">
        <ele>97.6</ele>
        <time>2019-08-18T06:57:14Z</time>
      </trkpt>
      <trkpt lat="42.8139580" lon="-8.6204050">
        <ele>97.7</ele>
        <time>2019-08-18T06:57:15Z</time>
      </trkpt>
      <trkpt lat="42.8139690" lon="-8.6203820">
        <ele>97.9</ele>
        <time>2019-08-18T06:57:16Z</time>
      </trkpt>
      <trkpt lat="42.8139800" lon="-8.6203610">
        <ele>98.0</ele>
        <time>2019-08-18T06:57:17Z</time>
      </trkpt>
      <trkpt lat="42.8140420" lon="-8.6202930">
        <ele>98.9</ele>
        <time>2019-08-18T06:57:21Z</time>
      </trkpt>
      <trkpt lat="42.8140830" lon="-8.6202920">
        <ele>99.2</ele>
        <time>2019-08-18T06:57:23Z</time>
      </trkpt>
      <trkpt lat="42.8141060" lon="-8.6202970">
        <ele>99.4</ele>
        <time>2019-08-18T06:57:24Z</time>
      </trkpt>
      <trkpt lat="42.8141260" lon="-8.6203020">
        <ele>99.6</ele>
        <time>2019-08-18T06:57:25Z</time>
      </trkpt>
      <trkpt lat="42.8141470" lon="-8.6203050">
        <ele>99.8</ele>
        <time>2019-08-18T06:57:26Z</time>
      </trkpt>
      <trkpt lat="42.8141680" lon="-8.6203100">
        <ele>100.0</ele>
        <time>2019-08-18T06:57:27Z</time>
      </trkpt>
      <trkpt lat="42.8142100" lon="-8.6203150">
        <ele>100.4</ele>
        <time>2019-08-18T06:57:29Z</time>
      </trkpt>
      <trkpt lat="42.8142780" lon="-8.6202950">
        <ele>100.7</ele>
        <time>2019-08-18T06:57:32Z</time>
      </trkpt>
      <trkpt lat="42.8142970" lon="-8.6202810">
        <ele>100.8</ele>
        <time>2019-08-18T06:57:33Z</time>
      </trkpt>
      <trkpt lat="42.8143120" lon="-8.6202680">
        <ele>100.9</ele>
        <time>2019-08-18T06:57:34Z</time>
      </trkpt>
      <trkpt lat="42.8143250" lon="-8.6202520">
        <ele>101.0</ele>
        <time>2019-08-18T06:57:35Z</time>
      </trkpt>
      <trkpt lat="42.8143390" lon="-8.6202360">
        <ele>101.1</ele>
        <time>2019-08-18T06:57:36Z</time>
      </trkpt>
      <trkpt lat="42.8144070" lon="-8.6201460">
        <ele>101.6</ele>
        <time>2019-08-18T06:57:42Z</time>
      </trkpt>
      <trkpt lat="42.8144260" lon="-8.6201040">
        <ele>101.8</ele>
        <time>2019-08-18T06:57:44Z</time>
      </trkpt>
      <trkpt lat="42.8144450" lon="-8.6200890">
        <ele>101.9</ele>
        <time>2019-08-18T06:57:45Z</time>
      </trkpt>
      <trkpt lat="42.8144660" lon="-8.6200740">
        <ele>102.0</ele>
        <time>2019-08-18T06:57:46Z</time>
      </trkpt>
      <trkpt lat="42.8144860" lon="-8.6200620">
        <ele>102.0</ele>
        <time>2019-08-18T06:57:47Z</time>
      </trkpt>
      <trkpt lat="42.8145090" lon="-8.6200530">
        <ele>102.1</ele>
        <time>2019-08-18T06:57:48Z</time>
      </trkpt>
      <trkpt lat="42.8145470" lon="-8.6200400">
        <ele>102.2</ele>
        <time>2019-08-18T06:57:50Z</time>
      </trkpt>
      <trkpt lat="42.8146540" lon="-8.6200690">
        <ele>102.2</ele>
        <time>2019-08-18T06:57:58Z</time>
      </trkpt>
      <trkpt lat="42.8146640" lon="-8.6201030">
        <ele>102.2</ele>
        <time>2019-08-18T06:58:01Z</time>
      </trkpt>
      <trkpt lat="42.8146650" lon="-8.6201170">
        <ele>102.1</ele>
        <time>2019-08-18T06:58:13Z</time>
      </trkpt>
      <trkpt lat="42.8146700" lon="-8.6201260">
        <ele>102.1</ele>
        <time>2019-08-18T06:58:14Z</time>
      </trkpt>
      <trkpt lat="42.8146670" lon="-8.6201500">
        <ele>102.1</ele>
        <time>2019-08-18T06:58:15Z</time>
      </trkpt>
      <trkpt lat="42.8146620" lon="-8.6202370">
        <ele>101.9</ele>
        <time>2019-08-18T06:58:19Z</time>
      </trkpt>
      <trkpt lat="42.8146760" lon="-8.6204390">
        <ele>101.2</ele>
        <time>2019-08-18T06:58:27Z</time>
      </trkpt>
      <trkpt lat="42.8147190" lon="-8.6206950">
        <ele>99.7</ele>
        <time>2019-08-18T06:58:32Z</time>
      </trkpt>
      <trkpt lat="42.8147250" lon="-8.6207720">
        <ele>99.6</ele>
        <time>2019-08-18T06:58:33Z</time>
      </trkpt>
      <trkpt lat="42.8147280" lon="-8.6208460">
        <ele>99.5</ele>
        <time>2019-08-18T06:58:34Z</time>
      </trkpt>
      <trkpt lat="42.8147310" lon="-8.6209270">
        <ele>99.4</ele>
        <time>2019-08-18T06:58:35Z</time>
      </trkpt>
      <trkpt lat="42.8147340" lon="-8.6210050">
        <ele>99.2</ele>
        <time>2019-08-18T06:58:36Z</time>
      </trkpt>
      <trkpt lat="42.8147460" lon="-8.6211600">
        <ele>99.0</ele>
        <time>2019-08-18T06:58:38Z</time>
      </trkpt>
      <trkpt lat="42.8147610" lon="-8.6212390">
        <ele>98.8</ele>
        <time>2019-08-18T06:58:39Z</time>
      </trkpt>
      <trkpt lat="42.8147840" lon="-8.6213170">
        <ele>98.7</ele>
        <time>2019-08-18T06:58:40Z</time>
      </trkpt>
      <trkpt lat="42.8148160" lon="-8.6213860">
        <ele>98.6</ele>
        <time>2019-08-18T06:58:41Z</time>
      </trkpt>
      <trkpt lat="42.8148480" lon="-8.6214490">
        <ele>98.6</ele>
        <time>2019-08-18T06:58:42Z</time>
      </trkpt>
      <trkpt lat="42.8148860" lon="-8.6215150">
        <ele>98.5</ele>
        <time>2019-08-18T06:58:43Z</time>
      </trkpt>
      <trkpt lat="42.8149280" lon="-8.6215770">
        <ele>98.5</ele>
        <time>2019-08-18T06:58:44Z</time>
      </trkpt>
      <trkpt lat="42.8150180" lon="-8.6216960">
        <ele>98.4</ele>
        <time>2019-08-18T06:58:46Z</time>
      </trkpt>
      <trkpt lat="42.8150660" lon="-8.6217490">
        <ele>98.4</ele>
        <time>2019-08-18T06:58:47Z</time>
      </trkpt>
      <trkpt lat="42.8151150" lon="-8.6217870">
        <ele>98.4</ele>
        <time>2019-08-18T06:58:48Z</time>
      </trkpt>
      <trkpt lat="42.8151670" lon="-8.6218170">
        <ele>98.4</ele>
        <time>2019-08-18T06:58:49Z</time>
      </trkpt>
      <trkpt lat="42.8152160" lon="-8.6218450">
        <ele>98.4</ele>
        <time>2019-08-18T06:58:50Z</time>
      </trkpt>
      <trkpt lat="42.8153380" lon="-8.6219440">
        <ele>98.4</ele>
        <time>2019-08-18T06:58:53Z</time>
      </trkpt>
      <trkpt lat="42.8154060" lon="-8.6220230">
        <ele>98.4</ele>
        <time>2019-08-18T06:58:55Z</time>
      </trkpt>
      <trkpt lat="42.8154870" lon="-8.6221480">
        <ele>98.3</ele>
        <time>2019-08-18T06:58:58Z</time>
      </trkpt>
      <trkpt lat="42.8156120" lon="-8.6221900">
        <ele>98.0</ele>
        <time>2019-08-18T06:59:02Z</time>
      </trkpt>
      <trkpt lat="42.8156450" lon="-8.6221660">
        <ele>97.9</ele>
        <time>2019-08-18T06:59:03Z</time>
      </trkpt>
      <trkpt lat="42.8159060" lon="-8.6221070">
        <ele>95.0</ele>
        <time>2019-08-18T06:59:10Z</time>
      </trkpt>
      <trkpt lat="42.8159360" lon="-8.6221010">
        <ele>94.6</ele>
        <time>2019-08-18T06:59:11Z</time>
      </trkpt>
      <trkpt lat="42.8159700" lon="-8.6220830">
        <ele>94.0</ele>
        <time>2019-08-18T06:59:12Z</time>
      </trkpt>
      <trkpt lat="42.8160020" lon="-8.6220610">
        <ele>93.4</ele>
        <time>2019-08-18T06:59:13Z</time>
      </trkpt>
      <trkpt lat="42.8160380" lon="-8.6220280">
        <ele>92.8</ele>
        <time>2019-08-18T06:59:14Z</time>
      </trkpt>
      <trkpt lat="42.8160610" lon="-8.6219760">
        <ele>92.5</ele>
        <time>2019-08-18T06:59:15Z</time>
      </trkpt>
      <trkpt lat="42.8160770" lon="-8.6219170">
        <ele>92.2</ele>
        <time>2019-08-18T06:59:16Z</time>
      </trkpt>
      <trkpt lat="42.8161100" lon="-8.6218540">
        <ele>91.9</ele>
        <time>2019-08-18T06:59:17Z</time>
      </trkpt>
      <trkpt lat="42.8161610" lon="-8.6218070">
        <ele>91.7</ele>
        <time>2019-08-18T06:59:18Z</time>
      </trkpt>
      <trkpt lat="42.8162110" lon="-8.6217440">
        <ele>91.7</ele>
        <time>2019-08-18T06:59:19Z</time>
      </trkpt>
      <trkpt lat="42.8162550" lon="-8.6216980">
        <ele>91.6</ele>
        <time>2019-08-18T06:59:20Z</time>
      </trkpt>
      <trkpt lat="42.8163150" lon="-8.6216580">
        <ele>91.7</ele>
        <time>2019-08-18T06:59:21Z</time>
      </trkpt>
      <trkpt lat="42.8165200" lon="-8.6215240">
        <ele>91.9</ele>
        <time>2019-08-18T06:59:25Z</time>
      </trkpt>
      <trkpt lat="42.8168610" lon="-8.6212910">
        <ele>92.3</ele>
        <time>2019-08-18T06:59:31Z</time>
      </trkpt>
      <trkpt lat="42.8170430" lon="-8.6212650">
        <ele>92.8</ele>
        <time>2019-08-18T06:59:35Z</time>
      </trkpt>
      <trkpt lat="42.8172480" lon="-8.6212200">
        <ele>93.6</ele>
        <time>2019-08-18T06:59:41Z</time>
      </trkpt>
      <trkpt lat="42.8173230" lon="-8.6212020">
        <ele>93.9</ele>
        <time>2019-08-18T06:59:44Z</time>
      </trkpt>
      <trkpt lat="42.8173460" lon="-8.6211930">
        <ele>94.0</ele>
        <time>2019-08-18T06:59:45Z</time>
      </trkpt>
      <trkpt lat="42.8173670" lon="-8.6211880">
        <ele>94.1</ele>
        <time>2019-08-18T06:59:46Z</time>
      </trkpt>
      <trkpt lat="42.8173870" lon="-8.6211820">
        <ele>94.2</ele>
        <time>2019-08-18T06:59:47Z</time>
      </trkpt>
      <trkpt lat="42.8174060" lon="-8.6211750">
        <ele>94.3</ele>
        <time>2019-08-18T06:59:48Z</time>
      </trkpt>
      <trkpt lat="42.8174320" lon="-8.6211760">
        <ele>94.5</ele>
        <time>2019-08-18T06:59:49Z</time>
      </trkpt>
      <trkpt lat="42.8176510" lon="-8.6211210">
        <ele>96.0</ele>
        <time>2019-08-18T06:59:56Z</time>
      </trkpt>
      <trkpt lat="42.8176760" lon="-8.6211180">
        <ele>96.2</ele>
        <time>2019-08-18T06:59:57Z</time>
      </trkpt>
      <trkpt lat="42.8177000" lon="-8.6211170">
        <ele>96.4</ele>
        <time>2019-08-18T06:59:58Z</time>
      </trkpt>
      <trkpt lat="42.8177430" lon="-8.6210980">
        <ele>96.9</ele>
        <time>2019-08-18T07:00:00Z</time>
      </trkpt>
      <trkpt lat="42.8177660" lon="-8.6210840">
        <ele>97.1</ele>
        <time>2019-08-18T07:00:01Z</time>
      </trkpt>
      <trkpt lat="42.8178140" lon="-8.6210580">
        <ele>97.7</ele>
        <time>2019-08-18T07:00:03Z</time>
      </trkpt>
      <trkpt lat="42.8178580" lon="-8.6210260">
        <ele>98.2</ele>
        <time>2019-08-18T07:00:05Z</time>
      </trkpt>
      <trkpt lat="42.8178790" lon="-8.6210050">
        <ele>98.5</ele>
        <time>2019-08-18T07:00:06Z</time>
      </trkpt>
      <trkpt lat="42.8178980" lon="-8.6209870">
        <ele>98.8</ele>
        <time>2019-08-18T07:00:07Z</time>
      </trkpt>
      <trkpt lat="42.8179170" lon="-8.6209700">
        <ele>99.1</ele>
        <time>2019-08-18T07:00:08Z</time>
      </trkpt>
      <trkpt lat="42.8179400" lon="-8.6209570">
        <ele>99.4</ele>
        <time>2019-08-18T07:00:09Z</time>
      </trkpt>
      <trkpt lat="42.8179650" lon="-8.6209410">
        <ele>99.8</ele>
        <time>2019-08-18T07:00:10Z</time>
      </trkpt>
      <trkpt lat="42.8180260" lon="-8.6208790">
        <ele>101.0</ele>
        <time>2019-08-18T07:00:13Z</time>
      </trkpt>
      <trkpt lat="42.8180440" lon="-8.6208580">
        <ele>101.3</ele>
        <time>2019-08-18T07:00:14Z</time>
      </trkpt>
      <trkpt lat="42.8180640" lon="-8.6208380">
        <ele>101.6</ele>
        <time>2019-08-18T07:00:15Z</time>
      </trkpt>
      <trkpt lat="42.8180860" lon="-8.6208210">
        <ele>102.0</ele>
        <time>2019-08-18T07:00:16Z</time>
      </trkpt>
      <trkpt lat="42.8181010" lon="-8.6208010">
        <ele>102.3</ele>
        <time>2019-08-18T07:00:17Z</time>
      </trkpt>
      <trkpt lat="42.8181160" lon="-8.6207780">
        <ele>102.6</ele>
        <time>2019-08-18T07:00:18Z</time>
      </trkpt>
      <trkpt lat="42.8181280" lon="-8.6207520">
        <ele>102.9</ele>
        <time>2019-08-18T07:00:19Z</time>
      </trkpt>
      <trkpt lat="42.8181470" lon="-8.6207250">
        <ele>103.3</ele>
        <time>2019-08-18T07:00:20Z</time>
      </trkpt>
      <trkpt lat="42.8181680" lon="-8.6207150">
        <ele>103.6</ele>
        <time>2019-08-18T07:00:21Z</time>
      </trkpt>
      <trkpt lat="42.8181870" lon="-8.6206900">
        <ele>104.0</ele>
        <time>2019-08-18T07:00:22Z</time>
      </trkpt>
      <trkpt lat="42.8182490" lon="-8.6206210">
        <ele>105.1</ele>
        <time>2019-08-18T07:00:25Z</time>
      </trkpt>
      <trkpt lat="42.8182710" lon="-8.6206030">
        <ele>105.5</ele>
        <time>2019-08-18T07:00:26Z</time>
      </trkpt>
      <trkpt lat="42.8182930" lon="-8.6205850">
        <ele>105.8</ele>
        <time>2019-08-18T07:00:27Z</time>
      </trkpt>
      <trkpt lat="42.8183130" lon="-8.6205710">
        <ele>106.1</ele>
        <time>2019-08-18T07:00:28Z</time>
      </trkpt>
      <trkpt lat="42.8183330" lon="-8.6205560">
        <ele>106.4</ele>
        <time>2019-08-18T07:00:29Z</time>
      </trkpt>
      <trkpt lat="42.8183970" lon="-8.6205230">
        <ele>107.3</ele>
        <time>2019-08-18T07:00:32Z</time>
      </trkpt>
      <trkpt lat="42.8184250" lon="-8.6205130">
        <ele>107.7</ele>
        <time>2019-08-18T07:00:33Z</time>
      </trkpt>
      <trkpt lat="42.8184510" lon="-8.6204980">
        <ele>108.2</ele>
        <time>2019-08-18T07:00:34Z</time>
      </trkpt>
      <trkpt lat="42.8184760" lon="-8.6204840">
        <ele>108.6</ele>
        <time>2019-08-18T07:00:35Z</time>
      </trkpt>
      <trkpt lat="42.8184950" lon="-8.6204690">
        <ele>108.9</ele>
        <time>2019-08-18T07:00:36Z</time>
      </trkpt>
      <trkpt lat="42.8185390" lon="-8.6204360">
        <ele>109.6</ele>
        <time>2019-08-18T07:00:38Z</time>
      </trkpt>
      <trkpt lat="42.8185640" lon="-8.6204160">
        <ele>110.0</ele>
        <time>2019-08-18T07:00:39Z</time>
      </trkpt>
      <trkpt lat="42.8185870" lon="-8.6203970">
        <ele>110.4</ele>
        <time>2019-08-18T07:00:40Z</time>
      </trkpt>
      <trkpt lat="42.8186080" lon="-8.6203770">
        <ele>110.7</ele>
        <time>2019-08-18T07:00:41Z</time>
      </trkpt>
      <trkpt lat="42.8186280" lon="-8.6203570">
        <ele>111.1</ele>
        <time>2019-08-18T07:00:42Z</time>
      </trkpt>
      <trkpt lat="42.8186670" lon="-8.6203140">
        <ele>111.8</ele>
        <time>2019-08-18T07:00:44Z</time>
      </trkpt>
      <trkpt lat="42.8186880" lon="-8.6202930">
        <ele>112.1</ele>
        <time>2019-08-18T07:00:45Z</time>
      </trkpt>
      <trkpt lat="42.8187090" lon="-8.6202730">
        <ele>112.5</ele>
        <time>2019-08-18T07:00:46Z</time>
      </trkpt>
      <trkpt lat="42.8187280" lon="-8.6202540">
        <ele>112.7</ele>
        <time>2019-08-18T07:00:47Z</time>
      </trkpt>
      <trkpt lat="42.8187480" lon="-8.6202320">
        <ele>113.0</ele>
        <time>2019-08-18T07:00:48Z</time>
      </trkpt>
      <trkpt lat="42.8187850" lon="-8.6202000">
        <ele>113.5</ele>
        <time>2019-08-18T07:00:50Z</time>
      </trkpt>
      <trkpt lat="42.8188440" lon="-8.6201390">
        <ele>114.1</ele>
        <time>2019-08-18T07:00:53Z</time>
      </trkpt>
      <trkpt lat="42.8188600" lon="-8.6201230">
        <ele>114.2</ele>
        <time>2019-08-18T07:00:54Z</time>
      </trkpt>
      <trkpt lat="42.8188750" lon="-8.6201080">
        <ele>114.3</ele>
        <time>2019-08-18T07:00:55Z</time>
      </trkpt>
      <trkpt lat="42.8188920" lon="-8.6200900">
        <ele>114.4</ele>
        <time>2019-08-18T07:00:56Z</time>
      </trkpt>
      <trkpt lat="42.8189070" lon="-8.6200690">
        <ele>114.5</ele>
        <time>2019-08-18T07:00:57Z</time>
      </trkpt>
      <trkpt lat="42.8189440" lon="-8.6200330">
        <ele>114.7</ele>
        <time>2019-08-18T07:00:59Z</time>
      </trkpt>
      <trkpt lat="42.8190650" lon="-8.6199010">
        <ele>115.2</ele>
        <time>2019-08-18T07:01:07Z</time>
      </trkpt>
      <trkpt lat="42.8191790" lon="-8.6197580">
        <ele>115.6</ele>
        <time>2019-08-18T07:01:15Z</time>
      </trkpt>
      <trkpt lat="42.8192850" lon="-8.6195860">
        <ele>116.2</ele>
        <time>2019-08-18T07:01:23Z</time>
      </trkpt>
      <trkpt lat="42.8193110" lon="-8.6195810">
        <ele>116.3</ele>
        <time>2019-08-18T07:01:24Z</time>
      </trkpt>
      <trkpt lat="42.8193240" lon="-8.6195580">
        <ele>116.4</ele>
        <time>2019-08-18T07:01:25Z</time>
      </trkpt>
      <trkpt lat="42.8193330" lon="-8.6195330">
        <ele>116.4</ele>
        <time>2019-08-18T07:01:26Z</time>
      </trkpt>
      <trkpt lat="42.8193380" lon="-8.6195080">
        <ele>116.5</ele>
        <time>2019-08-18T07:01:27Z</time>
      </trkpt>
      <trkpt lat="42.8193530" lon="-8.6194890">
        <ele>116.6</ele>
        <time>2019-08-18T07:01:28Z</time>
      </trkpt>
      <trkpt lat="42.8193620" lon="-8.6194420">
        <ele>116.7</ele>
        <time>2019-08-18T07:01:30Z</time>
      </trkpt>
      <trkpt lat="42.8193900" lon="-8.6192050">
        <ele>117.7</ele>
        <time>2019-08-18T07:01:40Z</time>
      </trkpt>
      <trkpt lat="42.8194400" lon="-8.6191100">
        <ele>118.1</ele>
        <time>2019-08-18T07:01:46Z</time>
      </trkpt>
      <trkpt lat="42.8195440" lon="-8.6189500">
        <ele>118.7</ele>
        <time>2019-08-18T07:01:55Z</time>
      </trkpt>
      <trkpt lat="42.8196470" lon="-8.6188660">
        <ele>119.1</ele>
        <time>2019-08-18T07:02:01Z</time>
      </trkpt>
      <trkpt lat="42.8196600" lon="-8.6188510">
        <ele>119.2</ele>
        <time>2019-08-18T07:02:02Z</time>
      </trkpt>
      <trkpt lat="42.8196730" lon="-8.6188340">
        <ele>119.3</ele>
        <time>2019-08-18T07:02:03Z</time>
      </trkpt>
      <trkpt lat="42.8196870" lon="-8.6188100">
        <ele>119.3</ele>
        <time>2019-08-18T07:02:04Z</time>
      </trkpt>
      <trkpt lat="42.8197110" lon="-8.6187790">
        <ele>119.4</ele>
        <time>2019-08-18T07:02:05Z</time>
      </trkpt>
      <trkpt lat="42.8197660" lon="-8.6187120">
        <ele>119.6</ele>
        <time>2019-08-18T07:02:08Z</time>
      </trkpt>
      <trkpt lat="42.8198970" lon="-8.6185590">
        <ele>120.0</ele>
        <time>2019-08-18T07:02:15Z</time>
      </trkpt>
      <trkpt lat="42.8199270" lon="-8.6185240">
        <ele>120.0</ele>
        <time>2019-08-18T07:02:17Z</time>
      </trkpt>
      <trkpt lat="42.8199390" lon="-8.6185130">
        <ele>120.1</ele>
        <time>2019-08-18T07:02:18Z</time>
      </trkpt>
      <trkpt lat="42.8199570" lon="-8.6184980">
        <ele>120.1</ele>
        <time>2019-08-18T07:02:19Z</time>
      </trkpt>
      <trkpt lat="42.8199760" lon="-8.6184850">
        <ele>120.1</ele>
        <time>2019-08-18T07:02:20Z</time>
      </trkpt>
      <trkpt lat="42.8200040" lon="-8.6184830">
        <ele>120.2</ele>
        <time>2019-08-18T07:02:21Z</time>
      </trkpt>
      <trkpt lat="42.8200680" lon="-8.6184780">
        <ele>120.3</ele>
        <time>2019-08-18T07:02:24Z</time>
      </trkpt>
      <trkpt lat="42.8200940" lon="-8.6184650">
        <ele>120.3</ele>
        <time>2019-08-18T07:02:26Z</time>
      </trkpt>
      <trkpt lat="42.8201060" lon="-8.6184490">
        <ele>120.3</ele>
        <time>2019-08-18T07:02:27Z</time>
      </trkpt>
      <trkpt lat="42.8201290" lon="-8.6184130">
        <ele>120.4</ele>
        <time>2019-08-18T07:02:28Z</time>
      </trkpt>
      <trkpt lat="42.8201550" lon="-8.6183850">
        <ele>120.4</ele>
        <time>2019-08-18T07:02:29Z</time>
      </trkpt>
      <trkpt lat="42.8201830" lon="-8.6183600">
        <ele>120.5</ele>
        <time>2019-08-18T07:02:30Z</time>
      </trkpt>
      <trkpt lat="42.8202550" lon="-8.6183060">
        <ele>120.5</ele>
        <time>2019-08-18T07:02:33Z</time>
      </trkpt>
      <trkpt lat="42.8203230" lon="-8.6182380">
        <ele>120.6</ele>
        <time>2019-08-18T07:02:36Z</time>
      </trkpt>
      <trkpt lat="42.8203590" lon="-8.6182190">
        <ele>120.6</ele>
        <time>2019-08-18T07:02:37Z</time>
      </trkpt>
      <trkpt lat="42.8203860" lon="-8.6182010">
        <ele>120.6</ele>
        <time>2019-08-18T07:02:38Z</time>
      </trkpt>
      <trkpt lat="42.8204100" lon="-8.6181840">
        <ele>120.6</ele>
        <time>2019-08-18T07:02:39Z</time>
      </trkpt>
      <trkpt lat="42.8204340" lon="-8.6181590">
        <ele>120.6</ele>
        <time>2019-08-18T07:02:40Z</time>
      </trkpt>
      <trkpt lat="42.8206320" lon="-8.6179460">
        <ele>120.3</ele>
        <time>2019-08-18T07:02:49Z</time>
      </trkpt>
      <trkpt lat="42.8206730" lon="-8.6178570">
        <ele>120.2</ele>
        <time>2019-08-18T07:02:52Z</time>
      </trkpt>
      <trkpt lat="42.8206870" lon="-8.6178260">
        <ele>120.2</ele>
        <time>2019-08-18T07:02:53Z</time>
      </trkpt>
      <trkpt lat="42.8207010" lon="-8.6177960">
        <ele>120.2</ele>
        <time>2019-08-18T07:02:54Z</time>
      </trkpt>
      <trkpt lat="42.8207170" lon="-8.6177750">
        <ele>120.1</ele>
        <time>2019-08-18T07:02:55Z</time>
      </trkpt>
      <trkpt lat="42.8207320" lon="-8.6177530">
        <ele>120.1</ele>
        <time>2019-08-18T07:02:56Z</time>
      </trkpt>
      <trkpt lat="42.8207500" lon="-8.6176950">
        <ele>120.0</ele>
        <time>2019-08-18T07:02:58Z</time>
      </trkpt>
      <trkpt lat="42.8207600" lon="-8.6173400">
        <ele>119.7</ele>
        <time>2019-08-18T07:03:08Z</time>
      </trkpt>
      <trkpt lat="42.8208000" lon="-8.6170660">
        <ele>119.6</ele>
        <time>2019-08-18T07:03:15Z</time>
      </trkpt>
      <trkpt lat="42.8208970" lon="-8.6169770">
        <ele>119.8</ele>
        <time>2019-08-18T07:03:19Z</time>
      </trkpt>
      <trkpt lat="42.8211140" lon="-8.6169540">
        <ele>120.4</ele>
        <time>2019-08-18T07:03:25Z</time>
      </trkpt>
      <trkpt lat="42.8212010" lon="-8.6169560">
        <ele>120.5</ele>
        <time>2019-08-18T07:03:27Z</time>
      </trkpt>
      <trkpt lat="42.8212480" lon="-8.6169580">
        <ele>120.5</ele>
        <time>2019-08-18T07:03:28Z</time>
      </trkpt>
      <trkpt lat="42.8212920" lon="-8.6169640">
        <ele>120.5</ele>
        <time>2019-08-18T07:03:29Z</time>
      </trkpt>
      <trkpt lat="42.8213240" lon="-8.6169720">
        <ele>120.6</ele>
        <time>2019-08-18T07:03:30Z</time>
      </trkpt>
      <trkpt lat="42.8213570" lon="-8.6169660">
        <ele>120.6</ele>
        <time>2019-08-18T07:03:31Z</time>
      </trkpt>
      <trkpt lat="42.8213760" lon="-8.6169040">
        <ele>120.6</ele>
        <time>2019-08-18T07:03:33Z</time>
      </trkpt>
      <trkpt lat="42.8213680" lon="-8.6168620">
        <ele>120.7</ele>
        <time>2019-08-18T07:03:34Z</time>
      </trkpt>
      <trkpt lat="42.8213570" lon="-8.6168220">
        <ele>120.7</ele>
        <time>2019-08-18T07:03:35Z</time>
      </trkpt>
      <trkpt lat="42.8213490" lon="-8.6167820">
        <ele>120.8</ele>
        <time>2019-08-18T07:03:36Z</time>
      </trkpt>
      <trkpt lat="42.8213430" lon="-8.6167420">
        <ele>120.8</ele>
        <time>2019-08-18T07:03:37Z</time>
      </trkpt>
      <trkpt lat="42.8213420" lon="-8.6166890">
        <ele>120.9</ele>
        <time>2019-08-18T07:03:38Z</time>
      </trkpt>
      <trkpt lat="42.8213260" lon="-8.6165600">
        <ele>121.0</ele>
        <time>2019-08-18T07:03:41Z</time>
      </trkpt>
      <trkpt lat="42.8213040" lon="-8.6162970">
        <ele>121.4</ele>
        <time>2019-08-18T07:03:47Z</time>
      </trkpt>
      <trkpt lat="42.8212670" lon="-8.6159300">
        <ele>122.4</ele>
        <time>2019-08-18T07:03:54Z</time>
      </trkpt>
      <trkpt lat="42.8212360" lon="-8.6158140">
        <ele>122.7</ele>
        <time>2019-08-18T07:03:56Z</time>
      </trkpt>
      <trkpt lat="42.8211940" lon="-8.6157180">
        <ele>123.2</ele>
        <time>2019-08-18T07:03:58Z</time>
      </trkpt>
      <trkpt lat="42.8212720" lon="-8.6154440">
        <ele>123.3</ele>
        <time>2019-08-18T07:04:04Z</time>
      </trkpt>
      <trkpt lat="42.8213940" lon="-8.6151170">
        <ele>124.0</ele>
        <time>2019-08-18T07:04:10Z</time>
      </trkpt>
      <trkpt lat="42.8215050" lon="-8.6147340">
        <ele>125.5</ele>
        <time>2019-08-18T07:04:17Z</time>
      </trkpt>
      <trkpt lat="42.8215200" lon="-8.6146790">
        <ele>125.6</ele>
        <time>2019-08-18T07:04:18Z</time>
      </trkpt>
      <trkpt lat="42.8215330" lon="-8.6146240">
        <ele>125.7</ele>
        <time>2019-08-18T07:04:19Z</time>
      </trkpt>
      <trkpt lat="42.8215450" lon="-8.6145720">
        <ele>125.8</ele>
        <time>2019-08-18T07:04:20Z</time>
      </trkpt>
      <trkpt lat="42.8215560" lon="-8.6145200">
        <ele>125.8</ele>
        <time>2019-08-18T07:04:21Z</time>
      </trkpt>
      <trkpt lat="42.8215610" lon="-8.6144670">
        <ele>125.9</ele>
        <time>2019-08-18T07:04:22Z</time>
      </trkpt>
      <trkpt lat="42.8215590" lon="-8.6143580">
        <ele>126.2</ele>
        <time>2019-08-18T07:04:24Z</time>
      </trkpt>
      <trkpt lat="42.8215520" lon="-8.6143050">
        <ele>126.4</ele>
        <time>2019-08-18T07:04:25Z</time>
      </trkpt>
      <trkpt lat="42.8215440" lon="-8.6142530">
        <ele>126.5</ele>
        <time>2019-08-18T07:04:26Z</time>
      </trkpt>
      <trkpt lat="42.8215410" lon="-8.6142030">
        <ele>126.7</ele>
        <time>2019-08-18T07:04:27Z</time>
      </trkpt>
      <trkpt lat="42.8215450" lon="-8.6141560">
        <ele>126.8</ele>
        <time>2019-08-18T07:04:28Z</time>
      </trkpt>
      <trkpt lat="42.8215470" lon="-8.6140940">
        <ele>127.0</ele>
        <time>2019-08-18T07:04:29Z</time>
      </trkpt>
      <trkpt lat="42.8215250" lon="-8.6139240">
        <ele>127.9</ele>
        <time>2019-08-18T07:04:32Z</time>
      </trkpt>
      <trkpt lat="42.8215060" lon="-8.6137130">
        <ele>128.7</ele>
        <time>2019-08-18T07:04:36Z</time>
      </trkpt>
      <trkpt lat="42.8215330" lon="-8.6136110">
        <ele>129.1</ele>
        <time>2019-08-18T07:04:38Z</time>
      </trkpt>
      <trkpt lat="42.8215950" lon="-8.6135170">
        <ele>129.1</ele>
        <time>2019-08-18T07:04:40Z</time>
      </trkpt>
      <trkpt lat="42.8216930" lon="-8.6133720">
        <ele>129.0</ele>
        <time>2019-08-18T07:04:43Z</time>
      </trkpt>
      <trkpt lat="42.8217680" lon="-8.6132820">
        <ele>129.0</ele>
        <time>2019-08-18T07:04:45Z</time>
      </trkpt>
      <trkpt lat="42.8218750" lon="-8.6131650">
        <ele>128.9</ele>
        <time>2019-08-18T07:04:48Z</time>
      </trkpt>
      <trkpt lat="42.8219130" lon="-8.6131310">
        <ele>128.9</ele>
        <time>2019-08-18T07:04:49Z</time>
      </trkpt>
      <trkpt lat="42.8221370" lon="-8.6128870">
        <ele>128.8</ele>
        <time>2019-08-18T07:04:56Z</time>
      </trkpt>
      <trkpt lat="42.8224700" lon="-8.6125530">
        <ele>128.6</ele>
        <time>2019-08-18T07:05:05Z</time>
      </trkpt>
      <trkpt lat="42.8226220" lon="-8.6123960">
        <ele>128.6</ele>
        <time>2019-08-18T07:05:09Z</time>
      </trkpt>
      <trkpt lat="42.8227120" lon="-8.6122620">
        <ele>128.5</ele>
        <time>2019-08-18T07:05:12Z</time>
      </trkpt>
      <trkpt lat="42.8228290" lon="-8.6120850">
        <ele>128.4</ele>
        <time>2019-08-18T07:05:16Z</time>
      </trkpt>
      <trkpt lat="42.8228590" lon="-8.6120410">
        <ele>128.3</ele>
        <time>2019-08-18T07:05:17Z</time>
      </trkpt>
      <trkpt lat="42.8230520" lon="-8.6118450">
        <ele>127.8</ele>
        <time>2019-08-18T07:05:22Z</time>
      </trkpt>
      <trkpt lat="42.8231870" lon="-8.6117100">
        <ele>127.8</ele>
        <time>2019-08-18T07:05:26Z</time>
      </trkpt>
      <trkpt lat="42.8232250" lon="-8.6116800">
        <ele>127.8</ele>
        <time>2019-08-18T07:05:27Z</time>
      </trkpt>
      <trkpt lat="42.8233600" lon="-8.6115670">
        <ele>128.1</ele>
        <time>2019-08-18T07:05:32Z</time>
      </trkpt>
      <trkpt lat="42.8235390" lon="-8.6114900">
        <ele>127.5</ele>
        <time>2019-08-18T07:05:38Z</time>
      </trkpt>
      <trkpt lat="42.8238380" lon="-8.6113150">
        <ele>126.0</ele>
        <time>2019-08-18T07:05:44Z</time>
      </trkpt>
      <trkpt lat="42.8240650" lon="-8.6111740">
        <ele>125.6</ele>
        <time>2019-08-18T07:05:48Z</time>
      </trkpt>
      <trkpt lat="42.8241170" lon="-8.6111400">
        <ele>125.5</ele>
        <time>2019-08-18T07:05:49Z</time>
      </trkpt>
      <trkpt lat="42.8241710" lon="-8.6111050">
        <ele>125.3</ele>
        <time>2019-08-18T07:05:50Z</time>
      </trkpt>
      <trkpt lat="42.8242250" lon="-8.6110700">
        <ele>125.2</ele>
        <time>2019-08-18T07:05:51Z</time>
      </trkpt>
      <trkpt lat="42.8242760" lon="-8.6110400">
        <ele>125.1</ele>
        <time>2019-08-18T07:05:52Z</time>
      </trkpt>
      <trkpt lat="42.8247160" lon="-8.6109010">
        <ele>124.2</ele>
        <time>2019-08-18T07:06:00Z</time>
      </trkpt>
      <trkpt lat="42.8250290" lon="-8.6108900">
        <ele>123.4</ele>
        <time>2019-08-18T07:06:06Z</time>
      </trkpt>
      <trkpt lat="42.8250720" lon="-8.6108890">
        <ele>123.3</ele>
        <time>2019-08-18T07:06:07Z</time>
      </trkpt>
      <trkpt lat="42.8251210" lon="-8.6108930">
        <ele>123.2</ele>
        <time>2019-08-18T07:06:08Z</time>
      </trkpt>
      <trkpt lat="42.8251700" lon="-8.6108970">
        <ele>123.1</ele>
        <time>2019-08-18T07:06:09Z</time>
      </trkpt>
      <trkpt lat="42.8252800" lon="-8.6109120">
        <ele>122.8</ele>
        <time>2019-08-18T07:06:11Z</time>
      </trkpt>
      <trkpt lat="42.8253310" lon="-8.6109220">
        <ele>122.7</ele>
        <time>2019-08-18T07:06:12Z</time>
      </trkpt>
      <trkpt lat="42.8254400" lon="-8.6109550">
        <ele>122.5</ele>
        <time>2019-08-18T07:06:14Z</time>
      </trkpt>
      <trkpt lat="42.8257510" lon="-8.6110680">
        <ele>122.1</ele>
        <time>2019-08-18T07:06:20Z</time>
      </trkpt>
      <trkpt lat="42.8260490" lon="-8.6111640">
        <ele>122.1</ele>
        <time>2019-08-18T07:06:26Z</time>
      </trkpt>
      <trkpt lat="42.8260930" lon="-8.6111480">
        <ele>122.1</ele>
        <time>2019-08-18T07:06:27Z</time>
      </trkpt>
      <trkpt lat="42.8261750" lon="-8.6110340">
        <ele>122.3</ele>
        <time>2019-08-18T07:06:30Z</time>
      </trkpt>
      <trkpt lat="42.8264000" lon="-8.6108800">
        <ele>123.2</ele>
        <time>2019-08-18T07:06:36Z</time>
      </trkpt>
      <trkpt lat="42.8266500" lon="-8.6108630">
        <ele>124.0</ele>
        <time>2019-08-18T07:06:42Z</time>
      </trkpt>
      <trkpt lat="42.8268300" lon="-8.6108370">
        <ele>125.2</ele>
        <time>2019-08-18T07:06:47Z</time>
      </trkpt>
      <trkpt lat="42.8269420" lon="-8.6107560">
        <ele>126.4</ele>
        <time>2019-08-18T07:06:50Z</time>
      </trkpt>
      <trkpt lat="42.8269830" lon="-8.6107350">
        <ele>126.8</ele>
        <time>2019-08-18T07:06:51Z</time>
      </trkpt>
      <trkpt lat="42.8270660" lon="-8.6107130">
        <ele>127.3</ele>
        <time>2019-08-18T07:06:53Z</time>
      </trkpt>
      <trkpt lat="42.8271120" lon="-8.6107010">
        <ele>127.6</ele>
        <time>2019-08-18T07:06:54Z</time>
      </trkpt>
      <trkpt lat="42.8271550" lon="-8.6106800">
        <ele>127.6</ele>
        <time>2019-08-18T07:06:55Z</time>
      </trkpt>
      <trkpt lat="42.8272300" lon="-8.6106120">
        <ele>127.6</ele>
        <time>2019-08-18T07:06:57Z</time>
      </trkpt>
      <trkpt lat="42.8272630" lon="-8.6105710">
        <ele>127.6</ele>
        <time>2019-08-18T07:06:58Z</time>
      </trkpt>
      <trkpt lat="42.8272930" lon="-8.6105280">
        <ele>127.6</ele>
        <time>2019-08-18T07:06:59Z</time>
      </trkpt>
      <trkpt lat="42.8273210" lon="-8.6104840">
        <ele>127.6</ele>
        <time>2019-08-18T07:07:00Z</time>
      </trkpt>
      <trkpt lat="42.8273620" lon="-8.6104490">
        <ele>127.5</ele>
        <time>2019-08-18T07:07:01Z</time>
      </trkpt>
      <trkpt lat="42.8275290" lon="-8.6103640">
        <ele>127.1</ele>
        <time>2019-08-18T07:07:05Z</time>
      </trkpt>
      <trkpt lat="42.8277080" lon="-8.6103230">
        <ele>126.8</ele>
        <time>2019-08-18T07:07:09Z</time>
      </trkpt>
      <trkpt lat="42.8278410" lon="-8.6102890">
        <ele>126.6</ele>
        <time>2019-08-18T07:07:12Z</time>
      </trkpt>
      <trkpt lat="42.8279780" lon="-8.6102160">
        <ele>126.5</ele>
        <time>2019-08-18T07:07:15Z</time>
      </trkpt>
      <trkpt lat="42.8280590" lon="-8.6101320">
        <ele>126.6</ele>
        <time>2019-08-18T07:07:17Z</time>
      </trkpt>
      <trkpt lat="42.8281330" lon="-8.6100270">
        <ele>126.7</ele>
        <time>2019-08-18T07:07:19Z</time>
      </trkpt>
      <trkpt lat="42.8281990" lon="-8.6099220">
        <ele>126.9</ele>
        <time>2019-08-18T07:07:21Z</time>
      </trkpt>
      <trkpt lat="42.8282260" lon="-8.6098700">
        <ele>126.9</ele>
        <time>2019-08-18T07:07:22Z</time>
      </trkpt>
      <trkpt lat="42.8282770" lon="-8.6096960">
        <ele>126.8</ele>
        <time>2019-08-18T07:07:26Z</time>
      </trkpt>
      <trkpt lat="42.8282890" lon="-8.6096460">
        <ele>126.8</ele>
        <time>2019-08-18T07:07:27Z</time>
      </trkpt>
      <trkpt lat="42.8283210" lon="-8.6093890">
        <ele>126.8</ele>
        <time>2019-08-18T07:07:32Z</time>
      </trkpt>
      <trkpt lat="42.8283010" lon="-8.6091880">
        <ele>126.8</ele>
        <time>2019-08-18T07:07:36Z</time>
      </trkpt>
      <trkpt lat="42.8282250" lon="-8.6088400">
        <ele>127.0</ele>
        <time>2019-08-18T07:07:43Z</time>
      </trkpt>
      <trkpt lat="42.8283060" lon="-8.6086030">
        <ele>127.6</ele>
        <time>2019-08-18T07:07:49Z</time>
      </trkpt>
      <trkpt lat="42.8284610" lon="-8.6084210">
        <ele>128.5</ele>
        <time>2019-08-18T07:07:55Z</time>
      </trkpt>
      <trkpt lat="42.8284850" lon="-8.6083900">
        <ele>128.7</ele>
        <time>2019-08-18T07:07:56Z</time>
      </trkpt>
      <trkpt lat="42.8285100" lon="-8.6083610">
        <ele>128.9</ele>
        <time>2019-08-18T07:07:57Z</time>
      </trkpt>
      <trkpt lat="42.8285380" lon="-8.6083350">
        <ele>129.1</ele>
        <time>2019-08-18T07:07:58Z</time>
      </trkpt>
      <trkpt lat="42.8285640" lon="-8.6083100">
        <ele>129.3</ele>
        <time>2019-08-18T07:07:59Z</time>
      </trkpt>
      <trkpt lat="42.8285960" lon="-8.6082840">
        <ele>129.6</ele>
        <time>2019-08-18T07:08:00Z</time>
      </trkpt>
      <trkpt lat="42.8287540" lon="-8.6081250">
        <ele>131.2</ele>
        <time>2019-08-18T07:08:06Z</time>
      </trkpt>
      <trkpt lat="42.8287630" lon="-8.6081000">
        <ele>131.4</ele>
        <time>2019-08-18T07:08:07Z</time>
      </trkpt>
      <trkpt lat="42.8287690" lon="-8.6080710">
        <ele>131.6</ele>
        <time>2019-08-18T07:08:08Z</time>
      </trkpt>
      <trkpt lat="42.8287810" lon="-8.6080380">
        <ele>131.9</ele>
        <time>2019-08-18T07:08:09Z</time>
      </trkpt>
      <trkpt lat="42.8287900" lon="-8.6080280">
        <ele>132.1</ele>
        <time>2019-08-18T07:08:10Z</time>
      </trkpt>
      <trkpt lat="42.8288050" lon="-8.6079180">
        <ele>133.1</ele>
        <time>2019-08-18T07:08:13Z</time>
      </trkpt>
      <trkpt lat="42.8288150" lon="-8.6078760">
        <ele>133.5</ele>
        <time>2019-08-18T07:08:14Z</time>
      </trkpt>
      <trkpt lat="42.8288200" lon="-8.6078320">
        <ele>133.9</ele>
        <time>2019-08-18T07:08:15Z</time>
      </trkpt>
      <trkpt lat="42.8288160" lon="-8.6077810">
        <ele>134.4</ele>
        <time>2019-08-18T07:08:16Z</time>
      </trkpt>
      <trkpt lat="42.8288080" lon="-8.6077360">
        <ele>134.8</ele>
        <time>2019-08-18T07:08:17Z</time>
      </trkpt>
      <trkpt lat="42.8288060" lon="-8.6076840">
        <ele>135.3</ele>
        <time>2019-08-18T07:08:18Z</time>
      </trkpt>
      <trkpt lat="42.8288050" lon="-8.6076340">
        <ele>135.8</ele>
        <time>2019-08-18T07:08:19Z</time>
      </trkpt>
      <trkpt lat="42.8288050" lon="-8.6075920">
        <ele>136.2</ele>
        <time>2019-08-18T07:08:20Z</time>
      </trkpt>
      <trkpt lat="42.8288050" lon="-8.6075520">
        <ele>136.5</ele>
        <time>2019-08-18T07:08:21Z</time>
      </trkpt>
      <trkpt lat="42.8288070" lon="-8.6075100">
        <ele>136.8</ele>
        <time>2019-08-18T07:08:22Z</time>
      </trkpt>
      <trkpt lat="42.8288240" lon="-8.6074120">
        <ele>137.5</ele>
        <time>2019-08-18T07:08:24Z</time>
      </trkpt>
      <trkpt lat="42.8288380" lon="-8.6073630">
        <ele>137.8</ele>
        <time>2019-08-18T07:08:25Z</time>
      </trkpt>
      <trkpt lat="42.8288530" lon="-8.6073110">
        <ele>138.1</ele>
        <time>2019-08-18T07:08:26Z</time>
      </trkpt>
      <trkpt lat="42.8288660" lon="-8.6072640">
        <ele>138.4</ele>
        <time>2019-08-18T07:08:27Z</time>
      </trkpt>
      <trkpt lat="42.8288760" lon="-8.6072220">
        <ele>138.5</ele>
        <time>2019-08-18T07:08:28Z</time>
      </trkpt>
      <trkpt lat="42.8288920" lon="-8.6070660">
        <ele>139.0</ele>
        <time>2019-08-18T07:08:33Z</time>
      </trkpt>
      <trkpt lat="42.8289060" lon="-8.6069370">
        <ele>139.3</ele>
        <time>2019-08-18T07:08:38Z</time>
      </trkpt>
      <trkpt lat="42.8289160" lon="-8.6069110">
        <ele>139.3</ele>
        <time>2019-08-18T07:08:39Z</time>
      </trkpt>
      <trkpt lat="42.8289260" lon="-8.6068830">
        <ele>139.4</ele>
        <time>2019-08-18T07:08:40Z</time>
      </trkpt>
      <trkpt lat="42.8289400" lon="-8.6068560">
        <ele>139.4</ele>
        <time>2019-08-18T07:08:41Z</time>
      </trkpt>
      <trkpt lat="42.8289510" lon="-8.6068330">
        <ele>139.5</ele>
        <time>2019-08-18T07:08:42Z</time>
      </trkpt>
      <trkpt lat="42.8290080" lon="-8.6066920">
        <ele>139.6</ele>
        <time>2019-08-18T07:08:47Z</time>
      </trkpt>
      <trkpt lat="42.8290260" lon="-8.6064440">
        <ele>139.2</ele>
        <time>2019-08-18T07:08:55Z</time>
      </trkpt>
      <trkpt lat="42.8290690" lon="-8.6062530">
        <ele>138.3</ele>
        <time>2019-08-18T07:09:00Z</time>
      </trkpt>
      <trkpt lat="42.8290890" lon="-8.6062290">
        <ele>138.1</ele>
        <time>2019-08-18T07:09:01Z</time>
      </trkpt>
      <trkpt lat="42.8291090" lon="-8.6062100">
        <ele>137.9</ele>
        <time>2019-08-18T07:09:02Z</time>
      </trkpt>
      <trkpt lat="42.8291260" lon="-8.6061910">
        <ele>137.7</ele>
        <time>2019-08-18T07:09:03Z</time>
      </trkpt>
      <trkpt lat="42.8291460" lon="-8.6061680">
        <ele>137.5</ele>
        <time>2019-08-18T07:09:04Z</time>
      </trkpt>
      <trkpt lat="42.8291970" lon="-8.6061120">
        <ele>137.1</ele>
        <time>2019-08-18T07:09:06Z</time>
      </trkpt>
      <trkpt lat="42.8292340" lon="-8.6060800">
        <ele>137.1</ele>
        <time>2019-08-18T07:09:07Z</time>
      </trkpt>
      <trkpt lat="42.8293160" lon="-8.6059930">
        <ele>137.2</ele>
        <time>2019-08-18T07:09:10Z</time>
      </trkpt>
      <trkpt lat="42.8295200" lon="-8.6057950">
        <ele>137.5</ele>
        <time>2019-08-18T07:09:19Z</time>
      </trkpt>
      <trkpt lat="42.8297010" lon="-8.6057090">
        <ele>137.6</ele>
        <time>2019-08-18T07:09:25Z</time>
      </trkpt>
      <trkpt lat="42.8299740" lon="-8.6056310">
        <ele>137.9</ele>
        <time>2019-08-18T07:09:33Z</time>
      </trkpt>
      <trkpt lat="42.8303100" lon="-8.6055560">
        <ele>138.7</ele>
        <time>2019-08-18T07:09:42Z</time>
      </trkpt>
      <trkpt lat="42.8306280" lon="-8.6054900">
        <ele>139.5</ele>
        <time>2019-08-18T07:09:51Z</time>
      </trkpt>
      <trkpt lat="42.8308290" lon="-8.6053950">
        <ele>140.3</ele>
        <time>2019-08-18T07:09:57Z</time>
      </trkpt>
      <trkpt lat="42.8310280" lon="-8.6052580">
        <ele>140.8</ele>
        <time>2019-08-18T07:10:03Z</time>
      </trkpt>
      <trkpt lat="42.8310610" lon="-8.6052410">
        <ele>140.9</ele>
        <time>2019-08-18T07:10:04Z</time>
      </trkpt>
      <trkpt lat="42.8310930" lon="-8.6052250">
        <ele>140.9</ele>
        <time>2019-08-18T07:10:05Z</time>
      </trkpt>
      <trkpt lat="42.8311230" lon="-8.6052080">
        <ele>141.0</ele>
        <time>2019-08-18T07:10:06Z</time>
      </trkpt>
      <trkpt lat="42.8311530" lon="-8.6051890">
        <ele>141.0</ele>
        <time>2019-08-18T07:10:07Z</time>
      </trkpt>
      <trkpt lat="42.8313510" lon="-8.6050600">
        <ele>141.7</ele>
        <time>2019-08-18T07:10:13Z</time>
      </trkpt>
      <trkpt lat="42.8314730" lon="-8.6049320">
        <ele>142.2</ele>
        <time>2019-08-18T07:10:18Z</time>
      </trkpt>
      <trkpt lat="42.8314910" lon="-8.6049000">
        <ele>142.3</ele>
        <time>2019-08-18T07:10:19Z</time>
      </trkpt>
      <trkpt lat="42.8315100" lon="-8.6048620">
        <ele>142.4</ele>
        <time>2019-08-18T07:10:20Z</time>
      </trkpt>
      <trkpt lat="42.8315280" lon="-8.6048250">
        <ele>142.5</ele>
        <time>2019-08-18T07:10:21Z</time>
      </trkpt>
      <trkpt lat="42.8315440" lon="-8.6047900">
        <ele>142.6</ele>
        <time>2019-08-18T07:10:22Z</time>
      </trkpt>
      <trkpt lat="42.8315670" lon="-8.6047530">
        <ele>142.8</ele>
        <time>2019-08-18T07:10:23Z</time>
      </trkpt>
      <trkpt lat="42.8316180" lon="-8.6046370">
        <ele>143.2</ele>
        <time>2019-08-18T07:10:26Z</time>
      </trkpt>
      <trkpt lat="42.8317180" lon="-8.6044190">
        <ele>143.9</ele>
        <time>2019-08-18T07:10:33Z</time>
      </trkpt>
      <trkpt lat="42.8318330" lon="-8.6041880">
        <ele>144.6</ele>
        <time>2019-08-18T07:10:40Z</time>
      </trkpt>
      <trkpt lat="42.8318410" lon="-8.6041320">
        <ele>144.7</ele>
        <time>2019-08-18T07:10:42Z</time>
      </trkpt>
      <trkpt lat="42.8318550" lon="-8.6040970">
        <ele>144.8</ele>
        <time>2019-08-18T07:10:43Z</time>
      </trkpt>
      <trkpt lat="42.8319100" lon="-8.6040240">
        <ele>145.1</ele>
        <time>2019-08-18T07:10:44Z</time>
      </trkpt>
      <trkpt lat="42.8319330" lon="-8.6039930">
        <ele>145.2</ele>
        <time>2019-08-18T07:10:45Z</time>
      </trkpt>
      <trkpt lat="42.8319550" lon="-8.6039640">
        <ele>145.3</ele>
        <time>2019-08-18T07:10:46Z</time>
      </trkpt>
      <trkpt lat="42.8320840" lon="-8.6038120">
        <ele>146.0</ele>
        <time>2019-08-18T07:10:52Z</time>
      </trkpt>
      <trkpt lat="42.8321270" lon="-8.6037770">
        <ele>146.3</ele>
        <time>2019-08-18T07:10:53Z</time>
      </trkpt>
      <trkpt lat="42.8321520" lon="-8.6037460">
        <ele>146.5</ele>
        <time>2019-08-18T07:10:54Z</time>
      </trkpt>
      <trkpt lat="42.8321670" lon="-8.6037150">
        <ele>146.7</ele>
        <time>2019-08-18T07:10:55Z</time>
      </trkpt>
      <trkpt lat="42.8321820" lon="-8.6036820">
        <ele>146.9</ele>
        <time>2019-08-18T07:10:56Z</time>
      </trkpt>
      <trkpt lat="42.8321920" lon="-8.6036490">
        <ele>147.1</ele>
        <time>2019-08-18T07:10:57Z</time>
      </trkpt>
      <trkpt lat="42.8322820" lon="-8.6034630">
        <ele>148.3</ele>
        <time>2019-08-18T07:11:02Z</time>
      </trkpt>
      <trkpt lat="42.8323500" lon="-8.6033380">
        <ele>149.2</ele>
        <time>2019-08-18T07:11:06Z</time>
      </trkpt>
      <trkpt lat="42.8323640" lon="-8.6033070">
        <ele>149.3</ele>
        <time>2019-08-18T07:11:07Z</time>
      </trkpt>
      <trkpt lat="42.8323800" lon="-8.6032770">
        <ele>149.5</ele>
        <time>2019-08-18T07:11:08Z</time>
      </trkpt>
      <trkpt lat="42.8324010" lon="-8.6032490">
        <ele>149.7</ele>
        <time>2019-08-18T07:11:09Z</time>
      </trkpt>
      <trkpt lat="42.8324390" lon="-8.6032090">
        <ele>150.1</ele>
        <time>2019-08-18T07:11:10Z</time>
      </trkpt>
      <trkpt lat="42.8326640" lon="-8.6028520">
        <ele>151.8</ele>
        <time>2019-08-18T07:11:16Z</time>
      </trkpt>
      <trkpt lat="42.8326740" lon="-8.6028340">
        <ele>151.9</ele>
        <time>2019-08-18T07:11:17Z</time>
      </trkpt>
      <trkpt lat="42.8326910" lon="-8.6028170">
        <ele>152.0</ele>
        <time>2019-08-18T07:11:18Z</time>
      </trkpt>
      <trkpt lat="42.8327160" lon="-8.6027830">
        <ele>152.1</ele>
        <time>2019-08-18T07:11:19Z</time>
      </trkpt>
      <trkpt lat="42.8327380" lon="-8.6027560">
        <ele>152.3</ele>
        <time>2019-08-18T07:11:20Z</time>
      </trkpt>
      <trkpt lat="42.8327910" lon="-8.6026750">
        <ele>153.0</ele>
        <time>2019-08-18T07:11:22Z</time>
      </trkpt>
      <trkpt lat="42.8328680" lon="-8.6025260">
        <ele>154.4</ele>
        <time>2019-08-18T07:11:26Z</time>
      </trkpt>
      <trkpt lat="42.8328820" lon="-8.6024950">
        <ele>154.7</ele>
        <time>2019-08-18T07:11:27Z</time>
      </trkpt>
      <trkpt lat="42.8328930" lon="-8.6024660">
        <ele>155.0</ele>
        <time>2019-08-18T07:11:28Z</time>
      </trkpt>
      <trkpt lat="42.8328970" lon="-8.6024400">
        <ele>155.2</ele>
        <time>2019-08-18T07:11:29Z</time>
      </trkpt>
      <trkpt lat="42.8329150" lon="-8.6024030">
        <ele>155.6</ele>
        <time>2019-08-18T07:11:30Z</time>
      </trkpt>
      <trkpt lat="42.8329680" lon="-8.6022760">
        <ele>156.7</ele>
        <time>2019-08-18T07:11:33Z</time>
      </trkpt>
      <trkpt lat="42.8329840" lon="-8.6022400">
        <ele>157.0</ele>
        <time>2019-08-18T07:11:34Z</time>
      </trkpt>
      <trkpt lat="42.8329960" lon="-8.6022020">
        <ele>157.3</ele>
        <time>2019-08-18T07:11:35Z</time>
      </trkpt>
      <trkpt lat="42.8330060" lon="-8.6021690">
        <ele>157.5</ele>
        <time>2019-08-18T07:11:36Z</time>
      </trkpt>
      <trkpt lat="42.8330120" lon="-8.6021410">
        <ele>157.7</ele>
        <time>2019-08-18T07:11:37Z</time>
      </trkpt>
      <trkpt lat="42.8330140" lon="-8.6021080">
        <ele>157.9</ele>
        <time>2019-08-18T07:11:38Z</time>
      </trkpt>
      <trkpt lat="42.8330410" lon="-8.6020110">
        <ele>158.5</ele>
        <time>2019-08-18T07:11:40Z</time>
      </trkpt>
      <trkpt lat="42.8330510" lon="-8.6019570">
        <ele>158.8</ele>
        <time>2019-08-18T07:11:41Z</time>
      </trkpt>
      <trkpt lat="42.8330630" lon="-8.6019040">
        <ele>159.1</ele>
        <time>2019-08-18T07:11:42Z</time>
      </trkpt>
      <trkpt lat="42.8331020" lon="-8.6018260">
        <ele>159.5</ele>
        <time>2019-08-18T07:11:43Z</time>
      </trkpt>
      <trkpt lat="42.8331150" lon="-8.6017760">
        <ele>159.7</ele>
        <time>2019-08-18T07:11:44Z</time>
      </trkpt>
      <trkpt lat="42.8331160" lon="-8.6017430">
        <ele>159.9</ele>
        <time>2019-08-18T07:11:45Z</time>
      </trkpt>
      <trkpt lat="42.8331770" lon="-8.6015740">
        <ele>160.8</ele>
        <time>2019-08-18T07:11:49Z</time>
      </trkpt>
      <trkpt lat="42.8332050" lon="-8.6015250">
        <ele>161.1</ele>
        <time>2019-08-18T07:11:51Z</time>
      </trkpt>
      <trkpt lat="42.8332160" lon="-8.6015020">
        <ele>161.2</ele>
        <time>2019-08-18T07:11:52Z</time>
      </trkpt>
      <trkpt lat="42.8332300" lon="-8.6014740">
        <ele>161.4</ele>
        <time>2019-08-18T07:11:53Z</time>
      </trkpt>
      <trkpt lat="42.8332580" lon="-8.6014280">
        <ele>161.7</ele>
        <time>2019-08-18T07:11:54Z</time>
      </trkpt>
      <trkpt lat="42.8332820" lon="-8.6013920">
        <ele>161.9</ele>
        <time>2019-08-18T07:11:55Z</time>
      </trkpt>
      <trkpt lat="42.8333050" lon="-8.6013670">
        <ele>162.1</ele>
        <time>2019-08-18T07:11:56Z</time>
      </trkpt>
      <trkpt lat="42.8333400" lon="-8.6013200">
        <ele>162.5</ele>
        <time>2019-08-18T07:11:58Z</time>
      </trkpt>
      <trkpt lat="42.8333630" lon="-8.6012940">
        <ele>162.7</ele>
        <time>2019-08-18T07:11:59Z</time>
      </trkpt>
      <trkpt lat="42.8333810" lon="-8.6012710">
        <ele>162.8</ele>
        <time>2019-08-18T07:12:00Z</time>
      </trkpt>
      <trkpt lat="42.8333990" lon="-8.6012510">
        <ele>162.9</ele>
        <time>2019-08-18T07:12:01Z</time>
      </trkpt>
      <trkpt lat="42.8334280" lon="-8.6012370">
        <ele>163.1</ele>
        <time>2019-08-18T07:12:02Z</time>
      </trkpt>
      <trkpt lat="42.8334630" lon="-8.6012030">
        <ele>163.4</ele>
        <time>2019-08-18T07:12:04Z</time>
      </trkpt>
      <trkpt lat="42.8335590" lon="-8.6010560">
        <ele>164.0</ele>
        <time>2019-08-18T07:12:12Z</time>
      </trkpt>
      <trkpt lat="42.8336080" lon="-8.6010080">
        <ele>164.1</ele>
        <time>2019-08-18T07:12:15Z</time>
      </trkpt>
      <trkpt lat="42.8336760" lon="-8.6009850">
        <ele>164.2</ele>
        <time>2019-08-18T07:12:18Z</time>
      </trkpt>
      <trkpt lat="42.8338140" lon="-8.6008970">
        <ele>164.4</ele>
        <time>2019-08-18T07:12:25Z</time>
      </trkpt>
      <trkpt lat="42.8340260" lon="-8.6007770">
        <ele>165.0</ele>
        <time>2019-08-18T07:12:36Z</time>
      </trkpt>
      <trkpt lat="42.8340590" lon="-8.6007640">
        <ele>165.1</ele>
        <time>2019-08-18T07:12:38Z</time>
      </trkpt>
      <trkpt lat="42.8340770" lon="-8.6007520">
        <ele>165.1</ele>
        <time>2019-08-18T07:12:39Z</time>
      </trkpt>
      <trkpt lat="42.8340980" lon="-8.6007320">
        <ele>165.1</ele>
        <time>2019-08-18T07:12:40Z</time>
      </trkpt>
      <trkpt lat="42.8341150" lon="-8.6007090">
        <ele>165.2</ele>
        <time>2019-08-18T07:12:41Z</time>
      </trkpt>
      <trkpt lat="42.8341370" lon="-8.6006830">
        <ele>165.2</ele>
        <time>2019-08-18T07:12:42Z</time>
      </trkpt>
      <trkpt lat="42.8341610" lon="-8.6006580">
        <ele>165.3</ele>
        <time>2019-08-18T07:12:43Z</time>
      </trkpt>
      <trkpt lat="42.8343130" lon="-8.6005050">
        <ele>165.4</ele>
        <time>2019-08-18T07:12:50Z</time>
      </trkpt>
      <trkpt lat="42.8344190" lon="-8.6003570">
        <ele>165.5</ele>
        <time>2019-08-18T07:12:56Z</time>
      </trkpt>
      <trkpt lat="42.8345630" lon="-8.6002160">
        <ele>165.7</ele>
        <time>2019-08-18T07:13:03Z</time>
      </trkpt>
      <trkpt lat="42.8346870" lon="-8.6001190">
        <ele>165.7</ele>
        <time>2019-08-18T07:13:08Z</time>
      </trkpt>
      <trkpt lat="42.8348880" lon="-8.5999000">
        <ele>166.1</ele>
        <time>2019-08-18T07:13:17Z</time>
      </trkpt>
      <trkpt lat="42.8351650" lon="-8.5996760">
        <ele>166.9</ele>
        <time>2019-08-18T07:13:29Z</time>
      </trkpt>
      <trkpt lat="42.8352690" lon="-8.5995670">
        <ele>167.3</ele>
        <time>2019-08-18T07:13:35Z</time>
      </trkpt>
      <trkpt lat="42.8352950" lon="-8.5995240">
        <ele>167.5</ele>
        <time>2019-08-18T07:13:37Z</time>
      </trkpt>
      <trkpt lat="42.8353120" lon="-8.5994980">
        <ele>167.6</ele>
        <time>2019-08-18T07:13:38Z</time>
      </trkpt>
      <trkpt lat="42.8353300" lon="-8.5994690">
        <ele>167.7</ele>
        <time>2019-08-18T07:13:39Z</time>
      </trkpt>
      <trkpt lat="42.8353490" lon="-8.5994420">
        <ele>167.9</ele>
        <time>2019-08-18T07:13:40Z</time>
      </trkpt>
      <trkpt lat="42.8353690" lon="-8.5994140">
        <ele>168.0</ele>
        <time>2019-08-18T07:13:41Z</time>
      </trkpt>
      <trkpt lat="42.8353910" lon="-8.5993850">
        <ele>168.1</ele>
        <time>2019-08-18T07:13:42Z</time>
      </trkpt>
      <trkpt lat="42.8354590" lon="-8.5992890">
        <ele>168.5</ele>
        <time>2019-08-18T07:13:46Z</time>
      </trkpt>
      <trkpt lat="42.8354720" lon="-8.5992570">
        <ele>168.6</ele>
        <time>2019-08-18T07:13:47Z</time>
      </trkpt>
      <trkpt lat="42.8354810" lon="-8.5992300">
        <ele>168.7</ele>
        <time>2019-08-18T07:13:48Z</time>
      </trkpt>
      <trkpt lat="42.8355090" lon="-8.5992240">
        <ele>169.0</ele>
        <time>2019-08-18T07:13:49Z</time>
      </trkpt>
      <trkpt lat="42.8355230" lon="-8.5992120">
        <ele>169.1</ele>
        <time>2019-08-18T07:13:50Z</time>
      </trkpt>
      <trkpt lat="42.8356320" lon="-8.5990870">
        <ele>170.3</ele>
        <time>2019-08-18T07:13:56Z</time>
      </trkpt>
      <trkpt lat="42.8356630" lon="-8.5990070">
        <ele>170.8</ele>
        <time>2019-08-18T07:13:59Z</time>
      </trkpt>
      <trkpt lat="42.8356700" lon="-8.5989820">
        <ele>170.9</ele>
        <time>2019-08-18T07:14:00Z</time>
      </trkpt>
      <trkpt lat="42.8356790" lon="-8.5989540">
        <ele>171.1</ele>
        <time>2019-08-18T07:14:01Z</time>
      </trkpt>
      <trkpt lat="42.8356850" lon="-8.5989270">
        <ele>171.3</ele>
        <time>2019-08-18T07:14:02Z</time>
      </trkpt>
      <trkpt lat="42.8356870" lon="-8.5988960">
        <ele>171.5</ele>
        <time>2019-08-18T07:14:03Z</time>
      </trkpt>
      <trkpt lat="42.8357340" lon="-8.5986410">
        <ele>172.9</ele>
        <time>2019-08-18T07:14:11Z</time>
      </trkpt>
      <trkpt lat="42.8357640" lon="-8.5985190">
        <ele>173.4</ele>
        <time>2019-08-18T07:14:15Z</time>
      </trkpt>
      <trkpt lat="42.8357780" lon="-8.5984960">
        <ele>173.5</ele>
        <time>2019-08-18T07:14:16Z</time>
      </trkpt>
      <trkpt lat="42.8357910" lon="-8.5984710">
        <ele>173.7</ele>
        <time>2019-08-18T07:14:17Z</time>
      </trkpt>
      <trkpt lat="42.8358040" lon="-8.5984460">
        <ele>173.8</ele>
        <time>2019-08-18T07:14:18Z</time>
      </trkpt>
      <trkpt lat="42.8358110" lon="-8.5984220">
        <ele>174.0</ele>
        <time>2019-08-18T07:14:19Z</time>
      </trkpt>
      <trkpt lat="42.8359810" lon="-8.5982100">
        <ele>175.0</ele>
        <time>2019-08-18T07:14:29Z</time>
      </trkpt>
      <trkpt lat="42.8360780" lon="-8.5980590">
        <ele>175.5</ele>
        <time>2019-08-18T07:14:33Z</time>
      </trkpt>
      <trkpt lat="42.8361910" lon="-8.5978360">
        <ele>176.0</ele>
        <time>2019-08-18T07:14:39Z</time>
      </trkpt>
      <trkpt lat="42.8362880" lon="-8.5976060">
        <ele>176.5</ele>
        <time>2019-08-18T07:14:45Z</time>
      </trkpt>
      <trkpt lat="42.8363580" lon="-8.5973280">
        <ele>177.0</ele>
        <time>2019-08-18T07:14:52Z</time>
      </trkpt>
      <trkpt lat="42.8364160" lon="-8.5970480">
        <ele>177.5</ele>
        <time>2019-08-18T07:14:59Z</time>
      </trkpt>
      <trkpt lat="42.8364410" lon="-8.5968410">
        <ele>177.8</ele>
        <time>2019-08-18T07:15:04Z</time>
      </trkpt>
      <trkpt lat="42.8364760" lon="-8.5964790">
        <ele>178.4</ele>
        <time>2019-08-18T07:15:11Z</time>
      </trkpt>
      <trkpt lat="42.8364870" lon="-8.5962920">
        <ele>178.8</ele>
        <time>2019-08-18T07:15:16Z</time>
      </trkpt>
      <trkpt lat="42.8365040" lon="-8.5962000">
        <ele>179.1</ele>
        <time>2019-08-18T07:15:22Z</time>
      </trkpt>
      <trkpt lat="42.8365040" lon="-8.5961940">
        <ele>179.1</ele>
        <time>2019-08-18T07:15:24Z</time>
      </trkpt>
      <trkpt lat="42.8364970" lon="-8.5961700">
        <ele>179.1</ele>
        <time>2019-08-18T07:15:28Z</time>
      </trkpt>
      <trkpt lat="42.8364980" lon="-8.5961480">
        <ele>179.2</ele>
        <time>2019-08-18T07:15:29Z</time>
      </trkpt>
      <trkpt lat="42.8365180" lon="-8.5958750">
        <ele>179.9</ele>
        <time>2019-08-18T07:15:38Z</time>
      </trkpt>
      <trkpt lat="42.8365420" lon="-8.5956030">
        <ele>181.0</ele>
        <time>2019-08-18T07:15:44Z</time>
      </trkpt>
      <trkpt lat="42.8365450" lon="-8.5955470">
        <ele>181.2</ele>
        <time>2019-08-18T07:15:45Z</time>
      </trkpt>
      <trkpt lat="42.8365430" lon="-8.5955020">
        <ele>181.4</ele>
        <time>2019-08-18T07:15:46Z</time>
      </trkpt>
      <trkpt lat="42.8365320" lon="-8.5954630">
        <ele>181.6</ele>
        <time>2019-08-18T07:15:47Z</time>
      </trkpt>
      <trkpt lat="42.8365190" lon="-8.5954250">
        <ele>181.8</ele>
        <time>2019-08-18T07:15:48Z</time>
      </trkpt>
      <trkpt lat="42.8364460" lon="-8.5952390">
        <ele>183.1</ele>
        <time>2019-08-18T07:15:53Z</time>
      </trkpt>
      <trkpt lat="42.8364410" lon="-8.5951910">
        <ele>183.4</ele>
        <time>2019-08-18T07:15:54Z</time>
      </trkpt>
      <trkpt lat="42.8364340" lon="-8.5951480">
        <ele>183.8</ele>
        <time>2019-08-18T07:15:55Z</time>
      </trkpt>
      <trkpt lat="42.8364290" lon="-8.5951120">
        <ele>184.2</ele>
        <time>2019-08-18T07:15:56Z</time>
      </trkpt>
      <trkpt lat="42.8364200" lon="-8.5950740">
        <ele>184.5</ele>
        <time>2019-08-18T07:15:57Z</time>
      </trkpt>
      <trkpt lat="42.8364170" lon="-8.5949920">
        <ele>185.1</ele>
        <time>2019-08-18T07:15:59Z</time>
      </trkpt>
      <trkpt lat="42.8364160" lon="-8.5949600">
        <ele>185.4</ele>
        <time>2019-08-18T07:16:00Z</time>
      </trkpt>
      <trkpt lat="42.8364120" lon="-8.5949310">
        <ele>185.6</ele>
        <time>2019-08-18T07:16:01Z</time>
      </trkpt>
      <trkpt lat="42.8364090" lon="-8.5949050">
        <ele>185.8</ele>
        <time>2019-08-18T07:16:02Z</time>
      </trkpt>
      <trkpt lat="42.8364100" lon="-8.5948800">
        <ele>186.0</ele>
        <time>2019-08-18T07:16:03Z</time>
      </trkpt>
      <trkpt lat="42.8363750" lon="-8.5946660">
        <ele>187.8</ele>
        <time>2019-08-18T07:16:09Z</time>
      </trkpt>
      <trkpt lat="42.8363700" lon="-8.5945540">
        <ele>188.8</ele>
        <time>2019-08-18T07:16:12Z</time>
      </trkpt>
      <trkpt lat="42.8363680" lon="-8.5945160">
        <ele>189.1</ele>
        <time>2019-08-18T07:16:13Z</time>
      </trkpt>
      <trkpt lat="42.8363670" lon="-8.5944830">
        <ele>189.3</ele>
        <time>2019-08-18T07:16:14Z</time>
      </trkpt>
      <trkpt lat="42.8363690" lon="-8.5944450">
        <ele>189.6</ele>
        <time>2019-08-18T07:16:15Z</time>
      </trkpt>
      <trkpt lat="42.8363690" lon="-8.5944130">
        <ele>189.8</ele>
        <time>2019-08-18T07:16:16Z</time>
      </trkpt>
      <trkpt lat="42.8363680" lon="-8.5943680">
        <ele>190.2</ele>
        <time>2019-08-18T07:16:18Z</time>
      </trkpt>
      <trkpt lat="42.8363880" lon="-8.5942120">
        <ele>191.6</ele>
        <time>2019-08-18T07:16:22Z</time>
      </trkpt>
      <trkpt lat="42.8363940" lon="-8.5941720">
        <ele>191.8</ele>
        <time>2019-08-18T07:16:23Z</time>
      </trkpt>
      <trkpt lat="42.8364030" lon="-8.5941360">
        <ele>192.1</ele>
        <time>2019-08-18T07:16:24Z</time>
      </trkpt>
      <trkpt lat="42.8364110" lon="-8.5940970">
        <ele>192.5</ele>
        <time>2019-08-18T07:16:25Z</time>
      </trkpt>
      <trkpt lat="42.8364180" lon="-8.5940550">
        <ele>193.0</ele>
        <time>2019-08-18T07:16:26Z</time>
      </trkpt>
      <trkpt lat="42.8364320" lon="-8.5939600">
        <ele>194.1</ele>
        <time>2019-08-18T07:16:30Z</time>
      </trkpt>
      <trkpt lat="42.8364380" lon="-8.5939240">
        <ele>194.6</ele>
        <time>2019-08-18T07:16:31Z</time>
      </trkpt>
      <trkpt lat="42.8364440" lon="-8.5938910">
        <ele>195.0</ele>
        <time>2019-08-18T07:16:32Z</time>
      </trkpt>
      <trkpt lat="42.8364460" lon="-8.5938590">
        <ele>195.3</ele>
        <time>2019-08-18T07:16:33Z</time>
      </trkpt>
      <trkpt lat="42.8364440" lon="-8.5938240">
        <ele>195.6</ele>
        <time>2019-08-18T07:16:34Z</time>
      </trkpt>
      <trkpt lat="42.8364360" lon="-8.5937900">
        <ele>196.0</ele>
        <time>2019-08-18T07:16:35Z</time>
      </trkpt>
      <trkpt lat="42.8364310" lon="-8.5937600">
        <ele>196.3</ele>
        <time>2019-08-18T07:16:36Z</time>
      </trkpt>
      <trkpt lat="42.8364220" lon="-8.5937290">
        <ele>196.7</ele>
        <time>2019-08-18T07:16:37Z</time>
      </trkpt>
      <trkpt lat="42.8364150" lon="-8.5937050">
        <ele>197.0</ele>
        <time>2019-08-18T07:16:38Z</time>
      </trkpt>
      <trkpt lat="42.8364060" lon="-8.5936770">
        <ele>197.4</ele>
        <time>2019-08-18T07:16:39Z</time>
      </trkpt>
      <trkpt lat="42.8363980" lon="-8.5936450">
        <ele>197.9</ele>
        <time>2019-08-18T07:16:40Z</time>
      </trkpt>
      <trkpt lat="42.8364030" lon="-8.5934660">
        <ele>199.8</ele>
        <time>2019-08-18T07:16:45Z</time>
      </trkpt>
      <trkpt lat="42.8364100" lon="-8.5934330">
        <ele>200.1</ele>
        <time>2019-08-18T07:16:46Z</time>
      </trkpt>
      <trkpt lat="42.8364180" lon="-8.5934070">
        <ele>200.4</ele>
        <time>2019-08-18T07:16:47Z</time>
      </trkpt>
      <trkpt lat="42.8364290" lon="-8.5933840">
        <ele>200.6</ele>
        <time>2019-08-18T07:16:48Z</time>
      </trkpt>
      <trkpt lat="42.8364460" lon="-8.5933680">
        <ele>200.8</ele>
        <time>2019-08-18T07:16:49Z</time>
      </trkpt>
      <trkpt lat="42.8364840" lon="-8.5933520">
        <ele>201.0</ele>
        <time>2019-08-18T07:16:52Z</time>
      </trkpt>
      <trkpt lat="42.8365670" lon="-8.5933220">
        <ele>201.6</ele>
        <time>2019-08-18T07:16:58Z</time>
      </trkpt>
      <trkpt lat="42.8365830" lon="-8.5933190">
        <ele>201.7</ele>
        <time>2019-08-18T07:16:59Z</time>
      </trkpt>
      <trkpt lat="42.8365940" lon="-8.5933150">
        <ele>201.7</ele>
        <time>2019-08-18T07:17:00Z</time>
      </trkpt>
      <trkpt lat="42.8366020" lon="-8.5933170">
        <ele>201.8</ele>
        <time>2019-08-18T07:17:01Z</time>
      </trkpt>
      <trkpt lat="42.8366110" lon="-8.5933190">
        <ele>201.9</ele>
        <time>2019-08-18T07:17:02Z</time>
      </trkpt>
      <trkpt lat="42.8366530" lon="-8.5933380">
        <ele>202.2</ele>
        <time>2019-08-18T07:17:06Z</time>
      </trkpt>
      <trkpt lat="42.8366610" lon="-8.5933540">
        <ele>202.3</ele>
        <time>2019-08-18T07:17:07Z</time>
      </trkpt>
      <trkpt lat="42.8366750" lon="-8.5933590">
        <ele>202.4</ele>
        <time>2019-08-18T07:17:08Z</time>
      </trkpt>
      <trkpt lat="42.8366880" lon="-8.5933530">
        <ele>202.5</ele>
        <time>2019-08-18T07:17:09Z</time>
      </trkpt>
      <trkpt lat="42.8367030" lon="-8.5933430">
        <ele>202.6</ele>
        <time>2019-08-18T07:17:10Z</time>
      </trkpt>
      <trkpt lat="42.8367160" lon="-8.5933410">
        <ele>202.6</ele>
        <time>2019-08-18T07:17:11Z</time>
      </trkpt>
      <trkpt lat="42.8367650" lon="-8.5933430">
        <ele>202.9</ele>
        <time>2019-08-18T07:17:14Z</time>
      </trkpt>
      <trkpt lat="42.8368350" lon="-8.5933670">
        <ele>203.3</ele>
        <time>2019-08-18T07:17:18Z</time>
      </trkpt>
      <trkpt lat="42.8368590" lon="-8.5933650">
        <ele>203.4</ele>
        <time>2019-08-18T07:17:19Z</time>
      </trkpt>
      <trkpt lat="42.8368790" lon="-8.5933600">
        <ele>203.6</ele>
        <time>2019-08-18T07:17:20Z</time>
      </trkpt>
      <trkpt lat="42.8369020" lon="-8.5933500">
        <ele>203.7</ele>
        <time>2019-08-18T07:17:21Z</time>
      </trkpt>
      <trkpt lat="42.8369270" lon="-8.5933360">
        <ele>203.9</ele>
        <time>2019-08-18T07:17:22Z</time>
      </trkpt>
      <trkpt lat="42.8370520" lon="-8.5932950">
        <ele>204.6</ele>
        <time>2019-08-18T07:17:28Z</time>
      </trkpt>
      <trkpt lat="42.8370660" lon="-8.5933000">
        <ele>204.6</ele>
        <time>2019-08-18T07:17:29Z</time>
      </trkpt>
      <trkpt lat="42.8370860" lon="-8.5932960">
        <ele>204.7</ele>
        <time>2019-08-18T07:17:30Z</time>
      </trkpt>
      <trkpt lat="42.8371050" lon="-8.5932890">
        <ele>204.7</ele>
        <time>2019-08-18T07:17:31Z</time>
      </trkpt>
      <trkpt lat="42.8371250" lon="-8.5932890">
        <ele>204.8</ele>
        <time>2019-08-18T07:17:32Z</time>
      </trkpt>
      <trkpt lat="42.8371630" lon="-8.5932810">
        <ele>204.9</ele>
        <time>2019-08-18T07:17:34Z</time>
      </trkpt>
      <trkpt lat="42.8371860" lon="-8.5932770">
        <ele>205.0</ele>
        <time>2019-08-18T07:17:35Z</time>
      </trkpt>
      <trkpt lat="42.8372040" lon="-8.5932750">
        <ele>205.1</ele>
        <time>2019-08-18T07:17:36Z</time>
      </trkpt>
      <trkpt lat="42.8372220" lon="-8.5932740">
        <ele>205.1</ele>
        <time>2019-08-18T07:17:37Z</time>
      </trkpt>
      <trkpt lat="42.8372440" lon="-8.5932700">
        <ele>205.2</ele>
        <time>2019-08-18T07:17:38Z</time>
      </trkpt>
      <trkpt lat="42.8372640" lon="-8.5932640">
        <ele>205.2</ele>
        <time>2019-08-18T07:17:39Z</time>
      </trkpt>
      <trkpt lat="42.8373120" lon="-8.5932510">
        <ele>205.4</ele>
        <time>2019-08-18T07:17:42Z</time>
      </trkpt>
      <trkpt lat="42.8373380" lon="-8.5932500">
        <ele>205.5</ele>
        <time>2019-08-18T07:17:46Z</time>
      </trkpt>
      <trkpt lat="42.8373450" lon="-8.5932310">
        <ele>205.5</ele>
        <time>2019-08-18T07:18:05Z</time>
      </trkpt>
      <trkpt lat="42.8373570" lon="-8.5932300">
        <ele>205.5</ele>
        <time>2019-08-18T07:18:06Z</time>
      </trkpt>
      <trkpt lat="42.8374950" lon="-8.5932450">
        <ele>206.0</ele>
        <time>2019-08-18T07:18:14Z</time>
      </trkpt>
      <trkpt lat="42.8375800" lon="-8.5932390">
        <ele>206.2</ele>
        <time>2019-08-18T07:18:22Z</time>
      </trkpt>
      <trkpt lat="42.8375860" lon="-8.5932410">
        <ele>206.2</ele>
        <time>2019-08-18T07:18:23Z</time>
      </trkpt>
      <trkpt lat="42.8375880" lon="-8.5932430">
        <ele>206.2</ele>
        <time>2019-08-18T07:18:24Z</time>
      </trkpt>
      <trkpt lat="42.8376300" lon="-8.5932450">
        <ele>206.3</ele>
        <time>2019-08-18T07:18:35Z</time>
      </trkpt>
      <trkpt lat="42.8376880" lon="-8.5932460">
        <ele>206.4</ele>
        <time>2019-08-18T07:18:37Z</time>
      </trkpt>
      <trkpt lat="42.8378130" lon="-8.5932130">
        <ele>206.6</ele>
        <time>2019-08-18T07:18:43Z</time>
      </trkpt>
      <trkpt lat="42.8379890" lon="-8.5932050">
        <ele>207.0</ele>
        <time>2019-08-18T07:18:51Z</time>
      </trkpt>
      <trkpt lat="42.8381820" lon="-8.5931790">
        <ele>207.4</ele>
        <time>2019-08-18T07:19:00Z</time>
      </trkpt>
      <trkpt lat="42.8383800" lon="-8.5931830">
        <ele>207.8</ele>
        <time>2019-08-18T07:19:09Z</time>
      </trkpt>
      <trkpt lat="42.8384170" lon="-8.5932810">
        <ele>208.7</ele>
        <time>2019-08-18T07:19:13Z</time>
      </trkpt>
      <trkpt lat="42.8384110" lon="-8.5933160">
        <ele>209.0</ele>
        <time>2019-08-18T07:19:14Z</time>
      </trkpt>
      <trkpt lat="42.8384050" lon="-8.5934230">
        <ele>209.6</ele>
        <time>2019-08-18T07:19:17Z</time>
      </trkpt>
      <trkpt lat="42.8384020" lon="-8.5934510">
        <ele>209.8</ele>
        <time>2019-08-18T07:19:18Z</time>
      </trkpt>
      <trkpt lat="42.8383950" lon="-8.5934760">
        <ele>210.0</ele>
        <time>2019-08-18T07:19:19Z</time>
      </trkpt>
      <trkpt lat="42.8383880" lon="-8.5934980">
        <ele>210.2</ele>
        <time>2019-08-18T07:19:20Z</time>
      </trkpt>
      <trkpt lat="42.8383830" lon="-8.5935210">
        <ele>210.4</ele>
        <time>2019-08-18T07:19:21Z</time>
      </trkpt>
      <trkpt lat="42.8383540" lon="-8.5936780">
        <ele>211.6</ele>
        <time>2019-08-18T07:19:27Z</time>
      </trkpt>
      <trkpt lat="42.8382800" lon="-8.5939490">
        <ele>213.1</ele>
        <time>2019-08-18T07:19:36Z</time>
      </trkpt>
      <trkpt lat="42.8382210" lon="-8.5941070">
        <ele>214.3</ele>
        <time>2019-08-18T07:19:43Z</time>
      </trkpt>
      <trkpt lat="42.8381410" lon="-8.5943940">
        <ele>216.6</ele>
        <time>2019-08-18T07:19:52Z</time>
      </trkpt>
      <trkpt lat="42.8382260" lon="-8.5944120">
        <ele>217.3</ele>
        <time>2019-08-18T07:19:56Z</time>
      </trkpt>
      <trkpt lat="42.8382900" lon="-8.5943380">
        <ele>217.0</ele>
        <time>2019-08-18T07:19:59Z</time>
      </trkpt>
      <trkpt lat="42.8383220" lon="-8.5942960">
        <ele>216.6</ele>
        <time>2019-08-18T07:20:01Z</time>
      </trkpt>
      <trkpt lat="42.8383640" lon="-8.5942340">
        <ele>216.4</ele>
        <time>2019-08-18T07:20:04Z</time>
      </trkpt>
      <trkpt lat="42.8383820" lon="-8.5942160">
        <ele>216.3</ele>
        <time>2019-08-18T07:20:05Z</time>
      </trkpt>
      <trkpt lat="42.8383990" lon="-8.5941970">
        <ele>216.1</ele>
        <time>2019-08-18T07:20:06Z</time>
      </trkpt>
      <trkpt lat="42.8384150" lon="-8.5941770">
        <ele>216.0</ele>
        <time>2019-08-18T07:20:07Z</time>
      </trkpt>
      <trkpt lat="42.8384290" lon="-8.5941550">
        <ele>215.8</ele>
        <time>2019-08-18T07:20:08Z</time>
      </trkpt>
      <trkpt lat="42.8384890" lon="-8.5940630">
        <ele>215.7</ele>
        <time>2019-08-18T07:20:12Z</time>
      </trkpt>
      <trkpt lat="42.8385130" lon="-8.5940040">
        <ele>215.4</ele>
        <time>2019-08-18T07:20:14Z</time>
      </trkpt>
      <trkpt lat="42.8385190" lon="-8.5939760">
        <ele>215.4</ele>
        <time>2019-08-18T07:20:15Z</time>
      </trkpt>
      <trkpt lat="42.8385310" lon="-8.5939460">
        <ele>215.4</ele>
        <time>2019-08-18T07:20:16Z</time>
      </trkpt>
      <trkpt lat="42.8385430" lon="-8.5939180">
        <ele>215.4</ele>
        <time>2019-08-18T07:20:17Z</time>
      </trkpt>
      <trkpt lat="42.8385570" lon="-8.5938880">
        <ele>215.4</ele>
        <time>2019-08-18T07:20:18Z</time>
      </trkpt>
      <trkpt lat="42.8385840" lon="-8.5938130">
        <ele>215.7</ele>
        <time>2019-08-18T07:20:21Z</time>
      </trkpt>
      <trkpt lat="42.8386290" lon="-8.5937400">
        <ele>215.5</ele>
        <time>2019-08-18T07:20:24Z</time>
      </trkpt>
      <trkpt lat="42.8386450" lon="-8.5937160">
        <ele>215.4</ele>
        <time>2019-08-18T07:20:25Z</time>
      </trkpt>
      <trkpt lat="42.8386590" lon="-8.5936930">
        <ele>215.4</ele>
        <time>2019-08-18T07:20:26Z</time>
      </trkpt>
      <trkpt lat="42.8386730" lon="-8.5936710">
        <ele>215.4</ele>
        <time>2019-08-18T07:20:27Z</time>
      </trkpt>
      <trkpt lat="42.8386870" lon="-8.5936510">
        <ele>215.4</ele>
        <time>2019-08-18T07:20:28Z</time>
      </trkpt>
      <trkpt lat="42.8387310" lon="-8.5935880">
        <ele>215.1</ele>
        <time>2019-08-18T07:20:31Z</time>
      </trkpt>
      <trkpt lat="42.8387700" lon="-8.5934750">
        <ele>214.7</ele>
        <time>2019-08-18T07:20:36Z</time>
      </trkpt>
      <trkpt lat="42.8387650" lon="-8.5934490">
        <ele>214.5</ele>
        <time>2019-08-18T07:20:37Z</time>
      </trkpt>
      <trkpt lat="42.8387590" lon="-8.5934210">
        <ele>214.2</ele>
        <time>2019-08-18T07:20:38Z</time>
      </trkpt>
      <trkpt lat="42.8387550" lon="-8.5933910">
        <ele>213.9</ele>
        <time>2019-08-18T07:20:39Z</time>
      </trkpt>
      <trkpt lat="42.8387520" lon="-8.5933600">
        <ele>213.6</ele>
        <time>2019-08-18T07:20:40Z</time>
      </trkpt>
      <trkpt lat="42.8387470" lon="-8.5931900">
        <ele>212.5</ele>
        <time>2019-08-18T07:20:46Z</time>
      </trkpt>
      <trkpt lat="42.8387010" lon="-8.5929460">
        <ele>211.3</ele>
        <time>2019-08-18T07:20:53Z</time>
      </trkpt>
      <trkpt lat="42.8386600" lon="-8.5926760">
        <ele>211.5</ele>
        <time>2019-08-18T07:20:57Z</time>
      </trkpt>
      <trkpt lat="42.8386630" lon="-8.5925890">
        <ele>211.5</ele>
        <time>2019-08-18T07:20:58Z</time>
      </trkpt>
      <trkpt lat="42.8386750" lon="-8.5924950">
        <ele>211.5</ele>
        <time>2019-08-18T07:20:59Z</time>
      </trkpt>
      <trkpt lat="42.8386870" lon="-8.5923930">
        <ele>211.5</ele>
        <time>2019-08-18T07:21:00Z</time>
      </trkpt>
      <trkpt lat="42.8387050" lon="-8.5922880">
        <ele>211.5</ele>
        <time>2019-08-18T07:21:01Z</time>
      </trkpt>
      <trkpt lat="42.8387340" lon="-8.5921760">
        <ele>211.5</ele>
        <time>2019-08-18T07:21:02Z</time>
      </trkpt>
      <trkpt lat="42.8387720" lon="-8.5920630">
        <ele>211.4</ele>
        <time>2019-08-18T07:21:03Z</time>
      </trkpt>
      <trkpt lat="42.8388180" lon="-8.5919490">
        <ele>211.3</ele>
        <time>2019-08-18T07:21:04Z</time>
      </trkpt>
      <trkpt lat="42.8388610" lon="-8.5918380">
        <ele>211.1</ele>
        <time>2019-08-18T07:21:05Z</time>
      </trkpt>
      <trkpt lat="42.8389020" lon="-8.5917260">
        <ele>210.9</ele>
        <time>2019-08-18T07:21:06Z</time>
      </trkpt>
      <trkpt lat="42.8389370" lon="-8.5916180">
        <ele>210.6</ele>
        <time>2019-08-18T07:21:07Z</time>
      </trkpt>
      <trkpt lat="42.8389650" lon="-8.5915030">
        <ele>210.2</ele>
        <time>2019-08-18T07:21:08Z</time>
      </trkpt>
      <trkpt lat="42.8389690" lon="-8.5912760">
        <ele>208.9</ele>
        <time>2019-08-18T07:21:10Z</time>
      </trkpt>
      <trkpt lat="42.8389490" lon="-8.5911700">
        <ele>208.4</ele>
        <time>2019-08-18T07:21:11Z</time>
      </trkpt>
      <trkpt lat="42.8389060" lon="-8.5909660">
        <ele>208.3</ele>
        <time>2019-08-18T07:21:13Z</time>
      </trkpt>
      <trkpt lat="42.8388810" lon="-8.5908710">
        <ele>208.3</ele>
        <time>2019-08-18T07:21:14Z</time>
      </trkpt>
      <trkpt lat="42.8388570" lon="-8.5907790">
        <ele>208.3</ele>
        <time>2019-08-18T07:21:15Z</time>
      </trkpt>
      <trkpt lat="42.8388390" lon="-8.5906930">
        <ele>208.2</ele>
        <time>2019-08-18T07:21:16Z</time>
      </trkpt>
      <trkpt lat="42.8388170" lon="-8.5906040">
        <ele>208.2</ele>
        <time>2019-08-18T07:21:17Z</time>
      </trkpt>
      <trkpt lat="42.8387990" lon="-8.5903340">
        <ele>207.8</ele>
        <time>2019-08-18T07:21:20Z</time>
      </trkpt>
      <trkpt lat="42.8388150" lon="-8.5902440">
        <ele>207.7</ele>
        <time>2019-08-18T07:21:21Z</time>
      </trkpt>
      <trkpt lat="42.8389480" lon="-8.5899400">
        <ele>207.6</ele>
        <time>2019-08-18T07:21:25Z</time>
      </trkpt>
      <trkpt lat="42.8391500" lon="-8.5895100">
        <ele>207.7</ele>
        <time>2019-08-18T07:21:32Z</time>
      </trkpt>
      <trkpt lat="42.8393500" lon="-8.5891090">
        <ele>208.2</ele>
        <time>2019-08-18T07:21:40Z</time>
      </trkpt>
      <trkpt lat="42.8393740" lon="-8.5890590">
        <ele>208.3</ele>
        <time>2019-08-18T07:21:41Z</time>
      </trkpt>
      <trkpt lat="42.8393950" lon="-8.5890070">
        <ele>208.3</ele>
        <time>2019-08-18T07:21:42Z</time>
      </trkpt>
      <trkpt lat="42.8394130" lon="-8.5889590">
        <ele>208.4</ele>
        <time>2019-08-18T07:21:43Z</time>
      </trkpt>
      <trkpt lat="42.8394330" lon="-8.5889110">
        <ele>208.5</ele>
        <time>2019-08-18T07:21:44Z</time>
      </trkpt>
      <trkpt lat="42.8395590" lon="-8.5886050">
        <ele>208.7</ele>
        <time>2019-08-18T07:21:50Z</time>
      </trkpt>
      <trkpt lat="42.8398190" lon="-8.5880490">
        <ele>208.9</ele>
        <time>2019-08-18T07:22:01Z</time>
      </trkpt>
      <trkpt lat="42.8399900" lon="-8.5876940">
        <ele>209.4</ele>
        <time>2019-08-18T07:22:08Z</time>
      </trkpt>
      <trkpt lat="42.8401450" lon="-8.5873330">
        <ele>209.4</ele>
        <time>2019-08-18T07:22:15Z</time>
      </trkpt>
      <trkpt lat="42.8401740" lon="-8.5872910">
        <ele>209.5</ele>
        <time>2019-08-18T07:22:16Z</time>
      </trkpt>
      <trkpt lat="42.8401930" lon="-8.5872400">
        <ele>209.6</ele>
        <time>2019-08-18T07:22:17Z</time>
      </trkpt>
      <trkpt lat="42.8402110" lon="-8.5871830">
        <ele>209.7</ele>
        <time>2019-08-18T07:22:18Z</time>
      </trkpt>
      <trkpt lat="42.8402290" lon="-8.5871300">
        <ele>209.8</ele>
        <time>2019-08-18T07:22:19Z</time>
      </trkpt>
      <trkpt lat="42.8403590" lon="-8.5867840">
        <ele>210.4</ele>
        <time>2019-08-18T07:22:26Z</time>
      </trkpt>
      <trkpt lat="42.8404440" lon="-8.5865780">
        <ele>211.1</ele>
        <time>2019-08-18T07:22:30Z</time>
      </trkpt>
      <trkpt lat="42.8405280" lon="-8.5863830">
        <ele>211.7</ele>
        <time>2019-08-18T07:22:34Z</time>
      </trkpt>
      <trkpt lat="42.8405500" lon="-8.5863330">
        <ele>211.9</ele>
        <time>2019-08-18T07:22:35Z</time>
      </trkpt>
      <trkpt lat="42.8405740" lon="-8.5862820">
        <ele>212.0</ele>
        <time>2019-08-18T07:22:36Z</time>
      </trkpt>
      <trkpt lat="42.8405960" lon="-8.5862310">
        <ele>212.2</ele>
        <time>2019-08-18T07:22:37Z</time>
      </trkpt>
      <trkpt lat="42.8406160" lon="-8.5861830">
        <ele>212.4</ele>
        <time>2019-08-18T07:22:38Z</time>
      </trkpt>
      <trkpt lat="42.8406360" lon="-8.5861310">
        <ele>212.6</ele>
        <time>2019-08-18T07:22:39Z</time>
      </trkpt>
      <trkpt lat="42.8408350" lon="-8.5855160">
        <ele>215.6</ele>
        <time>2019-08-18T07:22:51Z</time>
      </trkpt>
      <trkpt lat="42.8408760" lon="-8.5853750">
        <ele>215.8</ele>
        <time>2019-08-18T07:22:54Z</time>
      </trkpt>
      <trkpt lat="42.8408940" lon="-8.5853340">
        <ele>215.9</ele>
        <time>2019-08-18T07:22:55Z</time>
      </trkpt>
      <trkpt lat="42.8409150" lon="-8.5852910">
        <ele>216.1</ele>
        <time>2019-08-18T07:22:56Z</time>
      </trkpt>
      <trkpt lat="42.8409400" lon="-8.5852460">
        <ele>216.4</ele>
        <time>2019-08-18T07:22:57Z</time>
      </trkpt>
      <trkpt lat="42.8409670" lon="-8.5851980">
        <ele>216.7</ele>
        <time>2019-08-18T07:22:58Z</time>
      </trkpt>
      <trkpt lat="42.8410220" lon="-8.5850520">
        <ele>217.8</ele>
        <time>2019-08-18T07:23:01Z</time>
      </trkpt>
      <trkpt lat="42.8411570" lon="-8.5845920">
        <ele>220.7</ele>
        <time>2019-08-18T07:23:10Z</time>
      </trkpt>
      <trkpt lat="42.8411920" lon="-8.5844800">
        <ele>221.4</ele>
        <time>2019-08-18T07:23:12Z</time>
      </trkpt>
      <trkpt lat="42.8412080" lon="-8.5844160">
        <ele>221.8</ele>
        <time>2019-08-18T07:23:13Z</time>
      </trkpt>
      <trkpt lat="42.8412260" lon="-8.5843560">
        <ele>222.3</ele>
        <time>2019-08-18T07:23:14Z</time>
      </trkpt>
      <trkpt lat="42.8412470" lon="-8.5842960">
        <ele>222.7</ele>
        <time>2019-08-18T07:23:15Z</time>
      </trkpt>
      <trkpt lat="42.8412700" lon="-8.5842390">
        <ele>223.1</ele>
        <time>2019-08-18T07:23:16Z</time>
      </trkpt>
      <trkpt lat="42.8413390" lon="-8.5840860">
        <ele>224.1</ele>
        <time>2019-08-18T07:23:19Z</time>
      </trkpt>
      <trkpt lat="42.8413560" lon="-8.5840390">
        <ele>224.4</ele>
        <time>2019-08-18T07:23:20Z</time>
      </trkpt>
      <trkpt lat="42.8413740" lon="-8.5839950">
        <ele>224.6</ele>
        <time>2019-08-18T07:23:21Z</time>
      </trkpt>
      <trkpt lat="42.8413920" lon="-8.5839540">
        <ele>224.8</ele>
        <time>2019-08-18T07:23:22Z</time>
      </trkpt>
      <trkpt lat="42.8414140" lon="-8.5839110">
        <ele>225.0</ele>
        <time>2019-08-18T07:23:23Z</time>
      </trkpt>
      <trkpt lat="42.8414350" lon="-8.5838710">
        <ele>225.3</ele>
        <time>2019-08-18T07:23:24Z</time>
      </trkpt>
      <trkpt lat="42.8414790" lon="-8.5837830">
        <ele>225.7</ele>
        <time>2019-08-18T07:23:26Z</time>
      </trkpt>
      <trkpt lat="42.8415570" lon="-8.5836740">
        <ele>226.3</ele>
        <time>2019-08-18T07:23:29Z</time>
      </trkpt>
      <trkpt lat="42.8415790" lon="-8.5836360">
        <ele>226.6</ele>
        <time>2019-08-18T07:23:30Z</time>
      </trkpt>
      <trkpt lat="42.8415980" lon="-8.5835970">
        <ele>226.8</ele>
        <time>2019-08-18T07:23:31Z</time>
      </trkpt>
      <trkpt lat="42.8416170" lon="-8.5835620">
        <ele>227.0</ele>
        <time>2019-08-18T07:23:32Z</time>
      </trkpt>
      <trkpt lat="42.8416340" lon="-8.5835300">
        <ele>227.3</ele>
        <time>2019-08-18T07:23:33Z</time>
      </trkpt>
      <trkpt lat="42.8417690" lon="-8.5833120">
        <ele>229.3</ele>
        <time>2019-08-18T07:23:40Z</time>
      </trkpt>
      <trkpt lat="42.8417910" lon="-8.5832820">
        <ele>229.6</ele>
        <time>2019-08-18T07:23:41Z</time>
      </trkpt>
      <trkpt lat="42.8418130" lon="-8.5832520">
        <ele>229.8</ele>
        <time>2019-08-18T07:23:42Z</time>
      </trkpt>
      <trkpt lat="42.8418350" lon="-8.5832230">
        <ele>230.1</ele>
        <time>2019-08-18T07:23:43Z</time>
      </trkpt>
      <trkpt lat="42.8418550" lon="-8.5831960">
        <ele>230.3</ele>
        <time>2019-08-18T07:23:44Z</time>
      </trkpt>
      <trkpt lat="42.8419470" lon="-8.5830980">
        <ele>231.6</ele>
        <time>2019-08-18T07:23:48Z</time>
      </trkpt>
      <trkpt lat="42.8419710" lon="-8.5830720">
        <ele>231.8</ele>
        <time>2019-08-18T07:23:49Z</time>
      </trkpt>
      <trkpt lat="42.8419920" lon="-8.5830430">
        <ele>232.0</ele>
        <time>2019-08-18T07:23:50Z</time>
      </trkpt>
      <trkpt lat="42.8420140" lon="-8.5830170">
        <ele>232.2</ele>
        <time>2019-08-18T07:23:51Z</time>
      </trkpt>
      <trkpt lat="42.8420350" lon="-8.5829910">
        <ele>232.4</ele>
        <time>2019-08-18T07:23:52Z</time>
      </trkpt>
      <trkpt lat="42.8421890" lon="-8.5828500">
        <ele>233.8</ele>
        <time>2019-08-18T07:23:58Z</time>
      </trkpt>
      <trkpt lat="42.8422160" lon="-8.5828270">
        <ele>234.0</ele>
        <time>2019-08-18T07:23:59Z</time>
      </trkpt>
      <trkpt lat="42.8422390" lon="-8.5828030">
        <ele>234.2</ele>
        <time>2019-08-18T07:24:00Z</time>
      </trkpt>
      <trkpt lat="42.8422650" lon="-8.5827800">
        <ele>234.5</ele>
        <time>2019-08-18T07:24:01Z</time>
      </trkpt>
      <trkpt lat="42.8422930" lon="-8.5827600">
        <ele>234.7</ele>
        <time>2019-08-18T07:24:02Z</time>
      </trkpt>
      <trkpt lat="42.8423920" lon="-8.5826750">
        <ele>235.6</ele>
        <time>2019-08-18T07:24:06Z</time>
      </trkpt>
      <trkpt lat="42.8424390" lon="-8.5826320">
        <ele>236.0</ele>
        <time>2019-08-18T07:24:09Z</time>
      </trkpt>
      <trkpt lat="42.8424530" lon="-8.5826180">
        <ele>236.1</ele>
        <time>2019-08-18T07:24:10Z</time>
      </trkpt>
      <trkpt lat="42.8424670" lon="-8.5826040">
        <ele>236.3</ele>
        <time>2019-08-18T07:24:11Z</time>
      </trkpt>
      <trkpt lat="42.8424820" lon="-8.5825860">
        <ele>236.4</ele>
        <time>2019-08-18T07:24:12Z</time>
      </trkpt>
      <trkpt lat="42.8424980" lon="-8.5825700">
        <ele>236.5</ele>
        <time>2019-08-18T07:24:13Z</time>
      </trkpt>
      <trkpt lat="42.8425680" lon="-8.5825140">
        <ele>237.0</ele>
        <time>2019-08-18T07:24:17Z</time>
      </trkpt>
      <trkpt lat="42.8426550" lon="-8.5824210">
        <ele>237.6</ele>
        <time>2019-08-18T07:24:22Z</time>
      </trkpt>
      <trkpt lat="42.8426800" lon="-8.5823970">
        <ele>237.7</ele>
        <time>2019-08-18T07:24:23Z</time>
      </trkpt>
      <trkpt lat="42.8426950" lon="-8.5823770">
        <ele>237.8</ele>
        <time>2019-08-18T07:24:24Z</time>
      </trkpt>
      <trkpt lat="42.8427100" lon="-8.5823590">
        <ele>237.9</ele>
        <time>2019-08-18T07:24:25Z</time>
      </trkpt>
      <trkpt lat="42.8427290" lon="-8.5823370">
        <ele>238.1</ele>
        <time>2019-08-18T07:24:26Z</time>
      </trkpt>
      <trkpt lat="42.8428350" lon="-8.5822060">
        <ele>238.9</ele>
        <time>2019-08-18T07:24:32Z</time>
      </trkpt>
      <trkpt lat="42.8428570" lon="-8.5821830">
        <ele>239.1</ele>
        <time>2019-08-18T07:24:33Z</time>
      </trkpt>
      <trkpt lat="42.8428810" lon="-8.5821640">
        <ele>239.3</ele>
        <time>2019-08-18T07:24:34Z</time>
      </trkpt>
      <trkpt lat="42.8429010" lon="-8.5821480">
        <ele>239.5</ele>
        <time>2019-08-18T07:24:35Z</time>
      </trkpt>
      <trkpt lat="42.8429250" lon="-8.5821310">
        <ele>239.7</ele>
        <time>2019-08-18T07:24:36Z</time>
      </trkpt>
      <trkpt lat="42.8430180" lon="-8.5820390">
        <ele>240.4</ele>
        <time>2019-08-18T07:24:41Z</time>
      </trkpt>
      <trkpt lat="42.8430960" lon="-8.5819700">
        <ele>240.9</ele>
        <time>2019-08-18T07:24:45Z</time>
      </trkpt>
      <trkpt lat="42.8431130" lon="-8.5819530">
        <ele>241.1</ele>
        <time>2019-08-18T07:24:46Z</time>
      </trkpt>
      <trkpt lat="42.8431310" lon="-8.5819330">
        <ele>241.2</ele>
        <time>2019-08-18T07:24:47Z</time>
      </trkpt>
      <trkpt lat="42.8431460" lon="-8.5819100">
        <ele>241.4</ele>
        <time>2019-08-18T07:24:48Z</time>
      </trkpt>
      <trkpt lat="42.8431620" lon="-8.5818840">
        <ele>241.5</ele>
        <time>2019-08-18T07:24:49Z</time>
      </trkpt>
      <trkpt lat="42.8433230" lon="-8.5818100">
        <ele>242.6</ele>
        <time>2019-08-18T07:24:55Z</time>
      </trkpt>
      <trkpt lat="42.8433420" lon="-8.5817890">
        <ele>242.7</ele>
        <time>2019-08-18T07:24:56Z</time>
      </trkpt>
      <trkpt lat="42.8433660" lon="-8.5817680">
        <ele>242.8</ele>
        <time>2019-08-18T07:24:57Z</time>
      </trkpt>
      <trkpt lat="42.8433900" lon="-8.5817520">
        <ele>242.9</ele>
        <time>2019-08-18T07:24:58Z</time>
      </trkpt>
      <trkpt lat="42.8434150" lon="-8.5817320">
        <ele>243.0</ele>
        <time>2019-08-18T07:24:59Z</time>
      </trkpt>
      <trkpt lat="42.8434690" lon="-8.5816730">
        <ele>243.3</ele>
        <time>2019-08-18T07:25:02Z</time>
      </trkpt>
      <trkpt lat="42.8436210" lon="-8.5815060">
        <ele>244.9</ele>
        <time>2019-08-18T07:25:11Z</time>
      </trkpt>
      <trkpt lat="42.8436600" lon="-8.5814740">
        <ele>245.3</ele>
        <time>2019-08-18T07:25:13Z</time>
      </trkpt>
      <trkpt lat="42.8436800" lon="-8.5814620">
        <ele>245.5</ele>
        <time>2019-08-18T07:25:14Z</time>
      </trkpt>
      <trkpt lat="42.8436920" lon="-8.5814520">
        <ele>245.6</ele>
        <time>2019-08-18T07:25:15Z</time>
      </trkpt>
      <trkpt lat="42.8436970" lon="-8.5814450">
        <ele>245.7</ele>
        <time>2019-08-18T07:25:16Z</time>
      </trkpt>
      <trkpt lat="42.8437110" lon="-8.5814310">
        <ele>245.8</ele>
        <time>2019-08-18T07:25:17Z</time>
      </trkpt>
      <trkpt lat="42.8437090" lon="-8.5814310">
        <ele>245.8</ele>
        <time>2019-08-18T07:25:18Z</time>
      </trkpt>
      <trkpt lat="42.8437130" lon="-8.5814210">
        <ele>245.9</ele>
        <time>2019-08-18T07:26:20Z</time>
      </trkpt>
      <trkpt lat="42.8437830" lon="-8.5812980">
        <ele>246.4</ele>
        <time>2019-08-18T07:26:24Z</time>
      </trkpt>
      <trkpt lat="42.8439590" lon="-8.5811420">
        <ele>247.0</ele>
        <time>2019-08-18T07:26:31Z</time>
      </trkpt>
      <trkpt lat="42.8439890" lon="-8.5811220">
        <ele>247.0</ele>
        <time>2019-08-18T07:26:32Z</time>
      </trkpt>
      <trkpt lat="42.8440440" lon="-8.5810850">
        <ele>247.2</ele>
        <time>2019-08-18T07:26:34Z</time>
      </trkpt>
      <trkpt lat="42.8440720" lon="-8.5810770">
        <ele>247.3</ele>
        <time>2019-08-18T07:26:35Z</time>
      </trkpt>
      <trkpt lat="42.8441680" lon="-8.5810730">
        <ele>247.6</ele>
        <time>2019-08-18T07:26:38Z</time>
      </trkpt>
      <trkpt lat="42.8444230" lon="-8.5809490">
        <ele>248.2</ele>
        <time>2019-08-18T07:26:46Z</time>
      </trkpt>
      <trkpt lat="42.8446690" lon="-8.5808270">
        <ele>248.7</ele>
        <time>2019-08-18T07:26:54Z</time>
      </trkpt>
      <trkpt lat="42.8447020" lon="-8.5808220">
        <ele>248.7</ele>
        <time>2019-08-18T07:26:55Z</time>
      </trkpt>
      <trkpt lat="42.8447390" lon="-8.5808150">
        <ele>248.7</ele>
        <time>2019-08-18T07:26:56Z</time>
      </trkpt>
      <trkpt lat="42.8447740" lon="-8.5808040">
        <ele>248.6</ele>
        <time>2019-08-18T07:26:57Z</time>
      </trkpt>
      <trkpt lat="42.8448100" lon="-8.5807930">
        <ele>248.6</ele>
        <time>2019-08-18T07:26:58Z</time>
      </trkpt>
      <trkpt lat="42.8448410" lon="-8.5807770">
        <ele>248.6</ele>
        <time>2019-08-18T07:26:59Z</time>
      </trkpt>
      <trkpt lat="42.8449090" lon="-8.5807530">
        <ele>248.5</ele>
        <time>2019-08-18T07:27:01Z</time>
      </trkpt>
      <trkpt lat="42.8451730" lon="-8.5806490">
        <ele>248.0</ele>
        <time>2019-08-18T07:27:09Z</time>
      </trkpt>
      <trkpt lat="42.8454360" lon="-8.5805950">
        <ele>247.5</ele>
        <time>2019-08-18T07:27:17Z</time>
      </trkpt>
      <trkpt lat="42.8457020" lon="-8.5805790">
        <ele>247.1</ele>
        <time>2019-08-18T07:27:25Z</time>
      </trkpt>
      <trkpt lat="42.8460300" lon="-8.5805550">
        <ele>246.5</ele>
        <time>2019-08-18T07:27:33Z</time>
      </trkpt>
      <trkpt lat="42.8463700" lon="-8.5805230">
        <ele>246.0</ele>
        <time>2019-08-18T07:27:41Z</time>
      </trkpt>
      <trkpt lat="42.8464180" lon="-8.5805190">
        <ele>246.0</ele>
        <time>2019-08-18T07:27:42Z</time>
      </trkpt>
      <trkpt lat="42.8464640" lon="-8.5805150">
        <ele>245.9</ele>
        <time>2019-08-18T07:27:43Z</time>
      </trkpt>
      <trkpt lat="42.8465100" lon="-8.5805130">
        <ele>245.9</ele>
        <time>2019-08-18T07:27:44Z</time>
      </trkpt>
      <trkpt lat="42.8465580" lon="-8.5805080">
        <ele>245.9</ele>
        <time>2019-08-18T07:27:45Z</time>
      </trkpt>
      <trkpt lat="42.8467500" lon="-8.5804750">
        <ele>245.9</ele>
        <time>2019-08-18T07:27:49Z</time>
      </trkpt>
      <trkpt lat="42.8472160" lon="-8.5803890">
        <ele>244.9</ele>
        <time>2019-08-18T07:27:59Z</time>
      </trkpt>
      <trkpt lat="42.8472600" lon="-8.5803790">
        <ele>244.7</ele>
        <time>2019-08-18T07:28:00Z</time>
      </trkpt>
      <trkpt lat="42.8473030" lon="-8.5803710">
        <ele>244.6</ele>
        <time>2019-08-18T07:28:01Z</time>
      </trkpt>
      <trkpt lat="42.8473370" lon="-8.5803660">
        <ele>244.5</ele>
        <time>2019-08-18T07:28:02Z</time>
      </trkpt>
      <trkpt lat="42.8473750" lon="-8.5803660">
        <ele>244.5</ele>
        <time>2019-08-18T07:28:03Z</time>
      </trkpt>
      <trkpt lat="42.8474230" lon="-8.5803720">
        <ele>244.3</ele>
        <time>2019-08-18T07:28:04Z</time>
      </trkpt>
      <trkpt lat="42.8474970" lon="-8.5804210">
        <ele>244.3</ele>
        <time>2019-08-18T07:28:06Z</time>
      </trkpt>
      <trkpt lat="42.8475550" lon="-8.5804260">
        <ele>244.3</ele>
        <time>2019-08-18T07:28:08Z</time>
      </trkpt>
      <trkpt lat="42.8476100" lon="-8.5804000">
        <ele>244.3</ele>
        <time>2019-08-18T07:28:10Z</time>
      </trkpt>
      <trkpt lat="42.8477980" lon="-8.5803570">
        <ele>244.3</ele>
        <time>2019-08-18T07:28:16Z</time>
      </trkpt>
      <trkpt lat="42.8480870" lon="-8.5803330">
        <ele>244.3</ele>
        <time>2019-08-18T07:28:24Z</time>
      </trkpt>
      <trkpt lat="42.8483520" lon="-8.5802380">
        <ele>244.6</ele>
        <time>2019-08-18T07:28:31Z</time>
      </trkpt>
      <trkpt lat="42.8484870" lon="-8.5800980">
        <ele>245.2</ele>
        <time>2019-08-18T07:28:36Z</time>
      </trkpt>
      <trkpt lat="42.8486460" lon="-8.5798800">
        <ele>247.4</ele>
        <time>2019-08-18T07:28:43Z</time>
      </trkpt>
      <trkpt lat="42.8487310" lon="-8.5797720">
        <ele>247.3</ele>
        <time>2019-08-18T07:28:46Z</time>
      </trkpt>
      <trkpt lat="42.8487710" lon="-8.5797220">
        <ele>247.1</ele>
        <time>2019-08-18T07:28:47Z</time>
      </trkpt>
      <trkpt lat="42.8488140" lon="-8.5796620">
        <ele>246.7</ele>
        <time>2019-08-18T07:28:48Z</time>
      </trkpt>
      <trkpt lat="42.8488470" lon="-8.5796110">
        <ele>246.4</ele>
        <time>2019-08-18T07:28:49Z</time>
      </trkpt>
      <trkpt lat="42.8488760" lon="-8.5795570">
        <ele>246.0</ele>
        <time>2019-08-18T07:28:50Z</time>
      </trkpt>
      <trkpt lat="42.8489050" lon="-8.5795170">
        <ele>245.8</ele>
        <time>2019-08-18T07:28:51Z</time>
      </trkpt>
      <trkpt lat="42.8489290" lon="-8.5794750">
        <ele>245.5</ele>
        <time>2019-08-18T07:28:52Z</time>
      </trkpt>
      <trkpt lat="42.8489570" lon="-8.5794260">
        <ele>245.1</ele>
        <time>2019-08-18T07:28:53Z</time>
      </trkpt>
      <trkpt lat="42.8489840" lon="-8.5793590">
        <ele>244.7</ele>
        <time>2019-08-18T07:28:54Z</time>
      </trkpt>
      <trkpt lat="42.8490030" lon="-8.5792970">
        <ele>244.3</ele>
        <time>2019-08-18T07:28:55Z</time>
      </trkpt>
      <trkpt lat="42.8490180" lon="-8.5792380">
        <ele>243.9</ele>
        <time>2019-08-18T07:28:56Z</time>
      </trkpt>
      <trkpt lat="42.8490250" lon="-8.5791740">
        <ele>243.4</ele>
        <time>2019-08-18T07:28:57Z</time>
      </trkpt>
      <trkpt lat="42.8490400" lon="-8.5791030">
        <ele>242.8</ele>
        <time>2019-08-18T07:28:58Z</time>
      </trkpt>
      <trkpt lat="42.8490720" lon="-8.5790140">
        <ele>242.0</ele>
        <time>2019-08-18T07:28:59Z</time>
      </trkpt>
      <trkpt lat="42.8490900" lon="-8.5789210">
        <ele>241.1</ele>
        <time>2019-08-18T07:29:00Z</time>
      </trkpt>
      <trkpt lat="42.8491210" lon="-8.5788410">
        <ele>240.0</ele>
        <time>2019-08-18T07:29:01Z</time>
      </trkpt>
      <trkpt lat="42.8491580" lon="-8.5787510">
        <ele>239.0</ele>
        <time>2019-08-18T07:29:02Z</time>
      </trkpt>
      <trkpt lat="42.8492050" lon="-8.5786570">
        <ele>237.9</ele>
        <time>2019-08-18T07:29:03Z</time>
      </trkpt>
      <trkpt lat="42.8492480" lon="-8.5785760">
        <ele>237.1</ele>
        <time>2019-08-18T07:29:04Z</time>
      </trkpt>
      <trkpt lat="42.8492800" lon="-8.5785020">
        <ele>236.5</ele>
        <time>2019-08-18T07:29:05Z</time>
      </trkpt>
      <trkpt lat="42.8493070" lon="-8.5784290">
        <ele>236.1</ele>
        <time>2019-08-18T07:29:06Z</time>
      </trkpt>
      <trkpt lat="42.8493290" lon="-8.5783700">
        <ele>235.7</ele>
        <time>2019-08-18T07:29:07Z</time>
      </trkpt>
      <trkpt lat="42.8493400" lon="-8.5783200">
        <ele>235.5</ele>
        <time>2019-08-18T07:29:08Z</time>
      </trkpt>
      <trkpt lat="42.8493190" lon="-8.5782070">
        <ele>234.8</ele>
        <time>2019-08-18T07:29:10Z</time>
      </trkpt>
      <trkpt lat="42.8492880" lon="-8.5781620">
        <ele>234.4</ele>
        <time>2019-08-18T07:29:11Z</time>
      </trkpt>
      <trkpt lat="42.8492430" lon="-8.5781030">
        <ele>233.9</ele>
        <time>2019-08-18T07:29:12Z</time>
      </trkpt>
      <trkpt lat="42.8492040" lon="-8.5780390">
        <ele>233.6</ele>
        <time>2019-08-18T07:29:13Z</time>
      </trkpt>
      <trkpt lat="42.8491610" lon="-8.5779600">
        <ele>233.3</ele>
        <time>2019-08-18T07:29:14Z</time>
      </trkpt>
      <trkpt lat="42.8491190" lon="-8.5778790">
        <ele>232.9</ele>
        <time>2019-08-18T07:29:15Z</time>
      </trkpt>
      <trkpt lat="42.8490900" lon="-8.5777800">
        <ele>232.3</ele>
        <time>2019-08-18T07:29:16Z</time>
      </trkpt>
      <trkpt lat="42.8490700" lon="-8.5776780">
        <ele>231.6</ele>
        <time>2019-08-18T07:29:17Z</time>
      </trkpt>
      <trkpt lat="42.8490450" lon="-8.5775770">
        <ele>231.1</ele>
        <time>2019-08-18T07:29:18Z</time>
      </trkpt>
      <trkpt lat="42.8490100" lon="-8.5773840">
        <ele>230.4</ele>
        <time>2019-08-18T07:29:20Z</time>
      </trkpt>
      <trkpt lat="42.8490010" lon="-8.5773120">
        <ele>229.7</ele>
        <time>2019-08-18T07:29:21Z</time>
      </trkpt>
      <trkpt lat="42.8490240" lon="-8.5772400">
        <ele>229.3</ele>
        <time>2019-08-18T07:29:22Z</time>
      </trkpt>
      <trkpt lat="42.8490600" lon="-8.5771850">
        <ele>228.9</ele>
        <time>2019-08-18T07:29:23Z</time>
      </trkpt>
      <trkpt lat="42.8491010" lon="-8.5771400">
        <ele>228.7</ele>
        <time>2019-08-18T07:29:24Z</time>
      </trkpt>
      <trkpt lat="42.8491490" lon="-8.5770960">
        <ele>228.5</ele>
        <time>2019-08-18T07:29:25Z</time>
      </trkpt>
      <trkpt lat="42.8491970" lon="-8.5770520">
        <ele>228.3</ele>
        <time>2019-08-18T07:29:26Z</time>
      </trkpt>
      <trkpt lat="42.8493370" lon="-8.5769530">
        <ele>227.8</ele>
        <time>2019-08-18T07:29:29Z</time>
      </trkpt>
      <trkpt lat="42.8494320" lon="-8.5769060">
        <ele>227.3</ele>
        <time>2019-08-18T07:29:31Z</time>
      </trkpt>
      <trkpt lat="42.8495400" lon="-8.5769130">
        <ele>226.9</ele>
        <time>2019-08-18T07:29:33Z</time>
      </trkpt>
      <trkpt lat="42.8496800" lon="-8.5769330">
        <ele>226.8</ele>
        <time>2019-08-18T07:29:36Z</time>
      </trkpt>
      <trkpt lat="42.8498530" lon="-8.5769500">
        <ele>226.6</ele>
        <time>2019-08-18T07:29:40Z</time>
      </trkpt>
      <trkpt lat="42.8499770" lon="-8.5769400">
        <ele>226.4</ele>
        <time>2019-08-18T07:29:42Z</time>
      </trkpt>
      <trkpt lat="42.8500410" lon="-8.5769390">
        <ele>226.2</ele>
        <time>2019-08-18T07:29:43Z</time>
      </trkpt>
      <trkpt lat="42.8501110" lon="-8.5769600">
        <ele>226.1</ele>
        <time>2019-08-18T07:29:44Z</time>
      </trkpt>
      <trkpt lat="42.8501800" lon="-8.5769790">
        <ele>225.9</ele>
        <time>2019-08-18T07:29:45Z</time>
      </trkpt>
      <trkpt lat="42.8502500" lon="-8.5769970">
        <ele>225.6</ele>
        <time>2019-08-18T07:29:46Z</time>
      </trkpt>
      <trkpt lat="42.8503170" lon="-8.5770110">
        <ele>225.5</ele>
        <time>2019-08-18T07:29:47Z</time>
      </trkpt>
      <trkpt lat="42.8506830" lon="-8.5771310">
        <ele>224.6</ele>
        <time>2019-08-18T07:29:53Z</time>
      </trkpt>
      <trkpt lat="42.8508620" lon="-8.5772230">
        <ele>223.9</ele>
        <time>2019-08-18T07:29:56Z</time>
      </trkpt>
      <trkpt lat="42.8509230" lon="-8.5772430">
        <ele>223.7</ele>
        <time>2019-08-18T07:29:57Z</time>
      </trkpt>
      <trkpt lat="42.8510430" lon="-8.5772460">
        <ele>223.6</ele>
        <time>2019-08-18T07:29:59Z</time>
      </trkpt>
      <trkpt lat="42.8511640" lon="-8.5771610">
        <ele>224.0</ele>
        <time>2019-08-18T07:30:01Z</time>
      </trkpt>
      <trkpt lat="42.8512110" lon="-8.5771060">
        <ele>223.9</ele>
        <time>2019-08-18T07:30:02Z</time>
      </trkpt>
      <trkpt lat="42.8513040" lon="-8.5769980">
        <ele>223.7</ele>
        <time>2019-08-18T07:30:04Z</time>
      </trkpt>
      <trkpt lat="42.8514000" lon="-8.5768570">
        <ele>223.5</ele>
        <time>2019-08-18T07:30:07Z</time>
      </trkpt>
      <trkpt lat="42.8515630" lon="-8.5766230">
        <ele>223.4</ele>
        <time>2019-08-18T07:30:13Z</time>
      </trkpt>
      <trkpt lat="42.8517600" lon="-8.5763260">
        <ele>223.7</ele>
        <time>2019-08-18T07:30:19Z</time>
      </trkpt>
      <trkpt lat="42.8517990" lon="-8.5762840">
        <ele>223.8</ele>
        <time>2019-08-18T07:30:20Z</time>
      </trkpt>
      <trkpt lat="42.8519130" lon="-8.5761240">
        <ele>224.4</ele>
        <time>2019-08-18T07:30:24Z</time>
      </trkpt>
      <trkpt lat="42.8519330" lon="-8.5760740">
        <ele>224.5</ele>
        <time>2019-08-18T07:30:25Z</time>
      </trkpt>
      <trkpt lat="42.8519470" lon="-8.5760110">
        <ele>224.5</ele>
        <time>2019-08-18T07:30:26Z</time>
      </trkpt>
      <trkpt lat="42.8519660" lon="-8.5759530">
        <ele>224.6</ele>
        <time>2019-08-18T07:30:27Z</time>
      </trkpt>
      <trkpt lat="42.8519980" lon="-8.5758960">
        <ele>224.6</ele>
        <time>2019-08-18T07:30:28Z</time>
      </trkpt>
      <trkpt lat="42.8520330" lon="-8.5758550">
        <ele>224.7</ele>
        <time>2019-08-18T07:30:29Z</time>
      </trkpt>
      <trkpt lat="42.8522170" lon="-8.5757000">
        <ele>225.0</ele>
        <time>2019-08-18T07:30:33Z</time>
      </trkpt>
      <trkpt lat="42.8522600" lon="-8.5756640">
        <ele>225.1</ele>
        <time>2019-08-18T07:30:34Z</time>
      </trkpt>
      <trkpt lat="42.8524700" lon="-8.5753170">
        <ele>224.5</ele>
        <time>2019-08-18T07:30:41Z</time>
      </trkpt>
      <trkpt lat="42.8526460" lon="-8.5751250">
        <ele>223.3</ele>
        <time>2019-08-18T07:30:45Z</time>
      </trkpt>
      <trkpt lat="42.8527290" lon="-8.5750090">
        <ele>222.7</ele>
        <time>2019-08-18T07:30:47Z</time>
      </trkpt>
      <trkpt lat="42.8528200" lon="-8.5748080">
        <ele>222.3</ele>
        <time>2019-08-18T07:30:50Z</time>
      </trkpt>
      <trkpt lat="42.8528480" lon="-8.5747400">
        <ele>222.3</ele>
        <time>2019-08-18T07:30:51Z</time>
      </trkpt>
      <trkpt lat="42.8529240" lon="-8.5745560">
        <ele>222.2</ele>
        <time>2019-08-18T07:30:54Z</time>
      </trkpt>
      <trkpt lat="42.8529470" lon="-8.5744950">
        <ele>222.2</ele>
        <time>2019-08-18T07:30:55Z</time>
      </trkpt>
      <trkpt lat="42.8529630" lon="-8.5744210">
        <ele>222.2</ele>
        <time>2019-08-18T07:30:56Z</time>
      </trkpt>
      <trkpt lat="42.8529690" lon="-8.5743430">
        <ele>222.2</ele>
        <time>2019-08-18T07:30:57Z</time>
      </trkpt>
      <trkpt lat="42.8529660" lon="-8.5742530">
        <ele>222.1</ele>
        <time>2019-08-18T07:30:58Z</time>
      </trkpt>
      <trkpt lat="42.8529690" lon="-8.5741760">
        <ele>221.9</ele>
        <time>2019-08-18T07:30:59Z</time>
      </trkpt>
      <trkpt lat="42.8529840" lon="-8.5740980">
        <ele>221.8</ele>
        <time>2019-08-18T07:31:00Z</time>
      </trkpt>
      <trkpt lat="42.8530410" lon="-8.5740570">
        <ele>221.5</ele>
        <time>2019-08-18T07:31:01Z</time>
      </trkpt>
      <trkpt lat="42.8530780" lon="-8.5740250">
        <ele>221.2</ele>
        <time>2019-08-18T07:31:02Z</time>
      </trkpt>
      <trkpt lat="42.8531490" lon="-8.5740540">
        <ele>220.7</ele>
        <time>2019-08-18T07:31:03Z</time>
      </trkpt>
      <trkpt lat="42.8532120" lon="-8.5740610">
        <ele>220.2</ele>
        <time>2019-08-18T07:31:04Z</time>
      </trkpt>
      <trkpt lat="42.8532710" lon="-8.5740740">
        <ele>219.7</ele>
        <time>2019-08-18T07:31:05Z</time>
      </trkpt>
      <trkpt lat="42.8533330" lon="-8.5740890">
        <ele>219.1</ele>
        <time>2019-08-18T07:31:06Z</time>
      </trkpt>
      <trkpt lat="42.8534030" lon="-8.5741050">
        <ele>218.3</ele>
        <time>2019-08-18T07:31:07Z</time>
      </trkpt>
      <trkpt lat="42.8534790" lon="-8.5741190">
        <ele>217.5</ele>
        <time>2019-08-18T07:31:08Z</time>
      </trkpt>
      <trkpt lat="42.8535510" lon="-8.5741210">
        <ele>216.7</ele>
        <time>2019-08-18T07:31:09Z</time>
      </trkpt>
      <trkpt lat="42.8536310" lon="-8.5741210">
        <ele>215.7</ele>
        <time>2019-08-18T07:31:10Z</time>
      </trkpt>
      <trkpt lat="42.8537060" lon="-8.5741200">
        <ele>214.8</ele>
        <time>2019-08-18T07:31:11Z</time>
      </trkpt>
      <trkpt lat="42.8537750" lon="-8.5741200">
        <ele>213.9</ele>
        <time>2019-08-18T07:31:12Z</time>
      </trkpt>
      <trkpt lat="42.8538470" lon="-8.5741210">
        <ele>213.0</ele>
        <time>2019-08-18T07:31:13Z</time>
      </trkpt>
      <trkpt lat="42.8539160" lon="-8.5741220">
        <ele>212.1</ele>
        <time>2019-08-18T07:31:14Z</time>
      </trkpt>
      <trkpt lat="42.8540490" lon="-8.5741210">
        <ele>210.5</ele>
        <time>2019-08-18T07:31:16Z</time>
      </trkpt>
      <trkpt lat="42.8541030" lon="-8.5741080">
        <ele>209.7</ele>
        <time>2019-08-18T07:31:17Z</time>
      </trkpt>
      <trkpt lat="42.8541600" lon="-8.5740820">
        <ele>208.9</ele>
        <time>2019-08-18T07:31:18Z</time>
      </trkpt>
      <trkpt lat="42.8542080" lon="-8.5740570">
        <ele>208.1</ele>
        <time>2019-08-18T07:31:19Z</time>
      </trkpt>
      <trkpt lat="42.8542470" lon="-8.5740160">
        <ele>207.4</ele>
        <time>2019-08-18T07:31:20Z</time>
      </trkpt>
      <trkpt lat="42.8542890" lon="-8.5739000">
        <ele>207.1</ele>
        <time>2019-08-18T07:31:22Z</time>
      </trkpt>
      <trkpt lat="42.8542500" lon="-8.5738700">
        <ele>206.9</ele>
        <time>2019-08-18T07:31:23Z</time>
      </trkpt>
      <trkpt lat="42.8542020" lon="-8.5738350">
        <ele>206.7</ele>
        <time>2019-08-18T07:31:24Z</time>
      </trkpt>
      <trkpt lat="42.8541670" lon="-8.5738080">
        <ele>206.5</ele>
        <time>2019-08-18T07:31:25Z</time>
      </trkpt>
      <trkpt lat="42.8541170" lon="-8.5737720">
        <ele>206.3</ele>
        <time>2019-08-18T07:31:26Z</time>
      </trkpt>
      <trkpt lat="42.8539910" lon="-8.5737200">
        <ele>205.9</ele>
        <time>2019-08-18T07:31:28Z</time>
      </trkpt>
      <trkpt lat="42.8538470" lon="-8.5736610">
        <ele>205.3</ele>
        <time>2019-08-18T07:31:30Z</time>
      </trkpt>
      <trkpt lat="42.8537710" lon="-8.5736210">
        <ele>204.9</ele>
        <time>2019-08-18T07:31:31Z</time>
      </trkpt>
      <trkpt lat="42.8537000" lon="-8.5735730">
        <ele>204.6</ele>
        <time>2019-08-18T07:31:32Z</time>
      </trkpt>
      <trkpt lat="42.8536230" lon="-8.5735180">
        <ele>204.3</ele>
        <time>2019-08-18T07:31:33Z</time>
      </trkpt>
      <trkpt lat="42.8535480" lon="-8.5734810">
        <ele>204.0</ele>
        <time>2019-08-18T07:31:34Z</time>
      </trkpt>
      <trkpt lat="42.8534750" lon="-8.5734290">
        <ele>203.8</ele>
        <time>2019-08-18T07:31:35Z</time>
      </trkpt>
      <trkpt lat="42.8533970" lon="-8.5733810">
        <ele>203.5</ele>
        <time>2019-08-18T07:31:36Z</time>
      </trkpt>
      <trkpt lat="42.8533210" lon="-8.5733230">
        <ele>203.3</ele>
        <time>2019-08-18T07:31:37Z</time>
      </trkpt>
      <trkpt lat="42.8532490" lon="-8.5732720">
        <ele>203.0</ele>
        <time>2019-08-18T07:31:38Z</time>
      </trkpt>
      <trkpt lat="42.8531870" lon="-8.5732240">
        <ele>202.9</ele>
        <time>2019-08-18T07:31:39Z</time>
      </trkpt>
      <trkpt lat="42.8531400" lon="-8.5731730">
        <ele>202.9</ele>
        <time>2019-08-18T07:31:40Z</time>
      </trkpt>
      <trkpt lat="42.8531220" lon="-8.5731300">
        <ele>202.9</ele>
        <time>2019-08-18T07:31:41Z</time>
      </trkpt>
      <trkpt lat="42.8531160" lon="-8.5730880">
        <ele>202.1</ele>
        <time>2019-08-18T07:31:42Z</time>
      </trkpt>
      <trkpt lat="42.8531470" lon="-8.5729970">
        <ele>200.8</ele>
        <time>2019-08-18T07:31:44Z</time>
      </trkpt>
      <trkpt lat="42.8532780" lon="-8.5728950">
        <ele>198.5</ele>
        <time>2019-08-18T07:31:48Z</time>
      </trkpt>
      <trkpt lat="42.8534530" lon="-8.5728230">
        <ele>197.0</ele>
        <time>2019-08-18T07:31:52Z</time>
      </trkpt>
      <trkpt lat="42.8534870" lon="-8.5728070">
        <ele>196.7</ele>
        <time>2019-08-18T07:31:53Z</time>
      </trkpt>
      <trkpt lat="42.8535280" lon="-8.5727890">
        <ele>196.5</ele>
        <time>2019-08-18T07:31:54Z</time>
      </trkpt>
      <trkpt lat="42.8535750" lon="-8.5727700">
        <ele>196.2</ele>
        <time>2019-08-18T07:31:55Z</time>
      </trkpt>
      <trkpt lat="42.8536200" lon="-8.5727580">
        <ele>195.9</ele>
        <time>2019-08-18T07:31:56Z</time>
      </trkpt>
      <trkpt lat="42.8537170" lon="-8.5727520">
        <ele>195.4</ele>
        <time>2019-08-18T07:31:58Z</time>
      </trkpt>
      <trkpt lat="42.8537650" lon="-8.5727690">
        <ele>195.2</ele>
        <time>2019-08-18T07:31:59Z</time>
      </trkpt>
      <trkpt lat="42.8539530" lon="-8.5728770">
        <ele>194.4</ele>
        <time>2019-08-18T07:32:03Z</time>
      </trkpt>
      <trkpt lat="42.8540260" lon="-8.5729250">
        <ele>194.1</ele>
        <time>2019-08-18T07:32:04Z</time>
      </trkpt>
      <trkpt lat="42.8542120" lon="-8.5730350">
        <ele>193.2</ele>
        <time>2019-08-18T07:32:07Z</time>
      </trkpt>
      <trkpt lat="42.8542790" lon="-8.5730330">
        <ele>192.8</ele>
        <time>2019-08-18T07:32:08Z</time>
      </trkpt>
      <trkpt lat="42.8543510" lon="-8.5730010">
        <ele>193.5</ele>
        <time>2019-08-18T07:32:09Z</time>
      </trkpt>
      <trkpt lat="42.8544260" lon="-8.5729810">
        <ele>193.9</ele>
        <time>2019-08-18T07:32:10Z</time>
      </trkpt>
      <trkpt lat="42.8544950" lon="-8.5729660">
        <ele>194.3</ele>
        <time>2019-08-18T07:32:11Z</time>
      </trkpt>
      <trkpt lat="42.8545610" lon="-8.5729520">
        <ele>194.6</ele>
        <time>2019-08-18T07:32:12Z</time>
      </trkpt>
      <trkpt lat="42.8546220" lon="-8.5729340">
        <ele>194.9</ele>
        <time>2019-08-18T07:32:13Z</time>
      </trkpt>
      <trkpt lat="42.8549590" lon="-8.5728800">
        <ele>196.5</ele>
        <time>2019-08-18T07:32:19Z</time>
      </trkpt>
      <trkpt lat="42.8554580" lon="-8.5727670">
        <ele>198.7</ele>
        <time>2019-08-18T07:32:28Z</time>
      </trkpt>
      <trkpt lat="42.8555190" lon="-8.5727520">
        <ele>198.7</ele>
        <time>2019-08-18T07:32:29Z</time>
      </trkpt>
      <trkpt lat="42.8555830" lon="-8.5727410">
        <ele>198.6</ele>
        <time>2019-08-18T07:32:30Z</time>
      </trkpt>
      <trkpt lat="42.8556490" lon="-8.5727340">
        <ele>198.5</ele>
        <time>2019-08-18T07:32:31Z</time>
      </trkpt>
      <trkpt lat="42.8557180" lon="-8.5727430">
        <ele>198.4</ele>
        <time>2019-08-18T07:32:32Z</time>
      </trkpt>
      <trkpt lat="42.8557780" lon="-8.5727580">
        <ele>198.4</ele>
        <time>2019-08-18T07:32:33Z</time>
      </trkpt>
      <trkpt lat="42.8559800" lon="-8.5729240">
        <ele>199.9</ele>
        <time>2019-08-18T07:32:37Z</time>
      </trkpt>
      <trkpt lat="42.8561200" lon="-8.5730540">
        <ele>200.9</ele>
        <time>2019-08-18T07:32:41Z</time>
      </trkpt>
      <trkpt lat="42.8562440" lon="-8.5732030">
        <ele>201.9</ele>
        <time>2019-08-18T07:32:47Z</time>
      </trkpt>
      <trkpt lat="42.8562710" lon="-8.5732570">
        <ele>202.2</ele>
        <time>2019-08-18T07:32:49Z</time>
      </trkpt>
      <trkpt lat="42.8563100" lon="-8.5733330">
        <ele>202.9</ele>
        <time>2019-08-18T07:32:52Z</time>
      </trkpt>
      <trkpt lat="42.8563820" lon="-8.5735190">
        <ele>204.1</ele>
        <time>2019-08-18T07:32:59Z</time>
      </trkpt>
      <trkpt lat="42.8563940" lon="-8.5735460">
        <ele>204.3</ele>
        <time>2019-08-18T07:33:00Z</time>
      </trkpt>
      <trkpt lat="42.8564060" lon="-8.5735730">
        <ele>204.5</ele>
        <time>2019-08-18T07:33:01Z</time>
      </trkpt>
      <trkpt lat="42.8564080" lon="-8.5736030">
        <ele>204.7</ele>
        <time>2019-08-18T07:33:02Z</time>
      </trkpt>
      <trkpt lat="42.8564130" lon="-8.5736330">
        <ele>204.9</ele>
        <time>2019-08-18T07:33:03Z</time>
      </trkpt>
      <trkpt lat="42.8564270" lon="-8.5737340">
        <ele>205.6</ele>
        <time>2019-08-18T07:33:07Z</time>
      </trkpt>
      <trkpt lat="42.8564340" lon="-8.5738290">
        <ele>206.3</ele>
        <time>2019-08-18T07:33:10Z</time>
      </trkpt>
      <trkpt lat="42.8564410" lon="-8.5738500">
        <ele>206.5</ele>
        <time>2019-08-18T07:33:11Z</time>
      </trkpt>
      <trkpt lat="42.8564460" lon="-8.5738740">
        <ele>206.7</ele>
        <time>2019-08-18T07:33:12Z</time>
      </trkpt>
      <trkpt lat="42.8564490" lon="-8.5739010">
        <ele>206.9</ele>
        <time>2019-08-18T07:33:13Z</time>
      </trkpt>
      <trkpt lat="42.8564490" lon="-8.5739290">
        <ele>207.1</ele>
        <time>2019-08-18T07:33:14Z</time>
      </trkpt>
      <trkpt lat="42.8564480" lon="-8.5739870">
        <ele>207.5</ele>
        <time>2019-08-18T07:33:16Z</time>
      </trkpt>
      <trkpt lat="42.8564490" lon="-8.5740150">
        <ele>207.7</ele>
        <time>2019-08-18T07:33:17Z</time>
      </trkpt>
      <trkpt lat="42.8564490" lon="-8.5740410">
        <ele>208.0</ele>
        <time>2019-08-18T07:33:18Z</time>
      </trkpt>
      <trkpt lat="42.8564500" lon="-8.5740690">
        <ele>208.3</ele>
        <time>2019-08-18T07:33:19Z</time>
      </trkpt>
      <trkpt lat="42.8564500" lon="-8.5740970">
        <ele>208.5</ele>
        <time>2019-08-18T07:33:20Z</time>
      </trkpt>
      <trkpt lat="42.8564530" lon="-8.5741240">
        <ele>208.8</ele>
        <time>2019-08-18T07:33:21Z</time>
      </trkpt>
      <trkpt lat="42.8564540" lon="-8.5742870">
        <ele>210.2</ele>
        <time>2019-08-18T07:33:27Z</time>
      </trkpt>
      <trkpt lat="42.8564580" lon="-8.5743140">
        <ele>210.5</ele>
        <time>2019-08-18T07:33:28Z</time>
      </trkpt>
      <trkpt lat="42.8564620" lon="-8.5743400">
        <ele>210.7</ele>
        <time>2019-08-18T07:33:29Z</time>
      </trkpt>
      <trkpt lat="42.8564640" lon="-8.5743650">
        <ele>210.9</ele>
        <time>2019-08-18T07:33:30Z</time>
      </trkpt>
      <trkpt lat="42.8564670" lon="-8.5743900">
        <ele>211.1</ele>
        <time>2019-08-18T07:33:31Z</time>
      </trkpt>
      <trkpt lat="42.8564670" lon="-8.5744160">
        <ele>211.4</ele>
        <time>2019-08-18T07:33:32Z</time>
      </trkpt>
      <trkpt lat="42.8564660" lon="-8.5744420">
        <ele>211.6</ele>
        <time>2019-08-18T07:33:33Z</time>
      </trkpt>
      <trkpt lat="42.8564640" lon="-8.5744680">
        <ele>211.8</ele>
        <time>2019-08-18T07:33:34Z</time>
      </trkpt>
      <trkpt lat="42.8564650" lon="-8.5744890">
        <ele>212.0</ele>
        <time>2019-08-18T07:33:35Z</time>
      </trkpt>
      <trkpt lat="42.8564670" lon="-8.5745140">
        <ele>212.3</ele>
        <time>2019-08-18T07:33:36Z</time>
      </trkpt>
      <trkpt lat="42.8564620" lon="-8.5746400">
        <ele>213.6</ele>
        <time>2019-08-18T07:33:41Z</time>
      </trkpt>
      <trkpt lat="42.8564650" lon="-8.5746650">
        <ele>213.9</ele>
        <time>2019-08-18T07:33:42Z</time>
      </trkpt>
      <trkpt lat="42.8564690" lon="-8.5746850">
        <ele>214.1</ele>
        <time>2019-08-18T07:33:43Z</time>
      </trkpt>
      <trkpt lat="42.8564740" lon="-8.5747090">
        <ele>214.3</ele>
        <time>2019-08-18T07:33:44Z</time>
      </trkpt>
      <trkpt lat="42.8564750" lon="-8.5747350">
        <ele>214.6</ele>
        <time>2019-08-18T07:33:45Z</time>
      </trkpt>
      <trkpt lat="42.8564890" lon="-8.5748320">
        <ele>215.7</ele>
        <time>2019-08-18T07:33:49Z</time>
      </trkpt>
      <trkpt lat="42.8564930" lon="-8.5748560">
        <ele>216.0</ele>
        <time>2019-08-18T07:33:50Z</time>
      </trkpt>
      <trkpt lat="42.8564980" lon="-8.5748820">
        <ele>216.3</ele>
        <time>2019-08-18T07:33:51Z</time>
      </trkpt>
      <trkpt lat="42.8565040" lon="-8.5749040">
        <ele>216.5</ele>
        <time>2019-08-18T07:33:52Z</time>
      </trkpt>
      <trkpt lat="42.8565120" lon="-8.5749270">
        <ele>216.8</ele>
        <time>2019-08-18T07:33:53Z</time>
      </trkpt>
      <trkpt lat="42.8565180" lon="-8.5749470">
        <ele>217.0</ele>
        <time>2019-08-18T07:33:54Z</time>
      </trkpt>
      <trkpt lat="42.8565250" lon="-8.5749730">
        <ele>217.2</ele>
        <time>2019-08-18T07:33:55Z</time>
      </trkpt>
      <trkpt lat="42.8565320" lon="-8.5749960">
        <ele>217.5</ele>
        <time>2019-08-18T07:33:56Z</time>
      </trkpt>
      <trkpt lat="42.8565400" lon="-8.5750170">
        <ele>217.7</ele>
        <time>2019-08-18T07:33:57Z</time>
      </trkpt>
      <trkpt lat="42.8565470" lon="-8.5750390">
        <ele>217.9</ele>
        <time>2019-08-18T07:33:58Z</time>
      </trkpt>
      <trkpt lat="42.8565620" lon="-8.5750850">
        <ele>218.3</ele>
        <time>2019-08-18T07:34:00Z</time>
      </trkpt>
      <trkpt lat="42.8566130" lon="-8.5751780">
        <ele>218.9</ele>
        <time>2019-08-18T07:34:05Z</time>
      </trkpt>
      <trkpt lat="42.8566300" lon="-8.5752160">
        <ele>219.2</ele>
        <time>2019-08-18T07:34:07Z</time>
      </trkpt>
      <trkpt lat="42.8566380" lon="-8.5752400">
        <ele>219.3</ele>
        <time>2019-08-18T07:34:08Z</time>
      </trkpt>
      <trkpt lat="42.8566480" lon="-8.5752650">
        <ele>219.4</ele>
        <time>2019-08-18T07:34:09Z</time>
      </trkpt>
      <trkpt lat="42.8566640" lon="-8.5752920">
        <ele>219.5</ele>
        <time>2019-08-18T07:34:10Z</time>
      </trkpt>
      <trkpt lat="42.8566840" lon="-8.5753070">
        <ele>219.5</ele>
        <time>2019-08-18T07:34:11Z</time>
      </trkpt>
      <trkpt lat="42.8567450" lon="-8.5753560">
        <ele>219.6</ele>
        <time>2019-08-18T07:34:14Z</time>
      </trkpt>
      <trkpt lat="42.8568930" lon="-8.5754080">
        <ele>219.6</ele>
        <time>2019-08-18T07:34:21Z</time>
      </trkpt>
      <trkpt lat="42.8571130" lon="-8.5754930">
        <ele>219.0</ele>
        <time>2019-08-18T07:34:28Z</time>
      </trkpt>
      <trkpt lat="42.8572790" lon="-8.5755750">
        <ele>218.3</ele>
        <time>2019-08-18T07:34:33Z</time>
      </trkpt>
      <trkpt lat="42.8573000" lon="-8.5755910">
        <ele>218.2</ele>
        <time>2019-08-18T07:34:34Z</time>
      </trkpt>
      <trkpt lat="42.8573240" lon="-8.5756090">
        <ele>218.0</ele>
        <time>2019-08-18T07:34:35Z</time>
      </trkpt>
      <trkpt lat="42.8573470" lon="-8.5756230">
        <ele>217.8</ele>
        <time>2019-08-18T07:34:36Z</time>
      </trkpt>
      <trkpt lat="42.8573640" lon="-8.5756410">
        <ele>217.6</ele>
        <time>2019-08-18T07:34:37Z</time>
      </trkpt>
      <trkpt lat="42.8574290" lon="-8.5756870">
        <ele>217.2</ele>
        <time>2019-08-18T07:34:41Z</time>
      </trkpt>
      <trkpt lat="42.8575190" lon="-8.5758100">
        <ele>216.5</ele>
        <time>2019-08-18T07:34:49Z</time>
      </trkpt>
      <trkpt lat="42.8575250" lon="-8.5758270">
        <ele>216.5</ele>
        <time>2019-08-18T07:34:53Z</time>
      </trkpt>
      <trkpt lat="42.8575290" lon="-8.5758290">
        <ele>216.5</ele>
        <time>2019-08-18T07:35:38Z</time>
      </trkpt>
      <trkpt lat="42.8575550" lon="-8.5758550">
        <ele>216.3</ele>
        <time>2019-08-18T07:35:40Z</time>
      </trkpt>
      <trkpt lat="42.8577110" lon="-8.5759780">
        <ele>215.6</ele>
        <time>2019-08-18T07:35:46Z</time>
      </trkpt>
      <trkpt lat="42.8578500" lon="-8.5761050">
        <ele>214.9</ele>
        <time>2019-08-18T07:35:51Z</time>
      </trkpt>
      <trkpt lat="42.8578810" lon="-8.5761380">
        <ele>214.8</ele>
        <time>2019-08-18T07:35:52Z</time>
      </trkpt>
      <trkpt lat="42.8579130" lon="-8.5761710">
        <ele>214.6</ele>
        <time>2019-08-18T07:35:53Z</time>
      </trkpt>
      <trkpt lat="42.8579490" lon="-8.5762110">
        <ele>214.2</ele>
        <time>2019-08-18T07:35:54Z</time>
      </trkpt>
      <trkpt lat="42.8579830" lon="-8.5762450">
        <ele>213.9</ele>
        <time>2019-08-18T07:35:55Z</time>
      </trkpt>
      <trkpt lat="42.8581380" lon="-8.5763940">
        <ele>212.9</ele>
        <time>2019-08-18T07:35:59Z</time>
      </trkpt>
      <trkpt lat="42.8581760" lon="-8.5764190">
        <ele>212.8</ele>
        <time>2019-08-18T07:36:00Z</time>
      </trkpt>
      <trkpt lat="42.8582160" lon="-8.5764520">
        <ele>212.7</ele>
        <time>2019-08-18T07:36:01Z</time>
      </trkpt>
      <trkpt lat="42.8582580" lon="-8.5764870">
        <ele>212.6</ele>
        <time>2019-08-18T07:36:02Z</time>
      </trkpt>
      <trkpt lat="42.8583060" lon="-8.5765210">
        <ele>212.4</ele>
        <time>2019-08-18T07:36:03Z</time>
      </trkpt>
      <trkpt lat="42.8583470" lon="-8.5765550">
        <ele>212.2</ele>
        <time>2019-08-18T07:36:04Z</time>
      </trkpt>
      <trkpt lat="42.8584340" lon="-8.5766370">
        <ele>211.8</ele>
        <time>2019-08-18T07:36:06Z</time>
      </trkpt>
      <trkpt lat="42.8586890" lon="-8.5769310">
        <ele>210.8</ele>
        <time>2019-08-18T07:36:12Z</time>
      </trkpt>
      <trkpt lat="42.8587230" lon="-8.5769910">
        <ele>210.5</ele>
        <time>2019-08-18T07:36:13Z</time>
      </trkpt>
      <trkpt lat="42.8587600" lon="-8.5770490">
        <ele>210.3</ele>
        <time>2019-08-18T07:36:14Z</time>
      </trkpt>
      <trkpt lat="42.8587980" lon="-8.5770970">
        <ele>210.1</ele>
        <time>2019-08-18T07:36:15Z</time>
      </trkpt>
      <trkpt lat="42.8588480" lon="-8.5771230">
        <ele>209.8</ele>
        <time>2019-08-18T07:36:16Z</time>
      </trkpt>
      <trkpt lat="42.8589500" lon="-8.5771330">
        <ele>209.4</ele>
        <time>2019-08-18T07:36:18Z</time>
      </trkpt>
      <trkpt lat="42.8591000" lon="-8.5771300">
        <ele>208.6</ele>
        <time>2019-08-18T07:36:21Z</time>
      </trkpt>
      <trkpt lat="42.8591840" lon="-8.5770950">
        <ele>207.8</ele>
        <time>2019-08-18T07:36:23Z</time>
      </trkpt>
      <trkpt lat="42.8592260" lon="-8.5770540">
        <ele>207.4</ele>
        <time>2019-08-18T07:36:24Z</time>
      </trkpt>
      <trkpt lat="42.8593450" lon="-8.5769490">
        <ele>206.4</ele>
        <time>2019-08-18T07:36:27Z</time>
      </trkpt>
      <trkpt lat="42.8593910" lon="-8.5769080">
        <ele>206.0</ele>
        <time>2019-08-18T07:36:28Z</time>
      </trkpt>
      <trkpt lat="42.8594430" lon="-8.5768670">
        <ele>205.5</ele>
        <time>2019-08-18T07:36:29Z</time>
      </trkpt>
      <trkpt lat="42.8594970" lon="-8.5768410">
        <ele>205.1</ele>
        <time>2019-08-18T07:36:30Z</time>
      </trkpt>
      <trkpt lat="42.8595530" lon="-8.5768060">
        <ele>204.6</ele>
        <time>2019-08-18T07:36:31Z</time>
      </trkpt>
      <trkpt lat="42.8596080" lon="-8.5767650">
        <ele>204.2</ele>
        <time>2019-08-18T07:36:32Z</time>
      </trkpt>
      <trkpt lat="42.8596600" lon="-8.5767280">
        <ele>203.9</ele>
        <time>2019-08-18T07:36:33Z</time>
      </trkpt>
      <trkpt lat="42.8598920" lon="-8.5766260">
        <ele>202.4</ele>
        <time>2019-08-18T07:36:38Z</time>
      </trkpt>
      <trkpt lat="42.8599200" lon="-8.5766300">
        <ele>202.2</ele>
        <time>2019-08-18T07:36:39Z</time>
      </trkpt>
      <trkpt lat="42.8599730" lon="-8.5766390">
        <ele>202.7</ele>
        <time>2019-08-18T07:36:42Z</time>
      </trkpt>
      <trkpt lat="42.8599900" lon="-8.5766640">
        <ele>203.2</ele>
        <time>2019-08-18T07:36:43Z</time>
      </trkpt>
      <trkpt lat="42.8600140" lon="-8.5767470">
        <ele>204.7</ele>
        <time>2019-08-18T07:36:47Z</time>
      </trkpt>
      <trkpt lat="42.8600480" lon="-8.5767880">
        <ele>205.7</ele>
        <time>2019-08-18T07:36:50Z</time>
      </trkpt>
      <trkpt lat="42.8601570" lon="-8.5768760">
        <ele>208.1</ele>
        <time>2019-08-18T07:36:57Z</time>
      </trkpt>
      <trkpt lat="42.8601750" lon="-8.5768850">
        <ele>208.1</ele>
        <time>2019-08-18T07:36:58Z</time>
      </trkpt>
      <trkpt lat="42.8601970" lon="-8.5769080">
        <ele>208.1</ele>
        <time>2019-08-18T07:36:59Z</time>
      </trkpt>
      <trkpt lat="42.8602130" lon="-8.5769270">
        <ele>208.1</ele>
        <time>2019-08-18T07:37:00Z</time>
      </trkpt>
      <trkpt lat="42.8602300" lon="-8.5769460">
        <ele>209.5</ele>
        <time>2019-08-18T07:37:01Z</time>
      </trkpt>
      <trkpt lat="42.8603180" lon="-8.5769980">
        <ele>210.9</ele>
        <time>2019-08-18T07:37:05Z</time>
      </trkpt>
      <trkpt lat="42.8604470" lon="-8.5770300">
        <ele>212.8</ele>
        <time>2019-08-18T07:37:12Z</time>
      </trkpt>
      <trkpt lat="42.8606000" lon="-8.5770680">
        <ele>215.0</ele>
        <time>2019-08-18T07:37:20Z</time>
      </trkpt>
      <trkpt lat="42.8608020" lon="-8.5771200">
        <ele>216.6</ele>
        <time>2019-08-18T07:37:28Z</time>
      </trkpt>
      <trkpt lat="42.8609810" lon="-8.5771510">
        <ele>216.8</ele>
        <time>2019-08-18T07:37:34Z</time>
      </trkpt>
      <trkpt lat="42.8610660" lon="-8.5771560">
        <ele>217.0</ele>
        <time>2019-08-18T07:37:37Z</time>
      </trkpt>
      <trkpt lat="42.8610960" lon="-8.5771510">
        <ele>217.1</ele>
        <time>2019-08-18T07:37:38Z</time>
      </trkpt>
      <trkpt lat="42.8611230" lon="-8.5771460">
        <ele>217.2</ele>
        <time>2019-08-18T07:37:39Z</time>
      </trkpt>
      <trkpt lat="42.8611540" lon="-8.5771450">
        <ele>217.4</ele>
        <time>2019-08-18T07:37:40Z</time>
      </trkpt>
      <trkpt lat="42.8611840" lon="-8.5771340">
        <ele>217.6</ele>
        <time>2019-08-18T07:37:41Z</time>
      </trkpt>
      <trkpt lat="42.8612670" lon="-8.5770860">
        <ele>218.2</ele>
        <time>2019-08-18T07:37:44Z</time>
      </trkpt>
      <trkpt lat="42.8613260" lon="-8.5770710">
        <ele>218.5</ele>
        <time>2019-08-18T07:37:46Z</time>
      </trkpt>
      <trkpt lat="42.8613510" lon="-8.5770530">
        <ele>218.6</ele>
        <time>2019-08-18T07:37:47Z</time>
      </trkpt>
      <trkpt lat="42.8613840" lon="-8.5770330">
        <ele>218.8</ele>
        <time>2019-08-18T07:37:48Z</time>
      </trkpt>
      <trkpt lat="42.8614080" lon="-8.5770150">
        <ele>219.0</ele>
        <time>2019-08-18T07:37:49Z</time>
      </trkpt>
      <trkpt lat="42.8614360" lon="-8.5769990">
        <ele>219.1</ele>
        <time>2019-08-18T07:37:50Z</time>
      </trkpt>
      <trkpt lat="42.8614640" lon="-8.5769830">
        <ele>219.3</ele>
        <time>2019-08-18T07:37:51Z</time>
      </trkpt>
      <trkpt lat="42.8616020" lon="-8.5767890">
        <ele>218.4</ele>
        <time>2019-08-18T07:37:59Z</time>
      </trkpt>
      <trkpt lat="42.8617280" lon="-8.5766500">
        <ele>217.4</ele>
        <time>2019-08-18T07:38:04Z</time>
      </trkpt>
      <trkpt lat="42.8618400" lon="-8.5764460">
        <ele>216.5</ele>
        <time>2019-08-18T07:38:10Z</time>
      </trkpt>
      <trkpt lat="42.8619840" lon="-8.5761840">
        <ele>215.5</ele>
        <time>2019-08-18T07:38:17Z</time>
      </trkpt>
      <trkpt lat="42.8620820" lon="-8.5760960">
        <ele>214.5</ele>
        <time>2019-08-18T07:38:20Z</time>
      </trkpt>
      <trkpt lat="42.8621170" lon="-8.5760640">
        <ele>213.9</ele>
        <time>2019-08-18T07:38:21Z</time>
      </trkpt>
      <trkpt lat="42.8621530" lon="-8.5760340">
        <ele>213.3</ele>
        <time>2019-08-18T07:38:22Z</time>
      </trkpt>
      <trkpt lat="42.8621900" lon="-8.5760000">
        <ele>212.8</ele>
        <time>2019-08-18T07:38:23Z</time>
      </trkpt>
      <trkpt lat="42.8622370" lon="-8.5759670">
        <ele>211.8</ele>
        <time>2019-08-18T07:38:24Z</time>
      </trkpt>
      <trkpt lat="42.8622800" lon="-8.5759350">
        <ele>210.9</ele>
        <time>2019-08-18T07:38:25Z</time>
      </trkpt>
      <trkpt lat="42.8623250" lon="-8.5759050">
        <ele>210.1</ele>
        <time>2019-08-18T07:38:26Z</time>
      </trkpt>
      <trkpt lat="42.8623750" lon="-8.5758910">
        <ele>209.2</ele>
        <time>2019-08-18T07:38:27Z</time>
      </trkpt>
      <trkpt lat="42.8624250" lon="-8.5758770">
        <ele>208.5</ele>
        <time>2019-08-18T07:38:28Z</time>
      </trkpt>
      <trkpt lat="42.8625610" lon="-8.5758390">
        <ele>207.0</ele>
        <time>2019-08-18T07:38:31Z</time>
      </trkpt>
      <trkpt lat="42.8626030" lon="-8.5758310">
        <ele>206.5</ele>
        <time>2019-08-18T07:38:32Z</time>
      </trkpt>
      <trkpt lat="42.8626440" lon="-8.5758240">
        <ele>206.1</ele>
        <time>2019-08-18T07:38:33Z</time>
      </trkpt>
      <trkpt lat="42.8626830" lon="-8.5758200">
        <ele>205.6</ele>
        <time>2019-08-18T07:38:34Z</time>
      </trkpt>
      <trkpt lat="42.8627260" lon="-8.5758210">
        <ele>205.1</ele>
        <time>2019-08-18T07:38:35Z</time>
      </trkpt>
      <trkpt lat="42.8629430" lon="-8.5758220">
        <ele>202.8</ele>
        <time>2019-08-18T07:38:40Z</time>
      </trkpt>
      <trkpt lat="42.8629880" lon="-8.5758120">
        <ele>202.3</ele>
        <time>2019-08-18T07:38:41Z</time>
      </trkpt>
      <trkpt lat="42.8630270" lon="-8.5757050">
        <ele>201.0</ele>
        <time>2019-08-18T07:38:43Z</time>
      </trkpt>
      <trkpt lat="42.8630270" lon="-8.5756270">
        <ele>200.3</ele>
        <time>2019-08-18T07:38:44Z</time>
      </trkpt>
      <trkpt lat="42.8630380" lon="-8.5755420">
        <ele>199.6</ele>
        <time>2019-08-18T07:38:45Z</time>
      </trkpt>
      <trkpt lat="42.8630500" lon="-8.5754470">
        <ele>198.7</ele>
        <time>2019-08-18T07:38:46Z</time>
      </trkpt>
      <trkpt lat="42.8630660" lon="-8.5753360">
        <ele>197.6</ele>
        <time>2019-08-18T07:38:47Z</time>
      </trkpt>
      <trkpt lat="42.8630800" lon="-8.5752220">
        <ele>196.6</ele>
        <time>2019-08-18T07:38:48Z</time>
      </trkpt>
      <trkpt lat="42.8630890" lon="-8.5751080">
        <ele>195.7</ele>
        <time>2019-08-18T07:38:49Z</time>
      </trkpt>
      <trkpt lat="42.8631050" lon="-8.5749960">
        <ele>194.9</ele>
        <time>2019-08-18T07:38:50Z</time>
      </trkpt>
      <trkpt lat="42.8631260" lon="-8.5748760">
        <ele>194.2</ele>
        <time>2019-08-18T07:38:51Z</time>
      </trkpt>
      <trkpt lat="42.8631530" lon="-8.5747530">
        <ele>193.7</ele>
        <time>2019-08-18T07:38:52Z</time>
      </trkpt>
      <trkpt lat="42.8631860" lon="-8.5746390">
        <ele>193.2</ele>
        <time>2019-08-18T07:38:53Z</time>
      </trkpt>
      <trkpt lat="42.8632270" lon="-8.5745200">
        <ele>192.9</ele>
        <time>2019-08-18T07:38:54Z</time>
      </trkpt>
      <trkpt lat="42.8632730" lon="-8.5744070">
        <ele>193.2</ele>
        <time>2019-08-18T07:38:55Z</time>
      </trkpt>
      <trkpt lat="42.8633190" lon="-8.5743080">
        <ele>193.5</ele>
        <time>2019-08-18T07:38:56Z</time>
      </trkpt>
      <trkpt lat="42.8633590" lon="-8.5742040">
        <ele>193.8</ele>
        <time>2019-08-18T07:38:57Z</time>
      </trkpt>
      <trkpt lat="42.8634490" lon="-8.5740210">
        <ele>194.4</ele>
        <time>2019-08-18T07:38:59Z</time>
      </trkpt>
      <trkpt lat="42.8634990" lon="-8.5739810">
        <ele>194.2</ele>
        <time>2019-08-18T07:39:00Z</time>
      </trkpt>
      <trkpt lat="42.8635410" lon="-8.5739530">
        <ele>194.1</ele>
        <time>2019-08-18T07:39:01Z</time>
      </trkpt>
      <trkpt lat="42.8635940" lon="-8.5739510">
        <ele>193.9</ele>
        <time>2019-08-18T07:39:02Z</time>
      </trkpt>
      <trkpt lat="42.8636480" lon="-8.5739570">
        <ele>193.7</ele>
        <time>2019-08-18T07:39:03Z</time>
      </trkpt>
      <trkpt lat="42.8637660" lon="-8.5740390">
        <ele>193.1</ele>
        <time>2019-08-18T07:39:06Z</time>
      </trkpt>
      <trkpt lat="42.8638940" lon="-8.5742290">
        <ele>192.2</ele>
        <time>2019-08-18T07:39:10Z</time>
      </trkpt>
      <trkpt lat="42.8639340" lon="-8.5742810">
        <ele>191.7</ele>
        <time>2019-08-18T07:39:11Z</time>
      </trkpt>
      <trkpt lat="42.8640180" lon="-8.5744190">
        <ele>190.5</ele>
        <time>2019-08-18T07:39:13Z</time>
      </trkpt>
      <trkpt lat="42.8640660" lon="-8.5744840">
        <ele>190.1</ele>
        <time>2019-08-18T07:39:14Z</time>
      </trkpt>
      <trkpt lat="42.8641160" lon="-8.5745510">
        <ele>189.6</ele>
        <time>2019-08-18T07:39:15Z</time>
      </trkpt>
      <trkpt lat="42.8641600" lon="-8.5746190">
        <ele>188.9</ele>
        <time>2019-08-18T07:39:16Z</time>
      </trkpt>
      <trkpt lat="42.8642050" lon="-8.5746910">
        <ele>188.5</ele>
        <time>2019-08-18T07:39:17Z</time>
      </trkpt>
      <trkpt lat="42.8642450" lon="-8.5747700">
        <ele>188.1</ele>
        <time>2019-08-18T07:39:18Z</time>
      </trkpt>
      <trkpt lat="42.8642930" lon="-8.5748530">
        <ele>187.5</ele>
        <time>2019-08-18T07:39:19Z</time>
      </trkpt>
      <trkpt lat="42.8643390" lon="-8.5749310">
        <ele>186.9</ele>
        <time>2019-08-18T07:39:20Z</time>
      </trkpt>
      <trkpt lat="42.8643830" lon="-8.5750040">
        <ele>186.6</ele>
        <time>2019-08-18T07:39:21Z</time>
      </trkpt>
      <trkpt lat="42.8644270" lon="-8.5750790">
        <ele>186.2</ele>
        <time>2019-08-18T07:39:22Z</time>
      </trkpt>
      <trkpt lat="42.8644720" lon="-8.5751580">
        <ele>185.7</ele>
        <time>2019-08-18T07:39:23Z</time>
      </trkpt>
      <trkpt lat="42.8645130" lon="-8.5752300">
        <ele>185.2</ele>
        <time>2019-08-18T07:39:24Z</time>
      </trkpt>
      <trkpt lat="42.8645570" lon="-8.5753090">
        <ele>184.7</ele>
        <time>2019-08-18T07:39:25Z</time>
      </trkpt>
      <trkpt lat="42.8646020" lon="-8.5753670">
        <ele>184.3</ele>
        <time>2019-08-18T07:39:26Z</time>
      </trkpt>
      <trkpt lat="42.8647590" lon="-8.5756310">
        <ele>182.0</ele>
        <time>2019-08-18T07:39:30Z</time>
      </trkpt>
      <trkpt lat="42.8649400" lon="-8.5759770">
        <ele>179.7</ele>
        <time>2019-08-18T07:39:36Z</time>
      </trkpt>
      <trkpt lat="42.8649720" lon="-8.5760130">
        <ele>179.4</ele>
        <time>2019-08-18T07:39:37Z</time>
      </trkpt>
      <trkpt lat="42.8650940" lon="-8.5758900">
        <ele>177.7</ele>
        <time>2019-08-18T07:39:40Z</time>
      </trkpt>
      <trkpt lat="42.8651360" lon="-8.5758110">
        <ele>176.9</ele>
        <time>2019-08-18T07:39:41Z</time>
      </trkpt>
      <trkpt lat="42.8651900" lon="-8.5757410">
        <ele>176.3</ele>
        <time>2019-08-18T07:39:42Z</time>
      </trkpt>
      <trkpt lat="42.8652470" lon="-8.5756510">
        <ele>175.6</ele>
        <time>2019-08-18T07:39:43Z</time>
      </trkpt>
      <trkpt lat="42.8653080" lon="-8.5755550">
        <ele>174.7</ele>
        <time>2019-08-18T07:39:44Z</time>
      </trkpt>
      <trkpt lat="42.8653920" lon="-8.5754780">
        <ele>173.5</ele>
        <time>2019-08-18T07:39:45Z</time>
      </trkpt>
      <trkpt lat="42.8654670" lon="-8.5754100">
        <ele>172.6</ele>
        <time>2019-08-18T07:39:46Z</time>
      </trkpt>
      <trkpt lat="42.8655410" lon="-8.5753490">
        <ele>171.8</ele>
        <time>2019-08-18T07:39:47Z</time>
      </trkpt>
      <trkpt lat="42.8656040" lon="-8.5752890">
        <ele>171.1</ele>
        <time>2019-08-18T07:39:48Z</time>
      </trkpt>
      <trkpt lat="42.8656680" lon="-8.5752320">
        <ele>170.2</ele>
        <time>2019-08-18T07:39:49Z</time>
      </trkpt>
      <trkpt lat="42.8657520" lon="-8.5751590">
        <ele>168.6</ele>
        <time>2019-08-18T07:39:50Z</time>
      </trkpt>
      <trkpt lat="42.8658130" lon="-8.5751150">
        <ele>167.3</ele>
        <time>2019-08-18T07:39:51Z</time>
      </trkpt>
      <trkpt lat="42.8658770" lon="-8.5750710">
        <ele>165.8</ele>
        <time>2019-08-18T07:39:52Z</time>
      </trkpt>
      <trkpt lat="42.8659320" lon="-8.5750130">
        <ele>164.9</ele>
        <time>2019-08-18T07:39:53Z</time>
      </trkpt>
      <trkpt lat="42.8659650" lon="-8.5749200">
        <ele>164.8</ele>
        <time>2019-08-18T07:39:54Z</time>
      </trkpt>
      <trkpt lat="42.8660080" lon="-8.5748190">
        <ele>164.8</ele>
        <time>2019-08-18T07:39:55Z</time>
      </trkpt>
      <trkpt lat="42.8660240" lon="-8.5747150">
        <ele>164.8</ele>
        <time>2019-08-18T07:39:56Z</time>
      </trkpt>
      <trkpt lat="42.8660400" lon="-8.5746140">
        <ele>164.8</ele>
        <time>2019-08-18T07:39:57Z</time>
      </trkpt>
      <trkpt lat="42.8660520" lon="-8.5745190">
        <ele>164.8</ele>
        <time>2019-08-18T07:39:58Z</time>
      </trkpt>
      <trkpt lat="42.8660660" lon="-8.5744260">
        <ele>164.7</ele>
        <time>2019-08-18T07:39:59Z</time>
      </trkpt>
      <trkpt lat="42.8660860" lon="-8.5743270">
        <ele>164.7</ele>
        <time>2019-08-18T07:40:00Z</time>
      </trkpt>
      <trkpt lat="42.8661090" lon="-8.5742170">
        <ele>164.6</ele>
        <time>2019-08-18T07:40:01Z</time>
      </trkpt>
      <trkpt lat="42.8661140" lon="-8.5741110">
        <ele>164.5</ele>
        <time>2019-08-18T07:40:02Z</time>
      </trkpt>
      <trkpt lat="42.8661140" lon="-8.5740030">
        <ele>164.3</ele>
        <time>2019-08-18T07:40:03Z</time>
      </trkpt>
      <trkpt lat="42.8661090" lon="-8.5738960">
        <ele>164.1</ele>
        <time>2019-08-18T07:40:04Z</time>
      </trkpt>
      <trkpt lat="42.8660950" lon="-8.5737870">
        <ele>163.9</ele>
        <time>2019-08-18T07:40:05Z</time>
      </trkpt>
      <trkpt lat="42.8660730" lon="-8.5736860">
        <ele>163.7</ele>
        <time>2019-08-18T07:40:06Z</time>
      </trkpt>
      <trkpt lat="42.8660390" lon="-8.5735920">
        <ele>163.5</ele>
        <time>2019-08-18T07:40:07Z</time>
      </trkpt>
      <trkpt lat="42.8660080" lon="-8.5734960">
        <ele>163.3</ele>
        <time>2019-08-18T07:40:08Z</time>
      </trkpt>
      <trkpt lat="42.8658900" lon="-8.5732010">
        <ele>162.6</ele>
        <time>2019-08-18T07:40:11Z</time>
      </trkpt>
      <trkpt lat="42.8658530" lon="-8.5730900">
        <ele>162.3</ele>
        <time>2019-08-18T07:40:12Z</time>
      </trkpt>
      <trkpt lat="42.8658130" lon="-8.5729840">
        <ele>162.1</ele>
        <time>2019-08-18T07:40:13Z</time>
      </trkpt>
      <trkpt lat="42.8657750" lon="-8.5728770">
        <ele>162.0</ele>
        <time>2019-08-18T07:40:14Z</time>
      </trkpt>
      <trkpt lat="42.8657340" lon="-8.5727860">
        <ele>161.8</ele>
        <time>2019-08-18T07:40:15Z</time>
      </trkpt>
      <trkpt lat="42.8656250" lon="-8.5725390">
        <ele>161.3</ele>
        <time>2019-08-18T07:40:18Z</time>
      </trkpt>
      <trkpt lat="42.8655970" lon="-8.5724220">
        <ele>161.5</ele>
        <time>2019-08-18T07:40:20Z</time>
      </trkpt>
      <trkpt lat="42.8656000" lon="-8.5723580">
        <ele>161.7</ele>
        <time>2019-08-18T07:40:21Z</time>
      </trkpt>
      <trkpt lat="42.8657040" lon="-8.5722610">
        <ele>162.5</ele>
        <time>2019-08-18T07:40:24Z</time>
      </trkpt>
      <trkpt lat="42.8657390" lon="-8.5722300">
        <ele>162.8</ele>
        <time>2019-08-18T07:40:25Z</time>
      </trkpt>
      <trkpt lat="42.8658030" lon="-8.5719760">
        <ele>163.3</ele>
        <time>2019-08-18T07:40:31Z</time>
      </trkpt>
      <trkpt lat="42.8657760" lon="-8.5717560">
        <ele>163.3</ele>
        <time>2019-08-18T07:40:36Z</time>
      </trkpt>
      <trkpt lat="42.8657780" lon="-8.5717160">
        <ele>163.3</ele>
        <time>2019-08-18T07:40:37Z</time>
      </trkpt>
      <trkpt lat="42.8658110" lon="-8.5715680">
        <ele>163.4</ele>
        <time>2019-08-18T07:40:43Z</time>
      </trkpt>
      <trkpt lat="42.8658120" lon="-8.5715010">
        <ele>163.5</ele>
        <time>2019-08-18T07:40:50Z</time>
      </trkpt>
      <trkpt lat="42.8658120" lon="-8.5714980">
        <ele>163.5</ele>
        <time>2019-08-18T07:40:51Z</time>
      </trkpt>
      <trkpt lat="42.8658150" lon="-8.5714660">
        <ele>163.5</ele>
        <time>2019-08-18T07:42:36Z</time>
      </trkpt>
      <trkpt lat="42.8658120" lon="-8.5714420">
        <ele>163.5</ele>
        <time>2019-08-18T07:42:39Z</time>
      </trkpt>
      <trkpt lat="42.8657070" lon="-8.5713160">
        <ele>163.7</ele>
        <time>2019-08-18T07:42:56Z</time>
      </trkpt>
      <trkpt lat="42.8656500" lon="-8.5712410">
        <ele>163.8</ele>
        <time>2019-08-18T07:42:59Z</time>
      </trkpt>
      <trkpt lat="42.8656310" lon="-8.5712130">
        <ele>163.9</ele>
        <time>2019-08-18T07:43:00Z</time>
      </trkpt>
      <trkpt lat="42.8656170" lon="-8.5711980">
        <ele>163.9</ele>
        <time>2019-08-18T07:43:01Z</time>
      </trkpt>
      <trkpt lat="42.8656060" lon="-8.5711800">
        <ele>163.9</ele>
        <time>2019-08-18T07:43:02Z</time>
      </trkpt>
      <trkpt lat="42.8655850" lon="-8.5711430">
        <ele>164.0</ele>
        <time>2019-08-18T07:43:03Z</time>
      </trkpt>
      <trkpt lat="42.8654500" lon="-8.5710200">
        <ele>164.6</ele>
        <time>2019-08-18T07:43:11Z</time>
      </trkpt>
      <trkpt lat="42.8654080" lon="-8.5709890">
        <ele>164.8</ele>
        <time>2019-08-18T07:43:13Z</time>
      </trkpt>
      <trkpt lat="42.8653710" lon="-8.5709670">
        <ele>164.9</ele>
        <time>2019-08-18T07:43:15Z</time>
      </trkpt>
      <trkpt lat="42.8653500" lon="-8.5709520">
        <ele>165.0</ele>
        <time>2019-08-18T07:43:16Z</time>
      </trkpt>
      <trkpt lat="42.8653380" lon="-8.5709290">
        <ele>165.1</ele>
        <time>2019-08-18T07:43:17Z</time>
      </trkpt>
      <trkpt lat="42.8653230" lon="-8.5709020">
        <ele>165.2</ele>
        <time>2019-08-18T07:43:18Z</time>
      </trkpt>
      <trkpt lat="42.8653100" lon="-8.5708800">
        <ele>165.3</ele>
        <time>2019-08-18T07:43:19Z</time>
      </trkpt>
      <trkpt lat="42.8652090" lon="-8.5707290">
        <ele>166.0</ele>
        <time>2019-08-18T07:43:26Z</time>
      </trkpt>
      <trkpt lat="42.8651990" lon="-8.5706900">
        <ele>166.1</ele>
        <time>2019-08-18T07:43:27Z</time>
      </trkpt>
      <trkpt lat="42.8651470" lon="-8.5705760">
        <ele>166.4</ele>
        <time>2019-08-18T07:43:31Z</time>
      </trkpt>
      <trkpt lat="42.8651320" lon="-8.5705480">
        <ele>166.5</ele>
        <time>2019-08-18T07:43:32Z</time>
      </trkpt>
      <trkpt lat="42.8651180" lon="-8.5705170">
        <ele>166.6</ele>
        <time>2019-08-18T07:43:33Z</time>
      </trkpt>
      <trkpt lat="42.8651060" lon="-8.5704940">
        <ele>166.6</ele>
        <time>2019-08-18T07:43:34Z</time>
      </trkpt>
      <trkpt lat="42.8650920" lon="-8.5704660">
        <ele>166.7</ele>
        <time>2019-08-18T07:43:35Z</time>
      </trkpt>
      <trkpt lat="42.8650140" lon="-8.5703400">
        <ele>167.1</ele>
        <time>2019-08-18T07:43:40Z</time>
      </trkpt>
      <trkpt lat="42.8649330" lon="-8.5702440">
        <ele>167.6</ele>
        <time>2019-08-18T07:43:45Z</time>
      </trkpt>
      <trkpt lat="42.8649140" lon="-8.5702170">
        <ele>167.7</ele>
        <time>2019-08-18T07:43:46Z</time>
      </trkpt>
      <trkpt lat="42.8649000" lon="-8.5701960">
        <ele>167.8</ele>
        <time>2019-08-18T07:43:47Z</time>
      </trkpt>
      <trkpt lat="42.8648850" lon="-8.5701810">
        <ele>167.9</ele>
        <time>2019-08-18T07:43:48Z</time>
      </trkpt>
      <trkpt lat="42.8648640" lon="-8.5701750">
        <ele>168.0</ele>
        <time>2019-08-18T07:43:49Z</time>
      </trkpt>
      <trkpt lat="42.8647150" lon="-8.5700180">
        <ele>167.2</ele>
        <time>2019-08-18T07:43:57Z</time>
      </trkpt>
      <trkpt lat="42.8645180" lon="-8.5698870">
        <ele>166.6</ele>
        <time>2019-08-18T07:44:04Z</time>
      </trkpt>
      <trkpt lat="42.8643660" lon="-8.5698590">
        <ele>166.7</ele>
        <time>2019-08-18T07:44:07Z</time>
      </trkpt>
      <trkpt lat="42.8643220" lon="-8.5698600">
        <ele>166.8</ele>
        <time>2019-08-18T07:44:08Z</time>
      </trkpt>
      <trkpt lat="42.8642790" lon="-8.5698470">
        <ele>166.8</ele>
        <time>2019-08-18T07:44:09Z</time>
      </trkpt>
      <trkpt lat="42.8642390" lon="-8.5698460">
        <ele>166.9</ele>
        <time>2019-08-18T07:44:10Z</time>
      </trkpt>
      <trkpt lat="42.8641980" lon="-8.5698450">
        <ele>167.0</ele>
        <time>2019-08-18T07:44:11Z</time>
      </trkpt>
      <trkpt lat="42.8641330" lon="-8.5698750">
        <ele>167.1</ele>
        <time>2019-08-18T07:44:13Z</time>
      </trkpt>
      <trkpt lat="42.8638910" lon="-8.5700420">
        <ele>168.0</ele>
        <time>2019-08-18T07:44:20Z</time>
      </trkpt>
      <trkpt lat="42.8638360" lon="-8.5700710">
        <ele>168.3</ele>
        <time>2019-08-18T07:44:23Z</time>
      </trkpt>
      <trkpt lat="42.8638200" lon="-8.5700760">
        <ele>168.3</ele>
        <time>2019-08-18T07:44:24Z</time>
      </trkpt>
      <trkpt lat="42.8638020" lon="-8.5700830">
        <ele>168.4</ele>
        <time>2019-08-18T07:44:25Z</time>
      </trkpt>
      <trkpt lat="42.8637860" lon="-8.5700910">
        <ele>168.5</ele>
        <time>2019-08-18T07:44:26Z</time>
      </trkpt>
      <trkpt lat="42.8637680" lon="-8.5701010">
        <ele>168.6</ele>
        <time>2019-08-18T07:44:27Z</time>
      </trkpt>
      <trkpt lat="42.8635900" lon="-8.5700720">
        <ele>169.1</ele>
        <time>2019-08-18T07:44:34Z</time>
      </trkpt>
      <trkpt lat="42.8634940" lon="-8.5700820">
        <ele>169.5</ele>
        <time>2019-08-18T07:44:38Z</time>
      </trkpt>
      <trkpt lat="42.8634740" lon="-8.5700780">
        <ele>169.6</ele>
        <time>2019-08-18T07:44:39Z</time>
      </trkpt>
      <trkpt lat="42.8634440" lon="-8.5700730">
        <ele>169.7</ele>
        <time>2019-08-18T07:44:40Z</time>
      </trkpt>
      <trkpt lat="42.8634160" lon="-8.5700700">
        <ele>169.8</ele>
        <time>2019-08-18T07:44:41Z</time>
      </trkpt>
      <trkpt lat="42.8633890" lon="-8.5700690">
        <ele>169.9</ele>
        <time>2019-08-18T07:44:42Z</time>
      </trkpt>
      <trkpt lat="42.8631940" lon="-8.5700370">
        <ele>170.3</ele>
        <time>2019-08-18T07:44:48Z</time>
      </trkpt>
      <trkpt lat="42.8630010" lon="-8.5700470">
        <ele>170.6</ele>
        <time>2019-08-18T07:44:54Z</time>
      </trkpt>
      <trkpt lat="42.8628100" lon="-8.5700270">
        <ele>170.9</ele>
        <time>2019-08-18T07:45:00Z</time>
      </trkpt>
      <trkpt lat="42.8626050" lon="-8.5699400">
        <ele>171.8</ele>
        <time>2019-08-18T07:45:08Z</time>
      </trkpt>
      <trkpt lat="42.8625140" lon="-8.5699180">
        <ele>172.3</ele>
        <time>2019-08-18T07:45:12Z</time>
      </trkpt>
      <trkpt lat="42.8624960" lon="-8.5699170">
        <ele>172.4</ele>
        <time>2019-08-18T07:45:13Z</time>
      </trkpt>
      <trkpt lat="42.8624770" lon="-8.5699010">
        <ele>172.6</ele>
        <time>2019-08-18T07:45:14Z</time>
      </trkpt>
      <trkpt lat="42.8624630" lon="-8.5698860">
        <ele>172.7</ele>
        <time>2019-08-18T07:45:15Z</time>
      </trkpt>
      <trkpt lat="42.8624430" lon="-8.5698760">
        <ele>172.9</ele>
        <time>2019-08-18T07:45:16Z</time>
      </trkpt>
      <trkpt lat="42.8623460" lon="-8.5697780">
        <ele>173.6</ele>
        <time>2019-08-18T07:45:21Z</time>
      </trkpt>
      <trkpt lat="42.8623230" lon="-8.5697560">
        <ele>173.7</ele>
        <time>2019-08-18T07:45:22Z</time>
      </trkpt>
      <trkpt lat="42.8623050" lon="-8.5697500">
        <ele>173.9</ele>
        <time>2019-08-18T07:45:23Z</time>
      </trkpt>
      <trkpt lat="42.8622830" lon="-8.5697410">
        <ele>174.1</ele>
        <time>2019-08-18T07:45:24Z</time>
      </trkpt>
      <trkpt lat="42.8622620" lon="-8.5697350">
        <ele>174.3</ele>
        <time>2019-08-18T07:45:25Z</time>
      </trkpt>
      <trkpt lat="42.8622060" lon="-8.5697220">
        <ele>175.0</ele>
        <time>2019-08-18T07:45:28Z</time>
      </trkpt>
      <trkpt lat="42.8621810" lon="-8.5697250">
        <ele>175.2</ele>
        <time>2019-08-18T07:45:29Z</time>
      </trkpt>
      <trkpt lat="42.8621540" lon="-8.5697320">
        <ele>175.5</ele>
        <time>2019-08-18T07:45:30Z</time>
      </trkpt>
      <trkpt lat="42.8621320" lon="-8.5697440">
        <ele>175.7</ele>
        <time>2019-08-18T07:45:31Z</time>
      </trkpt>
      <trkpt lat="42.8621100" lon="-8.5697550">
        <ele>176.0</ele>
        <time>2019-08-18T07:45:32Z</time>
      </trkpt>
      <trkpt lat="42.8620870" lon="-8.5697580">
        <ele>176.2</ele>
        <time>2019-08-18T07:45:33Z</time>
      </trkpt>
      <trkpt lat="42.8620620" lon="-8.5697620">
        <ele>176.4</ele>
        <time>2019-08-18T07:45:34Z</time>
      </trkpt>
      <trkpt lat="42.8620040" lon="-8.5697810">
        <ele>176.8</ele>
        <time>2019-08-18T07:45:37Z</time>
      </trkpt>
      <trkpt lat="42.8619970" lon="-8.5697800">
        <ele>176.8</ele>
        <time>2019-08-18T07:45:38Z</time>
      </trkpt>
      <trkpt lat="42.8619770" lon="-8.5697850">
        <ele>176.9</ele>
        <time>2019-08-18T07:45:39Z</time>
      </trkpt>
      <trkpt lat="42.8619610" lon="-8.5697890">
        <ele>176.9</ele>
        <time>2019-08-18T07:45:40Z</time>
      </trkpt>
      <trkpt lat="42.8619410" lon="-8.5697890">
        <ele>176.9</ele>
        <time>2019-08-18T07:45:41Z</time>
      </trkpt>
      <trkpt lat="42.8618080" lon="-8.5697990">
        <ele>176.8</ele>
        <time>2019-08-18T07:45:46Z</time>
      </trkpt>
      <trkpt lat="42.8617690" lon="-8.5696700">
        <ele>176.7</ele>
        <time>2019-08-18T07:45:48Z</time>
      </trkpt>
      <trkpt lat="42.8617570" lon="-8.5696450">
        <ele>176.6</ele>
        <time>2019-08-18T07:45:49Z</time>
      </trkpt>
      <trkpt lat="42.8617440" lon="-8.5696190">
        <ele>176.6</ele>
        <time>2019-08-18T07:45:50Z</time>
      </trkpt>
      <trkpt lat="42.8617320" lon="-8.5695940">
        <ele>176.6</ele>
        <time>2019-08-18T07:45:51Z</time>
      </trkpt>
      <trkpt lat="42.8617190" lon="-8.5695680">
        <ele>176.5</ele>
        <time>2019-08-18T07:45:52Z</time>
      </trkpt>
      <trkpt lat="42.8617470" lon="-8.5695310">
        <ele>176.5</ele>
        <time>2019-08-18T07:45:54Z</time>
      </trkpt>
      <trkpt lat="42.8617450" lon="-8.5695230">
        <ele>176.5</ele>
        <time>2019-08-18T07:45:55Z</time>
      </trkpt>
      <trkpt lat="42.8617640" lon="-8.5694930">
        <ele>177.0</ele>
        <time>2019-08-18T07:45:58Z</time>
      </trkpt>
      <trkpt lat="42.8617700" lon="-8.5694690">
        <ele>177.2</ele>
        <time>2019-08-18T07:45:59Z</time>
      </trkpt>
      <trkpt lat="42.8617860" lon="-8.5694380">
        <ele>177.4</ele>
        <time>2019-08-18T07:46:00Z</time>
      </trkpt>
      <trkpt lat="42.8618000" lon="-8.5694150">
        <ele>177.7</ele>
        <time>2019-08-18T07:46:01Z</time>
      </trkpt>
      <trkpt lat="42.8618370" lon="-8.5693070">
        <ele>178.5</ele>
        <time>2019-08-18T07:46:04Z</time>
      </trkpt>
      <trkpt lat="42.8618540" lon="-8.5692660">
        <ele>178.8</ele>
        <time>2019-08-18T07:46:05Z</time>
      </trkpt>
      <trkpt lat="42.8618670" lon="-8.5692370">
        <ele>179.0</ele>
        <time>2019-08-18T07:46:06Z</time>
      </trkpt>
      <trkpt lat="42.8618740" lon="-8.5692140">
        <ele>179.1</ele>
        <time>2019-08-18T07:46:07Z</time>
      </trkpt>
      <trkpt lat="42.8618810" lon="-8.5691920">
        <ele>179.2</ele>
        <time>2019-08-18T07:46:08Z</time>
      </trkpt>
      <trkpt lat="42.8619130" lon="-8.5691100">
        <ele>179.6</ele>
        <time>2019-08-18T07:46:11Z</time>
      </trkpt>
      <trkpt lat="42.8619850" lon="-8.5690430">
        <ele>180.1</ele>
        <time>2019-08-18T07:46:16Z</time>
      </trkpt>
      <trkpt lat="42.8620010" lon="-8.5690290">
        <ele>180.2</ele>
        <time>2019-08-18T07:46:17Z</time>
      </trkpt>
      <trkpt lat="42.8620140" lon="-8.5690080">
        <ele>180.3</ele>
        <time>2019-08-18T07:46:18Z</time>
      </trkpt>
      <trkpt lat="42.8620370" lon="-8.5689790">
        <ele>180.6</ele>
        <time>2019-08-18T07:46:19Z</time>
      </trkpt>
      <trkpt lat="42.8620500" lon="-8.5689560">
        <ele>180.8</ele>
        <time>2019-08-18T07:46:20Z</time>
      </trkpt>
      <trkpt lat="42.8620630" lon="-8.5689250">
        <ele>181.1</ele>
        <time>2019-08-18T07:46:21Z</time>
      </trkpt>
      <trkpt lat="42.8620800" lon="-8.5688980">
        <ele>181.3</ele>
        <time>2019-08-18T07:46:22Z</time>
      </trkpt>
      <trkpt lat="42.8622010" lon="-8.5686570">
        <ele>182.3</ele>
        <time>2019-08-18T07:46:30Z</time>
      </trkpt>
      <trkpt lat="42.8623480" lon="-8.5683680">
        <ele>182.5</ele>
        <time>2019-08-18T07:46:39Z</time>
      </trkpt>
      <trkpt lat="42.8624290" lon="-8.5681060">
        <ele>182.6</ele>
        <time>2019-08-18T07:46:46Z</time>
      </trkpt>
      <trkpt lat="42.8624040" lon="-8.5678040">
        <ele>183.4</ele>
        <time>2019-08-18T07:46:53Z</time>
      </trkpt>
      <trkpt lat="42.8623940" lon="-8.5677590">
        <ele>183.5</ele>
        <time>2019-08-18T07:46:54Z</time>
      </trkpt>
      <trkpt lat="42.8623840" lon="-8.5677230">
        <ele>183.6</ele>
        <time>2019-08-18T07:46:55Z</time>
      </trkpt>
      <trkpt lat="42.8623740" lon="-8.5676850">
        <ele>183.8</ele>
        <time>2019-08-18T07:46:56Z</time>
      </trkpt>
      <trkpt lat="42.8623650" lon="-8.5676470">
        <ele>183.9</ele>
        <time>2019-08-18T07:46:57Z</time>
      </trkpt>
      <trkpt lat="42.8623610" lon="-8.5676100">
        <ele>184.0</ele>
        <time>2019-08-18T07:46:58Z</time>
      </trkpt>
      <trkpt lat="42.8623580" lon="-8.5675060">
        <ele>184.2</ele>
        <time>2019-08-18T07:47:01Z</time>
      </trkpt>
      <trkpt lat="42.8624170" lon="-8.5673960">
        <ele>184.4</ele>
        <time>2019-08-18T07:47:06Z</time>
      </trkpt>
      <trkpt lat="42.8623720" lon="-8.5671950">
        <ele>184.2</ele>
        <time>2019-08-18T07:47:12Z</time>
      </trkpt>
      <trkpt lat="42.8624940" lon="-8.5669360">
        <ele>184.2</ele>
        <time>2019-08-18T07:47:18Z</time>
      </trkpt>
      <trkpt lat="42.8627110" lon="-8.5667090">
        <ele>184.2</ele>
        <time>2019-08-18T07:47:25Z</time>
      </trkpt>
      <trkpt lat="42.8629770" lon="-8.5665210">
        <ele>184.4</ele>
        <time>2019-08-18T07:47:33Z</time>
      </trkpt>
      <trkpt lat="42.8631210" lon="-8.5663520">
        <ele>185.2</ele>
        <time>2019-08-18T07:47:39Z</time>
      </trkpt>
      <trkpt lat="42.8631300" lon="-8.5663240">
        <ele>185.3</ele>
        <time>2019-08-18T07:47:40Z</time>
      </trkpt>
      <trkpt lat="42.8631480" lon="-8.5662890">
        <ele>185.5</ele>
        <time>2019-08-18T07:47:41Z</time>
      </trkpt>
      <trkpt lat="42.8631610" lon="-8.5662520">
        <ele>185.8</ele>
        <time>2019-08-18T07:47:42Z</time>
      </trkpt>
      <trkpt lat="42.8631750" lon="-8.5662090">
        <ele>186.0</ele>
        <time>2019-08-18T07:47:43Z</time>
      </trkpt>
      <trkpt lat="42.8632390" lon="-8.5660690">
        <ele>186.7</ele>
        <time>2019-08-18T07:47:47Z</time>
      </trkpt>
      <trkpt lat="42.8632540" lon="-8.5659870">
        <ele>187.1</ele>
        <time>2019-08-18T07:47:49Z</time>
      </trkpt>
      <trkpt lat="42.8632630" lon="-8.5659510">
        <ele>187.3</ele>
        <time>2019-08-18T07:47:50Z</time>
      </trkpt>
      <trkpt lat="42.8632670" lon="-8.5659160">
        <ele>187.4</ele>
        <time>2019-08-18T07:47:51Z</time>
      </trkpt>
      <trkpt lat="42.8632740" lon="-8.5658730">
        <ele>187.7</ele>
        <time>2019-08-18T07:47:52Z</time>
      </trkpt>
      <trkpt lat="42.8632840" lon="-8.5658360">
        <ele>188.0</ele>
        <time>2019-08-18T07:47:53Z</time>
      </trkpt>
      <trkpt lat="42.8633400" lon="-8.5656970">
        <ele>188.6</ele>
        <time>2019-08-18T07:47:58Z</time>
      </trkpt>
      <trkpt lat="42.8633550" lon="-8.5656620">
        <ele>188.7</ele>
        <time>2019-08-18T07:47:59Z</time>
      </trkpt>
      <trkpt lat="42.8633710" lon="-8.5656330">
        <ele>188.9</ele>
        <time>2019-08-18T07:48:00Z</time>
      </trkpt>
      <trkpt lat="42.8633840" lon="-8.5656060">
        <ele>189.1</ele>
        <time>2019-08-18T07:48:01Z</time>
      </trkpt>
      <trkpt lat="42.8634110" lon="-8.5655890">
        <ele>189.3</ele>
        <time>2019-08-18T07:48:02Z</time>
      </trkpt>
      <trkpt lat="42.8634310" lon="-8.5655630">
        <ele>189.5</ele>
        <time>2019-08-18T07:48:03Z</time>
      </trkpt>
      <trkpt lat="42.8635260" lon="-8.5654020">
        <ele>190.5</ele>
        <time>2019-08-18T07:48:09Z</time>
      </trkpt>
      <trkpt lat="42.8635440" lon="-8.5653790">
        <ele>190.6</ele>
        <time>2019-08-18T07:48:10Z</time>
      </trkpt>
      <trkpt lat="42.8635620" lon="-8.5653560">
        <ele>190.8</ele>
        <time>2019-08-18T07:48:11Z</time>
      </trkpt>
      <trkpt lat="42.8635800" lon="-8.5653340">
        <ele>191.1</ele>
        <time>2019-08-18T07:48:12Z</time>
      </trkpt>
      <trkpt lat="42.8636050" lon="-8.5653150">
        <ele>191.5</ele>
        <time>2019-08-18T07:48:13Z</time>
      </trkpt>
      <trkpt lat="42.8636900" lon="-8.5652730">
        <ele>192.7</ele>
        <time>2019-08-18T07:48:16Z</time>
      </trkpt>
      <trkpt lat="42.8637580" lon="-8.5652400">
        <ele>193.2</ele>
        <time>2019-08-18T07:48:18Z</time>
      </trkpt>
      <trkpt lat="42.8639390" lon="-8.5651270">
        <ele>194.3</ele>
        <time>2019-08-18T07:48:24Z</time>
      </trkpt>
      <trkpt lat="42.8641010" lon="-8.5649880">
        <ele>194.8</ele>
        <time>2019-08-18T07:48:30Z</time>
      </trkpt>
      <trkpt lat="42.8642850" lon="-8.5647940">
        <ele>194.7</ele>
        <time>2019-08-18T07:48:36Z</time>
      </trkpt>
      <trkpt lat="42.8644970" lon="-8.5645440">
        <ele>194.3</ele>
        <time>2019-08-18T07:48:43Z</time>
      </trkpt>
      <trkpt lat="42.8645580" lon="-8.5644740">
        <ele>194.2</ele>
        <time>2019-08-18T07:48:45Z</time>
      </trkpt>
      <trkpt lat="42.8647500" lon="-8.5642380">
        <ele>193.7</ele>
        <time>2019-08-18T07:48:51Z</time>
      </trkpt>
      <trkpt lat="42.8648200" lon="-8.5641670">
        <ele>193.6</ele>
        <time>2019-08-18T07:48:53Z</time>
      </trkpt>
      <trkpt lat="42.8648530" lon="-8.5641460">
        <ele>193.5</ele>
        <time>2019-08-18T07:48:54Z</time>
      </trkpt>
      <trkpt lat="42.8648840" lon="-8.5641090">
        <ele>193.5</ele>
        <time>2019-08-18T07:48:55Z</time>
      </trkpt>
      <trkpt lat="42.8649210" lon="-8.5640730">
        <ele>193.4</ele>
        <time>2019-08-18T07:48:56Z</time>
      </trkpt>
      <trkpt lat="42.8649610" lon="-8.5640250">
        <ele>193.3</ele>
        <time>2019-08-18T07:48:57Z</time>
      </trkpt>
      <trkpt lat="42.8649970" lon="-8.5639890">
        <ele>193.3</ele>
        <time>2019-08-18T07:48:58Z</time>
      </trkpt>
      <trkpt lat="42.8651330" lon="-8.5637900">
        <ele>193.0</ele>
        <time>2019-08-18T07:49:03Z</time>
      </trkpt>
      <trkpt lat="42.8653320" lon="-8.5635530">
        <ele>192.8</ele>
        <time>2019-08-18T07:49:09Z</time>
      </trkpt>
      <trkpt lat="42.8655620" lon="-8.5632750">
        <ele>193.0</ele>
        <time>2019-08-18T07:49:15Z</time>
      </trkpt>
      <trkpt lat="42.8657310" lon="-8.5630710">
        <ele>193.4</ele>
        <time>2019-08-18T07:49:20Z</time>
      </trkpt>
      <trkpt lat="42.8657690" lon="-8.5630630">
        <ele>193.5</ele>
        <time>2019-08-18T07:49:21Z</time>
      </trkpt>
      <trkpt lat="42.8658720" lon="-8.5631350">
        <ele>195.7</ele>
        <time>2019-08-18T07:49:24Z</time>
      </trkpt>
      <trkpt lat="42.8659230" lon="-8.5632230">
        <ele>196.6</ele>
        <time>2019-08-18T07:49:26Z</time>
      </trkpt>
      <trkpt lat="42.8660000" lon="-8.5633440">
        <ele>198.0</ele>
        <time>2019-08-18T07:49:29Z</time>
      </trkpt>
      <trkpt lat="42.8660770" lon="-8.5633110">
        <ele>198.2</ele>
        <time>2019-08-18T07:49:31Z</time>
      </trkpt>
      <trkpt lat="42.8661110" lon="-8.5632610">
        <ele>198.2</ele>
        <time>2019-08-18T07:49:32Z</time>
      </trkpt>
      <trkpt lat="42.8661770" lon="-8.5631720">
        <ele>198.1</ele>
        <time>2019-08-18T07:49:34Z</time>
      </trkpt>
      <trkpt lat="42.8662050" lon="-8.5631280">
        <ele>198.1</ele>
        <time>2019-08-18T07:49:35Z</time>
      </trkpt>
      <trkpt lat="42.8662310" lon="-8.5630840">
        <ele>198.1</ele>
        <time>2019-08-18T07:49:36Z</time>
      </trkpt>
      <trkpt lat="42.8662540" lon="-8.5630440">
        <ele>198.1</ele>
        <time>2019-08-18T07:49:37Z</time>
      </trkpt>
      <trkpt lat="42.8662720" lon="-8.5630060">
        <ele>198.1</ele>
        <time>2019-08-18T07:49:38Z</time>
      </trkpt>
      <trkpt lat="42.8663800" lon="-8.5629580">
        <ele>198.8</ele>
        <time>2019-08-18T07:49:42Z</time>
      </trkpt>
      <trkpt lat="42.8664150" lon="-8.5629520">
        <ele>199.0</ele>
        <time>2019-08-18T07:49:43Z</time>
      </trkpt>
      <trkpt lat="42.8664840" lon="-8.5629330">
        <ele>199.3</ele>
        <time>2019-08-18T07:49:45Z</time>
      </trkpt>
      <trkpt lat="42.8665120" lon="-8.5629190">
        <ele>199.5</ele>
        <time>2019-08-18T07:49:46Z</time>
      </trkpt>
      <trkpt lat="42.8665380" lon="-8.5629020">
        <ele>199.7</ele>
        <time>2019-08-18T07:49:47Z</time>
      </trkpt>
      <trkpt lat="42.8665680" lon="-8.5628810">
        <ele>199.9</ele>
        <time>2019-08-18T07:49:48Z</time>
      </trkpt>
      <trkpt lat="42.8665960" lon="-8.5628570">
        <ele>200.1</ele>
        <time>2019-08-18T07:49:49Z</time>
      </trkpt>
      <trkpt lat="42.8667840" lon="-8.5627360">
        <ele>201.2</ele>
        <time>2019-08-18T07:49:56Z</time>
      </trkpt>
      <trkpt lat="42.8668060" lon="-8.5627100">
        <ele>201.3</ele>
        <time>2019-08-18T07:49:57Z</time>
      </trkpt>
      <trkpt lat="42.8668320" lon="-8.5626850">
        <ele>201.5</ele>
        <time>2019-08-18T07:49:58Z</time>
      </trkpt>
      <trkpt lat="42.8668610" lon="-8.5626620">
        <ele>201.6</ele>
        <time>2019-08-18T07:49:59Z</time>
      </trkpt>
      <trkpt lat="42.8668890" lon="-8.5626410">
        <ele>201.8</ele>
        <time>2019-08-18T07:50:00Z</time>
      </trkpt>
      <trkpt lat="42.8669620" lon="-8.5625750">
        <ele>202.1</ele>
        <time>2019-08-18T07:50:03Z</time>
      </trkpt>
      <trkpt lat="42.8670620" lon="-8.5624920">
        <ele>202.8</ele>
        <time>2019-08-18T07:50:07Z</time>
      </trkpt>
      <trkpt lat="42.8670870" lon="-8.5624730">
        <ele>203.0</ele>
        <time>2019-08-18T07:50:08Z</time>
      </trkpt>
      <trkpt lat="42.8671120" lon="-8.5624500">
        <ele>203.3</ele>
        <time>2019-08-18T07:50:09Z</time>
      </trkpt>
      <trkpt lat="42.8671400" lon="-8.5624340">
        <ele>203.5</ele>
        <time>2019-08-18T07:50:10Z</time>
      </trkpt>
      <trkpt lat="42.8671680" lon="-8.5624160">
        <ele>203.7</ele>
        <time>2019-08-18T07:50:11Z</time>
      </trkpt>
      <trkpt lat="42.8672430" lon="-8.5623580">
        <ele>204.4</ele>
        <time>2019-08-18T07:50:14Z</time>
      </trkpt>
      <trkpt lat="42.8672660" lon="-8.5623460">
        <ele>204.6</ele>
        <time>2019-08-18T07:50:15Z</time>
      </trkpt>
      <trkpt lat="42.8672880" lon="-8.5623350">
        <ele>204.8</ele>
        <time>2019-08-18T07:50:16Z</time>
      </trkpt>
      <trkpt lat="42.8673150" lon="-8.5623210">
        <ele>205.0</ele>
        <time>2019-08-18T07:50:17Z</time>
      </trkpt>
      <trkpt lat="42.8673400" lon="-8.5623080">
        <ele>205.1</ele>
        <time>2019-08-18T07:50:18Z</time>
      </trkpt>
      <trkpt lat="42.8674840" lon="-8.5622200">
        <ele>206.6</ele>
        <time>2019-08-18T07:50:24Z</time>
      </trkpt>
      <trkpt lat="42.8675040" lon="-8.5622010">
        <ele>206.9</ele>
        <time>2019-08-18T07:50:25Z</time>
      </trkpt>
      <trkpt lat="42.8675220" lon="-8.5621830">
        <ele>207.1</ele>
        <time>2019-08-18T07:50:26Z</time>
      </trkpt>
      <trkpt lat="42.8675450" lon="-8.5621600">
        <ele>207.5</ele>
        <time>2019-08-18T07:50:27Z</time>
      </trkpt>
      <trkpt lat="42.8675640" lon="-8.5621410">
        <ele>207.7</ele>
        <time>2019-08-18T07:50:28Z</time>
      </trkpt>
      <trkpt lat="42.8675750" lon="-8.5621180">
        <ele>207.9</ele>
        <time>2019-08-18T07:50:29Z</time>
      </trkpt>
      <trkpt lat="42.8675840" lon="-8.5620960">
        <ele>208.5</ele>
        <time>2019-08-18T07:50:30Z</time>
      </trkpt>
      <trkpt lat="42.8675840" lon="-8.5620720">
        <ele>208.5</ele>
        <time>2019-08-18T07:50:31Z</time>
      </trkpt>
      <trkpt lat="42.8675840" lon="-8.5620440">
        <ele>208.5</ele>
        <time>2019-08-18T07:50:32Z</time>
      </trkpt>
      <trkpt lat="42.8675900" lon="-8.5620270">
        <ele>208.5</ele>
        <time>2019-08-18T07:50:33Z</time>
      </trkpt>
      <trkpt lat="42.8676210" lon="-8.5620340">
        <ele>208.5</ele>
        <time>2019-08-18T07:50:34Z</time>
      </trkpt>
      <trkpt lat="42.8676440" lon="-8.5620470">
        <ele>208.5</ele>
        <time>2019-08-18T07:50:35Z</time>
      </trkpt>
      <trkpt lat="42.8676900" lon="-8.5620510">
        <ele>209.2</ele>
        <time>2019-08-18T07:50:38Z</time>
      </trkpt>
      <trkpt lat="42.8677140" lon="-8.5620190">
        <ele>209.3</ele>
        <time>2019-08-18T07:50:40Z</time>
      </trkpt>
      <trkpt lat="42.8677970" lon="-8.5619060">
        <ele>209.4</ele>
        <time>2019-08-18T07:50:47Z</time>
      </trkpt>
      <trkpt lat="42.8678520" lon="-8.5617980">
        <ele>209.5</ele>
        <time>2019-08-18T07:50:52Z</time>
      </trkpt>
      <trkpt lat="42.8679870" lon="-8.5616350">
        <ele>209.8</ele>
        <time>2019-08-18T07:50:59Z</time>
      </trkpt>
      <trkpt lat="42.8680440" lon="-8.5615720">
        <ele>209.8</ele>
        <time>2019-08-18T07:51:02Z</time>
      </trkpt>
      <trkpt lat="42.8680630" lon="-8.5615480">
        <ele>209.9</ele>
        <time>2019-08-18T07:51:03Z</time>
      </trkpt>
      <trkpt lat="42.8680800" lon="-8.5615240">
        <ele>209.9</ele>
        <time>2019-08-18T07:51:04Z</time>
      </trkpt>
      <trkpt lat="42.8680990" lon="-8.5614980">
        <ele>209.9</ele>
        <time>2019-08-18T07:51:05Z</time>
      </trkpt>
      <trkpt lat="42.8681200" lon="-8.5614750">
        <ele>209.9</ele>
        <time>2019-08-18T07:51:06Z</time>
      </trkpt>
      <trkpt lat="42.8682860" lon="-8.5612410">
        <ele>210.1</ele>
        <time>2019-08-18T07:51:15Z</time>
      </trkpt>
      <trkpt lat="42.8684080" lon="-8.5610240">
        <ele>210.1</ele>
        <time>2019-08-18T07:51:22Z</time>
      </trkpt>
      <trkpt lat="42.8684410" lon="-8.5609980">
        <ele>210.1</ele>
        <time>2019-08-18T07:51:23Z</time>
      </trkpt>
      <trkpt lat="42.8685080" lon="-8.5609070">
        <ele>210.2</ele>
        <time>2019-08-18T07:51:26Z</time>
      </trkpt>
      <trkpt lat="42.8685400" lon="-8.5608410">
        <ele>210.2</ele>
        <time>2019-08-18T07:51:28Z</time>
      </trkpt>
      <trkpt lat="42.8685540" lon="-8.5608070">
        <ele>210.2</ele>
        <time>2019-08-18T07:51:29Z</time>
      </trkpt>
      <trkpt lat="42.8685640" lon="-8.5607770">
        <ele>210.2</ele>
        <time>2019-08-18T07:51:30Z</time>
      </trkpt>
      <trkpt lat="42.8685790" lon="-8.5607510">
        <ele>210.3</ele>
        <time>2019-08-18T07:51:31Z</time>
      </trkpt>
      <trkpt lat="42.8685980" lon="-8.5607240">
        <ele>210.3</ele>
        <time>2019-08-18T07:51:32Z</time>
      </trkpt>
      <trkpt lat="42.8686160" lon="-8.5606950">
        <ele>210.3</ele>
        <time>2019-08-18T07:51:33Z</time>
      </trkpt>
      <trkpt lat="42.8688210" lon="-8.5604200">
        <ele>210.9</ele>
        <time>2019-08-18T07:51:43Z</time>
      </trkpt>
      <trkpt lat="42.8689120" lon="-8.5602360">
        <ele>211.9</ele>
        <time>2019-08-18T07:51:49Z</time>
      </trkpt>
      <trkpt lat="42.8690470" lon="-8.5600530">
        <ele>213.1</ele>
        <time>2019-08-18T07:51:55Z</time>
      </trkpt>
      <trkpt lat="42.8690670" lon="-8.5600190">
        <ele>213.2</ele>
        <time>2019-08-18T07:51:56Z</time>
      </trkpt>
      <trkpt lat="42.8690890" lon="-8.5599880">
        <ele>213.4</ele>
        <time>2019-08-18T07:51:57Z</time>
      </trkpt>
      <trkpt lat="42.8691170" lon="-8.5599540">
        <ele>213.7</ele>
        <time>2019-08-18T07:51:58Z</time>
      </trkpt>
      <trkpt lat="42.8691180" lon="-8.5599210">
        <ele>213.8</ele>
        <time>2019-08-18T07:51:59Z</time>
      </trkpt>
      <trkpt lat="42.8692210" lon="-8.5597950">
        <ele>214.6</ele>
        <time>2019-08-18T07:52:03Z</time>
      </trkpt>
      <trkpt lat="42.8694230" lon="-8.5595210">
        <ele>216.0</ele>
        <time>2019-08-18T07:52:12Z</time>
      </trkpt>
      <trkpt lat="42.8694670" lon="-8.5594660">
        <ele>216.4</ele>
        <time>2019-08-18T07:52:14Z</time>
      </trkpt>
      <trkpt lat="42.8694870" lon="-8.5594380">
        <ele>216.5</ele>
        <time>2019-08-18T07:52:15Z</time>
      </trkpt>
      <trkpt lat="42.8695020" lon="-8.5594140">
        <ele>216.5</ele>
        <time>2019-08-18T07:52:16Z</time>
      </trkpt>
      <trkpt lat="42.8695120" lon="-8.5593920">
        <ele>216.6</ele>
        <time>2019-08-18T07:52:17Z</time>
      </trkpt>
      <trkpt lat="42.8695270" lon="-8.5593680">
        <ele>216.7</ele>
        <time>2019-08-18T07:52:18Z</time>
      </trkpt>
      <trkpt lat="42.8696570" lon="-8.5591850">
        <ele>217.5</ele>
        <time>2019-08-18T07:52:24Z</time>
      </trkpt>
      <trkpt lat="42.8696880" lon="-8.5591240">
        <ele>217.7</ele>
        <time>2019-08-18T07:52:26Z</time>
      </trkpt>
      <trkpt lat="42.8697050" lon="-8.5591000">
        <ele>217.8</ele>
        <time>2019-08-18T07:52:27Z</time>
      </trkpt>
      <trkpt lat="42.8697240" lon="-8.5590670">
        <ele>218.0</ele>
        <time>2019-08-18T07:52:28Z</time>
      </trkpt>
      <trkpt lat="42.8697460" lon="-8.5590330">
        <ele>218.1</ele>
        <time>2019-08-18T07:52:29Z</time>
      </trkpt>
      <trkpt lat="42.8697660" lon="-8.5590020">
        <ele>218.3</ele>
        <time>2019-08-18T07:52:30Z</time>
      </trkpt>
      <trkpt lat="42.8699410" lon="-8.5587650">
        <ele>219.1</ele>
        <time>2019-08-18T07:52:38Z</time>
      </trkpt>
      <trkpt lat="42.8699860" lon="-8.5586960">
        <ele>219.6</ele>
        <time>2019-08-18T07:52:40Z</time>
      </trkpt>
      <trkpt lat="42.8700090" lon="-8.5586620">
        <ele>219.7</ele>
        <time>2019-08-18T07:52:41Z</time>
      </trkpt>
      <trkpt lat="42.8700340" lon="-8.5586330">
        <ele>219.8</ele>
        <time>2019-08-18T07:52:42Z</time>
      </trkpt>
      <trkpt lat="42.8700550" lon="-8.5586060">
        <ele>219.9</ele>
        <time>2019-08-18T07:52:43Z</time>
      </trkpt>
      <trkpt lat="42.8700860" lon="-8.5585880">
        <ele>220.0</ele>
        <time>2019-08-18T07:52:44Z</time>
      </trkpt>
      <trkpt lat="42.8701100" lon="-8.5585600">
        <ele>220.1</ele>
        <time>2019-08-18T07:52:45Z</time>
      </trkpt>
      <trkpt lat="42.8702430" lon="-8.5583340">
        <ele>220.7</ele>
        <time>2019-08-18T07:52:52Z</time>
      </trkpt>
      <trkpt lat="42.8703090" lon="-8.5582360">
        <ele>220.9</ele>
        <time>2019-08-18T07:52:55Z</time>
      </trkpt>
      <trkpt lat="42.8703300" lon="-8.5582060">
        <ele>221.0</ele>
        <time>2019-08-18T07:52:56Z</time>
      </trkpt>
      <trkpt lat="42.8703490" lon="-8.5581710">
        <ele>221.1</ele>
        <time>2019-08-18T07:52:57Z</time>
      </trkpt>
      <trkpt lat="42.8703650" lon="-8.5581390">
        <ele>221.2</ele>
        <time>2019-08-18T07:52:58Z</time>
      </trkpt>
      <trkpt lat="42.8703850" lon="-8.5581030">
        <ele>221.3</ele>
        <time>2019-08-18T07:52:59Z</time>
      </trkpt>
      <trkpt lat="42.8705460" lon="-8.5578880">
        <ele>222.1</ele>
        <time>2019-08-18T07:53:05Z</time>
      </trkpt>
      <trkpt lat="42.8706420" lon="-8.5577440">
        <ele>222.6</ele>
        <time>2019-08-18T07:53:09Z</time>
      </trkpt>
      <trkpt lat="42.8706620" lon="-8.5577090">
        <ele>222.7</ele>
        <time>2019-08-18T07:53:10Z</time>
      </trkpt>
      <trkpt lat="42.8706850" lon="-8.5576730">
        <ele>222.8</ele>
        <time>2019-08-18T07:53:11Z</time>
      </trkpt>
      <trkpt lat="42.8707050" lon="-8.5576430">
        <ele>222.9</ele>
        <time>2019-08-18T07:53:12Z</time>
      </trkpt>
      <trkpt lat="42.8707250" lon="-8.5576090">
        <ele>223.0</ele>
        <time>2019-08-18T07:53:13Z</time>
      </trkpt>
      <trkpt lat="42.8709240" lon="-8.5573170">
        <ele>223.5</ele>
        <time>2019-08-18T07:53:22Z</time>
      </trkpt>
      <trkpt lat="42.8710760" lon="-8.5570940">
        <ele>224.2</ele>
        <time>2019-08-18T07:53:29Z</time>
      </trkpt>
      <trkpt lat="42.8710970" lon="-8.5570580">
        <ele>224.3</ele>
        <time>2019-08-18T07:53:30Z</time>
      </trkpt>
      <trkpt lat="42.8711170" lon="-8.5570200">
        <ele>224.4</ele>
        <time>2019-08-18T07:53:31Z</time>
      </trkpt>
      <trkpt lat="42.8711430" lon="-8.5569860">
        <ele>224.5</ele>
        <time>2019-08-18T07:53:32Z</time>
      </trkpt>
      <trkpt lat="42.8711650" lon="-8.5569520">
        <ele>224.6</ele>
        <time>2019-08-18T07:53:33Z</time>
      </trkpt>
      <trkpt lat="42.8713700" lon="-8.5566690">
        <ele>225.7</ele>
        <time>2019-08-18T07:53:42Z</time>
      </trkpt>
      <trkpt lat="42.8715150" lon="-8.5564680">
        <ele>226.4</ele>
        <time>2019-08-18T07:53:48Z</time>
      </trkpt>
      <trkpt lat="42.8715580" lon="-8.5564060">
        <ele>226.6</ele>
        <time>2019-08-18T07:53:50Z</time>
      </trkpt>
      <trkpt lat="42.8715760" lon="-8.5563780">
        <ele>226.7</ele>
        <time>2019-08-18T07:53:51Z</time>
      </trkpt>
      <trkpt lat="42.8716050" lon="-8.5563040">
        <ele>226.9</ele>
        <time>2019-08-18T07:53:53Z</time>
      </trkpt>
      <trkpt lat="42.8716340" lon="-8.5561890">
        <ele>228.2</ele>
        <time>2019-08-18T07:53:56Z</time>
      </trkpt>
      <trkpt lat="42.8717510" lon="-8.5559690">
        <ele>230.5</ele>
        <time>2019-08-18T07:54:02Z</time>
      </trkpt>
      <trkpt lat="42.8717660" lon="-8.5559250">
        <ele>230.9</ele>
        <time>2019-08-18T07:54:03Z</time>
      </trkpt>
      <trkpt lat="42.8718010" lon="-8.5558380">
        <ele>231.8</ele>
        <time>2019-08-18T07:54:05Z</time>
      </trkpt>
      <trkpt lat="42.8718180" lon="-8.5558000">
        <ele>232.2</ele>
        <time>2019-08-18T07:54:06Z</time>
      </trkpt>
      <trkpt lat="42.8718380" lon="-8.5557620">
        <ele>232.5</ele>
        <time>2019-08-18T07:54:07Z</time>
      </trkpt>
      <trkpt lat="42.8719620" lon="-8.5553920">
        <ele>234.9</ele>
        <time>2019-08-18T07:54:16Z</time>
      </trkpt>
      <trkpt lat="42.8720170" lon="-8.5552170">
        <ele>235.6</ele>
        <time>2019-08-18T07:54:20Z</time>
      </trkpt>
      <trkpt lat="42.8720310" lon="-8.5551710">
        <ele>235.8</ele>
        <time>2019-08-18T07:54:21Z</time>
      </trkpt>
      <trkpt lat="42.8720460" lon="-8.5551250">
        <ele>236.0</ele>
        <time>2019-08-18T07:54:22Z</time>
      </trkpt>
      <trkpt lat="42.8720570" lon="-8.5550760">
        <ele>236.2</ele>
        <time>2019-08-18T07:54:23Z</time>
      </trkpt>
      <trkpt lat="42.8720750" lon="-8.5550270">
        <ele>236.5</ele>
        <time>2019-08-18T07:54:24Z</time>
      </trkpt>
      <trkpt lat="42.8721080" lon="-8.5549820">
        <ele>236.8</ele>
        <time>2019-08-18T07:54:25Z</time>
      </trkpt>
      <trkpt lat="42.8721570" lon="-8.5548340">
        <ele>236.8</ele>
        <time>2019-08-18T07:54:28Z</time>
      </trkpt>
      <trkpt lat="42.8722560" lon="-8.5545710">
        <ele>236.7</ele>
        <time>2019-08-18T07:54:34Z</time>
      </trkpt>
      <trkpt lat="42.8723900" lon="-8.5543810">
        <ele>236.8</ele>
        <time>2019-08-18T07:54:40Z</time>
      </trkpt>
      <trkpt lat="42.8725070" lon="-8.5542010">
        <ele>236.8</ele>
        <time>2019-08-18T07:54:46Z</time>
      </trkpt>
      <trkpt lat="42.8725360" lon="-8.5541630">
        <ele>236.8</ele>
        <time>2019-08-18T07:54:47Z</time>
      </trkpt>
      <trkpt lat="42.8726510" lon="-8.5540120">
        <ele>236.8</ele>
        <time>2019-08-18T07:54:53Z</time>
      </trkpt>
      <trkpt lat="42.8727610" lon="-8.5538340">
        <ele>236.9</ele>
        <time>2019-08-18T07:54:58Z</time>
      </trkpt>
      <trkpt lat="42.8729400" lon="-8.5535890">
        <ele>237.1</ele>
        <time>2019-08-18T07:55:05Z</time>
      </trkpt>
      <trkpt lat="42.8730140" lon="-8.5535370">
        <ele>237.7</ele>
        <time>2019-08-18T07:55:07Z</time>
      </trkpt>
      <trkpt lat="42.8730120" lon="-8.5534680">
        <ele>237.7</ele>
        <time>2019-08-18T07:55:10Z</time>
      </trkpt>
      <trkpt lat="42.8731030" lon="-8.5533110">
        <ele>238.3</ele>
        <time>2019-08-18T07:55:16Z</time>
      </trkpt>
      <trkpt lat="42.8732340" lon="-8.5531850">
        <ele>238.2</ele>
        <time>2019-08-18T07:55:21Z</time>
      </trkpt>
      <trkpt lat="42.8733910" lon="-8.5530030">
        <ele>239.2</ele>
        <time>2019-08-18T07:55:27Z</time>
      </trkpt>
      <trkpt lat="42.8734170" lon="-8.5529790">
        <ele>239.4</ele>
        <time>2019-08-18T07:55:28Z</time>
      </trkpt>
      <trkpt lat="42.8734410" lon="-8.5529580">
        <ele>239.5</ele>
        <time>2019-08-18T07:55:29Z</time>
      </trkpt>
      <trkpt lat="42.8734650" lon="-8.5529390">
        <ele>239.6</ele>
        <time>2019-08-18T07:55:30Z</time>
      </trkpt>
      <trkpt lat="42.8734860" lon="-8.5529180">
        <ele>239.7</ele>
        <time>2019-08-18T07:55:31Z</time>
      </trkpt>
      <trkpt lat="42.8735170" lon="-8.5528830">
        <ele>239.7</ele>
        <time>2019-08-18T07:55:32Z</time>
      </trkpt>
      <trkpt lat="42.8735840" lon="-8.5527970">
        <ele>239.7</ele>
        <time>2019-08-18T07:55:34Z</time>
      </trkpt>
      <trkpt lat="42.8738680" lon="-8.5524530">
        <ele>239.8</ele>
        <time>2019-08-18T07:55:42Z</time>
      </trkpt>
      <trkpt lat="42.8739760" lon="-8.5523550">
        <ele>239.8</ele>
        <time>2019-08-18T07:55:47Z</time>
      </trkpt>
      <trkpt lat="42.8740770" lon="-8.5522630">
        <ele>239.8</ele>
        <time>2019-08-18T07:55:52Z</time>
      </trkpt>
      <trkpt lat="42.8741330" lon="-8.5521440">
        <ele>239.8</ele>
        <time>2019-08-18T07:55:56Z</time>
      </trkpt>
      <trkpt lat="42.8742740" lon="-8.5519600">
        <ele>240.1</ele>
        <time>2019-08-18T07:56:00Z</time>
      </trkpt>
      <trkpt lat="42.8745020" lon="-8.5517410">
        <ele>240.1</ele>
        <time>2019-08-18T07:56:06Z</time>
      </trkpt>
      <trkpt lat="42.8746230" lon="-8.5515570">
        <ele>240.2</ele>
        <time>2019-08-18T07:56:11Z</time>
      </trkpt>
      <trkpt lat="42.8748140" lon="-8.5512910">
        <ele>240.6</ele>
        <time>2019-08-18T07:56:16Z</time>
      </trkpt>
      <trkpt lat="42.8748670" lon="-8.5512120">
        <ele>240.9</ele>
        <time>2019-08-18T07:56:17Z</time>
      </trkpt>
      <trkpt lat="42.8751440" lon="-8.5508090">
        <ele>242.4</ele>
        <time>2019-08-18T07:56:23Z</time>
      </trkpt>
      <trkpt lat="42.8751740" lon="-8.5507700">
        <ele>242.5</ele>
        <time>2019-08-18T07:56:24Z</time>
      </trkpt>
      <trkpt lat="42.8752010" lon="-8.5507270">
        <ele>242.7</ele>
        <time>2019-08-18T07:56:25Z</time>
      </trkpt>
      <trkpt lat="42.8752270" lon="-8.5506820">
        <ele>242.8</ele>
        <time>2019-08-18T07:56:26Z</time>
      </trkpt>
      <trkpt lat="42.8752560" lon="-8.5506460">
        <ele>242.9</ele>
        <time>2019-08-18T07:56:27Z</time>
      </trkpt>
      <trkpt lat="42.8753340" lon="-8.5505460">
        <ele>243.7</ele>
        <time>2019-08-18T07:56:30Z</time>
      </trkpt>
      <trkpt lat="42.8754260" lon="-8.5504120">
        <ele>244.5</ele>
        <time>2019-08-18T07:56:34Z</time>
      </trkpt>
      <trkpt lat="42.8754450" lon="-8.5503850">
        <ele>244.7</ele>
        <time>2019-08-18T07:56:35Z</time>
      </trkpt>
      <trkpt lat="42.8754630" lon="-8.5503470">
        <ele>244.9</ele>
        <time>2019-08-18T07:56:36Z</time>
      </trkpt>
      <trkpt lat="42.8754780" lon="-8.5503090">
        <ele>245.1</ele>
        <time>2019-08-18T07:56:37Z</time>
      </trkpt>
      <trkpt lat="42.8754860" lon="-8.5502760">
        <ele>245.2</ele>
        <time>2019-08-18T07:56:38Z</time>
      </trkpt>
      <trkpt lat="42.8755100" lon="-8.5502000">
        <ele>245.6</ele>
        <time>2019-08-18T07:56:42Z</time>
      </trkpt>
      <trkpt lat="42.8755290" lon="-8.5500740">
        <ele>246.2</ele>
        <time>2019-08-18T07:56:51Z</time>
      </trkpt>
      <trkpt lat="42.8755660" lon="-8.5499670">
        <ele>246.8</ele>
        <time>2019-08-18T07:56:53Z</time>
      </trkpt>
      <trkpt lat="42.8755730" lon="-8.5499240">
        <ele>247.0</ele>
        <time>2019-08-18T07:56:54Z</time>
      </trkpt>
      <trkpt lat="42.8755880" lon="-8.5498850">
        <ele>247.2</ele>
        <time>2019-08-18T07:56:55Z</time>
      </trkpt>
      <trkpt lat="42.8755960" lon="-8.5498470">
        <ele>247.5</ele>
        <time>2019-08-18T07:56:56Z</time>
      </trkpt>
      <trkpt lat="42.8756020" lon="-8.5498030">
        <ele>247.7</ele>
        <time>2019-08-18T07:56:57Z</time>
      </trkpt>
      <trkpt lat="42.8756280" lon="-8.5497810">
        <ele>248.0</ele>
        <time>2019-08-18T07:56:58Z</time>
      </trkpt>
      <trkpt lat="42.8756500" lon="-8.5497350">
        <ele>248.4</ele>
        <time>2019-08-18T07:56:59Z</time>
      </trkpt>
      <trkpt lat="42.8756760" lon="-8.5496840">
        <ele>248.9</ele>
        <time>2019-08-18T07:57:00Z</time>
      </trkpt>
      <trkpt lat="42.8756950" lon="-8.5496400">
        <ele>249.3</ele>
        <time>2019-08-18T07:57:01Z</time>
      </trkpt>
      <trkpt lat="42.8757120" lon="-8.5496020">
        <ele>249.7</ele>
        <time>2019-08-18T07:57:02Z</time>
      </trkpt>
      <trkpt lat="42.8757280" lon="-8.5495690">
        <ele>250.0</ele>
        <time>2019-08-18T07:57:03Z</time>
      </trkpt>
      <trkpt lat="42.8757480" lon="-8.5495320">
        <ele>250.4</ele>
        <time>2019-08-18T07:57:04Z</time>
      </trkpt>
      <trkpt lat="42.8757960" lon="-8.5494560">
        <ele>251.2</ele>
        <time>2019-08-18T07:57:06Z</time>
      </trkpt>
      <trkpt lat="42.8759000" lon="-8.5491950">
        <ele>253.2</ele>
        <time>2019-08-18T07:57:12Z</time>
      </trkpt>
      <trkpt lat="42.8759020" lon="-8.5491500">
        <ele>253.5</ele>
        <time>2019-08-18T07:57:13Z</time>
      </trkpt>
      <trkpt lat="42.8759130" lon="-8.5490950">
        <ele>253.9</ele>
        <time>2019-08-18T07:57:14Z</time>
      </trkpt>
      <trkpt lat="42.8759270" lon="-8.5490420">
        <ele>254.4</ele>
        <time>2019-08-18T07:57:15Z</time>
      </trkpt>
      <trkpt lat="42.8759450" lon="-8.5489920">
        <ele>254.9</ele>
        <time>2019-08-18T07:57:16Z</time>
      </trkpt>
      <trkpt lat="42.8760000" lon="-8.5488710">
        <ele>255.5</ele>
        <time>2019-08-18T07:57:19Z</time>
      </trkpt>
      <trkpt lat="42.8760180" lon="-8.5488260">
        <ele>255.7</ele>
        <time>2019-08-18T07:57:20Z</time>
      </trkpt>
      <trkpt lat="42.8760440" lon="-8.5487800">
        <ele>255.9</ele>
        <time>2019-08-18T07:57:21Z</time>
      </trkpt>
      <trkpt lat="42.8760680" lon="-8.5487330">
        <ele>255.9</ele>
        <time>2019-08-18T07:57:22Z</time>
      </trkpt>
      <trkpt lat="42.8761050" lon="-8.5486740">
        <ele>255.9</ele>
        <time>2019-08-18T07:57:23Z</time>
      </trkpt>
      <trkpt lat="42.8761250" lon="-8.5486240">
        <ele>255.9</ele>
        <time>2019-08-18T07:57:24Z</time>
      </trkpt>
      <trkpt lat="42.8761570" lon="-8.5485210">
        <ele>255.9</ele>
        <time>2019-08-18T07:57:26Z</time>
      </trkpt>
      <trkpt lat="42.8763160" lon="-8.5480760">
        <ele>255.1</ele>
        <time>2019-08-18T07:57:35Z</time>
      </trkpt>
      <trkpt lat="42.8764600" lon="-8.5476230">
        <ele>253.6</ele>
        <time>2019-08-18T07:57:44Z</time>
      </trkpt>
      <trkpt lat="42.8765940" lon="-8.5472350">
        <ele>253.1</ele>
        <time>2019-08-18T07:57:52Z</time>
      </trkpt>
      <trkpt lat="42.8767220" lon="-8.5468290">
        <ele>253.6</ele>
        <time>2019-08-18T07:58:00Z</time>
      </trkpt>
      <trkpt lat="42.8768170" lon="-8.5464870">
        <ele>254.6</ele>
        <time>2019-08-18T07:58:07Z</time>
      </trkpt>
      <trkpt lat="42.8768220" lon="-8.5462030">
        <ele>255.5</ele>
        <time>2019-08-18T07:58:13Z</time>
      </trkpt>
      <trkpt lat="42.8767830" lon="-8.5458920">
        <ele>256.5</ele>
        <time>2019-08-18T07:58:22Z</time>
      </trkpt>
      <trkpt lat="42.8768350" lon="-8.5459300">
        <ele>256.4</ele>
        <time>2019-08-18T07:58:23Z</time>
      </trkpt>
      <trkpt lat="42.8768630" lon="-8.5459520">
        <ele>256.4</ele>
        <time>2019-08-18T07:58:24Z</time>
      </trkpt>
      <trkpt lat="42.8768900" lon="-8.5459740">
        <ele>256.3</ele>
        <time>2019-08-18T07:58:25Z</time>
      </trkpt>
      <trkpt lat="42.8771250" lon="-8.5461360">
        <ele>255.5</ele>
        <time>2019-08-18T07:58:31Z</time>
      </trkpt>
      <trkpt lat="42.8771650" lon="-8.5461340">
        <ele>255.4</ele>
        <time>2019-08-18T07:58:33Z</time>
      </trkpt>
      <trkpt lat="42.8771860" lon="-8.5461270">
        <ele>255.4</ele>
        <time>2019-08-18T07:58:34Z</time>
      </trkpt>
      <trkpt lat="42.8772000" lon="-8.5461150">
        <ele>255.4</ele>
        <time>2019-08-18T07:58:35Z</time>
      </trkpt>
      <trkpt lat="42.8772130" lon="-8.5461030">
        <ele>255.3</ele>
        <time>2019-08-18T07:58:36Z</time>
      </trkpt>
      <trkpt lat="42.8772280" lon="-8.5460900">
        <ele>255.5</ele>
        <time>2019-08-18T07:58:37Z</time>
      </trkpt>
      <trkpt lat="42.8772460" lon="-8.5460760">
        <ele>255.5</ele>
        <time>2019-08-18T07:58:38Z</time>
      </trkpt>
      <trkpt lat="42.8772600" lon="-8.5460300">
        <ele>255.5</ele>
        <time>2019-08-18T07:58:40Z</time>
      </trkpt>
      <trkpt lat="42.8772590" lon="-8.5459960">
        <ele>255.5</ele>
        <time>2019-08-18T07:58:41Z</time>
      </trkpt>
      <trkpt lat="42.8772660" lon="-8.5458510">
        <ele>256.1</ele>
        <time>2019-08-18T07:58:47Z</time>
      </trkpt>
      <trkpt lat="42.8773300" lon="-8.5457350">
        <ele>257.1</ele>
        <time>2019-08-18T07:58:54Z</time>
      </trkpt>
      <trkpt lat="42.8773430" lon="-8.5457350">
        <ele>257.1</ele>
        <time>2019-08-18T07:58:56Z</time>
      </trkpt>
      <trkpt lat="42.8773540" lon="-8.5457360">
        <ele>257.1</ele>
        <time>2019-08-18T07:59:00Z</time>
      </trkpt>
      <trkpt lat="42.8773720" lon="-8.5457210">
        <ele>257.1</ele>
        <time>2019-08-18T07:59:03Z</time>
      </trkpt>
      <trkpt lat="42.8774030" lon="-8.5456880">
        <ele>257.1</ele>
        <time>2019-08-18T07:59:06Z</time>
      </trkpt>
      <trkpt lat="42.8774930" lon="-8.5456350">
        <ele>257.2</ele>
        <time>2019-08-18T07:59:10Z</time>
      </trkpt>
      <trkpt lat="42.8775080" lon="-8.5456250">
        <ele>257.2</ele>
        <time>2019-08-18T07:59:11Z</time>
      </trkpt>
      <trkpt lat="42.8775410" lon="-8.5456120">
        <ele>257.2</ele>
        <time>2019-08-18T07:59:12Z</time>
      </trkpt>
      <trkpt lat="42.8775730" lon="-8.5456020">
        <ele>257.2</ele>
        <time>2019-08-18T07:59:13Z</time>
      </trkpt>
      <trkpt lat="42.8775830" lon="-8.5455980">
        <ele>257.3</ele>
        <time>2019-08-18T07:59:14Z</time>
      </trkpt>
      <trkpt lat="42.8775700" lon="-8.5455870">
        <ele>257.3</ele>
        <time>2019-08-18T07:59:17Z</time>
      </trkpt>
      <trkpt lat="42.8775340" lon="-8.5453590">
        <ele>258.6</ele>
        <time>2019-08-18T07:59:23Z</time>
      </trkpt>
      <trkpt lat="42.8776290" lon="-8.5450390">
        <ele>260.7</ele>
        <time>2019-08-18T07:59:30Z</time>
      </trkpt>
      <trkpt lat="42.8775070" lon="-8.5447240">
        <ele>264.2</ele>
        <time>2019-08-18T07:59:36Z</time>
      </trkpt>
      <trkpt lat="42.8774260" lon="-8.5444260">
        <ele>263.6</ele>
        <time>2019-08-18T07:59:41Z</time>
      </trkpt>
      <trkpt lat="42.8774140" lon="-8.5443870">
        <ele>263.7</ele>
        <time>2019-08-18T07:59:42Z</time>
      </trkpt>
      <trkpt lat="42.8773990" lon="-8.5443440">
        <ele>263.7</ele>
        <time>2019-08-18T07:59:43Z</time>
      </trkpt>
      <trkpt lat="42.8773920" lon="-8.5443090">
        <ele>263.7</ele>
        <time>2019-08-18T07:59:44Z</time>
      </trkpt>
      <trkpt lat="42.8773740" lon="-8.5442680">
        <ele>263.8</ele>
        <time>2019-08-18T07:59:45Z</time>
      </trkpt>
      <trkpt lat="42.8774810" lon="-8.5441610">
        <ele>263.9</ele>
        <time>2019-08-18T07:59:48Z</time>
      </trkpt>
      <trkpt lat="42.8775640" lon="-8.5440740">
        <ele>264.1</ele>
        <time>2019-08-18T07:59:52Z</time>
      </trkpt>
      <trkpt lat="42.8775830" lon="-8.5440510">
        <ele>264.2</ele>
        <time>2019-08-18T07:59:53Z</time>
      </trkpt>
      <trkpt lat="42.8776010" lon="-8.5440290">
        <ele>264.3</ele>
        <time>2019-08-18T07:59:54Z</time>
      </trkpt>
      <trkpt lat="42.8776180" lon="-8.5440150">
        <ele>264.3</ele>
        <time>2019-08-18T07:59:55Z</time>
      </trkpt>
      <trkpt lat="42.8776370" lon="-8.5439900">
        <ele>264.4</ele>
        <time>2019-08-18T07:59:56Z</time>
      </trkpt>
      <trkpt lat="42.8776670" lon="-8.5439080">
        <ele>264.6</ele>
        <time>2019-08-18T07:59:58Z</time>
      </trkpt>
      <trkpt lat="42.8777650" lon="-8.5436480">
        <ele>265.0</ele>
        <time>2019-08-18T08:00:04Z</time>
      </trkpt>
      <trkpt lat="42.8778610" lon="-8.5434280">
        <ele>265.1</ele>
        <time>2019-08-18T08:00:10Z</time>
      </trkpt>
      <trkpt lat="42.8778810" lon="-8.5432610">
        <ele>265.2</ele>
        <time>2019-08-18T08:00:16Z</time>
      </trkpt>
      <trkpt lat="42.8779720" lon="-8.5432740">
        <ele>265.4</ele>
        <time>2019-08-18T08:00:18Z</time>
      </trkpt>
      <trkpt lat="42.8779810" lon="-8.5432670">
        <ele>265.4</ele>
        <time>2019-08-18T08:00:19Z</time>
      </trkpt>
      <trkpt lat="42.8779890" lon="-8.5432600">
        <ele>265.4</ele>
        <time>2019-08-18T08:00:20Z</time>
      </trkpt>
      <trkpt lat="42.8779920" lon="-8.5432570">
        <ele>265.4</ele>
        <time>2019-08-18T08:00:21Z</time>
      </trkpt>
      <trkpt lat="42.8779900" lon="-8.5432560">
        <ele>265.5</ele>
        <time>2019-08-18T08:00:22Z</time>
      </trkpt>
      <trkpt lat="42.8780310" lon="-8.5431920">
        <ele>265.7</ele>
        <time>2019-08-18T08:00:32Z</time>
      </trkpt>
      <trkpt lat="42.8780360" lon="-8.5431520">
        <ele>265.8</ele>
        <time>2019-08-18T08:00:37Z</time>
      </trkpt>
      <trkpt lat="42.8780710" lon="-8.5431030">
        <ele>266.1</ele>
        <time>2019-08-18T08:00:48Z</time>
      </trkpt>
      <trkpt lat="42.8780760" lon="-8.5430910">
        <ele>266.1</ele>
        <time>2019-08-18T08:00:49Z</time>
      </trkpt>
      <trkpt lat="42.8781190" lon="-8.5430700">
        <ele>266.2</ele>
        <time>2019-08-18T08:00:50Z</time>
      </trkpt>
      <trkpt lat="42.8782150" lon="-8.5430200">
        <ele>266.5</ele>
        <time>2019-08-18T08:00:54Z</time>
      </trkpt>
      <trkpt lat="42.8784220" lon="-8.5426540">
        <ele>267.3</ele>
        <time>2019-08-18T08:01:00Z</time>
      </trkpt>
      <trkpt lat="42.8784580" lon="-8.5426380">
        <ele>267.4</ele>
        <time>2019-08-18T08:01:03Z</time>
      </trkpt>
      <trkpt lat="42.8784630" lon="-8.5426400">
        <ele>267.4</ele>
        <time>2019-08-18T08:01:04Z</time>
      </trkpt>
      <trkpt lat="42.8784750" lon="-8.5426500">
        <ele>267.4</ele>
        <time>2019-08-18T08:01:05Z</time>
      </trkpt>
      <trkpt lat="42.8784840" lon="-8.5426490">
        <ele>267.4</ele>
        <time>2019-08-18T08:01:06Z</time>
      </trkpt>
      <trkpt lat="42.8784880" lon="-8.5426500">
        <ele>267.4</ele>
        <time>2019-08-18T08:01:07Z</time>
      </trkpt>
      <trkpt lat="42.8785080" lon="-8.5426540">
        <ele>267.4</ele>
        <time>2019-08-18T08:01:08Z</time>
      </trkpt>
      <trkpt lat="42.8785360" lon="-8.5426500">
        <ele>267.4</ele>
        <time>2019-08-18T08:01:10Z</time>
      </trkpt>
      <trkpt lat="42.8785460" lon="-8.5426350">
        <ele>267.5</ele>
        <time>2019-08-18T08:01:13Z</time>
      </trkpt>
      <trkpt lat="42.8785810" lon="-8.5426620">
        <ele>267.5</ele>
        <time>2019-08-18T08:01:16Z</time>
      </trkpt>
      <trkpt lat="42.8786290" lon="-8.5426830">
        <ele>267.6</ele>
        <time>2019-08-18T08:01:18Z</time>
      </trkpt>
      <trkpt lat="42.8787180" lon="-8.5427450">
        <ele>267.8</ele>
        <time>2019-08-18T08:01:20Z</time>
      </trkpt>
      <trkpt lat="42.8787330" lon="-8.5427370">
        <ele>267.9</ele>
        <time>2019-08-18T08:01:21Z</time>
      </trkpt>
      <trkpt lat="42.8787480" lon="-8.5427220">
        <ele>267.9</ele>
        <time>2019-08-18T08:01:22Z</time>
      </trkpt>
      <trkpt lat="42.8787700" lon="-8.5427030">
        <ele>268.0</ele>
        <time>2019-08-18T08:01:23Z</time>
      </trkpt>
      <trkpt lat="42.8787930" lon="-8.5426790">
        <ele>268.0</ele>
        <time>2019-08-18T08:01:24Z</time>
      </trkpt>
      <trkpt lat="42.8788190" lon="-8.5426560">
        <ele>268.1</ele>
        <time>2019-08-18T08:01:25Z</time>
      </trkpt>
      <trkpt lat="42.8789770" lon="-8.5427590">
        <ele>268.6</ele>
        <time>2019-08-18T08:01:27Z</time>
      </trkpt>
      <trkpt lat="42.8794590" lon="-8.5426130">
        <ele>270.7</ele>
        <time>2019-08-18T08:01:34Z</time>
      </trkpt>
      <trkpt lat="42.8795070" lon="-8.5426570">
        <ele>270.7</ele>
        <time>2019-08-18T08:01:35Z</time>
      </trkpt>
      <trkpt lat="42.8795480" lon="-8.5427050">
        <ele>270.4</ele>
        <time>2019-08-18T08:01:36Z</time>
      </trkpt>
      <trkpt lat="42.8795460" lon="-8.5427660">
        <ele>270.2</ele>
        <time>2019-08-18T08:01:37Z</time>
      </trkpt>
      <trkpt lat="42.8795450" lon="-8.5428270">
        <ele>270.0</ele>
        <time>2019-08-18T08:01:38Z</time>
      </trkpt>
      <trkpt lat="42.8795450" lon="-8.5428920">
        <ele>269.7</ele>
        <time>2019-08-18T08:01:39Z</time>
      </trkpt>
      <trkpt lat="42.8795320" lon="-8.5429630">
        <ele>269.5</ele>
        <time>2019-08-18T08:01:40Z</time>
      </trkpt>
      <trkpt lat="42.8795430" lon="-8.5430250">
        <ele>268.8</ele>
        <time>2019-08-18T08:01:41Z</time>
      </trkpt>
      <trkpt lat="42.8795490" lon="-8.5430820">
        <ele>268.5</ele>
        <time>2019-08-18T08:01:42Z</time>
      </trkpt>
      <trkpt lat="42.8795560" lon="-8.5431390">
        <ele>268.2</ele>
        <time>2019-08-18T08:01:43Z</time>
      </trkpt>
      <trkpt lat="42.8795670" lon="-8.5432110">
        <ele>267.8</ele>
        <time>2019-08-18T08:01:44Z</time>
      </trkpt>
      <trkpt lat="42.8795570" lon="-8.5432720">
        <ele>267.5</ele>
        <time>2019-08-18T08:01:45Z</time>
      </trkpt>
      <trkpt lat="42.8796720" lon="-8.5433400">
        <ele>267.1</ele>
        <time>2019-08-18T08:01:46Z</time>
      </trkpt>
      <trkpt lat="42.8796970" lon="-8.5433780">
        <ele>267.0</ele>
        <time>2019-08-18T08:01:47Z</time>
      </trkpt>
      <trkpt lat="42.8797080" lon="-8.5434280">
        <ele>266.7</ele>
        <time>2019-08-18T08:01:48Z</time>
      </trkpt>
      <trkpt lat="42.8797190" lon="-8.5434850">
        <ele>266.3</ele>
        <time>2019-08-18T08:01:49Z</time>
      </trkpt>
      <trkpt lat="42.8797360" lon="-8.5436690">
        <ele>265.4</ele>
        <time>2019-08-18T08:01:52Z</time>
      </trkpt>
      <trkpt lat="42.8797360" lon="-8.5437340">
        <ele>265.1</ele>
        <time>2019-08-18T08:01:53Z</time>
      </trkpt>
      <trkpt lat="42.8797490" lon="-8.5437930">
        <ele>264.9</ele>
        <time>2019-08-18T08:01:54Z</time>
      </trkpt>
      <trkpt lat="42.8797590" lon="-8.5438580">
        <ele>264.6</ele>
        <time>2019-08-18T08:01:55Z</time>
      </trkpt>
      <trkpt lat="42.8797700" lon="-8.5439200">
        <ele>264.4</ele>
        <time>2019-08-18T08:01:56Z</time>
      </trkpt>
      <trkpt lat="42.8798480" lon="-8.5441760">
        <ele>263.0</ele>
        <time>2019-08-18T08:02:02Z</time>
      </trkpt>
      <trkpt lat="42.8798540" lon="-8.5442700">
        <ele>262.6</ele>
        <time>2019-08-18T08:02:07Z</time>
      </trkpt>
      <trkpt lat="42.8798680" lon="-8.5445550">
        <ele>261.3</ele>
        <time>2019-08-18T08:02:15Z</time>
      </trkpt>
      <trkpt lat="42.8798640" lon="-8.5446100">
        <ele>261.1</ele>
        <time>2019-08-18T08:02:16Z</time>
      </trkpt>
      <trkpt lat="42.8798580" lon="-8.5446770">
        <ele>260.5</ele>
        <time>2019-08-18T08:02:17Z</time>
      </trkpt>
      <trkpt lat="42.8798520" lon="-8.5447430">
        <ele>260.0</ele>
        <time>2019-08-18T08:02:18Z</time>
      </trkpt>
      <trkpt lat="42.8798510" lon="-8.5448080">
        <ele>259.6</ele>
        <time>2019-08-18T08:02:19Z</time>
      </trkpt>
      <trkpt lat="42.8798460" lon="-8.5448690">
        <ele>259.1</ele>
        <time>2019-08-18T08:02:20Z</time>
      </trkpt>
      <trkpt lat="42.8798340" lon="-8.5450450">
        <ele>257.8</ele>
        <time>2019-08-18T08:02:24Z</time>
      </trkpt>
      <trkpt lat="42.8798470" lon="-8.5450660">
        <ele>257.6</ele>
        <time>2019-08-18T08:02:25Z</time>
      </trkpt>
      <trkpt lat="42.8798480" lon="-8.5450770">
        <ele>257.6</ele>
        <time>2019-08-18T08:02:26Z</time>
      </trkpt>
      <trkpt lat="42.8798470" lon="-8.5450980">
        <ele>257.4</ele>
        <time>2019-08-18T08:02:27Z</time>
      </trkpt>
      <trkpt lat="42.8798490" lon="-8.5451140">
        <ele>257.3</ele>
        <time>2019-08-18T08:02:28Z</time>
      </trkpt>
      <trkpt lat="42.8798860" lon="-8.5451690">
        <ele>256.7</ele>
        <time>2019-08-18T08:02:30Z</time>
      </trkpt>
      <trkpt lat="42.8799180" lon="-8.5451850">
        <ele>256.8</ele>
        <time>2019-08-18T08:02:31Z</time>
      </trkpt>
      <trkpt lat="42.8800020" lon="-8.5451660">
        <ele>256.9</ele>
        <time>2019-08-18T08:02:34Z</time>
      </trkpt>
      <trkpt lat="42.8800290" lon="-8.5451640">
        <ele>256.9</ele>
        <time>2019-08-18T08:02:35Z</time>
      </trkpt>
      <trkpt lat="42.8801290" lon="-8.5451870">
        <ele>257.2</ele>
        <time>2019-08-18T08:02:40Z</time>
      </trkpt>
      <trkpt lat="42.8802490" lon="-8.5452470">
        <ele>257.6</ele>
        <time>2019-08-18T08:02:45Z</time>
      </trkpt>
      <trkpt lat="42.8803610" lon="-8.5454030">
        <ele>257.9</ele>
        <time>2019-08-18T08:02:52Z</time>
      </trkpt>
      <trkpt lat="42.8804700" lon="-8.5454100">
        <ele>257.9</ele>
        <time>2019-08-18T08:02:57Z</time>
      </trkpt>
      <trkpt lat="42.8804760" lon="-8.5454420">
        <ele>257.6</ele>
        <time>2019-08-18T08:02:58Z</time>
      </trkpt>
      <trkpt lat="42.8804610" lon="-8.5455360">
        <ele>256.8</ele>
        <time>2019-08-18T08:03:01Z</time>
      </trkpt>
      <trkpt lat="42.8804600" lon="-8.5455800">
        <ele>256.5</ele>
        <time>2019-08-18T08:03:03Z</time>
      </trkpt>
      <trkpt lat="42.8804620" lon="-8.5455950">
        <ele>256.3</ele>
        <time>2019-08-18T08:03:05Z</time>
      </trkpt>
    </trkseg>
  </trk>
</gpx>
